<?xml version="1.0" encoding="UTF-8" standalone="no" ?>
<gpx xmlns="http://www.topografix.com/GPX/1/1" xmlns:xsi="http://www.w3.org/2001/XMLSchema-instance" xsi:schemaLocation="http://www.topografix.com/GPX/1/1 http://www.topografix.com/GPX/1/1/gpx.xsd" version="1.1" creator="VisuGPX - https://www.visugpx.com">
  <metadata>
    <name>GRAN CUT 2019</name>
    <desc><![CDATA[GRAN CAMPRODON ULTRA TRAIL 2019]]></desc>
  </metadata>
  <trk>
    <name><![CDATA[2019 GRAN CUT]]></name>
    <trkseg>
      <trkpt lat="42.31417" lon="2.37219">
        <ele>951.2</ele>
        <time>2019-01-06T23:48:49Z</time>
      </trkpt>
      <trkpt lat="42.31418" lon="2.37221">
        <ele>951.2</ele>
        <time>2019-01-06T23:48:49Z</time>
      </trkpt>
      <trkpt lat="42.31419" lon="2.37225">
        <ele>951.1</ele>
        <time>2019-01-06T23:48:50Z</time>
      </trkpt>
      <trkpt lat="42.31419" lon="2.37228">
        <ele>951.2</ele>
        <time>2019-01-06T23:48:50Z</time>
      </trkpt>
      <trkpt lat="42.31419" lon="2.37232">
        <ele>951.4</ele>
        <time>2019-01-06T23:48:51Z</time>
      </trkpt>
      <trkpt lat="42.3142" lon="2.37236">
        <ele>951.3</ele>
        <time>2019-01-06T23:48:52Z</time>
      </trkpt>
      <trkpt lat="42.3142" lon="2.37239">
        <ele>951.3</ele>
        <time>2019-01-06T23:48:53Z</time>
      </trkpt>
      <trkpt lat="42.3142" lon="2.37243">
        <ele>951.4</ele>
        <time>2019-01-06T23:48:53Z</time>
      </trkpt>
      <trkpt lat="42.31421" lon="2.37247">
        <ele>951.3</ele>
        <time>2019-01-06T23:48:54Z</time>
      </trkpt>
      <trkpt lat="42.31421" lon="2.3725">
        <ele>951.3</ele>
        <time>2019-01-06T23:48:55Z</time>
      </trkpt>
      <trkpt lat="42.31422" lon="2.37254">
        <ele>951.2</ele>
        <time>2019-01-06T23:48:56Z</time>
      </trkpt>
      <trkpt lat="42.31422" lon="2.37257">
        <ele>951.2</ele>
        <time>2019-01-06T23:48:56Z</time>
      </trkpt>
      <trkpt lat="42.31422" lon="2.37261">
        <ele>951.4</ele>
        <time>2019-01-06T23:48:57Z</time>
      </trkpt>
      <trkpt lat="42.31423" lon="2.37264">
        <ele>951.3</ele>
        <time>2019-01-06T23:48:58Z</time>
      </trkpt>
      <trkpt lat="42.31424" lon="2.37268">
        <ele>951.2</ele>
        <time>2019-01-06T23:48:58Z</time>
      </trkpt>
      <trkpt lat="42.31424" lon="2.37271">
        <ele>951.3</ele>
        <time>2019-01-06T23:48:59Z</time>
      </trkpt>
      <trkpt lat="42.31425" lon="2.37274">
        <ele>951.5</ele>
        <time>2019-01-06T23:49:00Z</time>
      </trkpt>
      <trkpt lat="42.31425" lon="2.37278">
        <ele>951.5</ele>
        <time>2019-01-06T23:49:00Z</time>
      </trkpt>
      <trkpt lat="42.31426" lon="2.37281">
        <ele>951.2</ele>
        <time>2019-01-06T23:49:01Z</time>
      </trkpt>
      <trkpt lat="42.31426" lon="2.37285">
        <ele>951.2</ele>
        <time>2019-01-06T23:49:02Z</time>
      </trkpt>
      <trkpt lat="42.31427" lon="2.37288">
        <ele>951.1</ele>
        <time>2019-01-06T23:49:02Z</time>
      </trkpt>
      <trkpt lat="42.31428" lon="2.3729">
        <ele>951</ele>
        <time>2019-01-06T23:49:03Z</time>
      </trkpt>
      <trkpt lat="42.31429" lon="2.37293">
        <ele>951</ele>
        <time>2019-01-06T23:49:04Z</time>
      </trkpt>
      <trkpt lat="42.31431" lon="2.37296">
        <ele>951</ele>
        <time>2019-01-06T23:49:04Z</time>
      </trkpt>
      <trkpt lat="42.31431" lon="2.37299">
        <ele>950.9</ele>
        <time>2019-01-06T23:49:05Z</time>
      </trkpt>
      <trkpt lat="42.31433" lon="2.37302">
        <ele>950.8</ele>
        <time>2019-01-06T23:49:06Z</time>
      </trkpt>
      <trkpt lat="42.31434" lon="2.37305">
        <ele>950.6</ele>
        <time>2019-01-06T23:49:06Z</time>
      </trkpt>
      <trkpt lat="42.31436" lon="2.37307">
        <ele>950.6</ele>
        <time>2019-01-06T23:49:07Z</time>
      </trkpt>
      <trkpt lat="42.31438" lon="2.37309">
        <ele>950.6</ele>
        <time>2019-01-06T23:49:08Z</time>
      </trkpt>
      <trkpt lat="42.31441" lon="2.3731">
        <ele>950.6</ele>
        <time>2019-01-06T23:49:08Z</time>
      </trkpt>
      <trkpt lat="42.31442" lon="2.37312">
        <ele>950.4</ele>
        <time>2019-01-06T23:49:09Z</time>
      </trkpt>
      <trkpt lat="42.31444" lon="2.37313">
        <ele>950.3</ele>
        <time>2019-01-06T23:49:10Z</time>
      </trkpt>
      <trkpt lat="42.31447" lon="2.37314">
        <ele>950.6</ele>
        <time>2019-01-06T23:49:10Z</time>
      </trkpt>
      <trkpt lat="42.3145" lon="2.37315">
        <ele>950.7</ele>
        <time>2019-01-06T23:49:11Z</time>
      </trkpt>
      <trkpt lat="42.31453" lon="2.37316">
        <ele>951</ele>
        <time>2019-01-06T23:49:12Z</time>
      </trkpt>
      <trkpt lat="42.31456" lon="2.37317">
        <ele>951.1</ele>
        <time>2019-01-06T23:49:13Z</time>
      </trkpt>
      <trkpt lat="42.31458" lon="2.37318">
        <ele>951.4</ele>
        <time>2019-01-06T23:49:13Z</time>
      </trkpt>
      <trkpt lat="42.31461" lon="2.37318">
        <ele>951.5</ele>
        <time>2019-01-06T23:49:14Z</time>
      </trkpt>
      <trkpt lat="42.31464" lon="2.37319">
        <ele>951.7</ele>
        <time>2019-01-06T23:49:15Z</time>
      </trkpt>
      <trkpt lat="42.31466" lon="2.37319">
        <ele>951.9</ele>
        <time>2019-01-06T23:49:15Z</time>
      </trkpt>
      <trkpt lat="42.31468" lon="2.37319">
        <ele>952.2</ele>
        <time>2019-01-06T23:49:16Z</time>
      </trkpt>
      <trkpt lat="42.31471" lon="2.37321">
        <ele>952.3</ele>
        <time>2019-01-06T23:49:17Z</time>
      </trkpt>
      <trkpt lat="42.31473" lon="2.37322">
        <ele>952.3</ele>
        <time>2019-01-06T23:49:17Z</time>
      </trkpt>
      <trkpt lat="42.31475" lon="2.37324">
        <ele>952.8</ele>
        <time>2019-01-06T23:49:18Z</time>
      </trkpt>
      <trkpt lat="42.31478" lon="2.37325">
        <ele>953.1</ele>
        <time>2019-01-06T23:49:19Z</time>
      </trkpt>
      <trkpt lat="42.3148" lon="2.37326">
        <ele>953.4</ele>
        <time>2019-01-06T23:49:20Z</time>
      </trkpt>
      <trkpt lat="42.31483" lon="2.37327">
        <ele>953.9</ele>
        <time>2019-01-06T23:49:20Z</time>
      </trkpt>
      <trkpt lat="42.31486" lon="2.37327">
        <ele>954.3</ele>
        <time>2019-01-06T23:49:21Z</time>
      </trkpt>
      <trkpt lat="42.31488" lon="2.37328">
        <ele>954.7</ele>
        <time>2019-01-06T23:49:22Z</time>
      </trkpt>
      <trkpt lat="42.31491" lon="2.37329">
        <ele>955.1</ele>
        <time>2019-01-06T23:49:22Z</time>
      </trkpt>
      <trkpt lat="42.31493" lon="2.3733">
        <ele>955.2</ele>
        <time>2019-01-06T23:49:23Z</time>
      </trkpt>
      <trkpt lat="42.31496" lon="2.37331">
        <ele>955.6</ele>
        <time>2019-01-06T23:49:24Z</time>
      </trkpt>
      <trkpt lat="42.31498" lon="2.37332">
        <ele>956</ele>
        <time>2019-01-06T23:49:25Z</time>
      </trkpt>
      <trkpt lat="42.31501" lon="2.37333">
        <ele>956.2</ele>
        <time>2019-01-06T23:49:25Z</time>
      </trkpt>
      <trkpt lat="42.31504" lon="2.37335">
        <ele>956.8</ele>
        <time>2019-01-06T23:49:26Z</time>
      </trkpt>
      <trkpt lat="42.31506" lon="2.37336">
        <ele>957.1</ele>
        <time>2019-01-06T23:49:27Z</time>
      </trkpt>
      <trkpt lat="42.31509" lon="2.37338">
        <ele>957.2</ele>
        <time>2019-01-06T23:49:28Z</time>
      </trkpt>
      <trkpt lat="42.31511" lon="2.3734">
        <ele>957.3</ele>
        <time>2019-01-06T23:49:28Z</time>
      </trkpt>
      <trkpt lat="42.31513" lon="2.37342">
        <ele>957.3</ele>
        <time>2019-01-06T23:49:29Z</time>
      </trkpt>
      <trkpt lat="42.31515" lon="2.37344">
        <ele>957.5</ele>
        <time>2019-01-06T23:49:30Z</time>
      </trkpt>
      <trkpt lat="42.31517" lon="2.37345">
        <ele>957.8</ele>
        <time>2019-01-06T23:49:30Z</time>
      </trkpt>
      <trkpt lat="42.31519" lon="2.37346">
        <ele>957.9</ele>
        <time>2019-01-06T23:49:31Z</time>
      </trkpt>
      <trkpt lat="42.31522" lon="2.37348">
        <ele>958.1</ele>
        <time>2019-01-06T23:49:32Z</time>
      </trkpt>
      <trkpt lat="42.31524" lon="2.37349">
        <ele>958.4</ele>
        <time>2019-01-06T23:49:32Z</time>
      </trkpt>
      <trkpt lat="42.31526" lon="2.37351">
        <ele>958.8</ele>
        <time>2019-01-06T23:49:33Z</time>
      </trkpt>
      <trkpt lat="42.31529" lon="2.37352">
        <ele>958.8</ele>
        <time>2019-01-06T23:49:34Z</time>
      </trkpt>
      <trkpt lat="42.31531" lon="2.37354">
        <ele>958.9</ele>
        <time>2019-01-06T23:49:34Z</time>
      </trkpt>
      <trkpt lat="42.31533" lon="2.37355">
        <ele>958.9</ele>
        <time>2019-01-06T23:49:35Z</time>
      </trkpt>
      <trkpt lat="42.31535" lon="2.37356">
        <ele>958.9</ele>
        <time>2019-01-06T23:49:35Z</time>
      </trkpt>
      <trkpt lat="42.31537" lon="2.37357">
        <ele>959.2</ele>
        <time>2019-01-06T23:49:36Z</time>
      </trkpt>
      <trkpt lat="42.3154" lon="2.37358">
        <ele>959.4</ele>
        <time>2019-01-06T23:49:37Z</time>
      </trkpt>
      <trkpt lat="42.31542" lon="2.3736">
        <ele>959.3</ele>
        <time>2019-01-06T23:49:37Z</time>
      </trkpt>
      <trkpt lat="42.31545" lon="2.37361">
        <ele>959.4</ele>
        <time>2019-01-06T23:49:38Z</time>
      </trkpt>
      <trkpt lat="42.31547" lon="2.37362">
        <ele>959.7</ele>
        <time>2019-01-06T23:49:39Z</time>
      </trkpt>
      <trkpt lat="42.31549" lon="2.37363">
        <ele>959.8</ele>
        <time>2019-01-06T23:49:39Z</time>
      </trkpt>
      <trkpt lat="42.31552" lon="2.37363">
        <ele>960.1</ele>
        <time>2019-01-06T23:49:40Z</time>
      </trkpt>
      <trkpt lat="42.31554" lon="2.37364">
        <ele>960.4</ele>
        <time>2019-01-06T23:49:41Z</time>
      </trkpt>
      <trkpt lat="42.31556" lon="2.37364">
        <ele>960.8</ele>
        <time>2019-01-06T23:49:41Z</time>
      </trkpt>
      <trkpt lat="42.31558" lon="2.37363">
        <ele>961</ele>
        <time>2019-01-06T23:49:42Z</time>
      </trkpt>
      <trkpt lat="42.31561" lon="2.37363">
        <ele>961.3</ele>
        <time>2019-01-06T23:49:43Z</time>
      </trkpt>
      <trkpt lat="42.31563" lon="2.37363">
        <ele>961.5</ele>
        <time>2019-01-06T23:49:43Z</time>
      </trkpt>
      <trkpt lat="42.31565" lon="2.37364">
        <ele>961.7</ele>
        <time>2019-01-06T23:49:44Z</time>
      </trkpt>
      <trkpt lat="42.31567" lon="2.37364">
        <ele>962</ele>
        <time>2019-01-06T23:49:44Z</time>
      </trkpt>
      <trkpt lat="42.31569" lon="2.37364">
        <ele>962</ele>
        <time>2019-01-06T23:49:45Z</time>
      </trkpt>
      <trkpt lat="42.31572" lon="2.37364">
        <ele>962.3</ele>
        <time>2019-01-06T23:49:45Z</time>
      </trkpt>
      <trkpt lat="42.31574" lon="2.37364">
        <ele>962.6</ele>
        <time>2019-01-06T23:49:46Z</time>
      </trkpt>
      <trkpt lat="42.31576" lon="2.37364">
        <ele>962.6</ele>
        <time>2019-01-06T23:49:47Z</time>
      </trkpt>
      <trkpt lat="42.31578" lon="2.37364">
        <ele>962.9</ele>
        <time>2019-01-06T23:49:47Z</time>
      </trkpt>
      <trkpt lat="42.3158" lon="2.37363">
        <ele>963.3</ele>
        <time>2019-01-06T23:49:48Z</time>
      </trkpt>
      <trkpt lat="42.31582" lon="2.37363">
        <ele>963.6</ele>
        <time>2019-01-06T23:49:48Z</time>
      </trkpt>
      <trkpt lat="42.31584" lon="2.37362">
        <ele>963.7</ele>
        <time>2019-01-06T23:49:49Z</time>
      </trkpt>
      <trkpt lat="42.31586" lon="2.37362">
        <ele>963.9</ele>
        <time>2019-01-06T23:49:49Z</time>
      </trkpt>
      <trkpt lat="42.31589" lon="2.37361">
        <ele>964.1</ele>
        <time>2019-01-06T23:49:50Z</time>
      </trkpt>
      <trkpt lat="42.31591" lon="2.37361">
        <ele>964.1</ele>
        <time>2019-01-06T23:49:51Z</time>
      </trkpt>
      <trkpt lat="42.31593" lon="2.3736">
        <ele>964.3</ele>
        <time>2019-01-06T23:49:51Z</time>
      </trkpt>
      <trkpt lat="42.31595" lon="2.37359">
        <ele>964.5</ele>
        <time>2019-01-06T23:49:52Z</time>
      </trkpt>
      <trkpt lat="42.31598" lon="2.37359">
        <ele>964.7</ele>
        <time>2019-01-06T23:49:53Z</time>
      </trkpt>
      <trkpt lat="42.31599" lon="2.37358">
        <ele>964.7</ele>
        <time>2019-01-06T23:49:53Z</time>
      </trkpt>
      <trkpt lat="42.31601" lon="2.37357">
        <ele>964.9</ele>
        <time>2019-01-06T23:49:54Z</time>
      </trkpt>
      <trkpt lat="42.31603" lon="2.37356">
        <ele>965.1</ele>
        <time>2019-01-06T23:49:54Z</time>
      </trkpt>
      <trkpt lat="42.31605" lon="2.37355">
        <ele>965.5</ele>
        <time>2019-01-06T23:49:55Z</time>
      </trkpt>
      <trkpt lat="42.31607" lon="2.37354">
        <ele>965.5</ele>
        <time>2019-01-06T23:49:55Z</time>
      </trkpt>
      <trkpt lat="42.3161" lon="2.37352">
        <ele>966</ele>
        <time>2019-01-06T23:49:56Z</time>
      </trkpt>
      <trkpt lat="42.31612" lon="2.37351">
        <ele>966.3</ele>
        <time>2019-01-06T23:49:57Z</time>
      </trkpt>
      <trkpt lat="42.31614" lon="2.37349">
        <ele>966.7</ele>
        <time>2019-01-06T23:49:57Z</time>
      </trkpt>
      <trkpt lat="42.31617" lon="2.37347">
        <ele>966.9</ele>
        <time>2019-01-06T23:49:58Z</time>
      </trkpt>
      <trkpt lat="42.31619" lon="2.37344">
        <ele>967.3</ele>
        <time>2019-01-06T23:49:59Z</time>
      </trkpt>
      <trkpt lat="42.31621" lon="2.37342">
        <ele>967.8</ele>
        <time>2019-01-06T23:50:00Z</time>
      </trkpt>
      <trkpt lat="42.31623" lon="2.3734">
        <ele>968.1</ele>
        <time>2019-01-06T23:50:00Z</time>
      </trkpt>
      <trkpt lat="42.31626" lon="2.37339">
        <ele>968.3</ele>
        <time>2019-01-06T23:50:01Z</time>
      </trkpt>
      <trkpt lat="42.31628" lon="2.37337">
        <ele>968.5</ele>
        <time>2019-01-06T23:50:02Z</time>
      </trkpt>
      <trkpt lat="42.31629" lon="2.37336">
        <ele>968.8</ele>
        <time>2019-01-06T23:50:02Z</time>
      </trkpt>
      <trkpt lat="42.31631" lon="2.37334">
        <ele>969.3</ele>
        <time>2019-01-06T23:50:03Z</time>
      </trkpt>
      <trkpt lat="42.31633" lon="2.37332">
        <ele>969.4</ele>
        <time>2019-01-06T23:50:03Z</time>
      </trkpt>
      <trkpt lat="42.31635" lon="2.37331">
        <ele>969.7</ele>
        <time>2019-01-06T23:50:04Z</time>
      </trkpt>
      <trkpt lat="42.31637" lon="2.37329">
        <ele>970.1</ele>
        <time>2019-01-06T23:50:05Z</time>
      </trkpt>
      <trkpt lat="42.31639" lon="2.37327">
        <ele>970.4</ele>
        <time>2019-01-06T23:50:05Z</time>
      </trkpt>
      <trkpt lat="42.3164" lon="2.37325">
        <ele>970.4</ele>
        <time>2019-01-06T23:50:06Z</time>
      </trkpt>
      <trkpt lat="42.31642" lon="2.37323">
        <ele>970.7</ele>
        <time>2019-01-06T23:50:06Z</time>
      </trkpt>
      <trkpt lat="42.31644" lon="2.37321">
        <ele>971.1</ele>
        <time>2019-01-06T23:50:07Z</time>
      </trkpt>
      <trkpt lat="42.31645" lon="2.37319">
        <ele>971.2</ele>
        <time>2019-01-06T23:50:08Z</time>
      </trkpt>
      <trkpt lat="42.31647" lon="2.37317">
        <ele>971.5</ele>
        <time>2019-01-06T23:50:08Z</time>
      </trkpt>
      <trkpt lat="42.31648" lon="2.37315">
        <ele>971.7</ele>
        <time>2019-01-06T23:50:09Z</time>
      </trkpt>
      <trkpt lat="42.31651" lon="2.37314">
        <ele>971.9</ele>
        <time>2019-01-06T23:50:09Z</time>
      </trkpt>
      <trkpt lat="42.31653" lon="2.37312">
        <ele>972.3</ele>
        <time>2019-01-06T23:50:10Z</time>
      </trkpt>
      <trkpt lat="42.31654" lon="2.3731">
        <ele>972.6</ele>
        <time>2019-01-06T23:50:11Z</time>
      </trkpt>
      <trkpt lat="42.31656" lon="2.37308">
        <ele>973</ele>
        <time>2019-01-06T23:50:11Z</time>
      </trkpt>
      <trkpt lat="42.31657" lon="2.37306">
        <ele>973.4</ele>
        <time>2019-01-06T23:50:12Z</time>
      </trkpt>
      <trkpt lat="42.31659" lon="2.37304">
        <ele>973.6</ele>
        <time>2019-01-06T23:50:12Z</time>
      </trkpt>
      <trkpt lat="42.31661" lon="2.37303">
        <ele>973.9</ele>
        <time>2019-01-06T23:50:13Z</time>
      </trkpt>
      <trkpt lat="42.31664" lon="2.37302">
        <ele>973.9</ele>
        <time>2019-01-06T23:50:14Z</time>
      </trkpt>
      <trkpt lat="42.31666" lon="2.373">
        <ele>974.4</ele>
        <time>2019-01-06T23:50:14Z</time>
      </trkpt>
      <trkpt lat="42.31668" lon="2.37299">
        <ele>974.7</ele>
        <time>2019-01-06T23:50:15Z</time>
      </trkpt>
      <trkpt lat="42.31669" lon="2.37296">
        <ele>975.2</ele>
        <time>2019-01-06T23:50:15Z</time>
      </trkpt>
      <trkpt lat="42.31671" lon="2.37294">
        <ele>975.9</ele>
        <time>2019-01-06T23:50:16Z</time>
      </trkpt>
      <trkpt lat="42.31674" lon="2.37293">
        <ele>976.2</ele>
        <time>2019-01-06T23:50:17Z</time>
      </trkpt>
      <trkpt lat="42.31676" lon="2.37293">
        <ele>976.7</ele>
        <time>2019-01-06T23:50:17Z</time>
      </trkpt>
      <trkpt lat="42.31678" lon="2.37292">
        <ele>976.9</ele>
        <time>2019-01-06T23:50:18Z</time>
      </trkpt>
      <trkpt lat="42.3168" lon="2.37292">
        <ele>977.2</ele>
        <time>2019-01-06T23:50:19Z</time>
      </trkpt>
      <trkpt lat="42.31682" lon="2.37293">
        <ele>977.3</ele>
        <time>2019-01-06T23:50:19Z</time>
      </trkpt>
      <trkpt lat="42.31684" lon="2.37293">
        <ele>977.4</ele>
        <time>2019-01-06T23:50:20Z</time>
      </trkpt>
      <trkpt lat="42.31686" lon="2.37293">
        <ele>977.4</ele>
        <time>2019-01-06T23:50:20Z</time>
      </trkpt>
      <trkpt lat="42.31688" lon="2.37293">
        <ele>977.6</ele>
        <time>2019-01-06T23:50:21Z</time>
      </trkpt>
      <trkpt lat="42.3169" lon="2.37293">
        <ele>977.8</ele>
        <time>2019-01-06T23:50:21Z</time>
      </trkpt>
      <trkpt lat="42.31692" lon="2.37292">
        <ele>978.5</ele>
        <time>2019-01-06T23:50:22Z</time>
      </trkpt>
      <trkpt lat="42.31693" lon="2.3729">
        <ele>979.1</ele>
        <time>2019-01-06T23:50:22Z</time>
      </trkpt>
      <trkpt lat="42.31694" lon="2.37287">
        <ele>979.6</ele>
        <time>2019-01-06T23:50:23Z</time>
      </trkpt>
      <trkpt lat="42.31695" lon="2.37285">
        <ele>980.3</ele>
        <time>2019-01-06T23:50:23Z</time>
      </trkpt>
      <trkpt lat="42.31693" lon="2.37283">
        <ele>980.8</ele>
        <time>2019-01-06T23:50:24Z</time>
      </trkpt>
      <trkpt lat="42.31691" lon="2.37281">
        <ele>980.9</ele>
        <time>2019-01-06T23:50:25Z</time>
      </trkpt>
      <trkpt lat="42.3169" lon="2.3728">
        <ele>981.2</ele>
        <time>2019-01-06T23:50:25Z</time>
      </trkpt>
      <trkpt lat="42.31688" lon="2.37278">
        <ele>981.3</ele>
        <time>2019-01-06T23:50:26Z</time>
      </trkpt>
      <trkpt lat="42.31686" lon="2.37276">
        <ele>981.6</ele>
        <time>2019-01-06T23:50:26Z</time>
      </trkpt>
      <trkpt lat="42.31684" lon="2.37273">
        <ele>981.7</ele>
        <time>2019-01-06T23:50:27Z</time>
      </trkpt>
      <trkpt lat="42.31683" lon="2.37271">
        <ele>981.9</ele>
        <time>2019-01-06T23:50:28Z</time>
      </trkpt>
      <trkpt lat="42.31681" lon="2.37268">
        <ele>982.2</ele>
        <time>2019-01-06T23:50:28Z</time>
      </trkpt>
      <trkpt lat="42.3168" lon="2.37266">
        <ele>982.7</ele>
        <time>2019-01-06T23:50:29Z</time>
      </trkpt>
      <trkpt lat="42.31678" lon="2.37264">
        <ele>982.8</ele>
        <time>2019-01-06T23:50:29Z</time>
      </trkpt>
      <trkpt lat="42.31677" lon="2.37262">
        <ele>983</ele>
        <time>2019-01-06T23:50:30Z</time>
      </trkpt>
      <trkpt lat="42.31675" lon="2.37259">
        <ele>983.3</ele>
        <time>2019-01-06T23:50:31Z</time>
      </trkpt>
      <trkpt lat="42.31673" lon="2.37257">
        <ele>983.7</ele>
        <time>2019-01-06T23:50:31Z</time>
      </trkpt>
      <trkpt lat="42.31672" lon="2.37255">
        <ele>984</ele>
        <time>2019-01-06T23:50:32Z</time>
      </trkpt>
      <trkpt lat="42.3167" lon="2.37253">
        <ele>984.1</ele>
        <time>2019-01-06T23:50:33Z</time>
      </trkpt>
      <trkpt lat="42.31669" lon="2.3725">
        <ele>984.3</ele>
        <time>2019-01-06T23:50:33Z</time>
      </trkpt>
      <trkpt lat="42.31667" lon="2.37248">
        <ele>984.5</ele>
        <time>2019-01-06T23:50:34Z</time>
      </trkpt>
      <trkpt lat="42.31666" lon="2.37246">
        <ele>984.8</ele>
        <time>2019-01-06T23:50:34Z</time>
      </trkpt>
      <trkpt lat="42.31664" lon="2.37244">
        <ele>985.1</ele>
        <time>2019-01-06T23:50:35Z</time>
      </trkpt>
      <trkpt lat="42.31663" lon="2.37241">
        <ele>985.5</ele>
        <time>2019-01-06T23:50:36Z</time>
      </trkpt>
      <trkpt lat="42.31662" lon="2.37238">
        <ele>986</ele>
        <time>2019-01-06T23:50:36Z</time>
      </trkpt>
      <trkpt lat="42.31663" lon="2.37235">
        <ele>986.6</ele>
        <time>2019-01-06T23:50:37Z</time>
      </trkpt>
      <trkpt lat="42.31664" lon="2.37232">
        <ele>987.5</ele>
        <time>2019-01-06T23:50:38Z</time>
      </trkpt>
      <trkpt lat="42.31667" lon="2.37231">
        <ele>988.1</ele>
        <time>2019-01-06T23:50:38Z</time>
      </trkpt>
      <trkpt lat="42.31669" lon="2.37231">
        <ele>988.5</ele>
        <time>2019-01-06T23:50:39Z</time>
      </trkpt>
      <trkpt lat="42.31671" lon="2.37231">
        <ele>988.7</ele>
        <time>2019-01-06T23:50:39Z</time>
      </trkpt>
      <trkpt lat="42.31674" lon="2.37232">
        <ele>988.6</ele>
        <time>2019-01-06T23:50:40Z</time>
      </trkpt>
      <trkpt lat="42.31676" lon="2.37232">
        <ele>988.8</ele>
        <time>2019-01-06T23:50:41Z</time>
      </trkpt>
      <trkpt lat="42.31679" lon="2.37233">
        <ele>988.7</ele>
        <time>2019-01-06T23:50:41Z</time>
      </trkpt>
      <trkpt lat="42.31681" lon="2.37233">
        <ele>988.9</ele>
        <time>2019-01-06T23:50:42Z</time>
      </trkpt>
      <trkpt lat="42.31683" lon="2.37233">
        <ele>989.2</ele>
        <time>2019-01-06T23:50:43Z</time>
      </trkpt>
      <trkpt lat="42.31686" lon="2.37233">
        <ele>989.3</ele>
        <time>2019-01-06T23:50:43Z</time>
      </trkpt>
      <trkpt lat="42.31688" lon="2.37233">
        <ele>989.5</ele>
        <time>2019-01-06T23:50:44Z</time>
      </trkpt>
      <trkpt lat="42.31689" lon="2.37231">
        <ele>990.1</ele>
        <time>2019-01-06T23:50:44Z</time>
      </trkpt>
      <trkpt lat="42.3169" lon="2.37229">
        <ele>990.4</ele>
        <time>2019-01-06T23:50:45Z</time>
      </trkpt>
      <trkpt lat="42.31691" lon="2.37226">
        <ele>991</ele>
        <time>2019-01-06T23:50:45Z</time>
      </trkpt>
      <trkpt lat="42.3169" lon="2.37224">
        <ele>991.5</ele>
        <time>2019-01-06T23:50:46Z</time>
      </trkpt>
      <trkpt lat="42.31688" lon="2.37222">
        <ele>991.6</ele>
        <time>2019-01-06T23:50:47Z</time>
      </trkpt>
      <trkpt lat="42.31686" lon="2.37221">
        <ele>991.7</ele>
        <time>2019-01-06T23:50:47Z</time>
      </trkpt>
      <trkpt lat="42.31683" lon="2.37221">
        <ele>991.7</ele>
        <time>2019-01-06T23:50:48Z</time>
      </trkpt>
      <trkpt lat="42.31681" lon="2.3722">
        <ele>992.1</ele>
        <time>2019-01-06T23:50:49Z</time>
      </trkpt>
      <trkpt lat="42.31679" lon="2.37218">
        <ele>992.2</ele>
        <time>2019-01-06T23:50:49Z</time>
      </trkpt>
      <trkpt lat="42.31676" lon="2.37218">
        <ele>992.1</ele>
        <time>2019-01-06T23:50:50Z</time>
      </trkpt>
      <trkpt lat="42.31674" lon="2.37215">
        <ele>992.7</ele>
        <time>2019-01-06T23:50:51Z</time>
      </trkpt>
      <trkpt lat="42.31672" lon="2.37214">
        <ele>993</ele>
        <time>2019-01-06T23:50:51Z</time>
      </trkpt>
      <trkpt lat="42.3167" lon="2.37212">
        <ele>993.1</ele>
        <time>2019-01-06T23:50:52Z</time>
      </trkpt>
      <trkpt lat="42.31668" lon="2.3721">
        <ele>993.5</ele>
        <time>2019-01-06T23:50:53Z</time>
      </trkpt>
      <trkpt lat="42.31666" lon="2.37208">
        <ele>993.8</ele>
        <time>2019-01-06T23:50:53Z</time>
      </trkpt>
      <trkpt lat="42.31664" lon="2.37206">
        <ele>994.1</ele>
        <time>2019-01-06T23:50:54Z</time>
      </trkpt>
      <trkpt lat="42.31663" lon="2.37203">
        <ele>994.5</ele>
        <time>2019-01-06T23:50:55Z</time>
      </trkpt>
      <trkpt lat="42.31661" lon="2.37201">
        <ele>994.5</ele>
        <time>2019-01-06T23:50:55Z</time>
      </trkpt>
      <trkpt lat="42.3166" lon="2.37199">
        <ele>994.9</ele>
        <time>2019-01-06T23:50:56Z</time>
      </trkpt>
      <trkpt lat="42.31659" lon="2.37197">
        <ele>995</ele>
        <time>2019-01-06T23:50:56Z</time>
      </trkpt>
      <trkpt lat="42.31657" lon="2.37194">
        <ele>995</ele>
        <time>2019-01-06T23:50:57Z</time>
      </trkpt>
      <trkpt lat="42.31657" lon="2.37191">
        <ele>995.3</ele>
        <time>2019-01-06T23:50:57Z</time>
      </trkpt>
      <trkpt lat="42.31656" lon="2.37189">
        <ele>995.6</ele>
        <time>2019-01-06T23:50:58Z</time>
      </trkpt>
      <trkpt lat="42.31656" lon="2.37186">
        <ele>996</ele>
        <time>2019-01-06T23:50:59Z</time>
      </trkpt>
      <trkpt lat="42.31657" lon="2.37183">
        <ele>996.5</ele>
        <time>2019-01-06T23:50:59Z</time>
      </trkpt>
      <trkpt lat="42.31658" lon="2.37182">
        <ele>997.3</ele>
        <time>2019-01-06T23:51:00Z</time>
      </trkpt>
      <trkpt lat="42.3166" lon="2.37182">
        <ele>997.9</ele>
        <time>2019-01-06T23:51:00Z</time>
      </trkpt>
      <trkpt lat="42.31662" lon="2.37184">
        <ele>998.3</ele>
        <time>2019-01-06T23:51:01Z</time>
      </trkpt>
      <trkpt lat="42.31664" lon="2.37186">
        <ele>998.6</ele>
        <time>2019-01-06T23:51:01Z</time>
      </trkpt>
      <trkpt lat="42.31666" lon="2.37187">
        <ele>999.3</ele>
        <time>2019-01-06T23:51:02Z</time>
      </trkpt>
      <trkpt lat="42.31668" lon="2.37188">
        <ele>999.4</ele>
        <time>2019-01-06T23:51:03Z</time>
      </trkpt>
      <trkpt lat="42.3167" lon="2.3719">
        <ele>999.3</ele>
        <time>2019-01-06T23:51:03Z</time>
      </trkpt>
      <trkpt lat="42.31672" lon="2.37191">
        <ele>999.5</ele>
        <time>2019-01-06T23:51:04Z</time>
      </trkpt>
      <trkpt lat="42.31674" lon="2.37191">
        <ele>999.6</ele>
        <time>2019-01-06T23:51:04Z</time>
      </trkpt>
      <trkpt lat="42.31676" lon="2.37191">
        <ele>1000</ele>
        <time>2019-01-06T23:51:05Z</time>
      </trkpt>
      <trkpt lat="42.31678" lon="2.37189">
        <ele>1000.6</ele>
        <time>2019-01-06T23:51:06Z</time>
      </trkpt>
      <trkpt lat="42.3168" lon="2.37188">
        <ele>1001</ele>
        <time>2019-01-06T23:51:06Z</time>
      </trkpt>
      <trkpt lat="42.31682" lon="2.37186">
        <ele>1001.7</ele>
        <time>2019-01-06T23:51:07Z</time>
      </trkpt>
      <trkpt lat="42.31682" lon="2.37183">
        <ele>1002.4</ele>
        <time>2019-01-06T23:51:07Z</time>
      </trkpt>
      <trkpt lat="42.31681" lon="2.3718">
        <ele>1003.1</ele>
        <time>2019-01-06T23:51:08Z</time>
      </trkpt>
      <trkpt lat="42.31681" lon="2.37178">
        <ele>1003.5</ele>
        <time>2019-01-06T23:51:08Z</time>
      </trkpt>
      <trkpt lat="42.31679" lon="2.37175">
        <ele>1003.8</ele>
        <time>2019-01-06T23:51:09Z</time>
      </trkpt>
      <trkpt lat="42.31677" lon="2.37173">
        <ele>1004</ele>
        <time>2019-01-06T23:51:10Z</time>
      </trkpt>
      <trkpt lat="42.31676" lon="2.37171">
        <ele>1004.1</ele>
        <time>2019-01-06T23:51:10Z</time>
      </trkpt>
      <trkpt lat="42.31675" lon="2.37169">
        <ele>1004.5</ele>
        <time>2019-01-06T23:51:11Z</time>
      </trkpt>
      <trkpt lat="42.31674" lon="2.37165">
        <ele>1004.8</ele>
        <time>2019-01-06T23:51:11Z</time>
      </trkpt>
      <trkpt lat="42.31674" lon="2.37163">
        <ele>1004.9</ele>
        <time>2019-01-06T23:51:12Z</time>
      </trkpt>
      <trkpt lat="42.31674" lon="2.3716">
        <ele>1005</ele>
        <time>2019-01-06T23:51:12Z</time>
      </trkpt>
      <trkpt lat="42.31674" lon="2.37157">
        <ele>1005.1</ele>
        <time>2019-01-06T23:51:13Z</time>
      </trkpt>
      <trkpt lat="42.31675" lon="2.37154">
        <ele>1005.4</ele>
        <time>2019-01-06T23:51:14Z</time>
      </trkpt>
      <trkpt lat="42.31675" lon="2.3715">
        <ele>1005.8</ele>
        <time>2019-01-06T23:51:14Z</time>
      </trkpt>
      <trkpt lat="42.31676" lon="2.37147">
        <ele>1006.4</ele>
        <time>2019-01-06T23:51:15Z</time>
      </trkpt>
      <trkpt lat="42.31677" lon="2.37145">
        <ele>1006.8</ele>
        <time>2019-01-06T23:51:16Z</time>
      </trkpt>
      <trkpt lat="42.31678" lon="2.37142">
        <ele>1007.3</ele>
        <time>2019-01-06T23:51:16Z</time>
      </trkpt>
      <trkpt lat="42.31679" lon="2.37139">
        <ele>1007.9</ele>
        <time>2019-01-06T23:51:17Z</time>
      </trkpt>
      <trkpt lat="42.3168" lon="2.37137">
        <ele>1008.3</ele>
        <time>2019-01-06T23:51:17Z</time>
      </trkpt>
      <trkpt lat="42.31681" lon="2.37134">
        <ele>1008.5</ele>
        <time>2019-01-06T23:51:18Z</time>
      </trkpt>
      <trkpt lat="42.31682" lon="2.37132">
        <ele>1009</ele>
        <time>2019-01-06T23:51:18Z</time>
      </trkpt>
      <trkpt lat="42.31683" lon="2.3713">
        <ele>1009.3</ele>
        <time>2019-01-06T23:51:19Z</time>
      </trkpt>
      <trkpt lat="42.31684" lon="2.37127">
        <ele>1009.9</ele>
        <time>2019-01-06T23:51:20Z</time>
      </trkpt>
      <trkpt lat="42.31686" lon="2.37125">
        <ele>1010.5</ele>
        <time>2019-01-06T23:51:20Z</time>
      </trkpt>
      <trkpt lat="42.31686" lon="2.37123">
        <ele>1010.7</ele>
        <time>2019-01-06T23:51:21Z</time>
      </trkpt>
      <trkpt lat="42.31687" lon="2.37119">
        <ele>1011.2</ele>
        <time>2019-01-06T23:51:21Z</time>
      </trkpt>
      <trkpt lat="42.31688" lon="2.37115">
        <ele>1011.6</ele>
        <time>2019-01-06T23:51:22Z</time>
      </trkpt>
      <trkpt lat="42.31689" lon="2.37113">
        <ele>1011.9</ele>
        <time>2019-01-06T23:51:23Z</time>
      </trkpt>
      <trkpt lat="42.31689" lon="2.37109">
        <ele>1012.3</ele>
        <time>2019-01-06T23:51:23Z</time>
      </trkpt>
      <trkpt lat="42.31689" lon="2.37105">
        <ele>1012.3</ele>
        <time>2019-01-06T23:51:24Z</time>
      </trkpt>
      <trkpt lat="42.31689" lon="2.37102">
        <ele>1012.4</ele>
        <time>2019-01-06T23:51:25Z</time>
      </trkpt>
      <trkpt lat="42.31689" lon="2.37098">
        <ele>1012.3</ele>
        <time>2019-01-06T23:51:25Z</time>
      </trkpt>
      <trkpt lat="42.3169" lon="2.37094">
        <ele>1012.5</ele>
        <time>2019-01-06T23:51:26Z</time>
      </trkpt>
      <trkpt lat="42.31692" lon="2.37092">
        <ele>1013.5</ele>
        <time>2019-01-06T23:51:27Z</time>
      </trkpt>
      <trkpt lat="42.31694" lon="2.3709">
        <ele>1014.7</ele>
        <time>2019-01-06T23:51:28Z</time>
      </trkpt>
      <trkpt lat="42.31696" lon="2.37091">
        <ele>1015.7</ele>
        <time>2019-01-06T23:51:28Z</time>
      </trkpt>
      <trkpt lat="42.31697" lon="2.37093">
        <ele>1016.4</ele>
        <time>2019-01-06T23:51:29Z</time>
      </trkpt>
      <trkpt lat="42.31698" lon="2.37095">
        <ele>1016.7</ele>
        <time>2019-01-06T23:51:29Z</time>
      </trkpt>
      <trkpt lat="42.31698" lon="2.37099">
        <ele>1017</ele>
        <time>2019-01-06T23:51:30Z</time>
      </trkpt>
      <trkpt lat="42.31698" lon="2.37101">
        <ele>1016.8</ele>
        <time>2019-01-06T23:51:30Z</time>
      </trkpt>
      <trkpt lat="42.31699" lon="2.37104">
        <ele>1017</ele>
        <time>2019-01-06T23:51:31Z</time>
      </trkpt>
      <trkpt lat="42.31699" lon="2.37107">
        <ele>1017.3</ele>
        <time>2019-01-06T23:51:32Z</time>
      </trkpt>
      <trkpt lat="42.317" lon="2.3711">
        <ele>1017.2</ele>
        <time>2019-01-06T23:51:32Z</time>
      </trkpt>
      <trkpt lat="42.31701" lon="2.37113">
        <ele>1017.6</ele>
        <time>2019-01-06T23:51:33Z</time>
      </trkpt>
      <trkpt lat="42.31702" lon="2.37116">
        <ele>1017.8</ele>
        <time>2019-01-06T23:51:33Z</time>
      </trkpt>
      <trkpt lat="42.31703" lon="2.37119">
        <ele>1017.9</ele>
        <time>2019-01-06T23:51:34Z</time>
      </trkpt>
      <trkpt lat="42.31704" lon="2.37122">
        <ele>1017.9</ele>
        <time>2019-01-06T23:51:35Z</time>
      </trkpt>
      <trkpt lat="42.31705" lon="2.37125">
        <ele>1018</ele>
        <time>2019-01-06T23:51:35Z</time>
      </trkpt>
      <trkpt lat="42.31706" lon="2.37128">
        <ele>1018.2</ele>
        <time>2019-01-06T23:51:36Z</time>
      </trkpt>
      <trkpt lat="42.31707" lon="2.3713">
        <ele>1018.2</ele>
        <time>2019-01-06T23:51:37Z</time>
      </trkpt>
      <trkpt lat="42.31709" lon="2.37133">
        <ele>1018.6</ele>
        <time>2019-01-06T23:51:37Z</time>
      </trkpt>
      <trkpt lat="42.31711" lon="2.37134">
        <ele>1018.9</ele>
        <time>2019-01-06T23:51:38Z</time>
      </trkpt>
      <trkpt lat="42.31713" lon="2.37136">
        <ele>1019.2</ele>
        <time>2019-01-06T23:51:38Z</time>
      </trkpt>
      <trkpt lat="42.31715" lon="2.37136">
        <ele>1019.6</ele>
        <time>2019-01-06T23:51:39Z</time>
      </trkpt>
      <trkpt lat="42.31717" lon="2.37137">
        <ele>1020</ele>
        <time>2019-01-06T23:51:40Z</time>
      </trkpt>
      <trkpt lat="42.3172" lon="2.37138">
        <ele>1020.8</ele>
        <time>2019-01-06T23:51:40Z</time>
      </trkpt>
      <trkpt lat="42.31722" lon="2.37138">
        <ele>1021.2</ele>
        <time>2019-01-06T23:51:41Z</time>
      </trkpt>
      <trkpt lat="42.31724" lon="2.37138">
        <ele>1021.5</ele>
        <time>2019-01-06T23:51:42Z</time>
      </trkpt>
      <trkpt lat="42.31727" lon="2.37138">
        <ele>1021.6</ele>
        <time>2019-01-06T23:51:42Z</time>
      </trkpt>
      <trkpt lat="42.31729" lon="2.37137">
        <ele>1022</ele>
        <time>2019-01-06T23:51:43Z</time>
      </trkpt>
      <trkpt lat="42.31731" lon="2.37136">
        <ele>1022.5</ele>
        <time>2019-01-06T23:51:43Z</time>
      </trkpt>
      <trkpt lat="42.31732" lon="2.37133">
        <ele>1023.2</ele>
        <time>2019-01-06T23:51:44Z</time>
      </trkpt>
      <trkpt lat="42.31732" lon="2.37131">
        <ele>1024.2</ele>
        <time>2019-01-06T23:51:45Z</time>
      </trkpt>
      <trkpt lat="42.31731" lon="2.37128">
        <ele>1024.7</ele>
        <time>2019-01-06T23:51:45Z</time>
      </trkpt>
      <trkpt lat="42.31729" lon="2.37125">
        <ele>1025.1</ele>
        <time>2019-01-06T23:51:46Z</time>
      </trkpt>
      <trkpt lat="42.31727" lon="2.37123">
        <ele>1025.4</ele>
        <time>2019-01-06T23:51:47Z</time>
      </trkpt>
      <trkpt lat="42.31725" lon="2.37121">
        <ele>1025.6</ele>
        <time>2019-01-06T23:51:47Z</time>
      </trkpt>
      <trkpt lat="42.31723" lon="2.37119">
        <ele>1025.8</ele>
        <time>2019-01-06T23:51:48Z</time>
      </trkpt>
      <trkpt lat="42.31722" lon="2.37116">
        <ele>1025.8</ele>
        <time>2019-01-06T23:51:49Z</time>
      </trkpt>
      <trkpt lat="42.3172" lon="2.37114">
        <ele>1025.6</ele>
        <time>2019-01-06T23:51:49Z</time>
      </trkpt>
      <trkpt lat="42.31719" lon="2.3711">
        <ele>1025.6</ele>
        <time>2019-01-06T23:51:50Z</time>
      </trkpt>
      <trkpt lat="42.31718" lon="2.37107">
        <ele>1025.7</ele>
        <time>2019-01-06T23:51:51Z</time>
      </trkpt>
      <trkpt lat="42.31717" lon="2.37105">
        <ele>1025.5</ele>
        <time>2019-01-06T23:51:51Z</time>
      </trkpt>
      <trkpt lat="42.31716" lon="2.37102">
        <ele>1025.5</ele>
        <time>2019-01-06T23:51:52Z</time>
      </trkpt>
      <trkpt lat="42.31717" lon="2.37098">
        <ele>1026.1</ele>
        <time>2019-01-06T23:51:53Z</time>
      </trkpt>
      <trkpt lat="42.31717" lon="2.37095">
        <ele>1026.6</ele>
        <time>2019-01-06T23:51:53Z</time>
      </trkpt>
      <trkpt lat="42.31717" lon="2.37092">
        <ele>1027.2</ele>
        <time>2019-01-06T23:51:54Z</time>
      </trkpt>
      <trkpt lat="42.31718" lon="2.37089">
        <ele>1028</ele>
        <time>2019-01-06T23:51:54Z</time>
      </trkpt>
      <trkpt lat="42.31719" lon="2.37086">
        <ele>1028.7</ele>
        <time>2019-01-06T23:51:55Z</time>
      </trkpt>
      <trkpt lat="42.31719" lon="2.37082">
        <ele>1029.2</ele>
        <time>2019-01-06T23:51:56Z</time>
      </trkpt>
      <trkpt lat="42.3172" lon="2.37079">
        <ele>1029.4</ele>
        <time>2019-01-06T23:51:56Z</time>
      </trkpt>
      <trkpt lat="42.3172" lon="2.37076">
        <ele>1030</ele>
        <time>2019-01-06T23:51:57Z</time>
      </trkpt>
      <trkpt lat="42.31721" lon="2.37074">
        <ele>1030.6</ele>
        <time>2019-01-06T23:51:57Z</time>
      </trkpt>
      <trkpt lat="42.31722" lon="2.37071">
        <ele>1031.2</ele>
        <time>2019-01-06T23:51:58Z</time>
      </trkpt>
      <trkpt lat="42.31724" lon="2.37069">
        <ele>1031.6</ele>
        <time>2019-01-06T23:51:59Z</time>
      </trkpt>
      <trkpt lat="42.31725" lon="2.37067">
        <ele>1032.1</ele>
        <time>2019-01-06T23:51:59Z</time>
      </trkpt>
      <trkpt lat="42.31725" lon="2.37064">
        <ele>1032.4</ele>
        <time>2019-01-06T23:52:00Z</time>
      </trkpt>
      <trkpt lat="42.31726" lon="2.37062">
        <ele>1033</ele>
        <time>2019-01-06T23:52:00Z</time>
      </trkpt>
      <trkpt lat="42.31726" lon="2.37058">
        <ele>1033</ele>
        <time>2019-01-06T23:52:01Z</time>
      </trkpt>
      <trkpt lat="42.31727" lon="2.37056">
        <ele>1033.5</ele>
        <time>2019-01-06T23:52:01Z</time>
      </trkpt>
      <trkpt lat="42.31728" lon="2.37053">
        <ele>1034</ele>
        <time>2019-01-06T23:52:02Z</time>
      </trkpt>
      <trkpt lat="42.31728" lon="2.3705">
        <ele>1034.3</ele>
        <time>2019-01-06T23:52:03Z</time>
      </trkpt>
      <trkpt lat="42.31729" lon="2.37047">
        <ele>1034.5</ele>
        <time>2019-01-06T23:52:03Z</time>
      </trkpt>
      <trkpt lat="42.31729" lon="2.37044">
        <ele>1034.7</ele>
        <time>2019-01-06T23:52:04Z</time>
      </trkpt>
      <trkpt lat="42.3173" lon="2.37041">
        <ele>1035</ele>
        <time>2019-01-06T23:52:04Z</time>
      </trkpt>
      <trkpt lat="42.31731" lon="2.37038">
        <ele>1035.5</ele>
        <time>2019-01-06T23:52:05Z</time>
      </trkpt>
      <trkpt lat="42.31731" lon="2.37036">
        <ele>1035.6</ele>
        <time>2019-01-06T23:52:06Z</time>
      </trkpt>
      <trkpt lat="42.31732" lon="2.37033">
        <ele>1035.8</ele>
        <time>2019-01-06T23:52:06Z</time>
      </trkpt>
      <trkpt lat="42.31733" lon="2.3703">
        <ele>1036.3</ele>
        <time>2019-01-06T23:52:07Z</time>
      </trkpt>
      <trkpt lat="42.31734" lon="2.37029">
        <ele>1036.8</ele>
        <time>2019-01-06T23:52:07Z</time>
      </trkpt>
      <trkpt lat="42.31736" lon="2.37025">
        <ele>1037.8</ele>
        <time>2019-01-06T23:52:08Z</time>
      </trkpt>
      <trkpt lat="42.31737" lon="2.37023">
        <ele>1038.4</ele>
        <time>2019-01-06T23:52:09Z</time>
      </trkpt>
      <trkpt lat="42.3174" lon="2.37022">
        <ele>1039.3</ele>
        <time>2019-01-06T23:52:09Z</time>
      </trkpt>
      <trkpt lat="42.31742" lon="2.37023">
        <ele>1040</ele>
        <time>2019-01-06T23:52:10Z</time>
      </trkpt>
      <trkpt lat="42.31743" lon="2.37025">
        <ele>1040.3</ele>
        <time>2019-01-06T23:52:10Z</time>
      </trkpt>
      <trkpt lat="42.31743" lon="2.37028">
        <ele>1040.3</ele>
        <time>2019-01-06T23:52:11Z</time>
      </trkpt>
      <trkpt lat="42.31743" lon="2.3703">
        <ele>1040.4</ele>
        <time>2019-01-06T23:52:11Z</time>
      </trkpt>
      <trkpt lat="42.31743" lon="2.37033">
        <ele>1040.4</ele>
        <time>2019-01-06T23:52:12Z</time>
      </trkpt>
      <trkpt lat="42.31743" lon="2.37036">
        <ele>1040.5</ele>
        <time>2019-01-06T23:52:13Z</time>
      </trkpt>
      <trkpt lat="42.31742" lon="2.37039">
        <ele>1040.5</ele>
        <time>2019-01-06T23:52:13Z</time>
      </trkpt>
      <trkpt lat="42.31742" lon="2.37042">
        <ele>1040.6</ele>
        <time>2019-01-06T23:52:14Z</time>
      </trkpt>
      <trkpt lat="42.31742" lon="2.37046">
        <ele>1040.7</ele>
        <time>2019-01-06T23:52:14Z</time>
      </trkpt>
      <trkpt lat="42.31743" lon="2.37049">
        <ele>1041.3</ele>
        <time>2019-01-06T23:52:15Z</time>
      </trkpt>
      <trkpt lat="42.31744" lon="2.37052">
        <ele>1041.7</ele>
        <time>2019-01-06T23:52:16Z</time>
      </trkpt>
      <trkpt lat="42.31745" lon="2.37054">
        <ele>1042.5</ele>
        <time>2019-01-06T23:52:16Z</time>
      </trkpt>
      <trkpt lat="42.31745" lon="2.37057">
        <ele>1042.7</ele>
        <time>2019-01-06T23:52:17Z</time>
      </trkpt>
      <trkpt lat="42.31747" lon="2.3706">
        <ele>1043.3</ele>
        <time>2019-01-06T23:52:18Z</time>
      </trkpt>
      <trkpt lat="42.31749" lon="2.37063">
        <ele>1043.7</ele>
        <time>2019-01-06T23:52:18Z</time>
      </trkpt>
      <trkpt lat="42.3175" lon="2.37066">
        <ele>1044.1</ele>
        <time>2019-01-06T23:52:19Z</time>
      </trkpt>
      <trkpt lat="42.31752" lon="2.37068">
        <ele>1044.1</ele>
        <time>2019-01-06T23:52:20Z</time>
      </trkpt>
      <trkpt lat="42.31754" lon="2.3707">
        <ele>1044.4</ele>
        <time>2019-01-06T23:52:20Z</time>
      </trkpt>
      <trkpt lat="42.31756" lon="2.37072">
        <ele>1044.6</ele>
        <time>2019-01-06T23:52:21Z</time>
      </trkpt>
      <trkpt lat="42.31757" lon="2.37074">
        <ele>1044.8</ele>
        <time>2019-01-06T23:52:21Z</time>
      </trkpt>
      <trkpt lat="42.31759" lon="2.37076">
        <ele>1044.9</ele>
        <time>2019-01-06T23:52:22Z</time>
      </trkpt>
      <trkpt lat="42.31762" lon="2.37077">
        <ele>1045.3</ele>
        <time>2019-01-06T23:52:23Z</time>
      </trkpt>
      <trkpt lat="42.31764" lon="2.37077">
        <ele>1045.7</ele>
        <time>2019-01-06T23:52:23Z</time>
      </trkpt>
      <trkpt lat="42.31766" lon="2.37078">
        <ele>1046.2</ele>
        <time>2019-01-06T23:52:24Z</time>
      </trkpt>
      <trkpt lat="42.31768" lon="2.37078">
        <ele>1046.3</ele>
        <time>2019-01-06T23:52:24Z</time>
      </trkpt>
      <trkpt lat="42.3177" lon="2.37079">
        <ele>1046.5</ele>
        <time>2019-01-06T23:52:25Z</time>
      </trkpt>
      <trkpt lat="42.31772" lon="2.37079">
        <ele>1047.1</ele>
        <time>2019-01-06T23:52:26Z</time>
      </trkpt>
      <trkpt lat="42.31775" lon="2.37079">
        <ele>1047.6</ele>
        <time>2019-01-06T23:52:26Z</time>
      </trkpt>
      <trkpt lat="42.31777" lon="2.37079">
        <ele>1048.1</ele>
        <time>2019-01-06T23:52:27Z</time>
      </trkpt>
      <trkpt lat="42.31779" lon="2.37079">
        <ele>1048.3</ele>
        <time>2019-01-06T23:52:28Z</time>
      </trkpt>
      <trkpt lat="42.31781" lon="2.37078">
        <ele>1048.7</ele>
        <time>2019-01-06T23:52:28Z</time>
      </trkpt>
      <trkpt lat="42.31783" lon="2.37078">
        <ele>1049</ele>
        <time>2019-01-06T23:52:29Z</time>
      </trkpt>
      <trkpt lat="42.31786" lon="2.37078">
        <ele>1049.2</ele>
        <time>2019-01-06T23:52:29Z</time>
      </trkpt>
      <trkpt lat="42.31789" lon="2.37078">
        <ele>1049.5</ele>
        <time>2019-01-06T23:52:30Z</time>
      </trkpt>
      <trkpt lat="42.31791" lon="2.37077">
        <ele>1049.8</ele>
        <time>2019-01-06T23:52:31Z</time>
      </trkpt>
      <trkpt lat="42.31794" lon="2.37077">
        <ele>1050.3</ele>
        <time>2019-01-06T23:52:31Z</time>
      </trkpt>
      <trkpt lat="42.31796" lon="2.37075">
        <ele>1051</ele>
        <time>2019-01-06T23:52:32Z</time>
      </trkpt>
      <trkpt lat="42.31798" lon="2.37075">
        <ele>1051.6</ele>
        <time>2019-01-06T23:52:33Z</time>
      </trkpt>
      <trkpt lat="42.318" lon="2.37074">
        <ele>1052</ele>
        <time>2019-01-06T23:52:33Z</time>
      </trkpt>
      <trkpt lat="42.31802" lon="2.37073">
        <ele>1052.4</ele>
        <time>2019-01-06T23:52:34Z</time>
      </trkpt>
      <trkpt lat="42.31804" lon="2.37073">
        <ele>1052.7</ele>
        <time>2019-01-06T23:52:34Z</time>
      </trkpt>
      <trkpt lat="42.31806" lon="2.37074">
        <ele>1052.5</ele>
        <time>2019-01-06T23:52:35Z</time>
      </trkpt>
      <trkpt lat="42.31809" lon="2.37074">
        <ele>1052.5</ele>
        <time>2019-01-06T23:52:36Z</time>
      </trkpt>
      <trkpt lat="42.31812" lon="2.37073">
        <ele>1053.1</ele>
        <time>2019-01-06T23:52:36Z</time>
      </trkpt>
      <trkpt lat="42.31814" lon="2.37072">
        <ele>1053.1</ele>
        <time>2019-01-06T23:52:37Z</time>
      </trkpt>
      <trkpt lat="42.31816" lon="2.37072">
        <ele>1053</ele>
        <time>2019-01-06T23:52:38Z</time>
      </trkpt>
      <trkpt lat="42.31818" lon="2.37071">
        <ele>1053.4</ele>
        <time>2019-01-06T23:52:38Z</time>
      </trkpt>
      <trkpt lat="42.3182" lon="2.3707">
        <ele>1053.9</ele>
        <time>2019-01-06T23:52:39Z</time>
      </trkpt>
      <trkpt lat="42.31823" lon="2.37069">
        <ele>1054.5</ele>
        <time>2019-01-06T23:52:39Z</time>
      </trkpt>
      <trkpt lat="42.31825" lon="2.37067">
        <ele>1054.8</ele>
        <time>2019-01-06T23:52:40Z</time>
      </trkpt>
      <trkpt lat="42.31828" lon="2.37067">
        <ele>1055.1</ele>
        <time>2019-01-06T23:52:41Z</time>
      </trkpt>
      <trkpt lat="42.3183" lon="2.37065">
        <ele>1055.5</ele>
        <time>2019-01-06T23:52:42Z</time>
      </trkpt>
      <trkpt lat="42.31832" lon="2.37065">
        <ele>1055.9</ele>
        <time>2019-01-06T23:52:42Z</time>
      </trkpt>
      <trkpt lat="42.31834" lon="2.37063">
        <ele>1056.2</ele>
        <time>2019-01-06T23:52:43Z</time>
      </trkpt>
      <trkpt lat="42.31836" lon="2.37062">
        <ele>1056.5</ele>
        <time>2019-01-06T23:52:43Z</time>
      </trkpt>
      <trkpt lat="42.31838" lon="2.37061">
        <ele>1056.8</ele>
        <time>2019-01-06T23:52:44Z</time>
      </trkpt>
      <trkpt lat="42.3184" lon="2.3706">
        <ele>1057.2</ele>
        <time>2019-01-06T23:52:44Z</time>
      </trkpt>
      <trkpt lat="42.31842" lon="2.37059">
        <ele>1057.5</ele>
        <time>2019-01-06T23:52:45Z</time>
      </trkpt>
      <trkpt lat="42.31845" lon="2.37059">
        <ele>1057.6</ele>
        <time>2019-01-06T23:52:46Z</time>
      </trkpt>
      <trkpt lat="42.31847" lon="2.37058">
        <ele>1057.9</ele>
        <time>2019-01-06T23:52:46Z</time>
      </trkpt>
      <trkpt lat="42.31849" lon="2.37055">
        <ele>1058.7</ele>
        <time>2019-01-06T23:52:47Z</time>
      </trkpt>
      <trkpt lat="42.31851" lon="2.37054">
        <ele>1058.8</ele>
        <time>2019-01-06T23:52:48Z</time>
      </trkpt>
      <trkpt lat="42.31852" lon="2.37053">
        <ele>1059.4</ele>
        <time>2019-01-06T23:52:48Z</time>
      </trkpt>
      <trkpt lat="42.31854" lon="2.37052">
        <ele>1059.8</ele>
        <time>2019-01-06T23:52:49Z</time>
      </trkpt>
      <trkpt lat="42.31857" lon="2.3705">
        <ele>1059.9</ele>
        <time>2019-01-06T23:52:49Z</time>
      </trkpt>
      <trkpt lat="42.31859" lon="2.37049">
        <ele>1060.1</ele>
        <time>2019-01-06T23:52:50Z</time>
      </trkpt>
      <trkpt lat="42.31861" lon="2.37048">
        <ele>1060.5</ele>
        <time>2019-01-06T23:52:51Z</time>
      </trkpt>
      <trkpt lat="42.31863" lon="2.37046">
        <ele>1061</ele>
        <time>2019-01-06T23:52:51Z</time>
      </trkpt>
      <trkpt lat="42.31865" lon="2.37044">
        <ele>1061.3</ele>
        <time>2019-01-06T23:52:52Z</time>
      </trkpt>
      <trkpt lat="42.31866" lon="2.37043">
        <ele>1061.3</ele>
        <time>2019-01-06T23:52:52Z</time>
      </trkpt>
      <trkpt lat="42.31868" lon="2.37042">
        <ele>1061.5</ele>
        <time>2019-01-06T23:52:53Z</time>
      </trkpt>
      <trkpt lat="42.3187" lon="2.3704">
        <ele>1061.8</ele>
        <time>2019-01-06T23:52:53Z</time>
      </trkpt>
      <trkpt lat="42.31872" lon="2.37038">
        <ele>1062.6</ele>
        <time>2019-01-06T23:52:54Z</time>
      </trkpt>
      <trkpt lat="42.31874" lon="2.37036">
        <ele>1063.2</ele>
        <time>2019-01-06T23:52:55Z</time>
      </trkpt>
      <trkpt lat="42.31875" lon="2.37034">
        <ele>1063.8</ele>
        <time>2019-01-06T23:52:55Z</time>
      </trkpt>
      <trkpt lat="42.31877" lon="2.37032">
        <ele>1064.3</ele>
        <time>2019-01-06T23:52:56Z</time>
      </trkpt>
      <trkpt lat="42.31879" lon="2.37031">
        <ele>1064.7</ele>
        <time>2019-01-06T23:52:56Z</time>
      </trkpt>
      <trkpt lat="42.3188" lon="2.37028">
        <ele>1065.4</ele>
        <time>2019-01-06T23:52:57Z</time>
      </trkpt>
      <trkpt lat="42.31882" lon="2.37026">
        <ele>1065.9</ele>
        <time>2019-01-06T23:52:58Z</time>
      </trkpt>
      <trkpt lat="42.31884" lon="2.37024">
        <ele>1066.2</ele>
        <time>2019-01-06T23:52:58Z</time>
      </trkpt>
      <trkpt lat="42.31886" lon="2.37022">
        <ele>1066.4</ele>
        <time>2019-01-06T23:52:59Z</time>
      </trkpt>
      <trkpt lat="42.31888" lon="2.3702">
        <ele>1066.9</ele>
        <time>2019-01-06T23:53:00Z</time>
      </trkpt>
      <trkpt lat="42.3189" lon="2.37018">
        <ele>1067.1</ele>
        <time>2019-01-06T23:53:00Z</time>
      </trkpt>
      <trkpt lat="42.31892" lon="2.37016">
        <ele>1067.3</ele>
        <time>2019-01-06T23:53:01Z</time>
      </trkpt>
      <trkpt lat="42.31894" lon="2.37015">
        <ele>1067.7</ele>
        <time>2019-01-06T23:53:02Z</time>
      </trkpt>
      <trkpt lat="42.31895" lon="2.37012">
        <ele>1068.1</ele>
        <time>2019-01-06T23:53:02Z</time>
      </trkpt>
      <trkpt lat="42.31897" lon="2.3701">
        <ele>1068.5</ele>
        <time>2019-01-06T23:53:03Z</time>
      </trkpt>
      <trkpt lat="42.31899" lon="2.37009">
        <ele>1068.7</ele>
        <time>2019-01-06T23:53:03Z</time>
      </trkpt>
      <trkpt lat="42.31901" lon="2.37008">
        <ele>1068.8</ele>
        <time>2019-01-06T23:53:04Z</time>
      </trkpt>
      <trkpt lat="42.31903" lon="2.37007">
        <ele>1068.9</ele>
        <time>2019-01-06T23:53:04Z</time>
      </trkpt>
      <trkpt lat="42.31905" lon="2.37006">
        <ele>1069.1</ele>
        <time>2019-01-06T23:53:05Z</time>
      </trkpt>
      <trkpt lat="42.31906" lon="2.37004">
        <ele>1069.4</ele>
        <time>2019-01-06T23:53:06Z</time>
      </trkpt>
      <trkpt lat="42.31909" lon="2.37003">
        <ele>1069.8</ele>
        <time>2019-01-06T23:53:06Z</time>
      </trkpt>
      <trkpt lat="42.31911" lon="2.37001">
        <ele>1070</ele>
        <time>2019-01-06T23:53:07Z</time>
      </trkpt>
      <trkpt lat="42.31912" lon="2.36999">
        <ele>1070.5</ele>
        <time>2019-01-06T23:53:07Z</time>
      </trkpt>
      <trkpt lat="42.31914" lon="2.36997">
        <ele>1071</ele>
        <time>2019-01-06T23:53:08Z</time>
      </trkpt>
      <trkpt lat="42.31916" lon="2.36995">
        <ele>1071.5</ele>
        <time>2019-01-06T23:53:09Z</time>
      </trkpt>
      <trkpt lat="42.31919" lon="2.36994">
        <ele>1071.6</ele>
        <time>2019-01-06T23:53:10Z</time>
      </trkpt>
      <trkpt lat="42.3192" lon="2.36992">
        <ele>1072</ele>
        <time>2019-01-06T23:53:10Z</time>
      </trkpt>
      <trkpt lat="42.31922" lon="2.36989">
        <ele>1072.5</ele>
        <time>2019-01-06T23:53:11Z</time>
      </trkpt>
      <trkpt lat="42.31924" lon="2.36987">
        <ele>1072.6</ele>
        <time>2019-01-06T23:53:11Z</time>
      </trkpt>
      <trkpt lat="42.31926" lon="2.36985">
        <ele>1073.1</ele>
        <time>2019-01-06T23:53:12Z</time>
      </trkpt>
      <trkpt lat="42.31928" lon="2.36983">
        <ele>1073.4</ele>
        <time>2019-01-06T23:53:13Z</time>
      </trkpt>
      <trkpt lat="42.3193" lon="2.3698">
        <ele>1073.8</ele>
        <time>2019-01-06T23:53:14Z</time>
      </trkpt>
      <trkpt lat="42.31932" lon="2.36979">
        <ele>1074.2</ele>
        <time>2019-01-06T23:53:14Z</time>
      </trkpt>
      <trkpt lat="42.31933" lon="2.36977">
        <ele>1074.4</ele>
        <time>2019-01-06T23:53:15Z</time>
      </trkpt>
      <trkpt lat="42.31936" lon="2.36975">
        <ele>1074.6</ele>
        <time>2019-01-06T23:53:15Z</time>
      </trkpt>
      <trkpt lat="42.31937" lon="2.36973">
        <ele>1075</ele>
        <time>2019-01-06T23:53:16Z</time>
      </trkpt>
      <trkpt lat="42.31939" lon="2.36971">
        <ele>1075.3</ele>
        <time>2019-01-06T23:53:16Z</time>
      </trkpt>
      <trkpt lat="42.31941" lon="2.36969">
        <ele>1075.7</ele>
        <time>2019-01-06T23:53:17Z</time>
      </trkpt>
      <trkpt lat="42.31943" lon="2.36968">
        <ele>1076.1</ele>
        <time>2019-01-06T23:53:18Z</time>
      </trkpt>
      <trkpt lat="42.31945" lon="2.36966">
        <ele>1076.6</ele>
        <time>2019-01-06T23:53:19Z</time>
      </trkpt>
      <trkpt lat="42.31948" lon="2.36964">
        <ele>1077.2</ele>
        <time>2019-01-06T23:53:19Z</time>
      </trkpt>
      <trkpt lat="42.3195" lon="2.36963">
        <ele>1077.7</ele>
        <time>2019-01-06T23:53:20Z</time>
      </trkpt>
      <trkpt lat="42.31952" lon="2.3696">
        <ele>1078.6</ele>
        <time>2019-01-06T23:53:21Z</time>
      </trkpt>
      <trkpt lat="42.31954" lon="2.36959">
        <ele>1079.1</ele>
        <time>2019-01-06T23:53:21Z</time>
      </trkpt>
      <trkpt lat="42.31957" lon="2.36958">
        <ele>1079.7</ele>
        <time>2019-01-06T23:53:22Z</time>
      </trkpt>
      <trkpt lat="42.3196" lon="2.36956">
        <ele>1080.1</ele>
        <time>2019-01-06T23:53:23Z</time>
      </trkpt>
      <trkpt lat="42.31962" lon="2.36955">
        <ele>1080.3</ele>
        <time>2019-01-06T23:53:23Z</time>
      </trkpt>
      <trkpt lat="42.31964" lon="2.36955">
        <ele>1080.6</ele>
        <time>2019-01-06T23:53:24Z</time>
      </trkpt>
      <trkpt lat="42.31966" lon="2.36954">
        <ele>1081</ele>
        <time>2019-01-06T23:53:25Z</time>
      </trkpt>
      <trkpt lat="42.31969" lon="2.36953">
        <ele>1081.2</ele>
        <time>2019-01-06T23:53:25Z</time>
      </trkpt>
      <trkpt lat="42.31972" lon="2.36952">
        <ele>1081.6</ele>
        <time>2019-01-06T23:53:26Z</time>
      </trkpt>
      <trkpt lat="42.31974" lon="2.36951">
        <ele>1081.9</ele>
        <time>2019-01-06T23:53:27Z</time>
      </trkpt>
      <trkpt lat="42.31977" lon="2.36951">
        <ele>1082.2</ele>
        <time>2019-01-06T23:53:27Z</time>
      </trkpt>
      <trkpt lat="42.31979" lon="2.3695">
        <ele>1082.8</ele>
        <time>2019-01-06T23:53:28Z</time>
      </trkpt>
      <trkpt lat="42.31982" lon="2.36949">
        <ele>1083.3</ele>
        <time>2019-01-06T23:53:29Z</time>
      </trkpt>
      <trkpt lat="42.31985" lon="2.36949">
        <ele>1083.7</ele>
        <time>2019-01-06T23:53:30Z</time>
      </trkpt>
      <trkpt lat="42.31987" lon="2.36949">
        <ele>1084</ele>
        <time>2019-01-06T23:53:30Z</time>
      </trkpt>
      <trkpt lat="42.3199" lon="2.36949">
        <ele>1084.1</ele>
        <time>2019-01-06T23:53:31Z</time>
      </trkpt>
      <trkpt lat="42.31992" lon="2.36949">
        <ele>1084.3</ele>
        <time>2019-01-06T23:53:32Z</time>
      </trkpt>
      <trkpt lat="42.31995" lon="2.3695">
        <ele>1084.3</ele>
        <time>2019-01-06T23:53:32Z</time>
      </trkpt>
      <trkpt lat="42.31997" lon="2.36951">
        <ele>1084.6</ele>
        <time>2019-01-06T23:53:33Z</time>
      </trkpt>
      <trkpt lat="42.32" lon="2.36952">
        <ele>1084.5</ele>
        <time>2019-01-06T23:53:34Z</time>
      </trkpt>
      <trkpt lat="42.32002" lon="2.36953">
        <ele>1084.8</ele>
        <time>2019-01-06T23:53:34Z</time>
      </trkpt>
      <trkpt lat="42.32005" lon="2.36954">
        <ele>1085.2</ele>
        <time>2019-01-06T23:53:35Z</time>
      </trkpt>
      <trkpt lat="42.32008" lon="2.36954">
        <ele>1085.6</ele>
        <time>2019-01-06T23:53:36Z</time>
      </trkpt>
      <trkpt lat="42.3201" lon="2.36955">
        <ele>1085.7</ele>
        <time>2019-01-06T23:53:37Z</time>
      </trkpt>
      <trkpt lat="42.32012" lon="2.36956">
        <ele>1086</ele>
        <time>2019-01-06T23:53:37Z</time>
      </trkpt>
      <trkpt lat="42.32014" lon="2.36956">
        <ele>1086.4</ele>
        <time>2019-01-06T23:53:38Z</time>
      </trkpt>
      <trkpt lat="42.32017" lon="2.36957">
        <ele>1086.7</ele>
        <time>2019-01-06T23:53:38Z</time>
      </trkpt>
      <trkpt lat="42.32019" lon="2.36957">
        <ele>1087.3</ele>
        <time>2019-01-06T23:53:39Z</time>
      </trkpt>
      <trkpt lat="42.32022" lon="2.36958">
        <ele>1087.7</ele>
        <time>2019-01-06T23:53:40Z</time>
      </trkpt>
      <trkpt lat="42.32024" lon="2.36958">
        <ele>1087.9</ele>
        <time>2019-01-06T23:53:40Z</time>
      </trkpt>
      <trkpt lat="42.32027" lon="2.36959">
        <ele>1088.3</ele>
        <time>2019-01-06T23:53:41Z</time>
      </trkpt>
      <trkpt lat="42.32029" lon="2.36958">
        <ele>1088.8</ele>
        <time>2019-01-06T23:53:42Z</time>
      </trkpt>
      <trkpt lat="42.32031" lon="2.36958">
        <ele>1088.9</ele>
        <time>2019-01-06T23:53:42Z</time>
      </trkpt>
      <trkpt lat="42.32033" lon="2.36958">
        <ele>1089.4</ele>
        <time>2019-01-06T23:53:43Z</time>
      </trkpt>
      <trkpt lat="42.32036" lon="2.36958">
        <ele>1089.8</ele>
        <time>2019-01-06T23:53:44Z</time>
      </trkpt>
      <trkpt lat="42.32038" lon="2.36957">
        <ele>1090.1</ele>
        <time>2019-01-06T23:53:44Z</time>
      </trkpt>
      <trkpt lat="42.3204" lon="2.36957">
        <ele>1090.5</ele>
        <time>2019-01-06T23:53:45Z</time>
      </trkpt>
      <trkpt lat="42.32043" lon="2.36956">
        <ele>1091.1</ele>
        <time>2019-01-06T23:53:45Z</time>
      </trkpt>
      <trkpt lat="42.32045" lon="2.36956">
        <ele>1091.5</ele>
        <time>2019-01-06T23:53:46Z</time>
      </trkpt>
      <trkpt lat="42.32048" lon="2.36956">
        <ele>1091.8</ele>
        <time>2019-01-06T23:53:47Z</time>
      </trkpt>
      <trkpt lat="42.32051" lon="2.36957">
        <ele>1092</ele>
        <time>2019-01-06T23:53:48Z</time>
      </trkpt>
      <trkpt lat="42.32053" lon="2.36957">
        <ele>1092.1</ele>
        <time>2019-01-06T23:53:48Z</time>
      </trkpt>
      <trkpt lat="42.32056" lon="2.36958">
        <ele>1092.3</ele>
        <time>2019-01-06T23:53:49Z</time>
      </trkpt>
      <trkpt lat="42.32059" lon="2.3696">
        <ele>1092.6</ele>
        <time>2019-01-06T23:53:50Z</time>
      </trkpt>
      <trkpt lat="42.32061" lon="2.36962">
        <ele>1093.1</ele>
        <time>2019-01-06T23:53:51Z</time>
      </trkpt>
      <trkpt lat="42.32063" lon="2.36964">
        <ele>1093.3</ele>
        <time>2019-01-06T23:53:51Z</time>
      </trkpt>
      <trkpt lat="42.32066" lon="2.36967">
        <ele>1093.7</ele>
        <time>2019-01-06T23:53:52Z</time>
      </trkpt>
      <trkpt lat="42.32068" lon="2.3697">
        <ele>1093.8</ele>
        <time>2019-01-06T23:53:53Z</time>
      </trkpt>
      <trkpt lat="42.32069" lon="2.36973">
        <ele>1093.8</ele>
        <time>2019-01-06T23:53:54Z</time>
      </trkpt>
      <trkpt lat="42.3207" lon="2.36976">
        <ele>1094.6</ele>
        <time>2019-01-06T23:53:54Z</time>
      </trkpt>
      <trkpt lat="42.32071" lon="2.36979">
        <ele>1095</ele>
        <time>2019-01-06T23:53:55Z</time>
      </trkpt>
      <trkpt lat="42.32072" lon="2.36982">
        <ele>1095.4</ele>
        <time>2019-01-06T23:53:56Z</time>
      </trkpt>
      <trkpt lat="42.32072" lon="2.36985">
        <ele>1095.9</ele>
        <time>2019-01-06T23:53:56Z</time>
      </trkpt>
      <trkpt lat="42.32073" lon="2.36988">
        <ele>1096</ele>
        <time>2019-01-06T23:53:57Z</time>
      </trkpt>
      <trkpt lat="42.32073" lon="2.36992">
        <ele>1096.2</ele>
        <time>2019-01-06T23:53:58Z</time>
      </trkpt>
      <trkpt lat="42.32073" lon="2.36994">
        <ele>1096.3</ele>
        <time>2019-01-06T23:53:58Z</time>
      </trkpt>
      <trkpt lat="42.32073" lon="2.36998">
        <ele>1096.3</ele>
        <time>2019-01-06T23:53:59Z</time>
      </trkpt>
      <trkpt lat="42.32072" lon="2.37001">
        <ele>1096.1</ele>
        <time>2019-01-06T23:53:59Z</time>
      </trkpt>
      <trkpt lat="42.32072" lon="2.37004">
        <ele>1096.6</ele>
        <time>2019-01-06T23:54:00Z</time>
      </trkpt>
      <trkpt lat="42.32072" lon="2.37008">
        <ele>1097</ele>
        <time>2019-01-06T23:54:01Z</time>
      </trkpt>
      <trkpt lat="42.32072" lon="2.37011">
        <ele>1097.4</ele>
        <time>2019-01-06T23:54:01Z</time>
      </trkpt>
      <trkpt lat="42.32071" lon="2.37014">
        <ele>1097.7</ele>
        <time>2019-01-06T23:54:02Z</time>
      </trkpt>
      <trkpt lat="42.32071" lon="2.37018">
        <ele>1098.3</ele>
        <time>2019-01-06T23:54:03Z</time>
      </trkpt>
      <trkpt lat="42.32071" lon="2.37021">
        <ele>1098.7</ele>
        <time>2019-01-06T23:54:03Z</time>
      </trkpt>
      <trkpt lat="42.3207" lon="2.37024">
        <ele>1098.9</ele>
        <time>2019-01-06T23:54:04Z</time>
      </trkpt>
      <trkpt lat="42.3207" lon="2.37028">
        <ele>1099.3</ele>
        <time>2019-01-06T23:54:05Z</time>
      </trkpt>
      <trkpt lat="42.32069" lon="2.37031">
        <ele>1099.6</ele>
        <time>2019-01-06T23:54:05Z</time>
      </trkpt>
      <trkpt lat="42.32069" lon="2.37034">
        <ele>1099.6</ele>
        <time>2019-01-06T23:54:06Z</time>
      </trkpt>
      <trkpt lat="42.32068" lon="2.37038">
        <ele>1099.9</ele>
        <time>2019-01-06T23:54:07Z</time>
      </trkpt>
      <trkpt lat="42.32068" lon="2.37041">
        <ele>1100</ele>
        <time>2019-01-06T23:54:07Z</time>
      </trkpt>
      <trkpt lat="42.32067" lon="2.37044">
        <ele>1100.4</ele>
        <time>2019-01-06T23:54:08Z</time>
      </trkpt>
      <trkpt lat="42.32067" lon="2.37047">
        <ele>1100.5</ele>
        <time>2019-01-06T23:54:09Z</time>
      </trkpt>
      <trkpt lat="42.32067" lon="2.3705">
        <ele>1100.9</ele>
        <time>2019-01-06T23:54:09Z</time>
      </trkpt>
      <trkpt lat="42.32066" lon="2.37053">
        <ele>1101.2</ele>
        <time>2019-01-06T23:54:10Z</time>
      </trkpt>
      <trkpt lat="42.32066" lon="2.37057">
        <ele>1101.6</ele>
        <time>2019-01-06T23:54:11Z</time>
      </trkpt>
      <trkpt lat="42.32065" lon="2.3706">
        <ele>1101.9</ele>
        <time>2019-01-06T23:54:11Z</time>
      </trkpt>
      <trkpt lat="42.32064" lon="2.37062">
        <ele>1101.9</ele>
        <time>2019-01-06T23:54:12Z</time>
      </trkpt>
      <trkpt lat="42.32064" lon="2.37065">
        <ele>1102</ele>
        <time>2019-01-06T23:54:12Z</time>
      </trkpt>
      <trkpt lat="42.32063" lon="2.37068">
        <ele>1102.3</ele>
        <time>2019-01-06T23:54:13Z</time>
      </trkpt>
      <trkpt lat="42.32064" lon="2.37072">
        <ele>1103</ele>
        <time>2019-01-06T23:54:14Z</time>
      </trkpt>
      <trkpt lat="42.32063" lon="2.37075">
        <ele>1103.3</ele>
        <time>2019-01-06T23:54:14Z</time>
      </trkpt>
      <trkpt lat="42.32063" lon="2.37078">
        <ele>1103.7</ele>
        <time>2019-01-06T23:54:15Z</time>
      </trkpt>
      <trkpt lat="42.32063" lon="2.37081">
        <ele>1104.1</ele>
        <time>2019-01-06T23:54:16Z</time>
      </trkpt>
      <trkpt lat="42.32063" lon="2.37084">
        <ele>1104.5</ele>
        <time>2019-01-06T23:54:16Z</time>
      </trkpt>
      <trkpt lat="42.32064" lon="2.37087">
        <ele>1104.9</ele>
        <time>2019-01-06T23:54:17Z</time>
      </trkpt>
      <trkpt lat="42.32064" lon="2.3709">
        <ele>1105.4</ele>
        <time>2019-01-06T23:54:17Z</time>
      </trkpt>
      <trkpt lat="42.32064" lon="2.37093">
        <ele>1105.9</ele>
        <time>2019-01-06T23:54:18Z</time>
      </trkpt>
      <trkpt lat="42.32064" lon="2.37096">
        <ele>1106.2</ele>
        <time>2019-01-06T23:54:18Z</time>
      </trkpt>
      <trkpt lat="42.32064" lon="2.371">
        <ele>1106.8</ele>
        <time>2019-01-06T23:54:19Z</time>
      </trkpt>
      <trkpt lat="42.32064" lon="2.37103">
        <ele>1106.9</ele>
        <time>2019-01-06T23:54:20Z</time>
      </trkpt>
      <trkpt lat="42.32064" lon="2.37106">
        <ele>1107.3</ele>
        <time>2019-01-06T23:54:20Z</time>
      </trkpt>
      <trkpt lat="42.32064" lon="2.37109">
        <ele>1107.7</ele>
        <time>2019-01-06T23:54:21Z</time>
      </trkpt>
      <trkpt lat="42.32065" lon="2.37112">
        <ele>1108.1</ele>
        <time>2019-01-06T23:54:22Z</time>
      </trkpt>
      <trkpt lat="42.32065" lon="2.37115">
        <ele>1108.3</ele>
        <time>2019-01-06T23:54:22Z</time>
      </trkpt>
      <trkpt lat="42.32065" lon="2.37119">
        <ele>1108.6</ele>
        <time>2019-01-06T23:54:23Z</time>
      </trkpt>
      <trkpt lat="42.32065" lon="2.37122">
        <ele>1108.7</ele>
        <time>2019-01-06T23:54:24Z</time>
      </trkpt>
      <trkpt lat="42.32065" lon="2.37125">
        <ele>1109</ele>
        <time>2019-01-06T23:54:24Z</time>
      </trkpt>
      <trkpt lat="42.32066" lon="2.37128">
        <ele>1109.5</ele>
        <time>2019-01-06T23:54:25Z</time>
      </trkpt>
      <trkpt lat="42.32066" lon="2.37132">
        <ele>1109.8</ele>
        <time>2019-01-06T23:54:26Z</time>
      </trkpt>
      <trkpt lat="42.32067" lon="2.37135">
        <ele>1110.5</ele>
        <time>2019-01-06T23:54:26Z</time>
      </trkpt>
      <trkpt lat="42.32068" lon="2.37137">
        <ele>1110.8</ele>
        <time>2019-01-06T23:54:27Z</time>
      </trkpt>
      <trkpt lat="42.32069" lon="2.3714">
        <ele>1111.1</ele>
        <time>2019-01-06T23:54:27Z</time>
      </trkpt>
      <trkpt lat="42.3207" lon="2.37143">
        <ele>1111.2</ele>
        <time>2019-01-06T23:54:28Z</time>
      </trkpt>
      <trkpt lat="42.32071" lon="2.37145">
        <ele>1111.7</ele>
        <time>2019-01-06T23:54:29Z</time>
      </trkpt>
      <trkpt lat="42.32072" lon="2.37147">
        <ele>1111.8</ele>
        <time>2019-01-06T23:54:29Z</time>
      </trkpt>
      <trkpt lat="42.32073" lon="2.37149">
        <ele>1112.2</ele>
        <time>2019-01-06T23:54:30Z</time>
      </trkpt>
      <trkpt lat="42.32075" lon="2.37151">
        <ele>1112.3</ele>
        <time>2019-01-06T23:54:30Z</time>
      </trkpt>
      <trkpt lat="42.32076" lon="2.37153">
        <ele>1112.4</ele>
        <time>2019-01-06T23:54:31Z</time>
      </trkpt>
      <trkpt lat="42.32078" lon="2.37155">
        <ele>1112.8</ele>
        <time>2019-01-06T23:54:31Z</time>
      </trkpt>
      <trkpt lat="42.32079" lon="2.37156">
        <ele>1113.4</ele>
        <time>2019-01-06T23:54:32Z</time>
      </trkpt>
      <trkpt lat="42.32081" lon="2.37158">
        <ele>1113.7</ele>
        <time>2019-01-06T23:54:32Z</time>
      </trkpt>
      <trkpt lat="42.32083" lon="2.3716">
        <ele>1114</ele>
        <time>2019-01-06T23:54:33Z</time>
      </trkpt>
      <trkpt lat="42.32085" lon="2.37161">
        <ele>1114.2</ele>
        <time>2019-01-06T23:54:33Z</time>
      </trkpt>
      <trkpt lat="42.32087" lon="2.37162">
        <ele>1114.2</ele>
        <time>2019-01-06T23:54:34Z</time>
      </trkpt>
      <trkpt lat="42.32089" lon="2.37163">
        <ele>1114.5</ele>
        <time>2019-01-06T23:54:35Z</time>
      </trkpt>
      <trkpt lat="42.32092" lon="2.37163">
        <ele>1114.7</ele>
        <time>2019-01-06T23:54:35Z</time>
      </trkpt>
      <trkpt lat="42.32094" lon="2.37163">
        <ele>1115.1</ele>
        <time>2019-01-06T23:54:36Z</time>
      </trkpt>
      <trkpt lat="42.32096" lon="2.37164">
        <ele>1115.3</ele>
        <time>2019-01-06T23:54:37Z</time>
      </trkpt>
      <trkpt lat="42.32099" lon="2.37164">
        <ele>1115.7</ele>
        <time>2019-01-06T23:54:37Z</time>
      </trkpt>
      <trkpt lat="42.32101" lon="2.37165">
        <ele>1115.7</ele>
        <time>2019-01-06T23:54:38Z</time>
      </trkpt>
      <trkpt lat="42.32103" lon="2.37165">
        <ele>1116</ele>
        <time>2019-01-06T23:54:38Z</time>
      </trkpt>
      <trkpt lat="42.32105" lon="2.37165">
        <ele>1116.4</ele>
        <time>2019-01-06T23:54:39Z</time>
      </trkpt>
      <trkpt lat="42.32107" lon="2.37166">
        <ele>1116.7</ele>
        <time>2019-01-06T23:54:39Z</time>
      </trkpt>
      <trkpt lat="42.32109" lon="2.37167">
        <ele>1116.8</ele>
        <time>2019-01-06T23:54:40Z</time>
      </trkpt>
      <trkpt lat="42.32112" lon="2.37167">
        <ele>1117.2</ele>
        <time>2019-01-06T23:54:41Z</time>
      </trkpt>
      <trkpt lat="42.32114" lon="2.37167">
        <ele>1117.3</ele>
        <time>2019-01-06T23:54:41Z</time>
      </trkpt>
      <trkpt lat="42.32116" lon="2.37168">
        <ele>1117.5</ele>
        <time>2019-01-06T23:54:42Z</time>
      </trkpt>
      <trkpt lat="42.32117" lon="2.3717">
        <ele>1117.5</ele>
        <time>2019-01-06T23:54:42Z</time>
      </trkpt>
      <trkpt lat="42.32119" lon="2.3717">
        <ele>1117.9</ele>
        <time>2019-01-06T23:54:43Z</time>
      </trkpt>
      <trkpt lat="42.32122" lon="2.37171">
        <ele>1118.1</ele>
        <time>2019-01-06T23:54:44Z</time>
      </trkpt>
      <trkpt lat="42.32124" lon="2.37172">
        <ele>1118.3</ele>
        <time>2019-01-06T23:54:44Z</time>
      </trkpt>
      <trkpt lat="42.32126" lon="2.37173">
        <ele>1118.4</ele>
        <time>2019-01-06T23:54:45Z</time>
      </trkpt>
      <trkpt lat="42.32129" lon="2.37174">
        <ele>1118.6</ele>
        <time>2019-01-06T23:54:45Z</time>
      </trkpt>
      <trkpt lat="42.32131" lon="2.37175">
        <ele>1118.9</ele>
        <time>2019-01-06T23:54:46Z</time>
      </trkpt>
      <trkpt lat="42.32134" lon="2.37175">
        <ele>1119.1</ele>
        <time>2019-01-06T23:54:47Z</time>
      </trkpt>
      <trkpt lat="42.32136" lon="2.37176">
        <ele>1119.3</ele>
        <time>2019-01-06T23:54:47Z</time>
      </trkpt>
      <trkpt lat="42.32138" lon="2.37177">
        <ele>1119.5</ele>
        <time>2019-01-06T23:54:48Z</time>
      </trkpt>
      <trkpt lat="42.3214" lon="2.37178">
        <ele>1119.8</ele>
        <time>2019-01-06T23:54:49Z</time>
      </trkpt>
      <trkpt lat="42.32143" lon="2.37179">
        <ele>1119.9</ele>
        <time>2019-01-06T23:54:49Z</time>
      </trkpt>
      <trkpt lat="42.32145" lon="2.37179">
        <ele>1119.9</ele>
        <time>2019-01-06T23:54:50Z</time>
      </trkpt>
      <trkpt lat="42.32147" lon="2.3718">
        <ele>1120.1</ele>
        <time>2019-01-06T23:54:50Z</time>
      </trkpt>
      <trkpt lat="42.32148" lon="2.37181">
        <ele>1120.2</ele>
        <time>2019-01-06T23:54:51Z</time>
      </trkpt>
      <trkpt lat="42.32151" lon="2.37182">
        <ele>1120.4</ele>
        <time>2019-01-06T23:54:52Z</time>
      </trkpt>
      <trkpt lat="42.32153" lon="2.37183">
        <ele>1120.4</ele>
        <time>2019-01-06T23:54:52Z</time>
      </trkpt>
      <trkpt lat="42.32155" lon="2.37183">
        <ele>1120.6</ele>
        <time>2019-01-06T23:54:53Z</time>
      </trkpt>
      <trkpt lat="42.32157" lon="2.37184">
        <ele>1120.7</ele>
        <time>2019-01-06T23:54:53Z</time>
      </trkpt>
      <trkpt lat="42.32159" lon="2.37185">
        <ele>1120.9</ele>
        <time>2019-01-06T23:54:54Z</time>
      </trkpt>
      <trkpt lat="42.32161" lon="2.37186">
        <ele>1121</ele>
        <time>2019-01-06T23:54:54Z</time>
      </trkpt>
      <trkpt lat="42.32164" lon="2.37187">
        <ele>1121.2</ele>
        <time>2019-01-06T23:54:55Z</time>
      </trkpt>
      <trkpt lat="42.32166" lon="2.37188">
        <ele>1121.3</ele>
        <time>2019-01-06T23:54:56Z</time>
      </trkpt>
      <trkpt lat="42.32168" lon="2.37189">
        <ele>1121.1</ele>
        <time>2019-01-06T23:54:56Z</time>
      </trkpt>
      <trkpt lat="42.3217" lon="2.3719">
        <ele>1121.3</ele>
        <time>2019-01-06T23:54:57Z</time>
      </trkpt>
      <trkpt lat="42.32172" lon="2.37192">
        <ele>1121.3</ele>
        <time>2019-01-06T23:54:58Z</time>
      </trkpt>
      <trkpt lat="42.32174" lon="2.37192">
        <ele>1121.6</ele>
        <time>2019-01-06T23:54:58Z</time>
      </trkpt>
      <trkpt lat="42.32176" lon="2.37193">
        <ele>1121.7</ele>
        <time>2019-01-06T23:54:59Z</time>
      </trkpt>
      <trkpt lat="42.32179" lon="2.37193">
        <ele>1122</ele>
        <time>2019-01-06T23:54:59Z</time>
      </trkpt>
      <trkpt lat="42.32181" lon="2.37194">
        <ele>1122.1</ele>
        <time>2019-01-06T23:55:00Z</time>
      </trkpt>
      <trkpt lat="42.32182" lon="2.37194">
        <ele>1122.4</ele>
        <time>2019-01-06T23:55:00Z</time>
      </trkpt>
      <trkpt lat="42.32185" lon="2.37195">
        <ele>1122.8</ele>
        <time>2019-01-06T23:55:01Z</time>
      </trkpt>
      <trkpt lat="42.32187" lon="2.37195">
        <ele>1122.8</ele>
        <time>2019-01-06T23:55:02Z</time>
      </trkpt>
      <trkpt lat="42.3219" lon="2.37196">
        <ele>1123.1</ele>
        <time>2019-01-06T23:55:02Z</time>
      </trkpt>
      <trkpt lat="42.32192" lon="2.37197">
        <ele>1123.2</ele>
        <time>2019-01-06T23:55:03Z</time>
      </trkpt>
      <trkpt lat="42.32193" lon="2.37198">
        <ele>1123</ele>
        <time>2019-01-06T23:55:03Z</time>
      </trkpt>
      <trkpt lat="42.32195" lon="2.37198">
        <ele>1123.2</ele>
        <time>2019-01-06T23:55:04Z</time>
      </trkpt>
      <trkpt lat="42.32197" lon="2.37197">
        <ele>1123.3</ele>
        <time>2019-01-06T23:55:05Z</time>
      </trkpt>
      <trkpt lat="42.32199" lon="2.37198">
        <ele>1123.1</ele>
        <time>2019-01-06T23:55:05Z</time>
      </trkpt>
      <trkpt lat="42.32202" lon="2.37198">
        <ele>1122.9</ele>
        <time>2019-01-06T23:55:06Z</time>
      </trkpt>
      <trkpt lat="42.32204" lon="2.37198">
        <ele>1123</ele>
        <time>2019-01-06T23:55:06Z</time>
      </trkpt>
      <trkpt lat="42.32206" lon="2.37197">
        <ele>1123.1</ele>
        <time>2019-01-06T23:55:07Z</time>
      </trkpt>
      <trkpt lat="42.32208" lon="2.37197">
        <ele>1123.1</ele>
        <time>2019-01-06T23:55:08Z</time>
      </trkpt>
      <trkpt lat="42.3221" lon="2.37197">
        <ele>1123.3</ele>
        <time>2019-01-06T23:55:08Z</time>
      </trkpt>
      <trkpt lat="42.32213" lon="2.37196">
        <ele>1123.5</ele>
        <time>2019-01-06T23:55:09Z</time>
      </trkpt>
      <trkpt lat="42.32215" lon="2.37196">
        <ele>1123.6</ele>
        <time>2019-01-06T23:55:09Z</time>
      </trkpt>
      <trkpt lat="42.32217" lon="2.37196">
        <ele>1123.4</ele>
        <time>2019-01-06T23:55:10Z</time>
      </trkpt>
      <trkpt lat="42.32219" lon="2.37196">
        <ele>1123.5</ele>
        <time>2019-01-06T23:55:10Z</time>
      </trkpt>
      <trkpt lat="42.32222" lon="2.37195">
        <ele>1123.9</ele>
        <time>2019-01-06T23:55:11Z</time>
      </trkpt>
      <trkpt lat="42.32224" lon="2.37194">
        <ele>1124.2</ele>
        <time>2019-01-06T23:55:12Z</time>
      </trkpt>
      <trkpt lat="42.32226" lon="2.37193">
        <ele>1124.2</ele>
        <time>2019-01-06T23:55:13Z</time>
      </trkpt>
      <trkpt lat="42.32229" lon="2.37191">
        <ele>1124.3</ele>
        <time>2019-01-06T23:55:13Z</time>
      </trkpt>
      <trkpt lat="42.32232" lon="2.3719">
        <ele>1124.5</ele>
        <time>2019-01-06T23:55:14Z</time>
      </trkpt>
      <trkpt lat="42.32234" lon="2.37188">
        <ele>1124.7</ele>
        <time>2019-01-06T23:55:15Z</time>
      </trkpt>
      <trkpt lat="42.32237" lon="2.37186">
        <ele>1125.1</ele>
        <time>2019-01-06T23:55:16Z</time>
      </trkpt>
      <trkpt lat="42.3224" lon="2.37185">
        <ele>1125.2</ele>
        <time>2019-01-06T23:55:16Z</time>
      </trkpt>
      <trkpt lat="42.32243" lon="2.37184">
        <ele>1125.4</ele>
        <time>2019-01-06T23:55:17Z</time>
      </trkpt>
      <trkpt lat="42.32245" lon="2.37182">
        <ele>1125.8</ele>
        <time>2019-01-06T23:55:18Z</time>
      </trkpt>
      <trkpt lat="42.32248" lon="2.37181">
        <ele>1126.2</ele>
        <time>2019-01-06T23:55:19Z</time>
      </trkpt>
      <trkpt lat="42.32251" lon="2.3718">
        <ele>1126.3</ele>
        <time>2019-01-06T23:55:19Z</time>
      </trkpt>
      <trkpt lat="42.32253" lon="2.37178">
        <ele>1126.5</ele>
        <time>2019-01-06T23:55:20Z</time>
      </trkpt>
      <trkpt lat="42.32256" lon="2.37177">
        <ele>1126.7</ele>
        <time>2019-01-06T23:55:21Z</time>
      </trkpt>
      <trkpt lat="42.32259" lon="2.37176">
        <ele>1126.8</ele>
        <time>2019-01-06T23:55:22Z</time>
      </trkpt>
      <trkpt lat="42.32262" lon="2.37175">
        <ele>1126.9</ele>
        <time>2019-01-06T23:55:23Z</time>
      </trkpt>
      <trkpt lat="42.32265" lon="2.37174">
        <ele>1126.9</ele>
        <time>2019-01-06T23:55:23Z</time>
      </trkpt>
      <trkpt lat="42.32267" lon="2.37173">
        <ele>1127</ele>
        <time>2019-01-06T23:55:24Z</time>
      </trkpt>
      <trkpt lat="42.3227" lon="2.37172">
        <ele>1127.1</ele>
        <time>2019-01-06T23:55:25Z</time>
      </trkpt>
      <trkpt lat="42.32273" lon="2.37171">
        <ele>1127.2</ele>
        <time>2019-01-06T23:55:26Z</time>
      </trkpt>
      <trkpt lat="42.32276" lon="2.3717">
        <ele>1127.2</ele>
        <time>2019-01-06T23:55:27Z</time>
      </trkpt>
      <trkpt lat="42.32279" lon="2.37169">
        <ele>1127.3</ele>
        <time>2019-01-06T23:55:27Z</time>
      </trkpt>
      <trkpt lat="42.32282" lon="2.37167">
        <ele>1127.3</ele>
        <time>2019-01-06T23:55:28Z</time>
      </trkpt>
      <trkpt lat="42.32285" lon="2.37166">
        <ele>1127.1</ele>
        <time>2019-01-06T23:55:29Z</time>
      </trkpt>
      <trkpt lat="42.32287" lon="2.37165">
        <ele>1126.9</ele>
        <time>2019-01-06T23:55:30Z</time>
      </trkpt>
      <trkpt lat="42.3229" lon="2.37163">
        <ele>1126.9</ele>
        <time>2019-01-06T23:55:30Z</time>
      </trkpt>
      <trkpt lat="42.32292" lon="2.37162">
        <ele>1126.8</ele>
        <time>2019-01-06T23:55:31Z</time>
      </trkpt>
      <trkpt lat="42.32295" lon="2.3716">
        <ele>1126.8</ele>
        <time>2019-01-06T23:55:32Z</time>
      </trkpt>
      <trkpt lat="42.32298" lon="2.37158">
        <ele>1126.7</ele>
        <time>2019-01-06T23:55:33Z</time>
      </trkpt>
      <trkpt lat="42.323" lon="2.37157">
        <ele>1126.7</ele>
        <time>2019-01-06T23:55:33Z</time>
      </trkpt>
      <trkpt lat="42.32303" lon="2.37155">
        <ele>1126.8</ele>
        <time>2019-01-06T23:55:34Z</time>
      </trkpt>
      <trkpt lat="42.32306" lon="2.37153">
        <ele>1127</ele>
        <time>2019-01-06T23:55:35Z</time>
      </trkpt>
      <trkpt lat="42.32308" lon="2.37151">
        <ele>1127.4</ele>
        <time>2019-01-06T23:55:36Z</time>
      </trkpt>
      <trkpt lat="42.32311" lon="2.37149">
        <ele>1127.6</ele>
        <time>2019-01-06T23:55:37Z</time>
      </trkpt>
      <trkpt lat="42.32314" lon="2.37148">
        <ele>1127.8</ele>
        <time>2019-01-06T23:55:38Z</time>
      </trkpt>
      <trkpt lat="42.32317" lon="2.37146">
        <ele>1127.9</ele>
        <time>2019-01-06T23:55:39Z</time>
      </trkpt>
      <trkpt lat="42.3232" lon="2.37145">
        <ele>1127.9</ele>
        <time>2019-01-06T23:55:39Z</time>
      </trkpt>
      <trkpt lat="42.32323" lon="2.37144">
        <ele>1128</ele>
        <time>2019-01-06T23:55:40Z</time>
      </trkpt>
      <trkpt lat="42.32325" lon="2.37142">
        <ele>1128.1</ele>
        <time>2019-01-06T23:55:41Z</time>
      </trkpt>
      <trkpt lat="42.32328" lon="2.37141">
        <ele>1128.1</ele>
        <time>2019-01-06T23:55:42Z</time>
      </trkpt>
      <trkpt lat="42.32332" lon="2.3714">
        <ele>1127.9</ele>
        <time>2019-01-06T23:55:43Z</time>
      </trkpt>
      <trkpt lat="42.32335" lon="2.37139">
        <ele>1127.8</ele>
        <time>2019-01-06T23:55:43Z</time>
      </trkpt>
      <trkpt lat="42.32338" lon="2.37138">
        <ele>1127.7</ele>
        <time>2019-01-06T23:55:44Z</time>
      </trkpt>
      <trkpt lat="42.32341" lon="2.37137">
        <ele>1127.4</ele>
        <time>2019-01-06T23:55:45Z</time>
      </trkpt>
      <trkpt lat="42.32344" lon="2.37135">
        <ele>1127.4</ele>
        <time>2019-01-06T23:55:46Z</time>
      </trkpt>
      <trkpt lat="42.32347" lon="2.37134">
        <ele>1127.2</ele>
        <time>2019-01-06T23:55:47Z</time>
      </trkpt>
      <trkpt lat="42.32349" lon="2.37132">
        <ele>1127.2</ele>
        <time>2019-01-06T23:55:48Z</time>
      </trkpt>
      <trkpt lat="42.32352" lon="2.3713">
        <ele>1127.1</ele>
        <time>2019-01-06T23:55:48Z</time>
      </trkpt>
      <trkpt lat="42.32355" lon="2.37129">
        <ele>1126.9</ele>
        <time>2019-01-06T23:55:49Z</time>
      </trkpt>
      <trkpt lat="42.32357" lon="2.37128">
        <ele>1127</ele>
        <time>2019-01-06T23:55:50Z</time>
      </trkpt>
      <trkpt lat="42.3236" lon="2.37126">
        <ele>1127.1</ele>
        <time>2019-01-06T23:55:51Z</time>
      </trkpt>
      <trkpt lat="42.32363" lon="2.37124">
        <ele>1127</ele>
        <time>2019-01-06T23:55:52Z</time>
      </trkpt>
      <trkpt lat="42.32366" lon="2.37121">
        <ele>1126.9</ele>
        <time>2019-01-06T23:55:52Z</time>
      </trkpt>
      <trkpt lat="42.32369" lon="2.37119">
        <ele>1126.8</ele>
        <time>2019-01-06T23:55:53Z</time>
      </trkpt>
      <trkpt lat="42.32372" lon="2.37117">
        <ele>1126.8</ele>
        <time>2019-01-06T23:55:54Z</time>
      </trkpt>
      <trkpt lat="42.32375" lon="2.37115">
        <ele>1126.8</ele>
        <time>2019-01-06T23:55:55Z</time>
      </trkpt>
      <trkpt lat="42.32378" lon="2.37112">
        <ele>1126.6</ele>
        <time>2019-01-06T23:55:56Z</time>
      </trkpt>
      <trkpt lat="42.32381" lon="2.37111">
        <ele>1126.7</ele>
        <time>2019-01-06T23:55:57Z</time>
      </trkpt>
      <trkpt lat="42.32384" lon="2.37109">
        <ele>1126.4</ele>
        <time>2019-01-06T23:55:58Z</time>
      </trkpt>
      <trkpt lat="42.32387" lon="2.37107">
        <ele>1126.5</ele>
        <time>2019-01-06T23:55:59Z</time>
      </trkpt>
      <trkpt lat="42.32391" lon="2.37106">
        <ele>1126.2</ele>
        <time>2019-01-06T23:56:00Z</time>
      </trkpt>
      <trkpt lat="42.32394" lon="2.37105">
        <ele>1125.8</ele>
        <time>2019-01-06T23:56:01Z</time>
      </trkpt>
      <trkpt lat="42.32397" lon="2.37104">
        <ele>1125.6</ele>
        <time>2019-01-06T23:56:01Z</time>
      </trkpt>
      <trkpt lat="42.324" lon="2.37102">
        <ele>1125.4</ele>
        <time>2019-01-06T23:56:02Z</time>
      </trkpt>
      <trkpt lat="42.32403" lon="2.37101">
        <ele>1125.2</ele>
        <time>2019-01-06T23:56:03Z</time>
      </trkpt>
      <trkpt lat="42.32405" lon="2.371">
        <ele>1125.1</ele>
        <time>2019-01-06T23:56:04Z</time>
      </trkpt>
      <trkpt lat="42.32407" lon="2.37099">
        <ele>1125.3</ele>
        <time>2019-01-06T23:56:04Z</time>
      </trkpt>
      <trkpt lat="42.3241" lon="2.37097">
        <ele>1125.2</ele>
        <time>2019-01-06T23:56:05Z</time>
      </trkpt>
      <trkpt lat="42.32413" lon="2.37095">
        <ele>1125.6</ele>
        <time>2019-01-06T23:56:06Z</time>
      </trkpt>
      <trkpt lat="42.32416" lon="2.37093">
        <ele>1125.9</ele>
        <time>2019-01-06T23:56:07Z</time>
      </trkpt>
      <trkpt lat="42.32418" lon="2.3709">
        <ele>1125.9</ele>
        <time>2019-01-06T23:56:08Z</time>
      </trkpt>
      <trkpt lat="42.32421" lon="2.37088">
        <ele>1125.7</ele>
        <time>2019-01-06T23:56:09Z</time>
      </trkpt>
      <trkpt lat="42.32423" lon="2.37086">
        <ele>1125.4</ele>
        <time>2019-01-06T23:56:09Z</time>
      </trkpt>
      <trkpt lat="42.32425" lon="2.37083">
        <ele>1125.3</ele>
        <time>2019-01-06T23:56:10Z</time>
      </trkpt>
      <trkpt lat="42.32427" lon="2.3708">
        <ele>1125</ele>
        <time>2019-01-06T23:56:11Z</time>
      </trkpt>
      <trkpt lat="42.32429" lon="2.37076">
        <ele>1124.6</ele>
        <time>2019-01-06T23:56:12Z</time>
      </trkpt>
      <trkpt lat="42.32431" lon="2.37073">
        <ele>1124.6</ele>
        <time>2019-01-06T23:56:13Z</time>
      </trkpt>
      <trkpt lat="42.32432" lon="2.3707">
        <ele>1124.7</ele>
        <time>2019-01-06T23:56:13Z</time>
      </trkpt>
      <trkpt lat="42.32433" lon="2.37066">
        <ele>1125.1</ele>
        <time>2019-01-06T23:56:14Z</time>
      </trkpt>
      <trkpt lat="42.32435" lon="2.37062">
        <ele>1125.3</ele>
        <time>2019-01-06T23:56:15Z</time>
      </trkpt>
      <trkpt lat="42.32436" lon="2.3706">
        <ele>1125.3</ele>
        <time>2019-01-06T23:56:16Z</time>
      </trkpt>
      <trkpt lat="42.32436" lon="2.37057">
        <ele>1125.4</ele>
        <time>2019-01-06T23:56:16Z</time>
      </trkpt>
      <trkpt lat="42.32438" lon="2.37054">
        <ele>1125.3</ele>
        <time>2019-01-06T23:56:17Z</time>
      </trkpt>
      <trkpt lat="42.3244" lon="2.37051">
        <ele>1125.3</ele>
        <time>2019-01-06T23:56:18Z</time>
      </trkpt>
      <trkpt lat="42.32442" lon="2.37047">
        <ele>1124.9</ele>
        <time>2019-01-06T23:56:19Z</time>
      </trkpt>
      <trkpt lat="42.32443" lon="2.37043">
        <ele>1125.4</ele>
        <time>2019-01-06T23:56:19Z</time>
      </trkpt>
      <trkpt lat="42.32443" lon="2.3704">
        <ele>1125.5</ele>
        <time>2019-01-06T23:56:20Z</time>
      </trkpt>
      <trkpt lat="42.32444" lon="2.37038">
        <ele>1125.8</ele>
        <time>2019-01-06T23:56:20Z</time>
      </trkpt>
      <trkpt lat="42.32444" lon="2.37036">
        <ele>1125.9</ele>
        <time>2019-01-06T23:56:21Z</time>
      </trkpt>
      <trkpt lat="42.32445" lon="2.37031">
        <ele>1126.4</ele>
        <time>2019-01-06T23:56:22Z</time>
      </trkpt>
      <trkpt lat="42.32445" lon="2.37026">
        <ele>1127.6</ele>
        <time>2019-01-06T23:56:23Z</time>
      </trkpt>
      <trkpt lat="42.32446" lon="2.37024">
        <ele>1128.1</ele>
        <time>2019-01-06T23:56:23Z</time>
      </trkpt>
      <trkpt lat="42.32446" lon="2.37021">
        <ele>1128.7</ele>
        <time>2019-01-06T23:56:24Z</time>
      </trkpt>
      <trkpt lat="42.32448" lon="2.37017">
        <ele>1129.8</ele>
        <time>2019-01-06T23:56:25Z</time>
      </trkpt>
      <trkpt lat="42.3245" lon="2.37014">
        <ele>1130.9</ele>
        <time>2019-01-06T23:56:26Z</time>
      </trkpt>
      <trkpt lat="42.32453" lon="2.37013">
        <ele>1131.4</ele>
        <time>2019-01-06T23:56:26Z</time>
      </trkpt>
      <trkpt lat="42.32456" lon="2.37014">
        <ele>1131.5</ele>
        <time>2019-01-06T23:56:27Z</time>
      </trkpt>
      <trkpt lat="42.32458" lon="2.37017">
        <ele>1131.1</ele>
        <time>2019-01-06T23:56:28Z</time>
      </trkpt>
      <trkpt lat="42.32459" lon="2.3702">
        <ele>1130.9</ele>
        <time>2019-01-06T23:56:29Z</time>
      </trkpt>
      <trkpt lat="42.32461" lon="2.37022">
        <ele>1130.8</ele>
        <time>2019-01-06T23:56:29Z</time>
      </trkpt>
      <trkpt lat="42.32462" lon="2.37024">
        <ele>1130.4</ele>
        <time>2019-01-06T23:56:30Z</time>
      </trkpt>
      <trkpt lat="42.32464" lon="2.37027">
        <ele>1130</ele>
        <time>2019-01-06T23:56:31Z</time>
      </trkpt>
      <trkpt lat="42.32466" lon="2.37031">
        <ele>1130.1</ele>
        <time>2019-01-06T23:56:32Z</time>
      </trkpt>
      <trkpt lat="42.32468" lon="2.37035">
        <ele>1130.1</ele>
        <time>2019-01-06T23:56:32Z</time>
      </trkpt>
      <trkpt lat="42.32469" lon="2.37039">
        <ele>1130.1</ele>
        <time>2019-01-06T23:56:33Z</time>
      </trkpt>
      <trkpt lat="42.3247" lon="2.37044">
        <ele>1129.9</ele>
        <time>2019-01-06T23:56:34Z</time>
      </trkpt>
      <trkpt lat="42.32471" lon="2.37048">
        <ele>1129.8</ele>
        <time>2019-01-06T23:56:35Z</time>
      </trkpt>
      <trkpt lat="42.32471" lon="2.37052">
        <ele>1129.7</ele>
        <time>2019-01-06T23:56:36Z</time>
      </trkpt>
      <trkpt lat="42.32471" lon="2.37057">
        <ele>1129.6</ele>
        <time>2019-01-06T23:56:37Z</time>
      </trkpt>
      <trkpt lat="42.3247" lon="2.37061">
        <ele>1129</ele>
        <time>2019-01-06T23:56:38Z</time>
      </trkpt>
      <trkpt lat="42.32471" lon="2.37066">
        <ele>1128.8</ele>
        <time>2019-01-06T23:56:39Z</time>
      </trkpt>
      <trkpt lat="42.32471" lon="2.37069">
        <ele>1128.7</ele>
        <time>2019-01-06T23:56:39Z</time>
      </trkpt>
      <trkpt lat="42.32472" lon="2.37073">
        <ele>1128.6</ele>
        <time>2019-01-06T23:56:40Z</time>
      </trkpt>
      <trkpt lat="42.32472" lon="2.37077">
        <ele>1128.4</ele>
        <time>2019-01-06T23:56:41Z</time>
      </trkpt>
      <trkpt lat="42.32473" lon="2.37081">
        <ele>1128.8</ele>
        <time>2019-01-06T23:56:42Z</time>
      </trkpt>
      <trkpt lat="42.32474" lon="2.37084">
        <ele>1128.9</ele>
        <time>2019-01-06T23:56:42Z</time>
      </trkpt>
      <trkpt lat="42.32475" lon="2.37088">
        <ele>1129.7</ele>
        <time>2019-01-06T23:56:43Z</time>
      </trkpt>
      <trkpt lat="42.32475" lon="2.37091">
        <ele>1130.3</ele>
        <time>2019-01-06T23:56:44Z</time>
      </trkpt>
      <trkpt lat="42.32476" lon="2.37095">
        <ele>1130.6</ele>
        <time>2019-01-06T23:56:45Z</time>
      </trkpt>
      <trkpt lat="42.32477" lon="2.37099">
        <ele>1130.9</ele>
        <time>2019-01-06T23:56:45Z</time>
      </trkpt>
      <trkpt lat="42.32477" lon="2.37103">
        <ele>1131.4</ele>
        <time>2019-01-06T23:56:46Z</time>
      </trkpt>
      <trkpt lat="42.32478" lon="2.37107">
        <ele>1131.9</ele>
        <time>2019-01-06T23:56:47Z</time>
      </trkpt>
      <trkpt lat="42.32478" lon="2.37111">
        <ele>1132.1</ele>
        <time>2019-01-06T23:56:48Z</time>
      </trkpt>
      <trkpt lat="42.32479" lon="2.37115">
        <ele>1132.4</ele>
        <time>2019-01-06T23:56:49Z</time>
      </trkpt>
      <trkpt lat="42.3248" lon="2.37118">
        <ele>1133</ele>
        <time>2019-01-06T23:56:49Z</time>
      </trkpt>
      <trkpt lat="42.3248" lon="2.37122">
        <ele>1133.5</ele>
        <time>2019-01-06T23:56:50Z</time>
      </trkpt>
      <trkpt lat="42.32481" lon="2.37126">
        <ele>1134.3</ele>
        <time>2019-01-06T23:56:51Z</time>
      </trkpt>
      <trkpt lat="42.32482" lon="2.37129">
        <ele>1134.5</ele>
        <time>2019-01-06T23:56:52Z</time>
      </trkpt>
      <trkpt lat="42.32483" lon="2.37133">
        <ele>1135.1</ele>
        <time>2019-01-06T23:56:52Z</time>
      </trkpt>
      <trkpt lat="42.32484" lon="2.37136">
        <ele>1135.7</ele>
        <time>2019-01-06T23:56:53Z</time>
      </trkpt>
      <trkpt lat="42.32485" lon="2.3714">
        <ele>1136.3</ele>
        <time>2019-01-06T23:56:54Z</time>
      </trkpt>
      <trkpt lat="42.32486" lon="2.37144">
        <ele>1136.7</ele>
        <time>2019-01-06T23:56:55Z</time>
      </trkpt>
      <trkpt lat="42.32486" lon="2.37148">
        <ele>1136.8</ele>
        <time>2019-01-06T23:56:55Z</time>
      </trkpt>
      <trkpt lat="42.32487" lon="2.37152">
        <ele>1137.1</ele>
        <time>2019-01-06T23:56:56Z</time>
      </trkpt>
      <trkpt lat="42.32488" lon="2.37155">
        <ele>1137.4</ele>
        <time>2019-01-06T23:56:57Z</time>
      </trkpt>
      <trkpt lat="42.32489" lon="2.37158">
        <ele>1137.8</ele>
        <time>2019-01-06T23:56:58Z</time>
      </trkpt>
      <trkpt lat="42.3249" lon="2.37162">
        <ele>1138.2</ele>
        <time>2019-01-06T23:56:58Z</time>
      </trkpt>
      <trkpt lat="42.32491" lon="2.37165">
        <ele>1138.7</ele>
        <time>2019-01-06T23:56:59Z</time>
      </trkpt>
      <trkpt lat="42.32491" lon="2.37169">
        <ele>1139.2</ele>
        <time>2019-01-06T23:57:00Z</time>
      </trkpt>
      <trkpt lat="42.32492" lon="2.37171">
        <ele>1139.8</ele>
        <time>2019-01-06T23:57:00Z</time>
      </trkpt>
      <trkpt lat="42.32493" lon="2.37175">
        <ele>1140.1</ele>
        <time>2019-01-06T23:57:01Z</time>
      </trkpt>
      <trkpt lat="42.32493" lon="2.37178">
        <ele>1140.5</ele>
        <time>2019-01-06T23:57:02Z</time>
      </trkpt>
      <trkpt lat="42.32493" lon="2.37182">
        <ele>1140.9</ele>
        <time>2019-01-06T23:57:02Z</time>
      </trkpt>
      <trkpt lat="42.32494" lon="2.37185">
        <ele>1141.4</ele>
        <time>2019-01-06T23:57:03Z</time>
      </trkpt>
      <trkpt lat="42.32495" lon="2.37188">
        <ele>1141.9</ele>
        <time>2019-01-06T23:57:04Z</time>
      </trkpt>
      <trkpt lat="42.32495" lon="2.37192">
        <ele>1142.3</ele>
        <time>2019-01-06T23:57:04Z</time>
      </trkpt>
      <trkpt lat="42.32496" lon="2.37195">
        <ele>1142.6</ele>
        <time>2019-01-06T23:57:05Z</time>
      </trkpt>
      <trkpt lat="42.32496" lon="2.37198">
        <ele>1143</ele>
        <time>2019-01-06T23:57:06Z</time>
      </trkpt>
      <trkpt lat="42.32497" lon="2.37201">
        <ele>1143.2</ele>
        <time>2019-01-06T23:57:06Z</time>
      </trkpt>
      <trkpt lat="42.32497" lon="2.37204">
        <ele>1143.5</ele>
        <time>2019-01-06T23:57:07Z</time>
      </trkpt>
      <trkpt lat="42.32498" lon="2.37207">
        <ele>1144</ele>
        <time>2019-01-06T23:57:08Z</time>
      </trkpt>
      <trkpt lat="42.32499" lon="2.3721">
        <ele>1144.3</ele>
        <time>2019-01-06T23:57:08Z</time>
      </trkpt>
      <trkpt lat="42.325" lon="2.37213">
        <ele>1144.9</ele>
        <time>2019-01-06T23:57:09Z</time>
      </trkpt>
      <trkpt lat="42.32501" lon="2.37216">
        <ele>1145.4</ele>
        <time>2019-01-06T23:57:09Z</time>
      </trkpt>
      <trkpt lat="42.32502" lon="2.37219">
        <ele>1145.6</ele>
        <time>2019-01-06T23:57:10Z</time>
      </trkpt>
      <trkpt lat="42.32503" lon="2.37222">
        <ele>1146</ele>
        <time>2019-01-06T23:57:11Z</time>
      </trkpt>
      <trkpt lat="42.32504" lon="2.37225">
        <ele>1146</ele>
        <time>2019-01-06T23:57:11Z</time>
      </trkpt>
      <trkpt lat="42.32505" lon="2.37227">
        <ele>1145.9</ele>
        <time>2019-01-06T23:57:12Z</time>
      </trkpt>
      <trkpt lat="42.32506" lon="2.37229">
        <ele>1145.8</ele>
        <time>2019-01-06T23:57:12Z</time>
      </trkpt>
      <trkpt lat="42.32508" lon="2.37232">
        <ele>1145.7</ele>
        <time>2019-01-06T23:57:13Z</time>
      </trkpt>
      <trkpt lat="42.32509" lon="2.37234">
        <ele>1145.8</ele>
        <time>2019-01-06T23:57:14Z</time>
      </trkpt>
      <trkpt lat="42.32511" lon="2.37237">
        <ele>1145.9</ele>
        <time>2019-01-06T23:57:14Z</time>
      </trkpt>
      <trkpt lat="42.32512" lon="2.3724">
        <ele>1146.1</ele>
        <time>2019-01-06T23:57:15Z</time>
      </trkpt>
      <trkpt lat="42.32513" lon="2.37242">
        <ele>1146.2</ele>
        <time>2019-01-06T23:57:16Z</time>
      </trkpt>
      <trkpt lat="42.32515" lon="2.37245">
        <ele>1146.4</ele>
        <time>2019-01-06T23:57:16Z</time>
      </trkpt>
      <trkpt lat="42.32516" lon="2.37247">
        <ele>1146.6</ele>
        <time>2019-01-06T23:57:17Z</time>
      </trkpt>
      <trkpt lat="42.32518" lon="2.3725">
        <ele>1147</ele>
        <time>2019-01-06T23:57:18Z</time>
      </trkpt>
      <trkpt lat="42.32519" lon="2.37252">
        <ele>1147.5</ele>
        <time>2019-01-06T23:57:18Z</time>
      </trkpt>
      <trkpt lat="42.32521" lon="2.37254">
        <ele>1148</ele>
        <time>2019-01-06T23:57:19Z</time>
      </trkpt>
      <trkpt lat="42.32523" lon="2.37257">
        <ele>1148.5</ele>
        <time>2019-01-06T23:57:20Z</time>
      </trkpt>
      <trkpt lat="42.32525" lon="2.37259">
        <ele>1148.9</ele>
        <time>2019-01-06T23:57:20Z</time>
      </trkpt>
      <trkpt lat="42.32527" lon="2.37262">
        <ele>1149.5</ele>
        <time>2019-01-06T23:57:21Z</time>
      </trkpt>
      <trkpt lat="42.32529" lon="2.37265">
        <ele>1149.6</ele>
        <time>2019-01-06T23:57:22Z</time>
      </trkpt>
      <trkpt lat="42.32531" lon="2.37267">
        <ele>1150</ele>
        <time>2019-01-06T23:57:22Z</time>
      </trkpt>
      <trkpt lat="42.32533" lon="2.37269">
        <ele>1150.4</ele>
        <time>2019-01-06T23:57:23Z</time>
      </trkpt>
      <trkpt lat="42.32535" lon="2.37272">
        <ele>1150.7</ele>
        <time>2019-01-06T23:57:24Z</time>
      </trkpt>
      <trkpt lat="42.32536" lon="2.37275">
        <ele>1150.7</ele>
        <time>2019-01-06T23:57:25Z</time>
      </trkpt>
      <trkpt lat="42.32537" lon="2.37279">
        <ele>1150.7</ele>
        <time>2019-01-06T23:57:25Z</time>
      </trkpt>
      <trkpt lat="42.32538" lon="2.37282">
        <ele>1151.3</ele>
        <time>2019-01-06T23:57:26Z</time>
      </trkpt>
      <trkpt lat="42.32539" lon="2.37286">
        <ele>1152</ele>
        <time>2019-01-06T23:57:27Z</time>
      </trkpt>
      <trkpt lat="42.3254" lon="2.3729">
        <ele>1152.2</ele>
        <time>2019-01-06T23:57:28Z</time>
      </trkpt>
      <trkpt lat="42.3254" lon="2.37294">
        <ele>1152.6</ele>
        <time>2019-01-06T23:57:28Z</time>
      </trkpt>
      <trkpt lat="42.32541" lon="2.37297">
        <ele>1152.9</ele>
        <time>2019-01-06T23:57:29Z</time>
      </trkpt>
      <trkpt lat="42.32541" lon="2.37301">
        <ele>1153.2</ele>
        <time>2019-01-06T23:57:30Z</time>
      </trkpt>
      <trkpt lat="42.32541" lon="2.37305">
        <ele>1153.3</ele>
        <time>2019-01-06T23:57:31Z</time>
      </trkpt>
      <trkpt lat="42.32541" lon="2.37308">
        <ele>1153.6</ele>
        <time>2019-01-06T23:57:31Z</time>
      </trkpt>
      <trkpt lat="42.32541" lon="2.37312">
        <ele>1154.2</ele>
        <time>2019-01-06T23:57:32Z</time>
      </trkpt>
      <trkpt lat="42.32541" lon="2.37315">
        <ele>1154.2</ele>
        <time>2019-01-06T23:57:33Z</time>
      </trkpt>
      <trkpt lat="42.32541" lon="2.37319">
        <ele>1154.5</ele>
        <time>2019-01-06T23:57:33Z</time>
      </trkpt>
      <trkpt lat="42.32541" lon="2.37322">
        <ele>1154.8</ele>
        <time>2019-01-06T23:57:34Z</time>
      </trkpt>
      <trkpt lat="42.32541" lon="2.37326">
        <ele>1155</ele>
        <time>2019-01-06T23:57:35Z</time>
      </trkpt>
      <trkpt lat="42.3254" lon="2.3733">
        <ele>1155.4</ele>
        <time>2019-01-06T23:57:36Z</time>
      </trkpt>
      <trkpt lat="42.32541" lon="2.37334">
        <ele>1155.9</ele>
        <time>2019-01-06T23:57:36Z</time>
      </trkpt>
      <trkpt lat="42.32541" lon="2.37338">
        <ele>1156.1</ele>
        <time>2019-01-06T23:57:37Z</time>
      </trkpt>
      <trkpt lat="42.32542" lon="2.37341">
        <ele>1156.6</ele>
        <time>2019-01-06T23:57:38Z</time>
      </trkpt>
      <trkpt lat="42.32542" lon="2.37345">
        <ele>1156.8</ele>
        <time>2019-01-06T23:57:39Z</time>
      </trkpt>
      <trkpt lat="42.32543" lon="2.37349">
        <ele>1157.1</ele>
        <time>2019-01-06T23:57:39Z</time>
      </trkpt>
      <trkpt lat="42.32543" lon="2.37352">
        <ele>1157.5</ele>
        <time>2019-01-06T23:57:40Z</time>
      </trkpt>
      <trkpt lat="42.32544" lon="2.37356">
        <ele>1157.9</ele>
        <time>2019-01-06T23:57:41Z</time>
      </trkpt>
      <trkpt lat="42.32545" lon="2.37359">
        <ele>1158.4</ele>
        <time>2019-01-06T23:57:42Z</time>
      </trkpt>
      <trkpt lat="42.32547" lon="2.37362">
        <ele>1159</ele>
        <time>2019-01-06T23:57:42Z</time>
      </trkpt>
      <trkpt lat="42.32548" lon="2.37364">
        <ele>1159.4</ele>
        <time>2019-01-06T23:57:43Z</time>
      </trkpt>
      <trkpt lat="42.3255" lon="2.37364">
        <ele>1160</ele>
        <time>2019-01-06T23:57:43Z</time>
      </trkpt>
      <trkpt lat="42.32553" lon="2.37364">
        <ele>1160.5</ele>
        <time>2019-01-06T23:57:44Z</time>
      </trkpt>
      <trkpt lat="42.32555" lon="2.37364">
        <ele>1161.1</ele>
        <time>2019-01-06T23:57:44Z</time>
      </trkpt>
      <trkpt lat="42.32557" lon="2.37363">
        <ele>1161.3</ele>
        <time>2019-01-06T23:57:45Z</time>
      </trkpt>
      <trkpt lat="42.32559" lon="2.37362">
        <ele>1161.4</ele>
        <time>2019-01-06T23:57:46Z</time>
      </trkpt>
      <trkpt lat="42.32561" lon="2.37361">
        <ele>1161.6</ele>
        <time>2019-01-06T23:57:46Z</time>
      </trkpt>
      <trkpt lat="42.32564" lon="2.3736">
        <ele>1161.6</ele>
        <time>2019-01-06T23:57:47Z</time>
      </trkpt>
      <trkpt lat="42.32566" lon="2.37359">
        <ele>1161.8</ele>
        <time>2019-01-06T23:57:48Z</time>
      </trkpt>
      <trkpt lat="42.32568" lon="2.37357">
        <ele>1162.1</ele>
        <time>2019-01-06T23:57:48Z</time>
      </trkpt>
      <trkpt lat="42.32571" lon="2.37355">
        <ele>1162.3</ele>
        <time>2019-01-06T23:57:49Z</time>
      </trkpt>
      <trkpt lat="42.32573" lon="2.37353">
        <ele>1162.5</ele>
        <time>2019-01-06T23:57:50Z</time>
      </trkpt>
      <trkpt lat="42.32576" lon="2.37351">
        <ele>1163</ele>
        <time>2019-01-06T23:57:51Z</time>
      </trkpt>
      <trkpt lat="42.32578" lon="2.37349">
        <ele>1163.3</ele>
        <time>2019-01-06T23:57:51Z</time>
      </trkpt>
      <trkpt lat="42.3258" lon="2.37347">
        <ele>1163.6</ele>
        <time>2019-01-06T23:57:52Z</time>
      </trkpt>
      <trkpt lat="42.32582" lon="2.37344">
        <ele>1164.3</ele>
        <time>2019-01-06T23:57:53Z</time>
      </trkpt>
      <trkpt lat="42.32585" lon="2.37342">
        <ele>1164.4</ele>
        <time>2019-01-06T23:57:54Z</time>
      </trkpt>
      <trkpt lat="42.32587" lon="2.3734">
        <ele>1164.5</ele>
        <time>2019-01-06T23:57:54Z</time>
      </trkpt>
      <trkpt lat="42.32588" lon="2.37337">
        <ele>1164.9</ele>
        <time>2019-01-06T23:57:55Z</time>
      </trkpt>
      <trkpt lat="42.3259" lon="2.37334">
        <ele>1164.9</ele>
        <time>2019-01-06T23:57:56Z</time>
      </trkpt>
      <trkpt lat="42.32592" lon="2.37331">
        <ele>1165.2</ele>
        <time>2019-01-06T23:57:56Z</time>
      </trkpt>
      <trkpt lat="42.32594" lon="2.37329">
        <ele>1165.6</ele>
        <time>2019-01-06T23:57:57Z</time>
      </trkpt>
      <trkpt lat="42.32596" lon="2.37326">
        <ele>1165.8</ele>
        <time>2019-01-06T23:57:58Z</time>
      </trkpt>
      <trkpt lat="42.32598" lon="2.37324">
        <ele>1166</ele>
        <time>2019-01-06T23:57:59Z</time>
      </trkpt>
      <trkpt lat="42.326" lon="2.37322">
        <ele>1166.5</ele>
        <time>2019-01-06T23:57:59Z</time>
      </trkpt>
      <trkpt lat="42.32602" lon="2.37319">
        <ele>1166.8</ele>
        <time>2019-01-06T23:58:00Z</time>
      </trkpt>
      <trkpt lat="42.32604" lon="2.37317">
        <ele>1167.2</ele>
        <time>2019-01-06T23:58:01Z</time>
      </trkpt>
      <trkpt lat="42.32606" lon="2.37315">
        <ele>1167.4</ele>
        <time>2019-01-06T23:58:01Z</time>
      </trkpt>
      <trkpt lat="42.32608" lon="2.37313">
        <ele>1167.8</ele>
        <time>2019-01-06T23:58:02Z</time>
      </trkpt>
      <trkpt lat="42.3261" lon="2.37311">
        <ele>1168.3</ele>
        <time>2019-01-06T23:58:03Z</time>
      </trkpt>
      <trkpt lat="42.32612" lon="2.37309">
        <ele>1168.5</ele>
        <time>2019-01-06T23:58:03Z</time>
      </trkpt>
      <trkpt lat="42.32614" lon="2.37307">
        <ele>1168.8</ele>
        <time>2019-01-06T23:58:04Z</time>
      </trkpt>
      <trkpt lat="42.32616" lon="2.37305">
        <ele>1169.1</ele>
        <time>2019-01-06T23:58:05Z</time>
      </trkpt>
      <trkpt lat="42.32617" lon="2.37303">
        <ele>1169.4</ele>
        <time>2019-01-06T23:58:05Z</time>
      </trkpt>
      <trkpt lat="42.32619" lon="2.37301">
        <ele>1169.6</ele>
        <time>2019-01-06T23:58:06Z</time>
      </trkpt>
      <trkpt lat="42.32619" lon="2.37299">
        <ele>1169.8</ele>
        <time>2019-01-06T23:58:06Z</time>
      </trkpt>
      <trkpt lat="42.32621" lon="2.37297">
        <ele>1170.1</ele>
        <time>2019-01-06T23:58:07Z</time>
      </trkpt>
      <trkpt lat="42.32622" lon="2.37294">
        <ele>1170.5</ele>
        <time>2019-01-06T23:58:07Z</time>
      </trkpt>
      <trkpt lat="42.32623" lon="2.37292">
        <ele>1170.8</ele>
        <time>2019-01-06T23:58:08Z</time>
      </trkpt>
      <trkpt lat="42.32624" lon="2.37289">
        <ele>1171.3</ele>
        <time>2019-01-06T23:58:09Z</time>
      </trkpt>
      <trkpt lat="42.32625" lon="2.37287">
        <ele>1171.4</ele>
        <time>2019-01-06T23:58:09Z</time>
      </trkpt>
      <trkpt lat="42.32626" lon="2.37284">
        <ele>1172</ele>
        <time>2019-01-06T23:58:10Z</time>
      </trkpt>
      <trkpt lat="42.32627" lon="2.37281">
        <ele>1172.4</ele>
        <time>2019-01-06T23:58:10Z</time>
      </trkpt>
      <trkpt lat="42.32628" lon="2.37278">
        <ele>1172.6</ele>
        <time>2019-01-06T23:58:11Z</time>
      </trkpt>
      <trkpt lat="42.32629" lon="2.37275">
        <ele>1172.8</ele>
        <time>2019-01-06T23:58:12Z</time>
      </trkpt>
      <trkpt lat="42.32631" lon="2.37273">
        <ele>1173.3</ele>
        <time>2019-01-06T23:58:12Z</time>
      </trkpt>
      <trkpt lat="42.32632" lon="2.37271">
        <ele>1173.6</ele>
        <time>2019-01-06T23:58:13Z</time>
      </trkpt>
      <trkpt lat="42.32634" lon="2.37268">
        <ele>1173.7</ele>
        <time>2019-01-06T23:58:14Z</time>
      </trkpt>
      <trkpt lat="42.32635" lon="2.37266">
        <ele>1174.1</ele>
        <time>2019-01-06T23:58:14Z</time>
      </trkpt>
      <trkpt lat="42.32637" lon="2.37263">
        <ele>1174.5</ele>
        <time>2019-01-06T23:58:15Z</time>
      </trkpt>
      <trkpt lat="42.32639" lon="2.37261">
        <ele>1175</ele>
        <time>2019-01-06T23:58:15Z</time>
      </trkpt>
      <trkpt lat="42.3264" lon="2.37258">
        <ele>1174.9</ele>
        <time>2019-01-06T23:58:16Z</time>
      </trkpt>
      <trkpt lat="42.32642" lon="2.37256">
        <ele>1175.1</ele>
        <time>2019-01-06T23:58:17Z</time>
      </trkpt>
      <trkpt lat="42.32643" lon="2.37254">
        <ele>1175.3</ele>
        <time>2019-01-06T23:58:17Z</time>
      </trkpt>
      <trkpt lat="42.32645" lon="2.37251">
        <ele>1175.5</ele>
        <time>2019-01-06T23:58:18Z</time>
      </trkpt>
      <trkpt lat="42.32646" lon="2.37248">
        <ele>1175.4</ele>
        <time>2019-01-06T23:58:19Z</time>
      </trkpt>
      <trkpt lat="42.32647" lon="2.37245">
        <ele>1175.6</ele>
        <time>2019-01-06T23:58:19Z</time>
      </trkpt>
      <trkpt lat="42.32648" lon="2.37243">
        <ele>1175.9</ele>
        <time>2019-01-06T23:58:20Z</time>
      </trkpt>
      <trkpt lat="42.32649" lon="2.37239">
        <ele>1176.2</ele>
        <time>2019-01-06T23:58:21Z</time>
      </trkpt>
      <trkpt lat="42.3265" lon="2.37236">
        <ele>1176.6</ele>
        <time>2019-01-06T23:58:21Z</time>
      </trkpt>
      <trkpt lat="42.32651" lon="2.37233">
        <ele>1176.9</ele>
        <time>2019-01-06T23:58:22Z</time>
      </trkpt>
      <trkpt lat="42.32652" lon="2.37229">
        <ele>1177.2</ele>
        <time>2019-01-06T23:58:23Z</time>
      </trkpt>
      <trkpt lat="42.32653" lon="2.37226">
        <ele>1177.7</ele>
        <time>2019-01-06T23:58:23Z</time>
      </trkpt>
      <trkpt lat="42.32654" lon="2.37223">
        <ele>1178</ele>
        <time>2019-01-06T23:58:24Z</time>
      </trkpt>
      <trkpt lat="42.32655" lon="2.37219">
        <ele>1178.4</ele>
        <time>2019-01-06T23:58:25Z</time>
      </trkpt>
      <trkpt lat="42.32656" lon="2.37216">
        <ele>1178.9</ele>
        <time>2019-01-06T23:58:26Z</time>
      </trkpt>
      <trkpt lat="42.32657" lon="2.37212">
        <ele>1179</ele>
        <time>2019-01-06T23:58:26Z</time>
      </trkpt>
      <trkpt lat="42.32658" lon="2.37209">
        <ele>1179.4</ele>
        <time>2019-01-06T23:58:27Z</time>
      </trkpt>
      <trkpt lat="42.32658" lon="2.37206">
        <ele>1179.9</ele>
        <time>2019-01-06T23:58:28Z</time>
      </trkpt>
      <trkpt lat="42.32659" lon="2.37202">
        <ele>1180.3</ele>
        <time>2019-01-06T23:58:28Z</time>
      </trkpt>
      <trkpt lat="42.3266" lon="2.37199">
        <ele>1180.9</ele>
        <time>2019-01-06T23:58:29Z</time>
      </trkpt>
      <trkpt lat="42.32661" lon="2.37196">
        <ele>1181.4</ele>
        <time>2019-01-06T23:58:30Z</time>
      </trkpt>
      <trkpt lat="42.32662" lon="2.37193">
        <ele>1181.7</ele>
        <time>2019-01-06T23:58:30Z</time>
      </trkpt>
      <trkpt lat="42.32662" lon="2.3719">
        <ele>1182</ele>
        <time>2019-01-06T23:58:31Z</time>
      </trkpt>
      <trkpt lat="42.32663" lon="2.37187">
        <ele>1182.6</ele>
        <time>2019-01-06T23:58:32Z</time>
      </trkpt>
      <trkpt lat="42.32664" lon="2.37184">
        <ele>1182.8</ele>
        <time>2019-01-06T23:58:32Z</time>
      </trkpt>
      <trkpt lat="42.32664" lon="2.37181">
        <ele>1183.4</ele>
        <time>2019-01-06T23:58:33Z</time>
      </trkpt>
      <trkpt lat="42.32665" lon="2.37177">
        <ele>1183.8</ele>
        <time>2019-01-06T23:58:34Z</time>
      </trkpt>
      <trkpt lat="42.32665" lon="2.37175">
        <ele>1184</ele>
        <time>2019-01-06T23:58:34Z</time>
      </trkpt>
      <trkpt lat="42.32666" lon="2.37172">
        <ele>1184.4</ele>
        <time>2019-01-06T23:58:35Z</time>
      </trkpt>
      <trkpt lat="42.32666" lon="2.37169">
        <ele>1184.7</ele>
        <time>2019-01-06T23:58:35Z</time>
      </trkpt>
      <trkpt lat="42.32666" lon="2.37165">
        <ele>1185.2</ele>
        <time>2019-01-06T23:58:36Z</time>
      </trkpt>
      <trkpt lat="42.32666" lon="2.37162">
        <ele>1185.6</ele>
        <time>2019-01-06T23:58:37Z</time>
      </trkpt>
      <trkpt lat="42.32666" lon="2.37158">
        <ele>1185.8</ele>
        <time>2019-01-06T23:58:37Z</time>
      </trkpt>
      <trkpt lat="42.32665" lon="2.37155">
        <ele>1186.2</ele>
        <time>2019-01-06T23:58:38Z</time>
      </trkpt>
      <trkpt lat="42.32665" lon="2.37151">
        <ele>1186.6</ele>
        <time>2019-01-06T23:58:39Z</time>
      </trkpt>
      <trkpt lat="42.32664" lon="2.37148">
        <ele>1186.8</ele>
        <time>2019-01-06T23:58:39Z</time>
      </trkpt>
      <trkpt lat="42.32663" lon="2.37145">
        <ele>1187</ele>
        <time>2019-01-06T23:58:40Z</time>
      </trkpt>
      <trkpt lat="42.32662" lon="2.37141">
        <ele>1187.3</ele>
        <time>2019-01-06T23:58:41Z</time>
      </trkpt>
      <trkpt lat="42.32662" lon="2.37138">
        <ele>1187.6</ele>
        <time>2019-01-06T23:58:42Z</time>
      </trkpt>
      <trkpt lat="42.32661" lon="2.37134">
        <ele>1187.8</ele>
        <time>2019-01-06T23:58:42Z</time>
      </trkpt>
      <trkpt lat="42.3266" lon="2.37131">
        <ele>1188</ele>
        <time>2019-01-06T23:58:43Z</time>
      </trkpt>
      <trkpt lat="42.32659" lon="2.37128">
        <ele>1188.2</ele>
        <time>2019-01-06T23:58:44Z</time>
      </trkpt>
      <trkpt lat="42.32658" lon="2.37125">
        <ele>1188.6</ele>
        <time>2019-01-06T23:58:44Z</time>
      </trkpt>
      <trkpt lat="42.32657" lon="2.37121">
        <ele>1188.7</ele>
        <time>2019-01-06T23:58:45Z</time>
      </trkpt>
      <trkpt lat="42.32656" lon="2.37118">
        <ele>1189</ele>
        <time>2019-01-06T23:58:46Z</time>
      </trkpt>
      <trkpt lat="42.32655" lon="2.37115">
        <ele>1189.1</ele>
        <time>2019-01-06T23:58:46Z</time>
      </trkpt>
      <trkpt lat="42.32655" lon="2.37112">
        <ele>1189.4</ele>
        <time>2019-01-06T23:58:47Z</time>
      </trkpt>
      <trkpt lat="42.32654" lon="2.37109">
        <ele>1189.8</ele>
        <time>2019-01-06T23:58:48Z</time>
      </trkpt>
      <trkpt lat="42.32653" lon="2.37105">
        <ele>1189.9</ele>
        <time>2019-01-06T23:58:48Z</time>
      </trkpt>
      <trkpt lat="42.32653" lon="2.37102">
        <ele>1190.1</ele>
        <time>2019-01-06T23:58:49Z</time>
      </trkpt>
      <trkpt lat="42.32652" lon="2.37099">
        <ele>1190.3</ele>
        <time>2019-01-06T23:58:50Z</time>
      </trkpt>
      <trkpt lat="42.32651" lon="2.37096">
        <ele>1190.4</ele>
        <time>2019-01-06T23:58:50Z</time>
      </trkpt>
      <trkpt lat="42.32651" lon="2.37092">
        <ele>1190.6</ele>
        <time>2019-01-06T23:58:51Z</time>
      </trkpt>
      <trkpt lat="42.3265" lon="2.37089">
        <ele>1190.9</ele>
        <time>2019-01-06T23:58:52Z</time>
      </trkpt>
      <trkpt lat="42.3265" lon="2.37086">
        <ele>1191.3</ele>
        <time>2019-01-06T23:58:52Z</time>
      </trkpt>
      <trkpt lat="42.3265" lon="2.37083">
        <ele>1191.6</ele>
        <time>2019-01-06T23:58:53Z</time>
      </trkpt>
      <trkpt lat="42.32651" lon="2.37079">
        <ele>1192.1</ele>
        <time>2019-01-06T23:58:54Z</time>
      </trkpt>
      <trkpt lat="42.32653" lon="2.37077">
        <ele>1192.7</ele>
        <time>2019-01-06T23:58:54Z</time>
      </trkpt>
      <trkpt lat="42.32655" lon="2.37076">
        <ele>1193.4</ele>
        <time>2019-01-06T23:58:55Z</time>
      </trkpt>
      <trkpt lat="42.32657" lon="2.37077">
        <ele>1193.7</ele>
        <time>2019-01-06T23:58:55Z</time>
      </trkpt>
      <trkpt lat="42.3266" lon="2.37077">
        <ele>1194.3</ele>
        <time>2019-01-06T23:58:56Z</time>
      </trkpt>
      <trkpt lat="42.32661" lon="2.37079">
        <ele>1194.4</ele>
        <time>2019-01-06T23:58:57Z</time>
      </trkpt>
      <trkpt lat="42.32663" lon="2.37082">
        <ele>1194.5</ele>
        <time>2019-01-06T23:58:57Z</time>
      </trkpt>
      <trkpt lat="42.32665" lon="2.37084">
        <ele>1194.5</ele>
        <time>2019-01-06T23:58:58Z</time>
      </trkpt>
      <trkpt lat="42.32667" lon="2.37087">
        <ele>1194.7</ele>
        <time>2019-01-06T23:58:59Z</time>
      </trkpt>
      <trkpt lat="42.32669" lon="2.3709">
        <ele>1194.8</ele>
        <time>2019-01-06T23:59:00Z</time>
      </trkpt>
      <trkpt lat="42.32671" lon="2.37092">
        <ele>1195</ele>
        <time>2019-01-06T23:59:00Z</time>
      </trkpt>
      <trkpt lat="42.32673" lon="2.37095">
        <ele>1195.2</ele>
        <time>2019-01-06T23:59:01Z</time>
      </trkpt>
      <trkpt lat="42.32675" lon="2.37097">
        <ele>1195.4</ele>
        <time>2019-01-06T23:59:02Z</time>
      </trkpt>
      <trkpt lat="42.32677" lon="2.37099">
        <ele>1195.4</ele>
        <time>2019-01-06T23:59:03Z</time>
      </trkpt>
      <trkpt lat="42.32679" lon="2.37102">
        <ele>1195.5</ele>
        <time>2019-01-06T23:59:03Z</time>
      </trkpt>
      <trkpt lat="42.32682" lon="2.37104">
        <ele>1195.8</ele>
        <time>2019-01-06T23:59:04Z</time>
      </trkpt>
      <trkpt lat="42.32684" lon="2.37106">
        <ele>1195.9</ele>
        <time>2019-01-06T23:59:05Z</time>
      </trkpt>
      <trkpt lat="42.32686" lon="2.37108">
        <ele>1195.8</ele>
        <time>2019-01-06T23:59:05Z</time>
      </trkpt>
      <trkpt lat="42.32688" lon="2.3711">
        <ele>1196</ele>
        <time>2019-01-06T23:59:06Z</time>
      </trkpt>
      <trkpt lat="42.3269" lon="2.37112">
        <ele>1196</ele>
        <time>2019-01-06T23:59:07Z</time>
      </trkpt>
      <trkpt lat="42.32693" lon="2.37114">
        <ele>1196.2</ele>
        <time>2019-01-06T23:59:08Z</time>
      </trkpt>
      <trkpt lat="42.32695" lon="2.37116">
        <ele>1196.4</ele>
        <time>2019-01-06T23:59:08Z</time>
      </trkpt>
      <trkpt lat="42.32697" lon="2.37117">
        <ele>1196.5</ele>
        <time>2019-01-06T23:59:09Z</time>
      </trkpt>
      <trkpt lat="42.32699" lon="2.37119">
        <ele>1196.7</ele>
        <time>2019-01-06T23:59:10Z</time>
      </trkpt>
      <trkpt lat="42.32702" lon="2.3712">
        <ele>1196.6</ele>
        <time>2019-01-06T23:59:10Z</time>
      </trkpt>
      <trkpt lat="42.32704" lon="2.37121">
        <ele>1196.9</ele>
        <time>2019-01-06T23:59:11Z</time>
      </trkpt>
      <trkpt lat="42.32707" lon="2.37121">
        <ele>1196.9</ele>
        <time>2019-01-06T23:59:12Z</time>
      </trkpt>
      <trkpt lat="42.32709" lon="2.37121">
        <ele>1197.1</ele>
        <time>2019-01-06T23:59:12Z</time>
      </trkpt>
      <trkpt lat="42.32712" lon="2.37121">
        <ele>1197.5</ele>
        <time>2019-01-06T23:59:13Z</time>
      </trkpt>
      <trkpt lat="42.32715" lon="2.37121">
        <ele>1198</ele>
        <time>2019-01-06T23:59:14Z</time>
      </trkpt>
      <trkpt lat="42.32717" lon="2.3712">
        <ele>1198.1</ele>
        <time>2019-01-06T23:59:14Z</time>
      </trkpt>
      <trkpt lat="42.3272" lon="2.3712">
        <ele>1198.6</ele>
        <time>2019-01-06T23:59:15Z</time>
      </trkpt>
      <trkpt lat="42.32723" lon="2.37119">
        <ele>1199</ele>
        <time>2019-01-06T23:59:16Z</time>
      </trkpt>
      <trkpt lat="42.32726" lon="2.37118">
        <ele>1199.3</ele>
        <time>2019-01-06T23:59:17Z</time>
      </trkpt>
      <trkpt lat="42.32729" lon="2.37118">
        <ele>1199.8</ele>
        <time>2019-01-06T23:59:18Z</time>
      </trkpt>
      <trkpt lat="42.32732" lon="2.37117">
        <ele>1199.9</ele>
        <time>2019-01-06T23:59:18Z</time>
      </trkpt>
      <trkpt lat="42.32734" lon="2.37116">
        <ele>1200.3</ele>
        <time>2019-01-06T23:59:19Z</time>
      </trkpt>
      <trkpt lat="42.32736" lon="2.37116">
        <ele>1200.4</ele>
        <time>2019-01-06T23:59:20Z</time>
      </trkpt>
      <trkpt lat="42.32738" lon="2.37116">
        <ele>1200.6</ele>
        <time>2019-01-06T23:59:20Z</time>
      </trkpt>
      <trkpt lat="42.32741" lon="2.37115">
        <ele>1201</ele>
        <time>2019-01-06T23:59:21Z</time>
      </trkpt>
      <trkpt lat="42.32744" lon="2.37114">
        <ele>1201.2</ele>
        <time>2019-01-06T23:59:22Z</time>
      </trkpt>
      <trkpt lat="42.32747" lon="2.37112">
        <ele>1201.7</ele>
        <time>2019-01-06T23:59:23Z</time>
      </trkpt>
      <trkpt lat="42.3275" lon="2.37112">
        <ele>1201.9</ele>
        <time>2019-01-06T23:59:23Z</time>
      </trkpt>
      <trkpt lat="42.32752" lon="2.37111">
        <ele>1202.2</ele>
        <time>2019-01-06T23:59:24Z</time>
      </trkpt>
      <trkpt lat="42.32755" lon="2.3711">
        <ele>1202.2</ele>
        <time>2019-01-06T23:59:25Z</time>
      </trkpt>
      <trkpt lat="42.32757" lon="2.37109">
        <ele>1202.5</ele>
        <time>2019-01-06T23:59:25Z</time>
      </trkpt>
      <trkpt lat="42.3276" lon="2.37108">
        <ele>1202.9</ele>
        <time>2019-01-06T23:59:26Z</time>
      </trkpt>
      <trkpt lat="42.32763" lon="2.37106">
        <ele>1203.2</ele>
        <time>2019-01-06T23:59:27Z</time>
      </trkpt>
      <trkpt lat="42.32765" lon="2.37104">
        <ele>1203.6</ele>
        <time>2019-01-06T23:59:28Z</time>
      </trkpt>
      <trkpt lat="42.32767" lon="2.37102">
        <ele>1203.8</ele>
        <time>2019-01-06T23:59:28Z</time>
      </trkpt>
      <trkpt lat="42.3277" lon="2.371">
        <ele>1204.4</ele>
        <time>2019-01-06T23:59:29Z</time>
      </trkpt>
      <trkpt lat="42.32773" lon="2.37098">
        <ele>1204.8</ele>
        <time>2019-01-06T23:59:30Z</time>
      </trkpt>
      <trkpt lat="42.32775" lon="2.37096">
        <ele>1204.9</ele>
        <time>2019-01-06T23:59:31Z</time>
      </trkpt>
      <trkpt lat="42.32778" lon="2.37094">
        <ele>1205.2</ele>
        <time>2019-01-06T23:59:32Z</time>
      </trkpt>
      <trkpt lat="42.32781" lon="2.37093">
        <ele>1205.8</ele>
        <time>2019-01-06T23:59:32Z</time>
      </trkpt>
      <trkpt lat="42.32783" lon="2.37093">
        <ele>1206.4</ele>
        <time>2019-01-06T23:59:33Z</time>
      </trkpt>
      <trkpt lat="42.32785" lon="2.37092">
        <ele>1206.9</ele>
        <time>2019-01-06T23:59:34Z</time>
      </trkpt>
      <trkpt lat="42.32787" lon="2.37091">
        <ele>1207.5</ele>
        <time>2019-01-06T23:59:34Z</time>
      </trkpt>
      <trkpt lat="42.32789" lon="2.37089">
        <ele>1208.1</ele>
        <time>2019-01-06T23:59:35Z</time>
      </trkpt>
      <trkpt lat="42.32789" lon="2.37087">
        <ele>1208.6</ele>
        <time>2019-01-06T23:59:35Z</time>
      </trkpt>
      <trkpt lat="42.32788" lon="2.37084">
        <ele>1208.8</ele>
        <time>2019-01-06T23:59:36Z</time>
      </trkpt>
      <trkpt lat="42.32785" lon="2.37083">
        <ele>1208.5</ele>
        <time>2019-01-06T23:59:37Z</time>
      </trkpt>
      <trkpt lat="42.32782" lon="2.37083">
        <ele>1208.2</ele>
        <time>2019-01-06T23:59:37Z</time>
      </trkpt>
      <trkpt lat="42.32779" lon="2.37082">
        <ele>1207.8</ele>
        <time>2019-01-06T23:59:38Z</time>
      </trkpt>
      <trkpt lat="42.32777" lon="2.37082">
        <ele>1207.5</ele>
        <time>2019-01-06T23:59:39Z</time>
      </trkpt>
      <trkpt lat="42.32774" lon="2.37082">
        <ele>1207.7</ele>
        <time>2019-01-06T23:59:40Z</time>
      </trkpt>
      <trkpt lat="42.32772" lon="2.37082">
        <ele>1207.9</ele>
        <time>2019-01-06T23:59:40Z</time>
      </trkpt>
      <trkpt lat="42.32769" lon="2.37082">
        <ele>1208.1</ele>
        <time>2019-01-06T23:59:41Z</time>
      </trkpt>
      <trkpt lat="42.32766" lon="2.37082">
        <ele>1208.2</ele>
        <time>2019-01-06T23:59:42Z</time>
      </trkpt>
      <trkpt lat="42.32764" lon="2.37082">
        <ele>1208.5</ele>
        <time>2019-01-06T23:59:42Z</time>
      </trkpt>
      <trkpt lat="42.32761" lon="2.37082">
        <ele>1208.8</ele>
        <time>2019-01-06T23:59:43Z</time>
      </trkpt>
      <trkpt lat="42.32758" lon="2.37081">
        <ele>1209.1</ele>
        <time>2019-01-06T23:59:44Z</time>
      </trkpt>
      <trkpt lat="42.32755" lon="2.3708">
        <ele>1209.6</ele>
        <time>2019-01-06T23:59:45Z</time>
      </trkpt>
      <trkpt lat="42.32753" lon="2.37079">
        <ele>1209.9</ele>
        <time>2019-01-06T23:59:45Z</time>
      </trkpt>
      <trkpt lat="42.3275" lon="2.37077">
        <ele>1210.4</ele>
        <time>2019-01-06T23:59:46Z</time>
      </trkpt>
      <trkpt lat="42.32748" lon="2.37075">
        <ele>1210.8</ele>
        <time>2019-01-06T23:59:47Z</time>
      </trkpt>
      <trkpt lat="42.32746" lon="2.37072">
        <ele>1211</ele>
        <time>2019-01-06T23:59:48Z</time>
      </trkpt>
      <trkpt lat="42.32744" lon="2.37069">
        <ele>1211.6</ele>
        <time>2019-01-06T23:59:48Z</time>
      </trkpt>
      <trkpt lat="42.32743" lon="2.37067">
        <ele>1211.9</ele>
        <time>2019-01-06T23:59:49Z</time>
      </trkpt>
      <trkpt lat="42.32741" lon="2.37064">
        <ele>1212.3</ele>
        <time>2019-01-06T23:59:50Z</time>
      </trkpt>
      <trkpt lat="42.32739" lon="2.37061">
        <ele>1212.5</ele>
        <time>2019-01-06T23:59:51Z</time>
      </trkpt>
      <trkpt lat="42.32738" lon="2.37058">
        <ele>1212.8</ele>
        <time>2019-01-06T23:59:51Z</time>
      </trkpt>
      <trkpt lat="42.32737" lon="2.37055">
        <ele>1213.3</ele>
        <time>2019-01-06T23:59:52Z</time>
      </trkpt>
      <trkpt lat="42.32736" lon="2.37051">
        <ele>1213.7</ele>
        <time>2019-01-06T23:59:53Z</time>
      </trkpt>
      <trkpt lat="42.32735" lon="2.37048">
        <ele>1214.2</ele>
        <time>2019-01-06T23:59:53Z</time>
      </trkpt>
      <trkpt lat="42.32734" lon="2.37045">
        <ele>1214.7</ele>
        <time>2019-01-06T23:59:54Z</time>
      </trkpt>
      <trkpt lat="42.32733" lon="2.37042">
        <ele>1215.1</ele>
        <time>2019-01-06T23:59:55Z</time>
      </trkpt>
      <trkpt lat="42.32732" lon="2.37038">
        <ele>1215.7</ele>
        <time>2019-01-06T23:59:55Z</time>
      </trkpt>
      <trkpt lat="42.32732" lon="2.37035">
        <ele>1216.2</ele>
        <time>2019-01-06T23:59:56Z</time>
      </trkpt>
      <trkpt lat="42.3273" lon="2.37032">
        <ele>1216.7</ele>
        <time>2019-01-06T23:59:57Z</time>
      </trkpt>
      <trkpt lat="42.3273" lon="2.37028">
        <ele>1217.1</ele>
        <time>2019-01-06T23:59:58Z</time>
      </trkpt>
      <trkpt lat="42.32729" lon="2.37024">
        <ele>1217.6</ele>
        <time>2019-01-06T23:59:58Z</time>
      </trkpt>
      <trkpt lat="42.32728" lon="2.37021">
        <ele>1217.6</ele>
        <time>2019-01-06T23:59:59Z</time>
      </trkpt>
      <trkpt lat="42.32727" lon="2.37018">
        <ele>1217.9</ele>
        <time>2019-01-07T00:00:00Z</time>
      </trkpt>
      <trkpt lat="42.32726" lon="2.37014">
        <ele>1218.1</ele>
        <time>2019-01-07T00:00:00Z</time>
      </trkpt>
      <trkpt lat="42.32725" lon="2.37011">
        <ele>1218.4</ele>
        <time>2019-01-07T00:00:01Z</time>
      </trkpt>
      <trkpt lat="42.32724" lon="2.37007">
        <ele>1218.6</ele>
        <time>2019-01-07T00:00:02Z</time>
      </trkpt>
      <trkpt lat="42.32724" lon="2.37004">
        <ele>1219</ele>
        <time>2019-01-07T00:00:03Z</time>
      </trkpt>
      <trkpt lat="42.32723" lon="2.37">
        <ele>1219.2</ele>
        <time>2019-01-07T00:00:03Z</time>
      </trkpt>
      <trkpt lat="42.32722" lon="2.36997">
        <ele>1219.5</ele>
        <time>2019-01-07T00:00:04Z</time>
      </trkpt>
      <trkpt lat="42.32721" lon="2.36993">
        <ele>1219.7</ele>
        <time>2019-01-07T00:00:05Z</time>
      </trkpt>
      <trkpt lat="42.3272" lon="2.3699">
        <ele>1220</ele>
        <time>2019-01-07T00:00:06Z</time>
      </trkpt>
      <trkpt lat="42.3272" lon="2.36986">
        <ele>1220.5</ele>
        <time>2019-01-07T00:00:06Z</time>
      </trkpt>
      <trkpt lat="42.32719" lon="2.36983">
        <ele>1220.7</ele>
        <time>2019-01-07T00:00:07Z</time>
      </trkpt>
      <trkpt lat="42.32719" lon="2.36979">
        <ele>1221</ele>
        <time>2019-01-07T00:00:08Z</time>
      </trkpt>
      <trkpt lat="42.32718" lon="2.36976">
        <ele>1221.4</ele>
        <time>2019-01-07T00:00:08Z</time>
      </trkpt>
      <trkpt lat="42.32718" lon="2.36973">
        <ele>1221.7</ele>
        <time>2019-01-07T00:00:09Z</time>
      </trkpt>
      <trkpt lat="42.32717" lon="2.3697">
        <ele>1221.9</ele>
        <time>2019-01-07T00:00:09Z</time>
      </trkpt>
      <trkpt lat="42.32717" lon="2.36968">
        <ele>1222</ele>
        <time>2019-01-07T00:00:10Z</time>
      </trkpt>
      <trkpt lat="42.32717" lon="2.36965">
        <ele>1222.4</ele>
        <time>2019-01-07T00:00:11Z</time>
      </trkpt>
      <trkpt lat="42.32717" lon="2.36961">
        <ele>1222.8</ele>
        <time>2019-01-07T00:00:11Z</time>
      </trkpt>
      <trkpt lat="42.32718" lon="2.36958">
        <ele>1223.2</ele>
        <time>2019-01-07T00:00:12Z</time>
      </trkpt>
      <trkpt lat="42.32718" lon="2.36955">
        <ele>1223.6</ele>
        <time>2019-01-07T00:00:13Z</time>
      </trkpt>
      <trkpt lat="42.32718" lon="2.36952">
        <ele>1224.1</ele>
        <time>2019-01-07T00:00:13Z</time>
      </trkpt>
      <trkpt lat="42.32718" lon="2.36949">
        <ele>1224.3</ele>
        <time>2019-01-07T00:00:14Z</time>
      </trkpt>
      <trkpt lat="42.32718" lon="2.36946">
        <ele>1224.8</ele>
        <time>2019-01-07T00:00:14Z</time>
      </trkpt>
      <trkpt lat="42.32718" lon="2.36942">
        <ele>1224.7</ele>
        <time>2019-01-07T00:00:15Z</time>
      </trkpt>
      <trkpt lat="42.32718" lon="2.36939">
        <ele>1225</ele>
        <time>2019-01-07T00:00:16Z</time>
      </trkpt>
      <trkpt lat="42.32718" lon="2.36936">
        <ele>1225.4</ele>
        <time>2019-01-07T00:00:16Z</time>
      </trkpt>
      <trkpt lat="42.32719" lon="2.36933">
        <ele>1225.8</ele>
        <time>2019-01-07T00:00:17Z</time>
      </trkpt>
      <trkpt lat="42.32719" lon="2.3693">
        <ele>1226.1</ele>
        <time>2019-01-07T00:00:17Z</time>
      </trkpt>
      <trkpt lat="42.3272" lon="2.36927">
        <ele>1226.5</ele>
        <time>2019-01-07T00:00:18Z</time>
      </trkpt>
      <trkpt lat="42.3272" lon="2.36924">
        <ele>1226.8</ele>
        <time>2019-01-07T00:00:19Z</time>
      </trkpt>
      <trkpt lat="42.32721" lon="2.36921">
        <ele>1227.3</ele>
        <time>2019-01-07T00:00:19Z</time>
      </trkpt>
      <trkpt lat="42.32722" lon="2.36918">
        <ele>1228</ele>
        <time>2019-01-07T00:00:20Z</time>
      </trkpt>
      <trkpt lat="42.32724" lon="2.36916">
        <ele>1228.3</ele>
        <time>2019-01-07T00:00:21Z</time>
      </trkpt>
      <trkpt lat="42.32726" lon="2.36914">
        <ele>1228.8</ele>
        <time>2019-01-07T00:00:21Z</time>
      </trkpt>
      <trkpt lat="42.32728" lon="2.36914">
        <ele>1229.3</ele>
        <time>2019-01-07T00:00:22Z</time>
      </trkpt>
      <trkpt lat="42.3273" lon="2.36914">
        <ele>1229.7</ele>
        <time>2019-01-07T00:00:22Z</time>
      </trkpt>
      <trkpt lat="42.32732" lon="2.36914">
        <ele>1230.1</ele>
        <time>2019-01-07T00:00:23Z</time>
      </trkpt>
      <trkpt lat="42.32734" lon="2.36914">
        <ele>1230.8</ele>
        <time>2019-01-07T00:00:23Z</time>
      </trkpt>
      <trkpt lat="42.32736" lon="2.36913">
        <ele>1231.2</ele>
        <time>2019-01-07T00:00:24Z</time>
      </trkpt>
      <trkpt lat="42.32738" lon="2.36912">
        <ele>1231.7</ele>
        <time>2019-01-07T00:00:25Z</time>
      </trkpt>
      <trkpt lat="42.32741" lon="2.36912">
        <ele>1232.1</ele>
        <time>2019-01-07T00:00:25Z</time>
      </trkpt>
      <trkpt lat="42.32743" lon="2.36911">
        <ele>1232.7</ele>
        <time>2019-01-07T00:00:26Z</time>
      </trkpt>
      <trkpt lat="42.32745" lon="2.3691">
        <ele>1233</ele>
        <time>2019-01-07T00:00:26Z</time>
      </trkpt>
      <trkpt lat="42.32746" lon="2.36908">
        <ele>1233.5</ele>
        <time>2019-01-07T00:00:27Z</time>
      </trkpt>
      <trkpt lat="42.32748" lon="2.36907">
        <ele>1234</ele>
        <time>2019-01-07T00:00:27Z</time>
      </trkpt>
      <trkpt lat="42.3275" lon="2.36906">
        <ele>1234.3</ele>
        <time>2019-01-07T00:00:28Z</time>
      </trkpt>
      <trkpt lat="42.32752" lon="2.36905">
        <ele>1235.1</ele>
        <time>2019-01-07T00:00:29Z</time>
      </trkpt>
      <trkpt lat="42.32755" lon="2.36905">
        <ele>1235.7</ele>
        <time>2019-01-07T00:00:29Z</time>
      </trkpt>
      <trkpt lat="42.32757" lon="2.36904">
        <ele>1236.4</ele>
        <time>2019-01-07T00:00:30Z</time>
      </trkpt>
      <trkpt lat="42.32759" lon="2.36903">
        <ele>1237</ele>
        <time>2019-01-07T00:00:30Z</time>
      </trkpt>
      <trkpt lat="42.32761" lon="2.36903">
        <ele>1237.5</ele>
        <time>2019-01-07T00:00:31Z</time>
      </trkpt>
      <trkpt lat="42.32764" lon="2.36901">
        <ele>1238.4</ele>
        <time>2019-01-07T00:00:32Z</time>
      </trkpt>
      <trkpt lat="42.32766" lon="2.369">
        <ele>1238.9</ele>
        <time>2019-01-07T00:00:32Z</time>
      </trkpt>
      <trkpt lat="42.32767" lon="2.36898">
        <ele>1239.5</ele>
        <time>2019-01-07T00:00:33Z</time>
      </trkpt>
      <trkpt lat="42.32769" lon="2.36897">
        <ele>1240.2</ele>
        <time>2019-01-07T00:00:33Z</time>
      </trkpt>
      <trkpt lat="42.32771" lon="2.36895">
        <ele>1240.6</ele>
        <time>2019-01-07T00:00:34Z</time>
      </trkpt>
      <trkpt lat="42.32772" lon="2.36894">
        <ele>1241.2</ele>
        <time>2019-01-07T00:00:34Z</time>
      </trkpt>
      <trkpt lat="42.32774" lon="2.36892">
        <ele>1241.9</ele>
        <time>2019-01-07T00:00:35Z</time>
      </trkpt>
      <trkpt lat="42.32776" lon="2.36891">
        <ele>1242.4</ele>
        <time>2019-01-07T00:00:36Z</time>
      </trkpt>
      <trkpt lat="42.32778" lon="2.3689">
        <ele>1242.9</ele>
        <time>2019-01-07T00:00:36Z</time>
      </trkpt>
      <trkpt lat="42.3278" lon="2.36889">
        <ele>1243.7</ele>
        <time>2019-01-07T00:00:37Z</time>
      </trkpt>
      <trkpt lat="42.32783" lon="2.36887">
        <ele>1244.6</ele>
        <time>2019-01-07T00:00:38Z</time>
      </trkpt>
      <trkpt lat="42.32785" lon="2.36886">
        <ele>1245.4</ele>
        <time>2019-01-07T00:00:38Z</time>
      </trkpt>
      <trkpt lat="42.32787" lon="2.36884">
        <ele>1246</ele>
        <time>2019-01-07T00:00:39Z</time>
      </trkpt>
      <trkpt lat="42.32789" lon="2.36882">
        <ele>1247</ele>
        <time>2019-01-07T00:00:40Z</time>
      </trkpt>
      <trkpt lat="42.32791" lon="2.36881">
        <ele>1247.6</ele>
        <time>2019-01-07T00:00:40Z</time>
      </trkpt>
      <trkpt lat="42.32794" lon="2.36879">
        <ele>1248.4</ele>
        <time>2019-01-07T00:00:41Z</time>
      </trkpt>
      <trkpt lat="42.32796" lon="2.36878">
        <ele>1249.2</ele>
        <time>2019-01-07T00:00:42Z</time>
      </trkpt>
      <trkpt lat="42.32798" lon="2.36877">
        <ele>1249.8</ele>
        <time>2019-01-07T00:00:42Z</time>
      </trkpt>
      <trkpt lat="42.328" lon="2.36876">
        <ele>1250.4</ele>
        <time>2019-01-07T00:00:43Z</time>
      </trkpt>
      <trkpt lat="42.32802" lon="2.36874">
        <ele>1251</ele>
        <time>2019-01-07T00:00:43Z</time>
      </trkpt>
      <trkpt lat="42.32803" lon="2.36873">
        <ele>1251.5</ele>
        <time>2019-01-07T00:00:44Z</time>
      </trkpt>
      <trkpt lat="42.32805" lon="2.36872">
        <ele>1252.1</ele>
        <time>2019-01-07T00:00:44Z</time>
      </trkpt>
      <trkpt lat="42.32807" lon="2.36871">
        <ele>1252.9</ele>
        <time>2019-01-07T00:00:45Z</time>
      </trkpt>
      <trkpt lat="42.32809" lon="2.36869">
        <ele>1253.4</ele>
        <time>2019-01-07T00:00:45Z</time>
      </trkpt>
      <trkpt lat="42.32811" lon="2.36868">
        <ele>1254.1</ele>
        <time>2019-01-07T00:00:46Z</time>
      </trkpt>
      <trkpt lat="42.32813" lon="2.36866">
        <ele>1254.6</ele>
        <time>2019-01-07T00:00:47Z</time>
      </trkpt>
      <trkpt lat="42.32814" lon="2.36865">
        <ele>1255.2</ele>
        <time>2019-01-07T00:00:47Z</time>
      </trkpt>
      <trkpt lat="42.32816" lon="2.36863">
        <ele>1256</ele>
        <time>2019-01-07T00:00:48Z</time>
      </trkpt>
      <trkpt lat="42.32818" lon="2.36861">
        <ele>1256.7</ele>
        <time>2019-01-07T00:00:48Z</time>
      </trkpt>
      <trkpt lat="42.3282" lon="2.36859">
        <ele>1257.4</ele>
        <time>2019-01-07T00:00:49Z</time>
      </trkpt>
      <trkpt lat="42.32822" lon="2.36858">
        <ele>1258.1</ele>
        <time>2019-01-07T00:00:50Z</time>
      </trkpt>
      <trkpt lat="42.32823" lon="2.36856">
        <ele>1258.7</ele>
        <time>2019-01-07T00:00:50Z</time>
      </trkpt>
      <trkpt lat="42.32825" lon="2.36854">
        <ele>1259.5</ele>
        <time>2019-01-07T00:00:51Z</time>
      </trkpt>
      <trkpt lat="42.32826" lon="2.36852">
        <ele>1260.2</ele>
        <time>2019-01-07T00:00:51Z</time>
      </trkpt>
      <trkpt lat="42.32828" lon="2.3685">
        <ele>1261.1</ele>
        <time>2019-01-07T00:00:52Z</time>
      </trkpt>
      <trkpt lat="42.3283" lon="2.36848">
        <ele>1261.7</ele>
        <time>2019-01-07T00:00:52Z</time>
      </trkpt>
      <trkpt lat="42.32831" lon="2.36846">
        <ele>1262.6</ele>
        <time>2019-01-07T00:00:53Z</time>
      </trkpt>
      <trkpt lat="42.32832" lon="2.36844">
        <ele>1263.4</ele>
        <time>2019-01-07T00:00:54Z</time>
      </trkpt>
      <trkpt lat="42.32834" lon="2.36841">
        <ele>1264.1</ele>
        <time>2019-01-07T00:00:54Z</time>
      </trkpt>
      <trkpt lat="42.32836" lon="2.36839">
        <ele>1264.8</ele>
        <time>2019-01-07T00:00:55Z</time>
      </trkpt>
      <trkpt lat="42.32837" lon="2.36837">
        <ele>1265.5</ele>
        <time>2019-01-07T00:00:55Z</time>
      </trkpt>
      <trkpt lat="42.32839" lon="2.36835">
        <ele>1266.4</ele>
        <time>2019-01-07T00:00:56Z</time>
      </trkpt>
      <trkpt lat="42.3284" lon="2.36833">
        <ele>1267.1</ele>
        <time>2019-01-07T00:00:57Z</time>
      </trkpt>
      <trkpt lat="42.32842" lon="2.36832">
        <ele>1267.7</ele>
        <time>2019-01-07T00:00:57Z</time>
      </trkpt>
      <trkpt lat="42.32844" lon="2.3683">
        <ele>1268.4</ele>
        <time>2019-01-07T00:00:58Z</time>
      </trkpt>
      <trkpt lat="42.32845" lon="2.36828">
        <ele>1269.1</ele>
        <time>2019-01-07T00:00:58Z</time>
      </trkpt>
      <trkpt lat="42.32847" lon="2.36826">
        <ele>1269.9</ele>
        <time>2019-01-07T00:00:59Z</time>
      </trkpt>
      <trkpt lat="42.32848" lon="2.36824">
        <ele>1270.5</ele>
        <time>2019-01-07T00:00:59Z</time>
      </trkpt>
      <trkpt lat="42.3285" lon="2.36822">
        <ele>1271.2</ele>
        <time>2019-01-07T00:01:00Z</time>
      </trkpt>
      <trkpt lat="42.32851" lon="2.36821">
        <ele>1271.9</ele>
        <time>2019-01-07T00:01:00Z</time>
      </trkpt>
      <trkpt lat="42.32853" lon="2.3682">
        <ele>1272.6</ele>
        <time>2019-01-07T00:01:01Z</time>
      </trkpt>
      <trkpt lat="42.32855" lon="2.36819">
        <ele>1273.2</ele>
        <time>2019-01-07T00:01:01Z</time>
      </trkpt>
      <trkpt lat="42.32857" lon="2.36817">
        <ele>1274.2</ele>
        <time>2019-01-07T00:01:02Z</time>
      </trkpt>
      <trkpt lat="42.32858" lon="2.36815">
        <ele>1274.8</ele>
        <time>2019-01-07T00:01:03Z</time>
      </trkpt>
      <trkpt lat="42.3286" lon="2.36813">
        <ele>1275.6</ele>
        <time>2019-01-07T00:01:03Z</time>
      </trkpt>
      <trkpt lat="42.32862" lon="2.36812">
        <ele>1276.4</ele>
        <time>2019-01-07T00:01:04Z</time>
      </trkpt>
      <trkpt lat="42.32864" lon="2.36811">
        <ele>1277.2</ele>
        <time>2019-01-07T00:01:04Z</time>
      </trkpt>
      <trkpt lat="42.32865" lon="2.36809">
        <ele>1278</ele>
        <time>2019-01-07T00:01:05Z</time>
      </trkpt>
      <trkpt lat="42.32867" lon="2.36808">
        <ele>1279</ele>
        <time>2019-01-07T00:01:05Z</time>
      </trkpt>
      <trkpt lat="42.32869" lon="2.36807">
        <ele>1279.7</ele>
        <time>2019-01-07T00:01:06Z</time>
      </trkpt>
      <trkpt lat="42.32871" lon="2.36806">
        <ele>1280.6</ele>
        <time>2019-01-07T00:01:06Z</time>
      </trkpt>
      <trkpt lat="42.32872" lon="2.36804">
        <ele>1281.2</ele>
        <time>2019-01-07T00:01:07Z</time>
      </trkpt>
      <trkpt lat="42.32873" lon="2.36802">
        <ele>1282</ele>
        <time>2019-01-07T00:01:07Z</time>
      </trkpt>
      <trkpt lat="42.32875" lon="2.36799">
        <ele>1282.7</ele>
        <time>2019-01-07T00:01:08Z</time>
      </trkpt>
      <trkpt lat="42.32875" lon="2.36795">
        <ele>1283.2</ele>
        <time>2019-01-07T00:01:09Z</time>
      </trkpt>
      <trkpt lat="42.32876" lon="2.36792">
        <ele>1283.7</ele>
        <time>2019-01-07T00:01:09Z</time>
      </trkpt>
      <trkpt lat="42.32876" lon="2.36789">
        <ele>1284.2</ele>
        <time>2019-01-07T00:01:10Z</time>
      </trkpt>
      <trkpt lat="42.32877" lon="2.36786">
        <ele>1284.8</ele>
        <time>2019-01-07T00:01:11Z</time>
      </trkpt>
      <trkpt lat="42.32878" lon="2.36783">
        <ele>1285.4</ele>
        <time>2019-01-07T00:01:11Z</time>
      </trkpt>
      <trkpt lat="42.32879" lon="2.3678">
        <ele>1286.1</ele>
        <time>2019-01-07T00:01:12Z</time>
      </trkpt>
      <trkpt lat="42.3288" lon="2.36777">
        <ele>1286.8</ele>
        <time>2019-01-07T00:01:13Z</time>
      </trkpt>
      <trkpt lat="42.32881" lon="2.36773">
        <ele>1287.8</ele>
        <time>2019-01-07T00:01:13Z</time>
      </trkpt>
      <trkpt lat="42.32882" lon="2.3677">
        <ele>1288.6</ele>
        <time>2019-01-07T00:01:14Z</time>
      </trkpt>
      <trkpt lat="42.32883" lon="2.36767">
        <ele>1289.3</ele>
        <time>2019-01-07T00:01:15Z</time>
      </trkpt>
      <trkpt lat="42.32885" lon="2.36765">
        <ele>1290.3</ele>
        <time>2019-01-07T00:01:15Z</time>
      </trkpt>
      <trkpt lat="42.32886" lon="2.36763">
        <ele>1291.3</ele>
        <time>2019-01-07T00:01:16Z</time>
      </trkpt>
      <trkpt lat="42.32888" lon="2.36761">
        <ele>1292.1</ele>
        <time>2019-01-07T00:01:17Z</time>
      </trkpt>
      <trkpt lat="42.3289" lon="2.36759">
        <ele>1293.3</ele>
        <time>2019-01-07T00:01:17Z</time>
      </trkpt>
      <trkpt lat="42.32891" lon="2.36757">
        <ele>1294.1</ele>
        <time>2019-01-07T00:01:18Z</time>
      </trkpt>
      <trkpt lat="42.32893" lon="2.36756">
        <ele>1295</ele>
        <time>2019-01-07T00:01:18Z</time>
      </trkpt>
      <trkpt lat="42.32894" lon="2.36754">
        <ele>1295.6</ele>
        <time>2019-01-07T00:01:19Z</time>
      </trkpt>
      <trkpt lat="42.32896" lon="2.36753">
        <ele>1296.4</ele>
        <time>2019-01-07T00:01:19Z</time>
      </trkpt>
      <trkpt lat="42.32898" lon="2.36751">
        <ele>1297.5</ele>
        <time>2019-01-07T00:01:20Z</time>
      </trkpt>
      <trkpt lat="42.329" lon="2.36749">
        <ele>1298.4</ele>
        <time>2019-01-07T00:01:20Z</time>
      </trkpt>
      <trkpt lat="42.32901" lon="2.36748">
        <ele>1299.2</ele>
        <time>2019-01-07T00:01:21Z</time>
      </trkpt>
      <trkpt lat="42.32903" lon="2.36746">
        <ele>1300.1</ele>
        <time>2019-01-07T00:01:21Z</time>
      </trkpt>
      <trkpt lat="42.32904" lon="2.36744">
        <ele>1300.7</ele>
        <time>2019-01-07T00:01:22Z</time>
      </trkpt>
      <trkpt lat="42.32906" lon="2.36743">
        <ele>1301.5</ele>
        <time>2019-01-07T00:01:22Z</time>
      </trkpt>
      <trkpt lat="42.32908" lon="2.36742">
        <ele>1302.5</ele>
        <time>2019-01-07T00:01:23Z</time>
      </trkpt>
      <trkpt lat="42.32909" lon="2.3674">
        <ele>1303.3</ele>
        <time>2019-01-07T00:01:24Z</time>
      </trkpt>
      <trkpt lat="42.32911" lon="2.36738">
        <ele>1304</ele>
        <time>2019-01-07T00:01:24Z</time>
      </trkpt>
      <trkpt lat="42.32913" lon="2.36737">
        <ele>1304.9</ele>
        <time>2019-01-07T00:01:25Z</time>
      </trkpt>
      <trkpt lat="42.32914" lon="2.36735">
        <ele>1305.6</ele>
        <time>2019-01-07T00:01:25Z</time>
      </trkpt>
      <trkpt lat="42.32916" lon="2.36733">
        <ele>1306.5</ele>
        <time>2019-01-07T00:01:26Z</time>
      </trkpt>
      <trkpt lat="42.32917" lon="2.36732">
        <ele>1307.3</ele>
        <time>2019-01-07T00:01:26Z</time>
      </trkpt>
      <trkpt lat="42.32919" lon="2.36731">
        <ele>1307.8</ele>
        <time>2019-01-07T00:01:27Z</time>
      </trkpt>
      <trkpt lat="42.32921" lon="2.3673">
        <ele>1308.5</ele>
        <time>2019-01-07T00:01:27Z</time>
      </trkpt>
      <trkpt lat="42.32923" lon="2.36729">
        <ele>1309.2</ele>
        <time>2019-01-07T00:01:28Z</time>
      </trkpt>
      <trkpt lat="42.32925" lon="2.36728">
        <ele>1309.7</ele>
        <time>2019-01-07T00:01:29Z</time>
      </trkpt>
      <trkpt lat="42.32927" lon="2.36727">
        <ele>1310.3</ele>
        <time>2019-01-07T00:01:29Z</time>
      </trkpt>
      <trkpt lat="42.32929" lon="2.36726">
        <ele>1310.9</ele>
        <time>2019-01-07T00:01:30Z</time>
      </trkpt>
      <trkpt lat="42.32931" lon="2.36725">
        <ele>1311.5</ele>
        <time>2019-01-07T00:01:30Z</time>
      </trkpt>
      <trkpt lat="42.32932" lon="2.36723">
        <ele>1312</ele>
        <time>2019-01-07T00:01:31Z</time>
      </trkpt>
      <trkpt lat="42.32934" lon="2.36722">
        <ele>1312.6</ele>
        <time>2019-01-07T00:01:31Z</time>
      </trkpt>
      <trkpt lat="42.32936" lon="2.36719">
        <ele>1313</ele>
        <time>2019-01-07T00:01:32Z</time>
      </trkpt>
      <trkpt lat="42.32937" lon="2.36717">
        <ele>1313.5</ele>
        <time>2019-01-07T00:01:32Z</time>
      </trkpt>
      <trkpt lat="42.32938" lon="2.36715">
        <ele>1314.1</ele>
        <time>2019-01-07T00:01:33Z</time>
      </trkpt>
      <trkpt lat="42.32939" lon="2.36713">
        <ele>1314.4</ele>
        <time>2019-01-07T00:01:34Z</time>
      </trkpt>
      <trkpt lat="42.32941" lon="2.3671">
        <ele>1315</ele>
        <time>2019-01-07T00:01:34Z</time>
      </trkpt>
      <trkpt lat="42.32942" lon="2.36707">
        <ele>1315.6</ele>
        <time>2019-01-07T00:01:35Z</time>
      </trkpt>
      <trkpt lat="42.32944" lon="2.36705">
        <ele>1316.1</ele>
        <time>2019-01-07T00:01:35Z</time>
      </trkpt>
      <trkpt lat="42.32946" lon="2.36704">
        <ele>1316.8</ele>
        <time>2019-01-07T00:01:36Z</time>
      </trkpt>
      <trkpt lat="42.32948" lon="2.36702">
        <ele>1317.4</ele>
        <time>2019-01-07T00:01:37Z</time>
      </trkpt>
      <trkpt lat="42.3295" lon="2.367">
        <ele>1318.1</ele>
        <time>2019-01-07T00:01:37Z</time>
      </trkpt>
      <trkpt lat="42.32952" lon="2.36701">
        <ele>1318.7</ele>
        <time>2019-01-07T00:01:38Z</time>
      </trkpt>
      <trkpt lat="42.32954" lon="2.36701">
        <ele>1319.2</ele>
        <time>2019-01-07T00:01:38Z</time>
      </trkpt>
      <trkpt lat="42.32956" lon="2.36701">
        <ele>1319.7</ele>
        <time>2019-01-07T00:01:39Z</time>
      </trkpt>
      <trkpt lat="42.32958" lon="2.36701">
        <ele>1320.1</ele>
        <time>2019-01-07T00:01:39Z</time>
      </trkpt>
      <trkpt lat="42.3296" lon="2.36701">
        <ele>1320.6</ele>
        <time>2019-01-07T00:01:40Z</time>
      </trkpt>
      <trkpt lat="42.32961" lon="2.36699">
        <ele>1321.4</ele>
        <time>2019-01-07T00:01:40Z</time>
      </trkpt>
      <trkpt lat="42.32963" lon="2.36698">
        <ele>1322</ele>
        <time>2019-01-07T00:01:41Z</time>
      </trkpt>
      <trkpt lat="42.32965" lon="2.36695">
        <ele>1322.8</ele>
        <time>2019-01-07T00:01:42Z</time>
      </trkpt>
      <trkpt lat="42.32966" lon="2.36692">
        <ele>1323.5</ele>
        <time>2019-01-07T00:01:42Z</time>
      </trkpt>
      <trkpt lat="42.32966" lon="2.3669">
        <ele>1323.7</ele>
        <time>2019-01-07T00:01:43Z</time>
      </trkpt>
      <trkpt lat="42.32967" lon="2.36687">
        <ele>1324</ele>
        <time>2019-01-07T00:01:43Z</time>
      </trkpt>
      <trkpt lat="42.32967" lon="2.36684">
        <ele>1324.2</ele>
        <time>2019-01-07T00:01:44Z</time>
      </trkpt>
      <trkpt lat="42.32968" lon="2.36682">
        <ele>1324.6</ele>
        <time>2019-01-07T00:01:44Z</time>
      </trkpt>
      <trkpt lat="42.32969" lon="2.36679">
        <ele>1325</ele>
        <time>2019-01-07T00:01:45Z</time>
      </trkpt>
      <trkpt lat="42.32969" lon="2.36677">
        <ele>1325.1</ele>
        <time>2019-01-07T00:01:46Z</time>
      </trkpt>
      <trkpt lat="42.32971" lon="2.36675">
        <ele>1325.9</ele>
        <time>2019-01-07T00:01:46Z</time>
      </trkpt>
      <trkpt lat="42.32972" lon="2.36672">
        <ele>1326.6</ele>
        <time>2019-01-07T00:01:47Z</time>
      </trkpt>
      <trkpt lat="42.32974" lon="2.3667">
        <ele>1327.7</ele>
        <time>2019-01-07T00:01:48Z</time>
      </trkpt>
      <trkpt lat="42.32977" lon="2.3667">
        <ele>1328.4</ele>
        <time>2019-01-07T00:01:48Z</time>
      </trkpt>
      <trkpt lat="42.32979" lon="2.36669">
        <ele>1329.1</ele>
        <time>2019-01-07T00:01:49Z</time>
      </trkpt>
      <trkpt lat="42.32981" lon="2.36671">
        <ele>1329.7</ele>
        <time>2019-01-07T00:01:49Z</time>
      </trkpt>
      <trkpt lat="42.32983" lon="2.36673">
        <ele>1330.3</ele>
        <time>2019-01-07T00:01:50Z</time>
      </trkpt>
      <trkpt lat="42.32985" lon="2.36673">
        <ele>1330.8</ele>
        <time>2019-01-07T00:01:51Z</time>
      </trkpt>
      <trkpt lat="42.32986" lon="2.36671">
        <ele>1331.5</ele>
        <time>2019-01-07T00:01:51Z</time>
      </trkpt>
      <trkpt lat="42.32988" lon="2.36671">
        <ele>1332.2</ele>
        <time>2019-01-07T00:01:52Z</time>
      </trkpt>
      <trkpt lat="42.3299" lon="2.36673">
        <ele>1332.9</ele>
        <time>2019-01-07T00:01:52Z</time>
      </trkpt>
      <trkpt lat="42.32993" lon="2.36672">
        <ele>1333.5</ele>
        <time>2019-01-07T00:01:53Z</time>
      </trkpt>
      <trkpt lat="42.32995" lon="2.36671">
        <ele>1334.2</ele>
        <time>2019-01-07T00:01:54Z</time>
      </trkpt>
      <trkpt lat="42.32997" lon="2.3667">
        <ele>1335.1</ele>
        <time>2019-01-07T00:01:54Z</time>
      </trkpt>
      <trkpt lat="42.32999" lon="2.36672">
        <ele>1335.7</ele>
        <time>2019-01-07T00:01:55Z</time>
      </trkpt>
      <trkpt lat="42.33001" lon="2.36671">
        <ele>1336.3</ele>
        <time>2019-01-07T00:01:55Z</time>
      </trkpt>
      <trkpt lat="42.33003" lon="2.36668">
        <ele>1336.7</ele>
        <time>2019-01-07T00:01:56Z</time>
      </trkpt>
      <trkpt lat="42.33004" lon="2.36666">
        <ele>1336.9</ele>
        <time>2019-01-07T00:01:57Z</time>
      </trkpt>
      <trkpt lat="42.33006" lon="2.36663">
        <ele>1336.9</ele>
        <time>2019-01-07T00:01:57Z</time>
      </trkpt>
      <trkpt lat="42.33007" lon="2.3666">
        <ele>1337</ele>
        <time>2019-01-07T00:01:58Z</time>
      </trkpt>
      <trkpt lat="42.33008" lon="2.36657">
        <ele>1336.9</ele>
        <time>2019-01-07T00:01:59Z</time>
      </trkpt>
      <trkpt lat="42.33009" lon="2.36654">
        <ele>1336.9</ele>
        <time>2019-01-07T00:01:59Z</time>
      </trkpt>
      <trkpt lat="42.33011" lon="2.36652">
        <ele>1337</ele>
        <time>2019-01-07T00:02:00Z</time>
      </trkpt>
      <trkpt lat="42.33013" lon="2.36651">
        <ele>1337.4</ele>
        <time>2019-01-07T00:02:01Z</time>
      </trkpt>
      <trkpt lat="42.33015" lon="2.36651">
        <ele>1337.8</ele>
        <time>2019-01-07T00:02:01Z</time>
      </trkpt>
      <trkpt lat="42.33017" lon="2.36651">
        <ele>1338.5</ele>
        <time>2019-01-07T00:02:02Z</time>
      </trkpt>
      <trkpt lat="42.33019" lon="2.36652">
        <ele>1339.1</ele>
        <time>2019-01-07T00:02:02Z</time>
      </trkpt>
      <trkpt lat="42.33021" lon="2.36654">
        <ele>1339.5</ele>
        <time>2019-01-07T00:02:03Z</time>
      </trkpt>
      <trkpt lat="42.33022" lon="2.36656">
        <ele>1340.1</ele>
        <time>2019-01-07T00:02:03Z</time>
      </trkpt>
      <trkpt lat="42.33024" lon="2.36659">
        <ele>1340.7</ele>
        <time>2019-01-07T00:02:04Z</time>
      </trkpt>
      <trkpt lat="42.33024" lon="2.36662">
        <ele>1341</ele>
        <time>2019-01-07T00:02:05Z</time>
      </trkpt>
      <trkpt lat="42.33027" lon="2.36663">
        <ele>1341.6</ele>
        <time>2019-01-07T00:02:05Z</time>
      </trkpt>
      <trkpt lat="42.33029" lon="2.36662">
        <ele>1342</ele>
        <time>2019-01-07T00:02:06Z</time>
      </trkpt>
      <trkpt lat="42.33031" lon="2.36663">
        <ele>1342.3</ele>
        <time>2019-01-07T00:02:07Z</time>
      </trkpt>
      <trkpt lat="42.33034" lon="2.36663">
        <ele>1342.7</ele>
        <time>2019-01-07T00:02:07Z</time>
      </trkpt>
      <trkpt lat="42.33036" lon="2.36664">
        <ele>1343</ele>
        <time>2019-01-07T00:02:08Z</time>
      </trkpt>
      <trkpt lat="42.33038" lon="2.36665">
        <ele>1343.4</ele>
        <time>2019-01-07T00:02:08Z</time>
      </trkpt>
      <trkpt lat="42.3304" lon="2.36666">
        <ele>1343.8</ele>
        <time>2019-01-07T00:02:09Z</time>
      </trkpt>
      <trkpt lat="42.33043" lon="2.36666">
        <ele>1344.1</ele>
        <time>2019-01-07T00:02:10Z</time>
      </trkpt>
      <trkpt lat="42.33045" lon="2.36667">
        <ele>1344.6</ele>
        <time>2019-01-07T00:02:10Z</time>
      </trkpt>
      <trkpt lat="42.33048" lon="2.36668">
        <ele>1345</ele>
        <time>2019-01-07T00:02:11Z</time>
      </trkpt>
      <trkpt lat="42.33049" lon="2.36671">
        <ele>1344.8</ele>
        <time>2019-01-07T00:02:12Z</time>
      </trkpt>
      <trkpt lat="42.3305" lon="2.36674">
        <ele>1344.8</ele>
        <time>2019-01-07T00:02:12Z</time>
      </trkpt>
      <trkpt lat="42.33049" lon="2.36676">
        <ele>1344.5</ele>
        <time>2019-01-07T00:02:13Z</time>
      </trkpt>
      <trkpt lat="42.3305" lon="2.36674">
        <ele>1344.7</ele>
        <time>2019-01-07T00:02:13Z</time>
      </trkpt>
      <trkpt lat="42.33052" lon="2.36672">
        <ele>1345</ele>
        <time>2019-01-07T00:02:14Z</time>
      </trkpt>
      <trkpt lat="42.33054" lon="2.3667">
        <ele>1345.5</ele>
        <time>2019-01-07T00:02:15Z</time>
      </trkpt>
      <trkpt lat="42.33056" lon="2.36668">
        <ele>1345.9</ele>
        <time>2019-01-07T00:02:15Z</time>
      </trkpt>
      <trkpt lat="42.33059" lon="2.36667">
        <ele>1346.3</ele>
        <time>2019-01-07T00:02:16Z</time>
      </trkpt>
      <trkpt lat="42.33062" lon="2.36666">
        <ele>1346.8</ele>
        <time>2019-01-07T00:02:17Z</time>
      </trkpt>
      <trkpt lat="42.33064" lon="2.36666">
        <ele>1347</ele>
        <time>2019-01-07T00:02:18Z</time>
      </trkpt>
      <trkpt lat="42.33067" lon="2.36666">
        <ele>1347.5</ele>
        <time>2019-01-07T00:02:18Z</time>
      </trkpt>
      <trkpt lat="42.3307" lon="2.36665">
        <ele>1347.5</ele>
        <time>2019-01-07T00:02:19Z</time>
      </trkpt>
      <trkpt lat="42.33072" lon="2.36664">
        <ele>1348</ele>
        <time>2019-01-07T00:02:20Z</time>
      </trkpt>
      <trkpt lat="42.33074" lon="2.36662">
        <ele>1348.1</ele>
        <time>2019-01-07T00:02:20Z</time>
      </trkpt>
      <trkpt lat="42.33077" lon="2.3666">
        <ele>1348.6</ele>
        <time>2019-01-07T00:02:21Z</time>
      </trkpt>
      <trkpt lat="42.33079" lon="2.36658">
        <ele>1348.8</ele>
        <time>2019-01-07T00:02:22Z</time>
      </trkpt>
      <trkpt lat="42.33082" lon="2.36656">
        <ele>1349.4</ele>
        <time>2019-01-07T00:02:23Z</time>
      </trkpt>
      <trkpt lat="42.33084" lon="2.36654">
        <ele>1349.7</ele>
        <time>2019-01-07T00:02:24Z</time>
      </trkpt>
      <trkpt lat="42.33087" lon="2.36651">
        <ele>1349.8</ele>
        <time>2019-01-07T00:02:24Z</time>
      </trkpt>
      <trkpt lat="42.33089" lon="2.36649">
        <ele>1350</ele>
        <time>2019-01-07T00:02:25Z</time>
      </trkpt>
      <trkpt lat="42.33091" lon="2.36646">
        <ele>1350.5</ele>
        <time>2019-01-07T00:02:26Z</time>
      </trkpt>
      <trkpt lat="42.33093" lon="2.36643">
        <ele>1350.7</ele>
        <time>2019-01-07T00:02:27Z</time>
      </trkpt>
      <trkpt lat="42.33096" lon="2.3664">
        <ele>1350.8</ele>
        <time>2019-01-07T00:02:28Z</time>
      </trkpt>
      <trkpt lat="42.33098" lon="2.36638">
        <ele>1351.2</ele>
        <time>2019-01-07T00:02:28Z</time>
      </trkpt>
      <trkpt lat="42.331" lon="2.36636">
        <ele>1351.4</ele>
        <time>2019-01-07T00:02:29Z</time>
      </trkpt>
      <trkpt lat="42.33103" lon="2.36634">
        <ele>1351.5</ele>
        <time>2019-01-07T00:02:30Z</time>
      </trkpt>
      <trkpt lat="42.33105" lon="2.36632">
        <ele>1351.9</ele>
        <time>2019-01-07T00:02:31Z</time>
      </trkpt>
      <trkpt lat="42.33107" lon="2.3663">
        <ele>1352.2</ele>
        <time>2019-01-07T00:02:31Z</time>
      </trkpt>
      <trkpt lat="42.3311" lon="2.36628">
        <ele>1352.5</ele>
        <time>2019-01-07T00:02:32Z</time>
      </trkpt>
      <trkpt lat="42.33113" lon="2.36627">
        <ele>1352.5</ele>
        <time>2019-01-07T00:02:33Z</time>
      </trkpt>
      <trkpt lat="42.33116" lon="2.36626">
        <ele>1352.3</ele>
        <time>2019-01-07T00:02:34Z</time>
      </trkpt>
      <trkpt lat="42.33118" lon="2.36624">
        <ele>1352.3</ele>
        <time>2019-01-07T00:02:35Z</time>
      </trkpt>
      <trkpt lat="42.33121" lon="2.36623">
        <ele>1352.5</ele>
        <time>2019-01-07T00:02:35Z</time>
      </trkpt>
      <trkpt lat="42.33124" lon="2.36622">
        <ele>1352.5</ele>
        <time>2019-01-07T00:02:36Z</time>
      </trkpt>
      <trkpt lat="42.33126" lon="2.3662">
        <ele>1352.4</ele>
        <time>2019-01-07T00:02:37Z</time>
      </trkpt>
      <trkpt lat="42.33129" lon="2.36618">
        <ele>1352.5</ele>
        <time>2019-01-07T00:02:38Z</time>
      </trkpt>
      <trkpt lat="42.33131" lon="2.36616">
        <ele>1352.7</ele>
        <time>2019-01-07T00:02:38Z</time>
      </trkpt>
      <trkpt lat="42.33134" lon="2.36613">
        <ele>1352.9</ele>
        <time>2019-01-07T00:02:39Z</time>
      </trkpt>
      <trkpt lat="42.33136" lon="2.36612">
        <ele>1353.2</ele>
        <time>2019-01-07T00:02:40Z</time>
      </trkpt>
      <trkpt lat="42.33139" lon="2.3661">
        <ele>1353.2</ele>
        <time>2019-01-07T00:02:41Z</time>
      </trkpt>
      <trkpt lat="42.33142" lon="2.36608">
        <ele>1353.1</ele>
        <time>2019-01-07T00:02:42Z</time>
      </trkpt>
      <trkpt lat="42.33145" lon="2.36607">
        <ele>1353.2</ele>
        <time>2019-01-07T00:02:42Z</time>
      </trkpt>
      <trkpt lat="42.33148" lon="2.36605">
        <ele>1353.2</ele>
        <time>2019-01-07T00:02:43Z</time>
      </trkpt>
      <trkpt lat="42.33151" lon="2.36604">
        <ele>1353.2</ele>
        <time>2019-01-07T00:02:44Z</time>
      </trkpt>
      <trkpt lat="42.33153" lon="2.36602">
        <ele>1353.5</ele>
        <time>2019-01-07T00:02:45Z</time>
      </trkpt>
      <trkpt lat="42.33156" lon="2.36601">
        <ele>1353.5</ele>
        <time>2019-01-07T00:02:46Z</time>
      </trkpt>
      <trkpt lat="42.33158" lon="2.36599">
        <ele>1353.6</ele>
        <time>2019-01-07T00:02:46Z</time>
      </trkpt>
      <trkpt lat="42.33161" lon="2.36598">
        <ele>1353.6</ele>
        <time>2019-01-07T00:02:47Z</time>
      </trkpt>
      <trkpt lat="42.33163" lon="2.36596">
        <ele>1353.7</ele>
        <time>2019-01-07T00:02:48Z</time>
      </trkpt>
      <trkpt lat="42.33166" lon="2.36596">
        <ele>1353.8</ele>
        <time>2019-01-07T00:02:48Z</time>
      </trkpt>
      <trkpt lat="42.33168" lon="2.36594">
        <ele>1353.9</ele>
        <time>2019-01-07T00:02:49Z</time>
      </trkpt>
      <trkpt lat="42.3317" lon="2.36593">
        <ele>1354</ele>
        <time>2019-01-07T00:02:50Z</time>
      </trkpt>
      <trkpt lat="42.33173" lon="2.36592">
        <ele>1354</ele>
        <time>2019-01-07T00:02:51Z</time>
      </trkpt>
      <trkpt lat="42.33176" lon="2.36591">
        <ele>1353.9</ele>
        <time>2019-01-07T00:02:51Z</time>
      </trkpt>
      <trkpt lat="42.33178" lon="2.3659">
        <ele>1353.8</ele>
        <time>2019-01-07T00:02:52Z</time>
      </trkpt>
      <trkpt lat="42.33181" lon="2.36589">
        <ele>1353.8</ele>
        <time>2019-01-07T00:02:53Z</time>
      </trkpt>
      <trkpt lat="42.33184" lon="2.36587">
        <ele>1354.1</ele>
        <time>2019-01-07T00:02:54Z</time>
      </trkpt>
      <trkpt lat="42.33186" lon="2.36586">
        <ele>1354.2</ele>
        <time>2019-01-07T00:02:54Z</time>
      </trkpt>
      <trkpt lat="42.33189" lon="2.36585">
        <ele>1354.1</ele>
        <time>2019-01-07T00:02:55Z</time>
      </trkpt>
      <trkpt lat="42.33192" lon="2.36584">
        <ele>1354.1</ele>
        <time>2019-01-07T00:02:56Z</time>
      </trkpt>
      <trkpt lat="42.33195" lon="2.36582">
        <ele>1354.4</ele>
        <time>2019-01-07T00:02:57Z</time>
      </trkpt>
      <trkpt lat="42.33198" lon="2.36581">
        <ele>1354.3</ele>
        <time>2019-01-07T00:02:58Z</time>
      </trkpt>
      <trkpt lat="42.33201" lon="2.3658">
        <ele>1354.4</ele>
        <time>2019-01-07T00:02:58Z</time>
      </trkpt>
      <trkpt lat="42.33204" lon="2.36579">
        <ele>1354.6</ele>
        <time>2019-01-07T00:02:59Z</time>
      </trkpt>
      <trkpt lat="42.33207" lon="2.36578">
        <ele>1354.6</ele>
        <time>2019-01-07T00:03:00Z</time>
      </trkpt>
      <trkpt lat="42.3321" lon="2.36577">
        <ele>1354.5</ele>
        <time>2019-01-07T00:03:01Z</time>
      </trkpt>
      <trkpt lat="42.33213" lon="2.36576">
        <ele>1354.4</ele>
        <time>2019-01-07T00:03:02Z</time>
      </trkpt>
      <trkpt lat="42.33215" lon="2.36575">
        <ele>1354.6</ele>
        <time>2019-01-07T00:03:02Z</time>
      </trkpt>
      <trkpt lat="42.33218" lon="2.36573">
        <ele>1354.8</ele>
        <time>2019-01-07T00:03:03Z</time>
      </trkpt>
      <trkpt lat="42.33221" lon="2.36572">
        <ele>1354.8</ele>
        <time>2019-01-07T00:03:04Z</time>
      </trkpt>
      <trkpt lat="42.33224" lon="2.3657">
        <ele>1354.7</ele>
        <time>2019-01-07T00:03:05Z</time>
      </trkpt>
      <trkpt lat="42.33227" lon="2.36569">
        <ele>1354.8</ele>
        <time>2019-01-07T00:03:06Z</time>
      </trkpt>
      <trkpt lat="42.33229" lon="2.36567">
        <ele>1354.8</ele>
        <time>2019-01-07T00:03:06Z</time>
      </trkpt>
      <trkpt lat="42.33232" lon="2.36565">
        <ele>1354.8</ele>
        <time>2019-01-07T00:03:07Z</time>
      </trkpt>
      <trkpt lat="42.33234" lon="2.36564">
        <ele>1354.6</ele>
        <time>2019-01-07T00:03:08Z</time>
      </trkpt>
      <trkpt lat="42.33237" lon="2.36562">
        <ele>1354.6</ele>
        <time>2019-01-07T00:03:09Z</time>
      </trkpt>
      <trkpt lat="42.33239" lon="2.3656">
        <ele>1354.8</ele>
        <time>2019-01-07T00:03:09Z</time>
      </trkpt>
      <trkpt lat="42.33241" lon="2.36558">
        <ele>1354.7</ele>
        <time>2019-01-07T00:03:10Z</time>
      </trkpt>
      <trkpt lat="42.33243" lon="2.36556">
        <ele>1354.7</ele>
        <time>2019-01-07T00:03:11Z</time>
      </trkpt>
      <trkpt lat="42.33245" lon="2.36554">
        <ele>1354.5</ele>
        <time>2019-01-07T00:03:11Z</time>
      </trkpt>
      <trkpt lat="42.33246" lon="2.36552">
        <ele>1354.4</ele>
        <time>2019-01-07T00:03:12Z</time>
      </trkpt>
      <trkpt lat="42.33247" lon="2.36549">
        <ele>1354.4</ele>
        <time>2019-01-07T00:03:12Z</time>
      </trkpt>
      <trkpt lat="42.33248" lon="2.36547">
        <ele>1354</ele>
        <time>2019-01-07T00:03:13Z</time>
      </trkpt>
      <trkpt lat="42.33249" lon="2.36545">
        <ele>1353.9</ele>
        <time>2019-01-07T00:03:13Z</time>
      </trkpt>
      <trkpt lat="42.3325" lon="2.36542">
        <ele>1353.6</ele>
        <time>2019-01-07T00:03:14Z</time>
      </trkpt>
      <trkpt lat="42.33252" lon="2.36539">
        <ele>1353.4</ele>
        <time>2019-01-07T00:03:15Z</time>
      </trkpt>
      <trkpt lat="42.33254" lon="2.36537">
        <ele>1353.1</ele>
        <time>2019-01-07T00:03:16Z</time>
      </trkpt>
      <trkpt lat="42.33257" lon="2.36537">
        <ele>1352.8</ele>
        <time>2019-01-07T00:03:16Z</time>
      </trkpt>
      <trkpt lat="42.3326" lon="2.36538">
        <ele>1352.6</ele>
        <time>2019-01-07T00:03:17Z</time>
      </trkpt>
      <trkpt lat="42.33263" lon="2.36539">
        <ele>1352.4</ele>
        <time>2019-01-07T00:03:18Z</time>
      </trkpt>
      <trkpt lat="42.33266" lon="2.3654">
        <ele>1352</ele>
        <time>2019-01-07T00:03:19Z</time>
      </trkpt>
      <trkpt lat="42.33269" lon="2.36539">
        <ele>1351.8</ele>
        <time>2019-01-07T00:03:20Z</time>
      </trkpt>
      <trkpt lat="42.33272" lon="2.36538">
        <ele>1351.6</ele>
        <time>2019-01-07T00:03:21Z</time>
      </trkpt>
      <trkpt lat="42.33276" lon="2.36538">
        <ele>1351.3</ele>
        <time>2019-01-07T00:03:21Z</time>
      </trkpt>
      <trkpt lat="42.33279" lon="2.36538">
        <ele>1351.1</ele>
        <time>2019-01-07T00:03:22Z</time>
      </trkpt>
      <trkpt lat="42.33282" lon="2.36538">
        <ele>1351.1</ele>
        <time>2019-01-07T00:03:23Z</time>
      </trkpt>
      <trkpt lat="42.33285" lon="2.36538">
        <ele>1351.3</ele>
        <time>2019-01-07T00:03:24Z</time>
      </trkpt>
      <trkpt lat="42.33288" lon="2.36537">
        <ele>1351.1</ele>
        <time>2019-01-07T00:03:25Z</time>
      </trkpt>
      <trkpt lat="42.33291" lon="2.36537">
        <ele>1351.3</ele>
        <time>2019-01-07T00:03:25Z</time>
      </trkpt>
      <trkpt lat="42.33294" lon="2.36536">
        <ele>1351.3</ele>
        <time>2019-01-07T00:03:26Z</time>
      </trkpt>
      <trkpt lat="42.33296" lon="2.36536">
        <ele>1351.3</ele>
        <time>2019-01-07T00:03:27Z</time>
      </trkpt>
      <trkpt lat="42.33299" lon="2.36535">
        <ele>1351.5</ele>
        <time>2019-01-07T00:03:28Z</time>
      </trkpt>
      <trkpt lat="42.33303" lon="2.36535">
        <ele>1351.4</ele>
        <time>2019-01-07T00:03:29Z</time>
      </trkpt>
      <trkpt lat="42.33306" lon="2.36535">
        <ele>1351.5</ele>
        <time>2019-01-07T00:03:30Z</time>
      </trkpt>
      <trkpt lat="42.33309" lon="2.36533">
        <ele>1351.6</ele>
        <time>2019-01-07T00:03:30Z</time>
      </trkpt>
      <trkpt lat="42.33311" lon="2.36532">
        <ele>1351.5</ele>
        <time>2019-01-07T00:03:31Z</time>
      </trkpt>
      <trkpt lat="42.33314" lon="2.36532">
        <ele>1351.2</ele>
        <time>2019-01-07T00:03:32Z</time>
      </trkpt>
      <trkpt lat="42.33317" lon="2.36532">
        <ele>1350.9</ele>
        <time>2019-01-07T00:03:33Z</time>
      </trkpt>
      <trkpt lat="42.33321" lon="2.36532">
        <ele>1350.7</ele>
        <time>2019-01-07T00:03:34Z</time>
      </trkpt>
      <trkpt lat="42.33324" lon="2.36532">
        <ele>1350.5</ele>
        <time>2019-01-07T00:03:35Z</time>
      </trkpt>
      <trkpt lat="42.33328" lon="2.36532">
        <ele>1350.3</ele>
        <time>2019-01-07T00:03:36Z</time>
      </trkpt>
      <trkpt lat="42.33331" lon="2.36532">
        <ele>1350</ele>
        <time>2019-01-07T00:03:36Z</time>
      </trkpt>
      <trkpt lat="42.33333" lon="2.36533">
        <ele>1349.7</ele>
        <time>2019-01-07T00:03:37Z</time>
      </trkpt>
      <trkpt lat="42.33336" lon="2.36534">
        <ele>1349.7</ele>
        <time>2019-01-07T00:03:38Z</time>
      </trkpt>
      <trkpt lat="42.3334" lon="2.36535">
        <ele>1349.8</ele>
        <time>2019-01-07T00:03:39Z</time>
      </trkpt>
      <trkpt lat="42.33343" lon="2.36535">
        <ele>1350</ele>
        <time>2019-01-07T00:03:40Z</time>
      </trkpt>
      <trkpt lat="42.33346" lon="2.36536">
        <ele>1350.3</ele>
        <time>2019-01-07T00:03:40Z</time>
      </trkpt>
      <trkpt lat="42.33349" lon="2.36536">
        <ele>1350.3</ele>
        <time>2019-01-07T00:03:41Z</time>
      </trkpt>
      <trkpt lat="42.33351" lon="2.36538">
        <ele>1350.5</ele>
        <time>2019-01-07T00:03:42Z</time>
      </trkpt>
      <trkpt lat="42.33354" lon="2.36539">
        <ele>1350.8</ele>
        <time>2019-01-07T00:03:43Z</time>
      </trkpt>
      <trkpt lat="42.33357" lon="2.36541">
        <ele>1350.8</ele>
        <time>2019-01-07T00:03:44Z</time>
      </trkpt>
      <trkpt lat="42.3336" lon="2.36543">
        <ele>1351</ele>
        <time>2019-01-07T00:03:44Z</time>
      </trkpt>
      <trkpt lat="42.33362" lon="2.36545">
        <ele>1351.2</ele>
        <time>2019-01-07T00:03:45Z</time>
      </trkpt>
      <trkpt lat="42.33364" lon="2.36547">
        <ele>1351</ele>
        <time>2019-01-07T00:03:46Z</time>
      </trkpt>
      <trkpt lat="42.33366" lon="2.36548">
        <ele>1350.9</ele>
        <time>2019-01-07T00:03:46Z</time>
      </trkpt>
      <trkpt lat="42.33368" lon="2.3655">
        <ele>1350.8</ele>
        <time>2019-01-07T00:03:47Z</time>
      </trkpt>
      <trkpt lat="42.3337" lon="2.36552">
        <ele>1350.7</ele>
        <time>2019-01-07T00:03:48Z</time>
      </trkpt>
      <trkpt lat="42.33373" lon="2.36554">
        <ele>1350.6</ele>
        <time>2019-01-07T00:03:49Z</time>
      </trkpt>
      <trkpt lat="42.33376" lon="2.36557">
        <ele>1350.6</ele>
        <time>2019-01-07T00:03:49Z</time>
      </trkpt>
      <trkpt lat="42.33378" lon="2.3656">
        <ele>1350.3</ele>
        <time>2019-01-07T00:03:50Z</time>
      </trkpt>
      <trkpt lat="42.3338" lon="2.36563">
        <ele>1350.3</ele>
        <time>2019-01-07T00:03:51Z</time>
      </trkpt>
      <trkpt lat="42.33383" lon="2.36566">
        <ele>1350.3</ele>
        <time>2019-01-07T00:03:52Z</time>
      </trkpt>
      <trkpt lat="42.33385" lon="2.36569">
        <ele>1350.2</ele>
        <time>2019-01-07T00:03:53Z</time>
      </trkpt>
      <trkpt lat="42.33387" lon="2.36571">
        <ele>1350.1</ele>
        <time>2019-01-07T00:03:54Z</time>
      </trkpt>
      <trkpt lat="42.3339" lon="2.36574">
        <ele>1350</ele>
        <time>2019-01-07T00:03:55Z</time>
      </trkpt>
      <trkpt lat="42.33393" lon="2.36576">
        <ele>1350.1</ele>
        <time>2019-01-07T00:03:55Z</time>
      </trkpt>
      <trkpt lat="42.33395" lon="2.36579">
        <ele>1350.2</ele>
        <time>2019-01-07T00:03:56Z</time>
      </trkpt>
      <trkpt lat="42.33398" lon="2.36582">
        <ele>1350.4</ele>
        <time>2019-01-07T00:03:57Z</time>
      </trkpt>
      <trkpt lat="42.334" lon="2.36585">
        <ele>1350.4</ele>
        <time>2019-01-07T00:03:58Z</time>
      </trkpt>
      <trkpt lat="42.33402" lon="2.36587">
        <ele>1350.5</ele>
        <time>2019-01-07T00:03:59Z</time>
      </trkpt>
      <trkpt lat="42.33404" lon="2.3659">
        <ele>1350.9</ele>
        <time>2019-01-07T00:03:59Z</time>
      </trkpt>
      <trkpt lat="42.33407" lon="2.36592">
        <ele>1351</ele>
        <time>2019-01-07T00:04:00Z</time>
      </trkpt>
      <trkpt lat="42.33409" lon="2.36595">
        <ele>1351.2</ele>
        <time>2019-01-07T00:04:01Z</time>
      </trkpt>
      <trkpt lat="42.33411" lon="2.36597">
        <ele>1351.5</ele>
        <time>2019-01-07T00:04:02Z</time>
      </trkpt>
      <trkpt lat="42.33413" lon="2.36599">
        <ele>1351.9</ele>
        <time>2019-01-07T00:04:02Z</time>
      </trkpt>
      <trkpt lat="42.33415" lon="2.36601">
        <ele>1352.2</ele>
        <time>2019-01-07T00:04:03Z</time>
      </trkpt>
      <trkpt lat="42.33416" lon="2.36603">
        <ele>1352.5</ele>
        <time>2019-01-07T00:04:04Z</time>
      </trkpt>
      <trkpt lat="42.33419" lon="2.36605">
        <ele>1352.5</ele>
        <time>2019-01-07T00:04:04Z</time>
      </trkpt>
      <trkpt lat="42.33421" lon="2.36607">
        <ele>1352.5</ele>
        <time>2019-01-07T00:04:05Z</time>
      </trkpt>
      <trkpt lat="42.33424" lon="2.36609">
        <ele>1352.4</ele>
        <time>2019-01-07T00:04:06Z</time>
      </trkpt>
      <trkpt lat="42.33427" lon="2.3661">
        <ele>1352.2</ele>
        <time>2019-01-07T00:04:07Z</time>
      </trkpt>
      <trkpt lat="42.3343" lon="2.36612">
        <ele>1352</ele>
        <time>2019-01-07T00:04:08Z</time>
      </trkpt>
      <trkpt lat="42.33433" lon="2.36614">
        <ele>1351.9</ele>
        <time>2019-01-07T00:04:09Z</time>
      </trkpt>
      <trkpt lat="42.33436" lon="2.36615">
        <ele>1351.5</ele>
        <time>2019-01-07T00:04:09Z</time>
      </trkpt>
      <trkpt lat="42.33439" lon="2.36616">
        <ele>1351.3</ele>
        <time>2019-01-07T00:04:10Z</time>
      </trkpt>
      <trkpt lat="42.3344" lon="2.36618">
        <ele>1351</ele>
        <time>2019-01-07T00:04:11Z</time>
      </trkpt>
      <trkpt lat="42.33442" lon="2.36618">
        <ele>1350.8</ele>
        <time>2019-01-07T00:04:11Z</time>
      </trkpt>
      <trkpt lat="42.33444" lon="2.3662">
        <ele>1350.8</ele>
        <time>2019-01-07T00:04:12Z</time>
      </trkpt>
      <trkpt lat="42.33445" lon="2.36623">
        <ele>1350.5</ele>
        <time>2019-01-07T00:04:13Z</time>
      </trkpt>
      <trkpt lat="42.33447" lon="2.36626">
        <ele>1350.3</ele>
        <time>2019-01-07T00:04:13Z</time>
      </trkpt>
      <trkpt lat="42.33449" lon="2.36629">
        <ele>1350</ele>
        <time>2019-01-07T00:04:14Z</time>
      </trkpt>
      <trkpt lat="42.3345" lon="2.36631">
        <ele>1349.9</ele>
        <time>2019-01-07T00:04:15Z</time>
      </trkpt>
      <trkpt lat="42.33453" lon="2.36634">
        <ele>1349.3</ele>
        <time>2019-01-07T00:04:16Z</time>
      </trkpt>
      <trkpt lat="42.33455" lon="2.36635">
        <ele>1349</ele>
        <time>2019-01-07T00:04:16Z</time>
      </trkpt>
      <trkpt lat="42.33457" lon="2.36637">
        <ele>1348.7</ele>
        <time>2019-01-07T00:04:17Z</time>
      </trkpt>
      <trkpt lat="42.33459" lon="2.36638">
        <ele>1348.4</ele>
        <time>2019-01-07T00:04:17Z</time>
      </trkpt>
      <trkpt lat="42.33461" lon="2.3664">
        <ele>1348.1</ele>
        <time>2019-01-07T00:04:18Z</time>
      </trkpt>
      <trkpt lat="42.33463" lon="2.36642">
        <ele>1347.8</ele>
        <time>2019-01-07T00:04:19Z</time>
      </trkpt>
      <trkpt lat="42.33465" lon="2.36645">
        <ele>1347.6</ele>
        <time>2019-01-07T00:04:20Z</time>
      </trkpt>
      <trkpt lat="42.33467" lon="2.36647">
        <ele>1347.3</ele>
        <time>2019-01-07T00:04:20Z</time>
      </trkpt>
      <trkpt lat="42.3347" lon="2.36649">
        <ele>1346.9</ele>
        <time>2019-01-07T00:04:21Z</time>
      </trkpt>
      <trkpt lat="42.33473" lon="2.36651">
        <ele>1346.8</ele>
        <time>2019-01-07T00:04:22Z</time>
      </trkpt>
      <trkpt lat="42.33475" lon="2.36653">
        <ele>1346.8</ele>
        <time>2019-01-07T00:04:23Z</time>
      </trkpt>
      <trkpt lat="42.33478" lon="2.36654">
        <ele>1346.7</ele>
        <time>2019-01-07T00:04:23Z</time>
      </trkpt>
      <trkpt lat="42.3348" lon="2.36656">
        <ele>1346.9</ele>
        <time>2019-01-07T00:04:24Z</time>
      </trkpt>
      <trkpt lat="42.33483" lon="2.36657">
        <ele>1347</ele>
        <time>2019-01-07T00:04:25Z</time>
      </trkpt>
      <trkpt lat="42.33485" lon="2.36658">
        <ele>1347.3</ele>
        <time>2019-01-07T00:04:25Z</time>
      </trkpt>
      <trkpt lat="42.33487" lon="2.36659">
        <ele>1347.3</ele>
        <time>2019-01-07T00:04:26Z</time>
      </trkpt>
      <trkpt lat="42.33489" lon="2.36659">
        <ele>1347.4</ele>
        <time>2019-01-07T00:04:27Z</time>
      </trkpt>
      <trkpt lat="42.33493" lon="2.36661">
        <ele>1347.5</ele>
        <time>2019-01-07T00:04:28Z</time>
      </trkpt>
      <trkpt lat="42.33495" lon="2.36662">
        <ele>1347.8</ele>
        <time>2019-01-07T00:04:28Z</time>
      </trkpt>
      <trkpt lat="42.33498" lon="2.36664">
        <ele>1348</ele>
        <time>2019-01-07T00:04:29Z</time>
      </trkpt>
      <trkpt lat="42.335" lon="2.36666">
        <ele>1348.2</ele>
        <time>2019-01-07T00:04:30Z</time>
      </trkpt>
      <trkpt lat="42.33502" lon="2.36667">
        <ele>1348.4</ele>
        <time>2019-01-07T00:04:31Z</time>
      </trkpt>
      <trkpt lat="42.33505" lon="2.36668">
        <ele>1348.6</ele>
        <time>2019-01-07T00:04:31Z</time>
      </trkpt>
      <trkpt lat="42.33508" lon="2.36669">
        <ele>1348.8</ele>
        <time>2019-01-07T00:04:32Z</time>
      </trkpt>
      <trkpt lat="42.3351" lon="2.36671">
        <ele>1349</ele>
        <time>2019-01-07T00:04:33Z</time>
      </trkpt>
      <trkpt lat="42.33513" lon="2.36673">
        <ele>1349.3</ele>
        <time>2019-01-07T00:04:33Z</time>
      </trkpt>
      <trkpt lat="42.33515" lon="2.36675">
        <ele>1349.7</ele>
        <time>2019-01-07T00:04:34Z</time>
      </trkpt>
      <trkpt lat="42.33517" lon="2.36677">
        <ele>1350.2</ele>
        <time>2019-01-07T00:04:35Z</time>
      </trkpt>
      <trkpt lat="42.33519" lon="2.36679">
        <ele>1350.5</ele>
        <time>2019-01-07T00:04:36Z</time>
      </trkpt>
      <trkpt lat="42.33521" lon="2.3668">
        <ele>1350.8</ele>
        <time>2019-01-07T00:04:36Z</time>
      </trkpt>
      <trkpt lat="42.33524" lon="2.36681">
        <ele>1351.2</ele>
        <time>2019-01-07T00:04:37Z</time>
      </trkpt>
      <trkpt lat="42.33527" lon="2.36681">
        <ele>1351.6</ele>
        <time>2019-01-07T00:04:38Z</time>
      </trkpt>
      <trkpt lat="42.33529" lon="2.36682">
        <ele>1351.5</ele>
        <time>2019-01-07T00:04:38Z</time>
      </trkpt>
      <trkpt lat="42.33531" lon="2.36682">
        <ele>1351.1</ele>
        <time>2019-01-07T00:04:39Z</time>
      </trkpt>
      <trkpt lat="42.33534" lon="2.36683">
        <ele>1350.8</ele>
        <time>2019-01-07T00:04:40Z</time>
      </trkpt>
      <trkpt lat="42.33537" lon="2.36685">
        <ele>1350.3</ele>
        <time>2019-01-07T00:04:40Z</time>
      </trkpt>
      <trkpt lat="42.33539" lon="2.36686">
        <ele>1350.1</ele>
        <time>2019-01-07T00:04:41Z</time>
      </trkpt>
      <trkpt lat="42.33541" lon="2.36689">
        <ele>1350</ele>
        <time>2019-01-07T00:04:42Z</time>
      </trkpt>
      <trkpt lat="42.33543" lon="2.36692">
        <ele>1350</ele>
        <time>2019-01-07T00:04:43Z</time>
      </trkpt>
      <trkpt lat="42.33545" lon="2.36694">
        <ele>1349.9</ele>
        <time>2019-01-07T00:04:43Z</time>
      </trkpt>
      <trkpt lat="42.33548" lon="2.36696">
        <ele>1349.5</ele>
        <time>2019-01-07T00:04:44Z</time>
      </trkpt>
      <trkpt lat="42.3355" lon="2.36698">
        <ele>1349.1</ele>
        <time>2019-01-07T00:04:45Z</time>
      </trkpt>
      <trkpt lat="42.33551" lon="2.36701">
        <ele>1349.1</ele>
        <time>2019-01-07T00:04:46Z</time>
      </trkpt>
      <trkpt lat="42.33552" lon="2.36704">
        <ele>1349</ele>
        <time>2019-01-07T00:04:46Z</time>
      </trkpt>
      <trkpt lat="42.33554" lon="2.36708">
        <ele>1348.7</ele>
        <time>2019-01-07T00:04:47Z</time>
      </trkpt>
      <trkpt lat="42.33555" lon="2.36711">
        <ele>1348.8</ele>
        <time>2019-01-07T00:04:48Z</time>
      </trkpt>
      <trkpt lat="42.33557" lon="2.36711">
        <ele>1348.6</ele>
        <time>2019-01-07T00:04:48Z</time>
      </trkpt>
      <trkpt lat="42.33559" lon="2.36716">
        <ele>1348.4</ele>
        <time>2019-01-07T00:04:49Z</time>
      </trkpt>
      <trkpt lat="42.33559" lon="2.36718">
        <ele>1348.4</ele>
        <time>2019-01-07T00:04:50Z</time>
      </trkpt>
      <trkpt lat="42.3356" lon="2.3672">
        <ele>1348.4</ele>
        <time>2019-01-07T00:04:50Z</time>
      </trkpt>
      <trkpt lat="42.33562" lon="2.36722">
        <ele>1348.4</ele>
        <time>2019-01-07T00:04:51Z</time>
      </trkpt>
      <trkpt lat="42.33565" lon="2.36724">
        <ele>1348.1</ele>
        <time>2019-01-07T00:04:52Z</time>
      </trkpt>
      <trkpt lat="42.33567" lon="2.36724">
        <ele>1348</ele>
        <time>2019-01-07T00:04:52Z</time>
      </trkpt>
      <trkpt lat="42.33569" lon="2.36724">
        <ele>1347.6</ele>
        <time>2019-01-07T00:04:53Z</time>
      </trkpt>
      <trkpt lat="42.33572" lon="2.36724">
        <ele>1347.6</ele>
        <time>2019-01-07T00:04:54Z</time>
      </trkpt>
      <trkpt lat="42.33574" lon="2.36724">
        <ele>1347.3</ele>
        <time>2019-01-07T00:04:54Z</time>
      </trkpt>
      <trkpt lat="42.33577" lon="2.36724">
        <ele>1346.8</ele>
        <time>2019-01-07T00:04:55Z</time>
      </trkpt>
      <trkpt lat="42.33579" lon="2.36724">
        <ele>1346.8</ele>
        <time>2019-01-07T00:04:56Z</time>
      </trkpt>
      <trkpt lat="42.33582" lon="2.36725">
        <ele>1346.5</ele>
        <time>2019-01-07T00:04:56Z</time>
      </trkpt>
      <trkpt lat="42.33584" lon="2.36725">
        <ele>1346.4</ele>
        <time>2019-01-07T00:04:57Z</time>
      </trkpt>
      <trkpt lat="42.33586" lon="2.36725">
        <ele>1346.4</ele>
        <time>2019-01-07T00:04:57Z</time>
      </trkpt>
      <trkpt lat="42.33588" lon="2.36724">
        <ele>1346.5</ele>
        <time>2019-01-07T00:04:58Z</time>
      </trkpt>
      <trkpt lat="42.3359" lon="2.36724">
        <ele>1346.7</ele>
        <time>2019-01-07T00:04:59Z</time>
      </trkpt>
      <trkpt lat="42.33592" lon="2.36724">
        <ele>1346.7</ele>
        <time>2019-01-07T00:04:59Z</time>
      </trkpt>
      <trkpt lat="42.33594" lon="2.36724">
        <ele>1347.1</ele>
        <time>2019-01-07T00:05:00Z</time>
      </trkpt>
      <trkpt lat="42.33597" lon="2.36724">
        <ele>1347.3</ele>
        <time>2019-01-07T00:05:01Z</time>
      </trkpt>
      <trkpt lat="42.336" lon="2.36723">
        <ele>1347.2</ele>
        <time>2019-01-07T00:05:01Z</time>
      </trkpt>
      <trkpt lat="42.33603" lon="2.36721">
        <ele>1347.5</ele>
        <time>2019-01-07T00:05:02Z</time>
      </trkpt>
      <trkpt lat="42.33606" lon="2.3672">
        <ele>1347.7</ele>
        <time>2019-01-07T00:05:03Z</time>
      </trkpt>
      <trkpt lat="42.33609" lon="2.36719">
        <ele>1347.8</ele>
        <time>2019-01-07T00:05:04Z</time>
      </trkpt>
      <trkpt lat="42.33612" lon="2.36719">
        <ele>1348.1</ele>
        <time>2019-01-07T00:05:05Z</time>
      </trkpt>
      <trkpt lat="42.33614" lon="2.36719">
        <ele>1348.3</ele>
        <time>2019-01-07T00:05:05Z</time>
      </trkpt>
      <trkpt lat="42.33617" lon="2.3672">
        <ele>1348.5</ele>
        <time>2019-01-07T00:05:06Z</time>
      </trkpt>
      <trkpt lat="42.33619" lon="2.3672">
        <ele>1348.8</ele>
        <time>2019-01-07T00:05:07Z</time>
      </trkpt>
      <trkpt lat="42.33622" lon="2.3672">
        <ele>1349.3</ele>
        <time>2019-01-07T00:05:07Z</time>
      </trkpt>
      <trkpt lat="42.33625" lon="2.3672">
        <ele>1349.6</ele>
        <time>2019-01-07T00:05:08Z</time>
      </trkpt>
      <trkpt lat="42.33629" lon="2.36721">
        <ele>1350</ele>
        <time>2019-01-07T00:05:09Z</time>
      </trkpt>
      <trkpt lat="42.33632" lon="2.36721">
        <ele>1350.2</ele>
        <time>2019-01-07T00:05:10Z</time>
      </trkpt>
      <trkpt lat="42.33635" lon="2.36721">
        <ele>1350.6</ele>
        <time>2019-01-07T00:05:11Z</time>
      </trkpt>
      <trkpt lat="42.33637" lon="2.3672">
        <ele>1351</ele>
        <time>2019-01-07T00:05:11Z</time>
      </trkpt>
      <trkpt lat="42.3364" lon="2.3672">
        <ele>1351.2</ele>
        <time>2019-01-07T00:05:12Z</time>
      </trkpt>
      <trkpt lat="42.33643" lon="2.36721">
        <ele>1351.5</ele>
        <time>2019-01-07T00:05:13Z</time>
      </trkpt>
      <trkpt lat="42.33646" lon="2.3672">
        <ele>1351.9</ele>
        <time>2019-01-07T00:05:14Z</time>
      </trkpt>
      <trkpt lat="42.33649" lon="2.36719">
        <ele>1352.2</ele>
        <time>2019-01-07T00:05:14Z</time>
      </trkpt>
      <trkpt lat="42.33651" lon="2.36719">
        <ele>1352.3</ele>
        <time>2019-01-07T00:05:15Z</time>
      </trkpt>
      <trkpt lat="42.33654" lon="2.3672">
        <ele>1352.5</ele>
        <time>2019-01-07T00:05:16Z</time>
      </trkpt>
      <trkpt lat="42.33656" lon="2.3672">
        <ele>1352.9</ele>
        <time>2019-01-07T00:05:16Z</time>
      </trkpt>
      <trkpt lat="42.33659" lon="2.36719">
        <ele>1353.1</ele>
        <time>2019-01-07T00:05:17Z</time>
      </trkpt>
      <trkpt lat="42.33662" lon="2.36719">
        <ele>1353.5</ele>
        <time>2019-01-07T00:05:18Z</time>
      </trkpt>
      <trkpt lat="42.33665" lon="2.36719">
        <ele>1353.8</ele>
        <time>2019-01-07T00:05:19Z</time>
      </trkpt>
      <trkpt lat="42.33667" lon="2.36719">
        <ele>1354.2</ele>
        <time>2019-01-07T00:05:19Z</time>
      </trkpt>
      <trkpt lat="42.3367" lon="2.3672">
        <ele>1354.3</ele>
        <time>2019-01-07T00:05:20Z</time>
      </trkpt>
      <trkpt lat="42.33673" lon="2.3672">
        <ele>1354.8</ele>
        <time>2019-01-07T00:05:21Z</time>
      </trkpt>
      <trkpt lat="42.33675" lon="2.36719">
        <ele>1354.9</ele>
        <time>2019-01-07T00:05:22Z</time>
      </trkpt>
      <trkpt lat="42.33678" lon="2.36719">
        <ele>1355.1</ele>
        <time>2019-01-07T00:05:22Z</time>
      </trkpt>
      <trkpt lat="42.33681" lon="2.36719">
        <ele>1355.5</ele>
        <time>2019-01-07T00:05:23Z</time>
      </trkpt>
      <trkpt lat="42.33683" lon="2.36719">
        <ele>1355.5</ele>
        <time>2019-01-07T00:05:24Z</time>
      </trkpt>
      <trkpt lat="42.33686" lon="2.36718">
        <ele>1355.7</ele>
        <time>2019-01-07T00:05:24Z</time>
      </trkpt>
      <trkpt lat="42.33689" lon="2.36716">
        <ele>1355.9</ele>
        <time>2019-01-07T00:05:25Z</time>
      </trkpt>
      <trkpt lat="42.33692" lon="2.36716">
        <ele>1356</ele>
        <time>2019-01-07T00:05:26Z</time>
      </trkpt>
      <trkpt lat="42.33694" lon="2.36716">
        <ele>1356.4</ele>
        <time>2019-01-07T00:05:27Z</time>
      </trkpt>
      <trkpt lat="42.33697" lon="2.36715">
        <ele>1356.5</ele>
        <time>2019-01-07T00:05:27Z</time>
      </trkpt>
      <trkpt lat="42.33699" lon="2.36715">
        <ele>1356.6</ele>
        <time>2019-01-07T00:05:28Z</time>
      </trkpt>
      <trkpt lat="42.33702" lon="2.36714">
        <ele>1356.5</ele>
        <time>2019-01-07T00:05:29Z</time>
      </trkpt>
      <trkpt lat="42.33705" lon="2.36712">
        <ele>1356.6</ele>
        <time>2019-01-07T00:05:30Z</time>
      </trkpt>
      <trkpt lat="42.33707" lon="2.36711">
        <ele>1356.5</ele>
        <time>2019-01-07T00:05:30Z</time>
      </trkpt>
      <trkpt lat="42.3371" lon="2.36709">
        <ele>1356.5</ele>
        <time>2019-01-07T00:05:31Z</time>
      </trkpt>
      <trkpt lat="42.33713" lon="2.36708">
        <ele>1356.5</ele>
        <time>2019-01-07T00:05:32Z</time>
      </trkpt>
      <trkpt lat="42.33715" lon="2.36706">
        <ele>1356.4</ele>
        <time>2019-01-07T00:05:33Z</time>
      </trkpt>
      <trkpt lat="42.33718" lon="2.36705">
        <ele>1356.5</ele>
        <time>2019-01-07T00:05:33Z</time>
      </trkpt>
      <trkpt lat="42.33721" lon="2.36704">
        <ele>1356.7</ele>
        <time>2019-01-07T00:05:34Z</time>
      </trkpt>
      <trkpt lat="42.33724" lon="2.36702">
        <ele>1356.7</ele>
        <time>2019-01-07T00:05:35Z</time>
      </trkpt>
      <trkpt lat="42.33727" lon="2.36702">
        <ele>1356.8</ele>
        <time>2019-01-07T00:05:36Z</time>
      </trkpt>
      <trkpt lat="42.3373" lon="2.36701">
        <ele>1356.9</ele>
        <time>2019-01-07T00:05:37Z</time>
      </trkpt>
      <trkpt lat="42.33733" lon="2.36701">
        <ele>1357.1</ele>
        <time>2019-01-07T00:05:38Z</time>
      </trkpt>
      <trkpt lat="42.33736" lon="2.36699">
        <ele>1357.2</ele>
        <time>2019-01-07T00:05:38Z</time>
      </trkpt>
      <trkpt lat="42.33739" lon="2.36697">
        <ele>1357.4</ele>
        <time>2019-01-07T00:05:39Z</time>
      </trkpt>
      <trkpt lat="42.33741" lon="2.36696">
        <ele>1357.5</ele>
        <time>2019-01-07T00:05:40Z</time>
      </trkpt>
      <trkpt lat="42.33744" lon="2.36696">
        <ele>1357.6</ele>
        <time>2019-01-07T00:05:41Z</time>
      </trkpt>
      <trkpt lat="42.33746" lon="2.36696">
        <ele>1357.8</ele>
        <time>2019-01-07T00:05:41Z</time>
      </trkpt>
      <trkpt lat="42.33749" lon="2.36697">
        <ele>1357.9</ele>
        <time>2019-01-07T00:05:42Z</time>
      </trkpt>
      <trkpt lat="42.33752" lon="2.36697">
        <ele>1357.9</ele>
        <time>2019-01-07T00:05:43Z</time>
      </trkpt>
      <trkpt lat="42.33755" lon="2.36696">
        <ele>1358.2</ele>
        <time>2019-01-07T00:05:44Z</time>
      </trkpt>
      <trkpt lat="42.33757" lon="2.36695">
        <ele>1358.1</ele>
        <time>2019-01-07T00:05:44Z</time>
      </trkpt>
      <trkpt lat="42.33758" lon="2.36694">
        <ele>1358</ele>
        <time>2019-01-07T00:05:45Z</time>
      </trkpt>
      <trkpt lat="42.33761" lon="2.36693">
        <ele>1357.8</ele>
        <time>2019-01-07T00:05:45Z</time>
      </trkpt>
      <trkpt lat="42.33762" lon="2.36693">
        <ele>1357.9</ele>
        <time>2019-01-07T00:05:46Z</time>
      </trkpt>
      <trkpt lat="42.33765" lon="2.36693">
        <ele>1357.8</ele>
        <time>2019-01-07T00:05:46Z</time>
      </trkpt>
      <trkpt lat="42.33768" lon="2.36692">
        <ele>1357.8</ele>
        <time>2019-01-07T00:05:47Z</time>
      </trkpt>
      <trkpt lat="42.33771" lon="2.36692">
        <ele>1357.8</ele>
        <time>2019-01-07T00:05:48Z</time>
      </trkpt>
      <trkpt lat="42.33774" lon="2.36692">
        <ele>1357.9</ele>
        <time>2019-01-07T00:05:49Z</time>
      </trkpt>
      <trkpt lat="42.33777" lon="2.36692">
        <ele>1357.6</ele>
        <time>2019-01-07T00:05:50Z</time>
      </trkpt>
      <trkpt lat="42.33779" lon="2.36691">
        <ele>1357.6</ele>
        <time>2019-01-07T00:05:50Z</time>
      </trkpt>
      <trkpt lat="42.33782" lon="2.3669">
        <ele>1357.6</ele>
        <time>2019-01-07T00:05:51Z</time>
      </trkpt>
      <trkpt lat="42.33784" lon="2.3669">
        <ele>1357.9</ele>
        <time>2019-01-07T00:05:52Z</time>
      </trkpt>
      <trkpt lat="42.33787" lon="2.36691">
        <ele>1358</ele>
        <time>2019-01-07T00:05:52Z</time>
      </trkpt>
      <trkpt lat="42.33789" lon="2.36692">
        <ele>1358.1</ele>
        <time>2019-01-07T00:05:53Z</time>
      </trkpt>
      <trkpt lat="42.33792" lon="2.36691">
        <ele>1358.3</ele>
        <time>2019-01-07T00:05:54Z</time>
      </trkpt>
      <trkpt lat="42.33794" lon="2.36691">
        <ele>1358.3</ele>
        <time>2019-01-07T00:05:54Z</time>
      </trkpt>
      <trkpt lat="42.33796" lon="2.36691">
        <ele>1358.4</ele>
        <time>2019-01-07T00:05:55Z</time>
      </trkpt>
      <trkpt lat="42.33798" lon="2.36691">
        <ele>1358.5</ele>
        <time>2019-01-07T00:05:55Z</time>
      </trkpt>
      <trkpt lat="42.33801" lon="2.36691">
        <ele>1358.6</ele>
        <time>2019-01-07T00:05:56Z</time>
      </trkpt>
      <trkpt lat="42.33803" lon="2.36691">
        <ele>1358.5</ele>
        <time>2019-01-07T00:05:57Z</time>
      </trkpt>
      <trkpt lat="42.33805" lon="2.36692">
        <ele>1358.8</ele>
        <time>2019-01-07T00:05:57Z</time>
      </trkpt>
      <trkpt lat="42.33808" lon="2.36694">
        <ele>1358.6</ele>
        <time>2019-01-07T00:05:58Z</time>
      </trkpt>
      <trkpt lat="42.3381" lon="2.36695">
        <ele>1358.5</ele>
        <time>2019-01-07T00:05:59Z</time>
      </trkpt>
      <trkpt lat="42.33813" lon="2.36698">
        <ele>1358.1</ele>
        <time>2019-01-07T00:06:00Z</time>
      </trkpt>
      <trkpt lat="42.33815" lon="2.36698">
        <ele>1358.1</ele>
        <time>2019-01-07T00:06:00Z</time>
      </trkpt>
      <trkpt lat="42.33817" lon="2.36699">
        <ele>1357.8</ele>
        <time>2019-01-07T00:06:01Z</time>
      </trkpt>
      <trkpt lat="42.3382" lon="2.36699">
        <ele>1357.6</ele>
        <time>2019-01-07T00:06:02Z</time>
      </trkpt>
      <trkpt lat="42.33823" lon="2.36699">
        <ele>1357.2</ele>
        <time>2019-01-07T00:06:02Z</time>
      </trkpt>
      <trkpt lat="42.33825" lon="2.36699">
        <ele>1357</ele>
        <time>2019-01-07T00:06:03Z</time>
      </trkpt>
      <trkpt lat="42.33827" lon="2.36699">
        <ele>1356.7</ele>
        <time>2019-01-07T00:06:04Z</time>
      </trkpt>
      <trkpt lat="42.3383" lon="2.36699">
        <ele>1356.6</ele>
        <time>2019-01-07T00:06:04Z</time>
      </trkpt>
      <trkpt lat="42.33832" lon="2.36698">
        <ele>1356.2</ele>
        <time>2019-01-07T00:06:05Z</time>
      </trkpt>
      <trkpt lat="42.33834" lon="2.36698">
        <ele>1356.3</ele>
        <time>2019-01-07T00:06:05Z</time>
      </trkpt>
      <trkpt lat="42.33836" lon="2.36697">
        <ele>1356.3</ele>
        <time>2019-01-07T00:06:06Z</time>
      </trkpt>
      <trkpt lat="42.33838" lon="2.36696">
        <ele>1356.4</ele>
        <time>2019-01-07T00:06:07Z</time>
      </trkpt>
      <trkpt lat="42.3384" lon="2.36695">
        <ele>1356.7</ele>
        <time>2019-01-07T00:06:07Z</time>
      </trkpt>
      <trkpt lat="42.33842" lon="2.36694">
        <ele>1356.8</ele>
        <time>2019-01-07T00:06:08Z</time>
      </trkpt>
      <trkpt lat="42.33844" lon="2.36694">
        <ele>1356.9</ele>
        <time>2019-01-07T00:06:08Z</time>
      </trkpt>
      <trkpt lat="42.33846" lon="2.36693">
        <ele>1357</ele>
        <time>2019-01-07T00:06:09Z</time>
      </trkpt>
      <trkpt lat="42.33849" lon="2.36693">
        <ele>1357.1</ele>
        <time>2019-01-07T00:06:10Z</time>
      </trkpt>
      <trkpt lat="42.33852" lon="2.36693">
        <ele>1357.4</ele>
        <time>2019-01-07T00:06:10Z</time>
      </trkpt>
      <trkpt lat="42.33856" lon="2.36692">
        <ele>1357.5</ele>
        <time>2019-01-07T00:06:11Z</time>
      </trkpt>
      <trkpt lat="42.33859" lon="2.36692">
        <ele>1357.6</ele>
        <time>2019-01-07T00:06:12Z</time>
      </trkpt>
      <trkpt lat="42.33862" lon="2.36691">
        <ele>1357.7</ele>
        <time>2019-01-07T00:06:13Z</time>
      </trkpt>
      <trkpt lat="42.33864" lon="2.3669">
        <ele>1358.2</ele>
        <time>2019-01-07T00:06:14Z</time>
      </trkpt>
      <trkpt lat="42.33867" lon="2.3669">
        <ele>1358.4</ele>
        <time>2019-01-07T00:06:14Z</time>
      </trkpt>
      <trkpt lat="42.33869" lon="2.36689">
        <ele>1358.7</ele>
        <time>2019-01-07T00:06:15Z</time>
      </trkpt>
      <trkpt lat="42.33872" lon="2.36689">
        <ele>1359.2</ele>
        <time>2019-01-07T00:06:16Z</time>
      </trkpt>
      <trkpt lat="42.33874" lon="2.36689">
        <ele>1359.6</ele>
        <time>2019-01-07T00:06:16Z</time>
      </trkpt>
      <trkpt lat="42.33877" lon="2.36689">
        <ele>1360.1</ele>
        <time>2019-01-07T00:06:17Z</time>
      </trkpt>
      <trkpt lat="42.33879" lon="2.36689">
        <ele>1360.4</ele>
        <time>2019-01-07T00:06:18Z</time>
      </trkpt>
      <trkpt lat="42.33882" lon="2.36689">
        <ele>1360.8</ele>
        <time>2019-01-07T00:06:18Z</time>
      </trkpt>
      <trkpt lat="42.33884" lon="2.36689">
        <ele>1361.4</ele>
        <time>2019-01-07T00:06:19Z</time>
      </trkpt>
      <trkpt lat="42.33887" lon="2.36689">
        <ele>1361.7</ele>
        <time>2019-01-07T00:06:20Z</time>
      </trkpt>
      <trkpt lat="42.33889" lon="2.36689">
        <ele>1362.2</ele>
        <time>2019-01-07T00:06:20Z</time>
      </trkpt>
      <trkpt lat="42.33891" lon="2.36688">
        <ele>1362.5</ele>
        <time>2019-01-07T00:06:21Z</time>
      </trkpt>
      <trkpt lat="42.33894" lon="2.36688">
        <ele>1362.7</ele>
        <time>2019-01-07T00:06:21Z</time>
      </trkpt>
      <trkpt lat="42.33896" lon="2.36688">
        <ele>1363</ele>
        <time>2019-01-07T00:06:22Z</time>
      </trkpt>
      <trkpt lat="42.33898" lon="2.36688">
        <ele>1363.5</ele>
        <time>2019-01-07T00:06:23Z</time>
      </trkpt>
      <trkpt lat="42.339" lon="2.36688">
        <ele>1364.1</ele>
        <time>2019-01-07T00:06:23Z</time>
      </trkpt>
      <trkpt lat="42.33902" lon="2.36689">
        <ele>1364.7</ele>
        <time>2019-01-07T00:06:24Z</time>
      </trkpt>
      <trkpt lat="42.33904" lon="2.3669">
        <ele>1365</ele>
        <time>2019-01-07T00:06:24Z</time>
      </trkpt>
      <trkpt lat="42.33906" lon="2.3669">
        <ele>1365.5</ele>
        <time>2019-01-07T00:06:25Z</time>
      </trkpt>
      <trkpt lat="42.33907" lon="2.36691">
        <ele>1365.8</ele>
        <time>2019-01-07T00:06:25Z</time>
      </trkpt>
      <trkpt lat="42.33909" lon="2.36691">
        <ele>1366.1</ele>
        <time>2019-01-07T00:06:26Z</time>
      </trkpt>
      <trkpt lat="42.33912" lon="2.36691">
        <ele>1366.7</ele>
        <time>2019-01-07T00:06:26Z</time>
      </trkpt>
      <trkpt lat="42.33914" lon="2.36691">
        <ele>1367</ele>
        <time>2019-01-07T00:06:27Z</time>
      </trkpt>
      <trkpt lat="42.33916" lon="2.36692">
        <ele>1367.5</ele>
        <time>2019-01-07T00:06:27Z</time>
      </trkpt>
      <trkpt lat="42.33918" lon="2.36692">
        <ele>1367.8</ele>
        <time>2019-01-07T00:06:28Z</time>
      </trkpt>
      <trkpt lat="42.3392" lon="2.36692">
        <ele>1368</ele>
        <time>2019-01-07T00:06:29Z</time>
      </trkpt>
      <trkpt lat="42.33922" lon="2.36692">
        <ele>1368.2</ele>
        <time>2019-01-07T00:06:29Z</time>
      </trkpt>
      <trkpt lat="42.33924" lon="2.36693">
        <ele>1368.5</ele>
        <time>2019-01-07T00:06:30Z</time>
      </trkpt>
      <trkpt lat="42.33926" lon="2.36693">
        <ele>1369</ele>
        <time>2019-01-07T00:06:30Z</time>
      </trkpt>
      <trkpt lat="42.33928" lon="2.36694">
        <ele>1369.3</ele>
        <time>2019-01-07T00:06:31Z</time>
      </trkpt>
      <trkpt lat="42.3393" lon="2.36694">
        <ele>1369.5</ele>
        <time>2019-01-07T00:06:31Z</time>
      </trkpt>
      <trkpt lat="42.33933" lon="2.36694">
        <ele>1369.7</ele>
        <time>2019-01-07T00:06:32Z</time>
      </trkpt>
      <trkpt lat="42.33935" lon="2.36694">
        <ele>1370</ele>
        <time>2019-01-07T00:06:33Z</time>
      </trkpt>
      <trkpt lat="42.33937" lon="2.36695">
        <ele>1370.2</ele>
        <time>2019-01-07T00:06:33Z</time>
      </trkpt>
      <trkpt lat="42.3394" lon="2.36697">
        <ele>1370.6</ele>
        <time>2019-01-07T00:06:34Z</time>
      </trkpt>
      <trkpt lat="42.33942" lon="2.36698">
        <ele>1370.8</ele>
        <time>2019-01-07T00:06:35Z</time>
      </trkpt>
      <trkpt lat="42.33945" lon="2.36698">
        <ele>1370.8</ele>
        <time>2019-01-07T00:06:35Z</time>
      </trkpt>
      <trkpt lat="42.33947" lon="2.36699">
        <ele>1370.6</ele>
        <time>2019-01-07T00:06:36Z</time>
      </trkpt>
      <trkpt lat="42.3395" lon="2.36699">
        <ele>1370.3</ele>
        <time>2019-01-07T00:06:37Z</time>
      </trkpt>
      <trkpt lat="42.33953" lon="2.36698">
        <ele>1370.2</ele>
        <time>2019-01-07T00:06:37Z</time>
      </trkpt>
      <trkpt lat="42.33956" lon="2.36698">
        <ele>1370</ele>
        <time>2019-01-07T00:06:38Z</time>
      </trkpt>
      <trkpt lat="42.33958" lon="2.36698">
        <ele>1369.8</ele>
        <time>2019-01-07T00:06:39Z</time>
      </trkpt>
      <trkpt lat="42.3396" lon="2.36698">
        <ele>1369.6</ele>
        <time>2019-01-07T00:06:39Z</time>
      </trkpt>
      <trkpt lat="42.33961" lon="2.36699">
        <ele>1369.4</ele>
        <time>2019-01-07T00:06:40Z</time>
      </trkpt>
      <trkpt lat="42.33965" lon="2.36701">
        <ele>1369.3</ele>
        <time>2019-01-07T00:06:41Z</time>
      </trkpt>
      <trkpt lat="42.33966" lon="2.36702">
        <ele>1369.1</ele>
        <time>2019-01-07T00:06:41Z</time>
      </trkpt>
      <trkpt lat="42.33968" lon="2.36703">
        <ele>1369.1</ele>
        <time>2019-01-07T00:06:42Z</time>
      </trkpt>
      <trkpt lat="42.3397" lon="2.36704">
        <ele>1369</ele>
        <time>2019-01-07T00:06:42Z</time>
      </trkpt>
      <trkpt lat="42.33971" lon="2.36705">
        <ele>1368.9</ele>
        <time>2019-01-07T00:06:43Z</time>
      </trkpt>
      <trkpt lat="42.33975" lon="2.36706">
        <ele>1368.9</ele>
        <time>2019-01-07T00:06:44Z</time>
      </trkpt>
      <trkpt lat="42.33978" lon="2.36707">
        <ele>1369</ele>
        <time>2019-01-07T00:06:45Z</time>
      </trkpt>
      <trkpt lat="42.3398" lon="2.36708">
        <ele>1369.3</ele>
        <time>2019-01-07T00:06:45Z</time>
      </trkpt>
      <trkpt lat="42.33982" lon="2.36708">
        <ele>1369.4</ele>
        <time>2019-01-07T00:06:46Z</time>
      </trkpt>
      <trkpt lat="42.33985" lon="2.3671">
        <ele>1369.4</ele>
        <time>2019-01-07T00:06:46Z</time>
      </trkpt>
      <trkpt lat="42.33988" lon="2.36711">
        <ele>1369.5</ele>
        <time>2019-01-07T00:06:47Z</time>
      </trkpt>
      <trkpt lat="42.33991" lon="2.36711">
        <ele>1369.6</ele>
        <time>2019-01-07T00:06:48Z</time>
      </trkpt>
      <trkpt lat="42.33994" lon="2.36712">
        <ele>1369.6</ele>
        <time>2019-01-07T00:06:49Z</time>
      </trkpt>
      <trkpt lat="42.33997" lon="2.36713">
        <ele>1369.7</ele>
        <time>2019-01-07T00:06:50Z</time>
      </trkpt>
      <trkpt lat="42.34" lon="2.36715">
        <ele>1369.8</ele>
        <time>2019-01-07T00:06:51Z</time>
      </trkpt>
      <trkpt lat="42.34002" lon="2.36716">
        <ele>1369.8</ele>
        <time>2019-01-07T00:06:51Z</time>
      </trkpt>
      <trkpt lat="42.34005" lon="2.36717">
        <ele>1370.2</ele>
        <time>2019-01-07T00:06:52Z</time>
      </trkpt>
      <trkpt lat="42.34008" lon="2.36718">
        <ele>1370.1</ele>
        <time>2019-01-07T00:06:53Z</time>
      </trkpt>
      <trkpt lat="42.34011" lon="2.36719">
        <ele>1370.3</ele>
        <time>2019-01-07T00:06:54Z</time>
      </trkpt>
      <trkpt lat="42.34014" lon="2.3672">
        <ele>1370.5</ele>
        <time>2019-01-07T00:06:55Z</time>
      </trkpt>
      <trkpt lat="42.34018" lon="2.36721">
        <ele>1370.7</ele>
        <time>2019-01-07T00:06:56Z</time>
      </trkpt>
      <trkpt lat="42.34021" lon="2.36722">
        <ele>1370.9</ele>
        <time>2019-01-07T00:06:56Z</time>
      </trkpt>
      <trkpt lat="42.34023" lon="2.36723">
        <ele>1371</ele>
        <time>2019-01-07T00:06:57Z</time>
      </trkpt>
      <trkpt lat="42.34027" lon="2.36723">
        <ele>1370.9</ele>
        <time>2019-01-07T00:06:58Z</time>
      </trkpt>
      <trkpt lat="42.34029" lon="2.36724">
        <ele>1370.9</ele>
        <time>2019-01-07T00:06:59Z</time>
      </trkpt>
      <trkpt lat="42.34032" lon="2.36725">
        <ele>1370.7</ele>
        <time>2019-01-07T00:06:59Z</time>
      </trkpt>
      <trkpt lat="42.34035" lon="2.36726">
        <ele>1370.5</ele>
        <time>2019-01-07T00:07:00Z</time>
      </trkpt>
      <trkpt lat="42.34038" lon="2.36728">
        <ele>1370.3</ele>
        <time>2019-01-07T00:07:01Z</time>
      </trkpt>
      <trkpt lat="42.34042" lon="2.3673">
        <ele>1370</ele>
        <time>2019-01-07T00:07:02Z</time>
      </trkpt>
      <trkpt lat="42.34043" lon="2.3673">
        <ele>1369.8</ele>
        <time>2019-01-07T00:07:03Z</time>
      </trkpt>
      <trkpt lat="42.34047" lon="2.36732">
        <ele>1369.5</ele>
        <time>2019-01-07T00:07:04Z</time>
      </trkpt>
      <trkpt lat="42.3405" lon="2.36732">
        <ele>1369.3</ele>
        <time>2019-01-07T00:07:04Z</time>
      </trkpt>
      <trkpt lat="42.34053" lon="2.36732">
        <ele>1369.3</ele>
        <time>2019-01-07T00:07:05Z</time>
      </trkpt>
      <trkpt lat="42.34056" lon="2.36733">
        <ele>1369.2</ele>
        <time>2019-01-07T00:07:06Z</time>
      </trkpt>
      <trkpt lat="42.34059" lon="2.36733">
        <ele>1369.1</ele>
        <time>2019-01-07T00:07:07Z</time>
      </trkpt>
      <trkpt lat="42.34063" lon="2.36733">
        <ele>1369.1</ele>
        <time>2019-01-07T00:07:08Z</time>
      </trkpt>
      <trkpt lat="42.34066" lon="2.36733">
        <ele>1369.2</ele>
        <time>2019-01-07T00:07:09Z</time>
      </trkpt>
      <trkpt lat="42.34069" lon="2.36734">
        <ele>1369.3</ele>
        <time>2019-01-07T00:07:10Z</time>
      </trkpt>
      <trkpt lat="42.34072" lon="2.36735">
        <ele>1369.5</ele>
        <time>2019-01-07T00:07:10Z</time>
      </trkpt>
      <trkpt lat="42.34075" lon="2.36736">
        <ele>1369.4</ele>
        <time>2019-01-07T00:07:11Z</time>
      </trkpt>
      <trkpt lat="42.34078" lon="2.36737">
        <ele>1369.5</ele>
        <time>2019-01-07T00:07:12Z</time>
      </trkpt>
      <trkpt lat="42.34081" lon="2.36738">
        <ele>1369.5</ele>
        <time>2019-01-07T00:07:13Z</time>
      </trkpt>
      <trkpt lat="42.34084" lon="2.36739">
        <ele>1369.6</ele>
        <time>2019-01-07T00:07:14Z</time>
      </trkpt>
      <trkpt lat="42.34087" lon="2.3674">
        <ele>1370</ele>
        <time>2019-01-07T00:07:14Z</time>
      </trkpt>
      <trkpt lat="42.34089" lon="2.36741">
        <ele>1370.3</ele>
        <time>2019-01-07T00:07:15Z</time>
      </trkpt>
      <trkpt lat="42.34092" lon="2.36742">
        <ele>1370.9</ele>
        <time>2019-01-07T00:07:16Z</time>
      </trkpt>
      <trkpt lat="42.34094" lon="2.36743">
        <ele>1371</ele>
        <time>2019-01-07T00:07:17Z</time>
      </trkpt>
      <trkpt lat="42.34097" lon="2.36744">
        <ele>1371.3</ele>
        <time>2019-01-07T00:07:17Z</time>
      </trkpt>
      <trkpt lat="42.34099" lon="2.36746">
        <ele>1371.7</ele>
        <time>2019-01-07T00:07:18Z</time>
      </trkpt>
      <trkpt lat="42.34101" lon="2.36746">
        <ele>1372</ele>
        <time>2019-01-07T00:07:18Z</time>
      </trkpt>
      <trkpt lat="42.34104" lon="2.36747">
        <ele>1372.3</ele>
        <time>2019-01-07T00:07:19Z</time>
      </trkpt>
      <trkpt lat="42.34106" lon="2.36747">
        <ele>1372.6</ele>
        <time>2019-01-07T00:07:20Z</time>
      </trkpt>
      <trkpt lat="42.34108" lon="2.36747">
        <ele>1372.7</ele>
        <time>2019-01-07T00:07:21Z</time>
      </trkpt>
      <trkpt lat="42.34111" lon="2.36748">
        <ele>1373</ele>
        <time>2019-01-07T00:07:21Z</time>
      </trkpt>
      <trkpt lat="42.34113" lon="2.36749">
        <ele>1373.1</ele>
        <time>2019-01-07T00:07:22Z</time>
      </trkpt>
      <trkpt lat="42.34116" lon="2.36748">
        <ele>1373.4</ele>
        <time>2019-01-07T00:07:23Z</time>
      </trkpt>
      <trkpt lat="42.34119" lon="2.3675">
        <ele>1373.7</ele>
        <time>2019-01-07T00:07:23Z</time>
      </trkpt>
      <trkpt lat="42.34121" lon="2.3675">
        <ele>1373.8</ele>
        <time>2019-01-07T00:07:24Z</time>
      </trkpt>
      <trkpt lat="42.34123" lon="2.36751">
        <ele>1374</ele>
        <time>2019-01-07T00:07:25Z</time>
      </trkpt>
      <trkpt lat="42.34125" lon="2.36751">
        <ele>1374.2</ele>
        <time>2019-01-07T00:07:25Z</time>
      </trkpt>
      <trkpt lat="42.34127" lon="2.36753">
        <ele>1374.4</ele>
        <time>2019-01-07T00:07:26Z</time>
      </trkpt>
      <trkpt lat="42.3413" lon="2.36753">
        <ele>1374.7</ele>
        <time>2019-01-07T00:07:26Z</time>
      </trkpt>
      <trkpt lat="42.34132" lon="2.36755">
        <ele>1375</ele>
        <time>2019-01-07T00:07:27Z</time>
      </trkpt>
      <trkpt lat="42.34135" lon="2.36757">
        <ele>1375.4</ele>
        <time>2019-01-07T00:07:28Z</time>
      </trkpt>
      <trkpt lat="42.34137" lon="2.36759">
        <ele>1375.6</ele>
        <time>2019-01-07T00:07:29Z</time>
      </trkpt>
      <trkpt lat="42.3414" lon="2.3676">
        <ele>1375.8</ele>
        <time>2019-01-07T00:07:29Z</time>
      </trkpt>
      <trkpt lat="42.34142" lon="2.36762">
        <ele>1376.2</ele>
        <time>2019-01-07T00:07:30Z</time>
      </trkpt>
      <trkpt lat="42.34144" lon="2.36765">
        <ele>1376.6</ele>
        <time>2019-01-07T00:07:31Z</time>
      </trkpt>
      <trkpt lat="42.34146" lon="2.36767">
        <ele>1377.1</ele>
        <time>2019-01-07T00:07:31Z</time>
      </trkpt>
      <trkpt lat="42.34148" lon="2.36768">
        <ele>1377.5</ele>
        <time>2019-01-07T00:07:32Z</time>
      </trkpt>
      <trkpt lat="42.3415" lon="2.36769">
        <ele>1377.9</ele>
        <time>2019-01-07T00:07:33Z</time>
      </trkpt>
      <trkpt lat="42.34152" lon="2.3677">
        <ele>1378.2</ele>
        <time>2019-01-07T00:07:33Z</time>
      </trkpt>
      <trkpt lat="42.34154" lon="2.36771">
        <ele>1378.4</ele>
        <time>2019-01-07T00:07:34Z</time>
      </trkpt>
      <trkpt lat="42.34156" lon="2.36773">
        <ele>1378.6</ele>
        <time>2019-01-07T00:07:34Z</time>
      </trkpt>
      <trkpt lat="42.34157" lon="2.36775">
        <ele>1378.9</ele>
        <time>2019-01-07T00:07:35Z</time>
      </trkpt>
      <trkpt lat="42.34159" lon="2.36776">
        <ele>1379.1</ele>
        <time>2019-01-07T00:07:35Z</time>
      </trkpt>
      <trkpt lat="42.3416" lon="2.36778">
        <ele>1379.4</ele>
        <time>2019-01-07T00:07:36Z</time>
      </trkpt>
      <trkpt lat="42.34162" lon="2.36779">
        <ele>1379.5</ele>
        <time>2019-01-07T00:07:37Z</time>
      </trkpt>
      <trkpt lat="42.34165" lon="2.36781">
        <ele>1379.8</ele>
        <time>2019-01-07T00:07:37Z</time>
      </trkpt>
      <trkpt lat="42.34168" lon="2.36782">
        <ele>1380.3</ele>
        <time>2019-01-07T00:07:38Z</time>
      </trkpt>
      <trkpt lat="42.34171" lon="2.36783">
        <ele>1380.6</ele>
        <time>2019-01-07T00:07:39Z</time>
      </trkpt>
      <trkpt lat="42.34174" lon="2.36784">
        <ele>1381</ele>
        <time>2019-01-07T00:07:40Z</time>
      </trkpt>
      <trkpt lat="42.34176" lon="2.36785">
        <ele>1381.3</ele>
        <time>2019-01-07T00:07:40Z</time>
      </trkpt>
      <trkpt lat="42.34178" lon="2.36785">
        <ele>1381.4</ele>
        <time>2019-01-07T00:07:41Z</time>
      </trkpt>
      <trkpt lat="42.34181" lon="2.36786">
        <ele>1381.8</ele>
        <time>2019-01-07T00:07:42Z</time>
      </trkpt>
      <trkpt lat="42.34183" lon="2.36787">
        <ele>1382.2</ele>
        <time>2019-01-07T00:07:42Z</time>
      </trkpt>
      <trkpt lat="42.34186" lon="2.36787">
        <ele>1382.5</ele>
        <time>2019-01-07T00:07:43Z</time>
      </trkpt>
      <trkpt lat="42.34189" lon="2.36787">
        <ele>1382.9</ele>
        <time>2019-01-07T00:07:44Z</time>
      </trkpt>
      <trkpt lat="42.34191" lon="2.36788">
        <ele>1383.2</ele>
        <time>2019-01-07T00:07:45Z</time>
      </trkpt>
      <trkpt lat="42.34194" lon="2.36788">
        <ele>1383.4</ele>
        <time>2019-01-07T00:07:45Z</time>
      </trkpt>
      <trkpt lat="42.34197" lon="2.36789">
        <ele>1383.8</ele>
        <time>2019-01-07T00:07:46Z</time>
      </trkpt>
      <trkpt lat="42.342" lon="2.3679">
        <ele>1384.4</ele>
        <time>2019-01-07T00:07:47Z</time>
      </trkpt>
      <trkpt lat="42.34202" lon="2.36791">
        <ele>1384.8</ele>
        <time>2019-01-07T00:07:48Z</time>
      </trkpt>
      <trkpt lat="42.34204" lon="2.36792">
        <ele>1385.1</ele>
        <time>2019-01-07T00:07:48Z</time>
      </trkpt>
      <trkpt lat="42.34206" lon="2.36794">
        <ele>1385.7</ele>
        <time>2019-01-07T00:07:49Z</time>
      </trkpt>
      <trkpt lat="42.34208" lon="2.36795">
        <ele>1386</ele>
        <time>2019-01-07T00:07:49Z</time>
      </trkpt>
      <trkpt lat="42.3421" lon="2.36797">
        <ele>1386.4</ele>
        <time>2019-01-07T00:07:50Z</time>
      </trkpt>
      <trkpt lat="42.34211" lon="2.36799">
        <ele>1386.8</ele>
        <time>2019-01-07T00:07:50Z</time>
      </trkpt>
      <trkpt lat="42.34213" lon="2.36801">
        <ele>1387.2</ele>
        <time>2019-01-07T00:07:51Z</time>
      </trkpt>
      <trkpt lat="42.34214" lon="2.36803">
        <ele>1387.5</ele>
        <time>2019-01-07T00:07:52Z</time>
      </trkpt>
      <trkpt lat="42.34216" lon="2.36804">
        <ele>1387.9</ele>
        <time>2019-01-07T00:07:52Z</time>
      </trkpt>
      <trkpt lat="42.34218" lon="2.36806">
        <ele>1388.2</ele>
        <time>2019-01-07T00:07:53Z</time>
      </trkpt>
      <trkpt lat="42.3422" lon="2.36807">
        <ele>1388.5</ele>
        <time>2019-01-07T00:07:53Z</time>
      </trkpt>
      <trkpt lat="42.34222" lon="2.36808">
        <ele>1389</ele>
        <time>2019-01-07T00:07:54Z</time>
      </trkpt>
      <trkpt lat="42.34224" lon="2.36809">
        <ele>1389.2</ele>
        <time>2019-01-07T00:07:54Z</time>
      </trkpt>
      <trkpt lat="42.34226" lon="2.3681">
        <ele>1389.3</ele>
        <time>2019-01-07T00:07:55Z</time>
      </trkpt>
      <trkpt lat="42.34228" lon="2.36811">
        <ele>1389.4</ele>
        <time>2019-01-07T00:07:56Z</time>
      </trkpt>
      <trkpt lat="42.3423" lon="2.36812">
        <ele>1389.7</ele>
        <time>2019-01-07T00:07:56Z</time>
      </trkpt>
      <trkpt lat="42.34232" lon="2.36813">
        <ele>1389.8</ele>
        <time>2019-01-07T00:07:57Z</time>
      </trkpt>
      <trkpt lat="42.34235" lon="2.36815">
        <ele>1390</ele>
        <time>2019-01-07T00:07:58Z</time>
      </trkpt>
      <trkpt lat="42.34237" lon="2.36816">
        <ele>1390.1</ele>
        <time>2019-01-07T00:07:58Z</time>
      </trkpt>
      <trkpt lat="42.3424" lon="2.36817">
        <ele>1390.3</ele>
        <time>2019-01-07T00:07:59Z</time>
      </trkpt>
      <trkpt lat="42.34242" lon="2.36818">
        <ele>1390.3</ele>
        <time>2019-01-07T00:08:00Z</time>
      </trkpt>
      <trkpt lat="42.34245" lon="2.3682">
        <ele>1390.4</ele>
        <time>2019-01-07T00:08:00Z</time>
      </trkpt>
      <trkpt lat="42.34247" lon="2.36821">
        <ele>1390.6</ele>
        <time>2019-01-07T00:08:01Z</time>
      </trkpt>
      <trkpt lat="42.34251" lon="2.3682">
        <ele>1390.8</ele>
        <time>2019-01-07T00:08:02Z</time>
      </trkpt>
      <trkpt lat="42.34253" lon="2.36821">
        <ele>1390.6</ele>
        <time>2019-01-07T00:08:03Z</time>
      </trkpt>
      <trkpt lat="42.34257" lon="2.36822">
        <ele>1390.5</ele>
        <time>2019-01-07T00:08:04Z</time>
      </trkpt>
      <trkpt lat="42.3426" lon="2.36823">
        <ele>1390.3</ele>
        <time>2019-01-07T00:08:04Z</time>
      </trkpt>
      <trkpt lat="42.34263" lon="2.36823">
        <ele>1390.1</ele>
        <time>2019-01-07T00:08:05Z</time>
      </trkpt>
      <trkpt lat="42.34266" lon="2.36822">
        <ele>1390.1</ele>
        <time>2019-01-07T00:08:06Z</time>
      </trkpt>
      <trkpt lat="42.34269" lon="2.36821">
        <ele>1389.9</ele>
        <time>2019-01-07T00:08:07Z</time>
      </trkpt>
      <trkpt lat="42.34272" lon="2.36821">
        <ele>1389.8</ele>
        <time>2019-01-07T00:08:08Z</time>
      </trkpt>
      <trkpt lat="42.34275" lon="2.36821">
        <ele>1389.8</ele>
        <time>2019-01-07T00:08:09Z</time>
      </trkpt>
      <trkpt lat="42.34278" lon="2.36821">
        <ele>1389.5</ele>
        <time>2019-01-07T00:08:09Z</time>
      </trkpt>
      <trkpt lat="42.34281" lon="2.36821">
        <ele>1389.9</ele>
        <time>2019-01-07T00:08:10Z</time>
      </trkpt>
      <trkpt lat="42.34284" lon="2.36821">
        <ele>1390.4</ele>
        <time>2019-01-07T00:08:11Z</time>
      </trkpt>
      <trkpt lat="42.34287" lon="2.36821">
        <ele>1390.9</ele>
        <time>2019-01-07T00:08:12Z</time>
      </trkpt>
      <trkpt lat="42.3429" lon="2.36822">
        <ele>1391.3</ele>
        <time>2019-01-07T00:08:13Z</time>
      </trkpt>
      <trkpt lat="42.34292" lon="2.36823">
        <ele>1391.6</ele>
        <time>2019-01-07T00:08:13Z</time>
      </trkpt>
      <trkpt lat="42.34295" lon="2.36823">
        <ele>1392</ele>
        <time>2019-01-07T00:08:14Z</time>
      </trkpt>
      <trkpt lat="42.34297" lon="2.36824">
        <ele>1392.1</ele>
        <time>2019-01-07T00:08:14Z</time>
      </trkpt>
      <trkpt lat="42.34298" lon="2.36825">
        <ele>1392.4</ele>
        <time>2019-01-07T00:08:15Z</time>
      </trkpt>
      <trkpt lat="42.343" lon="2.36827">
        <ele>1392.4</ele>
        <time>2019-01-07T00:08:15Z</time>
      </trkpt>
      <trkpt lat="42.34301" lon="2.36829">
        <ele>1392.7</ele>
        <time>2019-01-07T00:08:16Z</time>
      </trkpt>
      <trkpt lat="42.34303" lon="2.3683">
        <ele>1392.9</ele>
        <time>2019-01-07T00:08:17Z</time>
      </trkpt>
      <trkpt lat="42.34305" lon="2.36831">
        <ele>1393.1</ele>
        <time>2019-01-07T00:08:17Z</time>
      </trkpt>
      <trkpt lat="42.34307" lon="2.36832">
        <ele>1393.3</ele>
        <time>2019-01-07T00:08:18Z</time>
      </trkpt>
      <trkpt lat="42.34309" lon="2.36833">
        <ele>1393.5</ele>
        <time>2019-01-07T00:08:18Z</time>
      </trkpt>
      <trkpt lat="42.34311" lon="2.36835">
        <ele>1394</ele>
        <time>2019-01-07T00:08:19Z</time>
      </trkpt>
      <trkpt lat="42.34314" lon="2.36836">
        <ele>1394.4</ele>
        <time>2019-01-07T00:08:20Z</time>
      </trkpt>
      <trkpt lat="42.34316" lon="2.36837">
        <ele>1394.7</ele>
        <time>2019-01-07T00:08:20Z</time>
      </trkpt>
      <trkpt lat="42.34318" lon="2.36839">
        <ele>1394.9</ele>
        <time>2019-01-07T00:08:21Z</time>
      </trkpt>
      <trkpt lat="42.34321" lon="2.3684">
        <ele>1395.4</ele>
        <time>2019-01-07T00:08:22Z</time>
      </trkpt>
      <trkpt lat="42.34323" lon="2.3684">
        <ele>1395.7</ele>
        <time>2019-01-07T00:08:22Z</time>
      </trkpt>
      <trkpt lat="42.34326" lon="2.36841">
        <ele>1396.1</ele>
        <time>2019-01-07T00:08:23Z</time>
      </trkpt>
      <trkpt lat="42.34328" lon="2.36841">
        <ele>1396.4</ele>
        <time>2019-01-07T00:08:24Z</time>
      </trkpt>
      <trkpt lat="42.3433" lon="2.36841">
        <ele>1396.7</ele>
        <time>2019-01-07T00:08:24Z</time>
      </trkpt>
      <trkpt lat="42.34333" lon="2.36841">
        <ele>1397</ele>
        <time>2019-01-07T00:08:25Z</time>
      </trkpt>
      <trkpt lat="42.34336" lon="2.36841">
        <ele>1397.2</ele>
        <time>2019-01-07T00:08:26Z</time>
      </trkpt>
      <trkpt lat="42.34339" lon="2.36841">
        <ele>1397.5</ele>
        <time>2019-01-07T00:08:26Z</time>
      </trkpt>
      <trkpt lat="42.34341" lon="2.36841">
        <ele>1397.9</ele>
        <time>2019-01-07T00:08:27Z</time>
      </trkpt>
      <trkpt lat="42.34344" lon="2.36841">
        <ele>1398.1</ele>
        <time>2019-01-07T00:08:28Z</time>
      </trkpt>
      <trkpt lat="42.34347" lon="2.36841">
        <ele>1398.2</ele>
        <time>2019-01-07T00:08:29Z</time>
      </trkpt>
      <trkpt lat="42.34349" lon="2.36842">
        <ele>1398.5</ele>
        <time>2019-01-07T00:08:29Z</time>
      </trkpt>
      <trkpt lat="42.34352" lon="2.36843">
        <ele>1399</ele>
        <time>2019-01-07T00:08:30Z</time>
      </trkpt>
      <trkpt lat="42.34354" lon="2.36844">
        <ele>1399.3</ele>
        <time>2019-01-07T00:08:31Z</time>
      </trkpt>
      <trkpt lat="42.34356" lon="2.36845">
        <ele>1399.4</ele>
        <time>2019-01-07T00:08:31Z</time>
      </trkpt>
      <trkpt lat="42.34359" lon="2.36845">
        <ele>1399.6</ele>
        <time>2019-01-07T00:08:32Z</time>
      </trkpt>
      <trkpt lat="42.34361" lon="2.36847">
        <ele>1400.2</ele>
        <time>2019-01-07T00:08:33Z</time>
      </trkpt>
      <trkpt lat="42.34363" lon="2.36847">
        <ele>1400.3</ele>
        <time>2019-01-07T00:08:33Z</time>
      </trkpt>
      <trkpt lat="42.34363" lon="2.36845">
        <ele>1400.1</ele>
        <time>2019-01-07T00:08:34Z</time>
      </trkpt>
      <trkpt lat="42.34365" lon="2.36847">
        <ele>1400.5</ele>
        <time>2019-01-07T00:08:34Z</time>
      </trkpt>
      <trkpt lat="42.34367" lon="2.36849">
        <ele>1401</ele>
        <time>2019-01-07T00:08:35Z</time>
      </trkpt>
      <trkpt lat="42.34368" lon="2.36852">
        <ele>1401.4</ele>
        <time>2019-01-07T00:08:36Z</time>
      </trkpt>
      <trkpt lat="42.34369" lon="2.36854">
        <ele>1401.7</ele>
        <time>2019-01-07T00:08:36Z</time>
      </trkpt>
      <trkpt lat="42.3437" lon="2.36857">
        <ele>1402.2</ele>
        <time>2019-01-07T00:08:37Z</time>
      </trkpt>
      <trkpt lat="42.34371" lon="2.3686">
        <ele>1402.4</ele>
        <time>2019-01-07T00:08:37Z</time>
      </trkpt>
      <trkpt lat="42.34372" lon="2.36862">
        <ele>1402.8</ele>
        <time>2019-01-07T00:08:38Z</time>
      </trkpt>
      <trkpt lat="42.34373" lon="2.36865">
        <ele>1403.5</ele>
        <time>2019-01-07T00:08:39Z</time>
      </trkpt>
      <trkpt lat="42.34375" lon="2.36866">
        <ele>1403.9</ele>
        <time>2019-01-07T00:08:39Z</time>
      </trkpt>
      <trkpt lat="42.34377" lon="2.36865">
        <ele>1404.1</ele>
        <time>2019-01-07T00:08:40Z</time>
      </trkpt>
      <trkpt lat="42.3438" lon="2.36865">
        <ele>1404.4</ele>
        <time>2019-01-07T00:08:40Z</time>
      </trkpt>
      <trkpt lat="42.34381" lon="2.36866">
        <ele>1404.8</ele>
        <time>2019-01-07T00:08:41Z</time>
      </trkpt>
      <trkpt lat="42.34384" lon="2.36868">
        <ele>1405.4</ele>
        <time>2019-01-07T00:08:42Z</time>
      </trkpt>
      <trkpt lat="42.34385" lon="2.3687">
        <ele>1406</ele>
        <time>2019-01-07T00:08:42Z</time>
      </trkpt>
      <trkpt lat="42.34387" lon="2.36871">
        <ele>1406.6</ele>
        <time>2019-01-07T00:08:43Z</time>
      </trkpt>
      <trkpt lat="42.34389" lon="2.36872">
        <ele>1407.1</ele>
        <time>2019-01-07T00:08:43Z</time>
      </trkpt>
      <trkpt lat="42.3439" lon="2.36874">
        <ele>1407.7</ele>
        <time>2019-01-07T00:08:44Z</time>
      </trkpt>
      <trkpt lat="42.34392" lon="2.36875">
        <ele>1408</ele>
        <time>2019-01-07T00:08:44Z</time>
      </trkpt>
      <trkpt lat="42.34394" lon="2.36876">
        <ele>1408.5</ele>
        <time>2019-01-07T00:08:45Z</time>
      </trkpt>
      <trkpt lat="42.34396" lon="2.36877">
        <ele>1408.8</ele>
        <time>2019-01-07T00:08:45Z</time>
      </trkpt>
      <trkpt lat="42.34398" lon="2.36878">
        <ele>1409.2</ele>
        <time>2019-01-07T00:08:46Z</time>
      </trkpt>
      <trkpt lat="42.344" lon="2.36878">
        <ele>1409.7</ele>
        <time>2019-01-07T00:08:46Z</time>
      </trkpt>
      <trkpt lat="42.34402" lon="2.3688">
        <ele>1410.2</ele>
        <time>2019-01-07T00:08:47Z</time>
      </trkpt>
      <trkpt lat="42.34405" lon="2.36881">
        <ele>1410.7</ele>
        <time>2019-01-07T00:08:48Z</time>
      </trkpt>
      <trkpt lat="42.34406" lon="2.36883">
        <ele>1411.1</ele>
        <time>2019-01-07T00:08:48Z</time>
      </trkpt>
      <trkpt lat="42.34408" lon="2.36885">
        <ele>1411.7</ele>
        <time>2019-01-07T00:08:49Z</time>
      </trkpt>
      <trkpt lat="42.3441" lon="2.36886">
        <ele>1412</ele>
        <time>2019-01-07T00:08:50Z</time>
      </trkpt>
      <trkpt lat="42.34412" lon="2.36889">
        <ele>1412.7</ele>
        <time>2019-01-07T00:08:50Z</time>
      </trkpt>
      <trkpt lat="42.34413" lon="2.3689">
        <ele>1412.8</ele>
        <time>2019-01-07T00:08:51Z</time>
      </trkpt>
      <trkpt lat="42.34415" lon="2.36891">
        <ele>1413.2</ele>
        <time>2019-01-07T00:08:51Z</time>
      </trkpt>
      <trkpt lat="42.34418" lon="2.36893">
        <ele>1413.7</ele>
        <time>2019-01-07T00:08:52Z</time>
      </trkpt>
      <trkpt lat="42.3442" lon="2.36894">
        <ele>1414.2</ele>
        <time>2019-01-07T00:08:53Z</time>
      </trkpt>
      <trkpt lat="42.34422" lon="2.36895">
        <ele>1414.6</ele>
        <time>2019-01-07T00:08:53Z</time>
      </trkpt>
      <trkpt lat="42.34424" lon="2.36896">
        <ele>1414.9</ele>
        <time>2019-01-07T00:08:54Z</time>
      </trkpt>
      <trkpt lat="42.34426" lon="2.36896">
        <ele>1415.6</ele>
        <time>2019-01-07T00:08:54Z</time>
      </trkpt>
      <trkpt lat="42.34429" lon="2.36897">
        <ele>1415.8</ele>
        <time>2019-01-07T00:08:55Z</time>
      </trkpt>
      <trkpt lat="42.3443" lon="2.36898">
        <ele>1416.3</ele>
        <time>2019-01-07T00:08:56Z</time>
      </trkpt>
      <trkpt lat="42.34433" lon="2.36899">
        <ele>1416.8</ele>
        <time>2019-01-07T00:08:56Z</time>
      </trkpt>
      <trkpt lat="42.34434" lon="2.369">
        <ele>1417.4</ele>
        <time>2019-01-07T00:08:57Z</time>
      </trkpt>
      <trkpt lat="42.34436" lon="2.369">
        <ele>1417.6</ele>
        <time>2019-01-07T00:08:57Z</time>
      </trkpt>
      <trkpt lat="42.34439" lon="2.36901">
        <ele>1418.3</ele>
        <time>2019-01-07T00:08:58Z</time>
      </trkpt>
      <trkpt lat="42.34441" lon="2.36901">
        <ele>1418.6</ele>
        <time>2019-01-07T00:08:58Z</time>
      </trkpt>
      <trkpt lat="42.34443" lon="2.36902">
        <ele>1419.2</ele>
        <time>2019-01-07T00:08:59Z</time>
      </trkpt>
      <trkpt lat="42.34445" lon="2.36904">
        <ele>1419.8</ele>
        <time>2019-01-07T00:09:00Z</time>
      </trkpt>
      <trkpt lat="42.34446" lon="2.36906">
        <ele>1420.4</ele>
        <time>2019-01-07T00:09:00Z</time>
      </trkpt>
      <trkpt lat="42.34448" lon="2.36906">
        <ele>1420.9</ele>
        <time>2019-01-07T00:09:01Z</time>
      </trkpt>
      <trkpt lat="42.3445" lon="2.36906">
        <ele>1421.4</ele>
        <time>2019-01-07T00:09:01Z</time>
      </trkpt>
      <trkpt lat="42.34452" lon="2.36907">
        <ele>1421.9</ele>
        <time>2019-01-07T00:09:02Z</time>
      </trkpt>
      <trkpt lat="42.34454" lon="2.36907">
        <ele>1422.5</ele>
        <time>2019-01-07T00:09:02Z</time>
      </trkpt>
      <trkpt lat="42.34456" lon="2.36907">
        <ele>1423.3</ele>
        <time>2019-01-07T00:09:03Z</time>
      </trkpt>
      <trkpt lat="42.34459" lon="2.36907">
        <ele>1424</ele>
        <time>2019-01-07T00:09:04Z</time>
      </trkpt>
      <trkpt lat="42.34461" lon="2.36908">
        <ele>1424.8</ele>
        <time>2019-01-07T00:09:04Z</time>
      </trkpt>
      <trkpt lat="42.34463" lon="2.36909">
        <ele>1425.5</ele>
        <time>2019-01-07T00:09:05Z</time>
      </trkpt>
      <trkpt lat="42.34465" lon="2.36909">
        <ele>1425.9</ele>
        <time>2019-01-07T00:09:05Z</time>
      </trkpt>
      <trkpt lat="42.34467" lon="2.36908">
        <ele>1426.3</ele>
        <time>2019-01-07T00:09:06Z</time>
      </trkpt>
      <trkpt lat="42.34469" lon="2.36909">
        <ele>1427.2</ele>
        <time>2019-01-07T00:09:07Z</time>
      </trkpt>
      <trkpt lat="42.34471" lon="2.3691">
        <ele>1427.9</ele>
        <time>2019-01-07T00:09:07Z</time>
      </trkpt>
      <trkpt lat="42.34473" lon="2.36911">
        <ele>1428.5</ele>
        <time>2019-01-07T00:09:08Z</time>
      </trkpt>
      <trkpt lat="42.34476" lon="2.3691">
        <ele>1429</ele>
        <time>2019-01-07T00:09:08Z</time>
      </trkpt>
      <trkpt lat="42.34478" lon="2.36909">
        <ele>1429.6</ele>
        <time>2019-01-07T00:09:09Z</time>
      </trkpt>
      <trkpt lat="42.3448" lon="2.36907">
        <ele>1429.9</ele>
        <time>2019-01-07T00:09:09Z</time>
      </trkpt>
      <trkpt lat="42.34482" lon="2.36907">
        <ele>1430.7</ele>
        <time>2019-01-07T00:09:10Z</time>
      </trkpt>
      <trkpt lat="42.34484" lon="2.36907">
        <ele>1431.1</ele>
        <time>2019-01-07T00:09:11Z</time>
      </trkpt>
      <trkpt lat="42.34486" lon="2.36908">
        <ele>1432</ele>
        <time>2019-01-07T00:09:11Z</time>
      </trkpt>
      <trkpt lat="42.34488" lon="2.36909">
        <ele>1432.8</ele>
        <time>2019-01-07T00:09:12Z</time>
      </trkpt>
      <trkpt lat="42.34491" lon="2.3691">
        <ele>1433.8</ele>
        <time>2019-01-07T00:09:13Z</time>
      </trkpt>
      <trkpt lat="42.34493" lon="2.36911">
        <ele>1434.7</ele>
        <time>2019-01-07T00:09:13Z</time>
      </trkpt>
      <trkpt lat="42.34496" lon="2.36911">
        <ele>1435.6</ele>
        <time>2019-01-07T00:09:14Z</time>
      </trkpt>
      <trkpt lat="42.34498" lon="2.36911">
        <ele>1436.1</ele>
        <time>2019-01-07T00:09:15Z</time>
      </trkpt>
      <trkpt lat="42.345" lon="2.36911">
        <ele>1436.8</ele>
        <time>2019-01-07T00:09:15Z</time>
      </trkpt>
      <trkpt lat="42.34502" lon="2.36911">
        <ele>1437.3</ele>
        <time>2019-01-07T00:09:16Z</time>
      </trkpt>
      <trkpt lat="42.34505" lon="2.36912">
        <ele>1438.1</ele>
        <time>2019-01-07T00:09:16Z</time>
      </trkpt>
      <trkpt lat="42.34507" lon="2.36912">
        <ele>1438.8</ele>
        <time>2019-01-07T00:09:17Z</time>
      </trkpt>
      <trkpt lat="42.34509" lon="2.36912">
        <ele>1439.3</ele>
        <time>2019-01-07T00:09:17Z</time>
      </trkpt>
      <trkpt lat="42.34511" lon="2.36913">
        <ele>1439.9</ele>
        <time>2019-01-07T00:09:18Z</time>
      </trkpt>
      <trkpt lat="42.34513" lon="2.36914">
        <ele>1440.7</ele>
        <time>2019-01-07T00:09:19Z</time>
      </trkpt>
      <trkpt lat="42.34514" lon="2.36916">
        <ele>1441.4</ele>
        <time>2019-01-07T00:09:19Z</time>
      </trkpt>
      <trkpt lat="42.34516" lon="2.36917">
        <ele>1442.3</ele>
        <time>2019-01-07T00:09:20Z</time>
      </trkpt>
      <trkpt lat="42.34518" lon="2.36917">
        <ele>1442.7</ele>
        <time>2019-01-07T00:09:20Z</time>
      </trkpt>
      <trkpt lat="42.3452" lon="2.36918">
        <ele>1443.4</ele>
        <time>2019-01-07T00:09:21Z</time>
      </trkpt>
      <trkpt lat="42.34523" lon="2.36919">
        <ele>1444.2</ele>
        <time>2019-01-07T00:09:21Z</time>
      </trkpt>
      <trkpt lat="42.34524" lon="2.3692">
        <ele>1444.6</ele>
        <time>2019-01-07T00:09:22Z</time>
      </trkpt>
      <trkpt lat="42.34526" lon="2.3692">
        <ele>1445.2</ele>
        <time>2019-01-07T00:09:22Z</time>
      </trkpt>
      <trkpt lat="42.34528" lon="2.36921">
        <ele>1445.6</ele>
        <time>2019-01-07T00:09:23Z</time>
      </trkpt>
      <trkpt lat="42.3453" lon="2.36921">
        <ele>1446.1</ele>
        <time>2019-01-07T00:09:24Z</time>
      </trkpt>
      <trkpt lat="42.34532" lon="2.36921">
        <ele>1446.9</ele>
        <time>2019-01-07T00:09:24Z</time>
      </trkpt>
      <trkpt lat="42.34535" lon="2.3692">
        <ele>1447.4</ele>
        <time>2019-01-07T00:09:25Z</time>
      </trkpt>
      <trkpt lat="42.34537" lon="2.36919">
        <ele>1447.7</ele>
        <time>2019-01-07T00:09:25Z</time>
      </trkpt>
      <trkpt lat="42.34539" lon="2.36919">
        <ele>1448.2</ele>
        <time>2019-01-07T00:09:26Z</time>
      </trkpt>
      <trkpt lat="42.34542" lon="2.36919">
        <ele>1448.8</ele>
        <time>2019-01-07T00:09:27Z</time>
      </trkpt>
      <trkpt lat="42.34544" lon="2.3692">
        <ele>1449.4</ele>
        <time>2019-01-07T00:09:27Z</time>
      </trkpt>
      <trkpt lat="42.34546" lon="2.3692">
        <ele>1450</ele>
        <time>2019-01-07T00:09:28Z</time>
      </trkpt>
      <trkpt lat="42.34548" lon="2.36921">
        <ele>1450.4</ele>
        <time>2019-01-07T00:09:28Z</time>
      </trkpt>
      <trkpt lat="42.3455" lon="2.36921">
        <ele>1451</ele>
        <time>2019-01-07T00:09:29Z</time>
      </trkpt>
      <trkpt lat="42.34552" lon="2.36922">
        <ele>1451.5</ele>
        <time>2019-01-07T00:09:30Z</time>
      </trkpt>
      <trkpt lat="42.34554" lon="2.36923">
        <ele>1451.9</ele>
        <time>2019-01-07T00:09:30Z</time>
      </trkpt>
      <trkpt lat="42.34556" lon="2.36925">
        <ele>1452.3</ele>
        <time>2019-01-07T00:09:31Z</time>
      </trkpt>
      <trkpt lat="42.34558" lon="2.36926">
        <ele>1452.6</ele>
        <time>2019-01-07T00:09:31Z</time>
      </trkpt>
      <trkpt lat="42.3456" lon="2.36928">
        <ele>1452.9</ele>
        <time>2019-01-07T00:09:32Z</time>
      </trkpt>
      <trkpt lat="42.34563" lon="2.36927">
        <ele>1453.2</ele>
        <time>2019-01-07T00:09:33Z</time>
      </trkpt>
      <trkpt lat="42.34565" lon="2.36927">
        <ele>1453.4</ele>
        <time>2019-01-07T00:09:33Z</time>
      </trkpt>
      <trkpt lat="42.34568" lon="2.36929">
        <ele>1453.4</ele>
        <time>2019-01-07T00:09:34Z</time>
      </trkpt>
      <trkpt lat="42.3457" lon="2.36928">
        <ele>1453.6</ele>
        <time>2019-01-07T00:09:35Z</time>
      </trkpt>
      <trkpt lat="42.34572" lon="2.36929">
        <ele>1453.9</ele>
        <time>2019-01-07T00:09:35Z</time>
      </trkpt>
      <trkpt lat="42.34575" lon="2.3693">
        <ele>1454.1</ele>
        <time>2019-01-07T00:09:36Z</time>
      </trkpt>
      <trkpt lat="42.34578" lon="2.36931">
        <ele>1454.2</ele>
        <time>2019-01-07T00:09:37Z</time>
      </trkpt>
      <trkpt lat="42.3458" lon="2.36933">
        <ele>1454.1</ele>
        <time>2019-01-07T00:09:38Z</time>
      </trkpt>
      <trkpt lat="42.34583" lon="2.36934">
        <ele>1454.2</ele>
        <time>2019-01-07T00:09:38Z</time>
      </trkpt>
      <trkpt lat="42.34586" lon="2.36934">
        <ele>1454.2</ele>
        <time>2019-01-07T00:09:39Z</time>
      </trkpt>
      <trkpt lat="42.34589" lon="2.36935">
        <ele>1454.3</ele>
        <time>2019-01-07T00:09:40Z</time>
      </trkpt>
      <trkpt lat="42.34592" lon="2.36935">
        <ele>1454.5</ele>
        <time>2019-01-07T00:09:41Z</time>
      </trkpt>
      <trkpt lat="42.34595" lon="2.36935">
        <ele>1454.5</ele>
        <time>2019-01-07T00:09:42Z</time>
      </trkpt>
      <trkpt lat="42.34598" lon="2.36936">
        <ele>1454.5</ele>
        <time>2019-01-07T00:09:42Z</time>
      </trkpt>
      <trkpt lat="42.34601" lon="2.36936">
        <ele>1454.8</ele>
        <time>2019-01-07T00:09:43Z</time>
      </trkpt>
      <trkpt lat="42.34604" lon="2.36935">
        <ele>1454.8</ele>
        <time>2019-01-07T00:09:44Z</time>
      </trkpt>
      <trkpt lat="42.34607" lon="2.36935">
        <ele>1454.9</ele>
        <time>2019-01-07T00:09:45Z</time>
      </trkpt>
      <trkpt lat="42.3461" lon="2.36935">
        <ele>1455.1</ele>
        <time>2019-01-07T00:09:46Z</time>
      </trkpt>
      <trkpt lat="42.34613" lon="2.36935">
        <ele>1455.3</ele>
        <time>2019-01-07T00:09:46Z</time>
      </trkpt>
      <trkpt lat="42.34615" lon="2.36937">
        <ele>1455.2</ele>
        <time>2019-01-07T00:09:47Z</time>
      </trkpt>
      <trkpt lat="42.34618" lon="2.36938">
        <ele>1455.3</ele>
        <time>2019-01-07T00:09:48Z</time>
      </trkpt>
      <trkpt lat="42.3462" lon="2.3694">
        <ele>1455.5</ele>
        <time>2019-01-07T00:09:49Z</time>
      </trkpt>
      <trkpt lat="42.34623" lon="2.36942">
        <ele>1455.8</ele>
        <time>2019-01-07T00:09:49Z</time>
      </trkpt>
      <trkpt lat="42.34625" lon="2.36944">
        <ele>1456.2</ele>
        <time>2019-01-07T00:09:50Z</time>
      </trkpt>
      <trkpt lat="42.34627" lon="2.36946">
        <ele>1456.4</ele>
        <time>2019-01-07T00:09:51Z</time>
      </trkpt>
      <trkpt lat="42.34628" lon="2.36948">
        <ele>1456.6</ele>
        <time>2019-01-07T00:09:51Z</time>
      </trkpt>
      <trkpt lat="42.34631" lon="2.36949">
        <ele>1457</ele>
        <time>2019-01-07T00:09:52Z</time>
      </trkpt>
      <trkpt lat="42.34632" lon="2.36951">
        <ele>1457.2</ele>
        <time>2019-01-07T00:09:52Z</time>
      </trkpt>
      <trkpt lat="42.34634" lon="2.36953">
        <ele>1457.6</ele>
        <time>2019-01-07T00:09:53Z</time>
      </trkpt>
      <trkpt lat="42.34636" lon="2.36955">
        <ele>1457.9</ele>
        <time>2019-01-07T00:09:54Z</time>
      </trkpt>
      <trkpt lat="42.34637" lon="2.36957">
        <ele>1458.3</ele>
        <time>2019-01-07T00:09:54Z</time>
      </trkpt>
      <trkpt lat="42.34639" lon="2.36959">
        <ele>1458.8</ele>
        <time>2019-01-07T00:09:55Z</time>
      </trkpt>
      <trkpt lat="42.34641" lon="2.36961">
        <ele>1458.5</ele>
        <time>2019-01-07T00:09:55Z</time>
      </trkpt>
      <trkpt lat="42.34643" lon="2.36963">
        <ele>1458.5</ele>
        <time>2019-01-07T00:09:56Z</time>
      </trkpt>
      <trkpt lat="42.34644" lon="2.36966">
        <ele>1458.7</ele>
        <time>2019-01-07T00:09:57Z</time>
      </trkpt>
      <trkpt lat="42.34645" lon="2.36968">
        <ele>1458.9</ele>
        <time>2019-01-07T00:09:57Z</time>
      </trkpt>
      <trkpt lat="42.34646" lon="2.3697">
        <ele>1458.8</ele>
        <time>2019-01-07T00:09:58Z</time>
      </trkpt>
      <trkpt lat="42.34647" lon="2.36972">
        <ele>1459</ele>
        <time>2019-01-07T00:09:58Z</time>
      </trkpt>
      <trkpt lat="42.34648" lon="2.36975">
        <ele>1459.1</ele>
        <time>2019-01-07T00:09:59Z</time>
      </trkpt>
      <trkpt lat="42.34649" lon="2.36977">
        <ele>1459.2</ele>
        <time>2019-01-07T00:09:59Z</time>
      </trkpt>
      <trkpt lat="42.3465" lon="2.36979">
        <ele>1459.1</ele>
        <time>2019-01-07T00:10:00Z</time>
      </trkpt>
      <trkpt lat="42.34652" lon="2.36981">
        <ele>1459</ele>
        <time>2019-01-07T00:10:00Z</time>
      </trkpt>
      <trkpt lat="42.34653" lon="2.36984">
        <ele>1459.4</ele>
        <time>2019-01-07T00:10:01Z</time>
      </trkpt>
      <trkpt lat="42.34654" lon="2.36987">
        <ele>1459.6</ele>
        <time>2019-01-07T00:10:02Z</time>
      </trkpt>
      <trkpt lat="42.34655" lon="2.3699">
        <ele>1459.5</ele>
        <time>2019-01-07T00:10:02Z</time>
      </trkpt>
      <trkpt lat="42.34656" lon="2.36993">
        <ele>1459.7</ele>
        <time>2019-01-07T00:10:03Z</time>
      </trkpt>
      <trkpt lat="42.34657" lon="2.36995">
        <ele>1459.9</ele>
        <time>2019-01-07T00:10:04Z</time>
      </trkpt>
      <trkpt lat="42.34657" lon="2.36998">
        <ele>1460.2</ele>
        <time>2019-01-07T00:10:04Z</time>
      </trkpt>
      <trkpt lat="42.34659" lon="2.37001">
        <ele>1460.4</ele>
        <time>2019-01-07T00:10:05Z</time>
      </trkpt>
      <trkpt lat="42.3466" lon="2.37004">
        <ele>1460.4</ele>
        <time>2019-01-07T00:10:06Z</time>
      </trkpt>
      <trkpt lat="42.34662" lon="2.37008">
        <ele>1460.2</ele>
        <time>2019-01-07T00:10:06Z</time>
      </trkpt>
      <trkpt lat="42.34663" lon="2.37011">
        <ele>1460.4</ele>
        <time>2019-01-07T00:10:07Z</time>
      </trkpt>
      <trkpt lat="42.34664" lon="2.37015">
        <ele>1460.6</ele>
        <time>2019-01-07T00:10:08Z</time>
      </trkpt>
      <trkpt lat="42.34665" lon="2.37018">
        <ele>1460.6</ele>
        <time>2019-01-07T00:10:09Z</time>
      </trkpt>
      <trkpt lat="42.34667" lon="2.37021">
        <ele>1460.6</ele>
        <time>2019-01-07T00:10:09Z</time>
      </trkpt>
      <trkpt lat="42.34669" lon="2.37025">
        <ele>1460.7</ele>
        <time>2019-01-07T00:10:10Z</time>
      </trkpt>
      <trkpt lat="42.3467" lon="2.37029">
        <ele>1460.8</ele>
        <time>2019-01-07T00:10:11Z</time>
      </trkpt>
      <trkpt lat="42.34671" lon="2.37032">
        <ele>1461</ele>
        <time>2019-01-07T00:10:12Z</time>
      </trkpt>
      <trkpt lat="42.34672" lon="2.37035">
        <ele>1461.4</ele>
        <time>2019-01-07T00:10:12Z</time>
      </trkpt>
      <trkpt lat="42.34673" lon="2.37039">
        <ele>1461.7</ele>
        <time>2019-01-07T00:10:13Z</time>
      </trkpt>
      <trkpt lat="42.34675" lon="2.37042">
        <ele>1461.7</ele>
        <time>2019-01-07T00:10:14Z</time>
      </trkpt>
      <trkpt lat="42.34677" lon="2.37044">
        <ele>1461.6</ele>
        <time>2019-01-07T00:10:15Z</time>
      </trkpt>
      <trkpt lat="42.34679" lon="2.37047">
        <ele>1462</ele>
        <time>2019-01-07T00:10:15Z</time>
      </trkpt>
      <trkpt lat="42.3468" lon="2.3705">
        <ele>1462.1</ele>
        <time>2019-01-07T00:10:16Z</time>
      </trkpt>
      <trkpt lat="42.34682" lon="2.37053">
        <ele>1462.2</ele>
        <time>2019-01-07T00:10:17Z</time>
      </trkpt>
      <trkpt lat="42.34685" lon="2.37055">
        <ele>1462.1</ele>
        <time>2019-01-07T00:10:18Z</time>
      </trkpt>
      <trkpt lat="42.34688" lon="2.37057">
        <ele>1462</ele>
        <time>2019-01-07T00:10:19Z</time>
      </trkpt>
      <trkpt lat="42.3469" lon="2.3706">
        <ele>1462</ele>
        <time>2019-01-07T00:10:20Z</time>
      </trkpt>
      <trkpt lat="42.34692" lon="2.37064">
        <ele>1461.8</ele>
        <time>2019-01-07T00:10:20Z</time>
      </trkpt>
      <trkpt lat="42.34694" lon="2.37066">
        <ele>1461.8</ele>
        <time>2019-01-07T00:10:21Z</time>
      </trkpt>
      <trkpt lat="42.34696" lon="2.37069">
        <ele>1461.9</ele>
        <time>2019-01-07T00:10:22Z</time>
      </trkpt>
      <trkpt lat="42.34698" lon="2.37072">
        <ele>1462.1</ele>
        <time>2019-01-07T00:10:23Z</time>
      </trkpt>
      <trkpt lat="42.347" lon="2.37076">
        <ele>1462.1</ele>
        <time>2019-01-07T00:10:24Z</time>
      </trkpt>
      <trkpt lat="42.34702" lon="2.37079">
        <ele>1462.3</ele>
        <time>2019-01-07T00:10:24Z</time>
      </trkpt>
      <trkpt lat="42.34703" lon="2.37083">
        <ele>1462.4</ele>
        <time>2019-01-07T00:10:25Z</time>
      </trkpt>
      <trkpt lat="42.34705" lon="2.37086">
        <ele>1462.4</ele>
        <time>2019-01-07T00:10:26Z</time>
      </trkpt>
      <trkpt lat="42.34707" lon="2.37088">
        <ele>1462.5</ele>
        <time>2019-01-07T00:10:27Z</time>
      </trkpt>
      <trkpt lat="42.34709" lon="2.37091">
        <ele>1462.5</ele>
        <time>2019-01-07T00:10:27Z</time>
      </trkpt>
      <trkpt lat="42.34711" lon="2.37093">
        <ele>1462.5</ele>
        <time>2019-01-07T00:10:28Z</time>
      </trkpt>
      <trkpt lat="42.34714" lon="2.37096">
        <ele>1462.4</ele>
        <time>2019-01-07T00:10:29Z</time>
      </trkpt>
      <trkpt lat="42.34716" lon="2.37098">
        <ele>1462.4</ele>
        <time>2019-01-07T00:10:30Z</time>
      </trkpt>
      <trkpt lat="42.34719" lon="2.371">
        <ele>1462.4</ele>
        <time>2019-01-07T00:10:31Z</time>
      </trkpt>
      <trkpt lat="42.34722" lon="2.37102">
        <ele>1462.4</ele>
        <time>2019-01-07T00:10:32Z</time>
      </trkpt>
      <trkpt lat="42.34724" lon="2.37104">
        <ele>1462.6</ele>
        <time>2019-01-07T00:10:32Z</time>
      </trkpt>
      <trkpt lat="42.34726" lon="2.37106">
        <ele>1462.8</ele>
        <time>2019-01-07T00:10:33Z</time>
      </trkpt>
      <trkpt lat="42.34729" lon="2.37107">
        <ele>1463.1</ele>
        <time>2019-01-07T00:10:34Z</time>
      </trkpt>
      <trkpt lat="42.34731" lon="2.37109">
        <ele>1463.3</ele>
        <time>2019-01-07T00:10:35Z</time>
      </trkpt>
      <trkpt lat="42.34734" lon="2.37111">
        <ele>1463.6</ele>
        <time>2019-01-07T00:10:35Z</time>
      </trkpt>
      <trkpt lat="42.34736" lon="2.37113">
        <ele>1463.8</ele>
        <time>2019-01-07T00:10:36Z</time>
      </trkpt>
      <trkpt lat="42.34737" lon="2.37116">
        <ele>1464</ele>
        <time>2019-01-07T00:10:37Z</time>
      </trkpt>
      <trkpt lat="42.34739" lon="2.37118">
        <ele>1464.2</ele>
        <time>2019-01-07T00:10:37Z</time>
      </trkpt>
      <trkpt lat="42.34742" lon="2.37119">
        <ele>1464.5</ele>
        <time>2019-01-07T00:10:38Z</time>
      </trkpt>
      <trkpt lat="42.34743" lon="2.37122">
        <ele>1464.7</ele>
        <time>2019-01-07T00:10:39Z</time>
      </trkpt>
      <trkpt lat="42.34744" lon="2.37125">
        <ele>1465.1</ele>
        <time>2019-01-07T00:10:39Z</time>
      </trkpt>
      <trkpt lat="42.34745" lon="2.37129">
        <ele>1465.6</ele>
        <time>2019-01-07T00:10:40Z</time>
      </trkpt>
      <trkpt lat="42.34746" lon="2.37132">
        <ele>1466.1</ele>
        <time>2019-01-07T00:10:41Z</time>
      </trkpt>
      <trkpt lat="42.34749" lon="2.37134">
        <ele>1466.4</ele>
        <time>2019-01-07T00:10:41Z</time>
      </trkpt>
      <trkpt lat="42.34751" lon="2.37136">
        <ele>1466.9</ele>
        <time>2019-01-07T00:10:42Z</time>
      </trkpt>
      <trkpt lat="42.34753" lon="2.37137">
        <ele>1467.3</ele>
        <time>2019-01-07T00:10:43Z</time>
      </trkpt>
      <trkpt lat="42.34754" lon="2.37138">
        <ele>1467.8</ele>
        <time>2019-01-07T00:10:43Z</time>
      </trkpt>
      <trkpt lat="42.34757" lon="2.37139">
        <ele>1468.4</ele>
        <time>2019-01-07T00:10:44Z</time>
      </trkpt>
      <trkpt lat="42.34759" lon="2.3714">
        <ele>1468.7</ele>
        <time>2019-01-07T00:10:44Z</time>
      </trkpt>
      <trkpt lat="42.34761" lon="2.3714">
        <ele>1469.2</ele>
        <time>2019-01-07T00:10:45Z</time>
      </trkpt>
      <trkpt lat="42.34763" lon="2.37142">
        <ele>1469.6</ele>
        <time>2019-01-07T00:10:46Z</time>
      </trkpt>
      <trkpt lat="42.34765" lon="2.37143">
        <ele>1470.1</ele>
        <time>2019-01-07T00:10:46Z</time>
      </trkpt>
      <trkpt lat="42.34767" lon="2.37144">
        <ele>1470.6</ele>
        <time>2019-01-07T00:10:47Z</time>
      </trkpt>
      <trkpt lat="42.34769" lon="2.37145">
        <ele>1471.2</ele>
        <time>2019-01-07T00:10:47Z</time>
      </trkpt>
      <trkpt lat="42.34771" lon="2.37147">
        <ele>1471.8</ele>
        <time>2019-01-07T00:10:48Z</time>
      </trkpt>
      <trkpt lat="42.34772" lon="2.37149">
        <ele>1472.3</ele>
        <time>2019-01-07T00:10:49Z</time>
      </trkpt>
      <trkpt lat="42.34774" lon="2.3715">
        <ele>1472.9</ele>
        <time>2019-01-07T00:10:49Z</time>
      </trkpt>
      <trkpt lat="42.34776" lon="2.37151">
        <ele>1473.4</ele>
        <time>2019-01-07T00:10:50Z</time>
      </trkpt>
      <trkpt lat="42.34778" lon="2.37152">
        <ele>1474.1</ele>
        <time>2019-01-07T00:10:50Z</time>
      </trkpt>
      <trkpt lat="42.34781" lon="2.37152">
        <ele>1474.6</ele>
        <time>2019-01-07T00:10:51Z</time>
      </trkpt>
      <trkpt lat="42.34783" lon="2.37152">
        <ele>1475.1</ele>
        <time>2019-01-07T00:10:52Z</time>
      </trkpt>
      <trkpt lat="42.34785" lon="2.37152">
        <ele>1475.5</ele>
        <time>2019-01-07T00:10:52Z</time>
      </trkpt>
      <trkpt lat="42.34788" lon="2.37152">
        <ele>1476.1</ele>
        <time>2019-01-07T00:10:53Z</time>
      </trkpt>
      <trkpt lat="42.3479" lon="2.37152">
        <ele>1476.3</ele>
        <time>2019-01-07T00:10:53Z</time>
      </trkpt>
      <trkpt lat="42.34792" lon="2.37151">
        <ele>1476.6</ele>
        <time>2019-01-07T00:10:54Z</time>
      </trkpt>
      <trkpt lat="42.34795" lon="2.37151">
        <ele>1477.2</ele>
        <time>2019-01-07T00:10:55Z</time>
      </trkpt>
      <trkpt lat="42.34797" lon="2.37151">
        <ele>1477.7</ele>
        <time>2019-01-07T00:10:55Z</time>
      </trkpt>
      <trkpt lat="42.34799" lon="2.37152">
        <ele>1478.3</ele>
        <time>2019-01-07T00:10:56Z</time>
      </trkpt>
      <trkpt lat="42.34801" lon="2.37152">
        <ele>1478.7</ele>
        <time>2019-01-07T00:10:57Z</time>
      </trkpt>
      <trkpt lat="42.34803" lon="2.37151">
        <ele>1479</ele>
        <time>2019-01-07T00:10:57Z</time>
      </trkpt>
      <trkpt lat="42.34805" lon="2.37151">
        <ele>1479.4</ele>
        <time>2019-01-07T00:10:58Z</time>
      </trkpt>
      <trkpt lat="42.34807" lon="2.37152">
        <ele>1479.8</ele>
        <time>2019-01-07T00:10:58Z</time>
      </trkpt>
      <trkpt lat="42.34809" lon="2.37153">
        <ele>1480.2</ele>
        <time>2019-01-07T00:10:59Z</time>
      </trkpt>
      <trkpt lat="42.34811" lon="2.37153">
        <ele>1480.7</ele>
        <time>2019-01-07T00:10:59Z</time>
      </trkpt>
      <trkpt lat="42.34814" lon="2.37153">
        <ele>1481.1</ele>
        <time>2019-01-07T00:11:00Z</time>
      </trkpt>
      <trkpt lat="42.34815" lon="2.37153">
        <ele>1481.3</ele>
        <time>2019-01-07T00:11:00Z</time>
      </trkpt>
      <trkpt lat="42.34818" lon="2.37152">
        <ele>1481.7</ele>
        <time>2019-01-07T00:11:01Z</time>
      </trkpt>
      <trkpt lat="42.3482" lon="2.37152">
        <ele>1482.1</ele>
        <time>2019-01-07T00:11:02Z</time>
      </trkpt>
      <trkpt lat="42.34823" lon="2.37153">
        <ele>1482.8</ele>
        <time>2019-01-07T00:11:02Z</time>
      </trkpt>
      <trkpt lat="42.34825" lon="2.37153">
        <ele>1483.2</ele>
        <time>2019-01-07T00:11:03Z</time>
      </trkpt>
      <trkpt lat="42.34828" lon="2.37153">
        <ele>1483.7</ele>
        <time>2019-01-07T00:11:04Z</time>
      </trkpt>
      <trkpt lat="42.3483" lon="2.37153">
        <ele>1484</ele>
        <time>2019-01-07T00:11:04Z</time>
      </trkpt>
      <trkpt lat="42.34832" lon="2.37153">
        <ele>1484.4</ele>
        <time>2019-01-07T00:11:05Z</time>
      </trkpt>
      <trkpt lat="42.34834" lon="2.37153">
        <ele>1484.8</ele>
        <time>2019-01-07T00:11:05Z</time>
      </trkpt>
      <trkpt lat="42.34836" lon="2.37153">
        <ele>1485.1</ele>
        <time>2019-01-07T00:11:06Z</time>
      </trkpt>
      <trkpt lat="42.34838" lon="2.37154">
        <ele>1485.7</ele>
        <time>2019-01-07T00:11:06Z</time>
      </trkpt>
      <trkpt lat="42.34841" lon="2.37154">
        <ele>1486.1</ele>
        <time>2019-01-07T00:11:07Z</time>
      </trkpt>
      <trkpt lat="42.34843" lon="2.37154">
        <ele>1486.5</ele>
        <time>2019-01-07T00:11:08Z</time>
      </trkpt>
      <trkpt lat="42.34845" lon="2.37155">
        <ele>1486.9</ele>
        <time>2019-01-07T00:11:08Z</time>
      </trkpt>
      <trkpt lat="42.34847" lon="2.37155">
        <ele>1487.4</ele>
        <time>2019-01-07T00:11:09Z</time>
      </trkpt>
      <trkpt lat="42.34849" lon="2.37154">
        <ele>1487.7</ele>
        <time>2019-01-07T00:11:09Z</time>
      </trkpt>
      <trkpt lat="42.34852" lon="2.37153">
        <ele>1488.3</ele>
        <time>2019-01-07T00:11:10Z</time>
      </trkpt>
      <trkpt lat="42.34854" lon="2.37153">
        <ele>1488.7</ele>
        <time>2019-01-07T00:11:11Z</time>
      </trkpt>
      <trkpt lat="42.34856" lon="2.37152">
        <ele>1489</ele>
        <time>2019-01-07T00:11:11Z</time>
      </trkpt>
      <trkpt lat="42.34858" lon="2.37152">
        <ele>1489.5</ele>
        <time>2019-01-07T00:11:12Z</time>
      </trkpt>
      <trkpt lat="42.34859" lon="2.37151">
        <ele>1489.6</ele>
        <time>2019-01-07T00:11:12Z</time>
      </trkpt>
      <trkpt lat="42.34861" lon="2.3715">
        <ele>1490.1</ele>
        <time>2019-01-07T00:11:13Z</time>
      </trkpt>
      <trkpt lat="42.34863" lon="2.37149">
        <ele>1490.3</ele>
        <time>2019-01-07T00:11:13Z</time>
      </trkpt>
      <trkpt lat="42.34865" lon="2.37148">
        <ele>1490.7</ele>
        <time>2019-01-07T00:11:14Z</time>
      </trkpt>
      <trkpt lat="42.34868" lon="2.37147">
        <ele>1491</ele>
        <time>2019-01-07T00:11:15Z</time>
      </trkpt>
      <trkpt lat="42.34869" lon="2.37146">
        <ele>1491.3</ele>
        <time>2019-01-07T00:11:15Z</time>
      </trkpt>
      <trkpt lat="42.34871" lon="2.37145">
        <ele>1491.8</ele>
        <time>2019-01-07T00:11:16Z</time>
      </trkpt>
      <trkpt lat="42.34873" lon="2.37144">
        <ele>1492.2</ele>
        <time>2019-01-07T00:11:16Z</time>
      </trkpt>
      <trkpt lat="42.34875" lon="2.37144">
        <ele>1492.3</ele>
        <time>2019-01-07T00:11:17Z</time>
      </trkpt>
      <trkpt lat="42.34877" lon="2.37144">
        <ele>1492.8</ele>
        <time>2019-01-07T00:11:17Z</time>
      </trkpt>
      <trkpt lat="42.34879" lon="2.37143">
        <ele>1492.9</ele>
        <time>2019-01-07T00:11:18Z</time>
      </trkpt>
      <trkpt lat="42.3488" lon="2.37142">
        <ele>1493.5</ele>
        <time>2019-01-07T00:11:18Z</time>
      </trkpt>
      <trkpt lat="42.34882" lon="2.37142">
        <ele>1493.9</ele>
        <time>2019-01-07T00:11:19Z</time>
      </trkpt>
      <trkpt lat="42.34885" lon="2.37142">
        <ele>1494.2</ele>
        <time>2019-01-07T00:11:19Z</time>
      </trkpt>
      <trkpt lat="42.34887" lon="2.37142">
        <ele>1494.5</ele>
        <time>2019-01-07T00:11:20Z</time>
      </trkpt>
      <trkpt lat="42.34889" lon="2.37141">
        <ele>1494.9</ele>
        <time>2019-01-07T00:11:20Z</time>
      </trkpt>
      <trkpt lat="42.34891" lon="2.3714">
        <ele>1495.1</ele>
        <time>2019-01-07T00:11:21Z</time>
      </trkpt>
      <trkpt lat="42.34892" lon="2.37139">
        <ele>1495.4</ele>
        <time>2019-01-07T00:11:21Z</time>
      </trkpt>
      <trkpt lat="42.34894" lon="2.37138">
        <ele>1495.7</ele>
        <time>2019-01-07T00:11:22Z</time>
      </trkpt>
      <trkpt lat="42.34896" lon="2.37137">
        <ele>1496</ele>
        <time>2019-01-07T00:11:23Z</time>
      </trkpt>
      <trkpt lat="42.34898" lon="2.37136">
        <ele>1496.1</ele>
        <time>2019-01-07T00:11:23Z</time>
      </trkpt>
      <trkpt lat="42.349" lon="2.37135">
        <ele>1496.4</ele>
        <time>2019-01-07T00:11:24Z</time>
      </trkpt>
      <trkpt lat="42.34902" lon="2.37134">
        <ele>1496.5</ele>
        <time>2019-01-07T00:11:24Z</time>
      </trkpt>
      <trkpt lat="42.34904" lon="2.37133">
        <ele>1496.9</ele>
        <time>2019-01-07T00:11:25Z</time>
      </trkpt>
      <trkpt lat="42.34906" lon="2.37132">
        <ele>1497.2</ele>
        <time>2019-01-07T00:11:25Z</time>
      </trkpt>
      <trkpt lat="42.34908" lon="2.37131">
        <ele>1497.4</ele>
        <time>2019-01-07T00:11:26Z</time>
      </trkpt>
      <trkpt lat="42.3491" lon="2.3713">
        <ele>1497.6</ele>
        <time>2019-01-07T00:11:27Z</time>
      </trkpt>
      <trkpt lat="42.34912" lon="2.3713">
        <ele>1497.9</ele>
        <time>2019-01-07T00:11:27Z</time>
      </trkpt>
      <trkpt lat="42.34914" lon="2.37129">
        <ele>1498.1</ele>
        <time>2019-01-07T00:11:28Z</time>
      </trkpt>
      <trkpt lat="42.34917" lon="2.37128">
        <ele>1498.4</ele>
        <time>2019-01-07T00:11:28Z</time>
      </trkpt>
      <trkpt lat="42.34919" lon="2.37127">
        <ele>1498.4</ele>
        <time>2019-01-07T00:11:29Z</time>
      </trkpt>
      <trkpt lat="42.34921" lon="2.37126">
        <ele>1498.2</ele>
        <time>2019-01-07T00:11:30Z</time>
      </trkpt>
      <trkpt lat="42.34923" lon="2.37125">
        <ele>1498.3</ele>
        <time>2019-01-07T00:11:30Z</time>
      </trkpt>
      <trkpt lat="42.34925" lon="2.37123">
        <ele>1498.4</ele>
        <time>2019-01-07T00:11:31Z</time>
      </trkpt>
      <trkpt lat="42.34926" lon="2.37121">
        <ele>1498.5</ele>
        <time>2019-01-07T00:11:31Z</time>
      </trkpt>
      <trkpt lat="42.34928" lon="2.37121">
        <ele>1498.3</ele>
        <time>2019-01-07T00:11:32Z</time>
      </trkpt>
      <trkpt lat="42.3493" lon="2.37123">
        <ele>1498.2</ele>
        <time>2019-01-07T00:11:32Z</time>
      </trkpt>
      <trkpt lat="42.34932" lon="2.37125">
        <ele>1497.8</ele>
        <time>2019-01-07T00:11:33Z</time>
      </trkpt>
      <trkpt lat="42.34933" lon="2.37126">
        <ele>1497.6</ele>
        <time>2019-01-07T00:11:33Z</time>
      </trkpt>
      <trkpt lat="42.34935" lon="2.37127">
        <ele>1497.5</ele>
        <time>2019-01-07T00:11:34Z</time>
      </trkpt>
      <trkpt lat="42.34938" lon="2.37128">
        <ele>1497.1</ele>
        <time>2019-01-07T00:11:35Z</time>
      </trkpt>
      <trkpt lat="42.34939" lon="2.3713">
        <ele>1496.7</ele>
        <time>2019-01-07T00:11:35Z</time>
      </trkpt>
      <trkpt lat="42.34941" lon="2.37131">
        <ele>1496.5</ele>
        <time>2019-01-07T00:11:36Z</time>
      </trkpt>
      <trkpt lat="42.34944" lon="2.37133">
        <ele>1496</ele>
        <time>2019-01-07T00:11:37Z</time>
      </trkpt>
      <trkpt lat="42.34946" lon="2.37134">
        <ele>1495.6</ele>
        <time>2019-01-07T00:11:37Z</time>
      </trkpt>
      <trkpt lat="42.34949" lon="2.37135">
        <ele>1495.2</ele>
        <time>2019-01-07T00:11:38Z</time>
      </trkpt>
      <trkpt lat="42.34952" lon="2.37136">
        <ele>1495.2</ele>
        <time>2019-01-07T00:11:39Z</time>
      </trkpt>
      <trkpt lat="42.34954" lon="2.37138">
        <ele>1494.7</ele>
        <time>2019-01-07T00:11:40Z</time>
      </trkpt>
      <trkpt lat="42.34956" lon="2.3714">
        <ele>1494.7</ele>
        <time>2019-01-07T00:11:40Z</time>
      </trkpt>
      <trkpt lat="42.34958" lon="2.37142">
        <ele>1494.6</ele>
        <time>2019-01-07T00:11:41Z</time>
      </trkpt>
      <trkpt lat="42.3496" lon="2.37145">
        <ele>1494.5</ele>
        <time>2019-01-07T00:11:42Z</time>
      </trkpt>
      <trkpt lat="42.34962" lon="2.37146">
        <ele>1494.4</ele>
        <time>2019-01-07T00:11:42Z</time>
      </trkpt>
      <trkpt lat="42.34965" lon="2.37148">
        <ele>1494.3</ele>
        <time>2019-01-07T00:11:43Z</time>
      </trkpt>
      <trkpt lat="42.34968" lon="2.37149">
        <ele>1494.3</ele>
        <time>2019-01-07T00:11:44Z</time>
      </trkpt>
      <trkpt lat="42.3497" lon="2.3715">
        <ele>1494.5</ele>
        <time>2019-01-07T00:11:45Z</time>
      </trkpt>
      <trkpt lat="42.34973" lon="2.37151">
        <ele>1494.7</ele>
        <time>2019-01-07T00:11:45Z</time>
      </trkpt>
      <trkpt lat="42.34975" lon="2.37151">
        <ele>1494.8</ele>
        <time>2019-01-07T00:11:46Z</time>
      </trkpt>
      <trkpt lat="42.34978" lon="2.37152">
        <ele>1495</ele>
        <time>2019-01-07T00:11:47Z</time>
      </trkpt>
      <trkpt lat="42.34981" lon="2.37153">
        <ele>1495.2</ele>
        <time>2019-01-07T00:11:48Z</time>
      </trkpt>
      <trkpt lat="42.34984" lon="2.37153">
        <ele>1495.4</ele>
        <time>2019-01-07T00:11:48Z</time>
      </trkpt>
      <trkpt lat="42.34987" lon="2.37154">
        <ele>1495.5</ele>
        <time>2019-01-07T00:11:49Z</time>
      </trkpt>
      <trkpt lat="42.3499" lon="2.37154">
        <ele>1495.7</ele>
        <time>2019-01-07T00:11:50Z</time>
      </trkpt>
      <trkpt lat="42.34993" lon="2.37154">
        <ele>1496</ele>
        <time>2019-01-07T00:11:51Z</time>
      </trkpt>
      <trkpt lat="42.34996" lon="2.37154">
        <ele>1496.1</ele>
        <time>2019-01-07T00:11:52Z</time>
      </trkpt>
      <trkpt lat="42.34999" lon="2.37155">
        <ele>1496.3</ele>
        <time>2019-01-07T00:11:52Z</time>
      </trkpt>
      <trkpt lat="42.35002" lon="2.37156">
        <ele>1496.3</ele>
        <time>2019-01-07T00:11:53Z</time>
      </trkpt>
      <trkpt lat="42.35005" lon="2.37157">
        <ele>1496.4</ele>
        <time>2019-01-07T00:11:54Z</time>
      </trkpt>
      <trkpt lat="42.35008" lon="2.37157">
        <ele>1496.3</ele>
        <time>2019-01-07T00:11:55Z</time>
      </trkpt>
      <trkpt lat="42.35011" lon="2.37157">
        <ele>1496.2</ele>
        <time>2019-01-07T00:11:56Z</time>
      </trkpt>
      <trkpt lat="42.35014" lon="2.37158">
        <ele>1496.2</ele>
        <time>2019-01-07T00:11:56Z</time>
      </trkpt>
      <trkpt lat="42.35017" lon="2.37159">
        <ele>1496.3</ele>
        <time>2019-01-07T00:11:57Z</time>
      </trkpt>
      <trkpt lat="42.35019" lon="2.3716">
        <ele>1496.2</ele>
        <time>2019-01-07T00:11:58Z</time>
      </trkpt>
      <trkpt lat="42.35021" lon="2.37162">
        <ele>1496.5</ele>
        <time>2019-01-07T00:11:58Z</time>
      </trkpt>
      <trkpt lat="42.35024" lon="2.37162">
        <ele>1496.4</ele>
        <time>2019-01-07T00:11:59Z</time>
      </trkpt>
      <trkpt lat="42.35026" lon="2.37164">
        <ele>1496.6</ele>
        <time>2019-01-07T00:12:00Z</time>
      </trkpt>
      <trkpt lat="42.35027" lon="2.37166">
        <ele>1497</ele>
        <time>2019-01-07T00:12:00Z</time>
      </trkpt>
      <trkpt lat="42.3503" lon="2.37168">
        <ele>1496.9</ele>
        <time>2019-01-07T00:12:01Z</time>
      </trkpt>
      <trkpt lat="42.35032" lon="2.3717">
        <ele>1496.8</ele>
        <time>2019-01-07T00:12:02Z</time>
      </trkpt>
      <trkpt lat="42.35035" lon="2.37172">
        <ele>1496.9</ele>
        <time>2019-01-07T00:12:03Z</time>
      </trkpt>
      <trkpt lat="42.35037" lon="2.37174">
        <ele>1496.6</ele>
        <time>2019-01-07T00:12:03Z</time>
      </trkpt>
      <trkpt lat="42.3504" lon="2.37175">
        <ele>1496.6</ele>
        <time>2019-01-07T00:12:04Z</time>
      </trkpt>
      <trkpt lat="42.35042" lon="2.37177">
        <ele>1496.4</ele>
        <time>2019-01-07T00:12:05Z</time>
      </trkpt>
      <trkpt lat="42.35045" lon="2.37178">
        <ele>1496.3</ele>
        <time>2019-01-07T00:12:06Z</time>
      </trkpt>
      <trkpt lat="42.35047" lon="2.3718">
        <ele>1496.3</ele>
        <time>2019-01-07T00:12:06Z</time>
      </trkpt>
      <trkpt lat="42.35049" lon="2.37181">
        <ele>1496.2</ele>
        <time>2019-01-07T00:12:07Z</time>
      </trkpt>
      <trkpt lat="42.35051" lon="2.37182">
        <ele>1496.1</ele>
        <time>2019-01-07T00:12:07Z</time>
      </trkpt>
      <trkpt lat="42.35052" lon="2.37182">
        <ele>1496</ele>
        <time>2019-01-07T00:12:08Z</time>
      </trkpt>
      <trkpt lat="42.35055" lon="2.37185">
        <ele>1496.1</ele>
        <time>2019-01-07T00:12:09Z</time>
      </trkpt>
      <trkpt lat="42.35057" lon="2.37187">
        <ele>1496</ele>
        <time>2019-01-07T00:12:09Z</time>
      </trkpt>
      <trkpt lat="42.35059" lon="2.3719">
        <ele>1495.9</ele>
        <time>2019-01-07T00:12:10Z</time>
      </trkpt>
      <trkpt lat="42.35062" lon="2.37193">
        <ele>1496</ele>
        <time>2019-01-07T00:12:11Z</time>
      </trkpt>
      <trkpt lat="42.35065" lon="2.37194">
        <ele>1495.8</ele>
        <time>2019-01-07T00:12:12Z</time>
      </trkpt>
      <trkpt lat="42.35068" lon="2.37196">
        <ele>1495.4</ele>
        <time>2019-01-07T00:12:13Z</time>
      </trkpt>
      <trkpt lat="42.3507" lon="2.37197">
        <ele>1495.1</ele>
        <time>2019-01-07T00:12:13Z</time>
      </trkpt>
      <trkpt lat="42.35072" lon="2.37197">
        <ele>1494.8</ele>
        <time>2019-01-07T00:12:14Z</time>
      </trkpt>
      <trkpt lat="42.35074" lon="2.37198">
        <ele>1494.6</ele>
        <time>2019-01-07T00:12:14Z</time>
      </trkpt>
      <trkpt lat="42.35076" lon="2.37198">
        <ele>1494.4</ele>
        <time>2019-01-07T00:12:15Z</time>
      </trkpt>
      <trkpt lat="42.35077" lon="2.37199">
        <ele>1494.2</ele>
        <time>2019-01-07T00:12:15Z</time>
      </trkpt>
      <trkpt lat="42.35081" lon="2.37201">
        <ele>1493.6</ele>
        <time>2019-01-07T00:12:16Z</time>
      </trkpt>
      <trkpt lat="42.35082" lon="2.37201">
        <ele>1493.6</ele>
        <time>2019-01-07T00:12:17Z</time>
      </trkpt>
      <trkpt lat="42.35085" lon="2.37203">
        <ele>1493.3</ele>
        <time>2019-01-07T00:12:18Z</time>
      </trkpt>
      <trkpt lat="42.35089" lon="2.37205">
        <ele>1493.2</ele>
        <time>2019-01-07T00:12:19Z</time>
      </trkpt>
      <trkpt lat="42.35091" lon="2.37205">
        <ele>1493.2</ele>
        <time>2019-01-07T00:12:19Z</time>
      </trkpt>
      <trkpt lat="42.35093" lon="2.37206">
        <ele>1493</ele>
        <time>2019-01-07T00:12:20Z</time>
      </trkpt>
      <trkpt lat="42.35097" lon="2.37206">
        <ele>1493</ele>
        <time>2019-01-07T00:12:21Z</time>
      </trkpt>
      <trkpt lat="42.351" lon="2.37206">
        <ele>1492.9</ele>
        <time>2019-01-07T00:12:22Z</time>
      </trkpt>
      <trkpt lat="42.35103" lon="2.37205">
        <ele>1492.6</ele>
        <time>2019-01-07T00:12:22Z</time>
      </trkpt>
      <trkpt lat="42.35106" lon="2.37204">
        <ele>1492.5</ele>
        <time>2019-01-07T00:12:23Z</time>
      </trkpt>
      <trkpt lat="42.35108" lon="2.37204">
        <ele>1492.5</ele>
        <time>2019-01-07T00:12:24Z</time>
      </trkpt>
      <trkpt lat="42.35111" lon="2.37204">
        <ele>1492.5</ele>
        <time>2019-01-07T00:12:25Z</time>
      </trkpt>
      <trkpt lat="42.35113" lon="2.37203">
        <ele>1492.6</ele>
        <time>2019-01-07T00:12:25Z</time>
      </trkpt>
      <trkpt lat="42.35115" lon="2.37202">
        <ele>1492.9</ele>
        <time>2019-01-07T00:12:26Z</time>
      </trkpt>
      <trkpt lat="42.35116" lon="2.37201">
        <ele>1493.1</ele>
        <time>2019-01-07T00:12:26Z</time>
      </trkpt>
      <trkpt lat="42.35118" lon="2.37199">
        <ele>1493.4</ele>
        <time>2019-01-07T00:12:27Z</time>
      </trkpt>
      <trkpt lat="42.35121" lon="2.37197">
        <ele>1493.9</ele>
        <time>2019-01-07T00:12:28Z</time>
      </trkpt>
      <trkpt lat="42.35123" lon="2.37197">
        <ele>1494.1</ele>
        <time>2019-01-07T00:12:28Z</time>
      </trkpt>
      <trkpt lat="42.35125" lon="2.37195">
        <ele>1494.5</ele>
        <time>2019-01-07T00:12:29Z</time>
      </trkpt>
      <trkpt lat="42.35126" lon="2.37193">
        <ele>1494.6</ele>
        <time>2019-01-07T00:12:29Z</time>
      </trkpt>
      <trkpt lat="42.35127" lon="2.37191">
        <ele>1494.7</ele>
        <time>2019-01-07T00:12:30Z</time>
      </trkpt>
      <trkpt lat="42.35129" lon="2.37189">
        <ele>1494.6</ele>
        <time>2019-01-07T00:12:30Z</time>
      </trkpt>
      <trkpt lat="42.35131" lon="2.37187">
        <ele>1494.8</ele>
        <time>2019-01-07T00:12:31Z</time>
      </trkpt>
      <trkpt lat="42.35134" lon="2.37185">
        <ele>1494.8</ele>
        <time>2019-01-07T00:12:32Z</time>
      </trkpt>
      <trkpt lat="42.35136" lon="2.37184">
        <ele>1495.1</ele>
        <time>2019-01-07T00:12:33Z</time>
      </trkpt>
      <trkpt lat="42.35139" lon="2.37182">
        <ele>1495.1</ele>
        <time>2019-01-07T00:12:33Z</time>
      </trkpt>
      <trkpt lat="42.35142" lon="2.37181">
        <ele>1495.5</ele>
        <time>2019-01-07T00:12:34Z</time>
      </trkpt>
      <trkpt lat="42.35144" lon="2.3718">
        <ele>1496</ele>
        <time>2019-01-07T00:12:35Z</time>
      </trkpt>
      <trkpt lat="42.35147" lon="2.3718">
        <ele>1496.7</ele>
        <time>2019-01-07T00:12:36Z</time>
      </trkpt>
      <trkpt lat="42.35149" lon="2.3718">
        <ele>1496.9</ele>
        <time>2019-01-07T00:12:36Z</time>
      </trkpt>
      <trkpt lat="42.35151" lon="2.3718">
        <ele>1497.2</ele>
        <time>2019-01-07T00:12:37Z</time>
      </trkpt>
      <trkpt lat="42.35153" lon="2.3718">
        <ele>1497.7</ele>
        <time>2019-01-07T00:12:37Z</time>
      </trkpt>
      <trkpt lat="42.35155" lon="2.3718">
        <ele>1498</ele>
        <time>2019-01-07T00:12:38Z</time>
      </trkpt>
      <trkpt lat="42.35157" lon="2.37181">
        <ele>1498.4</ele>
        <time>2019-01-07T00:12:38Z</time>
      </trkpt>
      <trkpt lat="42.35159" lon="2.37182">
        <ele>1498.6</ele>
        <time>2019-01-07T00:12:39Z</time>
      </trkpt>
      <trkpt lat="42.35162" lon="2.37182">
        <ele>1499.2</ele>
        <time>2019-01-07T00:12:40Z</time>
      </trkpt>
      <trkpt lat="42.35164" lon="2.37182">
        <ele>1499.5</ele>
        <time>2019-01-07T00:12:40Z</time>
      </trkpt>
      <trkpt lat="42.35165" lon="2.37181">
        <ele>1500</ele>
        <time>2019-01-07T00:12:41Z</time>
      </trkpt>
      <trkpt lat="42.35167" lon="2.37181">
        <ele>1500.1</ele>
        <time>2019-01-07T00:12:41Z</time>
      </trkpt>
      <trkpt lat="42.3517" lon="2.3718">
        <ele>1500.7</ele>
        <time>2019-01-07T00:12:42Z</time>
      </trkpt>
      <trkpt lat="42.35172" lon="2.37179">
        <ele>1501.2</ele>
        <time>2019-01-07T00:12:42Z</time>
      </trkpt>
      <trkpt lat="42.35174" lon="2.37178">
        <ele>1501.7</ele>
        <time>2019-01-07T00:12:43Z</time>
      </trkpt>
      <trkpt lat="42.35176" lon="2.37178">
        <ele>1502</ele>
        <time>2019-01-07T00:12:43Z</time>
      </trkpt>
      <trkpt lat="42.35178" lon="2.37177">
        <ele>1502.5</ele>
        <time>2019-01-07T00:12:44Z</time>
      </trkpt>
      <trkpt lat="42.35179" lon="2.37176">
        <ele>1502.9</ele>
        <time>2019-01-07T00:12:44Z</time>
      </trkpt>
      <trkpt lat="42.35182" lon="2.37174">
        <ele>1503.2</ele>
        <time>2019-01-07T00:12:45Z</time>
      </trkpt>
      <trkpt lat="42.35184" lon="2.37173">
        <ele>1503.7</ele>
        <time>2019-01-07T00:12:46Z</time>
      </trkpt>
      <trkpt lat="42.35186" lon="2.37173">
        <ele>1504.1</ele>
        <time>2019-01-07T00:12:46Z</time>
      </trkpt>
      <trkpt lat="42.35187" lon="2.37173">
        <ele>1504.7</ele>
        <time>2019-01-07T00:12:47Z</time>
      </trkpt>
      <trkpt lat="42.35189" lon="2.37172">
        <ele>1505</ele>
        <time>2019-01-07T00:12:47Z</time>
      </trkpt>
      <trkpt lat="42.35191" lon="2.37171">
        <ele>1505.3</ele>
        <time>2019-01-07T00:12:48Z</time>
      </trkpt>
      <trkpt lat="42.35194" lon="2.3717">
        <ele>1505.8</ele>
        <time>2019-01-07T00:12:48Z</time>
      </trkpt>
      <trkpt lat="42.35196" lon="2.37169">
        <ele>1506.5</ele>
        <time>2019-01-07T00:12:49Z</time>
      </trkpt>
      <trkpt lat="42.35198" lon="2.37169">
        <ele>1506.8</ele>
        <time>2019-01-07T00:12:50Z</time>
      </trkpt>
      <trkpt lat="42.352" lon="2.3717">
        <ele>1507.4</ele>
        <time>2019-01-07T00:12:50Z</time>
      </trkpt>
      <trkpt lat="42.35202" lon="2.37171">
        <ele>1507.7</ele>
        <time>2019-01-07T00:12:51Z</time>
      </trkpt>
      <trkpt lat="42.35204" lon="2.37172">
        <ele>1508.3</ele>
        <time>2019-01-07T00:12:51Z</time>
      </trkpt>
      <trkpt lat="42.35206" lon="2.37172">
        <ele>1508.7</ele>
        <time>2019-01-07T00:12:52Z</time>
      </trkpt>
      <trkpt lat="42.35208" lon="2.37173">
        <ele>1509.1</ele>
        <time>2019-01-07T00:12:52Z</time>
      </trkpt>
      <trkpt lat="42.3521" lon="2.37173">
        <ele>1509.6</ele>
        <time>2019-01-07T00:12:53Z</time>
      </trkpt>
      <trkpt lat="42.35212" lon="2.37172">
        <ele>1510.1</ele>
        <time>2019-01-07T00:12:54Z</time>
      </trkpt>
      <trkpt lat="42.35214" lon="2.37173">
        <ele>1510.5</ele>
        <time>2019-01-07T00:12:54Z</time>
      </trkpt>
      <trkpt lat="42.35216" lon="2.37173">
        <ele>1510.9</ele>
        <time>2019-01-07T00:12:55Z</time>
      </trkpt>
      <trkpt lat="42.35218" lon="2.37173">
        <ele>1511.3</ele>
        <time>2019-01-07T00:12:55Z</time>
      </trkpt>
      <trkpt lat="42.3522" lon="2.37172">
        <ele>1511.8</ele>
        <time>2019-01-07T00:12:56Z</time>
      </trkpt>
      <trkpt lat="42.35223" lon="2.37172">
        <ele>1512.3</ele>
        <time>2019-01-07T00:12:56Z</time>
      </trkpt>
      <trkpt lat="42.35225" lon="2.37172">
        <ele>1512.9</ele>
        <time>2019-01-07T00:12:57Z</time>
      </trkpt>
      <trkpt lat="42.35227" lon="2.37173">
        <ele>1513.3</ele>
        <time>2019-01-07T00:12:58Z</time>
      </trkpt>
      <trkpt lat="42.35229" lon="2.37174">
        <ele>1513.7</ele>
        <time>2019-01-07T00:12:58Z</time>
      </trkpt>
      <trkpt lat="42.35231" lon="2.37174">
        <ele>1514</ele>
        <time>2019-01-07T00:12:59Z</time>
      </trkpt>
      <trkpt lat="42.35233" lon="2.37174">
        <ele>1514.4</ele>
        <time>2019-01-07T00:12:59Z</time>
      </trkpt>
      <trkpt lat="42.35235" lon="2.37174">
        <ele>1514.9</ele>
        <time>2019-01-07T00:13:00Z</time>
      </trkpt>
      <trkpt lat="42.35237" lon="2.37174">
        <ele>1515.2</ele>
        <time>2019-01-07T00:13:00Z</time>
      </trkpt>
      <trkpt lat="42.3524" lon="2.37174">
        <ele>1515.5</ele>
        <time>2019-01-07T00:13:01Z</time>
      </trkpt>
      <trkpt lat="42.35242" lon="2.37174">
        <ele>1515.9</ele>
        <time>2019-01-07T00:13:02Z</time>
      </trkpt>
      <trkpt lat="42.35244" lon="2.37174">
        <ele>1516.4</ele>
        <time>2019-01-07T00:13:02Z</time>
      </trkpt>
      <trkpt lat="42.35246" lon="2.37173">
        <ele>1516.8</ele>
        <time>2019-01-07T00:13:03Z</time>
      </trkpt>
      <trkpt lat="42.35248" lon="2.37173">
        <ele>1517.1</ele>
        <time>2019-01-07T00:13:03Z</time>
      </trkpt>
      <trkpt lat="42.3525" lon="2.37172">
        <ele>1517.4</ele>
        <time>2019-01-07T00:13:04Z</time>
      </trkpt>
      <trkpt lat="42.35252" lon="2.37171">
        <ele>1517.4</ele>
        <time>2019-01-07T00:13:04Z</time>
      </trkpt>
      <trkpt lat="42.35255" lon="2.3717">
        <ele>1517.5</ele>
        <time>2019-01-07T00:13:05Z</time>
      </trkpt>
      <trkpt lat="42.35257" lon="2.3717">
        <ele>1517.7</ele>
        <time>2019-01-07T00:13:06Z</time>
      </trkpt>
      <trkpt lat="42.35259" lon="2.37169">
        <ele>1517.6</ele>
        <time>2019-01-07T00:13:06Z</time>
      </trkpt>
      <trkpt lat="42.35262" lon="2.37169">
        <ele>1517.7</ele>
        <time>2019-01-07T00:13:07Z</time>
      </trkpt>
      <trkpt lat="42.35264" lon="2.37168">
        <ele>1517.8</ele>
        <time>2019-01-07T00:13:08Z</time>
      </trkpt>
      <trkpt lat="42.35267" lon="2.37168">
        <ele>1517.8</ele>
        <time>2019-01-07T00:13:09Z</time>
      </trkpt>
      <trkpt lat="42.3527" lon="2.37168">
        <ele>1517.8</ele>
        <time>2019-01-07T00:13:09Z</time>
      </trkpt>
      <trkpt lat="42.35272" lon="2.37168">
        <ele>1517.9</ele>
        <time>2019-01-07T00:13:10Z</time>
      </trkpt>
      <trkpt lat="42.35275" lon="2.37168">
        <ele>1518.1</ele>
        <time>2019-01-07T00:13:11Z</time>
      </trkpt>
      <trkpt lat="42.35278" lon="2.37168">
        <ele>1518.2</ele>
        <time>2019-01-07T00:13:11Z</time>
      </trkpt>
      <trkpt lat="42.35281" lon="2.37167">
        <ele>1518.2</ele>
        <time>2019-01-07T00:13:12Z</time>
      </trkpt>
      <trkpt lat="42.35284" lon="2.37167">
        <ele>1518.2</ele>
        <time>2019-01-07T00:13:13Z</time>
      </trkpt>
      <trkpt lat="42.35287" lon="2.37166">
        <ele>1518.4</ele>
        <time>2019-01-07T00:13:14Z</time>
      </trkpt>
      <trkpt lat="42.3529" lon="2.37165">
        <ele>1518.4</ele>
        <time>2019-01-07T00:13:15Z</time>
      </trkpt>
      <trkpt lat="42.35292" lon="2.37164">
        <ele>1518.5</ele>
        <time>2019-01-07T00:13:15Z</time>
      </trkpt>
      <trkpt lat="42.35294" lon="2.37164">
        <ele>1518.7</ele>
        <time>2019-01-07T00:13:16Z</time>
      </trkpt>
      <trkpt lat="42.35297" lon="2.37163">
        <ele>1518.6</ele>
        <time>2019-01-07T00:13:17Z</time>
      </trkpt>
      <trkpt lat="42.35299" lon="2.37162">
        <ele>1518.8</ele>
        <time>2019-01-07T00:13:17Z</time>
      </trkpt>
      <trkpt lat="42.35301" lon="2.3716">
        <ele>1518.9</ele>
        <time>2019-01-07T00:13:18Z</time>
      </trkpt>
      <trkpt lat="42.35303" lon="2.3716">
        <ele>1519</ele>
        <time>2019-01-07T00:13:18Z</time>
      </trkpt>
      <trkpt lat="42.35305" lon="2.37161">
        <ele>1519.3</ele>
        <time>2019-01-07T00:13:19Z</time>
      </trkpt>
      <trkpt lat="42.35307" lon="2.3716">
        <ele>1519.4</ele>
        <time>2019-01-07T00:13:20Z</time>
      </trkpt>
      <trkpt lat="42.3531" lon="2.37159">
        <ele>1519.7</ele>
        <time>2019-01-07T00:13:20Z</time>
      </trkpt>
      <trkpt lat="42.35312" lon="2.37157">
        <ele>1519.8</ele>
        <time>2019-01-07T00:13:21Z</time>
      </trkpt>
      <trkpt lat="42.35314" lon="2.37155">
        <ele>1519.9</ele>
        <time>2019-01-07T00:13:22Z</time>
      </trkpt>
      <trkpt lat="42.35316" lon="2.37154">
        <ele>1520.3</ele>
        <time>2019-01-07T00:13:22Z</time>
      </trkpt>
      <trkpt lat="42.35319" lon="2.37153">
        <ele>1520.6</ele>
        <time>2019-01-07T00:13:23Z</time>
      </trkpt>
      <trkpt lat="42.3532" lon="2.37153">
        <ele>1520.8</ele>
        <time>2019-01-07T00:13:23Z</time>
      </trkpt>
      <trkpt lat="42.35322" lon="2.37151">
        <ele>1521</ele>
        <time>2019-01-07T00:13:24Z</time>
      </trkpt>
      <trkpt lat="42.35324" lon="2.37151">
        <ele>1521.2</ele>
        <time>2019-01-07T00:13:24Z</time>
      </trkpt>
      <trkpt lat="42.35326" lon="2.3715">
        <ele>1521.5</ele>
        <time>2019-01-07T00:13:25Z</time>
      </trkpt>
      <trkpt lat="42.35328" lon="2.37149">
        <ele>1521.8</ele>
        <time>2019-01-07T00:13:26Z</time>
      </trkpt>
      <trkpt lat="42.35328" lon="2.37147">
        <ele>1522.2</ele>
        <time>2019-01-07T00:13:26Z</time>
      </trkpt>
      <trkpt lat="42.35329" lon="2.37145">
        <ele>1522.5</ele>
        <time>2019-01-07T00:13:27Z</time>
      </trkpt>
      <trkpt lat="42.35331" lon="2.37144">
        <ele>1523</ele>
        <time>2019-01-07T00:13:27Z</time>
      </trkpt>
      <trkpt lat="42.35334" lon="2.37143">
        <ele>1523.3</ele>
        <time>2019-01-07T00:13:28Z</time>
      </trkpt>
      <trkpt lat="42.35336" lon="2.37142">
        <ele>1523.7</ele>
        <time>2019-01-07T00:13:29Z</time>
      </trkpt>
      <trkpt lat="42.35339" lon="2.3714">
        <ele>1524.2</ele>
        <time>2019-01-07T00:13:30Z</time>
      </trkpt>
      <trkpt lat="42.35341" lon="2.37138">
        <ele>1524.3</ele>
        <time>2019-01-07T00:13:30Z</time>
      </trkpt>
      <trkpt lat="42.35344" lon="2.37136">
        <ele>1524.2</ele>
        <time>2019-01-07T00:13:31Z</time>
      </trkpt>
      <trkpt lat="42.35346" lon="2.37136">
        <ele>1524.4</ele>
        <time>2019-01-07T00:13:32Z</time>
      </trkpt>
      <trkpt lat="42.35349" lon="2.37136">
        <ele>1524.3</ele>
        <time>2019-01-07T00:13:32Z</time>
      </trkpt>
      <trkpt lat="42.35351" lon="2.37135">
        <ele>1524.4</ele>
        <time>2019-01-07T00:13:33Z</time>
      </trkpt>
      <trkpt lat="42.35354" lon="2.37134">
        <ele>1524.6</ele>
        <time>2019-01-07T00:13:34Z</time>
      </trkpt>
      <trkpt lat="42.35357" lon="2.37134">
        <ele>1524.9</ele>
        <time>2019-01-07T00:13:35Z</time>
      </trkpt>
      <trkpt lat="42.35359" lon="2.37135">
        <ele>1524.9</ele>
        <time>2019-01-07T00:13:35Z</time>
      </trkpt>
      <trkpt lat="42.35361" lon="2.37135">
        <ele>1525.2</ele>
        <time>2019-01-07T00:13:36Z</time>
      </trkpt>
      <trkpt lat="42.35363" lon="2.37136">
        <ele>1525.4</ele>
        <time>2019-01-07T00:13:36Z</time>
      </trkpt>
      <trkpt lat="42.35366" lon="2.37138">
        <ele>1525.6</ele>
        <time>2019-01-07T00:13:37Z</time>
      </trkpt>
      <trkpt lat="42.35368" lon="2.37139">
        <ele>1525.7</ele>
        <time>2019-01-07T00:13:38Z</time>
      </trkpt>
      <trkpt lat="42.3537" lon="2.37141">
        <ele>1525.8</ele>
        <time>2019-01-07T00:13:38Z</time>
      </trkpt>
      <trkpt lat="42.35372" lon="2.37142">
        <ele>1525.9</ele>
        <time>2019-01-07T00:13:39Z</time>
      </trkpt>
      <trkpt lat="42.35375" lon="2.37143">
        <ele>1526</ele>
        <time>2019-01-07T00:13:40Z</time>
      </trkpt>
      <trkpt lat="42.35377" lon="2.37145">
        <ele>1525.8</ele>
        <time>2019-01-07T00:13:40Z</time>
      </trkpt>
      <trkpt lat="42.35379" lon="2.37146">
        <ele>1525.6</ele>
        <time>2019-01-07T00:13:41Z</time>
      </trkpt>
      <trkpt lat="42.35381" lon="2.37148">
        <ele>1525.6</ele>
        <time>2019-01-07T00:13:42Z</time>
      </trkpt>
      <trkpt lat="42.35384" lon="2.37149">
        <ele>1525.7</ele>
        <time>2019-01-07T00:13:42Z</time>
      </trkpt>
      <trkpt lat="42.35386" lon="2.3715">
        <ele>1525.8</ele>
        <time>2019-01-07T00:13:43Z</time>
      </trkpt>
      <trkpt lat="42.35388" lon="2.37153">
        <ele>1525.5</ele>
        <time>2019-01-07T00:13:44Z</time>
      </trkpt>
      <trkpt lat="42.35391" lon="2.37155">
        <ele>1525</ele>
        <time>2019-01-07T00:13:45Z</time>
      </trkpt>
      <trkpt lat="42.35393" lon="2.37156">
        <ele>1525</ele>
        <time>2019-01-07T00:13:45Z</time>
      </trkpt>
      <trkpt lat="42.35396" lon="2.37157">
        <ele>1524.6</ele>
        <time>2019-01-07T00:13:46Z</time>
      </trkpt>
      <trkpt lat="42.35398" lon="2.37159">
        <ele>1524.4</ele>
        <time>2019-01-07T00:13:47Z</time>
      </trkpt>
      <trkpt lat="42.354" lon="2.37161">
        <ele>1523.9</ele>
        <time>2019-01-07T00:13:47Z</time>
      </trkpt>
      <trkpt lat="42.35402" lon="2.37163">
        <ele>1523.7</ele>
        <time>2019-01-07T00:13:48Z</time>
      </trkpt>
      <trkpt lat="42.35403" lon="2.37165">
        <ele>1523.3</ele>
        <time>2019-01-07T00:13:49Z</time>
      </trkpt>
      <trkpt lat="42.35405" lon="2.37166">
        <ele>1523.1</ele>
        <time>2019-01-07T00:13:49Z</time>
      </trkpt>
      <trkpt lat="42.35407" lon="2.37168">
        <ele>1522.8</ele>
        <time>2019-01-07T00:13:50Z</time>
      </trkpt>
      <trkpt lat="42.3541" lon="2.3717">
        <ele>1522.8</ele>
        <time>2019-01-07T00:13:51Z</time>
      </trkpt>
      <trkpt lat="42.35412" lon="2.37172">
        <ele>1522.4</ele>
        <time>2019-01-07T00:13:51Z</time>
      </trkpt>
      <trkpt lat="42.35415" lon="2.37175">
        <ele>1522.1</ele>
        <time>2019-01-07T00:13:52Z</time>
      </trkpt>
      <trkpt lat="42.35417" lon="2.37178">
        <ele>1521.9</ele>
        <time>2019-01-07T00:13:53Z</time>
      </trkpt>
      <trkpt lat="42.3542" lon="2.37181">
        <ele>1521.5</ele>
        <time>2019-01-07T00:13:54Z</time>
      </trkpt>
      <trkpt lat="42.35422" lon="2.37184">
        <ele>1520.9</ele>
        <time>2019-01-07T00:13:55Z</time>
      </trkpt>
      <trkpt lat="42.35423" lon="2.37186">
        <ele>1520.7</ele>
        <time>2019-01-07T00:13:55Z</time>
      </trkpt>
      <trkpt lat="42.35425" lon="2.37188">
        <ele>1520.3</ele>
        <time>2019-01-07T00:13:56Z</time>
      </trkpt>
      <trkpt lat="42.35426" lon="2.3719">
        <ele>1520.2</ele>
        <time>2019-01-07T00:13:56Z</time>
      </trkpt>
      <trkpt lat="42.35428" lon="2.37193">
        <ele>1519.8</ele>
        <time>2019-01-07T00:13:57Z</time>
      </trkpt>
      <trkpt lat="42.3543" lon="2.37197">
        <ele>1519.1</ele>
        <time>2019-01-07T00:13:58Z</time>
      </trkpt>
      <trkpt lat="42.35432" lon="2.37201">
        <ele>1518.4</ele>
        <time>2019-01-07T00:13:59Z</time>
      </trkpt>
      <trkpt lat="42.35433" lon="2.37205">
        <ele>1518</ele>
        <time>2019-01-07T00:14:00Z</time>
      </trkpt>
      <trkpt lat="42.35434" lon="2.37208">
        <ele>1517.5</ele>
        <time>2019-01-07T00:14:01Z</time>
      </trkpt>
      <trkpt lat="42.35437" lon="2.37211">
        <ele>1517.1</ele>
        <time>2019-01-07T00:14:01Z</time>
      </trkpt>
      <trkpt lat="42.35438" lon="2.37213">
        <ele>1517</ele>
        <time>2019-01-07T00:14:02Z</time>
      </trkpt>
      <trkpt lat="42.3544" lon="2.37216">
        <ele>1516.6</ele>
        <time>2019-01-07T00:14:03Z</time>
      </trkpt>
      <trkpt lat="42.35441" lon="2.37219">
        <ele>1516.3</ele>
        <time>2019-01-07T00:14:03Z</time>
      </trkpt>
      <trkpt lat="42.35443" lon="2.37221">
        <ele>1516.1</ele>
        <time>2019-01-07T00:14:04Z</time>
      </trkpt>
      <trkpt lat="42.35445" lon="2.37223">
        <ele>1515.7</ele>
        <time>2019-01-07T00:14:05Z</time>
      </trkpt>
      <trkpt lat="42.35447" lon="2.37225">
        <ele>1515.3</ele>
        <time>2019-01-07T00:14:06Z</time>
      </trkpt>
      <trkpt lat="42.35449" lon="2.37227">
        <ele>1514.7</ele>
        <time>2019-01-07T00:14:06Z</time>
      </trkpt>
      <trkpt lat="42.35451" lon="2.37229">
        <ele>1514</ele>
        <time>2019-01-07T00:14:07Z</time>
      </trkpt>
      <trkpt lat="42.35453" lon="2.37231">
        <ele>1513.4</ele>
        <time>2019-01-07T00:14:08Z</time>
      </trkpt>
      <trkpt lat="42.35456" lon="2.37233">
        <ele>1512.8</ele>
        <time>2019-01-07T00:14:08Z</time>
      </trkpt>
      <trkpt lat="42.35458" lon="2.37236">
        <ele>1512.3</ele>
        <time>2019-01-07T00:14:09Z</time>
      </trkpt>
      <trkpt lat="42.3546" lon="2.3724">
        <ele>1511.4</ele>
        <time>2019-01-07T00:14:10Z</time>
      </trkpt>
      <trkpt lat="42.35461" lon="2.37242">
        <ele>1511.1</ele>
        <time>2019-01-07T00:14:11Z</time>
      </trkpt>
      <trkpt lat="42.35463" lon="2.37245">
        <ele>1510.3</ele>
        <time>2019-01-07T00:14:11Z</time>
      </trkpt>
      <trkpt lat="42.35466" lon="2.37247">
        <ele>1509.9</ele>
        <time>2019-01-07T00:14:12Z</time>
      </trkpt>
      <trkpt lat="42.35468" lon="2.3725">
        <ele>1509.4</ele>
        <time>2019-01-07T00:14:13Z</time>
      </trkpt>
      <trkpt lat="42.35471" lon="2.37252">
        <ele>1509.3</ele>
        <time>2019-01-07T00:14:14Z</time>
      </trkpt>
      <trkpt lat="42.35474" lon="2.37254">
        <ele>1509</ele>
        <time>2019-01-07T00:14:15Z</time>
      </trkpt>
      <trkpt lat="42.35477" lon="2.37256">
        <ele>1508.8</ele>
        <time>2019-01-07T00:14:16Z</time>
      </trkpt>
      <trkpt lat="42.35479" lon="2.37258">
        <ele>1508.8</ele>
        <time>2019-01-07T00:14:16Z</time>
      </trkpt>
      <trkpt lat="42.35481" lon="2.3726">
        <ele>1508.8</ele>
        <time>2019-01-07T00:14:17Z</time>
      </trkpt>
      <trkpt lat="42.35483" lon="2.37261">
        <ele>1508.9</ele>
        <time>2019-01-07T00:14:18Z</time>
      </trkpt>
      <trkpt lat="42.35485" lon="2.37262">
        <ele>1509</ele>
        <time>2019-01-07T00:14:18Z</time>
      </trkpt>
      <trkpt lat="42.35488" lon="2.37264">
        <ele>1509.1</ele>
        <time>2019-01-07T00:14:19Z</time>
      </trkpt>
      <trkpt lat="42.3549" lon="2.37266">
        <ele>1509.4</ele>
        <time>2019-01-07T00:14:20Z</time>
      </trkpt>
      <trkpt lat="42.35492" lon="2.37268">
        <ele>1509.5</ele>
        <time>2019-01-07T00:14:20Z</time>
      </trkpt>
      <trkpt lat="42.35495" lon="2.3727">
        <ele>1509.7</ele>
        <time>2019-01-07T00:14:21Z</time>
      </trkpt>
      <trkpt lat="42.35497" lon="2.37271">
        <ele>1509.9</ele>
        <time>2019-01-07T00:14:22Z</time>
      </trkpt>
      <trkpt lat="42.35499" lon="2.37273">
        <ele>1510.3</ele>
        <time>2019-01-07T00:14:22Z</time>
      </trkpt>
      <trkpt lat="42.35501" lon="2.37275">
        <ele>1510.7</ele>
        <time>2019-01-07T00:14:23Z</time>
      </trkpt>
      <trkpt lat="42.35504" lon="2.37276">
        <ele>1511.2</ele>
        <time>2019-01-07T00:14:24Z</time>
      </trkpt>
      <trkpt lat="42.35506" lon="2.37277">
        <ele>1511.5</ele>
        <time>2019-01-07T00:14:24Z</time>
      </trkpt>
      <trkpt lat="42.35507" lon="2.37278">
        <ele>1511.8</ele>
        <time>2019-01-07T00:14:25Z</time>
      </trkpt>
      <trkpt lat="42.3551" lon="2.37278">
        <ele>1512.1</ele>
        <time>2019-01-07T00:14:25Z</time>
      </trkpt>
      <trkpt lat="42.35512" lon="2.3728">
        <ele>1512.4</ele>
        <time>2019-01-07T00:14:26Z</time>
      </trkpt>
      <trkpt lat="42.35514" lon="2.37281">
        <ele>1512.6</ele>
        <time>2019-01-07T00:14:27Z</time>
      </trkpt>
      <trkpt lat="42.35516" lon="2.37283">
        <ele>1512.6</ele>
        <time>2019-01-07T00:14:27Z</time>
      </trkpt>
      <trkpt lat="42.35518" lon="2.37284">
        <ele>1512.9</ele>
        <time>2019-01-07T00:14:28Z</time>
      </trkpt>
      <trkpt lat="42.3552" lon="2.37285">
        <ele>1513.1</ele>
        <time>2019-01-07T00:14:29Z</time>
      </trkpt>
      <trkpt lat="42.35522" lon="2.37286">
        <ele>1513.2</ele>
        <time>2019-01-07T00:14:29Z</time>
      </trkpt>
      <trkpt lat="42.35525" lon="2.37287">
        <ele>1513.4</ele>
        <time>2019-01-07T00:14:30Z</time>
      </trkpt>
      <trkpt lat="42.35527" lon="2.37288">
        <ele>1513.6</ele>
        <time>2019-01-07T00:14:30Z</time>
      </trkpt>
      <trkpt lat="42.35529" lon="2.37289">
        <ele>1513.7</ele>
        <time>2019-01-07T00:14:31Z</time>
      </trkpt>
      <trkpt lat="42.3553" lon="2.37289">
        <ele>1513.7</ele>
        <time>2019-01-07T00:14:31Z</time>
      </trkpt>
      <trkpt lat="42.35533" lon="2.37289">
        <ele>1513.7</ele>
        <time>2019-01-07T00:14:32Z</time>
      </trkpt>
      <trkpt lat="42.35535" lon="2.37289">
        <ele>1514</ele>
        <time>2019-01-07T00:14:33Z</time>
      </trkpt>
      <trkpt lat="42.35537" lon="2.37289">
        <ele>1514.1</ele>
        <time>2019-01-07T00:14:33Z</time>
      </trkpt>
      <trkpt lat="42.35539" lon="2.3729">
        <ele>1514</ele>
        <time>2019-01-07T00:14:34Z</time>
      </trkpt>
      <trkpt lat="42.35541" lon="2.37291">
        <ele>1514.1</ele>
        <time>2019-01-07T00:14:34Z</time>
      </trkpt>
      <trkpt lat="42.35544" lon="2.37292">
        <ele>1514.3</ele>
        <time>2019-01-07T00:14:35Z</time>
      </trkpt>
      <trkpt lat="42.35546" lon="2.37292">
        <ele>1514.4</ele>
        <time>2019-01-07T00:14:36Z</time>
      </trkpt>
      <trkpt lat="42.35548" lon="2.37293">
        <ele>1514.2</ele>
        <time>2019-01-07T00:14:36Z</time>
      </trkpt>
      <trkpt lat="42.3555" lon="2.37293">
        <ele>1514.5</ele>
        <time>2019-01-07T00:14:37Z</time>
      </trkpt>
      <trkpt lat="42.35552" lon="2.37293">
        <ele>1514.6</ele>
        <time>2019-01-07T00:14:37Z</time>
      </trkpt>
      <trkpt lat="42.35555" lon="2.37293">
        <ele>1514.5</ele>
        <time>2019-01-07T00:14:38Z</time>
      </trkpt>
      <trkpt lat="42.35557" lon="2.37293">
        <ele>1514.5</ele>
        <time>2019-01-07T00:14:39Z</time>
      </trkpt>
      <trkpt lat="42.3556" lon="2.37293">
        <ele>1514.4</ele>
        <time>2019-01-07T00:14:39Z</time>
      </trkpt>
      <trkpt lat="42.35563" lon="2.37293">
        <ele>1514.3</ele>
        <time>2019-01-07T00:14:40Z</time>
      </trkpt>
      <trkpt lat="42.35565" lon="2.37294">
        <ele>1514.4</ele>
        <time>2019-01-07T00:14:41Z</time>
      </trkpt>
      <trkpt lat="42.35568" lon="2.37294">
        <ele>1514.2</ele>
        <time>2019-01-07T00:14:42Z</time>
      </trkpt>
      <trkpt lat="42.35572" lon="2.37294">
        <ele>1514.2</ele>
        <time>2019-01-07T00:14:43Z</time>
      </trkpt>
      <trkpt lat="42.35575" lon="2.37294">
        <ele>1514.2</ele>
        <time>2019-01-07T00:14:43Z</time>
      </trkpt>
      <trkpt lat="42.35578" lon="2.37295">
        <ele>1514.1</ele>
        <time>2019-01-07T00:14:44Z</time>
      </trkpt>
      <trkpt lat="42.35581" lon="2.37295">
        <ele>1514.1</ele>
        <time>2019-01-07T00:14:45Z</time>
      </trkpt>
      <trkpt lat="42.35583" lon="2.37296">
        <ele>1514.2</ele>
        <time>2019-01-07T00:14:46Z</time>
      </trkpt>
      <trkpt lat="42.35586" lon="2.37296">
        <ele>1513.8</ele>
        <time>2019-01-07T00:14:46Z</time>
      </trkpt>
      <trkpt lat="42.35589" lon="2.37297">
        <ele>1513.5</ele>
        <time>2019-01-07T00:14:47Z</time>
      </trkpt>
      <trkpt lat="42.35591" lon="2.37298">
        <ele>1513.4</ele>
        <time>2019-01-07T00:14:48Z</time>
      </trkpt>
      <trkpt lat="42.35593" lon="2.37299">
        <ele>1513.2</ele>
        <time>2019-01-07T00:14:48Z</time>
      </trkpt>
      <trkpt lat="42.35595" lon="2.37299">
        <ele>1513.2</ele>
        <time>2019-01-07T00:14:49Z</time>
      </trkpt>
      <trkpt lat="42.35597" lon="2.373">
        <ele>1513.1</ele>
        <time>2019-01-07T00:14:50Z</time>
      </trkpt>
      <trkpt lat="42.35599" lon="2.37301">
        <ele>1513</ele>
        <time>2019-01-07T00:14:50Z</time>
      </trkpt>
      <trkpt lat="42.35601" lon="2.37301">
        <ele>1512.8</ele>
        <time>2019-01-07T00:14:51Z</time>
      </trkpt>
      <trkpt lat="42.35603" lon="2.37302">
        <ele>1512.7</ele>
        <time>2019-01-07T00:14:51Z</time>
      </trkpt>
      <trkpt lat="42.35606" lon="2.37302">
        <ele>1512.7</ele>
        <time>2019-01-07T00:14:52Z</time>
      </trkpt>
      <trkpt lat="42.35608" lon="2.37302">
        <ele>1512.5</ele>
        <time>2019-01-07T00:14:52Z</time>
      </trkpt>
      <trkpt lat="42.3561" lon="2.37302">
        <ele>1512.5</ele>
        <time>2019-01-07T00:14:53Z</time>
      </trkpt>
      <trkpt lat="42.35612" lon="2.37302">
        <ele>1512</ele>
        <time>2019-01-07T00:14:54Z</time>
      </trkpt>
      <trkpt lat="42.35614" lon="2.37303">
        <ele>1512</ele>
        <time>2019-01-07T00:14:54Z</time>
      </trkpt>
      <trkpt lat="42.35616" lon="2.37303">
        <ele>1511.6</ele>
        <time>2019-01-07T00:14:55Z</time>
      </trkpt>
      <trkpt lat="42.35617" lon="2.37305">
        <ele>1512</ele>
        <time>2019-01-07T00:14:55Z</time>
      </trkpt>
      <trkpt lat="42.35617" lon="2.37309">
        <ele>1512.4</ele>
        <time>2019-01-07T00:14:56Z</time>
      </trkpt>
      <trkpt lat="42.35617" lon="2.37313">
        <ele>1512.3</ele>
        <time>2019-01-07T00:14:57Z</time>
      </trkpt>
      <trkpt lat="42.35618" lon="2.37317">
        <ele>1512.4</ele>
        <time>2019-01-07T00:14:58Z</time>
      </trkpt>
      <trkpt lat="42.35618" lon="2.3732">
        <ele>1512.3</ele>
        <time>2019-01-07T00:14:58Z</time>
      </trkpt>
      <trkpt lat="42.35617" lon="2.37324">
        <ele>1512.4</ele>
        <time>2019-01-07T00:14:59Z</time>
      </trkpt>
      <trkpt lat="42.35617" lon="2.37328">
        <ele>1512.6</ele>
        <time>2019-01-07T00:15:00Z</time>
      </trkpt>
      <trkpt lat="42.35617" lon="2.37331">
        <ele>1512.7</ele>
        <time>2019-01-07T00:15:00Z</time>
      </trkpt>
      <trkpt lat="42.35617" lon="2.37334">
        <ele>1512.6</ele>
        <time>2019-01-07T00:15:01Z</time>
      </trkpt>
      <trkpt lat="42.35618" lon="2.37338">
        <ele>1512.5</ele>
        <time>2019-01-07T00:15:02Z</time>
      </trkpt>
      <trkpt lat="42.35619" lon="2.37341">
        <ele>1512.1</ele>
        <time>2019-01-07T00:15:02Z</time>
      </trkpt>
      <trkpt lat="42.35621" lon="2.37342">
        <ele>1511.8</ele>
        <time>2019-01-07T00:15:03Z</time>
      </trkpt>
      <trkpt lat="42.35623" lon="2.37342">
        <ele>1511.7</ele>
        <time>2019-01-07T00:15:04Z</time>
      </trkpt>
      <trkpt lat="42.35625" lon="2.37343">
        <ele>1511.6</ele>
        <time>2019-01-07T00:15:04Z</time>
      </trkpt>
      <trkpt lat="42.35627" lon="2.37343">
        <ele>1511.3</ele>
        <time>2019-01-07T00:15:05Z</time>
      </trkpt>
      <trkpt lat="42.3563" lon="2.37343">
        <ele>1511.4</ele>
        <time>2019-01-07T00:15:05Z</time>
      </trkpt>
      <trkpt lat="42.35633" lon="2.37343">
        <ele>1511</ele>
        <time>2019-01-07T00:15:06Z</time>
      </trkpt>
      <trkpt lat="42.35635" lon="2.37343">
        <ele>1511</ele>
        <time>2019-01-07T00:15:07Z</time>
      </trkpt>
      <trkpt lat="42.35637" lon="2.37343">
        <ele>1510.9</ele>
        <time>2019-01-07T00:15:07Z</time>
      </trkpt>
      <trkpt lat="42.3564" lon="2.37342">
        <ele>1510.9</ele>
        <time>2019-01-07T00:15:08Z</time>
      </trkpt>
      <trkpt lat="42.35644" lon="2.37342">
        <ele>1511</ele>
        <time>2019-01-07T00:15:09Z</time>
      </trkpt>
      <trkpt lat="42.35647" lon="2.37341">
        <ele>1511.1</ele>
        <time>2019-01-07T00:15:10Z</time>
      </trkpt>
      <trkpt lat="42.3565" lon="2.3734">
        <ele>1511.1</ele>
        <time>2019-01-07T00:15:11Z</time>
      </trkpt>
      <trkpt lat="42.35652" lon="2.3734">
        <ele>1511.1</ele>
        <time>2019-01-07T00:15:11Z</time>
      </trkpt>
      <trkpt lat="42.35655" lon="2.37339">
        <ele>1511.2</ele>
        <time>2019-01-07T00:15:12Z</time>
      </trkpt>
      <trkpt lat="42.35658" lon="2.37339">
        <ele>1511.3</ele>
        <time>2019-01-07T00:15:13Z</time>
      </trkpt>
      <trkpt lat="42.35661" lon="2.37339">
        <ele>1511.4</ele>
        <time>2019-01-07T00:15:14Z</time>
      </trkpt>
      <trkpt lat="42.35663" lon="2.37339">
        <ele>1511.6</ele>
        <time>2019-01-07T00:15:14Z</time>
      </trkpt>
      <trkpt lat="42.35666" lon="2.37339">
        <ele>1511.6</ele>
        <time>2019-01-07T00:15:15Z</time>
      </trkpt>
      <trkpt lat="42.35668" lon="2.37339">
        <ele>1511.9</ele>
        <time>2019-01-07T00:15:16Z</time>
      </trkpt>
      <trkpt lat="42.35671" lon="2.37339">
        <ele>1512.4</ele>
        <time>2019-01-07T00:15:16Z</time>
      </trkpt>
      <trkpt lat="42.35673" lon="2.37338">
        <ele>1512.9</ele>
        <time>2019-01-07T00:15:17Z</time>
      </trkpt>
      <trkpt lat="42.35675" lon="2.37338">
        <ele>1513.3</ele>
        <time>2019-01-07T00:15:18Z</time>
      </trkpt>
      <trkpt lat="42.35678" lon="2.37337">
        <ele>1513.8</ele>
        <time>2019-01-07T00:15:18Z</time>
      </trkpt>
      <trkpt lat="42.3568" lon="2.37337">
        <ele>1514.1</ele>
        <time>2019-01-07T00:15:19Z</time>
      </trkpt>
      <trkpt lat="42.35682" lon="2.37337">
        <ele>1514.4</ele>
        <time>2019-01-07T00:15:19Z</time>
      </trkpt>
      <trkpt lat="42.35684" lon="2.37337">
        <ele>1514.8</ele>
        <time>2019-01-07T00:15:20Z</time>
      </trkpt>
      <trkpt lat="42.35686" lon="2.37335">
        <ele>1515.4</ele>
        <time>2019-01-07T00:15:21Z</time>
      </trkpt>
      <trkpt lat="42.35688" lon="2.37334">
        <ele>1515.9</ele>
        <time>2019-01-07T00:15:21Z</time>
      </trkpt>
      <trkpt lat="42.3569" lon="2.37334">
        <ele>1516.3</ele>
        <time>2019-01-07T00:15:22Z</time>
      </trkpt>
      <trkpt lat="42.35692" lon="2.37334">
        <ele>1516.5</ele>
        <time>2019-01-07T00:15:22Z</time>
      </trkpt>
      <trkpt lat="42.35694" lon="2.37335">
        <ele>1516.9</ele>
        <time>2019-01-07T00:15:23Z</time>
      </trkpt>
      <trkpt lat="42.35696" lon="2.37335">
        <ele>1517</ele>
        <time>2019-01-07T00:15:23Z</time>
      </trkpt>
      <trkpt lat="42.35698" lon="2.37335">
        <ele>1517.4</ele>
        <time>2019-01-07T00:15:24Z</time>
      </trkpt>
      <trkpt lat="42.357" lon="2.37334">
        <ele>1518</ele>
        <time>2019-01-07T00:15:24Z</time>
      </trkpt>
      <trkpt lat="42.35702" lon="2.37334">
        <ele>1518.2</ele>
        <time>2019-01-07T00:15:25Z</time>
      </trkpt>
      <trkpt lat="42.35704" lon="2.37333">
        <ele>1518.6</ele>
        <time>2019-01-07T00:15:26Z</time>
      </trkpt>
      <trkpt lat="42.35707" lon="2.37332">
        <ele>1518.7</ele>
        <time>2019-01-07T00:15:26Z</time>
      </trkpt>
      <trkpt lat="42.35709" lon="2.37332">
        <ele>1519.1</ele>
        <time>2019-01-07T00:15:27Z</time>
      </trkpt>
      <trkpt lat="42.35711" lon="2.37331">
        <ele>1519.5</ele>
        <time>2019-01-07T00:15:27Z</time>
      </trkpt>
      <trkpt lat="42.35713" lon="2.3733">
        <ele>1519.8</ele>
        <time>2019-01-07T00:15:28Z</time>
      </trkpt>
      <trkpt lat="42.35715" lon="2.3733">
        <ele>1520.1</ele>
        <time>2019-01-07T00:15:29Z</time>
      </trkpt>
      <trkpt lat="42.35718" lon="2.37329">
        <ele>1520.3</ele>
        <time>2019-01-07T00:15:29Z</time>
      </trkpt>
      <trkpt lat="42.3572" lon="2.37328">
        <ele>1520.6</ele>
        <time>2019-01-07T00:15:30Z</time>
      </trkpt>
      <trkpt lat="42.35722" lon="2.37328">
        <ele>1521</ele>
        <time>2019-01-07T00:15:30Z</time>
      </trkpt>
      <trkpt lat="42.35724" lon="2.37327">
        <ele>1521.3</ele>
        <time>2019-01-07T00:15:31Z</time>
      </trkpt>
      <trkpt lat="42.35726" lon="2.37326">
        <ele>1521.6</ele>
        <time>2019-01-07T00:15:32Z</time>
      </trkpt>
      <trkpt lat="42.35728" lon="2.37325">
        <ele>1521.8</ele>
        <time>2019-01-07T00:15:32Z</time>
      </trkpt>
      <trkpt lat="42.3573" lon="2.37325">
        <ele>1522.1</ele>
        <time>2019-01-07T00:15:33Z</time>
      </trkpt>
      <trkpt lat="42.35732" lon="2.37325">
        <ele>1522.4</ele>
        <time>2019-01-07T00:15:33Z</time>
      </trkpt>
      <trkpt lat="42.35734" lon="2.37326">
        <ele>1522.7</ele>
        <time>2019-01-07T00:15:34Z</time>
      </trkpt>
      <trkpt lat="42.35736" lon="2.37325">
        <ele>1523.1</ele>
        <time>2019-01-07T00:15:34Z</time>
      </trkpt>
      <trkpt lat="42.35738" lon="2.37326">
        <ele>1523.4</ele>
        <time>2019-01-07T00:15:35Z</time>
      </trkpt>
      <trkpt lat="42.3574" lon="2.37326">
        <ele>1523.8</ele>
        <time>2019-01-07T00:15:35Z</time>
      </trkpt>
      <trkpt lat="42.35742" lon="2.37326">
        <ele>1524.1</ele>
        <time>2019-01-07T00:15:36Z</time>
      </trkpt>
      <trkpt lat="42.35744" lon="2.37326">
        <ele>1524.5</ele>
        <time>2019-01-07T00:15:36Z</time>
      </trkpt>
      <trkpt lat="42.35745" lon="2.37326">
        <ele>1524.9</ele>
        <time>2019-01-07T00:15:37Z</time>
      </trkpt>
      <trkpt lat="42.35747" lon="2.37326">
        <ele>1525.1</ele>
        <time>2019-01-07T00:15:37Z</time>
      </trkpt>
      <trkpt lat="42.35749" lon="2.37327">
        <ele>1525.5</ele>
        <time>2019-01-07T00:15:38Z</time>
      </trkpt>
      <trkpt lat="42.35751" lon="2.37326">
        <ele>1525.9</ele>
        <time>2019-01-07T00:15:38Z</time>
      </trkpt>
      <trkpt lat="42.35753" lon="2.37326">
        <ele>1526.3</ele>
        <time>2019-01-07T00:15:39Z</time>
      </trkpt>
      <trkpt lat="42.35755" lon="2.37325">
        <ele>1526.5</ele>
        <time>2019-01-07T00:15:39Z</time>
      </trkpt>
      <trkpt lat="42.35757" lon="2.37325">
        <ele>1527</ele>
        <time>2019-01-07T00:15:40Z</time>
      </trkpt>
      <trkpt lat="42.35759" lon="2.37324">
        <ele>1527.6</ele>
        <time>2019-01-07T00:15:41Z</time>
      </trkpt>
      <trkpt lat="42.35761" lon="2.37323">
        <ele>1527.9</ele>
        <time>2019-01-07T00:15:41Z</time>
      </trkpt>
      <trkpt lat="42.35763" lon="2.37322">
        <ele>1528.1</ele>
        <time>2019-01-07T00:15:42Z</time>
      </trkpt>
      <trkpt lat="42.35765" lon="2.37321">
        <ele>1528.5</ele>
        <time>2019-01-07T00:15:42Z</time>
      </trkpt>
      <trkpt lat="42.35766" lon="2.37319">
        <ele>1528.6</ele>
        <time>2019-01-07T00:15:43Z</time>
      </trkpt>
      <trkpt lat="42.35768" lon="2.37318">
        <ele>1528.9</ele>
        <time>2019-01-07T00:15:43Z</time>
      </trkpt>
      <trkpt lat="42.3577" lon="2.37317">
        <ele>1529.1</ele>
        <time>2019-01-07T00:15:44Z</time>
      </trkpt>
      <trkpt lat="42.35772" lon="2.37315">
        <ele>1529.3</ele>
        <time>2019-01-07T00:15:44Z</time>
      </trkpt>
      <trkpt lat="42.35774" lon="2.37314">
        <ele>1529.4</ele>
        <time>2019-01-07T00:15:45Z</time>
      </trkpt>
      <trkpt lat="42.35776" lon="2.37313">
        <ele>1529.7</ele>
        <time>2019-01-07T00:15:45Z</time>
      </trkpt>
      <trkpt lat="42.35778" lon="2.37312">
        <ele>1529.9</ele>
        <time>2019-01-07T00:15:46Z</time>
      </trkpt>
      <trkpt lat="42.3578" lon="2.37311">
        <ele>1530.2</ele>
        <time>2019-01-07T00:15:47Z</time>
      </trkpt>
      <trkpt lat="42.35782" lon="2.3731">
        <ele>1530.7</ele>
        <time>2019-01-07T00:15:47Z</time>
      </trkpt>
      <trkpt lat="42.35784" lon="2.3731">
        <ele>1530.9</ele>
        <time>2019-01-07T00:15:48Z</time>
      </trkpt>
      <trkpt lat="42.35786" lon="2.3731">
        <ele>1531.3</ele>
        <time>2019-01-07T00:15:48Z</time>
      </trkpt>
      <trkpt lat="42.35788" lon="2.3731">
        <ele>1531.8</ele>
        <time>2019-01-07T00:15:49Z</time>
      </trkpt>
      <trkpt lat="42.3579" lon="2.3731">
        <ele>1532.1</ele>
        <time>2019-01-07T00:15:49Z</time>
      </trkpt>
      <trkpt lat="42.35792" lon="2.3731">
        <ele>1532.6</ele>
        <time>2019-01-07T00:15:50Z</time>
      </trkpt>
      <trkpt lat="42.35794" lon="2.37311">
        <ele>1533.1</ele>
        <time>2019-01-07T00:15:50Z</time>
      </trkpt>
      <trkpt lat="42.35796" lon="2.37311">
        <ele>1533.6</ele>
        <time>2019-01-07T00:15:51Z</time>
      </trkpt>
      <trkpt lat="42.35798" lon="2.37311">
        <ele>1533.9</ele>
        <time>2019-01-07T00:15:51Z</time>
      </trkpt>
      <trkpt lat="42.358" lon="2.3731">
        <ele>1534</ele>
        <time>2019-01-07T00:15:52Z</time>
      </trkpt>
      <trkpt lat="42.35802" lon="2.3731">
        <ele>1534.4</ele>
        <time>2019-01-07T00:15:53Z</time>
      </trkpt>
      <trkpt lat="42.35804" lon="2.3731">
        <ele>1534.7</ele>
        <time>2019-01-07T00:15:53Z</time>
      </trkpt>
      <trkpt lat="42.35806" lon="2.37309">
        <ele>1535.1</ele>
        <time>2019-01-07T00:15:54Z</time>
      </trkpt>
      <trkpt lat="42.35808" lon="2.37309">
        <ele>1535.2</ele>
        <time>2019-01-07T00:15:54Z</time>
      </trkpt>
      <trkpt lat="42.35809" lon="2.37308">
        <ele>1535.4</ele>
        <time>2019-01-07T00:15:55Z</time>
      </trkpt>
      <trkpt lat="42.35812" lon="2.37307">
        <ele>1535.6</ele>
        <time>2019-01-07T00:15:55Z</time>
      </trkpt>
      <trkpt lat="42.35814" lon="2.37305">
        <ele>1535.4</ele>
        <time>2019-01-07T00:15:56Z</time>
      </trkpt>
      <trkpt lat="42.35816" lon="2.37304">
        <ele>1535.8</ele>
        <time>2019-01-07T00:15:56Z</time>
      </trkpt>
      <trkpt lat="42.35818" lon="2.37302">
        <ele>1536</ele>
        <time>2019-01-07T00:15:57Z</time>
      </trkpt>
      <trkpt lat="42.3582" lon="2.37301">
        <ele>1536.5</ele>
        <time>2019-01-07T00:15:58Z</time>
      </trkpt>
      <trkpt lat="42.35822" lon="2.373">
        <ele>1536.7</ele>
        <time>2019-01-07T00:15:58Z</time>
      </trkpt>
      <trkpt lat="42.35824" lon="2.37299">
        <ele>1537.1</ele>
        <time>2019-01-07T00:15:59Z</time>
      </trkpt>
      <trkpt lat="42.35826" lon="2.37299">
        <ele>1537.4</ele>
        <time>2019-01-07T00:16:00Z</time>
      </trkpt>
      <trkpt lat="42.35828" lon="2.373">
        <ele>1537.8</ele>
        <time>2019-01-07T00:16:00Z</time>
      </trkpt>
      <trkpt lat="42.3583" lon="2.37301">
        <ele>1538.3</ele>
        <time>2019-01-07T00:16:01Z</time>
      </trkpt>
      <trkpt lat="42.35832" lon="2.37302">
        <ele>1538.8</ele>
        <time>2019-01-07T00:16:01Z</time>
      </trkpt>
      <trkpt lat="42.35834" lon="2.37303">
        <ele>1539.2</ele>
        <time>2019-01-07T00:16:02Z</time>
      </trkpt>
      <trkpt lat="42.35837" lon="2.37304">
        <ele>1539.6</ele>
        <time>2019-01-07T00:16:03Z</time>
      </trkpt>
      <trkpt lat="42.35838" lon="2.37306">
        <ele>1540.1</ele>
        <time>2019-01-07T00:16:03Z</time>
      </trkpt>
      <trkpt lat="42.3584" lon="2.37307">
        <ele>1540.7</ele>
        <time>2019-01-07T00:16:04Z</time>
      </trkpt>
      <trkpt lat="42.35842" lon="2.37309">
        <ele>1541.2</ele>
        <time>2019-01-07T00:16:04Z</time>
      </trkpt>
      <trkpt lat="42.35844" lon="2.3731">
        <ele>1541.6</ele>
        <time>2019-01-07T00:16:05Z</time>
      </trkpt>
      <trkpt lat="42.35845" lon="2.37311">
        <ele>1541.9</ele>
        <time>2019-01-07T00:16:05Z</time>
      </trkpt>
      <trkpt lat="42.35847" lon="2.37313">
        <ele>1542.6</ele>
        <time>2019-01-07T00:16:06Z</time>
      </trkpt>
      <trkpt lat="42.35849" lon="2.37314">
        <ele>1542.8</ele>
        <time>2019-01-07T00:16:06Z</time>
      </trkpt>
      <trkpt lat="42.3585" lon="2.37315">
        <ele>1543.1</ele>
        <time>2019-01-07T00:16:07Z</time>
      </trkpt>
      <trkpt lat="42.35852" lon="2.37317">
        <ele>1543.6</ele>
        <time>2019-01-07T00:16:07Z</time>
      </trkpt>
      <trkpt lat="42.35854" lon="2.37318">
        <ele>1544</ele>
        <time>2019-01-07T00:16:08Z</time>
      </trkpt>
      <trkpt lat="42.35855" lon="2.3732">
        <ele>1544.5</ele>
        <time>2019-01-07T00:16:08Z</time>
      </trkpt>
      <trkpt lat="42.35857" lon="2.37322">
        <ele>1544.9</ele>
        <time>2019-01-07T00:16:09Z</time>
      </trkpt>
      <trkpt lat="42.35859" lon="2.37323">
        <ele>1545.2</ele>
        <time>2019-01-07T00:16:10Z</time>
      </trkpt>
      <trkpt lat="42.3586" lon="2.37325">
        <ele>1545.3</ele>
        <time>2019-01-07T00:16:10Z</time>
      </trkpt>
      <trkpt lat="42.35862" lon="2.37327">
        <ele>1545.8</ele>
        <time>2019-01-07T00:16:11Z</time>
      </trkpt>
      <trkpt lat="42.35864" lon="2.37328">
        <ele>1546.4</ele>
        <time>2019-01-07T00:16:11Z</time>
      </trkpt>
      <trkpt lat="42.35865" lon="2.3733">
        <ele>1546.8</ele>
        <time>2019-01-07T00:16:12Z</time>
      </trkpt>
      <trkpt lat="42.35867" lon="2.37332">
        <ele>1547.2</ele>
        <time>2019-01-07T00:16:12Z</time>
      </trkpt>
      <trkpt lat="42.35868" lon="2.37334">
        <ele>1547.6</ele>
        <time>2019-01-07T00:16:13Z</time>
      </trkpt>
      <trkpt lat="42.35871" lon="2.37335">
        <ele>1548.2</ele>
        <time>2019-01-07T00:16:14Z</time>
      </trkpt>
      <trkpt lat="42.35873" lon="2.37336">
        <ele>1548.8</ele>
        <time>2019-01-07T00:16:14Z</time>
      </trkpt>
      <trkpt lat="42.35875" lon="2.37337">
        <ele>1549.2</ele>
        <time>2019-01-07T00:16:15Z</time>
      </trkpt>
      <trkpt lat="42.35876" lon="2.37338">
        <ele>1549.6</ele>
        <time>2019-01-07T00:16:15Z</time>
      </trkpt>
      <trkpt lat="42.35878" lon="2.3734">
        <ele>1550</ele>
        <time>2019-01-07T00:16:16Z</time>
      </trkpt>
      <trkpt lat="42.35881" lon="2.3734">
        <ele>1550.5</ele>
        <time>2019-01-07T00:16:16Z</time>
      </trkpt>
      <trkpt lat="42.35883" lon="2.37341">
        <ele>1551.1</ele>
        <time>2019-01-07T00:16:17Z</time>
      </trkpt>
      <trkpt lat="42.35885" lon="2.37341">
        <ele>1551.5</ele>
        <time>2019-01-07T00:16:18Z</time>
      </trkpt>
      <trkpt lat="42.35887" lon="2.3734">
        <ele>1552</ele>
        <time>2019-01-07T00:16:18Z</time>
      </trkpt>
      <trkpt lat="42.35889" lon="2.3734">
        <ele>1552.3</ele>
        <time>2019-01-07T00:16:19Z</time>
      </trkpt>
      <trkpt lat="42.35891" lon="2.37341">
        <ele>1553</ele>
        <time>2019-01-07T00:16:19Z</time>
      </trkpt>
      <trkpt lat="42.35893" lon="2.37342">
        <ele>1553.7</ele>
        <time>2019-01-07T00:16:20Z</time>
      </trkpt>
      <trkpt lat="42.35895" lon="2.37344">
        <ele>1554.3</ele>
        <time>2019-01-07T00:16:21Z</time>
      </trkpt>
      <trkpt lat="42.35897" lon="2.37344">
        <ele>1555</ele>
        <time>2019-01-07T00:16:21Z</time>
      </trkpt>
      <trkpt lat="42.359" lon="2.37344">
        <ele>1555.8</ele>
        <time>2019-01-07T00:16:22Z</time>
      </trkpt>
      <trkpt lat="42.35902" lon="2.37344">
        <ele>1556.6</ele>
        <time>2019-01-07T00:16:22Z</time>
      </trkpt>
      <trkpt lat="42.35903" lon="2.37342">
        <ele>1556.8</ele>
        <time>2019-01-07T00:16:23Z</time>
      </trkpt>
      <trkpt lat="42.35904" lon="2.3734">
        <ele>1557.1</ele>
        <time>2019-01-07T00:16:23Z</time>
      </trkpt>
      <trkpt lat="42.35907" lon="2.37338">
        <ele>1557.6</ele>
        <time>2019-01-07T00:16:24Z</time>
      </trkpt>
      <trkpt lat="42.35909" lon="2.37336">
        <ele>1558.2</ele>
        <time>2019-01-07T00:16:25Z</time>
      </trkpt>
      <trkpt lat="42.35911" lon="2.37335">
        <ele>1558.6</ele>
        <time>2019-01-07T00:16:25Z</time>
      </trkpt>
      <trkpt lat="42.35913" lon="2.37333">
        <ele>1558.9</ele>
        <time>2019-01-07T00:16:26Z</time>
      </trkpt>
      <trkpt lat="42.35914" lon="2.37332">
        <ele>1559.3</ele>
        <time>2019-01-07T00:16:27Z</time>
      </trkpt>
      <trkpt lat="42.35916" lon="2.37329">
        <ele>1559.7</ele>
        <time>2019-01-07T00:16:27Z</time>
      </trkpt>
      <trkpt lat="42.35918" lon="2.37327">
        <ele>1559.7</ele>
        <time>2019-01-07T00:16:28Z</time>
      </trkpt>
      <trkpt lat="42.3592" lon="2.37326">
        <ele>1559.6</ele>
        <time>2019-01-07T00:16:28Z</time>
      </trkpt>
      <trkpt lat="42.35922" lon="2.37325">
        <ele>1559.5</ele>
        <time>2019-01-07T00:16:29Z</time>
      </trkpt>
      <trkpt lat="42.35925" lon="2.37325">
        <ele>1559.4</ele>
        <time>2019-01-07T00:16:30Z</time>
      </trkpt>
      <trkpt lat="42.35926" lon="2.37327">
        <ele>1559.4</ele>
        <time>2019-01-07T00:16:30Z</time>
      </trkpt>
      <trkpt lat="42.35928" lon="2.37328">
        <ele>1559.7</ele>
        <time>2019-01-07T00:16:31Z</time>
      </trkpt>
      <trkpt lat="42.35929" lon="2.37331">
        <ele>1560.2</ele>
        <time>2019-01-07T00:16:31Z</time>
      </trkpt>
      <trkpt lat="42.3593" lon="2.37334">
        <ele>1560.8</ele>
        <time>2019-01-07T00:16:32Z</time>
      </trkpt>
      <trkpt lat="42.35931" lon="2.37337">
        <ele>1561.2</ele>
        <time>2019-01-07T00:16:33Z</time>
      </trkpt>
      <trkpt lat="42.35932" lon="2.3734">
        <ele>1561.7</ele>
        <time>2019-01-07T00:16:33Z</time>
      </trkpt>
      <trkpt lat="42.35932" lon="2.37343">
        <ele>1562.2</ele>
        <time>2019-01-07T00:16:34Z</time>
      </trkpt>
      <trkpt lat="42.35933" lon="2.37346">
        <ele>1562.7</ele>
        <time>2019-01-07T00:16:35Z</time>
      </trkpt>
      <trkpt lat="42.35933" lon="2.3735">
        <ele>1563.4</ele>
        <time>2019-01-07T00:16:35Z</time>
      </trkpt>
      <trkpt lat="42.35933" lon="2.37353">
        <ele>1563.9</ele>
        <time>2019-01-07T00:16:36Z</time>
      </trkpt>
      <trkpt lat="42.35933" lon="2.37356">
        <ele>1564.6</ele>
        <time>2019-01-07T00:16:36Z</time>
      </trkpt>
      <trkpt lat="42.35933" lon="2.37359">
        <ele>1565.1</ele>
        <time>2019-01-07T00:16:37Z</time>
      </trkpt>
      <trkpt lat="42.35933" lon="2.37362">
        <ele>1565.6</ele>
        <time>2019-01-07T00:16:38Z</time>
      </trkpt>
      <trkpt lat="42.35934" lon="2.37365">
        <ele>1566</ele>
        <time>2019-01-07T00:16:38Z</time>
      </trkpt>
      <trkpt lat="42.35934" lon="2.37368">
        <ele>1566.3</ele>
        <time>2019-01-07T00:16:39Z</time>
      </trkpt>
      <trkpt lat="42.35935" lon="2.37371">
        <ele>1566.9</ele>
        <time>2019-01-07T00:16:39Z</time>
      </trkpt>
      <trkpt lat="42.35936" lon="2.37374">
        <ele>1567.2</ele>
        <time>2019-01-07T00:16:40Z</time>
      </trkpt>
      <trkpt lat="42.35936" lon="2.37377">
        <ele>1567.9</ele>
        <time>2019-01-07T00:16:41Z</time>
      </trkpt>
      <trkpt lat="42.35937" lon="2.3738">
        <ele>1568.2</ele>
        <time>2019-01-07T00:16:41Z</time>
      </trkpt>
      <trkpt lat="42.35938" lon="2.37383">
        <ele>1568.7</ele>
        <time>2019-01-07T00:16:42Z</time>
      </trkpt>
      <trkpt lat="42.35938" lon="2.37386">
        <ele>1569.3</ele>
        <time>2019-01-07T00:16:43Z</time>
      </trkpt>
      <trkpt lat="42.35939" lon="2.37388">
        <ele>1570</ele>
        <time>2019-01-07T00:16:43Z</time>
      </trkpt>
      <trkpt lat="42.35941" lon="2.37391">
        <ele>1570.4</ele>
        <time>2019-01-07T00:16:44Z</time>
      </trkpt>
      <trkpt lat="42.35941" lon="2.37394">
        <ele>1570.5</ele>
        <time>2019-01-07T00:16:44Z</time>
      </trkpt>
      <trkpt lat="42.35942" lon="2.37396">
        <ele>1570.9</ele>
        <time>2019-01-07T00:16:45Z</time>
      </trkpt>
      <trkpt lat="42.35944" lon="2.37398">
        <ele>1571.5</ele>
        <time>2019-01-07T00:16:46Z</time>
      </trkpt>
      <trkpt lat="42.35945" lon="2.374">
        <ele>1571.6</ele>
        <time>2019-01-07T00:16:46Z</time>
      </trkpt>
      <trkpt lat="42.35947" lon="2.37399">
        <ele>1571.7</ele>
        <time>2019-01-07T00:16:47Z</time>
      </trkpt>
      <trkpt lat="42.35949" lon="2.37397">
        <ele>1571.8</ele>
        <time>2019-01-07T00:16:47Z</time>
      </trkpt>
      <trkpt lat="42.35951" lon="2.37399">
        <ele>1572.1</ele>
        <time>2019-01-07T00:16:48Z</time>
      </trkpt>
      <trkpt lat="42.35951" lon="2.37402">
        <ele>1572.3</ele>
        <time>2019-01-07T00:16:48Z</time>
      </trkpt>
      <trkpt lat="42.35952" lon="2.37404">
        <ele>1572.3</ele>
        <time>2019-01-07T00:16:49Z</time>
      </trkpt>
      <trkpt lat="42.35953" lon="2.37407">
        <ele>1572.4</ele>
        <time>2019-01-07T00:16:50Z</time>
      </trkpt>
      <trkpt lat="42.35953" lon="2.3741">
        <ele>1572.7</ele>
        <time>2019-01-07T00:16:50Z</time>
      </trkpt>
      <trkpt lat="42.35954" lon="2.37412">
        <ele>1572.9</ele>
        <time>2019-01-07T00:16:51Z</time>
      </trkpt>
      <trkpt lat="42.35956" lon="2.37413">
        <ele>1573.1</ele>
        <time>2019-01-07T00:16:51Z</time>
      </trkpt>
      <trkpt lat="42.35958" lon="2.37414">
        <ele>1573.5</ele>
        <time>2019-01-07T00:16:52Z</time>
      </trkpt>
      <trkpt lat="42.3596" lon="2.37415">
        <ele>1573.7</ele>
        <time>2019-01-07T00:16:52Z</time>
      </trkpt>
      <trkpt lat="42.35962" lon="2.37416">
        <ele>1574</ele>
        <time>2019-01-07T00:16:53Z</time>
      </trkpt>
      <trkpt lat="42.35964" lon="2.37418">
        <ele>1574.4</ele>
        <time>2019-01-07T00:16:53Z</time>
      </trkpt>
      <trkpt lat="42.35965" lon="2.37421">
        <ele>1574.9</ele>
        <time>2019-01-07T00:16:54Z</time>
      </trkpt>
      <trkpt lat="42.35966" lon="2.37423">
        <ele>1575.2</ele>
        <time>2019-01-07T00:16:55Z</time>
      </trkpt>
      <trkpt lat="42.35968" lon="2.37425">
        <ele>1575.8</ele>
        <time>2019-01-07T00:16:55Z</time>
      </trkpt>
      <trkpt lat="42.3597" lon="2.37427">
        <ele>1576.4</ele>
        <time>2019-01-07T00:16:56Z</time>
      </trkpt>
      <trkpt lat="42.35971" lon="2.37429">
        <ele>1577</ele>
        <time>2019-01-07T00:16:56Z</time>
      </trkpt>
      <trkpt lat="42.35973" lon="2.37431">
        <ele>1577.7</ele>
        <time>2019-01-07T00:16:57Z</time>
      </trkpt>
      <trkpt lat="42.35974" lon="2.37433">
        <ele>1578.2</ele>
        <time>2019-01-07T00:16:58Z</time>
      </trkpt>
      <trkpt lat="42.35974" lon="2.37436">
        <ele>1578.8</ele>
        <time>2019-01-07T00:16:58Z</time>
      </trkpt>
      <trkpt lat="42.35975" lon="2.37438">
        <ele>1579.4</ele>
        <time>2019-01-07T00:16:59Z</time>
      </trkpt>
      <trkpt lat="42.35976" lon="2.37441">
        <ele>1580</ele>
        <time>2019-01-07T00:16:59Z</time>
      </trkpt>
      <trkpt lat="42.35977" lon="2.37444">
        <ele>1580.7</ele>
        <time>2019-01-07T00:17:00Z</time>
      </trkpt>
      <trkpt lat="42.35979" lon="2.37446">
        <ele>1581.4</ele>
        <time>2019-01-07T00:17:00Z</time>
      </trkpt>
      <trkpt lat="42.35981" lon="2.37448">
        <ele>1582.1</ele>
        <time>2019-01-07T00:17:01Z</time>
      </trkpt>
      <trkpt lat="42.35983" lon="2.3745">
        <ele>1582.7</ele>
        <time>2019-01-07T00:17:02Z</time>
      </trkpt>
      <trkpt lat="42.35985" lon="2.37451">
        <ele>1583.3</ele>
        <time>2019-01-07T00:17:02Z</time>
      </trkpt>
      <trkpt lat="42.35987" lon="2.37453">
        <ele>1583.8</ele>
        <time>2019-01-07T00:17:03Z</time>
      </trkpt>
      <trkpt lat="42.35989" lon="2.37455">
        <ele>1584.5</ele>
        <time>2019-01-07T00:17:04Z</time>
      </trkpt>
      <trkpt lat="42.3599" lon="2.37456">
        <ele>1585.3</ele>
        <time>2019-01-07T00:17:04Z</time>
      </trkpt>
      <trkpt lat="42.35992" lon="2.37456">
        <ele>1585.4</ele>
        <time>2019-01-07T00:17:05Z</time>
      </trkpt>
      <trkpt lat="42.35994" lon="2.37456">
        <ele>1585.8</ele>
        <time>2019-01-07T00:17:05Z</time>
      </trkpt>
      <trkpt lat="42.35996" lon="2.37457">
        <ele>1586.4</ele>
        <time>2019-01-07T00:17:06Z</time>
      </trkpt>
      <trkpt lat="42.35998" lon="2.37458">
        <ele>1587.1</ele>
        <time>2019-01-07T00:17:06Z</time>
      </trkpt>
      <trkpt lat="42.36001" lon="2.37459">
        <ele>1587.6</ele>
        <time>2019-01-07T00:17:07Z</time>
      </trkpt>
      <trkpt lat="42.36003" lon="2.37459">
        <ele>1588</ele>
        <time>2019-01-07T00:17:08Z</time>
      </trkpt>
      <trkpt lat="42.36005" lon="2.3746">
        <ele>1588.4</ele>
        <time>2019-01-07T00:17:08Z</time>
      </trkpt>
      <trkpt lat="42.36007" lon="2.37461">
        <ele>1588.8</ele>
        <time>2019-01-07T00:17:09Z</time>
      </trkpt>
      <trkpt lat="42.36009" lon="2.37463">
        <ele>1589.3</ele>
        <time>2019-01-07T00:17:09Z</time>
      </trkpt>
      <trkpt lat="42.36011" lon="2.37464">
        <ele>1589.7</ele>
        <time>2019-01-07T00:17:10Z</time>
      </trkpt>
      <trkpt lat="42.36013" lon="2.37467">
        <ele>1590.5</ele>
        <time>2019-01-07T00:17:11Z</time>
      </trkpt>
      <trkpt lat="42.36014" lon="2.37469">
        <ele>1591.3</ele>
        <time>2019-01-07T00:17:11Z</time>
      </trkpt>
      <trkpt lat="42.36015" lon="2.37472">
        <ele>1592</ele>
        <time>2019-01-07T00:17:12Z</time>
      </trkpt>
      <trkpt lat="42.36017" lon="2.37474">
        <ele>1592.8</ele>
        <time>2019-01-07T00:17:13Z</time>
      </trkpt>
      <trkpt lat="42.36019" lon="2.37477">
        <ele>1593.5</ele>
        <time>2019-01-07T00:17:13Z</time>
      </trkpt>
      <trkpt lat="42.3602" lon="2.37479">
        <ele>1594.2</ele>
        <time>2019-01-07T00:17:14Z</time>
      </trkpt>
      <trkpt lat="42.36022" lon="2.37481">
        <ele>1594.7</ele>
        <time>2019-01-07T00:17:15Z</time>
      </trkpt>
      <trkpt lat="42.36024" lon="2.37484">
        <ele>1595.5</ele>
        <time>2019-01-07T00:17:15Z</time>
      </trkpt>
      <trkpt lat="42.36025" lon="2.37486">
        <ele>1596.3</ele>
        <time>2019-01-07T00:17:16Z</time>
      </trkpt>
      <trkpt lat="42.36027" lon="2.37488">
        <ele>1597</ele>
        <time>2019-01-07T00:17:16Z</time>
      </trkpt>
      <trkpt lat="42.36028" lon="2.37491">
        <ele>1597.7</ele>
        <time>2019-01-07T00:17:17Z</time>
      </trkpt>
      <trkpt lat="42.36029" lon="2.37493">
        <ele>1598.2</ele>
        <time>2019-01-07T00:17:17Z</time>
      </trkpt>
      <trkpt lat="42.36029" lon="2.37495">
        <ele>1598.9</ele>
        <time>2019-01-07T00:17:18Z</time>
      </trkpt>
      <trkpt lat="42.36031" lon="2.37498">
        <ele>1599.6</ele>
        <time>2019-01-07T00:17:19Z</time>
      </trkpt>
      <trkpt lat="42.36033" lon="2.375">
        <ele>1600.5</ele>
        <time>2019-01-07T00:17:19Z</time>
      </trkpt>
      <trkpt lat="42.36034" lon="2.37502">
        <ele>1600.9</ele>
        <time>2019-01-07T00:17:20Z</time>
      </trkpt>
      <trkpt lat="42.36035" lon="2.37504">
        <ele>1601.5</ele>
        <time>2019-01-07T00:17:20Z</time>
      </trkpt>
      <trkpt lat="42.36037" lon="2.37507">
        <ele>1602.1</ele>
        <time>2019-01-07T00:17:21Z</time>
      </trkpt>
      <trkpt lat="42.36038" lon="2.37509">
        <ele>1602.9</ele>
        <time>2019-01-07T00:17:22Z</time>
      </trkpt>
      <trkpt lat="42.36039" lon="2.37511">
        <ele>1603.3</ele>
        <time>2019-01-07T00:17:22Z</time>
      </trkpt>
      <trkpt lat="42.3604" lon="2.37513">
        <ele>1603.9</ele>
        <time>2019-01-07T00:17:23Z</time>
      </trkpt>
      <trkpt lat="42.36042" lon="2.37515">
        <ele>1604.5</ele>
        <time>2019-01-07T00:17:23Z</time>
      </trkpt>
      <trkpt lat="42.36043" lon="2.37518">
        <ele>1605</ele>
        <time>2019-01-07T00:17:24Z</time>
      </trkpt>
      <trkpt lat="42.36045" lon="2.3752">
        <ele>1605.5</ele>
        <time>2019-01-07T00:17:24Z</time>
      </trkpt>
      <trkpt lat="42.36046" lon="2.37523">
        <ele>1606.2</ele>
        <time>2019-01-07T00:17:25Z</time>
      </trkpt>
      <trkpt lat="42.36048" lon="2.37525">
        <ele>1607.1</ele>
        <time>2019-01-07T00:17:26Z</time>
      </trkpt>
      <trkpt lat="42.36049" lon="2.37527">
        <ele>1607.5</ele>
        <time>2019-01-07T00:17:26Z</time>
      </trkpt>
      <trkpt lat="42.36051" lon="2.37529">
        <ele>1608</ele>
        <time>2019-01-07T00:17:27Z</time>
      </trkpt>
      <trkpt lat="42.36052" lon="2.37531">
        <ele>1608.3</ele>
        <time>2019-01-07T00:17:27Z</time>
      </trkpt>
      <trkpt lat="42.36054" lon="2.37532">
        <ele>1608.8</ele>
        <time>2019-01-07T00:17:28Z</time>
      </trkpt>
      <trkpt lat="42.36056" lon="2.37534">
        <ele>1609.2</ele>
        <time>2019-01-07T00:17:28Z</time>
      </trkpt>
      <trkpt lat="42.36057" lon="2.37535">
        <ele>1609.5</ele>
        <time>2019-01-07T00:17:29Z</time>
      </trkpt>
      <trkpt lat="42.36059" lon="2.37536">
        <ele>1609.9</ele>
        <time>2019-01-07T00:17:29Z</time>
      </trkpt>
      <trkpt lat="42.36061" lon="2.37537">
        <ele>1610.3</ele>
        <time>2019-01-07T00:17:30Z</time>
      </trkpt>
      <trkpt lat="42.36063" lon="2.37538">
        <ele>1610.6</ele>
        <time>2019-01-07T00:17:30Z</time>
      </trkpt>
      <trkpt lat="42.36065" lon="2.37538">
        <ele>1610.8</ele>
        <time>2019-01-07T00:17:31Z</time>
      </trkpt>
      <trkpt lat="42.36067" lon="2.37539">
        <ele>1611.1</ele>
        <time>2019-01-07T00:17:32Z</time>
      </trkpt>
      <trkpt lat="42.36067" lon="2.37541">
        <ele>1611.5</ele>
        <time>2019-01-07T00:17:32Z</time>
      </trkpt>
      <trkpt lat="42.36067" lon="2.37542">
        <ele>1611.7</ele>
        <time>2019-01-07T00:17:32Z</time>
      </trkpt>
      <trkpt lat="42.36067" lon="2.37543">
        <ele>1611.9</ele>
        <time>2019-01-07T00:17:32Z</time>
      </trkpt>
      <trkpt lat="42.36068" lon="2.37546">
        <ele>1612.4</ele>
        <time>2019-01-07T00:17:33Z</time>
      </trkpt>
      <trkpt lat="42.36069" lon="2.37548">
        <ele>1612.8</ele>
        <time>2019-01-07T00:17:33Z</time>
      </trkpt>
      <trkpt lat="42.3607" lon="2.37551">
        <ele>1613.3</ele>
        <time>2019-01-07T00:17:34Z</time>
      </trkpt>
      <trkpt lat="42.36071" lon="2.37553">
        <ele>1614</ele>
        <time>2019-01-07T00:17:35Z</time>
      </trkpt>
      <trkpt lat="42.36072" lon="2.37557">
        <ele>1614.3</ele>
        <time>2019-01-07T00:17:35Z</time>
      </trkpt>
      <trkpt lat="42.36073" lon="2.37559">
        <ele>1614.6</ele>
        <time>2019-01-07T00:17:36Z</time>
      </trkpt>
      <trkpt lat="42.36073" lon="2.37561">
        <ele>1614.8</ele>
        <time>2019-01-07T00:17:36Z</time>
      </trkpt>
      <trkpt lat="42.36073" lon="2.37565">
        <ele>1615.1</ele>
        <time>2019-01-07T00:17:37Z</time>
      </trkpt>
      <trkpt lat="42.36074" lon="2.37568">
        <ele>1615.5</ele>
        <time>2019-01-07T00:17:38Z</time>
      </trkpt>
      <trkpt lat="42.36074" lon="2.37571">
        <ele>1615.9</ele>
        <time>2019-01-07T00:17:38Z</time>
      </trkpt>
      <trkpt lat="42.36074" lon="2.37573">
        <ele>1616.2</ele>
        <time>2019-01-07T00:17:39Z</time>
      </trkpt>
      <trkpt lat="42.36075" lon="2.37576">
        <ele>1616.5</ele>
        <time>2019-01-07T00:17:39Z</time>
      </trkpt>
      <trkpt lat="42.36076" lon="2.37578">
        <ele>1616.8</ele>
        <time>2019-01-07T00:17:40Z</time>
      </trkpt>
      <trkpt lat="42.36077" lon="2.3758">
        <ele>1617</ele>
        <time>2019-01-07T00:17:40Z</time>
      </trkpt>
      <trkpt lat="42.3608" lon="2.37581">
        <ele>1617.5</ele>
        <time>2019-01-07T00:17:41Z</time>
      </trkpt>
      <trkpt lat="42.36082" lon="2.37583">
        <ele>1617.9</ele>
        <time>2019-01-07T00:17:42Z</time>
      </trkpt>
      <trkpt lat="42.36084" lon="2.37584">
        <ele>1618.1</ele>
        <time>2019-01-07T00:17:42Z</time>
      </trkpt>
      <trkpt lat="42.36086" lon="2.37584">
        <ele>1618.3</ele>
        <time>2019-01-07T00:17:43Z</time>
      </trkpt>
      <trkpt lat="42.36088" lon="2.37584">
        <ele>1618.2</ele>
        <time>2019-01-07T00:17:44Z</time>
      </trkpt>
      <trkpt lat="42.36091" lon="2.37584">
        <ele>1618.2</ele>
        <time>2019-01-07T00:17:44Z</time>
      </trkpt>
      <trkpt lat="42.36093" lon="2.37585">
        <ele>1618.3</ele>
        <time>2019-01-07T00:17:45Z</time>
      </trkpt>
      <trkpt lat="42.36096" lon="2.37585">
        <ele>1618.6</ele>
        <time>2019-01-07T00:17:45Z</time>
      </trkpt>
      <trkpt lat="42.36098" lon="2.37586">
        <ele>1618.5</ele>
        <time>2019-01-07T00:17:46Z</time>
      </trkpt>
      <trkpt lat="42.361" lon="2.37588">
        <ele>1618.6</ele>
        <time>2019-01-07T00:17:47Z</time>
      </trkpt>
      <trkpt lat="42.36103" lon="2.37589">
        <ele>1618.4</ele>
        <time>2019-01-07T00:17:47Z</time>
      </trkpt>
      <trkpt lat="42.36105" lon="2.3759">
        <ele>1618.6</ele>
        <time>2019-01-07T00:17:48Z</time>
      </trkpt>
      <trkpt lat="42.36108" lon="2.3759">
        <ele>1618.7</ele>
        <time>2019-01-07T00:17:49Z</time>
      </trkpt>
      <trkpt lat="42.3611" lon="2.3759">
        <ele>1618.8</ele>
        <time>2019-01-07T00:17:50Z</time>
      </trkpt>
      <trkpt lat="42.36113" lon="2.3759">
        <ele>1618.9</ele>
        <time>2019-01-07T00:17:50Z</time>
      </trkpt>
      <trkpt lat="42.36115" lon="2.3759">
        <ele>1618.8</ele>
        <time>2019-01-07T00:17:51Z</time>
      </trkpt>
      <trkpt lat="42.36117" lon="2.37589">
        <ele>1618.8</ele>
        <time>2019-01-07T00:17:51Z</time>
      </trkpt>
      <trkpt lat="42.3612" lon="2.37588">
        <ele>1618.7</ele>
        <time>2019-01-07T00:17:52Z</time>
      </trkpt>
      <trkpt lat="42.36123" lon="2.37588">
        <ele>1618.6</ele>
        <time>2019-01-07T00:17:53Z</time>
      </trkpt>
      <trkpt lat="42.36125" lon="2.37587">
        <ele>1618.7</ele>
        <time>2019-01-07T00:17:54Z</time>
      </trkpt>
      <trkpt lat="42.36127" lon="2.37585">
        <ele>1618.6</ele>
        <time>2019-01-07T00:17:54Z</time>
      </trkpt>
      <trkpt lat="42.36129" lon="2.37583">
        <ele>1618.4</ele>
        <time>2019-01-07T00:17:55Z</time>
      </trkpt>
      <trkpt lat="42.36132" lon="2.37582">
        <ele>1618.2</ele>
        <time>2019-01-07T00:17:56Z</time>
      </trkpt>
      <trkpt lat="42.36134" lon="2.37582">
        <ele>1618.2</ele>
        <time>2019-01-07T00:17:56Z</time>
      </trkpt>
      <trkpt lat="42.36136" lon="2.37583">
        <ele>1618.2</ele>
        <time>2019-01-07T00:17:57Z</time>
      </trkpt>
      <trkpt lat="42.36137" lon="2.37585">
        <ele>1618.3</ele>
        <time>2019-01-07T00:17:57Z</time>
      </trkpt>
      <trkpt lat="42.3614" lon="2.37586">
        <ele>1618.5</ele>
        <time>2019-01-07T00:17:58Z</time>
      </trkpt>
      <trkpt lat="42.36142" lon="2.37587">
        <ele>1618.7</ele>
        <time>2019-01-07T00:17:59Z</time>
      </trkpt>
      <trkpt lat="42.36144" lon="2.37589">
        <ele>1619.1</ele>
        <time>2019-01-07T00:17:59Z</time>
      </trkpt>
      <trkpt lat="42.36145" lon="2.37591">
        <ele>1619.3</ele>
        <time>2019-01-07T00:18:00Z</time>
      </trkpt>
      <trkpt lat="42.36147" lon="2.37592">
        <ele>1619.7</ele>
        <time>2019-01-07T00:18:00Z</time>
      </trkpt>
      <trkpt lat="42.36149" lon="2.37593">
        <ele>1620.1</ele>
        <time>2019-01-07T00:18:01Z</time>
      </trkpt>
      <trkpt lat="42.36151" lon="2.37594">
        <ele>1620.4</ele>
        <time>2019-01-07T00:18:01Z</time>
      </trkpt>
      <trkpt lat="42.36153" lon="2.37594">
        <ele>1620.8</ele>
        <time>2019-01-07T00:18:02Z</time>
      </trkpt>
      <trkpt lat="42.36155" lon="2.37595">
        <ele>1621.1</ele>
        <time>2019-01-07T00:18:02Z</time>
      </trkpt>
      <trkpt lat="42.36157" lon="2.37596">
        <ele>1621.5</ele>
        <time>2019-01-07T00:18:03Z</time>
      </trkpt>
      <trkpt lat="42.36159" lon="2.37597">
        <ele>1621.9</ele>
        <time>2019-01-07T00:18:04Z</time>
      </trkpt>
      <trkpt lat="42.36161" lon="2.37598">
        <ele>1622.4</ele>
        <time>2019-01-07T00:18:04Z</time>
      </trkpt>
      <trkpt lat="42.36163" lon="2.37599">
        <ele>1622.8</ele>
        <time>2019-01-07T00:18:05Z</time>
      </trkpt>
      <trkpt lat="42.36165" lon="2.37599">
        <ele>1623.2</ele>
        <time>2019-01-07T00:18:05Z</time>
      </trkpt>
      <trkpt lat="42.36167" lon="2.376">
        <ele>1623.5</ele>
        <time>2019-01-07T00:18:06Z</time>
      </trkpt>
      <trkpt lat="42.36169" lon="2.37601">
        <ele>1623.8</ele>
        <time>2019-01-07T00:18:07Z</time>
      </trkpt>
      <trkpt lat="42.36171" lon="2.37601">
        <ele>1624.1</ele>
        <time>2019-01-07T00:18:07Z</time>
      </trkpt>
      <trkpt lat="42.36173" lon="2.37603">
        <ele>1624.6</ele>
        <time>2019-01-07T00:18:08Z</time>
      </trkpt>
      <trkpt lat="42.36176" lon="2.37604">
        <ele>1625.1</ele>
        <time>2019-01-07T00:18:08Z</time>
      </trkpt>
      <trkpt lat="42.36178" lon="2.37604">
        <ele>1625.3</ele>
        <time>2019-01-07T00:18:09Z</time>
      </trkpt>
      <trkpt lat="42.36179" lon="2.37605">
        <ele>1625.7</ele>
        <time>2019-01-07T00:18:09Z</time>
      </trkpt>
      <trkpt lat="42.36181" lon="2.37606">
        <ele>1626</ele>
        <time>2019-01-07T00:18:10Z</time>
      </trkpt>
      <trkpt lat="42.36183" lon="2.37607">
        <ele>1626.1</ele>
        <time>2019-01-07T00:18:10Z</time>
      </trkpt>
      <trkpt lat="42.36185" lon="2.37607">
        <ele>1626.5</ele>
        <time>2019-01-07T00:18:11Z</time>
      </trkpt>
      <trkpt lat="42.36187" lon="2.37609">
        <ele>1626.9</ele>
        <time>2019-01-07T00:18:12Z</time>
      </trkpt>
      <trkpt lat="42.36189" lon="2.3761">
        <ele>1627.5</ele>
        <time>2019-01-07T00:18:12Z</time>
      </trkpt>
      <trkpt lat="42.36191" lon="2.37611">
        <ele>1627.6</ele>
        <time>2019-01-07T00:18:13Z</time>
      </trkpt>
      <trkpt lat="42.36193" lon="2.37612">
        <ele>1627.9</ele>
        <time>2019-01-07T00:18:13Z</time>
      </trkpt>
      <trkpt lat="42.36195" lon="2.37613">
        <ele>1628.2</ele>
        <time>2019-01-07T00:18:14Z</time>
      </trkpt>
      <trkpt lat="42.36197" lon="2.37614">
        <ele>1628.4</ele>
        <time>2019-01-07T00:18:14Z</time>
      </trkpt>
      <trkpt lat="42.36199" lon="2.37615">
        <ele>1628.6</ele>
        <time>2019-01-07T00:18:15Z</time>
      </trkpt>
      <trkpt lat="42.36201" lon="2.37616">
        <ele>1628.9</ele>
        <time>2019-01-07T00:18:16Z</time>
      </trkpt>
      <trkpt lat="42.36203" lon="2.37617">
        <ele>1629.2</ele>
        <time>2019-01-07T00:18:16Z</time>
      </trkpt>
      <trkpt lat="42.36205" lon="2.37617">
        <ele>1629.3</ele>
        <time>2019-01-07T00:18:17Z</time>
      </trkpt>
      <trkpt lat="42.36207" lon="2.37617">
        <ele>1629.6</ele>
        <time>2019-01-07T00:18:17Z</time>
      </trkpt>
      <trkpt lat="42.36209" lon="2.37617">
        <ele>1629.6</ele>
        <time>2019-01-07T00:18:18Z</time>
      </trkpt>
      <trkpt lat="42.36212" lon="2.37617">
        <ele>1629.8</ele>
        <time>2019-01-07T00:18:18Z</time>
      </trkpt>
      <trkpt lat="42.36214" lon="2.37616">
        <ele>1630</ele>
        <time>2019-01-07T00:18:19Z</time>
      </trkpt>
      <trkpt lat="42.36216" lon="2.37616">
        <ele>1630.2</ele>
        <time>2019-01-07T00:18:20Z</time>
      </trkpt>
      <trkpt lat="42.36218" lon="2.37616">
        <ele>1630.2</ele>
        <time>2019-01-07T00:18:20Z</time>
      </trkpt>
      <trkpt lat="42.3622" lon="2.37616">
        <ele>1630.4</ele>
        <time>2019-01-07T00:18:21Z</time>
      </trkpt>
      <trkpt lat="42.36223" lon="2.37616">
        <ele>1630.7</ele>
        <time>2019-01-07T00:18:21Z</time>
      </trkpt>
      <trkpt lat="42.36224" lon="2.37616">
        <ele>1630.9</ele>
        <time>2019-01-07T00:18:22Z</time>
      </trkpt>
      <trkpt lat="42.36227" lon="2.37617">
        <ele>1631.3</ele>
        <time>2019-01-07T00:18:22Z</time>
      </trkpt>
      <trkpt lat="42.36229" lon="2.37617">
        <ele>1631.4</ele>
        <time>2019-01-07T00:18:23Z</time>
      </trkpt>
      <trkpt lat="42.36231" lon="2.37618">
        <ele>1631.6</ele>
        <time>2019-01-07T00:18:24Z</time>
      </trkpt>
      <trkpt lat="42.36233" lon="2.37619">
        <ele>1632.1</ele>
        <time>2019-01-07T00:18:24Z</time>
      </trkpt>
      <trkpt lat="42.36236" lon="2.3762">
        <ele>1632.3</ele>
        <time>2019-01-07T00:18:25Z</time>
      </trkpt>
      <trkpt lat="42.36238" lon="2.3762">
        <ele>1632.6</ele>
        <time>2019-01-07T00:18:25Z</time>
      </trkpt>
      <trkpt lat="42.3624" lon="2.37621">
        <ele>1632.8</ele>
        <time>2019-01-07T00:18:26Z</time>
      </trkpt>
      <trkpt lat="42.36241" lon="2.37622">
        <ele>1633</ele>
        <time>2019-01-07T00:18:27Z</time>
      </trkpt>
      <trkpt lat="42.36244" lon="2.37623">
        <ele>1633.2</ele>
        <time>2019-01-07T00:18:27Z</time>
      </trkpt>
      <trkpt lat="42.36246" lon="2.37623">
        <ele>1633.4</ele>
        <time>2019-01-07T00:18:28Z</time>
      </trkpt>
      <trkpt lat="42.36248" lon="2.37623">
        <ele>1633.6</ele>
        <time>2019-01-07T00:18:28Z</time>
      </trkpt>
      <trkpt lat="42.3625" lon="2.37623">
        <ele>1633.9</ele>
        <time>2019-01-07T00:18:29Z</time>
      </trkpt>
      <trkpt lat="42.36252" lon="2.37624">
        <ele>1634.4</ele>
        <time>2019-01-07T00:18:29Z</time>
      </trkpt>
      <trkpt lat="42.36254" lon="2.37624">
        <ele>1634.6</ele>
        <time>2019-01-07T00:18:30Z</time>
      </trkpt>
      <trkpt lat="42.36256" lon="2.37624">
        <ele>1635</ele>
        <time>2019-01-07T00:18:30Z</time>
      </trkpt>
      <trkpt lat="42.36258" lon="2.37624">
        <ele>1635.3</ele>
        <time>2019-01-07T00:18:31Z</time>
      </trkpt>
      <trkpt lat="42.3626" lon="2.37624">
        <ele>1635.6</ele>
        <time>2019-01-07T00:18:31Z</time>
      </trkpt>
      <trkpt lat="42.36262" lon="2.37625">
        <ele>1636.2</ele>
        <time>2019-01-07T00:18:32Z</time>
      </trkpt>
      <trkpt lat="42.36265" lon="2.37625">
        <ele>1636.4</ele>
        <time>2019-01-07T00:18:33Z</time>
      </trkpt>
      <trkpt lat="42.36267" lon="2.37625">
        <ele>1636.7</ele>
        <time>2019-01-07T00:18:33Z</time>
      </trkpt>
      <trkpt lat="42.36269" lon="2.37624">
        <ele>1637</ele>
        <time>2019-01-07T00:18:34Z</time>
      </trkpt>
      <trkpt lat="42.36271" lon="2.37624">
        <ele>1637.3</ele>
        <time>2019-01-07T00:18:34Z</time>
      </trkpt>
      <trkpt lat="42.36273" lon="2.37624">
        <ele>1637.8</ele>
        <time>2019-01-07T00:18:35Z</time>
      </trkpt>
      <trkpt lat="42.36275" lon="2.37624">
        <ele>1638.1</ele>
        <time>2019-01-07T00:18:36Z</time>
      </trkpt>
      <trkpt lat="42.36277" lon="2.37624">
        <ele>1638.3</ele>
        <time>2019-01-07T00:18:36Z</time>
      </trkpt>
      <trkpt lat="42.36279" lon="2.37624">
        <ele>1638.7</ele>
        <time>2019-01-07T00:18:37Z</time>
      </trkpt>
      <trkpt lat="42.36281" lon="2.37624">
        <ele>1639</ele>
        <time>2019-01-07T00:18:37Z</time>
      </trkpt>
      <trkpt lat="42.36283" lon="2.37624">
        <ele>1639.4</ele>
        <time>2019-01-07T00:18:38Z</time>
      </trkpt>
      <trkpt lat="42.36285" lon="2.37624">
        <ele>1639.6</ele>
        <time>2019-01-07T00:18:38Z</time>
      </trkpt>
      <trkpt lat="42.36287" lon="2.37624">
        <ele>1639.8</ele>
        <time>2019-01-07T00:18:39Z</time>
      </trkpt>
      <trkpt lat="42.36289" lon="2.37623">
        <ele>1640.1</ele>
        <time>2019-01-07T00:18:39Z</time>
      </trkpt>
      <trkpt lat="42.36292" lon="2.37623">
        <ele>1640.3</ele>
        <time>2019-01-07T00:18:40Z</time>
      </trkpt>
      <trkpt lat="42.36294" lon="2.37622">
        <ele>1640.6</ele>
        <time>2019-01-07T00:18:41Z</time>
      </trkpt>
      <trkpt lat="42.36296" lon="2.37621">
        <ele>1640.8</ele>
        <time>2019-01-07T00:18:41Z</time>
      </trkpt>
      <trkpt lat="42.36299" lon="2.37621">
        <ele>1641.3</ele>
        <time>2019-01-07T00:18:42Z</time>
      </trkpt>
      <trkpt lat="42.36301" lon="2.3762">
        <ele>1641.5</ele>
        <time>2019-01-07T00:18:43Z</time>
      </trkpt>
      <trkpt lat="42.36303" lon="2.37619">
        <ele>1641.7</ele>
        <time>2019-01-07T00:18:43Z</time>
      </trkpt>
      <trkpt lat="42.36305" lon="2.37618">
        <ele>1641.8</ele>
        <time>2019-01-07T00:18:44Z</time>
      </trkpt>
      <trkpt lat="42.36308" lon="2.37617">
        <ele>1641.7</ele>
        <time>2019-01-07T00:18:44Z</time>
      </trkpt>
      <trkpt lat="42.3631" lon="2.37616">
        <ele>1641.7</ele>
        <time>2019-01-07T00:18:45Z</time>
      </trkpt>
      <trkpt lat="42.36313" lon="2.37616">
        <ele>1641.7</ele>
        <time>2019-01-07T00:18:46Z</time>
      </trkpt>
      <trkpt lat="42.36315" lon="2.37615">
        <ele>1641.5</ele>
        <time>2019-01-07T00:18:46Z</time>
      </trkpt>
      <trkpt lat="42.36318" lon="2.37615">
        <ele>1641.4</ele>
        <time>2019-01-07T00:18:47Z</time>
      </trkpt>
      <trkpt lat="42.3632" lon="2.37614">
        <ele>1641.5</ele>
        <time>2019-01-07T00:18:48Z</time>
      </trkpt>
      <trkpt lat="42.36322" lon="2.37615">
        <ele>1641.4</ele>
        <time>2019-01-07T00:18:48Z</time>
      </trkpt>
      <trkpt lat="42.36325" lon="2.37615">
        <ele>1641.5</ele>
        <time>2019-01-07T00:18:49Z</time>
      </trkpt>
      <trkpt lat="42.36328" lon="2.37616">
        <ele>1641.6</ele>
        <time>2019-01-07T00:18:50Z</time>
      </trkpt>
      <trkpt lat="42.3633" lon="2.37617">
        <ele>1641.9</ele>
        <time>2019-01-07T00:18:51Z</time>
      </trkpt>
      <trkpt lat="42.36333" lon="2.37618">
        <ele>1642</ele>
        <time>2019-01-07T00:18:51Z</time>
      </trkpt>
      <trkpt lat="42.36335" lon="2.37619">
        <ele>1642.2</ele>
        <time>2019-01-07T00:18:52Z</time>
      </trkpt>
      <trkpt lat="42.36338" lon="2.3762">
        <ele>1642</ele>
        <time>2019-01-07T00:18:53Z</time>
      </trkpt>
      <trkpt lat="42.36341" lon="2.3762">
        <ele>1642</ele>
        <time>2019-01-07T00:18:54Z</time>
      </trkpt>
      <trkpt lat="42.36344" lon="2.37621">
        <ele>1641.8</ele>
        <time>2019-01-07T00:18:54Z</time>
      </trkpt>
      <trkpt lat="42.36347" lon="2.37622">
        <ele>1641.5</ele>
        <time>2019-01-07T00:18:55Z</time>
      </trkpt>
      <trkpt lat="42.3635" lon="2.37622">
        <ele>1641.5</ele>
        <time>2019-01-07T00:18:56Z</time>
      </trkpt>
      <trkpt lat="42.36353" lon="2.37623">
        <ele>1641.2</ele>
        <time>2019-01-07T00:18:57Z</time>
      </trkpt>
      <trkpt lat="42.36356" lon="2.37623">
        <ele>1640.9</ele>
        <time>2019-01-07T00:18:57Z</time>
      </trkpt>
      <trkpt lat="42.36358" lon="2.37623">
        <ele>1640.7</ele>
        <time>2019-01-07T00:18:58Z</time>
      </trkpt>
      <trkpt lat="42.36361" lon="2.37624">
        <ele>1640.6</ele>
        <time>2019-01-07T00:18:59Z</time>
      </trkpt>
      <trkpt lat="42.36364" lon="2.37624">
        <ele>1640.5</ele>
        <time>2019-01-07T00:19:00Z</time>
      </trkpt>
      <trkpt lat="42.36366" lon="2.37624">
        <ele>1640.5</ele>
        <time>2019-01-07T00:19:00Z</time>
      </trkpt>
      <trkpt lat="42.36368" lon="2.37624">
        <ele>1640.4</ele>
        <time>2019-01-07T00:19:01Z</time>
      </trkpt>
      <trkpt lat="42.36371" lon="2.37625">
        <ele>1640.5</ele>
        <time>2019-01-07T00:19:02Z</time>
      </trkpt>
      <trkpt lat="42.36374" lon="2.37626">
        <ele>1640.4</ele>
        <time>2019-01-07T00:19:02Z</time>
      </trkpt>
      <trkpt lat="42.36377" lon="2.37626">
        <ele>1640.3</ele>
        <time>2019-01-07T00:19:03Z</time>
      </trkpt>
      <trkpt lat="42.36379" lon="2.37625">
        <ele>1640.3</ele>
        <time>2019-01-07T00:19:04Z</time>
      </trkpt>
      <trkpt lat="42.36382" lon="2.37624">
        <ele>1640.1</ele>
        <time>2019-01-07T00:19:05Z</time>
      </trkpt>
      <trkpt lat="42.36384" lon="2.37624">
        <ele>1640.2</ele>
        <time>2019-01-07T00:19:05Z</time>
      </trkpt>
      <trkpt lat="42.36386" lon="2.37626">
        <ele>1640.1</ele>
        <time>2019-01-07T00:19:06Z</time>
      </trkpt>
      <trkpt lat="42.36388" lon="2.37628">
        <ele>1640</ele>
        <time>2019-01-07T00:19:06Z</time>
      </trkpt>
      <trkpt lat="42.36391" lon="2.37629">
        <ele>1640.1</ele>
        <time>2019-01-07T00:19:07Z</time>
      </trkpt>
      <trkpt lat="42.36393" lon="2.37629">
        <ele>1640.5</ele>
        <time>2019-01-07T00:19:08Z</time>
      </trkpt>
      <trkpt lat="42.36396" lon="2.3763">
        <ele>1640.6</ele>
        <time>2019-01-07T00:19:09Z</time>
      </trkpt>
      <trkpt lat="42.36398" lon="2.3763">
        <ele>1640.7</ele>
        <time>2019-01-07T00:19:09Z</time>
      </trkpt>
      <trkpt lat="42.36401" lon="2.3763">
        <ele>1640.7</ele>
        <time>2019-01-07T00:19:10Z</time>
      </trkpt>
      <trkpt lat="42.36403" lon="2.3763">
        <ele>1641.1</ele>
        <time>2019-01-07T00:19:11Z</time>
      </trkpt>
      <trkpt lat="42.36406" lon="2.3763">
        <ele>1641.2</ele>
        <time>2019-01-07T00:19:11Z</time>
      </trkpt>
      <trkpt lat="42.36408" lon="2.37632">
        <ele>1641.3</ele>
        <time>2019-01-07T00:19:12Z</time>
      </trkpt>
      <trkpt lat="42.36411" lon="2.37632">
        <ele>1641.5</ele>
        <time>2019-01-07T00:19:13Z</time>
      </trkpt>
      <trkpt lat="42.36414" lon="2.37632">
        <ele>1641.7</ele>
        <time>2019-01-07T00:19:13Z</time>
      </trkpt>
      <trkpt lat="42.36416" lon="2.37632">
        <ele>1641.7</ele>
        <time>2019-01-07T00:19:14Z</time>
      </trkpt>
      <trkpt lat="42.36419" lon="2.37632">
        <ele>1641.9</ele>
        <time>2019-01-07T00:19:15Z</time>
      </trkpt>
      <trkpt lat="42.36421" lon="2.37632">
        <ele>1642.2</ele>
        <time>2019-01-07T00:19:15Z</time>
      </trkpt>
      <trkpt lat="42.36424" lon="2.37631">
        <ele>1642.4</ele>
        <time>2019-01-07T00:19:16Z</time>
      </trkpt>
      <trkpt lat="42.36426" lon="2.37631">
        <ele>1642.5</ele>
        <time>2019-01-07T00:19:17Z</time>
      </trkpt>
      <trkpt lat="42.36429" lon="2.37631">
        <ele>1642.9</ele>
        <time>2019-01-07T00:19:18Z</time>
      </trkpt>
      <trkpt lat="42.36432" lon="2.3763">
        <ele>1643.2</ele>
        <time>2019-01-07T00:19:18Z</time>
      </trkpt>
      <trkpt lat="42.36435" lon="2.37631">
        <ele>1643.3</ele>
        <time>2019-01-07T00:19:19Z</time>
      </trkpt>
      <trkpt lat="42.36437" lon="2.37631">
        <ele>1643.6</ele>
        <time>2019-01-07T00:19:20Z</time>
      </trkpt>
      <trkpt lat="42.3644" lon="2.3763">
        <ele>1643.6</ele>
        <time>2019-01-07T00:19:20Z</time>
      </trkpt>
      <trkpt lat="42.36442" lon="2.37631">
        <ele>1643.9</ele>
        <time>2019-01-07T00:19:21Z</time>
      </trkpt>
      <trkpt lat="42.36445" lon="2.37631">
        <ele>1644.1</ele>
        <time>2019-01-07T00:19:22Z</time>
      </trkpt>
      <trkpt lat="42.36447" lon="2.37631">
        <ele>1644.3</ele>
        <time>2019-01-07T00:19:22Z</time>
      </trkpt>
      <trkpt lat="42.36449" lon="2.37632">
        <ele>1644.5</ele>
        <time>2019-01-07T00:19:23Z</time>
      </trkpt>
      <trkpt lat="42.36452" lon="2.37632">
        <ele>1644.9</ele>
        <time>2019-01-07T00:19:24Z</time>
      </trkpt>
      <trkpt lat="42.36454" lon="2.37632">
        <ele>1645.1</ele>
        <time>2019-01-07T00:19:24Z</time>
      </trkpt>
      <trkpt lat="42.36456" lon="2.37632">
        <ele>1645.3</ele>
        <time>2019-01-07T00:19:25Z</time>
      </trkpt>
      <trkpt lat="42.36459" lon="2.37632">
        <ele>1645.8</ele>
        <time>2019-01-07T00:19:26Z</time>
      </trkpt>
      <trkpt lat="42.36461" lon="2.37632">
        <ele>1645.8</ele>
        <time>2019-01-07T00:19:26Z</time>
      </trkpt>
      <trkpt lat="42.36464" lon="2.37632">
        <ele>1646.1</ele>
        <time>2019-01-07T00:19:27Z</time>
      </trkpt>
      <trkpt lat="42.36466" lon="2.37633">
        <ele>1646.4</ele>
        <time>2019-01-07T00:19:27Z</time>
      </trkpt>
      <trkpt lat="42.36468" lon="2.37633">
        <ele>1646.6</ele>
        <time>2019-01-07T00:19:28Z</time>
      </trkpt>
      <trkpt lat="42.36471" lon="2.37633">
        <ele>1646.9</ele>
        <time>2019-01-07T00:19:29Z</time>
      </trkpt>
      <trkpt lat="42.36473" lon="2.37633">
        <ele>1647.2</ele>
        <time>2019-01-07T00:19:29Z</time>
      </trkpt>
      <trkpt lat="42.36475" lon="2.37633">
        <ele>1647.3</ele>
        <time>2019-01-07T00:19:30Z</time>
      </trkpt>
      <trkpt lat="42.36477" lon="2.37633">
        <ele>1647.6</ele>
        <time>2019-01-07T00:19:31Z</time>
      </trkpt>
      <trkpt lat="42.3648" lon="2.37633">
        <ele>1647.9</ele>
        <time>2019-01-07T00:19:31Z</time>
      </trkpt>
      <trkpt lat="42.36482" lon="2.37633">
        <ele>1648.2</ele>
        <time>2019-01-07T00:19:32Z</time>
      </trkpt>
      <trkpt lat="42.36484" lon="2.37634">
        <ele>1648.4</ele>
        <time>2019-01-07T00:19:32Z</time>
      </trkpt>
      <trkpt lat="42.36486" lon="2.37634">
        <ele>1648.7</ele>
        <time>2019-01-07T00:19:33Z</time>
      </trkpt>
      <trkpt lat="42.36489" lon="2.37635">
        <ele>1649</ele>
        <time>2019-01-07T00:19:34Z</time>
      </trkpt>
      <trkpt lat="42.36491" lon="2.37635">
        <ele>1649.1</ele>
        <time>2019-01-07T00:19:34Z</time>
      </trkpt>
      <trkpt lat="42.36493" lon="2.37635">
        <ele>1649.5</ele>
        <time>2019-01-07T00:19:35Z</time>
      </trkpt>
      <trkpt lat="42.36495" lon="2.37636">
        <ele>1649.6</ele>
        <time>2019-01-07T00:19:35Z</time>
      </trkpt>
      <trkpt lat="42.36497" lon="2.37636">
        <ele>1649.8</ele>
        <time>2019-01-07T00:19:36Z</time>
      </trkpt>
      <trkpt lat="42.36499" lon="2.37636">
        <ele>1650.1</ele>
        <time>2019-01-07T00:19:36Z</time>
      </trkpt>
      <trkpt lat="42.36501" lon="2.37636">
        <ele>1650.2</ele>
        <time>2019-01-07T00:19:37Z</time>
      </trkpt>
      <trkpt lat="42.36503" lon="2.37636">
        <ele>1650.4</ele>
        <time>2019-01-07T00:19:37Z</time>
      </trkpt>
      <trkpt lat="42.36506" lon="2.37637">
        <ele>1650.6</ele>
        <time>2019-01-07T00:19:38Z</time>
      </trkpt>
      <trkpt lat="42.36508" lon="2.37636">
        <ele>1651.1</ele>
        <time>2019-01-07T00:19:39Z</time>
      </trkpt>
      <trkpt lat="42.3651" lon="2.37635">
        <ele>1651.2</ele>
        <time>2019-01-07T00:19:39Z</time>
      </trkpt>
      <trkpt lat="42.36513" lon="2.37635">
        <ele>1651.5</ele>
        <time>2019-01-07T00:19:40Z</time>
      </trkpt>
      <trkpt lat="42.36515" lon="2.37634">
        <ele>1651.7</ele>
        <time>2019-01-07T00:19:41Z</time>
      </trkpt>
      <trkpt lat="42.36518" lon="2.37633">
        <ele>1652</ele>
        <time>2019-01-07T00:19:41Z</time>
      </trkpt>
      <trkpt lat="42.3652" lon="2.37633">
        <ele>1652.2</ele>
        <time>2019-01-07T00:19:42Z</time>
      </trkpt>
      <trkpt lat="42.36523" lon="2.37632">
        <ele>1652.7</ele>
        <time>2019-01-07T00:19:43Z</time>
      </trkpt>
      <trkpt lat="42.36525" lon="2.37632">
        <ele>1652.8</ele>
        <time>2019-01-07T00:19:43Z</time>
      </trkpt>
      <trkpt lat="42.36528" lon="2.37632">
        <ele>1653.2</ele>
        <time>2019-01-07T00:19:44Z</time>
      </trkpt>
      <trkpt lat="42.3653" lon="2.37632">
        <ele>1653.4</ele>
        <time>2019-01-07T00:19:45Z</time>
      </trkpt>
      <trkpt lat="42.36533" lon="2.37632">
        <ele>1653.7</ele>
        <time>2019-01-07T00:19:45Z</time>
      </trkpt>
      <trkpt lat="42.36535" lon="2.37632">
        <ele>1654.1</ele>
        <time>2019-01-07T00:19:46Z</time>
      </trkpt>
      <trkpt lat="42.36537" lon="2.37632">
        <ele>1654.4</ele>
        <time>2019-01-07T00:19:47Z</time>
      </trkpt>
      <trkpt lat="42.36539" lon="2.37632">
        <ele>1654.8</ele>
        <time>2019-01-07T00:19:47Z</time>
      </trkpt>
      <trkpt lat="42.36541" lon="2.37633">
        <ele>1655.1</ele>
        <time>2019-01-07T00:19:48Z</time>
      </trkpt>
      <trkpt lat="42.36543" lon="2.37633">
        <ele>1655.4</ele>
        <time>2019-01-07T00:19:48Z</time>
      </trkpt>
      <trkpt lat="42.36545" lon="2.37633">
        <ele>1655.7</ele>
        <time>2019-01-07T00:19:49Z</time>
      </trkpt>
      <trkpt lat="42.36547" lon="2.37633">
        <ele>1656.1</ele>
        <time>2019-01-07T00:19:49Z</time>
      </trkpt>
      <trkpt lat="42.36549" lon="2.37632">
        <ele>1656.2</ele>
        <time>2019-01-07T00:19:50Z</time>
      </trkpt>
      <trkpt lat="42.36551" lon="2.37632">
        <ele>1656.6</ele>
        <time>2019-01-07T00:19:50Z</time>
      </trkpt>
      <trkpt lat="42.36553" lon="2.37632">
        <ele>1656.9</ele>
        <time>2019-01-07T00:19:51Z</time>
      </trkpt>
      <trkpt lat="42.36555" lon="2.37632">
        <ele>1657.1</ele>
        <time>2019-01-07T00:19:51Z</time>
      </trkpt>
      <trkpt lat="42.36557" lon="2.37632">
        <ele>1657.4</ele>
        <time>2019-01-07T00:19:52Z</time>
      </trkpt>
      <trkpt lat="42.36559" lon="2.37633">
        <ele>1657.9</ele>
        <time>2019-01-07T00:19:52Z</time>
      </trkpt>
      <trkpt lat="42.3656" lon="2.37633">
        <ele>1658.3</ele>
        <time>2019-01-07T00:19:53Z</time>
      </trkpt>
      <trkpt lat="42.36562" lon="2.37633">
        <ele>1658.8</ele>
        <time>2019-01-07T00:19:53Z</time>
      </trkpt>
      <trkpt lat="42.36564" lon="2.37633">
        <ele>1659</ele>
        <time>2019-01-07T00:19:54Z</time>
      </trkpt>
      <trkpt lat="42.36567" lon="2.37632">
        <ele>1659.6</ele>
        <time>2019-01-07T00:19:55Z</time>
      </trkpt>
      <trkpt lat="42.36569" lon="2.37632">
        <ele>1659.9</ele>
        <time>2019-01-07T00:19:55Z</time>
      </trkpt>
      <trkpt lat="42.36571" lon="2.37633">
        <ele>1660.5</ele>
        <time>2019-01-07T00:19:56Z</time>
      </trkpt>
      <trkpt lat="42.36573" lon="2.37633">
        <ele>1660.6</ele>
        <time>2019-01-07T00:19:56Z</time>
      </trkpt>
      <trkpt lat="42.36575" lon="2.37632">
        <ele>1661.4</ele>
        <time>2019-01-07T00:19:57Z</time>
      </trkpt>
      <trkpt lat="42.36578" lon="2.37631">
        <ele>1661.8</ele>
        <time>2019-01-07T00:19:58Z</time>
      </trkpt>
      <trkpt lat="42.3658" lon="2.37632">
        <ele>1662.2</ele>
        <time>2019-01-07T00:19:58Z</time>
      </trkpt>
      <trkpt lat="42.36583" lon="2.37633">
        <ele>1662.7</ele>
        <time>2019-01-07T00:19:59Z</time>
      </trkpt>
      <trkpt lat="42.36585" lon="2.37634">
        <ele>1663.2</ele>
        <time>2019-01-07T00:20:00Z</time>
      </trkpt>
      <trkpt lat="42.36587" lon="2.37635">
        <ele>1663.7</ele>
        <time>2019-01-07T00:20:00Z</time>
      </trkpt>
      <trkpt lat="42.36589" lon="2.37636">
        <ele>1664</ele>
        <time>2019-01-07T00:20:01Z</time>
      </trkpt>
      <trkpt lat="42.36592" lon="2.37636">
        <ele>1664.5</ele>
        <time>2019-01-07T00:20:01Z</time>
      </trkpt>
      <trkpt lat="42.366" lon="2.37669">
        <ele>1663.1</ele>
        <time>2019-01-07T00:20:08Z</time>
      </trkpt>
      <trkpt lat="42.36596" lon="2.37673">
        <ele>1662.4</ele>
        <time>2019-01-07T00:20:09Z</time>
      </trkpt>
      <trkpt lat="42.36593" lon="2.37678">
        <ele>1661.3</ele>
        <time>2019-01-07T00:20:11Z</time>
      </trkpt>
      <trkpt lat="42.36589" lon="2.37683">
        <ele>1660.5</ele>
        <time>2019-01-07T00:20:12Z</time>
      </trkpt>
      <trkpt lat="42.36586" lon="2.37687">
        <ele>1659.7</ele>
        <time>2019-01-07T00:20:13Z</time>
      </trkpt>
      <trkpt lat="42.36583" lon="2.37693">
        <ele>1658.7</ele>
        <time>2019-01-07T00:20:15Z</time>
      </trkpt>
      <trkpt lat="42.36579" lon="2.37698">
        <ele>1657.5</ele>
        <time>2019-01-07T00:20:16Z</time>
      </trkpt>
      <trkpt lat="42.36576" lon="2.37702">
        <ele>1656.4</ele>
        <time>2019-01-07T00:20:17Z</time>
      </trkpt>
      <trkpt lat="42.36572" lon="2.37706">
        <ele>1655.3</ele>
        <time>2019-01-07T00:20:19Z</time>
      </trkpt>
      <trkpt lat="42.36567" lon="2.37709">
        <ele>1654.3</ele>
        <time>2019-01-07T00:20:20Z</time>
      </trkpt>
      <trkpt lat="42.36562" lon="2.37713">
        <ele>1653.2</ele>
        <time>2019-01-07T00:20:22Z</time>
      </trkpt>
      <trkpt lat="42.36558" lon="2.37718">
        <ele>1652.1</ele>
        <time>2019-01-07T00:20:23Z</time>
      </trkpt>
      <trkpt lat="42.36554" lon="2.37722">
        <ele>1651</ele>
        <time>2019-01-07T00:20:24Z</time>
      </trkpt>
      <trkpt lat="42.36551" lon="2.37726">
        <ele>1650.2</ele>
        <time>2019-01-07T00:20:26Z</time>
      </trkpt>
      <trkpt lat="42.36548" lon="2.37732">
        <ele>1649.1</ele>
        <time>2019-01-07T00:20:27Z</time>
      </trkpt>
      <trkpt lat="42.36544" lon="2.37736">
        <ele>1648.1</ele>
        <time>2019-01-07T00:20:28Z</time>
      </trkpt>
      <trkpt lat="42.3654" lon="2.37741">
        <ele>1646.9</ele>
        <time>2019-01-07T00:20:30Z</time>
      </trkpt>
      <trkpt lat="42.36536" lon="2.37743">
        <ele>1646.3</ele>
        <time>2019-01-07T00:20:31Z</time>
      </trkpt>
      <trkpt lat="42.36531" lon="2.37749">
        <ele>1645.2</ele>
        <time>2019-01-07T00:20:33Z</time>
      </trkpt>
      <trkpt lat="42.36527" lon="2.37753">
        <ele>1644</ele>
        <time>2019-01-07T00:20:34Z</time>
      </trkpt>
      <trkpt lat="42.36523" lon="2.37757">
        <ele>1642.5</ele>
        <time>2019-01-07T00:20:35Z</time>
      </trkpt>
      <trkpt lat="42.36519" lon="2.3776">
        <ele>1641.5</ele>
        <time>2019-01-07T00:20:37Z</time>
      </trkpt>
      <trkpt lat="42.36515" lon="2.37763">
        <ele>1640.4</ele>
        <time>2019-01-07T00:20:38Z</time>
      </trkpt>
      <trkpt lat="42.3651" lon="2.37764">
        <ele>1639.7</ele>
        <time>2019-01-07T00:20:39Z</time>
      </trkpt>
      <trkpt lat="42.36506" lon="2.37768">
        <ele>1638.7</ele>
        <time>2019-01-07T00:20:40Z</time>
      </trkpt>
      <trkpt lat="42.36501" lon="2.3777">
        <ele>1637.9</ele>
        <time>2019-01-07T00:20:42Z</time>
      </trkpt>
      <trkpt lat="42.36496" lon="2.37773">
        <ele>1637</ele>
        <time>2019-01-07T00:20:43Z</time>
      </trkpt>
      <trkpt lat="42.36491" lon="2.37775">
        <ele>1636.5</ele>
        <time>2019-01-07T00:20:45Z</time>
      </trkpt>
      <trkpt lat="42.36485" lon="2.37777">
        <ele>1635.8</ele>
        <time>2019-01-07T00:20:46Z</time>
      </trkpt>
      <trkpt lat="42.36481" lon="2.37781">
        <ele>1635</ele>
        <time>2019-01-07T00:20:48Z</time>
      </trkpt>
      <trkpt lat="42.36477" lon="2.37785">
        <ele>1634.3</ele>
        <time>2019-01-07T00:20:49Z</time>
      </trkpt>
      <trkpt lat="42.36475" lon="2.3779">
        <ele>1633.3</ele>
        <time>2019-01-07T00:20:50Z</time>
      </trkpt>
      <trkpt lat="42.36473" lon="2.37796">
        <ele>1632.1</ele>
        <time>2019-01-07T00:20:51Z</time>
      </trkpt>
      <trkpt lat="42.36468" lon="2.378">
        <ele>1631.3</ele>
        <time>2019-01-07T00:20:53Z</time>
      </trkpt>
      <trkpt lat="42.36464" lon="2.37804">
        <ele>1630.5</ele>
        <time>2019-01-07T00:20:54Z</time>
      </trkpt>
      <trkpt lat="42.36459" lon="2.37806">
        <ele>1630.2</ele>
        <time>2019-01-07T00:20:56Z</time>
      </trkpt>
      <trkpt lat="42.36456" lon="2.37811">
        <ele>1629.2</ele>
        <time>2019-01-07T00:20:57Z</time>
      </trkpt>
      <trkpt lat="42.36452" lon="2.37816">
        <ele>1628.3</ele>
        <time>2019-01-07T00:20:58Z</time>
      </trkpt>
      <trkpt lat="42.36448" lon="2.3782">
        <ele>1627.7</ele>
        <time>2019-01-07T00:21:00Z</time>
      </trkpt>
      <trkpt lat="42.36443" lon="2.37823">
        <ele>1627.2</ele>
        <time>2019-01-07T00:21:01Z</time>
      </trkpt>
      <trkpt lat="42.36439" lon="2.37825">
        <ele>1626.9</ele>
        <time>2019-01-07T00:21:02Z</time>
      </trkpt>
      <trkpt lat="42.36435" lon="2.3783">
        <ele>1626.1</ele>
        <time>2019-01-07T00:21:04Z</time>
      </trkpt>
      <trkpt lat="42.36432" lon="2.37836">
        <ele>1625.1</ele>
        <time>2019-01-07T00:21:05Z</time>
      </trkpt>
      <trkpt lat="42.3643" lon="2.37842">
        <ele>1624</ele>
        <time>2019-01-07T00:21:06Z</time>
      </trkpt>
      <trkpt lat="42.36425" lon="2.37846">
        <ele>1623</ele>
        <time>2019-01-07T00:21:08Z</time>
      </trkpt>
      <trkpt lat="42.36421" lon="2.37851">
        <ele>1622.1</ele>
        <time>2019-01-07T00:21:09Z</time>
      </trkpt>
      <trkpt lat="42.36417" lon="2.37854">
        <ele>1621.5</ele>
        <time>2019-01-07T00:21:11Z</time>
      </trkpt>
      <trkpt lat="42.36413" lon="2.37858">
        <ele>1620.6</ele>
        <time>2019-01-07T00:21:12Z</time>
      </trkpt>
      <trkpt lat="42.3641" lon="2.37861">
        <ele>1619.8</ele>
        <time>2019-01-07T00:21:13Z</time>
      </trkpt>
      <trkpt lat="42.36406" lon="2.37865">
        <ele>1618.8</ele>
        <time>2019-01-07T00:21:14Z</time>
      </trkpt>
      <trkpt lat="42.36403" lon="2.37871">
        <ele>1617.6</ele>
        <time>2019-01-07T00:21:16Z</time>
      </trkpt>
      <trkpt lat="42.36402" lon="2.37877">
        <ele>1616.1</ele>
        <time>2019-01-07T00:21:17Z</time>
      </trkpt>
      <trkpt lat="42.36399" lon="2.37882">
        <ele>1615.1</ele>
        <time>2019-01-07T00:21:18Z</time>
      </trkpt>
      <trkpt lat="42.36397" lon="2.37889">
        <ele>1613.8</ele>
        <time>2019-01-07T00:21:20Z</time>
      </trkpt>
      <trkpt lat="42.36395" lon="2.37894">
        <ele>1612.7</ele>
        <time>2019-01-07T00:21:21Z</time>
      </trkpt>
      <trkpt lat="42.36393" lon="2.379">
        <ele>1611.4</ele>
        <time>2019-01-07T00:21:22Z</time>
      </trkpt>
      <trkpt lat="42.3639" lon="2.37905">
        <ele>1610.3</ele>
        <time>2019-01-07T00:21:23Z</time>
      </trkpt>
      <trkpt lat="42.36388" lon="2.37911">
        <ele>1609.1</ele>
        <time>2019-01-07T00:21:24Z</time>
      </trkpt>
      <trkpt lat="42.36386" lon="2.37917">
        <ele>1607.8</ele>
        <time>2019-01-07T00:21:26Z</time>
      </trkpt>
      <trkpt lat="42.36384" lon="2.37924">
        <ele>1606.3</ele>
        <time>2019-01-07T00:21:27Z</time>
      </trkpt>
      <trkpt lat="42.36383" lon="2.37931">
        <ele>1604.9</ele>
        <time>2019-01-07T00:21:29Z</time>
      </trkpt>
      <trkpt lat="42.36381" lon="2.37937">
        <ele>1603.6</ele>
        <time>2019-01-07T00:21:30Z</time>
      </trkpt>
      <trkpt lat="42.36378" lon="2.37942">
        <ele>1602.5</ele>
        <time>2019-01-07T00:21:31Z</time>
      </trkpt>
      <trkpt lat="42.36378" lon="2.37948">
        <ele>1601.3</ele>
        <time>2019-01-07T00:21:32Z</time>
      </trkpt>
      <trkpt lat="42.36376" lon="2.37954">
        <ele>1600.1</ele>
        <time>2019-01-07T00:21:34Z</time>
      </trkpt>
      <trkpt lat="42.36375" lon="2.37961">
        <ele>1598.6</ele>
        <time>2019-01-07T00:21:35Z</time>
      </trkpt>
      <trkpt lat="42.36375" lon="2.37968">
        <ele>1597.2</ele>
        <time>2019-01-07T00:21:36Z</time>
      </trkpt>
      <trkpt lat="42.36373" lon="2.37974">
        <ele>1596.1</ele>
        <time>2019-01-07T00:21:38Z</time>
      </trkpt>
      <trkpt lat="42.36374" lon="2.37981">
        <ele>1594.7</ele>
        <time>2019-01-07T00:21:39Z</time>
      </trkpt>
      <trkpt lat="42.36373" lon="2.37987">
        <ele>1593.5</ele>
        <time>2019-01-07T00:21:40Z</time>
      </trkpt>
      <trkpt lat="42.36369" lon="2.37992">
        <ele>1592.8</ele>
        <time>2019-01-07T00:21:42Z</time>
      </trkpt>
      <trkpt lat="42.36365" lon="2.37999">
        <ele>1591.8</ele>
        <time>2019-01-07T00:21:44Z</time>
      </trkpt>
      <trkpt lat="42.36363" lon="2.38005">
        <ele>1590.8</ele>
        <time>2019-01-07T00:21:45Z</time>
      </trkpt>
      <trkpt lat="42.36361" lon="2.38012">
        <ele>1589.6</ele>
        <time>2019-01-07T00:21:46Z</time>
      </trkpt>
      <trkpt lat="42.36359" lon="2.38018">
        <ele>1588.6</ele>
        <time>2019-01-07T00:21:48Z</time>
      </trkpt>
      <trkpt lat="42.36359" lon="2.38026">
        <ele>1587.1</ele>
        <time>2019-01-07T00:21:49Z</time>
      </trkpt>
      <trkpt lat="42.36358" lon="2.38032">
        <ele>1585.9</ele>
        <time>2019-01-07T00:21:50Z</time>
      </trkpt>
      <trkpt lat="42.36356" lon="2.38037">
        <ele>1585</ele>
        <time>2019-01-07T00:21:52Z</time>
      </trkpt>
      <trkpt lat="42.36354" lon="2.38044">
        <ele>1583.9</ele>
        <time>2019-01-07T00:21:53Z</time>
      </trkpt>
      <trkpt lat="42.36352" lon="2.38051">
        <ele>1582.6</ele>
        <time>2019-01-07T00:21:55Z</time>
      </trkpt>
      <trkpt lat="42.36351" lon="2.38057">
        <ele>1581.4</ele>
        <time>2019-01-07T00:21:56Z</time>
      </trkpt>
      <trkpt lat="42.36349" lon="2.38064">
        <ele>1580.1</ele>
        <time>2019-01-07T00:21:57Z</time>
      </trkpt>
      <trkpt lat="42.36347" lon="2.38071">
        <ele>1578.8</ele>
        <time>2019-01-07T00:21:59Z</time>
      </trkpt>
      <trkpt lat="42.36346" lon="2.38077">
        <ele>1577.8</ele>
        <time>2019-01-07T00:22:00Z</time>
      </trkpt>
      <trkpt lat="42.36344" lon="2.38083">
        <ele>1576.7</ele>
        <time>2019-01-07T00:22:01Z</time>
      </trkpt>
      <trkpt lat="42.36342" lon="2.38089">
        <ele>1575.7</ele>
        <time>2019-01-07T00:22:03Z</time>
      </trkpt>
      <trkpt lat="42.36339" lon="2.38095">
        <ele>1575.1</ele>
        <time>2019-01-07T00:22:04Z</time>
      </trkpt>
      <trkpt lat="42.36335" lon="2.38099">
        <ele>1574.5</ele>
        <time>2019-01-07T00:22:05Z</time>
      </trkpt>
      <trkpt lat="42.3633" lon="2.38103">
        <ele>1573.8</ele>
        <time>2019-01-07T00:22:07Z</time>
      </trkpt>
      <trkpt lat="42.36326" lon="2.38108">
        <ele>1572.6</ele>
        <time>2019-01-07T00:22:08Z</time>
      </trkpt>
      <trkpt lat="42.36324" lon="2.38114">
        <ele>1571.3</ele>
        <time>2019-01-07T00:22:09Z</time>
      </trkpt>
      <trkpt lat="42.36321" lon="2.38119">
        <ele>1570.1</ele>
        <time>2019-01-07T00:22:11Z</time>
      </trkpt>
      <trkpt lat="42.36319" lon="2.38125">
        <ele>1568.8</ele>
        <time>2019-01-07T00:22:12Z</time>
      </trkpt>
      <trkpt lat="42.36315" lon="2.3813">
        <ele>1567.6</ele>
        <time>2019-01-07T00:22:13Z</time>
      </trkpt>
      <trkpt lat="42.36309" lon="2.38136">
        <ele>1565.9</ele>
        <time>2019-01-07T00:22:15Z</time>
      </trkpt>
      <trkpt lat="42.36306" lon="2.38142">
        <ele>1564.6</ele>
        <time>2019-01-07T00:22:17Z</time>
      </trkpt>
      <trkpt lat="42.36304" lon="2.38148">
        <ele>1563.4</ele>
        <time>2019-01-07T00:22:18Z</time>
      </trkpt>
      <trkpt lat="42.36299" lon="2.38151">
        <ele>1562.3</ele>
        <time>2019-01-07T00:22:19Z</time>
      </trkpt>
      <trkpt lat="42.36295" lon="2.38152">
        <ele>1561.9</ele>
        <time>2019-01-07T00:22:21Z</time>
      </trkpt>
      <trkpt lat="42.36289" lon="2.38152">
        <ele>1561.6</ele>
        <time>2019-01-07T00:22:22Z</time>
      </trkpt>
      <trkpt lat="42.36285" lon="2.38154">
        <ele>1560.8</ele>
        <time>2019-01-07T00:22:23Z</time>
      </trkpt>
      <trkpt lat="42.36281" lon="2.38159">
        <ele>1559.5</ele>
        <time>2019-01-07T00:22:25Z</time>
      </trkpt>
      <trkpt lat="42.36278" lon="2.38164">
        <ele>1558.2</ele>
        <time>2019-01-07T00:22:26Z</time>
      </trkpt>
      <trkpt lat="42.36273" lon="2.38168">
        <ele>1557.3</ele>
        <time>2019-01-07T00:22:28Z</time>
      </trkpt>
      <trkpt lat="42.36269" lon="2.38172">
        <ele>1556.5</ele>
        <time>2019-01-07T00:22:29Z</time>
      </trkpt>
      <trkpt lat="42.36265" lon="2.38177">
        <ele>1555.5</ele>
        <time>2019-01-07T00:22:30Z</time>
      </trkpt>
      <trkpt lat="42.36262" lon="2.38181">
        <ele>1554.8</ele>
        <time>2019-01-07T00:22:32Z</time>
      </trkpt>
      <trkpt lat="42.36259" lon="2.38186">
        <ele>1554.1</ele>
        <time>2019-01-07T00:22:33Z</time>
      </trkpt>
      <trkpt lat="42.3626" lon="2.38193">
        <ele>1553.1</ele>
        <time>2019-01-07T00:22:34Z</time>
      </trkpt>
      <trkpt lat="42.36259" lon="2.382">
        <ele>1552.3</ele>
        <time>2019-01-07T00:22:36Z</time>
      </trkpt>
      <trkpt lat="42.36258" lon="2.38206">
        <ele>1551.5</ele>
        <time>2019-01-07T00:22:37Z</time>
      </trkpt>
      <trkpt lat="42.36256" lon="2.38212">
        <ele>1550.6</ele>
        <time>2019-01-07T00:22:38Z</time>
      </trkpt>
      <trkpt lat="42.36257" lon="2.38219">
        <ele>1549.7</ele>
        <time>2019-01-07T00:22:40Z</time>
      </trkpt>
      <trkpt lat="42.36256" lon="2.38227">
        <ele>1548.7</ele>
        <time>2019-01-07T00:22:41Z</time>
      </trkpt>
      <trkpt lat="42.36254" lon="2.38234">
        <ele>1547.9</ele>
        <time>2019-01-07T00:22:43Z</time>
      </trkpt>
      <trkpt lat="42.36251" lon="2.38241">
        <ele>1547</ele>
        <time>2019-01-07T00:22:44Z</time>
      </trkpt>
      <trkpt lat="42.36251" lon="2.38247">
        <ele>1546.3</ele>
        <time>2019-01-07T00:22:45Z</time>
      </trkpt>
      <trkpt lat="42.3625" lon="2.38253">
        <ele>1545.4</ele>
        <time>2019-01-07T00:22:47Z</time>
      </trkpt>
      <trkpt lat="42.3625" lon="2.38259">
        <ele>1544.3</ele>
        <time>2019-01-07T00:22:48Z</time>
      </trkpt>
      <trkpt lat="42.36248" lon="2.38266">
        <ele>1543</ele>
        <time>2019-01-07T00:22:49Z</time>
      </trkpt>
      <trkpt lat="42.36246" lon="2.38271">
        <ele>1541.8</ele>
        <time>2019-01-07T00:22:50Z</time>
      </trkpt>
      <trkpt lat="42.36241" lon="2.38272">
        <ele>1541</ele>
        <time>2019-01-07T00:22:52Z</time>
      </trkpt>
      <trkpt lat="42.36236" lon="2.38268">
        <ele>1540.8</ele>
        <time>2019-01-07T00:22:53Z</time>
      </trkpt>
      <trkpt lat="42.36232" lon="2.38264">
        <ele>1540.9</ele>
        <time>2019-01-07T00:22:55Z</time>
      </trkpt>
      <trkpt lat="42.36227" lon="2.38259">
        <ele>1541</ele>
        <time>2019-01-07T00:22:56Z</time>
      </trkpt>
      <trkpt lat="42.36223" lon="2.38253">
        <ele>1541</ele>
        <time>2019-01-07T00:22:58Z</time>
      </trkpt>
      <trkpt lat="42.3622" lon="2.38248">
        <ele>1541.2</ele>
        <time>2019-01-07T00:22:59Z</time>
      </trkpt>
      <trkpt lat="42.36216" lon="2.38241">
        <ele>1541.4</ele>
        <time>2019-01-07T00:23:01Z</time>
      </trkpt>
      <trkpt lat="42.36212" lon="2.38236">
        <ele>1541.5</ele>
        <time>2019-01-07T00:23:02Z</time>
      </trkpt>
      <trkpt lat="42.36208" lon="2.38231">
        <ele>1541.5</ele>
        <time>2019-01-07T00:23:04Z</time>
      </trkpt>
      <trkpt lat="42.36204" lon="2.38227">
        <ele>1541.3</ele>
        <time>2019-01-07T00:23:05Z</time>
      </trkpt>
      <trkpt lat="42.362" lon="2.38223">
        <ele>1541.2</ele>
        <time>2019-01-07T00:23:06Z</time>
      </trkpt>
      <trkpt lat="42.36195" lon="2.38219">
        <ele>1541.1</ele>
        <time>2019-01-07T00:23:08Z</time>
      </trkpt>
      <trkpt lat="42.3619" lon="2.38215">
        <ele>1540.9</ele>
        <time>2019-01-07T00:23:09Z</time>
      </trkpt>
      <trkpt lat="42.36187" lon="2.38211">
        <ele>1541</ele>
        <time>2019-01-07T00:23:11Z</time>
      </trkpt>
      <trkpt lat="42.36183" lon="2.38207">
        <ele>1541</ele>
        <time>2019-01-07T00:23:12Z</time>
      </trkpt>
      <trkpt lat="42.36179" lon="2.38203">
        <ele>1540.8</ele>
        <time>2019-01-07T00:23:13Z</time>
      </trkpt>
      <trkpt lat="42.36174" lon="2.38205">
        <ele>1539.9</ele>
        <time>2019-01-07T00:23:14Z</time>
      </trkpt>
      <trkpt lat="42.36169" lon="2.38206">
        <ele>1538.9</ele>
        <time>2019-01-07T00:23:16Z</time>
      </trkpt>
      <trkpt lat="42.36164" lon="2.38207">
        <ele>1538</ele>
        <time>2019-01-07T00:23:17Z</time>
      </trkpt>
      <trkpt lat="42.36159" lon="2.38211">
        <ele>1536.7</ele>
        <time>2019-01-07T00:23:19Z</time>
      </trkpt>
      <trkpt lat="42.36154" lon="2.38213">
        <ele>1535.4</ele>
        <time>2019-01-07T00:23:20Z</time>
      </trkpt>
      <trkpt lat="42.36149" lon="2.38217">
        <ele>1534.1</ele>
        <time>2019-01-07T00:23:22Z</time>
      </trkpt>
      <trkpt lat="42.36145" lon="2.3822">
        <ele>1532.8</ele>
        <time>2019-01-07T00:23:23Z</time>
      </trkpt>
      <trkpt lat="42.36141" lon="2.38223">
        <ele>1531.6</ele>
        <time>2019-01-07T00:23:24Z</time>
      </trkpt>
      <trkpt lat="42.36136" lon="2.38226">
        <ele>1530.3</ele>
        <time>2019-01-07T00:23:26Z</time>
      </trkpt>
      <trkpt lat="42.36131" lon="2.38228">
        <ele>1529.2</ele>
        <time>2019-01-07T00:23:27Z</time>
      </trkpt>
      <trkpt lat="42.36127" lon="2.38229">
        <ele>1528.2</ele>
        <time>2019-01-07T00:23:28Z</time>
      </trkpt>
      <trkpt lat="42.36122" lon="2.3823">
        <ele>1527.5</ele>
        <time>2019-01-07T00:23:30Z</time>
      </trkpt>
      <trkpt lat="42.36117" lon="2.3823">
        <ele>1526.6</ele>
        <time>2019-01-07T00:23:31Z</time>
      </trkpt>
      <trkpt lat="42.36112" lon="2.38231">
        <ele>1525.5</ele>
        <time>2019-01-07T00:23:32Z</time>
      </trkpt>
      <trkpt lat="42.36106" lon="2.38229">
        <ele>1524.7</ele>
        <time>2019-01-07T00:23:34Z</time>
      </trkpt>
      <trkpt lat="42.36101" lon="2.3823">
        <ele>1523.9</ele>
        <time>2019-01-07T00:23:35Z</time>
      </trkpt>
      <trkpt lat="42.36096" lon="2.3823">
        <ele>1522.9</ele>
        <time>2019-01-07T00:23:36Z</time>
      </trkpt>
      <trkpt lat="42.36091" lon="2.3823">
        <ele>1522</ele>
        <time>2019-01-07T00:23:38Z</time>
      </trkpt>
      <trkpt lat="42.36085" lon="2.38231">
        <ele>1521</ele>
        <time>2019-01-07T00:23:39Z</time>
      </trkpt>
      <trkpt lat="42.3608" lon="2.38229">
        <ele>1520.5</ele>
        <time>2019-01-07T00:23:41Z</time>
      </trkpt>
      <trkpt lat="42.36074" lon="2.38228">
        <ele>1520.2</ele>
        <time>2019-01-07T00:23:42Z</time>
      </trkpt>
      <trkpt lat="42.36069" lon="2.38227">
        <ele>1519.8</ele>
        <time>2019-01-07T00:23:44Z</time>
      </trkpt>
      <trkpt lat="42.36064" lon="2.38227">
        <ele>1519.2</ele>
        <time>2019-01-07T00:23:45Z</time>
      </trkpt>
      <trkpt lat="42.36059" lon="2.3823">
        <ele>1518.2</ele>
        <time>2019-01-07T00:23:46Z</time>
      </trkpt>
      <trkpt lat="42.36056" lon="2.38234">
        <ele>1517.2</ele>
        <time>2019-01-07T00:23:48Z</time>
      </trkpt>
      <trkpt lat="42.36051" lon="2.38236">
        <ele>1516.3</ele>
        <time>2019-01-07T00:23:49Z</time>
      </trkpt>
      <trkpt lat="42.36047" lon="2.3824">
        <ele>1515.3</ele>
        <time>2019-01-07T00:23:50Z</time>
      </trkpt>
      <trkpt lat="42.36042" lon="2.38243">
        <ele>1514.4</ele>
        <time>2019-01-07T00:23:52Z</time>
      </trkpt>
      <trkpt lat="42.36037" lon="2.38247">
        <ele>1513.4</ele>
        <time>2019-01-07T00:23:53Z</time>
      </trkpt>
      <trkpt lat="42.36032" lon="2.3825">
        <ele>1512.5</ele>
        <time>2019-01-07T00:23:55Z</time>
      </trkpt>
      <trkpt lat="42.36027" lon="2.38253">
        <ele>1511.7</ele>
        <time>2019-01-07T00:23:56Z</time>
      </trkpt>
      <trkpt lat="42.36023" lon="2.38256">
        <ele>1510.9</ele>
        <time>2019-01-07T00:23:57Z</time>
      </trkpt>
      <trkpt lat="42.36019" lon="2.3826">
        <ele>1510.1</ele>
        <time>2019-01-07T00:23:59Z</time>
      </trkpt>
      <trkpt lat="42.36014" lon="2.38262">
        <ele>1509.4</ele>
        <time>2019-01-07T00:24:00Z</time>
      </trkpt>
      <trkpt lat="42.3601" lon="2.38263">
        <ele>1508.7</ele>
        <time>2019-01-07T00:24:01Z</time>
      </trkpt>
      <trkpt lat="42.36005" lon="2.38264">
        <ele>1508.1</ele>
        <time>2019-01-07T00:24:03Z</time>
      </trkpt>
      <trkpt lat="42.36" lon="2.38265">
        <ele>1507.5</ele>
        <time>2019-01-07T00:24:04Z</time>
      </trkpt>
      <trkpt lat="42.35996" lon="2.38266">
        <ele>1506.6</ele>
        <time>2019-01-07T00:24:05Z</time>
      </trkpt>
      <trkpt lat="42.35991" lon="2.38269">
        <ele>1505.4</ele>
        <time>2019-01-07T00:24:06Z</time>
      </trkpt>
      <trkpt lat="42.35987" lon="2.38273">
        <ele>1504.1</ele>
        <time>2019-01-07T00:24:08Z</time>
      </trkpt>
      <trkpt lat="42.35984" lon="2.38277">
        <ele>1502.9</ele>
        <time>2019-01-07T00:24:09Z</time>
      </trkpt>
      <trkpt lat="42.3598" lon="2.38281">
        <ele>1501.8</ele>
        <time>2019-01-07T00:24:10Z</time>
      </trkpt>
      <trkpt lat="42.35977" lon="2.38286">
        <ele>1500.7</ele>
        <time>2019-01-07T00:24:12Z</time>
      </trkpt>
      <trkpt lat="42.35973" lon="2.38292">
        <ele>1499.5</ele>
        <time>2019-01-07T00:24:13Z</time>
      </trkpt>
      <trkpt lat="42.35969" lon="2.38297">
        <ele>1498.5</ele>
        <time>2019-01-07T00:24:15Z</time>
      </trkpt>
      <trkpt lat="42.35965" lon="2.38301">
        <ele>1497.5</ele>
        <time>2019-01-07T00:24:16Z</time>
      </trkpt>
      <trkpt lat="42.35961" lon="2.38306">
        <ele>1496.6</ele>
        <time>2019-01-07T00:24:17Z</time>
      </trkpt>
      <trkpt lat="42.35957" lon="2.3831">
        <ele>1495.8</ele>
        <time>2019-01-07T00:24:19Z</time>
      </trkpt>
      <trkpt lat="42.35954" lon="2.38315">
        <ele>1495</ele>
        <time>2019-01-07T00:24:20Z</time>
      </trkpt>
      <trkpt lat="42.35951" lon="2.3832">
        <ele>1494.3</ele>
        <time>2019-01-07T00:24:21Z</time>
      </trkpt>
      <trkpt lat="42.35948" lon="2.38327">
        <ele>1493.5</ele>
        <time>2019-01-07T00:24:23Z</time>
      </trkpt>
      <trkpt lat="42.35945" lon="2.38331">
        <ele>1493.1</ele>
        <time>2019-01-07T00:24:24Z</time>
      </trkpt>
      <trkpt lat="42.35942" lon="2.38336">
        <ele>1492.3</ele>
        <time>2019-01-07T00:24:25Z</time>
      </trkpt>
      <trkpt lat="42.35939" lon="2.38341">
        <ele>1491.5</ele>
        <time>2019-01-07T00:24:27Z</time>
      </trkpt>
      <trkpt lat="42.35935" lon="2.38346">
        <ele>1490.8</ele>
        <time>2019-01-07T00:24:28Z</time>
      </trkpt>
      <trkpt lat="42.35933" lon="2.38351">
        <ele>1490.2</ele>
        <time>2019-01-07T00:24:29Z</time>
      </trkpt>
      <trkpt lat="42.3593" lon="2.38357">
        <ele>1489.5</ele>
        <time>2019-01-07T00:24:30Z</time>
      </trkpt>
      <trkpt lat="42.35927" lon="2.38363">
        <ele>1488.9</ele>
        <time>2019-01-07T00:24:32Z</time>
      </trkpt>
      <trkpt lat="42.35925" lon="2.3837">
        <ele>1488.2</ele>
        <time>2019-01-07T00:24:33Z</time>
      </trkpt>
      <trkpt lat="42.35924" lon="2.38377">
        <ele>1487.7</ele>
        <time>2019-01-07T00:24:35Z</time>
      </trkpt>
      <trkpt lat="42.35922" lon="2.38384">
        <ele>1487.1</ele>
        <time>2019-01-07T00:24:36Z</time>
      </trkpt>
      <trkpt lat="42.35921" lon="2.38391">
        <ele>1486.5</ele>
        <time>2019-01-07T00:24:38Z</time>
      </trkpt>
      <trkpt lat="42.35919" lon="2.38398">
        <ele>1486.2</ele>
        <time>2019-01-07T00:24:39Z</time>
      </trkpt>
      <trkpt lat="42.35916" lon="2.38403">
        <ele>1485.8</ele>
        <time>2019-01-07T00:24:40Z</time>
      </trkpt>
      <trkpt lat="42.35914" lon="2.38409">
        <ele>1484.9</ele>
        <time>2019-01-07T00:24:42Z</time>
      </trkpt>
      <trkpt lat="42.35911" lon="2.38414">
        <ele>1484.2</ele>
        <time>2019-01-07T00:24:43Z</time>
      </trkpt>
      <trkpt lat="42.35908" lon="2.3842">
        <ele>1483</ele>
        <time>2019-01-07T00:24:44Z</time>
      </trkpt>
      <trkpt lat="42.35904" lon="2.38427">
        <ele>1481.5</ele>
        <time>2019-01-07T00:24:46Z</time>
      </trkpt>
      <trkpt lat="42.35901" lon="2.38432">
        <ele>1480.3</ele>
        <time>2019-01-07T00:24:47Z</time>
      </trkpt>
      <trkpt lat="42.35898" lon="2.38438">
        <ele>1479.1</ele>
        <time>2019-01-07T00:24:49Z</time>
      </trkpt>
      <trkpt lat="42.35894" lon="2.38445">
        <ele>1477.8</ele>
        <time>2019-01-07T00:24:51Z</time>
      </trkpt>
      <trkpt lat="42.3589" lon="2.3845">
        <ele>1476.8</ele>
        <time>2019-01-07T00:24:52Z</time>
      </trkpt>
      <trkpt lat="42.35887" lon="2.38455">
        <ele>1475.8</ele>
        <time>2019-01-07T00:24:53Z</time>
      </trkpt>
      <trkpt lat="42.35883" lon="2.3846">
        <ele>1475.1</ele>
        <time>2019-01-07T00:24:55Z</time>
      </trkpt>
      <trkpt lat="42.3588" lon="2.38465">
        <ele>1474.3</ele>
        <time>2019-01-07T00:24:56Z</time>
      </trkpt>
      <trkpt lat="42.35876" lon="2.3847">
        <ele>1473.5</ele>
        <time>2019-01-07T00:24:57Z</time>
      </trkpt>
      <trkpt lat="42.35872" lon="2.38474">
        <ele>1472.8</ele>
        <time>2019-01-07T00:24:59Z</time>
      </trkpt>
      <trkpt lat="42.35869" lon="2.3848">
        <ele>1472.1</ele>
        <time>2019-01-07T00:25:00Z</time>
      </trkpt>
      <trkpt lat="42.35865" lon="2.38486">
        <ele>1471.5</ele>
        <time>2019-01-07T00:25:02Z</time>
      </trkpt>
      <trkpt lat="42.35862" lon="2.38493">
        <ele>1470.9</ele>
        <time>2019-01-07T00:25:03Z</time>
      </trkpt>
      <trkpt lat="42.35858" lon="2.385">
        <ele>1470.5</ele>
        <time>2019-01-07T00:25:05Z</time>
      </trkpt>
      <trkpt lat="42.35855" lon="2.38505">
        <ele>1469.6</ele>
        <time>2019-01-07T00:25:06Z</time>
      </trkpt>
      <trkpt lat="42.3585" lon="2.38511">
        <ele>1468.9</ele>
        <time>2019-01-07T00:25:08Z</time>
      </trkpt>
      <trkpt lat="42.35846" lon="2.38515">
        <ele>1468.4</ele>
        <time>2019-01-07T00:25:09Z</time>
      </trkpt>
      <trkpt lat="42.35843" lon="2.3852">
        <ele>1467.8</ele>
        <time>2019-01-07T00:25:11Z</time>
      </trkpt>
      <trkpt lat="42.3584" lon="2.38525">
        <ele>1467.2</ele>
        <time>2019-01-07T00:25:12Z</time>
      </trkpt>
      <trkpt lat="42.35837" lon="2.3853">
        <ele>1466.8</ele>
        <time>2019-01-07T00:25:13Z</time>
      </trkpt>
      <trkpt lat="42.35835" lon="2.38536">
        <ele>1466.4</ele>
        <time>2019-01-07T00:25:15Z</time>
      </trkpt>
      <trkpt lat="42.35834" lon="2.38542">
        <ele>1465.8</ele>
        <time>2019-01-07T00:25:16Z</time>
      </trkpt>
      <trkpt lat="42.35832" lon="2.38549">
        <ele>1464.9</ele>
        <time>2019-01-07T00:25:17Z</time>
      </trkpt>
      <trkpt lat="42.3583" lon="2.38556">
        <ele>1463.9</ele>
        <time>2019-01-07T00:25:19Z</time>
      </trkpt>
      <trkpt lat="42.35827" lon="2.38562">
        <ele>1462.9</ele>
        <time>2019-01-07T00:25:20Z</time>
      </trkpt>
      <trkpt lat="42.35825" lon="2.38568">
        <ele>1462</ele>
        <time>2019-01-07T00:25:21Z</time>
      </trkpt>
      <trkpt lat="42.35822" lon="2.38575">
        <ele>1460.8</ele>
        <time>2019-01-07T00:25:23Z</time>
      </trkpt>
      <trkpt lat="42.35818" lon="2.38581">
        <ele>1459.9</ele>
        <time>2019-01-07T00:25:25Z</time>
      </trkpt>
      <trkpt lat="42.35815" lon="2.38586">
        <ele>1458.9</ele>
        <time>2019-01-07T00:25:26Z</time>
      </trkpt>
      <trkpt lat="42.35812" lon="2.38591">
        <ele>1458.2</ele>
        <time>2019-01-07T00:25:27Z</time>
      </trkpt>
      <trkpt lat="42.35808" lon="2.38597">
        <ele>1457.5</ele>
        <time>2019-01-07T00:25:29Z</time>
      </trkpt>
      <trkpt lat="42.35805" lon="2.38602">
        <ele>1456.7</ele>
        <time>2019-01-07T00:25:30Z</time>
      </trkpt>
      <trkpt lat="42.358" lon="2.38606">
        <ele>1456.1</ele>
        <time>2019-01-07T00:25:32Z</time>
      </trkpt>
      <trkpt lat="42.35796" lon="2.38609">
        <ele>1455.4</ele>
        <time>2019-01-07T00:25:33Z</time>
      </trkpt>
      <trkpt lat="42.35792" lon="2.38613">
        <ele>1454.8</ele>
        <time>2019-01-07T00:25:34Z</time>
      </trkpt>
      <trkpt lat="42.35788" lon="2.38617">
        <ele>1454.4</ele>
        <time>2019-01-07T00:25:35Z</time>
      </trkpt>
      <trkpt lat="42.35783" lon="2.3862">
        <ele>1453.8</ele>
        <time>2019-01-07T00:25:37Z</time>
      </trkpt>
      <trkpt lat="42.35779" lon="2.38624">
        <ele>1453.5</ele>
        <time>2019-01-07T00:25:38Z</time>
      </trkpt>
      <trkpt lat="42.35775" lon="2.38629">
        <ele>1453.2</ele>
        <time>2019-01-07T00:25:40Z</time>
      </trkpt>
      <trkpt lat="42.35772" lon="2.38633">
        <ele>1452.9</ele>
        <time>2019-01-07T00:25:41Z</time>
      </trkpt>
      <trkpt lat="42.35769" lon="2.38639">
        <ele>1452.8</ele>
        <time>2019-01-07T00:25:42Z</time>
      </trkpt>
      <trkpt lat="42.35766" lon="2.38646">
        <ele>1452.8</ele>
        <time>2019-01-07T00:25:44Z</time>
      </trkpt>
      <trkpt lat="42.35764" lon="2.38653">
        <ele>1452.8</ele>
        <time>2019-01-07T00:25:45Z</time>
      </trkpt>
      <trkpt lat="42.35762" lon="2.38659">
        <ele>1452.7</ele>
        <time>2019-01-07T00:25:47Z</time>
      </trkpt>
      <trkpt lat="42.3576" lon="2.38666">
        <ele>1452.9</ele>
        <time>2019-01-07T00:25:48Z</time>
      </trkpt>
      <trkpt lat="42.35758" lon="2.38672">
        <ele>1452.5</ele>
        <time>2019-01-07T00:25:49Z</time>
      </trkpt>
      <trkpt lat="42.35755" lon="2.38678">
        <ele>1452.2</ele>
        <time>2019-01-07T00:25:51Z</time>
      </trkpt>
      <trkpt lat="42.35752" lon="2.38683">
        <ele>1452</ele>
        <time>2019-01-07T00:25:52Z</time>
      </trkpt>
      <trkpt lat="42.35749" lon="2.38689">
        <ele>1451.6</ele>
        <time>2019-01-07T00:25:54Z</time>
      </trkpt>
      <trkpt lat="42.35747" lon="2.38695">
        <ele>1450.8</ele>
        <time>2019-01-07T00:25:55Z</time>
      </trkpt>
      <trkpt lat="42.35745" lon="2.387">
        <ele>1450</ele>
        <time>2019-01-07T00:25:56Z</time>
      </trkpt>
      <trkpt lat="42.35742" lon="2.38706">
        <ele>1449.3</ele>
        <time>2019-01-07T00:25:58Z</time>
      </trkpt>
      <trkpt lat="42.3574" lon="2.38712">
        <ele>1448.6</ele>
        <time>2019-01-07T00:25:59Z</time>
      </trkpt>
      <trkpt lat="42.35739" lon="2.38719">
        <ele>1448.2</ele>
        <time>2019-01-07T00:26:00Z</time>
      </trkpt>
      <trkpt lat="42.35737" lon="2.38726">
        <ele>1447.5</ele>
        <time>2019-01-07T00:26:02Z</time>
      </trkpt>
      <trkpt lat="42.35735" lon="2.38733">
        <ele>1446.9</ele>
        <time>2019-01-07T00:26:03Z</time>
      </trkpt>
      <trkpt lat="42.35732" lon="2.38739">
        <ele>1446.2</ele>
        <time>2019-01-07T00:26:04Z</time>
      </trkpt>
      <trkpt lat="42.3573" lon="2.38746">
        <ele>1445.7</ele>
        <time>2019-01-07T00:26:06Z</time>
      </trkpt>
      <trkpt lat="42.35727" lon="2.38752">
        <ele>1444.8</ele>
        <time>2019-01-07T00:26:07Z</time>
      </trkpt>
      <trkpt lat="42.35724" lon="2.38758">
        <ele>1443.7</ele>
        <time>2019-01-07T00:26:09Z</time>
      </trkpt>
      <trkpt lat="42.35721" lon="2.38763">
        <ele>1442.6</ele>
        <time>2019-01-07T00:26:10Z</time>
      </trkpt>
      <trkpt lat="42.35718" lon="2.38767">
        <ele>1441.7</ele>
        <time>2019-01-07T00:26:11Z</time>
      </trkpt>
      <trkpt lat="42.35713" lon="2.38771">
        <ele>1440.6</ele>
        <time>2019-01-07T00:26:13Z</time>
      </trkpt>
      <trkpt lat="42.3571" lon="2.38777">
        <ele>1439.6</ele>
        <time>2019-01-07T00:26:14Z</time>
      </trkpt>
      <trkpt lat="42.35707" lon="2.38783">
        <ele>1438.8</ele>
        <time>2019-01-07T00:26:16Z</time>
      </trkpt>
      <trkpt lat="42.35705" lon="2.38788">
        <ele>1438.2</ele>
        <time>2019-01-07T00:26:17Z</time>
      </trkpt>
      <trkpt lat="42.35701" lon="2.38795">
        <ele>1437.4</ele>
        <time>2019-01-07T00:26:18Z</time>
      </trkpt>
      <trkpt lat="42.35699" lon="2.388">
        <ele>1436.8</ele>
        <time>2019-01-07T00:26:20Z</time>
      </trkpt>
      <trkpt lat="42.35696" lon="2.38806">
        <ele>1436.4</ele>
        <time>2019-01-07T00:26:21Z</time>
      </trkpt>
      <trkpt lat="42.35693" lon="2.38811">
        <ele>1435.9</ele>
        <time>2019-01-07T00:26:22Z</time>
      </trkpt>
      <trkpt lat="42.3569" lon="2.38817">
        <ele>1435.5</ele>
        <time>2019-01-07T00:26:24Z</time>
      </trkpt>
      <trkpt lat="42.35688" lon="2.38823">
        <ele>1435.2</ele>
        <time>2019-01-07T00:26:25Z</time>
      </trkpt>
      <trkpt lat="42.35685" lon="2.38829">
        <ele>1435</ele>
        <time>2019-01-07T00:26:27Z</time>
      </trkpt>
      <trkpt lat="42.35682" lon="2.38834">
        <ele>1434.7</ele>
        <time>2019-01-07T00:26:28Z</time>
      </trkpt>
      <trkpt lat="42.3568" lon="2.38841">
        <ele>1434.6</ele>
        <time>2019-01-07T00:26:29Z</time>
      </trkpt>
      <trkpt lat="42.35678" lon="2.38847">
        <ele>1434.6</ele>
        <time>2019-01-07T00:26:31Z</time>
      </trkpt>
      <trkpt lat="42.35676" lon="2.38855">
        <ele>1434.6</ele>
        <time>2019-01-07T00:26:32Z</time>
      </trkpt>
      <trkpt lat="42.35673" lon="2.38862">
        <ele>1434.7</ele>
        <time>2019-01-07T00:26:34Z</time>
      </trkpt>
      <trkpt lat="42.35671" lon="2.38867">
        <ele>1434.7</ele>
        <time>2019-01-07T00:26:35Z</time>
      </trkpt>
      <trkpt lat="42.35668" lon="2.38873">
        <ele>1434.8</ele>
        <time>2019-01-07T00:26:36Z</time>
      </trkpt>
      <trkpt lat="42.35666" lon="2.38881">
        <ele>1434.8</ele>
        <time>2019-01-07T00:26:38Z</time>
      </trkpt>
      <trkpt lat="42.35664" lon="2.38886">
        <ele>1434.4</ele>
        <time>2019-01-07T00:26:39Z</time>
      </trkpt>
      <trkpt lat="42.35662" lon="2.38892">
        <ele>1434</ele>
        <time>2019-01-07T00:26:40Z</time>
      </trkpt>
      <trkpt lat="42.3566" lon="2.38898">
        <ele>1433.6</ele>
        <time>2019-01-07T00:26:42Z</time>
      </trkpt>
      <trkpt lat="42.35657" lon="2.38904">
        <ele>1433.3</ele>
        <time>2019-01-07T00:26:43Z</time>
      </trkpt>
      <trkpt lat="42.35655" lon="2.3891">
        <ele>1432.8</ele>
        <time>2019-01-07T00:26:44Z</time>
      </trkpt>
      <trkpt lat="42.35653" lon="2.38917">
        <ele>1432.6</ele>
        <time>2019-01-07T00:26:46Z</time>
      </trkpt>
      <trkpt lat="42.3565" lon="2.38924">
        <ele>1431.5</ele>
        <time>2019-01-07T00:26:47Z</time>
      </trkpt>
      <trkpt lat="42.35646" lon="2.3893">
        <ele>1430.6</ele>
        <time>2019-01-07T00:26:49Z</time>
      </trkpt>
      <trkpt lat="42.35645" lon="2.38935">
        <ele>1429.9</ele>
        <time>2019-01-07T00:26:50Z</time>
      </trkpt>
      <trkpt lat="42.35642" lon="2.38941">
        <ele>1429.2</ele>
        <time>2019-01-07T00:26:51Z</time>
      </trkpt>
      <trkpt lat="42.35641" lon="2.38948">
        <ele>1428.6</ele>
        <time>2019-01-07T00:26:53Z</time>
      </trkpt>
      <trkpt lat="42.35639" lon="2.38955">
        <ele>1428.1</ele>
        <time>2019-01-07T00:26:54Z</time>
      </trkpt>
      <trkpt lat="42.35637" lon="2.38962">
        <ele>1427.6</ele>
        <time>2019-01-07T00:26:56Z</time>
      </trkpt>
      <trkpt lat="42.35634" lon="2.38968">
        <ele>1427.1</ele>
        <time>2019-01-07T00:26:57Z</time>
      </trkpt>
      <trkpt lat="42.35631" lon="2.38974">
        <ele>1426.8</ele>
        <time>2019-01-07T00:26:59Z</time>
      </trkpt>
      <trkpt lat="42.35628" lon="2.38981">
        <ele>1426.5</ele>
        <time>2019-01-07T00:27:00Z</time>
      </trkpt>
      <trkpt lat="42.35625" lon="2.38987">
        <ele>1426.3</ele>
        <time>2019-01-07T00:27:02Z</time>
      </trkpt>
      <trkpt lat="42.35623" lon="2.38993">
        <ele>1426.1</ele>
        <time>2019-01-07T00:27:03Z</time>
      </trkpt>
      <trkpt lat="42.35621" lon="2.38999">
        <ele>1426</ele>
        <time>2019-01-07T00:27:04Z</time>
      </trkpt>
      <trkpt lat="42.35619" lon="2.39005">
        <ele>1425.8</ele>
        <time>2019-01-07T00:27:06Z</time>
      </trkpt>
      <trkpt lat="42.35616" lon="2.39012">
        <ele>1425.3</ele>
        <time>2019-01-07T00:27:07Z</time>
      </trkpt>
      <trkpt lat="42.35614" lon="2.39018">
        <ele>1425.1</ele>
        <time>2019-01-07T00:27:08Z</time>
      </trkpt>
      <trkpt lat="42.35611" lon="2.39023">
        <ele>1424.8</ele>
        <time>2019-01-07T00:27:10Z</time>
      </trkpt>
      <trkpt lat="42.35609" lon="2.39031">
        <ele>1424.5</ele>
        <time>2019-01-07T00:27:11Z</time>
      </trkpt>
      <trkpt lat="42.35609" lon="2.39037">
        <ele>1424.2</ele>
        <time>2019-01-07T00:27:13Z</time>
      </trkpt>
      <trkpt lat="42.35608" lon="2.39043">
        <ele>1423.9</ele>
        <time>2019-01-07T00:27:14Z</time>
      </trkpt>
      <trkpt lat="42.35606" lon="2.3905">
        <ele>1423.6</ele>
        <time>2019-01-07T00:27:15Z</time>
      </trkpt>
      <trkpt lat="42.35605" lon="2.39056">
        <ele>1423.5</ele>
        <time>2019-01-07T00:27:16Z</time>
      </trkpt>
      <trkpt lat="42.35605" lon="2.39062">
        <ele>1423.1</ele>
        <time>2019-01-07T00:27:18Z</time>
      </trkpt>
      <trkpt lat="42.35603" lon="2.3907">
        <ele>1423</ele>
        <time>2019-01-07T00:27:19Z</time>
      </trkpt>
      <trkpt lat="42.35602" lon="2.39078">
        <ele>1422.6</ele>
        <time>2019-01-07T00:27:21Z</time>
      </trkpt>
      <trkpt lat="42.35602" lon="2.39085">
        <ele>1422.3</ele>
        <time>2019-01-07T00:27:22Z</time>
      </trkpt>
      <trkpt lat="42.35601" lon="2.39092">
        <ele>1421.8</ele>
        <time>2019-01-07T00:27:24Z</time>
      </trkpt>
      <trkpt lat="42.35599" lon="2.39099">
        <ele>1421.4</ele>
        <time>2019-01-07T00:27:25Z</time>
      </trkpt>
      <trkpt lat="42.35597" lon="2.39105">
        <ele>1421.2</ele>
        <time>2019-01-07T00:27:26Z</time>
      </trkpt>
      <trkpt lat="42.35595" lon="2.3911">
        <ele>1421</ele>
        <time>2019-01-07T00:27:28Z</time>
      </trkpt>
      <trkpt lat="42.35594" lon="2.39118">
        <ele>1420.4</ele>
        <time>2019-01-07T00:27:29Z</time>
      </trkpt>
      <trkpt lat="42.35594" lon="2.39124">
        <ele>1419.9</ele>
        <time>2019-01-07T00:27:30Z</time>
      </trkpt>
      <trkpt lat="42.35593" lon="2.39131">
        <ele>1419.6</ele>
        <time>2019-01-07T00:27:32Z</time>
      </trkpt>
      <trkpt lat="42.35592" lon="2.39137">
        <ele>1419</ele>
        <time>2019-01-07T00:27:33Z</time>
      </trkpt>
      <trkpt lat="42.35591" lon="2.39144">
        <ele>1418.5</ele>
        <time>2019-01-07T00:27:34Z</time>
      </trkpt>
      <trkpt lat="42.35592" lon="2.39151">
        <ele>1417.9</ele>
        <time>2019-01-07T00:27:36Z</time>
      </trkpt>
      <trkpt lat="42.35591" lon="2.39158">
        <ele>1417.3</ele>
        <time>2019-01-07T00:27:37Z</time>
      </trkpt>
      <trkpt lat="42.35591" lon="2.39165">
        <ele>1416.8</ele>
        <time>2019-01-07T00:27:38Z</time>
      </trkpt>
      <trkpt lat="42.3559" lon="2.39172">
        <ele>1416.2</ele>
        <time>2019-01-07T00:27:40Z</time>
      </trkpt>
      <trkpt lat="42.35591" lon="2.39179">
        <ele>1415.2</ele>
        <time>2019-01-07T00:27:41Z</time>
      </trkpt>
      <trkpt lat="42.35593" lon="2.39186">
        <ele>1414.3</ele>
        <time>2019-01-07T00:27:43Z</time>
      </trkpt>
      <trkpt lat="42.35594" lon="2.39192">
        <ele>1413.2</ele>
        <time>2019-01-07T00:27:44Z</time>
      </trkpt>
      <trkpt lat="42.35595" lon="2.39198">
        <ele>1412.4</ele>
        <time>2019-01-07T00:27:45Z</time>
      </trkpt>
      <trkpt lat="42.35595" lon="2.39205">
        <ele>1411.7</ele>
        <time>2019-01-07T00:27:47Z</time>
      </trkpt>
      <trkpt lat="42.35594" lon="2.39213">
        <ele>1411.1</ele>
        <time>2019-01-07T00:27:48Z</time>
      </trkpt>
      <trkpt lat="42.35594" lon="2.39219">
        <ele>1410.3</ele>
        <time>2019-01-07T00:27:49Z</time>
      </trkpt>
      <trkpt lat="42.35594" lon="2.39225">
        <ele>1409.8</ele>
        <time>2019-01-07T00:27:51Z</time>
      </trkpt>
      <trkpt lat="42.35593" lon="2.39232">
        <ele>1409.2</ele>
        <time>2019-01-07T00:27:52Z</time>
      </trkpt>
      <trkpt lat="42.35591" lon="2.39239">
        <ele>1408.9</ele>
        <time>2019-01-07T00:27:53Z</time>
      </trkpt>
      <trkpt lat="42.3559" lon="2.39246">
        <ele>1408.5</ele>
        <time>2019-01-07T00:27:55Z</time>
      </trkpt>
      <trkpt lat="42.3559" lon="2.39253">
        <ele>1407.5</ele>
        <time>2019-01-07T00:27:56Z</time>
      </trkpt>
      <trkpt lat="42.35588" lon="2.39261">
        <ele>1406.9</ele>
        <time>2019-01-07T00:27:58Z</time>
      </trkpt>
      <trkpt lat="42.35587" lon="2.39268">
        <ele>1406</ele>
        <time>2019-01-07T00:27:59Z</time>
      </trkpt>
      <trkpt lat="42.35586" lon="2.39276">
        <ele>1405.2</ele>
        <time>2019-01-07T00:28:01Z</time>
      </trkpt>
      <trkpt lat="42.35586" lon="2.39282">
        <ele>1404</ele>
        <time>2019-01-07T00:28:02Z</time>
      </trkpt>
      <trkpt lat="42.35586" lon="2.39289">
        <ele>1402.9</ele>
        <time>2019-01-07T00:28:03Z</time>
      </trkpt>
      <trkpt lat="42.35586" lon="2.39296">
        <ele>1402</ele>
        <time>2019-01-07T00:28:05Z</time>
      </trkpt>
      <trkpt lat="42.35586" lon="2.39303">
        <ele>1401</ele>
        <time>2019-01-07T00:28:06Z</time>
      </trkpt>
      <trkpt lat="42.35585" lon="2.3931">
        <ele>1399.9</ele>
        <time>2019-01-07T00:28:07Z</time>
      </trkpt>
      <trkpt lat="42.35587" lon="2.39316">
        <ele>1398.7</ele>
        <time>2019-01-07T00:28:09Z</time>
      </trkpt>
      <trkpt lat="42.35587" lon="2.39323">
        <ele>1397.4</ele>
        <time>2019-01-07T00:28:10Z</time>
      </trkpt>
      <trkpt lat="42.35587" lon="2.3933">
        <ele>1396.5</ele>
        <time>2019-01-07T00:28:12Z</time>
      </trkpt>
      <trkpt lat="42.35587" lon="2.39337">
        <ele>1395.2</ele>
        <time>2019-01-07T00:28:13Z</time>
      </trkpt>
      <trkpt lat="42.35587" lon="2.39344">
        <ele>1394</ele>
        <time>2019-01-07T00:28:14Z</time>
      </trkpt>
      <trkpt lat="42.35588" lon="2.39351">
        <ele>1392.5</ele>
        <time>2019-01-07T00:28:16Z</time>
      </trkpt>
      <trkpt lat="42.35588" lon="2.39359">
        <ele>1391.1</ele>
        <time>2019-01-07T00:28:17Z</time>
      </trkpt>
      <trkpt lat="42.35588" lon="2.39366">
        <ele>1389.9</ele>
        <time>2019-01-07T00:28:19Z</time>
      </trkpt>
      <trkpt lat="42.35587" lon="2.39372">
        <ele>1389</ele>
        <time>2019-01-07T00:28:20Z</time>
      </trkpt>
      <trkpt lat="42.35585" lon="2.39378">
        <ele>1388.2</ele>
        <time>2019-01-07T00:28:21Z</time>
      </trkpt>
      <trkpt lat="42.35584" lon="2.39384">
        <ele>1387.3</ele>
        <time>2019-01-07T00:28:22Z</time>
      </trkpt>
      <trkpt lat="42.35582" lon="2.39391">
        <ele>1386.2</ele>
        <time>2019-01-07T00:28:24Z</time>
      </trkpt>
      <trkpt lat="42.35581" lon="2.39397">
        <ele>1385</ele>
        <time>2019-01-07T00:28:25Z</time>
      </trkpt>
      <trkpt lat="42.3558" lon="2.39403">
        <ele>1383.9</ele>
        <time>2019-01-07T00:28:26Z</time>
      </trkpt>
      <trkpt lat="42.3558" lon="2.39409">
        <ele>1382.6</ele>
        <time>2019-01-07T00:28:28Z</time>
      </trkpt>
      <trkpt lat="42.3558" lon="2.39417">
        <ele>1381.5</ele>
        <time>2019-01-07T00:28:29Z</time>
      </trkpt>
      <trkpt lat="42.35581" lon="2.39424">
        <ele>1380.4</ele>
        <time>2019-01-07T00:28:30Z</time>
      </trkpt>
      <trkpt lat="42.35581" lon="2.3943">
        <ele>1379.1</ele>
        <time>2019-01-07T00:28:32Z</time>
      </trkpt>
      <trkpt lat="42.3558" lon="2.39437">
        <ele>1378</ele>
        <time>2019-01-07T00:28:33Z</time>
      </trkpt>
      <trkpt lat="42.35579" lon="2.39443">
        <ele>1376.8</ele>
        <time>2019-01-07T00:28:34Z</time>
      </trkpt>
      <trkpt lat="42.35578" lon="2.3945">
        <ele>1375.8</ele>
        <time>2019-01-07T00:28:36Z</time>
      </trkpt>
      <trkpt lat="42.35578" lon="2.39456">
        <ele>1374.8</ele>
        <time>2019-01-07T00:28:37Z</time>
      </trkpt>
      <trkpt lat="42.35578" lon="2.39463">
        <ele>1373.6</ele>
        <time>2019-01-07T00:28:38Z</time>
      </trkpt>
      <trkpt lat="42.35579" lon="2.3947">
        <ele>1372.6</ele>
        <time>2019-01-07T00:28:40Z</time>
      </trkpt>
      <trkpt lat="42.35578" lon="2.39476">
        <ele>1371.4</ele>
        <time>2019-01-07T00:28:41Z</time>
      </trkpt>
      <trkpt lat="42.35576" lon="2.39482">
        <ele>1370.4</ele>
        <time>2019-01-07T00:28:42Z</time>
      </trkpt>
      <trkpt lat="42.35577" lon="2.39489">
        <ele>1369.2</ele>
        <time>2019-01-07T00:28:44Z</time>
      </trkpt>
      <trkpt lat="42.35578" lon="2.39494">
        <ele>1368.3</ele>
        <time>2019-01-07T00:28:45Z</time>
      </trkpt>
      <trkpt lat="42.3558" lon="2.39501">
        <ele>1367.5</ele>
        <time>2019-01-07T00:28:46Z</time>
      </trkpt>
      <trkpt lat="42.3558" lon="2.39508">
        <ele>1367.4</ele>
        <time>2019-01-07T00:28:48Z</time>
      </trkpt>
      <trkpt lat="42.35579" lon="2.39516">
        <ele>1367.1</ele>
        <time>2019-01-07T00:28:49Z</time>
      </trkpt>
      <trkpt lat="42.3558" lon="2.39524">
        <ele>1367</ele>
        <time>2019-01-07T00:28:51Z</time>
      </trkpt>
      <trkpt lat="42.3558" lon="2.39532">
        <ele>1366.9</ele>
        <time>2019-01-07T00:28:52Z</time>
      </trkpt>
      <trkpt lat="42.3558" lon="2.3954">
        <ele>1366.8</ele>
        <time>2019-01-07T00:28:54Z</time>
      </trkpt>
      <trkpt lat="42.3558" lon="2.39548">
        <ele>1366.7</ele>
        <time>2019-01-07T00:28:56Z</time>
      </trkpt>
      <trkpt lat="42.35581" lon="2.39555">
        <ele>1366.7</ele>
        <time>2019-01-07T00:28:57Z</time>
      </trkpt>
      <trkpt lat="42.35581" lon="2.39561">
        <ele>1366.6</ele>
        <time>2019-01-07T00:28:58Z</time>
      </trkpt>
      <trkpt lat="42.3558" lon="2.39568">
        <ele>1366.3</ele>
        <time>2019-01-07T00:28:59Z</time>
      </trkpt>
      <trkpt lat="42.3558" lon="2.39576">
        <ele>1366.3</ele>
        <time>2019-01-07T00:29:01Z</time>
      </trkpt>
      <trkpt lat="42.35578" lon="2.39584">
        <ele>1365.8</ele>
        <time>2019-01-07T00:29:03Z</time>
      </trkpt>
      <trkpt lat="42.35577" lon="2.3959">
        <ele>1365</ele>
        <time>2019-01-07T00:29:04Z</time>
      </trkpt>
      <trkpt lat="42.35575" lon="2.39596">
        <ele>1363.9</ele>
        <time>2019-01-07T00:29:05Z</time>
      </trkpt>
      <trkpt lat="42.35574" lon="2.39603">
        <ele>1363</ele>
        <time>2019-01-07T00:29:07Z</time>
      </trkpt>
      <trkpt lat="42.35572" lon="2.39609">
        <ele>1362</ele>
        <time>2019-01-07T00:29:08Z</time>
      </trkpt>
      <trkpt lat="42.3557" lon="2.39615">
        <ele>1361.1</ele>
        <time>2019-01-07T00:29:09Z</time>
      </trkpt>
      <trkpt lat="42.35569" lon="2.39629">
        <ele>1359.4</ele>
        <time>2019-01-07T00:29:12Z</time>
      </trkpt>
      <trkpt lat="42.35563" lon="2.39634">
        <ele>1358.3</ele>
        <time>2019-01-07T00:29:14Z</time>
      </trkpt>
      <trkpt lat="42.35558" lon="2.39639">
        <ele>1357.4</ele>
        <time>2019-01-07T00:29:16Z</time>
      </trkpt>
      <trkpt lat="42.35552" lon="2.39644">
        <ele>1356.4</ele>
        <time>2019-01-07T00:29:17Z</time>
      </trkpt>
      <trkpt lat="42.35548" lon="2.39648">
        <ele>1355.7</ele>
        <time>2019-01-07T00:29:19Z</time>
      </trkpt>
      <trkpt lat="42.35544" lon="2.39653">
        <ele>1355.1</ele>
        <time>2019-01-07T00:29:20Z</time>
      </trkpt>
      <trkpt lat="42.35541" lon="2.3966">
        <ele>1354.2</ele>
        <time>2019-01-07T00:29:22Z</time>
      </trkpt>
      <trkpt lat="42.3554" lon="2.39666">
        <ele>1353.6</ele>
        <time>2019-01-07T00:29:23Z</time>
      </trkpt>
      <trkpt lat="42.35539" lon="2.39673">
        <ele>1352.7</ele>
        <time>2019-01-07T00:29:24Z</time>
      </trkpt>
      <trkpt lat="42.35537" lon="2.3968">
        <ele>1351.8</ele>
        <time>2019-01-07T00:29:26Z</time>
      </trkpt>
      <trkpt lat="42.35533" lon="2.39686">
        <ele>1350.8</ele>
        <time>2019-01-07T00:29:27Z</time>
      </trkpt>
      <trkpt lat="42.35531" lon="2.39692">
        <ele>1350</ele>
        <time>2019-01-07T00:29:29Z</time>
      </trkpt>
      <trkpt lat="42.3553" lon="2.39699">
        <ele>1349.3</ele>
        <time>2019-01-07T00:29:30Z</time>
      </trkpt>
      <trkpt lat="42.35529" lon="2.39707">
        <ele>1348.3</ele>
        <time>2019-01-07T00:29:32Z</time>
      </trkpt>
      <trkpt lat="42.35527" lon="2.39714">
        <ele>1347.4</ele>
        <time>2019-01-07T00:29:33Z</time>
      </trkpt>
      <trkpt lat="42.35525" lon="2.3972">
        <ele>1346.5</ele>
        <time>2019-01-07T00:29:34Z</time>
      </trkpt>
      <trkpt lat="42.35524" lon="2.39727">
        <ele>1345.8</ele>
        <time>2019-01-07T00:29:36Z</time>
      </trkpt>
      <trkpt lat="42.35523" lon="2.39733">
        <ele>1345</ele>
        <time>2019-01-07T00:29:37Z</time>
      </trkpt>
      <trkpt lat="42.35521" lon="2.3974">
        <ele>1344</ele>
        <time>2019-01-07T00:29:39Z</time>
      </trkpt>
      <trkpt lat="42.35519" lon="2.39747">
        <ele>1343.3</ele>
        <time>2019-01-07T00:29:40Z</time>
      </trkpt>
      <trkpt lat="42.35518" lon="2.39754">
        <ele>1342.5</ele>
        <time>2019-01-07T00:29:42Z</time>
      </trkpt>
      <trkpt lat="42.35517" lon="2.39761">
        <ele>1341.8</ele>
        <time>2019-01-07T00:29:43Z</time>
      </trkpt>
      <trkpt lat="42.35515" lon="2.39767">
        <ele>1341.1</ele>
        <time>2019-01-07T00:29:44Z</time>
      </trkpt>
      <trkpt lat="42.35513" lon="2.39773">
        <ele>1340.5</ele>
        <time>2019-01-07T00:29:46Z</time>
      </trkpt>
      <trkpt lat="42.3551" lon="2.3978">
        <ele>1339.9</ele>
        <time>2019-01-07T00:29:47Z</time>
      </trkpt>
      <trkpt lat="42.35507" lon="2.39786">
        <ele>1339.4</ele>
        <time>2019-01-07T00:29:49Z</time>
      </trkpt>
      <trkpt lat="42.35505" lon="2.39793">
        <ele>1339</ele>
        <time>2019-01-07T00:29:50Z</time>
      </trkpt>
      <trkpt lat="42.35503" lon="2.39801">
        <ele>1338.3</ele>
        <time>2019-01-07T00:29:52Z</time>
      </trkpt>
      <trkpt lat="42.35501" lon="2.39808">
        <ele>1337.9</ele>
        <time>2019-01-07T00:29:53Z</time>
      </trkpt>
      <trkpt lat="42.35497" lon="2.39812">
        <ele>1337.1</ele>
        <time>2019-01-07T00:29:54Z</time>
      </trkpt>
      <trkpt lat="42.35494" lon="2.39818">
        <ele>1336.1</ele>
        <time>2019-01-07T00:29:56Z</time>
      </trkpt>
      <trkpt lat="42.35492" lon="2.39824">
        <ele>1335.1</ele>
        <time>2019-01-07T00:29:57Z</time>
      </trkpt>
      <trkpt lat="42.35489" lon="2.39829">
        <ele>1334.2</ele>
        <time>2019-01-07T00:29:59Z</time>
      </trkpt>
      <trkpt lat="42.35485" lon="2.39835">
        <ele>1333.2</ele>
        <time>2019-01-07T00:30:00Z</time>
      </trkpt>
      <trkpt lat="42.35482" lon="2.3984">
        <ele>1332.3</ele>
        <time>2019-01-07T00:30:01Z</time>
      </trkpt>
      <trkpt lat="42.3548" lon="2.39846">
        <ele>1331.4</ele>
        <time>2019-01-07T00:30:02Z</time>
      </trkpt>
      <trkpt lat="42.35477" lon="2.39852">
        <ele>1330.5</ele>
        <time>2019-01-07T00:30:04Z</time>
      </trkpt>
      <trkpt lat="42.35474" lon="2.39858">
        <ele>1329.6</ele>
        <time>2019-01-07T00:30:05Z</time>
      </trkpt>
      <trkpt lat="42.35471" lon="2.39862">
        <ele>1328.7</ele>
        <time>2019-01-07T00:30:07Z</time>
      </trkpt>
      <trkpt lat="42.35467" lon="2.39865">
        <ele>1327.9</ele>
        <time>2019-01-07T00:30:08Z</time>
      </trkpt>
      <trkpt lat="42.35462" lon="2.39869">
        <ele>1326.9</ele>
        <time>2019-01-07T00:30:09Z</time>
      </trkpt>
      <trkpt lat="42.35458" lon="2.39873">
        <ele>1325.9</ele>
        <time>2019-01-07T00:30:11Z</time>
      </trkpt>
      <trkpt lat="42.35454" lon="2.39877">
        <ele>1325.1</ele>
        <time>2019-01-07T00:30:12Z</time>
      </trkpt>
      <trkpt lat="42.35452" lon="2.39883">
        <ele>1324.4</ele>
        <time>2019-01-07T00:30:13Z</time>
      </trkpt>
      <trkpt lat="42.35449" lon="2.39889">
        <ele>1323.5</ele>
        <time>2019-01-07T00:30:15Z</time>
      </trkpt>
      <trkpt lat="42.35446" lon="2.39894">
        <ele>1322.7</ele>
        <time>2019-01-07T00:30:16Z</time>
      </trkpt>
      <trkpt lat="42.35443" lon="2.399">
        <ele>1321.9</ele>
        <time>2019-01-07T00:30:17Z</time>
      </trkpt>
      <trkpt lat="42.35439" lon="2.39906">
        <ele>1321.1</ele>
        <time>2019-01-07T00:30:19Z</time>
      </trkpt>
      <trkpt lat="42.35437" lon="2.39912">
        <ele>1320.5</ele>
        <time>2019-01-07T00:30:20Z</time>
      </trkpt>
      <trkpt lat="42.35434" lon="2.39918">
        <ele>1319.6</ele>
        <time>2019-01-07T00:30:22Z</time>
      </trkpt>
      <trkpt lat="42.35431" lon="2.39923">
        <ele>1318.8</ele>
        <time>2019-01-07T00:30:23Z</time>
      </trkpt>
      <trkpt lat="42.35427" lon="2.39928">
        <ele>1318</ele>
        <time>2019-01-07T00:30:24Z</time>
      </trkpt>
      <trkpt lat="42.35424" lon="2.39932">
        <ele>1317.3</ele>
        <time>2019-01-07T00:30:25Z</time>
      </trkpt>
      <trkpt lat="42.35419" lon="2.39935">
        <ele>1316.7</ele>
        <time>2019-01-07T00:30:27Z</time>
      </trkpt>
      <trkpt lat="42.35414" lon="2.39939">
        <ele>1315.8</ele>
        <time>2019-01-07T00:30:28Z</time>
      </trkpt>
      <trkpt lat="42.3541" lon="2.39942">
        <ele>1314.7</ele>
        <time>2019-01-07T00:30:30Z</time>
      </trkpt>
      <trkpt lat="42.35405" lon="2.39945">
        <ele>1313.6</ele>
        <time>2019-01-07T00:30:31Z</time>
      </trkpt>
      <trkpt lat="42.35399" lon="2.39948">
        <ele>1312.5</ele>
        <time>2019-01-07T00:30:33Z</time>
      </trkpt>
      <trkpt lat="42.35394" lon="2.39947">
        <ele>1311.6</ele>
        <time>2019-01-07T00:30:34Z</time>
      </trkpt>
      <trkpt lat="42.35389" lon="2.39948">
        <ele>1310.7</ele>
        <time>2019-01-07T00:30:35Z</time>
      </trkpt>
      <trkpt lat="42.35384" lon="2.39952">
        <ele>1309.8</ele>
        <time>2019-01-07T00:30:37Z</time>
      </trkpt>
      <trkpt lat="42.3538" lon="2.39955">
        <ele>1309.1</ele>
        <time>2019-01-07T00:30:38Z</time>
      </trkpt>
      <trkpt lat="42.35377" lon="2.3996">
        <ele>1308.5</ele>
        <time>2019-01-07T00:30:39Z</time>
      </trkpt>
      <trkpt lat="42.35372" lon="2.39965">
        <ele>1307.7</ele>
        <time>2019-01-07T00:30:41Z</time>
      </trkpt>
      <trkpt lat="42.35367" lon="2.39967">
        <ele>1306.8</ele>
        <time>2019-01-07T00:30:43Z</time>
      </trkpt>
      <trkpt lat="42.35361" lon="2.39967">
        <ele>1306</ele>
        <time>2019-01-07T00:30:44Z</time>
      </trkpt>
      <trkpt lat="42.35357" lon="2.39966">
        <ele>1305.5</ele>
        <time>2019-01-07T00:30:45Z</time>
      </trkpt>
      <trkpt lat="42.35352" lon="2.39968">
        <ele>1304.8</ele>
        <time>2019-01-07T00:30:47Z</time>
      </trkpt>
      <trkpt lat="42.35347" lon="2.39972">
        <ele>1304.2</ele>
        <time>2019-01-07T00:30:48Z</time>
      </trkpt>
      <trkpt lat="42.35344" lon="2.39975">
        <ele>1303.7</ele>
        <time>2019-01-07T00:30:49Z</time>
      </trkpt>
      <trkpt lat="42.35339" lon="2.39979">
        <ele>1303.2</ele>
        <time>2019-01-07T00:30:51Z</time>
      </trkpt>
      <trkpt lat="42.35334" lon="2.39983">
        <ele>1302.6</ele>
        <time>2019-01-07T00:30:52Z</time>
      </trkpt>
      <trkpt lat="42.35329" lon="2.39985">
        <ele>1301.7</ele>
        <time>2019-01-07T00:30:54Z</time>
      </trkpt>
      <trkpt lat="42.35324" lon="2.39989">
        <ele>1300.6</ele>
        <time>2019-01-07T00:30:55Z</time>
      </trkpt>
      <trkpt lat="42.3532" lon="2.39992">
        <ele>1299.7</ele>
        <time>2019-01-07T00:30:57Z</time>
      </trkpt>
      <trkpt lat="42.35316" lon="2.39995">
        <ele>1298.8</ele>
        <time>2019-01-07T00:30:58Z</time>
      </trkpt>
      <trkpt lat="42.35312" lon="2.39998">
        <ele>1298</ele>
        <time>2019-01-07T00:30:59Z</time>
      </trkpt>
      <trkpt lat="42.35307" lon="2.40002">
        <ele>1296.9</ele>
        <time>2019-01-07T00:31:00Z</time>
      </trkpt>
      <trkpt lat="42.35302" lon="2.40005">
        <ele>1295.6</ele>
        <time>2019-01-07T00:31:02Z</time>
      </trkpt>
      <trkpt lat="42.35297" lon="2.40008">
        <ele>1294.3</ele>
        <time>2019-01-07T00:31:03Z</time>
      </trkpt>
      <trkpt lat="42.35293" lon="2.4001">
        <ele>1293.2</ele>
        <time>2019-01-07T00:31:05Z</time>
      </trkpt>
      <trkpt lat="42.35288" lon="2.40012">
        <ele>1292</ele>
        <time>2019-01-07T00:31:06Z</time>
      </trkpt>
      <trkpt lat="42.35283" lon="2.40013">
        <ele>1290.9</ele>
        <time>2019-01-07T00:31:07Z</time>
      </trkpt>
      <trkpt lat="42.35277" lon="2.40015">
        <ele>1289.7</ele>
        <time>2019-01-07T00:31:09Z</time>
      </trkpt>
      <trkpt lat="42.35273" lon="2.40018">
        <ele>1288.7</ele>
        <time>2019-01-07T00:31:10Z</time>
      </trkpt>
      <trkpt lat="42.35268" lon="2.40022">
        <ele>1287.6</ele>
        <time>2019-01-07T00:31:12Z</time>
      </trkpt>
      <trkpt lat="42.35264" lon="2.40027">
        <ele>1286.7</ele>
        <time>2019-01-07T00:31:13Z</time>
      </trkpt>
      <trkpt lat="42.3526" lon="2.40032">
        <ele>1285.9</ele>
        <time>2019-01-07T00:31:15Z</time>
      </trkpt>
      <trkpt lat="42.35257" lon="2.40037">
        <ele>1285</ele>
        <time>2019-01-07T00:31:16Z</time>
      </trkpt>
      <trkpt lat="42.35253" lon="2.40041">
        <ele>1284.3</ele>
        <time>2019-01-07T00:31:17Z</time>
      </trkpt>
      <trkpt lat="42.35248" lon="2.40044">
        <ele>1283.3</ele>
        <time>2019-01-07T00:31:19Z</time>
      </trkpt>
      <trkpt lat="42.35243" lon="2.40046">
        <ele>1282</ele>
        <time>2019-01-07T00:31:20Z</time>
      </trkpt>
      <trkpt lat="42.35238" lon="2.40048">
        <ele>1280.7</ele>
        <time>2019-01-07T00:31:21Z</time>
      </trkpt>
      <trkpt lat="42.35234" lon="2.40052">
        <ele>1279.4</ele>
        <time>2019-01-07T00:31:23Z</time>
      </trkpt>
      <trkpt lat="42.35229" lon="2.40055">
        <ele>1278.3</ele>
        <time>2019-01-07T00:31:24Z</time>
      </trkpt>
      <trkpt lat="42.35224" lon="2.40057">
        <ele>1277.1</ele>
        <time>2019-01-07T00:31:25Z</time>
      </trkpt>
      <trkpt lat="42.35221" lon="2.40061">
        <ele>1276.3</ele>
        <time>2019-01-07T00:31:27Z</time>
      </trkpt>
      <trkpt lat="42.35217" lon="2.40066">
        <ele>1275.4</ele>
        <time>2019-01-07T00:31:28Z</time>
      </trkpt>
      <trkpt lat="42.35214" lon="2.40072">
        <ele>1275.1</ele>
        <time>2019-01-07T00:31:30Z</time>
      </trkpt>
      <trkpt lat="42.3521" lon="2.40078">
        <ele>1274.4</ele>
        <time>2019-01-07T00:31:31Z</time>
      </trkpt>
      <trkpt lat="42.35206" lon="2.40082">
        <ele>1273.8</ele>
        <time>2019-01-07T00:31:32Z</time>
      </trkpt>
      <trkpt lat="42.35202" lon="2.40087">
        <ele>1272.5</ele>
        <time>2019-01-07T00:31:34Z</time>
      </trkpt>
      <trkpt lat="42.35198" lon="2.40093">
        <ele>1271.2</ele>
        <time>2019-01-07T00:31:35Z</time>
      </trkpt>
      <trkpt lat="42.35195" lon="2.40098">
        <ele>1270.2</ele>
        <time>2019-01-07T00:31:37Z</time>
      </trkpt>
      <trkpt lat="42.35192" lon="2.40103">
        <ele>1269.2</ele>
        <time>2019-01-07T00:31:38Z</time>
      </trkpt>
      <trkpt lat="42.35193" lon="2.4011">
        <ele>1268.8</ele>
        <time>2019-01-07T00:31:39Z</time>
      </trkpt>
      <trkpt lat="42.35196" lon="2.40116">
        <ele>1268.7</ele>
        <time>2019-01-07T00:31:41Z</time>
      </trkpt>
      <trkpt lat="42.35198" lon="2.40122">
        <ele>1268.5</ele>
        <time>2019-01-07T00:31:42Z</time>
      </trkpt>
      <trkpt lat="42.35199" lon="2.40128">
        <ele>1268.1</ele>
        <time>2019-01-07T00:31:43Z</time>
      </trkpt>
      <trkpt lat="42.35197" lon="2.40135">
        <ele>1267.3</ele>
        <time>2019-01-07T00:31:45Z</time>
      </trkpt>
      <trkpt lat="42.35194" lon="2.40141">
        <ele>1266.3</ele>
        <time>2019-01-07T00:31:46Z</time>
      </trkpt>
      <trkpt lat="42.35191" lon="2.40146">
        <ele>1265.3</ele>
        <time>2019-01-07T00:31:47Z</time>
      </trkpt>
      <trkpt lat="42.35188" lon="2.40152">
        <ele>1264.2</ele>
        <time>2019-01-07T00:31:49Z</time>
      </trkpt>
      <trkpt lat="42.35185" lon="2.40156">
        <ele>1263.4</ele>
        <time>2019-01-07T00:31:50Z</time>
      </trkpt>
      <trkpt lat="42.35182" lon="2.40162">
        <ele>1262.4</ele>
        <time>2019-01-07T00:31:51Z</time>
      </trkpt>
      <trkpt lat="42.3518" lon="2.40167">
        <ele>1261.6</ele>
        <time>2019-01-07T00:31:53Z</time>
      </trkpt>
      <trkpt lat="42.35176" lon="2.40174">
        <ele>1260.5</ele>
        <time>2019-01-07T00:31:54Z</time>
      </trkpt>
      <trkpt lat="42.35174" lon="2.40179">
        <ele>1259.5</ele>
        <time>2019-01-07T00:31:56Z</time>
      </trkpt>
      <trkpt lat="42.3517" lon="2.40184">
        <ele>1258.5</ele>
        <time>2019-01-07T00:31:57Z</time>
      </trkpt>
      <trkpt lat="42.35167" lon="2.40191">
        <ele>1257.4</ele>
        <time>2019-01-07T00:31:59Z</time>
      </trkpt>
      <trkpt lat="42.35163" lon="2.40197">
        <ele>1256</ele>
        <time>2019-01-07T00:32:00Z</time>
      </trkpt>
      <trkpt lat="42.35161" lon="2.40203">
        <ele>1254.9</ele>
        <time>2019-01-07T00:32:02Z</time>
      </trkpt>
      <trkpt lat="42.35158" lon="2.40209">
        <ele>1253.7</ele>
        <time>2019-01-07T00:32:03Z</time>
      </trkpt>
      <trkpt lat="42.35154" lon="2.40214">
        <ele>1252.4</ele>
        <time>2019-01-07T00:32:04Z</time>
      </trkpt>
      <trkpt lat="42.35152" lon="2.4022">
        <ele>1251.5</ele>
        <time>2019-01-07T00:32:05Z</time>
      </trkpt>
      <trkpt lat="42.35149" lon="2.40225">
        <ele>1250.4</ele>
        <time>2019-01-07T00:32:07Z</time>
      </trkpt>
      <trkpt lat="42.35145" lon="2.40231">
        <ele>1249.2</ele>
        <time>2019-01-07T00:32:08Z</time>
      </trkpt>
      <trkpt lat="42.35142" lon="2.40237">
        <ele>1248</ele>
        <time>2019-01-07T00:32:10Z</time>
      </trkpt>
      <trkpt lat="42.35139" lon="2.40244">
        <ele>1246.9</ele>
        <time>2019-01-07T00:32:11Z</time>
      </trkpt>
      <trkpt lat="42.35137" lon="2.4025">
        <ele>1246.1</ele>
        <time>2019-01-07T00:32:13Z</time>
      </trkpt>
      <trkpt lat="42.35135" lon="2.40257">
        <ele>1245</ele>
        <time>2019-01-07T00:32:14Z</time>
      </trkpt>
      <trkpt lat="42.35133" lon="2.40263">
        <ele>1244</ele>
        <time>2019-01-07T00:32:15Z</time>
      </trkpt>
      <trkpt lat="42.3513" lon="2.40269">
        <ele>1243</ele>
        <time>2019-01-07T00:32:17Z</time>
      </trkpt>
      <trkpt lat="42.35127" lon="2.40276">
        <ele>1241.9</ele>
        <time>2019-01-07T00:32:19Z</time>
      </trkpt>
      <trkpt lat="42.35124" lon="2.40281">
        <ele>1240.9</ele>
        <time>2019-01-07T00:32:20Z</time>
      </trkpt>
      <trkpt lat="42.35121" lon="2.40287">
        <ele>1240</ele>
        <time>2019-01-07T00:32:21Z</time>
      </trkpt>
      <trkpt lat="42.35118" lon="2.40292">
        <ele>1239.2</ele>
        <time>2019-01-07T00:32:23Z</time>
      </trkpt>
      <trkpt lat="42.35115" lon="2.40298">
        <ele>1238.4</ele>
        <time>2019-01-07T00:32:24Z</time>
      </trkpt>
      <trkpt lat="42.35112" lon="2.40303">
        <ele>1237.7</ele>
        <time>2019-01-07T00:32:25Z</time>
      </trkpt>
      <trkpt lat="42.35109" lon="2.4031">
        <ele>1236.9</ele>
        <time>2019-01-07T00:32:27Z</time>
      </trkpt>
      <trkpt lat="42.35105" lon="2.40315">
        <ele>1236.3</ele>
        <time>2019-01-07T00:32:28Z</time>
      </trkpt>
      <trkpt lat="42.35103" lon="2.40321">
        <ele>1235.7</ele>
        <time>2019-01-07T00:32:30Z</time>
      </trkpt>
      <trkpt lat="42.35098" lon="2.40322">
        <ele>1235.2</ele>
        <time>2019-01-07T00:32:31Z</time>
      </trkpt>
      <trkpt lat="42.35094" lon="2.40325">
        <ele>1234.7</ele>
        <time>2019-01-07T00:32:32Z</time>
      </trkpt>
      <trkpt lat="42.3509" lon="2.4033">
        <ele>1234.3</ele>
        <time>2019-01-07T00:32:34Z</time>
      </trkpt>
      <trkpt lat="42.35085" lon="2.40333">
        <ele>1233.8</ele>
        <time>2019-01-07T00:32:35Z</time>
      </trkpt>
      <trkpt lat="42.3508" lon="2.40335">
        <ele>1233.1</ele>
        <time>2019-01-07T00:32:36Z</time>
      </trkpt>
      <trkpt lat="42.35076" lon="2.40338">
        <ele>1232</ele>
        <time>2019-01-07T00:32:38Z</time>
      </trkpt>
      <trkpt lat="42.35071" lon="2.40342">
        <ele>1231</ele>
        <time>2019-01-07T00:32:39Z</time>
      </trkpt>
      <trkpt lat="42.35066" lon="2.40346">
        <ele>1229.9</ele>
        <time>2019-01-07T00:32:41Z</time>
      </trkpt>
      <trkpt lat="42.35061" lon="2.40349">
        <ele>1228.8</ele>
        <time>2019-01-07T00:32:42Z</time>
      </trkpt>
      <trkpt lat="42.35056" lon="2.4035">
        <ele>1227.8</ele>
        <time>2019-01-07T00:32:43Z</time>
      </trkpt>
      <trkpt lat="42.35051" lon="2.40352">
        <ele>1226.9</ele>
        <time>2019-01-07T00:32:45Z</time>
      </trkpt>
      <trkpt lat="42.35046" lon="2.40352">
        <ele>1225.8</ele>
        <time>2019-01-07T00:32:46Z</time>
      </trkpt>
      <trkpt lat="42.35041" lon="2.40352">
        <ele>1224.7</ele>
        <time>2019-01-07T00:32:48Z</time>
      </trkpt>
      <trkpt lat="42.35036" lon="2.40352">
        <ele>1223.8</ele>
        <time>2019-01-07T00:32:49Z</time>
      </trkpt>
      <trkpt lat="42.35031" lon="2.40351">
        <ele>1222.8</ele>
        <time>2019-01-07T00:32:50Z</time>
      </trkpt>
      <trkpt lat="42.35025" lon="2.4035">
        <ele>1221.9</ele>
        <time>2019-01-07T00:32:52Z</time>
      </trkpt>
      <trkpt lat="42.35021" lon="2.40349">
        <ele>1220.9</ele>
        <time>2019-01-07T00:32:53Z</time>
      </trkpt>
      <trkpt lat="42.35015" lon="2.40349">
        <ele>1219.9</ele>
        <time>2019-01-07T00:32:54Z</time>
      </trkpt>
      <trkpt lat="42.35011" lon="2.40351">
        <ele>1219</ele>
        <time>2019-01-07T00:32:56Z</time>
      </trkpt>
      <trkpt lat="42.35006" lon="2.40354">
        <ele>1218</ele>
        <time>2019-01-07T00:32:57Z</time>
      </trkpt>
      <trkpt lat="42.35001" lon="2.40355">
        <ele>1217.1</ele>
        <time>2019-01-07T00:32:58Z</time>
      </trkpt>
      <trkpt lat="42.34997" lon="2.40357">
        <ele>1216.2</ele>
        <time>2019-01-07T00:33:00Z</time>
      </trkpt>
      <trkpt lat="42.34993" lon="2.40362">
        <ele>1215.4</ele>
        <time>2019-01-07T00:33:01Z</time>
      </trkpt>
      <trkpt lat="42.34989" lon="2.40366">
        <ele>1214.6</ele>
        <time>2019-01-07T00:33:02Z</time>
      </trkpt>
      <trkpt lat="42.34985" lon="2.40371">
        <ele>1214</ele>
        <time>2019-01-07T00:33:04Z</time>
      </trkpt>
      <trkpt lat="42.34981" lon="2.40375">
        <ele>1213.2</ele>
        <time>2019-01-07T00:33:05Z</time>
      </trkpt>
      <trkpt lat="42.34977" lon="2.40379">
        <ele>1212.6</ele>
        <time>2019-01-07T00:33:06Z</time>
      </trkpt>
      <trkpt lat="42.34972" lon="2.40382">
        <ele>1211.8</ele>
        <time>2019-01-07T00:33:08Z</time>
      </trkpt>
      <trkpt lat="42.34968" lon="2.40384">
        <ele>1211.1</ele>
        <time>2019-01-07T00:33:09Z</time>
      </trkpt>
      <trkpt lat="42.34963" lon="2.40386">
        <ele>1210.2</ele>
        <time>2019-01-07T00:33:10Z</time>
      </trkpt>
      <trkpt lat="42.34958" lon="2.40388">
        <ele>1209.2</ele>
        <time>2019-01-07T00:33:12Z</time>
      </trkpt>
      <trkpt lat="42.34952" lon="2.40388">
        <ele>1208.3</ele>
        <time>2019-01-07T00:33:13Z</time>
      </trkpt>
      <trkpt lat="42.34947" lon="2.40388">
        <ele>1207.2</ele>
        <time>2019-01-07T00:33:15Z</time>
      </trkpt>
      <trkpt lat="42.34942" lon="2.40389">
        <ele>1206.5</ele>
        <time>2019-01-07T00:33:16Z</time>
      </trkpt>
      <trkpt lat="42.34937" lon="2.40389">
        <ele>1205.5</ele>
        <time>2019-01-07T00:33:17Z</time>
      </trkpt>
      <trkpt lat="42.34932" lon="2.4039">
        <ele>1204.7</ele>
        <time>2019-01-07T00:33:19Z</time>
      </trkpt>
      <trkpt lat="42.34927" lon="2.40394">
        <ele>1203.9</ele>
        <time>2019-01-07T00:33:20Z</time>
      </trkpt>
      <trkpt lat="42.34922" lon="2.40397">
        <ele>1203.4</ele>
        <time>2019-01-07T00:33:22Z</time>
      </trkpt>
      <trkpt lat="42.34918" lon="2.404">
        <ele>1203</ele>
        <time>2019-01-07T00:33:23Z</time>
      </trkpt>
      <trkpt lat="42.34914" lon="2.40403">
        <ele>1202.8</ele>
        <time>2019-01-07T00:33:24Z</time>
      </trkpt>
      <trkpt lat="42.3491" lon="2.40406">
        <ele>1202.3</ele>
        <time>2019-01-07T00:33:25Z</time>
      </trkpt>
      <trkpt lat="42.34906" lon="2.4041">
        <ele>1202</ele>
        <time>2019-01-07T00:33:27Z</time>
      </trkpt>
      <trkpt lat="42.349" lon="2.40413">
        <ele>1201.4</ele>
        <time>2019-01-07T00:33:28Z</time>
      </trkpt>
      <trkpt lat="42.34897" lon="2.40418">
        <ele>1201.1</ele>
        <time>2019-01-07T00:33:30Z</time>
      </trkpt>
      <trkpt lat="42.34894" lon="2.40423">
        <ele>1200.5</ele>
        <time>2019-01-07T00:33:31Z</time>
      </trkpt>
      <trkpt lat="42.34889" lon="2.40423">
        <ele>1199.5</ele>
        <time>2019-01-07T00:33:32Z</time>
      </trkpt>
      <trkpt lat="42.34884" lon="2.40429">
        <ele>1198.5</ele>
        <time>2019-01-07T00:33:34Z</time>
      </trkpt>
      <trkpt lat="42.3488" lon="2.40433">
        <ele>1197.7</ele>
        <time>2019-01-07T00:33:36Z</time>
      </trkpt>
      <trkpt lat="42.34875" lon="2.40432">
        <ele>1196.9</ele>
        <time>2019-01-07T00:33:37Z</time>
      </trkpt>
      <trkpt lat="42.3487" lon="2.40433">
        <ele>1196.1</ele>
        <time>2019-01-07T00:33:38Z</time>
      </trkpt>
      <trkpt lat="42.34866" lon="2.40434">
        <ele>1195.5</ele>
        <time>2019-01-07T00:33:39Z</time>
      </trkpt>
      <trkpt lat="42.34861" lon="2.40434">
        <ele>1194.8</ele>
        <time>2019-01-07T00:33:41Z</time>
      </trkpt>
      <trkpt lat="42.34856" lon="2.40433">
        <ele>1194</ele>
        <time>2019-01-07T00:33:42Z</time>
      </trkpt>
      <trkpt lat="42.34849" lon="2.40433">
        <ele>1193</ele>
        <time>2019-01-07T00:33:44Z</time>
      </trkpt>
      <trkpt lat="42.34843" lon="2.40435">
        <ele>1191.9</ele>
        <time>2019-01-07T00:33:45Z</time>
      </trkpt>
      <trkpt lat="42.34834" lon="2.4044">
        <ele>1190.5</ele>
        <time>2019-01-07T00:33:48Z</time>
      </trkpt>
      <trkpt lat="42.3483" lon="2.40444">
        <ele>1189.9</ele>
        <time>2019-01-07T00:33:49Z</time>
      </trkpt>
      <trkpt lat="42.34824" lon="2.40446">
        <ele>1189.3</ele>
        <time>2019-01-07T00:33:51Z</time>
      </trkpt>
      <trkpt lat="42.34823" lon="2.40452">
        <ele>1189.1</ele>
        <time>2019-01-07T00:33:52Z</time>
      </trkpt>
      <trkpt lat="42.34827" lon="2.40457">
        <ele>1189.4</ele>
        <time>2019-01-07T00:33:54Z</time>
      </trkpt>
      <trkpt lat="42.34831" lon="2.4046">
        <ele>1189.9</ele>
        <time>2019-01-07T00:33:55Z</time>
      </trkpt>
      <trkpt lat="42.34835" lon="2.40466">
        <ele>1190.3</ele>
        <time>2019-01-07T00:33:56Z</time>
      </trkpt>
      <trkpt lat="42.34838" lon="2.40472">
        <ele>1190.7</ele>
        <time>2019-01-07T00:33:58Z</time>
      </trkpt>
      <trkpt lat="42.34842" lon="2.40477">
        <ele>1191.1</ele>
        <time>2019-01-07T00:33:59Z</time>
      </trkpt>
      <trkpt lat="42.34845" lon="2.40483">
        <ele>1191.2</ele>
        <time>2019-01-07T00:34:01Z</time>
      </trkpt>
      <trkpt lat="42.34848" lon="2.40487">
        <ele>1191.6</ele>
        <time>2019-01-07T00:34:02Z</time>
      </trkpt>
      <trkpt lat="42.34852" lon="2.40491">
        <ele>1191.9</ele>
        <time>2019-01-07T00:34:03Z</time>
      </trkpt>
      <trkpt lat="42.3485" lon="2.40497">
        <ele>1191.5</ele>
        <time>2019-01-07T00:34:04Z</time>
      </trkpt>
      <trkpt lat="42.34848" lon="2.40504">
        <ele>1190.5</ele>
        <time>2019-01-07T00:34:06Z</time>
      </trkpt>
      <trkpt lat="42.3485" lon="2.40509">
        <ele>1189.5</ele>
        <time>2019-01-07T00:34:07Z</time>
      </trkpt>
      <trkpt lat="42.34852" lon="2.40516">
        <ele>1188.4</ele>
        <time>2019-01-07T00:34:08Z</time>
      </trkpt>
      <trkpt lat="42.34853" lon="2.40524">
        <ele>1186.7</ele>
        <time>2019-01-07T00:34:10Z</time>
      </trkpt>
      <trkpt lat="42.34853" lon="2.40533">
        <ele>1184.9</ele>
        <time>2019-01-07T00:34:12Z</time>
      </trkpt>
      <trkpt lat="42.34851" lon="2.40539">
        <ele>1183.3</ele>
        <time>2019-01-07T00:34:13Z</time>
      </trkpt>
      <trkpt lat="42.34848" lon="2.40546">
        <ele>1181.7</ele>
        <time>2019-01-07T00:34:15Z</time>
      </trkpt>
      <trkpt lat="42.34846" lon="2.40552">
        <ele>1180.1</ele>
        <time>2019-01-07T00:34:16Z</time>
      </trkpt>
      <trkpt lat="42.34844" lon="2.40558">
        <ele>1178.6</ele>
        <time>2019-01-07T00:34:17Z</time>
      </trkpt>
      <trkpt lat="42.34842" lon="2.40564">
        <ele>1177.2</ele>
        <time>2019-01-07T00:34:18Z</time>
      </trkpt>
      <trkpt lat="42.34843" lon="2.4057">
        <ele>1175.9</ele>
        <time>2019-01-07T00:34:20Z</time>
      </trkpt>
      <trkpt lat="42.34842" lon="2.40577">
        <ele>1174.3</ele>
        <time>2019-01-07T00:34:21Z</time>
      </trkpt>
      <trkpt lat="42.3484" lon="2.40583">
        <ele>1172.8</ele>
        <time>2019-01-07T00:34:22Z</time>
      </trkpt>
      <trkpt lat="42.3484" lon="2.40589">
        <ele>1171.4</ele>
        <time>2019-01-07T00:34:24Z</time>
      </trkpt>
      <trkpt lat="42.34842" lon="2.40594">
        <ele>1170.3</ele>
        <time>2019-01-07T00:34:25Z</time>
      </trkpt>
      <trkpt lat="42.34842" lon="2.40601">
        <ele>1168.7</ele>
        <time>2019-01-07T00:34:26Z</time>
      </trkpt>
      <trkpt lat="42.34843" lon="2.40607">
        <ele>1167.3</ele>
        <time>2019-01-07T00:34:27Z</time>
      </trkpt>
      <trkpt lat="42.34842" lon="2.40615">
        <ele>1165.3</ele>
        <time>2019-01-07T00:34:29Z</time>
      </trkpt>
      <trkpt lat="42.3483" lon="2.40627">
        <ele>1158.1</ele>
        <time>2019-01-07T00:34:33Z</time>
      </trkpt>
      <trkpt lat="42.34834" lon="2.40635">
        <ele>1156.1</ele>
        <time>2019-01-07T00:34:35Z</time>
      </trkpt>
      <trkpt lat="42.34838" lon="2.40636">
        <ele>1155.6</ele>
        <time>2019-01-07T00:34:36Z</time>
      </trkpt>
      <trkpt lat="42.34849" lon="2.40647">
        <ele>1152.4</ele>
        <time>2019-01-07T00:34:39Z</time>
      </trkpt>
      <trkpt lat="42.3485" lon="2.40649">
        <ele>1152.3</ele>
        <time>2019-01-07T00:34:40Z</time>
      </trkpt>
      <trkpt lat="42.34852" lon="2.40653">
        <ele>1150.9</ele>
        <time>2019-01-07T00:34:41Z</time>
      </trkpt>
      <trkpt lat="42.34859" lon="2.40661">
        <ele>1148</ele>
        <time>2019-01-07T00:34:44Z</time>
      </trkpt>
      <trkpt lat="42.34861" lon="2.40667">
        <ele>1146.5</ele>
        <time>2019-01-07T00:34:45Z</time>
      </trkpt>
      <trkpt lat="42.3487" lon="2.40681">
        <ele>1143.1</ele>
        <time>2019-01-07T00:34:48Z</time>
      </trkpt>
      <trkpt lat="42.34873" lon="2.40687">
        <ele>1142.2</ele>
        <time>2019-01-07T00:34:50Z</time>
      </trkpt>
      <trkpt lat="42.34878" lon="2.40698">
        <ele>1140.4</ele>
        <time>2019-01-07T00:34:52Z</time>
      </trkpt>
      <trkpt lat="42.34876" lon="2.40704">
        <ele>1139.9</ele>
        <time>2019-01-07T00:34:54Z</time>
      </trkpt>
      <trkpt lat="42.34871" lon="2.40707">
        <ele>1136.4</ele>
        <time>2019-01-07T00:34:55Z</time>
      </trkpt>
      <trkpt lat="42.34864" lon="2.40715">
        <ele>1133.1</ele>
        <time>2019-01-07T00:34:58Z</time>
      </trkpt>
      <trkpt lat="42.34865" lon="2.40726">
        <ele>1131.2</ele>
        <time>2019-01-07T00:35:00Z</time>
      </trkpt>
      <trkpt lat="42.34866" lon="2.40738">
        <ele>1128.3</ele>
        <time>2019-01-07T00:35:02Z</time>
      </trkpt>
      <trkpt lat="42.34866" lon="2.40739">
        <ele>1127.8</ele>
        <time>2019-01-07T00:35:03Z</time>
      </trkpt>
      <trkpt lat="42.34868" lon="2.40746">
        <ele>1125.9</ele>
        <time>2019-01-07T00:35:04Z</time>
      </trkpt>
      <trkpt lat="42.34872" lon="2.40755">
        <ele>1124.5</ele>
        <time>2019-01-07T00:35:06Z</time>
      </trkpt>
      <trkpt lat="42.34872" lon="2.40762">
        <ele>1123</ele>
        <time>2019-01-07T00:35:07Z</time>
      </trkpt>
      <trkpt lat="42.34874" lon="2.4077">
        <ele>1121.1</ele>
        <time>2019-01-07T00:35:09Z</time>
      </trkpt>
      <trkpt lat="42.34875" lon="2.40781">
        <ele>1119.2</ele>
        <time>2019-01-07T00:35:11Z</time>
      </trkpt>
      <trkpt lat="42.34875" lon="2.40788">
        <ele>1118.2</ele>
        <time>2019-01-07T00:35:13Z</time>
      </trkpt>
      <trkpt lat="42.34874" lon="2.4081">
        <ele>1115.3</ele>
        <time>2019-01-07T00:35:17Z</time>
      </trkpt>
      <trkpt lat="42.34874" lon="2.40813">
        <ele>1114.8</ele>
        <time>2019-01-07T00:35:18Z</time>
      </trkpt>
      <trkpt lat="42.34874" lon="2.40824">
        <ele>1112.5</ele>
        <time>2019-01-07T00:35:20Z</time>
      </trkpt>
      <trkpt lat="42.34873" lon="2.40834">
        <ele>1109.6</ele>
        <time>2019-01-07T00:35:22Z</time>
      </trkpt>
      <trkpt lat="42.34868" lon="2.40843">
        <ele>1107.7</ele>
        <time>2019-01-07T00:35:24Z</time>
      </trkpt>
      <trkpt lat="42.34864" lon="2.40852">
        <ele>1104.7</ele>
        <time>2019-01-07T00:35:26Z</time>
      </trkpt>
      <trkpt lat="42.3486" lon="2.40864">
        <ele>1102.9</ele>
        <time>2019-01-07T00:35:29Z</time>
      </trkpt>
      <trkpt lat="42.34859" lon="2.40868">
        <ele>1101.8</ele>
        <time>2019-01-07T00:35:29Z</time>
      </trkpt>
      <trkpt lat="42.34857" lon="2.40873">
        <ele>1101</ele>
        <time>2019-01-07T00:35:31Z</time>
      </trkpt>
      <trkpt lat="42.34852" lon="2.40891">
        <ele>1098.4</ele>
        <time>2019-01-07T00:35:35Z</time>
      </trkpt>
      <trkpt lat="42.34843" lon="2.40918">
        <ele>1094.7</ele>
        <time>2019-01-07T00:35:40Z</time>
      </trkpt>
      <trkpt lat="42.34836" lon="2.40931">
        <ele>1092.2</ele>
        <time>2019-01-07T00:35:43Z</time>
      </trkpt>
      <trkpt lat="42.34833" lon="2.40941">
        <ele>1089.8</ele>
        <time>2019-01-07T00:35:46Z</time>
      </trkpt>
      <trkpt lat="42.34832" lon="2.4096">
        <ele>1086.9</ele>
        <time>2019-01-07T00:35:49Z</time>
      </trkpt>
      <trkpt lat="42.34832" lon="2.40971">
        <ele>1086.1</ele>
        <time>2019-01-07T00:35:51Z</time>
      </trkpt>
      <trkpt lat="42.34834" lon="2.40992">
        <ele>1083.1</ele>
        <time>2019-01-07T00:35:56Z</time>
      </trkpt>
      <trkpt lat="42.34835" lon="2.41">
        <ele>1082.7</ele>
        <time>2019-01-07T00:35:57Z</time>
      </trkpt>
      <trkpt lat="42.34839" lon="2.41023">
        <ele>1078.8</ele>
        <time>2019-01-07T00:36:02Z</time>
      </trkpt>
      <trkpt lat="42.3484" lon="2.41038">
        <ele>1075.4</ele>
        <time>2019-01-07T00:36:05Z</time>
      </trkpt>
      <trkpt lat="42.34839" lon="2.41049">
        <ele>1072.5</ele>
        <time>2019-01-07T00:36:07Z</time>
      </trkpt>
      <trkpt lat="42.34838" lon="2.41059">
        <ele>1069.2</ele>
        <time>2019-01-07T00:36:09Z</time>
      </trkpt>
      <trkpt lat="42.34837" lon="2.41067">
        <ele>1067.7</ele>
        <time>2019-01-07T00:36:11Z</time>
      </trkpt>
      <trkpt lat="42.34846" lon="2.41078">
        <ele>1062.9</ele>
        <time>2019-01-07T00:36:14Z</time>
      </trkpt>
      <trkpt lat="42.34849" lon="2.41083">
        <ele>1061.4</ele>
        <time>2019-01-07T00:36:15Z</time>
      </trkpt>
      <trkpt lat="42.34846" lon="2.41097">
        <ele>1058.7</ele>
        <time>2019-01-07T00:36:18Z</time>
      </trkpt>
      <trkpt lat="42.34849" lon="2.41104">
        <ele>1055.8</ele>
        <time>2019-01-07T00:36:20Z</time>
      </trkpt>
      <trkpt lat="42.34855" lon="2.41116">
        <ele>1052.8</ele>
        <time>2019-01-07T00:36:23Z</time>
      </trkpt>
      <trkpt lat="42.34854" lon="2.41117">
        <ele>1053.7</ele>
        <time>2019-01-07T00:36:23Z</time>
      </trkpt>
      <trkpt lat="42.34851" lon="2.41119">
        <ele>1057.6</ele>
        <time>2019-01-07T00:36:24Z</time>
      </trkpt>
      <trkpt lat="42.3485" lon="2.41119">
        <ele>1054.7</ele>
        <time>2019-01-07T00:36:24Z</time>
      </trkpt>
      <trkpt lat="42.34846" lon="2.41121">
        <ele>1053.4</ele>
        <time>2019-01-07T00:36:25Z</time>
      </trkpt>
      <trkpt lat="42.34837" lon="2.41125">
        <ele>1052.9</ele>
        <time>2019-01-07T00:36:28Z</time>
      </trkpt>
      <trkpt lat="42.34815" lon="2.41121">
        <ele>1052.4</ele>
        <time>2019-01-07T00:36:34Z</time>
      </trkpt>
      <trkpt lat="42.34791" lon="2.41102">
        <ele>1052.8</ele>
        <time>2019-01-07T00:36:41Z</time>
      </trkpt>
      <trkpt lat="42.34779" lon="2.41091">
        <ele>1056.2</ele>
        <time>2019-01-07T00:36:45Z</time>
      </trkpt>
      <trkpt lat="42.34778" lon="2.4109">
        <ele>1052.8</ele>
        <time>2019-01-07T00:36:45Z</time>
      </trkpt>
      <trkpt lat="42.34774" lon="2.41083">
        <ele>1052.3</ele>
        <time>2019-01-07T00:36:47Z</time>
      </trkpt>
      <trkpt lat="42.3477" lon="2.41076">
        <ele>1052.4</ele>
        <time>2019-01-07T00:36:49Z</time>
      </trkpt>
      <trkpt lat="42.34767" lon="2.41065">
        <ele>1051.9</ele>
        <time>2019-01-07T00:36:51Z</time>
      </trkpt>
      <trkpt lat="42.34761" lon="2.41046">
        <ele>1045.6</ele>
        <time>2019-01-07T00:36:55Z</time>
      </trkpt>
      <trkpt lat="42.34761" lon="2.41045">
        <ele>1051.9</ele>
        <time>2019-01-07T00:36:55Z</time>
      </trkpt>
      <trkpt lat="42.34758" lon="2.41036">
        <ele>1049.9</ele>
        <time>2019-01-07T00:36:57Z</time>
      </trkpt>
      <trkpt lat="42.34757" lon="2.41038">
        <ele>1045.7</ele>
        <time>2019-01-07T00:36:57Z</time>
      </trkpt>
      <trkpt lat="42.34757" lon="2.41038">
        <ele>1050</ele>
        <time>2019-01-07T00:36:57Z</time>
      </trkpt>
      <trkpt lat="42.34755" lon="2.41036">
        <ele>1049.9</ele>
        <time>2019-01-07T00:36:58Z</time>
      </trkpt>
      <trkpt lat="42.34755" lon="2.41036">
        <ele>1052.8</ele>
        <time>2019-01-07T00:36:58Z</time>
      </trkpt>
      <trkpt lat="42.34755" lon="2.41036">
        <ele>1050.4</ele>
        <time>2019-01-07T00:36:58Z</time>
      </trkpt>
      <trkpt lat="42.34756" lon="2.41036">
        <ele>1046.5</ele>
        <time>2019-01-07T00:36:58Z</time>
      </trkpt>
      <trkpt lat="42.34756" lon="2.41036">
        <ele>1050.5</ele>
        <time>2019-01-07T00:36:58Z</time>
      </trkpt>
      <trkpt lat="42.34756" lon="2.41037">
        <ele>1051.9</ele>
        <time>2019-01-07T00:36:58Z</time>
      </trkpt>
      <trkpt lat="42.34755" lon="2.41032">
        <ele>1049.4</ele>
        <time>2019-01-07T00:36:59Z</time>
      </trkpt>
      <trkpt lat="42.34754" lon="2.41029">
        <ele>1042.2</ele>
        <time>2019-01-07T00:37:00Z</time>
      </trkpt>
      <trkpt lat="42.34753" lon="2.41027">
        <ele>1052.3</ele>
        <time>2019-01-07T00:37:00Z</time>
      </trkpt>
      <trkpt lat="42.34752" lon="2.41024">
        <ele>1042.2</ele>
        <time>2019-01-07T00:37:01Z</time>
      </trkpt>
      <trkpt lat="42.34751" lon="2.41023">
        <ele>1053.3</ele>
        <time>2019-01-07T00:37:01Z</time>
      </trkpt>
      <trkpt lat="42.3475" lon="2.41021">
        <ele>1049.9</ele>
        <time>2019-01-07T00:37:02Z</time>
      </trkpt>
      <trkpt lat="42.34747" lon="2.41014">
        <ele>1054.7</ele>
        <time>2019-01-07T00:37:04Z</time>
      </trkpt>
      <trkpt lat="42.34746" lon="2.41013">
        <ele>1049.5</ele>
        <time>2019-01-07T00:37:04Z</time>
      </trkpt>
      <trkpt lat="42.34731" lon="2.40999">
        <ele>1045.6</ele>
        <time>2019-01-07T00:37:09Z</time>
      </trkpt>
      <trkpt lat="42.3473" lon="2.40998">
        <ele>1050.5</ele>
        <time>2019-01-07T00:37:09Z</time>
      </trkpt>
      <trkpt lat="42.34713" lon="2.40987">
        <ele>1046.5</ele>
        <time>2019-01-07T00:37:14Z</time>
      </trkpt>
      <trkpt lat="42.34712" lon="2.40986">
        <ele>1050.9</ele>
        <time>2019-01-07T00:37:14Z</time>
      </trkpt>
      <trkpt lat="42.347" lon="2.40977">
        <ele>1047.6</ele>
        <time>2019-01-07T00:37:18Z</time>
      </trkpt>
      <trkpt lat="42.34679" lon="2.4096">
        <ele>1048</ele>
        <time>2019-01-07T00:37:24Z</time>
      </trkpt>
      <trkpt lat="42.34676" lon="2.40957">
        <ele>1043.8</ele>
        <time>2019-01-07T00:37:26Z</time>
      </trkpt>
      <trkpt lat="42.34674" lon="2.40956">
        <ele>1044.7</ele>
        <time>2019-01-07T00:37:26Z</time>
      </trkpt>
      <trkpt lat="42.34672" lon="2.40955">
        <ele>1049.4</ele>
        <time>2019-01-07T00:37:27Z</time>
      </trkpt>
      <trkpt lat="42.3467" lon="2.40954">
        <ele>1047</ele>
        <time>2019-01-07T00:37:27Z</time>
      </trkpt>
      <trkpt lat="42.34665" lon="2.40953">
        <ele>1047</ele>
        <time>2019-01-07T00:37:29Z</time>
      </trkpt>
      <trkpt lat="42.34648" lon="2.40944">
        <ele>1047.1</ele>
        <time>2019-01-07T00:37:33Z</time>
      </trkpt>
      <trkpt lat="42.34642" lon="2.40944">
        <ele>1046.1</ele>
        <time>2019-01-07T00:37:35Z</time>
      </trkpt>
      <trkpt lat="42.34629" lon="2.40943">
        <ele>1046.1</ele>
        <time>2019-01-07T00:37:39Z</time>
      </trkpt>
      <trkpt lat="42.34601" lon="2.40947">
        <ele>1045.6</ele>
        <time>2019-01-07T00:37:46Z</time>
      </trkpt>
      <trkpt lat="42.34578" lon="2.40958">
        <ele>1045.7</ele>
        <time>2019-01-07T00:37:53Z</time>
      </trkpt>
      <trkpt lat="42.34556" lon="2.40965">
        <ele>1044.7</ele>
        <time>2019-01-07T00:37:59Z</time>
      </trkpt>
      <trkpt lat="42.34551" lon="2.40966">
        <ele>1044.7</ele>
        <time>2019-01-07T00:38:00Z</time>
      </trkpt>
      <trkpt lat="42.34538" lon="2.40967">
        <ele>1044.2</ele>
        <time>2019-01-07T00:38:03Z</time>
      </trkpt>
      <trkpt lat="42.34516" lon="2.40961">
        <ele>1043.2</ele>
        <time>2019-01-07T00:38:09Z</time>
      </trkpt>
      <trkpt lat="42.34507" lon="2.40958">
        <ele>1044.6</ele>
        <time>2019-01-07T00:38:12Z</time>
      </trkpt>
      <trkpt lat="42.3448" lon="2.4096">
        <ele>1044.2</ele>
        <time>2019-01-07T00:38:19Z</time>
      </trkpt>
      <trkpt lat="42.34463" lon="2.40976">
        <ele>1043.3</ele>
        <time>2019-01-07T00:38:25Z</time>
      </trkpt>
      <trkpt lat="42.34462" lon="2.40978">
        <ele>1042.8</ele>
        <time>2019-01-07T00:38:25Z</time>
      </trkpt>
      <trkpt lat="42.34462" lon="2.40988">
        <ele>1042.8</ele>
        <time>2019-01-07T00:38:27Z</time>
      </trkpt>
      <trkpt lat="42.34468" lon="2.40998">
        <ele>1044.2</ele>
        <time>2019-01-07T00:38:30Z</time>
      </trkpt>
      <trkpt lat="42.34475" lon="2.41005">
        <ele>1044.7</ele>
        <time>2019-01-07T00:38:32Z</time>
      </trkpt>
      <trkpt lat="42.34477" lon="2.41008">
        <ele>1044.2</ele>
        <time>2019-01-07T00:38:33Z</time>
      </trkpt>
      <trkpt lat="42.34476" lon="2.41015">
        <ele>1045.2</ele>
        <time>2019-01-07T00:38:34Z</time>
      </trkpt>
      <trkpt lat="42.34475" lon="2.41018">
        <ele>1045.6</ele>
        <time>2019-01-07T00:38:35Z</time>
      </trkpt>
      <trkpt lat="42.3447" lon="2.41024">
        <ele>1046.1</ele>
        <time>2019-01-07T00:38:37Z</time>
      </trkpt>
      <trkpt lat="42.34464" lon="2.41042">
        <ele>1048.9</ele>
        <time>2019-01-07T00:38:41Z</time>
      </trkpt>
      <trkpt lat="42.34462" lon="2.4106">
        <ele>1050.9</ele>
        <time>2019-01-07T00:38:44Z</time>
      </trkpt>
      <trkpt lat="42.34471" lon="2.41056">
        <ele>1052.4</ele>
        <time>2019-01-07T00:38:47Z</time>
      </trkpt>
      <trkpt lat="42.34476" lon="2.41048">
        <ele>1053.3</ele>
        <time>2019-01-07T00:38:49Z</time>
      </trkpt>
      <trkpt lat="42.34479" lon="2.41045">
        <ele>1053.3</ele>
        <time>2019-01-07T00:38:50Z</time>
      </trkpt>
      <trkpt lat="42.34483" lon="2.4104">
        <ele>1054.7</ele>
        <time>2019-01-07T00:38:51Z</time>
      </trkpt>
      <trkpt lat="42.34487" lon="2.41039">
        <ele>1054.7</ele>
        <time>2019-01-07T00:38:52Z</time>
      </trkpt>
      <trkpt lat="42.34506" lon="2.41021">
        <ele>1057.2</ele>
        <time>2019-01-07T00:38:58Z</time>
      </trkpt>
      <trkpt lat="42.34509" lon="2.41019">
        <ele>1058.1</ele>
        <time>2019-01-07T00:38:59Z</time>
      </trkpt>
      <trkpt lat="42.34512" lon="2.41016">
        <ele>1058.2</ele>
        <time>2019-01-07T00:39:00Z</time>
      </trkpt>
      <trkpt lat="42.34514" lon="2.41013">
        <ele>1059</ele>
        <time>2019-01-07T00:39:01Z</time>
      </trkpt>
      <trkpt lat="42.34521" lon="2.41016">
        <ele>1061</ele>
        <time>2019-01-07T00:39:03Z</time>
      </trkpt>
      <trkpt lat="42.34522" lon="2.41021">
        <ele>1061.5</ele>
        <time>2019-01-07T00:39:04Z</time>
      </trkpt>
      <trkpt lat="42.34513" lon="2.41033">
        <ele>1063</ele>
        <time>2019-01-07T00:39:07Z</time>
      </trkpt>
      <trkpt lat="42.34507" lon="2.41048">
        <ele>1064.4</ele>
        <time>2019-01-07T00:39:11Z</time>
      </trkpt>
      <trkpt lat="42.3449" lon="2.41071">
        <ele>1066.7</ele>
        <time>2019-01-07T00:39:17Z</time>
      </trkpt>
      <trkpt lat="42.34486" lon="2.41074">
        <ele>1067.7</ele>
        <time>2019-01-07T00:39:18Z</time>
      </trkpt>
      <trkpt lat="42.3447" lon="2.41093">
        <ele>1071.2</ele>
        <time>2019-01-07T00:39:24Z</time>
      </trkpt>
      <trkpt lat="42.34467" lon="2.41099">
        <ele>1071.6</ele>
        <time>2019-01-07T00:39:25Z</time>
      </trkpt>
      <trkpt lat="42.34459" lon="2.41111">
        <ele>1073.6</ele>
        <time>2019-01-07T00:39:29Z</time>
      </trkpt>
      <trkpt lat="42.34437" lon="2.4112">
        <ele>1075.4</ele>
        <time>2019-01-07T00:39:35Z</time>
      </trkpt>
      <trkpt lat="42.34429" lon="2.41123">
        <ele>1076.8</ele>
        <time>2019-01-07T00:39:37Z</time>
      </trkpt>
      <trkpt lat="42.34406" lon="2.41125">
        <ele>1080.7</ele>
        <time>2019-01-07T00:39:43Z</time>
      </trkpt>
      <trkpt lat="42.34396" lon="2.41124">
        <ele>1081.1</ele>
        <time>2019-01-07T00:39:46Z</time>
      </trkpt>
      <trkpt lat="42.34385" lon="2.41123">
        <ele>1082.7</ele>
        <time>2019-01-07T00:39:49Z</time>
      </trkpt>
      <trkpt lat="42.34373" lon="2.41124">
        <ele>1085.1</ele>
        <time>2019-01-07T00:39:52Z</time>
      </trkpt>
      <trkpt lat="42.34378" lon="2.41143">
        <ele>1088.5</ele>
        <time>2019-01-07T00:39:56Z</time>
      </trkpt>
      <trkpt lat="42.34385" lon="2.41172">
        <ele>1090.9</ele>
        <time>2019-01-07T00:40:02Z</time>
      </trkpt>
      <trkpt lat="42.34392" lon="2.41199">
        <ele>1093.7</ele>
        <time>2019-01-07T00:40:08Z</time>
      </trkpt>
      <trkpt lat="42.34397" lon="2.4122">
        <ele>1097</ele>
        <time>2019-01-07T00:40:12Z</time>
      </trkpt>
      <trkpt lat="42.344" lon="2.41234">
        <ele>1098.5</ele>
        <time>2019-01-07T00:40:15Z</time>
      </trkpt>
      <trkpt lat="42.34401" lon="2.41241">
        <ele>1099.5</ele>
        <time>2019-01-07T00:40:16Z</time>
      </trkpt>
      <trkpt lat="42.34406" lon="2.41269">
        <ele>1102.8</ele>
        <time>2019-01-07T00:40:22Z</time>
      </trkpt>
      <trkpt lat="42.34407" lon="2.41272">
        <ele>1102.8</ele>
        <time>2019-01-07T00:40:23Z</time>
      </trkpt>
      <trkpt lat="42.34407" lon="2.41288">
        <ele>1105.3</ele>
        <time>2019-01-07T00:40:26Z</time>
      </trkpt>
      <trkpt lat="42.34406" lon="2.41289">
        <ele>1104.7</ele>
        <time>2019-01-07T00:40:26Z</time>
      </trkpt>
      <trkpt lat="42.34404" lon="2.41288">
        <ele>1105.3</ele>
        <time>2019-01-07T00:40:27Z</time>
      </trkpt>
      <trkpt lat="42.34406" lon="2.41294">
        <ele>1105.7</ele>
        <time>2019-01-07T00:40:28Z</time>
      </trkpt>
      <trkpt lat="42.34407" lon="2.41297">
        <ele>1105.2</ele>
        <time>2019-01-07T00:40:29Z</time>
      </trkpt>
      <trkpt lat="42.34409" lon="2.41299">
        <ele>1105.3</ele>
        <time>2019-01-07T00:40:30Z</time>
      </trkpt>
      <trkpt lat="42.34413" lon="2.41304">
        <ele>1104.8</ele>
        <time>2019-01-07T00:40:31Z</time>
      </trkpt>
      <trkpt lat="42.3441" lon="2.4133">
        <ele>1108.2</ele>
        <time>2019-01-07T00:40:36Z</time>
      </trkpt>
      <trkpt lat="42.34409" lon="2.4134">
        <ele>1109.1</ele>
        <time>2019-01-07T00:40:38Z</time>
      </trkpt>
      <trkpt lat="42.34407" lon="2.41353">
        <ele>1110.5</ele>
        <time>2019-01-07T00:40:41Z</time>
      </trkpt>
      <trkpt lat="42.34404" lon="2.41371">
        <ele>1111.9</ele>
        <time>2019-01-07T00:40:45Z</time>
      </trkpt>
      <trkpt lat="42.34404" lon="2.4138">
        <ele>1113</ele>
        <time>2019-01-07T00:40:46Z</time>
      </trkpt>
      <trkpt lat="42.344" lon="2.41405">
        <ele>1115.3</ele>
        <time>2019-01-07T00:40:51Z</time>
      </trkpt>
      <trkpt lat="42.34395" lon="2.41419">
        <ele>1116.7</ele>
        <time>2019-01-07T00:40:54Z</time>
      </trkpt>
      <trkpt lat="42.34393" lon="2.41429">
        <ele>1118.6</ele>
        <time>2019-01-07T00:40:56Z</time>
      </trkpt>
      <trkpt lat="42.34392" lon="2.41433">
        <ele>1118.3</ele>
        <time>2019-01-07T00:40:57Z</time>
      </trkpt>
      <trkpt lat="42.3439" lon="2.41439">
        <ele>1118.6</ele>
        <time>2019-01-07T00:40:59Z</time>
      </trkpt>
      <trkpt lat="42.34388" lon="2.41439">
        <ele>1120.2</ele>
        <time>2019-01-07T00:40:59Z</time>
      </trkpt>
      <trkpt lat="42.34386" lon="2.4144">
        <ele>1120.2</ele>
        <time>2019-01-07T00:41:00Z</time>
      </trkpt>
      <trkpt lat="42.34383" lon="2.41448">
        <ele>1121.1</ele>
        <time>2019-01-07T00:41:01Z</time>
      </trkpt>
      <trkpt lat="42.3437" lon="2.41458">
        <ele>1123</ele>
        <time>2019-01-07T00:41:05Z</time>
      </trkpt>
      <trkpt lat="42.3437" lon="2.41463">
        <ele>1123.4</ele>
        <time>2019-01-07T00:41:06Z</time>
      </trkpt>
      <trkpt lat="42.34363" lon="2.41479">
        <ele>1125.5</ele>
        <time>2019-01-07T00:41:10Z</time>
      </trkpt>
      <trkpt lat="42.34359" lon="2.41481">
        <ele>1125.9</ele>
        <time>2019-01-07T00:41:11Z</time>
      </trkpt>
      <trkpt lat="42.34339" lon="2.4148">
        <ele>1126.4</ele>
        <time>2019-01-07T00:41:16Z</time>
      </trkpt>
      <trkpt lat="42.34333" lon="2.41476">
        <ele>1126.9</ele>
        <time>2019-01-07T00:41:18Z</time>
      </trkpt>
      <trkpt lat="42.34328" lon="2.41475">
        <ele>1127.8</ele>
        <time>2019-01-07T00:41:20Z</time>
      </trkpt>
      <trkpt lat="42.34316" lon="2.41472">
        <ele>1129.3</ele>
        <time>2019-01-07T00:41:23Z</time>
      </trkpt>
      <trkpt lat="42.34306" lon="2.41468">
        <ele>1131.7</ele>
        <time>2019-01-07T00:41:26Z</time>
      </trkpt>
      <trkpt lat="42.34285" lon="2.41468">
        <ele>1134.6</ele>
        <time>2019-01-07T00:41:31Z</time>
      </trkpt>
      <trkpt lat="42.34283" lon="2.41468">
        <ele>1134.6</ele>
        <time>2019-01-07T00:41:32Z</time>
      </trkpt>
      <trkpt lat="42.34279" lon="2.41466">
        <ele>1135.5</ele>
        <time>2019-01-07T00:41:33Z</time>
      </trkpt>
      <trkpt lat="42.34274" lon="2.41462">
        <ele>1135.9</ele>
        <time>2019-01-07T00:41:34Z</time>
      </trkpt>
      <trkpt lat="42.34268" lon="2.41457">
        <ele>1135.9</ele>
        <time>2019-01-07T00:41:36Z</time>
      </trkpt>
      <trkpt lat="42.34247" lon="2.41454">
        <ele>1138.3</ele>
        <time>2019-01-07T00:41:42Z</time>
      </trkpt>
      <trkpt lat="42.34241" lon="2.41453">
        <ele>1139.4</ele>
        <time>2019-01-07T00:41:44Z</time>
      </trkpt>
      <trkpt lat="42.34227" lon="2.41457">
        <ele>1141.3</ele>
        <time>2019-01-07T00:41:47Z</time>
      </trkpt>
      <trkpt lat="42.34217" lon="2.41466">
        <ele>1142.2</ele>
        <time>2019-01-07T00:41:51Z</time>
      </trkpt>
      <trkpt lat="42.34215" lon="2.41469">
        <ele>1142.2</ele>
        <time>2019-01-07T00:41:51Z</time>
      </trkpt>
      <trkpt lat="42.34207" lon="2.41476">
        <ele>1142.3</ele>
        <time>2019-01-07T00:41:54Z</time>
      </trkpt>
      <trkpt lat="42.34186" lon="2.41493">
        <ele>1143.6</ele>
        <time>2019-01-07T00:42:01Z</time>
      </trkpt>
      <trkpt lat="42.34176" lon="2.41502">
        <ele>1146</ele>
        <time>2019-01-07T00:42:04Z</time>
      </trkpt>
      <trkpt lat="42.3417" lon="2.41509">
        <ele>1147</ele>
        <time>2019-01-07T00:42:06Z</time>
      </trkpt>
      <trkpt lat="42.34167" lon="2.41518">
        <ele>1148</ele>
        <time>2019-01-07T00:42:08Z</time>
      </trkpt>
      <trkpt lat="42.34167" lon="2.41524">
        <ele>1148.1</ele>
        <time>2019-01-07T00:42:09Z</time>
      </trkpt>
      <trkpt lat="42.34165" lon="2.41525">
        <ele>1148.1</ele>
        <time>2019-01-07T00:42:09Z</time>
      </trkpt>
      <trkpt lat="42.34159" lon="2.4153">
        <ele>1148.4</ele>
        <time>2019-01-07T00:42:11Z</time>
      </trkpt>
      <trkpt lat="42.34152" lon="2.41544">
        <ele>1150.4</ele>
        <time>2019-01-07T00:42:15Z</time>
      </trkpt>
      <trkpt lat="42.34146" lon="2.41543">
        <ele>1149.9</ele>
        <time>2019-01-07T00:42:16Z</time>
      </trkpt>
      <trkpt lat="42.3414" lon="2.41545">
        <ele>1150.5</ele>
        <time>2019-01-07T00:42:18Z</time>
      </trkpt>
      <trkpt lat="42.34131" lon="2.41549">
        <ele>1151.4</ele>
        <time>2019-01-07T00:42:20Z</time>
      </trkpt>
      <trkpt lat="42.34119" lon="2.41553">
        <ele>1152.3</ele>
        <time>2019-01-07T00:42:24Z</time>
      </trkpt>
      <trkpt lat="42.34114" lon="2.41554">
        <ele>1153.3</ele>
        <time>2019-01-07T00:42:25Z</time>
      </trkpt>
      <trkpt lat="42.34108" lon="2.41558">
        <ele>1154.7</ele>
        <time>2019-01-07T00:42:27Z</time>
      </trkpt>
      <trkpt lat="42.34099" lon="2.41563">
        <ele>1156.6</ele>
        <time>2019-01-07T00:42:30Z</time>
      </trkpt>
      <trkpt lat="42.34096" lon="2.41564">
        <ele>1156.1</ele>
        <time>2019-01-07T00:42:30Z</time>
      </trkpt>
      <trkpt lat="42.34093" lon="2.41566">
        <ele>1157.1</ele>
        <time>2019-01-07T00:42:31Z</time>
      </trkpt>
      <trkpt lat="42.34077" lon="2.41571">
        <ele>1159</ele>
        <time>2019-01-07T00:42:36Z</time>
      </trkpt>
      <trkpt lat="42.34069" lon="2.4157">
        <ele>1161.5</ele>
        <time>2019-01-07T00:42:38Z</time>
      </trkpt>
      <trkpt lat="42.3406" lon="2.41576">
        <ele>1163.4</ele>
        <time>2019-01-07T00:42:41Z</time>
      </trkpt>
      <trkpt lat="42.34052" lon="2.41573">
        <ele>1164.9</ele>
        <time>2019-01-07T00:42:43Z</time>
      </trkpt>
      <trkpt lat="42.34046" lon="2.41574">
        <ele>1165.7</ele>
        <time>2019-01-07T00:42:44Z</time>
      </trkpt>
      <trkpt lat="42.34026" lon="2.4158">
        <ele>1167.7</ele>
        <time>2019-01-07T00:42:50Z</time>
      </trkpt>
      <trkpt lat="42.34019" lon="2.41582">
        <ele>1168.7</ele>
        <time>2019-01-07T00:42:52Z</time>
      </trkpt>
      <trkpt lat="42.34004" lon="2.41578">
        <ele>1167.7</ele>
        <time>2019-01-07T00:42:56Z</time>
      </trkpt>
      <trkpt lat="42.33994" lon="2.41601">
        <ele>1166.7</ele>
        <time>2019-01-07T00:43:01Z</time>
      </trkpt>
      <trkpt lat="42.33988" lon="2.41636">
        <ele>1165.7</ele>
        <time>2019-01-07T00:43:08Z</time>
      </trkpt>
      <trkpt lat="42.33984" lon="2.4167">
        <ele>1164.9</ele>
        <time>2019-01-07T00:43:15Z</time>
      </trkpt>
      <trkpt lat="42.33973" lon="2.41701">
        <ele>1163.9</ele>
        <time>2019-01-07T00:43:22Z</time>
      </trkpt>
      <trkpt lat="42.33966" lon="2.41698">
        <ele>1163.3</ele>
        <time>2019-01-07T00:43:23Z</time>
      </trkpt>
      <trkpt lat="42.3395" lon="2.41683">
        <ele>1165.3</ele>
        <time>2019-01-07T00:43:29Z</time>
      </trkpt>
      <trkpt lat="42.33938" lon="2.41675">
        <ele>1166.3</ele>
        <time>2019-01-07T00:43:32Z</time>
      </trkpt>
      <trkpt lat="42.33913" lon="2.41662">
        <ele>1167.8</ele>
        <time>2019-01-07T00:43:39Z</time>
      </trkpt>
      <trkpt lat="42.33911" lon="2.41662">
        <ele>1167.2</ele>
        <time>2019-01-07T00:43:40Z</time>
      </trkpt>
      <trkpt lat="42.33904" lon="2.41657">
        <ele>1168.1</ele>
        <time>2019-01-07T00:43:42Z</time>
      </trkpt>
      <trkpt lat="42.33905" lon="2.41656">
        <ele>1167.2</ele>
        <time>2019-01-07T00:43:42Z</time>
      </trkpt>
      <trkpt lat="42.33904" lon="2.41656">
        <ele>1167.7</ele>
        <time>2019-01-07T00:43:43Z</time>
      </trkpt>
      <trkpt lat="42.33905" lon="2.41655">
        <ele>1168.1</ele>
        <time>2019-01-07T00:43:43Z</time>
      </trkpt>
      <trkpt lat="42.33905" lon="2.41655">
        <ele>1167.3</ele>
        <time>2019-01-07T00:43:43Z</time>
      </trkpt>
      <trkpt lat="42.33905" lon="2.41656">
        <ele>1165.3</ele>
        <time>2019-01-07T00:43:43Z</time>
      </trkpt>
      <trkpt lat="42.33905" lon="2.41656">
        <ele>1169.7</ele>
        <time>2019-01-07T00:43:43Z</time>
      </trkpt>
      <trkpt lat="42.33905" lon="2.41656">
        <ele>1169.7</ele>
        <time>2019-01-07T00:43:43Z</time>
      </trkpt>
      <trkpt lat="42.33905" lon="2.41656">
        <ele>1167.7</ele>
        <time>2019-01-07T00:43:43Z</time>
      </trkpt>
      <trkpt lat="42.33905" lon="2.41655">
        <ele>1168.1</ele>
        <time>2019-01-07T00:43:44Z</time>
      </trkpt>
      <trkpt lat="42.33903" lon="2.41654">
        <ele>1167.7</ele>
        <time>2019-01-07T00:43:44Z</time>
      </trkpt>
      <trkpt lat="42.3389" lon="2.41649">
        <ele>1168.1</ele>
        <time>2019-01-07T00:43:48Z</time>
      </trkpt>
      <trkpt lat="42.33881" lon="2.41644">
        <ele>1168.6</ele>
        <time>2019-01-07T00:43:51Z</time>
      </trkpt>
      <trkpt lat="42.33856" lon="2.4165">
        <ele>1170.1</ele>
        <time>2019-01-07T00:43:57Z</time>
      </trkpt>
      <trkpt lat="42.33838" lon="2.41674">
        <ele>1171.6</ele>
        <time>2019-01-07T00:44:04Z</time>
      </trkpt>
      <trkpt lat="42.3383" lon="2.41685">
        <ele>1173.1</ele>
        <time>2019-01-07T00:44:07Z</time>
      </trkpt>
      <trkpt lat="42.3381" lon="2.417">
        <ele>1173.5</ele>
        <time>2019-01-07T00:44:13Z</time>
      </trkpt>
      <trkpt lat="42.33784" lon="2.41719">
        <ele>1172.6</ele>
        <time>2019-01-07T00:44:21Z</time>
      </trkpt>
      <trkpt lat="42.33764" lon="2.41737">
        <ele>1172.1</ele>
        <time>2019-01-07T00:44:27Z</time>
      </trkpt>
      <trkpt lat="42.33748" lon="2.41754">
        <ele>1169.2</ele>
        <time>2019-01-07T00:44:33Z</time>
      </trkpt>
      <trkpt lat="42.33747" lon="2.41756">
        <ele>1169.2</ele>
        <time>2019-01-07T00:44:33Z</time>
      </trkpt>
      <trkpt lat="42.33746" lon="2.41762">
        <ele>1168.6</ele>
        <time>2019-01-07T00:44:34Z</time>
      </trkpt>
      <trkpt lat="42.33749" lon="2.41761">
        <ele>1169.7</ele>
        <time>2019-01-07T00:44:35Z</time>
      </trkpt>
      <trkpt lat="42.33752" lon="2.41761">
        <ele>1170.1</ele>
        <time>2019-01-07T00:44:36Z</time>
      </trkpt>
      <trkpt lat="42.33745" lon="2.41765">
        <ele>1169.1</ele>
        <time>2019-01-07T00:44:38Z</time>
      </trkpt>
      <trkpt lat="42.33745" lon="2.41764">
        <ele>1168.6</ele>
        <time>2019-01-07T00:44:38Z</time>
      </trkpt>
      <trkpt lat="42.33747" lon="2.41762">
        <ele>1168.7</ele>
        <time>2019-01-07T00:44:39Z</time>
      </trkpt>
      <trkpt lat="42.33747" lon="2.41764">
        <ele>1167.8</ele>
        <time>2019-01-07T00:44:39Z</time>
      </trkpt>
      <trkpt lat="42.33748" lon="2.41778">
        <ele>1168.6</ele>
        <time>2019-01-07T00:44:42Z</time>
      </trkpt>
      <trkpt lat="42.33755" lon="2.41793">
        <ele>1164.9</ele>
        <time>2019-01-07T00:44:45Z</time>
      </trkpt>
      <trkpt lat="42.33758" lon="2.41796">
        <ele>1165.8</ele>
        <time>2019-01-07T00:44:46Z</time>
      </trkpt>
      <trkpt lat="42.33767" lon="2.41815">
        <ele>1163.4</ele>
        <time>2019-01-07T00:44:51Z</time>
      </trkpt>
      <trkpt lat="42.33771" lon="2.41822">
        <ele>1163.4</ele>
        <time>2019-01-07T00:44:52Z</time>
      </trkpt>
      <trkpt lat="42.33765" lon="2.41825">
        <ele>1163</ele>
        <time>2019-01-07T00:44:54Z</time>
      </trkpt>
      <trkpt lat="42.33752" lon="2.41815">
        <ele>1159</ele>
        <time>2019-01-07T00:44:58Z</time>
      </trkpt>
      <trkpt lat="42.33742" lon="2.4181">
        <ele>1158.1</ele>
        <time>2019-01-07T00:45:01Z</time>
      </trkpt>
      <trkpt lat="42.33724" lon="2.41805">
        <ele>1155.2</ele>
        <time>2019-01-07T00:45:06Z</time>
      </trkpt>
      <trkpt lat="42.3372" lon="2.41805">
        <ele>1153.7</ele>
        <time>2019-01-07T00:45:07Z</time>
      </trkpt>
      <trkpt lat="42.33711" lon="2.41802">
        <ele>1154.3</ele>
        <time>2019-01-07T00:45:09Z</time>
      </trkpt>
      <trkpt lat="42.33702" lon="2.41803">
        <ele>1151.3</ele>
        <time>2019-01-07T00:45:12Z</time>
      </trkpt>
      <trkpt lat="42.33675" lon="2.41803">
        <ele>1149.5</ele>
        <time>2019-01-07T00:45:19Z</time>
      </trkpt>
      <trkpt lat="42.33668" lon="2.41809">
        <ele>1148.1</ele>
        <time>2019-01-07T00:45:21Z</time>
      </trkpt>
      <trkpt lat="42.33666" lon="2.41811">
        <ele>1147.1</ele>
        <time>2019-01-07T00:45:22Z</time>
      </trkpt>
      <trkpt lat="42.33663" lon="2.41816">
        <ele>1146</ele>
        <time>2019-01-07T00:45:23Z</time>
      </trkpt>
      <trkpt lat="42.33659" lon="2.41823">
        <ele>1144.7</ele>
        <time>2019-01-07T00:45:25Z</time>
      </trkpt>
      <trkpt lat="42.33658" lon="2.41826">
        <ele>1144.6</ele>
        <time>2019-01-07T00:45:26Z</time>
      </trkpt>
      <trkpt lat="42.33658" lon="2.41838">
        <ele>1143.1</ele>
        <time>2019-01-07T00:45:28Z</time>
      </trkpt>
      <trkpt lat="42.33646" lon="2.41849">
        <ele>1140.8</ele>
        <time>2019-01-07T00:45:32Z</time>
      </trkpt>
      <trkpt lat="42.33622" lon="2.41859">
        <ele>1142.8</ele>
        <time>2019-01-07T00:45:39Z</time>
      </trkpt>
      <trkpt lat="42.33608" lon="2.41868">
        <ele>1143.7</ele>
        <time>2019-01-07T00:45:43Z</time>
      </trkpt>
      <trkpt lat="42.33586" lon="2.41888">
        <ele>1145.1</ele>
        <time>2019-01-07T00:45:50Z</time>
      </trkpt>
      <trkpt lat="42.33567" lon="2.41911">
        <ele>1146.6</ele>
        <time>2019-01-07T00:45:57Z</time>
      </trkpt>
      <trkpt lat="42.33552" lon="2.41929">
        <ele>1148.9</ele>
        <time>2019-01-07T00:46:02Z</time>
      </trkpt>
      <trkpt lat="42.33537" lon="2.41937">
        <ele>1151.4</ele>
        <time>2019-01-07T00:46:06Z</time>
      </trkpt>
      <trkpt lat="42.3353" lon="2.41942">
        <ele>1151.4</ele>
        <time>2019-01-07T00:46:08Z</time>
      </trkpt>
      <trkpt lat="42.33513" lon="2.41959">
        <ele>1153.8</ele>
        <time>2019-01-07T00:46:14Z</time>
      </trkpt>
      <trkpt lat="42.33491" lon="2.41976">
        <ele>1155.6</ele>
        <time>2019-01-07T00:46:21Z</time>
      </trkpt>
      <trkpt lat="42.33475" lon="2.4199">
        <ele>1157.1</ele>
        <time>2019-01-07T00:46:26Z</time>
      </trkpt>
      <trkpt lat="42.33451" lon="2.42004">
        <ele>1158.1</ele>
        <time>2019-01-07T00:46:33Z</time>
      </trkpt>
      <trkpt lat="42.33439" lon="2.42009">
        <ele>1158.2</ele>
        <time>2019-01-07T00:46:36Z</time>
      </trkpt>
      <trkpt lat="42.33429" lon="2.42013">
        <ele>1158.5</ele>
        <time>2019-01-07T00:46:39Z</time>
      </trkpt>
      <trkpt lat="42.33424" lon="2.42017">
        <ele>1159.1</ele>
        <time>2019-01-07T00:46:41Z</time>
      </trkpt>
      <trkpt lat="42.33419" lon="2.42021">
        <ele>1160.1</ele>
        <time>2019-01-07T00:46:42Z</time>
      </trkpt>
      <trkpt lat="42.33407" lon="2.42028">
        <ele>1159.5</ele>
        <time>2019-01-07T00:46:46Z</time>
      </trkpt>
      <trkpt lat="42.33403" lon="2.42033">
        <ele>1160.5</ele>
        <time>2019-01-07T00:46:47Z</time>
      </trkpt>
      <trkpt lat="42.33382" lon="2.42062">
        <ele>1163.4</ele>
        <time>2019-01-07T00:46:55Z</time>
      </trkpt>
      <trkpt lat="42.33367" lon="2.42088">
        <ele>1165.3</ele>
        <time>2019-01-07T00:47:02Z</time>
      </trkpt>
      <trkpt lat="42.33359" lon="2.42102">
        <ele>1166.7</ele>
        <time>2019-01-07T00:47:05Z</time>
      </trkpt>
      <trkpt lat="42.3335" lon="2.42122">
        <ele>1167.7</ele>
        <time>2019-01-07T00:47:10Z</time>
      </trkpt>
      <trkpt lat="42.3335" lon="2.42125">
        <ele>1167.7</ele>
        <time>2019-01-07T00:47:10Z</time>
      </trkpt>
      <trkpt lat="42.33335" lon="2.42153">
        <ele>1166.8</ele>
        <time>2019-01-07T00:47:17Z</time>
      </trkpt>
      <trkpt lat="42.3333" lon="2.42164">
        <ele>1165.3</ele>
        <time>2019-01-07T00:47:20Z</time>
      </trkpt>
      <trkpt lat="42.33323" lon="2.42179">
        <ele>1162</ele>
        <time>2019-01-07T00:47:23Z</time>
      </trkpt>
      <trkpt lat="42.33321" lon="2.42184">
        <ele>1162.9</ele>
        <time>2019-01-07T00:47:24Z</time>
      </trkpt>
      <trkpt lat="42.33321" lon="2.42185">
        <ele>1162.5</ele>
        <time>2019-01-07T00:47:24Z</time>
      </trkpt>
      <trkpt lat="42.33322" lon="2.42212">
        <ele>1160.5</ele>
        <time>2019-01-07T00:47:30Z</time>
      </trkpt>
      <trkpt lat="42.3332" lon="2.42247">
        <ele>1156.6</ele>
        <time>2019-01-07T00:47:37Z</time>
      </trkpt>
      <trkpt lat="42.33319" lon="2.42259">
        <ele>1155.3</ele>
        <time>2019-01-07T00:47:39Z</time>
      </trkpt>
      <trkpt lat="42.33316" lon="2.42271">
        <ele>1153.7</ele>
        <time>2019-01-07T00:47:42Z</time>
      </trkpt>
      <trkpt lat="42.33313" lon="2.42273">
        <ele>1151.8</ele>
        <time>2019-01-07T00:47:42Z</time>
      </trkpt>
      <trkpt lat="42.33304" lon="2.42277">
        <ele>1149.9</ele>
        <time>2019-01-07T00:47:45Z</time>
      </trkpt>
      <trkpt lat="42.33303" lon="2.42293">
        <ele>1144.7</ele>
        <time>2019-01-07T00:47:48Z</time>
      </trkpt>
      <trkpt lat="42.33303" lon="2.423">
        <ele>1142.3</ele>
        <time>2019-01-07T00:47:50Z</time>
      </trkpt>
      <trkpt lat="42.33303" lon="2.42304">
        <ele>1141.8</ele>
        <time>2019-01-07T00:47:50Z</time>
      </trkpt>
      <trkpt lat="42.3331" lon="2.42316">
        <ele>1139.8</ele>
        <time>2019-01-07T00:47:53Z</time>
      </trkpt>
      <trkpt lat="42.33311" lon="2.42322">
        <ele>1137.4</ele>
        <time>2019-01-07T00:47:54Z</time>
      </trkpt>
      <trkpt lat="42.33315" lon="2.4233">
        <ele>1136.5</ele>
        <time>2019-01-07T00:47:56Z</time>
      </trkpt>
      <trkpt lat="42.33321" lon="2.42343">
        <ele>1135.9</ele>
        <time>2019-01-07T00:47:59Z</time>
      </trkpt>
      <trkpt lat="42.33323" lon="2.42352">
        <ele>1136.4</ele>
        <time>2019-01-07T00:48:01Z</time>
      </trkpt>
      <trkpt lat="42.33318" lon="2.42361">
        <ele>1135.9</ele>
        <time>2019-01-07T00:48:03Z</time>
      </trkpt>
      <trkpt lat="42.33313" lon="2.42364">
        <ele>1136.9</ele>
        <time>2019-01-07T00:48:05Z</time>
      </trkpt>
      <trkpt lat="42.33301" lon="2.42393">
        <ele>1135.9</ele>
        <time>2019-01-07T00:48:12Z</time>
      </trkpt>
      <trkpt lat="42.33298" lon="2.42404">
        <ele>1134</ele>
        <time>2019-01-07T00:48:14Z</time>
      </trkpt>
      <trkpt lat="42.33298" lon="2.42405">
        <ele>1139.4</ele>
        <time>2019-01-07T00:48:14Z</time>
      </trkpt>
      <trkpt lat="42.33296" lon="2.42407">
        <ele>1137.5</ele>
        <time>2019-01-07T00:48:15Z</time>
      </trkpt>
      <trkpt lat="42.33292" lon="2.4241">
        <ele>1136.4</ele>
        <time>2019-01-07T00:48:16Z</time>
      </trkpt>
      <trkpt lat="42.33276" lon="2.42428">
        <ele>1135</ele>
        <time>2019-01-07T00:48:22Z</time>
      </trkpt>
      <trkpt lat="42.33271" lon="2.42435">
        <ele>1135</ele>
        <time>2019-01-07T00:48:23Z</time>
      </trkpt>
      <trkpt lat="42.33263" lon="2.42445">
        <ele>1134.6</ele>
        <time>2019-01-07T00:48:26Z</time>
      </trkpt>
      <trkpt lat="42.33251" lon="2.42451">
        <ele>1134.5</ele>
        <time>2019-01-07T00:48:30Z</time>
      </trkpt>
      <trkpt lat="42.33246" lon="2.42455">
        <ele>1133.1</ele>
        <time>2019-01-07T00:48:31Z</time>
      </trkpt>
      <trkpt lat="42.33242" lon="2.42458">
        <ele>1132.1</ele>
        <time>2019-01-07T00:48:33Z</time>
      </trkpt>
      <trkpt lat="42.33232" lon="2.4247">
        <ele>1130.3</ele>
        <time>2019-01-07T00:48:36Z</time>
      </trkpt>
      <trkpt lat="42.33209" lon="2.42496">
        <ele>1129.2</ele>
        <time>2019-01-07T00:48:44Z</time>
      </trkpt>
      <trkpt lat="42.33198" lon="2.42501">
        <ele>1127.8</ele>
        <time>2019-01-07T00:48:47Z</time>
      </trkpt>
      <trkpt lat="42.33195" lon="2.42504">
        <ele>1127.9</ele>
        <time>2019-01-07T00:48:48Z</time>
      </trkpt>
      <trkpt lat="42.33185" lon="2.42524">
        <ele>1128.2</ele>
        <time>2019-01-07T00:48:53Z</time>
      </trkpt>
      <trkpt lat="42.33181" lon="2.42539">
        <ele>1126.9</ele>
        <time>2019-01-07T00:48:56Z</time>
      </trkpt>
      <trkpt lat="42.33174" lon="2.42561">
        <ele>1124.5</ele>
        <time>2019-01-07T00:49:01Z</time>
      </trkpt>
      <trkpt lat="42.33166" lon="2.42574">
        <ele>1123.4</ele>
        <time>2019-01-07T00:49:04Z</time>
      </trkpt>
      <trkpt lat="42.33157" lon="2.42603">
        <ele>1121</ele>
        <time>2019-01-07T00:49:10Z</time>
      </trkpt>
      <trkpt lat="42.33152" lon="2.42627">
        <ele>1118.6</ele>
        <time>2019-01-07T00:49:15Z</time>
      </trkpt>
      <trkpt lat="42.33151" lon="2.42637">
        <ele>1117.2</ele>
        <time>2019-01-07T00:49:17Z</time>
      </trkpt>
      <trkpt lat="42.33153" lon="2.42643">
        <ele>1116.8</ele>
        <time>2019-01-07T00:49:19Z</time>
      </trkpt>
      <trkpt lat="42.33154" lon="2.4266">
        <ele>1115.4</ele>
        <time>2019-01-07T00:49:22Z</time>
      </trkpt>
      <trkpt lat="42.33149" lon="2.42676">
        <ele>1111</ele>
        <time>2019-01-07T00:49:25Z</time>
      </trkpt>
      <trkpt lat="42.33148" lon="2.42677">
        <ele>1116.8</ele>
        <time>2019-01-07T00:49:26Z</time>
      </trkpt>
      <trkpt lat="42.33144" lon="2.42682">
        <ele>1114.9</ele>
        <time>2019-01-07T00:49:27Z</time>
      </trkpt>
      <trkpt lat="42.3314" lon="2.42692">
        <ele>1113.8</ele>
        <time>2019-01-07T00:49:29Z</time>
      </trkpt>
      <trkpt lat="42.33133" lon="2.42708">
        <ele>1114.4</ele>
        <time>2019-01-07T00:49:33Z</time>
      </trkpt>
      <trkpt lat="42.33124" lon="2.42727">
        <ele>1113.3</ele>
        <time>2019-01-07T00:49:37Z</time>
      </trkpt>
      <trkpt lat="42.33121" lon="2.42734">
        <ele>1112</ele>
        <time>2019-01-07T00:49:39Z</time>
      </trkpt>
      <trkpt lat="42.33117" lon="2.42748">
        <ele>1111.9</ele>
        <time>2019-01-07T00:49:42Z</time>
      </trkpt>
      <trkpt lat="42.33106" lon="2.42769">
        <ele>1110.5</ele>
        <time>2019-01-07T00:49:47Z</time>
      </trkpt>
      <trkpt lat="42.33106" lon="2.42781">
        <ele>1110.5</ele>
        <time>2019-01-07T00:49:50Z</time>
      </trkpt>
      <trkpt lat="42.33095" lon="2.42803">
        <ele>1109.1</ele>
        <time>2019-01-07T00:49:55Z</time>
      </trkpt>
      <trkpt lat="42.33086" lon="2.4284">
        <ele>1109.5</ele>
        <time>2019-01-07T00:50:03Z</time>
      </trkpt>
      <trkpt lat="42.33085" lon="2.42864">
        <ele>1111.4</ele>
        <time>2019-01-07T00:50:07Z</time>
      </trkpt>
      <trkpt lat="42.33087" lon="2.42871">
        <ele>1111</ele>
        <time>2019-01-07T00:50:09Z</time>
      </trkpt>
      <trkpt lat="42.33088" lon="2.42887">
        <ele>1111.4</ele>
        <time>2019-01-07T00:50:12Z</time>
      </trkpt>
      <trkpt lat="42.33084" lon="2.42897">
        <ele>1110.9</ele>
        <time>2019-01-07T00:50:14Z</time>
      </trkpt>
      <trkpt lat="42.33081" lon="2.42898">
        <ele>1110.1</ele>
        <time>2019-01-07T00:50:15Z</time>
      </trkpt>
      <trkpt lat="42.33075" lon="2.42904">
        <ele>1108.1</ele>
        <time>2019-01-07T00:50:17Z</time>
      </trkpt>
      <trkpt lat="42.33072" lon="2.42908">
        <ele>1107.1</ele>
        <time>2019-01-07T00:50:18Z</time>
      </trkpt>
      <trkpt lat="42.33067" lon="2.42918">
        <ele>1104.2</ele>
        <time>2019-01-07T00:50:20Z</time>
      </trkpt>
      <trkpt lat="42.33066" lon="2.42921">
        <ele>1102.9</ele>
        <time>2019-01-07T00:50:21Z</time>
      </trkpt>
      <trkpt lat="42.33061" lon="2.42949">
        <ele>1100.5</ele>
        <time>2019-01-07T00:50:27Z</time>
      </trkpt>
      <trkpt lat="42.33061" lon="2.42952">
        <ele>1100.4</ele>
        <time>2019-01-07T00:50:27Z</time>
      </trkpt>
      <trkpt lat="42.33058" lon="2.42979">
        <ele>1096.6</ele>
        <time>2019-01-07T00:50:33Z</time>
      </trkpt>
      <trkpt lat="42.33056" lon="2.43004">
        <ele>1094.2</ele>
        <time>2019-01-07T00:50:38Z</time>
      </trkpt>
      <trkpt lat="42.33053" lon="2.43019">
        <ele>1091.3</ele>
        <time>2019-01-07T00:50:41Z</time>
      </trkpt>
      <trkpt lat="42.33042" lon="2.43042">
        <ele>1089.8</ele>
        <time>2019-01-07T00:50:46Z</time>
      </trkpt>
      <trkpt lat="42.33035" lon="2.43049">
        <ele>1089.4</ele>
        <time>2019-01-07T00:50:48Z</time>
      </trkpt>
      <trkpt lat="42.33011" lon="2.43057">
        <ele>1087</ele>
        <time>2019-01-07T00:50:55Z</time>
      </trkpt>
      <trkpt lat="42.33008" lon="2.43058">
        <ele>1086.9</ele>
        <time>2019-01-07T00:50:56Z</time>
      </trkpt>
      <trkpt lat="42.32997" lon="2.43063">
        <ele>1085</ele>
        <time>2019-01-07T00:50:59Z</time>
      </trkpt>
      <trkpt lat="42.32995" lon="2.43066">
        <ele>1084.6</ele>
        <time>2019-01-07T00:51:00Z</time>
      </trkpt>
      <trkpt lat="42.32998" lon="2.43073">
        <ele>1085.1</ele>
        <time>2019-01-07T00:51:01Z</time>
      </trkpt>
      <trkpt lat="42.33023" lon="2.43086">
        <ele>1087</ele>
        <time>2019-01-07T00:51:08Z</time>
      </trkpt>
      <trkpt lat="42.3303" lon="2.43089">
        <ele>1087.5</ele>
        <time>2019-01-07T00:51:10Z</time>
      </trkpt>
      <trkpt lat="42.33029" lon="2.43088">
        <ele>1087.4</ele>
        <time>2019-01-07T00:51:11Z</time>
      </trkpt>
      <trkpt lat="42.3303" lon="2.43091">
        <ele>1087</ele>
        <time>2019-01-07T00:51:11Z</time>
      </trkpt>
      <trkpt lat="42.33033" lon="2.431">
        <ele>1085.1</ele>
        <time>2019-01-07T00:51:13Z</time>
      </trkpt>
      <trkpt lat="42.33034" lon="2.43102">
        <ele>1084</ele>
        <time>2019-01-07T00:51:14Z</time>
      </trkpt>
      <trkpt lat="42.33031" lon="2.4312">
        <ele>1080.7</ele>
        <time>2019-01-07T00:51:17Z</time>
      </trkpt>
      <trkpt lat="42.33028" lon="2.43124">
        <ele>1077.8</ele>
        <time>2019-01-07T00:51:19Z</time>
      </trkpt>
      <trkpt lat="42.33027" lon="2.43128">
        <ele>1077.8</ele>
        <time>2019-01-07T00:51:19Z</time>
      </trkpt>
      <trkpt lat="42.33032" lon="2.43136">
        <ele>1077.4</ele>
        <time>2019-01-07T00:51:21Z</time>
      </trkpt>
      <trkpt lat="42.33032" lon="2.43147">
        <ele>1073.5</ele>
        <time>2019-01-07T00:51:24Z</time>
      </trkpt>
      <trkpt lat="42.33033" lon="2.43149">
        <ele>1071.5</ele>
        <time>2019-01-07T00:51:24Z</time>
      </trkpt>
      <trkpt lat="42.33034" lon="2.43153">
        <ele>1071.6</ele>
        <time>2019-01-07T00:51:25Z</time>
      </trkpt>
      <trkpt lat="42.33037" lon="2.4316">
        <ele>1068.6</ele>
        <time>2019-01-07T00:51:26Z</time>
      </trkpt>
      <trkpt lat="42.33036" lon="2.43165">
        <ele>1065.9</ele>
        <time>2019-01-07T00:51:27Z</time>
      </trkpt>
      <trkpt lat="42.33036" lon="2.43166">
        <ele>1064.8</ele>
        <time>2019-01-07T00:51:28Z</time>
      </trkpt>
      <trkpt lat="42.33035" lon="2.43178">
        <ele>1060.6</ele>
        <time>2019-01-07T00:51:30Z</time>
      </trkpt>
      <trkpt lat="42.33034" lon="2.43182">
        <ele>1057.1</ele>
        <time>2019-01-07T00:51:31Z</time>
      </trkpt>
      <trkpt lat="42.33034" lon="2.43191">
        <ele>1055.7</ele>
        <time>2019-01-07T00:51:33Z</time>
      </trkpt>
      <trkpt lat="42.33037" lon="2.43198">
        <ele>1050.9</ele>
        <time>2019-01-07T00:51:34Z</time>
      </trkpt>
      <trkpt lat="42.33038" lon="2.43198">
        <ele>1051</ele>
        <time>2019-01-07T00:51:35Z</time>
      </trkpt>
      <trkpt lat="42.33041" lon="2.43201">
        <ele>1049</ele>
        <time>2019-01-07T00:51:36Z</time>
      </trkpt>
      <trkpt lat="42.33047" lon="2.43201">
        <ele>1046.6</ele>
        <time>2019-01-07T00:51:37Z</time>
      </trkpt>
      <trkpt lat="42.33048" lon="2.43207">
        <ele>1043.8</ele>
        <time>2019-01-07T00:51:38Z</time>
      </trkpt>
      <trkpt lat="42.33052" lon="2.43211">
        <ele>1041.3</ele>
        <time>2019-01-07T00:51:40Z</time>
      </trkpt>
      <trkpt lat="42.33055" lon="2.4322">
        <ele>1038.8</ele>
        <time>2019-01-07T00:51:42Z</time>
      </trkpt>
      <trkpt lat="42.33059" lon="2.43223">
        <ele>1036.1</ele>
        <time>2019-01-07T00:51:43Z</time>
      </trkpt>
      <trkpt lat="42.3306" lon="2.43225">
        <ele>1035.1</ele>
        <time>2019-01-07T00:51:43Z</time>
      </trkpt>
      <trkpt lat="42.33067" lon="2.43228">
        <ele>1034.1</ele>
        <time>2019-01-07T00:51:45Z</time>
      </trkpt>
      <trkpt lat="42.3307" lon="2.43235">
        <ele>1032.1</ele>
        <time>2019-01-07T00:51:47Z</time>
      </trkpt>
      <trkpt lat="42.33071" lon="2.43239">
        <ele>1030.2</ele>
        <time>2019-01-07T00:51:48Z</time>
      </trkpt>
      <trkpt lat="42.33079" lon="2.43255">
        <ele>1028.4</ele>
        <time>2019-01-07T00:51:52Z</time>
      </trkpt>
      <trkpt lat="42.3308" lon="2.43259">
        <ele>1027.8</ele>
        <time>2019-01-07T00:51:52Z</time>
      </trkpt>
      <trkpt lat="42.33084" lon="2.43268">
        <ele>1026.3</ele>
        <time>2019-01-07T00:51:54Z</time>
      </trkpt>
      <trkpt lat="42.33084" lon="2.43273">
        <ele>1023.6</ele>
        <time>2019-01-07T00:51:55Z</time>
      </trkpt>
      <trkpt lat="42.33086" lon="2.43288">
        <ele>1021.2</ele>
        <time>2019-01-07T00:51:58Z</time>
      </trkpt>
      <trkpt lat="42.33086" lon="2.43302">
        <ele>1018.7</ele>
        <time>2019-01-07T00:52:01Z</time>
      </trkpt>
      <trkpt lat="42.33087" lon="2.43305">
        <ele>1018.3</ele>
        <time>2019-01-07T00:52:02Z</time>
      </trkpt>
      <trkpt lat="42.33089" lon="2.43315">
        <ele>1015.4</ele>
        <time>2019-01-07T00:52:04Z</time>
      </trkpt>
      <trkpt lat="42.33091" lon="2.43319">
        <ele>1016.7</ele>
        <time>2019-01-07T00:52:05Z</time>
      </trkpt>
      <trkpt lat="42.33093" lon="2.43322">
        <ele>1014.8</ele>
        <time>2019-01-07T00:52:06Z</time>
      </trkpt>
      <trkpt lat="42.33096" lon="2.43338">
        <ele>1013.4</ele>
        <time>2019-01-07T00:52:09Z</time>
      </trkpt>
      <trkpt lat="42.33098" lon="2.43351">
        <ele>1010.6</ele>
        <time>2019-01-07T00:52:11Z</time>
      </trkpt>
      <trkpt lat="42.33099" lon="2.43355">
        <ele>1009.5</ele>
        <time>2019-01-07T00:52:12Z</time>
      </trkpt>
      <trkpt lat="42.33101" lon="2.43359">
        <ele>1008.7</ele>
        <time>2019-01-07T00:52:13Z</time>
      </trkpt>
      <trkpt lat="42.33103" lon="2.43371">
        <ele>1004.3</ele>
        <time>2019-01-07T00:52:16Z</time>
      </trkpt>
      <trkpt lat="42.33108" lon="2.43383">
        <ele>1003.8</ele>
        <time>2019-01-07T00:52:18Z</time>
      </trkpt>
      <trkpt lat="42.33118" lon="2.43392">
        <ele>1002.4</ele>
        <time>2019-01-07T00:52:21Z</time>
      </trkpt>
      <trkpt lat="42.33129" lon="2.43392">
        <ele>1001.5</ele>
        <time>2019-01-07T00:52:24Z</time>
      </trkpt>
      <trkpt lat="42.33131" lon="2.43396">
        <ele>1000.5</ele>
        <time>2019-01-07T00:52:25Z</time>
      </trkpt>
      <trkpt lat="42.33138" lon="2.43401">
        <ele>1000</ele>
        <time>2019-01-07T00:52:27Z</time>
      </trkpt>
      <trkpt lat="42.33155" lon="2.43396">
        <ele>1000.9</ele>
        <time>2019-01-07T00:52:32Z</time>
      </trkpt>
      <trkpt lat="42.33159" lon="2.43394">
        <ele>1001.4</ele>
        <time>2019-01-07T00:52:33Z</time>
      </trkpt>
      <trkpt lat="42.33169" lon="2.4338">
        <ele>999.4</ele>
        <time>2019-01-07T00:52:37Z</time>
      </trkpt>
      <trkpt lat="42.33175" lon="2.43371">
        <ele>999</ele>
        <time>2019-01-07T00:52:40Z</time>
      </trkpt>
      <trkpt lat="42.33179" lon="2.43361">
        <ele>997.6</ele>
        <time>2019-01-07T00:52:42Z</time>
      </trkpt>
      <trkpt lat="42.33182" lon="2.43355">
        <ele>999</ele>
        <time>2019-01-07T00:52:43Z</time>
      </trkpt>
      <trkpt lat="42.33183" lon="2.43355">
        <ele>997.6</ele>
        <time>2019-01-07T00:52:43Z</time>
      </trkpt>
      <trkpt lat="42.33193" lon="2.4335">
        <ele>1001.8</ele>
        <time>2019-01-07T00:52:46Z</time>
      </trkpt>
      <trkpt lat="42.33194" lon="2.4335">
        <ele>1001.9</ele>
        <time>2019-01-07T00:52:47Z</time>
      </trkpt>
      <trkpt lat="42.33211" lon="2.43351">
        <ele>1000.9</ele>
        <time>2019-01-07T00:52:51Z</time>
      </trkpt>
      <trkpt lat="42.33222" lon="2.43359">
        <ele>1003.4</ele>
        <time>2019-01-07T00:52:54Z</time>
      </trkpt>
      <trkpt lat="42.33226" lon="2.43363">
        <ele>1001.8</ele>
        <time>2019-01-07T00:52:56Z</time>
      </trkpt>
      <trkpt lat="42.33233" lon="2.43364">
        <ele>997.5</ele>
        <time>2019-01-07T00:52:58Z</time>
      </trkpt>
      <trkpt lat="42.33239" lon="2.43368">
        <ele>995.2</ele>
        <time>2019-01-07T00:52:59Z</time>
      </trkpt>
      <trkpt lat="42.33237" lon="2.43375">
        <ele>991.3</ele>
        <time>2019-01-07T00:53:01Z</time>
      </trkpt>
      <trkpt lat="42.33237" lon="2.43382">
        <ele>989.3</ele>
        <time>2019-01-07T00:53:02Z</time>
      </trkpt>
      <trkpt lat="42.33235" lon="2.43391">
        <ele>986.1</ele>
        <time>2019-01-07T00:53:04Z</time>
      </trkpt>
      <trkpt lat="42.33235" lon="2.43393">
        <ele>986.6</ele>
        <time>2019-01-07T00:53:04Z</time>
      </trkpt>
      <trkpt lat="42.33235" lon="2.43397">
        <ele>985.1</ele>
        <time>2019-01-07T00:53:05Z</time>
      </trkpt>
      <trkpt lat="42.33234" lon="2.43404">
        <ele>981.2</ele>
        <time>2019-01-07T00:53:06Z</time>
      </trkpt>
      <trkpt lat="42.33234" lon="2.43406">
        <ele>980.8</ele>
        <time>2019-01-07T00:53:07Z</time>
      </trkpt>
      <trkpt lat="42.33233" lon="2.43414">
        <ele>979.3</ele>
        <time>2019-01-07T00:53:09Z</time>
      </trkpt>
      <trkpt lat="42.33234" lon="2.43418">
        <ele>977.3</ele>
        <time>2019-01-07T00:53:09Z</time>
      </trkpt>
      <trkpt lat="42.33236" lon="2.43422">
        <ele>975.9</ele>
        <time>2019-01-07T00:53:10Z</time>
      </trkpt>
      <trkpt lat="42.33242" lon="2.43424">
        <ele>971.7</ele>
        <time>2019-01-07T00:53:12Z</time>
      </trkpt>
      <trkpt lat="42.33243" lon="2.43424">
        <ele>971.7</ele>
        <time>2019-01-07T00:53:12Z</time>
      </trkpt>
      <trkpt lat="42.33244" lon="2.43427">
        <ele>969.6</ele>
        <time>2019-01-07T00:53:13Z</time>
      </trkpt>
      <trkpt lat="42.33242" lon="2.43441">
        <ele>967.7</ele>
        <time>2019-01-07T00:53:16Z</time>
      </trkpt>
      <trkpt lat="42.33238" lon="2.43445">
        <ele>964.3</ele>
        <time>2019-01-07T00:53:17Z</time>
      </trkpt>
      <trkpt lat="42.3324" lon="2.43465">
        <ele>964.4</ele>
        <time>2019-01-07T00:53:21Z</time>
      </trkpt>
      <trkpt lat="42.3324" lon="2.43473">
        <ele>961.5</ele>
        <time>2019-01-07T00:53:23Z</time>
      </trkpt>
      <trkpt lat="42.33242" lon="2.43484">
        <ele>958.2</ele>
        <time>2019-01-07T00:53:25Z</time>
      </trkpt>
      <trkpt lat="42.33242" lon="2.43495">
        <ele>957.1</ele>
        <time>2019-01-07T00:53:27Z</time>
      </trkpt>
      <trkpt lat="42.33236" lon="2.43508">
        <ele>953.8</ele>
        <time>2019-01-07T00:53:30Z</time>
      </trkpt>
      <trkpt lat="42.33236" lon="2.43511">
        <ele>954.3</ele>
        <time>2019-01-07T00:53:31Z</time>
      </trkpt>
      <trkpt lat="42.33237" lon="2.43521">
        <ele>952.3</ele>
        <time>2019-01-07T00:53:32Z</time>
      </trkpt>
      <trkpt lat="42.33242" lon="2.43532">
        <ele>950.4</ele>
        <time>2019-01-07T00:53:35Z</time>
      </trkpt>
      <trkpt lat="42.33252" lon="2.43548">
        <ele>950.5</ele>
        <time>2019-01-07T00:53:39Z</time>
      </trkpt>
      <trkpt lat="42.33263" lon="2.43558">
        <ele>950.5</ele>
        <time>2019-01-07T00:53:43Z</time>
      </trkpt>
      <trkpt lat="42.33267" lon="2.43561">
        <ele>947.6</ele>
        <time>2019-01-07T00:53:44Z</time>
      </trkpt>
      <trkpt lat="42.33269" lon="2.43566">
        <ele>948.6</ele>
        <time>2019-01-07T00:53:45Z</time>
      </trkpt>
      <trkpt lat="42.33277" lon="2.43576">
        <ele>948.6</ele>
        <time>2019-01-07T00:53:48Z</time>
      </trkpt>
      <trkpt lat="42.33291" lon="2.43596">
        <ele>951.4</ele>
        <time>2019-01-07T00:53:53Z</time>
      </trkpt>
      <trkpt lat="42.33297" lon="2.43618">
        <ele>952.8</ele>
        <time>2019-01-07T00:53:58Z</time>
      </trkpt>
      <trkpt lat="42.33309" lon="2.4363">
        <ele>951.4</ele>
        <time>2019-01-07T00:54:02Z</time>
      </trkpt>
      <trkpt lat="42.33329" lon="2.43638">
        <ele>953.3</ele>
        <time>2019-01-07T00:54:08Z</time>
      </trkpt>
      <trkpt lat="42.33349" lon="2.4364">
        <ele>954.8</ele>
        <time>2019-01-07T00:54:13Z</time>
      </trkpt>
      <trkpt lat="42.33353" lon="2.4364">
        <ele>954.4</ele>
        <time>2019-01-07T00:54:14Z</time>
      </trkpt>
      <trkpt lat="42.33362" lon="2.43641">
        <ele>954.7</ele>
        <time>2019-01-07T00:54:16Z</time>
      </trkpt>
      <trkpt lat="42.33368" lon="2.43649">
        <ele>954.7</ele>
        <time>2019-01-07T00:54:19Z</time>
      </trkpt>
      <trkpt lat="42.33378" lon="2.43654">
        <ele>954.8</ele>
        <time>2019-01-07T00:54:21Z</time>
      </trkpt>
      <trkpt lat="42.33388" lon="2.43658">
        <ele>955.8</ele>
        <time>2019-01-07T00:54:24Z</time>
      </trkpt>
      <trkpt lat="42.33393" lon="2.43659">
        <ele>954.4</ele>
        <time>2019-01-07T00:54:26Z</time>
      </trkpt>
      <trkpt lat="42.33398" lon="2.43658">
        <ele>953.9</ele>
        <time>2019-01-07T00:54:27Z</time>
      </trkpt>
      <trkpt lat="42.33402" lon="2.4367">
        <ele>953.3</ele>
        <time>2019-01-07T00:54:30Z</time>
      </trkpt>
      <trkpt lat="42.334" lon="2.43681">
        <ele>953.8</ele>
        <time>2019-01-07T00:54:32Z</time>
      </trkpt>
      <trkpt lat="42.33393" lon="2.43686">
        <ele>954.7</ele>
        <time>2019-01-07T00:54:34Z</time>
      </trkpt>
      <trkpt lat="42.33386" lon="2.43695">
        <ele>955.8</ele>
        <time>2019-01-07T00:54:36Z</time>
      </trkpt>
      <trkpt lat="42.33373" lon="2.43703">
        <ele>956.8</ele>
        <time>2019-01-07T00:54:40Z</time>
      </trkpt>
      <trkpt lat="42.33366" lon="2.43708">
        <ele>957.1</ele>
        <time>2019-01-07T00:54:42Z</time>
      </trkpt>
      <trkpt lat="42.33343" lon="2.43726">
        <ele>958.2</ele>
        <time>2019-01-07T00:54:49Z</time>
      </trkpt>
      <trkpt lat="42.33339" lon="2.43745">
        <ele>957.7</ele>
        <time>2019-01-07T00:54:53Z</time>
      </trkpt>
      <trkpt lat="42.33343" lon="2.43767">
        <ele>957.1</ele>
        <time>2019-01-07T00:54:58Z</time>
      </trkpt>
      <trkpt lat="42.33351" lon="2.43773">
        <ele>953.8</ele>
        <time>2019-01-07T00:55:00Z</time>
      </trkpt>
      <trkpt lat="42.33352" lon="2.43774">
        <ele>959.1</ele>
        <time>2019-01-07T00:55:01Z</time>
      </trkpt>
      <trkpt lat="42.33354" lon="2.43774">
        <ele>958.1</ele>
        <time>2019-01-07T00:55:01Z</time>
      </trkpt>
      <trkpt lat="42.33357" lon="2.43776">
        <ele>955.7</ele>
        <time>2019-01-07T00:55:02Z</time>
      </trkpt>
      <trkpt lat="42.33358" lon="2.43777">
        <ele>960.5</ele>
        <time>2019-01-07T00:55:02Z</time>
      </trkpt>
      <trkpt lat="42.3336" lon="2.43778">
        <ele>958.7</ele>
        <time>2019-01-07T00:55:03Z</time>
      </trkpt>
      <trkpt lat="42.33364" lon="2.4378">
        <ele>957.7</ele>
        <time>2019-01-07T00:55:04Z</time>
      </trkpt>
      <trkpt lat="42.33368" lon="2.4378">
        <ele>957.2</ele>
        <time>2019-01-07T00:55:05Z</time>
      </trkpt>
      <trkpt lat="42.3339" lon="2.43777">
        <ele>955.2</ele>
        <time>2019-01-07T00:55:11Z</time>
      </trkpt>
      <trkpt lat="42.33403" lon="2.43789">
        <ele>954.4</ele>
        <time>2019-01-07T00:55:15Z</time>
      </trkpt>
      <trkpt lat="42.334" lon="2.43801">
        <ele>954.8</ele>
        <time>2019-01-07T00:55:18Z</time>
      </trkpt>
      <trkpt lat="42.33385" lon="2.4382">
        <ele>954.4</ele>
        <time>2019-01-07T00:55:23Z</time>
      </trkpt>
      <trkpt lat="42.33378" lon="2.43828">
        <ele>954.7</ele>
        <time>2019-01-07T00:55:26Z</time>
      </trkpt>
      <trkpt lat="42.33373" lon="2.43832">
        <ele>954.7</ele>
        <time>2019-01-07T00:55:27Z</time>
      </trkpt>
      <trkpt lat="42.33361" lon="2.43863">
        <ele>955.2</ele>
        <time>2019-01-07T00:55:34Z</time>
      </trkpt>
      <trkpt lat="42.33357" lon="2.43891">
        <ele>957.6</ele>
        <time>2019-01-07T00:55:40Z</time>
      </trkpt>
      <trkpt lat="42.33352" lon="2.43901">
        <ele>959.2</ele>
        <time>2019-01-07T00:55:42Z</time>
      </trkpt>
      <trkpt lat="42.33351" lon="2.43929">
        <ele>961.1</ele>
        <time>2019-01-07T00:55:48Z</time>
      </trkpt>
      <trkpt lat="42.33351" lon="2.43946">
        <ele>961.6</ele>
        <time>2019-01-07T00:55:51Z</time>
      </trkpt>
      <trkpt lat="42.33349" lon="2.43978">
        <ele>964</ele>
        <time>2019-01-07T00:55:57Z</time>
      </trkpt>
      <trkpt lat="42.33348" lon="2.43985">
        <ele>964</ele>
        <time>2019-01-07T00:55:59Z</time>
      </trkpt>
      <trkpt lat="42.33345" lon="2.44013">
        <ele>965.3</ele>
        <time>2019-01-07T00:56:05Z</time>
      </trkpt>
      <trkpt lat="42.33345" lon="2.44024">
        <ele>965.8</ele>
        <time>2019-01-07T00:56:07Z</time>
      </trkpt>
      <trkpt lat="42.33346" lon="2.44031">
        <ele>965.4</ele>
        <time>2019-01-07T00:56:08Z</time>
      </trkpt>
      <trkpt lat="42.33347" lon="2.44048">
        <ele>967.7</ele>
        <time>2019-01-07T00:56:11Z</time>
      </trkpt>
      <trkpt lat="42.33343" lon="2.44075">
        <ele>968.2</ele>
        <time>2019-01-07T00:56:17Z</time>
      </trkpt>
      <trkpt lat="42.33342" lon="2.441">
        <ele>970.1</ele>
        <time>2019-01-07T00:56:22Z</time>
      </trkpt>
      <trkpt lat="42.33342" lon="2.44131">
        <ele>971.7</ele>
        <time>2019-01-07T00:56:28Z</time>
      </trkpt>
      <trkpt lat="42.33339" lon="2.44147">
        <ele>972.6</ele>
        <time>2019-01-07T00:56:31Z</time>
      </trkpt>
      <trkpt lat="42.3334" lon="2.44163">
        <ele>974.1</ele>
        <time>2019-01-07T00:56:34Z</time>
      </trkpt>
      <trkpt lat="42.3334" lon="2.44169">
        <ele>974.4</ele>
        <time>2019-01-07T00:56:35Z</time>
      </trkpt>
      <trkpt lat="42.33337" lon="2.44179">
        <ele>973.1</ele>
        <time>2019-01-07T00:56:38Z</time>
      </trkpt>
      <trkpt lat="42.33331" lon="2.44215">
        <ele>970.2</ele>
        <time>2019-01-07T00:56:45Z</time>
      </trkpt>
      <trkpt lat="42.33334" lon="2.44236">
        <ele>969.3</ele>
        <time>2019-01-07T00:56:49Z</time>
      </trkpt>
      <trkpt lat="42.33331" lon="2.44245">
        <ele>966.8</ele>
        <time>2019-01-07T00:56:51Z</time>
      </trkpt>
      <trkpt lat="42.33329" lon="2.44245">
        <ele>966.3</ele>
        <time>2019-01-07T00:56:52Z</time>
      </trkpt>
      <trkpt lat="42.33317" lon="2.44238">
        <ele>963.9</ele>
        <time>2019-01-07T00:56:55Z</time>
      </trkpt>
      <trkpt lat="42.3331" lon="2.44237">
        <ele>962.9</ele>
        <time>2019-01-07T00:56:57Z</time>
      </trkpt>
      <trkpt lat="42.33306" lon="2.44236">
        <ele>961.9</ele>
        <time>2019-01-07T00:56:58Z</time>
      </trkpt>
      <trkpt lat="42.33296" lon="2.44233">
        <ele>959.2</ele>
        <time>2019-01-07T00:57:01Z</time>
      </trkpt>
      <trkpt lat="42.3329" lon="2.44236">
        <ele>958.1</ele>
        <time>2019-01-07T00:57:03Z</time>
      </trkpt>
      <trkpt lat="42.33286" lon="2.4424">
        <ele>956.2</ele>
        <time>2019-01-07T00:57:04Z</time>
      </trkpt>
      <trkpt lat="42.33282" lon="2.44246">
        <ele>955.3</ele>
        <time>2019-01-07T00:57:06Z</time>
      </trkpt>
      <trkpt lat="42.33278" lon="2.44263">
        <ele>952.8</ele>
        <time>2019-01-07T00:57:09Z</time>
      </trkpt>
      <trkpt lat="42.33278" lon="2.44284">
        <ele>949</ele>
        <time>2019-01-07T00:57:13Z</time>
      </trkpt>
      <trkpt lat="42.33289" lon="2.44313">
        <ele>946.2</ele>
        <time>2019-01-07T00:57:20Z</time>
      </trkpt>
      <trkpt lat="42.33309" lon="2.44332">
        <ele>943.2</ele>
        <time>2019-01-07T00:57:26Z</time>
      </trkpt>
      <trkpt lat="42.33315" lon="2.44336">
        <ele>941.8</ele>
        <time>2019-01-07T00:57:28Z</time>
      </trkpt>
      <trkpt lat="42.3332" lon="2.44337">
        <ele>940.3</ele>
        <time>2019-01-07T00:57:29Z</time>
      </trkpt>
      <trkpt lat="42.33329" lon="2.44342">
        <ele>938.5</ele>
        <time>2019-01-07T00:57:32Z</time>
      </trkpt>
      <trkpt lat="42.33336" lon="2.44341">
        <ele>938</ele>
        <time>2019-01-07T00:57:34Z</time>
      </trkpt>
      <trkpt lat="42.33348" lon="2.44344">
        <ele>936.1</ele>
        <time>2019-01-07T00:57:37Z</time>
      </trkpt>
      <trkpt lat="42.33356" lon="2.44345">
        <ele>934.2</ele>
        <time>2019-01-07T00:57:39Z</time>
      </trkpt>
      <trkpt lat="42.3336" lon="2.44346">
        <ele>932.7</ele>
        <time>2019-01-07T00:57:40Z</time>
      </trkpt>
      <trkpt lat="42.33353" lon="2.4435">
        <ele>931.2</ele>
        <time>2019-01-07T00:57:42Z</time>
      </trkpt>
      <trkpt lat="42.33325" lon="2.44365">
        <ele>927.3</ele>
        <time>2019-01-07T00:57:50Z</time>
      </trkpt>
      <trkpt lat="42.33301" lon="2.44377">
        <ele>924.5</ele>
        <time>2019-01-07T00:57:57Z</time>
      </trkpt>
      <trkpt lat="42.33285" lon="2.4438">
        <ele>922.5</ele>
        <time>2019-01-07T00:58:01Z</time>
      </trkpt>
      <trkpt lat="42.33275" lon="2.4438">
        <ele>921.1</ele>
        <time>2019-01-07T00:58:04Z</time>
      </trkpt>
      <trkpt lat="42.33256" lon="2.44364">
        <ele>918.2</ele>
        <time>2019-01-07T00:58:10Z</time>
      </trkpt>
      <trkpt lat="42.33244" lon="2.4434">
        <ele>915.4</ele>
        <time>2019-01-07T00:58:16Z</time>
      </trkpt>
      <trkpt lat="42.33227" lon="2.44322">
        <ele>913.4</ele>
        <time>2019-01-07T00:58:21Z</time>
      </trkpt>
      <trkpt lat="42.33225" lon="2.4432">
        <ele>912.4</ele>
        <time>2019-01-07T00:58:22Z</time>
      </trkpt>
      <trkpt lat="42.33202" lon="2.44286">
        <ele>908.7</ele>
        <time>2019-01-07T00:58:31Z</time>
      </trkpt>
      <trkpt lat="42.332" lon="2.44271">
        <ele>907.1</ele>
        <time>2019-01-07T00:58:34Z</time>
      </trkpt>
      <trkpt lat="42.33198" lon="2.44255">
        <ele>906.3</ele>
        <time>2019-01-07T00:58:37Z</time>
      </trkpt>
      <trkpt lat="42.33197" lon="2.44241">
        <ele>905.2</ele>
        <time>2019-01-07T00:58:40Z</time>
      </trkpt>
      <trkpt lat="42.332" lon="2.44193">
        <ele>902</ele>
        <time>2019-01-07T00:58:50Z</time>
      </trkpt>
      <trkpt lat="42.33202" lon="2.44179">
        <ele>900.9</ele>
        <time>2019-01-07T00:58:53Z</time>
      </trkpt>
      <trkpt lat="42.33201" lon="2.44176">
        <ele>900.4</ele>
        <time>2019-01-07T00:58:53Z</time>
      </trkpt>
      <trkpt lat="42.33194" lon="2.44175">
        <ele>898.5</ele>
        <time>2019-01-07T00:58:55Z</time>
      </trkpt>
      <trkpt lat="42.33191" lon="2.44186">
        <ele>896.7</ele>
        <time>2019-01-07T00:58:57Z</time>
      </trkpt>
      <trkpt lat="42.33186" lon="2.44201">
        <ele>894.7</ele>
        <time>2019-01-07T00:59:01Z</time>
      </trkpt>
      <trkpt lat="42.33182" lon="2.44208">
        <ele>893.8</ele>
        <time>2019-01-07T00:59:02Z</time>
      </trkpt>
      <trkpt lat="42.33179" lon="2.44213">
        <ele>893.3</ele>
        <time>2019-01-07T00:59:04Z</time>
      </trkpt>
      <trkpt lat="42.33176" lon="2.4424">
        <ele>891.3</ele>
        <time>2019-01-07T00:59:09Z</time>
      </trkpt>
      <trkpt lat="42.33174" lon="2.4427">
        <ele>889</ele>
        <time>2019-01-07T00:59:15Z</time>
      </trkpt>
      <trkpt lat="42.33172" lon="2.44283">
        <ele>888.5</ele>
        <time>2019-01-07T00:59:17Z</time>
      </trkpt>
      <trkpt lat="42.33171" lon="2.44303">
        <ele>886.6</ele>
        <time>2019-01-07T00:59:21Z</time>
      </trkpt>
      <trkpt lat="42.33175" lon="2.44326">
        <ele>884.2</ele>
        <time>2019-01-07T00:59:26Z</time>
      </trkpt>
      <trkpt lat="42.33183" lon="2.44352">
        <ele>881.7</ele>
        <time>2019-01-07T00:59:32Z</time>
      </trkpt>
      <trkpt lat="42.33186" lon="2.44365">
        <ele>881.2</ele>
        <time>2019-01-07T00:59:34Z</time>
      </trkpt>
      <trkpt lat="42.33181" lon="2.44384">
        <ele>878.3</ele>
        <time>2019-01-07T00:59:38Z</time>
      </trkpt>
      <trkpt lat="42.33176" lon="2.44399">
        <ele>876.9</ele>
        <time>2019-01-07T00:59:42Z</time>
      </trkpt>
      <trkpt lat="42.33158" lon="2.44429">
        <ele>876</ele>
        <time>2019-01-07T00:59:49Z</time>
      </trkpt>
      <trkpt lat="42.33141" lon="2.44449">
        <ele>872.5</ele>
        <time>2019-01-07T00:59:55Z</time>
      </trkpt>
      <trkpt lat="42.33135" lon="2.44459">
        <ele>872.2</ele>
        <time>2019-01-07T00:59:58Z</time>
      </trkpt>
      <trkpt lat="42.33124" lon="2.44493">
        <ele>868.3</ele>
        <time>2019-01-07T01:00:05Z</time>
      </trkpt>
      <trkpt lat="42.33123" lon="2.44496">
        <ele>868.3</ele>
        <time>2019-01-07T01:00:06Z</time>
      </trkpt>
      <trkpt lat="42.33125" lon="2.44513">
        <ele>865.9</ele>
        <time>2019-01-07T01:00:09Z</time>
      </trkpt>
      <trkpt lat="42.33135" lon="2.44543">
        <ele>862.9</ele>
        <time>2019-01-07T01:00:16Z</time>
      </trkpt>
      <trkpt lat="42.33137" lon="2.44546">
        <ele>863.9</ele>
        <time>2019-01-07T01:00:16Z</time>
      </trkpt>
      <trkpt lat="42.33154" lon="2.44567">
        <ele>861</ele>
        <time>2019-01-07T01:00:23Z</time>
      </trkpt>
      <trkpt lat="42.33155" lon="2.4457">
        <ele>860.1</ele>
        <time>2019-01-07T01:00:23Z</time>
      </trkpt>
      <trkpt lat="42.33145" lon="2.44588">
        <ele>857.7</ele>
        <time>2019-01-07T01:00:28Z</time>
      </trkpt>
      <trkpt lat="42.33143" lon="2.44588">
        <ele>856.8</ele>
        <time>2019-01-07T01:00:28Z</time>
      </trkpt>
      <trkpt lat="42.33118" lon="2.44574">
        <ele>854.8</ele>
        <time>2019-01-07T01:00:36Z</time>
      </trkpt>
      <trkpt lat="42.3311" lon="2.44571">
        <ele>852.9</ele>
        <time>2019-01-07T01:00:38Z</time>
      </trkpt>
      <trkpt lat="42.33103" lon="2.44568">
        <ele>853.4</ele>
        <time>2019-01-07T01:00:40Z</time>
      </trkpt>
      <trkpt lat="42.331" lon="2.44567">
        <ele>850.9</ele>
        <time>2019-01-07T01:00:40Z</time>
      </trkpt>
      <trkpt lat="42.33097" lon="2.44567">
        <ele>853.4</ele>
        <time>2019-01-07T01:00:41Z</time>
      </trkpt>
      <trkpt lat="42.33077" lon="2.44562">
        <ele>851.5</ele>
        <time>2019-01-07T01:00:47Z</time>
      </trkpt>
      <trkpt lat="42.33069" lon="2.44561">
        <ele>851.4</ele>
        <time>2019-01-07T01:00:49Z</time>
      </trkpt>
      <trkpt lat="42.33066" lon="2.44573">
        <ele>849.5</ele>
        <time>2019-01-07T01:00:51Z</time>
      </trkpt>
      <trkpt lat="42.33068" lon="2.4458">
        <ele>848</ele>
        <time>2019-01-07T01:00:53Z</time>
      </trkpt>
      <trkpt lat="42.33071" lon="2.44607">
        <ele>845.6</ele>
        <time>2019-01-07T01:00:58Z</time>
      </trkpt>
      <trkpt lat="42.33072" lon="2.44641">
        <ele>842.7</ele>
        <time>2019-01-07T01:01:05Z</time>
      </trkpt>
      <trkpt lat="42.33066" lon="2.44673">
        <ele>840</ele>
        <time>2019-01-07T01:01:11Z</time>
      </trkpt>
      <trkpt lat="42.33057" lon="2.44703">
        <ele>837.9</ele>
        <time>2019-01-07T01:01:18Z</time>
      </trkpt>
      <trkpt lat="42.33044" lon="2.44708">
        <ele>835.1</ele>
        <time>2019-01-07T01:01:21Z</time>
      </trkpt>
      <trkpt lat="42.33038" lon="2.44709">
        <ele>833.7</ele>
        <time>2019-01-07T01:01:23Z</time>
      </trkpt>
      <trkpt lat="42.33033" lon="2.44709">
        <ele>834.1</ele>
        <time>2019-01-07T01:01:24Z</time>
      </trkpt>
      <trkpt lat="42.33022" lon="2.44706">
        <ele>830.2</ele>
        <time>2019-01-07T01:01:28Z</time>
      </trkpt>
      <trkpt lat="42.33006" lon="2.44713">
        <ele>828.8</ele>
        <time>2019-01-07T01:01:32Z</time>
      </trkpt>
      <trkpt lat="42.33002" lon="2.44719">
        <ele>827.4</ele>
        <time>2019-01-07T01:01:34Z</time>
      </trkpt>
      <trkpt lat="42.32995" lon="2.44741">
        <ele>825.5</ele>
        <time>2019-01-07T01:01:38Z</time>
      </trkpt>
      <trkpt lat="42.32997" lon="2.44756">
        <ele>826.9</ele>
        <time>2019-01-07T01:01:41Z</time>
      </trkpt>
      <trkpt lat="42.32995" lon="2.4478">
        <ele>827.5</ele>
        <time>2019-01-07T01:01:46Z</time>
      </trkpt>
      <trkpt lat="42.32994" lon="2.44785">
        <ele>827.4</ele>
        <time>2019-01-07T01:01:47Z</time>
      </trkpt>
      <trkpt lat="42.32987" lon="2.44797">
        <ele>826.5</ele>
        <time>2019-01-07T01:01:50Z</time>
      </trkpt>
      <trkpt lat="42.32983" lon="2.44809">
        <ele>825.9</ele>
        <time>2019-01-07T01:01:53Z</time>
      </trkpt>
      <trkpt lat="42.32978" lon="2.44818">
        <ele>823</ele>
        <time>2019-01-07T01:01:55Z</time>
      </trkpt>
      <trkpt lat="42.32978" lon="2.44834">
        <ele>822.6</ele>
        <time>2019-01-07T01:01:58Z</time>
      </trkpt>
      <trkpt lat="42.32983" lon="2.4484">
        <ele>821.7</ele>
        <time>2019-01-07T01:02:00Z</time>
      </trkpt>
      <trkpt lat="42.32985" lon="2.44843">
        <ele>820.6</ele>
        <time>2019-01-07T01:02:01Z</time>
      </trkpt>
      <trkpt lat="42.32983" lon="2.44845">
        <ele>819.7</ele>
        <time>2019-01-07T01:02:01Z</time>
      </trkpt>
      <trkpt lat="42.32976" lon="2.44844">
        <ele>818.3</ele>
        <time>2019-01-07T01:02:03Z</time>
      </trkpt>
      <trkpt lat="42.32971" lon="2.44855">
        <ele>815.9</ele>
        <time>2019-01-07T01:02:06Z</time>
      </trkpt>
      <trkpt lat="42.32968" lon="2.4486">
        <ele>813.9</ele>
        <time>2019-01-07T01:02:07Z</time>
      </trkpt>
      <trkpt lat="42.32963" lon="2.44867">
        <ele>812</ele>
        <time>2019-01-07T01:02:09Z</time>
      </trkpt>
      <trkpt lat="42.32959" lon="2.44872">
        <ele>811.1</ele>
        <time>2019-01-07T01:02:10Z</time>
      </trkpt>
      <trkpt lat="42.32957" lon="2.44876">
        <ele>809.1</ele>
        <time>2019-01-07T01:02:11Z</time>
      </trkpt>
      <trkpt lat="42.32954" lon="2.44883">
        <ele>809.2</ele>
        <time>2019-01-07T01:02:13Z</time>
      </trkpt>
      <trkpt lat="42.32943" lon="2.44897">
        <ele>806.2</ele>
        <time>2019-01-07T01:02:17Z</time>
      </trkpt>
      <trkpt lat="42.32941" lon="2.44903">
        <ele>806.7</ele>
        <time>2019-01-07T01:02:18Z</time>
      </trkpt>
      <trkpt lat="42.32936" lon="2.4491">
        <ele>805.2</ele>
        <time>2019-01-07T01:02:20Z</time>
      </trkpt>
      <trkpt lat="42.32935" lon="2.44914">
        <ele>807.2</ele>
        <time>2019-01-07T01:02:21Z</time>
      </trkpt>
      <trkpt lat="42.32929" lon="2.44928">
        <ele>804.9</ele>
        <time>2019-01-07T01:02:24Z</time>
      </trkpt>
      <trkpt lat="42.32925" lon="2.44934">
        <ele>803.3</ele>
        <time>2019-01-07T01:02:26Z</time>
      </trkpt>
      <trkpt lat="42.32919" lon="2.44941">
        <ele>802.8</ele>
        <time>2019-01-07T01:02:28Z</time>
      </trkpt>
      <trkpt lat="42.32913" lon="2.44945">
        <ele>802.4</ele>
        <time>2019-01-07T01:02:30Z</time>
      </trkpt>
      <trkpt lat="42.32913" lon="2.44947">
        <ele>801</ele>
        <time>2019-01-07T01:02:30Z</time>
      </trkpt>
      <trkpt lat="42.32912" lon="2.4495">
        <ele>802</ele>
        <time>2019-01-07T01:02:31Z</time>
      </trkpt>
      <trkpt lat="42.32908" lon="2.44939">
        <ele>802.5</ele>
        <time>2019-01-07T01:02:33Z</time>
      </trkpt>
      <trkpt lat="42.32912" lon="2.44943">
        <ele>802.5</ele>
        <time>2019-01-07T01:02:35Z</time>
      </trkpt>
      <trkpt lat="42.32917" lon="2.44949">
        <ele>802</ele>
        <time>2019-01-07T01:02:36Z</time>
      </trkpt>
      <trkpt lat="42.32918" lon="2.44953">
        <ele>802.4</ele>
        <time>2019-01-07T01:02:37Z</time>
      </trkpt>
      <trkpt lat="42.32903" lon="2.44956">
        <ele>804.8</ele>
        <time>2019-01-07T01:02:41Z</time>
      </trkpt>
      <trkpt lat="42.32893" lon="2.44963">
        <ele>805.7</ele>
        <time>2019-01-07T01:02:44Z</time>
      </trkpt>
      <trkpt lat="42.32883" lon="2.44965">
        <ele>805.3</ele>
        <time>2019-01-07T01:02:47Z</time>
      </trkpt>
      <trkpt lat="42.32876" lon="2.44961">
        <ele>805.3</ele>
        <time>2019-01-07T01:02:49Z</time>
      </trkpt>
      <trkpt lat="42.32868" lon="2.44964">
        <ele>805.3</ele>
        <time>2019-01-07T01:02:51Z</time>
      </trkpt>
      <trkpt lat="42.3286" lon="2.44977">
        <ele>805.2</ele>
        <time>2019-01-07T01:02:55Z</time>
      </trkpt>
      <trkpt lat="42.32851" lon="2.44993">
        <ele>805.8</ele>
        <time>2019-01-07T01:02:58Z</time>
      </trkpt>
      <trkpt lat="42.32841" lon="2.44997">
        <ele>806.2</ele>
        <time>2019-01-07T01:03:01Z</time>
      </trkpt>
      <trkpt lat="42.32829" lon="2.44999">
        <ele>807.3</ele>
        <time>2019-01-07T01:03:04Z</time>
      </trkpt>
      <trkpt lat="42.32828" lon="2.44998">
        <ele>807.3</ele>
        <time>2019-01-07T01:03:05Z</time>
      </trkpt>
      <trkpt lat="42.32819" lon="2.44984">
        <ele>807.6</ele>
        <time>2019-01-07T01:03:08Z</time>
      </trkpt>
      <trkpt lat="42.32817" lon="2.4498">
        <ele>806.7</ele>
        <time>2019-01-07T01:03:09Z</time>
      </trkpt>
      <trkpt lat="42.32813" lon="2.44973">
        <ele>805.7</ele>
        <time>2019-01-07T01:03:11Z</time>
      </trkpt>
      <trkpt lat="42.32807" lon="2.44963">
        <ele>804.9</ele>
        <time>2019-01-07T01:03:14Z</time>
      </trkpt>
      <trkpt lat="42.32793" lon="2.44954">
        <ele>802.8</ele>
        <time>2019-01-07T01:03:18Z</time>
      </trkpt>
      <trkpt lat="42.32789" lon="2.44954">
        <ele>803.4</ele>
        <time>2019-01-07T01:03:19Z</time>
      </trkpt>
      <trkpt lat="42.32781" lon="2.44946">
        <ele>802.5</ele>
        <time>2019-01-07T01:03:21Z</time>
      </trkpt>
      <trkpt lat="42.3277" lon="2.44938">
        <ele>799.1</ele>
        <time>2019-01-07T01:03:25Z</time>
      </trkpt>
      <trkpt lat="42.32767" lon="2.44938">
        <ele>798.6</ele>
        <time>2019-01-07T01:03:26Z</time>
      </trkpt>
      <trkpt lat="42.32758" lon="2.4493">
        <ele>795.7</ele>
        <time>2019-01-07T01:03:28Z</time>
      </trkpt>
      <trkpt lat="42.32751" lon="2.44926">
        <ele>795.6</ele>
        <time>2019-01-07T01:03:31Z</time>
      </trkpt>
      <trkpt lat="42.32741" lon="2.44928">
        <ele>793.7</ele>
        <time>2019-01-07T01:03:33Z</time>
      </trkpt>
      <trkpt lat="42.32736" lon="2.44929">
        <ele>793.2</ele>
        <time>2019-01-07T01:03:34Z</time>
      </trkpt>
      <trkpt lat="42.32731" lon="2.44932">
        <ele>790.9</ele>
        <time>2019-01-07T01:03:36Z</time>
      </trkpt>
      <trkpt lat="42.32723" lon="2.44929">
        <ele>788.4</ele>
        <time>2019-01-07T01:03:38Z</time>
      </trkpt>
      <trkpt lat="42.32722" lon="2.4493">
        <ele>788.9</ele>
        <time>2019-01-07T01:03:39Z</time>
      </trkpt>
      <trkpt lat="42.32721" lon="2.4493">
        <ele>788.4</ele>
        <time>2019-01-07T01:03:39Z</time>
      </trkpt>
      <trkpt lat="42.32711" lon="2.44927">
        <ele>787.1</ele>
        <time>2019-01-07T01:03:41Z</time>
      </trkpt>
      <trkpt lat="42.32708" lon="2.44927">
        <ele>786.1</ele>
        <time>2019-01-07T01:03:42Z</time>
      </trkpt>
      <trkpt lat="42.32696" lon="2.44923">
        <ele>784.2</ele>
        <time>2019-01-07T01:03:46Z</time>
      </trkpt>
      <trkpt lat="42.3268" lon="2.44928">
        <ele>782.2</ele>
        <time>2019-01-07T01:03:50Z</time>
      </trkpt>
      <trkpt lat="42.32658" lon="2.44937">
        <ele>781.2</ele>
        <time>2019-01-07T01:03:56Z</time>
      </trkpt>
      <trkpt lat="42.32649" lon="2.44944">
        <ele>780.3</ele>
        <time>2019-01-07T01:03:59Z</time>
      </trkpt>
      <trkpt lat="42.32645" lon="2.44946">
        <ele>778.8</ele>
        <time>2019-01-07T01:04:00Z</time>
      </trkpt>
      <trkpt lat="42.3264" lon="2.4495">
        <ele>777.4</ele>
        <time>2019-01-07T01:04:02Z</time>
      </trkpt>
      <trkpt lat="42.32637" lon="2.44953">
        <ele>776.9</ele>
        <time>2019-01-07T01:04:02Z</time>
      </trkpt>
      <trkpt lat="42.32633" lon="2.44954">
        <ele>774.6</ele>
        <time>2019-01-07T01:04:04Z</time>
      </trkpt>
      <trkpt lat="42.32621" lon="2.44967">
        <ele>772.6</ele>
        <time>2019-01-07T01:04:08Z</time>
      </trkpt>
      <trkpt lat="42.32615" lon="2.44977">
        <ele>770.2</ele>
        <time>2019-01-07T01:04:10Z</time>
      </trkpt>
      <trkpt lat="42.32608" lon="2.44981">
        <ele>769.8</ele>
        <time>2019-01-07T01:04:12Z</time>
      </trkpt>
      <trkpt lat="42.32601" lon="2.44986">
        <ele>765.9</ele>
        <time>2019-01-07T01:04:15Z</time>
      </trkpt>
      <trkpt lat="42.32599" lon="2.44987">
        <ele>765.9</ele>
        <time>2019-01-07T01:04:15Z</time>
      </trkpt>
      <trkpt lat="42.32585" lon="2.44994">
        <ele>763.4</ele>
        <time>2019-01-07T01:04:19Z</time>
      </trkpt>
      <trkpt lat="42.32575" lon="2.44999">
        <ele>761</ele>
        <time>2019-01-07T01:04:22Z</time>
      </trkpt>
      <trkpt lat="42.32571" lon="2.45004">
        <ele>761</ele>
        <time>2019-01-07T01:04:23Z</time>
      </trkpt>
      <trkpt lat="42.3257" lon="2.45008">
        <ele>760.2</ele>
        <time>2019-01-07T01:04:24Z</time>
      </trkpt>
      <trkpt lat="42.32568" lon="2.45013">
        <ele>759.2</ele>
        <time>2019-01-07T01:04:25Z</time>
      </trkpt>
      <trkpt lat="42.32555" lon="2.45038">
        <ele>756.8</ele>
        <time>2019-01-07T01:04:31Z</time>
      </trkpt>
      <trkpt lat="42.32554" lon="2.45041">
        <ele>756.8</ele>
        <time>2019-01-07T01:04:32Z</time>
      </trkpt>
      <trkpt lat="42.32549" lon="2.45048">
        <ele>754.4</ele>
        <time>2019-01-07T01:04:34Z</time>
      </trkpt>
      <trkpt lat="42.32548" lon="2.45049">
        <ele>753.8</ele>
        <time>2019-01-07T01:04:34Z</time>
      </trkpt>
      <trkpt lat="42.32545" lon="2.45053">
        <ele>753.9</ele>
        <time>2019-01-07T01:04:35Z</time>
      </trkpt>
      <trkpt lat="42.32539" lon="2.45059">
        <ele>752.5</ele>
        <time>2019-01-07T01:04:37Z</time>
      </trkpt>
      <trkpt lat="42.32526" lon="2.4508">
        <ele>748.6</ele>
        <time>2019-01-07T01:04:43Z</time>
      </trkpt>
      <trkpt lat="42.3252" lon="2.45089">
        <ele>747.6</ele>
        <time>2019-01-07T01:04:45Z</time>
      </trkpt>
      <trkpt lat="42.32506" lon="2.45106">
        <ele>743.7</ele>
        <time>2019-01-07T01:04:50Z</time>
      </trkpt>
      <trkpt lat="42.32488" lon="2.45122">
        <ele>742.3</ele>
        <time>2019-01-07T01:04:56Z</time>
      </trkpt>
      <trkpt lat="42.32483" lon="2.45125">
        <ele>740.9</ele>
        <time>2019-01-07T01:04:57Z</time>
      </trkpt>
      <trkpt lat="42.32476" lon="2.45144">
        <ele>738.9</ele>
        <time>2019-01-07T01:05:02Z</time>
      </trkpt>
      <trkpt lat="42.32479" lon="2.45158">
        <ele>737.6</ele>
        <time>2019-01-07T01:05:04Z</time>
      </trkpt>
      <trkpt lat="42.32478" lon="2.45175">
        <ele>735.1</ele>
        <time>2019-01-07T01:05:08Z</time>
      </trkpt>
      <trkpt lat="42.32478" lon="2.45181">
        <ele>734.1</ele>
        <time>2019-01-07T01:05:09Z</time>
      </trkpt>
      <trkpt lat="42.32479" lon="2.45189">
        <ele>732.3</ele>
        <time>2019-01-07T01:05:11Z</time>
      </trkpt>
      <trkpt lat="42.3248" lon="2.45199">
        <ele>732.3</ele>
        <time>2019-01-07T01:05:13Z</time>
      </trkpt>
      <trkpt lat="42.32478" lon="2.45204">
        <ele>730.7</ele>
        <time>2019-01-07T01:05:14Z</time>
      </trkpt>
      <trkpt lat="42.32475" lon="2.45211">
        <ele>730.3</ele>
        <time>2019-01-07T01:05:15Z</time>
      </trkpt>
      <trkpt lat="42.32472" lon="2.45238">
        <ele>728.8</ele>
        <time>2019-01-07T01:05:21Z</time>
      </trkpt>
      <trkpt lat="42.32475" lon="2.45266">
        <ele>727.9</ele>
        <time>2019-01-07T01:05:26Z</time>
      </trkpt>
      <trkpt lat="42.32475" lon="2.45279">
        <ele>728.9</ele>
        <time>2019-01-07T01:05:29Z</time>
      </trkpt>
      <trkpt lat="42.32473" lon="2.45283">
        <ele>727.9</ele>
        <time>2019-01-07T01:05:30Z</time>
      </trkpt>
      <trkpt lat="42.32469" lon="2.45303">
        <ele>728.4</ele>
        <time>2019-01-07T01:05:34Z</time>
      </trkpt>
      <trkpt lat="42.3247" lon="2.45332">
        <ele>728.3</ele>
        <time>2019-01-07T01:05:40Z</time>
      </trkpt>
      <trkpt lat="42.32473" lon="2.45363">
        <ele>727.9</ele>
        <time>2019-01-07T01:05:46Z</time>
      </trkpt>
      <trkpt lat="42.32473" lon="2.45367">
        <ele>727</ele>
        <time>2019-01-07T01:05:47Z</time>
      </trkpt>
      <trkpt lat="42.3248" lon="2.45386">
        <ele>725.9</ele>
        <time>2019-01-07T01:05:51Z</time>
      </trkpt>
      <trkpt lat="42.32481" lon="2.45389">
        <ele>726.4</ele>
        <time>2019-01-07T01:05:51Z</time>
      </trkpt>
      <trkpt lat="42.32482" lon="2.45391">
        <ele>725.9</ele>
        <time>2019-01-07T01:05:52Z</time>
      </trkpt>
      <trkpt lat="42.32485" lon="2.45394">
        <ele>726.4</ele>
        <time>2019-01-07T01:05:53Z</time>
      </trkpt>
      <trkpt lat="42.32489" lon="2.45408">
        <ele>723.5</ele>
        <time>2019-01-07T01:05:56Z</time>
      </trkpt>
      <trkpt lat="42.3249" lon="2.45409">
        <ele>722.7</ele>
        <time>2019-01-07T01:05:56Z</time>
      </trkpt>
      <trkpt lat="42.3249" lon="2.45413">
        <ele>722.2</ele>
        <time>2019-01-07T01:05:57Z</time>
      </trkpt>
      <trkpt lat="42.32491" lon="2.45415">
        <ele>723.5</ele>
        <time>2019-01-07T01:05:57Z</time>
      </trkpt>
      <trkpt lat="42.32493" lon="2.45419">
        <ele>720.7</ele>
        <time>2019-01-07T01:05:58Z</time>
      </trkpt>
      <trkpt lat="42.325" lon="2.45435">
        <ele>719.7</ele>
        <time>2019-01-07T01:06:02Z</time>
      </trkpt>
      <trkpt lat="42.32504" lon="2.45441">
        <ele>720.2</ele>
        <time>2019-01-07T01:06:04Z</time>
      </trkpt>
      <trkpt lat="42.32509" lon="2.45454">
        <ele>719.7</ele>
        <time>2019-01-07T01:06:06Z</time>
      </trkpt>
      <trkpt lat="42.32511" lon="2.45468">
        <ele>718.3</ele>
        <time>2019-01-07T01:06:09Z</time>
      </trkpt>
      <trkpt lat="42.32521" lon="2.4549">
        <ele>716.8</ele>
        <time>2019-01-07T01:06:14Z</time>
      </trkpt>
      <trkpt lat="42.32521" lon="2.45492">
        <ele>716.8</ele>
        <time>2019-01-07T01:06:15Z</time>
      </trkpt>
      <trkpt lat="42.32524" lon="2.455">
        <ele>716.8</ele>
        <time>2019-01-07T01:06:17Z</time>
      </trkpt>
      <trkpt lat="42.32526" lon="2.45503">
        <ele>717.3</ele>
        <time>2019-01-07T01:06:17Z</time>
      </trkpt>
      <trkpt lat="42.3253" lon="2.45505">
        <ele>718.3</ele>
        <time>2019-01-07T01:06:18Z</time>
      </trkpt>
      <trkpt lat="42.32535" lon="2.45527">
        <ele>717.8</ele>
        <time>2019-01-07T01:06:23Z</time>
      </trkpt>
      <trkpt lat="42.32548" lon="2.45552">
        <ele>717.4</ele>
        <time>2019-01-07T01:06:29Z</time>
      </trkpt>
      <trkpt lat="42.3255" lon="2.45554">
        <ele>716.8</ele>
        <time>2019-01-07T01:06:30Z</time>
      </trkpt>
      <trkpt lat="42.32555" lon="2.4556">
        <ele>718.2</ele>
        <time>2019-01-07T01:06:31Z</time>
      </trkpt>
      <trkpt lat="42.32564" lon="2.45583">
        <ele>717.9</ele>
        <time>2019-01-07T01:06:37Z</time>
      </trkpt>
      <trkpt lat="42.32563" lon="2.45589">
        <ele>715.9</ele>
        <time>2019-01-07T01:06:38Z</time>
      </trkpt>
      <trkpt lat="42.32557" lon="2.45611">
        <ele>715.8</ele>
        <time>2019-01-07T01:06:42Z</time>
      </trkpt>
      <trkpt lat="42.32555" lon="2.45615">
        <ele>715.4</ele>
        <time>2019-01-07T01:06:43Z</time>
      </trkpt>
      <trkpt lat="42.32557" lon="2.45628">
        <ele>717.4</ele>
        <time>2019-01-07T01:06:46Z</time>
      </trkpt>
      <trkpt lat="42.32559" lon="2.45629">
        <ele>717.8</ele>
        <time>2019-01-07T01:06:46Z</time>
      </trkpt>
      <trkpt lat="42.32566" lon="2.45642">
        <ele>720.2</ele>
        <time>2019-01-07T01:06:50Z</time>
      </trkpt>
      <trkpt lat="42.32578" lon="2.45665">
        <ele>720.2</ele>
        <time>2019-01-07T01:06:55Z</time>
      </trkpt>
      <trkpt lat="42.3258" lon="2.45669">
        <ele>721.7</ele>
        <time>2019-01-07T01:06:56Z</time>
      </trkpt>
      <trkpt lat="42.32582" lon="2.45671">
        <ele>720.8</ele>
        <time>2019-01-07T01:06:57Z</time>
      </trkpt>
      <trkpt lat="42.32585" lon="2.45681">
        <ele>721.1</ele>
        <time>2019-01-07T01:06:59Z</time>
      </trkpt>
      <trkpt lat="42.3259" lon="2.45689">
        <ele>722.2</ele>
        <time>2019-01-07T01:07:01Z</time>
      </trkpt>
      <trkpt lat="42.32592" lon="2.45692">
        <ele>721.6</ele>
        <time>2019-01-07T01:07:02Z</time>
      </trkpt>
      <trkpt lat="42.32598" lon="2.4571">
        <ele>718.7</ele>
        <time>2019-01-07T01:07:06Z</time>
      </trkpt>
      <trkpt lat="42.32605" lon="2.45713">
        <ele>717.8</ele>
        <time>2019-01-07T01:07:08Z</time>
      </trkpt>
      <trkpt lat="42.32608" lon="2.45712">
        <ele>717.4</ele>
        <time>2019-01-07T01:07:09Z</time>
      </trkpt>
      <trkpt lat="42.32612" lon="2.45711">
        <ele>716.9</ele>
        <time>2019-01-07T01:07:10Z</time>
      </trkpt>
      <trkpt lat="42.32615" lon="2.4571">
        <ele>716.9</ele>
        <time>2019-01-07T01:07:10Z</time>
      </trkpt>
      <trkpt lat="42.32626" lon="2.45725">
        <ele>716.4</ele>
        <time>2019-01-07T01:07:14Z</time>
      </trkpt>
      <trkpt lat="42.32629" lon="2.45742">
        <ele>716.8</ele>
        <time>2019-01-07T01:07:18Z</time>
      </trkpt>
      <trkpt lat="42.3263" lon="2.4575">
        <ele>717.3</ele>
        <time>2019-01-07T01:07:19Z</time>
      </trkpt>
      <trkpt lat="42.32638" lon="2.45756">
        <ele>715.9</ele>
        <time>2019-01-07T01:07:22Z</time>
      </trkpt>
      <trkpt lat="42.32641" lon="2.45759">
        <ele>714.9</ele>
        <time>2019-01-07T01:07:23Z</time>
      </trkpt>
      <trkpt lat="42.32652" lon="2.45776">
        <ele>715.8</ele>
        <time>2019-01-07T01:07:28Z</time>
      </trkpt>
      <trkpt lat="42.32654" lon="2.45799">
        <ele>712.5</ele>
        <time>2019-01-07T01:07:32Z</time>
      </trkpt>
      <trkpt lat="42.32654" lon="2.45803">
        <ele>712</ele>
        <time>2019-01-07T01:07:33Z</time>
      </trkpt>
      <trkpt lat="42.32656" lon="2.45814">
        <ele>709.6</ele>
        <time>2019-01-07T01:07:35Z</time>
      </trkpt>
      <trkpt lat="42.32658" lon="2.45824">
        <ele>709.2</ele>
        <time>2019-01-07T01:07:37Z</time>
      </trkpt>
      <trkpt lat="42.32665" lon="2.45834">
        <ele>707.8</ele>
        <time>2019-01-07T01:07:40Z</time>
      </trkpt>
      <trkpt lat="42.32667" lon="2.4584">
        <ele>706.3</ele>
        <time>2019-01-07T01:07:41Z</time>
      </trkpt>
      <trkpt lat="42.32672" lon="2.4586">
        <ele>705.8</ele>
        <time>2019-01-07T01:07:45Z</time>
      </trkpt>
      <trkpt lat="42.32674" lon="2.45879">
        <ele>703.3</ele>
        <time>2019-01-07T01:07:49Z</time>
      </trkpt>
      <trkpt lat="42.32675" lon="2.45881">
        <ele>701.9</ele>
        <time>2019-01-07T01:07:50Z</time>
      </trkpt>
      <trkpt lat="42.32677" lon="2.45884">
        <ele>701.5</ele>
        <time>2019-01-07T01:07:50Z</time>
      </trkpt>
      <trkpt lat="42.32676" lon="2.45893">
        <ele>700.1</ele>
        <time>2019-01-07T01:07:52Z</time>
      </trkpt>
      <trkpt lat="42.32676" lon="2.45897">
        <ele>698.5</ele>
        <time>2019-01-07T01:07:53Z</time>
      </trkpt>
      <trkpt lat="42.32676" lon="2.45899">
        <ele>698.5</ele>
        <time>2019-01-07T01:07:53Z</time>
      </trkpt>
      <trkpt lat="42.32675" lon="2.45911">
        <ele>697.6</ele>
        <time>2019-01-07T01:07:56Z</time>
      </trkpt>
      <trkpt lat="42.32675" lon="2.45921">
        <ele>693.8</ele>
        <time>2019-01-07T01:07:58Z</time>
      </trkpt>
      <trkpt lat="42.32675" lon="2.45929">
        <ele>694.3</ele>
        <time>2019-01-07T01:07:59Z</time>
      </trkpt>
      <trkpt lat="42.32676" lon="2.45936">
        <ele>691.3</ele>
        <time>2019-01-07T01:08:01Z</time>
      </trkpt>
      <trkpt lat="42.32679" lon="2.45943">
        <ele>690.8</ele>
        <time>2019-01-07T01:08:02Z</time>
      </trkpt>
      <trkpt lat="42.32679" lon="2.45954">
        <ele>690.4</ele>
        <time>2019-01-07T01:08:04Z</time>
      </trkpt>
      <trkpt lat="42.32669" lon="2.45967">
        <ele>690</ele>
        <time>2019-01-07T01:08:08Z</time>
      </trkpt>
      <trkpt lat="42.32662" lon="2.45978">
        <ele>690</ele>
        <time>2019-01-07T01:08:11Z</time>
      </trkpt>
      <trkpt lat="42.32649" lon="2.46002">
        <ele>689.9</ele>
        <time>2019-01-07T01:08:17Z</time>
      </trkpt>
      <trkpt lat="42.32645" lon="2.46004">
        <ele>690.8</ele>
        <time>2019-01-07T01:08:18Z</time>
      </trkpt>
      <trkpt lat="42.32634" lon="2.46018">
        <ele>688</ele>
        <time>2019-01-07T01:08:22Z</time>
      </trkpt>
      <trkpt lat="42.32638" lon="2.46026">
        <ele>684.6</ele>
        <time>2019-01-07T01:08:24Z</time>
      </trkpt>
      <trkpt lat="42.32638" lon="2.46026">
        <ele>684.7</ele>
        <time>2019-01-07T01:08:24Z</time>
      </trkpt>
      <trkpt lat="42.32643" lon="2.46031">
        <ele>683.2</ele>
        <time>2019-01-07T01:08:25Z</time>
      </trkpt>
      <trkpt lat="42.32643" lon="2.46032">
        <ele>683.2</ele>
        <time>2019-01-07T01:08:26Z</time>
      </trkpt>
      <trkpt lat="42.3265" lon="2.46042">
        <ele>680.8</ele>
        <time>2019-01-07T01:08:28Z</time>
      </trkpt>
      <trkpt lat="42.32657" lon="2.4605">
        <ele>680.4</ele>
        <time>2019-01-07T01:08:31Z</time>
      </trkpt>
      <trkpt lat="42.32667" lon="2.46068">
        <ele>677.4</ele>
        <time>2019-01-07T01:08:35Z</time>
      </trkpt>
      <trkpt lat="42.32669" lon="2.46071">
        <ele>677.9</ele>
        <time>2019-01-07T01:08:36Z</time>
      </trkpt>
      <trkpt lat="42.32666" lon="2.4609">
        <ele>675.9</ele>
        <time>2019-01-07T01:08:40Z</time>
      </trkpt>
      <trkpt lat="42.32663" lon="2.46108">
        <ele>676.9</ele>
        <time>2019-01-07T01:08:43Z</time>
      </trkpt>
      <trkpt lat="42.32655" lon="2.4613">
        <ele>677.9</ele>
        <time>2019-01-07T01:08:48Z</time>
      </trkpt>
      <trkpt lat="42.32654" lon="2.46132">
        <ele>677.5</ele>
        <time>2019-01-07T01:08:49Z</time>
      </trkpt>
      <trkpt lat="42.32653" lon="2.4614">
        <ele>677.9</ele>
        <time>2019-01-07T01:08:50Z</time>
      </trkpt>
      <trkpt lat="42.3266" lon="2.46168">
        <ele>679.3</ele>
        <time>2019-01-07T01:08:56Z</time>
      </trkpt>
      <trkpt lat="42.32659" lon="2.46177">
        <ele>677</ele>
        <time>2019-01-07T01:08:58Z</time>
      </trkpt>
      <trkpt lat="42.32658" lon="2.46186">
        <ele>674.1</ele>
        <time>2019-01-07T01:09:00Z</time>
      </trkpt>
      <trkpt lat="42.3266" lon="2.4619">
        <ele>674</ele>
        <time>2019-01-07T01:09:01Z</time>
      </trkpt>
      <trkpt lat="42.32666" lon="2.46193">
        <ele>673.1</ele>
        <time>2019-01-07T01:09:02Z</time>
      </trkpt>
      <trkpt lat="42.32682" lon="2.4621">
        <ele>671.7</ele>
        <time>2019-01-07T01:09:08Z</time>
      </trkpt>
      <trkpt lat="42.32684" lon="2.46211">
        <ele>672.1</ele>
        <time>2019-01-07T01:09:08Z</time>
      </trkpt>
      <trkpt lat="42.32689" lon="2.46215">
        <ele>670.2</ele>
        <time>2019-01-07T01:09:10Z</time>
      </trkpt>
      <trkpt lat="42.32691" lon="2.46217">
        <ele>670.2</ele>
        <time>2019-01-07T01:09:11Z</time>
      </trkpt>
      <trkpt lat="42.32708" lon="2.46227">
        <ele>667.3</ele>
        <time>2019-01-07T01:09:15Z</time>
      </trkpt>
      <trkpt lat="42.32721" lon="2.46225">
        <ele>663.9</ele>
        <time>2019-01-07T01:09:19Z</time>
      </trkpt>
      <trkpt lat="42.32736" lon="2.46227">
        <ele>662</ele>
        <time>2019-01-07T01:09:23Z</time>
      </trkpt>
      <trkpt lat="42.32735" lon="2.46225">
        <ele>662.6</ele>
        <time>2019-01-07T01:09:24Z</time>
      </trkpt>
      <trkpt lat="42.32739" lon="2.46224">
        <ele>662</ele>
        <time>2019-01-07T01:09:25Z</time>
      </trkpt>
      <trkpt lat="42.32741" lon="2.46227">
        <ele>662.6</ele>
        <time>2019-01-07T01:09:25Z</time>
      </trkpt>
      <trkpt lat="42.32735" lon="2.46239">
        <ele>661.6</ele>
        <time>2019-01-07T01:09:28Z</time>
      </trkpt>
      <trkpt lat="42.32727" lon="2.46247">
        <ele>658.7</ele>
        <time>2019-01-07T01:09:31Z</time>
      </trkpt>
      <trkpt lat="42.32715" lon="2.46256">
        <ele>657.8</ele>
        <time>2019-01-07T01:09:35Z</time>
      </trkpt>
      <trkpt lat="42.327" lon="2.4626">
        <ele>657.7</ele>
        <time>2019-01-07T01:09:39Z</time>
      </trkpt>
      <trkpt lat="42.32698" lon="2.46263">
        <ele>659.6</ele>
        <time>2019-01-07T01:09:39Z</time>
      </trkpt>
      <trkpt lat="42.32694" lon="2.46266">
        <ele>659.1</ele>
        <time>2019-01-07T01:09:41Z</time>
      </trkpt>
      <trkpt lat="42.32677" lon="2.46286">
        <ele>661.6</ele>
        <time>2019-01-07T01:09:47Z</time>
      </trkpt>
      <trkpt lat="42.32669" lon="2.46285">
        <ele>662.1</ele>
        <time>2019-01-07T01:09:49Z</time>
      </trkpt>
      <trkpt lat="42.32654" lon="2.4628">
        <ele>662.1</ele>
        <time>2019-01-07T01:09:53Z</time>
      </trkpt>
      <trkpt lat="42.32638" lon="2.46291">
        <ele>659.6</ele>
        <time>2019-01-07T01:09:58Z</time>
      </trkpt>
      <trkpt lat="42.32633" lon="2.46293">
        <ele>659.2</ele>
        <time>2019-01-07T01:09:59Z</time>
      </trkpt>
      <trkpt lat="42.3263" lon="2.46293">
        <ele>658.7</ele>
        <time>2019-01-07T01:10:00Z</time>
      </trkpt>
      <trkpt lat="42.32626" lon="2.46294">
        <ele>656.8</ele>
        <time>2019-01-07T01:10:01Z</time>
      </trkpt>
      <trkpt lat="42.32621" lon="2.46299">
        <ele>656.2</ele>
        <time>2019-01-07T01:10:03Z</time>
      </trkpt>
      <trkpt lat="42.32603" lon="2.46315">
        <ele>653.8</ele>
        <time>2019-01-07T01:10:08Z</time>
      </trkpt>
      <trkpt lat="42.32595" lon="2.46326">
        <ele>649.5</ele>
        <time>2019-01-07T01:10:11Z</time>
      </trkpt>
      <trkpt lat="42.32595" lon="2.46327">
        <ele>650</ele>
        <time>2019-01-07T01:10:11Z</time>
      </trkpt>
      <trkpt lat="42.32592" lon="2.46344">
        <ele>647.7</ele>
        <time>2019-01-07T01:10:15Z</time>
      </trkpt>
      <trkpt lat="42.32599" lon="2.46361">
        <ele>644.8</ele>
        <time>2019-01-07T01:10:19Z</time>
      </trkpt>
      <trkpt lat="42.32605" lon="2.46368">
        <ele>643.4</ele>
        <time>2019-01-07T01:10:21Z</time>
      </trkpt>
      <trkpt lat="42.32609" lon="2.4637">
        <ele>642.8</ele>
        <time>2019-01-07T01:10:22Z</time>
      </trkpt>
      <trkpt lat="42.32619" lon="2.46378">
        <ele>640.5</ele>
        <time>2019-01-07T01:10:25Z</time>
      </trkpt>
      <trkpt lat="42.32631" lon="2.46395">
        <ele>639</ele>
        <time>2019-01-07T01:10:30Z</time>
      </trkpt>
      <trkpt lat="42.32634" lon="2.46401">
        <ele>639.4</ele>
        <time>2019-01-07T01:10:31Z</time>
      </trkpt>
      <trkpt lat="42.32644" lon="2.46422">
        <ele>638.1</ele>
        <time>2019-01-07T01:10:36Z</time>
      </trkpt>
      <trkpt lat="42.32644" lon="2.46426">
        <ele>636.5</ele>
        <time>2019-01-07T01:10:37Z</time>
      </trkpt>
      <trkpt lat="42.32645" lon="2.46434">
        <ele>636.5</ele>
        <time>2019-01-07T01:10:39Z</time>
      </trkpt>
      <trkpt lat="42.32643" lon="2.46455">
        <ele>634.7</ele>
        <time>2019-01-07T01:10:43Z</time>
      </trkpt>
      <trkpt lat="42.32641" lon="2.4646">
        <ele>634.6</ele>
        <time>2019-01-07T01:10:44Z</time>
      </trkpt>
      <trkpt lat="42.32641" lon="2.46472">
        <ele>634.7</ele>
        <time>2019-01-07T01:10:46Z</time>
      </trkpt>
      <trkpt lat="42.32635" lon="2.46496">
        <ele>632.3</ele>
        <time>2019-01-07T01:10:51Z</time>
      </trkpt>
      <trkpt lat="42.32634" lon="2.46502">
        <ele>632.8</ele>
        <time>2019-01-07T01:10:52Z</time>
      </trkpt>
      <trkpt lat="42.32633" lon="2.46507">
        <ele>632.7</ele>
        <time>2019-01-07T01:10:54Z</time>
      </trkpt>
      <trkpt lat="42.32632" lon="2.46513">
        <ele>632.3</ele>
        <time>2019-01-07T01:10:55Z</time>
      </trkpt>
      <trkpt lat="42.32628" lon="2.46519">
        <ele>631.3</ele>
        <time>2019-01-07T01:10:56Z</time>
      </trkpt>
      <trkpt lat="42.32625" lon="2.46528">
        <ele>629.4</ele>
        <time>2019-01-07T01:10:58Z</time>
      </trkpt>
      <trkpt lat="42.32617" lon="2.46541">
        <ele>628.4</ele>
        <time>2019-01-07T01:11:01Z</time>
      </trkpt>
      <trkpt lat="42.32612" lon="2.46552">
        <ele>628.4</ele>
        <time>2019-01-07T01:11:04Z</time>
      </trkpt>
      <trkpt lat="42.326" lon="2.46591">
        <ele>626.9</ele>
        <time>2019-01-07T01:11:12Z</time>
      </trkpt>
      <trkpt lat="42.32599" lon="2.46593">
        <ele>627.5</ele>
        <time>2019-01-07T01:11:13Z</time>
      </trkpt>
      <trkpt lat="42.32589" lon="2.46617">
        <ele>626.4</ele>
        <time>2019-01-07T01:11:18Z</time>
      </trkpt>
      <trkpt lat="42.32584" lon="2.46623">
        <ele>626</ele>
        <time>2019-01-07T01:11:20Z</time>
      </trkpt>
      <trkpt lat="42.32573" lon="2.46645">
        <ele>625.5</ele>
        <time>2019-01-07T01:11:25Z</time>
      </trkpt>
      <trkpt lat="42.32568" lon="2.46656">
        <ele>624.6</ele>
        <time>2019-01-07T01:11:28Z</time>
      </trkpt>
      <trkpt lat="42.32561" lon="2.46663">
        <ele>625</ele>
        <time>2019-01-07T01:11:30Z</time>
      </trkpt>
      <trkpt lat="42.32546" lon="2.46681">
        <ele>623.1</ele>
        <time>2019-01-07T01:11:35Z</time>
      </trkpt>
      <trkpt lat="42.3254" lon="2.46687">
        <ele>620.8</ele>
        <time>2019-01-07T01:11:38Z</time>
      </trkpt>
      <trkpt lat="42.32536" lon="2.4669">
        <ele>621.6</ele>
        <time>2019-01-07T01:11:39Z</time>
      </trkpt>
      <trkpt lat="42.32524" lon="2.46696">
        <ele>620.7</ele>
        <time>2019-01-07T01:11:42Z</time>
      </trkpt>
      <trkpt lat="42.32525" lon="2.46697">
        <ele>620.2</ele>
        <time>2019-01-07T01:11:42Z</time>
      </trkpt>
      <trkpt lat="42.32529" lon="2.46701">
        <ele>620.7</ele>
        <time>2019-01-07T01:11:44Z</time>
      </trkpt>
      <trkpt lat="42.32528" lon="2.46706">
        <ele>620.7</ele>
        <time>2019-01-07T01:11:45Z</time>
      </trkpt>
      <trkpt lat="42.3252" lon="2.46697">
        <ele>619.7</ele>
        <time>2019-01-07T01:11:48Z</time>
      </trkpt>
      <trkpt lat="42.32517" lon="2.46698">
        <ele>622.1</ele>
        <time>2019-01-07T01:11:48Z</time>
      </trkpt>
      <trkpt lat="42.32508" lon="2.46704">
        <ele>623.2</ele>
        <time>2019-01-07T01:11:51Z</time>
      </trkpt>
      <trkpt lat="42.32502" lon="2.46714">
        <ele>621.3</ele>
        <time>2019-01-07T01:11:53Z</time>
      </trkpt>
      <trkpt lat="42.32502" lon="2.46717">
        <ele>620.8</ele>
        <time>2019-01-07T01:11:54Z</time>
      </trkpt>
      <trkpt lat="42.32498" lon="2.46726">
        <ele>620.7</ele>
        <time>2019-01-07T01:11:56Z</time>
      </trkpt>
      <trkpt lat="42.32491" lon="2.46739">
        <ele>619.2</ele>
        <time>2019-01-07T01:11:59Z</time>
      </trkpt>
      <trkpt lat="42.32489" lon="2.4674">
        <ele>620.2</ele>
        <time>2019-01-07T01:12:00Z</time>
      </trkpt>
      <trkpt lat="42.32469" lon="2.46758">
        <ele>619.7</ele>
        <time>2019-01-07T01:12:06Z</time>
      </trkpt>
      <trkpt lat="42.32466" lon="2.46761">
        <ele>620.7</ele>
        <time>2019-01-07T01:12:07Z</time>
      </trkpt>
      <trkpt lat="42.32463" lon="2.46772">
        <ele>620.8</ele>
        <time>2019-01-07T01:12:10Z</time>
      </trkpt>
      <trkpt lat="42.32456" lon="2.46783">
        <ele>619.8</ele>
        <time>2019-01-07T01:12:13Z</time>
      </trkpt>
      <trkpt lat="42.32448" lon="2.46788">
        <ele>619.2</ele>
        <time>2019-01-07T01:12:15Z</time>
      </trkpt>
      <trkpt lat="42.32439" lon="2.46789">
        <ele>617.4</ele>
        <time>2019-01-07T01:12:17Z</time>
      </trkpt>
      <trkpt lat="42.32435" lon="2.46784">
        <ele>616.8</ele>
        <time>2019-01-07T01:12:18Z</time>
      </trkpt>
      <trkpt lat="42.32433" lon="2.46796">
        <ele>616.3</ele>
        <time>2019-01-07T01:12:21Z</time>
      </trkpt>
      <trkpt lat="42.32433" lon="2.46814">
        <ele>614.5</ele>
        <time>2019-01-07T01:12:24Z</time>
      </trkpt>
      <trkpt lat="42.32435" lon="2.46823">
        <ele>613.9</ele>
        <time>2019-01-07T01:12:26Z</time>
      </trkpt>
      <trkpt lat="42.32436" lon="2.46827">
        <ele>612.5</ele>
        <time>2019-01-07T01:12:27Z</time>
      </trkpt>
      <trkpt lat="42.32436" lon="2.46829">
        <ele>612</ele>
        <time>2019-01-07T01:12:27Z</time>
      </trkpt>
      <trkpt lat="42.32435" lon="2.46837">
        <ele>610.6</ele>
        <time>2019-01-07T01:12:29Z</time>
      </trkpt>
      <trkpt lat="42.32432" lon="2.46852">
        <ele>609.6</ele>
        <time>2019-01-07T01:12:32Z</time>
      </trkpt>
      <trkpt lat="42.32431" lon="2.46854">
        <ele>608.3</ele>
        <time>2019-01-07T01:12:33Z</time>
      </trkpt>
      <trkpt lat="42.32431" lon="2.46856">
        <ele>610.6</ele>
        <time>2019-01-07T01:12:33Z</time>
      </trkpt>
      <trkpt lat="42.32431" lon="2.46868">
        <ele>608.8</ele>
        <time>2019-01-07T01:12:35Z</time>
      </trkpt>
      <trkpt lat="42.32436" lon="2.46889">
        <ele>609.2</ele>
        <time>2019-01-07T01:12:40Z</time>
      </trkpt>
      <trkpt lat="42.32443" lon="2.46908">
        <ele>610.2</ele>
        <time>2019-01-07T01:12:44Z</time>
      </trkpt>
      <trkpt lat="42.32448" lon="2.46917">
        <ele>610.6</ele>
        <time>2019-01-07T01:12:46Z</time>
      </trkpt>
      <trkpt lat="42.32449" lon="2.46931">
        <ele>608.2</ele>
        <time>2019-01-07T01:12:49Z</time>
      </trkpt>
      <trkpt lat="42.32447" lon="2.46963">
        <ele>605.3</ele>
        <time>2019-01-07T01:12:55Z</time>
      </trkpt>
      <trkpt lat="42.32442" lon="2.46982">
        <ele>604.4</ele>
        <time>2019-01-07T01:12:59Z</time>
      </trkpt>
      <trkpt lat="42.32438" lon="2.4699">
        <ele>604.4</ele>
        <time>2019-01-07T01:13:01Z</time>
      </trkpt>
      <trkpt lat="42.32438" lon="2.46993">
        <ele>604.4</ele>
        <time>2019-01-07T01:13:02Z</time>
      </trkpt>
      <trkpt lat="42.32437" lon="2.46999">
        <ele>604</ele>
        <time>2019-01-07T01:13:03Z</time>
      </trkpt>
      <trkpt lat="42.32438" lon="2.47008">
        <ele>603.9</ele>
        <time>2019-01-07T01:13:05Z</time>
      </trkpt>
      <trkpt lat="42.32442" lon="2.47025">
        <ele>603.5</ele>
        <time>2019-01-07T01:13:08Z</time>
      </trkpt>
      <trkpt lat="42.32445" lon="2.47028">
        <ele>602.9</ele>
        <time>2019-01-07T01:13:09Z</time>
      </trkpt>
      <trkpt lat="42.32449" lon="2.47031">
        <ele>601.4</ele>
        <time>2019-01-07T01:13:11Z</time>
      </trkpt>
      <trkpt lat="42.3245" lon="2.47032">
        <ele>601.4</ele>
        <time>2019-01-07T01:13:11Z</time>
      </trkpt>
      <trkpt lat="42.32457" lon="2.47037">
        <ele>601.4</ele>
        <time>2019-01-07T01:13:13Z</time>
      </trkpt>
      <trkpt lat="42.32462" lon="2.47039">
        <ele>601.9</ele>
        <time>2019-01-07T01:13:14Z</time>
      </trkpt>
      <trkpt lat="42.32471" lon="2.4704">
        <ele>600.6</ele>
        <time>2019-01-07T01:13:17Z</time>
      </trkpt>
      <trkpt lat="42.32478" lon="2.47044">
        <ele>600.5</ele>
        <time>2019-01-07T01:13:19Z</time>
      </trkpt>
      <trkpt lat="42.32488" lon="2.47063">
        <ele>603.5</ele>
        <time>2019-01-07T01:13:23Z</time>
      </trkpt>
      <trkpt lat="42.32492" lon="2.47083">
        <ele>606.4</ele>
        <time>2019-01-07T01:13:27Z</time>
      </trkpt>
      <trkpt lat="42.32491" lon="2.47094">
        <ele>609.7</ele>
        <time>2019-01-07T01:13:30Z</time>
      </trkpt>
      <trkpt lat="42.32493" lon="2.47114">
        <ele>610.6</ele>
        <time>2019-01-07T01:13:34Z</time>
      </trkpt>
      <trkpt lat="42.32497" lon="2.47128">
        <ele>609.7</ele>
        <time>2019-01-07T01:13:37Z</time>
      </trkpt>
      <trkpt lat="42.32503" lon="2.47152">
        <ele>609.7</ele>
        <time>2019-01-07T01:13:42Z</time>
      </trkpt>
      <trkpt lat="42.32505" lon="2.47158">
        <ele>611.2</ele>
        <time>2019-01-07T01:13:43Z</time>
      </trkpt>
      <trkpt lat="42.32508" lon="2.4716">
        <ele>610.1</ele>
        <time>2019-01-07T01:13:44Z</time>
      </trkpt>
      <trkpt lat="42.3251" lon="2.47163">
        <ele>609.1</ele>
        <time>2019-01-07T01:13:45Z</time>
      </trkpt>
      <trkpt lat="42.32514" lon="2.47172">
        <ele>609.7</ele>
        <time>2019-01-07T01:13:47Z</time>
      </trkpt>
      <trkpt lat="42.32519" lon="2.47187">
        <ele>610.6</ele>
        <time>2019-01-07T01:13:50Z</time>
      </trkpt>
      <trkpt lat="42.32526" lon="2.47206">
        <ele>614</ele>
        <time>2019-01-07T01:13:54Z</time>
      </trkpt>
      <trkpt lat="42.32525" lon="2.47206">
        <ele>613.9</ele>
        <time>2019-01-07T01:13:54Z</time>
      </trkpt>
      <trkpt lat="42.32518" lon="2.47209">
        <ele>616.4</ele>
        <time>2019-01-07T01:13:56Z</time>
      </trkpt>
      <trkpt lat="42.32518" lon="2.47208">
        <ele>616.4</ele>
        <time>2019-01-07T01:13:57Z</time>
      </trkpt>
      <trkpt lat="42.32512" lon="2.4721">
        <ele>616.4</ele>
        <time>2019-01-07T01:13:58Z</time>
      </trkpt>
      <trkpt lat="42.3249" lon="2.47224">
        <ele>616.4</ele>
        <time>2019-01-07T01:14:05Z</time>
      </trkpt>
      <trkpt lat="42.32467" lon="2.47241">
        <ele>615</ele>
        <time>2019-01-07T01:14:11Z</time>
      </trkpt>
      <trkpt lat="42.32444" lon="2.47248">
        <ele>614.4</ele>
        <time>2019-01-07T01:14:18Z</time>
      </trkpt>
      <trkpt lat="42.32442" lon="2.47247">
        <ele>613.5</ele>
        <time>2019-01-07T01:14:18Z</time>
      </trkpt>
      <trkpt lat="42.32418" lon="2.47242">
        <ele>610.7</ele>
        <time>2019-01-07T01:14:25Z</time>
      </trkpt>
      <trkpt lat="42.32416" lon="2.47242">
        <ele>611.5</ele>
        <time>2019-01-07T01:14:25Z</time>
      </trkpt>
      <trkpt lat="42.32402" lon="2.47249">
        <ele>610.6</ele>
        <time>2019-01-07T01:14:29Z</time>
      </trkpt>
      <trkpt lat="42.32369" lon="2.47257">
        <ele>607.7</ele>
        <time>2019-01-07T01:14:38Z</time>
      </trkpt>
      <trkpt lat="42.32352" lon="2.47278">
        <ele>605.3</ele>
        <time>2019-01-07T01:14:44Z</time>
      </trkpt>
      <trkpt lat="42.32342" lon="2.47291">
        <ele>604.4</ele>
        <time>2019-01-07T01:14:48Z</time>
      </trkpt>
      <trkpt lat="42.32335" lon="2.47301">
        <ele>603.4</ele>
        <time>2019-01-07T01:14:51Z</time>
      </trkpt>
      <trkpt lat="42.32333" lon="2.47334">
        <ele>602.5</ele>
        <time>2019-01-07T01:14:57Z</time>
      </trkpt>
      <trkpt lat="42.32317" lon="2.47356">
        <ele>599.5</ele>
        <time>2019-01-07T01:15:04Z</time>
      </trkpt>
      <trkpt lat="42.32294" lon="2.47379">
        <ele>598.6</ele>
        <time>2019-01-07T01:15:11Z</time>
      </trkpt>
      <trkpt lat="42.32272" lon="2.47391">
        <ele>596.6</ele>
        <time>2019-01-07T01:15:17Z</time>
      </trkpt>
      <trkpt lat="42.32268" lon="2.47395">
        <ele>595.7</ele>
        <time>2019-01-07T01:15:19Z</time>
      </trkpt>
      <trkpt lat="42.32256" lon="2.47429">
        <ele>593.4</ele>
        <time>2019-01-07T01:15:26Z</time>
      </trkpt>
      <trkpt lat="42.32246" lon="2.4746">
        <ele>591.5</ele>
        <time>2019-01-07T01:15:33Z</time>
      </trkpt>
      <trkpt lat="42.32236" lon="2.475">
        <ele>589.4</ele>
        <time>2019-01-07T01:15:41Z</time>
      </trkpt>
      <trkpt lat="42.32233" lon="2.4751">
        <ele>588.1</ele>
        <time>2019-01-07T01:15:43Z</time>
      </trkpt>
      <trkpt lat="42.32231" lon="2.47522">
        <ele>586.1</ele>
        <time>2019-01-07T01:15:46Z</time>
      </trkpt>
      <trkpt lat="42.32233" lon="2.47527">
        <ele>582.8</ele>
        <time>2019-01-07T01:15:47Z</time>
      </trkpt>
      <trkpt lat="42.32234" lon="2.47527">
        <ele>583.8</ele>
        <time>2019-01-07T01:15:47Z</time>
      </trkpt>
      <trkpt lat="42.32232" lon="2.47534">
        <ele>580.9</ele>
        <time>2019-01-07T01:15:49Z</time>
      </trkpt>
      <trkpt lat="42.32229" lon="2.47534">
        <ele>580.3</ele>
        <time>2019-01-07T01:15:50Z</time>
      </trkpt>
      <trkpt lat="42.32223" lon="2.47534">
        <ele>576.9</ele>
        <time>2019-01-07T01:15:51Z</time>
      </trkpt>
      <trkpt lat="42.32222" lon="2.47533">
        <ele>577.5</ele>
        <time>2019-01-07T01:15:51Z</time>
      </trkpt>
      <trkpt lat="42.32215" lon="2.47532">
        <ele>576</ele>
        <time>2019-01-07T01:15:53Z</time>
      </trkpt>
      <trkpt lat="42.32214" lon="2.47531">
        <ele>574.6</ele>
        <time>2019-01-07T01:15:54Z</time>
      </trkpt>
      <trkpt lat="42.32209" lon="2.47528">
        <ele>573.6</ele>
        <time>2019-01-07T01:15:55Z</time>
      </trkpt>
      <trkpt lat="42.32207" lon="2.47527">
        <ele>573.7</ele>
        <time>2019-01-07T01:15:56Z</time>
      </trkpt>
      <trkpt lat="42.32201" lon="2.47525">
        <ele>573.1</ele>
        <time>2019-01-07T01:15:57Z</time>
      </trkpt>
      <trkpt lat="42.322" lon="2.47527">
        <ele>572.6</ele>
        <time>2019-01-07T01:15:58Z</time>
      </trkpt>
      <trkpt lat="42.32197" lon="2.47535">
        <ele>570.8</ele>
        <time>2019-01-07T01:16:00Z</time>
      </trkpt>
      <trkpt lat="42.32198" lon="2.47541">
        <ele>571.2</ele>
        <time>2019-01-07T01:16:01Z</time>
      </trkpt>
      <trkpt lat="42.32198" lon="2.4755">
        <ele>570.7</ele>
        <time>2019-01-07T01:16:03Z</time>
      </trkpt>
      <trkpt lat="42.32196" lon="2.47562">
        <ele>568.3</ele>
        <time>2019-01-07T01:16:05Z</time>
      </trkpt>
      <trkpt lat="42.32194" lon="2.47575">
        <ele>569.3</ele>
        <time>2019-01-07T01:16:08Z</time>
      </trkpt>
      <trkpt lat="42.32198" lon="2.47587">
        <ele>567.8</ele>
        <time>2019-01-07T01:16:10Z</time>
      </trkpt>
      <trkpt lat="42.32199" lon="2.47594">
        <ele>565</ele>
        <time>2019-01-07T01:16:12Z</time>
      </trkpt>
      <trkpt lat="42.322" lon="2.47592">
        <ele>562.1</ele>
        <time>2019-01-07T01:16:12Z</time>
      </trkpt>
      <trkpt lat="42.322" lon="2.47592">
        <ele>561.1</ele>
        <time>2019-01-07T01:16:12Z</time>
      </trkpt>
      <trkpt lat="42.32207" lon="2.47603">
        <ele>558.2</ele>
        <time>2019-01-07T01:16:15Z</time>
      </trkpt>
      <trkpt lat="42.32208" lon="2.47605">
        <ele>557.2</ele>
        <time>2019-01-07T01:16:16Z</time>
      </trkpt>
      <trkpt lat="42.32208" lon="2.47606">
        <ele>555.4</ele>
        <time>2019-01-07T01:16:16Z</time>
      </trkpt>
      <trkpt lat="42.32215" lon="2.47615">
        <ele>552.4</ele>
        <time>2019-01-07T01:16:19Z</time>
      </trkpt>
      <trkpt lat="42.32215" lon="2.47619">
        <ele>551.9</ele>
        <time>2019-01-07T01:16:19Z</time>
      </trkpt>
      <trkpt lat="42.32216" lon="2.47622">
        <ele>550.5</ele>
        <time>2019-01-07T01:16:20Z</time>
      </trkpt>
      <trkpt lat="42.32211" lon="2.47635">
        <ele>551</ele>
        <time>2019-01-07T01:16:23Z</time>
      </trkpt>
      <trkpt lat="42.32212" lon="2.47647">
        <ele>552.4</ele>
        <time>2019-01-07T01:16:25Z</time>
      </trkpt>
      <trkpt lat="42.32209" lon="2.47657">
        <ele>554.4</ele>
        <time>2019-01-07T01:16:28Z</time>
      </trkpt>
      <trkpt lat="42.32207" lon="2.47667">
        <ele>556.3</ele>
        <time>2019-01-07T01:16:29Z</time>
      </trkpt>
      <trkpt lat="42.32209" lon="2.47674">
        <ele>555.8</ele>
        <time>2019-01-07T01:16:31Z</time>
      </trkpt>
      <trkpt lat="42.32209" lon="2.47688">
        <ele>558.2</ele>
        <time>2019-01-07T01:16:34Z</time>
      </trkpt>
      <trkpt lat="42.32207" lon="2.47694">
        <ele>558.2</ele>
        <time>2019-01-07T01:16:35Z</time>
      </trkpt>
      <trkpt lat="42.32206" lon="2.477">
        <ele>557.8</ele>
        <time>2019-01-07T01:16:36Z</time>
      </trkpt>
      <trkpt lat="42.32209" lon="2.47712">
        <ele>557.2</ele>
        <time>2019-01-07T01:16:39Z</time>
      </trkpt>
      <trkpt lat="42.3221" lon="2.47734">
        <ele>553.4</ele>
        <time>2019-01-07T01:16:43Z</time>
      </trkpt>
      <trkpt lat="42.3221" lon="2.47736">
        <ele>553.9</ele>
        <time>2019-01-07T01:16:44Z</time>
      </trkpt>
      <trkpt lat="42.3221" lon="2.47752">
        <ele>552.5</ele>
        <time>2019-01-07T01:16:47Z</time>
      </trkpt>
      <trkpt lat="42.32208" lon="2.47765">
        <ele>549.6</ele>
        <time>2019-01-07T01:16:49Z</time>
      </trkpt>
      <trkpt lat="42.32208" lon="2.47775">
        <ele>549.2</ele>
        <time>2019-01-07T01:16:51Z</time>
      </trkpt>
      <trkpt lat="42.32204" lon="2.47795">
        <ele>545.8</ele>
        <time>2019-01-07T01:16:55Z</time>
      </trkpt>
      <trkpt lat="42.32203" lon="2.47804">
        <ele>544.7</ele>
        <time>2019-01-07T01:16:57Z</time>
      </trkpt>
      <trkpt lat="42.32199" lon="2.47814">
        <ele>544.3</ele>
        <time>2019-01-07T01:16:59Z</time>
      </trkpt>
      <trkpt lat="42.32195" lon="2.47829">
        <ele>544.2</ele>
        <time>2019-01-07T01:17:03Z</time>
      </trkpt>
      <trkpt lat="42.32196" lon="2.4784">
        <ele>541.9</ele>
        <time>2019-01-07T01:17:05Z</time>
      </trkpt>
      <trkpt lat="42.32194" lon="2.47847">
        <ele>541</ele>
        <time>2019-01-07T01:17:06Z</time>
      </trkpt>
      <trkpt lat="42.32187" lon="2.47858">
        <ele>539.9</ele>
        <time>2019-01-07T01:17:09Z</time>
      </trkpt>
      <trkpt lat="42.32182" lon="2.47865">
        <ele>539.9</ele>
        <time>2019-01-07T01:17:11Z</time>
      </trkpt>
      <trkpt lat="42.32171" lon="2.47882">
        <ele>538</ele>
        <time>2019-01-07T01:17:15Z</time>
      </trkpt>
      <trkpt lat="42.32163" lon="2.47891">
        <ele>536.6</ele>
        <time>2019-01-07T01:17:18Z</time>
      </trkpt>
      <trkpt lat="42.32152" lon="2.47912">
        <ele>534.3</ele>
        <time>2019-01-07T01:17:23Z</time>
      </trkpt>
      <trkpt lat="42.32157" lon="2.47935">
        <ele>532.8</ele>
        <time>2019-01-07T01:17:28Z</time>
      </trkpt>
      <trkpt lat="42.32156" lon="2.47954">
        <ele>531.3</ele>
        <time>2019-01-07T01:17:32Z</time>
      </trkpt>
      <trkpt lat="42.32141" lon="2.47979">
        <ele>528.5</ele>
        <time>2019-01-07T01:17:38Z</time>
      </trkpt>
      <trkpt lat="42.32131" lon="2.48004">
        <ele>527</ele>
        <time>2019-01-07T01:17:44Z</time>
      </trkpt>
      <trkpt lat="42.32127" lon="2.48025">
        <ele>524.5</ele>
        <time>2019-01-07T01:17:48Z</time>
      </trkpt>
      <trkpt lat="42.32121" lon="2.48037">
        <ele>523.7</ele>
        <time>2019-01-07T01:17:51Z</time>
      </trkpt>
      <trkpt lat="42.3211" lon="2.48051">
        <ele>523.6</ele>
        <time>2019-01-07T01:17:55Z</time>
      </trkpt>
      <trkpt lat="42.32104" lon="2.48053">
        <ele>522.1</ele>
        <time>2019-01-07T01:17:57Z</time>
      </trkpt>
      <trkpt lat="42.32094" lon="2.48054">
        <ele>522.1</ele>
        <time>2019-01-07T01:17:59Z</time>
      </trkpt>
      <trkpt lat="42.32089" lon="2.48057">
        <ele>522.6</ele>
        <time>2019-01-07T01:18:01Z</time>
      </trkpt>
      <trkpt lat="42.32074" lon="2.4807">
        <ele>523.6</ele>
        <time>2019-01-07T01:18:05Z</time>
      </trkpt>
      <trkpt lat="42.32073" lon="2.48075">
        <ele>524.2</ele>
        <time>2019-01-07T01:18:06Z</time>
      </trkpt>
      <trkpt lat="42.32068" lon="2.48086">
        <ele>523.6</ele>
        <time>2019-01-07T01:18:09Z</time>
      </trkpt>
      <trkpt lat="42.32063" lon="2.48096">
        <ele>523.6</ele>
        <time>2019-01-07T01:18:11Z</time>
      </trkpt>
      <trkpt lat="42.32059" lon="2.48103">
        <ele>523.6</ele>
        <time>2019-01-07T01:18:13Z</time>
      </trkpt>
      <trkpt lat="42.32057" lon="2.48106">
        <ele>523.7</ele>
        <time>2019-01-07T01:18:14Z</time>
      </trkpt>
      <trkpt lat="42.32058" lon="2.48117">
        <ele>524.6</ele>
        <time>2019-01-07T01:18:16Z</time>
      </trkpt>
      <trkpt lat="42.32066" lon="2.48129">
        <ele>527.9</ele>
        <time>2019-01-07T01:18:19Z</time>
      </trkpt>
      <trkpt lat="42.32072" lon="2.48138">
        <ele>529.8</ele>
        <time>2019-01-07T01:18:22Z</time>
      </trkpt>
      <trkpt lat="42.32079" lon="2.48145">
        <ele>531.3</ele>
        <time>2019-01-07T01:18:24Z</time>
      </trkpt>
      <trkpt lat="42.32084" lon="2.48154">
        <ele>533.8</ele>
        <time>2019-01-07T01:18:26Z</time>
      </trkpt>
      <trkpt lat="42.32091" lon="2.48168">
        <ele>534.7</ele>
        <time>2019-01-07T01:18:29Z</time>
      </trkpt>
      <trkpt lat="42.32097" lon="2.48169">
        <ele>536.7</ele>
        <time>2019-01-07T01:18:31Z</time>
      </trkpt>
      <trkpt lat="42.32105" lon="2.48174">
        <ele>540</ele>
        <time>2019-01-07T01:18:34Z</time>
      </trkpt>
      <trkpt lat="42.32104" lon="2.48172">
        <ele>540.4</ele>
        <time>2019-01-07T01:18:34Z</time>
      </trkpt>
      <trkpt lat="42.32099" lon="2.48161">
        <ele>540.9</ele>
        <time>2019-01-07T01:18:37Z</time>
      </trkpt>
      <trkpt lat="42.32098" lon="2.48151">
        <ele>543.4</ele>
        <time>2019-01-07T01:18:39Z</time>
      </trkpt>
      <trkpt lat="42.32108" lon="2.48135">
        <ele>543.4</ele>
        <time>2019-01-07T01:18:43Z</time>
      </trkpt>
      <trkpt lat="42.32122" lon="2.48122">
        <ele>545.2</ele>
        <time>2019-01-07T01:18:47Z</time>
      </trkpt>
      <trkpt lat="42.32129" lon="2.48122">
        <ele>547.6</ele>
        <time>2019-01-07T01:18:49Z</time>
      </trkpt>
      <trkpt lat="42.32142" lon="2.48121">
        <ele>550.1</ele>
        <time>2019-01-07T01:18:53Z</time>
      </trkpt>
      <trkpt lat="42.32144" lon="2.48121">
        <ele>551</ele>
        <time>2019-01-07T01:18:53Z</time>
      </trkpt>
      <trkpt lat="42.32151" lon="2.48124">
        <ele>551.1</ele>
        <time>2019-01-07T01:18:55Z</time>
      </trkpt>
      <trkpt lat="42.32159" lon="2.48125">
        <ele>553.5</ele>
        <time>2019-01-07T01:18:57Z</time>
      </trkpt>
      <trkpt lat="42.32159" lon="2.48134">
        <ele>555.8</ele>
        <time>2019-01-07T01:18:59Z</time>
      </trkpt>
      <trkpt lat="42.32153" lon="2.48137">
        <ele>557.3</ele>
        <time>2019-01-07T01:19:01Z</time>
      </trkpt>
      <trkpt lat="42.32159" lon="2.48142">
        <ele>559.2</ele>
        <time>2019-01-07T01:19:02Z</time>
      </trkpt>
      <trkpt lat="42.32157" lon="2.48147">
        <ele>560.6</ele>
        <time>2019-01-07T01:19:03Z</time>
      </trkpt>
      <trkpt lat="42.32151" lon="2.48156">
        <ele>563</ele>
        <time>2019-01-07T01:19:06Z</time>
      </trkpt>
      <trkpt lat="42.32156" lon="2.48163">
        <ele>565.4</ele>
        <time>2019-01-07T01:19:08Z</time>
      </trkpt>
      <trkpt lat="42.32161" lon="2.48169">
        <ele>568.8</ele>
        <time>2019-01-07T01:19:10Z</time>
      </trkpt>
      <trkpt lat="42.32167" lon="2.48178">
        <ele>569.8</ele>
        <time>2019-01-07T01:19:12Z</time>
      </trkpt>
      <trkpt lat="42.32171" lon="2.4818">
        <ele>572.7</ele>
        <time>2019-01-07T01:19:13Z</time>
      </trkpt>
      <trkpt lat="42.32175" lon="2.48189">
        <ele>576.1</ele>
        <time>2019-01-07T01:19:15Z</time>
      </trkpt>
      <trkpt lat="42.32179" lon="2.48197">
        <ele>579.4</ele>
        <time>2019-01-07T01:19:17Z</time>
      </trkpt>
      <trkpt lat="42.32186" lon="2.48195">
        <ele>581.4</ele>
        <time>2019-01-07T01:19:19Z</time>
      </trkpt>
      <trkpt lat="42.32187" lon="2.48192">
        <ele>583.8</ele>
        <time>2019-01-07T01:19:20Z</time>
      </trkpt>
      <trkpt lat="42.32197" lon="2.48185">
        <ele>584.1</ele>
        <time>2019-01-07T01:19:23Z</time>
      </trkpt>
      <trkpt lat="42.32213" lon="2.48188">
        <ele>586.1</ele>
        <time>2019-01-07T01:19:27Z</time>
      </trkpt>
      <trkpt lat="42.32226" lon="2.48183">
        <ele>589.4</ele>
        <time>2019-01-07T01:19:31Z</time>
      </trkpt>
      <trkpt lat="42.32241" lon="2.48172">
        <ele>592.3</ele>
        <time>2019-01-07T01:19:35Z</time>
      </trkpt>
      <trkpt lat="42.32246" lon="2.48165">
        <ele>595.7</ele>
        <time>2019-01-07T01:19:37Z</time>
      </trkpt>
      <trkpt lat="42.32243" lon="2.48163">
        <ele>595.3</ele>
        <time>2019-01-07T01:19:38Z</time>
      </trkpt>
      <trkpt lat="42.3224" lon="2.48157">
        <ele>597.2</ele>
        <time>2019-01-07T01:19:40Z</time>
      </trkpt>
      <trkpt lat="42.32247" lon="2.48149">
        <ele>597.2</ele>
        <time>2019-01-07T01:19:42Z</time>
      </trkpt>
      <trkpt lat="42.32254" lon="2.48133">
        <ele>597.7</ele>
        <time>2019-01-07T01:19:46Z</time>
      </trkpt>
      <trkpt lat="42.32265" lon="2.48119">
        <ele>600.1</ele>
        <time>2019-01-07T01:19:50Z</time>
      </trkpt>
      <trkpt lat="42.32274" lon="2.48108">
        <ele>603.5</ele>
        <time>2019-01-07T01:19:53Z</time>
      </trkpt>
      <trkpt lat="42.32282" lon="2.48101">
        <ele>605.9</ele>
        <time>2019-01-07T01:19:56Z</time>
      </trkpt>
      <trkpt lat="42.32287" lon="2.48095">
        <ele>609.2</ele>
        <time>2019-01-07T01:19:57Z</time>
      </trkpt>
      <trkpt lat="42.32297" lon="2.48084">
        <ele>610.1</ele>
        <time>2019-01-07T01:20:01Z</time>
      </trkpt>
      <trkpt lat="42.323" lon="2.48089">
        <ele>612</ele>
        <time>2019-01-07T01:20:02Z</time>
      </trkpt>
      <trkpt lat="42.323" lon="2.48101">
        <ele>613.9</ele>
        <time>2019-01-07T01:20:04Z</time>
      </trkpt>
      <trkpt lat="42.323" lon="2.48113">
        <ele>617.3</ele>
        <time>2019-01-07T01:20:07Z</time>
      </trkpt>
      <trkpt lat="42.32305" lon="2.48126">
        <ele>618.9</ele>
        <time>2019-01-07T01:20:10Z</time>
      </trkpt>
      <trkpt lat="42.32314" lon="2.48127">
        <ele>620.8</ele>
        <time>2019-01-07T01:20:12Z</time>
      </trkpt>
      <trkpt lat="42.32329" lon="2.48135">
        <ele>622.7</ele>
        <time>2019-01-07T01:20:16Z</time>
      </trkpt>
      <trkpt lat="42.32329" lon="2.48131">
        <ele>625.5</ele>
        <time>2019-01-07T01:20:17Z</time>
      </trkpt>
      <trkpt lat="42.32327" lon="2.48127">
        <ele>626.1</ele>
        <time>2019-01-07T01:20:18Z</time>
      </trkpt>
      <trkpt lat="42.32326" lon="2.48126">
        <ele>625.6</ele>
        <time>2019-01-07T01:20:19Z</time>
      </trkpt>
      <trkpt lat="42.32325" lon="2.48125">
        <ele>626</ele>
        <time>2019-01-07T01:20:19Z</time>
      </trkpt>
      <trkpt lat="42.32319" lon="2.48115">
        <ele>628.8</ele>
        <time>2019-01-07T01:20:21Z</time>
      </trkpt>
      <trkpt lat="42.3232" lon="2.48101">
        <ele>630.3</ele>
        <time>2019-01-07T01:20:24Z</time>
      </trkpt>
      <trkpt lat="42.32321" lon="2.48093">
        <ele>631.7</ele>
        <time>2019-01-07T01:20:26Z</time>
      </trkpt>
      <trkpt lat="42.32328" lon="2.48079">
        <ele>633.8</ele>
        <time>2019-01-07T01:20:29Z</time>
      </trkpt>
      <trkpt lat="42.32332" lon="2.48076">
        <ele>636.5</ele>
        <time>2019-01-07T01:20:30Z</time>
      </trkpt>
      <trkpt lat="42.32341" lon="2.48065">
        <ele>638.6</ele>
        <time>2019-01-07T01:20:34Z</time>
      </trkpt>
      <trkpt lat="42.32345" lon="2.4806">
        <ele>640.9</ele>
        <time>2019-01-07T01:20:35Z</time>
      </trkpt>
      <trkpt lat="42.32345" lon="2.48064">
        <ele>641</ele>
        <time>2019-01-07T01:20:36Z</time>
      </trkpt>
      <trkpt lat="42.32346" lon="2.48069">
        <ele>642.3</ele>
        <time>2019-01-07T01:20:37Z</time>
      </trkpt>
      <trkpt lat="42.32349" lon="2.48084">
        <ele>645.2</ele>
        <time>2019-01-07T01:20:40Z</time>
      </trkpt>
      <trkpt lat="42.32349" lon="2.48092">
        <ele>648.7</ele>
        <time>2019-01-07T01:20:42Z</time>
      </trkpt>
      <trkpt lat="42.32353" lon="2.48091">
        <ele>651</ele>
        <time>2019-01-07T01:20:43Z</time>
      </trkpt>
      <trkpt lat="42.32357" lon="2.48085">
        <ele>653.8</ele>
        <time>2019-01-07T01:20:44Z</time>
      </trkpt>
      <trkpt lat="42.32359" lon="2.48095">
        <ele>656.7</ele>
        <time>2019-01-07T01:20:46Z</time>
      </trkpt>
      <trkpt lat="42.3236" lon="2.48092">
        <ele>658.3</ele>
        <time>2019-01-07T01:20:47Z</time>
      </trkpt>
      <trkpt lat="42.32366" lon="2.4808">
        <ele>659.6</ele>
        <time>2019-01-07T01:20:50Z</time>
      </trkpt>
      <trkpt lat="42.32369" lon="2.48073">
        <ele>663</ele>
        <time>2019-01-07T01:20:51Z</time>
      </trkpt>
      <trkpt lat="42.32372" lon="2.48063">
        <ele>665.4</ele>
        <time>2019-01-07T01:20:53Z</time>
      </trkpt>
      <trkpt lat="42.32375" lon="2.48061">
        <ele>668.4</ele>
        <time>2019-01-07T01:20:54Z</time>
      </trkpt>
      <trkpt lat="42.32377" lon="2.48081">
        <ele>671.7</ele>
        <time>2019-01-07T01:20:58Z</time>
      </trkpt>
      <trkpt lat="42.32381" lon="2.48083">
        <ele>674.5</ele>
        <time>2019-01-07T01:20:59Z</time>
      </trkpt>
      <trkpt lat="42.32383" lon="2.48074">
        <ele>677.4</ele>
        <time>2019-01-07T01:21:01Z</time>
      </trkpt>
      <trkpt lat="42.32388" lon="2.48065">
        <ele>680.9</ele>
        <time>2019-01-07T01:21:03Z</time>
      </trkpt>
      <trkpt lat="42.32393" lon="2.4806">
        <ele>684.1</ele>
        <time>2019-01-07T01:21:05Z</time>
      </trkpt>
      <trkpt lat="42.32393" lon="2.4806">
        <ele>684.1</ele>
        <time>2019-01-07T01:21:05Z</time>
      </trkpt>
      <trkpt lat="42.32393" lon="2.48058">
        <ele>682.7</ele>
        <time>2019-01-07T01:21:05Z</time>
      </trkpt>
      <trkpt lat="42.32392" lon="2.48055">
        <ele>684.2</ele>
        <time>2019-01-07T01:21:06Z</time>
      </trkpt>
      <trkpt lat="42.32389" lon="2.48039">
        <ele>687.1</ele>
        <time>2019-01-07T01:21:09Z</time>
      </trkpt>
      <trkpt lat="42.32393" lon="2.48035">
        <ele>688.4</ele>
        <time>2019-01-07T01:21:11Z</time>
      </trkpt>
      <trkpt lat="42.324" lon="2.48026">
        <ele>690.5</ele>
        <time>2019-01-07T01:21:13Z</time>
      </trkpt>
      <trkpt lat="42.32403" lon="2.48029">
        <ele>692.8</ele>
        <time>2019-01-07T01:21:14Z</time>
      </trkpt>
      <trkpt lat="42.32405" lon="2.48038">
        <ele>694.7</ele>
        <time>2019-01-07T01:21:16Z</time>
      </trkpt>
      <trkpt lat="42.32406" lon="2.48027">
        <ele>698.2</ele>
        <time>2019-01-07T01:21:18Z</time>
      </trkpt>
      <trkpt lat="42.32409" lon="2.48032">
        <ele>700.6</ele>
        <time>2019-01-07T01:21:20Z</time>
      </trkpt>
      <trkpt lat="42.3241" lon="2.48026">
        <ele>701.4</ele>
        <time>2019-01-07T01:21:21Z</time>
      </trkpt>
      <trkpt lat="42.32414" lon="2.48028">
        <ele>705.3</ele>
        <time>2019-01-07T01:21:22Z</time>
      </trkpt>
      <trkpt lat="42.32413" lon="2.48037">
        <ele>707.7</ele>
        <time>2019-01-07T01:21:24Z</time>
      </trkpt>
      <trkpt lat="42.3242" lon="2.4803">
        <ele>709.7</ele>
        <time>2019-01-07T01:21:26Z</time>
      </trkpt>
      <trkpt lat="42.32422" lon="2.48029">
        <ele>711.1</ele>
        <time>2019-01-07T01:21:27Z</time>
      </trkpt>
      <trkpt lat="42.32425" lon="2.48024">
        <ele>713.5</ele>
        <time>2019-01-07T01:21:28Z</time>
      </trkpt>
      <trkpt lat="42.32424" lon="2.48014">
        <ele>715.8</ele>
        <time>2019-01-07T01:21:30Z</time>
      </trkpt>
      <trkpt lat="42.32417" lon="2.48003">
        <ele>718.2</ele>
        <time>2019-01-07T01:21:33Z</time>
      </trkpt>
      <trkpt lat="42.32414" lon="2.47997">
        <ele>718.8</ele>
        <time>2019-01-07T01:21:34Z</time>
      </trkpt>
      <trkpt lat="42.32403" lon="2.47987">
        <ele>721.6</ele>
        <time>2019-01-07T01:21:38Z</time>
      </trkpt>
      <trkpt lat="42.32402" lon="2.47985">
        <ele>721.7</ele>
        <time>2019-01-07T01:21:38Z</time>
      </trkpt>
      <trkpt lat="42.32403" lon="2.47979">
        <ele>723.5</ele>
        <time>2019-01-07T01:21:40Z</time>
      </trkpt>
      <trkpt lat="42.32404" lon="2.47974">
        <ele>725</ele>
        <time>2019-01-07T01:21:41Z</time>
      </trkpt>
      <trkpt lat="42.32404" lon="2.47966">
        <ele>728.9</ele>
        <time>2019-01-07T01:21:42Z</time>
      </trkpt>
      <trkpt lat="42.32414" lon="2.47958">
        <ele>731.3</ele>
        <time>2019-01-07T01:21:45Z</time>
      </trkpt>
      <trkpt lat="42.32426" lon="2.4795">
        <ele>734.7</ele>
        <time>2019-01-07T01:21:49Z</time>
      </trkpt>
      <trkpt lat="42.32427" lon="2.47949">
        <ele>734.7</ele>
        <time>2019-01-07T01:21:49Z</time>
      </trkpt>
      <trkpt lat="42.32433" lon="2.47945">
        <ele>735.2</ele>
        <time>2019-01-07T01:21:51Z</time>
      </trkpt>
      <trkpt lat="42.32444" lon="2.47937">
        <ele>737</ele>
        <time>2019-01-07T01:21:54Z</time>
      </trkpt>
      <trkpt lat="42.32447" lon="2.4794">
        <ele>740</ele>
        <time>2019-01-07T01:21:55Z</time>
      </trkpt>
      <trkpt lat="42.32446" lon="2.47947">
        <ele>741.8</ele>
        <time>2019-01-07T01:21:57Z</time>
      </trkpt>
      <trkpt lat="42.3245" lon="2.47952">
        <ele>744.8</ele>
        <time>2019-01-07T01:21:58Z</time>
      </trkpt>
      <trkpt lat="42.32452" lon="2.4795">
        <ele>745.6</ele>
        <time>2019-01-07T01:21:59Z</time>
      </trkpt>
      <trkpt lat="42.32461" lon="2.47945">
        <ele>748</ele>
        <time>2019-01-07T01:22:01Z</time>
      </trkpt>
      <trkpt lat="42.32462" lon="2.47955">
        <ele>749.6</ele>
        <time>2019-01-07T01:22:03Z</time>
      </trkpt>
      <trkpt lat="42.32467" lon="2.47956">
        <ele>751.4</ele>
        <time>2019-01-07T01:22:05Z</time>
      </trkpt>
      <trkpt lat="42.32474" lon="2.47948">
        <ele>753.8</ele>
        <time>2019-01-07T01:22:07Z</time>
      </trkpt>
      <trkpt lat="42.32477" lon="2.47953">
        <ele>756.2</ele>
        <time>2019-01-07T01:22:08Z</time>
      </trkpt>
      <trkpt lat="42.32482" lon="2.47952">
        <ele>757.8</ele>
        <time>2019-01-07T01:22:10Z</time>
      </trkpt>
      <trkpt lat="42.32483" lon="2.47951">
        <ele>758.2</ele>
        <time>2019-01-07T01:22:10Z</time>
      </trkpt>
      <trkpt lat="42.32489" lon="2.47945">
        <ele>760.2</ele>
        <time>2019-01-07T01:22:12Z</time>
      </trkpt>
      <trkpt lat="42.3249" lon="2.47945">
        <ele>761.1</ele>
        <time>2019-01-07T01:22:13Z</time>
      </trkpt>
      <trkpt lat="42.32504" lon="2.47942">
        <ele>763.9</ele>
        <time>2019-01-07T01:22:16Z</time>
      </trkpt>
      <trkpt lat="42.32518" lon="2.47936">
        <ele>766.8</ele>
        <time>2019-01-07T01:22:20Z</time>
      </trkpt>
      <trkpt lat="42.32523" lon="2.47932">
        <ele>768.7</ele>
        <time>2019-01-07T01:22:22Z</time>
      </trkpt>
      <trkpt lat="42.32538" lon="2.47925">
        <ele>770.3</ele>
        <time>2019-01-07T01:22:26Z</time>
      </trkpt>
      <trkpt lat="42.3255" lon="2.4792">
        <ele>772.2</ele>
        <time>2019-01-07T01:22:29Z</time>
      </trkpt>
      <trkpt lat="42.32567" lon="2.47913">
        <ele>775.1</ele>
        <time>2019-01-07T01:22:34Z</time>
      </trkpt>
      <trkpt lat="42.32589" lon="2.47901">
        <ele>774.1</ele>
        <time>2019-01-07T01:22:40Z</time>
      </trkpt>
      <trkpt lat="42.32599" lon="2.47904">
        <ele>776.4</ele>
        <time>2019-01-07T01:22:43Z</time>
      </trkpt>
      <trkpt lat="42.32606" lon="2.47903">
        <ele>777.4</ele>
        <time>2019-01-07T01:22:45Z</time>
      </trkpt>
      <trkpt lat="42.32618" lon="2.47907">
        <ele>778.8</ele>
        <time>2019-01-07T01:22:48Z</time>
      </trkpt>
      <trkpt lat="42.32621" lon="2.47908">
        <ele>779.9</ele>
        <time>2019-01-07T01:22:49Z</time>
      </trkpt>
      <trkpt lat="42.32627" lon="2.47912">
        <ele>782.2</ele>
        <time>2019-01-07T01:22:51Z</time>
      </trkpt>
      <trkpt lat="42.32632" lon="2.4791">
        <ele>783.1</ele>
        <time>2019-01-07T01:22:52Z</time>
      </trkpt>
      <trkpt lat="42.32639" lon="2.47911">
        <ele>785.1</ele>
        <time>2019-01-07T01:22:54Z</time>
      </trkpt>
      <trkpt lat="42.32646" lon="2.47908">
        <ele>785.6</ele>
        <time>2019-01-07T01:22:56Z</time>
      </trkpt>
      <trkpt lat="42.32651" lon="2.47909">
        <ele>785.5</ele>
        <time>2019-01-07T01:22:57Z</time>
      </trkpt>
      <trkpt lat="42.32671" lon="2.47909">
        <ele>787.1</ele>
        <time>2019-01-07T01:23:03Z</time>
      </trkpt>
      <trkpt lat="42.32686" lon="2.47918">
        <ele>788.9</ele>
        <time>2019-01-07T01:23:07Z</time>
      </trkpt>
      <trkpt lat="42.32699" lon="2.47932">
        <ele>790</ele>
        <time>2019-01-07T01:23:11Z</time>
      </trkpt>
      <trkpt lat="42.32713" lon="2.47944">
        <ele>791.9</ele>
        <time>2019-01-07T01:23:16Z</time>
      </trkpt>
      <trkpt lat="42.32717" lon="2.47948">
        <ele>792.8</ele>
        <time>2019-01-07T01:23:17Z</time>
      </trkpt>
      <trkpt lat="42.32719" lon="2.4795">
        <ele>793.3</ele>
        <time>2019-01-07T01:23:18Z</time>
      </trkpt>
      <trkpt lat="42.32729" lon="2.47952">
        <ele>793.8</ele>
        <time>2019-01-07T01:23:21Z</time>
      </trkpt>
      <trkpt lat="42.32733" lon="2.47955">
        <ele>794.2</ele>
        <time>2019-01-07T01:23:22Z</time>
      </trkpt>
      <trkpt lat="42.3274" lon="2.47961">
        <ele>795.2</ele>
        <time>2019-01-07T01:23:24Z</time>
      </trkpt>
      <trkpt lat="42.32741" lon="2.47964">
        <ele>795.7</ele>
        <time>2019-01-07T01:23:25Z</time>
      </trkpt>
      <trkpt lat="42.32748" lon="2.47977">
        <ele>798</ele>
        <time>2019-01-07T01:23:28Z</time>
      </trkpt>
      <trkpt lat="42.3275" lon="2.47996">
        <ele>799.5</ele>
        <time>2019-01-07T01:23:32Z</time>
      </trkpt>
      <trkpt lat="42.32751" lon="2.48003">
        <ele>801.5</ele>
        <time>2019-01-07T01:23:33Z</time>
      </trkpt>
      <trkpt lat="42.32759" lon="2.48017">
        <ele>803.8</ele>
        <time>2019-01-07T01:23:37Z</time>
      </trkpt>
      <trkpt lat="42.32761" lon="2.48024">
        <ele>807.2</ele>
        <time>2019-01-07T01:23:38Z</time>
      </trkpt>
      <trkpt lat="42.32761" lon="2.48025">
        <ele>806.8</ele>
        <time>2019-01-07T01:23:38Z</time>
      </trkpt>
      <trkpt lat="42.32762" lon="2.48037">
        <ele>810.2</ele>
        <time>2019-01-07T01:23:40Z</time>
      </trkpt>
      <trkpt lat="42.32762" lon="2.48038">
        <ele>808.6</ele>
        <time>2019-01-07T01:23:41Z</time>
      </trkpt>
      <trkpt lat="42.32763" lon="2.48041">
        <ele>807.6</ele>
        <time>2019-01-07T01:23:41Z</time>
      </trkpt>
      <trkpt lat="42.32764" lon="2.48045">
        <ele>810.1</ele>
        <time>2019-01-07T01:23:42Z</time>
      </trkpt>
      <trkpt lat="42.32772" lon="2.48061">
        <ele>811.6</ele>
        <time>2019-01-07T01:23:46Z</time>
      </trkpt>
      <trkpt lat="42.32775" lon="2.48068">
        <ele>812.6</ele>
        <time>2019-01-07T01:23:48Z</time>
      </trkpt>
      <trkpt lat="42.32783" lon="2.48081">
        <ele>815.3</ele>
        <time>2019-01-07T01:23:51Z</time>
      </trkpt>
      <trkpt lat="42.32787" lon="2.48085">
        <ele>814.5</ele>
        <time>2019-01-07T01:23:52Z</time>
      </trkpt>
      <trkpt lat="42.32791" lon="2.48087">
        <ele>816.8</ele>
        <time>2019-01-07T01:23:54Z</time>
      </trkpt>
      <trkpt lat="42.32801" lon="2.48097">
        <ele>818.3</ele>
        <time>2019-01-07T01:23:57Z</time>
      </trkpt>
      <trkpt lat="42.32811" lon="2.48103">
        <ele>821.7</ele>
        <time>2019-01-07T01:24:00Z</time>
      </trkpt>
      <trkpt lat="42.32812" lon="2.48103">
        <ele>821.7</ele>
        <time>2019-01-07T01:24:00Z</time>
      </trkpt>
      <trkpt lat="42.32815" lon="2.48109">
        <ele>822.7</ele>
        <time>2019-01-07T01:24:01Z</time>
      </trkpt>
      <trkpt lat="42.3282" lon="2.48115">
        <ele>824.5</ele>
        <time>2019-01-07T01:24:03Z</time>
      </trkpt>
      <trkpt lat="42.32826" lon="2.48128">
        <ele>826.4</ele>
        <time>2019-01-07T01:24:06Z</time>
      </trkpt>
      <trkpt lat="42.32832" lon="2.48142">
        <ele>829.9</ele>
        <time>2019-01-07T01:24:09Z</time>
      </trkpt>
      <trkpt lat="42.32835" lon="2.48145">
        <ele>829.4</ele>
        <time>2019-01-07T01:24:10Z</time>
      </trkpt>
      <trkpt lat="42.32839" lon="2.48146">
        <ele>830.7</ele>
        <time>2019-01-07T01:24:11Z</time>
      </trkpt>
      <trkpt lat="42.32842" lon="2.48145">
        <ele>832.2</ele>
        <time>2019-01-07T01:24:12Z</time>
      </trkpt>
      <trkpt lat="42.32851" lon="2.48144">
        <ele>833.2</ele>
        <time>2019-01-07T01:24:15Z</time>
      </trkpt>
      <trkpt lat="42.32858" lon="2.48148">
        <ele>834.2</ele>
        <time>2019-01-07T01:24:17Z</time>
      </trkpt>
      <trkpt lat="42.32866" lon="2.48154">
        <ele>836.1</ele>
        <time>2019-01-07T01:24:19Z</time>
      </trkpt>
      <trkpt lat="42.32876" lon="2.48157">
        <ele>839.5</ele>
        <time>2019-01-07T01:24:22Z</time>
      </trkpt>
      <trkpt lat="42.32881" lon="2.48163">
        <ele>839.9</ele>
        <time>2019-01-07T01:24:24Z</time>
      </trkpt>
      <trkpt lat="42.32885" lon="2.48178">
        <ele>840.8</ele>
        <time>2019-01-07T01:24:27Z</time>
      </trkpt>
      <trkpt lat="42.32886" lon="2.4818">
        <ele>841.8</ele>
        <time>2019-01-07T01:24:27Z</time>
      </trkpt>
      <trkpt lat="42.3289" lon="2.48183">
        <ele>842.8</ele>
        <time>2019-01-07T01:24:28Z</time>
      </trkpt>
      <trkpt lat="42.32894" lon="2.48187">
        <ele>845.2</ele>
        <time>2019-01-07T01:24:30Z</time>
      </trkpt>
      <trkpt lat="42.32896" lon="2.48189">
        <ele>845.7</ele>
        <time>2019-01-07T01:24:30Z</time>
      </trkpt>
      <trkpt lat="42.329" lon="2.48195">
        <ele>848</ele>
        <time>2019-01-07T01:24:32Z</time>
      </trkpt>
      <trkpt lat="42.32901" lon="2.48198">
        <ele>849.1</ele>
        <time>2019-01-07T01:24:33Z</time>
      </trkpt>
      <trkpt lat="42.32908" lon="2.48218">
        <ele>850.4</ele>
        <time>2019-01-07T01:24:37Z</time>
      </trkpt>
      <trkpt lat="42.32912" lon="2.48223">
        <ele>851.9</ele>
        <time>2019-01-07T01:24:38Z</time>
      </trkpt>
      <trkpt lat="42.32914" lon="2.48224">
        <ele>852</ele>
        <time>2019-01-07T01:24:39Z</time>
      </trkpt>
      <trkpt lat="42.32926" lon="2.4824">
        <ele>853.8</ele>
        <time>2019-01-07T01:24:43Z</time>
      </trkpt>
      <trkpt lat="42.32928" lon="2.48241">
        <ele>855.7</ele>
        <time>2019-01-07T01:24:44Z</time>
      </trkpt>
      <trkpt lat="42.3293" lon="2.48243">
        <ele>854.3</ele>
        <time>2019-01-07T01:24:45Z</time>
      </trkpt>
      <trkpt lat="42.32939" lon="2.4825">
        <ele>857.7</ele>
        <time>2019-01-07T01:24:47Z</time>
      </trkpt>
      <trkpt lat="42.32943" lon="2.48257">
        <ele>857.7</ele>
        <time>2019-01-07T01:24:49Z</time>
      </trkpt>
      <trkpt lat="42.32942" lon="2.4827">
        <ele>860.6</ele>
        <time>2019-01-07T01:24:52Z</time>
      </trkpt>
      <trkpt lat="42.32939" lon="2.48289">
        <ele>862.4</ele>
        <time>2019-01-07T01:24:56Z</time>
      </trkpt>
      <trkpt lat="42.32942" lon="2.48302">
        <ele>865.8</ele>
        <time>2019-01-07T01:24:58Z</time>
      </trkpt>
      <trkpt lat="42.32943" lon="2.48302">
        <ele>865.8</ele>
        <time>2019-01-07T01:24:58Z</time>
      </trkpt>
      <trkpt lat="42.32945" lon="2.48312">
        <ele>867.3</ele>
        <time>2019-01-07T01:25:00Z</time>
      </trkpt>
      <trkpt lat="42.32949" lon="2.48324">
        <ele>871.2</ele>
        <time>2019-01-07T01:25:03Z</time>
      </trkpt>
      <trkpt lat="42.32949" lon="2.48325">
        <ele>870.7</ele>
        <time>2019-01-07T01:25:03Z</time>
      </trkpt>
      <trkpt lat="42.32952" lon="2.48338">
        <ele>873</ele>
        <time>2019-01-07T01:25:06Z</time>
      </trkpt>
      <trkpt lat="42.32954" lon="2.48344">
        <ele>874</ele>
        <time>2019-01-07T01:25:07Z</time>
      </trkpt>
      <trkpt lat="42.32962" lon="2.48359">
        <ele>877</ele>
        <time>2019-01-07T01:25:11Z</time>
      </trkpt>
      <trkpt lat="42.32972" lon="2.48358">
        <ele>878.9</ele>
        <time>2019-01-07T01:25:14Z</time>
      </trkpt>
      <trkpt lat="42.32978" lon="2.4836">
        <ele>881.2</ele>
        <time>2019-01-07T01:25:15Z</time>
      </trkpt>
      <trkpt lat="42.3298" lon="2.4836">
        <ele>882.6</ele>
        <time>2019-01-07T01:25:16Z</time>
      </trkpt>
      <trkpt lat="42.32988" lon="2.4836">
        <ele>885.5</ele>
        <time>2019-01-07T01:25:18Z</time>
      </trkpt>
      <trkpt lat="42.32999" lon="2.48361">
        <ele>886.5</ele>
        <time>2019-01-07T01:25:21Z</time>
      </trkpt>
      <trkpt lat="42.33005" lon="2.48363">
        <ele>888.5</ele>
        <time>2019-01-07T01:25:22Z</time>
      </trkpt>
      <trkpt lat="42.33017" lon="2.48371">
        <ele>891.3</ele>
        <time>2019-01-07T01:25:26Z</time>
      </trkpt>
      <trkpt lat="42.33027" lon="2.48379">
        <ele>894.3</ele>
        <time>2019-01-07T01:25:29Z</time>
      </trkpt>
      <trkpt lat="42.3303" lon="2.48383">
        <ele>894.2</ele>
        <time>2019-01-07T01:25:30Z</time>
      </trkpt>
      <trkpt lat="42.33042" lon="2.48391">
        <ele>897.5</ele>
        <time>2019-01-07T01:25:34Z</time>
      </trkpt>
      <trkpt lat="42.33051" lon="2.48392">
        <ele>899.5</ele>
        <time>2019-01-07T01:25:36Z</time>
      </trkpt>
      <trkpt lat="42.33054" lon="2.4839">
        <ele>901.4</ele>
        <time>2019-01-07T01:25:37Z</time>
      </trkpt>
      <trkpt lat="42.3306" lon="2.48391">
        <ele>902.8</ele>
        <time>2019-01-07T01:25:39Z</time>
      </trkpt>
      <trkpt lat="42.33066" lon="2.48389">
        <ele>904.3</ele>
        <time>2019-01-07T01:25:40Z</time>
      </trkpt>
      <trkpt lat="42.33076" lon="2.48395">
        <ele>907.6</ele>
        <time>2019-01-07T01:25:43Z</time>
      </trkpt>
      <trkpt lat="42.33078" lon="2.48395">
        <ele>908.2</ele>
        <time>2019-01-07T01:25:44Z</time>
      </trkpt>
      <trkpt lat="42.33086" lon="2.48397">
        <ele>909.6</ele>
        <time>2019-01-07T01:25:46Z</time>
      </trkpt>
      <trkpt lat="42.33088" lon="2.48398">
        <ele>910.5</ele>
        <time>2019-01-07T01:25:46Z</time>
      </trkpt>
      <trkpt lat="42.33092" lon="2.48397">
        <ele>911.5</ele>
        <time>2019-01-07T01:25:48Z</time>
      </trkpt>
      <trkpt lat="42.33104" lon="2.48393">
        <ele>913.4</ele>
        <time>2019-01-07T01:25:51Z</time>
      </trkpt>
      <trkpt lat="42.33105" lon="2.48392">
        <ele>914.4</ele>
        <time>2019-01-07T01:25:51Z</time>
      </trkpt>
      <trkpt lat="42.33109" lon="2.48388">
        <ele>914.9</ele>
        <time>2019-01-07T01:25:52Z</time>
      </trkpt>
      <trkpt lat="42.33113" lon="2.48387">
        <ele>915.9</ele>
        <time>2019-01-07T01:25:54Z</time>
      </trkpt>
      <trkpt lat="42.33117" lon="2.4839">
        <ele>917.7</ele>
        <time>2019-01-07T01:25:55Z</time>
      </trkpt>
      <trkpt lat="42.33125" lon="2.48397">
        <ele>919.2</ele>
        <time>2019-01-07T01:25:57Z</time>
      </trkpt>
      <trkpt lat="42.3313" lon="2.48399">
        <ele>920.1</ele>
        <time>2019-01-07T01:25:59Z</time>
      </trkpt>
      <trkpt lat="42.33139" lon="2.48413">
        <ele>923</ele>
        <time>2019-01-07T01:26:02Z</time>
      </trkpt>
      <trkpt lat="42.33151" lon="2.4842">
        <ele>925</ele>
        <time>2019-01-07T01:26:06Z</time>
      </trkpt>
      <trkpt lat="42.33158" lon="2.48428">
        <ele>925.5</ele>
        <time>2019-01-07T01:26:08Z</time>
      </trkpt>
      <trkpt lat="42.33164" lon="2.48436">
        <ele>927.8</ele>
        <time>2019-01-07T01:26:11Z</time>
      </trkpt>
      <trkpt lat="42.33169" lon="2.48436">
        <ele>929.3</ele>
        <time>2019-01-07T01:26:12Z</time>
      </trkpt>
      <trkpt lat="42.33171" lon="2.48437">
        <ele>931.7</ele>
        <time>2019-01-07T01:26:12Z</time>
      </trkpt>
      <trkpt lat="42.33174" lon="2.48436">
        <ele>932.2</ele>
        <time>2019-01-07T01:26:13Z</time>
      </trkpt>
      <trkpt lat="42.33181" lon="2.48431">
        <ele>935.6</ele>
        <time>2019-01-07T01:26:15Z</time>
      </trkpt>
      <trkpt lat="42.33187" lon="2.48426">
        <ele>939</ele>
        <time>2019-01-07T01:26:17Z</time>
      </trkpt>
      <trkpt lat="42.33192" lon="2.48425">
        <ele>939.5</ele>
        <time>2019-01-07T01:26:19Z</time>
      </trkpt>
      <trkpt lat="42.33203" lon="2.48426">
        <ele>942.7</ele>
        <time>2019-01-07T01:26:22Z</time>
      </trkpt>
      <trkpt lat="42.33207" lon="2.48432">
        <ele>943.7</ele>
        <time>2019-01-07T01:26:23Z</time>
      </trkpt>
      <trkpt lat="42.33217" lon="2.48437">
        <ele>945.7</ele>
        <time>2019-01-07T01:26:26Z</time>
      </trkpt>
      <trkpt lat="42.33219" lon="2.48437">
        <ele>946.7</ele>
        <time>2019-01-07T01:26:27Z</time>
      </trkpt>
      <trkpt lat="42.33235" lon="2.48433">
        <ele>949</ele>
        <time>2019-01-07T01:26:31Z</time>
      </trkpt>
      <trkpt lat="42.33248" lon="2.48424">
        <ele>951.8</ele>
        <time>2019-01-07T01:26:35Z</time>
      </trkpt>
      <trkpt lat="42.33252" lon="2.48422">
        <ele>952.3</ele>
        <time>2019-01-07T01:26:36Z</time>
      </trkpt>
      <trkpt lat="42.33258" lon="2.48421">
        <ele>954.7</ele>
        <time>2019-01-07T01:26:37Z</time>
      </trkpt>
      <trkpt lat="42.33277" lon="2.48405">
        <ele>956.2</ele>
        <time>2019-01-07T01:26:43Z</time>
      </trkpt>
      <trkpt lat="42.33287" lon="2.48393">
        <ele>956.3</ele>
        <time>2019-01-07T01:26:47Z</time>
      </trkpt>
      <trkpt lat="42.33304" lon="2.4839">
        <ele>958.2</ele>
        <time>2019-01-07T01:26:52Z</time>
      </trkpt>
      <trkpt lat="42.33312" lon="2.48388">
        <ele>957.6</ele>
        <time>2019-01-07T01:26:54Z</time>
      </trkpt>
      <trkpt lat="42.33318" lon="2.48387">
        <ele>957.7</ele>
        <time>2019-01-07T01:26:55Z</time>
      </trkpt>
      <trkpt lat="42.33335" lon="2.48382">
        <ele>959.2</ele>
        <time>2019-01-07T01:27:00Z</time>
      </trkpt>
      <trkpt lat="42.33355" lon="2.48381">
        <ele>958.6</ele>
        <time>2019-01-07T01:27:05Z</time>
      </trkpt>
      <trkpt lat="42.33366" lon="2.48379">
        <ele>961</ele>
        <time>2019-01-07T01:27:08Z</time>
      </trkpt>
      <trkpt lat="42.33378" lon="2.4838">
        <ele>962.9</ele>
        <time>2019-01-07T01:27:11Z</time>
      </trkpt>
      <trkpt lat="42.33385" lon="2.48379">
        <ele>963.4</ele>
        <time>2019-01-07T01:27:13Z</time>
      </trkpt>
      <trkpt lat="42.33388" lon="2.48385">
        <ele>963.9</ele>
        <time>2019-01-07T01:27:15Z</time>
      </trkpt>
      <trkpt lat="42.33387" lon="2.48382">
        <ele>964</ele>
        <time>2019-01-07T01:27:15Z</time>
      </trkpt>
      <trkpt lat="42.33388" lon="2.48382">
        <ele>964.9</ele>
        <time>2019-01-07T01:27:15Z</time>
      </trkpt>
      <trkpt lat="42.33396" lon="2.48381">
        <ele>964.4</ele>
        <time>2019-01-07T01:27:17Z</time>
      </trkpt>
      <trkpt lat="42.334" lon="2.48379">
        <ele>966.4</ele>
        <time>2019-01-07T01:27:19Z</time>
      </trkpt>
      <trkpt lat="42.33402" lon="2.48374">
        <ele>967.8</ele>
        <time>2019-01-07T01:27:20Z</time>
      </trkpt>
      <trkpt lat="42.33419" lon="2.48379">
        <ele>968.7</ele>
        <time>2019-01-07T01:27:24Z</time>
      </trkpt>
      <trkpt lat="42.33421" lon="2.48379">
        <ele>967.7</ele>
        <time>2019-01-07T01:27:25Z</time>
      </trkpt>
      <trkpt lat="42.3342" lon="2.48378">
        <ele>968.7</ele>
        <time>2019-01-07T01:27:25Z</time>
      </trkpt>
      <trkpt lat="42.33417" lon="2.48374">
        <ele>970.1</ele>
        <time>2019-01-07T01:27:26Z</time>
      </trkpt>
      <trkpt lat="42.33416" lon="2.4837">
        <ele>971.1</ele>
        <time>2019-01-07T01:27:27Z</time>
      </trkpt>
      <trkpt lat="42.33415" lon="2.4836">
        <ele>971.6</ele>
        <time>2019-01-07T01:27:29Z</time>
      </trkpt>
      <trkpt lat="42.33416" lon="2.48356">
        <ele>974.4</ele>
        <time>2019-01-07T01:27:30Z</time>
      </trkpt>
      <trkpt lat="42.33418" lon="2.48331">
        <ele>974</ele>
        <time>2019-01-07T01:27:35Z</time>
      </trkpt>
      <trkpt lat="42.33419" lon="2.48327">
        <ele>976.5</ele>
        <time>2019-01-07T01:27:36Z</time>
      </trkpt>
      <trkpt lat="42.33425" lon="2.4831">
        <ele>977.8</ele>
        <time>2019-01-07T01:27:39Z</time>
      </trkpt>
      <trkpt lat="42.33426" lon="2.48307">
        <ele>978.8</ele>
        <time>2019-01-07T01:27:40Z</time>
      </trkpt>
      <trkpt lat="42.3343" lon="2.48292">
        <ele>982.2</ele>
        <time>2019-01-07T01:27:43Z</time>
      </trkpt>
      <trkpt lat="42.33432" lon="2.48284">
        <ele>980.7</ele>
        <time>2019-01-07T01:27:45Z</time>
      </trkpt>
      <trkpt lat="42.33433" lon="2.48278">
        <ele>982.1</ele>
        <time>2019-01-07T01:27:46Z</time>
      </trkpt>
      <trkpt lat="42.33437" lon="2.48262">
        <ele>983.6</ele>
        <time>2019-01-07T01:27:49Z</time>
      </trkpt>
      <trkpt lat="42.33441" lon="2.48241">
        <ele>983.1</ele>
        <time>2019-01-07T01:27:54Z</time>
      </trkpt>
      <trkpt lat="42.33442" lon="2.48236">
        <ele>984.2</ele>
        <time>2019-01-07T01:27:55Z</time>
      </trkpt>
      <trkpt lat="42.33444" lon="2.4822">
        <ele>985.6</ele>
        <time>2019-01-07T01:27:58Z</time>
      </trkpt>
      <trkpt lat="42.3345" lon="2.48193">
        <ele>986.6</ele>
        <time>2019-01-07T01:28:03Z</time>
      </trkpt>
      <trkpt lat="42.33453" lon="2.48174">
        <ele>987.9</ele>
        <time>2019-01-07T01:28:07Z</time>
      </trkpt>
      <trkpt lat="42.33454" lon="2.4817">
        <ele>988.5</ele>
        <time>2019-01-07T01:28:08Z</time>
      </trkpt>
      <trkpt lat="42.33453" lon="2.48155">
        <ele>989.4</ele>
        <time>2019-01-07T01:28:11Z</time>
      </trkpt>
      <trkpt lat="42.33452" lon="2.48133">
        <ele>990.9</ele>
        <time>2019-01-07T01:28:15Z</time>
      </trkpt>
      <trkpt lat="42.33451" lon="2.48117">
        <ele>994.1</ele>
        <time>2019-01-07T01:28:18Z</time>
      </trkpt>
      <trkpt lat="42.33446" lon="2.48089">
        <ele>996.1</ele>
        <time>2019-01-07T01:28:24Z</time>
      </trkpt>
      <trkpt lat="42.33447" lon="2.48055">
        <ele>998</ele>
        <time>2019-01-07T01:28:31Z</time>
      </trkpt>
      <trkpt lat="42.33453" lon="2.48033">
        <ele>998.5</ele>
        <time>2019-01-07T01:28:36Z</time>
      </trkpt>
      <trkpt lat="42.33465" lon="2.48003">
        <ele>998.6</ele>
        <time>2019-01-07T01:28:42Z</time>
      </trkpt>
      <trkpt lat="42.33476" lon="2.47987">
        <ele>1001.4</ele>
        <time>2019-01-07T01:28:46Z</time>
      </trkpt>
      <trkpt lat="42.33479" lon="2.47981">
        <ele>1002.4</ele>
        <time>2019-01-07T01:28:48Z</time>
      </trkpt>
      <trkpt lat="42.33484" lon="2.47974">
        <ele>1003.3</ele>
        <time>2019-01-07T01:28:50Z</time>
      </trkpt>
      <trkpt lat="42.33494" lon="2.47956">
        <ele>1005.3</ele>
        <time>2019-01-07T01:28:54Z</time>
      </trkpt>
      <trkpt lat="42.33496" lon="2.47946">
        <ele>1005.2</ele>
        <time>2019-01-07T01:28:56Z</time>
      </trkpt>
      <trkpt lat="42.33506" lon="2.47934">
        <ele>1006.7</ele>
        <time>2019-01-07T01:29:00Z</time>
      </trkpt>
      <trkpt lat="42.33511" lon="2.4793">
        <ele>1005.8</ele>
        <time>2019-01-07T01:29:01Z</time>
      </trkpt>
      <trkpt lat="42.33521" lon="2.47921">
        <ele>1007.2</ele>
        <time>2019-01-07T01:29:05Z</time>
      </trkpt>
      <trkpt lat="42.33528" lon="2.47912">
        <ele>1008.6</ele>
        <time>2019-01-07T01:29:07Z</time>
      </trkpt>
      <trkpt lat="42.33549" lon="2.47893">
        <ele>1005.7</ele>
        <time>2019-01-07T01:29:14Z</time>
      </trkpt>
      <trkpt lat="42.33558" lon="2.47884">
        <ele>1002.9</ele>
        <time>2019-01-07T01:29:17Z</time>
      </trkpt>
      <trkpt lat="42.33583" lon="2.47877">
        <ele>1001.9</ele>
        <time>2019-01-07T01:29:24Z</time>
      </trkpt>
      <trkpt lat="42.33606" lon="2.47878">
        <ele>1001.5</ele>
        <time>2019-01-07T01:29:30Z</time>
      </trkpt>
      <trkpt lat="42.33627" lon="2.47876">
        <ele>1002.4</ele>
        <time>2019-01-07T01:29:36Z</time>
      </trkpt>
      <trkpt lat="42.33651" lon="2.47859">
        <ele>1001.9</ele>
        <time>2019-01-07T01:29:43Z</time>
      </trkpt>
      <trkpt lat="42.33665" lon="2.47828">
        <ele>1001</ele>
        <time>2019-01-07T01:29:50Z</time>
      </trkpt>
      <trkpt lat="42.33667" lon="2.47823">
        <ele>1000.4</ele>
        <time>2019-01-07T01:29:51Z</time>
      </trkpt>
      <trkpt lat="42.33675" lon="2.47807">
        <ele>1000.5</ele>
        <time>2019-01-07T01:29:55Z</time>
      </trkpt>
      <trkpt lat="42.33682" lon="2.47797">
        <ele>1001</ele>
        <time>2019-01-07T01:29:58Z</time>
      </trkpt>
      <trkpt lat="42.33689" lon="2.47786">
        <ele>999.9</ele>
        <time>2019-01-07T01:30:00Z</time>
      </trkpt>
      <trkpt lat="42.33705" lon="2.47763">
        <ele>999.4</ele>
        <time>2019-01-07T01:30:07Z</time>
      </trkpt>
      <trkpt lat="42.33709" lon="2.47758">
        <ele>999.4</ele>
        <time>2019-01-07T01:30:08Z</time>
      </trkpt>
      <trkpt lat="42.33711" lon="2.47757">
        <ele>1001.8</ele>
        <time>2019-01-07T01:30:09Z</time>
      </trkpt>
      <trkpt lat="42.33722" lon="2.47742">
        <ele>1002.8</ele>
        <time>2019-01-07T01:30:13Z</time>
      </trkpt>
      <trkpt lat="42.33725" lon="2.47735">
        <ele>1004.8</ele>
        <time>2019-01-07T01:30:14Z</time>
      </trkpt>
      <trkpt lat="42.33728" lon="2.47729">
        <ele>1006.3</ele>
        <time>2019-01-07T01:30:16Z</time>
      </trkpt>
      <trkpt lat="42.33733" lon="2.47722">
        <ele>1008.2</ele>
        <time>2019-01-07T01:30:18Z</time>
      </trkpt>
      <trkpt lat="42.33737" lon="2.47709">
        <ele>1011.5</ele>
        <time>2019-01-07T01:30:20Z</time>
      </trkpt>
      <trkpt lat="42.33741" lon="2.47697">
        <ele>1014.3</ele>
        <time>2019-01-07T01:30:23Z</time>
      </trkpt>
      <trkpt lat="42.33742" lon="2.47692">
        <ele>1015.4</ele>
        <time>2019-01-07T01:30:24Z</time>
      </trkpt>
      <trkpt lat="42.33749" lon="2.47683">
        <ele>1017.2</ele>
        <time>2019-01-07T01:30:27Z</time>
      </trkpt>
      <trkpt lat="42.33764" lon="2.47664">
        <ele>1017.2</ele>
        <time>2019-01-07T01:30:32Z</time>
      </trkpt>
      <trkpt lat="42.33777" lon="2.47644">
        <ele>1019.6</ele>
        <time>2019-01-07T01:30:37Z</time>
      </trkpt>
      <trkpt lat="42.33794" lon="2.47627">
        <ele>1021.2</ele>
        <time>2019-01-07T01:30:43Z</time>
      </trkpt>
      <trkpt lat="42.33805" lon="2.47618">
        <ele>1023.1</ele>
        <time>2019-01-07T01:30:46Z</time>
      </trkpt>
      <trkpt lat="42.33809" lon="2.47614">
        <ele>1023.6</ele>
        <time>2019-01-07T01:30:48Z</time>
      </trkpt>
      <trkpt lat="42.33813" lon="2.4761">
        <ele>1024.4</ele>
        <time>2019-01-07T01:30:49Z</time>
      </trkpt>
      <trkpt lat="42.3382" lon="2.47607">
        <ele>1026.3</ele>
        <time>2019-01-07T01:30:51Z</time>
      </trkpt>
      <trkpt lat="42.33824" lon="2.47607">
        <ele>1026.4</ele>
        <time>2019-01-07T01:30:52Z</time>
      </trkpt>
      <trkpt lat="42.33826" lon="2.4761">
        <ele>1027.3</ele>
        <time>2019-01-07T01:30:53Z</time>
      </trkpt>
      <trkpt lat="42.3383" lon="2.47614">
        <ele>1027.3</ele>
        <time>2019-01-07T01:30:54Z</time>
      </trkpt>
      <trkpt lat="42.33834" lon="2.47619">
        <ele>1028.8</ele>
        <time>2019-01-07T01:30:56Z</time>
      </trkpt>
      <trkpt lat="42.33847" lon="2.47635">
        <ele>1029.7</ele>
        <time>2019-01-07T01:31:00Z</time>
      </trkpt>
      <trkpt lat="42.33865" lon="2.4765">
        <ele>1030.8</ele>
        <time>2019-01-07T01:31:06Z</time>
      </trkpt>
      <trkpt lat="42.33874" lon="2.47656">
        <ele>1031.2</ele>
        <time>2019-01-07T01:31:09Z</time>
      </trkpt>
      <trkpt lat="42.33883" lon="2.47668">
        <ele>1033.7</ele>
        <time>2019-01-07T01:31:12Z</time>
      </trkpt>
      <trkpt lat="42.33892" lon="2.47674">
        <ele>1036</ele>
        <time>2019-01-07T01:31:15Z</time>
      </trkpt>
      <trkpt lat="42.33897" lon="2.47685">
        <ele>1038.4</ele>
        <time>2019-01-07T01:31:17Z</time>
      </trkpt>
      <trkpt lat="42.33906" lon="2.47695">
        <ele>1041.4</ele>
        <time>2019-01-07T01:31:20Z</time>
      </trkpt>
      <trkpt lat="42.33912" lon="2.47709">
        <ele>1044.7</ele>
        <time>2019-01-07T01:31:24Z</time>
      </trkpt>
      <trkpt lat="42.33918" lon="2.47722">
        <ele>1047.5</ele>
        <time>2019-01-07T01:31:27Z</time>
      </trkpt>
      <trkpt lat="42.33918" lon="2.47724">
        <ele>1047.5</ele>
        <time>2019-01-07T01:31:27Z</time>
      </trkpt>
      <trkpt lat="42.33918" lon="2.47728">
        <ele>1048</ele>
        <time>2019-01-07T01:31:28Z</time>
      </trkpt>
      <trkpt lat="42.33919" lon="2.47733">
        <ele>1048.5</ele>
        <time>2019-01-07T01:31:29Z</time>
      </trkpt>
      <trkpt lat="42.33923" lon="2.47741">
        <ele>1050.4</ele>
        <time>2019-01-07T01:31:31Z</time>
      </trkpt>
      <trkpt lat="42.33928" lon="2.47751">
        <ele>1050.4</ele>
        <time>2019-01-07T01:31:33Z</time>
      </trkpt>
      <trkpt lat="42.33928" lon="2.47755">
        <ele>1050.9</ele>
        <time>2019-01-07T01:31:34Z</time>
      </trkpt>
      <trkpt lat="42.33934" lon="2.47768">
        <ele>1053.4</ele>
        <time>2019-01-07T01:31:37Z</time>
      </trkpt>
      <trkpt lat="42.3394" lon="2.47796">
        <ele>1053.3</ele>
        <time>2019-01-07T01:31:42Z</time>
      </trkpt>
      <trkpt lat="42.33941" lon="2.478">
        <ele>1054.2</ele>
        <time>2019-01-07T01:31:43Z</time>
      </trkpt>
      <trkpt lat="42.33941" lon="2.47802">
        <ele>1054.2</ele>
        <time>2019-01-07T01:31:44Z</time>
      </trkpt>
      <trkpt lat="42.33942" lon="2.47819">
        <ele>1056.3</ele>
        <time>2019-01-07T01:31:47Z</time>
      </trkpt>
      <trkpt lat="42.33948" lon="2.47835">
        <ele>1056.3</ele>
        <time>2019-01-07T01:31:51Z</time>
      </trkpt>
      <trkpt lat="42.33961" lon="2.47849">
        <ele>1057.1</ele>
        <time>2019-01-07T01:31:55Z</time>
      </trkpt>
      <trkpt lat="42.3397" lon="2.47864">
        <ele>1059</ele>
        <time>2019-01-07T01:31:59Z</time>
      </trkpt>
      <trkpt lat="42.33972" lon="2.4787">
        <ele>1060.5</ele>
        <time>2019-01-07T01:32:00Z</time>
      </trkpt>
      <trkpt lat="42.33986" lon="2.47878">
        <ele>1062.5</ele>
        <time>2019-01-07T01:32:04Z</time>
      </trkpt>
      <trkpt lat="42.33997" lon="2.47881">
        <ele>1065.4</ele>
        <time>2019-01-07T01:32:07Z</time>
      </trkpt>
      <trkpt lat="42.33999" lon="2.47881">
        <ele>1065.9</ele>
        <time>2019-01-07T01:32:08Z</time>
      </trkpt>
      <trkpt lat="42.34007" lon="2.47887">
        <ele>1067.8</ele>
        <time>2019-01-07T01:32:10Z</time>
      </trkpt>
      <trkpt lat="42.34017" lon="2.47891">
        <ele>1070.2</ele>
        <time>2019-01-07T01:32:13Z</time>
      </trkpt>
      <trkpt lat="42.34019" lon="2.47892">
        <ele>1070.6</ele>
        <time>2019-01-07T01:32:14Z</time>
      </trkpt>
      <trkpt lat="42.3403" lon="2.47899">
        <ele>1074</ele>
        <time>2019-01-07T01:32:17Z</time>
      </trkpt>
      <trkpt lat="42.34031" lon="2.479">
        <ele>1073.9</ele>
        <time>2019-01-07T01:32:17Z</time>
      </trkpt>
      <trkpt lat="42.34029" lon="2.47906">
        <ele>1074.9</ele>
        <time>2019-01-07T01:32:18Z</time>
      </trkpt>
      <trkpt lat="42.34022" lon="2.47915">
        <ele>1078.3</ele>
        <time>2019-01-07T01:32:21Z</time>
      </trkpt>
      <trkpt lat="42.34027" lon="2.4792">
        <ele>1080.2</ele>
        <time>2019-01-07T01:32:23Z</time>
      </trkpt>
      <trkpt lat="42.34035" lon="2.47924">
        <ele>1082.7</ele>
        <time>2019-01-07T01:32:25Z</time>
      </trkpt>
      <trkpt lat="42.3404" lon="2.47928">
        <ele>1086</ele>
        <time>2019-01-07T01:32:26Z</time>
      </trkpt>
      <trkpt lat="42.34043" lon="2.47938">
        <ele>1088.9</ele>
        <time>2019-01-07T01:32:29Z</time>
      </trkpt>
      <trkpt lat="42.34044" lon="2.47946">
        <ele>1091.8</ele>
        <time>2019-01-07T01:32:30Z</time>
      </trkpt>
      <trkpt lat="42.34054" lon="2.47957">
        <ele>1095.2</ele>
        <time>2019-01-07T01:32:33Z</time>
      </trkpt>
      <trkpt lat="42.34053" lon="2.47963">
        <ele>1096.5</ele>
        <time>2019-01-07T01:32:35Z</time>
      </trkpt>
      <trkpt lat="42.34054" lon="2.47971">
        <ele>1100</ele>
        <time>2019-01-07T01:32:36Z</time>
      </trkpt>
      <trkpt lat="42.3406" lon="2.47981">
        <ele>1100.9</ele>
        <time>2019-01-07T01:32:39Z</time>
      </trkpt>
      <trkpt lat="42.34061" lon="2.47991">
        <ele>1104.2</ele>
        <time>2019-01-07T01:32:41Z</time>
      </trkpt>
      <trkpt lat="42.34062" lon="2.47998">
        <ele>1107.6</ele>
        <time>2019-01-07T01:32:42Z</time>
      </trkpt>
      <trkpt lat="42.34061" lon="2.48006">
        <ele>1108.5</ele>
        <time>2019-01-07T01:32:44Z</time>
      </trkpt>
      <trkpt lat="42.34066" lon="2.48013">
        <ele>1110.6</ele>
        <time>2019-01-07T01:32:46Z</time>
      </trkpt>
      <trkpt lat="42.34071" lon="2.48019">
        <ele>1113.8</ele>
        <time>2019-01-07T01:32:47Z</time>
      </trkpt>
      <trkpt lat="42.34075" lon="2.48023">
        <ele>1115.4</ele>
        <time>2019-01-07T01:32:49Z</time>
      </trkpt>
      <trkpt lat="42.34075" lon="2.4803">
        <ele>1118.3</ele>
        <time>2019-01-07T01:32:50Z</time>
      </trkpt>
      <trkpt lat="42.3408" lon="2.4804">
        <ele>1120.7</ele>
        <time>2019-01-07T01:32:53Z</time>
      </trkpt>
      <trkpt lat="42.34083" lon="2.48042">
        <ele>1119.7</ele>
        <time>2019-01-07T01:32:53Z</time>
      </trkpt>
      <trkpt lat="42.34084" lon="2.48045">
        <ele>1120.7</ele>
        <time>2019-01-07T01:32:54Z</time>
      </trkpt>
      <trkpt lat="42.34085" lon="2.48051">
        <ele>1121.1</ele>
        <time>2019-01-07T01:32:55Z</time>
      </trkpt>
      <trkpt lat="42.34086" lon="2.48066">
        <ele>1123.4</ele>
        <time>2019-01-07T01:32:58Z</time>
      </trkpt>
      <trkpt lat="42.34097" lon="2.48085">
        <ele>1125.8</ele>
        <time>2019-01-07T01:33:03Z</time>
      </trkpt>
      <trkpt lat="42.34102" lon="2.48095">
        <ele>1126.9</ele>
        <time>2019-01-07T01:33:06Z</time>
      </trkpt>
      <trkpt lat="42.34106" lon="2.48097">
        <ele>1127.3</ele>
        <time>2019-01-07T01:33:07Z</time>
      </trkpt>
      <trkpt lat="42.34107" lon="2.481">
        <ele>1127.8</ele>
        <time>2019-01-07T01:33:07Z</time>
      </trkpt>
      <trkpt lat="42.3411" lon="2.48109">
        <ele>1125.8</ele>
        <time>2019-01-07T01:33:09Z</time>
      </trkpt>
      <trkpt lat="42.34115" lon="2.48115">
        <ele>1124.5</ele>
        <time>2019-01-07T01:33:11Z</time>
      </trkpt>
      <trkpt lat="42.34125" lon="2.48128">
        <ele>1121</ele>
        <time>2019-01-07T01:33:15Z</time>
      </trkpt>
      <trkpt lat="42.34127" lon="2.48132">
        <ele>1119.7</ele>
        <time>2019-01-07T01:33:16Z</time>
      </trkpt>
      <trkpt lat="42.34131" lon="2.48134">
        <ele>1118.6</ele>
        <time>2019-01-07T01:33:17Z</time>
      </trkpt>
      <trkpt lat="42.34128" lon="2.48135">
        <ele>1118.2</ele>
        <time>2019-01-07T01:33:17Z</time>
      </trkpt>
      <trkpt lat="42.34124" lon="2.48137">
        <ele>1117.7</ele>
        <time>2019-01-07T01:33:19Z</time>
      </trkpt>
      <trkpt lat="42.34125" lon="2.48135">
        <ele>1114.3</ele>
        <time>2019-01-07T01:33:19Z</time>
      </trkpt>
      <trkpt lat="42.34125" lon="2.48136">
        <ele>1115.8</ele>
        <time>2019-01-07T01:33:19Z</time>
      </trkpt>
      <trkpt lat="42.34125" lon="2.48136">
        <ele>1117.7</ele>
        <time>2019-01-07T01:33:19Z</time>
      </trkpt>
      <trkpt lat="42.34126" lon="2.48133">
        <ele>1117.3</ele>
        <time>2019-01-07T01:33:20Z</time>
      </trkpt>
      <trkpt lat="42.34128" lon="2.48132">
        <ele>1117.2</ele>
        <time>2019-01-07T01:33:20Z</time>
      </trkpt>
      <trkpt lat="42.34129" lon="2.48133">
        <ele>1116.8</ele>
        <time>2019-01-07T01:33:20Z</time>
      </trkpt>
      <trkpt lat="42.34131" lon="2.48133">
        <ele>1116.8</ele>
        <time>2019-01-07T01:33:21Z</time>
      </trkpt>
      <trkpt lat="42.3413" lon="2.48132">
        <ele>1111.4</ele>
        <time>2019-01-07T01:33:21Z</time>
      </trkpt>
      <trkpt lat="42.3413" lon="2.48132">
        <ele>1114.8</ele>
        <time>2019-01-07T01:33:21Z</time>
      </trkpt>
      <trkpt lat="42.3413" lon="2.48132">
        <ele>1119.7</ele>
        <time>2019-01-07T01:33:21Z</time>
      </trkpt>
      <trkpt lat="42.3413" lon="2.48132">
        <ele>1119.6</ele>
        <time>2019-01-07T01:33:21Z</time>
      </trkpt>
      <trkpt lat="42.3413" lon="2.48132">
        <ele>1114.8</ele>
        <time>2019-01-07T01:33:21Z</time>
      </trkpt>
      <trkpt lat="42.34129" lon="2.48132">
        <ele>1119.7</ele>
        <time>2019-01-07T01:33:21Z</time>
      </trkpt>
      <trkpt lat="42.34128" lon="2.48133">
        <ele>1115.9</ele>
        <time>2019-01-07T01:33:22Z</time>
      </trkpt>
      <trkpt lat="42.34127" lon="2.48134">
        <ele>1116.2</ele>
        <time>2019-01-07T01:33:22Z</time>
      </trkpt>
      <trkpt lat="42.34125" lon="2.48135">
        <ele>1115.9</ele>
        <time>2019-01-07T01:33:22Z</time>
      </trkpt>
      <trkpt lat="42.34129" lon="2.48135">
        <ele>1117.2</ele>
        <time>2019-01-07T01:33:23Z</time>
      </trkpt>
      <trkpt lat="42.34127" lon="2.48135">
        <ele>1117.7</ele>
        <time>2019-01-07T01:33:24Z</time>
      </trkpt>
      <trkpt lat="42.34127" lon="2.48133">
        <ele>1117.8</ele>
        <time>2019-01-07T01:33:24Z</time>
      </trkpt>
      <trkpt lat="42.34127" lon="2.48134">
        <ele>1119.6</ele>
        <time>2019-01-07T01:33:24Z</time>
      </trkpt>
      <trkpt lat="42.34128" lon="2.48134">
        <ele>1116.7</ele>
        <time>2019-01-07T01:33:25Z</time>
      </trkpt>
      <trkpt lat="42.34128" lon="2.48132">
        <ele>1120.1</ele>
        <time>2019-01-07T01:33:25Z</time>
      </trkpt>
      <trkpt lat="42.34127" lon="2.48131">
        <ele>1118.2</ele>
        <time>2019-01-07T01:33:25Z</time>
      </trkpt>
      <trkpt lat="42.34126" lon="2.48133">
        <ele>1118.3</ele>
        <time>2019-01-07T01:33:26Z</time>
      </trkpt>
      <trkpt lat="42.34127" lon="2.48132">
        <ele>1119.7</ele>
        <time>2019-01-07T01:33:26Z</time>
      </trkpt>
      <trkpt lat="42.34128" lon="2.48133">
        <ele>1119.1</ele>
        <time>2019-01-07T01:33:27Z</time>
      </trkpt>
      <trkpt lat="42.34135" lon="2.48141">
        <ele>1116.7</ele>
        <time>2019-01-07T01:33:29Z</time>
      </trkpt>
      <trkpt lat="42.34136" lon="2.48141">
        <ele>1116.2</ele>
        <time>2019-01-07T01:33:29Z</time>
      </trkpt>
      <trkpt lat="42.34149" lon="2.48149">
        <ele>1112.5</ele>
        <time>2019-01-07T01:33:33Z</time>
      </trkpt>
      <trkpt lat="42.3415" lon="2.4815">
        <ele>1112.5</ele>
        <time>2019-01-07T01:33:34Z</time>
      </trkpt>
      <trkpt lat="42.34153" lon="2.48153">
        <ele>1110.9</ele>
        <time>2019-01-07T01:33:35Z</time>
      </trkpt>
      <trkpt lat="42.34165" lon="2.48168">
        <ele>1108.2</ele>
        <time>2019-01-07T01:33:39Z</time>
      </trkpt>
      <trkpt lat="42.3417" lon="2.48171">
        <ele>1108.1</ele>
        <time>2019-01-07T01:33:40Z</time>
      </trkpt>
      <trkpt lat="42.34175" lon="2.48182">
        <ele>1106.6</ele>
        <time>2019-01-07T01:33:43Z</time>
      </trkpt>
      <trkpt lat="42.34196" lon="2.48199">
        <ele>1104.3</ele>
        <time>2019-01-07T01:33:49Z</time>
      </trkpt>
      <trkpt lat="42.34202" lon="2.48207">
        <ele>1100.5</ele>
        <time>2019-01-07T01:33:52Z</time>
      </trkpt>
      <trkpt lat="42.34211" lon="2.48214">
        <ele>1098.9</ele>
        <time>2019-01-07T01:33:54Z</time>
      </trkpt>
      <trkpt lat="42.34217" lon="2.48221">
        <ele>1095.1</ele>
        <time>2019-01-07T01:33:57Z</time>
      </trkpt>
      <trkpt lat="42.34218" lon="2.48222">
        <ele>1099.5</ele>
        <time>2019-01-07T01:33:57Z</time>
      </trkpt>
      <trkpt lat="42.3422" lon="2.48223">
        <ele>1095.6</ele>
        <time>2019-01-07T01:33:57Z</time>
      </trkpt>
      <trkpt lat="42.34228" lon="2.48227">
        <ele>1094.2</ele>
        <time>2019-01-07T01:34:00Z</time>
      </trkpt>
      <trkpt lat="42.3423" lon="2.4823">
        <ele>1092.8</ele>
        <time>2019-01-07T01:34:00Z</time>
      </trkpt>
      <trkpt lat="42.34246" lon="2.48233">
        <ele>1089.3</ele>
        <time>2019-01-07T01:34:05Z</time>
      </trkpt>
      <trkpt lat="42.34249" lon="2.48232">
        <ele>1089.3</ele>
        <time>2019-01-07T01:34:06Z</time>
      </trkpt>
      <trkpt lat="42.34256" lon="2.4824">
        <ele>1088.8</ele>
        <time>2019-01-07T01:34:08Z</time>
      </trkpt>
      <trkpt lat="42.34264" lon="2.48262">
        <ele>1086.4</ele>
        <time>2019-01-07T01:34:13Z</time>
      </trkpt>
      <trkpt lat="42.34274" lon="2.48276">
        <ele>1084.6</ele>
        <time>2019-01-07T01:34:17Z</time>
      </trkpt>
      <trkpt lat="42.3428" lon="2.48292">
        <ele>1083.6</ele>
        <time>2019-01-07T01:34:20Z</time>
      </trkpt>
      <trkpt lat="42.34295" lon="2.48308">
        <ele>1082.6</ele>
        <time>2019-01-07T01:34:25Z</time>
      </trkpt>
      <trkpt lat="42.34311" lon="2.48319">
        <ele>1081.6</ele>
        <time>2019-01-07T01:34:30Z</time>
      </trkpt>
      <trkpt lat="42.34315" lon="2.4833">
        <ele>1080.8</ele>
        <time>2019-01-07T01:34:33Z</time>
      </trkpt>
      <trkpt lat="42.34323" lon="2.48351">
        <ele>1080.2</ele>
        <time>2019-01-07T01:34:37Z</time>
      </trkpt>
      <trkpt lat="42.34327" lon="2.48367">
        <ele>1078.7</ele>
        <time>2019-01-07T01:34:40Z</time>
      </trkpt>
      <trkpt lat="42.34333" lon="2.48377">
        <ele>1076.8</ele>
        <time>2019-01-07T01:34:43Z</time>
      </trkpt>
      <trkpt lat="42.34338" lon="2.48387">
        <ele>1074.4</ele>
        <time>2019-01-07T01:34:45Z</time>
      </trkpt>
      <trkpt lat="42.34351" lon="2.48398">
        <ele>1071.1</ele>
        <time>2019-01-07T01:34:50Z</time>
      </trkpt>
      <trkpt lat="42.34357" lon="2.4841">
        <ele>1072</ele>
        <time>2019-01-07T01:34:52Z</time>
      </trkpt>
      <trkpt lat="42.3437" lon="2.48432">
        <ele>1069.6</ele>
        <time>2019-01-07T01:34:58Z</time>
      </trkpt>
      <trkpt lat="42.34371" lon="2.48433">
        <ele>1069.1</ele>
        <time>2019-01-07T01:34:58Z</time>
      </trkpt>
      <trkpt lat="42.3438" lon="2.48456">
        <ele>1066.8</ele>
        <time>2019-01-07T01:35:03Z</time>
      </trkpt>
      <trkpt lat="42.34389" lon="2.48472">
        <ele>1068.3</ele>
        <time>2019-01-07T01:35:07Z</time>
      </trkpt>
      <trkpt lat="42.34398" lon="2.48487">
        <ele>1066.7</ele>
        <time>2019-01-07T01:35:11Z</time>
      </trkpt>
      <trkpt lat="42.344" lon="2.48502">
        <ele>1066.3</ele>
        <time>2019-01-07T01:35:14Z</time>
      </trkpt>
      <trkpt lat="42.34404" lon="2.48522">
        <ele>1063.8</ele>
        <time>2019-01-07T01:35:18Z</time>
      </trkpt>
      <trkpt lat="42.34405" lon="2.48523">
        <ele>1063</ele>
        <time>2019-01-07T01:35:19Z</time>
      </trkpt>
      <trkpt lat="42.34412" lon="2.48538">
        <ele>1061.9</ele>
        <time>2019-01-07T01:35:22Z</time>
      </trkpt>
      <trkpt lat="42.34417" lon="2.48542">
        <ele>1060.5</ele>
        <time>2019-01-07T01:35:24Z</time>
      </trkpt>
      <trkpt lat="42.3442" lon="2.48553">
        <ele>1058.7</ele>
        <time>2019-01-07T01:35:26Z</time>
      </trkpt>
      <trkpt lat="42.34428" lon="2.48561">
        <ele>1057.6</ele>
        <time>2019-01-07T01:35:28Z</time>
      </trkpt>
      <trkpt lat="42.34431" lon="2.48565">
        <ele>1055.3</ele>
        <time>2019-01-07T01:35:30Z</time>
      </trkpt>
      <trkpt lat="42.34433" lon="2.48568">
        <ele>1055.7</ele>
        <time>2019-01-07T01:35:30Z</time>
      </trkpt>
      <trkpt lat="42.34434" lon="2.48572">
        <ele>1054.8</ele>
        <time>2019-01-07T01:35:31Z</time>
      </trkpt>
      <trkpt lat="42.34437" lon="2.48591">
        <ele>1051.3</ele>
        <time>2019-01-07T01:35:35Z</time>
      </trkpt>
      <trkpt lat="42.3444" lon="2.48596">
        <ele>1050.5</ele>
        <time>2019-01-07T01:35:36Z</time>
      </trkpt>
      <trkpt lat="42.34441" lon="2.48597">
        <ele>1050.9</ele>
        <time>2019-01-07T01:35:37Z</time>
      </trkpt>
      <trkpt lat="42.34455" lon="2.48618">
        <ele>1048.9</ele>
        <time>2019-01-07T01:35:42Z</time>
      </trkpt>
      <trkpt lat="42.34473" lon="2.48632">
        <ele>1048.9</ele>
        <time>2019-01-07T01:35:48Z</time>
      </trkpt>
      <trkpt lat="42.3448" lon="2.48638">
        <ele>1048</ele>
        <time>2019-01-07T01:35:50Z</time>
      </trkpt>
      <trkpt lat="42.3449" lon="2.48649">
        <ele>1046.6</ele>
        <time>2019-01-07T01:35:53Z</time>
      </trkpt>
      <trkpt lat="42.34491" lon="2.48653">
        <ele>1045.7</ele>
        <time>2019-01-07T01:35:54Z</time>
      </trkpt>
      <trkpt lat="42.34499" lon="2.48677">
        <ele>1044.1</ele>
        <time>2019-01-07T01:35:59Z</time>
      </trkpt>
      <trkpt lat="42.345" lon="2.48679">
        <ele>1043.7</ele>
        <time>2019-01-07T01:36:00Z</time>
      </trkpt>
      <trkpt lat="42.34505" lon="2.48697">
        <ele>1041.8</ele>
        <time>2019-01-07T01:36:04Z</time>
      </trkpt>
      <trkpt lat="42.34506" lon="2.48699">
        <ele>1041.4</ele>
        <time>2019-01-07T01:36:04Z</time>
      </trkpt>
      <trkpt lat="42.34515" lon="2.48707">
        <ele>1038.5</ele>
        <time>2019-01-07T01:36:07Z</time>
      </trkpt>
      <trkpt lat="42.34522" lon="2.48713">
        <ele>1036.4</ele>
        <time>2019-01-07T01:36:09Z</time>
      </trkpt>
      <trkpt lat="42.34527" lon="2.48719">
        <ele>1035</ele>
        <time>2019-01-07T01:36:11Z</time>
      </trkpt>
      <trkpt lat="42.34528" lon="2.4872">
        <ele>1034</ele>
        <time>2019-01-07T01:36:12Z</time>
      </trkpt>
      <trkpt lat="42.34531" lon="2.4873">
        <ele>1031.2</ele>
        <time>2019-01-07T01:36:14Z</time>
      </trkpt>
      <trkpt lat="42.34531" lon="2.48736">
        <ele>1031.3</ele>
        <time>2019-01-07T01:36:15Z</time>
      </trkpt>
      <trkpt lat="42.34538" lon="2.4874">
        <ele>1031.6</ele>
        <time>2019-01-07T01:36:17Z</time>
      </trkpt>
      <trkpt lat="42.34554" lon="2.48749">
        <ele>1030.2</ele>
        <time>2019-01-07T01:36:21Z</time>
      </trkpt>
      <trkpt lat="42.34562" lon="2.48754">
        <ele>1030.3</ele>
        <time>2019-01-07T01:36:24Z</time>
      </trkpt>
      <trkpt lat="42.34578" lon="2.48764">
        <ele>1028.4</ele>
        <time>2019-01-07T01:36:28Z</time>
      </trkpt>
      <trkpt lat="42.3459" lon="2.48782">
        <ele>1025.9</ele>
        <time>2019-01-07T01:36:33Z</time>
      </trkpt>
      <trkpt lat="42.34596" lon="2.48789">
        <ele>1025.5</ele>
        <time>2019-01-07T01:36:35Z</time>
      </trkpt>
      <trkpt lat="42.34608" lon="2.48806">
        <ele>1023.1</ele>
        <time>2019-01-07T01:36:40Z</time>
      </trkpt>
      <trkpt lat="42.3462" lon="2.48818">
        <ele>1022.1</ele>
        <time>2019-01-07T01:36:44Z</time>
      </trkpt>
      <trkpt lat="42.34623" lon="2.48831">
        <ele>1020.1</ele>
        <time>2019-01-07T01:36:47Z</time>
      </trkpt>
      <trkpt lat="42.34642" lon="2.4884">
        <ele>1017.7</ele>
        <time>2019-01-07T01:36:52Z</time>
      </trkpt>
      <trkpt lat="42.34643" lon="2.4885">
        <ele>1017.3</ele>
        <time>2019-01-07T01:36:54Z</time>
      </trkpt>
      <trkpt lat="42.34642" lon="2.48862">
        <ele>1015.9</ele>
        <time>2019-01-07T01:36:56Z</time>
      </trkpt>
      <trkpt lat="42.34642" lon="2.4888">
        <ele>1015.8</ele>
        <time>2019-01-07T01:37:00Z</time>
      </trkpt>
      <trkpt lat="42.34641" lon="2.48882">
        <ele>1014.4</ele>
        <time>2019-01-07T01:37:00Z</time>
      </trkpt>
      <trkpt lat="42.34638" lon="2.48905">
        <ele>1012.5</ele>
        <time>2019-01-07T01:37:05Z</time>
      </trkpt>
      <trkpt lat="42.34638" lon="2.48919">
        <ele>1012</ele>
        <time>2019-01-07T01:37:08Z</time>
      </trkpt>
      <trkpt lat="42.3464" lon="2.48931">
        <ele>1010.5</ele>
        <time>2019-01-07T01:37:10Z</time>
      </trkpt>
      <trkpt lat="42.34642" lon="2.4896">
        <ele>1007.7</ele>
        <time>2019-01-07T01:37:16Z</time>
      </trkpt>
      <trkpt lat="42.34647" lon="2.48981">
        <ele>1006.3</ele>
        <time>2019-01-07T01:37:20Z</time>
      </trkpt>
      <trkpt lat="42.34651" lon="2.4899">
        <ele>1004.7</ele>
        <time>2019-01-07T01:37:22Z</time>
      </trkpt>
      <trkpt lat="42.34661" lon="2.48998">
        <ele>1003.8</ele>
        <time>2019-01-07T01:37:26Z</time>
      </trkpt>
      <trkpt lat="42.34673" lon="2.49009">
        <ele>1000</ele>
        <time>2019-01-07T01:37:29Z</time>
      </trkpt>
      <trkpt lat="42.3468" lon="2.49022">
        <ele>998</ele>
        <time>2019-01-07T01:37:33Z</time>
      </trkpt>
      <trkpt lat="42.34683" lon="2.49026">
        <ele>997.6</ele>
        <time>2019-01-07T01:37:34Z</time>
      </trkpt>
      <trkpt lat="42.34695" lon="2.49034">
        <ele>995.6</ele>
        <time>2019-01-07T01:37:37Z</time>
      </trkpt>
      <trkpt lat="42.34703" lon="2.4904">
        <ele>994.6</ele>
        <time>2019-01-07T01:37:40Z</time>
      </trkpt>
      <trkpt lat="42.34717" lon="2.49055">
        <ele>994.2</ele>
        <time>2019-01-07T01:37:44Z</time>
      </trkpt>
      <trkpt lat="42.34725" lon="2.4906">
        <ele>993.3</ele>
        <time>2019-01-07T01:37:47Z</time>
      </trkpt>
      <trkpt lat="42.34733" lon="2.49071">
        <ele>992.3</ele>
        <time>2019-01-07T01:37:50Z</time>
      </trkpt>
      <trkpt lat="42.34742" lon="2.49075">
        <ele>990.4</ele>
        <time>2019-01-07T01:37:52Z</time>
      </trkpt>
      <trkpt lat="42.34755" lon="2.49087">
        <ele>986.9</ele>
        <time>2019-01-07T01:37:56Z</time>
      </trkpt>
      <trkpt lat="42.3477" lon="2.49101">
        <ele>984.5</ele>
        <time>2019-01-07T01:38:01Z</time>
      </trkpt>
      <trkpt lat="42.34778" lon="2.49108">
        <ele>982.6</ele>
        <time>2019-01-07T01:38:04Z</time>
      </trkpt>
      <trkpt lat="42.34785" lon="2.49115">
        <ele>980.2</ele>
        <time>2019-01-07T01:38:06Z</time>
      </trkpt>
      <trkpt lat="42.34786" lon="2.49119">
        <ele>980.8</ele>
        <time>2019-01-07T01:38:07Z</time>
      </trkpt>
      <trkpt lat="42.34791" lon="2.49123">
        <ele>978.3</ele>
        <time>2019-01-07T01:38:09Z</time>
      </trkpt>
      <trkpt lat="42.34801" lon="2.4912">
        <ele>975.4</ele>
        <time>2019-01-07T01:38:11Z</time>
      </trkpt>
      <trkpt lat="42.3481" lon="2.49111">
        <ele>974.4</ele>
        <time>2019-01-07T01:38:14Z</time>
      </trkpt>
      <trkpt lat="42.34821" lon="2.49113">
        <ele>974.5</ele>
        <time>2019-01-07T01:38:17Z</time>
      </trkpt>
      <trkpt lat="42.34823" lon="2.49125">
        <ele>974.4</ele>
        <time>2019-01-07T01:38:20Z</time>
      </trkpt>
      <trkpt lat="42.34825" lon="2.49147">
        <ele>972.5</ele>
        <time>2019-01-07T01:38:24Z</time>
      </trkpt>
      <trkpt lat="42.34826" lon="2.49152">
        <ele>972.5</ele>
        <time>2019-01-07T01:38:25Z</time>
      </trkpt>
      <trkpt lat="42.34827" lon="2.49165">
        <ele>972</ele>
        <time>2019-01-07T01:38:28Z</time>
      </trkpt>
      <trkpt lat="42.34827" lon="2.49169">
        <ele>971.2</ele>
        <time>2019-01-07T01:38:28Z</time>
      </trkpt>
      <trkpt lat="42.34827" lon="2.4917">
        <ele>971.2</ele>
        <time>2019-01-07T01:38:29Z</time>
      </trkpt>
      <trkpt lat="42.34828" lon="2.49177">
        <ele>969.7</ele>
        <time>2019-01-07T01:38:30Z</time>
      </trkpt>
      <trkpt lat="42.34831" lon="2.49205">
        <ele>966.4</ele>
        <time>2019-01-07T01:38:36Z</time>
      </trkpt>
      <trkpt lat="42.34832" lon="2.49209">
        <ele>967.3</ele>
        <time>2019-01-07T01:38:36Z</time>
      </trkpt>
      <trkpt lat="42.34831" lon="2.49218">
        <ele>965.4</ele>
        <time>2019-01-07T01:38:38Z</time>
      </trkpt>
      <trkpt lat="42.34838" lon="2.49234">
        <ele>964.4</ele>
        <time>2019-01-07T01:38:42Z</time>
      </trkpt>
      <trkpt lat="42.34843" lon="2.49253">
        <ele>963</ele>
        <time>2019-01-07T01:38:46Z</time>
      </trkpt>
      <trkpt lat="42.34849" lon="2.49279">
        <ele>960</ele>
        <time>2019-01-07T01:38:51Z</time>
      </trkpt>
      <trkpt lat="42.34853" lon="2.49301">
        <ele>960</ele>
        <time>2019-01-07T01:38:56Z</time>
      </trkpt>
      <trkpt lat="42.34854" lon="2.49306">
        <ele>959.1</ele>
        <time>2019-01-07T01:38:57Z</time>
      </trkpt>
      <trkpt lat="42.34854" lon="2.49308">
        <ele>960.1</ele>
        <time>2019-01-07T01:38:57Z</time>
      </trkpt>
      <trkpt lat="42.34855" lon="2.49322">
        <ele>958.6</ele>
        <time>2019-01-07T01:39:00Z</time>
      </trkpt>
      <trkpt lat="42.34862" lon="2.49353">
        <ele>957.2</ele>
        <time>2019-01-07T01:39:06Z</time>
      </trkpt>
      <trkpt lat="42.34876" lon="2.4938">
        <ele>955.8</ele>
        <time>2019-01-07T01:39:13Z</time>
      </trkpt>
      <trkpt lat="42.34882" lon="2.49402">
        <ele>954.3</ele>
        <time>2019-01-07T01:39:17Z</time>
      </trkpt>
      <trkpt lat="42.3489" lon="2.49418">
        <ele>952.8</ele>
        <time>2019-01-07T01:39:21Z</time>
      </trkpt>
      <trkpt lat="42.34895" lon="2.49427">
        <ele>952.4</ele>
        <time>2019-01-07T01:39:23Z</time>
      </trkpt>
      <trkpt lat="42.3491" lon="2.49434">
        <ele>951.4</ele>
        <time>2019-01-07T01:39:28Z</time>
      </trkpt>
      <trkpt lat="42.34909" lon="2.49439">
        <ele>952.3</ele>
        <time>2019-01-07T01:39:28Z</time>
      </trkpt>
      <trkpt lat="42.34908" lon="2.49443">
        <ele>952.8</ele>
        <time>2019-01-07T01:39:29Z</time>
      </trkpt>
      <trkpt lat="42.34903" lon="2.49454">
        <ele>952.8</ele>
        <time>2019-01-07T01:39:32Z</time>
      </trkpt>
      <trkpt lat="42.34909" lon="2.49475">
        <ele>950.9</ele>
        <time>2019-01-07T01:39:36Z</time>
      </trkpt>
      <trkpt lat="42.34914" lon="2.49491">
        <ele>950</ele>
        <time>2019-01-07T01:39:40Z</time>
      </trkpt>
      <trkpt lat="42.34919" lon="2.49511">
        <ele>949</ele>
        <time>2019-01-07T01:39:44Z</time>
      </trkpt>
      <trkpt lat="42.34934" lon="2.49535">
        <ele>945.2</ele>
        <time>2019-01-07T01:39:50Z</time>
      </trkpt>
      <trkpt lat="42.34941" lon="2.4955">
        <ele>943.8</ele>
        <time>2019-01-07T01:39:54Z</time>
      </trkpt>
      <trkpt lat="42.34943" lon="2.49554">
        <ele>943.8</ele>
        <time>2019-01-07T01:39:54Z</time>
      </trkpt>
      <trkpt lat="42.34946" lon="2.49566">
        <ele>945.1</ele>
        <time>2019-01-07T01:39:57Z</time>
      </trkpt>
      <trkpt lat="42.3496" lon="2.49586">
        <ele>943.3</ele>
        <time>2019-01-07T01:40:02Z</time>
      </trkpt>
      <trkpt lat="42.34963" lon="2.49591">
        <ele>941.3</ele>
        <time>2019-01-07T01:40:04Z</time>
      </trkpt>
      <trkpt lat="42.34972" lon="2.49609">
        <ele>941.8</ele>
        <time>2019-01-07T01:40:08Z</time>
      </trkpt>
      <trkpt lat="42.34974" lon="2.49627">
        <ele>939.4</ele>
        <time>2019-01-07T01:40:11Z</time>
      </trkpt>
      <trkpt lat="42.34976" lon="2.49632">
        <ele>937.9</ele>
        <time>2019-01-07T01:40:13Z</time>
      </trkpt>
      <trkpt lat="42.34981" lon="2.49656">
        <ele>937.5</ele>
        <time>2019-01-07T01:40:17Z</time>
      </trkpt>
      <trkpt lat="42.34981" lon="2.4966">
        <ele>938</ele>
        <time>2019-01-07T01:40:18Z</time>
      </trkpt>
      <trkpt lat="42.34983" lon="2.49676">
        <ele>937.5</ele>
        <time>2019-01-07T01:40:22Z</time>
      </trkpt>
      <trkpt lat="42.34987" lon="2.49687">
        <ele>937.5</ele>
        <time>2019-01-07T01:40:24Z</time>
      </trkpt>
      <trkpt lat="42.34995" lon="2.49699">
        <ele>936.6</ele>
        <time>2019-01-07T01:40:27Z</time>
      </trkpt>
      <trkpt lat="42.34994" lon="2.4972">
        <ele>934.2</ele>
        <time>2019-01-07T01:40:31Z</time>
      </trkpt>
      <trkpt lat="42.34995" lon="2.49727">
        <ele>932.6</ele>
        <time>2019-01-07T01:40:33Z</time>
      </trkpt>
      <trkpt lat="42.34994" lon="2.49737">
        <ele>933.6</ele>
        <time>2019-01-07T01:40:35Z</time>
      </trkpt>
      <trkpt lat="42.34997" lon="2.49751">
        <ele>931.7</ele>
        <time>2019-01-07T01:40:37Z</time>
      </trkpt>
      <trkpt lat="42.35001" lon="2.49772">
        <ele>932.6</ele>
        <time>2019-01-07T01:40:42Z</time>
      </trkpt>
      <trkpt lat="42.35002" lon="2.49775">
        <ele>932.1</ele>
        <time>2019-01-07T01:40:42Z</time>
      </trkpt>
      <trkpt lat="42.35007" lon="2.49803">
        <ele>930.3</ele>
        <time>2019-01-07T01:40:48Z</time>
      </trkpt>
      <trkpt lat="42.35009" lon="2.49809">
        <ele>929.3</ele>
        <time>2019-01-07T01:40:49Z</time>
      </trkpt>
      <trkpt lat="42.35009" lon="2.49826">
        <ele>928.9</ele>
        <time>2019-01-07T01:40:53Z</time>
      </trkpt>
      <trkpt lat="42.3502" lon="2.49851">
        <ele>927</ele>
        <time>2019-01-07T01:40:58Z</time>
      </trkpt>
      <trkpt lat="42.35025" lon="2.49864">
        <ele>926.5</ele>
        <time>2019-01-07T01:41:01Z</time>
      </trkpt>
      <trkpt lat="42.35035" lon="2.49897">
        <ele>924.9</ele>
        <time>2019-01-07T01:41:08Z</time>
      </trkpt>
      <trkpt lat="42.35036" lon="2.49899">
        <ele>925.5</ele>
        <time>2019-01-07T01:41:09Z</time>
      </trkpt>
      <trkpt lat="42.35042" lon="2.49912">
        <ele>924</ele>
        <time>2019-01-07T01:41:12Z</time>
      </trkpt>
      <trkpt lat="42.35047" lon="2.49927">
        <ele>924</ele>
        <time>2019-01-07T01:41:15Z</time>
      </trkpt>
      <trkpt lat="42.35049" lon="2.4993">
        <ele>924.9</ele>
        <time>2019-01-07T01:41:16Z</time>
      </trkpt>
      <trkpt lat="42.35058" lon="2.49953">
        <ele>924.1</ele>
        <time>2019-01-07T01:41:21Z</time>
      </trkpt>
      <trkpt lat="42.3506" lon="2.49966">
        <ele>923.6</ele>
        <time>2019-01-07T01:41:24Z</time>
      </trkpt>
      <trkpt lat="42.35072" lon="2.5">
        <ele>923.1</ele>
        <time>2019-01-07T01:41:31Z</time>
      </trkpt>
      <trkpt lat="42.35084" lon="2.5003">
        <ele>922</ele>
        <time>2019-01-07T01:41:38Z</time>
      </trkpt>
      <trkpt lat="42.35087" lon="2.50034">
        <ele>923.5</ele>
        <time>2019-01-07T01:41:39Z</time>
      </trkpt>
      <trkpt lat="42.35094" lon="2.50055">
        <ele>923.1</ele>
        <time>2019-01-07T01:41:43Z</time>
      </trkpt>
      <trkpt lat="42.35097" lon="2.50064">
        <ele>922.6</ele>
        <time>2019-01-07T01:41:45Z</time>
      </trkpt>
      <trkpt lat="42.35108" lon="2.50097">
        <ele>921.6</ele>
        <time>2019-01-07T01:41:52Z</time>
      </trkpt>
      <trkpt lat="42.35109" lon="2.50101">
        <ele>921.2</ele>
        <time>2019-01-07T01:41:53Z</time>
      </trkpt>
      <trkpt lat="42.35116" lon="2.50116">
        <ele>921.6</ele>
        <time>2019-01-07T01:41:57Z</time>
      </trkpt>
      <trkpt lat="42.35123" lon="2.50123">
        <ele>921.6</ele>
        <time>2019-01-07T01:41:59Z</time>
      </trkpt>
      <trkpt lat="42.35127" lon="2.50141">
        <ele>920.7</ele>
        <time>2019-01-07T01:42:03Z</time>
      </trkpt>
      <trkpt lat="42.35129" lon="2.50148">
        <ele>921.1</ele>
        <time>2019-01-07T01:42:04Z</time>
      </trkpt>
      <trkpt lat="42.3513" lon="2.50151">
        <ele>922</ele>
        <time>2019-01-07T01:42:05Z</time>
      </trkpt>
      <trkpt lat="42.35132" lon="2.50161">
        <ele>921.6</ele>
        <time>2019-01-07T01:42:07Z</time>
      </trkpt>
      <trkpt lat="42.35133" lon="2.50168">
        <ele>922.5</ele>
        <time>2019-01-07T01:42:08Z</time>
      </trkpt>
      <trkpt lat="42.35136" lon="2.50177">
        <ele>920.2</ele>
        <time>2019-01-07T01:42:10Z</time>
      </trkpt>
      <trkpt lat="42.35137" lon="2.5018">
        <ele>920.1</ele>
        <time>2019-01-07T01:42:11Z</time>
      </trkpt>
      <trkpt lat="42.35141" lon="2.50187">
        <ele>917.7</ele>
        <time>2019-01-07T01:42:13Z</time>
      </trkpt>
      <trkpt lat="42.35149" lon="2.50207">
        <ele>915.3</ele>
        <time>2019-01-07T01:42:17Z</time>
      </trkpt>
      <trkpt lat="42.35151" lon="2.50212">
        <ele>913.4</ele>
        <time>2019-01-07T01:42:18Z</time>
      </trkpt>
      <trkpt lat="42.3515" lon="2.50218">
        <ele>913.9</ele>
        <time>2019-01-07T01:42:19Z</time>
      </trkpt>
      <trkpt lat="42.35149" lon="2.50225">
        <ele>912.4</ele>
        <time>2019-01-07T01:42:21Z</time>
      </trkpt>
      <trkpt lat="42.35151" lon="2.5023">
        <ele>911.1</ele>
        <time>2019-01-07T01:42:22Z</time>
      </trkpt>
      <trkpt lat="42.35162" lon="2.50237">
        <ele>906.8</ele>
        <time>2019-01-07T01:42:25Z</time>
      </trkpt>
      <trkpt lat="42.35173" lon="2.50242">
        <ele>904.4</ele>
        <time>2019-01-07T01:42:28Z</time>
      </trkpt>
      <trkpt lat="42.35188" lon="2.50244">
        <ele>902.9</ele>
        <time>2019-01-07T01:42:32Z</time>
      </trkpt>
      <trkpt lat="42.35189" lon="2.50244">
        <ele>902.3</ele>
        <time>2019-01-07T01:42:33Z</time>
      </trkpt>
      <trkpt lat="42.35193" lon="2.50246">
        <ele>902.4</ele>
        <time>2019-01-07T01:42:34Z</time>
      </trkpt>
      <trkpt lat="42.3521" lon="2.50243">
        <ele>899.1</ele>
        <time>2019-01-07T01:42:38Z</time>
      </trkpt>
      <trkpt lat="42.35214" lon="2.50249">
        <ele>900.5</ele>
        <time>2019-01-07T01:42:40Z</time>
      </trkpt>
      <trkpt lat="42.35223" lon="2.50266">
        <ele>903.8</ele>
        <time>2019-01-07T01:42:44Z</time>
      </trkpt>
      <trkpt lat="42.35224" lon="2.50268">
        <ele>902.3</ele>
        <time>2019-01-07T01:42:45Z</time>
      </trkpt>
      <trkpt lat="42.35231" lon="2.50281">
        <ele>902</ele>
        <time>2019-01-07T01:42:48Z</time>
      </trkpt>
      <trkpt lat="42.35235" lon="2.5029">
        <ele>901.9</ele>
        <time>2019-01-07T01:42:50Z</time>
      </trkpt>
      <trkpt lat="42.35234" lon="2.503">
        <ele>902.3</ele>
        <time>2019-01-07T01:42:52Z</time>
      </trkpt>
      <trkpt lat="42.35234" lon="2.50307">
        <ele>902.4</ele>
        <time>2019-01-07T01:42:53Z</time>
      </trkpt>
      <trkpt lat="42.35239" lon="2.50328">
        <ele>901.5</ele>
        <time>2019-01-07T01:42:58Z</time>
      </trkpt>
      <trkpt lat="42.35243" lon="2.50347">
        <ele>899.5</ele>
        <time>2019-01-07T01:43:02Z</time>
      </trkpt>
      <trkpt lat="42.35247" lon="2.50354">
        <ele>898</ele>
        <time>2019-01-07T01:43:03Z</time>
      </trkpt>
      <trkpt lat="42.35245" lon="2.50371">
        <ele>897.2</ele>
        <time>2019-01-07T01:43:07Z</time>
      </trkpt>
      <trkpt lat="42.3525" lon="2.504">
        <ele>896.6</ele>
        <time>2019-01-07T01:43:12Z</time>
      </trkpt>
      <trkpt lat="42.35251" lon="2.50416">
        <ele>895.6</ele>
        <time>2019-01-07T01:43:16Z</time>
      </trkpt>
      <trkpt lat="42.3525" lon="2.50427">
        <ele>896.1</ele>
        <time>2019-01-07T01:43:18Z</time>
      </trkpt>
      <trkpt lat="42.35249" lon="2.50434">
        <ele>897.1</ele>
        <time>2019-01-07T01:43:19Z</time>
      </trkpt>
      <trkpt lat="42.35248" lon="2.50446">
        <ele>898</ele>
        <time>2019-01-07T01:43:22Z</time>
      </trkpt>
      <trkpt lat="42.35243" lon="2.50471">
        <ele>896.1</ele>
        <time>2019-01-07T01:43:27Z</time>
      </trkpt>
      <trkpt lat="42.35243" lon="2.50487">
        <ele>895.6</ele>
        <time>2019-01-07T01:43:30Z</time>
      </trkpt>
      <trkpt lat="42.35244" lon="2.50521">
        <ele>895.7</ele>
        <time>2019-01-07T01:43:37Z</time>
      </trkpt>
      <trkpt lat="42.35249" lon="2.50537">
        <ele>895.7</ele>
        <time>2019-01-07T01:43:40Z</time>
      </trkpt>
      <trkpt lat="42.3525" lon="2.50544">
        <ele>896.6</ele>
        <time>2019-01-07T01:43:41Z</time>
      </trkpt>
      <trkpt lat="42.35255" lon="2.50568">
        <ele>897.6</ele>
        <time>2019-01-07T01:43:46Z</time>
      </trkpt>
      <trkpt lat="42.35256" lon="2.50579">
        <ele>897.2</ele>
        <time>2019-01-07T01:43:49Z</time>
      </trkpt>
      <trkpt lat="42.35251" lon="2.50591">
        <ele>896.6</ele>
        <time>2019-01-07T01:43:51Z</time>
      </trkpt>
      <trkpt lat="42.35254" lon="2.50598">
        <ele>895.1</ele>
        <time>2019-01-07T01:43:53Z</time>
      </trkpt>
      <trkpt lat="42.35255" lon="2.506">
        <ele>894.3</ele>
        <time>2019-01-07T01:43:53Z</time>
      </trkpt>
      <trkpt lat="42.35262" lon="2.50617">
        <ele>893.7</ele>
        <time>2019-01-07T01:43:57Z</time>
      </trkpt>
      <trkpt lat="42.35264" lon="2.50619">
        <ele>893.8</ele>
        <time>2019-01-07T01:43:58Z</time>
      </trkpt>
      <trkpt lat="42.35267" lon="2.50624">
        <ele>892.8</ele>
        <time>2019-01-07T01:43:59Z</time>
      </trkpt>
      <trkpt lat="42.35275" lon="2.50642">
        <ele>890.9</ele>
        <time>2019-01-07T01:44:03Z</time>
      </trkpt>
      <trkpt lat="42.35277" lon="2.50651">
        <ele>890.3</ele>
        <time>2019-01-07T01:44:05Z</time>
      </trkpt>
      <trkpt lat="42.35282" lon="2.50658">
        <ele>891.4</ele>
        <time>2019-01-07T01:44:07Z</time>
      </trkpt>
      <trkpt lat="42.35288" lon="2.50668">
        <ele>891.3</ele>
        <time>2019-01-07T01:44:09Z</time>
      </trkpt>
      <trkpt lat="42.35294" lon="2.50674">
        <ele>891.3</ele>
        <time>2019-01-07T01:44:11Z</time>
      </trkpt>
      <trkpt lat="42.35306" lon="2.50693">
        <ele>890.8</ele>
        <time>2019-01-07T01:44:16Z</time>
      </trkpt>
      <trkpt lat="42.35309" lon="2.50701">
        <ele>891.3</ele>
        <time>2019-01-07T01:44:18Z</time>
      </trkpt>
      <trkpt lat="42.35318" lon="2.50735">
        <ele>889.9</ele>
        <time>2019-01-07T01:44:25Z</time>
      </trkpt>
      <trkpt lat="42.35323" lon="2.50751">
        <ele>889.9</ele>
        <time>2019-01-07T01:44:29Z</time>
      </trkpt>
      <trkpt lat="42.35333" lon="2.50776">
        <ele>886.1</ele>
        <time>2019-01-07T01:44:34Z</time>
      </trkpt>
      <trkpt lat="42.35335" lon="2.50777">
        <ele>888</ele>
        <time>2019-01-07T01:44:35Z</time>
      </trkpt>
      <trkpt lat="42.35336" lon="2.50779">
        <ele>887.9</ele>
        <time>2019-01-07T01:44:35Z</time>
      </trkpt>
      <trkpt lat="42.35345" lon="2.50788">
        <ele>887.1</ele>
        <time>2019-01-07T01:44:38Z</time>
      </trkpt>
      <trkpt lat="42.35357" lon="2.50803">
        <ele>887</ele>
        <time>2019-01-07T01:44:43Z</time>
      </trkpt>
      <trkpt lat="42.35367" lon="2.50814">
        <ele>886.5</ele>
        <time>2019-01-07T01:44:46Z</time>
      </trkpt>
      <trkpt lat="42.35383" lon="2.50821">
        <ele>885.5</ele>
        <time>2019-01-07T01:44:50Z</time>
      </trkpt>
      <trkpt lat="42.35384" lon="2.50822">
        <ele>885.5</ele>
        <time>2019-01-07T01:44:51Z</time>
      </trkpt>
      <trkpt lat="42.354" lon="2.50828">
        <ele>884.6</ele>
        <time>2019-01-07T01:44:55Z</time>
      </trkpt>
      <trkpt lat="42.35409" lon="2.50847">
        <ele>885.6</ele>
        <time>2019-01-07T01:45:00Z</time>
      </trkpt>
      <trkpt lat="42.35409" lon="2.5085">
        <ele>886</ele>
        <time>2019-01-07T01:45:00Z</time>
      </trkpt>
      <trkpt lat="42.35407" lon="2.50871">
        <ele>886.6</ele>
        <time>2019-01-07T01:45:05Z</time>
      </trkpt>
      <trkpt lat="42.35407" lon="2.50872">
        <ele>889</ele>
        <time>2019-01-07T01:45:05Z</time>
      </trkpt>
      <trkpt lat="42.35404" lon="2.50885">
        <ele>886.1</ele>
        <time>2019-01-07T01:45:07Z</time>
      </trkpt>
      <trkpt lat="42.35398" lon="2.50889">
        <ele>885</ele>
        <time>2019-01-07T01:45:09Z</time>
      </trkpt>
      <trkpt lat="42.35391" lon="2.509">
        <ele>883.1</ele>
        <time>2019-01-07T01:45:12Z</time>
      </trkpt>
      <trkpt lat="42.35391" lon="2.50917">
        <ele>881.3</ele>
        <time>2019-01-07T01:45:15Z</time>
      </trkpt>
      <trkpt lat="42.35395" lon="2.50951">
        <ele>880.2</ele>
        <time>2019-01-07T01:45:22Z</time>
      </trkpt>
      <trkpt lat="42.35404" lon="2.50974">
        <ele>878.8</ele>
        <time>2019-01-07T01:45:27Z</time>
      </trkpt>
      <trkpt lat="42.35406" lon="2.50979">
        <ele>878.3</ele>
        <time>2019-01-07T01:45:28Z</time>
      </trkpt>
      <trkpt lat="42.35408" lon="2.50982">
        <ele>878.9</ele>
        <time>2019-01-07T01:45:29Z</time>
      </trkpt>
      <trkpt lat="42.35412" lon="2.51">
        <ele>874</ele>
        <time>2019-01-07T01:45:33Z</time>
      </trkpt>
      <trkpt lat="42.35413" lon="2.51003">
        <ele>875.4</ele>
        <time>2019-01-07T01:45:34Z</time>
      </trkpt>
      <trkpt lat="42.35413" lon="2.51012">
        <ele>874.6</ele>
        <time>2019-01-07T01:45:35Z</time>
      </trkpt>
      <trkpt lat="42.35418" lon="2.51031">
        <ele>872.5</ele>
        <time>2019-01-07T01:45:39Z</time>
      </trkpt>
      <trkpt lat="42.35417" lon="2.51053">
        <ele>871.6</ele>
        <time>2019-01-07T01:45:44Z</time>
      </trkpt>
      <trkpt lat="42.35417" lon="2.51075">
        <ele>868.7</ele>
        <time>2019-01-07T01:45:48Z</time>
      </trkpt>
      <trkpt lat="42.35417" lon="2.5109">
        <ele>866.3</ele>
        <time>2019-01-07T01:45:51Z</time>
      </trkpt>
      <trkpt lat="42.35424" lon="2.51124">
        <ele>863.4</ele>
        <time>2019-01-07T01:45:58Z</time>
      </trkpt>
      <trkpt lat="42.35426" lon="2.51131">
        <ele>862.4</ele>
        <time>2019-01-07T01:45:59Z</time>
      </trkpt>
      <trkpt lat="42.35432" lon="2.51146">
        <ele>859.1</ele>
        <time>2019-01-07T01:46:03Z</time>
      </trkpt>
      <trkpt lat="42.35439" lon="2.51161">
        <ele>857.2</ele>
        <time>2019-01-07T01:46:06Z</time>
      </trkpt>
      <trkpt lat="42.35444" lon="2.5118">
        <ele>854.3</ele>
        <time>2019-01-07T01:46:10Z</time>
      </trkpt>
      <trkpt lat="42.35445" lon="2.51184">
        <ele>854.3</ele>
        <time>2019-01-07T01:46:11Z</time>
      </trkpt>
      <trkpt lat="42.35446" lon="2.51188">
        <ele>852.9</ele>
        <time>2019-01-07T01:46:12Z</time>
      </trkpt>
      <trkpt lat="42.35448" lon="2.51192">
        <ele>853.4</ele>
        <time>2019-01-07T01:46:13Z</time>
      </trkpt>
      <trkpt lat="42.35455" lon="2.51201">
        <ele>851</ele>
        <time>2019-01-07T01:46:15Z</time>
      </trkpt>
      <trkpt lat="42.35463" lon="2.51208">
        <ele>848</ele>
        <time>2019-01-07T01:46:18Z</time>
      </trkpt>
      <trkpt lat="42.35459" lon="2.51212">
        <ele>846.1</ele>
        <time>2019-01-07T01:46:19Z</time>
      </trkpt>
      <trkpt lat="42.35458" lon="2.51214">
        <ele>845.1</ele>
        <time>2019-01-07T01:46:20Z</time>
      </trkpt>
      <trkpt lat="42.35458" lon="2.51218">
        <ele>844.7</ele>
        <time>2019-01-07T01:46:21Z</time>
      </trkpt>
      <trkpt lat="42.35464" lon="2.51221">
        <ele>842.7</ele>
        <time>2019-01-07T01:46:22Z</time>
      </trkpt>
      <trkpt lat="42.35466" lon="2.51222">
        <ele>842.4</ele>
        <time>2019-01-07T01:46:23Z</time>
      </trkpt>
      <trkpt lat="42.35474" lon="2.51229">
        <ele>839.4</ele>
        <time>2019-01-07T01:46:26Z</time>
      </trkpt>
      <trkpt lat="42.35473" lon="2.51238">
        <ele>837.9</ele>
        <time>2019-01-07T01:46:27Z</time>
      </trkpt>
      <trkpt lat="42.35472" lon="2.51254">
        <ele>836.1</ele>
        <time>2019-01-07T01:46:31Z</time>
      </trkpt>
      <trkpt lat="42.35478" lon="2.51268">
        <ele>834.2</ele>
        <time>2019-01-07T01:46:34Z</time>
      </trkpt>
      <trkpt lat="42.35492" lon="2.51288">
        <ele>832.7</ele>
        <time>2019-01-07T01:46:39Z</time>
      </trkpt>
      <trkpt lat="42.35493" lon="2.51292">
        <ele>832.3</ele>
        <time>2019-01-07T01:46:40Z</time>
      </trkpt>
      <trkpt lat="42.355" lon="2.5131">
        <ele>831.3</ele>
        <time>2019-01-07T01:46:44Z</time>
      </trkpt>
      <trkpt lat="42.35503" lon="2.51322">
        <ele>829.3</ele>
        <time>2019-01-07T01:46:46Z</time>
      </trkpt>
      <trkpt lat="42.35516" lon="2.5134">
        <ele>827.8</ele>
        <time>2019-01-07T01:46:51Z</time>
      </trkpt>
      <trkpt lat="42.35529" lon="2.51375">
        <ele>825</ele>
        <time>2019-01-07T01:46:59Z</time>
      </trkpt>
      <trkpt lat="42.35528" lon="2.51387">
        <ele>823</ele>
        <time>2019-01-07T01:47:02Z</time>
      </trkpt>
      <trkpt lat="42.35529" lon="2.51392">
        <ele>822.1</ele>
        <time>2019-01-07T01:47:02Z</time>
      </trkpt>
      <trkpt lat="42.35528" lon="2.51401">
        <ele>820.6</ele>
        <time>2019-01-07T01:47:04Z</time>
      </trkpt>
      <trkpt lat="42.35529" lon="2.5142">
        <ele>817.8</ele>
        <time>2019-01-07T01:47:08Z</time>
      </trkpt>
      <trkpt lat="42.35531" lon="2.51427">
        <ele>818.3</ele>
        <time>2019-01-07T01:47:09Z</time>
      </trkpt>
      <trkpt lat="42.35532" lon="2.51434">
        <ele>817.4</ele>
        <time>2019-01-07T01:47:11Z</time>
      </trkpt>
      <trkpt lat="42.35532" lon="2.51439">
        <ele>817.4</ele>
        <time>2019-01-07T01:47:12Z</time>
      </trkpt>
      <trkpt lat="42.35524" lon="2.5145">
        <ele>817.4</ele>
        <time>2019-01-07T01:47:15Z</time>
      </trkpt>
      <trkpt lat="42.3552" lon="2.51457">
        <ele>817.3</ele>
        <time>2019-01-07T01:47:17Z</time>
      </trkpt>
      <trkpt lat="42.35513" lon="2.5148">
        <ele>818.7</ele>
        <time>2019-01-07T01:47:22Z</time>
      </trkpt>
      <trkpt lat="42.35513" lon="2.51487">
        <ele>817.3</ele>
        <time>2019-01-07T01:47:23Z</time>
      </trkpt>
      <trkpt lat="42.35522" lon="2.51517">
        <ele>815.9</ele>
        <time>2019-01-07T01:47:29Z</time>
      </trkpt>
      <trkpt lat="42.35536" lon="2.5155">
        <ele>815.4</ele>
        <time>2019-01-07T01:47:37Z</time>
      </trkpt>
      <trkpt lat="42.35535" lon="2.51551">
        <ele>815</ele>
        <time>2019-01-07T01:47:37Z</time>
      </trkpt>
      <trkpt lat="42.35535" lon="2.51555">
        <ele>815.4</ele>
        <time>2019-01-07T01:47:38Z</time>
      </trkpt>
      <trkpt lat="42.35537" lon="2.5156">
        <ele>814.5</ele>
        <time>2019-01-07T01:47:39Z</time>
      </trkpt>
      <trkpt lat="42.35547" lon="2.51573">
        <ele>811.6</ele>
        <time>2019-01-07T01:47:43Z</time>
      </trkpt>
      <trkpt lat="42.35548" lon="2.51581">
        <ele>811.1</ele>
        <time>2019-01-07T01:47:44Z</time>
      </trkpt>
      <trkpt lat="42.35559" lon="2.51583">
        <ele>807.6</ele>
        <time>2019-01-07T01:47:47Z</time>
      </trkpt>
      <trkpt lat="42.35563" lon="2.51586">
        <ele>807.2</ele>
        <time>2019-01-07T01:47:49Z</time>
      </trkpt>
      <trkpt lat="42.35569" lon="2.5159">
        <ele>805.2</ele>
        <time>2019-01-07T01:47:50Z</time>
      </trkpt>
      <trkpt lat="42.35578" lon="2.51594">
        <ele>803.3</ele>
        <time>2019-01-07T01:47:53Z</time>
      </trkpt>
      <trkpt lat="42.35581" lon="2.51595">
        <ele>802.4</ele>
        <time>2019-01-07T01:47:54Z</time>
      </trkpt>
      <trkpt lat="42.35585" lon="2.51599">
        <ele>801.4</ele>
        <time>2019-01-07T01:47:55Z</time>
      </trkpt>
      <trkpt lat="42.35594" lon="2.51604">
        <ele>799.6</ele>
        <time>2019-01-07T01:47:58Z</time>
      </trkpt>
      <trkpt lat="42.35602" lon="2.51608">
        <ele>798</ele>
        <time>2019-01-07T01:48:00Z</time>
      </trkpt>
      <trkpt lat="42.35605" lon="2.5161">
        <ele>796.7</ele>
        <time>2019-01-07T01:48:01Z</time>
      </trkpt>
      <trkpt lat="42.35611" lon="2.51613">
        <ele>795.7</ele>
        <time>2019-01-07T01:48:03Z</time>
      </trkpt>
      <trkpt lat="42.3562" lon="2.51619">
        <ele>792.4</ele>
        <time>2019-01-07T01:48:05Z</time>
      </trkpt>
      <trkpt lat="42.35634" lon="2.51627">
        <ele>789.4</ele>
        <time>2019-01-07T01:48:09Z</time>
      </trkpt>
      <trkpt lat="42.3564" lon="2.51632">
        <ele>789.4</ele>
        <time>2019-01-07T01:48:11Z</time>
      </trkpt>
      <trkpt lat="42.35649" lon="2.5164">
        <ele>788.4</ele>
        <time>2019-01-07T01:48:14Z</time>
      </trkpt>
      <trkpt lat="42.35664" lon="2.51655">
        <ele>787</ele>
        <time>2019-01-07T01:48:19Z</time>
      </trkpt>
      <trkpt lat="42.35666" lon="2.51656">
        <ele>787.1</ele>
        <time>2019-01-07T01:48:20Z</time>
      </trkpt>
      <trkpt lat="42.35676" lon="2.51662">
        <ele>785.1</ele>
        <time>2019-01-07T01:48:23Z</time>
      </trkpt>
      <trkpt lat="42.35685" lon="2.51672">
        <ele>783.7</ele>
        <time>2019-01-07T01:48:26Z</time>
      </trkpt>
      <trkpt lat="42.35702" lon="2.51697">
        <ele>780.7</ele>
        <time>2019-01-07T01:48:32Z</time>
      </trkpt>
      <trkpt lat="42.35723" lon="2.51706">
        <ele>778.3</ele>
        <time>2019-01-07T01:48:38Z</time>
      </trkpt>
      <trkpt lat="42.35721" lon="2.51708">
        <ele>779.9</ele>
        <time>2019-01-07T01:48:39Z</time>
      </trkpt>
      <trkpt lat="42.35717" lon="2.51708">
        <ele>779.9</ele>
        <time>2019-01-07T01:48:40Z</time>
      </trkpt>
      <trkpt lat="42.35719" lon="2.51708">
        <ele>777.9</ele>
        <time>2019-01-07T01:48:40Z</time>
      </trkpt>
      <trkpt lat="42.3572" lon="2.51707">
        <ele>778.8</ele>
        <time>2019-01-07T01:48:41Z</time>
      </trkpt>
      <trkpt lat="42.35731" lon="2.51708">
        <ele>777.8</ele>
        <time>2019-01-07T01:48:43Z</time>
      </trkpt>
      <trkpt lat="42.35745" lon="2.51734">
        <ele>776.9</ele>
        <time>2019-01-07T01:48:50Z</time>
      </trkpt>
      <trkpt lat="42.35763" lon="2.51735">
        <ele>777.8</ele>
        <time>2019-01-07T01:48:55Z</time>
      </trkpt>
      <trkpt lat="42.35782" lon="2.51735">
        <ele>780.4</ele>
        <time>2019-01-07T01:49:00Z</time>
      </trkpt>
      <trkpt lat="42.35788" lon="2.51735">
        <ele>780.4</ele>
        <time>2019-01-07T01:49:01Z</time>
      </trkpt>
      <trkpt lat="42.3579" lon="2.51735">
        <ele>779.8</ele>
        <time>2019-01-07T01:49:02Z</time>
      </trkpt>
      <trkpt lat="42.35806" lon="2.51742">
        <ele>779.9</ele>
        <time>2019-01-07T01:49:06Z</time>
      </trkpt>
      <trkpt lat="42.35816" lon="2.51751">
        <ele>779.8</ele>
        <time>2019-01-07T01:49:09Z</time>
      </trkpt>
      <trkpt lat="42.35826" lon="2.5176">
        <ele>780.3</ele>
        <time>2019-01-07T01:49:13Z</time>
      </trkpt>
      <trkpt lat="42.35841" lon="2.51789">
        <ele>780.8</ele>
        <time>2019-01-07T01:49:20Z</time>
      </trkpt>
      <trkpt lat="42.35851" lon="2.51811">
        <ele>781.3</ele>
        <time>2019-01-07T01:49:25Z</time>
      </trkpt>
      <trkpt lat="42.35872" lon="2.51836">
        <ele>780.3</ele>
        <time>2019-01-07T01:49:32Z</time>
      </trkpt>
      <trkpt lat="42.35894" lon="2.51852">
        <ele>778.8</ele>
        <time>2019-01-07T01:49:39Z</time>
      </trkpt>
      <trkpt lat="42.35915" lon="2.51865">
        <ele>778.3</ele>
        <time>2019-01-07T01:49:45Z</time>
      </trkpt>
      <trkpt lat="42.35929" lon="2.51878">
        <ele>777.5</ele>
        <time>2019-01-07T01:49:50Z</time>
      </trkpt>
      <trkpt lat="42.35933" lon="2.5189">
        <ele>777.5</ele>
        <time>2019-01-07T01:49:52Z</time>
      </trkpt>
      <trkpt lat="42.35937" lon="2.51904">
        <ele>776.4</ele>
        <time>2019-01-07T01:49:55Z</time>
      </trkpt>
      <trkpt lat="42.35941" lon="2.51938">
        <ele>775.1</ele>
        <time>2019-01-07T01:50:02Z</time>
      </trkpt>
      <trkpt lat="42.35946" lon="2.51937">
        <ele>775.5</ele>
        <time>2019-01-07T01:50:03Z</time>
      </trkpt>
      <trkpt lat="42.35946" lon="2.51939">
        <ele>775</ele>
        <time>2019-01-07T01:50:04Z</time>
      </trkpt>
      <trkpt lat="42.35946" lon="2.51942">
        <ele>775.5</ele>
        <time>2019-01-07T01:50:04Z</time>
      </trkpt>
      <trkpt lat="42.35944" lon="2.51962">
        <ele>774.1</ele>
        <time>2019-01-07T01:50:08Z</time>
      </trkpt>
      <trkpt lat="42.35943" lon="2.51979">
        <ele>773</ele>
        <time>2019-01-07T01:50:12Z</time>
      </trkpt>
      <trkpt lat="42.35941" lon="2.51994">
        <ele>773.5</ele>
        <time>2019-01-07T01:50:15Z</time>
      </trkpt>
      <trkpt lat="42.35929" lon="2.52021">
        <ele>771.7</ele>
        <time>2019-01-07T01:50:21Z</time>
      </trkpt>
      <trkpt lat="42.35924" lon="2.52037">
        <ele>771.6</ele>
        <time>2019-01-07T01:50:24Z</time>
      </trkpt>
      <trkpt lat="42.35922" lon="2.5205">
        <ele>770.6</ele>
        <time>2019-01-07T01:50:27Z</time>
      </trkpt>
      <trkpt lat="42.35923" lon="2.52063">
        <ele>770.6</ele>
        <time>2019-01-07T01:50:29Z</time>
      </trkpt>
      <trkpt lat="42.35927" lon="2.5207">
        <ele>771.1</ele>
        <time>2019-01-07T01:50:31Z</time>
      </trkpt>
      <trkpt lat="42.35941" lon="2.52078">
        <ele>770.2</ele>
        <time>2019-01-07T01:50:35Z</time>
      </trkpt>
      <trkpt lat="42.35958" lon="2.52062">
        <ele>771.7</ele>
        <time>2019-01-07T01:50:41Z</time>
      </trkpt>
      <trkpt lat="42.3597" lon="2.52038">
        <ele>772.6</ele>
        <time>2019-01-07T01:50:46Z</time>
      </trkpt>
      <trkpt lat="42.35982" lon="2.5201">
        <ele>772.6</ele>
        <time>2019-01-07T01:50:53Z</time>
      </trkpt>
      <trkpt lat="42.35992" lon="2.51984">
        <ele>773.5</ele>
        <time>2019-01-07T01:50:58Z</time>
      </trkpt>
      <trkpt lat="42.36011" lon="2.51969">
        <ele>774.5</ele>
        <time>2019-01-07T01:51:04Z</time>
      </trkpt>
      <trkpt lat="42.36017" lon="2.51965">
        <ele>774</ele>
        <time>2019-01-07T01:51:06Z</time>
      </trkpt>
      <trkpt lat="42.36021" lon="2.51964">
        <ele>777.9</ele>
        <time>2019-01-07T01:51:07Z</time>
      </trkpt>
      <trkpt lat="42.36021" lon="2.51964">
        <ele>777.9</ele>
        <time>2019-01-07T01:51:07Z</time>
      </trkpt>
      <trkpt lat="42.36021" lon="2.51964">
        <ele>774.1</ele>
        <time>2019-01-07T01:51:07Z</time>
      </trkpt>
      <trkpt lat="42.36021" lon="2.51963">
        <ele>775.1</ele>
        <time>2019-01-07T01:51:07Z</time>
      </trkpt>
      <trkpt lat="42.36022" lon="2.51963">
        <ele>771.7</ele>
        <time>2019-01-07T01:51:08Z</time>
      </trkpt>
      <trkpt lat="42.36022" lon="2.51963">
        <ele>771.6</ele>
        <time>2019-01-07T01:51:08Z</time>
      </trkpt>
      <trkpt lat="42.36021" lon="2.51962">
        <ele>777.9</ele>
        <time>2019-01-07T01:51:08Z</time>
      </trkpt>
      <trkpt lat="42.36021" lon="2.51961">
        <ele>774</ele>
        <time>2019-01-07T01:51:08Z</time>
      </trkpt>
      <trkpt lat="42.36019" lon="2.5196">
        <ele>773.5</ele>
        <time>2019-01-07T01:51:09Z</time>
      </trkpt>
      <trkpt lat="42.36018" lon="2.51959">
        <ele>774</ele>
        <time>2019-01-07T01:51:09Z</time>
      </trkpt>
      <trkpt lat="42.36019" lon="2.51959">
        <ele>775.1</ele>
        <time>2019-01-07T01:51:09Z</time>
      </trkpt>
      <trkpt lat="42.3602" lon="2.51957">
        <ele>773.5</ele>
        <time>2019-01-07T01:51:10Z</time>
      </trkpt>
      <trkpt lat="42.36036" lon="2.51952">
        <ele>773.5</ele>
        <time>2019-01-07T01:51:14Z</time>
      </trkpt>
      <trkpt lat="42.36042" lon="2.51949">
        <ele>773.1</ele>
        <time>2019-01-07T01:51:16Z</time>
      </trkpt>
      <trkpt lat="42.36061" lon="2.51942">
        <ele>775.1</ele>
        <time>2019-01-07T01:51:21Z</time>
      </trkpt>
      <trkpt lat="42.36072" lon="2.5194">
        <ele>776.4</ele>
        <time>2019-01-07T01:51:24Z</time>
      </trkpt>
      <trkpt lat="42.36081" lon="2.51931">
        <ele>775</ele>
        <time>2019-01-07T01:51:27Z</time>
      </trkpt>
      <trkpt lat="42.36078" lon="2.5193">
        <ele>772.2</ele>
        <time>2019-01-07T01:51:28Z</time>
      </trkpt>
      <trkpt lat="42.36076" lon="2.51925">
        <ele>768.7</ele>
        <time>2019-01-07T01:51:29Z</time>
      </trkpt>
      <trkpt lat="42.36076" lon="2.51924">
        <ele>768.2</ele>
        <time>2019-01-07T01:51:29Z</time>
      </trkpt>
      <trkpt lat="42.36079" lon="2.51919">
        <ele>766.8</ele>
        <time>2019-01-07T01:51:31Z</time>
      </trkpt>
      <trkpt lat="42.36102" lon="2.51904">
        <ele>763.9</ele>
        <time>2019-01-07T01:51:37Z</time>
      </trkpt>
      <trkpt lat="42.36112" lon="2.51897">
        <ele>762</ele>
        <time>2019-01-07T01:51:40Z</time>
      </trkpt>
      <trkpt lat="42.36122" lon="2.51894">
        <ele>760.1</ele>
        <time>2019-01-07T01:51:43Z</time>
      </trkpt>
      <trkpt lat="42.36128" lon="2.51892">
        <ele>757.8</ele>
        <time>2019-01-07T01:51:45Z</time>
      </trkpt>
      <trkpt lat="42.36137" lon="2.51888">
        <ele>755.7</ele>
        <time>2019-01-07T01:51:47Z</time>
      </trkpt>
      <trkpt lat="42.36139" lon="2.51887">
        <ele>756.7</ele>
        <time>2019-01-07T01:51:48Z</time>
      </trkpt>
      <trkpt lat="42.3616" lon="2.51867">
        <ele>753.8</ele>
        <time>2019-01-07T01:51:55Z</time>
      </trkpt>
      <trkpt lat="42.36161" lon="2.51866">
        <ele>753.8</ele>
        <time>2019-01-07T01:51:55Z</time>
      </trkpt>
      <trkpt lat="42.36165" lon="2.51856">
        <ele>754.8</ele>
        <time>2019-01-07T01:51:57Z</time>
      </trkpt>
      <trkpt lat="42.3617" lon="2.51838">
        <ele>753.8</ele>
        <time>2019-01-07T01:52:01Z</time>
      </trkpt>
      <trkpt lat="42.36192" lon="2.51826">
        <ele>751.4</ele>
        <time>2019-01-07T01:52:07Z</time>
      </trkpt>
      <trkpt lat="42.36212" lon="2.51816">
        <ele>751.4</ele>
        <time>2019-01-07T01:52:13Z</time>
      </trkpt>
      <trkpt lat="42.36215" lon="2.51814">
        <ele>751.4</ele>
        <time>2019-01-07T01:52:14Z</time>
      </trkpt>
      <trkpt lat="42.36233" lon="2.51802">
        <ele>752.5</ele>
        <time>2019-01-07T01:52:19Z</time>
      </trkpt>
      <trkpt lat="42.36246" lon="2.51794">
        <ele>754.9</ele>
        <time>2019-01-07T01:52:23Z</time>
      </trkpt>
      <trkpt lat="42.36257" lon="2.51782">
        <ele>758.2</ele>
        <time>2019-01-07T01:52:27Z</time>
      </trkpt>
      <trkpt lat="42.3626" lon="2.51781">
        <ele>758.1</ele>
        <time>2019-01-07T01:52:28Z</time>
      </trkpt>
      <trkpt lat="42.36279" lon="2.51776">
        <ele>757.3</ele>
        <time>2019-01-07T01:52:33Z</time>
      </trkpt>
      <trkpt lat="42.36288" lon="2.51773">
        <ele>756.8</ele>
        <time>2019-01-07T01:52:35Z</time>
      </trkpt>
      <trkpt lat="42.36291" lon="2.51768">
        <ele>756.2</ele>
        <time>2019-01-07T01:52:37Z</time>
      </trkpt>
      <trkpt lat="42.36295" lon="2.51767">
        <ele>755.3</ele>
        <time>2019-01-07T01:52:38Z</time>
      </trkpt>
      <trkpt lat="42.36308" lon="2.51759">
        <ele>756.2</ele>
        <time>2019-01-07T01:52:42Z</time>
      </trkpt>
      <trkpt lat="42.36318" lon="2.5176">
        <ele>757.2</ele>
        <time>2019-01-07T01:52:44Z</time>
      </trkpt>
      <trkpt lat="42.36321" lon="2.51762">
        <ele>756.8</ele>
        <time>2019-01-07T01:52:45Z</time>
      </trkpt>
      <trkpt lat="42.36325" lon="2.51763">
        <ele>759.2</ele>
        <time>2019-01-07T01:52:46Z</time>
      </trkpt>
      <trkpt lat="42.36332" lon="2.51759">
        <ele>760.2</ele>
        <time>2019-01-07T01:52:48Z</time>
      </trkpt>
      <trkpt lat="42.36341" lon="2.51744">
        <ele>761.5</ele>
        <time>2019-01-07T01:52:52Z</time>
      </trkpt>
      <trkpt lat="42.36348" lon="2.5173">
        <ele>762.5</ele>
        <time>2019-01-07T01:52:55Z</time>
      </trkpt>
      <trkpt lat="42.36346" lon="2.51727">
        <ele>763.4</ele>
        <time>2019-01-07T01:52:56Z</time>
      </trkpt>
      <trkpt lat="42.36344" lon="2.51727">
        <ele>763.4</ele>
        <time>2019-01-07T01:52:57Z</time>
      </trkpt>
      <trkpt lat="42.36332" lon="2.51726">
        <ele>765.8</ele>
        <time>2019-01-07T01:53:00Z</time>
      </trkpt>
      <trkpt lat="42.36329" lon="2.51721">
        <ele>767.3</ele>
        <time>2019-01-07T01:53:01Z</time>
      </trkpt>
      <trkpt lat="42.36327" lon="2.51714">
        <ele>766.8</ele>
        <time>2019-01-07T01:53:03Z</time>
      </trkpt>
      <trkpt lat="42.36336" lon="2.51699">
        <ele>768.3</ele>
        <time>2019-01-07T01:53:07Z</time>
      </trkpt>
      <trkpt lat="42.36337" lon="2.51699">
        <ele>768.8</ele>
        <time>2019-01-07T01:53:07Z</time>
      </trkpt>
      <trkpt lat="42.3634" lon="2.51697">
        <ele>768.2</ele>
        <time>2019-01-07T01:53:08Z</time>
      </trkpt>
      <trkpt lat="42.36343" lon="2.51696">
        <ele>768.8</ele>
        <time>2019-01-07T01:53:08Z</time>
      </trkpt>
      <trkpt lat="42.36345" lon="2.51694">
        <ele>770.2</ele>
        <time>2019-01-07T01:53:09Z</time>
      </trkpt>
      <trkpt lat="42.36351" lon="2.51682">
        <ele>771.7</ele>
        <time>2019-01-07T01:53:12Z</time>
      </trkpt>
      <trkpt lat="42.36353" lon="2.51677">
        <ele>773.5</ele>
        <time>2019-01-07T01:53:13Z</time>
      </trkpt>
      <trkpt lat="42.36353" lon="2.51677">
        <ele>772.6</ele>
        <time>2019-01-07T01:53:13Z</time>
      </trkpt>
      <trkpt lat="42.36357" lon="2.51672">
        <ele>773.5</ele>
        <time>2019-01-07T01:53:15Z</time>
      </trkpt>
      <trkpt lat="42.36364" lon="2.51661">
        <ele>775.4</ele>
        <time>2019-01-07T01:53:17Z</time>
      </trkpt>
      <trkpt lat="42.36373" lon="2.51652">
        <ele>777.4</ele>
        <time>2019-01-07T01:53:20Z</time>
      </trkpt>
      <trkpt lat="42.36385" lon="2.5164">
        <ele>779.8</ele>
        <time>2019-01-07T01:53:25Z</time>
      </trkpt>
      <trkpt lat="42.36397" lon="2.51628">
        <ele>781.8</ele>
        <time>2019-01-07T01:53:28Z</time>
      </trkpt>
      <trkpt lat="42.36409" lon="2.51613">
        <ele>783.6</ele>
        <time>2019-01-07T01:53:33Z</time>
      </trkpt>
      <trkpt lat="42.36419" lon="2.51603">
        <ele>785.1</ele>
        <time>2019-01-07T01:53:36Z</time>
      </trkpt>
      <trkpt lat="42.36435" lon="2.51597">
        <ele>786.1</ele>
        <time>2019-01-07T01:53:41Z</time>
      </trkpt>
      <trkpt lat="42.36437" lon="2.51597">
        <ele>787.5</ele>
        <time>2019-01-07T01:53:41Z</time>
      </trkpt>
      <trkpt lat="42.36454" lon="2.51601">
        <ele>789.5</ele>
        <time>2019-01-07T01:53:46Z</time>
      </trkpt>
      <trkpt lat="42.36459" lon="2.51602">
        <ele>790.4</ele>
        <time>2019-01-07T01:53:47Z</time>
      </trkpt>
      <trkpt lat="42.36466" lon="2.516">
        <ele>791.8</ele>
        <time>2019-01-07T01:53:49Z</time>
      </trkpt>
      <trkpt lat="42.36464" lon="2.51597">
        <ele>794.2</ele>
        <time>2019-01-07T01:53:50Z</time>
      </trkpt>
      <trkpt lat="42.36459" lon="2.51591">
        <ele>797.1</ele>
        <time>2019-01-07T01:53:51Z</time>
      </trkpt>
      <trkpt lat="42.36455" lon="2.51579">
        <ele>799</ele>
        <time>2019-01-07T01:53:54Z</time>
      </trkpt>
      <trkpt lat="42.36453" lon="2.51567">
        <ele>802</ele>
        <time>2019-01-07T01:53:56Z</time>
      </trkpt>
      <trkpt lat="42.36461" lon="2.51564">
        <ele>804.9</ele>
        <time>2019-01-07T01:53:59Z</time>
      </trkpt>
      <trkpt lat="42.36469" lon="2.51565">
        <ele>807.3</ele>
        <time>2019-01-07T01:54:01Z</time>
      </trkpt>
      <trkpt lat="42.36475" lon="2.51557">
        <ele>809.7</ele>
        <time>2019-01-07T01:54:03Z</time>
      </trkpt>
      <trkpt lat="42.36475" lon="2.51556">
        <ele>810.1</ele>
        <time>2019-01-07T01:54:03Z</time>
      </trkpt>
      <trkpt lat="42.36479" lon="2.51546">
        <ele>812.1</ele>
        <time>2019-01-07T01:54:05Z</time>
      </trkpt>
      <trkpt lat="42.36481" lon="2.51538">
        <ele>815</ele>
        <time>2019-01-07T01:54:07Z</time>
      </trkpt>
      <trkpt lat="42.36492" lon="2.51526">
        <ele>816.9</ele>
        <time>2019-01-07T01:54:11Z</time>
      </trkpt>
      <trkpt lat="42.36501" lon="2.51515">
        <ele>817.3</ele>
        <time>2019-01-07T01:54:14Z</time>
      </trkpt>
      <trkpt lat="42.36511" lon="2.51508">
        <ele>819.7</ele>
        <time>2019-01-07T01:54:17Z</time>
      </trkpt>
      <trkpt lat="42.36519" lon="2.51492">
        <ele>821.6</ele>
        <time>2019-01-07T01:54:21Z</time>
      </trkpt>
      <trkpt lat="42.36527" lon="2.51482">
        <ele>822.6</ele>
        <time>2019-01-07T01:54:24Z</time>
      </trkpt>
      <trkpt lat="42.36532" lon="2.51475">
        <ele>823.1</ele>
        <time>2019-01-07T01:54:26Z</time>
      </trkpt>
      <trkpt lat="42.36539" lon="2.51461">
        <ele>825.4</ele>
        <time>2019-01-07T01:54:29Z</time>
      </trkpt>
      <trkpt lat="42.36541" lon="2.51451">
        <ele>827</ele>
        <time>2019-01-07T01:54:31Z</time>
      </trkpt>
      <trkpt lat="42.36544" lon="2.51441">
        <ele>828.9</ele>
        <time>2019-01-07T01:54:33Z</time>
      </trkpt>
      <trkpt lat="42.36543" lon="2.5143">
        <ele>830.8</ele>
        <time>2019-01-07T01:54:35Z</time>
      </trkpt>
      <trkpt lat="42.36541" lon="2.5142">
        <ele>832.6</ele>
        <time>2019-01-07T01:54:37Z</time>
      </trkpt>
      <trkpt lat="42.36545" lon="2.51405">
        <ele>835.6</ele>
        <time>2019-01-07T01:54:41Z</time>
      </trkpt>
      <trkpt lat="42.36552" lon="2.51391">
        <ele>837.5</ele>
        <time>2019-01-07T01:54:44Z</time>
      </trkpt>
      <trkpt lat="42.36557" lon="2.51382">
        <ele>839.9</ele>
        <time>2019-01-07T01:54:46Z</time>
      </trkpt>
      <trkpt lat="42.36563" lon="2.51374">
        <ele>842.3</ele>
        <time>2019-01-07T01:54:48Z</time>
      </trkpt>
      <trkpt lat="42.36571" lon="2.51377">
        <ele>842.4</ele>
        <time>2019-01-07T01:54:50Z</time>
      </trkpt>
      <trkpt lat="42.36593" lon="2.51385">
        <ele>842.7</ele>
        <time>2019-01-07T01:54:57Z</time>
      </trkpt>
      <trkpt lat="42.36611" lon="2.51391">
        <ele>843.2</ele>
        <time>2019-01-07T01:55:02Z</time>
      </trkpt>
      <trkpt lat="42.36624" lon="2.51386">
        <ele>844.2</ele>
        <time>2019-01-07T01:55:05Z</time>
      </trkpt>
      <trkpt lat="42.36637" lon="2.51378">
        <ele>845.2</ele>
        <time>2019-01-07T01:55:09Z</time>
      </trkpt>
      <trkpt lat="42.36639" lon="2.51373">
        <ele>844.7</ele>
        <time>2019-01-07T01:55:10Z</time>
      </trkpt>
      <trkpt lat="42.36647" lon="2.51364">
        <ele>846.2</ele>
        <time>2019-01-07T01:55:13Z</time>
      </trkpt>
      <trkpt lat="42.3665" lon="2.51359">
        <ele>846.2</ele>
        <time>2019-01-07T01:55:14Z</time>
      </trkpt>
      <trkpt lat="42.36653" lon="2.51354">
        <ele>847.1</ele>
        <time>2019-01-07T01:55:16Z</time>
      </trkpt>
      <trkpt lat="42.36665" lon="2.51337">
        <ele>848</ele>
        <time>2019-01-07T01:55:20Z</time>
      </trkpt>
      <trkpt lat="42.3667" lon="2.51331">
        <ele>849.1</ele>
        <time>2019-01-07T01:55:22Z</time>
      </trkpt>
      <trkpt lat="42.36688" lon="2.51317">
        <ele>851.5</ele>
        <time>2019-01-07T01:55:28Z</time>
      </trkpt>
      <trkpt lat="42.36693" lon="2.51317">
        <ele>851.4</ele>
        <time>2019-01-07T01:55:29Z</time>
      </trkpt>
      <trkpt lat="42.36702" lon="2.51315">
        <ele>852.8</ele>
        <time>2019-01-07T01:55:31Z</time>
      </trkpt>
      <trkpt lat="42.36709" lon="2.51309">
        <ele>854.4</ele>
        <time>2019-01-07T01:55:34Z</time>
      </trkpt>
      <trkpt lat="42.36716" lon="2.51306">
        <ele>856.3</ele>
        <time>2019-01-07T01:55:36Z</time>
      </trkpt>
      <trkpt lat="42.36724" lon="2.51299">
        <ele>858.7</ele>
        <time>2019-01-07T01:55:38Z</time>
      </trkpt>
      <trkpt lat="42.36726" lon="2.51298">
        <ele>857.6</ele>
        <time>2019-01-07T01:55:38Z</time>
      </trkpt>
      <trkpt lat="42.36743" lon="2.5129">
        <ele>860.5</ele>
        <time>2019-01-07T01:55:43Z</time>
      </trkpt>
      <trkpt lat="42.36752" lon="2.51279">
        <ele>862</ele>
        <time>2019-01-07T01:55:47Z</time>
      </trkpt>
      <trkpt lat="42.36756" lon="2.51269">
        <ele>863.4</ele>
        <time>2019-01-07T01:55:49Z</time>
      </trkpt>
      <trkpt lat="42.36757" lon="2.51267">
        <ele>862.9</ele>
        <time>2019-01-07T01:55:49Z</time>
      </trkpt>
      <trkpt lat="42.36758" lon="2.51263">
        <ele>863</ele>
        <time>2019-01-07T01:55:50Z</time>
      </trkpt>
      <trkpt lat="42.36761" lon="2.51243">
        <ele>862.5</ele>
        <time>2019-01-07T01:55:54Z</time>
      </trkpt>
      <trkpt lat="42.36759" lon="2.51231">
        <ele>862.1</ele>
        <time>2019-01-07T01:55:57Z</time>
      </trkpt>
      <trkpt lat="42.36759" lon="2.51228">
        <ele>862.4</ele>
        <time>2019-01-07T01:55:57Z</time>
      </trkpt>
      <trkpt lat="42.36759" lon="2.51222">
        <ele>862.9</ele>
        <time>2019-01-07T01:55:58Z</time>
      </trkpt>
      <trkpt lat="42.36756" lon="2.51215">
        <ele>862.5</ele>
        <time>2019-01-07T01:56:00Z</time>
      </trkpt>
      <trkpt lat="42.36755" lon="2.51205">
        <ele>862.1</ele>
        <time>2019-01-07T01:56:02Z</time>
      </trkpt>
      <trkpt lat="42.36753" lon="2.51196">
        <ele>862.5</ele>
        <time>2019-01-07T01:56:04Z</time>
      </trkpt>
      <trkpt lat="42.36746" lon="2.51182">
        <ele>862.9</ele>
        <time>2019-01-07T01:56:07Z</time>
      </trkpt>
      <trkpt lat="42.36745" lon="2.5118">
        <ele>863.4</ele>
        <time>2019-01-07T01:56:07Z</time>
      </trkpt>
      <trkpt lat="42.36742" lon="2.51171">
        <ele>862.9</ele>
        <time>2019-01-07T01:56:09Z</time>
      </trkpt>
      <trkpt lat="42.36735" lon="2.51149">
        <ele>862.9</ele>
        <time>2019-01-07T01:56:14Z</time>
      </trkpt>
      <trkpt lat="42.36734" lon="2.51147">
        <ele>863.5</ele>
        <time>2019-01-07T01:56:15Z</time>
      </trkpt>
      <trkpt lat="42.36727" lon="2.51119">
        <ele>862.4</ele>
        <time>2019-01-07T01:56:20Z</time>
      </trkpt>
      <trkpt lat="42.36719" lon="2.51093">
        <ele>863</ele>
        <time>2019-01-07T01:56:26Z</time>
      </trkpt>
      <trkpt lat="42.36709" lon="2.51073">
        <ele>864.9</ele>
        <time>2019-01-07T01:56:31Z</time>
      </trkpt>
      <trkpt lat="42.36706" lon="2.51067">
        <ele>865.8</ele>
        <time>2019-01-07T01:56:32Z</time>
      </trkpt>
      <trkpt lat="42.36699" lon="2.51051">
        <ele>867.3</ele>
        <time>2019-01-07T01:56:36Z</time>
      </trkpt>
      <trkpt lat="42.36692" lon="2.5104">
        <ele>866.8</ele>
        <time>2019-01-07T01:56:39Z</time>
      </trkpt>
      <trkpt lat="42.36676" lon="2.51025">
        <ele>864.8</ele>
        <time>2019-01-07T01:56:44Z</time>
      </trkpt>
      <trkpt lat="42.36669" lon="2.5101">
        <ele>864.4</ele>
        <time>2019-01-07T01:56:47Z</time>
      </trkpt>
      <trkpt lat="42.3666" lon="2.50982">
        <ele>864.9</ele>
        <time>2019-01-07T01:56:53Z</time>
      </trkpt>
      <trkpt lat="42.36653" lon="2.50958">
        <ele>862.4</ele>
        <time>2019-01-07T01:56:58Z</time>
      </trkpt>
      <trkpt lat="42.36652" lon="2.50954">
        <ele>863</ele>
        <time>2019-01-07T01:56:59Z</time>
      </trkpt>
      <trkpt lat="42.36648" lon="2.50942">
        <ele>864</ele>
        <time>2019-01-07T01:57:02Z</time>
      </trkpt>
      <trkpt lat="42.36644" lon="2.50936">
        <ele>864.5</ele>
        <time>2019-01-07T01:57:03Z</time>
      </trkpt>
      <trkpt lat="42.3664" lon="2.50931">
        <ele>863.9</ele>
        <time>2019-01-07T01:57:05Z</time>
      </trkpt>
      <trkpt lat="42.3663" lon="2.50914">
        <ele>866.3</ele>
        <time>2019-01-07T01:57:09Z</time>
      </trkpt>
      <trkpt lat="42.36624" lon="2.50896">
        <ele>868.3</ele>
        <time>2019-01-07T01:57:13Z</time>
      </trkpt>
      <trkpt lat="42.36616" lon="2.50882">
        <ele>870.7</ele>
        <time>2019-01-07T01:57:17Z</time>
      </trkpt>
      <trkpt lat="42.36614" lon="2.5088">
        <ele>871.1</ele>
        <time>2019-01-07T01:57:17Z</time>
      </trkpt>
      <trkpt lat="42.36613" lon="2.50866">
        <ele>872.5</ele>
        <time>2019-01-07T01:57:20Z</time>
      </trkpt>
      <trkpt lat="42.36604" lon="2.5085">
        <ele>874.5</ele>
        <time>2019-01-07T01:57:24Z</time>
      </trkpt>
      <trkpt lat="42.36596" lon="2.50837">
        <ele>876</ele>
        <time>2019-01-07T01:57:27Z</time>
      </trkpt>
      <trkpt lat="42.3659" lon="2.50822">
        <ele>878.3</ele>
        <time>2019-01-07T01:57:31Z</time>
      </trkpt>
      <trkpt lat="42.36583" lon="2.50807">
        <ele>878.9</ele>
        <time>2019-01-07T01:57:34Z</time>
      </trkpt>
      <trkpt lat="42.36577" lon="2.50797">
        <ele>879.3</ele>
        <time>2019-01-07T01:57:37Z</time>
      </trkpt>
      <trkpt lat="42.36568" lon="2.50779">
        <ele>881.3</ele>
        <time>2019-01-07T01:57:41Z</time>
      </trkpt>
      <trkpt lat="42.3656" lon="2.50769">
        <ele>883.7</ele>
        <time>2019-01-07T01:57:44Z</time>
      </trkpt>
      <trkpt lat="42.36554" lon="2.5076">
        <ele>886.5</ele>
        <time>2019-01-07T01:57:46Z</time>
      </trkpt>
      <trkpt lat="42.36547" lon="2.50742">
        <ele>887.5</ele>
        <time>2019-01-07T01:57:50Z</time>
      </trkpt>
      <trkpt lat="42.36546" lon="2.5074">
        <ele>887.4</ele>
        <time>2019-01-07T01:57:51Z</time>
      </trkpt>
      <trkpt lat="42.36542" lon="2.50734">
        <ele>887.9</ele>
        <time>2019-01-07T01:57:53Z</time>
      </trkpt>
      <trkpt lat="42.36538" lon="2.50727">
        <ele>888</ele>
        <time>2019-01-07T01:57:54Z</time>
      </trkpt>
      <trkpt lat="42.36528" lon="2.50708">
        <ele>889.4</ele>
        <time>2019-01-07T01:57:59Z</time>
      </trkpt>
      <trkpt lat="42.36522" lon="2.50697">
        <ele>890.3</ele>
        <time>2019-01-07T01:58:01Z</time>
      </trkpt>
      <trkpt lat="42.36514" lon="2.50687">
        <ele>890.4</ele>
        <time>2019-01-07T01:58:04Z</time>
      </trkpt>
      <trkpt lat="42.365" lon="2.50668">
        <ele>892.7</ele>
        <time>2019-01-07T01:58:10Z</time>
      </trkpt>
      <trkpt lat="42.36481" lon="2.50657">
        <ele>895.2</ele>
        <time>2019-01-07T01:58:15Z</time>
      </trkpt>
      <trkpt lat="42.3647" lon="2.50649">
        <ele>896.6</ele>
        <time>2019-01-07T01:58:19Z</time>
      </trkpt>
      <trkpt lat="42.36461" lon="2.50645">
        <ele>898.1</ele>
        <time>2019-01-07T01:58:21Z</time>
      </trkpt>
      <trkpt lat="42.36456" lon="2.50644">
        <ele>900.4</ele>
        <time>2019-01-07T01:58:22Z</time>
      </trkpt>
      <trkpt lat="42.36454" lon="2.50644">
        <ele>901.9</ele>
        <time>2019-01-07T01:58:23Z</time>
      </trkpt>
      <trkpt lat="42.36446" lon="2.5064">
        <ele>902.8</ele>
        <time>2019-01-07T01:58:25Z</time>
      </trkpt>
      <trkpt lat="42.36439" lon="2.50626">
        <ele>903.8</ele>
        <time>2019-01-07T01:58:29Z</time>
      </trkpt>
      <trkpt lat="42.36437" lon="2.50621">
        <ele>904.4</ele>
        <time>2019-01-07T01:58:30Z</time>
      </trkpt>
      <trkpt lat="42.36431" lon="2.5061">
        <ele>906.7</ele>
        <time>2019-01-07T01:58:32Z</time>
      </trkpt>
      <trkpt lat="42.3643" lon="2.50607">
        <ele>907.2</ele>
        <time>2019-01-07T01:58:33Z</time>
      </trkpt>
      <trkpt lat="42.36426" lon="2.506">
        <ele>908.2</ele>
        <time>2019-01-07T01:58:35Z</time>
      </trkpt>
      <trkpt lat="42.36423" lon="2.50598">
        <ele>909.2</ele>
        <time>2019-01-07T01:58:36Z</time>
      </trkpt>
      <trkpt lat="42.36419" lon="2.50589">
        <ele>910.6</ele>
        <time>2019-01-07T01:58:38Z</time>
      </trkpt>
      <trkpt lat="42.36414" lon="2.5058">
        <ele>911.1</ele>
        <time>2019-01-07T01:58:40Z</time>
      </trkpt>
      <trkpt lat="42.36426" lon="2.50564">
        <ele>911</ele>
        <time>2019-01-07T01:58:44Z</time>
      </trkpt>
      <trkpt lat="42.36436" lon="2.50554">
        <ele>911.5</ele>
        <time>2019-01-07T01:58:48Z</time>
      </trkpt>
      <trkpt lat="42.36437" lon="2.50552">
        <ele>912</ele>
        <time>2019-01-07T01:58:48Z</time>
      </trkpt>
      <trkpt lat="42.36439" lon="2.50544">
        <ele>913.5</ele>
        <time>2019-01-07T01:58:50Z</time>
      </trkpt>
      <trkpt lat="42.36439" lon="2.50544">
        <ele>913.5</ele>
        <time>2019-01-07T01:58:50Z</time>
      </trkpt>
      <trkpt lat="42.36437" lon="2.50534">
        <ele>914.9</ele>
        <time>2019-01-07T01:58:52Z</time>
      </trkpt>
      <trkpt lat="42.36435" lon="2.50514">
        <ele>917.8</ele>
        <time>2019-01-07T01:58:56Z</time>
      </trkpt>
      <trkpt lat="42.36435" lon="2.50513">
        <ele>917.3</ele>
        <time>2019-01-07T01:58:56Z</time>
      </trkpt>
      <trkpt lat="42.36436" lon="2.50496">
        <ele>918.3</ele>
        <time>2019-01-07T01:58:59Z</time>
      </trkpt>
      <trkpt lat="42.36433" lon="2.50486">
        <ele>920.1</ele>
        <time>2019-01-07T01:59:02Z</time>
      </trkpt>
      <trkpt lat="42.36429" lon="2.5047">
        <ele>920.6</ele>
        <time>2019-01-07T01:59:05Z</time>
      </trkpt>
      <trkpt lat="42.36429" lon="2.50468">
        <ele>921.1</ele>
        <time>2019-01-07T01:59:05Z</time>
      </trkpt>
      <trkpt lat="42.36431" lon="2.5046">
        <ele>922</ele>
        <time>2019-01-07T01:59:07Z</time>
      </trkpt>
      <trkpt lat="42.36431" lon="2.50447">
        <ele>922.5</ele>
        <time>2019-01-07T01:59:09Z</time>
      </trkpt>
      <trkpt lat="42.36431" lon="2.50443">
        <ele>923.1</ele>
        <time>2019-01-07T01:59:10Z</time>
      </trkpt>
      <trkpt lat="42.36432" lon="2.50431">
        <ele>924.1</ele>
        <time>2019-01-07T01:59:13Z</time>
      </trkpt>
      <trkpt lat="42.36432" lon="2.50427">
        <ele>923.5</ele>
        <time>2019-01-07T01:59:14Z</time>
      </trkpt>
      <trkpt lat="42.36431" lon="2.5042">
        <ele>924</ele>
        <time>2019-01-07T01:59:15Z</time>
      </trkpt>
      <trkpt lat="42.36435" lon="2.50411">
        <ele>924.6</ele>
        <time>2019-01-07T01:59:17Z</time>
      </trkpt>
      <trkpt lat="42.36436" lon="2.50409">
        <ele>924</ele>
        <time>2019-01-07T01:59:17Z</time>
      </trkpt>
      <trkpt lat="42.36435" lon="2.50402">
        <ele>924</ele>
        <time>2019-01-07T01:59:19Z</time>
      </trkpt>
      <trkpt lat="42.36435" lon="2.504">
        <ele>924.5</ele>
        <time>2019-01-07T01:59:19Z</time>
      </trkpt>
      <trkpt lat="42.36436" lon="2.50397">
        <ele>925</ele>
        <time>2019-01-07T01:59:20Z</time>
      </trkpt>
      <trkpt lat="42.36439" lon="2.5039">
        <ele>924.9</ele>
        <time>2019-01-07T01:59:21Z</time>
      </trkpt>
      <trkpt lat="42.36449" lon="2.50374">
        <ele>924.9</ele>
        <time>2019-01-07T01:59:25Z</time>
      </trkpt>
      <trkpt lat="42.36451" lon="2.50362">
        <ele>925.4</ele>
        <time>2019-01-07T01:59:28Z</time>
      </trkpt>
      <trkpt lat="42.3645" lon="2.50354">
        <ele>927</ele>
        <time>2019-01-07T01:59:30Z</time>
      </trkpt>
      <trkpt lat="42.3645" lon="2.50336">
        <ele>928.4</ele>
        <time>2019-01-07T01:59:33Z</time>
      </trkpt>
      <trkpt lat="42.36451" lon="2.50319">
        <ele>929.7</ele>
        <time>2019-01-07T01:59:36Z</time>
      </trkpt>
      <trkpt lat="42.36452" lon="2.50306">
        <ele>931.7</ele>
        <time>2019-01-07T01:59:39Z</time>
      </trkpt>
      <trkpt lat="42.36456" lon="2.50286">
        <ele>933.2</ele>
        <time>2019-01-07T01:59:43Z</time>
      </trkpt>
      <trkpt lat="42.36456" lon="2.50272">
        <ele>934.2</ele>
        <time>2019-01-07T01:59:46Z</time>
      </trkpt>
      <trkpt lat="42.36458" lon="2.50262">
        <ele>934.5</ele>
        <time>2019-01-07T01:59:48Z</time>
      </trkpt>
      <trkpt lat="42.36459" lon="2.5026">
        <ele>935</ele>
        <time>2019-01-07T01:59:48Z</time>
      </trkpt>
      <trkpt lat="42.36462" lon="2.50253">
        <ele>935.5</ele>
        <time>2019-01-07T01:59:50Z</time>
      </trkpt>
      <trkpt lat="42.36463" lon="2.50251">
        <ele>935</ele>
        <time>2019-01-07T01:59:51Z</time>
      </trkpt>
      <trkpt lat="42.36467" lon="2.50225">
        <ele>937.9</ele>
        <time>2019-01-07T01:59:56Z</time>
      </trkpt>
      <trkpt lat="42.3647" lon="2.50216">
        <ele>940.3</ele>
        <time>2019-01-07T01:59:58Z</time>
      </trkpt>
      <trkpt lat="42.36476" lon="2.50215">
        <ele>940.8</ele>
        <time>2019-01-07T01:59:59Z</time>
      </trkpt>
      <trkpt lat="42.3649" lon="2.50205">
        <ele>942.8</ele>
        <time>2019-01-07T02:00:03Z</time>
      </trkpt>
      <trkpt lat="42.36497" lon="2.50198">
        <ele>943.7</ele>
        <time>2019-01-07T02:00:06Z</time>
      </trkpt>
      <trkpt lat="42.36504" lon="2.50186">
        <ele>946.7</ele>
        <time>2019-01-07T02:00:09Z</time>
      </trkpt>
      <trkpt lat="42.36526" lon="2.50174">
        <ele>948.1</ele>
        <time>2019-01-07T02:00:15Z</time>
      </trkpt>
      <trkpt lat="42.36528" lon="2.50165">
        <ele>951</ele>
        <time>2019-01-07T02:00:17Z</time>
      </trkpt>
      <trkpt lat="42.36525" lon="2.50159">
        <ele>951.8</ele>
        <time>2019-01-07T02:00:18Z</time>
      </trkpt>
      <trkpt lat="42.36522" lon="2.50145">
        <ele>954.3</ele>
        <time>2019-01-07T02:00:21Z</time>
      </trkpt>
      <trkpt lat="42.36514" lon="2.50128">
        <ele>956.7</ele>
        <time>2019-01-07T02:00:25Z</time>
      </trkpt>
      <trkpt lat="42.36512" lon="2.50125">
        <ele>957.7</ele>
        <time>2019-01-07T02:00:26Z</time>
      </trkpt>
      <trkpt lat="42.36497" lon="2.50111">
        <ele>958.7</ele>
        <time>2019-01-07T02:00:31Z</time>
      </trkpt>
      <trkpt lat="42.36484" lon="2.50098">
        <ele>959.2</ele>
        <time>2019-01-07T02:00:35Z</time>
      </trkpt>
      <trkpt lat="42.36467" lon="2.50089">
        <ele>960.1</ele>
        <time>2019-01-07T02:00:40Z</time>
      </trkpt>
      <trkpt lat="42.36465" lon="2.50088">
        <ele>960.1</ele>
        <time>2019-01-07T02:00:41Z</time>
      </trkpt>
      <trkpt lat="42.36456" lon="2.50074">
        <ele>959.6</ele>
        <time>2019-01-07T02:00:44Z</time>
      </trkpt>
      <trkpt lat="42.3645" lon="2.50065">
        <ele>959.5</ele>
        <time>2019-01-07T02:00:46Z</time>
      </trkpt>
      <trkpt lat="42.36442" lon="2.50046">
        <ele>960.1</ele>
        <time>2019-01-07T02:00:51Z</time>
      </trkpt>
      <trkpt lat="42.36441" lon="2.50038">
        <ele>959.6</ele>
        <time>2019-01-07T02:00:53Z</time>
      </trkpt>
      <trkpt lat="42.36448" lon="2.50005">
        <ele>961.5</ele>
        <time>2019-01-07T02:00:59Z</time>
      </trkpt>
      <trkpt lat="42.3645" lon="2.49991">
        <ele>962.9</ele>
        <time>2019-01-07T02:01:02Z</time>
      </trkpt>
      <trkpt lat="42.36447" lon="2.49985">
        <ele>963.5</ele>
        <time>2019-01-07T02:01:03Z</time>
      </trkpt>
      <trkpt lat="42.3644" lon="2.49979">
        <ele>963.9</ele>
        <time>2019-01-07T02:01:06Z</time>
      </trkpt>
      <trkpt lat="42.36427" lon="2.49973">
        <ele>962.5</ele>
        <time>2019-01-07T02:01:09Z</time>
      </trkpt>
      <trkpt lat="42.36416" lon="2.49964">
        <ele>961.1</ele>
        <time>2019-01-07T02:01:13Z</time>
      </trkpt>
      <trkpt lat="42.36414" lon="2.49962">
        <ele>960.1</ele>
        <time>2019-01-07T02:01:13Z</time>
      </trkpt>
      <trkpt lat="42.36404" lon="2.49954">
        <ele>960.5</ele>
        <time>2019-01-07T02:01:17Z</time>
      </trkpt>
      <trkpt lat="42.3641" lon="2.4994">
        <ele>963.9</ele>
        <time>2019-01-07T02:01:20Z</time>
      </trkpt>
      <trkpt lat="42.36411" lon="2.49938">
        <ele>963.4</ele>
        <time>2019-01-07T02:01:20Z</time>
      </trkpt>
      <trkpt lat="42.3642" lon="2.49925">
        <ele>965.4</ele>
        <time>2019-01-07T02:01:24Z</time>
      </trkpt>
      <trkpt lat="42.36425" lon="2.49913">
        <ele>965.3</ele>
        <time>2019-01-07T02:01:26Z</time>
      </trkpt>
      <trkpt lat="42.36433" lon="2.49908">
        <ele>965.8</ele>
        <time>2019-01-07T02:01:29Z</time>
      </trkpt>
      <trkpt lat="42.36443" lon="2.49895">
        <ele>965.8</ele>
        <time>2019-01-07T02:01:32Z</time>
      </trkpt>
      <trkpt lat="42.36462" lon="2.49877">
        <ele>964.4</ele>
        <time>2019-01-07T02:01:39Z</time>
      </trkpt>
      <trkpt lat="42.36469" lon="2.49852">
        <ele>963.5</ele>
        <time>2019-01-07T02:01:44Z</time>
      </trkpt>
      <trkpt lat="42.36474" lon="2.49822">
        <ele>962.4</ele>
        <time>2019-01-07T02:01:50Z</time>
      </trkpt>
      <trkpt lat="42.36474" lon="2.49816">
        <ele>961.9</ele>
        <time>2019-01-07T02:01:51Z</time>
      </trkpt>
      <trkpt lat="42.36476" lon="2.49807">
        <ele>961.5</ele>
        <time>2019-01-07T02:01:53Z</time>
      </trkpt>
      <trkpt lat="42.36486" lon="2.49789">
        <ele>960</ele>
        <time>2019-01-07T02:01:57Z</time>
      </trkpt>
      <trkpt lat="42.36489" lon="2.49779">
        <ele>960.1</ele>
        <time>2019-01-07T02:02:00Z</time>
      </trkpt>
      <trkpt lat="42.36487" lon="2.49752">
        <ele>960.5</ele>
        <time>2019-01-07T02:02:05Z</time>
      </trkpt>
      <trkpt lat="42.36485" lon="2.49738">
        <ele>959.1</ele>
        <time>2019-01-07T02:02:08Z</time>
      </trkpt>
      <trkpt lat="42.36485" lon="2.49707">
        <ele>958.6</ele>
        <time>2019-01-07T02:02:14Z</time>
      </trkpt>
      <trkpt lat="42.36489" lon="2.4969">
        <ele>960.5</ele>
        <time>2019-01-07T02:02:17Z</time>
      </trkpt>
      <trkpt lat="42.36491" lon="2.49687">
        <ele>961.6</ele>
        <time>2019-01-07T02:02:18Z</time>
      </trkpt>
      <trkpt lat="42.36492" lon="2.49667">
        <ele>963.4</ele>
        <time>2019-01-07T02:02:22Z</time>
      </trkpt>
      <trkpt lat="42.36492" lon="2.49665">
        <ele>963.4</ele>
        <time>2019-01-07T02:02:23Z</time>
      </trkpt>
      <trkpt lat="42.36495" lon="2.49654">
        <ele>964.3</ele>
        <time>2019-01-07T02:02:25Z</time>
      </trkpt>
      <trkpt lat="42.36494" lon="2.4964">
        <ele>965.4</ele>
        <time>2019-01-07T02:02:28Z</time>
      </trkpt>
      <trkpt lat="42.36497" lon="2.49624">
        <ele>966.8</ele>
        <time>2019-01-07T02:02:31Z</time>
      </trkpt>
      <trkpt lat="42.36498" lon="2.4962">
        <ele>967.3</ele>
        <time>2019-01-07T02:02:32Z</time>
      </trkpt>
      <trkpt lat="42.365" lon="2.49614">
        <ele>967.2</ele>
        <time>2019-01-07T02:02:33Z</time>
      </trkpt>
      <trkpt lat="42.36499" lon="2.49602">
        <ele>967.7</ele>
        <time>2019-01-07T02:02:35Z</time>
      </trkpt>
      <trkpt lat="42.36497" lon="2.49597">
        <ele>968.2</ele>
        <time>2019-01-07T02:02:37Z</time>
      </trkpt>
      <trkpt lat="42.36501" lon="2.49583">
        <ele>967.3</ele>
        <time>2019-01-07T02:02:39Z</time>
      </trkpt>
      <trkpt lat="42.36504" lon="2.49577">
        <ele>966.8</ele>
        <time>2019-01-07T02:02:41Z</time>
      </trkpt>
      <trkpt lat="42.36508" lon="2.49552">
        <ele>964.9</ele>
        <time>2019-01-07T02:02:46Z</time>
      </trkpt>
      <trkpt lat="42.36507" lon="2.49547">
        <ele>965.3</ele>
        <time>2019-01-07T02:02:47Z</time>
      </trkpt>
      <trkpt lat="42.36508" lon="2.49536">
        <ele>964.9</ele>
        <time>2019-01-07T02:02:49Z</time>
      </trkpt>
      <trkpt lat="42.36511" lon="2.49527">
        <ele>963.4</ele>
        <time>2019-01-07T02:02:51Z</time>
      </trkpt>
      <trkpt lat="42.36512" lon="2.49522">
        <ele>964.4</ele>
        <time>2019-01-07T02:02:52Z</time>
      </trkpt>
      <trkpt lat="42.36514" lon="2.49517">
        <ele>963.5</ele>
        <time>2019-01-07T02:02:53Z</time>
      </trkpt>
      <trkpt lat="42.36516" lon="2.49515">
        <ele>963.4</ele>
        <time>2019-01-07T02:02:54Z</time>
      </trkpt>
      <trkpt lat="42.36519" lon="2.49485">
        <ele>961.9</ele>
        <time>2019-01-07T02:03:00Z</time>
      </trkpt>
      <trkpt lat="42.36521" lon="2.49479">
        <ele>962.9</ele>
        <time>2019-01-07T02:03:01Z</time>
      </trkpt>
      <trkpt lat="42.36521" lon="2.49476">
        <ele>963</ele>
        <time>2019-01-07T02:03:02Z</time>
      </trkpt>
      <trkpt lat="42.36525" lon="2.49458">
        <ele>963</ele>
        <time>2019-01-07T02:03:05Z</time>
      </trkpt>
      <trkpt lat="42.36527" lon="2.49449">
        <ele>963.5</ele>
        <time>2019-01-07T02:03:07Z</time>
      </trkpt>
      <trkpt lat="42.36538" lon="2.49426">
        <ele>963.9</ele>
        <time>2019-01-07T02:03:13Z</time>
      </trkpt>
      <trkpt lat="42.3654" lon="2.49424">
        <ele>964</ele>
        <time>2019-01-07T02:03:13Z</time>
      </trkpt>
      <trkpt lat="42.36551" lon="2.49412">
        <ele>963.5</ele>
        <time>2019-01-07T02:03:17Z</time>
      </trkpt>
      <trkpt lat="42.36559" lon="2.49411">
        <ele>962</ele>
        <time>2019-01-07T02:03:19Z</time>
      </trkpt>
      <trkpt lat="42.36567" lon="2.49408">
        <ele>961</ele>
        <time>2019-01-07T02:03:21Z</time>
      </trkpt>
      <trkpt lat="42.36577" lon="2.49402">
        <ele>960.6</ele>
        <time>2019-01-07T02:03:24Z</time>
      </trkpt>
      <trkpt lat="42.36568" lon="2.49387">
        <ele>958.6</ele>
        <time>2019-01-07T02:03:28Z</time>
      </trkpt>
      <trkpt lat="42.36565" lon="2.49389">
        <ele>956.7</ele>
        <time>2019-01-07T02:03:29Z</time>
      </trkpt>
      <trkpt lat="42.36566" lon="2.49386">
        <ele>956.3</ele>
        <time>2019-01-07T02:03:30Z</time>
      </trkpt>
      <trkpt lat="42.36565" lon="2.4938">
        <ele>955.8</ele>
        <time>2019-01-07T02:03:31Z</time>
      </trkpt>
      <trkpt lat="42.36564" lon="2.49374">
        <ele>954.4</ele>
        <time>2019-01-07T02:03:32Z</time>
      </trkpt>
      <trkpt lat="42.36558" lon="2.49362">
        <ele>951.4</ele>
        <time>2019-01-07T02:03:35Z</time>
      </trkpt>
      <trkpt lat="42.36553" lon="2.49356">
        <ele>950</ele>
        <time>2019-01-07T02:03:37Z</time>
      </trkpt>
      <trkpt lat="42.36552" lon="2.49352">
        <ele>949.1</ele>
        <time>2019-01-07T02:03:38Z</time>
      </trkpt>
      <trkpt lat="42.36551" lon="2.49347">
        <ele>947.6</ele>
        <time>2019-01-07T02:03:39Z</time>
      </trkpt>
      <trkpt lat="42.36547" lon="2.49333">
        <ele>945.7</ele>
        <time>2019-01-07T02:03:42Z</time>
      </trkpt>
      <trkpt lat="42.36547" lon="2.49332">
        <ele>946.7</ele>
        <time>2019-01-07T02:03:42Z</time>
      </trkpt>
      <trkpt lat="42.36548" lon="2.49329">
        <ele>945.1</ele>
        <time>2019-01-07T02:03:43Z</time>
      </trkpt>
      <trkpt lat="42.36548" lon="2.49323">
        <ele>946.6</ele>
        <time>2019-01-07T02:03:44Z</time>
      </trkpt>
      <trkpt lat="42.36544" lon="2.49309">
        <ele>945.1</ele>
        <time>2019-01-07T02:03:47Z</time>
      </trkpt>
      <trkpt lat="42.36535" lon="2.49291">
        <ele>947.1</ele>
        <time>2019-01-07T02:03:51Z</time>
      </trkpt>
      <trkpt lat="42.36532" lon="2.49287">
        <ele>947.5</ele>
        <time>2019-01-07T02:03:52Z</time>
      </trkpt>
      <trkpt lat="42.36523" lon="2.49278">
        <ele>948.5</ele>
        <time>2019-01-07T02:03:55Z</time>
      </trkpt>
      <trkpt lat="42.36503" lon="2.49268">
        <ele>949</ele>
        <time>2019-01-07T02:04:01Z</time>
      </trkpt>
      <trkpt lat="42.36492" lon="2.49261">
        <ele>948.1</ele>
        <time>2019-01-07T02:04:04Z</time>
      </trkpt>
      <trkpt lat="42.36484" lon="2.49256">
        <ele>948.6</ele>
        <time>2019-01-07T02:04:06Z</time>
      </trkpt>
      <trkpt lat="42.36479" lon="2.49252">
        <ele>946.2</ele>
        <time>2019-01-07T02:04:08Z</time>
      </trkpt>
      <trkpt lat="42.36474" lon="2.49243">
        <ele>946.6</ele>
        <time>2019-01-07T02:04:10Z</time>
      </trkpt>
      <trkpt lat="42.36467" lon="2.49227">
        <ele>946.1</ele>
        <time>2019-01-07T02:04:14Z</time>
      </trkpt>
      <trkpt lat="42.36465" lon="2.49225">
        <ele>946.1</ele>
        <time>2019-01-07T02:04:15Z</time>
      </trkpt>
      <trkpt lat="42.36466" lon="2.49222">
        <ele>946.1</ele>
        <time>2019-01-07T02:04:15Z</time>
      </trkpt>
      <trkpt lat="42.36475" lon="2.49209">
        <ele>946.6</ele>
        <time>2019-01-07T02:04:19Z</time>
      </trkpt>
      <trkpt lat="42.36477" lon="2.49207">
        <ele>945.6</ele>
        <time>2019-01-07T02:04:20Z</time>
      </trkpt>
      <trkpt lat="42.36483" lon="2.49206">
        <ele>947</ele>
        <time>2019-01-07T02:04:21Z</time>
      </trkpt>
      <trkpt lat="42.36487" lon="2.49207">
        <ele>949.5</ele>
        <time>2019-01-07T02:04:22Z</time>
      </trkpt>
      <trkpt lat="42.3649" lon="2.49205">
        <ele>952.4</ele>
        <time>2019-01-07T02:04:23Z</time>
      </trkpt>
      <trkpt lat="42.36488" lon="2.49201">
        <ele>953.3</ele>
        <time>2019-01-07T02:04:24Z</time>
      </trkpt>
      <trkpt lat="42.36488" lon="2.49199">
        <ele>955.7</ele>
        <time>2019-01-07T02:04:24Z</time>
      </trkpt>
      <trkpt lat="42.36497" lon="2.49199">
        <ele>957.7</ele>
        <time>2019-01-07T02:04:27Z</time>
      </trkpt>
      <trkpt lat="42.36507" lon="2.49199">
        <ele>960.5</ele>
        <time>2019-01-07T02:04:29Z</time>
      </trkpt>
      <trkpt lat="42.36511" lon="2.49193">
        <ele>962.4</ele>
        <time>2019-01-07T02:04:31Z</time>
      </trkpt>
      <trkpt lat="42.36517" lon="2.49186">
        <ele>964.4</ele>
        <time>2019-01-07T02:04:33Z</time>
      </trkpt>
      <trkpt lat="42.36519" lon="2.49182">
        <ele>966.8</ele>
        <time>2019-01-07T02:04:34Z</time>
      </trkpt>
      <trkpt lat="42.36528" lon="2.4918">
        <ele>969.6</ele>
        <time>2019-01-07T02:04:36Z</time>
      </trkpt>
      <trkpt lat="42.36532" lon="2.49177">
        <ele>970.6</ele>
        <time>2019-01-07T02:04:38Z</time>
      </trkpt>
      <trkpt lat="42.36538" lon="2.49167">
        <ele>971.7</ele>
        <time>2019-01-07T02:04:40Z</time>
      </trkpt>
      <trkpt lat="42.36547" lon="2.49159">
        <ele>974.4</ele>
        <time>2019-01-07T02:04:43Z</time>
      </trkpt>
      <trkpt lat="42.36553" lon="2.49154">
        <ele>976</ele>
        <time>2019-01-07T02:04:45Z</time>
      </trkpt>
      <trkpt lat="42.36555" lon="2.49155">
        <ele>975.5</ele>
        <time>2019-01-07T02:04:46Z</time>
      </trkpt>
      <trkpt lat="42.36566" lon="2.49163">
        <ele>977.3</ele>
        <time>2019-01-07T02:04:49Z</time>
      </trkpt>
      <trkpt lat="42.36573" lon="2.49173">
        <ele>978.8</ele>
        <time>2019-01-07T02:04:52Z</time>
      </trkpt>
      <trkpt lat="42.36584" lon="2.49183">
        <ele>980.7</ele>
        <time>2019-01-07T02:04:55Z</time>
      </trkpt>
      <trkpt lat="42.36585" lon="2.49184">
        <ele>979.7</ele>
        <time>2019-01-07T02:04:55Z</time>
      </trkpt>
      <trkpt lat="42.36595" lon="2.4919">
        <ele>981.6</ele>
        <time>2019-01-07T02:04:58Z</time>
      </trkpt>
      <trkpt lat="42.36606" lon="2.49194">
        <ele>983.2</ele>
        <time>2019-01-07T02:05:01Z</time>
      </trkpt>
      <trkpt lat="42.36613" lon="2.49197">
        <ele>985.1</ele>
        <time>2019-01-07T02:05:03Z</time>
      </trkpt>
      <trkpt lat="42.36626" lon="2.49204">
        <ele>986.5</ele>
        <time>2019-01-07T02:05:07Z</time>
      </trkpt>
      <trkpt lat="42.36628" lon="2.49205">
        <ele>986</ele>
        <time>2019-01-07T02:05:08Z</time>
      </trkpt>
      <trkpt lat="42.3664" lon="2.49207">
        <ele>985.5</ele>
        <time>2019-01-07T02:05:11Z</time>
      </trkpt>
      <trkpt lat="42.36651" lon="2.49208">
        <ele>986.9</ele>
        <time>2019-01-07T02:05:14Z</time>
      </trkpt>
      <trkpt lat="42.36667" lon="2.49212">
        <ele>987.9</ele>
        <time>2019-01-07T02:05:18Z</time>
      </trkpt>
      <trkpt lat="42.36672" lon="2.49213">
        <ele>987.9</ele>
        <time>2019-01-07T02:05:20Z</time>
      </trkpt>
      <trkpt lat="42.3668" lon="2.49215">
        <ele>990.3</ele>
        <time>2019-01-07T02:05:22Z</time>
      </trkpt>
      <trkpt lat="42.36696" lon="2.49225">
        <ele>991.3</ele>
        <time>2019-01-07T02:05:27Z</time>
      </trkpt>
      <trkpt lat="42.36704" lon="2.4923">
        <ele>992.7</ele>
        <time>2019-01-07T02:05:29Z</time>
      </trkpt>
      <trkpt lat="42.3672" lon="2.49236">
        <ele>994.2</ele>
        <time>2019-01-07T02:05:33Z</time>
      </trkpt>
      <trkpt lat="42.36724" lon="2.49238">
        <ele>996.2</ele>
        <time>2019-01-07T02:05:34Z</time>
      </trkpt>
      <trkpt lat="42.3673" lon="2.4924">
        <ele>997.1</ele>
        <time>2019-01-07T02:05:36Z</time>
      </trkpt>
      <trkpt lat="42.36743" lon="2.49256">
        <ele>997.1</ele>
        <time>2019-01-07T02:05:41Z</time>
      </trkpt>
      <trkpt lat="42.36744" lon="2.49257">
        <ele>998.6</ele>
        <time>2019-01-07T02:05:41Z</time>
      </trkpt>
      <trkpt lat="42.36757" lon="2.49272">
        <ele>999</ele>
        <time>2019-01-07T02:05:46Z</time>
      </trkpt>
      <trkpt lat="42.3676" lon="2.4927">
        <ele>1000</ele>
        <time>2019-01-07T02:05:47Z</time>
      </trkpt>
      <trkpt lat="42.36764" lon="2.49259">
        <ele>1000.4</ele>
        <time>2019-01-07T02:05:49Z</time>
      </trkpt>
      <trkpt lat="42.36777" lon="2.49253">
        <ele>1000.4</ele>
        <time>2019-01-07T02:05:53Z</time>
      </trkpt>
      <trkpt lat="42.3678" lon="2.49251">
        <ele>1001</ele>
        <time>2019-01-07T02:05:54Z</time>
      </trkpt>
      <trkpt lat="42.36788" lon="2.49244">
        <ele>1003.4</ele>
        <time>2019-01-07T02:05:56Z</time>
      </trkpt>
      <trkpt lat="42.36791" lon="2.49242">
        <ele>1004.8</ele>
        <time>2019-01-07T02:05:57Z</time>
      </trkpt>
      <trkpt lat="42.36799" lon="2.49239">
        <ele>1004.8</ele>
        <time>2019-01-07T02:05:59Z</time>
      </trkpt>
      <trkpt lat="42.36814" lon="2.49232">
        <ele>1008.1</ele>
        <time>2019-01-07T02:06:03Z</time>
      </trkpt>
      <trkpt lat="42.36822" lon="2.49225">
        <ele>1009.1</ele>
        <time>2019-01-07T02:06:06Z</time>
      </trkpt>
      <trkpt lat="42.36828" lon="2.49216">
        <ele>1012.4</ele>
        <time>2019-01-07T02:06:08Z</time>
      </trkpt>
      <trkpt lat="42.36835" lon="2.49204">
        <ele>1014.4</ele>
        <time>2019-01-07T02:06:11Z</time>
      </trkpt>
      <trkpt lat="42.36838" lon="2.49199">
        <ele>1015.8</ele>
        <time>2019-01-07T02:06:13Z</time>
      </trkpt>
      <trkpt lat="42.36847" lon="2.49189">
        <ele>1018.2</ele>
        <time>2019-01-07T02:06:16Z</time>
      </trkpt>
      <trkpt lat="42.36856" lon="2.49183">
        <ele>1019.6</ele>
        <time>2019-01-07T02:06:19Z</time>
      </trkpt>
      <trkpt lat="42.36866" lon="2.49175">
        <ele>1022.5</ele>
        <time>2019-01-07T02:06:22Z</time>
      </trkpt>
      <trkpt lat="42.3687" lon="2.49165">
        <ele>1025</ele>
        <time>2019-01-07T02:06:24Z</time>
      </trkpt>
      <trkpt lat="42.36871" lon="2.49157">
        <ele>1026.3</ele>
        <time>2019-01-07T02:06:25Z</time>
      </trkpt>
      <trkpt lat="42.36875" lon="2.49147">
        <ele>1027.9</ele>
        <time>2019-01-07T02:06:28Z</time>
      </trkpt>
      <trkpt lat="42.36876" lon="2.49144">
        <ele>1027.4</ele>
        <time>2019-01-07T02:06:28Z</time>
      </trkpt>
      <trkpt lat="42.36877" lon="2.49137">
        <ele>1027.8</ele>
        <time>2019-01-07T02:06:30Z</time>
      </trkpt>
      <trkpt lat="42.36878" lon="2.49134">
        <ele>1028.4</ele>
        <time>2019-01-07T02:06:30Z</time>
      </trkpt>
      <trkpt lat="42.36878" lon="2.49122">
        <ele>1028.9</ele>
        <time>2019-01-07T02:06:33Z</time>
      </trkpt>
      <trkpt lat="42.3688" lon="2.49121">
        <ele>1028.9</ele>
        <time>2019-01-07T02:06:33Z</time>
      </trkpt>
      <trkpt lat="42.36884" lon="2.49105">
        <ele>1027.8</ele>
        <time>2019-01-07T02:06:36Z</time>
      </trkpt>
      <trkpt lat="42.36885" lon="2.491">
        <ele>1028.3</ele>
        <time>2019-01-07T02:06:37Z</time>
      </trkpt>
      <trkpt lat="42.36886" lon="2.49087">
        <ele>1025.9</ele>
        <time>2019-01-07T02:06:40Z</time>
      </trkpt>
      <trkpt lat="42.36887" lon="2.49082">
        <ele>1026.9</ele>
        <time>2019-01-07T02:06:41Z</time>
      </trkpt>
      <trkpt lat="42.36887" lon="2.4908">
        <ele>1026</ele>
        <time>2019-01-07T02:06:42Z</time>
      </trkpt>
      <trkpt lat="42.36887" lon="2.49076">
        <ele>1024.5</ele>
        <time>2019-01-07T02:06:42Z</time>
      </trkpt>
      <trkpt lat="42.36886" lon="2.49067">
        <ele>1023.6</ele>
        <time>2019-01-07T02:06:44Z</time>
      </trkpt>
      <trkpt lat="42.36884" lon="2.49041">
        <ele>1020.7</ele>
        <time>2019-01-07T02:06:49Z</time>
      </trkpt>
      <trkpt lat="42.36881" lon="2.49017">
        <ele>1017.8</ele>
        <time>2019-01-07T02:06:54Z</time>
      </trkpt>
      <trkpt lat="42.36879" lon="2.49011">
        <ele>1018.7</ele>
        <time>2019-01-07T02:06:55Z</time>
      </trkpt>
      <trkpt lat="42.36879" lon="2.49009">
        <ele>1018.2</ele>
        <time>2019-01-07T02:06:56Z</time>
      </trkpt>
      <trkpt lat="42.3688" lon="2.48992">
        <ele>1015.8</ele>
        <time>2019-01-07T02:06:59Z</time>
      </trkpt>
      <trkpt lat="42.36879" lon="2.48983">
        <ele>1014.3</ele>
        <time>2019-01-07T02:07:01Z</time>
      </trkpt>
      <trkpt lat="42.36877" lon="2.48978">
        <ele>1013</ele>
        <time>2019-01-07T02:07:02Z</time>
      </trkpt>
      <trkpt lat="42.36878" lon="2.48973">
        <ele>1012</ele>
        <time>2019-01-07T02:07:03Z</time>
      </trkpt>
      <trkpt lat="42.36879" lon="2.48971">
        <ele>1012</ele>
        <time>2019-01-07T02:07:04Z</time>
      </trkpt>
      <trkpt lat="42.36886" lon="2.48967">
        <ele>1010.5</ele>
        <time>2019-01-07T02:07:06Z</time>
      </trkpt>
      <trkpt lat="42.36888" lon="2.48969">
        <ele>1009.6</ele>
        <time>2019-01-07T02:07:06Z</time>
      </trkpt>
      <trkpt lat="42.36894" lon="2.48982">
        <ele>1008.1</ele>
        <time>2019-01-07T02:07:09Z</time>
      </trkpt>
      <trkpt lat="42.36893" lon="2.48988">
        <ele>1007.1</ele>
        <time>2019-01-07T02:07:10Z</time>
      </trkpt>
      <trkpt lat="42.36901" lon="2.48988">
        <ele>1004.7</ele>
        <time>2019-01-07T02:07:12Z</time>
      </trkpt>
      <trkpt lat="42.36903" lon="2.48987">
        <ele>1003.9</ele>
        <time>2019-01-07T02:07:13Z</time>
      </trkpt>
      <trkpt lat="42.36904" lon="2.48984">
        <ele>1003.3</ele>
        <time>2019-01-07T02:07:14Z</time>
      </trkpt>
      <trkpt lat="42.36901" lon="2.4897">
        <ele>1001.8</ele>
        <time>2019-01-07T02:07:16Z</time>
      </trkpt>
      <trkpt lat="42.369" lon="2.48955">
        <ele>999.1</ele>
        <time>2019-01-07T02:07:19Z</time>
      </trkpt>
      <trkpt lat="42.36898" lon="2.48939">
        <ele>995.7</ele>
        <time>2019-01-07T02:07:23Z</time>
      </trkpt>
      <trkpt lat="42.36894" lon="2.48928">
        <ele>994.2</ele>
        <time>2019-01-07T02:07:25Z</time>
      </trkpt>
      <trkpt lat="42.36888" lon="2.48918">
        <ele>994.1</ele>
        <time>2019-01-07T02:07:28Z</time>
      </trkpt>
      <trkpt lat="42.36884" lon="2.48913">
        <ele>993.3</ele>
        <time>2019-01-07T02:07:29Z</time>
      </trkpt>
      <trkpt lat="42.36882" lon="2.48907">
        <ele>991.3</ele>
        <time>2019-01-07T02:07:30Z</time>
      </trkpt>
      <trkpt lat="42.36874" lon="2.4889">
        <ele>989.9</ele>
        <time>2019-01-07T02:07:34Z</time>
      </trkpt>
      <trkpt lat="42.36873" lon="2.48888">
        <ele>990.4</ele>
        <time>2019-01-07T02:07:35Z</time>
      </trkpt>
      <trkpt lat="42.36869" lon="2.4888">
        <ele>987.9</ele>
        <time>2019-01-07T02:07:37Z</time>
      </trkpt>
      <trkpt lat="42.36857" lon="2.48862">
        <ele>986.9</ele>
        <time>2019-01-07T02:07:41Z</time>
      </trkpt>
      <trkpt lat="42.36853" lon="2.48851">
        <ele>985</ele>
        <time>2019-01-07T02:07:44Z</time>
      </trkpt>
      <trkpt lat="42.3685" lon="2.48846">
        <ele>983.6</ele>
        <time>2019-01-07T02:07:45Z</time>
      </trkpt>
      <trkpt lat="42.36852" lon="2.48844">
        <ele>982.6</ele>
        <time>2019-01-07T02:07:46Z</time>
      </trkpt>
      <trkpt lat="42.36856" lon="2.48841">
        <ele>981.7</ele>
        <time>2019-01-07T02:07:47Z</time>
      </trkpt>
      <trkpt lat="42.36857" lon="2.4884">
        <ele>980.7</ele>
        <time>2019-01-07T02:07:47Z</time>
      </trkpt>
      <trkpt lat="42.36859" lon="2.48841">
        <ele>980.7</ele>
        <time>2019-01-07T02:07:48Z</time>
      </trkpt>
      <trkpt lat="42.36862" lon="2.48844">
        <ele>980.3</ele>
        <time>2019-01-07T02:07:49Z</time>
      </trkpt>
      <trkpt lat="42.36874" lon="2.48862">
        <ele>978.4</ele>
        <time>2019-01-07T02:07:54Z</time>
      </trkpt>
      <trkpt lat="42.36879" lon="2.48864">
        <ele>977.8</ele>
        <time>2019-01-07T02:07:55Z</time>
      </trkpt>
      <trkpt lat="42.36886" lon="2.48866">
        <ele>976</ele>
        <time>2019-01-07T02:07:57Z</time>
      </trkpt>
      <trkpt lat="42.36908" lon="2.48866">
        <ele>974</ele>
        <time>2019-01-07T02:08:03Z</time>
      </trkpt>
      <trkpt lat="42.3693" lon="2.48875">
        <ele>971.1</ele>
        <time>2019-01-07T02:08:09Z</time>
      </trkpt>
      <trkpt lat="42.36941" lon="2.48878">
        <ele>970.2</ele>
        <time>2019-01-07T02:08:12Z</time>
      </trkpt>
      <trkpt lat="42.36945" lon="2.4888">
        <ele>967.3</ele>
        <time>2019-01-07T02:08:13Z</time>
      </trkpt>
      <trkpt lat="42.36953" lon="2.48889">
        <ele>967.7</ele>
        <time>2019-01-07T02:08:16Z</time>
      </trkpt>
      <trkpt lat="42.36976" lon="2.48911">
        <ele>965.3</ele>
        <time>2019-01-07T02:08:23Z</time>
      </trkpt>
      <trkpt lat="42.36979" lon="2.48914">
        <ele>964.3</ele>
        <time>2019-01-07T02:08:24Z</time>
      </trkpt>
      <trkpt lat="42.36986" lon="2.48933">
        <ele>962</ele>
        <time>2019-01-07T02:08:29Z</time>
      </trkpt>
      <trkpt lat="42.36985" lon="2.48938">
        <ele>961.5</ele>
        <time>2019-01-07T02:08:30Z</time>
      </trkpt>
      <trkpt lat="42.36986" lon="2.48941">
        <ele>961.6</ele>
        <time>2019-01-07T02:08:30Z</time>
      </trkpt>
      <trkpt lat="42.36987" lon="2.48942">
        <ele>961</ele>
        <time>2019-01-07T02:08:31Z</time>
      </trkpt>
      <trkpt lat="42.36989" lon="2.48941">
        <ele>960</ele>
        <time>2019-01-07T02:08:31Z</time>
      </trkpt>
      <trkpt lat="42.36988" lon="2.48935">
        <ele>957.6</ele>
        <time>2019-01-07T02:08:32Z</time>
      </trkpt>
      <trkpt lat="42.36988" lon="2.48931">
        <ele>958.7</ele>
        <time>2019-01-07T02:08:33Z</time>
      </trkpt>
      <trkpt lat="42.36989" lon="2.48927">
        <ele>956.7</ele>
        <time>2019-01-07T02:08:34Z</time>
      </trkpt>
      <trkpt lat="42.36991" lon="2.48923">
        <ele>957.1</ele>
        <time>2019-01-07T02:08:35Z</time>
      </trkpt>
      <trkpt lat="42.3699" lon="2.48911">
        <ele>955.8</ele>
        <time>2019-01-07T02:08:37Z</time>
      </trkpt>
      <trkpt lat="42.36988" lon="2.48905">
        <ele>955.2</ele>
        <time>2019-01-07T02:08:38Z</time>
      </trkpt>
      <trkpt lat="42.36988" lon="2.489">
        <ele>953.3</ele>
        <time>2019-01-07T02:08:39Z</time>
      </trkpt>
      <trkpt lat="42.3698" lon="2.4889">
        <ele>952.8</ele>
        <time>2019-01-07T02:08:42Z</time>
      </trkpt>
      <trkpt lat="42.36979" lon="2.48889">
        <ele>951.4</ele>
        <time>2019-01-07T02:08:42Z</time>
      </trkpt>
      <trkpt lat="42.36982" lon="2.48887">
        <ele>951</ele>
        <time>2019-01-07T02:08:43Z</time>
      </trkpt>
      <trkpt lat="42.36984" lon="2.48881">
        <ele>948</ele>
        <time>2019-01-07T02:08:44Z</time>
      </trkpt>
      <trkpt lat="42.36991" lon="2.48861">
        <ele>944.6</ele>
        <time>2019-01-07T02:08:49Z</time>
      </trkpt>
      <trkpt lat="42.36997" lon="2.48866">
        <ele>942.8</ele>
        <time>2019-01-07T02:08:51Z</time>
      </trkpt>
      <trkpt lat="42.37005" lon="2.48868">
        <ele>939.5</ele>
        <time>2019-01-07T02:08:53Z</time>
      </trkpt>
      <trkpt lat="42.37006" lon="2.48858">
        <ele>937.5</ele>
        <time>2019-01-07T02:08:55Z</time>
      </trkpt>
      <trkpt lat="42.3701" lon="2.48853">
        <ele>938</ele>
        <time>2019-01-07T02:08:56Z</time>
      </trkpt>
      <trkpt lat="42.37011" lon="2.48852">
        <ele>936.6</ele>
        <time>2019-01-07T02:08:57Z</time>
      </trkpt>
      <trkpt lat="42.37013" lon="2.48831">
        <ele>933.7</ele>
        <time>2019-01-07T02:09:01Z</time>
      </trkpt>
      <trkpt lat="42.37017" lon="2.48826">
        <ele>932.6</ele>
        <time>2019-01-07T02:09:02Z</time>
      </trkpt>
      <trkpt lat="42.37026" lon="2.48809">
        <ele>931.7</ele>
        <time>2019-01-07T02:09:06Z</time>
      </trkpt>
      <trkpt lat="42.3703" lon="2.48812">
        <ele>930.2</ele>
        <time>2019-01-07T02:09:08Z</time>
      </trkpt>
      <trkpt lat="42.37051" lon="2.48827">
        <ele>929.7</ele>
        <time>2019-01-07T02:09:14Z</time>
      </trkpt>
      <trkpt lat="42.37054" lon="2.48832">
        <ele>929.3</ele>
        <time>2019-01-07T02:09:15Z</time>
      </trkpt>
      <trkpt lat="42.37064" lon="2.48835">
        <ele>927.4</ele>
        <time>2019-01-07T02:09:18Z</time>
      </trkpt>
      <trkpt lat="42.37072" lon="2.48842">
        <ele>927.8</ele>
        <time>2019-01-07T02:09:21Z</time>
      </trkpt>
      <trkpt lat="42.37069" lon="2.48851">
        <ele>928.4</ele>
        <time>2019-01-07T02:09:22Z</time>
      </trkpt>
      <trkpt lat="42.3707" lon="2.4885">
        <ele>929.8</ele>
        <time>2019-01-07T02:09:23Z</time>
      </trkpt>
      <trkpt lat="42.37069" lon="2.48847">
        <ele>931.3</ele>
        <time>2019-01-07T02:09:23Z</time>
      </trkpt>
      <trkpt lat="42.3707" lon="2.48844">
        <ele>932.2</ele>
        <time>2019-01-07T02:09:24Z</time>
      </trkpt>
      <trkpt lat="42.37073" lon="2.48848">
        <ele>936</ele>
        <time>2019-01-07T02:09:25Z</time>
      </trkpt>
      <trkpt lat="42.37073" lon="2.48852">
        <ele>935.6</ele>
        <time>2019-01-07T02:09:26Z</time>
      </trkpt>
      <trkpt lat="42.37069" lon="2.48872">
        <ele>939</ele>
        <time>2019-01-07T02:09:30Z</time>
      </trkpt>
      <trkpt lat="42.37065" lon="2.48894">
        <ele>940.8</ele>
        <time>2019-01-07T02:09:34Z</time>
      </trkpt>
      <trkpt lat="42.37067" lon="2.48907">
        <ele>943.2</ele>
        <time>2019-01-07T02:09:37Z</time>
      </trkpt>
      <trkpt lat="42.37078" lon="2.4892">
        <ele>945.2</ele>
        <time>2019-01-07T02:09:41Z</time>
      </trkpt>
      <trkpt lat="42.37085" lon="2.48929">
        <ele>947</ele>
        <time>2019-01-07T02:09:44Z</time>
      </trkpt>
      <trkpt lat="42.37093" lon="2.48938">
        <ele>949.9</ele>
        <time>2019-01-07T02:09:46Z</time>
      </trkpt>
      <trkpt lat="42.37099" lon="2.4895">
        <ele>952.3</ele>
        <time>2019-01-07T02:09:49Z</time>
      </trkpt>
      <trkpt lat="42.37101" lon="2.48962">
        <ele>954.7</ele>
        <time>2019-01-07T02:09:52Z</time>
      </trkpt>
      <trkpt lat="42.37107" lon="2.48973">
        <ele>956.2</ele>
        <time>2019-01-07T02:09:55Z</time>
      </trkpt>
      <trkpt lat="42.37115" lon="2.48985">
        <ele>959.5</ele>
        <time>2019-01-07T02:09:58Z</time>
      </trkpt>
      <trkpt lat="42.37123" lon="2.48992">
        <ele>961.5</ele>
        <time>2019-01-07T02:10:00Z</time>
      </trkpt>
      <trkpt lat="42.37131" lon="2.48998">
        <ele>964</ele>
        <time>2019-01-07T02:10:03Z</time>
      </trkpt>
      <trkpt lat="42.37129" lon="2.49008">
        <ele>965.3</ele>
        <time>2019-01-07T02:10:04Z</time>
      </trkpt>
      <trkpt lat="42.37113" lon="2.49022">
        <ele>967.7</ele>
        <time>2019-01-07T02:10:10Z</time>
      </trkpt>
      <trkpt lat="42.37105" lon="2.49033">
        <ele>970.2</ele>
        <time>2019-01-07T02:10:13Z</time>
      </trkpt>
      <trkpt lat="42.37103" lon="2.49048">
        <ele>971.1</ele>
        <time>2019-01-07T02:10:15Z</time>
      </trkpt>
      <trkpt lat="42.37103" lon="2.49051">
        <ele>972.5</ele>
        <time>2019-01-07T02:10:16Z</time>
      </trkpt>
      <trkpt lat="42.37089" lon="2.4907">
        <ele>972.6</ele>
        <time>2019-01-07T02:10:21Z</time>
      </trkpt>
      <trkpt lat="42.37089" lon="2.49089">
        <ele>972.6</ele>
        <time>2019-01-07T02:10:25Z</time>
      </trkpt>
      <trkpt lat="42.37086" lon="2.49109">
        <ele>974.4</ele>
        <time>2019-01-07T02:10:29Z</time>
      </trkpt>
      <trkpt lat="42.37089" lon="2.49125">
        <ele>977.9</ele>
        <time>2019-01-07T02:10:33Z</time>
      </trkpt>
      <trkpt lat="42.37094" lon="2.4914">
        <ele>979.2</ele>
        <time>2019-01-07T02:10:36Z</time>
      </trkpt>
      <trkpt lat="42.37103" lon="2.49147">
        <ele>981.3</ele>
        <time>2019-01-07T02:10:38Z</time>
      </trkpt>
      <trkpt lat="42.37104" lon="2.49141">
        <ele>983.1</ele>
        <time>2019-01-07T02:10:40Z</time>
      </trkpt>
      <trkpt lat="42.37104" lon="2.49133">
        <ele>986.5</ele>
        <time>2019-01-07T02:10:41Z</time>
      </trkpt>
      <trkpt lat="42.37115" lon="2.49138">
        <ele>988.4</ele>
        <time>2019-01-07T02:10:44Z</time>
      </trkpt>
      <trkpt lat="42.37121" lon="2.49127">
        <ele>989.8</ele>
        <time>2019-01-07T02:10:47Z</time>
      </trkpt>
      <trkpt lat="42.37132" lon="2.4911">
        <ele>992.8</ele>
        <time>2019-01-07T02:10:51Z</time>
      </trkpt>
      <trkpt lat="42.37141" lon="2.49102">
        <ele>995.2</ele>
        <time>2019-01-07T02:10:54Z</time>
      </trkpt>
      <trkpt lat="42.37156" lon="2.49087">
        <ele>998</ele>
        <time>2019-01-07T02:10:59Z</time>
      </trkpt>
      <trkpt lat="42.37166" lon="2.49076">
        <ele>1000.5</ele>
        <time>2019-01-07T02:11:02Z</time>
      </trkpt>
      <trkpt lat="42.3717" lon="2.49067">
        <ele>1002.8</ele>
        <time>2019-01-07T02:11:05Z</time>
      </trkpt>
      <trkpt lat="42.3717" lon="2.49053">
        <ele>1003.8</ele>
        <time>2019-01-07T02:11:07Z</time>
      </trkpt>
      <trkpt lat="42.3717" lon="2.49042">
        <ele>1004.8</ele>
        <time>2019-01-07T02:11:10Z</time>
      </trkpt>
      <trkpt lat="42.3717" lon="2.49028">
        <ele>1006.2</ele>
        <time>2019-01-07T02:11:12Z</time>
      </trkpt>
      <trkpt lat="42.37174" lon="2.49014">
        <ele>1007.6</ele>
        <time>2019-01-07T02:11:15Z</time>
      </trkpt>
      <trkpt lat="42.37183" lon="2.49008">
        <ele>1010.5</ele>
        <time>2019-01-07T02:11:18Z</time>
      </trkpt>
      <trkpt lat="42.37194" lon="2.49014">
        <ele>1011.9</ele>
        <time>2019-01-07T02:11:21Z</time>
      </trkpt>
      <trkpt lat="42.37199" lon="2.49017">
        <ele>1013.4</ele>
        <time>2019-01-07T02:11:23Z</time>
      </trkpt>
      <trkpt lat="42.37197" lon="2.49005">
        <ele>1016.3</ele>
        <time>2019-01-07T02:11:25Z</time>
      </trkpt>
      <trkpt lat="42.37194" lon="2.48992">
        <ele>1019.2</ele>
        <time>2019-01-07T02:11:28Z</time>
      </trkpt>
      <trkpt lat="42.37196" lon="2.48984">
        <ele>1020.7</ele>
        <time>2019-01-07T02:11:29Z</time>
      </trkpt>
      <trkpt lat="42.37195" lon="2.48976">
        <ele>1022.1</ele>
        <time>2019-01-07T02:11:31Z</time>
      </trkpt>
      <trkpt lat="42.37194" lon="2.48964">
        <ele>1023.5</ele>
        <time>2019-01-07T02:11:33Z</time>
      </trkpt>
      <trkpt lat="42.37198" lon="2.48951">
        <ele>1025.4</ele>
        <time>2019-01-07T02:11:36Z</time>
      </trkpt>
      <trkpt lat="42.37201" lon="2.48934">
        <ele>1027.3</ele>
        <time>2019-01-07T02:11:40Z</time>
      </trkpt>
      <trkpt lat="42.37202" lon="2.48926">
        <ele>1029.7</ele>
        <time>2019-01-07T02:11:41Z</time>
      </trkpt>
      <trkpt lat="42.37209" lon="2.48914">
        <ele>1032.2</ele>
        <time>2019-01-07T02:11:44Z</time>
      </trkpt>
      <trkpt lat="42.37209" lon="2.48902">
        <ele>1035.1</ele>
        <time>2019-01-07T02:11:47Z</time>
      </trkpt>
      <trkpt lat="42.37208" lon="2.48892">
        <ele>1037.5</ele>
        <time>2019-01-07T02:11:49Z</time>
      </trkpt>
      <trkpt lat="42.37216" lon="2.48881">
        <ele>1038.5</ele>
        <time>2019-01-07T02:11:51Z</time>
      </trkpt>
      <trkpt lat="42.37222" lon="2.4887">
        <ele>1041.7</ele>
        <time>2019-01-07T02:11:54Z</time>
      </trkpt>
      <trkpt lat="42.3723" lon="2.48873">
        <ele>1043.3</ele>
        <time>2019-01-07T02:11:56Z</time>
      </trkpt>
      <trkpt lat="42.37234" lon="2.48881">
        <ele>1046.2</ele>
        <time>2019-01-07T02:11:58Z</time>
      </trkpt>
      <trkpt lat="42.37243" lon="2.48886">
        <ele>1048.1</ele>
        <time>2019-01-07T02:12:01Z</time>
      </trkpt>
      <trkpt lat="42.37247" lon="2.48895">
        <ele>1050.4</ele>
        <time>2019-01-07T02:12:03Z</time>
      </trkpt>
      <trkpt lat="42.37246" lon="2.489">
        <ele>1050.4</ele>
        <time>2019-01-07T02:12:04Z</time>
      </trkpt>
      <trkpt lat="42.37247" lon="2.48915">
        <ele>1052.8</ele>
        <time>2019-01-07T02:12:07Z</time>
      </trkpt>
      <trkpt lat="42.37247" lon="2.48931">
        <ele>1053.3</ele>
        <time>2019-01-07T02:12:10Z</time>
      </trkpt>
      <trkpt lat="42.37248" lon="2.48949">
        <ele>1054.3</ele>
        <time>2019-01-07T02:12:14Z</time>
      </trkpt>
      <trkpt lat="42.37258" lon="2.48968">
        <ele>1055.8</ele>
        <time>2019-01-07T02:12:18Z</time>
      </trkpt>
      <trkpt lat="42.3727" lon="2.48979">
        <ele>1057.2</ele>
        <time>2019-01-07T02:12:22Z</time>
      </trkpt>
      <trkpt lat="42.3728" lon="2.48988">
        <ele>1058.2</ele>
        <time>2019-01-07T02:12:25Z</time>
      </trkpt>
      <trkpt lat="42.37302" lon="2.48997">
        <ele>1058.6</ele>
        <time>2019-01-07T02:12:31Z</time>
      </trkpt>
      <trkpt lat="42.37304" lon="2.48997">
        <ele>1059.1</ele>
        <time>2019-01-07T02:12:32Z</time>
      </trkpt>
      <trkpt lat="42.37311" lon="2.48998">
        <ele>1060.5</ele>
        <time>2019-01-07T02:12:34Z</time>
      </trkpt>
      <trkpt lat="42.3732" lon="2.48998">
        <ele>1062.9</ele>
        <time>2019-01-07T02:12:36Z</time>
      </trkpt>
      <trkpt lat="42.37331" lon="2.48997">
        <ele>1065.3</ele>
        <time>2019-01-07T02:12:39Z</time>
      </trkpt>
      <trkpt lat="42.37332" lon="2.48997">
        <ele>1065.3</ele>
        <time>2019-01-07T02:12:39Z</time>
      </trkpt>
      <trkpt lat="42.37342" lon="2.48997">
        <ele>1067.3</ele>
        <time>2019-01-07T02:12:42Z</time>
      </trkpt>
      <trkpt lat="42.37359" lon="2.49006">
        <ele>1067.3</ele>
        <time>2019-01-07T02:12:47Z</time>
      </trkpt>
      <trkpt lat="42.37373" lon="2.49017">
        <ele>1066.3</ele>
        <time>2019-01-07T02:12:51Z</time>
      </trkpt>
      <trkpt lat="42.37377" lon="2.49021">
        <ele>1066.8</ele>
        <time>2019-01-07T02:12:53Z</time>
      </trkpt>
      <trkpt lat="42.37383" lon="2.49023">
        <ele>1066.2</ele>
        <time>2019-01-07T02:12:54Z</time>
      </trkpt>
      <trkpt lat="42.3739" lon="2.49027">
        <ele>1066.7</ele>
        <time>2019-01-07T02:12:56Z</time>
      </trkpt>
      <trkpt lat="42.37396" lon="2.49029">
        <ele>1066.8</ele>
        <time>2019-01-07T02:12:58Z</time>
      </trkpt>
      <trkpt lat="42.37406" lon="2.49038">
        <ele>1067.8</ele>
        <time>2019-01-07T02:13:01Z</time>
      </trkpt>
      <trkpt lat="42.37421" lon="2.49051">
        <ele>1069.7</ele>
        <time>2019-01-07T02:13:06Z</time>
      </trkpt>
      <trkpt lat="42.37432" lon="2.4905">
        <ele>1070.6</ele>
        <time>2019-01-07T02:13:09Z</time>
      </trkpt>
      <trkpt lat="42.37441" lon="2.49052">
        <ele>1072.5</ele>
        <time>2019-01-07T02:13:11Z</time>
      </trkpt>
      <trkpt lat="42.37443" lon="2.4905">
        <ele>1074</ele>
        <time>2019-01-07T02:13:12Z</time>
      </trkpt>
      <trkpt lat="42.37451" lon="2.49046">
        <ele>1077.3</ele>
        <time>2019-01-07T02:13:14Z</time>
      </trkpt>
      <trkpt lat="42.37452" lon="2.49045">
        <ele>1077.9</ele>
        <time>2019-01-07T02:13:14Z</time>
      </trkpt>
      <trkpt lat="42.37457" lon="2.49042">
        <ele>1079.8</ele>
        <time>2019-01-07T02:13:16Z</time>
      </trkpt>
      <trkpt lat="42.37465" lon="2.49043">
        <ele>1082.7</ele>
        <time>2019-01-07T02:13:18Z</time>
      </trkpt>
      <trkpt lat="42.37469" lon="2.49044">
        <ele>1083.5</ele>
        <time>2019-01-07T02:13:19Z</time>
      </trkpt>
      <trkpt lat="42.37481" lon="2.49049">
        <ele>1084</ele>
        <time>2019-01-07T02:13:22Z</time>
      </trkpt>
      <trkpt lat="42.37483" lon="2.4905">
        <ele>1084</ele>
        <time>2019-01-07T02:13:23Z</time>
      </trkpt>
      <trkpt lat="42.37494" lon="2.49052">
        <ele>1081.7</ele>
        <time>2019-01-07T02:13:26Z</time>
      </trkpt>
      <trkpt lat="42.37494" lon="2.49052">
        <ele>1086</ele>
        <time>2019-01-07T02:13:26Z</time>
      </trkpt>
      <trkpt lat="42.37495" lon="2.49054">
        <ele>1084.5</ele>
        <time>2019-01-07T02:13:27Z</time>
      </trkpt>
      <trkpt lat="42.37506" lon="2.4905">
        <ele>1084.1</ele>
        <time>2019-01-07T02:13:30Z</time>
      </trkpt>
      <trkpt lat="42.37513" lon="2.49047">
        <ele>1085</ele>
        <time>2019-01-07T02:13:32Z</time>
      </trkpt>
      <trkpt lat="42.37509" lon="2.49049">
        <ele>1084.5</ele>
        <time>2019-01-07T02:13:33Z</time>
      </trkpt>
      <trkpt lat="42.37506" lon="2.49054">
        <ele>1084.1</ele>
        <time>2019-01-07T02:13:34Z</time>
      </trkpt>
      <trkpt lat="42.37489" lon="2.49051">
        <ele>1085.5</ele>
        <time>2019-01-07T02:13:38Z</time>
      </trkpt>
      <trkpt lat="42.37481" lon="2.4905">
        <ele>1084</ele>
        <time>2019-01-07T02:13:41Z</time>
      </trkpt>
      <trkpt lat="42.37477" lon="2.49049">
        <ele>1083.6</ele>
        <time>2019-01-07T02:13:42Z</time>
      </trkpt>
      <trkpt lat="42.3747" lon="2.49043">
        <ele>1084</ele>
        <time>2019-01-07T02:13:44Z</time>
      </trkpt>
      <trkpt lat="42.37475" lon="2.49038">
        <ele>1087.5</ele>
        <time>2019-01-07T02:13:45Z</time>
      </trkpt>
      <trkpt lat="42.37482" lon="2.49038">
        <ele>1088.8</ele>
        <time>2019-01-07T02:13:47Z</time>
      </trkpt>
      <trkpt lat="42.37484" lon="2.49037">
        <ele>1089.3</ele>
        <time>2019-01-07T02:13:48Z</time>
      </trkpt>
      <trkpt lat="42.37488" lon="2.49035">
        <ele>1090.9</ele>
        <time>2019-01-07T02:13:49Z</time>
      </trkpt>
      <trkpt lat="42.37496" lon="2.49029">
        <ele>1094.1</ele>
        <time>2019-01-07T02:13:52Z</time>
      </trkpt>
      <trkpt lat="42.37502" lon="2.49025">
        <ele>1095.6</ele>
        <time>2019-01-07T02:13:53Z</time>
      </trkpt>
      <trkpt lat="42.3751" lon="2.49016">
        <ele>1099</ele>
        <time>2019-01-07T02:13:56Z</time>
      </trkpt>
      <trkpt lat="42.37512" lon="2.49016">
        <ele>1099.5</ele>
        <time>2019-01-07T02:13:56Z</time>
      </trkpt>
      <trkpt lat="42.37522" lon="2.49011">
        <ele>1100</ele>
        <time>2019-01-07T02:13:59Z</time>
      </trkpt>
      <trkpt lat="42.37525" lon="2.49011">
        <ele>1100</ele>
        <time>2019-01-07T02:14:00Z</time>
      </trkpt>
      <trkpt lat="42.37525" lon="2.49012">
        <ele>1100</ele>
        <time>2019-01-07T02:14:00Z</time>
      </trkpt>
      <trkpt lat="42.37526" lon="2.49011">
        <ele>1100</ele>
        <time>2019-01-07T02:14:01Z</time>
      </trkpt>
      <trkpt lat="42.37534" lon="2.49006">
        <ele>1100.4</ele>
        <time>2019-01-07T02:14:03Z</time>
      </trkpt>
      <trkpt lat="42.37547" lon="2.48998">
        <ele>1102.8</ele>
        <time>2019-01-07T02:14:07Z</time>
      </trkpt>
      <trkpt lat="42.37562" lon="2.48995">
        <ele>1104.7</ele>
        <time>2019-01-07T02:14:11Z</time>
      </trkpt>
      <trkpt lat="42.37562" lon="2.48994">
        <ele>1105.3</ele>
        <time>2019-01-07T02:14:11Z</time>
      </trkpt>
      <trkpt lat="42.3757" lon="2.48997">
        <ele>1105.3</ele>
        <time>2019-01-07T02:14:13Z</time>
      </trkpt>
      <trkpt lat="42.37574" lon="2.48998">
        <ele>1105.8</ele>
        <time>2019-01-07T02:14:14Z</time>
      </trkpt>
      <trkpt lat="42.37583" lon="2.49001">
        <ele>1107.2</ele>
        <time>2019-01-07T02:14:17Z</time>
      </trkpt>
      <trkpt lat="42.37602" lon="2.49004">
        <ele>1108.2</ele>
        <time>2019-01-07T02:14:22Z</time>
      </trkpt>
      <trkpt lat="42.37618" lon="2.4901">
        <ele>1109.5</ele>
        <time>2019-01-07T02:14:26Z</time>
      </trkpt>
      <trkpt lat="42.37633" lon="2.49013">
        <ele>1109.6</ele>
        <time>2019-01-07T02:14:30Z</time>
      </trkpt>
      <trkpt lat="42.3765" lon="2.49017">
        <ele>1113</ele>
        <time>2019-01-07T02:14:35Z</time>
      </trkpt>
      <trkpt lat="42.37661" lon="2.49019">
        <ele>1113.3</ele>
        <time>2019-01-07T02:14:38Z</time>
      </trkpt>
      <trkpt lat="42.37666" lon="2.4902">
        <ele>1113.8</ele>
        <time>2019-01-07T02:14:39Z</time>
      </trkpt>
      <trkpt lat="42.37675" lon="2.49023">
        <ele>1115.9</ele>
        <time>2019-01-07T02:14:42Z</time>
      </trkpt>
      <trkpt lat="42.37691" lon="2.49029">
        <ele>1116.3</ele>
        <time>2019-01-07T02:14:46Z</time>
      </trkpt>
      <trkpt lat="42.37706" lon="2.49032">
        <ele>1118.7</ele>
        <time>2019-01-07T02:14:50Z</time>
      </trkpt>
      <trkpt lat="42.37721" lon="2.49037">
        <ele>1120.7</ele>
        <time>2019-01-07T02:14:54Z</time>
      </trkpt>
      <trkpt lat="42.37721" lon="2.49038">
        <ele>1120.2</ele>
        <time>2019-01-07T02:14:54Z</time>
      </trkpt>
      <trkpt lat="42.3774" lon="2.49038">
        <ele>1122.5</ele>
        <time>2019-01-07T02:14:59Z</time>
      </trkpt>
      <trkpt lat="42.37759" lon="2.49037">
        <ele>1124.5</ele>
        <time>2019-01-07T02:15:04Z</time>
      </trkpt>
      <trkpt lat="42.37769" lon="2.4903">
        <ele>1125.4</ele>
        <time>2019-01-07T02:15:08Z</time>
      </trkpt>
      <trkpt lat="42.37778" lon="2.49025">
        <ele>1126.3</ele>
        <time>2019-01-07T02:15:10Z</time>
      </trkpt>
      <trkpt lat="42.37795" lon="2.49026">
        <ele>1127.3</ele>
        <time>2019-01-07T02:15:15Z</time>
      </trkpt>
      <trkpt lat="42.37805" lon="2.49023">
        <ele>1128.7</ele>
        <time>2019-01-07T02:15:18Z</time>
      </trkpt>
      <trkpt lat="42.37824" lon="2.49012">
        <ele>1130.3</ele>
        <time>2019-01-07T02:15:23Z</time>
      </trkpt>
      <trkpt lat="42.37829" lon="2.49012">
        <ele>1130.7</ele>
        <time>2019-01-07T02:15:24Z</time>
      </trkpt>
      <trkpt lat="42.37832" lon="2.49013">
        <ele>1131.7</ele>
        <time>2019-01-07T02:15:25Z</time>
      </trkpt>
      <trkpt lat="42.37845" lon="2.4902">
        <ele>1133.5</ele>
        <time>2019-01-07T02:15:29Z</time>
      </trkpt>
      <trkpt lat="42.37851" lon="2.49016">
        <ele>1133.6</ele>
        <time>2019-01-07T02:15:31Z</time>
      </trkpt>
      <trkpt lat="42.37852" lon="2.49015">
        <ele>1134</ele>
        <time>2019-01-07T02:15:31Z</time>
      </trkpt>
      <trkpt lat="42.37851" lon="2.49026">
        <ele>1134.1</ele>
        <time>2019-01-07T02:15:34Z</time>
      </trkpt>
      <trkpt lat="42.37847" lon="2.49039">
        <ele>1134.6</ele>
        <time>2019-01-07T02:15:36Z</time>
      </trkpt>
      <trkpt lat="42.37848" lon="2.49067">
        <ele>1135</ele>
        <time>2019-01-07T02:15:42Z</time>
      </trkpt>
      <trkpt lat="42.37849" lon="2.4907">
        <ele>1135.5</ele>
        <time>2019-01-07T02:15:42Z</time>
      </trkpt>
      <trkpt lat="42.37853" lon="2.4909">
        <ele>1137.4</ele>
        <time>2019-01-07T02:15:46Z</time>
      </trkpt>
      <trkpt lat="42.37862" lon="2.49106">
        <ele>1140.3</ele>
        <time>2019-01-07T02:15:50Z</time>
      </trkpt>
      <trkpt lat="42.3787" lon="2.49116">
        <ele>1140.7</ele>
        <time>2019-01-07T02:15:53Z</time>
      </trkpt>
      <trkpt lat="42.37872" lon="2.49147">
        <ele>1142.2</ele>
        <time>2019-01-07T02:15:59Z</time>
      </trkpt>
      <trkpt lat="42.37871" lon="2.49154">
        <ele>1141.3</ele>
        <time>2019-01-07T02:16:01Z</time>
      </trkpt>
      <trkpt lat="42.37867" lon="2.49165">
        <ele>1142.8</ele>
        <time>2019-01-07T02:16:03Z</time>
      </trkpt>
      <trkpt lat="42.37865" lon="2.49192">
        <ele>1143.1</ele>
        <time>2019-01-07T02:16:09Z</time>
      </trkpt>
      <trkpt lat="42.37863" lon="2.49212">
        <ele>1145.2</ele>
        <time>2019-01-07T02:16:12Z</time>
      </trkpt>
      <trkpt lat="42.37855" lon="2.49227">
        <ele>1145.7</ele>
        <time>2019-01-07T02:16:16Z</time>
      </trkpt>
      <trkpt lat="42.37835" lon="2.49241">
        <ele>1148.1</ele>
        <time>2019-01-07T02:16:22Z</time>
      </trkpt>
      <trkpt lat="42.37828" lon="2.49243">
        <ele>1148.9</ele>
        <time>2019-01-07T02:16:24Z</time>
      </trkpt>
      <trkpt lat="42.37814" lon="2.49251">
        <ele>1150.4</ele>
        <time>2019-01-07T02:16:28Z</time>
      </trkpt>
      <trkpt lat="42.378" lon="2.49266">
        <ele>1151.8</ele>
        <time>2019-01-07T02:16:33Z</time>
      </trkpt>
      <trkpt lat="42.3779" lon="2.49282">
        <ele>1154.8</ele>
        <time>2019-01-07T02:16:37Z</time>
      </trkpt>
      <trkpt lat="42.37785" lon="2.49295">
        <ele>1155.3</ele>
        <time>2019-01-07T02:16:40Z</time>
      </trkpt>
      <trkpt lat="42.37786" lon="2.49326">
        <ele>1156.7</ele>
        <time>2019-01-07T02:16:46Z</time>
      </trkpt>
      <trkpt lat="42.37791" lon="2.49353">
        <ele>1159.6</ele>
        <time>2019-01-07T02:16:52Z</time>
      </trkpt>
      <trkpt lat="42.37799" lon="2.49369">
        <ele>1160.6</ele>
        <time>2019-01-07T02:16:55Z</time>
      </trkpt>
      <trkpt lat="42.37811" lon="2.49389">
        <ele>1162.5</ele>
        <time>2019-01-07T02:17:00Z</time>
      </trkpt>
      <trkpt lat="42.3782" lon="2.49406">
        <ele>1164.4</ele>
        <time>2019-01-07T02:17:05Z</time>
      </trkpt>
      <trkpt lat="42.37834" lon="2.49425">
        <ele>1165.8</ele>
        <time>2019-01-07T02:17:10Z</time>
      </trkpt>
      <trkpt lat="42.37845" lon="2.4944">
        <ele>1167.7</ele>
        <time>2019-01-07T02:17:14Z</time>
      </trkpt>
      <trkpt lat="42.37859" lon="2.49458">
        <ele>1170.1</ele>
        <time>2019-01-07T02:17:19Z</time>
      </trkpt>
      <trkpt lat="42.37876" lon="2.49477">
        <ele>1172</ele>
        <time>2019-01-07T02:17:25Z</time>
      </trkpt>
      <trkpt lat="42.37894" lon="2.49495">
        <ele>1173</ele>
        <time>2019-01-07T02:17:31Z</time>
      </trkpt>
      <trkpt lat="42.37911" lon="2.49509">
        <ele>1175.4</ele>
        <time>2019-01-07T02:17:36Z</time>
      </trkpt>
      <trkpt lat="42.37928" lon="2.49527">
        <ele>1177.4</ele>
        <time>2019-01-07T02:17:42Z</time>
      </trkpt>
      <trkpt lat="42.37939" lon="2.49553">
        <ele>1179.3</ele>
        <time>2019-01-07T02:17:48Z</time>
      </trkpt>
      <trkpt lat="42.3794" lon="2.49555">
        <ele>1179.3</ele>
        <time>2019-01-07T02:17:48Z</time>
      </trkpt>
      <trkpt lat="42.3795" lon="2.49576">
        <ele>1180.7</ele>
        <time>2019-01-07T02:17:53Z</time>
      </trkpt>
      <trkpt lat="42.37963" lon="2.49601">
        <ele>1183.5</ele>
        <time>2019-01-07T02:17:59Z</time>
      </trkpt>
      <trkpt lat="42.37965" lon="2.49609">
        <ele>1183.5</ele>
        <time>2019-01-07T02:18:01Z</time>
      </trkpt>
      <trkpt lat="42.37965" lon="2.49612">
        <ele>1183</ele>
        <time>2019-01-07T02:18:02Z</time>
      </trkpt>
      <trkpt lat="42.37968" lon="2.49622">
        <ele>1184.5</ele>
        <time>2019-01-07T02:18:04Z</time>
      </trkpt>
      <trkpt lat="42.37978" lon="2.49644">
        <ele>1186</ele>
        <time>2019-01-07T02:18:09Z</time>
      </trkpt>
      <trkpt lat="42.37991" lon="2.49657">
        <ele>1187.4</ele>
        <time>2019-01-07T02:18:13Z</time>
      </trkpt>
      <trkpt lat="42.37998" lon="2.49666">
        <ele>1188.9</ele>
        <time>2019-01-07T02:18:16Z</time>
      </trkpt>
      <trkpt lat="42.38007" lon="2.49671">
        <ele>1190.3</ele>
        <time>2019-01-07T02:18:18Z</time>
      </trkpt>
      <trkpt lat="42.3801" lon="2.4967">
        <ele>1191.8</ele>
        <time>2019-01-07T02:18:19Z</time>
      </trkpt>
      <trkpt lat="42.38011" lon="2.49671">
        <ele>1191.3</ele>
        <time>2019-01-07T02:18:20Z</time>
      </trkpt>
      <trkpt lat="42.38013" lon="2.49667">
        <ele>1191.2</ele>
        <time>2019-01-07T02:18:21Z</time>
      </trkpt>
      <trkpt lat="42.38018" lon="2.4966">
        <ele>1190.8</ele>
        <time>2019-01-07T02:18:22Z</time>
      </trkpt>
      <trkpt lat="42.38018" lon="2.49659">
        <ele>1190.7</ele>
        <time>2019-01-07T02:18:23Z</time>
      </trkpt>
      <trkpt lat="42.38019" lon="2.49646">
        <ele>1188.8</ele>
        <time>2019-01-07T02:18:25Z</time>
      </trkpt>
      <trkpt lat="42.38028" lon="2.49628">
        <ele>1187.4</ele>
        <time>2019-01-07T02:18:29Z</time>
      </trkpt>
      <trkpt lat="42.38029" lon="2.49627">
        <ele>1187.9</ele>
        <time>2019-01-07T02:18:30Z</time>
      </trkpt>
      <trkpt lat="42.3803" lon="2.49624">
        <ele>1187</ele>
        <time>2019-01-07T02:18:30Z</time>
      </trkpt>
      <trkpt lat="42.38038" lon="2.49603">
        <ele>1185</ele>
        <time>2019-01-07T02:18:35Z</time>
      </trkpt>
      <trkpt lat="42.38042" lon="2.49597">
        <ele>1185.1</ele>
        <time>2019-01-07T02:18:37Z</time>
      </trkpt>
      <trkpt lat="42.38052" lon="2.49586">
        <ele>1183.1</ele>
        <time>2019-01-07T02:18:40Z</time>
      </trkpt>
      <trkpt lat="42.38071" lon="2.49568">
        <ele>1181.6</ele>
        <time>2019-01-07T02:18:46Z</time>
      </trkpt>
      <trkpt lat="42.3808" lon="2.49542">
        <ele>1179.3</ele>
        <time>2019-01-07T02:18:52Z</time>
      </trkpt>
      <trkpt lat="42.38081" lon="2.4953">
        <ele>1178.2</ele>
        <time>2019-01-07T02:18:54Z</time>
      </trkpt>
      <trkpt lat="42.3808" lon="2.4951">
        <ele>1176.3</ele>
        <time>2019-01-07T02:18:58Z</time>
      </trkpt>
      <trkpt lat="42.38078" lon="2.49472">
        <ele>1173.4</ele>
        <time>2019-01-07T02:19:06Z</time>
      </trkpt>
      <trkpt lat="42.38076" lon="2.49449">
        <ele>1173.4</ele>
        <time>2019-01-07T02:19:10Z</time>
      </trkpt>
      <trkpt lat="42.3808" lon="2.49438">
        <ele>1171.5</ele>
        <time>2019-01-07T02:19:13Z</time>
      </trkpt>
      <trkpt lat="42.38082" lon="2.49438">
        <ele>1170.5</ele>
        <time>2019-01-07T02:19:13Z</time>
      </trkpt>
      <trkpt lat="42.38088" lon="2.4944">
        <ele>1170.2</ele>
        <time>2019-01-07T02:19:15Z</time>
      </trkpt>
      <trkpt lat="42.38089" lon="2.49444">
        <ele>1169.1</ele>
        <time>2019-01-07T02:19:16Z</time>
      </trkpt>
      <trkpt lat="42.38093" lon="2.49446">
        <ele>1168.1</ele>
        <time>2019-01-07T02:19:17Z</time>
      </trkpt>
      <trkpt lat="42.38094" lon="2.49449">
        <ele>1168.1</ele>
        <time>2019-01-07T02:19:18Z</time>
      </trkpt>
      <trkpt lat="42.38101" lon="2.49456">
        <ele>1167.7</ele>
        <time>2019-01-07T02:19:20Z</time>
      </trkpt>
      <trkpt lat="42.38119" lon="2.49467">
        <ele>1165.7</ele>
        <time>2019-01-07T02:19:25Z</time>
      </trkpt>
      <trkpt lat="42.38129" lon="2.49473">
        <ele>1163.8</ele>
        <time>2019-01-07T02:19:28Z</time>
      </trkpt>
      <trkpt lat="42.38138" lon="2.49479">
        <ele>1162.9</ele>
        <time>2019-01-07T02:19:31Z</time>
      </trkpt>
      <trkpt lat="42.38152" lon="2.49485">
        <ele>1161.4</ele>
        <time>2019-01-07T02:19:35Z</time>
      </trkpt>
      <trkpt lat="42.38159" lon="2.49489">
        <ele>1161.5</ele>
        <time>2019-01-07T02:19:37Z</time>
      </trkpt>
      <trkpt lat="42.38169" lon="2.49499">
        <ele>1160.5</ele>
        <time>2019-01-07T02:19:40Z</time>
      </trkpt>
      <trkpt lat="42.38177" lon="2.49506">
        <ele>1158.5</ele>
        <time>2019-01-07T02:19:43Z</time>
      </trkpt>
      <trkpt lat="42.3819" lon="2.49515">
        <ele>1159.1</ele>
        <time>2019-01-07T02:19:46Z</time>
      </trkpt>
      <trkpt lat="42.38202" lon="2.49526">
        <ele>1158.6</ele>
        <time>2019-01-07T02:19:50Z</time>
      </trkpt>
      <trkpt lat="42.38209" lon="2.49534">
        <ele>1156.7</ele>
        <time>2019-01-07T02:19:53Z</time>
      </trkpt>
      <trkpt lat="42.38224" lon="2.49548">
        <ele>1154.3</ele>
        <time>2019-01-07T02:19:58Z</time>
      </trkpt>
      <trkpt lat="42.38236" lon="2.49558">
        <ele>1153.3</ele>
        <time>2019-01-07T02:20:01Z</time>
      </trkpt>
      <trkpt lat="42.38256" lon="2.49569">
        <ele>1151.9</ele>
        <time>2019-01-07T02:20:07Z</time>
      </trkpt>
      <trkpt lat="42.38261" lon="2.49571">
        <ele>1150.4</ele>
        <time>2019-01-07T02:20:09Z</time>
      </trkpt>
      <trkpt lat="42.38267" lon="2.49575">
        <ele>1149.9</ele>
        <time>2019-01-07T02:20:10Z</time>
      </trkpt>
      <trkpt lat="42.3828" lon="2.49579">
        <ele>1149.5</ele>
        <time>2019-01-07T02:20:14Z</time>
      </trkpt>
      <trkpt lat="42.38287" lon="2.49582">
        <ele>1148</ele>
        <time>2019-01-07T02:20:16Z</time>
      </trkpt>
      <trkpt lat="42.3832" lon="2.49581">
        <ele>1146</ele>
        <time>2019-01-07T02:20:25Z</time>
      </trkpt>
      <trkpt lat="42.38335" lon="2.49575">
        <ele>1143.7</ele>
        <time>2019-01-07T02:20:29Z</time>
      </trkpt>
      <trkpt lat="42.38337" lon="2.49574">
        <ele>1144.7</ele>
        <time>2019-01-07T02:20:29Z</time>
      </trkpt>
      <trkpt lat="42.38342" lon="2.4957">
        <ele>1143.1</ele>
        <time>2019-01-07T02:20:31Z</time>
      </trkpt>
      <trkpt lat="42.38351" lon="2.49556">
        <ele>1142.3</ele>
        <time>2019-01-07T02:20:35Z</time>
      </trkpt>
      <trkpt lat="42.38359" lon="2.49546">
        <ele>1141.8</ele>
        <time>2019-01-07T02:20:38Z</time>
      </trkpt>
      <trkpt lat="42.38365" lon="2.49533">
        <ele>1141.3</ele>
        <time>2019-01-07T02:20:40Z</time>
      </trkpt>
      <trkpt lat="42.3837" lon="2.49526">
        <ele>1140.7</ele>
        <time>2019-01-07T02:20:42Z</time>
      </trkpt>
      <trkpt lat="42.38381" lon="2.49508">
        <ele>1137.4</ele>
        <time>2019-01-07T02:20:47Z</time>
      </trkpt>
      <trkpt lat="42.38382" lon="2.49506">
        <ele>1137.4</ele>
        <time>2019-01-07T02:20:47Z</time>
      </trkpt>
      <trkpt lat="42.38388" lon="2.49498">
        <ele>1137</ele>
        <time>2019-01-07T02:20:50Z</time>
      </trkpt>
      <trkpt lat="42.3839" lon="2.49499">
        <ele>1136.5</ele>
        <time>2019-01-07T02:20:50Z</time>
      </trkpt>
      <trkpt lat="42.38395" lon="2.49499">
        <ele>1136</ele>
        <time>2019-01-07T02:20:52Z</time>
      </trkpt>
      <trkpt lat="42.38408" lon="2.49495">
        <ele>1135.1</ele>
        <time>2019-01-07T02:20:55Z</time>
      </trkpt>
      <trkpt lat="42.38412" lon="2.49499">
        <ele>1135.1</ele>
        <time>2019-01-07T02:20:56Z</time>
      </trkpt>
      <trkpt lat="42.38424" lon="2.49502">
        <ele>1133.6</ele>
        <time>2019-01-07T02:21:00Z</time>
      </trkpt>
      <trkpt lat="42.38448" lon="2.49497">
        <ele>1131.6</ele>
        <time>2019-01-07T02:21:06Z</time>
      </trkpt>
      <trkpt lat="42.38458" lon="2.49497">
        <ele>1131.7</ele>
        <time>2019-01-07T02:21:09Z</time>
      </trkpt>
      <trkpt lat="42.38459" lon="2.49496">
        <ele>1131.1</ele>
        <time>2019-01-07T02:21:09Z</time>
      </trkpt>
      <trkpt lat="42.38464" lon="2.49504">
        <ele>1130.2</ele>
        <time>2019-01-07T02:21:12Z</time>
      </trkpt>
      <trkpt lat="42.38483" lon="2.49537">
        <ele>1127.4</ele>
        <time>2019-01-07T02:21:20Z</time>
      </trkpt>
      <trkpt lat="42.38487" lon="2.49545">
        <ele>1127.3</ele>
        <time>2019-01-07T02:21:22Z</time>
      </trkpt>
      <trkpt lat="42.38492" lon="2.49551">
        <ele>1126.3</ele>
        <time>2019-01-07T02:21:23Z</time>
      </trkpt>
      <trkpt lat="42.38502" lon="2.49558">
        <ele>1125.9</ele>
        <time>2019-01-07T02:21:26Z</time>
      </trkpt>
      <trkpt lat="42.38527" lon="2.49553">
        <ele>1124</ele>
        <time>2019-01-07T02:21:33Z</time>
      </trkpt>
      <trkpt lat="42.38549" lon="2.49545">
        <ele>1121.6</ele>
        <time>2019-01-07T02:21:39Z</time>
      </trkpt>
      <trkpt lat="42.38565" lon="2.49538">
        <ele>1121.6</ele>
        <time>2019-01-07T02:21:44Z</time>
      </trkpt>
      <trkpt lat="42.38575" lon="2.49532">
        <ele>1119.7</ele>
        <time>2019-01-07T02:21:47Z</time>
      </trkpt>
      <trkpt lat="42.38585" lon="2.49527">
        <ele>1118.2</ele>
        <time>2019-01-07T02:21:49Z</time>
      </trkpt>
      <trkpt lat="42.386" lon="2.49522">
        <ele>1118.2</ele>
        <time>2019-01-07T02:21:53Z</time>
      </trkpt>
      <trkpt lat="42.3863" lon="2.49518">
        <ele>1116.7</ele>
        <time>2019-01-07T02:22:02Z</time>
      </trkpt>
      <trkpt lat="42.38641" lon="2.49516">
        <ele>1115.3</ele>
        <time>2019-01-07T02:22:05Z</time>
      </trkpt>
      <trkpt lat="42.38667" lon="2.49504">
        <ele>1115.3</ele>
        <time>2019-01-07T02:22:12Z</time>
      </trkpt>
      <trkpt lat="42.38672" lon="2.49499">
        <ele>1114.3</ele>
        <time>2019-01-07T02:22:13Z</time>
      </trkpt>
      <trkpt lat="42.38687" lon="2.49482">
        <ele>1113.3</ele>
        <time>2019-01-07T02:22:19Z</time>
      </trkpt>
      <trkpt lat="42.38688" lon="2.4948">
        <ele>1111.9</ele>
        <time>2019-01-07T02:22:19Z</time>
      </trkpt>
      <trkpt lat="42.38693" lon="2.49469">
        <ele>1112.5</ele>
        <time>2019-01-07T02:22:22Z</time>
      </trkpt>
      <trkpt lat="42.387" lon="2.49457">
        <ele>1111.9</ele>
        <time>2019-01-07T02:22:25Z</time>
      </trkpt>
      <trkpt lat="42.38713" lon="2.49428">
        <ele>1110.5</ele>
        <time>2019-01-07T02:22:31Z</time>
      </trkpt>
      <trkpt lat="42.38713" lon="2.49426">
        <ele>1110</ele>
        <time>2019-01-07T02:22:32Z</time>
      </trkpt>
      <trkpt lat="42.38713" lon="2.49396">
        <ele>1109</ele>
        <time>2019-01-07T02:22:38Z</time>
      </trkpt>
      <trkpt lat="42.38712" lon="2.49368">
        <ele>1108.1</ele>
        <time>2019-01-07T02:22:43Z</time>
      </trkpt>
      <trkpt lat="42.38712" lon="2.49363">
        <ele>1107.2</ele>
        <time>2019-01-07T02:22:44Z</time>
      </trkpt>
      <trkpt lat="42.38717" lon="2.49351">
        <ele>1107.1</ele>
        <time>2019-01-07T02:22:47Z</time>
      </trkpt>
      <trkpt lat="42.38717" lon="2.49351">
        <ele>1105.7</ele>
        <time>2019-01-07T02:22:47Z</time>
      </trkpt>
      <trkpt lat="42.38726" lon="2.49347">
        <ele>1106.6</ele>
        <time>2019-01-07T02:22:50Z</time>
      </trkpt>
      <trkpt lat="42.38727" lon="2.49347">
        <ele>1106.7</ele>
        <time>2019-01-07T02:22:50Z</time>
      </trkpt>
      <trkpt lat="42.38744" lon="2.49344">
        <ele>1104.7</ele>
        <time>2019-01-07T02:22:55Z</time>
      </trkpt>
      <trkpt lat="42.38755" lon="2.49339">
        <ele>1104.2</ele>
        <time>2019-01-07T02:22:58Z</time>
      </trkpt>
      <trkpt lat="42.38765" lon="2.49327">
        <ele>1101.9</ele>
        <time>2019-01-07T02:23:01Z</time>
      </trkpt>
      <trkpt lat="42.38775" lon="2.49315">
        <ele>1101.9</ele>
        <time>2019-01-07T02:23:05Z</time>
      </trkpt>
      <trkpt lat="42.38778" lon="2.49308">
        <ele>1102.3</ele>
        <time>2019-01-07T02:23:06Z</time>
      </trkpt>
      <trkpt lat="42.38788" lon="2.49281">
        <ele>1100.4</ele>
        <time>2019-01-07T02:23:13Z</time>
      </trkpt>
      <trkpt lat="42.38791" lon="2.49275">
        <ele>1099.4</ele>
        <time>2019-01-07T02:23:14Z</time>
      </trkpt>
      <trkpt lat="42.38792" lon="2.4927">
        <ele>1098.1</ele>
        <time>2019-01-07T02:23:15Z</time>
      </trkpt>
      <trkpt lat="42.38802" lon="2.49253">
        <ele>1095.6</ele>
        <time>2019-01-07T02:23:19Z</time>
      </trkpt>
      <trkpt lat="42.38817" lon="2.49233">
        <ele>1096</ele>
        <time>2019-01-07T02:23:25Z</time>
      </trkpt>
      <trkpt lat="42.38834" lon="2.49216">
        <ele>1095.2</ele>
        <time>2019-01-07T02:23:30Z</time>
      </trkpt>
      <trkpt lat="42.38835" lon="2.49214">
        <ele>1094.2</ele>
        <time>2019-01-07T02:23:31Z</time>
      </trkpt>
      <trkpt lat="42.3885" lon="2.49215">
        <ele>1092.2</ele>
        <time>2019-01-07T02:23:35Z</time>
      </trkpt>
      <trkpt lat="42.38852" lon="2.49216">
        <ele>1093.6</ele>
        <time>2019-01-07T02:23:35Z</time>
      </trkpt>
      <trkpt lat="42.38854" lon="2.49216">
        <ele>1092.3</ele>
        <time>2019-01-07T02:23:36Z</time>
      </trkpt>
      <trkpt lat="42.3887" lon="2.49214">
        <ele>1090.8</ele>
        <time>2019-01-07T02:23:40Z</time>
      </trkpt>
      <trkpt lat="42.38886" lon="2.49203">
        <ele>1090.3</ele>
        <time>2019-01-07T02:23:45Z</time>
      </trkpt>
      <trkpt lat="42.38897" lon="2.49181">
        <ele>1088.8</ele>
        <time>2019-01-07T02:23:50Z</time>
      </trkpt>
      <trkpt lat="42.38903" lon="2.49168">
        <ele>1088</ele>
        <time>2019-01-07T02:23:53Z</time>
      </trkpt>
      <trkpt lat="42.38906" lon="2.49165">
        <ele>1088</ele>
        <time>2019-01-07T02:23:54Z</time>
      </trkpt>
      <trkpt lat="42.38919" lon="2.4918">
        <ele>1086.1</ele>
        <time>2019-01-07T02:23:59Z</time>
      </trkpt>
      <trkpt lat="42.38926" lon="2.49185">
        <ele>1085.6</ele>
        <time>2019-01-07T02:24:01Z</time>
      </trkpt>
      <trkpt lat="42.38934" lon="2.49187">
        <ele>1084.6</ele>
        <time>2019-01-07T02:24:03Z</time>
      </trkpt>
      <trkpt lat="42.3895" lon="2.49186">
        <ele>1084</ele>
        <time>2019-01-07T02:24:07Z</time>
      </trkpt>
      <trkpt lat="42.38958" lon="2.49181">
        <ele>1082.6</ele>
        <time>2019-01-07T02:24:10Z</time>
      </trkpt>
      <trkpt lat="42.38968" lon="2.49176">
        <ele>1082.6</ele>
        <time>2019-01-07T02:24:12Z</time>
      </trkpt>
      <trkpt lat="42.3898" lon="2.49165">
        <ele>1080.7</ele>
        <time>2019-01-07T02:24:16Z</time>
      </trkpt>
      <trkpt lat="42.38988" lon="2.4916">
        <ele>1078.7</ele>
        <time>2019-01-07T02:24:19Z</time>
      </trkpt>
      <trkpt lat="42.38994" lon="2.49159">
        <ele>1078.8</ele>
        <time>2019-01-07T02:24:20Z</time>
      </trkpt>
      <trkpt lat="42.39013" lon="2.49158">
        <ele>1077.4</ele>
        <time>2019-01-07T02:24:25Z</time>
      </trkpt>
      <trkpt lat="42.39015" lon="2.49158">
        <ele>1077.4</ele>
        <time>2019-01-07T02:24:26Z</time>
      </trkpt>
      <trkpt lat="42.39042" lon="2.49147">
        <ele>1076</ele>
        <time>2019-01-07T02:24:33Z</time>
      </trkpt>
      <trkpt lat="42.39045" lon="2.49145">
        <ele>1075.5</ele>
        <time>2019-01-07T02:24:34Z</time>
      </trkpt>
      <trkpt lat="42.39048" lon="2.49142">
        <ele>1074.4</ele>
        <time>2019-01-07T02:24:35Z</time>
      </trkpt>
      <trkpt lat="42.39055" lon="2.49133">
        <ele>1073.6</ele>
        <time>2019-01-07T02:24:38Z</time>
      </trkpt>
      <trkpt lat="42.39062" lon="2.49127">
        <ele>1074.5</ele>
        <time>2019-01-07T02:24:40Z</time>
      </trkpt>
      <trkpt lat="42.39077" lon="2.4912">
        <ele>1076</ele>
        <time>2019-01-07T02:24:44Z</time>
      </trkpt>
      <trkpt lat="42.3908" lon="2.4912">
        <ele>1075.9</ele>
        <time>2019-01-07T02:24:45Z</time>
      </trkpt>
      <trkpt lat="42.39106" lon="2.49105">
        <ele>1075.4</ele>
        <time>2019-01-07T02:24:53Z</time>
      </trkpt>
      <trkpt lat="42.39112" lon="2.49103">
        <ele>1076.9</ele>
        <time>2019-01-07T02:24:54Z</time>
      </trkpt>
      <trkpt lat="42.39117" lon="2.49099">
        <ele>1076.3</ele>
        <time>2019-01-07T02:24:56Z</time>
      </trkpt>
      <trkpt lat="42.39138" lon="2.49093">
        <ele>1076.9</ele>
        <time>2019-01-07T02:25:02Z</time>
      </trkpt>
      <trkpt lat="42.3915" lon="2.49092">
        <ele>1075.5</ele>
        <time>2019-01-07T02:25:05Z</time>
      </trkpt>
      <trkpt lat="42.39157" lon="2.49093">
        <ele>1074.9</ele>
        <time>2019-01-07T02:25:07Z</time>
      </trkpt>
      <trkpt lat="42.39161" lon="2.49087">
        <ele>1074</ele>
        <time>2019-01-07T02:25:08Z</time>
      </trkpt>
      <trkpt lat="42.39164" lon="2.49089">
        <ele>1073.9</ele>
        <time>2019-01-07T02:25:09Z</time>
      </trkpt>
      <trkpt lat="42.3917" lon="2.49087">
        <ele>1073.9</ele>
        <time>2019-01-07T02:25:11Z</time>
      </trkpt>
      <trkpt lat="42.39174" lon="2.49085">
        <ele>1072.1</ele>
        <time>2019-01-07T02:25:12Z</time>
      </trkpt>
      <trkpt lat="42.39199" lon="2.49078">
        <ele>1068.2</ele>
        <time>2019-01-07T02:25:19Z</time>
      </trkpt>
      <trkpt lat="42.39206" lon="2.49078">
        <ele>1066.7</ele>
        <time>2019-01-07T02:25:21Z</time>
      </trkpt>
      <trkpt lat="42.39214" lon="2.49089">
        <ele>1065.9</ele>
        <time>2019-01-07T02:25:24Z</time>
      </trkpt>
      <trkpt lat="42.3922" lon="2.49104">
        <ele>1062.4</ele>
        <time>2019-01-07T02:25:27Z</time>
      </trkpt>
      <trkpt lat="42.3922" lon="2.4911">
        <ele>1062.4</ele>
        <time>2019-01-07T02:25:28Z</time>
      </trkpt>
      <trkpt lat="42.3922" lon="2.49107">
        <ele>1060.1</ele>
        <time>2019-01-07T02:25:29Z</time>
      </trkpt>
      <trkpt lat="42.39227" lon="2.49086">
        <ele>1061.5</ele>
        <time>2019-01-07T02:25:33Z</time>
      </trkpt>
      <trkpt lat="42.39231" lon="2.49053">
        <ele>1063</ele>
        <time>2019-01-07T02:25:40Z</time>
      </trkpt>
      <trkpt lat="42.39238" lon="2.49033">
        <ele>1063</ele>
        <time>2019-01-07T02:25:44Z</time>
      </trkpt>
      <trkpt lat="42.39253" lon="2.4901">
        <ele>1064.4</ele>
        <time>2019-01-07T02:25:50Z</time>
      </trkpt>
      <trkpt lat="42.3926" lon="2.49004">
        <ele>1063.8</ele>
        <time>2019-01-07T02:25:52Z</time>
      </trkpt>
      <trkpt lat="42.39262" lon="2.49004">
        <ele>1063.8</ele>
        <time>2019-01-07T02:25:53Z</time>
      </trkpt>
      <trkpt lat="42.39268" lon="2.49005">
        <ele>1062.9</ele>
        <time>2019-01-07T02:25:54Z</time>
      </trkpt>
      <trkpt lat="42.39275" lon="2.49004">
        <ele>1060.5</ele>
        <time>2019-01-07T02:25:57Z</time>
      </trkpt>
      <trkpt lat="42.39287" lon="2.49">
        <ele>1057.1</ele>
        <time>2019-01-07T02:26:00Z</time>
      </trkpt>
      <trkpt lat="42.39288" lon="2.49">
        <ele>1057.1</ele>
        <time>2019-01-07T02:26:00Z</time>
      </trkpt>
      <trkpt lat="42.39288" lon="2.48997">
        <ele>1057.2</ele>
        <time>2019-01-07T02:26:01Z</time>
      </trkpt>
      <trkpt lat="42.39294" lon="2.48984">
        <ele>1057.1</ele>
        <time>2019-01-07T02:26:04Z</time>
      </trkpt>
      <trkpt lat="42.39299" lon="2.48978">
        <ele>1056.3</ele>
        <time>2019-01-07T02:26:05Z</time>
      </trkpt>
      <trkpt lat="42.39301" lon="2.48972">
        <ele>1055.2</ele>
        <time>2019-01-07T02:26:07Z</time>
      </trkpt>
      <trkpt lat="42.39304" lon="2.48968">
        <ele>1053.8</ele>
        <time>2019-01-07T02:26:08Z</time>
      </trkpt>
      <trkpt lat="42.39307" lon="2.48962">
        <ele>1054.3</ele>
        <time>2019-01-07T02:26:09Z</time>
      </trkpt>
      <trkpt lat="42.39315" lon="2.48961">
        <ele>1052.8</ele>
        <time>2019-01-07T02:26:11Z</time>
      </trkpt>
      <trkpt lat="42.39318" lon="2.48962">
        <ele>1051.3</ele>
        <time>2019-01-07T02:26:12Z</time>
      </trkpt>
      <trkpt lat="42.39325" lon="2.48958">
        <ele>1050</ele>
        <time>2019-01-07T02:26:14Z</time>
      </trkpt>
      <trkpt lat="42.39327" lon="2.48957">
        <ele>1048.5</ele>
        <time>2019-01-07T02:26:15Z</time>
      </trkpt>
      <trkpt lat="42.39333" lon="2.48955">
        <ele>1047.1</ele>
        <time>2019-01-07T02:26:16Z</time>
      </trkpt>
      <trkpt lat="42.39338" lon="2.48953">
        <ele>1044.2</ele>
        <time>2019-01-07T02:26:18Z</time>
      </trkpt>
      <trkpt lat="42.3934" lon="2.48951">
        <ele>1044.7</ele>
        <time>2019-01-07T02:26:18Z</time>
      </trkpt>
      <trkpt lat="42.39342" lon="2.48948">
        <ele>1043.2</ele>
        <time>2019-01-07T02:26:19Z</time>
      </trkpt>
      <trkpt lat="42.39347" lon="2.48942">
        <ele>1042.3</ele>
        <time>2019-01-07T02:26:21Z</time>
      </trkpt>
      <trkpt lat="42.39352" lon="2.48934">
        <ele>1040.4</ele>
        <time>2019-01-07T02:26:23Z</time>
      </trkpt>
      <trkpt lat="42.39362" lon="2.48933">
        <ele>1037.9</ele>
        <time>2019-01-07T02:26:26Z</time>
      </trkpt>
      <trkpt lat="42.39366" lon="2.48935">
        <ele>1036.4</ele>
        <time>2019-01-07T02:26:27Z</time>
      </trkpt>
      <trkpt lat="42.39368" lon="2.48935">
        <ele>1036.4</ele>
        <time>2019-01-07T02:26:27Z</time>
      </trkpt>
      <trkpt lat="42.39374" lon="2.48935">
        <ele>1035</ele>
        <time>2019-01-07T02:26:29Z</time>
      </trkpt>
      <trkpt lat="42.39388" lon="2.48919">
        <ele>1031.2</ele>
        <time>2019-01-07T02:26:34Z</time>
      </trkpt>
      <trkpt lat="42.3939" lon="2.48918">
        <ele>1030.8</ele>
        <time>2019-01-07T02:26:34Z</time>
      </trkpt>
      <trkpt lat="42.39396" lon="2.48903">
        <ele>1028.9</ele>
        <time>2019-01-07T02:26:38Z</time>
      </trkpt>
      <trkpt lat="42.39397" lon="2.48902">
        <ele>1028.8</ele>
        <time>2019-01-07T02:26:38Z</time>
      </trkpt>
      <trkpt lat="42.39401" lon="2.48895">
        <ele>1027.3</ele>
        <time>2019-01-07T02:26:40Z</time>
      </trkpt>
      <trkpt lat="42.39409" lon="2.48883">
        <ele>1023.9</ele>
        <time>2019-01-07T02:26:43Z</time>
      </trkpt>
      <trkpt lat="42.39416" lon="2.48873">
        <ele>1022.1</ele>
        <time>2019-01-07T02:26:46Z</time>
      </trkpt>
      <trkpt lat="42.39424" lon="2.48854">
        <ele>1020.6</ele>
        <time>2019-01-07T02:26:50Z</time>
      </trkpt>
      <trkpt lat="42.39427" lon="2.48847">
        <ele>1018.7</ele>
        <time>2019-01-07T02:26:51Z</time>
      </trkpt>
      <trkpt lat="42.39429" lon="2.48844">
        <ele>1018.2</ele>
        <time>2019-01-07T02:26:52Z</time>
      </trkpt>
      <trkpt lat="42.39431" lon="2.48838">
        <ele>1017.2</ele>
        <time>2019-01-07T02:26:54Z</time>
      </trkpt>
      <trkpt lat="42.39431" lon="2.48837">
        <ele>1016.3</ele>
        <time>2019-01-07T02:26:54Z</time>
      </trkpt>
      <trkpt lat="42.39432" lon="2.48834">
        <ele>1016.7</ele>
        <time>2019-01-07T02:26:55Z</time>
      </trkpt>
      <trkpt lat="42.39433" lon="2.48821">
        <ele>1015.9</ele>
        <time>2019-01-07T02:26:57Z</time>
      </trkpt>
      <trkpt lat="42.39436" lon="2.48808">
        <ele>1012.9</ele>
        <time>2019-01-07T02:27:00Z</time>
      </trkpt>
      <trkpt lat="42.39439" lon="2.488">
        <ele>1011</ele>
        <time>2019-01-07T02:27:02Z</time>
      </trkpt>
      <trkpt lat="42.39441" lon="2.48796">
        <ele>1009.5</ele>
        <time>2019-01-07T02:27:02Z</time>
      </trkpt>
      <trkpt lat="42.39441" lon="2.48795">
        <ele>1009</ele>
        <time>2019-01-07T02:27:03Z</time>
      </trkpt>
      <trkpt lat="42.39443" lon="2.48794">
        <ele>1008.1</ele>
        <time>2019-01-07T02:27:03Z</time>
      </trkpt>
      <trkpt lat="42.39452" lon="2.4878">
        <ele>1006.6</ele>
        <time>2019-01-07T02:27:07Z</time>
      </trkpt>
      <trkpt lat="42.39458" lon="2.48768">
        <ele>1003.8</ele>
        <time>2019-01-07T02:27:10Z</time>
      </trkpt>
      <trkpt lat="42.39462" lon="2.48763">
        <ele>1002.8</ele>
        <time>2019-01-07T02:27:11Z</time>
      </trkpt>
      <trkpt lat="42.39462" lon="2.4876">
        <ele>1001</ele>
        <time>2019-01-07T02:27:12Z</time>
      </trkpt>
      <trkpt lat="42.39464" lon="2.48754">
        <ele>1001.4</ele>
        <time>2019-01-07T02:27:13Z</time>
      </trkpt>
      <trkpt lat="42.39468" lon="2.48748">
        <ele>999.5</ele>
        <time>2019-01-07T02:27:15Z</time>
      </trkpt>
      <trkpt lat="42.3947" lon="2.48743">
        <ele>999.4</ele>
        <time>2019-01-07T02:27:16Z</time>
      </trkpt>
      <trkpt lat="42.39476" lon="2.48734">
        <ele>997</ele>
        <time>2019-01-07T02:27:18Z</time>
      </trkpt>
      <trkpt lat="42.39484" lon="2.48719">
        <ele>994.2</ele>
        <time>2019-01-07T02:27:22Z</time>
      </trkpt>
      <trkpt lat="42.39492" lon="2.4871">
        <ele>992.3</ele>
        <time>2019-01-07T02:27:24Z</time>
      </trkpt>
      <trkpt lat="42.39498" lon="2.48708">
        <ele>990.8</ele>
        <time>2019-01-07T02:27:26Z</time>
      </trkpt>
      <trkpt lat="42.395" lon="2.48707">
        <ele>990.8</ele>
        <time>2019-01-07T02:27:27Z</time>
      </trkpt>
      <trkpt lat="42.3951" lon="2.48694">
        <ele>988.4</ele>
        <time>2019-01-07T02:27:30Z</time>
      </trkpt>
      <trkpt lat="42.39513" lon="2.48691">
        <ele>987.5</ele>
        <time>2019-01-07T02:27:31Z</time>
      </trkpt>
      <trkpt lat="42.39518" lon="2.48688">
        <ele>985.5</ele>
        <time>2019-01-07T02:27:33Z</time>
      </trkpt>
      <trkpt lat="42.39528" lon="2.48671">
        <ele>981.3</ele>
        <time>2019-01-07T02:27:37Z</time>
      </trkpt>
      <trkpt lat="42.39531" lon="2.48668">
        <ele>980.8</ele>
        <time>2019-01-07T02:27:38Z</time>
      </trkpt>
      <trkpt lat="42.39533" lon="2.48664">
        <ele>979.8</ele>
        <time>2019-01-07T02:27:39Z</time>
      </trkpt>
      <trkpt lat="42.39542" lon="2.48649">
        <ele>975.4</ele>
        <time>2019-01-07T02:27:43Z</time>
      </trkpt>
      <trkpt lat="42.39542" lon="2.48646">
        <ele>976</ele>
        <time>2019-01-07T02:27:43Z</time>
      </trkpt>
      <trkpt lat="42.39545" lon="2.48637">
        <ele>974.4</ele>
        <time>2019-01-07T02:27:45Z</time>
      </trkpt>
      <trkpt lat="42.39548" lon="2.48617">
        <ele>971.7</ele>
        <time>2019-01-07T02:27:49Z</time>
      </trkpt>
      <trkpt lat="42.39549" lon="2.48606">
        <ele>971.1</ele>
        <time>2019-01-07T02:27:52Z</time>
      </trkpt>
      <trkpt lat="42.39548" lon="2.48597">
        <ele>969.6</ele>
        <time>2019-01-07T02:27:53Z</time>
      </trkpt>
      <trkpt lat="42.39558" lon="2.48574">
        <ele>966.7</ele>
        <time>2019-01-07T02:27:59Z</time>
      </trkpt>
      <trkpt lat="42.39568" lon="2.48559">
        <ele>965.4</ele>
        <time>2019-01-07T02:28:02Z</time>
      </trkpt>
      <trkpt lat="42.39573" lon="2.48552">
        <ele>963.5</ele>
        <time>2019-01-07T02:28:04Z</time>
      </trkpt>
      <trkpt lat="42.39576" lon="2.48547">
        <ele>962</ele>
        <time>2019-01-07T02:28:06Z</time>
      </trkpt>
      <trkpt lat="42.39576" lon="2.48545">
        <ele>961.9</ele>
        <time>2019-01-07T02:28:06Z</time>
      </trkpt>
      <trkpt lat="42.39583" lon="2.48536">
        <ele>960.1</ele>
        <time>2019-01-07T02:28:08Z</time>
      </trkpt>
      <trkpt lat="42.3959" lon="2.4853">
        <ele>958.1</ele>
        <time>2019-01-07T02:28:11Z</time>
      </trkpt>
      <trkpt lat="42.39594" lon="2.48522">
        <ele>956.3</ele>
        <time>2019-01-07T02:28:13Z</time>
      </trkpt>
      <trkpt lat="42.39602" lon="2.48509">
        <ele>952.9</ele>
        <time>2019-01-07T02:28:16Z</time>
      </trkpt>
      <trkpt lat="42.39609" lon="2.48505">
        <ele>950.9</ele>
        <time>2019-01-07T02:28:18Z</time>
      </trkpt>
      <trkpt lat="42.39618" lon="2.48499">
        <ele>949.4</ele>
        <time>2019-01-07T02:28:21Z</time>
      </trkpt>
      <trkpt lat="42.39621" lon="2.4849">
        <ele>946.7</ele>
        <time>2019-01-07T02:28:23Z</time>
      </trkpt>
      <trkpt lat="42.39622" lon="2.48488">
        <ele>946.1</ele>
        <time>2019-01-07T02:28:23Z</time>
      </trkpt>
      <trkpt lat="42.3963" lon="2.48485">
        <ele>943.2</ele>
        <time>2019-01-07T02:28:25Z</time>
      </trkpt>
      <trkpt lat="42.39639" lon="2.4848">
        <ele>940.8</ele>
        <time>2019-01-07T02:28:28Z</time>
      </trkpt>
      <trkpt lat="42.39642" lon="2.4848">
        <ele>939.5</ele>
        <time>2019-01-07T02:28:29Z</time>
      </trkpt>
      <trkpt lat="42.39655" lon="2.48473">
        <ele>937.4</ele>
        <time>2019-01-07T02:28:32Z</time>
      </trkpt>
      <trkpt lat="42.39659" lon="2.48468">
        <ele>935.5</ele>
        <time>2019-01-07T02:28:34Z</time>
      </trkpt>
      <trkpt lat="42.3966" lon="2.48463">
        <ele>934.1</ele>
        <time>2019-01-07T02:28:35Z</time>
      </trkpt>
      <trkpt lat="42.39659" lon="2.48444">
        <ele>931.3</ele>
        <time>2019-01-07T02:28:39Z</time>
      </trkpt>
      <trkpt lat="42.39656" lon="2.48435">
        <ele>928.3</ele>
        <time>2019-01-07T02:28:40Z</time>
      </trkpt>
      <trkpt lat="42.39658" lon="2.4843">
        <ele>927.8</ele>
        <time>2019-01-07T02:28:41Z</time>
      </trkpt>
      <trkpt lat="42.39658" lon="2.48428">
        <ele>927.8</ele>
        <time>2019-01-07T02:28:42Z</time>
      </trkpt>
      <trkpt lat="42.39659" lon="2.48412">
        <ele>923.6</ele>
        <time>2019-01-07T02:28:45Z</time>
      </trkpt>
      <trkpt lat="42.3966" lon="2.48409">
        <ele>923</ele>
        <time>2019-01-07T02:28:46Z</time>
      </trkpt>
      <trkpt lat="42.39661" lon="2.48405">
        <ele>922.5</ele>
        <time>2019-01-07T02:28:47Z</time>
      </trkpt>
      <trkpt lat="42.39663" lon="2.48392">
        <ele>920.7</ele>
        <time>2019-01-07T02:28:49Z</time>
      </trkpt>
      <trkpt lat="42.39666" lon="2.48384">
        <ele>919.3</ele>
        <time>2019-01-07T02:28:51Z</time>
      </trkpt>
      <trkpt lat="42.3967" lon="2.48372">
        <ele>917.8</ele>
        <time>2019-01-07T02:28:54Z</time>
      </trkpt>
      <trkpt lat="42.39672" lon="2.48365">
        <ele>915.3</ele>
        <time>2019-01-07T02:28:55Z</time>
      </trkpt>
      <trkpt lat="42.39672" lon="2.48357">
        <ele>914.5</ele>
        <time>2019-01-07T02:28:57Z</time>
      </trkpt>
      <trkpt lat="42.39672" lon="2.48354">
        <ele>912.9</ele>
        <time>2019-01-07T02:28:57Z</time>
      </trkpt>
      <trkpt lat="42.39676" lon="2.48345">
        <ele>912</ele>
        <time>2019-01-07T02:28:59Z</time>
      </trkpt>
      <trkpt lat="42.39673" lon="2.48328">
        <ele>908.7</ele>
        <time>2019-01-07T02:29:03Z</time>
      </trkpt>
      <trkpt lat="42.39671" lon="2.48302">
        <ele>906.8</ele>
        <time>2019-01-07T02:29:08Z</time>
      </trkpt>
      <trkpt lat="42.39672" lon="2.48296">
        <ele>905.3</ele>
        <time>2019-01-07T02:29:09Z</time>
      </trkpt>
      <trkpt lat="42.39672" lon="2.48294">
        <ele>906.3</ele>
        <time>2019-01-07T02:29:09Z</time>
      </trkpt>
      <trkpt lat="42.39675" lon="2.48287">
        <ele>905.8</ele>
        <time>2019-01-07T02:29:11Z</time>
      </trkpt>
      <trkpt lat="42.39676" lon="2.48267">
        <ele>905.3</ele>
        <time>2019-01-07T02:29:15Z</time>
      </trkpt>
      <trkpt lat="42.39676" lon="2.48261">
        <ele>903.3</ele>
        <time>2019-01-07T02:29:16Z</time>
      </trkpt>
      <trkpt lat="42.39675" lon="2.48257">
        <ele>902</ele>
        <time>2019-01-07T02:29:17Z</time>
      </trkpt>
      <trkpt lat="42.39675" lon="2.48255">
        <ele>902.3</ele>
        <time>2019-01-07T02:29:17Z</time>
      </trkpt>
      <trkpt lat="42.39673" lon="2.48247">
        <ele>899.9</ele>
        <time>2019-01-07T02:29:19Z</time>
      </trkpt>
      <trkpt lat="42.39666" lon="2.48234">
        <ele>898</ele>
        <time>2019-01-07T02:29:22Z</time>
      </trkpt>
      <trkpt lat="42.39665" lon="2.48219">
        <ele>894.6</ele>
        <time>2019-01-07T02:29:25Z</time>
      </trkpt>
      <trkpt lat="42.39667" lon="2.48216">
        <ele>893.3</ele>
        <time>2019-01-07T02:29:26Z</time>
      </trkpt>
      <trkpt lat="42.3967" lon="2.48213">
        <ele>893.3</ele>
        <time>2019-01-07T02:29:27Z</time>
      </trkpt>
      <trkpt lat="42.39676" lon="2.48205">
        <ele>890.8</ele>
        <time>2019-01-07T02:29:29Z</time>
      </trkpt>
      <trkpt lat="42.39678" lon="2.482">
        <ele>890.8</ele>
        <time>2019-01-07T02:29:30Z</time>
      </trkpt>
      <trkpt lat="42.39681" lon="2.48193">
        <ele>889.4</ele>
        <time>2019-01-07T02:29:32Z</time>
      </trkpt>
      <trkpt lat="42.39681" lon="2.48192">
        <ele>888.5</ele>
        <time>2019-01-07T02:29:32Z</time>
      </trkpt>
      <trkpt lat="42.3969" lon="2.48176">
        <ele>887.1</ele>
        <time>2019-01-07T02:29:36Z</time>
      </trkpt>
      <trkpt lat="42.39695" lon="2.4816">
        <ele>884.7</ele>
        <time>2019-01-07T02:29:40Z</time>
      </trkpt>
      <trkpt lat="42.39696" lon="2.48154">
        <ele>883.6</ele>
        <time>2019-01-07T02:29:41Z</time>
      </trkpt>
      <trkpt lat="42.39701" lon="2.48148">
        <ele>882.2</ele>
        <time>2019-01-07T02:29:42Z</time>
      </trkpt>
      <trkpt lat="42.39703" lon="2.48143">
        <ele>880.2</ele>
        <time>2019-01-07T02:29:44Z</time>
      </trkpt>
      <trkpt lat="42.39705" lon="2.48141">
        <ele>880.2</ele>
        <time>2019-01-07T02:29:44Z</time>
      </trkpt>
      <trkpt lat="42.39713" lon="2.48141">
        <ele>877.4</ele>
        <time>2019-01-07T02:29:46Z</time>
      </trkpt>
      <trkpt lat="42.39717" lon="2.48136">
        <ele>875.5</ele>
        <time>2019-01-07T02:29:48Z</time>
      </trkpt>
      <trkpt lat="42.3972" lon="2.48136">
        <ele>874</ele>
        <time>2019-01-07T02:29:48Z</time>
      </trkpt>
      <trkpt lat="42.39723" lon="2.48134">
        <ele>873.1</ele>
        <time>2019-01-07T02:29:50Z</time>
      </trkpt>
      <trkpt lat="42.39719" lon="2.48129">
        <ele>871.6</ele>
        <time>2019-01-07T02:29:51Z</time>
      </trkpt>
      <trkpt lat="42.3972" lon="2.48123">
        <ele>870.1</ele>
        <time>2019-01-07T02:29:52Z</time>
      </trkpt>
      <trkpt lat="42.39722" lon="2.48121">
        <ele>869.7</ele>
        <time>2019-01-07T02:29:53Z</time>
      </trkpt>
      <trkpt lat="42.39725" lon="2.48121">
        <ele>867.7</ele>
        <time>2019-01-07T02:29:54Z</time>
      </trkpt>
      <trkpt lat="42.39728" lon="2.48116">
        <ele>865.8</ele>
        <time>2019-01-07T02:29:55Z</time>
      </trkpt>
      <trkpt lat="42.39729" lon="2.48112">
        <ele>865.4</ele>
        <time>2019-01-07T02:29:56Z</time>
      </trkpt>
      <trkpt lat="42.39733" lon="2.48106">
        <ele>862.5</ele>
        <time>2019-01-07T02:29:57Z</time>
      </trkpt>
      <trkpt lat="42.39737" lon="2.481">
        <ele>860.5</ele>
        <time>2019-01-07T02:29:59Z</time>
      </trkpt>
      <trkpt lat="42.39739" lon="2.48098">
        <ele>859.7</ele>
        <time>2019-01-07T02:30:00Z</time>
      </trkpt>
      <trkpt lat="42.3974" lon="2.48097">
        <ele>859.1</ele>
        <time>2019-01-07T02:30:00Z</time>
      </trkpt>
      <trkpt lat="42.39741" lon="2.48094">
        <ele>858.2</ele>
        <time>2019-01-07T02:30:01Z</time>
      </trkpt>
      <trkpt lat="42.39741" lon="2.48092">
        <ele>857.7</ele>
        <time>2019-01-07T02:30:01Z</time>
      </trkpt>
      <trkpt lat="42.39743" lon="2.48088">
        <ele>856.7</ele>
        <time>2019-01-07T02:30:02Z</time>
      </trkpt>
      <trkpt lat="42.39746" lon="2.48081">
        <ele>855.7</ele>
        <time>2019-01-07T02:30:04Z</time>
      </trkpt>
      <trkpt lat="42.3975" lon="2.48076">
        <ele>853.3</ele>
        <time>2019-01-07T02:30:05Z</time>
      </trkpt>
      <trkpt lat="42.39749" lon="2.48072">
        <ele>852.4</ele>
        <time>2019-01-07T02:30:06Z</time>
      </trkpt>
      <trkpt lat="42.39753" lon="2.48063">
        <ele>849.9</ele>
        <time>2019-01-07T02:30:08Z</time>
      </trkpt>
      <trkpt lat="42.39761" lon="2.48061">
        <ele>847.2</ele>
        <time>2019-01-07T02:30:10Z</time>
      </trkpt>
      <trkpt lat="42.39761" lon="2.4806">
        <ele>847.5</ele>
        <time>2019-01-07T02:30:10Z</time>
      </trkpt>
      <trkpt lat="42.39759" lon="2.48056">
        <ele>846.7</ele>
        <time>2019-01-07T02:30:11Z</time>
      </trkpt>
      <trkpt lat="42.39759" lon="2.48053">
        <ele>844.8</ele>
        <time>2019-01-07T02:30:12Z</time>
      </trkpt>
      <trkpt lat="42.39761" lon="2.48051">
        <ele>844.3</ele>
        <time>2019-01-07T02:30:13Z</time>
      </trkpt>
      <trkpt lat="42.39763" lon="2.48048">
        <ele>843.3</ele>
        <time>2019-01-07T02:30:13Z</time>
      </trkpt>
      <trkpt lat="42.3977" lon="2.48046">
        <ele>840.8</ele>
        <time>2019-01-07T02:30:15Z</time>
      </trkpt>
      <trkpt lat="42.39768" lon="2.48043">
        <ele>839.5</ele>
        <time>2019-01-07T02:30:16Z</time>
      </trkpt>
      <trkpt lat="42.39769" lon="2.48039">
        <ele>838.4</ele>
        <time>2019-01-07T02:30:17Z</time>
      </trkpt>
      <trkpt lat="42.39771" lon="2.48038">
        <ele>836</ele>
        <time>2019-01-07T02:30:17Z</time>
      </trkpt>
      <trkpt lat="42.39774" lon="2.48033">
        <ele>835.1</ele>
        <time>2019-01-07T02:30:19Z</time>
      </trkpt>
      <trkpt lat="42.39773" lon="2.48032">
        <ele>833.7</ele>
        <time>2019-01-07T02:30:19Z</time>
      </trkpt>
      <trkpt lat="42.39774" lon="2.48028">
        <ele>832.3</ele>
        <time>2019-01-07T02:30:20Z</time>
      </trkpt>
      <trkpt lat="42.39781" lon="2.48022">
        <ele>829.8</ele>
        <time>2019-01-07T02:30:22Z</time>
      </trkpt>
      <trkpt lat="42.39786" lon="2.48019">
        <ele>827.9</ele>
        <time>2019-01-07T02:30:23Z</time>
      </trkpt>
      <trkpt lat="42.39785" lon="2.48012">
        <ele>827.5</ele>
        <time>2019-01-07T02:30:25Z</time>
      </trkpt>
      <trkpt lat="42.39785" lon="2.4801">
        <ele>826</ele>
        <time>2019-01-07T02:30:25Z</time>
      </trkpt>
      <trkpt lat="42.39792" lon="2.48006">
        <ele>825</ele>
        <time>2019-01-07T02:30:27Z</time>
      </trkpt>
      <trkpt lat="42.39794" lon="2.48003">
        <ele>823.6</ele>
        <time>2019-01-07T02:30:28Z</time>
      </trkpt>
      <trkpt lat="42.39795" lon="2.47997">
        <ele>822.1</ele>
        <time>2019-01-07T02:30:29Z</time>
      </trkpt>
      <trkpt lat="42.39795" lon="2.47996">
        <ele>821.1</ele>
        <time>2019-01-07T02:30:29Z</time>
      </trkpt>
      <trkpt lat="42.398" lon="2.47991">
        <ele>819.8</ele>
        <time>2019-01-07T02:30:31Z</time>
      </trkpt>
      <trkpt lat="42.39798" lon="2.47988">
        <ele>818.2</ele>
        <time>2019-01-07T02:30:32Z</time>
      </trkpt>
      <trkpt lat="42.39796" lon="2.47985">
        <ele>817.7</ele>
        <time>2019-01-07T02:30:32Z</time>
      </trkpt>
      <trkpt lat="42.39796" lon="2.47983">
        <ele>816.8</ele>
        <time>2019-01-07T02:30:33Z</time>
      </trkpt>
      <trkpt lat="42.39797" lon="2.47983">
        <ele>816.4</ele>
        <time>2019-01-07T02:30:33Z</time>
      </trkpt>
      <trkpt lat="42.39798" lon="2.47981">
        <ele>815.3</ele>
        <time>2019-01-07T02:30:33Z</time>
      </trkpt>
      <trkpt lat="42.39804" lon="2.47973">
        <ele>812.1</ele>
        <time>2019-01-07T02:30:36Z</time>
      </trkpt>
      <trkpt lat="42.39804" lon="2.47971">
        <ele>812</ele>
        <time>2019-01-07T02:30:36Z</time>
      </trkpt>
      <trkpt lat="42.39804" lon="2.47969">
        <ele>811.5</ele>
        <time>2019-01-07T02:30:37Z</time>
      </trkpt>
      <trkpt lat="42.39803" lon="2.47966">
        <ele>810.5</ele>
        <time>2019-01-07T02:30:37Z</time>
      </trkpt>
      <trkpt lat="42.39806" lon="2.47964">
        <ele>808.6</ele>
        <time>2019-01-07T02:30:38Z</time>
      </trkpt>
      <trkpt lat="42.39808" lon="2.47963">
        <ele>807.2</ele>
        <time>2019-01-07T02:30:39Z</time>
      </trkpt>
      <trkpt lat="42.39812" lon="2.47961">
        <ele>805.3</ele>
        <time>2019-01-07T02:30:40Z</time>
      </trkpt>
      <trkpt lat="42.39818" lon="2.4796">
        <ele>803.9</ele>
        <time>2019-01-07T02:30:41Z</time>
      </trkpt>
      <trkpt lat="42.39824" lon="2.47963">
        <ele>801.4</ele>
        <time>2019-01-07T02:30:43Z</time>
      </trkpt>
      <trkpt lat="42.39828" lon="2.47963">
        <ele>800</ele>
        <time>2019-01-07T02:30:44Z</time>
      </trkpt>
      <trkpt lat="42.39832" lon="2.4797">
        <ele>799</ele>
        <time>2019-01-07T02:30:46Z</time>
      </trkpt>
      <trkpt lat="42.39837" lon="2.47972">
        <ele>798.1</ele>
        <time>2019-01-07T02:30:47Z</time>
      </trkpt>
      <trkpt lat="42.39844" lon="2.47973">
        <ele>795.2</ele>
        <time>2019-01-07T02:30:49Z</time>
      </trkpt>
      <trkpt lat="42.39854" lon="2.47975">
        <ele>792.3</ele>
        <time>2019-01-07T02:30:52Z</time>
      </trkpt>
      <trkpt lat="42.39856" lon="2.47976">
        <ele>791.8</ele>
        <time>2019-01-07T02:30:52Z</time>
      </trkpt>
      <trkpt lat="42.39866" lon="2.47972">
        <ele>789.9</ele>
        <time>2019-01-07T02:30:55Z</time>
      </trkpt>
      <trkpt lat="42.39876" lon="2.47974">
        <ele>786.1</ele>
        <time>2019-01-07T02:30:58Z</time>
      </trkpt>
      <trkpt lat="42.39885" lon="2.47984">
        <ele>784.2</ele>
        <time>2019-01-07T02:31:01Z</time>
      </trkpt>
      <trkpt lat="42.39893" lon="2.47977">
        <ele>780.4</ele>
        <time>2019-01-07T02:31:03Z</time>
      </trkpt>
      <trkpt lat="42.39894" lon="2.4797">
        <ele>778.9</ele>
        <time>2019-01-07T02:31:05Z</time>
      </trkpt>
      <trkpt lat="42.39895" lon="2.47975">
        <ele>777</ele>
        <time>2019-01-07T02:31:06Z</time>
      </trkpt>
      <trkpt lat="42.39902" lon="2.4797">
        <ele>774.5</ele>
        <time>2019-01-07T02:31:08Z</time>
      </trkpt>
      <trkpt lat="42.39901" lon="2.47967">
        <ele>773.5</ele>
        <time>2019-01-07T02:31:08Z</time>
      </trkpt>
      <trkpt lat="42.39902" lon="2.47955">
        <ele>771.1</ele>
        <time>2019-01-07T02:31:11Z</time>
      </trkpt>
      <trkpt lat="42.39903" lon="2.47951">
        <ele>770.2</ele>
        <time>2019-01-07T02:31:12Z</time>
      </trkpt>
      <trkpt lat="42.39904" lon="2.47948">
        <ele>769.2</ele>
        <time>2019-01-07T02:31:12Z</time>
      </trkpt>
      <trkpt lat="42.39905" lon="2.47947">
        <ele>768.7</ele>
        <time>2019-01-07T02:31:13Z</time>
      </trkpt>
      <trkpt lat="42.39909" lon="2.47942">
        <ele>765</ele>
        <time>2019-01-07T02:31:14Z</time>
      </trkpt>
      <trkpt lat="42.39911" lon="2.47942">
        <ele>764.9</ele>
        <time>2019-01-07T02:31:15Z</time>
      </trkpt>
      <trkpt lat="42.39913" lon="2.4794">
        <ele>763.5</ele>
        <time>2019-01-07T02:31:15Z</time>
      </trkpt>
      <trkpt lat="42.39916" lon="2.47937">
        <ele>761.6</ele>
        <time>2019-01-07T02:31:16Z</time>
      </trkpt>
      <trkpt lat="42.39924" lon="2.47935">
        <ele>757.7</ele>
        <time>2019-01-07T02:31:19Z</time>
      </trkpt>
      <trkpt lat="42.39927" lon="2.47932">
        <ele>756.2</ele>
        <time>2019-01-07T02:31:20Z</time>
      </trkpt>
      <trkpt lat="42.39926" lon="2.47923">
        <ele>753</ele>
        <time>2019-01-07T02:31:21Z</time>
      </trkpt>
      <trkpt lat="42.39925" lon="2.47922">
        <ele>753.4</ele>
        <time>2019-01-07T02:31:22Z</time>
      </trkpt>
      <trkpt lat="42.39921" lon="2.47913">
        <ele>751</ele>
        <time>2019-01-07T02:31:24Z</time>
      </trkpt>
      <trkpt lat="42.39917" lon="2.47907">
        <ele>748.5</ele>
        <time>2019-01-07T02:31:25Z</time>
      </trkpt>
      <trkpt lat="42.39912" lon="2.47905">
        <ele>746.6</ele>
        <time>2019-01-07T02:31:27Z</time>
      </trkpt>
      <trkpt lat="42.3991" lon="2.47895">
        <ele>743.3</ele>
        <time>2019-01-07T02:31:29Z</time>
      </trkpt>
      <trkpt lat="42.39912" lon="2.47892">
        <ele>742.3</ele>
        <time>2019-01-07T02:31:29Z</time>
      </trkpt>
      <trkpt lat="42.39917" lon="2.47885">
        <ele>739.9</ele>
        <time>2019-01-07T02:31:31Z</time>
      </trkpt>
      <trkpt lat="42.39919" lon="2.47887">
        <ele>738.9</ele>
        <time>2019-01-07T02:31:32Z</time>
      </trkpt>
      <trkpt lat="42.39924" lon="2.47892">
        <ele>738.9</ele>
        <time>2019-01-07T02:31:34Z</time>
      </trkpt>
      <trkpt lat="42.39936" lon="2.47898">
        <ele>737.1</ele>
        <time>2019-01-07T02:31:37Z</time>
      </trkpt>
      <trkpt lat="42.39949" lon="2.47919">
        <ele>734.2</ele>
        <time>2019-01-07T02:31:42Z</time>
      </trkpt>
      <trkpt lat="42.39954" lon="2.47919">
        <ele>734.6</ele>
        <time>2019-01-07T02:31:44Z</time>
      </trkpt>
      <trkpt lat="42.39989" lon="2.47913">
        <ele>734.2</ele>
        <time>2019-01-07T02:31:53Z</time>
      </trkpt>
      <trkpt lat="42.39996" lon="2.47914">
        <ele>734.1</ele>
        <time>2019-01-07T02:31:55Z</time>
      </trkpt>
      <trkpt lat="42.39998" lon="2.47918">
        <ele>733.1</ele>
        <time>2019-01-07T02:31:56Z</time>
      </trkpt>
      <trkpt lat="42.40008" lon="2.47921">
        <ele>732.2</ele>
        <time>2019-01-07T02:31:59Z</time>
      </trkpt>
      <trkpt lat="42.4003" lon="2.47921">
        <ele>735.7</ele>
        <time>2019-01-07T02:32:04Z</time>
      </trkpt>
      <trkpt lat="42.40049" lon="2.47931">
        <ele>737.1</ele>
        <time>2019-01-07T02:32:10Z</time>
      </trkpt>
      <trkpt lat="42.40065" lon="2.47943">
        <ele>739.5</ele>
        <time>2019-01-07T02:32:15Z</time>
      </trkpt>
      <trkpt lat="42.40068" lon="2.47945">
        <ele>738.4</ele>
        <time>2019-01-07T02:32:16Z</time>
      </trkpt>
      <trkpt lat="42.40078" lon="2.47957">
        <ele>738.5</ele>
        <time>2019-01-07T02:32:19Z</time>
      </trkpt>
      <trkpt lat="42.4008" lon="2.4796">
        <ele>738.4</ele>
        <time>2019-01-07T02:32:20Z</time>
      </trkpt>
      <trkpt lat="42.40089" lon="2.47967">
        <ele>738.9</ele>
        <time>2019-01-07T02:32:23Z</time>
      </trkpt>
      <trkpt lat="42.401" lon="2.47976">
        <ele>740.5</ele>
        <time>2019-01-07T02:32:26Z</time>
      </trkpt>
      <trkpt lat="42.40119" lon="2.47984">
        <ele>738.4</ele>
        <time>2019-01-07T02:32:32Z</time>
      </trkpt>
      <trkpt lat="42.40139" lon="2.47978">
        <ele>737</ele>
        <time>2019-01-07T02:32:37Z</time>
      </trkpt>
      <trkpt lat="42.40153" lon="2.4797">
        <ele>735.7</ele>
        <time>2019-01-07T02:32:41Z</time>
      </trkpt>
      <trkpt lat="42.40161" lon="2.47965">
        <ele>734.7</ele>
        <time>2019-01-07T02:32:43Z</time>
      </trkpt>
      <trkpt lat="42.40162" lon="2.47964">
        <ele>728.4</ele>
        <time>2019-01-07T02:32:43Z</time>
      </trkpt>
      <trkpt lat="42.40162" lon="2.47964">
        <ele>737.5</ele>
        <time>2019-01-07T02:32:44Z</time>
      </trkpt>
      <trkpt lat="42.40163" lon="2.47963">
        <ele>736</ele>
        <time>2019-01-07T02:32:44Z</time>
      </trkpt>
      <trkpt lat="42.40164" lon="2.47961">
        <ele>734.6</ele>
        <time>2019-01-07T02:32:44Z</time>
      </trkpt>
      <trkpt lat="42.40161" lon="2.47956">
        <ele>734.7</ele>
        <time>2019-01-07T02:32:46Z</time>
      </trkpt>
      <trkpt lat="42.40162" lon="2.47958">
        <ele>733.7</ele>
        <time>2019-01-07T02:32:46Z</time>
      </trkpt>
      <trkpt lat="42.40161" lon="2.47958">
        <ele>733.1</ele>
        <time>2019-01-07T02:32:46Z</time>
      </trkpt>
      <trkpt lat="42.40162" lon="2.47958">
        <ele>734.1</ele>
        <time>2019-01-07T02:32:46Z</time>
      </trkpt>
      <trkpt lat="42.40163" lon="2.47957">
        <ele>734.1</ele>
        <time>2019-01-07T02:32:47Z</time>
      </trkpt>
      <trkpt lat="42.40162" lon="2.47957">
        <ele>733.6</ele>
        <time>2019-01-07T02:32:47Z</time>
      </trkpt>
      <trkpt lat="42.40162" lon="2.47957">
        <ele>734.2</ele>
        <time>2019-01-07T02:32:47Z</time>
      </trkpt>
      <trkpt lat="42.4016" lon="2.47955">
        <ele>734.2</ele>
        <time>2019-01-07T02:32:48Z</time>
      </trkpt>
      <trkpt lat="42.40162" lon="2.47954">
        <ele>734.2</ele>
        <time>2019-01-07T02:32:49Z</time>
      </trkpt>
      <trkpt lat="42.40162" lon="2.47956">
        <ele>734.7</ele>
        <time>2019-01-07T02:32:49Z</time>
      </trkpt>
      <trkpt lat="42.40162" lon="2.47957">
        <ele>734.2</ele>
        <time>2019-01-07T02:32:49Z</time>
      </trkpt>
      <trkpt lat="42.40163" lon="2.47958">
        <ele>734.7</ele>
        <time>2019-01-07T02:32:49Z</time>
      </trkpt>
      <trkpt lat="42.40163" lon="2.47959">
        <ele>734.1</ele>
        <time>2019-01-07T02:32:50Z</time>
      </trkpt>
      <trkpt lat="42.40163" lon="2.47959">
        <ele>734.6</ele>
        <time>2019-01-07T02:32:50Z</time>
      </trkpt>
      <trkpt lat="42.40161" lon="2.47959">
        <ele>734.6</ele>
        <time>2019-01-07T02:32:50Z</time>
      </trkpt>
      <trkpt lat="42.40162" lon="2.47959">
        <ele>736</ele>
        <time>2019-01-07T02:32:50Z</time>
      </trkpt>
      <trkpt lat="42.40162" lon="2.47955">
        <ele>736.1</ele>
        <time>2019-01-07T02:32:51Z</time>
      </trkpt>
      <trkpt lat="42.40163" lon="2.47952">
        <ele>737.1</ele>
        <time>2019-01-07T02:32:52Z</time>
      </trkpt>
      <trkpt lat="42.40165" lon="2.47947">
        <ele>737.1</ele>
        <time>2019-01-07T02:32:53Z</time>
      </trkpt>
      <trkpt lat="42.40171" lon="2.47924">
        <ele>738.1</ele>
        <time>2019-01-07T02:32:58Z</time>
      </trkpt>
      <trkpt lat="42.40177" lon="2.47905">
        <ele>740.5</ele>
        <time>2019-01-07T02:33:02Z</time>
      </trkpt>
      <trkpt lat="42.40183" lon="2.47892">
        <ele>740.5</ele>
        <time>2019-01-07T02:33:05Z</time>
      </trkpt>
      <trkpt lat="42.40189" lon="2.47883">
        <ele>740.5</ele>
        <time>2019-01-07T02:33:07Z</time>
      </trkpt>
      <trkpt lat="42.40206" lon="2.47869">
        <ele>739.4</ele>
        <time>2019-01-07T02:33:12Z</time>
      </trkpt>
      <trkpt lat="42.40224" lon="2.47855">
        <ele>738.1</ele>
        <time>2019-01-07T02:33:18Z</time>
      </trkpt>
      <trkpt lat="42.40235" lon="2.47846">
        <ele>738</ele>
        <time>2019-01-07T02:33:21Z</time>
      </trkpt>
      <trkpt lat="42.40233" lon="2.47841">
        <ele>739.4</ele>
        <time>2019-01-07T02:33:22Z</time>
      </trkpt>
      <trkpt lat="42.40224" lon="2.47849">
        <ele>740.4</ele>
        <time>2019-01-07T02:33:25Z</time>
      </trkpt>
      <trkpt lat="42.40218" lon="2.47851">
        <ele>742.4</ele>
        <time>2019-01-07T02:33:27Z</time>
      </trkpt>
      <trkpt lat="42.40209" lon="2.4786">
        <ele>744.2</ele>
        <time>2019-01-07T02:33:30Z</time>
      </trkpt>
      <trkpt lat="42.40207" lon="2.47865">
        <ele>745.7</ele>
        <time>2019-01-07T02:33:31Z</time>
      </trkpt>
      <trkpt lat="42.402" lon="2.47872">
        <ele>747.7</ele>
        <time>2019-01-07T02:33:33Z</time>
      </trkpt>
      <trkpt lat="42.40192" lon="2.4788">
        <ele>749</ele>
        <time>2019-01-07T02:33:36Z</time>
      </trkpt>
      <trkpt lat="42.4019" lon="2.47882">
        <ele>750.5</ele>
        <time>2019-01-07T02:33:36Z</time>
      </trkpt>
      <trkpt lat="42.4018" lon="2.47893">
        <ele>751.5</ele>
        <time>2019-01-07T02:33:40Z</time>
      </trkpt>
      <trkpt lat="42.40175" lon="2.47899">
        <ele>754.9</ele>
        <time>2019-01-07T02:33:42Z</time>
      </trkpt>
      <trkpt lat="42.40169" lon="2.47906">
        <ele>755.7</ele>
        <time>2019-01-07T02:33:44Z</time>
      </trkpt>
      <trkpt lat="42.40163" lon="2.4791">
        <ele>757.7</ele>
        <time>2019-01-07T02:33:46Z</time>
      </trkpt>
      <trkpt lat="42.40153" lon="2.47918">
        <ele>759.6</ele>
        <time>2019-01-07T02:33:49Z</time>
      </trkpt>
      <trkpt lat="42.40142" lon="2.47919">
        <ele>762.5</ele>
        <time>2019-01-07T02:33:52Z</time>
      </trkpt>
      <trkpt lat="42.40141" lon="2.47919">
        <ele>763</ele>
        <time>2019-01-07T02:33:52Z</time>
      </trkpt>
      <trkpt lat="42.40141" lon="2.47921">
        <ele>763.4</ele>
        <time>2019-01-07T02:33:52Z</time>
      </trkpt>
      <trkpt lat="42.4013" lon="2.4792">
        <ele>765.5</ele>
        <time>2019-01-07T02:33:55Z</time>
      </trkpt>
      <trkpt lat="42.40125" lon="2.47907">
        <ele>767.3</ele>
        <time>2019-01-07T02:33:58Z</time>
      </trkpt>
      <trkpt lat="42.40124" lon="2.47907">
        <ele>766.9</ele>
        <time>2019-01-07T02:33:58Z</time>
      </trkpt>
      <trkpt lat="42.40107" lon="2.47909">
        <ele>768.3</ele>
        <time>2019-01-07T02:34:03Z</time>
      </trkpt>
      <trkpt lat="42.40097" lon="2.479">
        <ele>770.2</ele>
        <time>2019-01-07T02:34:06Z</time>
      </trkpt>
      <trkpt lat="42.40095" lon="2.47898">
        <ele>771.1</ele>
        <time>2019-01-07T02:34:07Z</time>
      </trkpt>
      <trkpt lat="42.40085" lon="2.47884">
        <ele>772.6</ele>
        <time>2019-01-07T02:34:11Z</time>
      </trkpt>
      <trkpt lat="42.40084" lon="2.47882">
        <ele>773</ele>
        <time>2019-01-07T02:34:11Z</time>
      </trkpt>
      <trkpt lat="42.40078" lon="2.47878">
        <ele>774</ele>
        <time>2019-01-07T02:34:13Z</time>
      </trkpt>
      <trkpt lat="42.40076" lon="2.47872">
        <ele>774.6</ele>
        <time>2019-01-07T02:34:14Z</time>
      </trkpt>
      <trkpt lat="42.40075" lon="2.47869">
        <ele>775.1</ele>
        <time>2019-01-07T02:34:15Z</time>
      </trkpt>
      <trkpt lat="42.40064" lon="2.47857">
        <ele>777</ele>
        <time>2019-01-07T02:34:18Z</time>
      </trkpt>
      <trkpt lat="42.40061" lon="2.4785">
        <ele>778.4</ele>
        <time>2019-01-07T02:34:20Z</time>
      </trkpt>
      <trkpt lat="42.40053" lon="2.47836">
        <ele>780.7</ele>
        <time>2019-01-07T02:34:24Z</time>
      </trkpt>
      <trkpt lat="42.40047" lon="2.47825">
        <ele>782.2</ele>
        <time>2019-01-07T02:34:26Z</time>
      </trkpt>
      <trkpt lat="42.40046" lon="2.47823">
        <ele>783.7</ele>
        <time>2019-01-07T02:34:27Z</time>
      </trkpt>
      <trkpt lat="42.40044" lon="2.47807">
        <ele>785.5</ele>
        <time>2019-01-07T02:34:30Z</time>
      </trkpt>
      <trkpt lat="42.40047" lon="2.47791">
        <ele>787.5</ele>
        <time>2019-01-07T02:34:33Z</time>
      </trkpt>
      <trkpt lat="42.40054" lon="2.47793">
        <ele>789.5</ele>
        <time>2019-01-07T02:34:35Z</time>
      </trkpt>
      <trkpt lat="42.40054" lon="2.47796">
        <ele>789.5</ele>
        <time>2019-01-07T02:34:36Z</time>
      </trkpt>
      <trkpt lat="42.40063" lon="2.47807">
        <ele>791.9</ele>
        <time>2019-01-07T02:34:39Z</time>
      </trkpt>
      <trkpt lat="42.4008" lon="2.47811">
        <ele>793.7</ele>
        <time>2019-01-07T02:34:44Z</time>
      </trkpt>
      <trkpt lat="42.40083" lon="2.47811">
        <ele>794.2</ele>
        <time>2019-01-07T02:34:44Z</time>
      </trkpt>
      <trkpt lat="42.40096" lon="2.47811">
        <ele>795.6</ele>
        <time>2019-01-07T02:34:48Z</time>
      </trkpt>
      <trkpt lat="42.4011" lon="2.4781">
        <ele>798</ele>
        <time>2019-01-07T02:34:52Z</time>
      </trkpt>
      <trkpt lat="42.4012" lon="2.47801">
        <ele>799.1</ele>
        <time>2019-01-07T02:34:55Z</time>
      </trkpt>
      <trkpt lat="42.40121" lon="2.47797">
        <ele>799.5</ele>
        <time>2019-01-07T02:34:55Z</time>
      </trkpt>
      <trkpt lat="42.4012" lon="2.47795">
        <ele>799.5</ele>
        <time>2019-01-07T02:34:56Z</time>
      </trkpt>
      <trkpt lat="42.40118" lon="2.47793">
        <ele>800.4</ele>
        <time>2019-01-07T02:34:57Z</time>
      </trkpt>
      <trkpt lat="42.4011" lon="2.4779">
        <ele>801.5</ele>
        <time>2019-01-07T02:34:59Z</time>
      </trkpt>
      <trkpt lat="42.40108" lon="2.47789">
        <ele>802.5</ele>
        <time>2019-01-07T02:34:59Z</time>
      </trkpt>
      <trkpt lat="42.401" lon="2.47778">
        <ele>803.4</ele>
        <time>2019-01-07T02:35:02Z</time>
      </trkpt>
      <trkpt lat="42.40095" lon="2.47761">
        <ele>804.4</ele>
        <time>2019-01-07T02:35:06Z</time>
      </trkpt>
      <trkpt lat="42.40091" lon="2.47753">
        <ele>805.7</ele>
        <time>2019-01-07T02:35:08Z</time>
      </trkpt>
      <trkpt lat="42.40089" lon="2.47748">
        <ele>806.7</ele>
        <time>2019-01-07T02:35:09Z</time>
      </trkpt>
      <trkpt lat="42.4008" lon="2.47725">
        <ele>809.6</ele>
        <time>2019-01-07T02:35:14Z</time>
      </trkpt>
      <trkpt lat="42.40078" lon="2.47721">
        <ele>809.7</ele>
        <time>2019-01-07T02:35:15Z</time>
      </trkpt>
      <trkpt lat="42.40078" lon="2.47718">
        <ele>810.6</ele>
        <time>2019-01-07T02:35:16Z</time>
      </trkpt>
      <trkpt lat="42.40074" lon="2.47705">
        <ele>812</ele>
        <time>2019-01-07T02:35:19Z</time>
      </trkpt>
      <trkpt lat="42.40072" lon="2.47688">
        <ele>813.4</ele>
        <time>2019-01-07T02:35:22Z</time>
      </trkpt>
      <trkpt lat="42.40073" lon="2.47669">
        <ele>815.3</ele>
        <time>2019-01-07T02:35:26Z</time>
      </trkpt>
      <trkpt lat="42.40073" lon="2.47657">
        <ele>816.4</ele>
        <time>2019-01-07T02:35:28Z</time>
      </trkpt>
      <trkpt lat="42.40075" lon="2.47643">
        <ele>817.8</ele>
        <time>2019-01-07T02:35:31Z</time>
      </trkpt>
      <trkpt lat="42.4007" lon="2.4763">
        <ele>819.8</ele>
        <time>2019-01-07T02:35:34Z</time>
      </trkpt>
      <trkpt lat="42.4007" lon="2.47629">
        <ele>819.7</ele>
        <time>2019-01-07T02:35:34Z</time>
      </trkpt>
      <trkpt lat="42.40064" lon="2.47606">
        <ele>822.2</ele>
        <time>2019-01-07T02:35:39Z</time>
      </trkpt>
      <trkpt lat="42.4006" lon="2.47599">
        <ele>823.1</ele>
        <time>2019-01-07T02:35:40Z</time>
      </trkpt>
      <trkpt lat="42.40056" lon="2.47585">
        <ele>825.5</ele>
        <time>2019-01-07T02:35:43Z</time>
      </trkpt>
      <trkpt lat="42.40052" lon="2.47563">
        <ele>826.9</ele>
        <time>2019-01-07T02:35:48Z</time>
      </trkpt>
      <trkpt lat="42.40052" lon="2.47546">
        <ele>828.8</ele>
        <time>2019-01-07T02:35:51Z</time>
      </trkpt>
      <trkpt lat="42.40049" lon="2.47524">
        <ele>831.2</ele>
        <time>2019-01-07T02:35:56Z</time>
      </trkpt>
      <trkpt lat="42.40048" lon="2.47504">
        <ele>833.2</ele>
        <time>2019-01-07T02:36:00Z</time>
      </trkpt>
      <trkpt lat="42.40046" lon="2.47485">
        <ele>835.1</ele>
        <time>2019-01-07T02:36:03Z</time>
      </trkpt>
      <trkpt lat="42.40045" lon="2.47468">
        <ele>837.6</ele>
        <time>2019-01-07T02:36:07Z</time>
      </trkpt>
      <trkpt lat="42.40043" lon="2.47451">
        <ele>839.5</ele>
        <time>2019-01-07T02:36:10Z</time>
      </trkpt>
      <trkpt lat="42.40043" lon="2.4743">
        <ele>840.9</ele>
        <time>2019-01-07T02:36:14Z</time>
      </trkpt>
      <trkpt lat="42.40045" lon="2.4743">
        <ele>841.4</ele>
        <time>2019-01-07T02:36:15Z</time>
      </trkpt>
      <trkpt lat="42.40046" lon="2.47429">
        <ele>841.9</ele>
        <time>2019-01-07T02:36:15Z</time>
      </trkpt>
      <trkpt lat="42.40045" lon="2.47431">
        <ele>843.3</ele>
        <time>2019-01-07T02:36:15Z</time>
      </trkpt>
      <trkpt lat="42.40051" lon="2.47447">
        <ele>844.3</ele>
        <time>2019-01-07T02:36:19Z</time>
      </trkpt>
      <trkpt lat="42.40054" lon="2.47458">
        <ele>845.6</ele>
        <time>2019-01-07T02:36:21Z</time>
      </trkpt>
      <trkpt lat="42.40061" lon="2.4747">
        <ele>846.6</ele>
        <time>2019-01-07T02:36:24Z</time>
      </trkpt>
      <trkpt lat="42.40068" lon="2.4748">
        <ele>847.2</ele>
        <time>2019-01-07T02:36:27Z</time>
      </trkpt>
      <trkpt lat="42.40077" lon="2.47497">
        <ele>849.1</ele>
        <time>2019-01-07T02:36:31Z</time>
      </trkpt>
      <trkpt lat="42.40087" lon="2.47514">
        <ele>851</ele>
        <time>2019-01-07T02:36:35Z</time>
      </trkpt>
      <trkpt lat="42.40101" lon="2.47525">
        <ele>853.9</ele>
        <time>2019-01-07T02:36:40Z</time>
      </trkpt>
      <trkpt lat="42.40103" lon="2.47525">
        <ele>853.8</ele>
        <time>2019-01-07T02:36:40Z</time>
      </trkpt>
      <trkpt lat="42.40108" lon="2.47523">
        <ele>854.4</ele>
        <time>2019-01-07T02:36:42Z</time>
      </trkpt>
      <trkpt lat="42.40116" lon="2.4751">
        <ele>856.3</ele>
        <time>2019-01-07T02:36:45Z</time>
      </trkpt>
      <trkpt lat="42.40105" lon="2.47498">
        <ele>858.7</ele>
        <time>2019-01-07T02:36:49Z</time>
      </trkpt>
      <trkpt lat="42.40103" lon="2.47497">
        <ele>859.6</ele>
        <time>2019-01-07T02:36:49Z</time>
      </trkpt>
      <trkpt lat="42.40101" lon="2.47491">
        <ele>860</ele>
        <time>2019-01-07T02:36:50Z</time>
      </trkpt>
      <trkpt lat="42.40108" lon="2.4747">
        <ele>862.4</ele>
        <time>2019-01-07T02:36:55Z</time>
      </trkpt>
      <trkpt lat="42.4011" lon="2.47463">
        <ele>862.9</ele>
        <time>2019-01-07T02:36:56Z</time>
      </trkpt>
      <trkpt lat="42.40108" lon="2.47446">
        <ele>865.9</ele>
        <time>2019-01-07T02:37:00Z</time>
      </trkpt>
      <trkpt lat="42.40102" lon="2.47433">
        <ele>867.7</ele>
        <time>2019-01-07T02:37:03Z</time>
      </trkpt>
      <trkpt lat="42.40094" lon="2.47416">
        <ele>870.2</ele>
        <time>2019-01-07T02:37:07Z</time>
      </trkpt>
      <trkpt lat="42.40091" lon="2.47394">
        <ele>871.6</ele>
        <time>2019-01-07T02:37:11Z</time>
      </trkpt>
      <trkpt lat="42.4009" lon="2.47373">
        <ele>873.6</ele>
        <time>2019-01-07T02:37:15Z</time>
      </trkpt>
      <trkpt lat="42.40089" lon="2.47358">
        <ele>875.5</ele>
        <time>2019-01-07T02:37:18Z</time>
      </trkpt>
      <trkpt lat="42.40086" lon="2.4734">
        <ele>877.4</ele>
        <time>2019-01-07T02:37:22Z</time>
      </trkpt>
      <trkpt lat="42.40086" lon="2.47337">
        <ele>877.8</ele>
        <time>2019-01-07T02:37:22Z</time>
      </trkpt>
      <trkpt lat="42.40086" lon="2.47324">
        <ele>878.8</ele>
        <time>2019-01-07T02:37:25Z</time>
      </trkpt>
      <trkpt lat="42.40083" lon="2.47316">
        <ele>880.2</ele>
        <time>2019-01-07T02:37:27Z</time>
      </trkpt>
      <trkpt lat="42.40081" lon="2.47312">
        <ele>880.8</ele>
        <time>2019-01-07T02:37:28Z</time>
      </trkpt>
      <trkpt lat="42.40078" lon="2.47303">
        <ele>881.7</ele>
        <time>2019-01-07T02:37:30Z</time>
      </trkpt>
      <trkpt lat="42.40066" lon="2.47279">
        <ele>883.7</ele>
        <time>2019-01-07T02:37:36Z</time>
      </trkpt>
      <trkpt lat="42.40058" lon="2.47263">
        <ele>885.6</ele>
        <time>2019-01-07T02:37:39Z</time>
      </trkpt>
      <trkpt lat="42.40056" lon="2.47262">
        <ele>886</ele>
        <time>2019-01-07T02:37:40Z</time>
      </trkpt>
      <trkpt lat="42.40049" lon="2.47255">
        <ele>887.1</ele>
        <time>2019-01-07T02:37:42Z</time>
      </trkpt>
      <trkpt lat="42.4004" lon="2.47241">
        <ele>888.9</ele>
        <time>2019-01-07T02:37:46Z</time>
      </trkpt>
      <trkpt lat="42.40034" lon="2.47229">
        <ele>890.4</ele>
        <time>2019-01-07T02:37:49Z</time>
      </trkpt>
      <trkpt lat="42.40033" lon="2.47226">
        <ele>890.9</ele>
        <time>2019-01-07T02:37:49Z</time>
      </trkpt>
      <trkpt lat="42.40022" lon="2.47205">
        <ele>892.2</ele>
        <time>2019-01-07T02:37:54Z</time>
      </trkpt>
      <trkpt lat="42.40012" lon="2.47189">
        <ele>893.2</ele>
        <time>2019-01-07T02:37:58Z</time>
      </trkpt>
      <trkpt lat="42.40002" lon="2.47165">
        <ele>894.3</ele>
        <time>2019-01-07T02:38:04Z</time>
      </trkpt>
      <trkpt lat="42.39995" lon="2.47139">
        <ele>895.7</ele>
        <time>2019-01-07T02:38:09Z</time>
      </trkpt>
      <trkpt lat="42.3999" lon="2.47112">
        <ele>896.2</ele>
        <time>2019-01-07T02:38:15Z</time>
      </trkpt>
      <trkpt lat="42.39984" lon="2.47097">
        <ele>896.2</ele>
        <time>2019-01-07T02:38:18Z</time>
      </trkpt>
      <trkpt lat="42.39982" lon="2.47089">
        <ele>896.2</ele>
        <time>2019-01-07T02:38:20Z</time>
      </trkpt>
      <trkpt lat="42.39979" lon="2.47066">
        <ele>898.1</ele>
        <time>2019-01-07T02:38:24Z</time>
      </trkpt>
      <trkpt lat="42.39973" lon="2.4705">
        <ele>899.9</ele>
        <time>2019-01-07T02:38:28Z</time>
      </trkpt>
      <trkpt lat="42.39969" lon="2.47042">
        <ele>900.9</ele>
        <time>2019-01-07T02:38:30Z</time>
      </trkpt>
      <trkpt lat="42.39962" lon="2.47021">
        <ele>902.8</ele>
        <time>2019-01-07T02:38:35Z</time>
      </trkpt>
      <trkpt lat="42.39959" lon="2.47017">
        <ele>902.8</ele>
        <time>2019-01-07T02:38:36Z</time>
      </trkpt>
      <trkpt lat="42.39949" lon="2.47007">
        <ele>904.7</ele>
        <time>2019-01-07T02:38:39Z</time>
      </trkpt>
      <trkpt lat="42.39943" lon="2.46995">
        <ele>906.7</ele>
        <time>2019-01-07T02:38:42Z</time>
      </trkpt>
      <trkpt lat="42.39939" lon="2.46978">
        <ele>908.7</ele>
        <time>2019-01-07T02:38:45Z</time>
      </trkpt>
      <trkpt lat="42.39933" lon="2.46964">
        <ele>909.1</ele>
        <time>2019-01-07T02:38:48Z</time>
      </trkpt>
      <trkpt lat="42.39921" lon="2.46952">
        <ele>909.5</ele>
        <time>2019-01-07T02:38:52Z</time>
      </trkpt>
      <trkpt lat="42.39909" lon="2.46943">
        <ele>912.1</ele>
        <time>2019-01-07T02:38:56Z</time>
      </trkpt>
      <trkpt lat="42.39899" lon="2.46952">
        <ele>911.6</ele>
        <time>2019-01-07T02:38:59Z</time>
      </trkpt>
      <trkpt lat="42.39882" lon="2.46959">
        <ele>912.4</ele>
        <time>2019-01-07T02:39:04Z</time>
      </trkpt>
      <trkpt lat="42.39865" lon="2.46953">
        <ele>914.5</ele>
        <time>2019-01-07T02:39:09Z</time>
      </trkpt>
      <trkpt lat="42.39858" lon="2.46941">
        <ele>915.9</ele>
        <time>2019-01-07T02:39:12Z</time>
      </trkpt>
      <trkpt lat="42.39856" lon="2.46937">
        <ele>915.8</ele>
        <time>2019-01-07T02:39:13Z</time>
      </trkpt>
      <trkpt lat="42.39847" lon="2.46929">
        <ele>918.7</ele>
        <time>2019-01-07T02:39:16Z</time>
      </trkpt>
      <trkpt lat="42.39838" lon="2.46921">
        <ele>919.3</ele>
        <time>2019-01-07T02:39:18Z</time>
      </trkpt>
      <trkpt lat="42.39835" lon="2.46919">
        <ele>919.7</ele>
        <time>2019-01-07T02:39:19Z</time>
      </trkpt>
      <trkpt lat="42.39831" lon="2.46914">
        <ele>920.1</ele>
        <time>2019-01-07T02:39:21Z</time>
      </trkpt>
      <trkpt lat="42.39828" lon="2.46909">
        <ele>920.2</ele>
        <time>2019-01-07T02:39:22Z</time>
      </trkpt>
      <trkpt lat="42.39809" lon="2.46905">
        <ele>922.1</ele>
        <time>2019-01-07T02:39:27Z</time>
      </trkpt>
      <trkpt lat="42.39796" lon="2.46903">
        <ele>924.9</ele>
        <time>2019-01-07T02:39:31Z</time>
      </trkpt>
      <trkpt lat="42.39794" lon="2.46904">
        <ele>924.9</ele>
        <time>2019-01-07T02:39:31Z</time>
      </trkpt>
      <trkpt lat="42.39789" lon="2.46893">
        <ele>926.5</ele>
        <time>2019-01-07T02:39:34Z</time>
      </trkpt>
      <trkpt lat="42.39774" lon="2.4688">
        <ele>928.4</ele>
        <time>2019-01-07T02:39:38Z</time>
      </trkpt>
      <trkpt lat="42.3976" lon="2.46872">
        <ele>930.2</ele>
        <time>2019-01-07T02:39:42Z</time>
      </trkpt>
      <trkpt lat="42.3975" lon="2.46868">
        <ele>933.1</ele>
        <time>2019-01-07T02:39:45Z</time>
      </trkpt>
      <trkpt lat="42.39742" lon="2.46865">
        <ele>935.1</ele>
        <time>2019-01-07T02:39:48Z</time>
      </trkpt>
      <trkpt lat="42.39737" lon="2.46862">
        <ele>936.1</ele>
        <time>2019-01-07T02:39:49Z</time>
      </trkpt>
      <trkpt lat="42.39733" lon="2.46859">
        <ele>936.5</ele>
        <time>2019-01-07T02:39:50Z</time>
      </trkpt>
      <trkpt lat="42.39721" lon="2.46852">
        <ele>938</ele>
        <time>2019-01-07T02:39:54Z</time>
      </trkpt>
      <trkpt lat="42.39713" lon="2.46856">
        <ele>937.9</ele>
        <time>2019-01-07T02:39:56Z</time>
      </trkpt>
      <trkpt lat="42.39709" lon="2.46845">
        <ele>941.3</ele>
        <time>2019-01-07T02:39:59Z</time>
      </trkpt>
      <trkpt lat="42.39705" lon="2.4684">
        <ele>942.3</ele>
        <time>2019-01-07T02:40:00Z</time>
      </trkpt>
      <trkpt lat="42.39697" lon="2.4684">
        <ele>944.3</ele>
        <time>2019-01-07T02:40:02Z</time>
      </trkpt>
      <trkpt lat="42.39685" lon="2.46845">
        <ele>946.2</ele>
        <time>2019-01-07T02:40:06Z</time>
      </trkpt>
      <trkpt lat="42.39671" lon="2.46848">
        <ele>948.5</ele>
        <time>2019-01-07T02:40:09Z</time>
      </trkpt>
      <trkpt lat="42.39661" lon="2.46849">
        <ele>949.9</ele>
        <time>2019-01-07T02:40:12Z</time>
      </trkpt>
      <trkpt lat="42.39654" lon="2.46849">
        <ele>951.5</ele>
        <time>2019-01-07T02:40:14Z</time>
      </trkpt>
      <trkpt lat="42.39644" lon="2.46847">
        <ele>951.4</ele>
        <time>2019-01-07T02:40:16Z</time>
      </trkpt>
      <trkpt lat="42.39641" lon="2.46844">
        <ele>951.9</ele>
        <time>2019-01-07T02:40:17Z</time>
      </trkpt>
      <trkpt lat="42.39636" lon="2.46837">
        <ele>953.3</ele>
        <time>2019-01-07T02:40:19Z</time>
      </trkpt>
      <trkpt lat="42.39634" lon="2.46832">
        <ele>954.3</ele>
        <time>2019-01-07T02:40:21Z</time>
      </trkpt>
      <trkpt lat="42.39631" lon="2.46829">
        <ele>954.3</ele>
        <time>2019-01-07T02:40:22Z</time>
      </trkpt>
      <trkpt lat="42.39618" lon="2.4682">
        <ele>957.1</ele>
        <time>2019-01-07T02:40:25Z</time>
      </trkpt>
      <trkpt lat="42.39616" lon="2.46821">
        <ele>957.7</ele>
        <time>2019-01-07T02:40:26Z</time>
      </trkpt>
      <trkpt lat="42.39604" lon="2.46813">
        <ele>958.7</ele>
        <time>2019-01-07T02:40:29Z</time>
      </trkpt>
      <trkpt lat="42.39602" lon="2.46813">
        <ele>959.1</ele>
        <time>2019-01-07T02:40:30Z</time>
      </trkpt>
      <trkpt lat="42.39601" lon="2.46811">
        <ele>958.6</ele>
        <time>2019-01-07T02:40:31Z</time>
      </trkpt>
      <trkpt lat="42.39592" lon="2.46805">
        <ele>960.6</ele>
        <time>2019-01-07T02:40:33Z</time>
      </trkpt>
      <trkpt lat="42.39588" lon="2.46802">
        <ele>960.6</ele>
        <time>2019-01-07T02:40:34Z</time>
      </trkpt>
      <trkpt lat="42.39578" lon="2.46795">
        <ele>960.5</ele>
        <time>2019-01-07T02:40:37Z</time>
      </trkpt>
      <trkpt lat="42.39563" lon="2.46772">
        <ele>959.6</ele>
        <time>2019-01-07T02:40:43Z</time>
      </trkpt>
      <trkpt lat="42.39554" lon="2.46756">
        <ele>959.6</ele>
        <time>2019-01-07T02:40:47Z</time>
      </trkpt>
      <trkpt lat="42.39549" lon="2.46751">
        <ele>960</ele>
        <time>2019-01-07T02:40:49Z</time>
      </trkpt>
      <trkpt lat="42.39542" lon="2.46747">
        <ele>960</ele>
        <time>2019-01-07T02:40:51Z</time>
      </trkpt>
      <trkpt lat="42.39529" lon="2.46741">
        <ele>961</ele>
        <time>2019-01-07T02:40:55Z</time>
      </trkpt>
      <trkpt lat="42.39524" lon="2.46738">
        <ele>961</ele>
        <time>2019-01-07T02:40:56Z</time>
      </trkpt>
      <trkpt lat="42.39513" lon="2.46735">
        <ele>961.9</ele>
        <time>2019-01-07T02:40:59Z</time>
      </trkpt>
      <trkpt lat="42.39497" lon="2.46736">
        <ele>962.9</ele>
        <time>2019-01-07T02:41:03Z</time>
      </trkpt>
      <trkpt lat="42.39493" lon="2.46737">
        <ele>964.4</ele>
        <time>2019-01-07T02:41:05Z</time>
      </trkpt>
      <trkpt lat="42.3948" lon="2.46749">
        <ele>964.3</ele>
        <time>2019-01-07T02:41:09Z</time>
      </trkpt>
      <trkpt lat="42.39473" lon="2.46751">
        <ele>966.4</ele>
        <time>2019-01-07T02:41:11Z</time>
      </trkpt>
      <trkpt lat="42.39471" lon="2.46752">
        <ele>966.4</ele>
        <time>2019-01-07T02:41:11Z</time>
      </trkpt>
      <trkpt lat="42.39461" lon="2.46754">
        <ele>968.2</ele>
        <time>2019-01-07T02:41:14Z</time>
      </trkpt>
      <trkpt lat="42.39448" lon="2.46755">
        <ele>971.7</ele>
        <time>2019-01-07T02:41:17Z</time>
      </trkpt>
      <trkpt lat="42.3944" lon="2.46752">
        <ele>972.5</ele>
        <time>2019-01-07T02:41:20Z</time>
      </trkpt>
      <trkpt lat="42.39438" lon="2.4675">
        <ele>973.1</ele>
        <time>2019-01-07T02:41:20Z</time>
      </trkpt>
      <trkpt lat="42.39429" lon="2.46738">
        <ele>975.4</ele>
        <time>2019-01-07T02:41:24Z</time>
      </trkpt>
      <trkpt lat="42.39424" lon="2.46721">
        <ele>976.8</ele>
        <time>2019-01-07T02:41:27Z</time>
      </trkpt>
      <trkpt lat="42.39427" lon="2.4671">
        <ele>978.8</ele>
        <time>2019-01-07T02:41:30Z</time>
      </trkpt>
      <trkpt lat="42.3943" lon="2.46711">
        <ele>979.3</ele>
        <time>2019-01-07T02:41:31Z</time>
      </trkpt>
      <trkpt lat="42.39448" lon="2.46715">
        <ele>980.8</ele>
        <time>2019-01-07T02:41:35Z</time>
      </trkpt>
      <trkpt lat="42.39461" lon="2.46711">
        <ele>982.2</ele>
        <time>2019-01-07T02:41:39Z</time>
      </trkpt>
      <trkpt lat="42.39474" lon="2.46702">
        <ele>982.6</ele>
        <time>2019-01-07T02:41:43Z</time>
      </trkpt>
      <trkpt lat="42.39486" lon="2.46683">
        <ele>984.5</ele>
        <time>2019-01-07T02:41:48Z</time>
      </trkpt>
      <trkpt lat="42.39496" lon="2.4667">
        <ele>987</ele>
        <time>2019-01-07T02:41:51Z</time>
      </trkpt>
      <trkpt lat="42.39506" lon="2.46661">
        <ele>990.3</ele>
        <time>2019-01-07T02:41:55Z</time>
      </trkpt>
      <trkpt lat="42.39519" lon="2.46645">
        <ele>991.3</ele>
        <time>2019-01-07T02:41:59Z</time>
      </trkpt>
      <trkpt lat="42.3952" lon="2.4664">
        <ele>992.8</ele>
        <time>2019-01-07T02:42:00Z</time>
      </trkpt>
      <trkpt lat="42.39512" lon="2.46637">
        <ele>995.1</ele>
        <time>2019-01-07T02:42:03Z</time>
      </trkpt>
      <trkpt lat="42.39501" lon="2.46645">
        <ele>997.5</ele>
        <time>2019-01-07T02:42:06Z</time>
      </trkpt>
      <trkpt lat="42.39495" lon="2.46651">
        <ele>998.6</ele>
        <time>2019-01-07T02:42:08Z</time>
      </trkpt>
      <trkpt lat="42.39501" lon="2.46635">
        <ele>1001.5</ele>
        <time>2019-01-07T02:42:12Z</time>
      </trkpt>
      <trkpt lat="42.39509" lon="2.46619">
        <ele>1003.4</ele>
        <time>2019-01-07T02:42:15Z</time>
      </trkpt>
      <trkpt lat="42.39516" lon="2.46608">
        <ele>1005.3</ele>
        <time>2019-01-07T02:42:18Z</time>
      </trkpt>
      <trkpt lat="42.39519" lon="2.46605">
        <ele>1005.3</ele>
        <time>2019-01-07T02:42:19Z</time>
      </trkpt>
      <trkpt lat="42.39529" lon="2.46591">
        <ele>1008.1</ele>
        <time>2019-01-07T02:42:23Z</time>
      </trkpt>
      <trkpt lat="42.3954" lon="2.46576">
        <ele>1010.6</ele>
        <time>2019-01-07T02:42:27Z</time>
      </trkpt>
      <trkpt lat="42.39542" lon="2.46574">
        <ele>1011.1</ele>
        <time>2019-01-07T02:42:28Z</time>
      </trkpt>
      <trkpt lat="42.39556" lon="2.46561">
        <ele>1012.5</ele>
        <time>2019-01-07T02:42:32Z</time>
      </trkpt>
      <trkpt lat="42.39567" lon="2.46564">
        <ele>1015.3</ele>
        <time>2019-01-07T02:42:35Z</time>
      </trkpt>
      <trkpt lat="42.39579" lon="2.46561">
        <ele>1016.7</ele>
        <time>2019-01-07T02:42:39Z</time>
      </trkpt>
      <trkpt lat="42.39572" lon="2.46556">
        <ele>1019.1</ele>
        <time>2019-01-07T02:42:41Z</time>
      </trkpt>
      <trkpt lat="42.39566" lon="2.46552">
        <ele>1019.2</ele>
        <time>2019-01-07T02:42:43Z</time>
      </trkpt>
      <trkpt lat="42.39548" lon="2.46549">
        <ele>1019.2</ele>
        <time>2019-01-07T02:42:48Z</time>
      </trkpt>
      <trkpt lat="42.39538" lon="2.46546">
        <ele>1020.2</ele>
        <time>2019-01-07T02:42:50Z</time>
      </trkpt>
      <trkpt lat="42.39529" lon="2.46542">
        <ele>1020.2</ele>
        <time>2019-01-07T02:42:53Z</time>
      </trkpt>
      <trkpt lat="42.39516" lon="2.46518">
        <ele>1021.5</ele>
        <time>2019-01-07T02:42:59Z</time>
      </trkpt>
      <trkpt lat="42.39515" lon="2.46517">
        <ele>1021.6</ele>
        <time>2019-01-07T02:42:59Z</time>
      </trkpt>
      <trkpt lat="42.39512" lon="2.46514">
        <ele>1022.1</ele>
        <time>2019-01-07T02:43:00Z</time>
      </trkpt>
      <trkpt lat="42.39499" lon="2.46496">
        <ele>1023.9</ele>
        <time>2019-01-07T02:43:05Z</time>
      </trkpt>
      <trkpt lat="42.3949" lon="2.46486">
        <ele>1026.3</ele>
        <time>2019-01-07T02:43:08Z</time>
      </trkpt>
      <trkpt lat="42.39484" lon="2.46471">
        <ele>1028.8</ele>
        <time>2019-01-07T02:43:12Z</time>
      </trkpt>
      <trkpt lat="42.3948" lon="2.46451">
        <ele>1030.2</ele>
        <time>2019-01-07T02:43:16Z</time>
      </trkpt>
      <trkpt lat="42.39471" lon="2.46443">
        <ele>1031.2</ele>
        <time>2019-01-07T02:43:18Z</time>
      </trkpt>
      <trkpt lat="42.39461" lon="2.46437">
        <ele>1033.2</ele>
        <time>2019-01-07T02:43:21Z</time>
      </trkpt>
      <trkpt lat="42.39452" lon="2.46437">
        <ele>1033.1</ele>
        <time>2019-01-07T02:43:24Z</time>
      </trkpt>
      <trkpt lat="42.39433" lon="2.46428">
        <ele>1036.1</ele>
        <time>2019-01-07T02:43:29Z</time>
      </trkpt>
      <trkpt lat="42.39427" lon="2.46421">
        <ele>1037.9</ele>
        <time>2019-01-07T02:43:31Z</time>
      </trkpt>
      <trkpt lat="42.39424" lon="2.46409">
        <ele>1038.9</ele>
        <time>2019-01-07T02:43:34Z</time>
      </trkpt>
      <trkpt lat="42.39423" lon="2.46386">
        <ele>1041.4</ele>
        <time>2019-01-07T02:43:38Z</time>
      </trkpt>
      <trkpt lat="42.3942" lon="2.46369">
        <ele>1044.7</ele>
        <time>2019-01-07T02:43:42Z</time>
      </trkpt>
      <trkpt lat="42.39416" lon="2.46355">
        <ele>1046.1</ele>
        <time>2019-01-07T02:43:45Z</time>
      </trkpt>
      <trkpt lat="42.39409" lon="2.46337">
        <ele>1047.5</ele>
        <time>2019-01-07T02:43:49Z</time>
      </trkpt>
      <trkpt lat="42.39406" lon="2.46329">
        <ele>1048.5</ele>
        <time>2019-01-07T02:43:51Z</time>
      </trkpt>
      <trkpt lat="42.39405" lon="2.46324">
        <ele>1049</ele>
        <time>2019-01-07T02:43:51Z</time>
      </trkpt>
      <trkpt lat="42.39404" lon="2.46322">
        <ele>1049.5</ele>
        <time>2019-01-07T02:43:52Z</time>
      </trkpt>
      <trkpt lat="42.394" lon="2.46299">
        <ele>1052.3</ele>
        <time>2019-01-07T02:43:57Z</time>
      </trkpt>
      <trkpt lat="42.39395" lon="2.46275">
        <ele>1054.8</ele>
        <time>2019-01-07T02:44:01Z</time>
      </trkpt>
      <trkpt lat="42.3939" lon="2.46258">
        <ele>1056.6</ele>
        <time>2019-01-07T02:44:05Z</time>
      </trkpt>
      <trkpt lat="42.39388" lon="2.46249">
        <ele>1057.7</ele>
        <time>2019-01-07T02:44:07Z</time>
      </trkpt>
      <trkpt lat="42.3938" lon="2.46219">
        <ele>1057.7</ele>
        <time>2019-01-07T02:44:13Z</time>
      </trkpt>
      <trkpt lat="42.39374" lon="2.4619">
        <ele>1060.1</ele>
        <time>2019-01-07T02:44:19Z</time>
      </trkpt>
      <trkpt lat="42.39371" lon="2.46175">
        <ele>1060.5</ele>
        <time>2019-01-07T02:44:22Z</time>
      </trkpt>
      <trkpt lat="42.3937" lon="2.46174">
        <ele>1061</ele>
        <time>2019-01-07T02:44:22Z</time>
      </trkpt>
      <trkpt lat="42.39361" lon="2.46155">
        <ele>1061.4</ele>
        <time>2019-01-07T02:44:27Z</time>
      </trkpt>
      <trkpt lat="42.39351" lon="2.46132">
        <ele>1063.5</ele>
        <time>2019-01-07T02:44:32Z</time>
      </trkpt>
      <trkpt lat="42.39343" lon="2.46109">
        <ele>1063.5</ele>
        <time>2019-01-07T02:44:37Z</time>
      </trkpt>
      <trkpt lat="42.3934" lon="2.46097">
        <ele>1062.9</ele>
        <time>2019-01-07T02:44:40Z</time>
      </trkpt>
      <trkpt lat="42.39337" lon="2.46081">
        <ele>1063.4</ele>
        <time>2019-01-07T02:44:43Z</time>
      </trkpt>
      <trkpt lat="42.39337" lon="2.46073">
        <ele>1064.8</ele>
        <time>2019-01-07T02:44:45Z</time>
      </trkpt>
      <trkpt lat="42.39336" lon="2.46065">
        <ele>1065.9</ele>
        <time>2019-01-07T02:44:46Z</time>
      </trkpt>
      <trkpt lat="42.39338" lon="2.46058">
        <ele>1066.2</ele>
        <time>2019-01-07T02:44:48Z</time>
      </trkpt>
      <trkpt lat="42.39346" lon="2.46045">
        <ele>1067.3</ele>
        <time>2019-01-07T02:44:51Z</time>
      </trkpt>
      <trkpt lat="42.39361" lon="2.46041">
        <ele>1070.1</ele>
        <time>2019-01-07T02:44:55Z</time>
      </trkpt>
      <trkpt lat="42.39366" lon="2.46045">
        <ele>1071.1</ele>
        <time>2019-01-07T02:44:56Z</time>
      </trkpt>
      <trkpt lat="42.39366" lon="2.46045">
        <ele>1071.2</ele>
        <time>2019-01-07T02:44:57Z</time>
      </trkpt>
      <trkpt lat="42.3937" lon="2.46041">
        <ele>1070.6</ele>
        <time>2019-01-07T02:44:58Z</time>
      </trkpt>
      <trkpt lat="42.39374" lon="2.46038">
        <ele>1071.2</ele>
        <time>2019-01-07T02:44:59Z</time>
      </trkpt>
      <trkpt lat="42.39383" lon="2.4604">
        <ele>1074</ele>
        <time>2019-01-07T02:45:01Z</time>
      </trkpt>
      <trkpt lat="42.39384" lon="2.46042">
        <ele>1073.5</ele>
        <time>2019-01-07T02:45:02Z</time>
      </trkpt>
      <trkpt lat="42.3939" lon="2.46064">
        <ele>1073.6</ele>
        <time>2019-01-07T02:45:07Z</time>
      </trkpt>
      <trkpt lat="42.39404" lon="2.46074">
        <ele>1076.4</ele>
        <time>2019-01-07T02:45:11Z</time>
      </trkpt>
      <trkpt lat="42.39412" lon="2.46053">
        <ele>1078.7</ele>
        <time>2019-01-07T02:45:15Z</time>
      </trkpt>
      <trkpt lat="42.39414" lon="2.46033">
        <ele>1081.7</ele>
        <time>2019-01-07T02:45:19Z</time>
      </trkpt>
      <trkpt lat="42.39416" lon="2.46021">
        <ele>1082.1</ele>
        <time>2019-01-07T02:45:22Z</time>
      </trkpt>
      <trkpt lat="42.39421" lon="2.46007">
        <ele>1083.5</ele>
        <time>2019-01-07T02:45:25Z</time>
      </trkpt>
      <trkpt lat="42.39421" lon="2.46002">
        <ele>1083.5</ele>
        <time>2019-01-07T02:45:26Z</time>
      </trkpt>
      <trkpt lat="42.39425" lon="2.45995">
        <ele>1085</ele>
        <time>2019-01-07T02:45:28Z</time>
      </trkpt>
      <trkpt lat="42.39434" lon="2.4599">
        <ele>1086.4</ele>
        <time>2019-01-07T02:45:30Z</time>
      </trkpt>
      <trkpt lat="42.39439" lon="2.45993">
        <ele>1087.5</ele>
        <time>2019-01-07T02:45:32Z</time>
      </trkpt>
      <trkpt lat="42.39443" lon="2.46001">
        <ele>1087.9</ele>
        <time>2019-01-07T02:45:33Z</time>
      </trkpt>
      <trkpt lat="42.39456" lon="2.46039">
        <ele>1088.9</ele>
        <time>2019-01-07T02:45:42Z</time>
      </trkpt>
      <trkpt lat="42.39472" lon="2.46061">
        <ele>1089.8</ele>
        <time>2019-01-07T02:45:48Z</time>
      </trkpt>
      <trkpt lat="42.39484" lon="2.46075">
        <ele>1091.8</ele>
        <time>2019-01-07T02:45:52Z</time>
      </trkpt>
      <trkpt lat="42.39495" lon="2.46093">
        <ele>1094.6</ele>
        <time>2019-01-07T02:45:57Z</time>
      </trkpt>
      <trkpt lat="42.39505" lon="2.46104">
        <ele>1096.5</ele>
        <time>2019-01-07T02:46:00Z</time>
      </trkpt>
      <trkpt lat="42.39518" lon="2.46113">
        <ele>1098</ele>
        <time>2019-01-07T02:46:04Z</time>
      </trkpt>
      <trkpt lat="42.39531" lon="2.46119">
        <ele>1099.9</ele>
        <time>2019-01-07T02:46:08Z</time>
      </trkpt>
      <trkpt lat="42.39544" lon="2.46122">
        <ele>1102.4</ele>
        <time>2019-01-07T02:46:11Z</time>
      </trkpt>
      <trkpt lat="42.39559" lon="2.46117">
        <ele>1103.7</ele>
        <time>2019-01-07T02:46:15Z</time>
      </trkpt>
      <trkpt lat="42.39567" lon="2.46102">
        <ele>1106.2</ele>
        <time>2019-01-07T02:46:19Z</time>
      </trkpt>
      <trkpt lat="42.39575" lon="2.46081">
        <ele>1108.1</ele>
        <time>2019-01-07T02:46:23Z</time>
      </trkpt>
      <trkpt lat="42.39582" lon="2.46063">
        <ele>1110.1</ele>
        <time>2019-01-07T02:46:28Z</time>
      </trkpt>
      <trkpt lat="42.39588" lon="2.46043">
        <ele>1112.4</ele>
        <time>2019-01-07T02:46:32Z</time>
      </trkpt>
      <trkpt lat="42.39594" lon="2.46024">
        <ele>1114.9</ele>
        <time>2019-01-07T02:46:36Z</time>
      </trkpt>
      <trkpt lat="42.39597" lon="2.4602">
        <ele>1116.2</ele>
        <time>2019-01-07T02:46:37Z</time>
      </trkpt>
      <trkpt lat="42.39599" lon="2.46012">
        <ele>1117.2</ele>
        <time>2019-01-07T02:46:39Z</time>
      </trkpt>
      <trkpt lat="42.396" lon="2.45992">
        <ele>1119.6</ele>
        <time>2019-01-07T02:46:43Z</time>
      </trkpt>
      <trkpt lat="42.39602" lon="2.45976">
        <ele>1122</ele>
        <time>2019-01-07T02:46:46Z</time>
      </trkpt>
      <trkpt lat="42.39604" lon="2.45975">
        <ele>1123.1</ele>
        <time>2019-01-07T02:46:46Z</time>
      </trkpt>
      <trkpt lat="42.39606" lon="2.45972">
        <ele>1123.1</ele>
        <time>2019-01-07T02:46:47Z</time>
      </trkpt>
      <trkpt lat="42.39615" lon="2.4597">
        <ele>1125.9</ele>
        <time>2019-01-07T02:46:49Z</time>
      </trkpt>
      <trkpt lat="42.39619" lon="2.45968">
        <ele>1127.3</ele>
        <time>2019-01-07T02:46:50Z</time>
      </trkpt>
      <trkpt lat="42.39627" lon="2.45959">
        <ele>1129.8</ele>
        <time>2019-01-07T02:46:53Z</time>
      </trkpt>
      <trkpt lat="42.39634" lon="2.4595">
        <ele>1132.1</ele>
        <time>2019-01-07T02:46:56Z</time>
      </trkpt>
      <trkpt lat="42.39639" lon="2.45936">
        <ele>1134.6</ele>
        <time>2019-01-07T02:46:59Z</time>
      </trkpt>
      <trkpt lat="42.39643" lon="2.45924">
        <ele>1137</ele>
        <time>2019-01-07T02:47:02Z</time>
      </trkpt>
      <trkpt lat="42.39646" lon="2.45913">
        <ele>1139.8</ele>
        <time>2019-01-07T02:47:04Z</time>
      </trkpt>
      <trkpt lat="42.39656" lon="2.45903">
        <ele>1142.2</ele>
        <time>2019-01-07T02:47:07Z</time>
      </trkpt>
      <trkpt lat="42.39666" lon="2.45897">
        <ele>1144.6</ele>
        <time>2019-01-07T02:47:10Z</time>
      </trkpt>
      <trkpt lat="42.39674" lon="2.45889">
        <ele>1147</ele>
        <time>2019-01-07T02:47:13Z</time>
      </trkpt>
      <trkpt lat="42.39673" lon="2.45878">
        <ele>1149.5</ele>
        <time>2019-01-07T02:47:15Z</time>
      </trkpt>
      <trkpt lat="42.39671" lon="2.45865">
        <ele>1152.3</ele>
        <time>2019-01-07T02:47:18Z</time>
      </trkpt>
      <trkpt lat="42.39671" lon="2.45853">
        <ele>1155.3</ele>
        <time>2019-01-07T02:47:20Z</time>
      </trkpt>
      <trkpt lat="42.39673" lon="2.4584">
        <ele>1157.1</ele>
        <time>2019-01-07T02:47:23Z</time>
      </trkpt>
      <trkpt lat="42.39672" lon="2.45828">
        <ele>1159</ele>
        <time>2019-01-07T02:47:25Z</time>
      </trkpt>
      <trkpt lat="42.39671" lon="2.45812">
        <ele>1161.5</ele>
        <time>2019-01-07T02:47:28Z</time>
      </trkpt>
      <trkpt lat="42.3967" lon="2.45798">
        <ele>1164.3</ele>
        <time>2019-01-07T02:47:31Z</time>
      </trkpt>
      <trkpt lat="42.39668" lon="2.45784">
        <ele>1166.7</ele>
        <time>2019-01-07T02:47:34Z</time>
      </trkpt>
      <trkpt lat="42.39663" lon="2.4577">
        <ele>1169.1</ele>
        <time>2019-01-07T02:47:37Z</time>
      </trkpt>
      <trkpt lat="42.39658" lon="2.45755">
        <ele>1170.5</ele>
        <time>2019-01-07T02:47:40Z</time>
      </trkpt>
      <trkpt lat="42.39653" lon="2.45743">
        <ele>1173</ele>
        <time>2019-01-07T02:47:43Z</time>
      </trkpt>
      <trkpt lat="42.39649" lon="2.45732">
        <ele>1174.9</ele>
        <time>2019-01-07T02:47:45Z</time>
      </trkpt>
      <trkpt lat="42.3964" lon="2.45713">
        <ele>1176.9</ele>
        <time>2019-01-07T02:47:49Z</time>
      </trkpt>
      <trkpt lat="42.39624" lon="2.45692">
        <ele>1177.9</ele>
        <time>2019-01-07T02:47:55Z</time>
      </trkpt>
      <trkpt lat="42.39617" lon="2.45675">
        <ele>1179.3</ele>
        <time>2019-01-07T02:47:59Z</time>
      </trkpt>
      <trkpt lat="42.39605" lon="2.45654">
        <ele>1178.3</ele>
        <time>2019-01-07T02:48:05Z</time>
      </trkpt>
      <trkpt lat="42.39598" lon="2.45632">
        <ele>1180.3</ele>
        <time>2019-01-07T02:48:09Z</time>
      </trkpt>
      <trkpt lat="42.39606" lon="2.45634">
        <ele>1183</ele>
        <time>2019-01-07T02:48:12Z</time>
      </trkpt>
      <trkpt lat="42.39616" lon="2.45642">
        <ele>1185</ele>
        <time>2019-01-07T02:48:15Z</time>
      </trkpt>
      <trkpt lat="42.39626" lon="2.45648">
        <ele>1186.9</ele>
        <time>2019-01-07T02:48:18Z</time>
      </trkpt>
      <trkpt lat="42.39635" lon="2.45652">
        <ele>1190.3</ele>
        <time>2019-01-07T02:48:20Z</time>
      </trkpt>
      <trkpt lat="42.39647" lon="2.45657">
        <ele>1191.7</ele>
        <time>2019-01-07T02:48:23Z</time>
      </trkpt>
      <trkpt lat="42.39659" lon="2.45661">
        <ele>1194.7</ele>
        <time>2019-01-07T02:48:27Z</time>
      </trkpt>
      <trkpt lat="42.39669" lon="2.4566">
        <ele>1196.6</ele>
        <time>2019-01-07T02:48:29Z</time>
      </trkpt>
      <trkpt lat="42.3968" lon="2.45656">
        <ele>1198</ele>
        <time>2019-01-07T02:48:32Z</time>
      </trkpt>
      <trkpt lat="42.39689" lon="2.45653">
        <ele>1200.9</ele>
        <time>2019-01-07T02:48:35Z</time>
      </trkpt>
      <trkpt lat="42.39702" lon="2.45647">
        <ele>1203.8</ele>
        <time>2019-01-07T02:48:39Z</time>
      </trkpt>
      <trkpt lat="42.39707" lon="2.45646">
        <ele>1205.2</ele>
        <time>2019-01-07T02:48:40Z</time>
      </trkpt>
      <trkpt lat="42.39712" lon="2.45647">
        <ele>1206.6</ele>
        <time>2019-01-07T02:48:41Z</time>
      </trkpt>
      <trkpt lat="42.39718" lon="2.45652">
        <ele>1205.6</ele>
        <time>2019-01-07T02:48:43Z</time>
      </trkpt>
      <trkpt lat="42.39732" lon="2.45676">
        <ele>1205.2</ele>
        <time>2019-01-07T02:48:49Z</time>
      </trkpt>
      <trkpt lat="42.3974" lon="2.45698">
        <ele>1205.7</ele>
        <time>2019-01-07T02:48:54Z</time>
      </trkpt>
      <trkpt lat="42.39744" lon="2.45706">
        <ele>1207.1</ele>
        <time>2019-01-07T02:48:56Z</time>
      </trkpt>
      <trkpt lat="42.3975" lon="2.45714">
        <ele>1209.1</ele>
        <time>2019-01-07T02:48:58Z</time>
      </trkpt>
      <trkpt lat="42.39754" lon="2.45718">
        <ele>1210.1</ele>
        <time>2019-01-07T02:49:00Z</time>
      </trkpt>
      <trkpt lat="42.39772" lon="2.45734">
        <ele>1212.4</ele>
        <time>2019-01-07T02:49:05Z</time>
      </trkpt>
      <trkpt lat="42.39783" lon="2.45742">
        <ele>1213.3</ele>
        <time>2019-01-07T02:49:09Z</time>
      </trkpt>
      <trkpt lat="42.39799" lon="2.45753">
        <ele>1214.4</ele>
        <time>2019-01-07T02:49:14Z</time>
      </trkpt>
      <trkpt lat="42.39803" lon="2.45757">
        <ele>1214.9</ele>
        <time>2019-01-07T02:49:15Z</time>
      </trkpt>
      <trkpt lat="42.39805" lon="2.45758">
        <ele>1215.3</ele>
        <time>2019-01-07T02:49:15Z</time>
      </trkpt>
      <trkpt lat="42.39809" lon="2.45761">
        <ele>1216.2</ele>
        <time>2019-01-07T02:49:17Z</time>
      </trkpt>
      <trkpt lat="42.39822" lon="2.45769">
        <ele>1217.7</ele>
        <time>2019-01-07T02:49:20Z</time>
      </trkpt>
      <trkpt lat="42.39834" lon="2.45774">
        <ele>1219.7</ele>
        <time>2019-01-07T02:49:24Z</time>
      </trkpt>
      <trkpt lat="42.39842" lon="2.45779">
        <ele>1222</ele>
        <time>2019-01-07T02:49:26Z</time>
      </trkpt>
      <trkpt lat="42.39853" lon="2.45786">
        <ele>1225</ele>
        <time>2019-01-07T02:49:29Z</time>
      </trkpt>
      <trkpt lat="42.39862" lon="2.4579">
        <ele>1227.7</ele>
        <time>2019-01-07T02:49:32Z</time>
      </trkpt>
      <trkpt lat="42.39874" lon="2.45796">
        <ele>1230.1</ele>
        <time>2019-01-07T02:49:35Z</time>
      </trkpt>
      <trkpt lat="42.39875" lon="2.45796">
        <ele>1229.8</ele>
        <time>2019-01-07T02:49:36Z</time>
      </trkpt>
      <trkpt lat="42.39877" lon="2.45798">
        <ele>1230.2</ele>
        <time>2019-01-07T02:49:36Z</time>
      </trkpt>
      <trkpt lat="42.39882" lon="2.458">
        <ele>1230.2</ele>
        <time>2019-01-07T02:49:38Z</time>
      </trkpt>
      <trkpt lat="42.39903" lon="2.45805">
        <ele>1232.1</ele>
        <time>2019-01-07T02:49:43Z</time>
      </trkpt>
      <trkpt lat="42.39916" lon="2.4581">
        <ele>1234</ele>
        <time>2019-01-07T02:49:47Z</time>
      </trkpt>
      <trkpt lat="42.39917" lon="2.4581">
        <ele>1234</ele>
        <time>2019-01-07T02:49:47Z</time>
      </trkpt>
      <trkpt lat="42.39931" lon="2.4581">
        <ele>1236.9</ele>
        <time>2019-01-07T02:49:51Z</time>
      </trkpt>
      <trkpt lat="42.39946" lon="2.45804">
        <ele>1240.3</ele>
        <time>2019-01-07T02:49:55Z</time>
      </trkpt>
      <trkpt lat="42.39948" lon="2.45795">
        <ele>1241.8</ele>
        <time>2019-01-07T02:49:57Z</time>
      </trkpt>
      <trkpt lat="42.39937" lon="2.45786">
        <ele>1243.7</ele>
        <time>2019-01-07T02:50:01Z</time>
      </trkpt>
      <trkpt lat="42.39924" lon="2.45777">
        <ele>1245</ele>
        <time>2019-01-07T02:50:04Z</time>
      </trkpt>
      <trkpt lat="42.39909" lon="2.45756">
        <ele>1244.2</ele>
        <time>2019-01-07T02:50:10Z</time>
      </trkpt>
      <trkpt lat="42.39904" lon="2.45745">
        <ele>1247.6</ele>
        <time>2019-01-07T02:50:13Z</time>
      </trkpt>
      <trkpt lat="42.39897" lon="2.45723">
        <ele>1249.5</ele>
        <time>2019-01-07T02:50:18Z</time>
      </trkpt>
      <trkpt lat="42.39896" lon="2.45713">
        <ele>1250.3</ele>
        <time>2019-01-07T02:50:19Z</time>
      </trkpt>
      <trkpt lat="42.39897" lon="2.45708">
        <ele>1250.8</ele>
        <time>2019-01-07T02:50:20Z</time>
      </trkpt>
      <trkpt lat="42.399" lon="2.45698">
        <ele>1252.3</ele>
        <time>2019-01-07T02:50:23Z</time>
      </trkpt>
      <trkpt lat="42.39901" lon="2.45694">
        <ele>1252.7</ele>
        <time>2019-01-07T02:50:23Z</time>
      </trkpt>
      <trkpt lat="42.39909" lon="2.45673">
        <ele>1255.7</ele>
        <time>2019-01-07T02:50:28Z</time>
      </trkpt>
      <trkpt lat="42.39915" lon="2.45662">
        <ele>1258</ele>
        <time>2019-01-07T02:50:31Z</time>
      </trkpt>
      <trkpt lat="42.39917" lon="2.45651">
        <ele>1261</ele>
        <time>2019-01-07T02:50:33Z</time>
      </trkpt>
      <trkpt lat="42.39914" lon="2.45644">
        <ele>1262.8</ele>
        <time>2019-01-07T02:50:35Z</time>
      </trkpt>
      <trkpt lat="42.39909" lon="2.45636">
        <ele>1263.4</ele>
        <time>2019-01-07T02:50:37Z</time>
      </trkpt>
      <trkpt lat="42.399" lon="2.45632">
        <ele>1264.9</ele>
        <time>2019-01-07T02:50:39Z</time>
      </trkpt>
      <trkpt lat="42.39884" lon="2.45614">
        <ele>1263.4</ele>
        <time>2019-01-07T02:50:45Z</time>
      </trkpt>
      <trkpt lat="42.39875" lon="2.45603">
        <ele>1263.8</ele>
        <time>2019-01-07T02:50:48Z</time>
      </trkpt>
      <trkpt lat="42.3987" lon="2.45597">
        <ele>1263.3</ele>
        <time>2019-01-07T02:50:50Z</time>
      </trkpt>
      <trkpt lat="42.3986" lon="2.45576">
        <ele>1263.3</ele>
        <time>2019-01-07T02:50:55Z</time>
      </trkpt>
      <trkpt lat="42.39853" lon="2.45564">
        <ele>1266.7</ele>
        <time>2019-01-07T02:50:58Z</time>
      </trkpt>
      <trkpt lat="42.39853" lon="2.45564">
        <ele>1266.7</ele>
        <time>2019-01-07T02:50:58Z</time>
      </trkpt>
      <trkpt lat="42.39848" lon="2.4555">
        <ele>1269.2</ele>
        <time>2019-01-07T02:51:01Z</time>
      </trkpt>
      <trkpt lat="42.39842" lon="2.45534">
        <ele>1271.6</ele>
        <time>2019-01-07T02:51:04Z</time>
      </trkpt>
      <trkpt lat="42.39841" lon="2.45529">
        <ele>1272.1</ele>
        <time>2019-01-07T02:51:05Z</time>
      </trkpt>
      <trkpt lat="42.39841" lon="2.45526">
        <ele>1272</ele>
        <time>2019-01-07T02:51:06Z</time>
      </trkpt>
      <trkpt lat="42.39839" lon="2.45517">
        <ele>1273.4</ele>
        <time>2019-01-07T02:51:08Z</time>
      </trkpt>
      <trkpt lat="42.39837" lon="2.45498">
        <ele>1275.4</ele>
        <time>2019-01-07T02:51:12Z</time>
      </trkpt>
      <trkpt lat="42.39837" lon="2.45494">
        <ele>1276.8</ele>
        <time>2019-01-07T02:51:12Z</time>
      </trkpt>
      <trkpt lat="42.3984" lon="2.45492">
        <ele>1278.2</ele>
        <time>2019-01-07T02:51:13Z</time>
      </trkpt>
      <trkpt lat="42.39839" lon="2.45489">
        <ele>1300.3</ele>
        <time>2019-01-07T02:51:14Z</time>
      </trkpt>
      <trkpt lat="42.39835" lon="2.45488">
        <ele>1300.8</ele>
        <time>2019-01-07T02:51:15Z</time>
      </trkpt>
      <trkpt lat="42.39841" lon="2.45496">
        <ele>1297</ele>
        <time>2019-01-07T02:51:17Z</time>
      </trkpt>
      <trkpt lat="42.39841" lon="2.45493">
        <ele>1297.1</ele>
        <time>2019-01-07T02:51:18Z</time>
      </trkpt>
      <trkpt lat="42.39841" lon="2.45488">
        <ele>1295.1</ele>
        <time>2019-01-07T02:51:19Z</time>
      </trkpt>
      <trkpt lat="42.39834" lon="2.45474">
        <ele>1291.8</ele>
        <time>2019-01-07T02:51:22Z</time>
      </trkpt>
      <trkpt lat="42.39829" lon="2.45459">
        <ele>1292.2</ele>
        <time>2019-01-07T02:51:25Z</time>
      </trkpt>
      <trkpt lat="42.39823" lon="2.45444">
        <ele>1293.7</ele>
        <time>2019-01-07T02:51:29Z</time>
      </trkpt>
      <trkpt lat="42.3982" lon="2.45437">
        <ele>1294.2</ele>
        <time>2019-01-07T02:51:30Z</time>
      </trkpt>
      <trkpt lat="42.39814" lon="2.45423">
        <ele>1296.6</ele>
        <time>2019-01-07T02:51:34Z</time>
      </trkpt>
      <trkpt lat="42.39813" lon="2.45422">
        <ele>1297</ele>
        <time>2019-01-07T02:51:34Z</time>
      </trkpt>
      <trkpt lat="42.39812" lon="2.45421">
        <ele>1297.4</ele>
        <time>2019-01-07T02:51:34Z</time>
      </trkpt>
      <trkpt lat="42.39809" lon="2.45416">
        <ele>1298.9</ele>
        <time>2019-01-07T02:51:35Z</time>
      </trkpt>
      <trkpt lat="42.39797" lon="2.45396">
        <ele>1299.9</ele>
        <time>2019-01-07T02:51:41Z</time>
      </trkpt>
      <trkpt lat="42.39784" lon="2.45366">
        <ele>1297.5</ele>
        <time>2019-01-07T02:51:47Z</time>
      </trkpt>
      <trkpt lat="42.39769" lon="2.45341">
        <ele>1297</ele>
        <time>2019-01-07T02:51:54Z</time>
      </trkpt>
      <trkpt lat="42.39751" lon="2.45317">
        <ele>1297.5</ele>
        <time>2019-01-07T02:52:00Z</time>
      </trkpt>
      <trkpt lat="42.39734" lon="2.45299">
        <ele>1299.4</ele>
        <time>2019-01-07T02:52:06Z</time>
      </trkpt>
      <trkpt lat="42.39714" lon="2.45295">
        <ele>1299</ele>
        <time>2019-01-07T02:52:12Z</time>
      </trkpt>
      <trkpt lat="42.39707" lon="2.45285">
        <ele>1299.9</ele>
        <time>2019-01-07T02:52:14Z</time>
      </trkpt>
      <trkpt lat="42.39701" lon="2.45276">
        <ele>1301.8</ele>
        <time>2019-01-07T02:52:17Z</time>
      </trkpt>
      <trkpt lat="42.39698" lon="2.45276">
        <ele>1302.2</ele>
        <time>2019-01-07T02:52:17Z</time>
      </trkpt>
      <trkpt lat="42.39684" lon="2.45283">
        <ele>1305.1</ele>
        <time>2019-01-07T02:52:21Z</time>
      </trkpt>
      <trkpt lat="42.39675" lon="2.45283">
        <ele>1307.5</ele>
        <time>2019-01-07T02:52:24Z</time>
      </trkpt>
      <trkpt lat="42.39666" lon="2.45281">
        <ele>1309</ele>
        <time>2019-01-07T02:52:26Z</time>
      </trkpt>
      <trkpt lat="42.3966" lon="2.45276">
        <ele>1311.9</ele>
        <time>2019-01-07T02:52:28Z</time>
      </trkpt>
      <trkpt lat="42.3965" lon="2.45267">
        <ele>1314.3</ele>
        <time>2019-01-07T02:52:31Z</time>
      </trkpt>
      <trkpt lat="42.39646" lon="2.4526">
        <ele>1317.1</ele>
        <time>2019-01-07T02:52:33Z</time>
      </trkpt>
      <trkpt lat="42.3964" lon="2.45247">
        <ele>1320.6</ele>
        <time>2019-01-07T02:52:36Z</time>
      </trkpt>
      <trkpt lat="42.39634" lon="2.45241">
        <ele>1323.4</ele>
        <time>2019-01-07T02:52:38Z</time>
      </trkpt>
      <trkpt lat="42.3963" lon="2.45233">
        <ele>1326.8</ele>
        <time>2019-01-07T02:52:40Z</time>
      </trkpt>
      <trkpt lat="42.39625" lon="2.45232">
        <ele>1329.3</ele>
        <time>2019-01-07T02:52:41Z</time>
      </trkpt>
      <trkpt lat="42.3962" lon="2.45226">
        <ele>1332</ele>
        <time>2019-01-07T02:52:43Z</time>
      </trkpt>
      <trkpt lat="42.39615" lon="2.45221">
        <ele>1334.5</ele>
        <time>2019-01-07T02:52:45Z</time>
      </trkpt>
      <trkpt lat="42.39615" lon="2.4522">
        <ele>1335.4</ele>
        <time>2019-01-07T02:52:45Z</time>
      </trkpt>
      <trkpt lat="42.39607" lon="2.45213">
        <ele>1337.9</ele>
        <time>2019-01-07T02:52:47Z</time>
      </trkpt>
      <trkpt lat="42.39606" lon="2.45212">
        <ele>1338.4</ele>
        <time>2019-01-07T02:52:48Z</time>
      </trkpt>
      <trkpt lat="42.39597" lon="2.45209">
        <ele>1338.8</ele>
        <time>2019-01-07T02:52:50Z</time>
      </trkpt>
      <trkpt lat="42.39587" lon="2.45204">
        <ele>1342.7</ele>
        <time>2019-01-07T02:52:53Z</time>
      </trkpt>
      <trkpt lat="42.39581" lon="2.45201">
        <ele>1343.7</ele>
        <time>2019-01-07T02:52:55Z</time>
      </trkpt>
      <trkpt lat="42.39576" lon="2.45193">
        <ele>1346.5</ele>
        <time>2019-01-07T02:52:57Z</time>
      </trkpt>
      <trkpt lat="42.39567" lon="2.45188">
        <ele>1348.5</ele>
        <time>2019-01-07T02:52:59Z</time>
      </trkpt>
      <trkpt lat="42.3956" lon="2.45182">
        <ele>1351.3</ele>
        <time>2019-01-07T02:53:02Z</time>
      </trkpt>
      <trkpt lat="42.39552" lon="2.45178">
        <ele>1353.2</ele>
        <time>2019-01-07T02:53:04Z</time>
      </trkpt>
      <trkpt lat="42.39546" lon="2.45174">
        <ele>1355.6</ele>
        <time>2019-01-07T02:53:06Z</time>
      </trkpt>
      <trkpt lat="42.39538" lon="2.45166">
        <ele>1357.6</ele>
        <time>2019-01-07T02:53:08Z</time>
      </trkpt>
      <trkpt lat="42.39532" lon="2.45156">
        <ele>1361.5</ele>
        <time>2019-01-07T02:53:11Z</time>
      </trkpt>
      <trkpt lat="42.39526" lon="2.45149">
        <ele>1363.9</ele>
        <time>2019-01-07T02:53:13Z</time>
      </trkpt>
      <trkpt lat="42.39521" lon="2.45142">
        <ele>1367.2</ele>
        <time>2019-01-07T02:53:15Z</time>
      </trkpt>
      <trkpt lat="42.39519" lon="2.45139">
        <ele>1368.7</ele>
        <time>2019-01-07T02:53:16Z</time>
      </trkpt>
      <trkpt lat="42.39513" lon="2.45132">
        <ele>1372</ele>
        <time>2019-01-07T02:53:18Z</time>
      </trkpt>
      <trkpt lat="42.39507" lon="2.45123">
        <ele>1374.8</ele>
        <time>2019-01-07T02:53:20Z</time>
      </trkpt>
      <trkpt lat="42.395" lon="2.45115">
        <ele>1378.3</ele>
        <time>2019-01-07T02:53:23Z</time>
      </trkpt>
      <trkpt lat="42.39499" lon="2.4511">
        <ele>1379.6</ele>
        <time>2019-01-07T02:53:24Z</time>
      </trkpt>
      <trkpt lat="42.39493" lon="2.45104">
        <ele>1382.5</ele>
        <time>2019-01-07T02:53:26Z</time>
      </trkpt>
      <trkpt lat="42.39486" lon="2.45095">
        <ele>1384.9</ele>
        <time>2019-01-07T02:53:28Z</time>
      </trkpt>
      <trkpt lat="42.39478" lon="2.45082">
        <ele>1387.4</ele>
        <time>2019-01-07T02:53:32Z</time>
      </trkpt>
      <trkpt lat="42.39472" lon="2.45072">
        <ele>1390.2</ele>
        <time>2019-01-07T02:53:34Z</time>
      </trkpt>
      <trkpt lat="42.39462" lon="2.45063">
        <ele>1392.1</ele>
        <time>2019-01-07T02:53:37Z</time>
      </trkpt>
      <trkpt lat="42.39456" lon="2.45051">
        <ele>1395</ele>
        <time>2019-01-07T02:53:40Z</time>
      </trkpt>
      <trkpt lat="42.39451" lon="2.4504">
        <ele>1398.4</ele>
        <time>2019-01-07T02:53:43Z</time>
      </trkpt>
      <trkpt lat="42.39444" lon="2.45028">
        <ele>1400.8</ele>
        <time>2019-01-07T02:53:46Z</time>
      </trkpt>
      <trkpt lat="42.39438" lon="2.45017">
        <ele>1403.7</ele>
        <time>2019-01-07T02:53:48Z</time>
      </trkpt>
      <trkpt lat="42.39431" lon="2.45006">
        <ele>1405.7</ele>
        <time>2019-01-07T02:53:51Z</time>
      </trkpt>
      <trkpt lat="42.3942" lon="2.44991">
        <ele>1408.5</ele>
        <time>2019-01-07T02:53:56Z</time>
      </trkpt>
      <trkpt lat="42.39415" lon="2.44983">
        <ele>1410.4</ele>
        <time>2019-01-07T02:53:57Z</time>
      </trkpt>
      <trkpt lat="42.39408" lon="2.44978">
        <ele>1412.3</ele>
        <time>2019-01-07T02:54:00Z</time>
      </trkpt>
      <trkpt lat="42.39401" lon="2.4497">
        <ele>1415.3</ele>
        <time>2019-01-07T02:54:02Z</time>
      </trkpt>
      <trkpt lat="42.39395" lon="2.44962">
        <ele>1416.6</ele>
        <time>2019-01-07T02:54:04Z</time>
      </trkpt>
      <trkpt lat="42.39391" lon="2.44952">
        <ele>1420.1</ele>
        <time>2019-01-07T02:54:07Z</time>
      </trkpt>
      <trkpt lat="42.39382" lon="2.44939">
        <ele>1422.9</ele>
        <time>2019-01-07T02:54:10Z</time>
      </trkpt>
      <trkpt lat="42.39377" lon="2.44933">
        <ele>1423.9</ele>
        <time>2019-01-07T02:54:12Z</time>
      </trkpt>
      <trkpt lat="42.39372" lon="2.44928">
        <ele>1424.8</ele>
        <time>2019-01-07T02:54:13Z</time>
      </trkpt>
      <trkpt lat="42.3937" lon="2.44923">
        <ele>1427.7</ele>
        <time>2019-01-07T02:54:15Z</time>
      </trkpt>
      <trkpt lat="42.39362" lon="2.4491">
        <ele>1430.1</ele>
        <time>2019-01-07T02:54:18Z</time>
      </trkpt>
      <trkpt lat="42.39361" lon="2.44906">
        <ele>1432.1</ele>
        <time>2019-01-07T02:54:19Z</time>
      </trkpt>
      <trkpt lat="42.39355" lon="2.44895">
        <ele>1433.9</ele>
        <time>2019-01-07T02:54:22Z</time>
      </trkpt>
      <trkpt lat="42.39348" lon="2.44881">
        <ele>1435.9</ele>
        <time>2019-01-07T02:54:25Z</time>
      </trkpt>
      <trkpt lat="42.3934" lon="2.44868">
        <ele>1437.9</ele>
        <time>2019-01-07T02:54:28Z</time>
      </trkpt>
      <trkpt lat="42.3933" lon="2.44862">
        <ele>1441.3</ele>
        <time>2019-01-07T02:54:31Z</time>
      </trkpt>
      <trkpt lat="42.39324" lon="2.44857">
        <ele>1442.1</ele>
        <time>2019-01-07T02:54:33Z</time>
      </trkpt>
      <trkpt lat="42.39316" lon="2.44849">
        <ele>1445.6</ele>
        <time>2019-01-07T02:54:36Z</time>
      </trkpt>
      <trkpt lat="42.3931" lon="2.44838">
        <ele>1447.4</ele>
        <time>2019-01-07T02:54:38Z</time>
      </trkpt>
      <trkpt lat="42.39304" lon="2.44825">
        <ele>1449.9</ele>
        <time>2019-01-07T02:54:41Z</time>
      </trkpt>
      <trkpt lat="42.39298" lon="2.4481">
        <ele>1452.7</ele>
        <time>2019-01-07T02:54:45Z</time>
      </trkpt>
      <trkpt lat="42.39291" lon="2.44799">
        <ele>1455.1</ele>
        <time>2019-01-07T02:54:47Z</time>
      </trkpt>
      <trkpt lat="42.39287" lon="2.44786">
        <ele>1456.2</ele>
        <time>2019-01-07T02:54:50Z</time>
      </trkpt>
      <trkpt lat="42.39291" lon="2.44766">
        <ele>1458</ele>
        <time>2019-01-07T02:54:54Z</time>
      </trkpt>
      <trkpt lat="42.39294" lon="2.44753">
        <ele>1460.9</ele>
        <time>2019-01-07T02:54:57Z</time>
      </trkpt>
      <trkpt lat="42.39285" lon="2.44736">
        <ele>1462.4</ele>
        <time>2019-01-07T02:55:01Z</time>
      </trkpt>
      <trkpt lat="42.39278" lon="2.44723">
        <ele>1466.3</ele>
        <time>2019-01-07T02:55:05Z</time>
      </trkpt>
      <trkpt lat="42.39273" lon="2.44707">
        <ele>1469.1</ele>
        <time>2019-01-07T02:55:08Z</time>
      </trkpt>
      <trkpt lat="42.39271" lon="2.44692">
        <ele>1471.5</ele>
        <time>2019-01-07T02:55:11Z</time>
      </trkpt>
      <trkpt lat="42.39266" lon="2.44678">
        <ele>1473.8</ele>
        <time>2019-01-07T02:55:14Z</time>
      </trkpt>
      <trkpt lat="42.39261" lon="2.4466">
        <ele>1475.8</ele>
        <time>2019-01-07T02:55:18Z</time>
      </trkpt>
      <trkpt lat="42.39256" lon="2.44642">
        <ele>1478.3</ele>
        <time>2019-01-07T02:55:22Z</time>
      </trkpt>
      <trkpt lat="42.39251" lon="2.44618">
        <ele>1480.6</ele>
        <time>2019-01-07T02:55:26Z</time>
      </trkpt>
      <trkpt lat="42.39248" lon="2.446">
        <ele>1483.6</ele>
        <time>2019-01-07T02:55:30Z</time>
      </trkpt>
      <trkpt lat="42.39247" lon="2.44599">
        <ele>1483.5</ele>
        <time>2019-01-07T02:55:30Z</time>
      </trkpt>
      <trkpt lat="42.39244" lon="2.44584">
        <ele>1485.4</ele>
        <time>2019-01-07T02:55:33Z</time>
      </trkpt>
      <trkpt lat="42.39241" lon="2.44574">
        <ele>1486.3</ele>
        <time>2019-01-07T02:55:35Z</time>
      </trkpt>
      <trkpt lat="42.39236" lon="2.44556">
        <ele>1488.3</ele>
        <time>2019-01-07T02:55:39Z</time>
      </trkpt>
      <trkpt lat="42.39235" lon="2.44551">
        <ele>1488.7</ele>
        <time>2019-01-07T02:55:40Z</time>
      </trkpt>
      <trkpt lat="42.39227" lon="2.44528">
        <ele>1490.8</ele>
        <time>2019-01-07T02:55:45Z</time>
      </trkpt>
      <trkpt lat="42.39224" lon="2.44518">
        <ele>1492.7</ele>
        <time>2019-01-07T02:55:47Z</time>
      </trkpt>
      <trkpt lat="42.3923" lon="2.44519">
        <ele>1495.6</ele>
        <time>2019-01-07T02:55:49Z</time>
      </trkpt>
      <trkpt lat="42.39239" lon="2.44525">
        <ele>1497.9</ele>
        <time>2019-01-07T02:55:51Z</time>
      </trkpt>
      <trkpt lat="42.3924" lon="2.44525">
        <ele>1497.4</ele>
        <time>2019-01-07T02:55:52Z</time>
      </trkpt>
      <trkpt lat="42.39246" lon="2.44534">
        <ele>1498.9</ele>
        <time>2019-01-07T02:55:54Z</time>
      </trkpt>
      <trkpt lat="42.39251" lon="2.44536">
        <ele>1499.3</ele>
        <time>2019-01-07T02:55:56Z</time>
      </trkpt>
      <trkpt lat="42.39255" lon="2.4454">
        <ele>1499.8</ele>
        <time>2019-01-07T02:55:57Z</time>
      </trkpt>
      <trkpt lat="42.39263" lon="2.44542">
        <ele>1501.2</ele>
        <time>2019-01-07T02:55:59Z</time>
      </trkpt>
      <trkpt lat="42.39274" lon="2.44552">
        <ele>1502.7</ele>
        <time>2019-01-07T02:56:03Z</time>
      </trkpt>
      <trkpt lat="42.39289" lon="2.44562">
        <ele>1505.1</ele>
        <time>2019-01-07T02:56:07Z</time>
      </trkpt>
      <trkpt lat="42.39298" lon="2.4457">
        <ele>1506.5</ele>
        <time>2019-01-07T02:56:10Z</time>
      </trkpt>
      <trkpt lat="42.39299" lon="2.44571">
        <ele>1507.5</ele>
        <time>2019-01-07T02:56:10Z</time>
      </trkpt>
      <trkpt lat="42.39309" lon="2.4458">
        <ele>1509</ele>
        <time>2019-01-07T02:56:13Z</time>
      </trkpt>
      <trkpt lat="42.39321" lon="2.44588">
        <ele>1511.4</ele>
        <time>2019-01-07T02:56:17Z</time>
      </trkpt>
      <trkpt lat="42.39336" lon="2.44599">
        <ele>1513.8</ele>
        <time>2019-01-07T02:56:21Z</time>
      </trkpt>
      <trkpt lat="42.39345" lon="2.44609">
        <ele>1516.2</ele>
        <time>2019-01-07T02:56:25Z</time>
      </trkpt>
      <trkpt lat="42.39354" lon="2.44625">
        <ele>1518.5</ele>
        <time>2019-01-07T02:56:29Z</time>
      </trkpt>
      <trkpt lat="42.39359" lon="2.44635">
        <ele>1517.1</ele>
        <time>2019-01-07T02:56:31Z</time>
      </trkpt>
      <trkpt lat="42.39359" lon="2.44637">
        <ele>1516.7</ele>
        <time>2019-01-07T02:56:31Z</time>
      </trkpt>
      <trkpt lat="42.39366" lon="2.44652">
        <ele>1515.8</ele>
        <time>2019-01-07T02:56:35Z</time>
      </trkpt>
      <trkpt lat="42.39366" lon="2.44653">
        <ele>1515.7</ele>
        <time>2019-01-07T02:56:35Z</time>
      </trkpt>
      <trkpt lat="42.39367" lon="2.44659">
        <ele>1514.3</ele>
        <time>2019-01-07T02:56:36Z</time>
      </trkpt>
      <trkpt lat="42.39365" lon="2.44663">
        <ele>1513.8</ele>
        <time>2019-01-07T02:56:37Z</time>
      </trkpt>
      <trkpt lat="42.39364" lon="2.4467">
        <ele>1512.9</ele>
        <time>2019-01-07T02:56:39Z</time>
      </trkpt>
      <trkpt lat="42.39369" lon="2.44694">
        <ele>1511.8</ele>
        <time>2019-01-07T02:56:43Z</time>
      </trkpt>
      <trkpt lat="42.39371" lon="2.44697">
        <ele>1511.9</ele>
        <time>2019-01-07T02:56:44Z</time>
      </trkpt>
      <trkpt lat="42.39374" lon="2.44713">
        <ele>1511.8</ele>
        <time>2019-01-07T02:56:48Z</time>
      </trkpt>
      <trkpt lat="42.39381" lon="2.44726">
        <ele>1514.2</ele>
        <time>2019-01-07T02:56:51Z</time>
      </trkpt>
      <trkpt lat="42.39387" lon="2.44736">
        <ele>1517.6</ele>
        <time>2019-01-07T02:56:53Z</time>
      </trkpt>
      <trkpt lat="42.39396" lon="2.44741">
        <ele>1519.5</ele>
        <time>2019-01-07T02:56:56Z</time>
      </trkpt>
      <trkpt lat="42.39402" lon="2.44746">
        <ele>1521.5</ele>
        <time>2019-01-07T02:56:58Z</time>
      </trkpt>
      <trkpt lat="42.39406" lon="2.44748">
        <ele>1524.9</ele>
        <time>2019-01-07T02:56:59Z</time>
      </trkpt>
      <trkpt lat="42.39414" lon="2.44755">
        <ele>1526.3</ele>
        <time>2019-01-07T02:57:02Z</time>
      </trkpt>
      <trkpt lat="42.39422" lon="2.44752">
        <ele>1528.2</ele>
        <time>2019-01-07T02:57:04Z</time>
      </trkpt>
      <trkpt lat="42.3943" lon="2.44746">
        <ele>1531.1</ele>
        <time>2019-01-07T02:57:06Z</time>
      </trkpt>
      <trkpt lat="42.39437" lon="2.44747">
        <ele>1533</ele>
        <time>2019-01-07T02:57:08Z</time>
      </trkpt>
      <trkpt lat="42.3944" lon="2.44756">
        <ele>1534.4</ele>
        <time>2019-01-07T02:57:10Z</time>
      </trkpt>
      <trkpt lat="42.39442" lon="2.44753">
        <ele>1537.4</ele>
        <time>2019-01-07T02:57:11Z</time>
      </trkpt>
      <trkpt lat="42.39447" lon="2.44746">
        <ele>1537.3</ele>
        <time>2019-01-07T02:57:13Z</time>
      </trkpt>
      <trkpt lat="42.39456" lon="2.44748">
        <ele>1537.3</ele>
        <time>2019-01-07T02:57:15Z</time>
      </trkpt>
      <trkpt lat="42.39456" lon="2.44749">
        <ele>1535</ele>
        <time>2019-01-07T02:57:15Z</time>
      </trkpt>
      <trkpt lat="42.39456" lon="2.44749">
        <ele>1536.8</ele>
        <time>2019-01-07T02:57:15Z</time>
      </trkpt>
      <trkpt lat="42.39456" lon="2.44752">
        <ele>1537.9</ele>
        <time>2019-01-07T02:57:16Z</time>
      </trkpt>
      <trkpt lat="42.39457" lon="2.44756">
        <ele>1537.4</ele>
        <time>2019-01-07T02:57:17Z</time>
      </trkpt>
      <trkpt lat="42.39456" lon="2.44763">
        <ele>1537.4</ele>
        <time>2019-01-07T02:57:18Z</time>
      </trkpt>
      <trkpt lat="42.39456" lon="2.44766">
        <ele>1536.8</ele>
        <time>2019-01-07T02:57:19Z</time>
      </trkpt>
      <trkpt lat="42.39455" lon="2.44766">
        <ele>1536.4</ele>
        <time>2019-01-07T02:57:19Z</time>
      </trkpt>
      <trkpt lat="42.39443" lon="2.44767">
        <ele>1536.9</ele>
        <time>2019-01-07T02:57:22Z</time>
      </trkpt>
      <trkpt lat="42.39441" lon="2.44759">
        <ele>1536.9</ele>
        <time>2019-01-07T02:57:24Z</time>
      </trkpt>
      <trkpt lat="42.39446" lon="2.4475">
        <ele>1538.3</ele>
        <time>2019-01-07T02:57:26Z</time>
      </trkpt>
      <trkpt lat="42.39447" lon="2.44747">
        <ele>1537.3</ele>
        <time>2019-01-07T02:57:27Z</time>
      </trkpt>
      <trkpt lat="42.39448" lon="2.44748">
        <ele>1538.4</ele>
        <time>2019-01-07T02:57:27Z</time>
      </trkpt>
      <trkpt lat="42.39448" lon="2.44747">
        <ele>1537.8</ele>
        <time>2019-01-07T02:57:27Z</time>
      </trkpt>
      <trkpt lat="42.3945" lon="2.44746">
        <ele>1538.4</ele>
        <time>2019-01-07T02:57:28Z</time>
      </trkpt>
      <trkpt lat="42.3945" lon="2.44746">
        <ele>1537.8</ele>
        <time>2019-01-07T02:57:28Z</time>
      </trkpt>
      <trkpt lat="42.39443" lon="2.44762">
        <ele>1535.8</ele>
        <time>2019-01-07T02:57:31Z</time>
      </trkpt>
      <trkpt lat="42.39439" lon="2.44758">
        <ele>1534</ele>
        <time>2019-01-07T02:57:32Z</time>
      </trkpt>
      <trkpt lat="42.39435" lon="2.44753">
        <ele>1533.5</ele>
        <time>2019-01-07T02:57:34Z</time>
      </trkpt>
      <trkpt lat="42.3943" lon="2.44748">
        <ele>1531.5</ele>
        <time>2019-01-07T02:57:35Z</time>
      </trkpt>
      <trkpt lat="42.3943" lon="2.44749">
        <ele>1531.1</ele>
        <time>2019-01-07T02:57:36Z</time>
      </trkpt>
      <trkpt lat="42.39428" lon="2.44751">
        <ele>1529.6</ele>
        <time>2019-01-07T02:57:36Z</time>
      </trkpt>
      <trkpt lat="42.39425" lon="2.44752">
        <ele>1527.7</ele>
        <time>2019-01-07T02:57:37Z</time>
      </trkpt>
      <trkpt lat="42.39413" lon="2.44754">
        <ele>1525.8</ele>
        <time>2019-01-07T02:57:40Z</time>
      </trkpt>
      <trkpt lat="42.3941" lon="2.44749">
        <ele>1523.8</ele>
        <time>2019-01-07T02:57:41Z</time>
      </trkpt>
      <trkpt lat="42.39406" lon="2.4475">
        <ele>1522.5</ele>
        <time>2019-01-07T02:57:42Z</time>
      </trkpt>
      <trkpt lat="42.39403" lon="2.44749">
        <ele>1520.9</ele>
        <time>2019-01-07T02:57:43Z</time>
      </trkpt>
      <trkpt lat="42.39402" lon="2.44748">
        <ele>1520.6</ele>
        <time>2019-01-07T02:57:44Z</time>
      </trkpt>
      <trkpt lat="42.39399" lon="2.44746">
        <ele>1519.5</ele>
        <time>2019-01-07T02:57:45Z</time>
      </trkpt>
      <trkpt lat="42.39392" lon="2.44743">
        <ele>1516.1</ele>
        <time>2019-01-07T02:57:47Z</time>
      </trkpt>
      <trkpt lat="42.39387" lon="2.4474">
        <ele>1513.4</ele>
        <time>2019-01-07T02:57:48Z</time>
      </trkpt>
      <trkpt lat="42.39378" lon="2.4473">
        <ele>1511.9</ele>
        <time>2019-01-07T02:57:51Z</time>
      </trkpt>
      <trkpt lat="42.3937" lon="2.44702">
        <ele>1512.3</ele>
        <time>2019-01-07T02:57:57Z</time>
      </trkpt>
      <trkpt lat="42.39365" lon="2.44684">
        <ele>1511.8</ele>
        <time>2019-01-07T02:58:01Z</time>
      </trkpt>
      <trkpt lat="42.3937" lon="2.44674">
        <ele>1514.3</ele>
        <time>2019-01-07T02:58:03Z</time>
      </trkpt>
      <trkpt lat="42.39365" lon="2.44654">
        <ele>1516.1</ele>
        <time>2019-01-07T02:58:07Z</time>
      </trkpt>
      <trkpt lat="42.39362" lon="2.44643">
        <ele>1517.7</ele>
        <time>2019-01-07T02:58:10Z</time>
      </trkpt>
      <trkpt lat="42.39358" lon="2.44625">
        <ele>1518.6</ele>
        <time>2019-01-07T02:58:13Z</time>
      </trkpt>
      <trkpt lat="42.39353" lon="2.44606">
        <ele>1518.6</ele>
        <time>2019-01-07T02:58:17Z</time>
      </trkpt>
      <trkpt lat="42.39353" lon="2.44596">
        <ele>1521</ele>
        <time>2019-01-07T02:58:19Z</time>
      </trkpt>
      <trkpt lat="42.3935" lon="2.44578">
        <ele>1523.5</ele>
        <time>2019-01-07T02:58:23Z</time>
      </trkpt>
      <trkpt lat="42.39354" lon="2.44564">
        <ele>1525.4</ele>
        <time>2019-01-07T02:58:26Z</time>
      </trkpt>
      <trkpt lat="42.39356" lon="2.44558">
        <ele>1526.2</ele>
        <time>2019-01-07T02:58:27Z</time>
      </trkpt>
      <trkpt lat="42.39369" lon="2.44538">
        <ele>1526.7</ele>
        <time>2019-01-07T02:58:32Z</time>
      </trkpt>
      <trkpt lat="42.39385" lon="2.44518">
        <ele>1526.2</ele>
        <time>2019-01-07T02:58:38Z</time>
      </trkpt>
      <trkpt lat="42.39385" lon="2.44513">
        <ele>1526.7</ele>
        <time>2019-01-07T02:58:39Z</time>
      </trkpt>
      <trkpt lat="42.39373" lon="2.44524">
        <ele>1527.3</ele>
        <time>2019-01-07T02:58:43Z</time>
      </trkpt>
      <trkpt lat="42.39368" lon="2.44514">
        <ele>1528.3</ele>
        <time>2019-01-07T02:58:45Z</time>
      </trkpt>
      <trkpt lat="42.39368" lon="2.44508">
        <ele>1529.7</ele>
        <time>2019-01-07T02:58:46Z</time>
      </trkpt>
      <trkpt lat="42.39371" lon="2.44513">
        <ele>1529.2</ele>
        <time>2019-01-07T02:58:48Z</time>
      </trkpt>
      <trkpt lat="42.39372" lon="2.44516">
        <ele>1528.2</ele>
        <time>2019-01-07T02:58:48Z</time>
      </trkpt>
      <trkpt lat="42.39378" lon="2.44518">
        <ele>1527.3</ele>
        <time>2019-01-07T02:58:50Z</time>
      </trkpt>
      <trkpt lat="42.39389" lon="2.44508">
        <ele>1526.2</ele>
        <time>2019-01-07T02:58:54Z</time>
      </trkpt>
      <trkpt lat="42.39391" lon="2.44506">
        <ele>1525.8</ele>
        <time>2019-01-07T02:58:54Z</time>
      </trkpt>
      <trkpt lat="42.39395" lon="2.44496">
        <ele>1525.8</ele>
        <time>2019-01-07T02:58:56Z</time>
      </trkpt>
      <trkpt lat="42.39398" lon="2.44487">
        <ele>1525.8</ele>
        <time>2019-01-07T02:58:58Z</time>
      </trkpt>
      <trkpt lat="42.39403" lon="2.44465">
        <ele>1526.8</ele>
        <time>2019-01-07T02:59:03Z</time>
      </trkpt>
      <trkpt lat="42.39402" lon="2.44444">
        <ele>1527.2</ele>
        <time>2019-01-07T02:59:07Z</time>
      </trkpt>
      <trkpt lat="42.39404" lon="2.44438">
        <ele>1527.7</ele>
        <time>2019-01-07T02:59:08Z</time>
      </trkpt>
      <trkpt lat="42.39405" lon="2.44428">
        <ele>1528.3</ele>
        <time>2019-01-07T02:59:10Z</time>
      </trkpt>
      <trkpt lat="42.39405" lon="2.44425">
        <ele>1528.3</ele>
        <time>2019-01-07T02:59:11Z</time>
      </trkpt>
      <trkpt lat="42.39407" lon="2.44419">
        <ele>1528.7</ele>
        <time>2019-01-07T02:59:12Z</time>
      </trkpt>
      <trkpt lat="42.39406" lon="2.44404">
        <ele>1528.6</ele>
        <time>2019-01-07T02:59:15Z</time>
      </trkpt>
      <trkpt lat="42.394" lon="2.4439">
        <ele>1529.6</ele>
        <time>2019-01-07T02:59:18Z</time>
      </trkpt>
      <trkpt lat="42.39398" lon="2.44386">
        <ele>1529.7</ele>
        <time>2019-01-07T02:59:19Z</time>
      </trkpt>
      <trkpt lat="42.39392" lon="2.44369">
        <ele>1530.6</ele>
        <time>2019-01-07T02:59:23Z</time>
      </trkpt>
      <trkpt lat="42.39383" lon="2.4435">
        <ele>1531</ele>
        <time>2019-01-07T02:59:27Z</time>
      </trkpt>
      <trkpt lat="42.39374" lon="2.4433">
        <ele>1532</ele>
        <time>2019-01-07T02:59:32Z</time>
      </trkpt>
      <trkpt lat="42.3937" lon="2.44325">
        <ele>1532.5</ele>
        <time>2019-01-07T02:59:33Z</time>
      </trkpt>
      <trkpt lat="42.39365" lon="2.44317">
        <ele>1533</ele>
        <time>2019-01-07T02:59:36Z</time>
      </trkpt>
      <trkpt lat="42.39355" lon="2.44303">
        <ele>1533.1</ele>
        <time>2019-01-07T02:59:39Z</time>
      </trkpt>
      <trkpt lat="42.39343" lon="2.44289">
        <ele>1534.4</ele>
        <time>2019-01-07T02:59:44Z</time>
      </trkpt>
      <trkpt lat="42.39332" lon="2.44276">
        <ele>1535.4</ele>
        <time>2019-01-07T02:59:47Z</time>
      </trkpt>
      <trkpt lat="42.39316" lon="2.44268">
        <ele>1535.8</ele>
        <time>2019-01-07T02:59:52Z</time>
      </trkpt>
      <trkpt lat="42.39294" lon="2.44262">
        <ele>1535.5</ele>
        <time>2019-01-07T02:59:58Z</time>
      </trkpt>
      <trkpt lat="42.3928" lon="2.44253">
        <ele>1534.4</ele>
        <time>2019-01-07T03:00:02Z</time>
      </trkpt>
      <trkpt lat="42.39265" lon="2.4424">
        <ele>1534.9</ele>
        <time>2019-01-07T03:00:07Z</time>
      </trkpt>
      <trkpt lat="42.39263" lon="2.44236">
        <ele>1535.4</ele>
        <time>2019-01-07T03:00:08Z</time>
      </trkpt>
      <trkpt lat="42.39259" lon="2.4422">
        <ele>1536.4</ele>
        <time>2019-01-07T03:00:11Z</time>
      </trkpt>
      <trkpt lat="42.39261" lon="2.44205">
        <ele>1537.3</ele>
        <time>2019-01-07T03:00:14Z</time>
      </trkpt>
      <trkpt lat="42.3926" lon="2.44186">
        <ele>1538.3</ele>
        <time>2019-01-07T03:00:18Z</time>
      </trkpt>
      <trkpt lat="42.39259" lon="2.44165">
        <ele>1540.7</ele>
        <time>2019-01-07T03:00:22Z</time>
      </trkpt>
      <trkpt lat="42.39259" lon="2.44159">
        <ele>1541.1</ele>
        <time>2019-01-07T03:00:23Z</time>
      </trkpt>
      <trkpt lat="42.39259" lon="2.44146">
        <ele>1541.7</ele>
        <time>2019-01-07T03:00:26Z</time>
      </trkpt>
      <trkpt lat="42.39263" lon="2.4412">
        <ele>1542.6</ele>
        <time>2019-01-07T03:00:31Z</time>
      </trkpt>
      <trkpt lat="42.39267" lon="2.44105">
        <ele>1542.7</ele>
        <time>2019-01-07T03:00:34Z</time>
      </trkpt>
      <trkpt lat="42.39273" lon="2.44082">
        <ele>1545</ele>
        <time>2019-01-07T03:00:39Z</time>
      </trkpt>
      <trkpt lat="42.39279" lon="2.44067">
        <ele>1545.9</ele>
        <time>2019-01-07T03:00:42Z</time>
      </trkpt>
      <trkpt lat="42.39285" lon="2.44051">
        <ele>1548.8</ele>
        <time>2019-01-07T03:00:46Z</time>
      </trkpt>
      <trkpt lat="42.39287" lon="2.44047">
        <ele>1550.4</ele>
        <time>2019-01-07T03:00:47Z</time>
      </trkpt>
      <trkpt lat="42.3929" lon="2.44032">
        <ele>1553.2</ele>
        <time>2019-01-07T03:00:50Z</time>
      </trkpt>
      <trkpt lat="42.39293" lon="2.4402">
        <ele>1556.1</ele>
        <time>2019-01-07T03:00:52Z</time>
      </trkpt>
      <trkpt lat="42.39297" lon="2.44007">
        <ele>1558.9</ele>
        <time>2019-01-07T03:00:55Z</time>
      </trkpt>
      <trkpt lat="42.39302" lon="2.43996">
        <ele>1560.9</ele>
        <time>2019-01-07T03:00:58Z</time>
      </trkpt>
      <trkpt lat="42.39304" lon="2.43985">
        <ele>1563.3</ele>
        <time>2019-01-07T03:01:00Z</time>
      </trkpt>
      <trkpt lat="42.39306" lon="2.43975">
        <ele>1565.7</ele>
        <time>2019-01-07T03:01:02Z</time>
      </trkpt>
      <trkpt lat="42.39311" lon="2.4396">
        <ele>1567.6</ele>
        <time>2019-01-07T03:01:05Z</time>
      </trkpt>
      <trkpt lat="42.39315" lon="2.43947">
        <ele>1570.6</ele>
        <time>2019-01-07T03:01:08Z</time>
      </trkpt>
      <trkpt lat="42.39317" lon="2.43939">
        <ele>1571.4</ele>
        <time>2019-01-07T03:01:10Z</time>
      </trkpt>
      <trkpt lat="42.39322" lon="2.4393">
        <ele>1572.4</ele>
        <time>2019-01-07T03:01:12Z</time>
      </trkpt>
      <trkpt lat="42.3932" lon="2.43927">
        <ele>1572.4</ele>
        <time>2019-01-07T03:01:13Z</time>
      </trkpt>
      <trkpt lat="42.3932" lon="2.43918">
        <ele>1574.3</ele>
        <time>2019-01-07T03:01:14Z</time>
      </trkpt>
      <trkpt lat="42.39323" lon="2.43907">
        <ele>1575.7</ele>
        <time>2019-01-07T03:01:17Z</time>
      </trkpt>
      <trkpt lat="42.39323" lon="2.43905">
        <ele>1576.7</ele>
        <time>2019-01-07T03:01:17Z</time>
      </trkpt>
      <trkpt lat="42.39324" lon="2.43892">
        <ele>1578.2</ele>
        <time>2019-01-07T03:01:20Z</time>
      </trkpt>
      <trkpt lat="42.3933" lon="2.4388">
        <ele>1580.2</ele>
        <time>2019-01-07T03:01:23Z</time>
      </trkpt>
      <trkpt lat="42.39331" lon="2.43879">
        <ele>1580.6</ele>
        <time>2019-01-07T03:01:23Z</time>
      </trkpt>
      <trkpt lat="42.39333" lon="2.43878">
        <ele>1581.6</ele>
        <time>2019-01-07T03:01:23Z</time>
      </trkpt>
      <trkpt lat="42.39335" lon="2.43867">
        <ele>1583.1</ele>
        <time>2019-01-07T03:01:26Z</time>
      </trkpt>
      <trkpt lat="42.39334" lon="2.43858">
        <ele>1583</ele>
        <time>2019-01-07T03:01:27Z</time>
      </trkpt>
      <trkpt lat="42.39332" lon="2.43854">
        <ele>1584.9</ele>
        <time>2019-01-07T03:01:28Z</time>
      </trkpt>
      <trkpt lat="42.39324" lon="2.43836">
        <ele>1585.4</ele>
        <time>2019-01-07T03:01:33Z</time>
      </trkpt>
      <trkpt lat="42.39314" lon="2.4382">
        <ele>1587.3</ele>
        <time>2019-01-07T03:01:37Z</time>
      </trkpt>
      <trkpt lat="42.39311" lon="2.43814">
        <ele>1587.4</ele>
        <time>2019-01-07T03:01:38Z</time>
      </trkpt>
      <trkpt lat="42.39308" lon="2.43807">
        <ele>1588.2</ele>
        <time>2019-01-07T03:01:40Z</time>
      </trkpt>
      <trkpt lat="42.39302" lon="2.43783">
        <ele>1588.7</ele>
        <time>2019-01-07T03:01:45Z</time>
      </trkpt>
      <trkpt lat="42.393" lon="2.43755">
        <ele>1588.7</ele>
        <time>2019-01-07T03:01:50Z</time>
      </trkpt>
      <trkpt lat="42.39306" lon="2.43726">
        <ele>1590.6</ele>
        <time>2019-01-07T03:01:56Z</time>
      </trkpt>
      <trkpt lat="42.3931" lon="2.43705">
        <ele>1592.2</ele>
        <time>2019-01-07T03:02:01Z</time>
      </trkpt>
      <trkpt lat="42.39311" lon="2.43698">
        <ele>1591.7</ele>
        <time>2019-01-07T03:02:02Z</time>
      </trkpt>
      <trkpt lat="42.39309" lon="2.43691">
        <ele>1592.1</ele>
        <time>2019-01-07T03:02:03Z</time>
      </trkpt>
      <trkpt lat="42.39308" lon="2.43686">
        <ele>1593</ele>
        <time>2019-01-07T03:02:04Z</time>
      </trkpt>
      <trkpt lat="42.39313" lon="2.43679">
        <ele>1594.6</ele>
        <time>2019-01-07T03:02:06Z</time>
      </trkpt>
      <trkpt lat="42.39312" lon="2.43674">
        <ele>1594.1</ele>
        <time>2019-01-07T03:02:07Z</time>
      </trkpt>
      <trkpt lat="42.39311" lon="2.43671">
        <ele>1593.5</ele>
        <time>2019-01-07T03:02:08Z</time>
      </trkpt>
      <trkpt lat="42.39307" lon="2.43652">
        <ele>1594.5</ele>
        <time>2019-01-07T03:02:12Z</time>
      </trkpt>
      <trkpt lat="42.39308" lon="2.43643">
        <ele>1595.1</ele>
        <time>2019-01-07T03:02:13Z</time>
      </trkpt>
      <trkpt lat="42.39308" lon="2.43628">
        <ele>1595.1</ele>
        <time>2019-01-07T03:02:16Z</time>
      </trkpt>
      <trkpt lat="42.39309" lon="2.43624">
        <ele>1595.1</ele>
        <time>2019-01-07T03:02:17Z</time>
      </trkpt>
      <trkpt lat="42.39308" lon="2.43615">
        <ele>1595.6</ele>
        <time>2019-01-07T03:02:19Z</time>
      </trkpt>
      <trkpt lat="42.39308" lon="2.43611">
        <ele>1596.4</ele>
        <time>2019-01-07T03:02:20Z</time>
      </trkpt>
      <trkpt lat="42.39306" lon="2.43603">
        <ele>1595.9</ele>
        <time>2019-01-07T03:02:21Z</time>
      </trkpt>
      <trkpt lat="42.39305" lon="2.43588">
        <ele>1596.9</ele>
        <time>2019-01-07T03:02:24Z</time>
      </trkpt>
      <trkpt lat="42.39305" lon="2.43584">
        <ele>1597.5</ele>
        <time>2019-01-07T03:02:25Z</time>
      </trkpt>
      <trkpt lat="42.39301" lon="2.43565">
        <ele>1599.9</ele>
        <time>2019-01-07T03:02:29Z</time>
      </trkpt>
      <trkpt lat="42.39299" lon="2.43551">
        <ele>1600.3</ele>
        <time>2019-01-07T03:02:32Z</time>
      </trkpt>
      <trkpt lat="42.39298" lon="2.43535">
        <ele>1602.2</ele>
        <time>2019-01-07T03:02:35Z</time>
      </trkpt>
      <trkpt lat="42.39297" lon="2.43521">
        <ele>1604.1</ele>
        <time>2019-01-07T03:02:38Z</time>
      </trkpt>
      <trkpt lat="42.39298" lon="2.43508">
        <ele>1605.2</ele>
        <time>2019-01-07T03:02:40Z</time>
      </trkpt>
      <trkpt lat="42.39298" lon="2.43496">
        <ele>1607.1</ele>
        <time>2019-01-07T03:02:43Z</time>
      </trkpt>
      <trkpt lat="42.393" lon="2.43484">
        <ele>1610</ele>
        <time>2019-01-07T03:02:45Z</time>
      </trkpt>
      <trkpt lat="42.39302" lon="2.43472">
        <ele>1611.3</ele>
        <time>2019-01-07T03:02:48Z</time>
      </trkpt>
      <trkpt lat="42.39303" lon="2.4347">
        <ele>1611.8</ele>
        <time>2019-01-07T03:02:48Z</time>
      </trkpt>
      <trkpt lat="42.39303" lon="2.43466">
        <ele>1611.3</ele>
        <time>2019-01-07T03:02:49Z</time>
      </trkpt>
      <trkpt lat="42.39303" lon="2.43461">
        <ele>1611.3</ele>
        <time>2019-01-07T03:02:50Z</time>
      </trkpt>
      <trkpt lat="42.39303" lon="2.43453">
        <ele>1613.3</ele>
        <time>2019-01-07T03:02:52Z</time>
      </trkpt>
      <trkpt lat="42.39303" lon="2.4345">
        <ele>1612.8</ele>
        <time>2019-01-07T03:02:52Z</time>
      </trkpt>
      <trkpt lat="42.39302" lon="2.43441">
        <ele>1613.8</ele>
        <time>2019-01-07T03:02:54Z</time>
      </trkpt>
      <trkpt lat="42.393" lon="2.4343">
        <ele>1615.2</ele>
        <time>2019-01-07T03:02:56Z</time>
      </trkpt>
      <trkpt lat="42.393" lon="2.43421">
        <ele>1615.3</ele>
        <time>2019-01-07T03:02:58Z</time>
      </trkpt>
      <trkpt lat="42.393" lon="2.43417">
        <ele>1615.3</ele>
        <time>2019-01-07T03:02:59Z</time>
      </trkpt>
      <trkpt lat="42.39301" lon="2.43401">
        <ele>1617.1</ele>
        <time>2019-01-07T03:03:02Z</time>
      </trkpt>
      <trkpt lat="42.39299" lon="2.43394">
        <ele>1618.5</ele>
        <time>2019-01-07T03:03:04Z</time>
      </trkpt>
      <trkpt lat="42.39291" lon="2.43384">
        <ele>1618.5</ele>
        <time>2019-01-07T03:03:06Z</time>
      </trkpt>
      <trkpt lat="42.3929" lon="2.43379">
        <ele>1619</ele>
        <time>2019-01-07T03:03:07Z</time>
      </trkpt>
      <trkpt lat="42.39285" lon="2.43361">
        <ele>1620</ele>
        <time>2019-01-07T03:03:11Z</time>
      </trkpt>
      <trkpt lat="42.39279" lon="2.43353">
        <ele>1620.5</ele>
        <time>2019-01-07T03:03:13Z</time>
      </trkpt>
      <trkpt lat="42.39273" lon="2.43347">
        <ele>1620.9</ele>
        <time>2019-01-07T03:03:15Z</time>
      </trkpt>
      <trkpt lat="42.39269" lon="2.43337">
        <ele>1621.5</ele>
        <time>2019-01-07T03:03:17Z</time>
      </trkpt>
      <trkpt lat="42.39268" lon="2.43328">
        <ele>1621</ele>
        <time>2019-01-07T03:03:19Z</time>
      </trkpt>
      <trkpt lat="42.39268" lon="2.43327">
        <ele>1621.4</ele>
        <time>2019-01-07T03:03:19Z</time>
      </trkpt>
      <trkpt lat="42.39267" lon="2.4332">
        <ele>1621.5</ele>
        <time>2019-01-07T03:03:21Z</time>
      </trkpt>
      <trkpt lat="42.3926" lon="2.43315">
        <ele>1620.4</ele>
        <time>2019-01-07T03:03:23Z</time>
      </trkpt>
      <trkpt lat="42.3925" lon="2.43301">
        <ele>1619.5</ele>
        <time>2019-01-07T03:03:27Z</time>
      </trkpt>
      <trkpt lat="42.39248" lon="2.43299">
        <ele>1619.5</ele>
        <time>2019-01-07T03:03:28Z</time>
      </trkpt>
      <trkpt lat="42.39244" lon="2.43292">
        <ele>1618</ele>
        <time>2019-01-07T03:03:29Z</time>
      </trkpt>
      <trkpt lat="42.39236" lon="2.43278">
        <ele>1617.2</ele>
        <time>2019-01-07T03:03:33Z</time>
      </trkpt>
      <trkpt lat="42.3923" lon="2.43262">
        <ele>1613.7</ele>
        <time>2019-01-07T03:03:36Z</time>
      </trkpt>
      <trkpt lat="42.39222" lon="2.43251">
        <ele>1611.8</ele>
        <time>2019-01-07T03:03:39Z</time>
      </trkpt>
      <trkpt lat="42.39221" lon="2.43247">
        <ele>1610.9</ele>
        <time>2019-01-07T03:03:40Z</time>
      </trkpt>
      <trkpt lat="42.39212" lon="2.43236">
        <ele>1608.5</ele>
        <time>2019-01-07T03:03:43Z</time>
      </trkpt>
      <trkpt lat="42.39199" lon="2.43222">
        <ele>1605.6</ele>
        <time>2019-01-07T03:03:48Z</time>
      </trkpt>
      <trkpt lat="42.39187" lon="2.43213">
        <ele>1603.2</ele>
        <time>2019-01-07T03:03:51Z</time>
      </trkpt>
      <trkpt lat="42.3918" lon="2.43207">
        <ele>1601.2</ele>
        <time>2019-01-07T03:03:54Z</time>
      </trkpt>
      <trkpt lat="42.3917" lon="2.43196">
        <ele>1600.8</ele>
        <time>2019-01-07T03:03:57Z</time>
      </trkpt>
      <trkpt lat="42.39165" lon="2.43193">
        <ele>1599.3</ele>
        <time>2019-01-07T03:03:58Z</time>
      </trkpt>
      <trkpt lat="42.39157" lon="2.4319">
        <ele>1599.3</ele>
        <time>2019-01-07T03:04:01Z</time>
      </trkpt>
      <trkpt lat="42.39155" lon="2.43188">
        <ele>1598.8</ele>
        <time>2019-01-07T03:04:01Z</time>
      </trkpt>
      <trkpt lat="42.39153" lon="2.43185">
        <ele>1598.3</ele>
        <time>2019-01-07T03:04:02Z</time>
      </trkpt>
      <trkpt lat="42.39154" lon="2.43182">
        <ele>1598</ele>
        <time>2019-01-07T03:04:03Z</time>
      </trkpt>
      <trkpt lat="42.39161" lon="2.43179">
        <ele>1598</ele>
        <time>2019-01-07T03:04:05Z</time>
      </trkpt>
      <trkpt lat="42.39167" lon="2.43158">
        <ele>1595</ele>
        <time>2019-01-07T03:04:09Z</time>
      </trkpt>
      <trkpt lat="42.39169" lon="2.43154">
        <ele>1590.3</ele>
        <time>2019-01-07T03:04:10Z</time>
      </trkpt>
      <trkpt lat="42.39169" lon="2.43152">
        <ele>1595.6</ele>
        <time>2019-01-07T03:04:10Z</time>
      </trkpt>
      <trkpt lat="42.39169" lon="2.4315">
        <ele>1595.5</ele>
        <time>2019-01-07T03:04:11Z</time>
      </trkpt>
      <trkpt lat="42.39169" lon="2.43145">
        <ele>1596</ele>
        <time>2019-01-07T03:04:12Z</time>
      </trkpt>
      <trkpt lat="42.39167" lon="2.43143">
        <ele>1593</ele>
        <time>2019-01-07T03:04:12Z</time>
      </trkpt>
      <trkpt lat="42.39166" lon="2.43138">
        <ele>1592.6</ele>
        <time>2019-01-07T03:04:13Z</time>
      </trkpt>
      <trkpt lat="42.39162" lon="2.43128">
        <ele>1592.1</ele>
        <time>2019-01-07T03:04:16Z</time>
      </trkpt>
      <trkpt lat="42.39154" lon="2.43114">
        <ele>1590.7</ele>
        <time>2019-01-07T03:04:19Z</time>
      </trkpt>
      <trkpt lat="42.39149" lon="2.43105">
        <ele>1591.2</ele>
        <time>2019-01-07T03:04:21Z</time>
      </trkpt>
      <trkpt lat="42.39143" lon="2.43088">
        <ele>1591.6</ele>
        <time>2019-01-07T03:04:25Z</time>
      </trkpt>
      <trkpt lat="42.39137" lon="2.43064">
        <ele>1591.2</ele>
        <time>2019-01-07T03:04:30Z</time>
      </trkpt>
      <trkpt lat="42.39136" lon="2.43063">
        <ele>1591.1</ele>
        <time>2019-01-07T03:04:30Z</time>
      </trkpt>
      <trkpt lat="42.39134" lon="2.43048">
        <ele>1591.1</ele>
        <time>2019-01-07T03:04:33Z</time>
      </trkpt>
      <trkpt lat="42.3913" lon="2.43022">
        <ele>1591.6</ele>
        <time>2019-01-07T03:04:39Z</time>
      </trkpt>
      <trkpt lat="42.39125" lon="2.42996">
        <ele>1589.3</ele>
        <time>2019-01-07T03:04:44Z</time>
      </trkpt>
      <trkpt lat="42.39125" lon="2.42979">
        <ele>1589.2</ele>
        <time>2019-01-07T03:04:47Z</time>
      </trkpt>
      <trkpt lat="42.39125" lon="2.4297">
        <ele>1589.2</ele>
        <time>2019-01-07T03:04:49Z</time>
      </trkpt>
      <trkpt lat="42.39126" lon="2.4296">
        <ele>1589.3</ele>
        <time>2019-01-07T03:04:51Z</time>
      </trkpt>
      <trkpt lat="42.39127" lon="2.42945">
        <ele>1590.3</ele>
        <time>2019-01-07T03:04:54Z</time>
      </trkpt>
      <trkpt lat="42.39128" lon="2.4294">
        <ele>1590.3</ele>
        <time>2019-01-07T03:04:55Z</time>
      </trkpt>
      <trkpt lat="42.39127" lon="2.42934">
        <ele>1590.6</ele>
        <time>2019-01-07T03:04:56Z</time>
      </trkpt>
      <trkpt lat="42.39127" lon="2.42924">
        <ele>1592.2</ele>
        <time>2019-01-07T03:04:58Z</time>
      </trkpt>
      <trkpt lat="42.39127" lon="2.42921">
        <ele>1592.1</ele>
        <time>2019-01-07T03:04:59Z</time>
      </trkpt>
      <trkpt lat="42.39128" lon="2.42918">
        <ele>1592.2</ele>
        <time>2019-01-07T03:04:59Z</time>
      </trkpt>
      <trkpt lat="42.3913" lon="2.42906">
        <ele>1594.1</ele>
        <time>2019-01-07T03:05:02Z</time>
      </trkpt>
      <trkpt lat="42.39129" lon="2.429">
        <ele>1592.6</ele>
        <time>2019-01-07T03:05:03Z</time>
      </trkpt>
      <trkpt lat="42.39128" lon="2.42877">
        <ele>1591.6</ele>
        <time>2019-01-07T03:05:08Z</time>
      </trkpt>
      <trkpt lat="42.39127" lon="2.42864">
        <ele>1589.7</ele>
        <time>2019-01-07T03:05:10Z</time>
      </trkpt>
      <trkpt lat="42.39131" lon="2.42859">
        <ele>1590.3</ele>
        <time>2019-01-07T03:05:12Z</time>
      </trkpt>
      <trkpt lat="42.3914" lon="2.42853">
        <ele>1588.7</ele>
        <time>2019-01-07T03:05:14Z</time>
      </trkpt>
      <trkpt lat="42.39142" lon="2.42852">
        <ele>1589.2</ele>
        <time>2019-01-07T03:05:15Z</time>
      </trkpt>
      <trkpt lat="42.39153" lon="2.42845">
        <ele>1589.2</ele>
        <time>2019-01-07T03:05:18Z</time>
      </trkpt>
      <trkpt lat="42.39162" lon="2.42842">
        <ele>1589.2</ele>
        <time>2019-01-07T03:05:21Z</time>
      </trkpt>
      <trkpt lat="42.39177" lon="2.42825">
        <ele>1587.9</ele>
        <time>2019-01-07T03:05:26Z</time>
      </trkpt>
      <trkpt lat="42.39183" lon="2.42821">
        <ele>1586.8</ele>
        <time>2019-01-07T03:05:28Z</time>
      </trkpt>
      <trkpt lat="42.39187" lon="2.42815">
        <ele>1586.4</ele>
        <time>2019-01-07T03:05:29Z</time>
      </trkpt>
      <trkpt lat="42.39195" lon="2.42805">
        <ele>1583.4</ele>
        <time>2019-01-07T03:05:32Z</time>
      </trkpt>
      <trkpt lat="42.39195" lon="2.42801">
        <ele>1584.9</ele>
        <time>2019-01-07T03:05:33Z</time>
      </trkpt>
      <trkpt lat="42.39193" lon="2.42774">
        <ele>1584.9</ele>
        <time>2019-01-07T03:05:38Z</time>
      </trkpt>
      <trkpt lat="42.39194" lon="2.42772">
        <ele>1584.9</ele>
        <time>2019-01-07T03:05:39Z</time>
      </trkpt>
      <trkpt lat="42.39195" lon="2.42754">
        <ele>1586.9</ele>
        <time>2019-01-07T03:05:42Z</time>
      </trkpt>
      <trkpt lat="42.39189" lon="2.42726">
        <ele>1587.4</ele>
        <time>2019-01-07T03:05:48Z</time>
      </trkpt>
      <trkpt lat="42.39187" lon="2.42714">
        <ele>1587.4</ele>
        <time>2019-01-07T03:05:51Z</time>
      </trkpt>
      <trkpt lat="42.39184" lon="2.42709">
        <ele>1586.9</ele>
        <time>2019-01-07T03:05:52Z</time>
      </trkpt>
      <trkpt lat="42.39169" lon="2.42682">
        <ele>1585.9</ele>
        <time>2019-01-07T03:05:58Z</time>
      </trkpt>
      <trkpt lat="42.39164" lon="2.42674">
        <ele>1585.4</ele>
        <time>2019-01-07T03:06:01Z</time>
      </trkpt>
      <trkpt lat="42.39162" lon="2.42668">
        <ele>1585.9</ele>
        <time>2019-01-07T03:06:02Z</time>
      </trkpt>
      <trkpt lat="42.39148" lon="2.42656">
        <ele>1584.9</ele>
        <time>2019-01-07T03:06:06Z</time>
      </trkpt>
      <trkpt lat="42.39137" lon="2.42639">
        <ele>1584.9</ele>
        <time>2019-01-07T03:06:11Z</time>
      </trkpt>
      <trkpt lat="42.39122" lon="2.42617">
        <ele>1584.4</ele>
        <time>2019-01-07T03:06:17Z</time>
      </trkpt>
      <trkpt lat="42.39111" lon="2.42602">
        <ele>1583.4</ele>
        <time>2019-01-07T03:06:21Z</time>
      </trkpt>
      <trkpt lat="42.39101" lon="2.4259">
        <ele>1582.6</ele>
        <time>2019-01-07T03:06:24Z</time>
      </trkpt>
      <trkpt lat="42.39094" lon="2.42584">
        <ele>1582.5</ele>
        <time>2019-01-07T03:06:27Z</time>
      </trkpt>
      <trkpt lat="42.39071" lon="2.42564">
        <ele>1581</ele>
        <time>2019-01-07T03:06:34Z</time>
      </trkpt>
      <trkpt lat="42.39059" lon="2.42549">
        <ele>1579.6</ele>
        <time>2019-01-07T03:06:38Z</time>
      </trkpt>
      <trkpt lat="42.39043" lon="2.42536">
        <ele>1579.6</ele>
        <time>2019-01-07T03:06:43Z</time>
      </trkpt>
      <trkpt lat="42.39026" lon="2.42521">
        <ele>1579.6</ele>
        <time>2019-01-07T03:06:49Z</time>
      </trkpt>
      <trkpt lat="42.39017" lon="2.42518">
        <ele>1579.1</ele>
        <time>2019-01-07T03:06:51Z</time>
      </trkpt>
      <trkpt lat="42.39014" lon="2.42518">
        <ele>1578.6</ele>
        <time>2019-01-07T03:06:52Z</time>
      </trkpt>
      <trkpt lat="42.38994" lon="2.42513">
        <ele>1576.7</ele>
        <time>2019-01-07T03:06:57Z</time>
      </trkpt>
      <trkpt lat="42.38988" lon="2.42513">
        <ele>1576.2</ele>
        <time>2019-01-07T03:06:59Z</time>
      </trkpt>
      <trkpt lat="42.38964" lon="2.4251">
        <ele>1574.4</ele>
        <time>2019-01-07T03:07:05Z</time>
      </trkpt>
      <trkpt lat="42.38951" lon="2.42509">
        <ele>1571</ele>
        <time>2019-01-07T03:07:09Z</time>
      </trkpt>
      <trkpt lat="42.38936" lon="2.42508">
        <ele>1569.5</ele>
        <time>2019-01-07T03:07:13Z</time>
      </trkpt>
      <trkpt lat="42.38934" lon="2.42507">
        <ele>1570.6</ele>
        <time>2019-01-07T03:07:14Z</time>
      </trkpt>
      <trkpt lat="42.38924" lon="2.42511">
        <ele>1568.6</ele>
        <time>2019-01-07T03:07:16Z</time>
      </trkpt>
      <trkpt lat="42.38895" lon="2.42516">
        <ele>1565.7</ele>
        <time>2019-01-07T03:07:24Z</time>
      </trkpt>
      <trkpt lat="42.38881" lon="2.42514">
        <ele>1563.3</ele>
        <time>2019-01-07T03:07:28Z</time>
      </trkpt>
      <trkpt lat="42.38865" lon="2.42512">
        <ele>1560.5</ele>
        <time>2019-01-07T03:07:32Z</time>
      </trkpt>
      <trkpt lat="42.38848" lon="2.42513">
        <ele>1557.5</ele>
        <time>2019-01-07T03:07:37Z</time>
      </trkpt>
      <trkpt lat="42.38845" lon="2.42511">
        <ele>1556</ele>
        <time>2019-01-07T03:07:37Z</time>
      </trkpt>
      <trkpt lat="42.38838" lon="2.42508">
        <ele>1555.6</ele>
        <time>2019-01-07T03:07:39Z</time>
      </trkpt>
      <trkpt lat="42.3883" lon="2.42503">
        <ele>1553.7</ele>
        <time>2019-01-07T03:07:42Z</time>
      </trkpt>
      <trkpt lat="42.38815" lon="2.42497">
        <ele>1551.8</ele>
        <time>2019-01-07T03:07:46Z</time>
      </trkpt>
      <trkpt lat="42.3881" lon="2.42493">
        <ele>1548.9</ele>
        <time>2019-01-07T03:07:48Z</time>
      </trkpt>
      <trkpt lat="42.38793" lon="2.42476">
        <ele>1545.6</ele>
        <time>2019-01-07T03:07:53Z</time>
      </trkpt>
      <trkpt lat="42.38788" lon="2.42466">
        <ele>1545.1</ele>
        <time>2019-01-07T03:07:55Z</time>
      </trkpt>
      <trkpt lat="42.38779" lon="2.42451">
        <ele>1542.1</ele>
        <time>2019-01-07T03:07:59Z</time>
      </trkpt>
      <trkpt lat="42.38763" lon="2.42424">
        <ele>1540.7</ele>
        <time>2019-01-07T03:08:06Z</time>
      </trkpt>
      <trkpt lat="42.38752" lon="2.42402">
        <ele>1539.7</ele>
        <time>2019-01-07T03:08:11Z</time>
      </trkpt>
      <trkpt lat="42.38745" lon="2.42395">
        <ele>1539.2</ele>
        <time>2019-01-07T03:08:14Z</time>
      </trkpt>
      <trkpt lat="42.38742" lon="2.4239">
        <ele>1539.2</ele>
        <time>2019-01-07T03:08:15Z</time>
      </trkpt>
      <trkpt lat="42.38727" lon="2.42372">
        <ele>1537.3</ele>
        <time>2019-01-07T03:08:20Z</time>
      </trkpt>
      <trkpt lat="42.38716" lon="2.42357">
        <ele>1536.4</ele>
        <time>2019-01-07T03:08:24Z</time>
      </trkpt>
      <trkpt lat="42.38699" lon="2.42341">
        <ele>1535</ele>
        <time>2019-01-07T03:08:30Z</time>
      </trkpt>
      <trkpt lat="42.38698" lon="2.42339">
        <ele>1535</ele>
        <time>2019-01-07T03:08:30Z</time>
      </trkpt>
      <trkpt lat="42.38692" lon="2.42332">
        <ele>1533.4</ele>
        <time>2019-01-07T03:08:33Z</time>
      </trkpt>
      <trkpt lat="42.38689" lon="2.42329">
        <ele>1533.5</ele>
        <time>2019-01-07T03:08:33Z</time>
      </trkpt>
      <trkpt lat="42.38672" lon="2.42314">
        <ele>1531.5</ele>
        <time>2019-01-07T03:08:39Z</time>
      </trkpt>
      <trkpt lat="42.38665" lon="2.42309">
        <ele>1530.6</ele>
        <time>2019-01-07T03:08:41Z</time>
      </trkpt>
      <trkpt lat="42.38656" lon="2.42293">
        <ele>1530.6</ele>
        <time>2019-01-07T03:08:45Z</time>
      </trkpt>
      <trkpt lat="42.38651" lon="2.4229">
        <ele>1529.6</ele>
        <time>2019-01-07T03:08:46Z</time>
      </trkpt>
      <trkpt lat="42.38648" lon="2.42287">
        <ele>1529.1</ele>
        <time>2019-01-07T03:08:48Z</time>
      </trkpt>
      <trkpt lat="42.38627" lon="2.42271">
        <ele>1528.2</ele>
        <time>2019-01-07T03:08:54Z</time>
      </trkpt>
      <trkpt lat="42.38619" lon="2.42264">
        <ele>1527.2</ele>
        <time>2019-01-07T03:08:56Z</time>
      </trkpt>
      <trkpt lat="42.38612" lon="2.42255">
        <ele>1523.8</ele>
        <time>2019-01-07T03:08:59Z</time>
      </trkpt>
      <trkpt lat="42.38595" lon="2.42249">
        <ele>1523.9</ele>
        <time>2019-01-07T03:09:04Z</time>
      </trkpt>
      <trkpt lat="42.38581" lon="2.42239">
        <ele>1522.9</ele>
        <time>2019-01-07T03:09:08Z</time>
      </trkpt>
      <trkpt lat="42.3858" lon="2.42237">
        <ele>1523.4</ele>
        <time>2019-01-07T03:09:08Z</time>
      </trkpt>
      <trkpt lat="42.38579" lon="2.42235">
        <ele>1523.5</ele>
        <time>2019-01-07T03:09:09Z</time>
      </trkpt>
      <trkpt lat="42.38573" lon="2.4221">
        <ele>1522</ele>
        <time>2019-01-07T03:09:14Z</time>
      </trkpt>
      <trkpt lat="42.38564" lon="2.42191">
        <ele>1518.6</ele>
        <time>2019-01-07T03:09:19Z</time>
      </trkpt>
      <trkpt lat="42.38552" lon="2.42185">
        <ele>1516.6</ele>
        <time>2019-01-07T03:09:22Z</time>
      </trkpt>
      <trkpt lat="42.38541" lon="2.42177">
        <ele>1513.3</ele>
        <time>2019-01-07T03:09:25Z</time>
      </trkpt>
      <trkpt lat="42.38529" lon="2.4217">
        <ele>1511.3</ele>
        <time>2019-01-07T03:09:29Z</time>
      </trkpt>
      <trkpt lat="42.38523" lon="2.42167">
        <ele>1509.5</ele>
        <time>2019-01-07T03:09:30Z</time>
      </trkpt>
      <trkpt lat="42.38511" lon="2.4216">
        <ele>1507.1</ele>
        <time>2019-01-07T03:09:34Z</time>
      </trkpt>
      <trkpt lat="42.38493" lon="2.42148">
        <ele>1502.2</ele>
        <time>2019-01-07T03:09:39Z</time>
      </trkpt>
      <trkpt lat="42.38475" lon="2.4214">
        <ele>1498.5</ele>
        <time>2019-01-07T03:09:44Z</time>
      </trkpt>
      <trkpt lat="42.38473" lon="2.42139">
        <ele>1498.9</ele>
        <time>2019-01-07T03:09:45Z</time>
      </trkpt>
      <trkpt lat="42.3846" lon="2.42135">
        <ele>1495.6</ele>
        <time>2019-01-07T03:09:49Z</time>
      </trkpt>
      <trkpt lat="42.38453" lon="2.42136">
        <ele>1494</ele>
        <time>2019-01-07T03:09:50Z</time>
      </trkpt>
      <trkpt lat="42.38441" lon="2.42136">
        <ele>1490.8</ele>
        <time>2019-01-07T03:09:54Z</time>
      </trkpt>
      <trkpt lat="42.38424" lon="2.42133">
        <ele>1487.3</ele>
        <time>2019-01-07T03:09:58Z</time>
      </trkpt>
      <trkpt lat="42.38412" lon="2.42128">
        <ele>1483.9</ele>
        <time>2019-01-07T03:10:01Z</time>
      </trkpt>
      <trkpt lat="42.3841" lon="2.42128">
        <ele>1484.4</ele>
        <time>2019-01-07T03:10:02Z</time>
      </trkpt>
      <trkpt lat="42.38407" lon="2.42127">
        <ele>1483.1</ele>
        <time>2019-01-07T03:10:03Z</time>
      </trkpt>
      <trkpt lat="42.38398" lon="2.42124">
        <ele>1481.2</ele>
        <time>2019-01-07T03:10:05Z</time>
      </trkpt>
      <trkpt lat="42.38395" lon="2.42124">
        <ele>1479.6</ele>
        <time>2019-01-07T03:10:06Z</time>
      </trkpt>
      <trkpt lat="42.38383" lon="2.42122">
        <ele>1476.2</ele>
        <time>2019-01-07T03:10:09Z</time>
      </trkpt>
      <trkpt lat="42.38381" lon="2.42121">
        <ele>1475.9</ele>
        <time>2019-01-07T03:10:10Z</time>
      </trkpt>
      <trkpt lat="42.38363" lon="2.42118">
        <ele>1472</ele>
        <time>2019-01-07T03:10:15Z</time>
      </trkpt>
      <trkpt lat="42.3834" lon="2.42115">
        <ele>1469.1</ele>
        <time>2019-01-07T03:10:21Z</time>
      </trkpt>
      <trkpt lat="42.38331" lon="2.42114">
        <ele>1468.2</ele>
        <time>2019-01-07T03:10:23Z</time>
      </trkpt>
      <trkpt lat="42.38324" lon="2.42111">
        <ele>1466.6</ele>
        <time>2019-01-07T03:10:25Z</time>
      </trkpt>
      <trkpt lat="42.38316" lon="2.42108">
        <ele>1464.7</ele>
        <time>2019-01-07T03:10:27Z</time>
      </trkpt>
      <trkpt lat="42.38311" lon="2.42107">
        <ele>1463.3</ele>
        <time>2019-01-07T03:10:29Z</time>
      </trkpt>
      <trkpt lat="42.38309" lon="2.42106">
        <ele>1462.8</ele>
        <time>2019-01-07T03:10:29Z</time>
      </trkpt>
      <trkpt lat="42.38303" lon="2.421">
        <ele>1459.5</ele>
        <time>2019-01-07T03:10:31Z</time>
      </trkpt>
      <trkpt lat="42.38302" lon="2.42098">
        <ele>1459</ele>
        <time>2019-01-07T03:10:32Z</time>
      </trkpt>
      <trkpt lat="42.38297" lon="2.42091">
        <ele>1458</ele>
        <time>2019-01-07T03:10:34Z</time>
      </trkpt>
      <trkpt lat="42.38292" lon="2.42083">
        <ele>1455.1</ele>
        <time>2019-01-07T03:10:36Z</time>
      </trkpt>
      <trkpt lat="42.3829" lon="2.4208">
        <ele>1454.2</ele>
        <time>2019-01-07T03:10:37Z</time>
      </trkpt>
      <trkpt lat="42.38276" lon="2.42068">
        <ele>1450.4</ele>
        <time>2019-01-07T03:10:41Z</time>
      </trkpt>
      <trkpt lat="42.38267" lon="2.42059">
        <ele>1446.4</ele>
        <time>2019-01-07T03:10:44Z</time>
      </trkpt>
      <trkpt lat="42.38265" lon="2.42058">
        <ele>1447.5</ele>
        <time>2019-01-07T03:10:44Z</time>
      </trkpt>
      <trkpt lat="42.3825" lon="2.42056">
        <ele>1442.1</ele>
        <time>2019-01-07T03:10:49Z</time>
      </trkpt>
      <trkpt lat="42.38248" lon="2.42056">
        <ele>1443.6</ele>
        <time>2019-01-07T03:10:49Z</time>
      </trkpt>
      <trkpt lat="42.3824" lon="2.42064">
        <ele>1440.8</ele>
        <time>2019-01-07T03:10:52Z</time>
      </trkpt>
      <trkpt lat="42.38242" lon="2.42083">
        <ele>1438.3</ele>
        <time>2019-01-07T03:10:55Z</time>
      </trkpt>
      <trkpt lat="42.38241" lon="2.42085">
        <ele>1436.8</ele>
        <time>2019-01-07T03:10:56Z</time>
      </trkpt>
      <trkpt lat="42.38238" lon="2.42085">
        <ele>1436.4</ele>
        <time>2019-01-07T03:10:57Z</time>
      </trkpt>
      <trkpt lat="42.38231" lon="2.42079">
        <ele>1433.6</ele>
        <time>2019-01-07T03:10:59Z</time>
      </trkpt>
      <trkpt lat="42.38224" lon="2.42074">
        <ele>1433.1</ele>
        <time>2019-01-07T03:11:01Z</time>
      </trkpt>
      <trkpt lat="42.38216" lon="2.42062">
        <ele>1431.6</ele>
        <time>2019-01-07T03:11:04Z</time>
      </trkpt>
      <trkpt lat="42.38213" lon="2.42059">
        <ele>1430.1</ele>
        <time>2019-01-07T03:11:05Z</time>
      </trkpt>
      <trkpt lat="42.38209" lon="2.42052">
        <ele>1428.8</ele>
        <time>2019-01-07T03:11:07Z</time>
      </trkpt>
      <trkpt lat="42.38199" lon="2.42039">
        <ele>1426.7</ele>
        <time>2019-01-07T03:11:11Z</time>
      </trkpt>
      <trkpt lat="42.382" lon="2.42022">
        <ele>1422.9</ele>
        <time>2019-01-07T03:11:14Z</time>
      </trkpt>
      <trkpt lat="42.38201" lon="2.42015">
        <ele>1422.9</ele>
        <time>2019-01-07T03:11:16Z</time>
      </trkpt>
      <trkpt lat="42.38208" lon="2.42003">
        <ele>1421.6</ele>
        <time>2019-01-07T03:11:18Z</time>
      </trkpt>
      <trkpt lat="42.38217" lon="2.41994">
        <ele>1418.7</ele>
        <time>2019-01-07T03:11:21Z</time>
      </trkpt>
      <trkpt lat="42.38211" lon="2.41988">
        <ele>1417.1</ele>
        <time>2019-01-07T03:11:24Z</time>
      </trkpt>
      <trkpt lat="42.3819" lon="2.41981">
        <ele>1413.4</ele>
        <time>2019-01-07T03:11:29Z</time>
      </trkpt>
      <trkpt lat="42.38188" lon="2.4198">
        <ele>1413.3</ele>
        <time>2019-01-07T03:11:30Z</time>
      </trkpt>
      <trkpt lat="42.38171" lon="2.41974">
        <ele>1409.9</ele>
        <time>2019-01-07T03:11:35Z</time>
      </trkpt>
      <trkpt lat="42.38169" lon="2.41973">
        <ele>1409.5</ele>
        <time>2019-01-07T03:11:35Z</time>
      </trkpt>
      <trkpt lat="42.38167" lon="2.41972">
        <ele>1410</ele>
        <time>2019-01-07T03:11:36Z</time>
      </trkpt>
      <trkpt lat="42.38157" lon="2.41975">
        <ele>1408</ele>
        <time>2019-01-07T03:11:38Z</time>
      </trkpt>
      <trkpt lat="42.3814" lon="2.41992">
        <ele>1406.1</ele>
        <time>2019-01-07T03:11:44Z</time>
      </trkpt>
      <trkpt lat="42.38134" lon="2.41996">
        <ele>1403.3</ele>
        <time>2019-01-07T03:11:46Z</time>
      </trkpt>
      <trkpt lat="42.38126" lon="2.42001">
        <ele>1402.2</ele>
        <time>2019-01-07T03:11:48Z</time>
      </trkpt>
      <trkpt lat="42.38111" lon="2.41998">
        <ele>1400.9</ele>
        <time>2019-01-07T03:11:52Z</time>
      </trkpt>
      <trkpt lat="42.38096" lon="2.4199">
        <ele>1398.4</ele>
        <time>2019-01-07T03:11:57Z</time>
      </trkpt>
      <trkpt lat="42.38091" lon="2.41986">
        <ele>1397</ele>
        <time>2019-01-07T03:11:58Z</time>
      </trkpt>
      <trkpt lat="42.38084" lon="2.4198">
        <ele>1395.5</ele>
        <time>2019-01-07T03:12:00Z</time>
      </trkpt>
      <trkpt lat="42.38063" lon="2.41969">
        <ele>1394.1</ele>
        <time>2019-01-07T03:12:06Z</time>
      </trkpt>
      <trkpt lat="42.38042" lon="2.41959">
        <ele>1392.1</ele>
        <time>2019-01-07T03:12:12Z</time>
      </trkpt>
      <trkpt lat="42.38039" lon="2.41943">
        <ele>1390.2</ele>
        <time>2019-01-07T03:12:16Z</time>
      </trkpt>
      <trkpt lat="42.38041" lon="2.41939">
        <ele>1389.2</ele>
        <time>2019-01-07T03:12:17Z</time>
      </trkpt>
      <trkpt lat="42.38045" lon="2.41935">
        <ele>1388.3</ele>
        <time>2019-01-07T03:12:18Z</time>
      </trkpt>
      <trkpt lat="42.38064" lon="2.4192">
        <ele>1385.5</ele>
        <time>2019-01-07T03:12:24Z</time>
      </trkpt>
      <trkpt lat="42.38067" lon="2.41916">
        <ele>1385</ele>
        <time>2019-01-07T03:12:25Z</time>
      </trkpt>
      <trkpt lat="42.38068" lon="2.41914">
        <ele>1386.4</ele>
        <time>2019-01-07T03:12:25Z</time>
      </trkpt>
      <trkpt lat="42.38074" lon="2.41904">
        <ele>1384.1</ele>
        <time>2019-01-07T03:12:28Z</time>
      </trkpt>
      <trkpt lat="42.38085" lon="2.41901">
        <ele>1383</ele>
        <time>2019-01-07T03:12:31Z</time>
      </trkpt>
      <trkpt lat="42.38093" lon="2.41873">
        <ele>1380.2</ele>
        <time>2019-01-07T03:12:37Z</time>
      </trkpt>
      <trkpt lat="42.38095" lon="2.41865">
        <ele>1381.1</ele>
        <time>2019-01-07T03:12:38Z</time>
      </trkpt>
      <trkpt lat="42.38095" lon="2.41861">
        <ele>1378.2</ele>
        <time>2019-01-07T03:12:39Z</time>
      </trkpt>
      <trkpt lat="42.38096" lon="2.41856">
        <ele>1377.7</ele>
        <time>2019-01-07T03:12:40Z</time>
      </trkpt>
      <trkpt lat="42.38097" lon="2.41849">
        <ele>1377.2</ele>
        <time>2019-01-07T03:12:42Z</time>
      </trkpt>
      <trkpt lat="42.38095" lon="2.41847">
        <ele>1376.8</ele>
        <time>2019-01-07T03:12:42Z</time>
      </trkpt>
      <trkpt lat="42.38091" lon="2.41845">
        <ele>1376.9</ele>
        <time>2019-01-07T03:12:44Z</time>
      </trkpt>
      <trkpt lat="42.38085" lon="2.41848">
        <ele>1378.3</ele>
        <time>2019-01-07T03:12:45Z</time>
      </trkpt>
      <trkpt lat="42.38084" lon="2.41849">
        <ele>1378.3</ele>
        <time>2019-01-07T03:12:45Z</time>
      </trkpt>
      <trkpt lat="42.38074" lon="2.41856">
        <ele>1378.3</ele>
        <time>2019-01-07T03:12:48Z</time>
      </trkpt>
      <trkpt lat="42.38069" lon="2.41861">
        <ele>1377.3</ele>
        <time>2019-01-07T03:12:50Z</time>
      </trkpt>
      <trkpt lat="42.38063" lon="2.41865">
        <ele>1376.9</ele>
        <time>2019-01-07T03:12:52Z</time>
      </trkpt>
      <trkpt lat="42.38055" lon="2.41872">
        <ele>1377.7</ele>
        <time>2019-01-07T03:12:54Z</time>
      </trkpt>
      <trkpt lat="42.38037" lon="2.41878">
        <ele>1377.7</ele>
        <time>2019-01-07T03:13:00Z</time>
      </trkpt>
      <trkpt lat="42.38019" lon="2.41885">
        <ele>1377.8</ele>
        <time>2019-01-07T03:13:05Z</time>
      </trkpt>
      <trkpt lat="42.37999" lon="2.41887">
        <ele>1378.2</ele>
        <time>2019-01-07T03:13:10Z</time>
      </trkpt>
      <trkpt lat="42.3797" lon="2.41885">
        <ele>1377.7</ele>
        <time>2019-01-07T03:13:18Z</time>
      </trkpt>
      <trkpt lat="42.37953" lon="2.41884">
        <ele>1378.7</ele>
        <time>2019-01-07T03:13:22Z</time>
      </trkpt>
      <trkpt lat="42.37943" lon="2.41883">
        <ele>1379.3</ele>
        <time>2019-01-07T03:13:25Z</time>
      </trkpt>
      <trkpt lat="42.37934" lon="2.41883">
        <ele>1379.7</ele>
        <time>2019-01-07T03:13:27Z</time>
      </trkpt>
      <trkpt lat="42.3793" lon="2.41884">
        <ele>1379.7</ele>
        <time>2019-01-07T03:13:28Z</time>
      </trkpt>
      <trkpt lat="42.37912" lon="2.41885">
        <ele>1379.7</ele>
        <time>2019-01-07T03:13:33Z</time>
      </trkpt>
      <trkpt lat="42.37898" lon="2.41886">
        <ele>1380.6</ele>
        <time>2019-01-07T03:13:37Z</time>
      </trkpt>
      <trkpt lat="42.37894" lon="2.41886">
        <ele>1380.7</ele>
        <time>2019-01-07T03:13:38Z</time>
      </trkpt>
      <trkpt lat="42.37889" lon="2.41887">
        <ele>1380.6</ele>
        <time>2019-01-07T03:13:39Z</time>
      </trkpt>
      <trkpt lat="42.37883" lon="2.41888">
        <ele>1380.6</ele>
        <time>2019-01-07T03:13:41Z</time>
      </trkpt>
      <trkpt lat="42.37877" lon="2.41889">
        <ele>1381.1</ele>
        <time>2019-01-07T03:13:42Z</time>
      </trkpt>
      <trkpt lat="42.37862" lon="2.41894">
        <ele>1381.6</ele>
        <time>2019-01-07T03:13:47Z</time>
      </trkpt>
      <trkpt lat="42.37855" lon="2.41878">
        <ele>1380.1</ele>
        <time>2019-01-07T03:13:50Z</time>
      </trkpt>
      <trkpt lat="42.37848" lon="2.41856">
        <ele>1380.6</ele>
        <time>2019-01-07T03:13:55Z</time>
      </trkpt>
      <trkpt lat="42.37841" lon="2.41832">
        <ele>1381.7</ele>
        <time>2019-01-07T03:14:00Z</time>
      </trkpt>
      <trkpt lat="42.37838" lon="2.41815">
        <ele>1382.6</ele>
        <time>2019-01-07T03:14:03Z</time>
      </trkpt>
      <trkpt lat="42.37832" lon="2.41789">
        <ele>1384.1</ele>
        <time>2019-01-07T03:14:09Z</time>
      </trkpt>
      <trkpt lat="42.37815" lon="2.41774">
        <ele>1383</ele>
        <time>2019-01-07T03:14:14Z</time>
      </trkpt>
      <trkpt lat="42.37796" lon="2.41756">
        <ele>1385</ele>
        <time>2019-01-07T03:14:20Z</time>
      </trkpt>
      <trkpt lat="42.37786" lon="2.41731">
        <ele>1386.4</ele>
        <time>2019-01-07T03:14:26Z</time>
      </trkpt>
      <trkpt lat="42.37784" lon="2.41716">
        <ele>1386.8</ele>
        <time>2019-01-07T03:14:29Z</time>
      </trkpt>
      <trkpt lat="42.37782" lon="2.41703">
        <ele>1386.4</ele>
        <time>2019-01-07T03:14:31Z</time>
      </trkpt>
      <trkpt lat="42.37778" lon="2.41688">
        <ele>1386.4</ele>
        <time>2019-01-07T03:14:35Z</time>
      </trkpt>
      <trkpt lat="42.37785" lon="2.41659">
        <ele>1387.3</ele>
        <time>2019-01-07T03:14:41Z</time>
      </trkpt>
      <trkpt lat="42.37787" lon="2.41646">
        <ele>1387.3</ele>
        <time>2019-01-07T03:14:43Z</time>
      </trkpt>
      <trkpt lat="42.37781" lon="2.41634">
        <ele>1386.8</ele>
        <time>2019-01-07T03:14:46Z</time>
      </trkpt>
      <trkpt lat="42.37761" lon="2.41629">
        <ele>1384.9</ele>
        <time>2019-01-07T03:14:52Z</time>
      </trkpt>
      <trkpt lat="42.37754" lon="2.41618">
        <ele>1387.3</ele>
        <time>2019-01-07T03:14:54Z</time>
      </trkpt>
      <trkpt lat="42.37736" lon="2.41596">
        <ele>1387.8</ele>
        <time>2019-01-07T03:15:01Z</time>
      </trkpt>
      <trkpt lat="42.37734" lon="2.41591">
        <ele>1387.8</ele>
        <time>2019-01-07T03:15:02Z</time>
      </trkpt>
      <trkpt lat="42.37731" lon="2.41579">
        <ele>1388.4</ele>
        <time>2019-01-07T03:15:05Z</time>
      </trkpt>
      <trkpt lat="42.37728" lon="2.41574">
        <ele>1388.9</ele>
        <time>2019-01-07T03:15:06Z</time>
      </trkpt>
      <trkpt lat="42.37727" lon="2.41567">
        <ele>1388.8</ele>
        <time>2019-01-07T03:15:07Z</time>
      </trkpt>
      <trkpt lat="42.37729" lon="2.41562">
        <ele>1389.2</ele>
        <time>2019-01-07T03:15:08Z</time>
      </trkpt>
      <trkpt lat="42.37733" lon="2.41561">
        <ele>1389.3</ele>
        <time>2019-01-07T03:15:10Z</time>
      </trkpt>
      <trkpt lat="42.37732" lon="2.41554">
        <ele>1390.7</ele>
        <time>2019-01-07T03:15:11Z</time>
      </trkpt>
      <trkpt lat="42.37726" lon="2.41544">
        <ele>1391.7</ele>
        <time>2019-01-07T03:15:14Z</time>
      </trkpt>
      <trkpt lat="42.37716" lon="2.41529">
        <ele>1392.1</ele>
        <time>2019-01-07T03:15:18Z</time>
      </trkpt>
      <trkpt lat="42.37701" lon="2.41494">
        <ele>1392.7</ele>
        <time>2019-01-07T03:15:26Z</time>
      </trkpt>
      <trkpt lat="42.37696" lon="2.41471">
        <ele>1393.2</ele>
        <time>2019-01-07T03:15:30Z</time>
      </trkpt>
      <trkpt lat="42.37695" lon="2.41465">
        <ele>1394.2</ele>
        <time>2019-01-07T03:15:32Z</time>
      </trkpt>
      <trkpt lat="42.37692" lon="2.41424">
        <ele>1395.5</ele>
        <time>2019-01-07T03:15:40Z</time>
      </trkpt>
      <trkpt lat="42.37686" lon="2.41392">
        <ele>1395</ele>
        <time>2019-01-07T03:15:46Z</time>
      </trkpt>
      <trkpt lat="42.37691" lon="2.41358">
        <ele>1395</ele>
        <time>2019-01-07T03:15:53Z</time>
      </trkpt>
      <trkpt lat="42.37696" lon="2.41344">
        <ele>1392.6</ele>
        <time>2019-01-07T03:15:56Z</time>
      </trkpt>
      <trkpt lat="42.37699" lon="2.41341">
        <ele>1393.2</ele>
        <time>2019-01-07T03:15:57Z</time>
      </trkpt>
      <trkpt lat="42.37705" lon="2.41334">
        <ele>1393.1</ele>
        <time>2019-01-07T03:15:59Z</time>
      </trkpt>
      <trkpt lat="42.37706" lon="2.41328">
        <ele>1393.1</ele>
        <time>2019-01-07T03:16:00Z</time>
      </trkpt>
      <trkpt lat="42.37692" lon="2.41315">
        <ele>1394.1</ele>
        <time>2019-01-07T03:16:05Z</time>
      </trkpt>
      <trkpt lat="42.37686" lon="2.41312">
        <ele>1394.6</ele>
        <time>2019-01-07T03:16:06Z</time>
      </trkpt>
      <trkpt lat="42.37665" lon="2.41308">
        <ele>1393.2</ele>
        <time>2019-01-07T03:16:12Z</time>
      </trkpt>
      <trkpt lat="42.37655" lon="2.41307">
        <ele>1392.7</ele>
        <time>2019-01-07T03:16:15Z</time>
      </trkpt>
      <trkpt lat="42.37637" lon="2.41306">
        <ele>1391.2</ele>
        <time>2019-01-07T03:16:19Z</time>
      </trkpt>
      <trkpt lat="42.37608" lon="2.41303">
        <ele>1390.3</ele>
        <time>2019-01-07T03:16:27Z</time>
      </trkpt>
      <trkpt lat="42.3759" lon="2.41293">
        <ele>1388.3</ele>
        <time>2019-01-07T03:16:33Z</time>
      </trkpt>
      <trkpt lat="42.3757" lon="2.41276">
        <ele>1388.3</ele>
        <time>2019-01-07T03:16:39Z</time>
      </trkpt>
      <trkpt lat="42.37552" lon="2.41258">
        <ele>1387.3</ele>
        <time>2019-01-07T03:16:45Z</time>
      </trkpt>
      <trkpt lat="42.37545" lon="2.41251">
        <ele>1387.8</ele>
        <time>2019-01-07T03:16:47Z</time>
      </trkpt>
      <trkpt lat="42.37539" lon="2.41244">
        <ele>1386.8</ele>
        <time>2019-01-07T03:16:49Z</time>
      </trkpt>
      <trkpt lat="42.37518" lon="2.41217">
        <ele>1386.8</ele>
        <time>2019-01-07T03:16:57Z</time>
      </trkpt>
      <trkpt lat="42.375" lon="2.41189">
        <ele>1386.8</ele>
        <time>2019-01-07T03:17:04Z</time>
      </trkpt>
      <trkpt lat="42.37487" lon="2.41161">
        <ele>1385.4</ele>
        <time>2019-01-07T03:17:11Z</time>
      </trkpt>
      <trkpt lat="42.37485" lon="2.41129">
        <ele>1384</ele>
        <time>2019-01-07T03:17:17Z</time>
      </trkpt>
      <trkpt lat="42.37486" lon="2.41091">
        <ele>1383.5</ele>
        <time>2019-01-07T03:17:25Z</time>
      </trkpt>
      <trkpt lat="42.37487" lon="2.41056">
        <ele>1384</ele>
        <time>2019-01-07T03:17:32Z</time>
      </trkpt>
      <trkpt lat="42.37475" lon="2.41034">
        <ele>1383</ele>
        <time>2019-01-07T03:17:37Z</time>
      </trkpt>
      <trkpt lat="42.37457" lon="2.41008">
        <ele>1383.5</ele>
        <time>2019-01-07T03:17:44Z</time>
      </trkpt>
      <trkpt lat="42.3744" lon="2.40977">
        <ele>1386</ele>
        <time>2019-01-07T03:17:52Z</time>
      </trkpt>
      <trkpt lat="42.37428" lon="2.40959">
        <ele>1387.4</ele>
        <time>2019-01-07T03:17:56Z</time>
      </trkpt>
      <trkpt lat="42.37416" lon="2.40943">
        <ele>1389.8</ele>
        <time>2019-01-07T03:18:01Z</time>
      </trkpt>
      <trkpt lat="42.37403" lon="2.40932">
        <ele>1392.7</ele>
        <time>2019-01-07T03:18:05Z</time>
      </trkpt>
      <trkpt lat="42.37386" lon="2.40924">
        <ele>1394.6</ele>
        <time>2019-01-07T03:18:10Z</time>
      </trkpt>
      <trkpt lat="42.37379" lon="2.40916">
        <ele>1394.5</ele>
        <time>2019-01-07T03:18:12Z</time>
      </trkpt>
      <trkpt lat="42.37372" lon="2.40891">
        <ele>1397.4</ele>
        <time>2019-01-07T03:18:17Z</time>
      </trkpt>
      <trkpt lat="42.37366" lon="2.4086">
        <ele>1399.4</ele>
        <time>2019-01-07T03:18:24Z</time>
      </trkpt>
      <trkpt lat="42.37365" lon="2.40855">
        <ele>1399.9</ele>
        <time>2019-01-07T03:18:25Z</time>
      </trkpt>
      <trkpt lat="42.37367" lon="2.40832">
        <ele>1401.3</ele>
        <time>2019-01-07T03:18:29Z</time>
      </trkpt>
      <trkpt lat="42.3737" lon="2.40817">
        <ele>1402.7</ele>
        <time>2019-01-07T03:18:32Z</time>
      </trkpt>
      <trkpt lat="42.3737" lon="2.40814">
        <ele>1403.3</ele>
        <time>2019-01-07T03:18:33Z</time>
      </trkpt>
      <trkpt lat="42.37374" lon="2.40787">
        <ele>1403.7</ele>
        <time>2019-01-07T03:18:38Z</time>
      </trkpt>
      <trkpt lat="42.37377" lon="2.40773">
        <ele>1403.2</ele>
        <time>2019-01-07T03:18:41Z</time>
      </trkpt>
      <trkpt lat="42.37379" lon="2.40765">
        <ele>1402.7</ele>
        <time>2019-01-07T03:18:43Z</time>
      </trkpt>
      <trkpt lat="42.37387" lon="2.40731">
        <ele>1402.8</ele>
        <time>2019-01-07T03:18:50Z</time>
      </trkpt>
      <trkpt lat="42.37393" lon="2.40708">
        <ele>1399.4</ele>
        <time>2019-01-07T03:18:55Z</time>
      </trkpt>
      <trkpt lat="42.37393" lon="2.40705">
        <ele>1399.9</ele>
        <time>2019-01-07T03:18:55Z</time>
      </trkpt>
      <trkpt lat="42.37396" lon="2.40689">
        <ele>1397.9</ele>
        <time>2019-01-07T03:18:59Z</time>
      </trkpt>
      <trkpt lat="42.37398" lon="2.40683">
        <ele>1396</ele>
        <time>2019-01-07T03:19:00Z</time>
      </trkpt>
      <trkpt lat="42.37402" lon="2.40667">
        <ele>1394.5</ele>
        <time>2019-01-07T03:19:03Z</time>
      </trkpt>
      <trkpt lat="42.37407" lon="2.40641">
        <ele>1390.2</ele>
        <time>2019-01-07T03:19:08Z</time>
      </trkpt>
      <trkpt lat="42.37407" lon="2.40638">
        <ele>1391.2</ele>
        <time>2019-01-07T03:19:09Z</time>
      </trkpt>
      <trkpt lat="42.3741" lon="2.4062">
        <ele>1388.4</ele>
        <time>2019-01-07T03:19:13Z</time>
      </trkpt>
      <trkpt lat="42.37412" lon="2.40612">
        <ele>1386.5</ele>
        <time>2019-01-07T03:19:14Z</time>
      </trkpt>
      <trkpt lat="42.37416" lon="2.40595">
        <ele>1383.1</ele>
        <time>2019-01-07T03:19:18Z</time>
      </trkpt>
      <trkpt lat="42.37423" lon="2.40577">
        <ele>1379.2</ele>
        <time>2019-01-07T03:19:22Z</time>
      </trkpt>
      <trkpt lat="42.37428" lon="2.40566">
        <ele>1378.8</ele>
        <time>2019-01-07T03:19:25Z</time>
      </trkpt>
      <trkpt lat="42.37431" lon="2.4056">
        <ele>1377.8</ele>
        <time>2019-01-07T03:19:26Z</time>
      </trkpt>
      <trkpt lat="42.37437" lon="2.40548">
        <ele>1374.4</ele>
        <time>2019-01-07T03:19:29Z</time>
      </trkpt>
      <trkpt lat="42.37439" lon="2.40545">
        <ele>1373.9</ele>
        <time>2019-01-07T03:19:30Z</time>
      </trkpt>
      <trkpt lat="42.37448" lon="2.40533">
        <ele>1373.4</ele>
        <time>2019-01-07T03:19:33Z</time>
      </trkpt>
      <trkpt lat="42.37452" lon="2.4053">
        <ele>1372.4</ele>
        <time>2019-01-07T03:19:34Z</time>
      </trkpt>
      <trkpt lat="42.37462" lon="2.40518">
        <ele>1369.6</ele>
        <time>2019-01-07T03:19:38Z</time>
      </trkpt>
      <trkpt lat="42.37464" lon="2.40515">
        <ele>1369.5</ele>
        <time>2019-01-07T03:19:39Z</time>
      </trkpt>
      <trkpt lat="42.37477" lon="2.40501">
        <ele>1366.3</ele>
        <time>2019-01-07T03:19:43Z</time>
      </trkpt>
      <trkpt lat="42.37492" lon="2.40487">
        <ele>1362.8</ele>
        <time>2019-01-07T03:19:48Z</time>
      </trkpt>
      <trkpt lat="42.37507" lon="2.40476">
        <ele>1361.4</ele>
        <time>2019-01-07T03:19:52Z</time>
      </trkpt>
      <trkpt lat="42.37521" lon="2.40462">
        <ele>1357.6</ele>
        <time>2019-01-07T03:19:57Z</time>
      </trkpt>
      <trkpt lat="42.37523" lon="2.4046">
        <ele>1357.5</ele>
        <time>2019-01-07T03:19:58Z</time>
      </trkpt>
      <trkpt lat="42.37537" lon="2.40448">
        <ele>1354.7</ele>
        <time>2019-01-07T03:20:02Z</time>
      </trkpt>
      <trkpt lat="42.3755" lon="2.40436">
        <ele>1351.4</ele>
        <time>2019-01-07T03:20:06Z</time>
      </trkpt>
      <trkpt lat="42.37572" lon="2.40416">
        <ele>1347.9</ele>
        <time>2019-01-07T03:20:13Z</time>
      </trkpt>
      <trkpt lat="42.37594" lon="2.40401">
        <ele>1344.1</ele>
        <time>2019-01-07T03:20:20Z</time>
      </trkpt>
      <trkpt lat="42.37596" lon="2.40399">
        <ele>1344.6</ele>
        <time>2019-01-07T03:20:21Z</time>
      </trkpt>
      <trkpt lat="42.37609" lon="2.40393">
        <ele>1341.3</ele>
        <time>2019-01-07T03:20:24Z</time>
      </trkpt>
      <trkpt lat="42.37623" lon="2.40386">
        <ele>1337.4</ele>
        <time>2019-01-07T03:20:28Z</time>
      </trkpt>
      <trkpt lat="42.37633" lon="2.40383">
        <ele>1336.9</ele>
        <time>2019-01-07T03:20:31Z</time>
      </trkpt>
      <trkpt lat="42.37637" lon="2.40385">
        <ele>1334.5</ele>
        <time>2019-01-07T03:20:32Z</time>
      </trkpt>
      <trkpt lat="42.37644" lon="2.40393">
        <ele>1331.6</ele>
        <time>2019-01-07T03:20:35Z</time>
      </trkpt>
      <trkpt lat="42.37652" lon="2.40409">
        <ele>1328.2</ele>
        <time>2019-01-07T03:20:38Z</time>
      </trkpt>
      <trkpt lat="42.37675" lon="2.40425">
        <ele>1324.5</ele>
        <time>2019-01-07T03:20:45Z</time>
      </trkpt>
      <trkpt lat="42.37678" lon="2.40426">
        <ele>1324.4</ele>
        <time>2019-01-07T03:20:46Z</time>
      </trkpt>
      <trkpt lat="42.37704" lon="2.4044">
        <ele>1321.5</ele>
        <time>2019-01-07T03:20:54Z</time>
      </trkpt>
      <trkpt lat="42.3771" lon="2.40446">
        <ele>1320</ele>
        <time>2019-01-07T03:20:56Z</time>
      </trkpt>
      <trkpt lat="42.37718" lon="2.40457">
        <ele>1317.7</ele>
        <time>2019-01-07T03:20:59Z</time>
      </trkpt>
      <trkpt lat="42.37721" lon="2.40461">
        <ele>1316.3</ele>
        <time>2019-01-07T03:21:00Z</time>
      </trkpt>
      <trkpt lat="42.37723" lon="2.40463">
        <ele>1316.3</ele>
        <time>2019-01-07T03:21:00Z</time>
      </trkpt>
      <trkpt lat="42.37731" lon="2.40475">
        <ele>1312.9</ele>
        <time>2019-01-07T03:21:04Z</time>
      </trkpt>
      <trkpt lat="42.37738" lon="2.4047">
        <ele>1313.8</ele>
        <time>2019-01-07T03:21:06Z</time>
      </trkpt>
      <trkpt lat="42.37741" lon="2.40466">
        <ele>1312.4</ele>
        <time>2019-01-07T03:21:07Z</time>
      </trkpt>
      <trkpt lat="42.37747" lon="2.40457">
        <ele>1309.5</ele>
        <time>2019-01-07T03:21:09Z</time>
      </trkpt>
      <trkpt lat="42.37753" lon="2.40447">
        <ele>1308.5</ele>
        <time>2019-01-07T03:21:12Z</time>
      </trkpt>
      <trkpt lat="42.3776" lon="2.40436">
        <ele>1305.6</ele>
        <time>2019-01-07T03:21:15Z</time>
      </trkpt>
      <trkpt lat="42.37775" lon="2.40416">
        <ele>1303.2</ele>
        <time>2019-01-07T03:21:20Z</time>
      </trkpt>
      <trkpt lat="42.37789" lon="2.40401">
        <ele>1301.3</ele>
        <time>2019-01-07T03:21:25Z</time>
      </trkpt>
      <trkpt lat="42.37792" lon="2.40398">
        <ele>1299.5</ele>
        <time>2019-01-07T03:21:26Z</time>
      </trkpt>
      <trkpt lat="42.37803" lon="2.40386">
        <ele>1297.4</ele>
        <time>2019-01-07T03:21:30Z</time>
      </trkpt>
      <trkpt lat="42.3781" lon="2.40377">
        <ele>1293.6</ele>
        <time>2019-01-07T03:21:32Z</time>
      </trkpt>
      <trkpt lat="42.37815" lon="2.40368">
        <ele>1293.2</ele>
        <time>2019-01-07T03:21:35Z</time>
      </trkpt>
      <trkpt lat="42.37825" lon="2.4036">
        <ele>1288.4</ele>
        <time>2019-01-07T03:21:38Z</time>
      </trkpt>
      <trkpt lat="42.37827" lon="2.4036">
        <ele>1289.3</ele>
        <time>2019-01-07T03:21:38Z</time>
      </trkpt>
      <trkpt lat="42.37836" lon="2.40357">
        <ele>1286.9</ele>
        <time>2019-01-07T03:21:41Z</time>
      </trkpt>
      <trkpt lat="42.37838" lon="2.40355">
        <ele>1286.9</ele>
        <time>2019-01-07T03:21:41Z</time>
      </trkpt>
      <trkpt lat="42.37843" lon="2.40342">
        <ele>1284.9</ele>
        <time>2019-01-07T03:21:44Z</time>
      </trkpt>
      <trkpt lat="42.37844" lon="2.40334">
        <ele>1284.9</ele>
        <time>2019-01-07T03:21:46Z</time>
      </trkpt>
      <trkpt lat="42.37844" lon="2.40329">
        <ele>1284</ele>
        <time>2019-01-07T03:21:47Z</time>
      </trkpt>
      <trkpt lat="42.37844" lon="2.40322">
        <ele>1283</ele>
        <time>2019-01-07T03:21:48Z</time>
      </trkpt>
      <trkpt lat="42.37845" lon="2.40317">
        <ele>1282.1</ele>
        <time>2019-01-07T03:21:49Z</time>
      </trkpt>
      <trkpt lat="42.37846" lon="2.40311">
        <ele>1281.2</ele>
        <time>2019-01-07T03:21:50Z</time>
      </trkpt>
      <trkpt lat="42.3785" lon="2.40291">
        <ele>1276.8</ele>
        <time>2019-01-07T03:21:55Z</time>
      </trkpt>
      <trkpt lat="42.37851" lon="2.40287">
        <ele>1277.3</ele>
        <time>2019-01-07T03:21:55Z</time>
      </trkpt>
      <trkpt lat="42.37848" lon="2.40251">
        <ele>1274</ele>
        <time>2019-01-07T03:22:02Z</time>
      </trkpt>
      <trkpt lat="42.37848" lon="2.40227">
        <ele>1270.5</ele>
        <time>2019-01-07T03:22:07Z</time>
      </trkpt>
      <trkpt lat="42.37849" lon="2.40224">
        <ele>1270.6</ele>
        <time>2019-01-07T03:22:08Z</time>
      </trkpt>
      <trkpt lat="42.37858" lon="2.40218">
        <ele>1268.2</ele>
        <time>2019-01-07T03:22:10Z</time>
      </trkpt>
      <trkpt lat="42.37872" lon="2.40213">
        <ele>1265.2</ele>
        <time>2019-01-07T03:22:14Z</time>
      </trkpt>
      <trkpt lat="42.37876" lon="2.40211">
        <ele>1264.3</ele>
        <time>2019-01-07T03:22:16Z</time>
      </trkpt>
      <trkpt lat="42.37885" lon="2.40206">
        <ele>1261.4</ele>
        <time>2019-01-07T03:22:18Z</time>
      </trkpt>
      <trkpt lat="42.37904" lon="2.40207">
        <ele>1258.6</ele>
        <time>2019-01-07T03:22:23Z</time>
      </trkpt>
      <trkpt lat="42.37923" lon="2.40204">
        <ele>1256.1</ele>
        <time>2019-01-07T03:22:28Z</time>
      </trkpt>
      <trkpt lat="42.37928" lon="2.40203">
        <ele>1254.8</ele>
        <time>2019-01-07T03:22:30Z</time>
      </trkpt>
      <trkpt lat="42.37934" lon="2.40203">
        <ele>1252.8</ele>
        <time>2019-01-07T03:22:31Z</time>
      </trkpt>
      <trkpt lat="42.37949" lon="2.40207">
        <ele>1249.5</ele>
        <time>2019-01-07T03:22:35Z</time>
      </trkpt>
      <trkpt lat="42.3795" lon="2.40208">
        <ele>1249.5</ele>
        <time>2019-01-07T03:22:35Z</time>
      </trkpt>
      <trkpt lat="42.37959" lon="2.40211">
        <ele>1247.5</ele>
        <time>2019-01-07T03:22:38Z</time>
      </trkpt>
      <trkpt lat="42.37979" lon="2.40212">
        <ele>1245.6</ele>
        <time>2019-01-07T03:22:43Z</time>
      </trkpt>
      <trkpt lat="42.37998" lon="2.40209">
        <ele>1244.1</ele>
        <time>2019-01-07T03:22:48Z</time>
      </trkpt>
      <trkpt lat="42.37998" lon="2.40208">
        <ele>1244.1</ele>
        <time>2019-01-07T03:22:49Z</time>
      </trkpt>
      <trkpt lat="42.38008" lon="2.40207">
        <ele>1242.7</ele>
        <time>2019-01-07T03:22:51Z</time>
      </trkpt>
      <trkpt lat="42.38012" lon="2.40208">
        <ele>1241.7</ele>
        <time>2019-01-07T03:22:52Z</time>
      </trkpt>
      <trkpt lat="42.38016" lon="2.40207">
        <ele>1240.8</ele>
        <time>2019-01-07T03:22:53Z</time>
      </trkpt>
      <trkpt lat="42.38018" lon="2.40208">
        <ele>1241.2</ele>
        <time>2019-01-07T03:22:54Z</time>
      </trkpt>
      <trkpt lat="42.38021" lon="2.40208">
        <ele>1241.7</ele>
        <time>2019-01-07T03:22:55Z</time>
      </trkpt>
      <trkpt lat="42.38025" lon="2.40205">
        <ele>1241.3</ele>
        <time>2019-01-07T03:22:56Z</time>
      </trkpt>
      <trkpt lat="42.38024" lon="2.40197">
        <ele>1241.2</ele>
        <time>2019-01-07T03:22:58Z</time>
      </trkpt>
      <trkpt lat="42.38012" lon="2.40188">
        <ele>1240.7</ele>
        <time>2019-01-07T03:23:01Z</time>
      </trkpt>
      <trkpt lat="42.38007" lon="2.40186">
        <ele>1242.6</ele>
        <time>2019-01-07T03:23:02Z</time>
      </trkpt>
      <trkpt lat="42.38004" lon="2.40187">
        <ele>1243.1</ele>
        <time>2019-01-07T03:23:03Z</time>
      </trkpt>
      <trkpt lat="42.38" lon="2.40187">
        <ele>1243.6</ele>
        <time>2019-01-07T03:23:04Z</time>
      </trkpt>
      <trkpt lat="42.37985" lon="2.40175">
        <ele>1240.8</ele>
        <time>2019-01-07T03:23:09Z</time>
      </trkpt>
      <trkpt lat="42.37984" lon="2.40174">
        <ele>1243.6</ele>
        <time>2019-01-07T03:23:09Z</time>
      </trkpt>
      <trkpt lat="42.37985" lon="2.40154">
        <ele>1244.7</ele>
        <time>2019-01-07T03:23:13Z</time>
      </trkpt>
      <trkpt lat="42.37985" lon="2.40148">
        <ele>1244.2</ele>
        <time>2019-01-07T03:23:14Z</time>
      </trkpt>
      <trkpt lat="42.37983" lon="2.40131">
        <ele>1245.5</ele>
        <time>2019-01-07T03:23:18Z</time>
      </trkpt>
      <trkpt lat="42.37981" lon="2.40126">
        <ele>1246.1</ele>
        <time>2019-01-07T03:23:19Z</time>
      </trkpt>
      <trkpt lat="42.37968" lon="2.40108">
        <ele>1248.5</ele>
        <time>2019-01-07T03:23:24Z</time>
      </trkpt>
      <trkpt lat="42.37955" lon="2.40101">
        <ele>1248</ele>
        <time>2019-01-07T03:23:28Z</time>
      </trkpt>
      <trkpt lat="42.37951" lon="2.401">
        <ele>1251.9</ele>
        <time>2019-01-07T03:23:29Z</time>
      </trkpt>
      <trkpt lat="42.37949" lon="2.401">
        <ele>1249.4</ele>
        <time>2019-01-07T03:23:29Z</time>
      </trkpt>
      <trkpt lat="42.3794" lon="2.40097">
        <ele>1248.9</ele>
        <time>2019-01-07T03:23:32Z</time>
      </trkpt>
      <trkpt lat="42.37933" lon="2.40093">
        <ele>1250.4</ele>
        <time>2019-01-07T03:23:34Z</time>
      </trkpt>
      <trkpt lat="42.37914" lon="2.40081">
        <ele>1250.9</ele>
        <time>2019-01-07T03:23:39Z</time>
      </trkpt>
      <trkpt lat="42.37898" lon="2.40061">
        <ele>1252.3</ele>
        <time>2019-01-07T03:23:45Z</time>
      </trkpt>
      <trkpt lat="42.37881" lon="2.40034">
        <ele>1250.8</ele>
        <time>2019-01-07T03:23:52Z</time>
      </trkpt>
      <trkpt lat="42.37876" lon="2.40028">
        <ele>1250</ele>
        <time>2019-01-07T03:23:54Z</time>
      </trkpt>
      <trkpt lat="42.37855" lon="2.40002">
        <ele>1249.4</ele>
        <time>2019-01-07T03:24:02Z</time>
      </trkpt>
      <trkpt lat="42.37842" lon="2.39979">
        <ele>1248.9</ele>
        <time>2019-01-07T03:24:07Z</time>
      </trkpt>
      <trkpt lat="42.37825" lon="2.39955">
        <ele>1250.4</ele>
        <time>2019-01-07T03:24:14Z</time>
      </trkpt>
      <trkpt lat="42.37809" lon="2.39941">
        <ele>1250.8</ele>
        <time>2019-01-07T03:24:19Z</time>
      </trkpt>
      <trkpt lat="42.37789" lon="2.3993">
        <ele>1248.4</ele>
        <time>2019-01-07T03:24:25Z</time>
      </trkpt>
      <trkpt lat="42.37782" lon="2.39927">
        <ele>1247.9</ele>
        <time>2019-01-07T03:24:27Z</time>
      </trkpt>
      <trkpt lat="42.37777" lon="2.39921">
        <ele>1246</ele>
        <time>2019-01-07T03:24:28Z</time>
      </trkpt>
      <trkpt lat="42.37775" lon="2.3992">
        <ele>1245.6</ele>
        <time>2019-01-07T03:24:29Z</time>
      </trkpt>
      <trkpt lat="42.37762" lon="2.39917">
        <ele>1241.8</ele>
        <time>2019-01-07T03:24:32Z</time>
      </trkpt>
      <trkpt lat="42.37752" lon="2.39913">
        <ele>1238.4</ele>
        <time>2019-01-07T03:24:35Z</time>
      </trkpt>
      <trkpt lat="42.3775" lon="2.39912">
        <ele>1238.3</ele>
        <time>2019-01-07T03:24:36Z</time>
      </trkpt>
      <trkpt lat="42.37745" lon="2.39912">
        <ele>1235.5</ele>
        <time>2019-01-07T03:24:37Z</time>
      </trkpt>
      <trkpt lat="42.37744" lon="2.39912">
        <ele>1235.9</ele>
        <time>2019-01-07T03:24:38Z</time>
      </trkpt>
      <trkpt lat="42.37735" lon="2.39913">
        <ele>1234.1</ele>
        <time>2019-01-07T03:24:40Z</time>
      </trkpt>
      <trkpt lat="42.37735" lon="2.39916">
        <ele>1234</ele>
        <time>2019-01-07T03:24:40Z</time>
      </trkpt>
      <trkpt lat="42.37732" lon="2.39908">
        <ele>1233.5</ele>
        <time>2019-01-07T03:24:42Z</time>
      </trkpt>
      <trkpt lat="42.37732" lon="2.39902">
        <ele>1233</ele>
        <time>2019-01-07T03:24:43Z</time>
      </trkpt>
      <trkpt lat="42.37728" lon="2.39902">
        <ele>1232.2</ele>
        <time>2019-01-07T03:24:44Z</time>
      </trkpt>
      <trkpt lat="42.37722" lon="2.39906">
        <ele>1231.7</ele>
        <time>2019-01-07T03:24:46Z</time>
      </trkpt>
      <trkpt lat="42.37717" lon="2.39907">
        <ele>1229.3</ele>
        <time>2019-01-07T03:24:47Z</time>
      </trkpt>
      <trkpt lat="42.3771" lon="2.3991">
        <ele>1227.3</ele>
        <time>2019-01-07T03:24:49Z</time>
      </trkpt>
      <trkpt lat="42.37705" lon="2.39909">
        <ele>1226.3</ele>
        <time>2019-01-07T03:24:51Z</time>
      </trkpt>
      <trkpt lat="42.37744" lon="2.39867">
        <ele>1245.1</ele>
        <time>2019-01-07T03:25:04Z</time>
      </trkpt>
      <trkpt lat="42.37739" lon="2.39877">
        <ele>1245.5</ele>
        <time>2019-01-07T03:25:07Z</time>
      </trkpt>
      <trkpt lat="42.37736" lon="2.39888">
        <ele>1246.1</ele>
        <time>2019-01-07T03:25:09Z</time>
      </trkpt>
      <trkpt lat="42.37733" lon="2.39901">
        <ele>1247</ele>
        <time>2019-01-07T03:25:12Z</time>
      </trkpt>
      <trkpt lat="42.37741" lon="2.39908">
        <ele>1249</ele>
        <time>2019-01-07T03:25:14Z</time>
      </trkpt>
      <trkpt lat="42.3775" lon="2.39912">
        <ele>1252</ele>
        <time>2019-01-07T03:25:17Z</time>
      </trkpt>
      <trkpt lat="42.37758" lon="2.39918">
        <ele>1254.6</ele>
        <time>2019-01-07T03:25:19Z</time>
      </trkpt>
      <trkpt lat="42.37767" lon="2.39918">
        <ele>1256.4</ele>
        <time>2019-01-07T03:25:21Z</time>
      </trkpt>
      <trkpt lat="42.37777" lon="2.39922">
        <ele>1258.7</ele>
        <time>2019-01-07T03:25:24Z</time>
      </trkpt>
      <trkpt lat="42.37786" lon="2.39924">
        <ele>1261.9</ele>
        <time>2019-01-07T03:25:27Z</time>
      </trkpt>
      <trkpt lat="42.37799" lon="2.39926">
        <ele>1253.3</ele>
        <time>2019-01-07T03:25:30Z</time>
      </trkpt>
      <trkpt lat="42.37804" lon="2.39917">
        <ele>1256.3</ele>
        <time>2019-01-07T03:25:32Z</time>
      </trkpt>
      <trkpt lat="42.37811" lon="2.3991">
        <ele>1260</ele>
        <time>2019-01-07T03:25:35Z</time>
      </trkpt>
      <trkpt lat="42.37817" lon="2.39899">
        <ele>1262.2</ele>
        <time>2019-01-07T03:25:37Z</time>
      </trkpt>
      <trkpt lat="42.37826" lon="2.39894">
        <ele>1265.7</ele>
        <time>2019-01-07T03:25:40Z</time>
      </trkpt>
      <trkpt lat="42.37831" lon="2.39904">
        <ele>1269.1</ele>
        <time>2019-01-07T03:25:42Z</time>
      </trkpt>
      <trkpt lat="42.37835" lon="2.39893">
        <ele>1268.2</ele>
        <time>2019-01-07T03:25:45Z</time>
      </trkpt>
      <trkpt lat="42.37842" lon="2.39885">
        <ele>1269.4</ele>
        <time>2019-01-07T03:25:47Z</time>
      </trkpt>
      <trkpt lat="42.37852" lon="2.39883">
        <ele>1271.9</ele>
        <time>2019-01-07T03:25:50Z</time>
      </trkpt>
      <trkpt lat="42.37861" lon="2.39884">
        <ele>1275.3</ele>
        <time>2019-01-07T03:25:52Z</time>
      </trkpt>
      <trkpt lat="42.37871" lon="2.39881">
        <ele>1278.2</ele>
        <time>2019-01-07T03:25:55Z</time>
      </trkpt>
      <trkpt lat="42.3788" lon="2.39884">
        <ele>1280.7</ele>
        <time>2019-01-07T03:25:57Z</time>
      </trkpt>
      <trkpt lat="42.37888" lon="2.39878">
        <ele>1283.5</ele>
        <time>2019-01-07T03:26:00Z</time>
      </trkpt>
      <trkpt lat="42.37897" lon="2.39874">
        <ele>1286.6</ele>
        <time>2019-01-07T03:26:02Z</time>
      </trkpt>
      <trkpt lat="42.37904" lon="2.39866">
        <ele>1290</ele>
        <time>2019-01-07T03:26:05Z</time>
      </trkpt>
      <trkpt lat="42.37913" lon="2.3986">
        <ele>1291.6</ele>
        <time>2019-01-07T03:26:08Z</time>
      </trkpt>
      <trkpt lat="42.37921" lon="2.39855">
        <ele>1294.2</ele>
        <time>2019-01-07T03:26:10Z</time>
      </trkpt>
      <trkpt lat="42.37929" lon="2.39848">
        <ele>1297</ele>
        <time>2019-01-07T03:26:12Z</time>
      </trkpt>
      <trkpt lat="42.37927" lon="2.3986">
        <ele>1299.1</ele>
        <time>2019-01-07T03:26:15Z</time>
      </trkpt>
      <trkpt lat="42.37924" lon="2.39873">
        <ele>1299.2</ele>
        <time>2019-01-07T03:26:17Z</time>
      </trkpt>
      <trkpt lat="42.37923" lon="2.39885">
        <ele>1299.9</ele>
        <time>2019-01-07T03:26:20Z</time>
      </trkpt>
      <trkpt lat="42.37932" lon="2.39888">
        <ele>1305.2</ele>
        <time>2019-01-07T03:26:22Z</time>
      </trkpt>
      <trkpt lat="42.37942" lon="2.3989">
        <ele>1308.5</ele>
        <time>2019-01-07T03:26:25Z</time>
      </trkpt>
      <trkpt lat="42.37945" lon="2.39902">
        <ele>1309.6</ele>
        <time>2019-01-07T03:26:27Z</time>
      </trkpt>
      <trkpt lat="42.37953" lon="2.39909">
        <ele>1312</ele>
        <time>2019-01-07T03:26:30Z</time>
      </trkpt>
      <trkpt lat="42.3796" lon="2.399">
        <ele>1314.1</ele>
        <time>2019-01-07T03:26:33Z</time>
      </trkpt>
      <trkpt lat="42.37969" lon="2.39902">
        <ele>1316.9</ele>
        <time>2019-01-07T03:26:35Z</time>
      </trkpt>
      <trkpt lat="42.37966" lon="2.3989">
        <ele>1319.1</ele>
        <time>2019-01-07T03:26:37Z</time>
      </trkpt>
      <trkpt lat="42.37974" lon="2.39884">
        <ele>1320.4</ele>
        <time>2019-01-07T03:26:40Z</time>
      </trkpt>
      <trkpt lat="42.37983" lon="2.39878">
        <ele>1322.8</ele>
        <time>2019-01-07T03:26:42Z</time>
      </trkpt>
      <trkpt lat="42.37992" lon="2.39876">
        <ele>1325.5</ele>
        <time>2019-01-07T03:26:45Z</time>
      </trkpt>
      <trkpt lat="42.37995" lon="2.39864">
        <ele>1328.3</ele>
        <time>2019-01-07T03:26:47Z</time>
      </trkpt>
      <trkpt lat="42.38001" lon="2.39854">
        <ele>1330.4</ele>
        <time>2019-01-07T03:26:50Z</time>
      </trkpt>
      <trkpt lat="42.38009" lon="2.39848">
        <ele>1332.8</ele>
        <time>2019-01-07T03:26:52Z</time>
      </trkpt>
      <trkpt lat="42.38019" lon="2.39848">
        <ele>1334.8</ele>
        <time>2019-01-07T03:26:55Z</time>
      </trkpt>
      <trkpt lat="42.38027" lon="2.39855">
        <ele>1336.9</ele>
        <time>2019-01-07T03:26:58Z</time>
      </trkpt>
      <trkpt lat="42.38029" lon="2.39867">
        <ele>1339.2</ele>
        <time>2019-01-07T03:27:00Z</time>
      </trkpt>
      <trkpt lat="42.38032" lon="2.39879">
        <ele>1340</ele>
        <time>2019-01-07T03:27:02Z</time>
      </trkpt>
      <trkpt lat="42.38037" lon="2.39889">
        <ele>1341.7</ele>
        <time>2019-01-07T03:27:05Z</time>
      </trkpt>
      <trkpt lat="42.38047" lon="2.39888">
        <ele>1344.8</ele>
        <time>2019-01-07T03:27:07Z</time>
      </trkpt>
      <trkpt lat="42.38054" lon="2.3988">
        <ele>1346</ele>
        <time>2019-01-07T03:27:10Z</time>
      </trkpt>
      <trkpt lat="42.38062" lon="2.39873">
        <ele>1348.2</ele>
        <time>2019-01-07T03:27:13Z</time>
      </trkpt>
      <trkpt lat="42.3807" lon="2.39867">
        <ele>1350</ele>
        <time>2019-01-07T03:27:15Z</time>
      </trkpt>
      <trkpt lat="42.38079" lon="2.39864">
        <ele>1353</ele>
        <time>2019-01-07T03:27:17Z</time>
      </trkpt>
      <trkpt lat="42.38088" lon="2.39867">
        <ele>1354.5</ele>
        <time>2019-01-07T03:27:20Z</time>
      </trkpt>
      <trkpt lat="42.38086" lon="2.39879">
        <ele>1356.7</ele>
        <time>2019-01-07T03:27:23Z</time>
      </trkpt>
      <trkpt lat="42.38087" lon="2.39892">
        <ele>1358.1</ele>
        <time>2019-01-07T03:27:25Z</time>
      </trkpt>
      <trkpt lat="42.38088" lon="2.39904">
        <ele>1359.4</ele>
        <time>2019-01-07T03:27:27Z</time>
      </trkpt>
      <trkpt lat="42.3809" lon="2.39916">
        <ele>1361</ele>
        <time>2019-01-07T03:27:30Z</time>
      </trkpt>
      <trkpt lat="42.38096" lon="2.39927">
        <ele>1362.8</ele>
        <time>2019-01-07T03:27:33Z</time>
      </trkpt>
      <trkpt lat="42.38103" lon="2.39936">
        <ele>1364.4</ele>
        <time>2019-01-07T03:27:35Z</time>
      </trkpt>
      <trkpt lat="42.38111" lon="2.39942">
        <ele>1366.1</ele>
        <time>2019-01-07T03:27:38Z</time>
      </trkpt>
      <trkpt lat="42.3812" lon="2.39947">
        <ele>1367</ele>
        <time>2019-01-07T03:27:40Z</time>
      </trkpt>
      <trkpt lat="42.38128" lon="2.39953">
        <ele>1367.1</ele>
        <time>2019-01-07T03:27:43Z</time>
      </trkpt>
      <trkpt lat="42.38137" lon="2.39957">
        <ele>1367.9</ele>
        <time>2019-01-07T03:27:45Z</time>
      </trkpt>
      <trkpt lat="42.38146" lon="2.39962">
        <ele>1368.7</ele>
        <time>2019-01-07T03:27:48Z</time>
      </trkpt>
      <trkpt lat="42.38155" lon="2.39967">
        <ele>1368.1</ele>
        <time>2019-01-07T03:27:50Z</time>
      </trkpt>
      <trkpt lat="42.38163" lon="2.39974">
        <ele>1368.7</ele>
        <time>2019-01-07T03:27:53Z</time>
      </trkpt>
      <trkpt lat="42.38171" lon="2.3998">
        <ele>1369.1</ele>
        <time>2019-01-07T03:27:55Z</time>
      </trkpt>
      <trkpt lat="42.3818" lon="2.39983">
        <ele>1369.1</ele>
        <time>2019-01-07T03:27:58Z</time>
      </trkpt>
      <trkpt lat="42.38189" lon="2.39988">
        <ele>1369</ele>
        <time>2019-01-07T03:28:00Z</time>
      </trkpt>
      <trkpt lat="42.38197" lon="2.39994">
        <ele>1369.8</ele>
        <time>2019-01-07T03:28:03Z</time>
      </trkpt>
      <trkpt lat="42.38206" lon="2.39998">
        <ele>1370.6</ele>
        <time>2019-01-07T03:28:05Z</time>
      </trkpt>
      <trkpt lat="42.38215" lon="2.40003">
        <ele>1371</ele>
        <time>2019-01-07T03:28:08Z</time>
      </trkpt>
      <trkpt lat="42.38225" lon="2.40006">
        <ele>1371.4</ele>
        <time>2019-01-07T03:28:11Z</time>
      </trkpt>
      <trkpt lat="42.38235" lon="2.40011">
        <ele>1372.4</ele>
        <time>2019-01-07T03:28:13Z</time>
      </trkpt>
      <trkpt lat="42.38244" lon="2.40017">
        <ele>1374.2</ele>
        <time>2019-01-07T03:28:16Z</time>
      </trkpt>
      <trkpt lat="42.38252" lon="2.40024">
        <ele>1374.9</ele>
        <time>2019-01-07T03:28:19Z</time>
      </trkpt>
      <trkpt lat="42.3826" lon="2.40032">
        <ele>1375.7</ele>
        <time>2019-01-07T03:28:21Z</time>
      </trkpt>
      <trkpt lat="42.38268" lon="2.40038">
        <ele>1376.4</ele>
        <time>2019-01-07T03:28:24Z</time>
      </trkpt>
      <trkpt lat="42.38277" lon="2.40043">
        <ele>1377.3</ele>
        <time>2019-01-07T03:28:26Z</time>
      </trkpt>
      <trkpt lat="42.38286" lon="2.40047">
        <ele>1378.7</ele>
        <time>2019-01-07T03:28:29Z</time>
      </trkpt>
      <trkpt lat="42.38294" lon="2.40051">
        <ele>1379.1</ele>
        <time>2019-01-07T03:28:31Z</time>
      </trkpt>
      <trkpt lat="42.38303" lon="2.40056">
        <ele>1379.3</ele>
        <time>2019-01-07T03:28:34Z</time>
      </trkpt>
      <trkpt lat="42.38313" lon="2.4006">
        <ele>1380.1</ele>
        <time>2019-01-07T03:28:36Z</time>
      </trkpt>
      <trkpt lat="42.38321" lon="2.40068">
        <ele>1382.1</ele>
        <time>2019-01-07T03:28:39Z</time>
      </trkpt>
      <trkpt lat="42.3833" lon="2.40073">
        <ele>1382.9</ele>
        <time>2019-01-07T03:28:42Z</time>
      </trkpt>
      <trkpt lat="42.38339" lon="2.40078">
        <ele>1384.2</ele>
        <time>2019-01-07T03:28:44Z</time>
      </trkpt>
      <trkpt lat="42.38349" lon="2.4008">
        <ele>1385.7</ele>
        <time>2019-01-07T03:28:47Z</time>
      </trkpt>
      <trkpt lat="42.38358" lon="2.40084">
        <ele>1386.1</ele>
        <time>2019-01-07T03:28:50Z</time>
      </trkpt>
      <trkpt lat="42.38367" lon="2.40089">
        <ele>1386.7</ele>
        <time>2019-01-07T03:28:52Z</time>
      </trkpt>
      <trkpt lat="42.38376" lon="2.40094">
        <ele>1388.5</ele>
        <time>2019-01-07T03:28:55Z</time>
      </trkpt>
      <trkpt lat="42.38385" lon="2.40098">
        <ele>1390</ele>
        <time>2019-01-07T03:28:57Z</time>
      </trkpt>
      <trkpt lat="42.38392" lon="2.40105">
        <ele>1391.6</ele>
        <time>2019-01-07T03:29:00Z</time>
      </trkpt>
      <trkpt lat="42.384" lon="2.40113">
        <ele>1393.6</ele>
        <time>2019-01-07T03:29:02Z</time>
      </trkpt>
      <trkpt lat="42.38408" lon="2.40119">
        <ele>1395.4</ele>
        <time>2019-01-07T03:29:05Z</time>
      </trkpt>
      <trkpt lat="42.38416" lon="2.40126">
        <ele>1396.9</ele>
        <time>2019-01-07T03:29:07Z</time>
      </trkpt>
      <trkpt lat="42.38426" lon="2.40131">
        <ele>1398.3</ele>
        <time>2019-01-07T03:29:10Z</time>
      </trkpt>
      <trkpt lat="42.38434" lon="2.40137">
        <ele>1399.1</ele>
        <time>2019-01-07T03:29:13Z</time>
      </trkpt>
      <trkpt lat="42.38443" lon="2.40143">
        <ele>1399.9</ele>
        <time>2019-01-07T03:29:15Z</time>
      </trkpt>
      <trkpt lat="42.38453" lon="2.40145">
        <ele>1400.2</ele>
        <time>2019-01-07T03:29:18Z</time>
      </trkpt>
      <trkpt lat="42.38462" lon="2.40146">
        <ele>1401.2</ele>
        <time>2019-01-07T03:29:20Z</time>
      </trkpt>
      <trkpt lat="42.38471" lon="2.40147">
        <ele>1402</ele>
        <time>2019-01-07T03:29:23Z</time>
      </trkpt>
      <trkpt lat="42.38481" lon="2.40149">
        <ele>1402</ele>
        <time>2019-01-07T03:29:25Z</time>
      </trkpt>
      <trkpt lat="42.3849" lon="2.40153">
        <ele>1402.1</ele>
        <time>2019-01-07T03:29:28Z</time>
      </trkpt>
      <trkpt lat="42.38499" lon="2.40155">
        <ele>1403.1</ele>
        <time>2019-01-07T03:29:30Z</time>
      </trkpt>
      <trkpt lat="42.38508" lon="2.40158">
        <ele>1404.7</ele>
        <time>2019-01-07T03:29:33Z</time>
      </trkpt>
      <trkpt lat="42.38517" lon="2.40161">
        <ele>1406.3</ele>
        <time>2019-01-07T03:29:35Z</time>
      </trkpt>
      <trkpt lat="42.38527" lon="2.40163">
        <ele>1407.4</ele>
        <time>2019-01-07T03:29:38Z</time>
      </trkpt>
      <trkpt lat="42.38537" lon="2.40165">
        <ele>1409.1</ele>
        <time>2019-01-07T03:29:41Z</time>
      </trkpt>
      <trkpt lat="42.38546" lon="2.40169">
        <ele>1411.2</ele>
        <time>2019-01-07T03:29:43Z</time>
      </trkpt>
      <trkpt lat="42.38555" lon="2.40171">
        <ele>1413.6</ele>
        <time>2019-01-07T03:29:46Z</time>
      </trkpt>
      <trkpt lat="42.38564" lon="2.40175">
        <ele>1415.7</ele>
        <time>2019-01-07T03:29:48Z</time>
      </trkpt>
      <trkpt lat="42.38573" lon="2.40179">
        <ele>1417</ele>
        <time>2019-01-07T03:29:51Z</time>
      </trkpt>
      <trkpt lat="42.38583" lon="2.40181">
        <ele>1418.6</ele>
        <time>2019-01-07T03:29:53Z</time>
      </trkpt>
      <trkpt lat="42.38593" lon="2.40177">
        <ele>1419.8</ele>
        <time>2019-01-07T03:29:56Z</time>
      </trkpt>
      <trkpt lat="42.38602" lon="2.40175">
        <ele>1420</ele>
        <time>2019-01-07T03:29:59Z</time>
      </trkpt>
      <trkpt lat="42.38612" lon="2.40174">
        <ele>1421.1</ele>
        <time>2019-01-07T03:30:01Z</time>
      </trkpt>
      <trkpt lat="42.38622" lon="2.40179">
        <ele>1422.5</ele>
        <time>2019-01-07T03:30:04Z</time>
      </trkpt>
      <trkpt lat="42.3863" lon="2.40186">
        <ele>1424</ele>
        <time>2019-01-07T03:30:07Z</time>
      </trkpt>
      <trkpt lat="42.38637" lon="2.40195">
        <ele>1424.1</ele>
        <time>2019-01-07T03:30:09Z</time>
      </trkpt>
      <trkpt lat="42.38643" lon="2.40204">
        <ele>1424</ele>
        <time>2019-01-07T03:30:12Z</time>
      </trkpt>
      <trkpt lat="42.38649" lon="2.40213">
        <ele>1424</ele>
        <time>2019-01-07T03:30:14Z</time>
      </trkpt>
      <trkpt lat="42.38656" lon="2.40223">
        <ele>1424.1</ele>
        <time>2019-01-07T03:30:17Z</time>
      </trkpt>
      <trkpt lat="42.38661" lon="2.40234">
        <ele>1424.4</ele>
        <time>2019-01-07T03:30:19Z</time>
      </trkpt>
      <trkpt lat="42.38667" lon="2.40244">
        <ele>1425.1</ele>
        <time>2019-01-07T03:30:22Z</time>
      </trkpt>
      <trkpt lat="42.38673" lon="2.40254">
        <ele>1425.1</ele>
        <time>2019-01-07T03:30:24Z</time>
      </trkpt>
      <trkpt lat="42.38679" lon="2.40265">
        <ele>1425</ele>
        <time>2019-01-07T03:30:27Z</time>
      </trkpt>
      <trkpt lat="42.38683" lon="2.40276">
        <ele>1425.2</ele>
        <time>2019-01-07T03:30:30Z</time>
      </trkpt>
      <trkpt lat="42.38689" lon="2.40287">
        <ele>1426.2</ele>
        <time>2019-01-07T03:30:32Z</time>
      </trkpt>
      <trkpt lat="42.38698" lon="2.40294">
        <ele>1426.2</ele>
        <time>2019-01-07T03:30:35Z</time>
      </trkpt>
      <trkpt lat="42.38707" lon="2.40297">
        <ele>1427.6</ele>
        <time>2019-01-07T03:30:38Z</time>
      </trkpt>
      <trkpt lat="42.38717" lon="2.40297">
        <ele>1429.6</ele>
        <time>2019-01-07T03:30:40Z</time>
      </trkpt>
      <trkpt lat="42.38727" lon="2.403">
        <ele>1431.5</ele>
        <time>2019-01-07T03:30:43Z</time>
      </trkpt>
      <trkpt lat="42.38736" lon="2.40303">
        <ele>1433.6</ele>
        <time>2019-01-07T03:30:45Z</time>
      </trkpt>
      <trkpt lat="42.38745" lon="2.40305">
        <ele>1435.3</ele>
        <time>2019-01-07T03:30:48Z</time>
      </trkpt>
      <trkpt lat="42.38754" lon="2.4031">
        <ele>1436.7</ele>
        <time>2019-01-07T03:30:50Z</time>
      </trkpt>
      <trkpt lat="42.38762" lon="2.40317">
        <ele>1438.4</ele>
        <time>2019-01-07T03:30:53Z</time>
      </trkpt>
      <trkpt lat="42.38771" lon="2.4032">
        <ele>1440.9</ele>
        <time>2019-01-07T03:30:55Z</time>
      </trkpt>
      <trkpt lat="42.3878" lon="2.40325">
        <ele>1441.6</ele>
        <time>2019-01-07T03:30:58Z</time>
      </trkpt>
      <trkpt lat="42.38789" lon="2.40328">
        <ele>1443.6</ele>
        <time>2019-01-07T03:31:00Z</time>
      </trkpt>
      <trkpt lat="42.38797" lon="2.40333">
        <ele>1444.8</ele>
        <time>2019-01-07T03:31:03Z</time>
      </trkpt>
      <trkpt lat="42.38806" lon="2.40337">
        <ele>1446.5</ele>
        <time>2019-01-07T03:31:05Z</time>
      </trkpt>
      <trkpt lat="42.38812" lon="2.40346">
        <ele>1448.7</ele>
        <time>2019-01-07T03:31:08Z</time>
      </trkpt>
      <trkpt lat="42.38814" lon="2.40359">
        <ele>1450.8</ele>
        <time>2019-01-07T03:31:10Z</time>
      </trkpt>
      <trkpt lat="42.38817" lon="2.4037">
        <ele>1454</ele>
        <time>2019-01-07T03:31:13Z</time>
      </trkpt>
      <trkpt lat="42.38826" lon="2.4037">
        <ele>1455.7</ele>
        <time>2019-01-07T03:31:15Z</time>
      </trkpt>
      <trkpt lat="42.38835" lon="2.40372">
        <ele>1459.2</ele>
        <time>2019-01-07T03:31:18Z</time>
      </trkpt>
      <trkpt lat="42.38845" lon="2.40374">
        <ele>1462.7</ele>
        <time>2019-01-07T03:31:20Z</time>
      </trkpt>
      <trkpt lat="42.38853" lon="2.4038">
        <ele>1465.7</ele>
        <time>2019-01-07T03:31:23Z</time>
      </trkpt>
      <trkpt lat="42.38859" lon="2.4037">
        <ele>1467.7</ele>
        <time>2019-01-07T03:31:25Z</time>
      </trkpt>
      <trkpt lat="42.38866" lon="2.40361">
        <ele>1468.8</ele>
        <time>2019-01-07T03:31:28Z</time>
      </trkpt>
      <trkpt lat="42.38873" lon="2.40353">
        <ele>1470.1</ele>
        <time>2019-01-07T03:31:30Z</time>
      </trkpt>
      <trkpt lat="42.3888" lon="2.40342">
        <ele>1472.2</ele>
        <time>2019-01-07T03:31:33Z</time>
      </trkpt>
      <trkpt lat="42.38889" lon="2.4034">
        <ele>1474.9</ele>
        <time>2019-01-07T03:31:36Z</time>
      </trkpt>
      <trkpt lat="42.38898" lon="2.40337">
        <ele>1478.1</ele>
        <time>2019-01-07T03:31:38Z</time>
      </trkpt>
      <trkpt lat="42.38907" lon="2.40339">
        <ele>1480.8</ele>
        <time>2019-01-07T03:31:41Z</time>
      </trkpt>
      <trkpt lat="42.38914" lon="2.40348">
        <ele>1483.4</ele>
        <time>2019-01-07T03:31:43Z</time>
      </trkpt>
      <trkpt lat="42.38921" lon="2.40357">
        <ele>1486.5</ele>
        <time>2019-01-07T03:31:46Z</time>
      </trkpt>
      <trkpt lat="42.38926" lon="2.40367">
        <ele>1489.1</ele>
        <time>2019-01-07T03:31:48Z</time>
      </trkpt>
      <trkpt lat="42.38935" lon="2.4037">
        <ele>1491.8</ele>
        <time>2019-01-07T03:31:51Z</time>
      </trkpt>
      <trkpt lat="42.38943" lon="2.40377">
        <ele>1494.9</ele>
        <time>2019-01-07T03:31:53Z</time>
      </trkpt>
      <trkpt lat="42.38948" lon="2.40387">
        <ele>1497.5</ele>
        <time>2019-01-07T03:31:55Z</time>
      </trkpt>
      <trkpt lat="42.38956" lon="2.40392">
        <ele>1502</ele>
        <time>2019-01-07T03:31:58Z</time>
      </trkpt>
      <trkpt lat="42.38966" lon="2.40394">
        <ele>1502.6</ele>
        <time>2019-01-07T03:32:01Z</time>
      </trkpt>
      <trkpt lat="42.38972" lon="2.40403">
        <ele>1503.1</ele>
        <time>2019-01-07T03:32:03Z</time>
      </trkpt>
      <trkpt lat="42.38978" lon="2.40414">
        <ele>1503.1</ele>
        <time>2019-01-07T03:32:06Z</time>
      </trkpt>
      <trkpt lat="42.38981" lon="2.40426">
        <ele>1503</ele>
        <time>2019-01-07T03:32:08Z</time>
      </trkpt>
      <trkpt lat="42.38985" lon="2.40437">
        <ele>1503</ele>
        <time>2019-01-07T03:32:11Z</time>
      </trkpt>
      <trkpt lat="42.38989" lon="2.4045">
        <ele>1503</ele>
        <time>2019-01-07T03:32:13Z</time>
      </trkpt>
      <trkpt lat="42.38993" lon="2.40462">
        <ele>1503.1</ele>
        <time>2019-01-07T03:32:16Z</time>
      </trkpt>
      <trkpt lat="42.38997" lon="2.40474">
        <ele>1503</ele>
        <time>2019-01-07T03:32:18Z</time>
      </trkpt>
      <trkpt lat="42.39003" lon="2.40483">
        <ele>1503</ele>
        <time>2019-01-07T03:32:21Z</time>
      </trkpt>
      <trkpt lat="42.39011" lon="2.40492">
        <ele>1505.1</ele>
        <time>2019-01-07T03:32:24Z</time>
      </trkpt>
      <trkpt lat="42.39017" lon="2.40501">
        <ele>1506.5</ele>
        <time>2019-01-07T03:32:26Z</time>
      </trkpt>
      <trkpt lat="42.39026" lon="2.40506">
        <ele>1507.5</ele>
        <time>2019-01-07T03:32:29Z</time>
      </trkpt>
      <trkpt lat="42.39035" lon="2.40509">
        <ele>1508.6</ele>
        <time>2019-01-07T03:32:31Z</time>
      </trkpt>
      <trkpt lat="42.39044" lon="2.40513">
        <ele>1510.1</ele>
        <time>2019-01-07T03:32:34Z</time>
      </trkpt>
      <trkpt lat="42.39052" lon="2.40519">
        <ele>1510.8</ele>
        <time>2019-01-07T03:32:36Z</time>
      </trkpt>
      <trkpt lat="42.39059" lon="2.40526">
        <ele>1512</ele>
        <time>2019-01-07T03:32:38Z</time>
      </trkpt>
      <trkpt lat="42.39068" lon="2.40529">
        <ele>1512.9</ele>
        <time>2019-01-07T03:32:41Z</time>
      </trkpt>
      <trkpt lat="42.39078" lon="2.4053">
        <ele>1512.1</ele>
        <time>2019-01-07T03:32:44Z</time>
      </trkpt>
      <trkpt lat="42.39088" lon="2.40529">
        <ele>1512.6</ele>
        <time>2019-01-07T03:32:46Z</time>
      </trkpt>
      <trkpt lat="42.39098" lon="2.4053">
        <ele>1513.1</ele>
        <time>2019-01-07T03:32:49Z</time>
      </trkpt>
      <trkpt lat="42.39105" lon="2.40539">
        <ele>1513.2</ele>
        <time>2019-01-07T03:32:51Z</time>
      </trkpt>
      <trkpt lat="42.39112" lon="2.40548">
        <ele>1513.1</ele>
        <time>2019-01-07T03:32:54Z</time>
      </trkpt>
      <trkpt lat="42.39118" lon="2.40559">
        <ele>1514.3</ele>
        <time>2019-01-07T03:32:57Z</time>
      </trkpt>
      <trkpt lat="42.39123" lon="2.40568">
        <ele>1515.3</ele>
        <time>2019-01-07T03:32:59Z</time>
      </trkpt>
      <trkpt lat="42.39131" lon="2.40577">
        <ele>1516.4</ele>
        <time>2019-01-07T03:33:02Z</time>
      </trkpt>
      <trkpt lat="42.39137" lon="2.40587">
        <ele>1517.8</ele>
        <time>2019-01-07T03:33:04Z</time>
      </trkpt>
      <trkpt lat="42.3914" lon="2.40599">
        <ele>1518.6</ele>
        <time>2019-01-07T03:33:07Z</time>
      </trkpt>
      <trkpt lat="42.39145" lon="2.40611">
        <ele>1519.3</ele>
        <time>2019-01-07T03:33:09Z</time>
      </trkpt>
      <trkpt lat="42.39148" lon="2.40623">
        <ele>1520.1</ele>
        <time>2019-01-07T03:33:12Z</time>
      </trkpt>
      <trkpt lat="42.39154" lon="2.40633">
        <ele>1520</ele>
        <time>2019-01-07T03:33:14Z</time>
      </trkpt>
      <trkpt lat="42.3916" lon="2.40643">
        <ele>1521</ele>
        <time>2019-01-07T03:33:17Z</time>
      </trkpt>
      <trkpt lat="42.39166" lon="2.40652">
        <ele>1522.6</ele>
        <time>2019-01-07T03:33:19Z</time>
      </trkpt>
      <trkpt lat="42.39173" lon="2.40663">
        <ele>1524.1</ele>
        <time>2019-01-07T03:33:22Z</time>
      </trkpt>
      <trkpt lat="42.3918" lon="2.40671">
        <ele>1524</ele>
        <time>2019-01-07T03:33:25Z</time>
      </trkpt>
      <trkpt lat="42.39188" lon="2.40679">
        <ele>1524.1</ele>
        <time>2019-01-07T03:33:27Z</time>
      </trkpt>
      <trkpt lat="42.39195" lon="2.40687">
        <ele>1524.6</ele>
        <time>2019-01-07T03:33:30Z</time>
      </trkpt>
      <trkpt lat="42.392" lon="2.40699">
        <ele>1525.1</ele>
        <time>2019-01-07T03:33:32Z</time>
      </trkpt>
      <trkpt lat="42.39207" lon="2.40708">
        <ele>1525.1</ele>
        <time>2019-01-07T03:33:35Z</time>
      </trkpt>
      <trkpt lat="42.39214" lon="2.40717">
        <ele>1526</ele>
        <time>2019-01-07T03:33:38Z</time>
      </trkpt>
      <trkpt lat="42.39221" lon="2.40725">
        <ele>1526.7</ele>
        <time>2019-01-07T03:33:40Z</time>
      </trkpt>
      <trkpt lat="42.39226" lon="2.40735">
        <ele>1527.1</ele>
        <time>2019-01-07T03:33:43Z</time>
      </trkpt>
      <trkpt lat="42.39233" lon="2.40746">
        <ele>1527.1</ele>
        <time>2019-01-07T03:33:45Z</time>
      </trkpt>
      <trkpt lat="42.39239" lon="2.40756">
        <ele>1527.6</ele>
        <time>2019-01-07T03:33:48Z</time>
      </trkpt>
      <trkpt lat="42.39246" lon="2.40766">
        <ele>1528.5</ele>
        <time>2019-01-07T03:33:51Z</time>
      </trkpt>
      <trkpt lat="42.39253" lon="2.40776">
        <ele>1529.3</ele>
        <time>2019-01-07T03:33:53Z</time>
      </trkpt>
      <trkpt lat="42.39261" lon="2.40783">
        <ele>1530.2</ele>
        <time>2019-01-07T03:33:56Z</time>
      </trkpt>
      <trkpt lat="42.39269" lon="2.40788">
        <ele>1531.8</ele>
        <time>2019-01-07T03:33:58Z</time>
      </trkpt>
      <trkpt lat="42.39279" lon="2.40787">
        <ele>1533.4</ele>
        <time>2019-01-07T03:34:01Z</time>
      </trkpt>
      <trkpt lat="42.39284" lon="2.40775">
        <ele>1533.1</ele>
        <time>2019-01-07T03:34:03Z</time>
      </trkpt>
      <trkpt lat="42.39289" lon="2.40763">
        <ele>1533</ele>
        <time>2019-01-07T03:34:06Z</time>
      </trkpt>
      <trkpt lat="42.3929" lon="2.4075">
        <ele>1533.6</ele>
        <time>2019-01-07T03:34:09Z</time>
      </trkpt>
      <trkpt lat="42.39291" lon="2.40737">
        <ele>1535</ele>
        <time>2019-01-07T03:34:11Z</time>
      </trkpt>
      <trkpt lat="42.39292" lon="2.40725">
        <ele>1535</ele>
        <time>2019-01-07T03:34:14Z</time>
      </trkpt>
      <trkpt lat="42.39293" lon="2.40713">
        <ele>1535.1</ele>
        <time>2019-01-07T03:34:16Z</time>
      </trkpt>
      <trkpt lat="42.39291" lon="2.407">
        <ele>1536.2</ele>
        <time>2019-01-07T03:34:19Z</time>
      </trkpt>
      <trkpt lat="42.39289" lon="2.40688">
        <ele>1535.4</ele>
        <time>2019-01-07T03:34:21Z</time>
      </trkpt>
      <trkpt lat="42.39292" lon="2.40676">
        <ele>1538.1</ele>
        <time>2019-01-07T03:34:24Z</time>
      </trkpt>
      <trkpt lat="42.39293" lon="2.40663">
        <ele>1539.9</ele>
        <time>2019-01-07T03:34:26Z</time>
      </trkpt>
      <trkpt lat="42.39295" lon="2.4065">
        <ele>1541.1</ele>
        <time>2019-01-07T03:34:29Z</time>
      </trkpt>
      <trkpt lat="42.39295" lon="2.40637">
        <ele>1542</ele>
        <time>2019-01-07T03:34:31Z</time>
      </trkpt>
      <trkpt lat="42.39295" lon="2.40624">
        <ele>1542.9</ele>
        <time>2019-01-07T03:34:34Z</time>
      </trkpt>
      <trkpt lat="42.39294" lon="2.40611">
        <ele>1543.7</ele>
        <time>2019-01-07T03:34:37Z</time>
      </trkpt>
      <trkpt lat="42.39294" lon="2.40599">
        <ele>1544.6</ele>
        <time>2019-01-07T03:34:39Z</time>
      </trkpt>
      <trkpt lat="42.39294" lon="2.40585">
        <ele>1545.1</ele>
        <time>2019-01-07T03:34:42Z</time>
      </trkpt>
      <trkpt lat="42.39296" lon="2.40571">
        <ele>1545.4</ele>
        <time>2019-01-07T03:34:44Z</time>
      </trkpt>
      <trkpt lat="42.39297" lon="2.40558">
        <ele>1547.1</ele>
        <time>2019-01-07T03:34:47Z</time>
      </trkpt>
      <trkpt lat="42.39298" lon="2.40546">
        <ele>1549.2</ele>
        <time>2019-01-07T03:34:50Z</time>
      </trkpt>
      <trkpt lat="42.39298" lon="2.40533">
        <ele>1551.1</ele>
        <time>2019-01-07T03:34:52Z</time>
      </trkpt>
      <trkpt lat="42.39296" lon="2.40521">
        <ele>1552.9</ele>
        <time>2019-01-07T03:34:55Z</time>
      </trkpt>
      <trkpt lat="42.39296" lon="2.40508">
        <ele>1553.1</ele>
        <time>2019-01-07T03:34:57Z</time>
      </trkpt>
      <trkpt lat="42.39296" lon="2.40495">
        <ele>1553.6</ele>
        <time>2019-01-07T03:35:00Z</time>
      </trkpt>
      <trkpt lat="42.39297" lon="2.40482">
        <ele>1554.5</ele>
        <time>2019-01-07T03:35:02Z</time>
      </trkpt>
      <trkpt lat="42.39294" lon="2.40469">
        <ele>1555.2</ele>
        <time>2019-01-07T03:35:05Z</time>
      </trkpt>
      <trkpt lat="42.39293" lon="2.40457">
        <ele>1555.2</ele>
        <time>2019-01-07T03:35:07Z</time>
      </trkpt>
      <trkpt lat="42.39295" lon="2.40445">
        <ele>1556.3</ele>
        <time>2019-01-07T03:35:10Z</time>
      </trkpt>
      <trkpt lat="42.39296" lon="2.40432">
        <ele>1557.5</ele>
        <time>2019-01-07T03:35:12Z</time>
      </trkpt>
      <trkpt lat="42.39295" lon="2.4042">
        <ele>1558.1</ele>
        <time>2019-01-07T03:35:15Z</time>
      </trkpt>
      <trkpt lat="42.39292" lon="2.40407">
        <ele>1558.1</ele>
        <time>2019-01-07T03:35:17Z</time>
      </trkpt>
      <trkpt lat="42.39291" lon="2.40395">
        <ele>1559</ele>
        <time>2019-01-07T03:35:20Z</time>
      </trkpt>
      <trkpt lat="42.39289" lon="2.40383">
        <ele>1559.1</ele>
        <time>2019-01-07T03:35:22Z</time>
      </trkpt>
      <trkpt lat="42.39287" lon="2.4037">
        <ele>1559.6</ele>
        <time>2019-01-07T03:35:25Z</time>
      </trkpt>
      <trkpt lat="42.39286" lon="2.40358">
        <ele>1561.2</ele>
        <time>2019-01-07T03:35:27Z</time>
      </trkpt>
      <trkpt lat="42.39286" lon="2.40345">
        <ele>1562.1</ele>
        <time>2019-01-07T03:35:30Z</time>
      </trkpt>
      <trkpt lat="42.39287" lon="2.40331">
        <ele>1562.8</ele>
        <time>2019-01-07T03:35:32Z</time>
      </trkpt>
      <trkpt lat="42.39286" lon="2.40318">
        <ele>1564.5</ele>
        <time>2019-01-07T03:35:35Z</time>
      </trkpt>
      <trkpt lat="42.39284" lon="2.40305">
        <ele>1565.5</ele>
        <time>2019-01-07T03:35:38Z</time>
      </trkpt>
      <trkpt lat="42.39283" lon="2.40292">
        <ele>1566.8</ele>
        <time>2019-01-07T03:35:40Z</time>
      </trkpt>
      <trkpt lat="42.39282" lon="2.4028">
        <ele>1568.6</ele>
        <time>2019-01-07T03:35:43Z</time>
      </trkpt>
      <trkpt lat="42.39279" lon="2.40267">
        <ele>1569.9</ele>
        <time>2019-01-07T03:35:45Z</time>
      </trkpt>
      <trkpt lat="42.39276" lon="2.40254">
        <ele>1570.7</ele>
        <time>2019-01-07T03:35:48Z</time>
      </trkpt>
      <trkpt lat="42.39271" lon="2.40243">
        <ele>1571.9</ele>
        <time>2019-01-07T03:35:51Z</time>
      </trkpt>
      <trkpt lat="42.39269" lon="2.4023">
        <ele>1573.2</ele>
        <time>2019-01-07T03:35:53Z</time>
      </trkpt>
      <trkpt lat="42.39265" lon="2.40218">
        <ele>1574.9</ele>
        <time>2019-01-07T03:35:56Z</time>
      </trkpt>
      <trkpt lat="42.39262" lon="2.40206">
        <ele>1576.3</ele>
        <time>2019-01-07T03:35:58Z</time>
      </trkpt>
      <trkpt lat="42.39258" lon="2.40194">
        <ele>1577.3</ele>
        <time>2019-01-07T03:36:01Z</time>
      </trkpt>
      <trkpt lat="42.39254" lon="2.40183">
        <ele>1578.9</ele>
        <time>2019-01-07T03:36:03Z</time>
      </trkpt>
      <trkpt lat="42.39256" lon="2.4017">
        <ele>1580.1</ele>
        <time>2019-01-07T03:36:06Z</time>
      </trkpt>
      <trkpt lat="42.39261" lon="2.40158">
        <ele>1581.8</ele>
        <time>2019-01-07T03:36:09Z</time>
      </trkpt>
      <trkpt lat="42.39265" lon="2.40146">
        <ele>1584.6</ele>
        <time>2019-01-07T03:36:11Z</time>
      </trkpt>
      <trkpt lat="42.39272" lon="2.40137">
        <ele>1586.8</ele>
        <time>2019-01-07T03:36:14Z</time>
      </trkpt>
      <trkpt lat="42.39281" lon="2.40132">
        <ele>1588.7</ele>
        <time>2019-01-07T03:36:16Z</time>
      </trkpt>
      <trkpt lat="42.39289" lon="2.40124">
        <ele>1590.9</ele>
        <time>2019-01-07T03:36:19Z</time>
      </trkpt>
      <trkpt lat="42.39298" lon="2.40119">
        <ele>1593.2</ele>
        <time>2019-01-07T03:36:22Z</time>
      </trkpt>
      <trkpt lat="42.39295" lon="2.40106">
        <ele>1594.1</ele>
        <time>2019-01-07T03:36:24Z</time>
      </trkpt>
      <trkpt lat="42.39302" lon="2.40097">
        <ele>1595.8</ele>
        <time>2019-01-07T03:36:27Z</time>
      </trkpt>
      <trkpt lat="42.39312" lon="2.40095">
        <ele>1597.6</ele>
        <time>2019-01-07T03:36:29Z</time>
      </trkpt>
      <trkpt lat="42.3932" lon="2.40088">
        <ele>1599.2</ele>
        <time>2019-01-07T03:36:32Z</time>
      </trkpt>
      <trkpt lat="42.3933" lon="2.40086">
        <ele>1600.3</ele>
        <time>2019-01-07T03:36:35Z</time>
      </trkpt>
      <trkpt lat="42.39337" lon="2.40078">
        <ele>1601.2</ele>
        <time>2019-01-07T03:36:37Z</time>
      </trkpt>
      <trkpt lat="42.39345" lon="2.40069">
        <ele>1602.8</ele>
        <time>2019-01-07T03:36:40Z</time>
      </trkpt>
      <trkpt lat="42.39353" lon="2.40062">
        <ele>1604</ele>
        <time>2019-01-07T03:36:42Z</time>
      </trkpt>
      <trkpt lat="42.39361" lon="2.40055">
        <ele>1604.8</ele>
        <time>2019-01-07T03:36:45Z</time>
      </trkpt>
      <trkpt lat="42.3937" lon="2.40048">
        <ele>1605.5</ele>
        <time>2019-01-07T03:36:48Z</time>
      </trkpt>
      <trkpt lat="42.39376" lon="2.40039">
        <ele>1606.8</ele>
        <time>2019-01-07T03:36:50Z</time>
      </trkpt>
      <trkpt lat="42.39383" lon="2.4003">
        <ele>1608.1</ele>
        <time>2019-01-07T03:36:53Z</time>
      </trkpt>
      <trkpt lat="42.39391" lon="2.40021">
        <ele>1610.2</ele>
        <time>2019-01-07T03:36:55Z</time>
      </trkpt>
      <trkpt lat="42.39399" lon="2.40013">
        <ele>1610.9</ele>
        <time>2019-01-07T03:36:58Z</time>
      </trkpt>
      <trkpt lat="42.39407" lon="2.40008">
        <ele>1612.6</ele>
        <time>2019-01-07T03:37:00Z</time>
      </trkpt>
      <trkpt lat="42.39415" lon="2.40002">
        <ele>1614.5</ele>
        <time>2019-01-07T03:37:03Z</time>
      </trkpt>
      <trkpt lat="42.39422" lon="2.39993">
        <ele>1616.8</ele>
        <time>2019-01-07T03:37:05Z</time>
      </trkpt>
      <trkpt lat="42.39429" lon="2.39985">
        <ele>1618.1</ele>
        <time>2019-01-07T03:37:08Z</time>
      </trkpt>
      <trkpt lat="42.39434" lon="2.39975">
        <ele>1619.9</ele>
        <time>2019-01-07T03:37:10Z</time>
      </trkpt>
      <trkpt lat="42.39441" lon="2.39967">
        <ele>1623.9</ele>
        <time>2019-01-07T03:37:13Z</time>
      </trkpt>
      <trkpt lat="42.39448" lon="2.39958">
        <ele>1625.8</ele>
        <time>2019-01-07T03:37:15Z</time>
      </trkpt>
      <trkpt lat="42.39454" lon="2.39948">
        <ele>1627.6</ele>
        <time>2019-01-07T03:37:18Z</time>
      </trkpt>
      <trkpt lat="42.39459" lon="2.39937">
        <ele>1628.7</ele>
        <time>2019-01-07T03:37:20Z</time>
      </trkpt>
      <trkpt lat="42.39465" lon="2.39927">
        <ele>1630</ele>
        <time>2019-01-07T03:37:23Z</time>
      </trkpt>
      <trkpt lat="42.3947" lon="2.39916">
        <ele>1631</ele>
        <time>2019-01-07T03:37:26Z</time>
      </trkpt>
      <trkpt lat="42.39474" lon="2.39904">
        <ele>1631.1</ele>
        <time>2019-01-07T03:37:28Z</time>
      </trkpt>
      <trkpt lat="42.39478" lon="2.39892">
        <ele>1631.1</ele>
        <time>2019-01-07T03:37:31Z</time>
      </trkpt>
      <trkpt lat="42.39481" lon="2.3988">
        <ele>1630.8</ele>
        <time>2019-01-07T03:37:33Z</time>
      </trkpt>
      <trkpt lat="42.39483" lon="2.39867">
        <ele>1630.1</ele>
        <time>2019-01-07T03:37:36Z</time>
      </trkpt>
      <trkpt lat="42.3949" lon="2.39857">
        <ele>1630.1</ele>
        <time>2019-01-07T03:37:39Z</time>
      </trkpt>
      <trkpt lat="42.39494" lon="2.39845">
        <ele>1630</ele>
        <time>2019-01-07T03:37:41Z</time>
      </trkpt>
      <trkpt lat="42.39492" lon="2.39833">
        <ele>1629.6</ele>
        <time>2019-01-07T03:37:44Z</time>
      </trkpt>
      <trkpt lat="42.39491" lon="2.39819">
        <ele>1628.9</ele>
        <time>2019-01-07T03:37:46Z</time>
      </trkpt>
      <trkpt lat="42.39488" lon="2.39805">
        <ele>1628</ele>
        <time>2019-01-07T03:37:49Z</time>
      </trkpt>
      <trkpt lat="42.39485" lon="2.39792">
        <ele>1626.7</ele>
        <time>2019-01-07T03:37:52Z</time>
      </trkpt>
      <trkpt lat="42.39483" lon="2.3978">
        <ele>1624.7</ele>
        <time>2019-01-07T03:37:54Z</time>
      </trkpt>
      <trkpt lat="42.3948" lon="2.39766">
        <ele>1622.1</ele>
        <time>2019-01-07T03:37:57Z</time>
      </trkpt>
      <trkpt lat="42.39477" lon="2.39754">
        <ele>1620</ele>
        <time>2019-01-07T03:38:00Z</time>
      </trkpt>
      <trkpt lat="42.39475" lon="2.39741">
        <ele>1617.6</ele>
        <time>2019-01-07T03:38:02Z</time>
      </trkpt>
      <trkpt lat="42.39473" lon="2.39728">
        <ele>1616</ele>
        <time>2019-01-07T03:38:05Z</time>
      </trkpt>
      <trkpt lat="42.39471" lon="2.39715">
        <ele>1614.3</ele>
        <time>2019-01-07T03:38:07Z</time>
      </trkpt>
      <trkpt lat="42.39471" lon="2.39703">
        <ele>1612.5</ele>
        <time>2019-01-07T03:38:10Z</time>
      </trkpt>
      <trkpt lat="42.39471" lon="2.3969">
        <ele>1611.1</ele>
        <time>2019-01-07T03:38:12Z</time>
      </trkpt>
      <trkpt lat="42.39469" lon="2.39678">
        <ele>1609</ele>
        <time>2019-01-07T03:38:15Z</time>
      </trkpt>
      <trkpt lat="42.39468" lon="2.39664">
        <ele>1607</ele>
        <time>2019-01-07T03:38:18Z</time>
      </trkpt>
      <trkpt lat="42.39468" lon="2.39652">
        <ele>1605.1</ele>
        <time>2019-01-07T03:38:20Z</time>
      </trkpt>
      <trkpt lat="42.3947" lon="2.39638">
        <ele>1605.8</ele>
        <time>2019-01-07T03:38:23Z</time>
      </trkpt>
      <trkpt lat="42.39472" lon="2.39625">
        <ele>1606.4</ele>
        <time>2019-01-07T03:38:25Z</time>
      </trkpt>
      <trkpt lat="42.39475" lon="2.39613">
        <ele>1607.2</ele>
        <time>2019-01-07T03:38:28Z</time>
      </trkpt>
      <trkpt lat="42.39476" lon="2.396">
        <ele>1608.8</ele>
        <time>2019-01-07T03:38:30Z</time>
      </trkpt>
      <trkpt lat="42.39481" lon="2.39588">
        <ele>1610.2</ele>
        <time>2019-01-07T03:38:33Z</time>
      </trkpt>
      <trkpt lat="42.39486" lon="2.39577">
        <ele>1610.7</ele>
        <time>2019-01-07T03:38:36Z</time>
      </trkpt>
      <trkpt lat="42.39489" lon="2.39564">
        <ele>1611.1</ele>
        <time>2019-01-07T03:38:38Z</time>
      </trkpt>
      <trkpt lat="42.39491" lon="2.39551">
        <ele>1611.2</ele>
        <time>2019-01-07T03:38:41Z</time>
      </trkpt>
      <trkpt lat="42.39493" lon="2.39538">
        <ele>1611.2</ele>
        <time>2019-01-07T03:38:44Z</time>
      </trkpt>
      <trkpt lat="42.39496" lon="2.39525">
        <ele>1612.5</ele>
        <time>2019-01-07T03:38:46Z</time>
      </trkpt>
      <trkpt lat="42.39499" lon="2.39513">
        <ele>1613.3</ele>
        <time>2019-01-07T03:38:49Z</time>
      </trkpt>
      <trkpt lat="42.39501" lon="2.39499">
        <ele>1614</ele>
        <time>2019-01-07T03:38:52Z</time>
      </trkpt>
      <trkpt lat="42.39503" lon="2.39486">
        <ele>1615.7</ele>
        <time>2019-01-07T03:38:54Z</time>
      </trkpt>
      <trkpt lat="42.39505" lon="2.39473">
        <ele>1617</ele>
        <time>2019-01-07T03:38:57Z</time>
      </trkpt>
      <trkpt lat="42.39507" lon="2.39461">
        <ele>1618.3</ele>
        <time>2019-01-07T03:38:59Z</time>
      </trkpt>
      <trkpt lat="42.39511" lon="2.39448">
        <ele>1620.2</ele>
        <time>2019-01-07T03:39:02Z</time>
      </trkpt>
      <trkpt lat="42.39514" lon="2.39435">
        <ele>1621.4</ele>
        <time>2019-01-07T03:39:05Z</time>
      </trkpt>
      <trkpt lat="42.39515" lon="2.39421">
        <ele>1622.1</ele>
        <time>2019-01-07T03:39:08Z</time>
      </trkpt>
      <trkpt lat="42.39517" lon="2.39408">
        <ele>1622</ele>
        <time>2019-01-07T03:39:10Z</time>
      </trkpt>
      <trkpt lat="42.39522" lon="2.39397">
        <ele>1623.9</ele>
        <time>2019-01-07T03:39:13Z</time>
      </trkpt>
      <trkpt lat="42.39526" lon="2.39385">
        <ele>1624.8</ele>
        <time>2019-01-07T03:39:15Z</time>
      </trkpt>
      <trkpt lat="42.39529" lon="2.39374">
        <ele>1626</ele>
        <time>2019-01-07T03:39:18Z</time>
      </trkpt>
      <trkpt lat="42.39535" lon="2.39363">
        <ele>1627.6</ele>
        <time>2019-01-07T03:39:20Z</time>
      </trkpt>
      <trkpt lat="42.39539" lon="2.39351">
        <ele>1629.1</ele>
        <time>2019-01-07T03:39:23Z</time>
      </trkpt>
      <trkpt lat="42.39546" lon="2.39342">
        <ele>1629.9</ele>
        <time>2019-01-07T03:39:25Z</time>
      </trkpt>
      <trkpt lat="42.39548" lon="2.39329">
        <ele>1631.6</ele>
        <time>2019-01-07T03:39:28Z</time>
      </trkpt>
      <trkpt lat="42.3955" lon="2.39315">
        <ele>1632.7</ele>
        <time>2019-01-07T03:39:31Z</time>
      </trkpt>
      <trkpt lat="42.39553" lon="2.39302">
        <ele>1633.6</ele>
        <time>2019-01-07T03:39:33Z</time>
      </trkpt>
      <trkpt lat="42.3956" lon="2.39292">
        <ele>1634.1</ele>
        <time>2019-01-07T03:39:36Z</time>
      </trkpt>
      <trkpt lat="42.39567" lon="2.39282">
        <ele>1634.1</ele>
        <time>2019-01-07T03:39:39Z</time>
      </trkpt>
      <trkpt lat="42.39573" lon="2.39272">
        <ele>1634.1</ele>
        <time>2019-01-07T03:39:41Z</time>
      </trkpt>
      <trkpt lat="42.3958" lon="2.39262">
        <ele>1634.5</ele>
        <time>2019-01-07T03:39:44Z</time>
      </trkpt>
      <trkpt lat="42.39586" lon="2.39252">
        <ele>1635.2</ele>
        <time>2019-01-07T03:39:47Z</time>
      </trkpt>
      <trkpt lat="42.39594" lon="2.39243">
        <ele>1635.9</ele>
        <time>2019-01-07T03:39:49Z</time>
      </trkpt>
      <trkpt lat="42.39602" lon="2.39235">
        <ele>1636.1</ele>
        <time>2019-01-07T03:39:52Z</time>
      </trkpt>
      <trkpt lat="42.39609" lon="2.39227">
        <ele>1636.1</ele>
        <time>2019-01-07T03:39:55Z</time>
      </trkpt>
      <trkpt lat="42.39616" lon="2.39218">
        <ele>1636</ele>
        <time>2019-01-07T03:39:57Z</time>
      </trkpt>
      <trkpt lat="42.39622" lon="2.39209">
        <ele>1636.1</ele>
        <time>2019-01-07T03:40:00Z</time>
      </trkpt>
      <trkpt lat="42.39629" lon="2.39199">
        <ele>1636.5</ele>
        <time>2019-01-07T03:40:02Z</time>
      </trkpt>
      <trkpt lat="42.39636" lon="2.39191">
        <ele>1637.1</ele>
        <time>2019-01-07T03:40:05Z</time>
      </trkpt>
      <trkpt lat="42.39642" lon="2.39181">
        <ele>1637.2</ele>
        <time>2019-01-07T03:40:07Z</time>
      </trkpt>
      <trkpt lat="42.39649" lon="2.39173">
        <ele>1637</ele>
        <time>2019-01-07T03:40:10Z</time>
      </trkpt>
      <trkpt lat="42.39657" lon="2.39165">
        <ele>1637</ele>
        <time>2019-01-07T03:40:12Z</time>
      </trkpt>
      <trkpt lat="42.39665" lon="2.39159">
        <ele>1637</ele>
        <time>2019-01-07T03:40:15Z</time>
      </trkpt>
      <trkpt lat="42.39673" lon="2.39152">
        <ele>1637.2</ele>
        <time>2019-01-07T03:40:17Z</time>
      </trkpt>
      <trkpt lat="42.39681" lon="2.39145">
        <ele>1637.3</ele>
        <time>2019-01-07T03:40:20Z</time>
      </trkpt>
      <trkpt lat="42.39687" lon="2.39135">
        <ele>1638</ele>
        <time>2019-01-07T03:40:22Z</time>
      </trkpt>
      <trkpt lat="42.39694" lon="2.39126">
        <ele>1639.1</ele>
        <time>2019-01-07T03:40:25Z</time>
      </trkpt>
      <trkpt lat="42.39702" lon="2.39117">
        <ele>1640.2</ele>
        <time>2019-01-07T03:40:28Z</time>
      </trkpt>
      <trkpt lat="42.39709" lon="2.39108">
        <ele>1641</ele>
        <time>2019-01-07T03:40:30Z</time>
      </trkpt>
      <trkpt lat="42.39716" lon="2.39099">
        <ele>1641.1</ele>
        <time>2019-01-07T03:40:33Z</time>
      </trkpt>
      <trkpt lat="42.39722" lon="2.39088">
        <ele>1641.1</ele>
        <time>2019-01-07T03:40:36Z</time>
      </trkpt>
      <trkpt lat="42.3973" lon="2.3908">
        <ele>1641.1</ele>
        <time>2019-01-07T03:40:38Z</time>
      </trkpt>
      <trkpt lat="42.39738" lon="2.39072">
        <ele>1641.1</ele>
        <time>2019-01-07T03:40:41Z</time>
      </trkpt>
      <trkpt lat="42.39745" lon="2.39064">
        <ele>1640.5</ele>
        <time>2019-01-07T03:40:43Z</time>
      </trkpt>
      <trkpt lat="42.39752" lon="2.39056">
        <ele>1639.8</ele>
        <time>2019-01-07T03:40:46Z</time>
      </trkpt>
      <trkpt lat="42.39758" lon="2.39046">
        <ele>1639.2</ele>
        <time>2019-01-07T03:40:48Z</time>
      </trkpt>
      <trkpt lat="42.39764" lon="2.39037">
        <ele>1639.2</ele>
        <time>2019-01-07T03:40:51Z</time>
      </trkpt>
      <trkpt lat="42.39769" lon="2.39025">
        <ele>1639</ele>
        <time>2019-01-07T03:40:53Z</time>
      </trkpt>
      <trkpt lat="42.39774" lon="2.39014">
        <ele>1639.1</ele>
        <time>2019-01-07T03:40:56Z</time>
      </trkpt>
      <trkpt lat="42.39779" lon="2.39003">
        <ele>1639.1</ele>
        <time>2019-01-07T03:40:59Z</time>
      </trkpt>
      <trkpt lat="42.39785" lon="2.38993">
        <ele>1639.1</ele>
        <time>2019-01-07T03:41:01Z</time>
      </trkpt>
      <trkpt lat="42.39788" lon="2.38981">
        <ele>1639.1</ele>
        <time>2019-01-07T03:41:04Z</time>
      </trkpt>
      <trkpt lat="42.39792" lon="2.38968">
        <ele>1640</ele>
        <time>2019-01-07T03:41:06Z</time>
      </trkpt>
      <trkpt lat="42.39795" lon="2.38956">
        <ele>1639.5</ele>
        <time>2019-01-07T03:41:09Z</time>
      </trkpt>
      <trkpt lat="42.39798" lon="2.38944">
        <ele>1639.2</ele>
        <time>2019-01-07T03:41:11Z</time>
      </trkpt>
      <trkpt lat="42.39802" lon="2.38932">
        <ele>1639.9</ele>
        <time>2019-01-07T03:41:14Z</time>
      </trkpt>
      <trkpt lat="42.39805" lon="2.38919">
        <ele>1640.2</ele>
        <time>2019-01-07T03:41:17Z</time>
      </trkpt>
      <trkpt lat="42.39808" lon="2.38907">
        <ele>1640.4</ele>
        <time>2019-01-07T03:41:19Z</time>
      </trkpt>
      <trkpt lat="42.39813" lon="2.38895">
        <ele>1641</ele>
        <time>2019-01-07T03:41:22Z</time>
      </trkpt>
      <trkpt lat="42.39817" lon="2.38884">
        <ele>1641.1</ele>
        <time>2019-01-07T03:41:24Z</time>
      </trkpt>
      <trkpt lat="42.39821" lon="2.38873">
        <ele>1641.6</ele>
        <time>2019-01-07T03:41:27Z</time>
      </trkpt>
      <trkpt lat="42.39826" lon="2.3886">
        <ele>1641.5</ele>
        <time>2019-01-07T03:41:30Z</time>
      </trkpt>
      <trkpt lat="42.3983" lon="2.38849">
        <ele>1640.3</ele>
        <time>2019-01-07T03:41:32Z</time>
      </trkpt>
      <trkpt lat="42.39836" lon="2.38837">
        <ele>1640.6</ele>
        <time>2019-01-07T03:41:35Z</time>
      </trkpt>
      <trkpt lat="42.39841" lon="2.38826">
        <ele>1641.1</ele>
        <time>2019-01-07T03:41:37Z</time>
      </trkpt>
      <trkpt lat="42.39846" lon="2.38815">
        <ele>1641</ele>
        <time>2019-01-07T03:41:40Z</time>
      </trkpt>
      <trkpt lat="42.39851" lon="2.38803">
        <ele>1641</ele>
        <time>2019-01-07T03:41:43Z</time>
      </trkpt>
      <trkpt lat="42.39856" lon="2.38792">
        <ele>1641.1</ele>
        <time>2019-01-07T03:41:45Z</time>
      </trkpt>
      <trkpt lat="42.39859" lon="2.38781">
        <ele>1641</ele>
        <time>2019-01-07T03:41:48Z</time>
      </trkpt>
      <trkpt lat="42.39865" lon="2.38769">
        <ele>1641.1</ele>
        <time>2019-01-07T03:41:50Z</time>
      </trkpt>
      <trkpt lat="42.39869" lon="2.38758">
        <ele>1640.8</ele>
        <time>2019-01-07T03:41:53Z</time>
      </trkpt>
      <trkpt lat="42.39872" lon="2.38745">
        <ele>1640.1</ele>
        <time>2019-01-07T03:41:56Z</time>
      </trkpt>
      <trkpt lat="42.39874" lon="2.38732">
        <ele>1640.7</ele>
        <time>2019-01-07T03:41:58Z</time>
      </trkpt>
      <trkpt lat="42.39878" lon="2.38721">
        <ele>1641.5</ele>
        <time>2019-01-07T03:42:01Z</time>
      </trkpt>
      <trkpt lat="42.39881" lon="2.38708">
        <ele>1642.4</ele>
        <time>2019-01-07T03:42:03Z</time>
      </trkpt>
      <trkpt lat="42.39884" lon="2.38696">
        <ele>1643</ele>
        <time>2019-01-07T03:42:06Z</time>
      </trkpt>
      <trkpt lat="42.39884" lon="2.38682">
        <ele>1643.8</ele>
        <time>2019-01-07T03:42:08Z</time>
      </trkpt>
      <trkpt lat="42.39886" lon="2.3867">
        <ele>1645.3</ele>
        <time>2019-01-07T03:42:11Z</time>
      </trkpt>
      <trkpt lat="42.39891" lon="2.38658">
        <ele>1647.6</ele>
        <time>2019-01-07T03:42:13Z</time>
      </trkpt>
      <trkpt lat="42.39896" lon="2.38648">
        <ele>1650.2</ele>
        <time>2019-01-07T03:42:16Z</time>
      </trkpt>
      <trkpt lat="42.39901" lon="2.38638">
        <ele>1651.6</ele>
        <time>2019-01-07T03:42:18Z</time>
      </trkpt>
      <trkpt lat="42.39905" lon="2.38626">
        <ele>1653.7</ele>
        <time>2019-01-07T03:42:21Z</time>
      </trkpt>
      <trkpt lat="42.39908" lon="2.38614">
        <ele>1655.2</ele>
        <time>2019-01-07T03:42:23Z</time>
      </trkpt>
      <trkpt lat="42.39912" lon="2.38602">
        <ele>1656.5</ele>
        <time>2019-01-07T03:42:26Z</time>
      </trkpt>
      <trkpt lat="42.39913" lon="2.38589">
        <ele>1657.5</ele>
        <time>2019-01-07T03:42:29Z</time>
      </trkpt>
      <trkpt lat="42.39915" lon="2.38576">
        <ele>1659.1</ele>
        <time>2019-01-07T03:42:31Z</time>
      </trkpt>
      <trkpt lat="42.39915" lon="2.38562">
        <ele>1659.2</ele>
        <time>2019-01-07T03:42:34Z</time>
      </trkpt>
      <trkpt lat="42.39916" lon="2.3855">
        <ele>1659.2</ele>
        <time>2019-01-07T03:42:36Z</time>
      </trkpt>
      <trkpt lat="42.39919" lon="2.38538">
        <ele>1659</ele>
        <time>2019-01-07T03:42:39Z</time>
      </trkpt>
      <trkpt lat="42.39927" lon="2.38529">
        <ele>1659.6</ele>
        <time>2019-01-07T03:42:42Z</time>
      </trkpt>
      <trkpt lat="42.39934" lon="2.3852">
        <ele>1660.6</ele>
        <time>2019-01-07T03:42:44Z</time>
      </trkpt>
      <trkpt lat="42.39943" lon="2.38517">
        <ele>1663.3</ele>
        <time>2019-01-07T03:42:47Z</time>
      </trkpt>
      <trkpt lat="42.39952" lon="2.38519">
        <ele>1665.7</ele>
        <time>2019-01-07T03:42:49Z</time>
      </trkpt>
      <trkpt lat="42.3996" lon="2.38511">
        <ele>1667.8</ele>
        <time>2019-01-07T03:42:52Z</time>
      </trkpt>
      <trkpt lat="42.39969" lon="2.38508">
        <ele>1669.1</ele>
        <time>2019-01-07T03:42:54Z</time>
      </trkpt>
      <trkpt lat="42.39977" lon="2.38501">
        <ele>1669.5</ele>
        <time>2019-01-07T03:42:57Z</time>
      </trkpt>
      <trkpt lat="42.39984" lon="2.38493">
        <ele>1670.7</ele>
        <time>2019-01-07T03:42:59Z</time>
      </trkpt>
      <trkpt lat="42.3999" lon="2.38483">
        <ele>1672.4</ele>
        <time>2019-01-07T03:43:02Z</time>
      </trkpt>
      <trkpt lat="42.39994" lon="2.38472">
        <ele>1673.2</ele>
        <time>2019-01-07T03:43:04Z</time>
      </trkpt>
      <trkpt lat="42.4" lon="2.3846">
        <ele>1674.3</ele>
        <time>2019-01-07T03:43:07Z</time>
      </trkpt>
      <trkpt lat="42.40005" lon="2.3845">
        <ele>1677</ele>
        <time>2019-01-07T03:43:09Z</time>
      </trkpt>
      <trkpt lat="42.40008" lon="2.38438">
        <ele>1678.1</ele>
        <time>2019-01-07T03:43:12Z</time>
      </trkpt>
      <trkpt lat="42.40011" lon="2.38426">
        <ele>1677.8</ele>
        <time>2019-01-07T03:43:14Z</time>
      </trkpt>
      <trkpt lat="42.40015" lon="2.38415">
        <ele>1677.1</ele>
        <time>2019-01-07T03:43:17Z</time>
      </trkpt>
      <trkpt lat="42.40021" lon="2.38404">
        <ele>1677.8</ele>
        <time>2019-01-07T03:43:20Z</time>
      </trkpt>
      <trkpt lat="42.40026" lon="2.38392">
        <ele>1678.5</ele>
        <time>2019-01-07T03:43:22Z</time>
      </trkpt>
      <trkpt lat="42.40029" lon="2.3838">
        <ele>1679</ele>
        <time>2019-01-07T03:43:25Z</time>
      </trkpt>
      <trkpt lat="42.40032" lon="2.38367">
        <ele>1679.3</ele>
        <time>2019-01-07T03:43:27Z</time>
      </trkpt>
      <trkpt lat="42.40034" lon="2.38355">
        <ele>1680.8</ele>
        <time>2019-01-07T03:43:30Z</time>
      </trkpt>
      <trkpt lat="42.40036" lon="2.38343">
        <ele>1682.4</ele>
        <time>2019-01-07T03:43:32Z</time>
      </trkpt>
      <trkpt lat="42.40038" lon="2.3833">
        <ele>1683.9</ele>
        <time>2019-01-07T03:43:35Z</time>
      </trkpt>
      <trkpt lat="42.4004" lon="2.38318">
        <ele>1685.1</ele>
        <time>2019-01-07T03:43:37Z</time>
      </trkpt>
      <trkpt lat="42.40043" lon="2.38306">
        <ele>1685</ele>
        <time>2019-01-07T03:43:40Z</time>
      </trkpt>
      <trkpt lat="42.40047" lon="2.38294">
        <ele>1685.2</ele>
        <time>2019-01-07T03:43:42Z</time>
      </trkpt>
      <trkpt lat="42.40049" lon="2.38282">
        <ele>1685.1</ele>
        <time>2019-01-07T03:43:45Z</time>
      </trkpt>
      <trkpt lat="42.4005" lon="2.38269">
        <ele>1685.1</ele>
        <time>2019-01-07T03:43:47Z</time>
      </trkpt>
      <trkpt lat="42.4005" lon="2.38257">
        <ele>1685.6</ele>
        <time>2019-01-07T03:43:50Z</time>
      </trkpt>
      <trkpt lat="42.40052" lon="2.38245">
        <ele>1686</ele>
        <time>2019-01-07T03:43:52Z</time>
      </trkpt>
      <trkpt lat="42.40054" lon="2.38231">
        <ele>1686.1</ele>
        <time>2019-01-07T03:43:55Z</time>
      </trkpt>
      <trkpt lat="42.40056" lon="2.38217">
        <ele>1685.2</ele>
        <time>2019-01-07T03:43:58Z</time>
      </trkpt>
      <trkpt lat="42.40057" lon="2.38204">
        <ele>1686.1</ele>
        <time>2019-01-07T03:44:00Z</time>
      </trkpt>
      <trkpt lat="42.4006" lon="2.38192">
        <ele>1687.1</ele>
        <time>2019-01-07T03:44:03Z</time>
      </trkpt>
      <trkpt lat="42.40059" lon="2.38179">
        <ele>1688.1</ele>
        <time>2019-01-07T03:44:05Z</time>
      </trkpt>
      <trkpt lat="42.40064" lon="2.38166">
        <ele>1688.1</ele>
        <time>2019-01-07T03:44:08Z</time>
      </trkpt>
      <trkpt lat="42.4007" lon="2.38155">
        <ele>1688.2</ele>
        <time>2019-01-07T03:44:11Z</time>
      </trkpt>
      <trkpt lat="42.40074" lon="2.38144">
        <ele>1688.1</ele>
        <time>2019-01-07T03:44:14Z</time>
      </trkpt>
      <trkpt lat="42.4008" lon="2.38131">
        <ele>1688</ele>
        <time>2019-01-07T03:44:17Z</time>
      </trkpt>
      <trkpt lat="42.40085" lon="2.3812">
        <ele>1688.1</ele>
        <time>2019-01-07T03:44:19Z</time>
      </trkpt>
      <trkpt lat="42.40089" lon="2.38108">
        <ele>1687.9</ele>
        <time>2019-01-07T03:44:22Z</time>
      </trkpt>
      <trkpt lat="42.40096" lon="2.38097">
        <ele>1685.4</ele>
        <time>2019-01-07T03:44:24Z</time>
      </trkpt>
      <trkpt lat="42.40101" lon="2.38087">
        <ele>1683.1</ele>
        <time>2019-01-07T03:44:27Z</time>
      </trkpt>
      <trkpt lat="42.40107" lon="2.38075">
        <ele>1682.6</ele>
        <time>2019-01-07T03:44:30Z</time>
      </trkpt>
      <trkpt lat="42.40112" lon="2.38063">
        <ele>1681.7</ele>
        <time>2019-01-07T03:44:32Z</time>
      </trkpt>
      <trkpt lat="42.40117" lon="2.38052">
        <ele>1680</ele>
        <time>2019-01-07T03:44:35Z</time>
      </trkpt>
      <trkpt lat="42.40123" lon="2.38042">
        <ele>1679.3</ele>
        <time>2019-01-07T03:44:38Z</time>
      </trkpt>
      <trkpt lat="42.40128" lon="2.38032">
        <ele>1678.6</ele>
        <time>2019-01-07T03:44:40Z</time>
      </trkpt>
      <trkpt lat="42.40131" lon="2.38019">
        <ele>1678.2</ele>
        <time>2019-01-07T03:44:43Z</time>
      </trkpt>
      <trkpt lat="42.40131" lon="2.38006">
        <ele>1677.9</ele>
        <time>2019-01-07T03:44:45Z</time>
      </trkpt>
      <trkpt lat="42.40132" lon="2.37994">
        <ele>1677.1</ele>
        <time>2019-01-07T03:44:48Z</time>
      </trkpt>
      <trkpt lat="42.40134" lon="2.3798">
        <ele>1677</ele>
        <time>2019-01-07T03:44:50Z</time>
      </trkpt>
      <trkpt lat="42.40137" lon="2.37968">
        <ele>1678</ele>
        <time>2019-01-07T03:44:53Z</time>
      </trkpt>
      <trkpt lat="42.40137" lon="2.37955">
        <ele>1678.8</ele>
        <time>2019-01-07T03:44:55Z</time>
      </trkpt>
      <trkpt lat="42.40137" lon="2.37943">
        <ele>1679.1</ele>
        <time>2019-01-07T03:44:58Z</time>
      </trkpt>
      <trkpt lat="42.40138" lon="2.3793">
        <ele>1679.7</ele>
        <time>2019-01-07T03:45:00Z</time>
      </trkpt>
      <trkpt lat="42.40136" lon="2.37917">
        <ele>1679.1</ele>
        <time>2019-01-07T03:45:03Z</time>
      </trkpt>
      <trkpt lat="42.40134" lon="2.37905">
        <ele>1678.1</ele>
        <time>2019-01-07T03:45:05Z</time>
      </trkpt>
      <trkpt lat="42.40134" lon="2.37891">
        <ele>1678.8</ele>
        <time>2019-01-07T03:45:08Z</time>
      </trkpt>
      <trkpt lat="42.40134" lon="2.37879">
        <ele>1679.7</ele>
        <time>2019-01-07T03:45:11Z</time>
      </trkpt>
      <trkpt lat="42.40132" lon="2.37866">
        <ele>1679.4</ele>
        <time>2019-01-07T03:45:13Z</time>
      </trkpt>
      <trkpt lat="42.40127" lon="2.37856">
        <ele>1677.8</ele>
        <time>2019-01-07T03:45:16Z</time>
      </trkpt>
      <trkpt lat="42.40124" lon="2.37844">
        <ele>1673.7</ele>
        <time>2019-01-07T03:45:18Z</time>
      </trkpt>
      <trkpt lat="42.4012" lon="2.37832">
        <ele>1672.4</ele>
        <time>2019-01-07T03:45:21Z</time>
      </trkpt>
      <trkpt lat="42.40119" lon="2.37818">
        <ele>1670.7</ele>
        <time>2019-01-07T03:45:23Z</time>
      </trkpt>
      <trkpt lat="42.40115" lon="2.37806">
        <ele>1669.1</ele>
        <time>2019-01-07T03:45:26Z</time>
      </trkpt>
      <trkpt lat="42.40112" lon="2.37793">
        <ele>1668.2</ele>
        <time>2019-01-07T03:45:29Z</time>
      </trkpt>
      <trkpt lat="42.40106" lon="2.37783">
        <ele>1663.2</ele>
        <time>2019-01-07T03:45:31Z</time>
      </trkpt>
      <trkpt lat="42.40104" lon="2.3777">
        <ele>1660.7</ele>
        <time>2019-01-07T03:45:34Z</time>
      </trkpt>
      <trkpt lat="42.40103" lon="2.37758">
        <ele>1658.6</ele>
        <time>2019-01-07T03:45:36Z</time>
      </trkpt>
      <trkpt lat="42.40099" lon="2.37746">
        <ele>1655.7</ele>
        <time>2019-01-07T03:45:39Z</time>
      </trkpt>
      <trkpt lat="42.40098" lon="2.37732">
        <ele>1652.1</ele>
        <time>2019-01-07T03:45:42Z</time>
      </trkpt>
      <trkpt lat="42.40096" lon="2.37719">
        <ele>1649.3</ele>
        <time>2019-01-07T03:45:44Z</time>
      </trkpt>
      <trkpt lat="42.40096" lon="2.37707">
        <ele>1646.5</ele>
        <time>2019-01-07T03:45:47Z</time>
      </trkpt>
      <trkpt lat="42.40097" lon="2.37694">
        <ele>1644.4</ele>
        <time>2019-01-07T03:45:49Z</time>
      </trkpt>
      <trkpt lat="42.40097" lon="2.3768">
        <ele>1641.2</ele>
        <time>2019-01-07T03:45:52Z</time>
      </trkpt>
      <trkpt lat="42.40097" lon="2.37667">
        <ele>1638.4</ele>
        <time>2019-01-07T03:45:55Z</time>
      </trkpt>
      <trkpt lat="42.40097" lon="2.37654">
        <ele>1636.3</ele>
        <time>2019-01-07T03:45:57Z</time>
      </trkpt>
      <trkpt lat="42.40094" lon="2.37641">
        <ele>1635.1</ele>
        <time>2019-01-07T03:46:00Z</time>
      </trkpt>
      <trkpt lat="42.40092" lon="2.37629">
        <ele>1635.1</ele>
        <time>2019-01-07T03:46:02Z</time>
      </trkpt>
      <trkpt lat="42.40091" lon="2.37614">
        <ele>1634.7</ele>
        <time>2019-01-07T03:46:05Z</time>
      </trkpt>
      <trkpt lat="42.4009" lon="2.37601">
        <ele>1634.1</ele>
        <time>2019-01-07T03:46:08Z</time>
      </trkpt>
      <trkpt lat="42.40087" lon="2.37589">
        <ele>1633.4</ele>
        <time>2019-01-07T03:46:10Z</time>
      </trkpt>
      <trkpt lat="42.40086" lon="2.37576">
        <ele>1633.1</ele>
        <time>2019-01-07T03:46:13Z</time>
      </trkpt>
      <trkpt lat="42.40087" lon="2.37564">
        <ele>1633.1</ele>
        <time>2019-01-07T03:46:15Z</time>
      </trkpt>
      <trkpt lat="42.40087" lon="2.37552">
        <ele>1633</ele>
        <time>2019-01-07T03:46:18Z</time>
      </trkpt>
      <trkpt lat="42.40087" lon="2.3754">
        <ele>1633.1</ele>
        <time>2019-01-07T03:46:20Z</time>
      </trkpt>
      <trkpt lat="42.40086" lon="2.37527">
        <ele>1634.1</ele>
        <time>2019-01-07T03:46:22Z</time>
      </trkpt>
      <trkpt lat="42.40086" lon="2.37514">
        <ele>1635</ele>
        <time>2019-01-07T03:46:25Z</time>
      </trkpt>
      <trkpt lat="42.40086" lon="2.37501">
        <ele>1637.1</ele>
        <time>2019-01-07T03:46:28Z</time>
      </trkpt>
      <trkpt lat="42.40085" lon="2.37488">
        <ele>1638.9</ele>
        <time>2019-01-07T03:46:30Z</time>
      </trkpt>
      <trkpt lat="42.40085" lon="2.37475">
        <ele>1640.6</ele>
        <time>2019-01-07T03:46:33Z</time>
      </trkpt>
      <trkpt lat="42.40082" lon="2.37463">
        <ele>1641.6</ele>
        <time>2019-01-07T03:46:35Z</time>
      </trkpt>
      <trkpt lat="42.4008" lon="2.37451">
        <ele>1642</ele>
        <time>2019-01-07T03:46:38Z</time>
      </trkpt>
      <trkpt lat="42.40077" lon="2.37439">
        <ele>1642.2</ele>
        <time>2019-01-07T03:46:40Z</time>
      </trkpt>
      <trkpt lat="42.40072" lon="2.37428">
        <ele>1644.4</ele>
        <time>2019-01-07T03:46:43Z</time>
      </trkpt>
      <trkpt lat="42.40069" lon="2.37416">
        <ele>1647.2</ele>
        <time>2019-01-07T03:46:45Z</time>
      </trkpt>
      <trkpt lat="42.40068" lon="2.37403">
        <ele>1649</ele>
        <time>2019-01-07T03:46:48Z</time>
      </trkpt>
      <trkpt lat="42.40067" lon="2.3739">
        <ele>1650.8</ele>
        <time>2019-01-07T03:46:50Z</time>
      </trkpt>
      <trkpt lat="42.40065" lon="2.37378">
        <ele>1653.9</ele>
        <time>2019-01-07T03:46:53Z</time>
      </trkpt>
      <trkpt lat="42.40062" lon="2.37366">
        <ele>1655.2</ele>
        <time>2019-01-07T03:46:55Z</time>
      </trkpt>
      <trkpt lat="42.40061" lon="2.37354">
        <ele>1656.8</ele>
        <time>2019-01-07T03:46:58Z</time>
      </trkpt>
      <trkpt lat="42.4006" lon="2.37341">
        <ele>1659.4</ele>
        <time>2019-01-07T03:47:00Z</time>
      </trkpt>
      <trkpt lat="42.40058" lon="2.37328">
        <ele>1660.7</ele>
        <time>2019-01-07T03:47:03Z</time>
      </trkpt>
      <trkpt lat="42.40058" lon="2.37315">
        <ele>1662.5</ele>
        <time>2019-01-07T03:47:05Z</time>
      </trkpt>
      <trkpt lat="42.40057" lon="2.37301">
        <ele>1664</ele>
        <time>2019-01-07T03:47:08Z</time>
      </trkpt>
      <trkpt lat="42.40056" lon="2.37287">
        <ele>1665.5</ele>
        <time>2019-01-07T03:47:11Z</time>
      </trkpt>
      <trkpt lat="42.40052" lon="2.37275">
        <ele>1666.4</ele>
        <time>2019-01-07T03:47:13Z</time>
      </trkpt>
      <trkpt lat="42.40051" lon="2.37263">
        <ele>1667.7</ele>
        <time>2019-01-07T03:47:16Z</time>
      </trkpt>
      <trkpt lat="42.40048" lon="2.3725">
        <ele>1669.8</ele>
        <time>2019-01-07T03:47:18Z</time>
      </trkpt>
      <trkpt lat="42.40047" lon="2.37238">
        <ele>1671</ele>
        <time>2019-01-07T03:47:21Z</time>
      </trkpt>
      <trkpt lat="42.40045" lon="2.37225">
        <ele>1673.6</ele>
        <time>2019-01-07T03:47:23Z</time>
      </trkpt>
      <trkpt lat="42.40044" lon="2.37212">
        <ele>1677.8</ele>
        <time>2019-01-07T03:47:26Z</time>
      </trkpt>
      <trkpt lat="42.40045" lon="2.372">
        <ele>1680.4</ele>
        <time>2019-01-07T03:47:29Z</time>
      </trkpt>
      <trkpt lat="42.40041" lon="2.37188">
        <ele>1683.4</ele>
        <time>2019-01-07T03:47:31Z</time>
      </trkpt>
      <trkpt lat="42.4004" lon="2.37175">
        <ele>1684</ele>
        <time>2019-01-07T03:47:34Z</time>
      </trkpt>
      <trkpt lat="42.40041" lon="2.37162">
        <ele>1684.1</ele>
        <time>2019-01-07T03:47:36Z</time>
      </trkpt>
      <trkpt lat="42.40043" lon="2.37149">
        <ele>1684</ele>
        <time>2019-01-07T03:47:39Z</time>
      </trkpt>
      <trkpt lat="42.40047" lon="2.37138">
        <ele>1684.3</ele>
        <time>2019-01-07T03:47:41Z</time>
      </trkpt>
      <trkpt lat="42.40049" lon="2.37126">
        <ele>1685</ele>
        <time>2019-01-07T03:47:44Z</time>
      </trkpt>
      <trkpt lat="42.40052" lon="2.37112">
        <ele>1684.4</ele>
        <time>2019-01-07T03:47:46Z</time>
      </trkpt>
      <trkpt lat="42.40055" lon="2.37099">
        <ele>1684.4</ele>
        <time>2019-01-07T03:47:49Z</time>
      </trkpt>
      <trkpt lat="42.40057" lon="2.37087">
        <ele>1685</ele>
        <time>2019-01-07T03:47:52Z</time>
      </trkpt>
      <trkpt lat="42.40059" lon="2.37074">
        <ele>1685.1</ele>
        <time>2019-01-07T03:47:54Z</time>
      </trkpt>
      <trkpt lat="42.40063" lon="2.37063">
        <ele>1685.2</ele>
        <time>2019-01-07T03:47:57Z</time>
      </trkpt>
      <trkpt lat="42.40067" lon="2.37051">
        <ele>1685.6</ele>
        <time>2019-01-07T03:47:59Z</time>
      </trkpt>
      <trkpt lat="42.40069" lon="2.37039">
        <ele>1686.2</ele>
        <time>2019-01-07T03:48:02Z</time>
      </trkpt>
      <trkpt lat="42.40075" lon="2.37029">
        <ele>1685.8</ele>
        <time>2019-01-07T03:48:04Z</time>
      </trkpt>
      <trkpt lat="42.4008" lon="2.37019">
        <ele>1685.1</ele>
        <time>2019-01-07T03:48:07Z</time>
      </trkpt>
      <trkpt lat="42.40082" lon="2.37005">
        <ele>1685</ele>
        <time>2019-01-07T03:48:09Z</time>
      </trkpt>
      <trkpt lat="42.40084" lon="2.36993">
        <ele>1684.7</ele>
        <time>2019-01-07T03:48:12Z</time>
      </trkpt>
      <trkpt lat="42.40087" lon="2.36979">
        <ele>1684.7</ele>
        <time>2019-01-07T03:48:15Z</time>
      </trkpt>
      <trkpt lat="42.40088" lon="2.36967">
        <ele>1686.1</ele>
        <time>2019-01-07T03:48:17Z</time>
      </trkpt>
      <trkpt lat="42.4009" lon="2.36954">
        <ele>1686.9</ele>
        <time>2019-01-07T03:48:20Z</time>
      </trkpt>
      <trkpt lat="42.40093" lon="2.36942">
        <ele>1687.1</ele>
        <time>2019-01-07T03:48:22Z</time>
      </trkpt>
      <trkpt lat="42.40097" lon="2.36929">
        <ele>1687.1</ele>
        <time>2019-01-07T03:48:25Z</time>
      </trkpt>
      <trkpt lat="42.401" lon="2.36917">
        <ele>1687.4</ele>
        <time>2019-01-07T03:48:27Z</time>
      </trkpt>
      <trkpt lat="42.40106" lon="2.36907">
        <ele>1688.6</ele>
        <time>2019-01-07T03:48:30Z</time>
      </trkpt>
      <trkpt lat="42.40111" lon="2.36896">
        <ele>1689.5</ele>
        <time>2019-01-07T03:48:33Z</time>
      </trkpt>
      <trkpt lat="42.40114" lon="2.36884">
        <ele>1690.9</ele>
        <time>2019-01-07T03:48:35Z</time>
      </trkpt>
      <trkpt lat="42.40119" lon="2.36874">
        <ele>1692.3</ele>
        <time>2019-01-07T03:48:37Z</time>
      </trkpt>
      <trkpt lat="42.40125" lon="2.36866">
        <ele>1693.8</ele>
        <time>2019-01-07T03:48:40Z</time>
      </trkpt>
      <trkpt lat="42.40131" lon="2.36856">
        <ele>1695.5</ele>
        <time>2019-01-07T03:48:42Z</time>
      </trkpt>
      <trkpt lat="42.40137" lon="2.36845">
        <ele>1697.3</ele>
        <time>2019-01-07T03:48:45Z</time>
      </trkpt>
      <trkpt lat="42.40142" lon="2.36835">
        <ele>1698.2</ele>
        <time>2019-01-07T03:48:47Z</time>
      </trkpt>
      <trkpt lat="42.40146" lon="2.36824">
        <ele>1699</ele>
        <time>2019-01-07T03:48:50Z</time>
      </trkpt>
      <trkpt lat="42.40153" lon="2.36814">
        <ele>1701</ele>
        <time>2019-01-07T03:48:52Z</time>
      </trkpt>
      <trkpt lat="42.40156" lon="2.36803">
        <ele>1702</ele>
        <time>2019-01-07T03:48:55Z</time>
      </trkpt>
      <trkpt lat="42.40158" lon="2.3679">
        <ele>1703.7</ele>
        <time>2019-01-07T03:48:57Z</time>
      </trkpt>
      <trkpt lat="42.40162" lon="2.36778">
        <ele>1704.8</ele>
        <time>2019-01-07T03:49:00Z</time>
      </trkpt>
      <trkpt lat="42.40168" lon="2.36769">
        <ele>1708.2</ele>
        <time>2019-01-07T03:49:02Z</time>
      </trkpt>
      <trkpt lat="42.40175" lon="2.36759">
        <ele>1709.2</ele>
        <time>2019-01-07T03:49:05Z</time>
      </trkpt>
      <trkpt lat="42.40179" lon="2.36748">
        <ele>1710.5</ele>
        <time>2019-01-07T03:49:07Z</time>
      </trkpt>
      <trkpt lat="42.40185" lon="2.36738">
        <ele>1712.4</ele>
        <time>2019-01-07T03:49:10Z</time>
      </trkpt>
      <trkpt lat="42.40189" lon="2.36727">
        <ele>1714.2</ele>
        <time>2019-01-07T03:49:12Z</time>
      </trkpt>
      <trkpt lat="42.40194" lon="2.36716">
        <ele>1718.5</ele>
        <time>2019-01-07T03:49:15Z</time>
      </trkpt>
      <trkpt lat="42.40197" lon="2.36704">
        <ele>1721.5</ele>
        <time>2019-01-07T03:49:18Z</time>
      </trkpt>
      <trkpt lat="42.40203" lon="2.36694">
        <ele>1724.6</ele>
        <time>2019-01-07T03:49:20Z</time>
      </trkpt>
      <trkpt lat="42.40208" lon="2.36683">
        <ele>1727.5</ele>
        <time>2019-01-07T03:49:23Z</time>
      </trkpt>
      <trkpt lat="42.40215" lon="2.36674">
        <ele>1732.8</ele>
        <time>2019-01-07T03:49:25Z</time>
      </trkpt>
      <trkpt lat="42.40221" lon="2.36665">
        <ele>1734</ele>
        <time>2019-01-07T03:49:28Z</time>
      </trkpt>
      <trkpt lat="42.40226" lon="2.36654">
        <ele>1735</ele>
        <time>2019-01-07T03:49:30Z</time>
      </trkpt>
      <trkpt lat="42.40226" lon="2.36641">
        <ele>1735.9</ele>
        <time>2019-01-07T03:49:33Z</time>
      </trkpt>
      <trkpt lat="42.40228" lon="2.36629">
        <ele>1738.2</ele>
        <time>2019-01-07T03:49:35Z</time>
      </trkpt>
      <trkpt lat="42.40232" lon="2.36617">
        <ele>1740</ele>
        <time>2019-01-07T03:49:38Z</time>
      </trkpt>
      <trkpt lat="42.40231" lon="2.36605">
        <ele>1740.1</ele>
        <time>2019-01-07T03:49:40Z</time>
      </trkpt>
      <trkpt lat="42.40229" lon="2.36592">
        <ele>1741.7</ele>
        <time>2019-01-07T03:49:43Z</time>
      </trkpt>
      <trkpt lat="42.40231" lon="2.36579">
        <ele>1742.1</ele>
        <time>2019-01-07T03:49:45Z</time>
      </trkpt>
      <trkpt lat="42.40235" lon="2.36567">
        <ele>1742.1</ele>
        <time>2019-01-07T03:49:48Z</time>
      </trkpt>
      <trkpt lat="42.40237" lon="2.36553">
        <ele>1742.1</ele>
        <time>2019-01-07T03:49:51Z</time>
      </trkpt>
      <trkpt lat="42.40237" lon="2.3654">
        <ele>1742</ele>
        <time>2019-01-07T03:49:53Z</time>
      </trkpt>
      <trkpt lat="42.40235" lon="2.36527">
        <ele>1742.5</ele>
        <time>2019-01-07T03:49:56Z</time>
      </trkpt>
      <trkpt lat="42.40234" lon="2.36514">
        <ele>1744.3</ele>
        <time>2019-01-07T03:49:58Z</time>
      </trkpt>
      <trkpt lat="42.40234" lon="2.36501">
        <ele>1746.9</ele>
        <time>2019-01-07T03:50:01Z</time>
      </trkpt>
      <trkpt lat="42.40232" lon="2.36488">
        <ele>1748.9</ele>
        <time>2019-01-07T03:50:03Z</time>
      </trkpt>
      <trkpt lat="42.4023" lon="2.36475">
        <ele>1750.6</ele>
        <time>2019-01-07T03:50:06Z</time>
      </trkpt>
      <trkpt lat="42.4023" lon="2.36462">
        <ele>1753</ele>
        <time>2019-01-07T03:50:09Z</time>
      </trkpt>
      <trkpt lat="42.40227" lon="2.3645">
        <ele>1756</ele>
        <time>2019-01-07T03:50:11Z</time>
      </trkpt>
      <trkpt lat="42.40225" lon="2.36437">
        <ele>1757.6</ele>
        <time>2019-01-07T03:50:14Z</time>
      </trkpt>
      <trkpt lat="42.40228" lon="2.36425">
        <ele>1758.1</ele>
        <time>2019-01-07T03:50:16Z</time>
      </trkpt>
      <trkpt lat="42.40232" lon="2.36413">
        <ele>1759</ele>
        <time>2019-01-07T03:50:19Z</time>
      </trkpt>
      <trkpt lat="42.40234" lon="2.364">
        <ele>1760.9</ele>
        <time>2019-01-07T03:50:22Z</time>
      </trkpt>
      <trkpt lat="42.40235" lon="2.36387">
        <ele>1762.9</ele>
        <time>2019-01-07T03:50:24Z</time>
      </trkpt>
      <trkpt lat="42.40236" lon="2.36374">
        <ele>1765.1</ele>
        <time>2019-01-07T03:50:27Z</time>
      </trkpt>
      <trkpt lat="42.40236" lon="2.36362">
        <ele>1766.8</ele>
        <time>2019-01-07T03:50:29Z</time>
      </trkpt>
      <trkpt lat="42.40241" lon="2.36351">
        <ele>1769.5</ele>
        <time>2019-01-07T03:50:32Z</time>
      </trkpt>
      <trkpt lat="42.40248" lon="2.36342">
        <ele>1773.1</ele>
        <time>2019-01-07T03:50:34Z</time>
      </trkpt>
      <trkpt lat="42.40245" lon="2.3633">
        <ele>1775.5</ele>
        <time>2019-01-07T03:50:37Z</time>
      </trkpt>
      <trkpt lat="42.40241" lon="2.36318">
        <ele>1778.4</ele>
        <time>2019-01-07T03:50:39Z</time>
      </trkpt>
      <trkpt lat="42.40243" lon="2.36305">
        <ele>1783.2</ele>
        <time>2019-01-07T03:50:42Z</time>
      </trkpt>
      <trkpt lat="42.40242" lon="2.36293">
        <ele>1785</ele>
        <time>2019-01-07T03:50:44Z</time>
      </trkpt>
      <trkpt lat="42.4024" lon="2.3628">
        <ele>1787</ele>
        <time>2019-01-07T03:50:47Z</time>
      </trkpt>
      <trkpt lat="42.4024" lon="2.36267">
        <ele>1788.1</ele>
        <time>2019-01-07T03:50:49Z</time>
      </trkpt>
      <trkpt lat="42.4024" lon="2.36254">
        <ele>1790.6</ele>
        <time>2019-01-07T03:50:52Z</time>
      </trkpt>
      <trkpt lat="42.40239" lon="2.36242">
        <ele>1792.9</ele>
        <time>2019-01-07T03:50:54Z</time>
      </trkpt>
      <trkpt lat="42.40239" lon="2.36229">
        <ele>1795.3</ele>
        <time>2019-01-07T03:50:57Z</time>
      </trkpt>
      <trkpt lat="42.40238" lon="2.36216">
        <ele>1796.1</ele>
        <time>2019-01-07T03:50:59Z</time>
      </trkpt>
      <trkpt lat="42.4024" lon="2.36203">
        <ele>1799.5</ele>
        <time>2019-01-07T03:51:02Z</time>
      </trkpt>
      <trkpt lat="42.40245" lon="2.36192">
        <ele>1801.5</ele>
        <time>2019-01-07T03:51:05Z</time>
      </trkpt>
      <trkpt lat="42.4025" lon="2.36181">
        <ele>1803.2</ele>
        <time>2019-01-07T03:51:07Z</time>
      </trkpt>
      <trkpt lat="42.40258" lon="2.36174">
        <ele>1805</ele>
        <time>2019-01-07T03:51:10Z</time>
      </trkpt>
      <trkpt lat="42.40262" lon="2.36163">
        <ele>1807.6</ele>
        <time>2019-01-07T03:51:12Z</time>
      </trkpt>
      <trkpt lat="42.40262" lon="2.3615">
        <ele>1809.7</ele>
        <time>2019-01-07T03:51:15Z</time>
      </trkpt>
      <trkpt lat="42.40264" lon="2.36137">
        <ele>1812.1</ele>
        <time>2019-01-07T03:51:17Z</time>
      </trkpt>
      <trkpt lat="42.40264" lon="2.36123">
        <ele>1814.3</ele>
        <time>2019-01-07T03:51:20Z</time>
      </trkpt>
      <trkpt lat="42.40269" lon="2.36114">
        <ele>1816.4</ele>
        <time>2019-01-07T03:51:22Z</time>
      </trkpt>
      <trkpt lat="42.40276" lon="2.36104">
        <ele>1819</ele>
        <time>2019-01-07T03:51:25Z</time>
      </trkpt>
      <trkpt lat="42.40281" lon="2.36092">
        <ele>1820.5</ele>
        <time>2019-01-07T03:51:28Z</time>
      </trkpt>
      <trkpt lat="42.40284" lon="2.3608">
        <ele>1821.9</ele>
        <time>2019-01-07T03:51:30Z</time>
      </trkpt>
      <trkpt lat="42.40289" lon="2.36068">
        <ele>1823.8</ele>
        <time>2019-01-07T03:51:33Z</time>
      </trkpt>
      <trkpt lat="42.40293" lon="2.36057">
        <ele>1825.7</ele>
        <time>2019-01-07T03:51:35Z</time>
      </trkpt>
      <trkpt lat="42.40298" lon="2.36046">
        <ele>1826.5</ele>
        <time>2019-01-07T03:51:38Z</time>
      </trkpt>
      <trkpt lat="42.40303" lon="2.36035">
        <ele>1828</ele>
        <time>2019-01-07T03:51:40Z</time>
      </trkpt>
      <trkpt lat="42.4031" lon="2.36027">
        <ele>1830</ele>
        <time>2019-01-07T03:51:43Z</time>
      </trkpt>
      <trkpt lat="42.40317" lon="2.36017">
        <ele>1831.7</ele>
        <time>2019-01-07T03:51:45Z</time>
      </trkpt>
      <trkpt lat="42.4032" lon="2.36005">
        <ele>1833.7</ele>
        <time>2019-01-07T03:51:48Z</time>
      </trkpt>
      <trkpt lat="42.40325" lon="2.35993">
        <ele>1835.8</ele>
        <time>2019-01-07T03:51:51Z</time>
      </trkpt>
      <trkpt lat="42.40329" lon="2.35982">
        <ele>1838.1</ele>
        <time>2019-01-07T03:51:53Z</time>
      </trkpt>
      <trkpt lat="42.40336" lon="2.35973">
        <ele>1840.7</ele>
        <time>2019-01-07T03:51:56Z</time>
      </trkpt>
      <trkpt lat="42.4034" lon="2.35961">
        <ele>1843.9</ele>
        <time>2019-01-07T03:51:58Z</time>
      </trkpt>
      <trkpt lat="42.40331" lon="2.35954">
        <ele>1845.4</ele>
        <time>2019-01-07T03:52:01Z</time>
      </trkpt>
      <trkpt lat="42.40339" lon="2.35959">
        <ele>1846.1</ele>
        <time>2019-01-07T03:52:03Z</time>
      </trkpt>
      <trkpt lat="42.40344" lon="2.35948">
        <ele>1846.7</ele>
        <time>2019-01-07T03:52:06Z</time>
      </trkpt>
      <trkpt lat="42.40351" lon="2.35939">
        <ele>1848.8</ele>
        <time>2019-01-07T03:52:09Z</time>
      </trkpt>
      <trkpt lat="42.40356" lon="2.35928">
        <ele>1853.1</ele>
        <time>2019-01-07T03:52:11Z</time>
      </trkpt>
      <trkpt lat="42.40359" lon="2.35916">
        <ele>1853.6</ele>
        <time>2019-01-07T03:52:13Z</time>
      </trkpt>
      <trkpt lat="42.40362" lon="2.35904">
        <ele>1855.1</ele>
        <time>2019-01-07T03:52:16Z</time>
      </trkpt>
      <trkpt lat="42.40365" lon="2.35893">
        <ele>1858.1</ele>
        <time>2019-01-07T03:52:18Z</time>
      </trkpt>
      <trkpt lat="42.40366" lon="2.3588">
        <ele>1860.1</ele>
        <time>2019-01-07T03:52:21Z</time>
      </trkpt>
      <trkpt lat="42.40368" lon="2.35867">
        <ele>1861.7</ele>
        <time>2019-01-07T03:52:23Z</time>
      </trkpt>
      <trkpt lat="42.40369" lon="2.35854">
        <ele>1863.6</ele>
        <time>2019-01-07T03:52:26Z</time>
      </trkpt>
      <trkpt lat="42.4037" lon="2.35842">
        <ele>1865.1</ele>
        <time>2019-01-07T03:52:29Z</time>
      </trkpt>
      <trkpt lat="42.40373" lon="2.35829">
        <ele>1865.7</ele>
        <time>2019-01-07T03:52:31Z</time>
      </trkpt>
      <trkpt lat="42.40377" lon="2.35818">
        <ele>1867.5</ele>
        <time>2019-01-07T03:52:33Z</time>
      </trkpt>
      <trkpt lat="42.4038" lon="2.35806">
        <ele>1869.1</ele>
        <time>2019-01-07T03:52:36Z</time>
      </trkpt>
      <trkpt lat="42.40384" lon="2.35794">
        <ele>1871.2</ele>
        <time>2019-01-07T03:52:39Z</time>
      </trkpt>
      <trkpt lat="42.40388" lon="2.35782">
        <ele>1873.6</ele>
        <time>2019-01-07T03:52:41Z</time>
      </trkpt>
      <trkpt lat="42.40392" lon="2.35771">
        <ele>1875.3</ele>
        <time>2019-01-07T03:52:44Z</time>
      </trkpt>
      <trkpt lat="42.40397" lon="2.35759">
        <ele>1876.7</ele>
        <time>2019-01-07T03:52:46Z</time>
      </trkpt>
      <trkpt lat="42.404" lon="2.35747">
        <ele>1879.1</ele>
        <time>2019-01-07T03:52:49Z</time>
      </trkpt>
      <trkpt lat="42.40402" lon="2.35735">
        <ele>1881</ele>
        <time>2019-01-07T03:52:51Z</time>
      </trkpt>
      <trkpt lat="42.40403" lon="2.35722">
        <ele>1883.1</ele>
        <time>2019-01-07T03:52:54Z</time>
      </trkpt>
      <trkpt lat="42.40407" lon="2.35711">
        <ele>1884.2</ele>
        <time>2019-01-07T03:52:56Z</time>
      </trkpt>
      <trkpt lat="42.40407" lon="2.35698">
        <ele>1886.5</ele>
        <time>2019-01-07T03:52:59Z</time>
      </trkpt>
      <trkpt lat="42.40406" lon="2.35686">
        <ele>1888.4</ele>
        <time>2019-01-07T03:53:01Z</time>
      </trkpt>
      <trkpt lat="42.40409" lon="2.35674">
        <ele>1889.1</ele>
        <time>2019-01-07T03:53:04Z</time>
      </trkpt>
      <trkpt lat="42.40413" lon="2.35664">
        <ele>1891.1</ele>
        <time>2019-01-07T03:53:06Z</time>
      </trkpt>
      <trkpt lat="42.40418" lon="2.35653">
        <ele>1892</ele>
        <time>2019-01-07T03:53:09Z</time>
      </trkpt>
      <trkpt lat="42.40421" lon="2.35641">
        <ele>1892.1</ele>
        <time>2019-01-07T03:53:11Z</time>
      </trkpt>
      <trkpt lat="42.40426" lon="2.3563">
        <ele>1892.7</ele>
        <time>2019-01-07T03:53:13Z</time>
      </trkpt>
      <trkpt lat="42.4043" lon="2.35619">
        <ele>1893.5</ele>
        <time>2019-01-07T03:53:16Z</time>
      </trkpt>
      <trkpt lat="42.40437" lon="2.35609">
        <ele>1894</ele>
        <time>2019-01-07T03:53:19Z</time>
      </trkpt>
      <trkpt lat="42.40443" lon="2.35598">
        <ele>1894.2</ele>
        <time>2019-01-07T03:53:21Z</time>
      </trkpt>
      <trkpt lat="42.40448" lon="2.35588">
        <ele>1894.9</ele>
        <time>2019-01-07T03:53:24Z</time>
      </trkpt>
      <trkpt lat="42.40453" lon="2.35578">
        <ele>1894.4</ele>
        <time>2019-01-07T03:53:26Z</time>
      </trkpt>
      <trkpt lat="42.40458" lon="2.35566">
        <ele>1894.1</ele>
        <time>2019-01-07T03:53:29Z</time>
      </trkpt>
      <trkpt lat="42.40461" lon="2.35553">
        <ele>1894.3</ele>
        <time>2019-01-07T03:53:32Z</time>
      </trkpt>
      <trkpt lat="42.40466" lon="2.35541">
        <ele>1895</ele>
        <time>2019-01-07T03:53:34Z</time>
      </trkpt>
      <trkpt lat="42.40471" lon="2.3553">
        <ele>1895.8</ele>
        <time>2019-01-07T03:53:37Z</time>
      </trkpt>
      <trkpt lat="42.40476" lon="2.35519">
        <ele>1896.7</ele>
        <time>2019-01-07T03:53:39Z</time>
      </trkpt>
      <trkpt lat="42.40479" lon="2.35507">
        <ele>1897.9</ele>
        <time>2019-01-07T03:53:42Z</time>
      </trkpt>
      <trkpt lat="42.40481" lon="2.35495">
        <ele>1901.9</ele>
        <time>2019-01-07T03:53:44Z</time>
      </trkpt>
      <trkpt lat="42.40485" lon="2.35484">
        <ele>1902.1</ele>
        <time>2019-01-07T03:53:47Z</time>
      </trkpt>
      <trkpt lat="42.40489" lon="2.35472">
        <ele>1902.9</ele>
        <time>2019-01-07T03:53:49Z</time>
      </trkpt>
      <trkpt lat="42.40493" lon="2.35461">
        <ele>1905.1</ele>
        <time>2019-01-07T03:53:52Z</time>
      </trkpt>
      <trkpt lat="42.40497" lon="2.35449">
        <ele>1907</ele>
        <time>2019-01-07T03:53:54Z</time>
      </trkpt>
      <trkpt lat="42.40503" lon="2.35438">
        <ele>1908</ele>
        <time>2019-01-07T03:53:57Z</time>
      </trkpt>
      <trkpt lat="42.40508" lon="2.35427">
        <ele>1911.2</ele>
        <time>2019-01-07T03:54:00Z</time>
      </trkpt>
      <trkpt lat="42.4051" lon="2.35415">
        <ele>1912.2</ele>
        <time>2019-01-07T03:54:02Z</time>
      </trkpt>
      <trkpt lat="42.40511" lon="2.35402">
        <ele>1914.9</ele>
        <time>2019-01-07T03:54:04Z</time>
      </trkpt>
      <trkpt lat="42.40516" lon="2.35392">
        <ele>1915.1</ele>
        <time>2019-01-07T03:54:07Z</time>
      </trkpt>
      <trkpt lat="42.40521" lon="2.35381">
        <ele>1916.4</ele>
        <time>2019-01-07T03:54:09Z</time>
      </trkpt>
      <trkpt lat="42.40526" lon="2.3537">
        <ele>1917</ele>
        <time>2019-01-07T03:54:12Z</time>
      </trkpt>
      <trkpt lat="42.4053" lon="2.35357">
        <ele>1917.2</ele>
        <time>2019-01-07T03:54:15Z</time>
      </trkpt>
      <trkpt lat="42.40534" lon="2.35345">
        <ele>1918</ele>
        <time>2019-01-07T03:54:17Z</time>
      </trkpt>
      <trkpt lat="42.40537" lon="2.35333">
        <ele>1918.8</ele>
        <time>2019-01-07T03:54:20Z</time>
      </trkpt>
      <trkpt lat="42.4054" lon="2.3532">
        <ele>1919.8</ele>
        <time>2019-01-07T03:54:23Z</time>
      </trkpt>
      <trkpt lat="42.40544" lon="2.35309">
        <ele>1921.6</ele>
        <time>2019-01-07T03:54:25Z</time>
      </trkpt>
      <trkpt lat="42.40549" lon="2.35297">
        <ele>1923.2</ele>
        <time>2019-01-07T03:54:28Z</time>
      </trkpt>
      <trkpt lat="42.40552" lon="2.35286">
        <ele>1925.1</ele>
        <time>2019-01-07T03:54:30Z</time>
      </trkpt>
      <trkpt lat="42.40556" lon="2.35274">
        <ele>1927.1</ele>
        <time>2019-01-07T03:54:33Z</time>
      </trkpt>
      <trkpt lat="42.40561" lon="2.35262">
        <ele>1928.3</ele>
        <time>2019-01-07T03:54:35Z</time>
      </trkpt>
      <trkpt lat="42.40565" lon="2.3525">
        <ele>1930.4</ele>
        <time>2019-01-07T03:54:38Z</time>
      </trkpt>
      <trkpt lat="42.40569" lon="2.35237">
        <ele>1932.4</ele>
        <time>2019-01-07T03:54:41Z</time>
      </trkpt>
      <trkpt lat="42.40571" lon="2.35225">
        <ele>1934.8</ele>
        <time>2019-01-07T03:54:43Z</time>
      </trkpt>
      <trkpt lat="42.40573" lon="2.35212">
        <ele>1937</ele>
        <time>2019-01-07T03:54:46Z</time>
      </trkpt>
      <trkpt lat="42.4058" lon="2.35203">
        <ele>1938.5</ele>
        <time>2019-01-07T03:54:48Z</time>
      </trkpt>
      <trkpt lat="42.40584" lon="2.35191">
        <ele>1939.7</ele>
        <time>2019-01-07T03:54:51Z</time>
      </trkpt>
      <trkpt lat="42.40588" lon="2.35179">
        <ele>1942.4</ele>
        <time>2019-01-07T03:54:53Z</time>
      </trkpt>
      <trkpt lat="42.40589" lon="2.35167">
        <ele>1945.1</ele>
        <time>2019-01-07T03:54:56Z</time>
      </trkpt>
      <trkpt lat="42.40593" lon="2.35155">
        <ele>1946.2</ele>
        <time>2019-01-07T03:54:58Z</time>
      </trkpt>
      <trkpt lat="42.40598" lon="2.35144">
        <ele>1948.7</ele>
        <time>2019-01-07T03:55:01Z</time>
      </trkpt>
      <trkpt lat="42.40602" lon="2.35133">
        <ele>1950.1</ele>
        <time>2019-01-07T03:55:03Z</time>
      </trkpt>
      <trkpt lat="42.40607" lon="2.35122">
        <ele>1952.3</ele>
        <time>2019-01-07T03:55:06Z</time>
      </trkpt>
      <trkpt lat="42.40606" lon="2.3511">
        <ele>1955.5</ele>
        <time>2019-01-07T03:55:08Z</time>
      </trkpt>
      <trkpt lat="42.40612" lon="2.351">
        <ele>1957.3</ele>
        <time>2019-01-07T03:55:11Z</time>
      </trkpt>
      <trkpt lat="42.40619" lon="2.35092">
        <ele>1961.3</ele>
        <time>2019-01-07T03:55:13Z</time>
      </trkpt>
      <trkpt lat="42.40625" lon="2.35082">
        <ele>1964.1</ele>
        <time>2019-01-07T03:55:16Z</time>
      </trkpt>
      <trkpt lat="42.4063" lon="2.35072">
        <ele>1969.1</ele>
        <time>2019-01-07T03:55:18Z</time>
      </trkpt>
      <trkpt lat="42.40631" lon="2.35059">
        <ele>1971.2</ele>
        <time>2019-01-07T03:55:21Z</time>
      </trkpt>
      <trkpt lat="42.40632" lon="2.35047">
        <ele>1973.9</ele>
        <time>2019-01-07T03:55:23Z</time>
      </trkpt>
      <trkpt lat="42.40635" lon="2.35034">
        <ele>1976.8</ele>
        <time>2019-01-07T03:55:26Z</time>
      </trkpt>
      <trkpt lat="42.40639" lon="2.35023">
        <ele>1982.1</ele>
        <time>2019-01-07T03:55:28Z</time>
      </trkpt>
      <trkpt lat="42.40645" lon="2.35013">
        <ele>1983</ele>
        <time>2019-01-07T03:55:31Z</time>
      </trkpt>
      <trkpt lat="42.40649" lon="2.35002">
        <ele>1988.9</ele>
        <time>2019-01-07T03:55:33Z</time>
      </trkpt>
      <trkpt lat="42.40655" lon="2.34992">
        <ele>1994</ele>
        <time>2019-01-07T03:55:36Z</time>
      </trkpt>
      <trkpt lat="42.40658" lon="2.3498">
        <ele>1996.4</ele>
        <time>2019-01-07T03:55:38Z</time>
      </trkpt>
      <trkpt lat="42.40663" lon="2.34969">
        <ele>1999.8</ele>
        <time>2019-01-07T03:55:41Z</time>
      </trkpt>
      <trkpt lat="42.40665" lon="2.34957">
        <ele>2005.5</ele>
        <time>2019-01-07T03:55:43Z</time>
      </trkpt>
      <trkpt lat="42.40671" lon="2.34946">
        <ele>2008.7</ele>
        <time>2019-01-07T03:55:46Z</time>
      </trkpt>
      <trkpt lat="42.40672" lon="2.34934">
        <ele>2013.1</ele>
        <time>2019-01-07T03:55:48Z</time>
      </trkpt>
      <trkpt lat="42.40677" lon="2.34924">
        <ele>2015.7</ele>
        <time>2019-01-07T03:55:51Z</time>
      </trkpt>
      <trkpt lat="42.40682" lon="2.34913">
        <ele>2020.2</ele>
        <time>2019-01-07T03:55:53Z</time>
      </trkpt>
      <trkpt lat="42.40688" lon="2.34903">
        <ele>2025.6</ele>
        <time>2019-01-07T03:55:56Z</time>
      </trkpt>
      <trkpt lat="42.40692" lon="2.34892">
        <ele>2029.1</ele>
        <time>2019-01-07T03:55:58Z</time>
      </trkpt>
      <trkpt lat="42.40696" lon="2.34881">
        <ele>2032.1</ele>
        <time>2019-01-07T03:56:00Z</time>
      </trkpt>
      <trkpt lat="42.40703" lon="2.34873">
        <ele>2037.2</ele>
        <time>2019-01-07T03:56:03Z</time>
      </trkpt>
      <trkpt lat="42.40708" lon="2.34863">
        <ele>2042</ele>
        <time>2019-01-07T03:56:05Z</time>
      </trkpt>
      <trkpt lat="42.40714" lon="2.34854">
        <ele>2045.6</ele>
        <time>2019-01-07T03:56:08Z</time>
      </trkpt>
      <trkpt lat="42.40721" lon="2.34845">
        <ele>2048.8</ele>
        <time>2019-01-07T03:56:10Z</time>
      </trkpt>
      <trkpt lat="42.40723" lon="2.34833">
        <ele>2054.2</ele>
        <time>2019-01-07T03:56:13Z</time>
      </trkpt>
      <trkpt lat="42.40727" lon="2.34822">
        <ele>2058.7</ele>
        <time>2019-01-07T03:56:15Z</time>
      </trkpt>
      <trkpt lat="42.40732" lon="2.34811">
        <ele>2062.2</ele>
        <time>2019-01-07T03:56:18Z</time>
      </trkpt>
      <trkpt lat="42.40739" lon="2.34803">
        <ele>2068.2</ele>
        <time>2019-01-07T03:56:20Z</time>
      </trkpt>
      <trkpt lat="42.40746" lon="2.34795">
        <ele>2070</ele>
        <time>2019-01-07T03:56:23Z</time>
      </trkpt>
      <trkpt lat="42.40754" lon="2.34787">
        <ele>2073.5</ele>
        <time>2019-01-07T03:56:25Z</time>
      </trkpt>
      <trkpt lat="42.40762" lon="2.34783">
        <ele>2075.1</ele>
        <time>2019-01-07T03:56:28Z</time>
      </trkpt>
      <trkpt lat="42.40769" lon="2.34773">
        <ele>2078</ele>
        <time>2019-01-07T03:56:30Z</time>
      </trkpt>
      <trkpt lat="42.40773" lon="2.34761">
        <ele>2081.7</ele>
        <time>2019-01-07T03:56:33Z</time>
      </trkpt>
      <trkpt lat="42.40775" lon="2.34749">
        <ele>2084</ele>
        <time>2019-01-07T03:56:35Z</time>
      </trkpt>
      <trkpt lat="42.40778" lon="2.34738">
        <ele>2085.5</ele>
        <time>2019-01-07T03:56:37Z</time>
      </trkpt>
      <trkpt lat="42.40781" lon="2.34726">
        <ele>2089.5</ele>
        <time>2019-01-07T03:56:40Z</time>
      </trkpt>
      <trkpt lat="42.40784" lon="2.34714">
        <ele>2093</ele>
        <time>2019-01-07T03:56:42Z</time>
      </trkpt>
      <trkpt lat="42.4079" lon="2.34705">
        <ele>2095.8</ele>
        <time>2019-01-07T03:56:45Z</time>
      </trkpt>
      <trkpt lat="42.40796" lon="2.34695">
        <ele>2101.3</ele>
        <time>2019-01-07T03:56:47Z</time>
      </trkpt>
      <trkpt lat="42.40803" lon="2.34688">
        <ele>2106.4</ele>
        <time>2019-01-07T03:56:50Z</time>
      </trkpt>
      <trkpt lat="42.40808" lon="2.34678">
        <ele>2110.5</ele>
        <time>2019-01-07T03:56:52Z</time>
      </trkpt>
      <trkpt lat="42.40813" lon="2.34667">
        <ele>2114.2</ele>
        <time>2019-01-07T03:56:55Z</time>
      </trkpt>
      <trkpt lat="42.40817" lon="2.34655">
        <ele>2118.7</ele>
        <time>2019-01-07T03:56:57Z</time>
      </trkpt>
      <trkpt lat="42.40824" lon="2.34647">
        <ele>2122.7</ele>
        <time>2019-01-07T03:57:00Z</time>
      </trkpt>
      <trkpt lat="42.40831" lon="2.34638">
        <ele>2126</ele>
        <time>2019-01-07T03:57:02Z</time>
      </trkpt>
      <trkpt lat="42.40839" lon="2.34632">
        <ele>2131</ele>
        <time>2019-01-07T03:57:05Z</time>
      </trkpt>
      <trkpt lat="42.40845" lon="2.34623">
        <ele>2133.7</ele>
        <time>2019-01-07T03:57:07Z</time>
      </trkpt>
      <trkpt lat="42.40854" lon="2.34623">
        <ele>2141.4</ele>
        <time>2019-01-07T03:57:10Z</time>
      </trkpt>
      <trkpt lat="42.40864" lon="2.34619">
        <ele>2143.9</ele>
        <time>2019-01-07T03:57:12Z</time>
      </trkpt>
      <trkpt lat="42.40872" lon="2.34614">
        <ele>2145.8</ele>
        <time>2019-01-07T03:57:14Z</time>
      </trkpt>
      <trkpt lat="42.40881" lon="2.3461">
        <ele>2146.2</ele>
        <time>2019-01-07T03:57:17Z</time>
      </trkpt>
      <trkpt lat="42.40889" lon="2.34605">
        <ele>2151.9</ele>
        <time>2019-01-07T03:57:19Z</time>
      </trkpt>
      <trkpt lat="42.40899" lon="2.34605">
        <ele>2154.1</ele>
        <time>2019-01-07T03:57:22Z</time>
      </trkpt>
      <trkpt lat="42.40907" lon="2.34608">
        <ele>2160.4</ele>
        <time>2019-01-07T03:57:24Z</time>
      </trkpt>
      <trkpt lat="42.40916" lon="2.34606">
        <ele>2163.1</ele>
        <time>2019-01-07T03:57:27Z</time>
      </trkpt>
      <trkpt lat="42.40925" lon="2.346">
        <ele>2163</ele>
        <time>2019-01-07T03:57:29Z</time>
      </trkpt>
      <trkpt lat="42.40934" lon="2.34599">
        <ele>2164</ele>
        <time>2019-01-07T03:57:32Z</time>
      </trkpt>
      <trkpt lat="42.40943" lon="2.34594">
        <ele>2166.6</ele>
        <time>2019-01-07T03:57:34Z</time>
      </trkpt>
      <trkpt lat="42.40952" lon="2.34589">
        <ele>2170.3</ele>
        <time>2019-01-07T03:57:37Z</time>
      </trkpt>
      <trkpt lat="42.4096" lon="2.34583">
        <ele>2173.8</ele>
        <time>2019-01-07T03:57:39Z</time>
      </trkpt>
      <trkpt lat="42.40969" lon="2.34579">
        <ele>2175.6</ele>
        <time>2019-01-07T03:57:42Z</time>
      </trkpt>
      <trkpt lat="42.40978" lon="2.34574">
        <ele>2178</ele>
        <time>2019-01-07T03:57:44Z</time>
      </trkpt>
      <trkpt lat="42.40987" lon="2.34569">
        <ele>2179.9</ele>
        <time>2019-01-07T03:57:47Z</time>
      </trkpt>
      <trkpt lat="42.40996" lon="2.34566">
        <ele>2180.2</ele>
        <time>2019-01-07T03:57:50Z</time>
      </trkpt>
      <trkpt lat="42.41003" lon="2.34558">
        <ele>2182</ele>
        <time>2019-01-07T03:57:52Z</time>
      </trkpt>
      <trkpt lat="42.41013" lon="2.34555">
        <ele>2182.1</ele>
        <time>2019-01-07T03:57:55Z</time>
      </trkpt>
      <trkpt lat="42.41022" lon="2.34552">
        <ele>2182.3</ele>
        <time>2019-01-07T03:57:57Z</time>
      </trkpt>
      <trkpt lat="42.41031" lon="2.3455">
        <ele>2183</ele>
        <time>2019-01-07T03:58:00Z</time>
      </trkpt>
      <trkpt lat="42.41039" lon="2.34546">
        <ele>2184.1</ele>
        <time>2019-01-07T03:58:02Z</time>
      </trkpt>
      <trkpt lat="42.41049" lon="2.34543">
        <ele>2185.3</ele>
        <time>2019-01-07T03:58:05Z</time>
      </trkpt>
      <trkpt lat="42.41059" lon="2.34545">
        <ele>2186.7</ele>
        <time>2019-01-07T03:58:07Z</time>
      </trkpt>
      <trkpt lat="42.41068" lon="2.3454">
        <ele>2190.2</ele>
        <time>2019-01-07T03:58:10Z</time>
      </trkpt>
      <trkpt lat="42.41077" lon="2.34538">
        <ele>2192.1</ele>
        <time>2019-01-07T03:58:12Z</time>
      </trkpt>
      <trkpt lat="42.41086" lon="2.34536">
        <ele>2192.2</ele>
        <time>2019-01-07T03:58:15Z</time>
      </trkpt>
      <trkpt lat="42.41096" lon="2.34535">
        <ele>2195.3</ele>
        <time>2019-01-07T03:58:17Z</time>
      </trkpt>
      <trkpt lat="42.41105" lon="2.34533">
        <ele>2196.6</ele>
        <time>2019-01-07T03:58:20Z</time>
      </trkpt>
      <trkpt lat="42.41114" lon="2.34531">
        <ele>2199.2</ele>
        <time>2019-01-07T03:58:22Z</time>
      </trkpt>
      <trkpt lat="42.41125" lon="2.34532">
        <ele>2200.6</ele>
        <time>2019-01-07T03:58:25Z</time>
      </trkpt>
      <trkpt lat="42.41133" lon="2.34526">
        <ele>2205</ele>
        <time>2019-01-07T03:58:28Z</time>
      </trkpt>
      <trkpt lat="42.41142" lon="2.34522">
        <ele>2207.7</ele>
        <time>2019-01-07T03:58:30Z</time>
      </trkpt>
      <trkpt lat="42.41151" lon="2.34526">
        <ele>2209.2</ele>
        <time>2019-01-07T03:58:33Z</time>
      </trkpt>
      <trkpt lat="42.4116" lon="2.34524">
        <ele>2211.6</ele>
        <time>2019-01-07T03:58:35Z</time>
      </trkpt>
      <trkpt lat="42.41169" lon="2.34524">
        <ele>2215.2</ele>
        <time>2019-01-07T03:58:38Z</time>
      </trkpt>
      <trkpt lat="42.41178" lon="2.3453">
        <ele>2218.7</ele>
        <time>2019-01-07T03:58:40Z</time>
      </trkpt>
      <trkpt lat="42.41186" lon="2.34523">
        <ele>2221.7</ele>
        <time>2019-01-07T03:58:43Z</time>
      </trkpt>
      <trkpt lat="42.41191" lon="2.34512">
        <ele>2225.4</ele>
        <time>2019-01-07T03:58:45Z</time>
      </trkpt>
      <trkpt lat="42.41198" lon="2.34502">
        <ele>2227.8</ele>
        <time>2019-01-07T03:58:48Z</time>
      </trkpt>
      <trkpt lat="42.41203" lon="2.34492">
        <ele>2230.6</ele>
        <time>2019-01-07T03:58:50Z</time>
      </trkpt>
      <trkpt lat="42.41211" lon="2.34486">
        <ele>2235.3</ele>
        <time>2019-01-07T03:58:53Z</time>
      </trkpt>
      <trkpt lat="42.41219" lon="2.3448">
        <ele>2237.1</ele>
        <time>2019-01-07T03:58:55Z</time>
      </trkpt>
      <trkpt lat="42.41226" lon="2.34472">
        <ele>2240.2</ele>
        <time>2019-01-07T03:58:58Z</time>
      </trkpt>
      <trkpt lat="42.41234" lon="2.34464">
        <ele>2241.9</ele>
        <time>2019-01-07T03:59:00Z</time>
      </trkpt>
      <trkpt lat="42.41243" lon="2.34469">
        <ele>2247.7</ele>
        <time>2019-01-07T03:59:03Z</time>
      </trkpt>
      <trkpt lat="42.41251" lon="2.34475">
        <ele>2249.6</ele>
        <time>2019-01-07T03:59:05Z</time>
      </trkpt>
      <trkpt lat="42.41254" lon="2.34487">
        <ele>2253.4</ele>
        <time>2019-01-07T03:59:08Z</time>
      </trkpt>
      <trkpt lat="42.41259" lon="2.34498">
        <ele>2256.9</ele>
        <time>2019-01-07T03:59:10Z</time>
      </trkpt>
      <trkpt lat="42.41265" lon="2.34508">
        <ele>2257.2</ele>
        <time>2019-01-07T03:59:13Z</time>
      </trkpt>
      <trkpt lat="42.41272" lon="2.34517">
        <ele>2261.6</ele>
        <time>2019-01-07T03:59:15Z</time>
      </trkpt>
      <trkpt lat="42.41281" lon="2.34519">
        <ele>2264.4</ele>
        <time>2019-01-07T03:59:18Z</time>
      </trkpt>
      <trkpt lat="42.4129" lon="2.3452">
        <ele>2270.3</ele>
        <time>2019-01-07T03:59:20Z</time>
      </trkpt>
      <trkpt lat="42.41297" lon="2.34528">
        <ele>2274.6</ele>
        <time>2019-01-07T03:59:23Z</time>
      </trkpt>
      <trkpt lat="42.41305" lon="2.34536">
        <ele>2277.9</ele>
        <time>2019-01-07T03:59:25Z</time>
      </trkpt>
      <trkpt lat="42.41314" lon="2.34538">
        <ele>2279.8</ele>
        <time>2019-01-07T03:59:28Z</time>
      </trkpt>
      <trkpt lat="42.41323" lon="2.34539">
        <ele>2288</ele>
        <time>2019-01-07T03:59:30Z</time>
      </trkpt>
      <trkpt lat="42.41331" lon="2.34544">
        <ele>2290.4</ele>
        <time>2019-01-07T03:59:33Z</time>
      </trkpt>
      <trkpt lat="42.4134" lon="2.34548">
        <ele>2293.8</ele>
        <time>2019-01-07T03:59:35Z</time>
      </trkpt>
      <trkpt lat="42.41349" lon="2.34552">
        <ele>2297.2</ele>
        <time>2019-01-07T03:59:38Z</time>
      </trkpt>
      <trkpt lat="42.41359" lon="2.34552">
        <ele>2299.7</ele>
        <time>2019-01-07T03:59:40Z</time>
      </trkpt>
      <trkpt lat="42.41368" lon="2.34553">
        <ele>2305.3</ele>
        <time>2019-01-07T03:59:43Z</time>
      </trkpt>
      <trkpt lat="42.41377" lon="2.34556">
        <ele>2309.1</ele>
        <time>2019-01-07T03:59:45Z</time>
      </trkpt>
      <trkpt lat="42.41386" lon="2.34556">
        <ele>2313.3</ele>
        <time>2019-01-07T03:59:48Z</time>
      </trkpt>
      <trkpt lat="42.4139" lon="2.34544">
        <ele>2315.7</ele>
        <time>2019-01-07T03:59:50Z</time>
      </trkpt>
      <trkpt lat="42.41399" lon="2.34549">
        <ele>2317.8</ele>
        <time>2019-01-07T03:59:53Z</time>
      </trkpt>
      <trkpt lat="42.41405" lon="2.34541">
        <ele>2322.8</ele>
        <time>2019-01-07T03:59:55Z</time>
      </trkpt>
      <trkpt lat="42.41406" lon="2.34528">
        <ele>2323.9</ele>
        <time>2019-01-07T03:59:58Z</time>
      </trkpt>
      <trkpt lat="42.41409" lon="2.34516">
        <ele>2328.2</ele>
        <time>2019-01-07T04:00:00Z</time>
      </trkpt>
      <trkpt lat="42.41417" lon="2.34522">
        <ele>2332.8</ele>
        <time>2019-01-07T04:00:03Z</time>
      </trkpt>
      <trkpt lat="42.41425" lon="2.34531">
        <ele>2334</ele>
        <time>2019-01-07T04:00:06Z</time>
      </trkpt>
      <trkpt lat="42.41429" lon="2.34543">
        <ele>2334.3</ele>
        <time>2019-01-07T04:00:08Z</time>
      </trkpt>
      <trkpt lat="42.41434" lon="2.34554">
        <ele>2338.3</ele>
        <time>2019-01-07T04:00:11Z</time>
      </trkpt>
      <trkpt lat="42.4144" lon="2.34564">
        <ele>2339.2</ele>
        <time>2019-01-07T04:00:13Z</time>
      </trkpt>
      <trkpt lat="42.41445" lon="2.34575">
        <ele>2342.1</ele>
        <time>2019-01-07T04:00:16Z</time>
      </trkpt>
      <trkpt lat="42.4145" lon="2.34586">
        <ele>2343.5</ele>
        <time>2019-01-07T04:00:18Z</time>
      </trkpt>
      <trkpt lat="42.41455" lon="2.34598">
        <ele>2346.4</ele>
        <time>2019-01-07T04:00:21Z</time>
      </trkpt>
      <trkpt lat="42.41458" lon="2.34609">
        <ele>2348.5</ele>
        <time>2019-01-07T04:00:23Z</time>
      </trkpt>
      <trkpt lat="42.41465" lon="2.34619">
        <ele>2350</ele>
        <time>2019-01-07T04:00:26Z</time>
      </trkpt>
      <trkpt lat="42.41469" lon="2.34631">
        <ele>2352.2</ele>
        <time>2019-01-07T04:00:29Z</time>
      </trkpt>
      <trkpt lat="42.41474" lon="2.34642">
        <ele>2354.1</ele>
        <time>2019-01-07T04:00:31Z</time>
      </trkpt>
      <trkpt lat="42.41482" lon="2.34647">
        <ele>2356.9</ele>
        <time>2019-01-07T04:00:34Z</time>
      </trkpt>
      <trkpt lat="42.41491" lon="2.34643">
        <ele>2362.2</ele>
        <time>2019-01-07T04:00:36Z</time>
      </trkpt>
      <trkpt lat="42.41496" lon="2.34632">
        <ele>2367.2</ele>
        <time>2019-01-07T04:00:39Z</time>
      </trkpt>
      <trkpt lat="42.41505" lon="2.34632">
        <ele>2370.5</ele>
        <time>2019-01-07T04:00:41Z</time>
      </trkpt>
      <trkpt lat="42.41513" lon="2.34638">
        <ele>2378.9</ele>
        <time>2019-01-07T04:00:44Z</time>
      </trkpt>
      <trkpt lat="42.4152" lon="2.34629">
        <ele>2385.1</ele>
        <time>2019-01-07T04:00:46Z</time>
      </trkpt>
      <trkpt lat="42.4153" lon="2.34624">
        <ele>2389.8</ele>
        <time>2019-01-07T04:00:49Z</time>
      </trkpt>
      <trkpt lat="42.41535" lon="2.34613">
        <ele>2392</ele>
        <time>2019-01-07T04:00:51Z</time>
      </trkpt>
      <trkpt lat="42.41541" lon="2.34603">
        <ele>2392</ele>
        <time>2019-01-07T04:00:54Z</time>
      </trkpt>
      <trkpt lat="42.41547" lon="2.34593">
        <ele>2395.3</ele>
        <time>2019-01-07T04:00:57Z</time>
      </trkpt>
      <trkpt lat="42.41555" lon="2.34588">
        <ele>2397.8</ele>
        <time>2019-01-07T04:00:59Z</time>
      </trkpt>
      <trkpt lat="42.41564" lon="2.34584">
        <ele>2401.4</ele>
        <time>2019-01-07T04:01:01Z</time>
      </trkpt>
      <trkpt lat="42.41572" lon="2.34577">
        <ele>2404.2</ele>
        <time>2019-01-07T04:01:04Z</time>
      </trkpt>
      <trkpt lat="42.41581" lon="2.34573">
        <ele>2407.6</ele>
        <time>2019-01-07T04:01:06Z</time>
      </trkpt>
      <trkpt lat="42.41587" lon="2.34564">
        <ele>2411.8</ele>
        <time>2019-01-07T04:01:09Z</time>
      </trkpt>
      <trkpt lat="42.41592" lon="2.34553">
        <ele>2414.5</ele>
        <time>2019-01-07T04:01:11Z</time>
      </trkpt>
      <trkpt lat="42.41597" lon="2.34542">
        <ele>2417</ele>
        <time>2019-01-07T04:01:14Z</time>
      </trkpt>
      <trkpt lat="42.41601" lon="2.3453">
        <ele>2419.6</ele>
        <time>2019-01-07T04:01:17Z</time>
      </trkpt>
      <trkpt lat="42.41602" lon="2.34517">
        <ele>2421.9</ele>
        <time>2019-01-07T04:01:19Z</time>
      </trkpt>
      <trkpt lat="42.41607" lon="2.34506">
        <ele>2427.5</ele>
        <time>2019-01-07T04:01:22Z</time>
      </trkpt>
      <trkpt lat="42.41613" lon="2.34496">
        <ele>2430.7</ele>
        <time>2019-01-07T04:01:24Z</time>
      </trkpt>
      <trkpt lat="42.41621" lon="2.34491">
        <ele>2434.6</ele>
        <time>2019-01-07T04:01:27Z</time>
      </trkpt>
      <trkpt lat="42.41628" lon="2.34482">
        <ele>2439.1</ele>
        <time>2019-01-07T04:01:29Z</time>
      </trkpt>
      <trkpt lat="42.41635" lon="2.34472">
        <ele>2440.7</ele>
        <time>2019-01-07T04:01:32Z</time>
      </trkpt>
      <trkpt lat="42.41643" lon="2.34464">
        <ele>2443.1</ele>
        <time>2019-01-07T04:01:35Z</time>
      </trkpt>
      <trkpt lat="42.4165" lon="2.34457">
        <ele>2445</ele>
        <time>2019-01-07T04:01:37Z</time>
      </trkpt>
      <trkpt lat="42.41658" lon="2.34449">
        <ele>2446.1</ele>
        <time>2019-01-07T04:01:39Z</time>
      </trkpt>
      <trkpt lat="42.41663" lon="2.34439">
        <ele>2446.6</ele>
        <time>2019-01-07T04:01:42Z</time>
      </trkpt>
      <trkpt lat="42.4167" lon="2.3443">
        <ele>2450.1</ele>
        <time>2019-01-07T04:01:44Z</time>
      </trkpt>
      <trkpt lat="42.41676" lon="2.34421">
        <ele>2453.3</ele>
        <time>2019-01-07T04:01:47Z</time>
      </trkpt>
      <trkpt lat="42.41682" lon="2.34411">
        <ele>2454.2</ele>
        <time>2019-01-07T04:01:49Z</time>
      </trkpt>
      <trkpt lat="42.41688" lon="2.34401">
        <ele>2455.9</ele>
        <time>2019-01-07T04:01:52Z</time>
      </trkpt>
      <trkpt lat="42.41692" lon="2.34391">
        <ele>2464</ele>
        <time>2019-01-07T04:01:54Z</time>
      </trkpt>
      <trkpt lat="42.41687" lon="2.34381">
        <ele>2463.1</ele>
        <time>2019-01-07T04:01:57Z</time>
      </trkpt>
      <trkpt lat="42.4169" lon="2.34368">
        <ele>2461.5</ele>
        <time>2019-01-07T04:01:59Z</time>
      </trkpt>
      <trkpt lat="42.41685" lon="2.34357">
        <ele>2460.3</ele>
        <time>2019-01-07T04:02:02Z</time>
      </trkpt>
      <trkpt lat="42.41679" lon="2.34348">
        <ele>2457.5</ele>
        <time>2019-01-07T04:02:04Z</time>
      </trkpt>
      <trkpt lat="42.41676" lon="2.34335">
        <ele>2457.4</ele>
        <time>2019-01-07T04:02:07Z</time>
      </trkpt>
      <trkpt lat="42.41666" lon="2.34332">
        <ele>2453.1</ele>
        <time>2019-01-07T04:02:09Z</time>
      </trkpt>
      <trkpt lat="42.41657" lon="2.34334">
        <ele>2450.3</ele>
        <time>2019-01-07T04:02:12Z</time>
      </trkpt>
      <trkpt lat="42.41651" lon="2.34325">
        <ele>2447.7</ele>
        <time>2019-01-07T04:02:14Z</time>
      </trkpt>
      <trkpt lat="42.41643" lon="2.34319">
        <ele>2442.9</ele>
        <time>2019-01-07T04:02:17Z</time>
      </trkpt>
      <trkpt lat="42.41639" lon="2.34308">
        <ele>2439.7</ele>
        <time>2019-01-07T04:02:19Z</time>
      </trkpt>
      <trkpt lat="42.41634" lon="2.34297">
        <ele>2438.5</ele>
        <time>2019-01-07T04:02:22Z</time>
      </trkpt>
      <trkpt lat="42.41638" lon="2.34286">
        <ele>2437.6</ele>
        <time>2019-01-07T04:02:24Z</time>
      </trkpt>
      <trkpt lat="42.41644" lon="2.34275">
        <ele>2436.5</ele>
        <time>2019-01-07T04:02:27Z</time>
      </trkpt>
      <trkpt lat="42.41647" lon="2.34262">
        <ele>2435.5</ele>
        <time>2019-01-07T04:02:29Z</time>
      </trkpt>
      <trkpt lat="42.41651" lon="2.34251">
        <ele>2435.1</ele>
        <time>2019-01-07T04:02:32Z</time>
      </trkpt>
      <trkpt lat="42.41655" lon="2.34239">
        <ele>2435.2</ele>
        <time>2019-01-07T04:02:34Z</time>
      </trkpt>
      <trkpt lat="42.41657" lon="2.34226">
        <ele>2434.2</ele>
        <time>2019-01-07T04:02:37Z</time>
      </trkpt>
      <trkpt lat="42.41652" lon="2.34215">
        <ele>2428.8</ele>
        <time>2019-01-07T04:02:40Z</time>
      </trkpt>
      <trkpt lat="42.41647" lon="2.34204">
        <ele>2425.5</ele>
        <time>2019-01-07T04:02:42Z</time>
      </trkpt>
      <trkpt lat="42.41643" lon="2.34192">
        <ele>2421.8</ele>
        <time>2019-01-07T04:02:45Z</time>
      </trkpt>
      <trkpt lat="42.41639" lon="2.34181">
        <ele>2419.8</ele>
        <time>2019-01-07T04:02:47Z</time>
      </trkpt>
      <trkpt lat="42.41634" lon="2.34169">
        <ele>2416</ele>
        <time>2019-01-07T04:02:50Z</time>
      </trkpt>
      <trkpt lat="42.41636" lon="2.34157">
        <ele>2414.3</ele>
        <time>2019-01-07T04:02:52Z</time>
      </trkpt>
      <trkpt lat="42.41633" lon="2.34146">
        <ele>2411.6</ele>
        <time>2019-01-07T04:02:55Z</time>
      </trkpt>
      <trkpt lat="42.41633" lon="2.34133">
        <ele>2409.2</ele>
        <time>2019-01-07T04:02:57Z</time>
      </trkpt>
      <trkpt lat="42.41636" lon="2.3412">
        <ele>2407.3</ele>
        <time>2019-01-07T04:03:00Z</time>
      </trkpt>
      <trkpt lat="42.41641" lon="2.34109">
        <ele>2405.2</ele>
        <time>2019-01-07T04:03:03Z</time>
      </trkpt>
      <trkpt lat="42.41644" lon="2.34096">
        <ele>2403.4</ele>
        <time>2019-01-07T04:03:05Z</time>
      </trkpt>
      <trkpt lat="42.41647" lon="2.34083">
        <ele>2401.2</ele>
        <time>2019-01-07T04:03:08Z</time>
      </trkpt>
      <trkpt lat="42.41649" lon="2.34071">
        <ele>2399.4</ele>
        <time>2019-01-07T04:03:10Z</time>
      </trkpt>
      <trkpt lat="42.41652" lon="2.34059">
        <ele>2398</ele>
        <time>2019-01-07T04:03:13Z</time>
      </trkpt>
      <trkpt lat="42.41655" lon="2.34047">
        <ele>2397.3</ele>
        <time>2019-01-07T04:03:15Z</time>
      </trkpt>
      <trkpt lat="42.41657" lon="2.34034">
        <ele>2396.7</ele>
        <time>2019-01-07T04:03:18Z</time>
      </trkpt>
      <trkpt lat="42.41657" lon="2.34022">
        <ele>2396.1</ele>
        <time>2019-01-07T04:03:20Z</time>
      </trkpt>
      <trkpt lat="42.41659" lon="2.34008">
        <ele>2396.2</ele>
        <time>2019-01-07T04:03:23Z</time>
      </trkpt>
      <trkpt lat="42.41657" lon="2.33996">
        <ele>2394.4</ele>
        <time>2019-01-07T04:03:26Z</time>
      </trkpt>
      <trkpt lat="42.41659" lon="2.33983">
        <ele>2391.4</ele>
        <time>2019-01-07T04:03:28Z</time>
      </trkpt>
      <trkpt lat="42.41656" lon="2.3397">
        <ele>2390</ele>
        <time>2019-01-07T04:03:31Z</time>
      </trkpt>
      <trkpt lat="42.41649" lon="2.33963">
        <ele>2389.3</ele>
        <time>2019-01-07T04:03:33Z</time>
      </trkpt>
      <trkpt lat="42.41639" lon="2.3396">
        <ele>2388.2</ele>
        <time>2019-01-07T04:03:36Z</time>
      </trkpt>
      <trkpt lat="42.41631" lon="2.33954">
        <ele>2387.7</ele>
        <time>2019-01-07T04:03:38Z</time>
      </trkpt>
      <trkpt lat="42.41625" lon="2.33943">
        <ele>2385.5</ele>
        <time>2019-01-07T04:03:41Z</time>
      </trkpt>
      <trkpt lat="42.41621" lon="2.33932">
        <ele>2381.5</ele>
        <time>2019-01-07T04:03:43Z</time>
      </trkpt>
      <trkpt lat="42.41624" lon="2.3392">
        <ele>2378.1</ele>
        <time>2019-01-07T04:03:46Z</time>
      </trkpt>
      <trkpt lat="42.41618" lon="2.3391">
        <ele>2375.1</ele>
        <time>2019-01-07T04:03:48Z</time>
      </trkpt>
      <trkpt lat="42.4162" lon="2.33898">
        <ele>2372.3</ele>
        <time>2019-01-07T04:03:51Z</time>
      </trkpt>
      <trkpt lat="42.41622" lon="2.33885">
        <ele>2367.7</ele>
        <time>2019-01-07T04:03:53Z</time>
      </trkpt>
      <trkpt lat="42.41623" lon="2.33872">
        <ele>2365.5</ele>
        <time>2019-01-07T04:03:56Z</time>
      </trkpt>
      <trkpt lat="42.41621" lon="2.3386">
        <ele>2361.8</ele>
        <time>2019-01-07T04:03:58Z</time>
      </trkpt>
      <trkpt lat="42.41622" lon="2.33846">
        <ele>2359.5</ele>
        <time>2019-01-07T04:04:01Z</time>
      </trkpt>
      <trkpt lat="42.41626" lon="2.33833">
        <ele>2357.4</ele>
        <time>2019-01-07T04:04:04Z</time>
      </trkpt>
      <trkpt lat="42.4163" lon="2.33821">
        <ele>2355.8</ele>
        <time>2019-01-07T04:04:06Z</time>
      </trkpt>
      <trkpt lat="42.41632" lon="2.33808">
        <ele>2353.2</ele>
        <time>2019-01-07T04:04:09Z</time>
      </trkpt>
      <trkpt lat="42.41634" lon="2.33795">
        <ele>2349.7</ele>
        <time>2019-01-07T04:04:12Z</time>
      </trkpt>
      <trkpt lat="42.41634" lon="2.33782">
        <ele>2348.5</ele>
        <time>2019-01-07T04:04:14Z</time>
      </trkpt>
      <trkpt lat="42.41633" lon="2.33769">
        <ele>2347.5</ele>
        <time>2019-01-07T04:04:17Z</time>
      </trkpt>
      <trkpt lat="42.41633" lon="2.33756">
        <ele>2347</ele>
        <time>2019-01-07T04:04:19Z</time>
      </trkpt>
      <trkpt lat="42.41634" lon="2.33743">
        <ele>2347.5</ele>
        <time>2019-01-07T04:04:22Z</time>
      </trkpt>
      <trkpt lat="42.41641" lon="2.33734">
        <ele>2349.1</ele>
        <time>2019-01-07T04:04:24Z</time>
      </trkpt>
      <trkpt lat="42.41646" lon="2.33723">
        <ele>2349.3</ele>
        <time>2019-01-07T04:04:27Z</time>
      </trkpt>
      <trkpt lat="42.41654" lon="2.33716">
        <ele>2350.1</ele>
        <time>2019-01-07T04:04:30Z</time>
      </trkpt>
      <trkpt lat="42.41664" lon="2.33715">
        <ele>2350.1</ele>
        <time>2019-01-07T04:04:32Z</time>
      </trkpt>
      <trkpt lat="42.41673" lon="2.33716">
        <ele>2349.3</ele>
        <time>2019-01-07T04:04:35Z</time>
      </trkpt>
      <trkpt lat="42.41675" lon="2.33704">
        <ele>2346.1</ele>
        <time>2019-01-07T04:04:37Z</time>
      </trkpt>
      <trkpt lat="42.41679" lon="2.33691">
        <ele>2345.9</ele>
        <time>2019-01-07T04:04:40Z</time>
      </trkpt>
      <trkpt lat="42.41677" lon="2.33678">
        <ele>2345.4</ele>
        <time>2019-01-07T04:04:43Z</time>
      </trkpt>
      <trkpt lat="42.41676" lon="2.33665">
        <ele>2345.2</ele>
        <time>2019-01-07T04:04:45Z</time>
      </trkpt>
      <trkpt lat="42.41678" lon="2.33653">
        <ele>2345.1</ele>
        <time>2019-01-07T04:04:48Z</time>
      </trkpt>
      <trkpt lat="42.41679" lon="2.3364">
        <ele>2344.9</ele>
        <time>2019-01-07T04:04:50Z</time>
      </trkpt>
      <trkpt lat="42.41679" lon="2.33628">
        <ele>2343.2</ele>
        <time>2019-01-07T04:04:53Z</time>
      </trkpt>
      <trkpt lat="42.41678" lon="2.33616">
        <ele>2342.4</ele>
        <time>2019-01-07T04:04:55Z</time>
      </trkpt>
      <trkpt lat="42.41673" lon="2.33605">
        <ele>2341.6</ele>
        <time>2019-01-07T04:04:58Z</time>
      </trkpt>
      <trkpt lat="42.41669" lon="2.33593">
        <ele>2341.2</ele>
        <time>2019-01-07T04:05:00Z</time>
      </trkpt>
      <trkpt lat="42.41667" lon="2.33581">
        <ele>2341.1</ele>
        <time>2019-01-07T04:05:02Z</time>
      </trkpt>
      <trkpt lat="42.41664" lon="2.33568">
        <ele>2338.4</ele>
        <time>2019-01-07T04:05:05Z</time>
      </trkpt>
      <trkpt lat="42.4166" lon="2.33557">
        <ele>2337.2</ele>
        <time>2019-01-07T04:05:08Z</time>
      </trkpt>
      <trkpt lat="42.41659" lon="2.33544">
        <ele>2336.4</ele>
        <time>2019-01-07T04:05:10Z</time>
      </trkpt>
      <trkpt lat="42.41657" lon="2.33532">
        <ele>2333.9</ele>
        <time>2019-01-07T04:05:13Z</time>
      </trkpt>
      <trkpt lat="42.41659" lon="2.3352">
        <ele>2333.1</ele>
        <time>2019-01-07T04:05:15Z</time>
      </trkpt>
      <trkpt lat="42.4166" lon="2.33507">
        <ele>2330.7</ele>
        <time>2019-01-07T04:05:18Z</time>
      </trkpt>
      <trkpt lat="42.41668" lon="2.335">
        <ele>2330.1</ele>
        <time>2019-01-07T04:05:20Z</time>
      </trkpt>
      <trkpt lat="42.41677" lon="2.33493">
        <ele>2329.2</ele>
        <time>2019-01-07T04:05:23Z</time>
      </trkpt>
      <trkpt lat="42.41684" lon="2.33487">
        <ele>2327.2</ele>
        <time>2019-01-07T04:05:25Z</time>
      </trkpt>
      <trkpt lat="42.4169" lon="2.33477">
        <ele>2325</ele>
        <time>2019-01-07T04:05:28Z</time>
      </trkpt>
      <trkpt lat="42.41695" lon="2.33465">
        <ele>2323.2</ele>
        <time>2019-01-07T04:05:30Z</time>
      </trkpt>
      <trkpt lat="42.41694" lon="2.33452">
        <ele>2321.9</ele>
        <time>2019-01-07T04:05:33Z</time>
      </trkpt>
      <trkpt lat="42.41697" lon="2.3344">
        <ele>2321.3</ele>
        <time>2019-01-07T04:05:35Z</time>
      </trkpt>
      <trkpt lat="42.41702" lon="2.33428">
        <ele>2320.5</ele>
        <time>2019-01-07T04:05:38Z</time>
      </trkpt>
      <trkpt lat="42.41711" lon="2.33432">
        <ele>2319.8</ele>
        <time>2019-01-07T04:05:41Z</time>
      </trkpt>
      <trkpt lat="42.41719" lon="2.33426">
        <ele>2318</ele>
        <time>2019-01-07T04:05:43Z</time>
      </trkpt>
      <trkpt lat="42.41726" lon="2.33418">
        <ele>2315.9</ele>
        <time>2019-01-07T04:05:46Z</time>
      </trkpt>
      <trkpt lat="42.41729" lon="2.33406">
        <ele>2315.1</ele>
        <time>2019-01-07T04:05:48Z</time>
      </trkpt>
      <trkpt lat="42.41734" lon="2.33395">
        <ele>2315</ele>
        <time>2019-01-07T04:05:51Z</time>
      </trkpt>
      <trkpt lat="42.41738" lon="2.33383">
        <ele>2314.7</ele>
        <time>2019-01-07T04:05:53Z</time>
      </trkpt>
      <trkpt lat="42.41743" lon="2.33372">
        <ele>2313.4</ele>
        <time>2019-01-07T04:05:56Z</time>
      </trkpt>
      <trkpt lat="42.41751" lon="2.33365">
        <ele>2312.7</ele>
        <time>2019-01-07T04:05:58Z</time>
      </trkpt>
      <trkpt lat="42.41757" lon="2.33354">
        <ele>2311.9</ele>
        <time>2019-01-07T04:06:01Z</time>
      </trkpt>
      <trkpt lat="42.41764" lon="2.33344">
        <ele>2311.2</ele>
        <time>2019-01-07T04:06:04Z</time>
      </trkpt>
      <trkpt lat="42.4177" lon="2.33334">
        <ele>2310.5</ele>
        <time>2019-01-07T04:06:06Z</time>
      </trkpt>
      <trkpt lat="42.41778" lon="2.33326">
        <ele>2309.4</ele>
        <time>2019-01-07T04:06:09Z</time>
      </trkpt>
      <trkpt lat="42.41786" lon="2.3332">
        <ele>2307.1</ele>
        <time>2019-01-07T04:06:11Z</time>
      </trkpt>
      <trkpt lat="42.41794" lon="2.33312">
        <ele>2306.9</ele>
        <time>2019-01-07T04:06:14Z</time>
      </trkpt>
      <trkpt lat="42.41797" lon="2.333">
        <ele>2306</ele>
        <time>2019-01-07T04:06:16Z</time>
      </trkpt>
      <trkpt lat="42.41798" lon="2.33287">
        <ele>2306</ele>
        <time>2019-01-07T04:06:19Z</time>
      </trkpt>
      <trkpt lat="42.41802" lon="2.33275">
        <ele>2305.7</ele>
        <time>2019-01-07T04:06:22Z</time>
      </trkpt>
      <trkpt lat="42.41809" lon="2.33267">
        <ele>2305.2</ele>
        <time>2019-01-07T04:06:24Z</time>
      </trkpt>
      <trkpt lat="42.41812" lon="2.33254">
        <ele>2305</ele>
        <time>2019-01-07T04:06:27Z</time>
      </trkpt>
      <trkpt lat="42.41815" lon="2.33242">
        <ele>2306.1</ele>
        <time>2019-01-07T04:06:29Z</time>
      </trkpt>
      <trkpt lat="42.4182" lon="2.3323">
        <ele>2306</ele>
        <time>2019-01-07T04:06:32Z</time>
      </trkpt>
      <trkpt lat="42.41824" lon="2.33219">
        <ele>2306.1</ele>
        <time>2019-01-07T04:06:34Z</time>
      </trkpt>
      <trkpt lat="42.41829" lon="2.33209">
        <ele>2306.1</ele>
        <time>2019-01-07T04:06:37Z</time>
      </trkpt>
      <trkpt lat="42.41833" lon="2.33196">
        <ele>2306</ele>
        <time>2019-01-07T04:06:39Z</time>
      </trkpt>
      <trkpt lat="42.41837" lon="2.33184">
        <ele>2306.2</ele>
        <time>2019-01-07T04:06:42Z</time>
      </trkpt>
      <trkpt lat="42.41841" lon="2.33172">
        <ele>2306.9</ele>
        <time>2019-01-07T04:06:45Z</time>
      </trkpt>
      <trkpt lat="42.41845" lon="2.3316">
        <ele>2306.5</ele>
        <time>2019-01-07T04:06:47Z</time>
      </trkpt>
      <trkpt lat="42.4185" lon="2.3315">
        <ele>2305.8</ele>
        <time>2019-01-07T04:06:50Z</time>
      </trkpt>
      <trkpt lat="42.41857" lon="2.33141">
        <ele>2304.9</ele>
        <time>2019-01-07T04:06:52Z</time>
      </trkpt>
      <trkpt lat="42.41866" lon="2.33141">
        <ele>2303.6</ele>
        <time>2019-01-07T04:06:55Z</time>
      </trkpt>
      <trkpt lat="42.41873" lon="2.33132">
        <ele>2301.1</ele>
        <time>2019-01-07T04:06:57Z</time>
      </trkpt>
      <trkpt lat="42.41881" lon="2.33126">
        <ele>2301.1</ele>
        <time>2019-01-07T04:07:00Z</time>
      </trkpt>
      <trkpt lat="42.4189" lon="2.33124">
        <ele>2298.4</ele>
        <time>2019-01-07T04:07:02Z</time>
      </trkpt>
      <trkpt lat="42.419" lon="2.33123">
        <ele>2296.1</ele>
        <time>2019-01-07T04:07:05Z</time>
      </trkpt>
      <trkpt lat="42.4191" lon="2.33118">
        <ele>2295</ele>
        <time>2019-01-07T04:07:07Z</time>
      </trkpt>
      <trkpt lat="42.41917" lon="2.33109">
        <ele>2294.9</ele>
        <time>2019-01-07T04:07:10Z</time>
      </trkpt>
      <trkpt lat="42.41925" lon="2.33101">
        <ele>2294.2</ele>
        <time>2019-01-07T04:07:13Z</time>
      </trkpt>
      <trkpt lat="42.41931" lon="2.33093">
        <ele>2294</ele>
        <time>2019-01-07T04:07:15Z</time>
      </trkpt>
      <trkpt lat="42.41939" lon="2.33086">
        <ele>2294</ele>
        <time>2019-01-07T04:07:18Z</time>
      </trkpt>
      <trkpt lat="42.41947" lon="2.33077">
        <ele>2293.8</ele>
        <time>2019-01-07T04:07:20Z</time>
      </trkpt>
      <trkpt lat="42.41953" lon="2.33067">
        <ele>2290.5</ele>
        <time>2019-01-07T04:07:23Z</time>
      </trkpt>
      <trkpt lat="42.41959" lon="2.33057">
        <ele>2290.7</ele>
        <time>2019-01-07T04:07:25Z</time>
      </trkpt>
      <trkpt lat="42.41967" lon="2.33048">
        <ele>2291.1</ele>
        <time>2019-01-07T04:07:28Z</time>
      </trkpt>
      <trkpt lat="42.41972" lon="2.33038">
        <ele>2290.7</ele>
        <time>2019-01-07T04:07:31Z</time>
      </trkpt>
      <trkpt lat="42.41975" lon="2.33024">
        <ele>2289.7</ele>
        <time>2019-01-07T04:07:33Z</time>
      </trkpt>
      <trkpt lat="42.4198" lon="2.33013">
        <ele>2289.1</ele>
        <time>2019-01-07T04:07:36Z</time>
      </trkpt>
      <trkpt lat="42.41985" lon="2.33002">
        <ele>2289</ele>
        <time>2019-01-07T04:07:39Z</time>
      </trkpt>
      <trkpt lat="42.4199" lon="2.32991">
        <ele>2287.2</ele>
        <time>2019-01-07T04:07:41Z</time>
      </trkpt>
      <trkpt lat="42.41995" lon="2.32981">
        <ele>2285.7</ele>
        <time>2019-01-07T04:07:43Z</time>
      </trkpt>
      <trkpt lat="42.41999" lon="2.32969">
        <ele>2285.1</ele>
        <time>2019-01-07T04:07:46Z</time>
      </trkpt>
      <trkpt lat="42.42005" lon="2.32958">
        <ele>2285</ele>
        <time>2019-01-07T04:07:49Z</time>
      </trkpt>
      <trkpt lat="42.42012" lon="2.3295">
        <ele>2283.3</ele>
        <time>2019-01-07T04:07:51Z</time>
      </trkpt>
      <trkpt lat="42.42013" lon="2.32938">
        <ele>2282.1</ele>
        <time>2019-01-07T04:07:54Z</time>
      </trkpt>
      <trkpt lat="42.42013" lon="2.32925">
        <ele>2283.1</ele>
        <time>2019-01-07T04:07:56Z</time>
      </trkpt>
      <trkpt lat="42.4202" lon="2.32919">
        <ele>2283</ele>
        <time>2019-01-07T04:07:59Z</time>
      </trkpt>
      <trkpt lat="42.42028" lon="2.32913">
        <ele>2283.1</ele>
        <time>2019-01-07T04:08:01Z</time>
      </trkpt>
      <trkpt lat="42.42036" lon="2.32904">
        <ele>2283.1</ele>
        <time>2019-01-07T04:08:04Z</time>
      </trkpt>
      <trkpt lat="42.42044" lon="2.32897">
        <ele>2283.1</ele>
        <time>2019-01-07T04:08:06Z</time>
      </trkpt>
      <trkpt lat="42.42054" lon="2.32894">
        <ele>2282.4</ele>
        <time>2019-01-07T04:08:09Z</time>
      </trkpt>
      <trkpt lat="42.42059" lon="2.32883">
        <ele>2282</ele>
        <time>2019-01-07T04:08:12Z</time>
      </trkpt>
      <trkpt lat="42.42061" lon="2.32871">
        <ele>2283.7</ele>
        <time>2019-01-07T04:08:14Z</time>
      </trkpt>
      <trkpt lat="42.42059" lon="2.32859">
        <ele>2285.4</ele>
        <time>2019-01-07T04:08:17Z</time>
      </trkpt>
      <trkpt lat="42.42062" lon="2.32848">
        <ele>2288.4</ele>
        <time>2019-01-07T04:08:19Z</time>
      </trkpt>
      <trkpt lat="42.4207" lon="2.32842">
        <ele>2288.5</ele>
        <time>2019-01-07T04:08:21Z</time>
      </trkpt>
      <trkpt lat="42.42078" lon="2.32834">
        <ele>2288.1</ele>
        <time>2019-01-07T04:08:24Z</time>
      </trkpt>
      <trkpt lat="42.42086" lon="2.32827">
        <ele>2287.9</ele>
        <time>2019-01-07T04:08:27Z</time>
      </trkpt>
      <trkpt lat="42.42095" lon="2.3282">
        <ele>2286.8</ele>
        <time>2019-01-07T04:08:29Z</time>
      </trkpt>
      <trkpt lat="42.42103" lon="2.32815">
        <ele>2284.1</ele>
        <time>2019-01-07T04:08:32Z</time>
      </trkpt>
      <trkpt lat="42.42106" lon="2.32803">
        <ele>2284.2</ele>
        <time>2019-01-07T04:08:34Z</time>
      </trkpt>
      <trkpt lat="42.42112" lon="2.32813">
        <ele>2285</ele>
        <time>2019-01-07T04:08:37Z</time>
      </trkpt>
      <trkpt lat="42.4212" lon="2.32818">
        <ele>2285.2</ele>
        <time>2019-01-07T04:08:39Z</time>
      </trkpt>
      <trkpt lat="42.42128" lon="2.32824">
        <ele>2288.5</ele>
        <time>2019-01-07T04:08:42Z</time>
      </trkpt>
      <trkpt lat="42.42135" lon="2.32833">
        <ele>2290.1</ele>
        <time>2019-01-07T04:08:44Z</time>
      </trkpt>
      <trkpt lat="42.42142" lon="2.32841">
        <ele>2290.7</ele>
        <time>2019-01-07T04:08:47Z</time>
      </trkpt>
      <trkpt lat="42.42151" lon="2.32847">
        <ele>2291.2</ele>
        <time>2019-01-07T04:08:49Z</time>
      </trkpt>
      <trkpt lat="42.42159" lon="2.32854">
        <ele>2293.6</ele>
        <time>2019-01-07T04:08:52Z</time>
      </trkpt>
      <trkpt lat="42.42164" lon="2.32865">
        <ele>2295.1</ele>
        <time>2019-01-07T04:08:54Z</time>
      </trkpt>
      <trkpt lat="42.42169" lon="2.32875">
        <ele>2296.2</ele>
        <time>2019-01-07T04:08:57Z</time>
      </trkpt>
      <trkpt lat="42.42178" lon="2.32882">
        <ele>2297.6</ele>
        <time>2019-01-07T04:08:59Z</time>
      </trkpt>
      <trkpt lat="42.42186" lon="2.32887">
        <ele>2299.3</ele>
        <time>2019-01-07T04:09:02Z</time>
      </trkpt>
      <trkpt lat="42.42195" lon="2.32893">
        <ele>2300.1</ele>
        <time>2019-01-07T04:09:05Z</time>
      </trkpt>
      <trkpt lat="42.42204" lon="2.32898">
        <ele>2301.1</ele>
        <time>2019-01-07T04:09:07Z</time>
      </trkpt>
      <trkpt lat="42.42213" lon="2.32901">
        <ele>2302.6</ele>
        <time>2019-01-07T04:09:10Z</time>
      </trkpt>
      <trkpt lat="42.42221" lon="2.32909">
        <ele>2304.1</ele>
        <time>2019-01-07T04:09:12Z</time>
      </trkpt>
      <trkpt lat="42.42229" lon="2.32914">
        <ele>2304.4</ele>
        <time>2019-01-07T04:09:15Z</time>
      </trkpt>
      <trkpt lat="42.42238" lon="2.32918">
        <ele>2306</ele>
        <time>2019-01-07T04:09:17Z</time>
      </trkpt>
      <trkpt lat="42.42247" lon="2.32925">
        <ele>2306.3</ele>
        <time>2019-01-07T04:09:20Z</time>
      </trkpt>
      <trkpt lat="42.42255" lon="2.3293">
        <ele>2307.9</ele>
        <time>2019-01-07T04:09:22Z</time>
      </trkpt>
      <trkpt lat="42.42265" lon="2.32934">
        <ele>2308.8</ele>
        <time>2019-01-07T04:09:25Z</time>
      </trkpt>
      <trkpt lat="42.42274" lon="2.32938">
        <ele>2310</ele>
        <time>2019-01-07T04:09:28Z</time>
      </trkpt>
      <trkpt lat="42.4228" lon="2.32948">
        <ele>2310.2</ele>
        <time>2019-01-07T04:09:30Z</time>
      </trkpt>
      <trkpt lat="42.42286" lon="2.32959">
        <ele>2311.8</ele>
        <time>2019-01-07T04:09:33Z</time>
      </trkpt>
      <trkpt lat="42.42295" lon="2.32967">
        <ele>2311.3</ele>
        <time>2019-01-07T04:09:36Z</time>
      </trkpt>
      <trkpt lat="42.42303" lon="2.32974">
        <ele>2311.5</ele>
        <time>2019-01-07T04:09:38Z</time>
      </trkpt>
      <trkpt lat="42.42312" lon="2.32977">
        <ele>2312.5</ele>
        <time>2019-01-07T04:09:41Z</time>
      </trkpt>
      <trkpt lat="42.42322" lon="2.32977">
        <ele>2313.2</ele>
        <time>2019-01-07T04:09:43Z</time>
      </trkpt>
      <trkpt lat="42.42331" lon="2.3298">
        <ele>2313.7</ele>
        <time>2019-01-07T04:09:46Z</time>
      </trkpt>
      <trkpt lat="42.4234" lon="2.32985">
        <ele>2315.7</ele>
        <time>2019-01-07T04:09:48Z</time>
      </trkpt>
      <trkpt lat="42.42347" lon="2.32993">
        <ele>2316.1</ele>
        <time>2019-01-07T04:09:51Z</time>
      </trkpt>
      <trkpt lat="42.42355" lon="2.33">
        <ele>2317</ele>
        <time>2019-01-07T04:09:53Z</time>
      </trkpt>
      <trkpt lat="42.42364" lon="2.33008">
        <ele>2318.8</ele>
        <time>2019-01-07T04:09:56Z</time>
      </trkpt>
      <trkpt lat="42.42372" lon="2.33014">
        <ele>2319.1</ele>
        <time>2019-01-07T04:09:59Z</time>
      </trkpt>
      <trkpt lat="42.42381" lon="2.33015">
        <ele>2319.6</ele>
        <time>2019-01-07T04:10:01Z</time>
      </trkpt>
      <trkpt lat="42.42391" lon="2.33019">
        <ele>2321.7</ele>
        <time>2019-01-07T04:10:04Z</time>
      </trkpt>
      <trkpt lat="42.424" lon="2.33023">
        <ele>2323.3</ele>
        <time>2019-01-07T04:10:06Z</time>
      </trkpt>
      <trkpt lat="42.42409" lon="2.3303">
        <ele>2324.1</ele>
        <time>2019-01-07T04:10:09Z</time>
      </trkpt>
      <trkpt lat="42.42417" lon="2.33037">
        <ele>2325.9</ele>
        <time>2019-01-07T04:10:12Z</time>
      </trkpt>
      <trkpt lat="42.42422" lon="2.33048">
        <ele>2325.1</ele>
        <time>2019-01-07T04:10:14Z</time>
      </trkpt>
      <trkpt lat="42.42427" lon="2.33058">
        <ele>2325</ele>
        <time>2019-01-07T04:10:17Z</time>
      </trkpt>
      <trkpt lat="42.42432" lon="2.3307">
        <ele>2325.2</ele>
        <time>2019-01-07T04:10:19Z</time>
      </trkpt>
      <trkpt lat="42.42437" lon="2.33081">
        <ele>2324.3</ele>
        <time>2019-01-07T04:10:22Z</time>
      </trkpt>
      <trkpt lat="42.42442" lon="2.33092">
        <ele>2323.3</ele>
        <time>2019-01-07T04:10:24Z</time>
      </trkpt>
      <trkpt lat="42.42448" lon="2.33101">
        <ele>2323.1</ele>
        <time>2019-01-07T04:10:27Z</time>
      </trkpt>
      <trkpt lat="42.42455" lon="2.33111">
        <ele>2322.2</ele>
        <time>2019-01-07T04:10:29Z</time>
      </trkpt>
      <trkpt lat="42.42461" lon="2.33122">
        <ele>2322.2</ele>
        <time>2019-01-07T04:10:32Z</time>
      </trkpt>
      <trkpt lat="42.42466" lon="2.33133">
        <ele>2322.2</ele>
        <time>2019-01-07T04:10:35Z</time>
      </trkpt>
      <trkpt lat="42.42471" lon="2.33144">
        <ele>2322.1</ele>
        <time>2019-01-07T04:10:37Z</time>
      </trkpt>
      <trkpt lat="42.42477" lon="2.33153">
        <ele>2320.7</ele>
        <time>2019-01-07T04:10:40Z</time>
      </trkpt>
      <trkpt lat="42.42482" lon="2.33163">
        <ele>2319</ele>
        <time>2019-01-07T04:10:42Z</time>
      </trkpt>
      <trkpt lat="42.42489" lon="2.33172">
        <ele>2319.1</ele>
        <time>2019-01-07T04:10:45Z</time>
      </trkpt>
      <trkpt lat="42.42492" lon="2.33185">
        <ele>2318.3</ele>
        <time>2019-01-07T04:10:47Z</time>
      </trkpt>
      <trkpt lat="42.42496" lon="2.33196">
        <ele>2318.1</ele>
        <time>2019-01-07T04:10:50Z</time>
      </trkpt>
      <trkpt lat="42.425" lon="2.33207">
        <ele>2318.2</ele>
        <time>2019-01-07T04:10:52Z</time>
      </trkpt>
      <trkpt lat="42.42501" lon="2.3322">
        <ele>2319.1</ele>
        <time>2019-01-07T04:10:55Z</time>
      </trkpt>
      <trkpt lat="42.42507" lon="2.33232">
        <ele>2319</ele>
        <time>2019-01-07T04:10:57Z</time>
      </trkpt>
      <trkpt lat="42.4251" lon="2.33243">
        <ele>2319.1</ele>
        <time>2019-01-07T04:11:00Z</time>
      </trkpt>
      <trkpt lat="42.42511" lon="2.33256">
        <ele>2319.2</ele>
        <time>2019-01-07T04:11:02Z</time>
      </trkpt>
      <trkpt lat="42.42515" lon="2.33267">
        <ele>2319.2</ele>
        <time>2019-01-07T04:11:05Z</time>
      </trkpt>
      <trkpt lat="42.42517" lon="2.33279">
        <ele>2319.1</ele>
        <time>2019-01-07T04:11:07Z</time>
      </trkpt>
      <trkpt lat="42.42521" lon="2.33291">
        <ele>2320.1</ele>
        <time>2019-01-07T04:11:10Z</time>
      </trkpt>
      <trkpt lat="42.42519" lon="2.33304">
        <ele>2320</ele>
        <time>2019-01-07T04:11:12Z</time>
      </trkpt>
      <trkpt lat="42.42517" lon="2.33316">
        <ele>2320</ele>
        <time>2019-01-07T04:11:15Z</time>
      </trkpt>
      <trkpt lat="42.42516" lon="2.33328">
        <ele>2319.2</ele>
        <time>2019-01-07T04:11:17Z</time>
      </trkpt>
      <trkpt lat="42.42518" lon="2.33341">
        <ele>2319.3</ele>
        <time>2019-01-07T04:11:20Z</time>
      </trkpt>
      <trkpt lat="42.42521" lon="2.33352">
        <ele>2320.5</ele>
        <time>2019-01-07T04:11:22Z</time>
      </trkpt>
      <trkpt lat="42.42517" lon="2.33363">
        <ele>2320.7</ele>
        <time>2019-01-07T04:11:25Z</time>
      </trkpt>
      <trkpt lat="42.42513" lon="2.33375">
        <ele>2319.3</ele>
        <time>2019-01-07T04:11:27Z</time>
      </trkpt>
      <trkpt lat="42.42514" lon="2.33388">
        <ele>2318.5</ele>
        <time>2019-01-07T04:11:30Z</time>
      </trkpt>
      <trkpt lat="42.42516" lon="2.334">
        <ele>2318.5</ele>
        <time>2019-01-07T04:11:32Z</time>
      </trkpt>
      <trkpt lat="42.4252" lon="2.33412">
        <ele>2320.5</ele>
        <time>2019-01-07T04:11:35Z</time>
      </trkpt>
      <trkpt lat="42.42521" lon="2.33426">
        <ele>2323</ele>
        <time>2019-01-07T04:11:37Z</time>
      </trkpt>
      <trkpt lat="42.42525" lon="2.33437">
        <ele>2325.6</ele>
        <time>2019-01-07T04:11:40Z</time>
      </trkpt>
      <trkpt lat="42.4253" lon="2.33447">
        <ele>2327</ele>
        <time>2019-01-07T04:11:42Z</time>
      </trkpt>
      <trkpt lat="42.42538" lon="2.33455">
        <ele>2330.7</ele>
        <time>2019-01-07T04:11:45Z</time>
      </trkpt>
      <trkpt lat="42.42543" lon="2.33466">
        <ele>2331.1</ele>
        <time>2019-01-07T04:11:47Z</time>
      </trkpt>
      <trkpt lat="42.42549" lon="2.33476">
        <ele>2332.1</ele>
        <time>2019-01-07T04:11:50Z</time>
      </trkpt>
      <trkpt lat="42.42553" lon="2.33487">
        <ele>2332</ele>
        <time>2019-01-07T04:11:52Z</time>
      </trkpt>
      <trkpt lat="42.42561" lon="2.33494">
        <ele>2331.6</ele>
        <time>2019-01-07T04:11:55Z</time>
      </trkpt>
      <trkpt lat="42.42568" lon="2.33501">
        <ele>2331.6</ele>
        <time>2019-01-07T04:11:57Z</time>
      </trkpt>
      <trkpt lat="42.42578" lon="2.33503">
        <ele>2333.2</ele>
        <time>2019-01-07T04:12:00Z</time>
      </trkpt>
      <trkpt lat="42.42586" lon="2.33508">
        <ele>2334.4</ele>
        <time>2019-01-07T04:12:02Z</time>
      </trkpt>
      <trkpt lat="42.42595" lon="2.33512">
        <ele>2336</ele>
        <time>2019-01-07T04:12:05Z</time>
      </trkpt>
      <trkpt lat="42.42603" lon="2.33519">
        <ele>2337.5</ele>
        <time>2019-01-07T04:12:07Z</time>
      </trkpt>
      <trkpt lat="42.42611" lon="2.33527">
        <ele>2338.3</ele>
        <time>2019-01-07T04:12:10Z</time>
      </trkpt>
      <trkpt lat="42.42617" lon="2.33535">
        <ele>2339.6</ele>
        <time>2019-01-07T04:12:12Z</time>
      </trkpt>
      <trkpt lat="42.42625" lon="2.33542">
        <ele>2341</ele>
        <time>2019-01-07T04:12:15Z</time>
      </trkpt>
      <trkpt lat="42.42633" lon="2.33547">
        <ele>2341.8</ele>
        <time>2019-01-07T04:12:17Z</time>
      </trkpt>
      <trkpt lat="42.42641" lon="2.33555">
        <ele>2343.9</ele>
        <time>2019-01-07T04:12:20Z</time>
      </trkpt>
      <trkpt lat="42.42649" lon="2.33562">
        <ele>2345.3</ele>
        <time>2019-01-07T04:12:22Z</time>
      </trkpt>
      <trkpt lat="42.42655" lon="2.33571">
        <ele>2347.1</ele>
        <time>2019-01-07T04:12:25Z</time>
      </trkpt>
      <trkpt lat="42.42661" lon="2.33581">
        <ele>2350</ele>
        <time>2019-01-07T04:12:27Z</time>
      </trkpt>
      <trkpt lat="42.42665" lon="2.33592">
        <ele>2351.6</ele>
        <time>2019-01-07T04:12:30Z</time>
      </trkpt>
      <trkpt lat="42.42671" lon="2.33603">
        <ele>2352.5</ele>
        <time>2019-01-07T04:12:32Z</time>
      </trkpt>
      <trkpt lat="42.42678" lon="2.33611">
        <ele>2353.5</ele>
        <time>2019-01-07T04:12:35Z</time>
      </trkpt>
      <trkpt lat="42.42686" lon="2.33618">
        <ele>2354.4</ele>
        <time>2019-01-07T04:12:37Z</time>
      </trkpt>
      <trkpt lat="42.42694" lon="2.33625">
        <ele>2355.3</ele>
        <time>2019-01-07T04:12:40Z</time>
      </trkpt>
      <trkpt lat="42.42701" lon="2.33633">
        <ele>2356.2</ele>
        <time>2019-01-07T04:12:42Z</time>
      </trkpt>
      <trkpt lat="42.42709" lon="2.33641">
        <ele>2357.1</ele>
        <time>2019-01-07T04:12:45Z</time>
      </trkpt>
      <trkpt lat="42.42716" lon="2.3365">
        <ele>2358.8</ele>
        <time>2019-01-07T04:12:48Z</time>
      </trkpt>
      <trkpt lat="42.42724" lon="2.33659">
        <ele>2359.2</ele>
        <time>2019-01-07T04:12:50Z</time>
      </trkpt>
      <trkpt lat="42.42732" lon="2.33667">
        <ele>2360.4</ele>
        <time>2019-01-07T04:12:53Z</time>
      </trkpt>
      <trkpt lat="42.42739" lon="2.33676">
        <ele>2362.7</ele>
        <time>2019-01-07T04:12:56Z</time>
      </trkpt>
      <trkpt lat="42.42745" lon="2.33684">
        <ele>2364.1</ele>
        <time>2019-01-07T04:12:58Z</time>
      </trkpt>
      <trkpt lat="42.42753" lon="2.33691">
        <ele>2364.2</ele>
        <time>2019-01-07T04:13:00Z</time>
      </trkpt>
      <trkpt lat="42.42762" lon="2.33698">
        <ele>2365.6</ele>
        <time>2019-01-07T04:13:03Z</time>
      </trkpt>
      <trkpt lat="42.42771" lon="2.33703">
        <ele>2368.1</ele>
        <time>2019-01-07T04:13:06Z</time>
      </trkpt>
      <trkpt lat="42.42779" lon="2.3371">
        <ele>2368.1</ele>
        <time>2019-01-07T04:13:08Z</time>
      </trkpt>
      <trkpt lat="42.42787" lon="2.33718">
        <ele>2368.7</ele>
        <time>2019-01-07T04:13:11Z</time>
      </trkpt>
      <trkpt lat="42.42794" lon="2.33726">
        <ele>2369.5</ele>
        <time>2019-01-07T04:13:13Z</time>
      </trkpt>
      <trkpt lat="42.42803" lon="2.33732">
        <ele>2370.6</ele>
        <time>2019-01-07T04:13:16Z</time>
      </trkpt>
      <trkpt lat="42.42812" lon="2.33736">
        <ele>2372.3</ele>
        <time>2019-01-07T04:13:19Z</time>
      </trkpt>
      <trkpt lat="42.42821" lon="2.33734">
        <ele>2375.3</ele>
        <time>2019-01-07T04:13:21Z</time>
      </trkpt>
      <trkpt lat="42.4283" lon="2.33732">
        <ele>2376.1</ele>
        <time>2019-01-07T04:13:24Z</time>
      </trkpt>
      <trkpt lat="42.42839" lon="2.33728">
        <ele>2379.4</ele>
        <time>2019-01-07T04:13:26Z</time>
      </trkpt>
      <trkpt lat="42.42848" lon="2.33732">
        <ele>2380.7</ele>
        <time>2019-01-07T04:13:29Z</time>
      </trkpt>
      <trkpt lat="42.42858" lon="2.33732">
        <ele>2381.1</ele>
        <time>2019-01-07T04:13:31Z</time>
      </trkpt>
      <trkpt lat="42.42867" lon="2.33727">
        <ele>2382.2</ele>
        <time>2019-01-07T04:13:34Z</time>
      </trkpt>
      <trkpt lat="42.42876" lon="2.33726">
        <ele>2383.6</ele>
        <time>2019-01-07T04:13:36Z</time>
      </trkpt>
      <trkpt lat="42.42885" lon="2.33724">
        <ele>2384.2</ele>
        <time>2019-01-07T04:13:39Z</time>
      </trkpt>
      <trkpt lat="42.42894" lon="2.33731">
        <ele>2384</ele>
        <time>2019-01-07T04:13:41Z</time>
      </trkpt>
      <trkpt lat="42.42899" lon="2.3374">
        <ele>2383.7</ele>
        <time>2019-01-07T04:13:44Z</time>
      </trkpt>
      <trkpt lat="42.42906" lon="2.33748">
        <ele>2383.8</ele>
        <time>2019-01-07T04:13:46Z</time>
      </trkpt>
      <trkpt lat="42.42915" lon="2.33741">
        <ele>2383.6</ele>
        <time>2019-01-07T04:13:49Z</time>
      </trkpt>
      <trkpt lat="42.42924" lon="2.33737">
        <ele>2382.6</ele>
        <time>2019-01-07T04:13:51Z</time>
      </trkpt>
      <trkpt lat="42.42933" lon="2.33731">
        <ele>2382.1</ele>
        <time>2019-01-07T04:13:54Z</time>
      </trkpt>
      <trkpt lat="42.42932" lon="2.33718">
        <ele>2380.7</ele>
        <time>2019-01-07T04:13:56Z</time>
      </trkpt>
      <trkpt lat="42.42924" lon="2.33712">
        <ele>2386.6</ele>
        <time>2019-01-07T04:13:59Z</time>
      </trkpt>
      <trkpt lat="42.42923" lon="2.33699">
        <ele>2391.1</ele>
        <time>2019-01-07T04:14:01Z</time>
      </trkpt>
      <trkpt lat="42.42916" lon="2.33691">
        <ele>2394.9</ele>
        <time>2019-01-07T04:14:04Z</time>
      </trkpt>
      <trkpt lat="42.4291" lon="2.33682">
        <ele>2396.2</ele>
        <time>2019-01-07T04:14:06Z</time>
      </trkpt>
      <trkpt lat="42.42906" lon="2.33671">
        <ele>2398.3</ele>
        <time>2019-01-07T04:14:08Z</time>
      </trkpt>
      <trkpt lat="42.42906" lon="2.33658">
        <ele>2400</ele>
        <time>2019-01-07T04:14:11Z</time>
      </trkpt>
      <trkpt lat="42.42906" lon="2.33646">
        <ele>2398.4</ele>
        <time>2019-01-07T04:14:13Z</time>
      </trkpt>
      <trkpt lat="42.42909" lon="2.33634">
        <ele>2397.3</ele>
        <time>2019-01-07T04:14:16Z</time>
      </trkpt>
      <trkpt lat="42.42908" lon="2.33621">
        <ele>2396.2</ele>
        <time>2019-01-07T04:14:18Z</time>
      </trkpt>
      <trkpt lat="42.42907" lon="2.33609">
        <ele>2398.2</ele>
        <time>2019-01-07T04:14:21Z</time>
      </trkpt>
      <trkpt lat="42.42903" lon="2.33597">
        <ele>2398.9</ele>
        <time>2019-01-07T04:14:23Z</time>
      </trkpt>
      <trkpt lat="42.42902" lon="2.33585">
        <ele>2400.1</ele>
        <time>2019-01-07T04:14:26Z</time>
      </trkpt>
      <trkpt lat="42.42897" lon="2.33574">
        <ele>2401.3</ele>
        <time>2019-01-07T04:14:28Z</time>
      </trkpt>
      <trkpt lat="42.42896" lon="2.33562">
        <ele>2402.1</ele>
        <time>2019-01-07T04:14:31Z</time>
      </trkpt>
      <trkpt lat="42.42896" lon="2.3355">
        <ele>2402.9</ele>
        <time>2019-01-07T04:14:33Z</time>
      </trkpt>
      <trkpt lat="42.42895" lon="2.33537">
        <ele>2403.2</ele>
        <time>2019-01-07T04:14:36Z</time>
      </trkpt>
      <trkpt lat="42.42893" lon="2.33524">
        <ele>2405.2</ele>
        <time>2019-01-07T04:14:38Z</time>
      </trkpt>
      <trkpt lat="42.42892" lon="2.33511">
        <ele>2406</ele>
        <time>2019-01-07T04:14:41Z</time>
      </trkpt>
      <trkpt lat="42.4289" lon="2.33499">
        <ele>2406</ele>
        <time>2019-01-07T04:14:43Z</time>
      </trkpt>
      <trkpt lat="42.42887" lon="2.33488">
        <ele>2406.7</ele>
        <time>2019-01-07T04:14:45Z</time>
      </trkpt>
      <trkpt lat="42.42883" lon="2.33475">
        <ele>2408.6</ele>
        <time>2019-01-07T04:14:48Z</time>
      </trkpt>
      <trkpt lat="42.42882" lon="2.33463">
        <ele>2412.1</ele>
        <time>2019-01-07T04:14:51Z</time>
      </trkpt>
      <trkpt lat="42.42882" lon="2.3345">
        <ele>2414.8</ele>
        <time>2019-01-07T04:14:53Z</time>
      </trkpt>
      <trkpt lat="42.42884" lon="2.33438">
        <ele>2417.1</ele>
        <time>2019-01-07T04:14:56Z</time>
      </trkpt>
      <trkpt lat="42.42883" lon="2.33425">
        <ele>2419.6</ele>
        <time>2019-01-07T04:14:58Z</time>
      </trkpt>
      <trkpt lat="42.42882" lon="2.33413">
        <ele>2422</ele>
        <time>2019-01-07T04:15:01Z</time>
      </trkpt>
      <trkpt lat="42.4288" lon="2.334">
        <ele>2423</ele>
        <time>2019-01-07T04:15:03Z</time>
      </trkpt>
      <trkpt lat="42.42879" lon="2.33387">
        <ele>2425.4</ele>
        <time>2019-01-07T04:15:06Z</time>
      </trkpt>
      <trkpt lat="42.4288" lon="2.33375">
        <ele>2426.1</ele>
        <time>2019-01-07T04:15:08Z</time>
      </trkpt>
      <trkpt lat="42.42885" lon="2.33364">
        <ele>2427.7</ele>
        <time>2019-01-07T04:15:11Z</time>
      </trkpt>
      <trkpt lat="42.42891" lon="2.33354">
        <ele>2429.9</ele>
        <time>2019-01-07T04:15:13Z</time>
      </trkpt>
      <trkpt lat="42.42895" lon="2.33343">
        <ele>2431</ele>
        <time>2019-01-07T04:15:16Z</time>
      </trkpt>
      <trkpt lat="42.42894" lon="2.3333">
        <ele>2431.9</ele>
        <time>2019-01-07T04:15:18Z</time>
      </trkpt>
      <trkpt lat="42.42895" lon="2.33318">
        <ele>2433.7</ele>
        <time>2019-01-07T04:15:21Z</time>
      </trkpt>
      <trkpt lat="42.429" lon="2.33306">
        <ele>2434.8</ele>
        <time>2019-01-07T04:15:23Z</time>
      </trkpt>
      <trkpt lat="42.42905" lon="2.33295">
        <ele>2433.9</ele>
        <time>2019-01-07T04:15:26Z</time>
      </trkpt>
      <trkpt lat="42.42911" lon="2.33284">
        <ele>2432.3</ele>
        <time>2019-01-07T04:15:28Z</time>
      </trkpt>
      <trkpt lat="42.42915" lon="2.33273">
        <ele>2429.3</ele>
        <time>2019-01-07T04:15:31Z</time>
      </trkpt>
      <trkpt lat="42.42918" lon="2.3326">
        <ele>2428.4</ele>
        <time>2019-01-07T04:15:34Z</time>
      </trkpt>
      <trkpt lat="42.42921" lon="2.33248">
        <ele>2428.1</ele>
        <time>2019-01-07T04:15:36Z</time>
      </trkpt>
      <trkpt lat="42.42923" lon="2.33235">
        <ele>2428.1</ele>
        <time>2019-01-07T04:15:39Z</time>
      </trkpt>
      <trkpt lat="42.42926" lon="2.33223">
        <ele>2428</ele>
        <time>2019-01-07T04:15:41Z</time>
      </trkpt>
      <trkpt lat="42.42927" lon="2.33209">
        <ele>2428.1</ele>
        <time>2019-01-07T04:15:44Z</time>
      </trkpt>
      <trkpt lat="42.42926" lon="2.33196">
        <ele>2426.9</ele>
        <time>2019-01-07T04:15:47Z</time>
      </trkpt>
      <trkpt lat="42.42926" lon="2.33183">
        <ele>2425.1</ele>
        <time>2019-01-07T04:15:49Z</time>
      </trkpt>
      <trkpt lat="42.42925" lon="2.3317">
        <ele>2425.1</ele>
        <time>2019-01-07T04:15:52Z</time>
      </trkpt>
      <trkpt lat="42.42921" lon="2.33158">
        <ele>2424.2</ele>
        <time>2019-01-07T04:15:54Z</time>
      </trkpt>
      <trkpt lat="42.42914" lon="2.33149">
        <ele>2424.1</ele>
        <time>2019-01-07T04:15:57Z</time>
      </trkpt>
      <trkpt lat="42.4291" lon="2.33138">
        <ele>2424.1</ele>
        <time>2019-01-07T04:15:59Z</time>
      </trkpt>
      <trkpt lat="42.42903" lon="2.33129">
        <ele>2423.8</ele>
        <time>2019-01-07T04:16:02Z</time>
      </trkpt>
      <trkpt lat="42.42897" lon="2.33118">
        <ele>2423.1</ele>
        <time>2019-01-07T04:16:04Z</time>
      </trkpt>
      <trkpt lat="42.42891" lon="2.33108">
        <ele>2423.2</ele>
        <time>2019-01-07T04:16:07Z</time>
      </trkpt>
      <trkpt lat="42.42886" lon="2.33098">
        <ele>2422.6</ele>
        <time>2019-01-07T04:16:09Z</time>
      </trkpt>
      <trkpt lat="42.42881" lon="2.33087">
        <ele>2421.8</ele>
        <time>2019-01-07T04:16:12Z</time>
      </trkpt>
      <trkpt lat="42.42877" lon="2.33075">
        <ele>2420.6</ele>
        <time>2019-01-07T04:16:15Z</time>
      </trkpt>
      <trkpt lat="42.42873" lon="2.33064">
        <ele>2419.9</ele>
        <time>2019-01-07T04:16:17Z</time>
      </trkpt>
      <trkpt lat="42.42869" lon="2.33053">
        <ele>2419.3</ele>
        <time>2019-01-07T04:16:19Z</time>
      </trkpt>
      <trkpt lat="42.42863" lon="2.33041">
        <ele>2418.6</ele>
        <time>2019-01-07T04:16:22Z</time>
      </trkpt>
      <trkpt lat="42.42856" lon="2.3303">
        <ele>2417.9</ele>
        <time>2019-01-07T04:16:25Z</time>
      </trkpt>
      <trkpt lat="42.42851" lon="2.3302">
        <ele>2417.2</ele>
        <time>2019-01-07T04:16:28Z</time>
      </trkpt>
      <trkpt lat="42.42846" lon="2.33008">
        <ele>2416</ele>
        <time>2019-01-07T04:16:30Z</time>
      </trkpt>
      <trkpt lat="42.42841" lon="2.32995">
        <ele>2415.1</ele>
        <time>2019-01-07T04:16:33Z</time>
      </trkpt>
      <trkpt lat="42.42838" lon="2.32982">
        <ele>2415.2</ele>
        <time>2019-01-07T04:16:36Z</time>
      </trkpt>
      <trkpt lat="42.42833" lon="2.3297">
        <ele>2413.8</ele>
        <time>2019-01-07T04:16:38Z</time>
      </trkpt>
      <trkpt lat="42.42828" lon="2.32959">
        <ele>2413.1</ele>
        <time>2019-01-07T04:16:41Z</time>
      </trkpt>
      <trkpt lat="42.42824" lon="2.32946">
        <ele>2413</ele>
        <time>2019-01-07T04:16:44Z</time>
      </trkpt>
      <trkpt lat="42.4282" lon="2.32935">
        <ele>2413.1</ele>
        <time>2019-01-07T04:16:46Z</time>
      </trkpt>
      <trkpt lat="42.42816" lon="2.32923">
        <ele>2413.1</ele>
        <time>2019-01-07T04:16:49Z</time>
      </trkpt>
      <trkpt lat="42.42812" lon="2.32911">
        <ele>2412.5</ele>
        <time>2019-01-07T04:16:51Z</time>
      </trkpt>
      <trkpt lat="42.42807" lon="2.32901">
        <ele>2412.1</ele>
        <time>2019-01-07T04:16:54Z</time>
      </trkpt>
      <trkpt lat="42.42802" lon="2.3289">
        <ele>2412</ele>
        <time>2019-01-07T04:16:56Z</time>
      </trkpt>
      <trkpt lat="42.42797" lon="2.32878">
        <ele>2412.1</ele>
        <time>2019-01-07T04:16:59Z</time>
      </trkpt>
      <trkpt lat="42.4279" lon="2.32868">
        <ele>2411.9</ele>
        <time>2019-01-07T04:17:02Z</time>
      </trkpt>
      <trkpt lat="42.42785" lon="2.32857">
        <ele>2411.4</ele>
        <time>2019-01-07T04:17:04Z</time>
      </trkpt>
      <trkpt lat="42.42779" lon="2.32845">
        <ele>2411.1</ele>
        <time>2019-01-07T04:17:07Z</time>
      </trkpt>
      <trkpt lat="42.42773" lon="2.32835">
        <ele>2411.2</ele>
        <time>2019-01-07T04:17:10Z</time>
      </trkpt>
      <trkpt lat="42.42769" lon="2.32824">
        <ele>2411</ele>
        <time>2019-01-07T04:17:12Z</time>
      </trkpt>
      <trkpt lat="42.42763" lon="2.32814">
        <ele>2411</ele>
        <time>2019-01-07T04:17:14Z</time>
      </trkpt>
      <trkpt lat="42.42758" lon="2.32803">
        <ele>2410.6</ele>
        <time>2019-01-07T04:17:17Z</time>
      </trkpt>
      <trkpt lat="42.42754" lon="2.3279">
        <ele>2410.2</ele>
        <time>2019-01-07T04:17:20Z</time>
      </trkpt>
      <trkpt lat="42.42749" lon="2.32778">
        <ele>2411</ele>
        <time>2019-01-07T04:17:23Z</time>
      </trkpt>
      <trkpt lat="42.42744" lon="2.32765">
        <ele>2411.2</ele>
        <time>2019-01-07T04:17:25Z</time>
      </trkpt>
      <trkpt lat="42.4274" lon="2.32752">
        <ele>2411.1</ele>
        <time>2019-01-07T04:17:28Z</time>
      </trkpt>
      <trkpt lat="42.42737" lon="2.32741">
        <ele>2411</ele>
        <time>2019-01-07T04:17:31Z</time>
      </trkpt>
      <trkpt lat="42.42733" lon="2.3273">
        <ele>2411.5</ele>
        <time>2019-01-07T04:17:33Z</time>
      </trkpt>
      <trkpt lat="42.42727" lon="2.3272">
        <ele>2412.2</ele>
        <time>2019-01-07T04:17:35Z</time>
      </trkpt>
      <trkpt lat="42.42723" lon="2.32709">
        <ele>2412.1</ele>
        <time>2019-01-07T04:17:38Z</time>
      </trkpt>
      <trkpt lat="42.42716" lon="2.32699">
        <ele>2412.1</ele>
        <time>2019-01-07T04:17:40Z</time>
      </trkpt>
      <trkpt lat="42.42709" lon="2.3269">
        <ele>2412.3</ele>
        <time>2019-01-07T04:17:43Z</time>
      </trkpt>
      <trkpt lat="42.42704" lon="2.3268">
        <ele>2412.9</ele>
        <time>2019-01-07T04:17:46Z</time>
      </trkpt>
      <trkpt lat="42.42698" lon="2.32669">
        <ele>2413.8</ele>
        <time>2019-01-07T04:17:48Z</time>
      </trkpt>
      <trkpt lat="42.42693" lon="2.32657">
        <ele>2415.5</ele>
        <time>2019-01-07T04:17:51Z</time>
      </trkpt>
      <trkpt lat="42.42688" lon="2.32647">
        <ele>2416</ele>
        <time>2019-01-07T04:17:53Z</time>
      </trkpt>
      <trkpt lat="42.42682" lon="2.32637">
        <ele>2417.7</ele>
        <time>2019-01-07T04:17:56Z</time>
      </trkpt>
      <trkpt lat="42.42676" lon="2.32626">
        <ele>2419.6</ele>
        <time>2019-01-07T04:17:58Z</time>
      </trkpt>
      <trkpt lat="42.4267" lon="2.32617">
        <ele>2421.1</ele>
        <time>2019-01-07T04:18:01Z</time>
      </trkpt>
      <trkpt lat="42.42665" lon="2.32605">
        <ele>2423.7</ele>
        <time>2019-01-07T04:18:04Z</time>
      </trkpt>
      <trkpt lat="42.42659" lon="2.32595">
        <ele>2425</ele>
        <time>2019-01-07T04:18:06Z</time>
      </trkpt>
      <trkpt lat="42.42656" lon="2.32583">
        <ele>2425.6</ele>
        <time>2019-01-07T04:18:09Z</time>
      </trkpt>
      <trkpt lat="42.42652" lon="2.32571">
        <ele>2427.8</ele>
        <time>2019-01-07T04:18:11Z</time>
      </trkpt>
      <trkpt lat="42.42648" lon="2.32559">
        <ele>2429</ele>
        <time>2019-01-07T04:18:14Z</time>
      </trkpt>
      <trkpt lat="42.42645" lon="2.32546">
        <ele>2430.6</ele>
        <time>2019-01-07T04:18:17Z</time>
      </trkpt>
      <trkpt lat="42.42642" lon="2.32534">
        <ele>2433.9</ele>
        <time>2019-01-07T04:18:19Z</time>
      </trkpt>
      <trkpt lat="42.42637" lon="2.32522">
        <ele>2437.4</ele>
        <time>2019-01-07T04:18:22Z</time>
      </trkpt>
      <trkpt lat="42.4263" lon="2.32514">
        <ele>2439.4</ele>
        <time>2019-01-07T04:18:24Z</time>
      </trkpt>
      <trkpt lat="42.42625" lon="2.32504">
        <ele>2442.3</ele>
        <time>2019-01-07T04:18:27Z</time>
      </trkpt>
      <trkpt lat="42.42619" lon="2.32494">
        <ele>2444.9</ele>
        <time>2019-01-07T04:18:29Z</time>
      </trkpt>
      <trkpt lat="42.42614" lon="2.32485">
        <ele>2446.9</ele>
        <time>2019-01-07T04:18:31Z</time>
      </trkpt>
      <trkpt lat="42.42609" lon="2.32474">
        <ele>2448.2</ele>
        <time>2019-01-07T04:18:34Z</time>
      </trkpt>
      <trkpt lat="42.42605" lon="2.32463">
        <ele>2449.6</ele>
        <time>2019-01-07T04:18:36Z</time>
      </trkpt>
      <trkpt lat="42.42599" lon="2.32452">
        <ele>2452.2</ele>
        <time>2019-01-07T04:18:39Z</time>
      </trkpt>
      <trkpt lat="42.42593" lon="2.32442">
        <ele>2454.2</ele>
        <time>2019-01-07T04:18:41Z</time>
      </trkpt>
      <trkpt lat="42.4259" lon="2.3243">
        <ele>2457</ele>
        <time>2019-01-07T04:18:44Z</time>
      </trkpt>
      <trkpt lat="42.42588" lon="2.32418">
        <ele>2459.4</ele>
        <time>2019-01-07T04:18:46Z</time>
      </trkpt>
      <trkpt lat="42.42583" lon="2.32408">
        <ele>2461.3</ele>
        <time>2019-01-07T04:18:49Z</time>
      </trkpt>
      <trkpt lat="42.42576" lon="2.32398">
        <ele>2462.9</ele>
        <time>2019-01-07T04:18:52Z</time>
      </trkpt>
      <trkpt lat="42.42573" lon="2.32386">
        <ele>2465</ele>
        <time>2019-01-07T04:18:54Z</time>
      </trkpt>
      <trkpt lat="42.42569" lon="2.32375">
        <ele>2466.9</ele>
        <time>2019-01-07T04:18:57Z</time>
      </trkpt>
      <trkpt lat="42.42565" lon="2.32364">
        <ele>2469.1</ele>
        <time>2019-01-07T04:18:59Z</time>
      </trkpt>
      <trkpt lat="42.42566" lon="2.32351">
        <ele>2470</ele>
        <time>2019-01-07T04:19:01Z</time>
      </trkpt>
      <trkpt lat="42.42566" lon="2.32339">
        <ele>2470.8</ele>
        <time>2019-01-07T04:19:04Z</time>
      </trkpt>
      <trkpt lat="42.42567" lon="2.32326">
        <ele>2472.4</ele>
        <time>2019-01-07T04:19:07Z</time>
      </trkpt>
      <trkpt lat="42.42569" lon="2.32313">
        <ele>2473.4</ele>
        <time>2019-01-07T04:19:09Z</time>
      </trkpt>
      <trkpt lat="42.42566" lon="2.323">
        <ele>2474.2</ele>
        <time>2019-01-07T04:19:12Z</time>
      </trkpt>
      <trkpt lat="42.42564" lon="2.32288">
        <ele>2475</ele>
        <time>2019-01-07T04:19:14Z</time>
      </trkpt>
      <trkpt lat="42.42564" lon="2.32275">
        <ele>2478.2</ele>
        <time>2019-01-07T04:19:17Z</time>
      </trkpt>
      <trkpt lat="42.42565" lon="2.32261">
        <ele>2479.1</ele>
        <time>2019-01-07T04:19:19Z</time>
      </trkpt>
      <trkpt lat="42.42564" lon="2.32248">
        <ele>2480.3</ele>
        <time>2019-01-07T04:19:22Z</time>
      </trkpt>
      <trkpt lat="42.4256" lon="2.32236">
        <ele>2481.1</ele>
        <time>2019-01-07T04:19:25Z</time>
      </trkpt>
      <trkpt lat="42.42557" lon="2.32223">
        <ele>2481.9</ele>
        <time>2019-01-07T04:19:27Z</time>
      </trkpt>
      <trkpt lat="42.42556" lon="2.32211">
        <ele>2483.4</ele>
        <time>2019-01-07T04:19:30Z</time>
      </trkpt>
      <trkpt lat="42.42553" lon="2.32198">
        <ele>2484.1</ele>
        <time>2019-01-07T04:19:32Z</time>
      </trkpt>
      <trkpt lat="42.4255" lon="2.32185">
        <ele>2484.3</ele>
        <time>2019-01-07T04:19:35Z</time>
      </trkpt>
      <trkpt lat="42.42547" lon="2.32172">
        <ele>2486.1</ele>
        <time>2019-01-07T04:19:38Z</time>
      </trkpt>
      <trkpt lat="42.42545" lon="2.3216">
        <ele>2486.7</ele>
        <time>2019-01-07T04:19:40Z</time>
      </trkpt>
      <trkpt lat="42.42543" lon="2.32147">
        <ele>2487.2</ele>
        <time>2019-01-07T04:19:43Z</time>
      </trkpt>
      <trkpt lat="42.42538" lon="2.32136">
        <ele>2488.1</ele>
        <time>2019-01-07T04:19:45Z</time>
      </trkpt>
      <trkpt lat="42.42533" lon="2.32125">
        <ele>2490.2</ele>
        <time>2019-01-07T04:19:48Z</time>
      </trkpt>
      <trkpt lat="42.42529" lon="2.32115">
        <ele>2491.2</ele>
        <time>2019-01-07T04:19:50Z</time>
      </trkpt>
      <trkpt lat="42.4253" lon="2.32102">
        <ele>2492</ele>
        <time>2019-01-07T04:19:53Z</time>
      </trkpt>
      <trkpt lat="42.4253" lon="2.32089">
        <ele>2493.5</ele>
        <time>2019-01-07T04:19:55Z</time>
      </trkpt>
      <trkpt lat="42.4253" lon="2.32075">
        <ele>2494.1</ele>
        <time>2019-01-07T04:19:58Z</time>
      </trkpt>
      <trkpt lat="42.42528" lon="2.32062">
        <ele>2493.8</ele>
        <time>2019-01-07T04:20:01Z</time>
      </trkpt>
      <trkpt lat="42.42527" lon="2.32049">
        <ele>2492.3</ele>
        <time>2019-01-07T04:20:03Z</time>
      </trkpt>
      <trkpt lat="42.42525" lon="2.32037">
        <ele>2492.1</ele>
        <time>2019-01-07T04:20:06Z</time>
      </trkpt>
      <trkpt lat="42.42522" lon="2.32024">
        <ele>2492.6</ele>
        <time>2019-01-07T04:20:08Z</time>
      </trkpt>
      <trkpt lat="42.42519" lon="2.32011">
        <ele>2494.1</ele>
        <time>2019-01-07T04:20:11Z</time>
      </trkpt>
      <trkpt lat="42.42518" lon="2.31998">
        <ele>2495</ele>
        <time>2019-01-07T04:20:13Z</time>
      </trkpt>
      <trkpt lat="42.4252" lon="2.31985">
        <ele>2496.7</ele>
        <time>2019-01-07T04:20:16Z</time>
      </trkpt>
      <trkpt lat="42.42522" lon="2.31972">
        <ele>2497.5</ele>
        <time>2019-01-07T04:20:19Z</time>
      </trkpt>
      <trkpt lat="42.42525" lon="2.3196">
        <ele>2498</ele>
        <time>2019-01-07T04:20:21Z</time>
      </trkpt>
      <trkpt lat="42.42527" lon="2.31948">
        <ele>2498.2</ele>
        <time>2019-01-07T04:20:24Z</time>
      </trkpt>
      <trkpt lat="42.42525" lon="2.31936">
        <ele>2498.2</ele>
        <time>2019-01-07T04:20:26Z</time>
      </trkpt>
      <trkpt lat="42.42526" lon="2.31924">
        <ele>2499.2</ele>
        <time>2019-01-07T04:20:29Z</time>
      </trkpt>
      <trkpt lat="42.42529" lon="2.31913">
        <ele>2499</ele>
        <time>2019-01-07T04:20:31Z</time>
      </trkpt>
      <trkpt lat="42.42535" lon="2.31901">
        <ele>2498.4</ele>
        <time>2019-01-07T04:20:34Z</time>
      </trkpt>
      <trkpt lat="42.42537" lon="2.31889">
        <ele>2497.9</ele>
        <time>2019-01-07T04:20:36Z</time>
      </trkpt>
      <trkpt lat="42.42528" lon="2.31887">
        <ele>2501.2</ele>
        <time>2019-01-07T04:20:39Z</time>
      </trkpt>
      <trkpt lat="42.42518" lon="2.31888">
        <ele>2504.7</ele>
        <time>2019-01-07T04:20:41Z</time>
      </trkpt>
      <trkpt lat="42.42509" lon="2.31888">
        <ele>2505.9</ele>
        <time>2019-01-07T04:20:44Z</time>
      </trkpt>
      <trkpt lat="42.42519" lon="2.31889">
        <ele>2505.2</ele>
        <time>2019-01-07T04:20:46Z</time>
      </trkpt>
      <trkpt lat="42.42528" lon="2.31886">
        <ele>2504.1</ele>
        <time>2019-01-07T04:20:49Z</time>
      </trkpt>
      <trkpt lat="42.42536" lon="2.31881">
        <ele>2499.5</ele>
        <time>2019-01-07T04:20:51Z</time>
      </trkpt>
      <trkpt lat="42.42543" lon="2.31872">
        <ele>2497</ele>
        <time>2019-01-07T04:20:53Z</time>
      </trkpt>
      <trkpt lat="42.42548" lon="2.31862">
        <ele>2494</ele>
        <time>2019-01-07T04:20:56Z</time>
      </trkpt>
      <trkpt lat="42.42555" lon="2.31855">
        <ele>2491.9</ele>
        <time>2019-01-07T04:20:58Z</time>
      </trkpt>
      <trkpt lat="42.42564" lon="2.31847">
        <ele>2490.3</ele>
        <time>2019-01-07T04:21:01Z</time>
      </trkpt>
      <trkpt lat="42.42571" lon="2.31839">
        <ele>2489.1</ele>
        <time>2019-01-07T04:21:04Z</time>
      </trkpt>
      <trkpt lat="42.42576" lon="2.31826">
        <ele>2488.8</ele>
        <time>2019-01-07T04:21:06Z</time>
      </trkpt>
      <trkpt lat="42.42581" lon="2.31815">
        <ele>2485.6</ele>
        <time>2019-01-07T04:21:09Z</time>
      </trkpt>
      <trkpt lat="42.42585" lon="2.31803">
        <ele>2484.6</ele>
        <time>2019-01-07T04:21:12Z</time>
      </trkpt>
      <trkpt lat="42.42589" lon="2.31792">
        <ele>2483.6</ele>
        <time>2019-01-07T04:21:14Z</time>
      </trkpt>
      <trkpt lat="42.42595" lon="2.31781">
        <ele>2481.7</ele>
        <time>2019-01-07T04:21:17Z</time>
      </trkpt>
      <trkpt lat="42.42601" lon="2.31773">
        <ele>2479</ele>
        <time>2019-01-07T04:21:19Z</time>
      </trkpt>
      <trkpt lat="42.42608" lon="2.31764">
        <ele>2477.3</ele>
        <time>2019-01-07T04:21:22Z</time>
      </trkpt>
      <trkpt lat="42.42615" lon="2.31754">
        <ele>2473.9</ele>
        <time>2019-01-07T04:21:24Z</time>
      </trkpt>
      <trkpt lat="42.42617" lon="2.31742">
        <ele>2472.3</ele>
        <time>2019-01-07T04:21:27Z</time>
      </trkpt>
      <trkpt lat="42.42622" lon="2.31731">
        <ele>2471.4</ele>
        <time>2019-01-07T04:21:29Z</time>
      </trkpt>
      <trkpt lat="42.42628" lon="2.31721">
        <ele>2468.9</ele>
        <time>2019-01-07T04:21:32Z</time>
      </trkpt>
      <trkpt lat="42.42635" lon="2.31712">
        <ele>2464.9</ele>
        <time>2019-01-07T04:21:34Z</time>
      </trkpt>
      <trkpt lat="42.42642" lon="2.31702">
        <ele>2462.6</ele>
        <time>2019-01-07T04:21:37Z</time>
      </trkpt>
      <trkpt lat="42.42648" lon="2.31691">
        <ele>2460.6</ele>
        <time>2019-01-07T04:21:40Z</time>
      </trkpt>
      <trkpt lat="42.42653" lon="2.31681">
        <ele>2457</ele>
        <time>2019-01-07T04:21:42Z</time>
      </trkpt>
      <trkpt lat="42.42659" lon="2.31671">
        <ele>2453.7</ele>
        <time>2019-01-07T04:21:45Z</time>
      </trkpt>
      <trkpt lat="42.42665" lon="2.3166">
        <ele>2450.1</ele>
        <time>2019-01-07T04:21:47Z</time>
      </trkpt>
      <trkpt lat="42.4267" lon="2.31649">
        <ele>2447.2</ele>
        <time>2019-01-07T04:21:50Z</time>
      </trkpt>
      <trkpt lat="42.42678" lon="2.31641">
        <ele>2444.4</ele>
        <time>2019-01-07T04:21:53Z</time>
      </trkpt>
      <trkpt lat="42.42686" lon="2.31632">
        <ele>2441.8</ele>
        <time>2019-01-07T04:21:55Z</time>
      </trkpt>
      <trkpt lat="42.42689" lon="2.3162">
        <ele>2438.2</ele>
        <time>2019-01-07T04:21:58Z</time>
      </trkpt>
      <trkpt lat="42.42694" lon="2.31609">
        <ele>2435.6</ele>
        <time>2019-01-07T04:22:00Z</time>
      </trkpt>
      <trkpt lat="42.42695" lon="2.31596">
        <ele>2434.2</ele>
        <time>2019-01-07T04:22:03Z</time>
      </trkpt>
      <trkpt lat="42.42698" lon="2.31584">
        <ele>2432.7</ele>
        <time>2019-01-07T04:22:05Z</time>
      </trkpt>
      <trkpt lat="42.42699" lon="2.31571">
        <ele>2431.1</ele>
        <time>2019-01-07T04:22:08Z</time>
      </trkpt>
      <trkpt lat="42.42702" lon="2.31559">
        <ele>2429.6</ele>
        <time>2019-01-07T04:22:10Z</time>
      </trkpt>
      <trkpt lat="42.42708" lon="2.31548">
        <ele>2428</ele>
        <time>2019-01-07T04:22:13Z</time>
      </trkpt>
      <trkpt lat="42.42713" lon="2.31536">
        <ele>2426.2</ele>
        <time>2019-01-07T04:22:16Z</time>
      </trkpt>
      <trkpt lat="42.42718" lon="2.31525">
        <ele>2424.3</ele>
        <time>2019-01-07T04:22:18Z</time>
      </trkpt>
      <trkpt lat="42.42721" lon="2.31512">
        <ele>2421.4</ele>
        <time>2019-01-07T04:22:21Z</time>
      </trkpt>
      <trkpt lat="42.42727" lon="2.315">
        <ele>2419.3</ele>
        <time>2019-01-07T04:22:24Z</time>
      </trkpt>
      <trkpt lat="42.42733" lon="2.31489">
        <ele>2417.4</ele>
        <time>2019-01-07T04:22:26Z</time>
      </trkpt>
      <trkpt lat="42.42737" lon="2.31478">
        <ele>2416.1</ele>
        <time>2019-01-07T04:22:29Z</time>
      </trkpt>
      <trkpt lat="42.42743" lon="2.31468">
        <ele>2413</ele>
        <time>2019-01-07T04:22:32Z</time>
      </trkpt>
      <trkpt lat="42.42748" lon="2.31457">
        <ele>2410.8</ele>
        <time>2019-01-07T04:22:34Z</time>
      </trkpt>
      <trkpt lat="42.42753" lon="2.31445">
        <ele>2409.6</ele>
        <time>2019-01-07T04:22:37Z</time>
      </trkpt>
      <trkpt lat="42.42757" lon="2.31434">
        <ele>2407.7</ele>
        <time>2019-01-07T04:22:39Z</time>
      </trkpt>
      <trkpt lat="42.42761" lon="2.31422">
        <ele>2405.9</ele>
        <time>2019-01-07T04:22:42Z</time>
      </trkpt>
      <trkpt lat="42.42768" lon="2.31412">
        <ele>2403.6</ele>
        <time>2019-01-07T04:22:44Z</time>
      </trkpt>
      <trkpt lat="42.42773" lon="2.31401">
        <ele>2401.3</ele>
        <time>2019-01-07T04:22:47Z</time>
      </trkpt>
      <trkpt lat="42.42781" lon="2.31392">
        <ele>2399.2</ele>
        <time>2019-01-07T04:22:50Z</time>
      </trkpt>
      <trkpt lat="42.4279" lon="2.31386">
        <ele>2399</ele>
        <time>2019-01-07T04:22:53Z</time>
      </trkpt>
      <trkpt lat="42.42796" lon="2.31375">
        <ele>2397.7</ele>
        <time>2019-01-07T04:22:55Z</time>
      </trkpt>
      <trkpt lat="42.42799" lon="2.31362">
        <ele>2396</ele>
        <time>2019-01-07T04:22:58Z</time>
      </trkpt>
      <trkpt lat="42.42803" lon="2.3135">
        <ele>2395.5</ele>
        <time>2019-01-07T04:23:00Z</time>
      </trkpt>
      <trkpt lat="42.42808" lon="2.3134">
        <ele>2394.7</ele>
        <time>2019-01-07T04:23:03Z</time>
      </trkpt>
      <trkpt lat="42.4281" lon="2.31327">
        <ele>2394.1</ele>
        <time>2019-01-07T04:23:05Z</time>
      </trkpt>
      <trkpt lat="42.42813" lon="2.31316">
        <ele>2393.5</ele>
        <time>2019-01-07T04:23:08Z</time>
      </trkpt>
      <trkpt lat="42.42817" lon="2.31303">
        <ele>2392.5</ele>
        <time>2019-01-07T04:23:10Z</time>
      </trkpt>
      <trkpt lat="42.42823" lon="2.31291">
        <ele>2391</ele>
        <time>2019-01-07T04:23:13Z</time>
      </trkpt>
      <trkpt lat="42.4283" lon="2.31281">
        <ele>2390.2</ele>
        <time>2019-01-07T04:23:16Z</time>
      </trkpt>
      <trkpt lat="42.42835" lon="2.3127">
        <ele>2390.2</ele>
        <time>2019-01-07T04:23:19Z</time>
      </trkpt>
      <trkpt lat="42.42841" lon="2.3126">
        <ele>2389.4</ele>
        <time>2019-01-07T04:23:21Z</time>
      </trkpt>
      <trkpt lat="42.42847" lon="2.3125">
        <ele>2389</ele>
        <time>2019-01-07T04:23:24Z</time>
      </trkpt>
      <trkpt lat="42.42851" lon="2.31237">
        <ele>2389.1</ele>
        <time>2019-01-07T04:23:26Z</time>
      </trkpt>
      <trkpt lat="42.42856" lon="2.31226">
        <ele>2388</ele>
        <time>2019-01-07T04:23:29Z</time>
      </trkpt>
      <trkpt lat="42.4286" lon="2.31216">
        <ele>2387.2</ele>
        <time>2019-01-07T04:23:31Z</time>
      </trkpt>
      <trkpt lat="42.42866" lon="2.31204">
        <ele>2387.1</ele>
        <time>2019-01-07T04:23:34Z</time>
      </trkpt>
      <trkpt lat="42.42874" lon="2.31197">
        <ele>2387.1</ele>
        <time>2019-01-07T04:23:37Z</time>
      </trkpt>
      <trkpt lat="42.42881" lon="2.31187">
        <ele>2387.1</ele>
        <time>2019-01-07T04:23:39Z</time>
      </trkpt>
      <trkpt lat="42.42887" lon="2.31178">
        <ele>2387.1</ele>
        <time>2019-01-07T04:23:42Z</time>
      </trkpt>
      <trkpt lat="42.42894" lon="2.31168">
        <ele>2387.2</ele>
        <time>2019-01-07T04:23:44Z</time>
      </trkpt>
      <trkpt lat="42.42901" lon="2.31161">
        <ele>2387.1</ele>
        <time>2019-01-07T04:23:47Z</time>
      </trkpt>
      <trkpt lat="42.42908" lon="2.31152">
        <ele>2387.1</ele>
        <time>2019-01-07T04:23:49Z</time>
      </trkpt>
      <trkpt lat="42.42917" lon="2.31145">
        <ele>2387</ele>
        <time>2019-01-07T04:23:52Z</time>
      </trkpt>
      <trkpt lat="42.42924" lon="2.31135">
        <ele>2387.6</ele>
        <time>2019-01-07T04:23:55Z</time>
      </trkpt>
      <trkpt lat="42.4293" lon="2.31126">
        <ele>2388.1</ele>
        <time>2019-01-07T04:23:57Z</time>
      </trkpt>
      <trkpt lat="42.42936" lon="2.31116">
        <ele>2388</ele>
        <time>2019-01-07T04:24:00Z</time>
      </trkpt>
      <trkpt lat="42.42939" lon="2.31104">
        <ele>2389.1</ele>
        <time>2019-01-07T04:24:02Z</time>
      </trkpt>
      <trkpt lat="42.42947" lon="2.31095">
        <ele>2388.4</ele>
        <time>2019-01-07T04:24:05Z</time>
      </trkpt>
      <trkpt lat="42.42955" lon="2.31088">
        <ele>2388</ele>
        <time>2019-01-07T04:24:08Z</time>
      </trkpt>
      <trkpt lat="42.42964" lon="2.31081">
        <ele>2387.2</ele>
        <time>2019-01-07T04:24:10Z</time>
      </trkpt>
      <trkpt lat="42.42973" lon="2.31077">
        <ele>2387.7</ele>
        <time>2019-01-07T04:24:13Z</time>
      </trkpt>
      <trkpt lat="42.42981" lon="2.31069">
        <ele>2389.1</ele>
        <time>2019-01-07T04:24:15Z</time>
      </trkpt>
      <trkpt lat="42.42989" lon="2.31061">
        <ele>2390.1</ele>
        <time>2019-01-07T04:24:18Z</time>
      </trkpt>
      <trkpt lat="42.42997" lon="2.31053">
        <ele>2390.2</ele>
        <time>2019-01-07T04:24:21Z</time>
      </trkpt>
      <trkpt lat="42.43004" lon="2.31044">
        <ele>2390.5</ele>
        <time>2019-01-07T04:24:23Z</time>
      </trkpt>
      <trkpt lat="42.4301" lon="2.31034">
        <ele>2391</ele>
        <time>2019-01-07T04:24:26Z</time>
      </trkpt>
      <trkpt lat="42.43016" lon="2.31024">
        <ele>2391.1</ele>
        <time>2019-01-07T04:24:28Z</time>
      </trkpt>
      <trkpt lat="42.43024" lon="2.31017">
        <ele>2391.1</ele>
        <time>2019-01-07T04:24:31Z</time>
      </trkpt>
      <trkpt lat="42.43032" lon="2.3101">
        <ele>2391.6</ele>
        <time>2019-01-07T04:24:33Z</time>
      </trkpt>
      <trkpt lat="42.4304" lon="2.31003">
        <ele>2392.4</ele>
        <time>2019-01-07T04:24:36Z</time>
      </trkpt>
      <trkpt lat="42.43046" lon="2.30994">
        <ele>2392.9</ele>
        <time>2019-01-07T04:24:38Z</time>
      </trkpt>
      <trkpt lat="42.43052" lon="2.30984">
        <ele>2393</ele>
        <time>2019-01-07T04:24:41Z</time>
      </trkpt>
      <trkpt lat="42.4306" lon="2.30976">
        <ele>2393.1</ele>
        <time>2019-01-07T04:24:44Z</time>
      </trkpt>
      <trkpt lat="42.43067" lon="2.30969">
        <ele>2393.2</ele>
        <time>2019-01-07T04:24:46Z</time>
      </trkpt>
      <trkpt lat="42.43075" lon="2.3096">
        <ele>2393.1</ele>
        <time>2019-01-07T04:24:49Z</time>
      </trkpt>
      <trkpt lat="42.43079" lon="2.30949">
        <ele>2395.7</ele>
        <time>2019-01-07T04:24:51Z</time>
      </trkpt>
      <trkpt lat="42.43082" lon="2.30937">
        <ele>2396.1</ele>
        <time>2019-01-07T04:24:54Z</time>
      </trkpt>
      <trkpt lat="42.43086" lon="2.30925">
        <ele>2396.6</ele>
        <time>2019-01-07T04:24:56Z</time>
      </trkpt>
      <trkpt lat="42.43092" lon="2.30915">
        <ele>2397.4</ele>
        <time>2019-01-07T04:24:59Z</time>
      </trkpt>
      <trkpt lat="42.43098" lon="2.30905">
        <ele>2398</ele>
        <time>2019-01-07T04:25:01Z</time>
      </trkpt>
      <trkpt lat="42.43104" lon="2.30896">
        <ele>2397.1</ele>
        <time>2019-01-07T04:25:04Z</time>
      </trkpt>
      <trkpt lat="42.43111" lon="2.30887">
        <ele>2397.1</ele>
        <time>2019-01-07T04:25:06Z</time>
      </trkpt>
      <trkpt lat="42.43115" lon="2.30875">
        <ele>2398.7</ele>
        <time>2019-01-07T04:25:09Z</time>
      </trkpt>
      <trkpt lat="42.43121" lon="2.30864">
        <ele>2398.4</ele>
        <time>2019-01-07T04:25:11Z</time>
      </trkpt>
      <trkpt lat="42.43124" lon="2.30853">
        <ele>2399</ele>
        <time>2019-01-07T04:25:14Z</time>
      </trkpt>
      <trkpt lat="42.43126" lon="2.30841">
        <ele>2400.1</ele>
        <time>2019-01-07T04:25:16Z</time>
      </trkpt>
      <trkpt lat="42.4313" lon="2.3083">
        <ele>2400.8</ele>
        <time>2019-01-07T04:25:19Z</time>
      </trkpt>
      <trkpt lat="42.43136" lon="2.3082">
        <ele>2402.4</ele>
        <time>2019-01-07T04:25:21Z</time>
      </trkpt>
      <trkpt lat="42.4314" lon="2.30809">
        <ele>2403.2</ele>
        <time>2019-01-07T04:25:24Z</time>
      </trkpt>
      <trkpt lat="42.43145" lon="2.30798">
        <ele>2403.8</ele>
        <time>2019-01-07T04:25:26Z</time>
      </trkpt>
      <trkpt lat="42.43149" lon="2.30786">
        <ele>2404.9</ele>
        <time>2019-01-07T04:25:29Z</time>
      </trkpt>
      <trkpt lat="42.43152" lon="2.30773">
        <ele>2406.6</ele>
        <time>2019-01-07T04:25:31Z</time>
      </trkpt>
      <trkpt lat="42.43155" lon="2.3076">
        <ele>2407.2</ele>
        <time>2019-01-07T04:25:34Z</time>
      </trkpt>
      <trkpt lat="42.4316" lon="2.30749">
        <ele>2407.5</ele>
        <time>2019-01-07T04:25:37Z</time>
      </trkpt>
      <trkpt lat="42.43162" lon="2.30737">
        <ele>2408.2</ele>
        <time>2019-01-07T04:25:39Z</time>
      </trkpt>
      <trkpt lat="42.43166" lon="2.30725">
        <ele>2408</ele>
        <time>2019-01-07T04:25:42Z</time>
      </trkpt>
      <trkpt lat="42.4317" lon="2.30714">
        <ele>2407.4</ele>
        <time>2019-01-07T04:25:44Z</time>
      </trkpt>
      <trkpt lat="42.43175" lon="2.30703">
        <ele>2407.4</ele>
        <time>2019-01-07T04:25:47Z</time>
      </trkpt>
      <trkpt lat="42.43181" lon="2.30692">
        <ele>2408.4</ele>
        <time>2019-01-07T04:25:49Z</time>
      </trkpt>
      <trkpt lat="42.43187" lon="2.30682">
        <ele>2409.1</ele>
        <time>2019-01-07T04:25:52Z</time>
      </trkpt>
      <trkpt lat="42.43192" lon="2.3067">
        <ele>2409.9</ele>
        <time>2019-01-07T04:25:54Z</time>
      </trkpt>
      <trkpt lat="42.43196" lon="2.3066">
        <ele>2410.6</ele>
        <time>2019-01-07T04:25:57Z</time>
      </trkpt>
      <trkpt lat="42.43199" lon="2.30647">
        <ele>2411.1</ele>
        <time>2019-01-07T04:26:00Z</time>
      </trkpt>
      <trkpt lat="42.43203" lon="2.30635">
        <ele>2411.2</ele>
        <time>2019-01-07T04:26:02Z</time>
      </trkpt>
      <trkpt lat="42.43208" lon="2.30623">
        <ele>2411.9</ele>
        <time>2019-01-07T04:26:05Z</time>
      </trkpt>
      <trkpt lat="42.43208" lon="2.3061">
        <ele>2412.1</ele>
        <time>2019-01-07T04:26:07Z</time>
      </trkpt>
      <trkpt lat="42.43209" lon="2.30598">
        <ele>2413.8</ele>
        <time>2019-01-07T04:26:10Z</time>
      </trkpt>
      <trkpt lat="42.43213" lon="2.30585">
        <ele>2413.1</ele>
        <time>2019-01-07T04:26:12Z</time>
      </trkpt>
      <trkpt lat="42.43205" lon="2.30577">
        <ele>2416.1</ele>
        <time>2019-01-07T04:26:15Z</time>
      </trkpt>
      <trkpt lat="42.43199" lon="2.30567">
        <ele>2416</ele>
        <time>2019-01-07T04:26:18Z</time>
      </trkpt>
      <trkpt lat="42.43193" lon="2.30557">
        <ele>2416.7</ele>
        <time>2019-01-07T04:26:20Z</time>
      </trkpt>
      <trkpt lat="42.43188" lon="2.30546">
        <ele>2418.1</ele>
        <time>2019-01-07T04:26:23Z</time>
      </trkpt>
      <trkpt lat="42.43186" lon="2.30533">
        <ele>2418.8</ele>
        <time>2019-01-07T04:26:25Z</time>
      </trkpt>
      <trkpt lat="42.43182" lon="2.30521">
        <ele>2419.8</ele>
        <time>2019-01-07T04:26:28Z</time>
      </trkpt>
      <trkpt lat="42.43178" lon="2.3051">
        <ele>2420.1</ele>
        <time>2019-01-07T04:26:30Z</time>
      </trkpt>
      <trkpt lat="42.4317" lon="2.30501">
        <ele>2420.1</ele>
        <time>2019-01-07T04:26:33Z</time>
      </trkpt>
      <trkpt lat="42.43162" lon="2.30496">
        <ele>2420.2</ele>
        <time>2019-01-07T04:26:35Z</time>
      </trkpt>
      <trkpt lat="42.43153" lon="2.30489">
        <ele>2419.6</ele>
        <time>2019-01-07T04:26:38Z</time>
      </trkpt>
      <trkpt lat="42.43145" lon="2.30484">
        <ele>2419.1</ele>
        <time>2019-01-07T04:26:40Z</time>
      </trkpt>
      <trkpt lat="42.43136" lon="2.30479">
        <ele>2419</ele>
        <time>2019-01-07T04:26:43Z</time>
      </trkpt>
      <trkpt lat="42.43127" lon="2.30474">
        <ele>2419.1</ele>
        <time>2019-01-07T04:26:46Z</time>
      </trkpt>
      <trkpt lat="42.43118" lon="2.3047">
        <ele>2419.2</ele>
        <time>2019-01-07T04:26:48Z</time>
      </trkpt>
      <trkpt lat="42.4311" lon="2.30464">
        <ele>2418.3</ele>
        <time>2019-01-07T04:26:51Z</time>
      </trkpt>
      <trkpt lat="42.43101" lon="2.30459">
        <ele>2418.1</ele>
        <time>2019-01-07T04:26:53Z</time>
      </trkpt>
      <trkpt lat="42.43093" lon="2.30452">
        <ele>2417.3</ele>
        <time>2019-01-07T04:26:56Z</time>
      </trkpt>
      <trkpt lat="42.43083" lon="2.30446">
        <ele>2417.1</ele>
        <time>2019-01-07T04:26:59Z</time>
      </trkpt>
      <trkpt lat="42.43076" lon="2.30436">
        <ele>2417.1</ele>
        <time>2019-01-07T04:27:01Z</time>
      </trkpt>
      <trkpt lat="42.43069" lon="2.30428">
        <ele>2417</ele>
        <time>2019-01-07T04:27:04Z</time>
      </trkpt>
      <trkpt lat="42.43061" lon="2.30424">
        <ele>2416.1</ele>
        <time>2019-01-07T04:27:06Z</time>
      </trkpt>
      <trkpt lat="42.43054" lon="2.30415">
        <ele>2416.1</ele>
        <time>2019-01-07T04:27:09Z</time>
      </trkpt>
      <trkpt lat="42.43047" lon="2.30405">
        <ele>2414.2</ele>
        <time>2019-01-07T04:27:11Z</time>
      </trkpt>
      <trkpt lat="42.4304" lon="2.30396">
        <ele>2412.5</ele>
        <time>2019-01-07T04:27:14Z</time>
      </trkpt>
      <trkpt lat="42.43033" lon="2.30388">
        <ele>2412.1</ele>
        <time>2019-01-07T04:27:16Z</time>
      </trkpt>
      <trkpt lat="42.43026" lon="2.3038">
        <ele>2412</ele>
        <time>2019-01-07T04:27:19Z</time>
      </trkpt>
      <trkpt lat="42.43017" lon="2.30372">
        <ele>2411.4</ele>
        <time>2019-01-07T04:27:22Z</time>
      </trkpt>
      <trkpt lat="42.43012" lon="2.30362">
        <ele>2411.2</ele>
        <time>2019-01-07T04:27:24Z</time>
      </trkpt>
      <trkpt lat="42.43004" lon="2.30353">
        <ele>2411</ele>
        <time>2019-01-07T04:27:27Z</time>
      </trkpt>
      <trkpt lat="42.42996" lon="2.30346">
        <ele>2410.1</ele>
        <time>2019-01-07T04:27:29Z</time>
      </trkpt>
      <trkpt lat="42.42989" lon="2.30338">
        <ele>2409.3</ele>
        <time>2019-01-07T04:27:32Z</time>
      </trkpt>
      <trkpt lat="42.42982" lon="2.3033">
        <ele>2408.2</ele>
        <time>2019-01-07T04:27:34Z</time>
      </trkpt>
      <trkpt lat="42.42975" lon="2.30321">
        <ele>2406.9</ele>
        <time>2019-01-07T04:27:37Z</time>
      </trkpt>
      <trkpt lat="42.42967" lon="2.30313">
        <ele>2406.1</ele>
        <time>2019-01-07T04:27:39Z</time>
      </trkpt>
      <trkpt lat="42.42959" lon="2.30307">
        <ele>2405.3</ele>
        <time>2019-01-07T04:27:42Z</time>
      </trkpt>
      <trkpt lat="42.42952" lon="2.30298">
        <ele>2405.1</ele>
        <time>2019-01-07T04:27:44Z</time>
      </trkpt>
      <trkpt lat="42.42944" lon="2.30291">
        <ele>2404.8</ele>
        <time>2019-01-07T04:27:47Z</time>
      </trkpt>
      <trkpt lat="42.42938" lon="2.30281">
        <ele>2404</ele>
        <time>2019-01-07T04:27:50Z</time>
      </trkpt>
      <trkpt lat="42.42931" lon="2.30271">
        <ele>2403.1</ele>
        <time>2019-01-07T04:27:52Z</time>
      </trkpt>
      <trkpt lat="42.42924" lon="2.30264">
        <ele>2401.7</ele>
        <time>2019-01-07T04:27:55Z</time>
      </trkpt>
      <trkpt lat="42.42917" lon="2.30256">
        <ele>2400.5</ele>
        <time>2019-01-07T04:27:57Z</time>
      </trkpt>
      <trkpt lat="42.42908" lon="2.30251">
        <ele>2400</ele>
        <time>2019-01-07T04:28:00Z</time>
      </trkpt>
      <trkpt lat="42.429" lon="2.30245">
        <ele>2399.8</ele>
        <time>2019-01-07T04:28:02Z</time>
      </trkpt>
      <trkpt lat="42.42895" lon="2.30233">
        <ele>2397.1</ele>
        <time>2019-01-07T04:28:05Z</time>
      </trkpt>
      <trkpt lat="42.42889" lon="2.30223">
        <ele>2396.4</ele>
        <time>2019-01-07T04:28:07Z</time>
      </trkpt>
      <trkpt lat="42.42881" lon="2.30215">
        <ele>2396.1</ele>
        <time>2019-01-07T04:28:10Z</time>
      </trkpt>
      <trkpt lat="42.42872" lon="2.30208">
        <ele>2395.3</ele>
        <time>2019-01-07T04:28:13Z</time>
      </trkpt>
      <trkpt lat="42.42864" lon="2.30199">
        <ele>2394.1</ele>
        <time>2019-01-07T04:28:15Z</time>
      </trkpt>
      <trkpt lat="42.42857" lon="2.30191">
        <ele>2394</ele>
        <time>2019-01-07T04:28:18Z</time>
      </trkpt>
      <trkpt lat="42.42849" lon="2.30184">
        <ele>2393.6</ele>
        <time>2019-01-07T04:28:20Z</time>
      </trkpt>
      <trkpt lat="42.42841" lon="2.30176">
        <ele>2393.1</ele>
        <time>2019-01-07T04:28:23Z</time>
      </trkpt>
      <trkpt lat="42.42835" lon="2.30165">
        <ele>2393.2</ele>
        <time>2019-01-07T04:28:26Z</time>
      </trkpt>
      <trkpt lat="42.4283" lon="2.30154">
        <ele>2393</ele>
        <time>2019-01-07T04:28:28Z</time>
      </trkpt>
      <trkpt lat="42.42824" lon="2.30143">
        <ele>2392.3</ele>
        <time>2019-01-07T04:28:31Z</time>
      </trkpt>
      <trkpt lat="42.42817" lon="2.30133">
        <ele>2391.5</ele>
        <time>2019-01-07T04:28:34Z</time>
      </trkpt>
      <trkpt lat="42.42811" lon="2.30124">
        <ele>2391</ele>
        <time>2019-01-07T04:28:36Z</time>
      </trkpt>
      <trkpt lat="42.42805" lon="2.30113">
        <ele>2391.2</ele>
        <time>2019-01-07T04:28:39Z</time>
      </trkpt>
      <trkpt lat="42.42799" lon="2.30103">
        <ele>2391.1</ele>
        <time>2019-01-07T04:28:41Z</time>
      </trkpt>
      <trkpt lat="42.42792" lon="2.30092">
        <ele>2390.5</ele>
        <time>2019-01-07T04:28:44Z</time>
      </trkpt>
      <trkpt lat="42.42784" lon="2.30084">
        <ele>2390.1</ele>
        <time>2019-01-07T04:28:47Z</time>
      </trkpt>
      <trkpt lat="42.42777" lon="2.30076">
        <ele>2390</ele>
        <time>2019-01-07T04:28:49Z</time>
      </trkpt>
      <trkpt lat="42.42771" lon="2.30067">
        <ele>2390</ele>
        <time>2019-01-07T04:28:52Z</time>
      </trkpt>
      <trkpt lat="42.42765" lon="2.30055">
        <ele>2389.3</ele>
        <time>2019-01-07T04:28:55Z</time>
      </trkpt>
      <trkpt lat="42.42758" lon="2.30045">
        <ele>2389.1</ele>
        <time>2019-01-07T04:28:57Z</time>
      </trkpt>
      <trkpt lat="42.42755" lon="2.30033">
        <ele>2389.1</ele>
        <time>2019-01-07T04:29:00Z</time>
      </trkpt>
      <trkpt lat="42.42752" lon="2.3002">
        <ele>2389.4</ele>
        <time>2019-01-07T04:29:02Z</time>
      </trkpt>
      <trkpt lat="42.42747" lon="2.30007">
        <ele>2390.1</ele>
        <time>2019-01-07T04:29:05Z</time>
      </trkpt>
      <trkpt lat="42.42742" lon="2.29996">
        <ele>2390.4</ele>
        <time>2019-01-07T04:29:08Z</time>
      </trkpt>
      <trkpt lat="42.42736" lon="2.29986">
        <ele>2392</ele>
        <time>2019-01-07T04:29:11Z</time>
      </trkpt>
      <trkpt lat="42.4273" lon="2.29976">
        <ele>2392.2</ele>
        <time>2019-01-07T04:29:13Z</time>
      </trkpt>
      <trkpt lat="42.42727" lon="2.29963">
        <ele>2392.7</ele>
        <time>2019-01-07T04:29:16Z</time>
      </trkpt>
      <trkpt lat="42.42723" lon="2.29952">
        <ele>2393.1</ele>
        <time>2019-01-07T04:29:18Z</time>
      </trkpt>
      <trkpt lat="42.42718" lon="2.29941">
        <ele>2393</ele>
        <time>2019-01-07T04:29:21Z</time>
      </trkpt>
      <trkpt lat="42.42717" lon="2.29928">
        <ele>2393.2</ele>
        <time>2019-01-07T04:29:23Z</time>
      </trkpt>
      <trkpt lat="42.42715" lon="2.29914">
        <ele>2393.2</ele>
        <time>2019-01-07T04:29:26Z</time>
      </trkpt>
      <trkpt lat="42.42713" lon="2.29902">
        <ele>2393.1</ele>
        <time>2019-01-07T04:29:29Z</time>
      </trkpt>
      <trkpt lat="42.42708" lon="2.2989">
        <ele>2392.6</ele>
        <time>2019-01-07T04:29:31Z</time>
      </trkpt>
      <trkpt lat="42.42704" lon="2.29879">
        <ele>2392</ele>
        <time>2019-01-07T04:29:34Z</time>
      </trkpt>
      <trkpt lat="42.42703" lon="2.29866">
        <ele>2392</ele>
        <time>2019-01-07T04:29:36Z</time>
      </trkpt>
      <trkpt lat="42.427" lon="2.29854">
        <ele>2392.2</ele>
        <time>2019-01-07T04:29:39Z</time>
      </trkpt>
      <trkpt lat="42.42702" lon="2.29842">
        <ele>2392.2</ele>
        <time>2019-01-07T04:29:41Z</time>
      </trkpt>
      <trkpt lat="42.42703" lon="2.29829">
        <ele>2392.1</ele>
        <time>2019-01-07T04:29:44Z</time>
      </trkpt>
      <trkpt lat="42.42704" lon="2.29816">
        <ele>2393.1</ele>
        <time>2019-01-07T04:29:46Z</time>
      </trkpt>
      <trkpt lat="42.42709" lon="2.29805">
        <ele>2393</ele>
        <time>2019-01-07T04:29:49Z</time>
      </trkpt>
      <trkpt lat="42.4271" lon="2.29793">
        <ele>2393</ele>
        <time>2019-01-07T04:29:51Z</time>
      </trkpt>
      <trkpt lat="42.42713" lon="2.2978">
        <ele>2393.1</ele>
        <time>2019-01-07T04:29:54Z</time>
      </trkpt>
      <trkpt lat="42.42715" lon="2.29767">
        <ele>2393.1</ele>
        <time>2019-01-07T04:29:56Z</time>
      </trkpt>
      <trkpt lat="42.42718" lon="2.29755">
        <ele>2393.2</ele>
        <time>2019-01-07T04:29:59Z</time>
      </trkpt>
      <trkpt lat="42.42722" lon="2.29742">
        <ele>2393.1</ele>
        <time>2019-01-07T04:30:02Z</time>
      </trkpt>
      <trkpt lat="42.42722" lon="2.29728">
        <ele>2393.5</ele>
        <time>2019-01-07T04:30:04Z</time>
      </trkpt>
      <trkpt lat="42.42722" lon="2.29716">
        <ele>2394</ele>
        <time>2019-01-07T04:30:07Z</time>
      </trkpt>
      <trkpt lat="42.42725" lon="2.29703">
        <ele>2394.2</ele>
        <time>2019-01-07T04:30:09Z</time>
      </trkpt>
      <trkpt lat="42.42723" lon="2.2969">
        <ele>2394</ele>
        <time>2019-01-07T04:30:12Z</time>
      </trkpt>
      <trkpt lat="42.42722" lon="2.29677">
        <ele>2394.2</ele>
        <time>2019-01-07T04:30:14Z</time>
      </trkpt>
      <trkpt lat="42.42723" lon="2.29663">
        <ele>2394</ele>
        <time>2019-01-07T04:30:17Z</time>
      </trkpt>
      <trkpt lat="42.42724" lon="2.29651">
        <ele>2394</ele>
        <time>2019-01-07T04:30:20Z</time>
      </trkpt>
      <trkpt lat="42.42726" lon="2.29638">
        <ele>2394.7</ele>
        <time>2019-01-07T04:30:22Z</time>
      </trkpt>
      <trkpt lat="42.42728" lon="2.29626">
        <ele>2395.1</ele>
        <time>2019-01-07T04:30:25Z</time>
      </trkpt>
      <trkpt lat="42.42729" lon="2.29613">
        <ele>2394.8</ele>
        <time>2019-01-07T04:30:27Z</time>
      </trkpt>
      <trkpt lat="42.42732" lon="2.29601">
        <ele>2394</ele>
        <time>2019-01-07T04:30:30Z</time>
      </trkpt>
      <trkpt lat="42.42736" lon="2.29589">
        <ele>2394.1</ele>
        <time>2019-01-07T04:30:32Z</time>
      </trkpt>
      <trkpt lat="42.4274" lon="2.29578">
        <ele>2394.9</ele>
        <time>2019-01-07T04:30:35Z</time>
      </trkpt>
      <trkpt lat="42.42743" lon="2.29567">
        <ele>2395</ele>
        <time>2019-01-07T04:30:37Z</time>
      </trkpt>
      <trkpt lat="42.42747" lon="2.29556">
        <ele>2395.7</ele>
        <time>2019-01-07T04:30:40Z</time>
      </trkpt>
      <trkpt lat="42.4275" lon="2.29542">
        <ele>2396.2</ele>
        <time>2019-01-07T04:30:42Z</time>
      </trkpt>
      <trkpt lat="42.42752" lon="2.2953">
        <ele>2396.2</ele>
        <time>2019-01-07T04:30:45Z</time>
      </trkpt>
      <trkpt lat="42.42753" lon="2.29518">
        <ele>2396.2</ele>
        <time>2019-01-07T04:30:47Z</time>
      </trkpt>
      <trkpt lat="42.42754" lon="2.29504">
        <ele>2396.8</ele>
        <time>2019-01-07T04:30:50Z</time>
      </trkpt>
      <trkpt lat="42.42757" lon="2.29492">
        <ele>2397</ele>
        <time>2019-01-07T04:30:53Z</time>
      </trkpt>
      <trkpt lat="42.4276" lon="2.2948">
        <ele>2397.6</ele>
        <time>2019-01-07T04:30:55Z</time>
      </trkpt>
      <trkpt lat="42.42764" lon="2.29469">
        <ele>2398.1</ele>
        <time>2019-01-07T04:30:57Z</time>
      </trkpt>
      <trkpt lat="42.4277" lon="2.2946">
        <ele>2398.2</ele>
        <time>2019-01-07T04:31:00Z</time>
      </trkpt>
      <trkpt lat="42.42776" lon="2.29449">
        <ele>2398.1</ele>
        <time>2019-01-07T04:31:02Z</time>
      </trkpt>
      <trkpt lat="42.42782" lon="2.2944">
        <ele>2398.1</ele>
        <time>2019-01-07T04:31:05Z</time>
      </trkpt>
      <trkpt lat="42.42786" lon="2.29428">
        <ele>2398.7</ele>
        <time>2019-01-07T04:31:07Z</time>
      </trkpt>
      <trkpt lat="42.42788" lon="2.29415">
        <ele>2399</ele>
        <time>2019-01-07T04:31:10Z</time>
      </trkpt>
      <trkpt lat="42.42791" lon="2.29402">
        <ele>2399.1</ele>
        <time>2019-01-07T04:31:13Z</time>
      </trkpt>
      <trkpt lat="42.42795" lon="2.29391">
        <ele>2399.2</ele>
        <time>2019-01-07T04:31:15Z</time>
      </trkpt>
      <trkpt lat="42.42798" lon="2.29378">
        <ele>2399.8</ele>
        <time>2019-01-07T04:31:18Z</time>
      </trkpt>
      <trkpt lat="42.42801" lon="2.29366">
        <ele>2400.1</ele>
        <time>2019-01-07T04:31:20Z</time>
      </trkpt>
      <trkpt lat="42.42804" lon="2.29354">
        <ele>2400.4</ele>
        <time>2019-01-07T04:31:23Z</time>
      </trkpt>
      <trkpt lat="42.42806" lon="2.2934">
        <ele>2401.2</ele>
        <time>2019-01-07T04:31:26Z</time>
      </trkpt>
      <trkpt lat="42.42811" lon="2.2933">
        <ele>2401.2</ele>
        <time>2019-01-07T04:31:28Z</time>
      </trkpt>
      <trkpt lat="42.42814" lon="2.29318">
        <ele>2401.1</ele>
        <time>2019-01-07T04:31:31Z</time>
      </trkpt>
      <trkpt lat="42.42818" lon="2.29306">
        <ele>2401.5</ele>
        <time>2019-01-07T04:31:33Z</time>
      </trkpt>
      <trkpt lat="42.42822" lon="2.29293">
        <ele>2403</ele>
        <time>2019-01-07T04:31:36Z</time>
      </trkpt>
      <trkpt lat="42.42827" lon="2.29282">
        <ele>2403.1</ele>
        <time>2019-01-07T04:31:38Z</time>
      </trkpt>
      <trkpt lat="42.42832" lon="2.2927">
        <ele>2404</ele>
        <time>2019-01-07T04:31:41Z</time>
      </trkpt>
      <trkpt lat="42.42836" lon="2.29259">
        <ele>2404.2</ele>
        <time>2019-01-07T04:31:43Z</time>
      </trkpt>
      <trkpt lat="42.42839" lon="2.29246">
        <ele>2404.1</ele>
        <time>2019-01-07T04:31:46Z</time>
      </trkpt>
      <trkpt lat="42.42841" lon="2.29234">
        <ele>2404.2</ele>
        <time>2019-01-07T04:31:49Z</time>
      </trkpt>
      <trkpt lat="42.42844" lon="2.29221">
        <ele>2404.6</ele>
        <time>2019-01-07T04:31:51Z</time>
      </trkpt>
      <trkpt lat="42.42847" lon="2.29208">
        <ele>2405.1</ele>
        <time>2019-01-07T04:31:54Z</time>
      </trkpt>
      <trkpt lat="42.42853" lon="2.29197">
        <ele>2404.9</ele>
        <time>2019-01-07T04:31:57Z</time>
      </trkpt>
      <trkpt lat="42.42858" lon="2.29186">
        <ele>2404.1</ele>
        <time>2019-01-07T04:31:59Z</time>
      </trkpt>
      <trkpt lat="42.42865" lon="2.29175">
        <ele>2404.7</ele>
        <time>2019-01-07T04:32:02Z</time>
      </trkpt>
      <trkpt lat="42.42869" lon="2.29164">
        <ele>2405.2</ele>
        <time>2019-01-07T04:32:05Z</time>
      </trkpt>
      <trkpt lat="42.42875" lon="2.29151">
        <ele>2404.9</ele>
        <time>2019-01-07T04:32:07Z</time>
      </trkpt>
      <trkpt lat="42.42879" lon="2.2914">
        <ele>2404.2</ele>
        <time>2019-01-07T04:32:10Z</time>
      </trkpt>
      <trkpt lat="42.42883" lon="2.29129">
        <ele>2404.6</ele>
        <time>2019-01-07T04:32:12Z</time>
      </trkpt>
      <trkpt lat="42.42888" lon="2.29118">
        <ele>2405.5</ele>
        <time>2019-01-07T04:32:15Z</time>
      </trkpt>
      <trkpt lat="42.42893" lon="2.29108">
        <ele>2406.1</ele>
        <time>2019-01-07T04:32:17Z</time>
      </trkpt>
      <trkpt lat="42.42897" lon="2.29096">
        <ele>2406.2</ele>
        <time>2019-01-07T04:32:20Z</time>
      </trkpt>
      <trkpt lat="42.42902" lon="2.29085">
        <ele>2407.2</ele>
        <time>2019-01-07T04:32:22Z</time>
      </trkpt>
      <trkpt lat="42.42904" lon="2.29072">
        <ele>2408.1</ele>
        <time>2019-01-07T04:32:25Z</time>
      </trkpt>
      <trkpt lat="42.42904" lon="2.29059">
        <ele>2408.3</ele>
        <time>2019-01-07T04:32:28Z</time>
      </trkpt>
      <trkpt lat="42.42908" lon="2.29048">
        <ele>2409.2</ele>
        <time>2019-01-07T04:32:30Z</time>
      </trkpt>
      <trkpt lat="42.42914" lon="2.29039">
        <ele>2409.1</ele>
        <time>2019-01-07T04:32:32Z</time>
      </trkpt>
      <trkpt lat="42.4292" lon="2.2903">
        <ele>2409</ele>
        <time>2019-01-07T04:32:35Z</time>
      </trkpt>
      <trkpt lat="42.42926" lon="2.29019">
        <ele>2409.1</ele>
        <time>2019-01-07T04:32:37Z</time>
      </trkpt>
      <trkpt lat="42.42932" lon="2.2901">
        <ele>2409.1</ele>
        <time>2019-01-07T04:32:40Z</time>
      </trkpt>
      <trkpt lat="42.42936" lon="2.28999">
        <ele>2409.5</ele>
        <time>2019-01-07T04:32:42Z</time>
      </trkpt>
      <trkpt lat="42.42939" lon="2.28988">
        <ele>2410</ele>
        <time>2019-01-07T04:32:45Z</time>
      </trkpt>
      <trkpt lat="42.42945" lon="2.28977">
        <ele>2410</ele>
        <time>2019-01-07T04:32:47Z</time>
      </trkpt>
      <trkpt lat="42.42948" lon="2.28966">
        <ele>2411.8</ele>
        <time>2019-01-07T04:32:50Z</time>
      </trkpt>
      <trkpt lat="42.4295" lon="2.28953">
        <ele>2412.1</ele>
        <time>2019-01-07T04:32:52Z</time>
      </trkpt>
      <trkpt lat="42.42955" lon="2.28943">
        <ele>2412.5</ele>
        <time>2019-01-07T04:32:55Z</time>
      </trkpt>
      <trkpt lat="42.4296" lon="2.28932">
        <ele>2413.1</ele>
        <time>2019-01-07T04:32:57Z</time>
      </trkpt>
      <trkpt lat="42.42964" lon="2.28921">
        <ele>2413.2</ele>
        <time>2019-01-07T04:33:00Z</time>
      </trkpt>
      <trkpt lat="42.42969" lon="2.2891">
        <ele>2413</ele>
        <time>2019-01-07T04:33:02Z</time>
      </trkpt>
      <trkpt lat="42.42974" lon="2.28898">
        <ele>2412.2</ele>
        <time>2019-01-07T04:33:05Z</time>
      </trkpt>
      <trkpt lat="42.4298" lon="2.28887">
        <ele>2412.1</ele>
        <time>2019-01-07T04:33:08Z</time>
      </trkpt>
      <trkpt lat="42.42984" lon="2.28876">
        <ele>2412.1</ele>
        <time>2019-01-07T04:33:10Z</time>
      </trkpt>
      <trkpt lat="42.42989" lon="2.28865">
        <ele>2412.1</ele>
        <time>2019-01-07T04:33:12Z</time>
      </trkpt>
      <trkpt lat="42.42991" lon="2.28853">
        <ele>2412.1</ele>
        <time>2019-01-07T04:33:15Z</time>
      </trkpt>
      <trkpt lat="42.42996" lon="2.28841">
        <ele>2412.1</ele>
        <time>2019-01-07T04:33:18Z</time>
      </trkpt>
      <trkpt lat="42.42998" lon="2.28829">
        <ele>2412</ele>
        <time>2019-01-07T04:33:20Z</time>
      </trkpt>
      <trkpt lat="42.43002" lon="2.28818">
        <ele>2412.1</ele>
        <time>2019-01-07T04:33:23Z</time>
      </trkpt>
      <trkpt lat="42.43006" lon="2.28804">
        <ele>2411.8</ele>
        <time>2019-01-07T04:33:25Z</time>
      </trkpt>
      <trkpt lat="42.43006" lon="2.28792">
        <ele>2411.2</ele>
        <time>2019-01-07T04:33:28Z</time>
      </trkpt>
      <trkpt lat="42.4301" lon="2.28779">
        <ele>2411.9</ele>
        <time>2019-01-07T04:33:30Z</time>
      </trkpt>
      <trkpt lat="42.43014" lon="2.28767">
        <ele>2412.2</ele>
        <time>2019-01-07T04:33:33Z</time>
      </trkpt>
      <trkpt lat="42.43016" lon="2.28755">
        <ele>2411.3</ele>
        <time>2019-01-07T04:33:36Z</time>
      </trkpt>
      <trkpt lat="42.43018" lon="2.28743">
        <ele>2410.1</ele>
        <time>2019-01-07T04:33:38Z</time>
      </trkpt>
      <trkpt lat="42.4302" lon="2.28729">
        <ele>2411</ele>
        <time>2019-01-07T04:33:41Z</time>
      </trkpt>
      <trkpt lat="42.43022" lon="2.28717">
        <ele>2411.1</ele>
        <time>2019-01-07T04:33:43Z</time>
      </trkpt>
      <trkpt lat="42.43024" lon="2.28703">
        <ele>2411.1</ele>
        <time>2019-01-07T04:33:46Z</time>
      </trkpt>
      <trkpt lat="42.43026" lon="2.28689">
        <ele>2411</ele>
        <time>2019-01-07T04:33:49Z</time>
      </trkpt>
      <trkpt lat="42.43027" lon="2.28676">
        <ele>2411.1</ele>
        <time>2019-01-07T04:33:51Z</time>
      </trkpt>
      <trkpt lat="42.43029" lon="2.28663">
        <ele>2411.1</ele>
        <time>2019-01-07T04:33:54Z</time>
      </trkpt>
      <trkpt lat="42.43032" lon="2.28651">
        <ele>2411.1</ele>
        <time>2019-01-07T04:33:56Z</time>
      </trkpt>
      <trkpt lat="42.43032" lon="2.28638">
        <ele>2411.1</ele>
        <time>2019-01-07T04:33:59Z</time>
      </trkpt>
      <trkpt lat="42.43033" lon="2.28625">
        <ele>2411.1</ele>
        <time>2019-01-07T04:34:02Z</time>
      </trkpt>
      <trkpt lat="42.43035" lon="2.28613">
        <ele>2411.1</ele>
        <time>2019-01-07T04:34:04Z</time>
      </trkpt>
      <trkpt lat="42.43037" lon="2.28599">
        <ele>2411.6</ele>
        <time>2019-01-07T04:34:07Z</time>
      </trkpt>
      <trkpt lat="42.43037" lon="2.28587">
        <ele>2412.1</ele>
        <time>2019-01-07T04:34:09Z</time>
      </trkpt>
      <trkpt lat="42.43039" lon="2.28575">
        <ele>2412.1</ele>
        <time>2019-01-07T04:34:12Z</time>
      </trkpt>
      <trkpt lat="42.43039" lon="2.28562">
        <ele>2411.5</ele>
        <time>2019-01-07T04:34:14Z</time>
      </trkpt>
      <trkpt lat="42.43041" lon="2.28548">
        <ele>2410.5</ele>
        <time>2019-01-07T04:34:17Z</time>
      </trkpt>
      <trkpt lat="42.43041" lon="2.28536">
        <ele>2410.1</ele>
        <time>2019-01-07T04:34:19Z</time>
      </trkpt>
      <trkpt lat="42.43041" lon="2.28522">
        <ele>2410.1</ele>
        <time>2019-01-07T04:34:22Z</time>
      </trkpt>
      <trkpt lat="42.43042" lon="2.28509">
        <ele>2410.1</ele>
        <time>2019-01-07T04:34:25Z</time>
      </trkpt>
      <trkpt lat="42.4304" lon="2.28496">
        <ele>2410.1</ele>
        <time>2019-01-07T04:34:27Z</time>
      </trkpt>
      <trkpt lat="42.43037" lon="2.28484">
        <ele>2410</ele>
        <time>2019-01-07T04:34:30Z</time>
      </trkpt>
      <trkpt lat="42.43034" lon="2.28471">
        <ele>2408.4</ele>
        <time>2019-01-07T04:34:33Z</time>
      </trkpt>
      <trkpt lat="42.43034" lon="2.28457">
        <ele>2408.2</ele>
        <time>2019-01-07T04:34:35Z</time>
      </trkpt>
      <trkpt lat="42.43034" lon="2.28443">
        <ele>2408</ele>
        <time>2019-01-07T04:34:38Z</time>
      </trkpt>
      <trkpt lat="42.43032" lon="2.2843">
        <ele>2407.9</ele>
        <time>2019-01-07T04:34:41Z</time>
      </trkpt>
      <trkpt lat="42.43031" lon="2.28417">
        <ele>2407.2</ele>
        <time>2019-01-07T04:34:43Z</time>
      </trkpt>
      <trkpt lat="42.43032" lon="2.28405">
        <ele>2404.9</ele>
        <time>2019-01-07T04:34:46Z</time>
      </trkpt>
      <trkpt lat="42.43036" lon="2.28392">
        <ele>2403.6</ele>
        <time>2019-01-07T04:34:48Z</time>
      </trkpt>
      <trkpt lat="42.43036" lon="2.2838">
        <ele>2402</ele>
        <time>2019-01-07T04:34:51Z</time>
      </trkpt>
      <trkpt lat="42.43034" lon="2.28368">
        <ele>2401.5</ele>
        <time>2019-01-07T04:34:53Z</time>
      </trkpt>
      <trkpt lat="42.43031" lon="2.28355">
        <ele>2400.8</ele>
        <time>2019-01-07T04:34:56Z</time>
      </trkpt>
      <trkpt lat="42.43031" lon="2.28342">
        <ele>2400.1</ele>
        <time>2019-01-07T04:34:58Z</time>
      </trkpt>
      <trkpt lat="42.43031" lon="2.28328">
        <ele>2397.8</ele>
        <time>2019-01-07T04:35:01Z</time>
      </trkpt>
      <trkpt lat="42.43029" lon="2.28316">
        <ele>2397.1</ele>
        <time>2019-01-07T04:35:04Z</time>
      </trkpt>
      <trkpt lat="42.43026" lon="2.28304">
        <ele>2397.2</ele>
        <time>2019-01-07T04:35:06Z</time>
      </trkpt>
      <trkpt lat="42.43024" lon="2.28291">
        <ele>2396.2</ele>
        <time>2019-01-07T04:35:09Z</time>
      </trkpt>
      <trkpt lat="42.43022" lon="2.28278">
        <ele>2395.1</ele>
        <time>2019-01-07T04:35:11Z</time>
      </trkpt>
      <trkpt lat="42.4302" lon="2.28265">
        <ele>2394</ele>
        <time>2019-01-07T04:35:14Z</time>
      </trkpt>
      <trkpt lat="42.43019" lon="2.28253">
        <ele>2394.1</ele>
        <time>2019-01-07T04:35:16Z</time>
      </trkpt>
      <trkpt lat="42.43018" lon="2.2824">
        <ele>2393.5</ele>
        <time>2019-01-07T04:35:19Z</time>
      </trkpt>
      <trkpt lat="42.43017" lon="2.28228">
        <ele>2393.1</ele>
        <time>2019-01-07T04:35:21Z</time>
      </trkpt>
      <trkpt lat="42.43014" lon="2.28215">
        <ele>2393.1</ele>
        <time>2019-01-07T04:35:24Z</time>
      </trkpt>
      <trkpt lat="42.4301" lon="2.28204">
        <ele>2392.3</ele>
        <time>2019-01-07T04:35:26Z</time>
      </trkpt>
      <trkpt lat="42.43007" lon="2.28192">
        <ele>2391.5</ele>
        <time>2019-01-07T04:35:29Z</time>
      </trkpt>
      <trkpt lat="42.43005" lon="2.28179">
        <ele>2390.2</ele>
        <time>2019-01-07T04:35:31Z</time>
      </trkpt>
      <trkpt lat="42.43004" lon="2.28166">
        <ele>2390.2</ele>
        <time>2019-01-07T04:35:34Z</time>
      </trkpt>
      <trkpt lat="42.43001" lon="2.28154">
        <ele>2390.1</ele>
        <time>2019-01-07T04:35:37Z</time>
      </trkpt>
      <trkpt lat="42.42998" lon="2.28142">
        <ele>2390</ele>
        <time>2019-01-07T04:35:39Z</time>
      </trkpt>
      <trkpt lat="42.42993" lon="2.2813">
        <ele>2389.2</ele>
        <time>2019-01-07T04:35:42Z</time>
      </trkpt>
      <trkpt lat="42.42991" lon="2.28118">
        <ele>2388.6</ele>
        <time>2019-01-07T04:35:44Z</time>
      </trkpt>
      <trkpt lat="42.42989" lon="2.28106">
        <ele>2387.9</ele>
        <time>2019-01-07T04:35:47Z</time>
      </trkpt>
      <trkpt lat="42.42986" lon="2.28093">
        <ele>2387.2</ele>
        <time>2019-01-07T04:35:49Z</time>
      </trkpt>
      <trkpt lat="42.42983" lon="2.28081">
        <ele>2386.1</ele>
        <time>2019-01-07T04:35:52Z</time>
      </trkpt>
      <trkpt lat="42.42979" lon="2.28069">
        <ele>2385.1</ele>
        <time>2019-01-07T04:35:54Z</time>
      </trkpt>
      <trkpt lat="42.42974" lon="2.28057">
        <ele>2385.1</ele>
        <time>2019-01-07T04:35:57Z</time>
      </trkpt>
      <trkpt lat="42.4297" lon="2.28046">
        <ele>2385.1</ele>
        <time>2019-01-07T04:35:59Z</time>
      </trkpt>
      <trkpt lat="42.42965" lon="2.28035">
        <ele>2385.2</ele>
        <time>2019-01-07T04:36:02Z</time>
      </trkpt>
      <trkpt lat="42.4296" lon="2.28025">
        <ele>2385.1</ele>
        <time>2019-01-07T04:36:05Z</time>
      </trkpt>
      <trkpt lat="42.42954" lon="2.28013">
        <ele>2385.1</ele>
        <time>2019-01-07T04:36:07Z</time>
      </trkpt>
      <trkpt lat="42.4295" lon="2.28001">
        <ele>2384.8</ele>
        <time>2019-01-07T04:36:10Z</time>
      </trkpt>
      <trkpt lat="42.42945" lon="2.2799">
        <ele>2384.1</ele>
        <time>2019-01-07T04:36:12Z</time>
      </trkpt>
      <trkpt lat="42.4294" lon="2.2798">
        <ele>2384</ele>
        <time>2019-01-07T04:36:15Z</time>
      </trkpt>
      <trkpt lat="42.42935" lon="2.27968">
        <ele>2384.2</ele>
        <time>2019-01-07T04:36:18Z</time>
      </trkpt>
      <trkpt lat="42.42931" lon="2.27957">
        <ele>2384.2</ele>
        <time>2019-01-07T04:36:20Z</time>
      </trkpt>
      <trkpt lat="42.42927" lon="2.27945">
        <ele>2384.1</ele>
        <time>2019-01-07T04:36:22Z</time>
      </trkpt>
      <trkpt lat="42.42922" lon="2.27934">
        <ele>2384.2</ele>
        <time>2019-01-07T04:36:25Z</time>
      </trkpt>
      <trkpt lat="42.42916" lon="2.27924">
        <ele>2384.1</ele>
        <time>2019-01-07T04:36:28Z</time>
      </trkpt>
      <trkpt lat="42.42909" lon="2.27915">
        <ele>2384</ele>
        <time>2019-01-07T04:36:30Z</time>
      </trkpt>
      <trkpt lat="42.42904" lon="2.27903">
        <ele>2384.1</ele>
        <time>2019-01-07T04:36:33Z</time>
      </trkpt>
      <trkpt lat="42.42898" lon="2.27892">
        <ele>2384.1</ele>
        <time>2019-01-07T04:36:35Z</time>
      </trkpt>
      <trkpt lat="42.42891" lon="2.27884">
        <ele>2384.2</ele>
        <time>2019-01-07T04:36:38Z</time>
      </trkpt>
      <trkpt lat="42.42883" lon="2.27875">
        <ele>2384.1</ele>
        <time>2019-01-07T04:36:41Z</time>
      </trkpt>
      <trkpt lat="42.42876" lon="2.27866">
        <ele>2384.1</ele>
        <time>2019-01-07T04:36:43Z</time>
      </trkpt>
      <trkpt lat="42.42869" lon="2.27855">
        <ele>2384</ele>
        <time>2019-01-07T04:36:46Z</time>
      </trkpt>
      <trkpt lat="42.42863" lon="2.27845">
        <ele>2384.2</ele>
        <time>2019-01-07T04:36:49Z</time>
      </trkpt>
      <trkpt lat="42.42858" lon="2.27835">
        <ele>2384.2</ele>
        <time>2019-01-07T04:36:51Z</time>
      </trkpt>
      <trkpt lat="42.42851" lon="2.27825">
        <ele>2384.1</ele>
        <time>2019-01-07T04:36:54Z</time>
      </trkpt>
      <trkpt lat="42.42847" lon="2.27813">
        <ele>2382.3</ele>
        <time>2019-01-07T04:36:56Z</time>
      </trkpt>
      <trkpt lat="42.4284" lon="2.27802">
        <ele>2382.1</ele>
        <time>2019-01-07T04:36:59Z</time>
      </trkpt>
      <trkpt lat="42.42832" lon="2.27796">
        <ele>2382.1</ele>
        <time>2019-01-07T04:37:02Z</time>
      </trkpt>
      <trkpt lat="42.42826" lon="2.27786">
        <ele>2382.2</ele>
        <time>2019-01-07T04:37:04Z</time>
      </trkpt>
      <trkpt lat="42.42822" lon="2.27775">
        <ele>2382.1</ele>
        <time>2019-01-07T04:37:07Z</time>
      </trkpt>
      <trkpt lat="42.42819" lon="2.27762">
        <ele>2382.1</ele>
        <time>2019-01-07T04:37:09Z</time>
      </trkpt>
      <trkpt lat="42.42815" lon="2.27749">
        <ele>2382.1</ele>
        <time>2019-01-07T04:37:12Z</time>
      </trkpt>
      <trkpt lat="42.42811" lon="2.27737">
        <ele>2382</ele>
        <time>2019-01-07T04:37:15Z</time>
      </trkpt>
      <trkpt lat="42.42806" lon="2.27725">
        <ele>2382.1</ele>
        <time>2019-01-07T04:37:17Z</time>
      </trkpt>
      <trkpt lat="42.42801" lon="2.27715">
        <ele>2382.1</ele>
        <time>2019-01-07T04:37:20Z</time>
      </trkpt>
      <trkpt lat="42.42804" lon="2.27702">
        <ele>2382.9</ele>
        <time>2019-01-07T04:37:22Z</time>
      </trkpt>
      <trkpt lat="42.42812" lon="2.27695">
        <ele>2384.1</ele>
        <time>2019-01-07T04:37:25Z</time>
      </trkpt>
      <trkpt lat="42.42816" lon="2.27683">
        <ele>2384.3</ele>
        <time>2019-01-07T04:37:28Z</time>
      </trkpt>
      <trkpt lat="42.42822" lon="2.27672">
        <ele>2385.8</ele>
        <time>2019-01-07T04:37:30Z</time>
      </trkpt>
      <trkpt lat="42.42832" lon="2.27671">
        <ele>2388</ele>
        <time>2019-01-07T04:37:33Z</time>
      </trkpt>
      <trkpt lat="42.4284" lon="2.27667">
        <ele>2388.8</ele>
        <time>2019-01-07T04:37:35Z</time>
      </trkpt>
      <trkpt lat="42.42849" lon="2.27664">
        <ele>2389.2</ele>
        <time>2019-01-07T04:37:38Z</time>
      </trkpt>
      <trkpt lat="42.42857" lon="2.27657">
        <ele>2391.3</ele>
        <time>2019-01-07T04:37:40Z</time>
      </trkpt>
      <trkpt lat="42.42865" lon="2.2765">
        <ele>2392.7</ele>
        <time>2019-01-07T04:37:43Z</time>
      </trkpt>
      <trkpt lat="42.42874" lon="2.27649">
        <ele>2393.7</ele>
        <time>2019-01-07T04:37:45Z</time>
      </trkpt>
      <trkpt lat="42.42883" lon="2.27647">
        <ele>2394.7</ele>
        <time>2019-01-07T04:37:48Z</time>
      </trkpt>
      <trkpt lat="42.42892" lon="2.27642">
        <ele>2396.4</ele>
        <time>2019-01-07T04:37:50Z</time>
      </trkpt>
      <trkpt lat="42.429" lon="2.27635">
        <ele>2397.7</ele>
        <time>2019-01-07T04:37:53Z</time>
      </trkpt>
      <trkpt lat="42.42906" lon="2.27626">
        <ele>2399.8</ele>
        <time>2019-01-07T04:37:55Z</time>
      </trkpt>
      <trkpt lat="42.42914" lon="2.2762">
        <ele>2402</ele>
        <time>2019-01-07T04:37:58Z</time>
      </trkpt>
      <trkpt lat="42.42922" lon="2.27614">
        <ele>2403.3</ele>
        <time>2019-01-07T04:38:00Z</time>
      </trkpt>
      <trkpt lat="42.4293" lon="2.27607">
        <ele>2404.1</ele>
        <time>2019-01-07T04:38:02Z</time>
      </trkpt>
      <trkpt lat="42.42938" lon="2.27599">
        <ele>2407</ele>
        <time>2019-01-07T04:38:05Z</time>
      </trkpt>
      <trkpt lat="42.42945" lon="2.27591">
        <ele>2407.1</ele>
        <time>2019-01-07T04:38:08Z</time>
      </trkpt>
      <trkpt lat="42.42954" lon="2.27584">
        <ele>2407.7</ele>
        <time>2019-01-07T04:38:10Z</time>
      </trkpt>
      <trkpt lat="42.42961" lon="2.27576">
        <ele>2408.7</ele>
        <time>2019-01-07T04:38:13Z</time>
      </trkpt>
      <trkpt lat="42.42968" lon="2.27566">
        <ele>2409.6</ele>
        <time>2019-01-07T04:38:16Z</time>
      </trkpt>
      <trkpt lat="42.42977" lon="2.2756">
        <ele>2410.4</ele>
        <time>2019-01-07T04:38:18Z</time>
      </trkpt>
      <trkpt lat="42.42985" lon="2.27554">
        <ele>2411.3</ele>
        <time>2019-01-07T04:38:21Z</time>
      </trkpt>
      <trkpt lat="42.42993" lon="2.27549">
        <ele>2412</ele>
        <time>2019-01-07T04:38:23Z</time>
      </trkpt>
      <trkpt lat="42.43001" lon="2.2754">
        <ele>2412.6</ele>
        <time>2019-01-07T04:38:26Z</time>
      </trkpt>
      <trkpt lat="42.43009" lon="2.27533">
        <ele>2413.5</ele>
        <time>2019-01-07T04:38:28Z</time>
      </trkpt>
      <trkpt lat="42.43016" lon="2.27524">
        <ele>2414.3</ele>
        <time>2019-01-07T04:38:31Z</time>
      </trkpt>
      <trkpt lat="42.43025" lon="2.27518">
        <ele>2415.2</ele>
        <time>2019-01-07T04:38:34Z</time>
      </trkpt>
      <trkpt lat="42.43033" lon="2.2751">
        <ele>2416.9</ele>
        <time>2019-01-07T04:38:36Z</time>
      </trkpt>
      <trkpt lat="42.43041" lon="2.27501">
        <ele>2416.5</ele>
        <time>2019-01-07T04:38:39Z</time>
      </trkpt>
      <trkpt lat="42.43047" lon="2.27492">
        <ele>2417</ele>
        <time>2019-01-07T04:38:41Z</time>
      </trkpt>
      <trkpt lat="42.43054" lon="2.27483">
        <ele>2417.9</ele>
        <time>2019-01-07T04:38:44Z</time>
      </trkpt>
      <trkpt lat="42.43062" lon="2.27476">
        <ele>2417.3</ele>
        <time>2019-01-07T04:38:47Z</time>
      </trkpt>
      <trkpt lat="42.4307" lon="2.2747">
        <ele>2417.1</ele>
        <time>2019-01-07T04:38:49Z</time>
      </trkpt>
      <trkpt lat="42.43078" lon="2.27462">
        <ele>2417.2</ele>
        <time>2019-01-07T04:38:52Z</time>
      </trkpt>
      <trkpt lat="42.43087" lon="2.27455">
        <ele>2417.9</ele>
        <time>2019-01-07T04:38:54Z</time>
      </trkpt>
      <trkpt lat="42.43095" lon="2.27448">
        <ele>2418.2</ele>
        <time>2019-01-07T04:38:57Z</time>
      </trkpt>
      <trkpt lat="42.43102" lon="2.27441">
        <ele>2418.1</ele>
        <time>2019-01-07T04:38:59Z</time>
      </trkpt>
      <trkpt lat="42.4311" lon="2.27431">
        <ele>2418.1</ele>
        <time>2019-01-07T04:39:02Z</time>
      </trkpt>
      <trkpt lat="42.43117" lon="2.27423">
        <ele>2418</ele>
        <time>2019-01-07T04:39:05Z</time>
      </trkpt>
      <trkpt lat="42.43124" lon="2.27413">
        <ele>2418.4</ele>
        <time>2019-01-07T04:39:07Z</time>
      </trkpt>
      <trkpt lat="42.43133" lon="2.27408">
        <ele>2418.9</ele>
        <time>2019-01-07T04:39:10Z</time>
      </trkpt>
      <trkpt lat="42.43141" lon="2.27403">
        <ele>2419</ele>
        <time>2019-01-07T04:39:12Z</time>
      </trkpt>
      <trkpt lat="42.4315" lon="2.27399">
        <ele>2418.9</ele>
        <time>2019-01-07T04:39:15Z</time>
      </trkpt>
      <trkpt lat="42.4316" lon="2.27394">
        <ele>2418.1</ele>
        <time>2019-01-07T04:39:18Z</time>
      </trkpt>
      <trkpt lat="42.4317" lon="2.27391">
        <ele>2418.1</ele>
        <time>2019-01-07T04:39:20Z</time>
      </trkpt>
      <trkpt lat="42.43179" lon="2.27389">
        <ele>2417.6</ele>
        <time>2019-01-07T04:39:23Z</time>
      </trkpt>
      <trkpt lat="42.43189" lon="2.27385">
        <ele>2417</ele>
        <time>2019-01-07T04:39:25Z</time>
      </trkpt>
      <trkpt lat="42.43198" lon="2.27381">
        <ele>2416.3</ele>
        <time>2019-01-07T04:39:28Z</time>
      </trkpt>
      <trkpt lat="42.43207" lon="2.27378">
        <ele>2415.5</ele>
        <time>2019-01-07T04:39:31Z</time>
      </trkpt>
      <trkpt lat="42.43217" lon="2.27379">
        <ele>2415</ele>
        <time>2019-01-07T04:39:33Z</time>
      </trkpt>
      <trkpt lat="42.43227" lon="2.2738">
        <ele>2415.1</ele>
        <time>2019-01-07T04:39:36Z</time>
      </trkpt>
      <trkpt lat="42.43237" lon="2.27379">
        <ele>2415</ele>
        <time>2019-01-07T04:39:38Z</time>
      </trkpt>
      <trkpt lat="42.43246" lon="2.27375">
        <ele>2415.2</ele>
        <time>2019-01-07T04:39:41Z</time>
      </trkpt>
      <trkpt lat="42.43255" lon="2.27374">
        <ele>2415</ele>
        <time>2019-01-07T04:39:44Z</time>
      </trkpt>
      <trkpt lat="42.43265" lon="2.27373">
        <ele>2414.2</ele>
        <time>2019-01-07T04:39:46Z</time>
      </trkpt>
      <trkpt lat="42.43274" lon="2.2737">
        <ele>2413.5</ele>
        <time>2019-01-07T04:39:49Z</time>
      </trkpt>
      <trkpt lat="42.43283" lon="2.27365">
        <ele>2413.1</ele>
        <time>2019-01-07T04:39:51Z</time>
      </trkpt>
      <trkpt lat="42.43289" lon="2.27355">
        <ele>2413.1</ele>
        <time>2019-01-07T04:39:54Z</time>
      </trkpt>
      <trkpt lat="42.43294" lon="2.27345">
        <ele>2413.1</ele>
        <time>2019-01-07T04:39:56Z</time>
      </trkpt>
      <trkpt lat="42.43297" lon="2.27332">
        <ele>2413.2</ele>
        <time>2019-01-07T04:39:59Z</time>
      </trkpt>
      <trkpt lat="42.43302" lon="2.27322">
        <ele>2415.5</ele>
        <time>2019-01-07T04:40:01Z</time>
      </trkpt>
      <trkpt lat="42.43235" lon="2.27308">
        <ele>2386</ele>
        <time>2019-01-07T04:40:19Z</time>
      </trkpt>
      <trkpt lat="42.43239" lon="2.27311">
        <ele>2387.2</ele>
        <time>2019-01-07T04:40:21Z</time>
      </trkpt>
      <trkpt lat="42.43244" lon="2.27312">
        <ele>2388.9</ele>
        <time>2019-01-07T04:40:22Z</time>
      </trkpt>
      <trkpt lat="42.43248" lon="2.27315">
        <ele>2390.6</ele>
        <time>2019-01-07T04:40:23Z</time>
      </trkpt>
      <trkpt lat="42.43252" lon="2.27318">
        <ele>2392</ele>
        <time>2019-01-07T04:40:24Z</time>
      </trkpt>
      <trkpt lat="42.43257" lon="2.27321">
        <ele>2393.6</ele>
        <time>2019-01-07T04:40:26Z</time>
      </trkpt>
      <trkpt lat="42.4326" lon="2.27325">
        <ele>2394.8</ele>
        <time>2019-01-07T04:40:27Z</time>
      </trkpt>
      <trkpt lat="42.43264" lon="2.27329">
        <ele>2396</ele>
        <time>2019-01-07T04:40:28Z</time>
      </trkpt>
      <trkpt lat="42.43269" lon="2.27331">
        <ele>2396.3</ele>
        <time>2019-01-07T04:40:30Z</time>
      </trkpt>
      <trkpt lat="42.43272" lon="2.27337">
        <ele>2397.3</ele>
        <time>2019-01-07T04:40:31Z</time>
      </trkpt>
      <trkpt lat="42.43276" lon="2.27341">
        <ele>2398.1</ele>
        <time>2019-01-07T04:40:32Z</time>
      </trkpt>
      <trkpt lat="42.4328" lon="2.27345">
        <ele>2398.9</ele>
        <time>2019-01-07T04:40:34Z</time>
      </trkpt>
      <trkpt lat="42.43283" lon="2.2735">
        <ele>2399.7</ele>
        <time>2019-01-07T04:40:35Z</time>
      </trkpt>
      <trkpt lat="42.43286" lon="2.27354">
        <ele>2400.1</ele>
        <time>2019-01-07T04:40:36Z</time>
      </trkpt>
      <trkpt lat="42.4329" lon="2.27359">
        <ele>2400.4</ele>
        <time>2019-01-07T04:40:38Z</time>
      </trkpt>
      <trkpt lat="42.43289" lon="2.27366">
        <ele>2400.2</ele>
        <time>2019-01-07T04:40:39Z</time>
      </trkpt>
      <trkpt lat="42.43289" lon="2.27373">
        <ele>2401.8</ele>
        <time>2019-01-07T04:40:40Z</time>
      </trkpt>
      <trkpt lat="42.43288" lon="2.27379">
        <ele>2402.4</ele>
        <time>2019-01-07T04:40:41Z</time>
      </trkpt>
      <trkpt lat="42.43287" lon="2.27386">
        <ele>2402.4</ele>
        <time>2019-01-07T04:40:43Z</time>
      </trkpt>
      <trkpt lat="42.43286" lon="2.27393">
        <ele>2402.7</ele>
        <time>2019-01-07T04:40:44Z</time>
      </trkpt>
      <trkpt lat="42.43286" lon="2.274">
        <ele>2402.9</ele>
        <time>2019-01-07T04:40:46Z</time>
      </trkpt>
      <trkpt lat="42.43286" lon="2.27406">
        <ele>2403.6</ele>
        <time>2019-01-07T04:40:47Z</time>
      </trkpt>
      <trkpt lat="42.43286" lon="2.27413">
        <ele>2404</ele>
        <time>2019-01-07T04:40:48Z</time>
      </trkpt>
      <trkpt lat="42.43287" lon="2.27419">
        <ele>2404.3</ele>
        <time>2019-01-07T04:40:49Z</time>
      </trkpt>
      <trkpt lat="42.43289" lon="2.27425">
        <ele>2405.1</ele>
        <time>2019-01-07T04:40:51Z</time>
      </trkpt>
      <trkpt lat="42.43292" lon="2.27431">
        <ele>2405.4</ele>
        <time>2019-01-07T04:40:52Z</time>
      </trkpt>
      <trkpt lat="42.43294" lon="2.27437">
        <ele>2405.7</ele>
        <time>2019-01-07T04:40:53Z</time>
      </trkpt>
      <trkpt lat="42.43296" lon="2.27443">
        <ele>2406.1</ele>
        <time>2019-01-07T04:40:55Z</time>
      </trkpt>
      <trkpt lat="42.43299" lon="2.27448">
        <ele>2406.5</ele>
        <time>2019-01-07T04:40:56Z</time>
      </trkpt>
      <trkpt lat="42.43303" lon="2.27453">
        <ele>2406.3</ele>
        <time>2019-01-07T04:40:58Z</time>
      </trkpt>
      <trkpt lat="42.43306" lon="2.27458">
        <ele>2406.3</ele>
        <time>2019-01-07T04:40:59Z</time>
      </trkpt>
      <trkpt lat="42.4331" lon="2.27461">
        <ele>2406.5</ele>
        <time>2019-01-07T04:41:00Z</time>
      </trkpt>
      <trkpt lat="42.43311" lon="2.27468">
        <ele>2406.6</ele>
        <time>2019-01-07T04:41:01Z</time>
      </trkpt>
      <trkpt lat="42.43311" lon="2.27475">
        <ele>2406.9</ele>
        <time>2019-01-07T04:41:03Z</time>
      </trkpt>
      <trkpt lat="42.43312" lon="2.27481">
        <ele>2407.5</ele>
        <time>2019-01-07T04:41:04Z</time>
      </trkpt>
      <trkpt lat="42.43313" lon="2.27488">
        <ele>2407.6</ele>
        <time>2019-01-07T04:41:05Z</time>
      </trkpt>
      <trkpt lat="42.43314" lon="2.27495">
        <ele>2408.1</ele>
        <time>2019-01-07T04:41:07Z</time>
      </trkpt>
      <trkpt lat="42.43316" lon="2.27502">
        <ele>2408.2</ele>
        <time>2019-01-07T04:41:08Z</time>
      </trkpt>
      <trkpt lat="42.43317" lon="2.27507">
        <ele>2408.7</ele>
        <time>2019-01-07T04:41:09Z</time>
      </trkpt>
      <trkpt lat="42.43319" lon="2.27514">
        <ele>2408.5</ele>
        <time>2019-01-07T04:41:11Z</time>
      </trkpt>
      <trkpt lat="42.4332" lon="2.27521">
        <ele>2408.6</ele>
        <time>2019-01-07T04:41:12Z</time>
      </trkpt>
      <trkpt lat="42.43322" lon="2.27527">
        <ele>2408.8</ele>
        <time>2019-01-07T04:41:13Z</time>
      </trkpt>
      <trkpt lat="42.43323" lon="2.27534">
        <ele>2408.8</ele>
        <time>2019-01-07T04:41:15Z</time>
      </trkpt>
      <trkpt lat="42.43324" lon="2.2754">
        <ele>2409</ele>
        <time>2019-01-07T04:41:16Z</time>
      </trkpt>
      <trkpt lat="42.43324" lon="2.27548">
        <ele>2409.2</ele>
        <time>2019-01-07T04:41:18Z</time>
      </trkpt>
      <trkpt lat="42.43322" lon="2.27555">
        <ele>2409.7</ele>
        <time>2019-01-07T04:41:19Z</time>
      </trkpt>
      <trkpt lat="42.43321" lon="2.27561">
        <ele>2410.2</ele>
        <time>2019-01-07T04:41:20Z</time>
      </trkpt>
      <trkpt lat="42.43319" lon="2.27568">
        <ele>2410.9</ele>
        <time>2019-01-07T04:41:22Z</time>
      </trkpt>
      <trkpt lat="42.43317" lon="2.27575">
        <ele>2411.6</ele>
        <time>2019-01-07T04:41:23Z</time>
      </trkpt>
      <trkpt lat="42.43316" lon="2.27581">
        <ele>2412.3</ele>
        <time>2019-01-07T04:41:24Z</time>
      </trkpt>
      <trkpt lat="42.43315" lon="2.27587">
        <ele>2412.7</ele>
        <time>2019-01-07T04:41:26Z</time>
      </trkpt>
      <trkpt lat="42.43314" lon="2.27593">
        <ele>2413</ele>
        <time>2019-01-07T04:41:27Z</time>
      </trkpt>
      <trkpt lat="42.43314" lon="2.276">
        <ele>2413.7</ele>
        <time>2019-01-07T04:41:28Z</time>
      </trkpt>
      <trkpt lat="42.43315" lon="2.27607">
        <ele>2414.6</ele>
        <time>2019-01-07T04:41:30Z</time>
      </trkpt>
      <trkpt lat="42.43315" lon="2.27614">
        <ele>2414.6</ele>
        <time>2019-01-07T04:41:31Z</time>
      </trkpt>
      <trkpt lat="42.43315" lon="2.27621">
        <ele>2414.9</ele>
        <time>2019-01-07T04:41:32Z</time>
      </trkpt>
      <trkpt lat="42.43315" lon="2.27628">
        <ele>2414.9</ele>
        <time>2019-01-07T04:41:34Z</time>
      </trkpt>
      <trkpt lat="42.43315" lon="2.27636">
        <ele>2415.4</ele>
        <time>2019-01-07T04:41:35Z</time>
      </trkpt>
      <trkpt lat="42.43313" lon="2.27643">
        <ele>2415.9</ele>
        <time>2019-01-07T04:41:37Z</time>
      </trkpt>
      <trkpt lat="42.43312" lon="2.27649">
        <ele>2416.8</ele>
        <time>2019-01-07T04:41:38Z</time>
      </trkpt>
      <trkpt lat="42.43312" lon="2.27656">
        <ele>2417.5</ele>
        <time>2019-01-07T04:41:39Z</time>
      </trkpt>
      <trkpt lat="42.43312" lon="2.27662">
        <ele>2418.3</ele>
        <time>2019-01-07T04:41:41Z</time>
      </trkpt>
      <trkpt lat="42.43311" lon="2.27669">
        <ele>2419.1</ele>
        <time>2019-01-07T04:41:42Z</time>
      </trkpt>
      <trkpt lat="42.4331" lon="2.27675">
        <ele>2419.2</ele>
        <time>2019-01-07T04:41:43Z</time>
      </trkpt>
      <trkpt lat="42.43309" lon="2.27682">
        <ele>2419.6</ele>
        <time>2019-01-07T04:41:45Z</time>
      </trkpt>
      <trkpt lat="42.43309" lon="2.27689">
        <ele>2420</ele>
        <time>2019-01-07T04:41:46Z</time>
      </trkpt>
      <trkpt lat="42.43309" lon="2.27695">
        <ele>2420.5</ele>
        <time>2019-01-07T04:41:47Z</time>
      </trkpt>
      <trkpt lat="42.43311" lon="2.27703">
        <ele>2420.7</ele>
        <time>2019-01-07T04:41:49Z</time>
      </trkpt>
      <trkpt lat="42.43313" lon="2.27708">
        <ele>2420.7</ele>
        <time>2019-01-07T04:41:50Z</time>
      </trkpt>
      <trkpt lat="42.43315" lon="2.27715">
        <ele>2420.9</ele>
        <time>2019-01-07T04:41:51Z</time>
      </trkpt>
      <trkpt lat="42.43317" lon="2.27722">
        <ele>2420.9</ele>
        <time>2019-01-07T04:41:53Z</time>
      </trkpt>
      <trkpt lat="42.4332" lon="2.27728">
        <ele>2421.1</ele>
        <time>2019-01-07T04:41:54Z</time>
      </trkpt>
      <trkpt lat="42.43322" lon="2.27735">
        <ele>2420.9</ele>
        <time>2019-01-07T04:41:56Z</time>
      </trkpt>
      <trkpt lat="42.43325" lon="2.27741">
        <ele>2421.1</ele>
        <time>2019-01-07T04:41:57Z</time>
      </trkpt>
      <trkpt lat="42.43328" lon="2.27746">
        <ele>2421.1</ele>
        <time>2019-01-07T04:41:58Z</time>
      </trkpt>
      <trkpt lat="42.43328" lon="2.27739">
        <ele>2420.8</ele>
        <time>2019-01-07T04:42:00Z</time>
      </trkpt>
      <trkpt lat="42.43327" lon="2.27745">
        <ele>2421.7</ele>
        <time>2019-01-07T04:42:01Z</time>
      </trkpt>
      <trkpt lat="42.43328" lon="2.27752">
        <ele>2421.6</ele>
        <time>2019-01-07T04:42:02Z</time>
      </trkpt>
      <trkpt lat="42.43328" lon="2.27759">
        <ele>2421.8</ele>
        <time>2019-01-07T04:42:04Z</time>
      </trkpt>
      <trkpt lat="42.4333" lon="2.27765">
        <ele>2421.7</ele>
        <time>2019-01-07T04:42:05Z</time>
      </trkpt>
      <trkpt lat="42.43333" lon="2.2777">
        <ele>2421.9</ele>
        <time>2019-01-07T04:42:06Z</time>
      </trkpt>
      <trkpt lat="42.43337" lon="2.27775">
        <ele>2421.9</ele>
        <time>2019-01-07T04:42:08Z</time>
      </trkpt>
      <trkpt lat="42.4334" lon="2.27781">
        <ele>2422.2</ele>
        <time>2019-01-07T04:42:09Z</time>
      </trkpt>
      <trkpt lat="42.43343" lon="2.27788">
        <ele>2422.2</ele>
        <time>2019-01-07T04:42:10Z</time>
      </trkpt>
      <trkpt lat="42.43347" lon="2.27792">
        <ele>2422</ele>
        <time>2019-01-07T04:42:12Z</time>
      </trkpt>
      <trkpt lat="42.4335" lon="2.27798">
        <ele>2422.1</ele>
        <time>2019-01-07T04:42:13Z</time>
      </trkpt>
      <trkpt lat="42.43352" lon="2.27804">
        <ele>2422.4</ele>
        <time>2019-01-07T04:42:15Z</time>
      </trkpt>
      <trkpt lat="42.43353" lon="2.27811">
        <ele>2422.4</ele>
        <time>2019-01-07T04:42:16Z</time>
      </trkpt>
      <trkpt lat="42.43354" lon="2.27819">
        <ele>2422.4</ele>
        <time>2019-01-07T04:42:17Z</time>
      </trkpt>
      <trkpt lat="42.43356" lon="2.27824">
        <ele>2423.1</ele>
        <time>2019-01-07T04:42:19Z</time>
      </trkpt>
      <trkpt lat="42.43359" lon="2.27829">
        <ele>2423.9</ele>
        <time>2019-01-07T04:42:20Z</time>
      </trkpt>
      <trkpt lat="42.43363" lon="2.27834">
        <ele>2424.6</ele>
        <time>2019-01-07T04:42:21Z</time>
      </trkpt>
      <trkpt lat="42.43365" lon="2.2784">
        <ele>2424.8</ele>
        <time>2019-01-07T04:42:23Z</time>
      </trkpt>
      <trkpt lat="42.43368" lon="2.27844">
        <ele>2425.6</ele>
        <time>2019-01-07T04:42:24Z</time>
      </trkpt>
      <trkpt lat="42.43372" lon="2.2785">
        <ele>2426.1</ele>
        <time>2019-01-07T04:42:25Z</time>
      </trkpt>
      <trkpt lat="42.43376" lon="2.27853">
        <ele>2426.7</ele>
        <time>2019-01-07T04:42:27Z</time>
      </trkpt>
      <trkpt lat="42.43381" lon="2.27858">
        <ele>2425</ele>
        <time>2019-01-07T04:42:28Z</time>
      </trkpt>
      <trkpt lat="42.43384" lon="2.27864">
        <ele>2423.9</ele>
        <time>2019-01-07T04:42:30Z</time>
      </trkpt>
      <trkpt lat="42.43389" lon="2.27867">
        <ele>2422.4</ele>
        <time>2019-01-07T04:42:31Z</time>
      </trkpt>
      <trkpt lat="42.43393" lon="2.2787">
        <ele>2421.4</ele>
        <time>2019-01-07T04:42:33Z</time>
      </trkpt>
      <trkpt lat="42.43398" lon="2.27875">
        <ele>2420.6</ele>
        <time>2019-01-07T04:42:34Z</time>
      </trkpt>
      <trkpt lat="42.43401" lon="2.27879">
        <ele>2419.7</ele>
        <time>2019-01-07T04:42:35Z</time>
      </trkpt>
      <trkpt lat="42.43404" lon="2.27884">
        <ele>2418.4</ele>
        <time>2019-01-07T04:42:36Z</time>
      </trkpt>
      <trkpt lat="42.43407" lon="2.2789">
        <ele>2417.6</ele>
        <time>2019-01-07T04:42:38Z</time>
      </trkpt>
      <trkpt lat="42.43411" lon="2.27894">
        <ele>2416.2</ele>
        <time>2019-01-07T04:42:39Z</time>
      </trkpt>
      <trkpt lat="42.43416" lon="2.27897">
        <ele>2414.3</ele>
        <time>2019-01-07T04:42:41Z</time>
      </trkpt>
      <trkpt lat="42.43418" lon="2.27902">
        <ele>2413.7</ele>
        <time>2019-01-07T04:42:42Z</time>
      </trkpt>
      <trkpt lat="42.43422" lon="2.27908">
        <ele>2413.2</ele>
        <time>2019-01-07T04:42:43Z</time>
      </trkpt>
      <trkpt lat="42.43425" lon="2.27913">
        <ele>2412</ele>
        <time>2019-01-07T04:42:45Z</time>
      </trkpt>
      <trkpt lat="42.43429" lon="2.27919">
        <ele>2411.7</ele>
        <time>2019-01-07T04:42:46Z</time>
      </trkpt>
      <trkpt lat="42.43432" lon="2.27923">
        <ele>2411.1</ele>
        <time>2019-01-07T04:42:47Z</time>
      </trkpt>
      <trkpt lat="42.43437" lon="2.27924">
        <ele>2409.5</ele>
        <time>2019-01-07T04:42:49Z</time>
      </trkpt>
      <trkpt lat="42.43441" lon="2.27928">
        <ele>2408.8</ele>
        <time>2019-01-07T04:42:50Z</time>
      </trkpt>
      <trkpt lat="42.43444" lon="2.27934">
        <ele>2406.5</ele>
        <time>2019-01-07T04:42:51Z</time>
      </trkpt>
      <trkpt lat="42.43448" lon="2.27938">
        <ele>2405.9</ele>
        <time>2019-01-07T04:42:53Z</time>
      </trkpt>
      <trkpt lat="42.43452" lon="2.27941">
        <ele>2404.7</ele>
        <time>2019-01-07T04:42:54Z</time>
      </trkpt>
      <trkpt lat="42.43457" lon="2.27944">
        <ele>2402.9</ele>
        <time>2019-01-07T04:42:55Z</time>
      </trkpt>
      <trkpt lat="42.43461" lon="2.2795">
        <ele>2401.6</ele>
        <time>2019-01-07T04:42:57Z</time>
      </trkpt>
      <trkpt lat="42.43465" lon="2.27955">
        <ele>2400.8</ele>
        <time>2019-01-07T04:42:58Z</time>
      </trkpt>
      <trkpt lat="42.43469" lon="2.27962">
        <ele>2400.5</ele>
        <time>2019-01-07T04:43:00Z</time>
      </trkpt>
      <trkpt lat="42.43472" lon="2.27966">
        <ele>2399.6</ele>
        <time>2019-01-07T04:43:01Z</time>
      </trkpt>
      <trkpt lat="42.43476" lon="2.27971">
        <ele>2398.3</ele>
        <time>2019-01-07T04:43:03Z</time>
      </trkpt>
      <trkpt lat="42.4348" lon="2.27976">
        <ele>2397.5</ele>
        <time>2019-01-07T04:43:04Z</time>
      </trkpt>
      <trkpt lat="42.43484" lon="2.27981">
        <ele>2397</ele>
        <time>2019-01-07T04:43:06Z</time>
      </trkpt>
      <trkpt lat="42.43488" lon="2.27985">
        <ele>2395.9</ele>
        <time>2019-01-07T04:43:07Z</time>
      </trkpt>
      <trkpt lat="42.43493" lon="2.27989">
        <ele>2395.2</ele>
        <time>2019-01-07T04:43:08Z</time>
      </trkpt>
      <trkpt lat="42.43497" lon="2.27994">
        <ele>2394</ele>
        <time>2019-01-07T04:43:10Z</time>
      </trkpt>
      <trkpt lat="42.43501" lon="2.27998">
        <ele>2393.1</ele>
        <time>2019-01-07T04:43:11Z</time>
      </trkpt>
      <trkpt lat="42.43505" lon="2.28003">
        <ele>2392.2</ele>
        <time>2019-01-07T04:43:13Z</time>
      </trkpt>
      <trkpt lat="42.43509" lon="2.28007">
        <ele>2391.2</ele>
        <time>2019-01-07T04:43:14Z</time>
      </trkpt>
      <trkpt lat="42.43513" lon="2.28012">
        <ele>2389.8</ele>
        <time>2019-01-07T04:43:15Z</time>
      </trkpt>
      <trkpt lat="42.43517" lon="2.28017">
        <ele>2389.2</ele>
        <time>2019-01-07T04:43:17Z</time>
      </trkpt>
      <trkpt lat="42.4352" lon="2.28021">
        <ele>2388.5</ele>
        <time>2019-01-07T04:43:18Z</time>
      </trkpt>
      <trkpt lat="42.43524" lon="2.28024">
        <ele>2387.6</ele>
        <time>2019-01-07T04:43:19Z</time>
      </trkpt>
      <trkpt lat="42.43528" lon="2.28029">
        <ele>2386.4</ele>
        <time>2019-01-07T04:43:21Z</time>
      </trkpt>
      <trkpt lat="42.43532" lon="2.28034">
        <ele>2385.3</ele>
        <time>2019-01-07T04:43:22Z</time>
      </trkpt>
      <trkpt lat="42.43536" lon="2.28037">
        <ele>2384.4</ele>
        <time>2019-01-07T04:43:23Z</time>
      </trkpt>
      <trkpt lat="42.4354" lon="2.2804">
        <ele>2383.3</ele>
        <time>2019-01-07T04:43:25Z</time>
      </trkpt>
      <trkpt lat="42.43544" lon="2.28044">
        <ele>2382.2</ele>
        <time>2019-01-07T04:43:26Z</time>
      </trkpt>
      <trkpt lat="42.43548" lon="2.28049">
        <ele>2381.4</ele>
        <time>2019-01-07T04:43:27Z</time>
      </trkpt>
      <trkpt lat="42.43551" lon="2.28054">
        <ele>2380.5</ele>
        <time>2019-01-07T04:43:29Z</time>
      </trkpt>
      <trkpt lat="42.43556" lon="2.28058">
        <ele>2379.7</ele>
        <time>2019-01-07T04:43:30Z</time>
      </trkpt>
      <trkpt lat="42.4356" lon="2.28061">
        <ele>2379</ele>
        <time>2019-01-07T04:43:31Z</time>
      </trkpt>
      <trkpt lat="42.43564" lon="2.28065">
        <ele>2378.2</ele>
        <time>2019-01-07T04:43:33Z</time>
      </trkpt>
      <trkpt lat="42.43568" lon="2.28069">
        <ele>2377.7</ele>
        <time>2019-01-07T04:43:34Z</time>
      </trkpt>
      <trkpt lat="42.43572" lon="2.28073">
        <ele>2377.1</ele>
        <time>2019-01-07T04:43:35Z</time>
      </trkpt>
      <trkpt lat="42.43575" lon="2.28077">
        <ele>2376.3</ele>
        <time>2019-01-07T04:43:36Z</time>
      </trkpt>
      <trkpt lat="42.43579" lon="2.28082">
        <ele>2375.6</ele>
        <time>2019-01-07T04:43:38Z</time>
      </trkpt>
      <trkpt lat="42.43582" lon="2.28086">
        <ele>2374.9</ele>
        <time>2019-01-07T04:43:39Z</time>
      </trkpt>
      <trkpt lat="42.43585" lon="2.2809">
        <ele>2374.5</ele>
        <time>2019-01-07T04:43:40Z</time>
      </trkpt>
      <trkpt lat="42.4359" lon="2.28093">
        <ele>2373.8</ele>
        <time>2019-01-07T04:43:42Z</time>
      </trkpt>
      <trkpt lat="42.43594" lon="2.28097">
        <ele>2373.2</ele>
        <time>2019-01-07T04:43:43Z</time>
      </trkpt>
      <trkpt lat="42.43598" lon="2.281">
        <ele>2372.5</ele>
        <time>2019-01-07T04:43:44Z</time>
      </trkpt>
      <trkpt lat="42.43602" lon="2.28103">
        <ele>2372</ele>
        <time>2019-01-07T04:43:45Z</time>
      </trkpt>
      <trkpt lat="42.43606" lon="2.28107">
        <ele>2371.4</ele>
        <time>2019-01-07T04:43:47Z</time>
      </trkpt>
      <trkpt lat="42.4361" lon="2.28111">
        <ele>2370.9</ele>
        <time>2019-01-07T04:43:48Z</time>
      </trkpt>
      <trkpt lat="42.43614" lon="2.28115">
        <ele>2370.5</ele>
        <time>2019-01-07T04:43:49Z</time>
      </trkpt>
      <trkpt lat="42.43618" lon="2.28119">
        <ele>2369.8</ele>
        <time>2019-01-07T04:43:51Z</time>
      </trkpt>
      <trkpt lat="42.43623" lon="2.28123">
        <ele>2369.6</ele>
        <time>2019-01-07T04:43:52Z</time>
      </trkpt>
      <trkpt lat="42.43627" lon="2.28127">
        <ele>2369.2</ele>
        <time>2019-01-07T04:43:53Z</time>
      </trkpt>
      <trkpt lat="42.43631" lon="2.28131">
        <ele>2368.9</ele>
        <time>2019-01-07T04:43:55Z</time>
      </trkpt>
      <trkpt lat="42.43635" lon="2.28135">
        <ele>2368.7</ele>
        <time>2019-01-07T04:43:56Z</time>
      </trkpt>
      <trkpt lat="42.43639" lon="2.28139">
        <ele>2368.5</ele>
        <time>2019-01-07T04:43:58Z</time>
      </trkpt>
      <trkpt lat="42.43644" lon="2.28142">
        <ele>2368.6</ele>
        <time>2019-01-07T04:43:59Z</time>
      </trkpt>
      <trkpt lat="42.43648" lon="2.28145">
        <ele>2368.2</ele>
        <time>2019-01-07T04:44:00Z</time>
      </trkpt>
      <trkpt lat="42.43652" lon="2.28149">
        <ele>2368.2</ele>
        <time>2019-01-07T04:44:02Z</time>
      </trkpt>
      <trkpt lat="42.43657" lon="2.28152">
        <ele>2368.1</ele>
        <time>2019-01-07T04:44:03Z</time>
      </trkpt>
      <trkpt lat="42.43661" lon="2.28156">
        <ele>2368</ele>
        <time>2019-01-07T04:44:04Z</time>
      </trkpt>
      <trkpt lat="42.43665" lon="2.2816">
        <ele>2367.5</ele>
        <time>2019-01-07T04:44:05Z</time>
      </trkpt>
      <trkpt lat="42.43668" lon="2.28163">
        <ele>2367.4</ele>
        <time>2019-01-07T04:44:07Z</time>
      </trkpt>
      <trkpt lat="42.43673" lon="2.28168">
        <ele>2366.9</ele>
        <time>2019-01-07T04:44:08Z</time>
      </trkpt>
      <trkpt lat="42.43677" lon="2.28172">
        <ele>2366.5</ele>
        <time>2019-01-07T04:44:09Z</time>
      </trkpt>
      <trkpt lat="42.4368" lon="2.28176">
        <ele>2366.2</ele>
        <time>2019-01-07T04:44:11Z</time>
      </trkpt>
      <trkpt lat="42.43684" lon="2.2818">
        <ele>2366</ele>
        <time>2019-01-07T04:44:12Z</time>
      </trkpt>
      <trkpt lat="42.43688" lon="2.28184">
        <ele>2365.8</ele>
        <time>2019-01-07T04:44:13Z</time>
      </trkpt>
      <trkpt lat="42.43691" lon="2.2819">
        <ele>2365.3</ele>
        <time>2019-01-07T04:44:15Z</time>
      </trkpt>
      <trkpt lat="42.43695" lon="2.28194">
        <ele>2365</ele>
        <time>2019-01-07T04:44:16Z</time>
      </trkpt>
      <trkpt lat="42.43699" lon="2.28198">
        <ele>2364.3</ele>
        <time>2019-01-07T04:44:17Z</time>
      </trkpt>
      <trkpt lat="42.43703" lon="2.28203">
        <ele>2363.8</ele>
        <time>2019-01-07T04:44:19Z</time>
      </trkpt>
      <trkpt lat="42.43706" lon="2.28207">
        <ele>2363.4</ele>
        <time>2019-01-07T04:44:20Z</time>
      </trkpt>
      <trkpt lat="42.4371" lon="2.28212">
        <ele>2362.8</ele>
        <time>2019-01-07T04:44:21Z</time>
      </trkpt>
      <trkpt lat="42.43713" lon="2.28217">
        <ele>2362.6</ele>
        <time>2019-01-07T04:44:23Z</time>
      </trkpt>
      <trkpt lat="42.43716" lon="2.28221">
        <ele>2362.2</ele>
        <time>2019-01-07T04:44:24Z</time>
      </trkpt>
      <trkpt lat="42.43719" lon="2.28226">
        <ele>2361.6</ele>
        <time>2019-01-07T04:44:25Z</time>
      </trkpt>
      <trkpt lat="42.43723" lon="2.28231">
        <ele>2361.4</ele>
        <time>2019-01-07T04:44:27Z</time>
      </trkpt>
      <trkpt lat="42.43727" lon="2.28236">
        <ele>2360.9</ele>
        <time>2019-01-07T04:44:28Z</time>
      </trkpt>
      <trkpt lat="42.4373" lon="2.2824">
        <ele>2360.6</ele>
        <time>2019-01-07T04:44:29Z</time>
      </trkpt>
      <trkpt lat="42.43734" lon="2.28245">
        <ele>2360.1</ele>
        <time>2019-01-07T04:44:31Z</time>
      </trkpt>
      <trkpt lat="42.43738" lon="2.28249">
        <ele>2359.6</ele>
        <time>2019-01-07T04:44:32Z</time>
      </trkpt>
      <trkpt lat="42.43742" lon="2.28254">
        <ele>2359.2</ele>
        <time>2019-01-07T04:44:33Z</time>
      </trkpt>
      <trkpt lat="42.43746" lon="2.28258">
        <ele>2358.6</ele>
        <time>2019-01-07T04:44:35Z</time>
      </trkpt>
      <trkpt lat="42.4375" lon="2.28262">
        <ele>2358.2</ele>
        <time>2019-01-07T04:44:36Z</time>
      </trkpt>
      <trkpt lat="42.43754" lon="2.28268">
        <ele>2357.6</ele>
        <time>2019-01-07T04:44:38Z</time>
      </trkpt>
      <trkpt lat="42.43758" lon="2.28273">
        <ele>2357.2</ele>
        <time>2019-01-07T04:44:39Z</time>
      </trkpt>
      <trkpt lat="42.43762" lon="2.28278">
        <ele>2356.8</ele>
        <time>2019-01-07T04:44:40Z</time>
      </trkpt>
      <trkpt lat="42.43765" lon="2.28283">
        <ele>2356.2</ele>
        <time>2019-01-07T04:44:42Z</time>
      </trkpt>
      <trkpt lat="42.43769" lon="2.28288">
        <ele>2355.6</ele>
        <time>2019-01-07T04:44:43Z</time>
      </trkpt>
      <trkpt lat="42.43773" lon="2.28293">
        <ele>2355.3</ele>
        <time>2019-01-07T04:44:45Z</time>
      </trkpt>
      <trkpt lat="42.43777" lon="2.28298">
        <ele>2354.9</ele>
        <time>2019-01-07T04:44:46Z</time>
      </trkpt>
      <trkpt lat="42.43781" lon="2.28302">
        <ele>2354.4</ele>
        <time>2019-01-07T04:44:47Z</time>
      </trkpt>
      <trkpt lat="42.43785" lon="2.28307">
        <ele>2354.2</ele>
        <time>2019-01-07T04:44:49Z</time>
      </trkpt>
      <trkpt lat="42.43789" lon="2.28311">
        <ele>2354</ele>
        <time>2019-01-07T04:44:50Z</time>
      </trkpt>
      <trkpt lat="42.43793" lon="2.28316">
        <ele>2353.7</ele>
        <time>2019-01-07T04:44:52Z</time>
      </trkpt>
      <trkpt lat="42.43796" lon="2.2832">
        <ele>2353.4</ele>
        <time>2019-01-07T04:44:53Z</time>
      </trkpt>
      <trkpt lat="42.438" lon="2.28324">
        <ele>2353.2</ele>
        <time>2019-01-07T04:44:54Z</time>
      </trkpt>
      <trkpt lat="42.43804" lon="2.28328">
        <ele>2353.2</ele>
        <time>2019-01-07T04:44:56Z</time>
      </trkpt>
      <trkpt lat="42.43808" lon="2.28333">
        <ele>2352.9</ele>
        <time>2019-01-07T04:44:57Z</time>
      </trkpt>
      <trkpt lat="42.43811" lon="2.28337">
        <ele>2352.2</ele>
        <time>2019-01-07T04:44:58Z</time>
      </trkpt>
      <trkpt lat="42.43814" lon="2.28342">
        <ele>2351.8</ele>
        <time>2019-01-07T04:44:59Z</time>
      </trkpt>
      <trkpt lat="42.43818" lon="2.28346">
        <ele>2351.4</ele>
        <time>2019-01-07T04:45:01Z</time>
      </trkpt>
      <trkpt lat="42.43821" lon="2.28351">
        <ele>2351</ele>
        <time>2019-01-07T04:45:02Z</time>
      </trkpt>
      <trkpt lat="42.43824" lon="2.28356">
        <ele>2350.9</ele>
        <time>2019-01-07T04:45:03Z</time>
      </trkpt>
      <trkpt lat="42.43826" lon="2.28362">
        <ele>2350.7</ele>
        <time>2019-01-07T04:45:04Z</time>
      </trkpt>
      <trkpt lat="42.43829" lon="2.28367">
        <ele>2350</ele>
        <time>2019-01-07T04:45:06Z</time>
      </trkpt>
      <trkpt lat="42.43833" lon="2.28373">
        <ele>2349.5</ele>
        <time>2019-01-07T04:45:07Z</time>
      </trkpt>
      <trkpt lat="42.43837" lon="2.28378">
        <ele>2349.3</ele>
        <time>2019-01-07T04:45:09Z</time>
      </trkpt>
      <trkpt lat="42.43841" lon="2.28383">
        <ele>2349.3</ele>
        <time>2019-01-07T04:45:10Z</time>
      </trkpt>
      <trkpt lat="42.43846" lon="2.28388">
        <ele>2349</ele>
        <time>2019-01-07T04:45:12Z</time>
      </trkpt>
      <trkpt lat="42.4385" lon="2.28392">
        <ele>2348.5</ele>
        <time>2019-01-07T04:45:13Z</time>
      </trkpt>
      <trkpt lat="42.43854" lon="2.28397">
        <ele>2348.1</ele>
        <time>2019-01-07T04:45:15Z</time>
      </trkpt>
      <trkpt lat="42.43859" lon="2.28401">
        <ele>2348</ele>
        <time>2019-01-07T04:45:16Z</time>
      </trkpt>
      <trkpt lat="42.43863" lon="2.28405">
        <ele>2347.6</ele>
        <time>2019-01-07T04:45:17Z</time>
      </trkpt>
      <trkpt lat="42.43868" lon="2.28408">
        <ele>2347.2</ele>
        <time>2019-01-07T04:45:19Z</time>
      </trkpt>
      <trkpt lat="42.43872" lon="2.28413">
        <ele>2346.9</ele>
        <time>2019-01-07T04:45:20Z</time>
      </trkpt>
      <trkpt lat="42.43876" lon="2.28418">
        <ele>2346.5</ele>
        <time>2019-01-07T04:45:22Z</time>
      </trkpt>
      <trkpt lat="42.43881" lon="2.28422">
        <ele>2346.1</ele>
        <time>2019-01-07T04:45:23Z</time>
      </trkpt>
      <trkpt lat="42.43885" lon="2.28425">
        <ele>2345.8</ele>
        <time>2019-01-07T04:45:25Z</time>
      </trkpt>
      <trkpt lat="42.4389" lon="2.28429">
        <ele>2345.6</ele>
        <time>2019-01-07T04:45:26Z</time>
      </trkpt>
      <trkpt lat="42.43894" lon="2.28432">
        <ele>2345.3</ele>
        <time>2019-01-07T04:45:27Z</time>
      </trkpt>
      <trkpt lat="42.43899" lon="2.28436">
        <ele>2345.2</ele>
        <time>2019-01-07T04:45:29Z</time>
      </trkpt>
      <trkpt lat="42.43903" lon="2.28439">
        <ele>2344.7</ele>
        <time>2019-01-07T04:45:30Z</time>
      </trkpt>
      <trkpt lat="42.43908" lon="2.28442">
        <ele>2344.5</ele>
        <time>2019-01-07T04:45:32Z</time>
      </trkpt>
      <trkpt lat="42.43912" lon="2.28446">
        <ele>2344.4</ele>
        <time>2019-01-07T04:45:33Z</time>
      </trkpt>
      <trkpt lat="42.43916" lon="2.2845">
        <ele>2343.9</ele>
        <time>2019-01-07T04:45:34Z</time>
      </trkpt>
      <trkpt lat="42.4392" lon="2.28454">
        <ele>2343.4</ele>
        <time>2019-01-07T04:45:36Z</time>
      </trkpt>
      <trkpt lat="42.43925" lon="2.28458">
        <ele>2343.5</ele>
        <time>2019-01-07T04:45:37Z</time>
      </trkpt>
      <trkpt lat="42.43929" lon="2.28462">
        <ele>2343.8</ele>
        <time>2019-01-07T04:45:38Z</time>
      </trkpt>
      <trkpt lat="42.43933" lon="2.28466">
        <ele>2344</ele>
        <time>2019-01-07T04:45:40Z</time>
      </trkpt>
      <trkpt lat="42.43937" lon="2.28469">
        <ele>2344.2</ele>
        <time>2019-01-07T04:45:41Z</time>
      </trkpt>
      <trkpt lat="42.43941" lon="2.28472">
        <ele>2344.4</ele>
        <time>2019-01-07T04:45:42Z</time>
      </trkpt>
      <trkpt lat="42.43945" lon="2.28475">
        <ele>2344.7</ele>
        <time>2019-01-07T04:45:43Z</time>
      </trkpt>
      <trkpt lat="42.43949" lon="2.28479">
        <ele>2345</ele>
        <time>2019-01-07T04:45:45Z</time>
      </trkpt>
      <trkpt lat="42.43953" lon="2.28483">
        <ele>2345.2</ele>
        <time>2019-01-07T04:45:46Z</time>
      </trkpt>
      <trkpt lat="42.43957" lon="2.28486">
        <ele>2345.8</ele>
        <time>2019-01-07T04:45:47Z</time>
      </trkpt>
      <trkpt lat="42.43961" lon="2.28491">
        <ele>2346</ele>
        <time>2019-01-07T04:45:49Z</time>
      </trkpt>
      <trkpt lat="42.43965" lon="2.28495">
        <ele>2346.1</ele>
        <time>2019-01-07T04:45:50Z</time>
      </trkpt>
      <trkpt lat="42.43969" lon="2.28498">
        <ele>2346.2</ele>
        <time>2019-01-07T04:45:51Z</time>
      </trkpt>
      <trkpt lat="42.43972" lon="2.28504">
        <ele>2345.8</ele>
        <time>2019-01-07T04:45:53Z</time>
      </trkpt>
      <trkpt lat="42.43975" lon="2.2851">
        <ele>2345.7</ele>
        <time>2019-01-07T04:45:54Z</time>
      </trkpt>
      <trkpt lat="42.43977" lon="2.28516">
        <ele>2345.5</ele>
        <time>2019-01-07T04:45:56Z</time>
      </trkpt>
      <trkpt lat="42.4398" lon="2.28523">
        <ele>2344.6</ele>
        <time>2019-01-07T04:45:57Z</time>
      </trkpt>
      <trkpt lat="42.43982" lon="2.28529">
        <ele>2343.5</ele>
        <time>2019-01-07T04:45:58Z</time>
      </trkpt>
      <trkpt lat="42.43985" lon="2.28534">
        <ele>2343.1</ele>
        <time>2019-01-07T04:46:00Z</time>
      </trkpt>
      <trkpt lat="42.43989" lon="2.2854">
        <ele>2342.6</ele>
        <time>2019-01-07T04:46:01Z</time>
      </trkpt>
      <trkpt lat="42.43992" lon="2.28546">
        <ele>2341.5</ele>
        <time>2019-01-07T04:46:03Z</time>
      </trkpt>
      <trkpt lat="42.43996" lon="2.28551">
        <ele>2340.3</ele>
        <time>2019-01-07T04:46:04Z</time>
      </trkpt>
      <trkpt lat="42.44" lon="2.28555">
        <ele>2339.3</ele>
        <time>2019-01-07T04:46:05Z</time>
      </trkpt>
      <trkpt lat="42.44003" lon="2.28559">
        <ele>2338.1</ele>
        <time>2019-01-07T04:46:07Z</time>
      </trkpt>
      <trkpt lat="42.44008" lon="2.28563">
        <ele>2336.8</ele>
        <time>2019-01-07T04:46:08Z</time>
      </trkpt>
      <trkpt lat="42.44011" lon="2.28567">
        <ele>2335.5</ele>
        <time>2019-01-07T04:46:09Z</time>
      </trkpt>
      <trkpt lat="42.44015" lon="2.28572">
        <ele>2334.2</ele>
        <time>2019-01-07T04:46:11Z</time>
      </trkpt>
      <trkpt lat="42.44018" lon="2.28577">
        <ele>2333.2</ele>
        <time>2019-01-07T04:46:12Z</time>
      </trkpt>
      <trkpt lat="42.44022" lon="2.28582">
        <ele>2332.5</ele>
        <time>2019-01-07T04:46:13Z</time>
      </trkpt>
      <trkpt lat="42.44026" lon="2.28587">
        <ele>2331.9</ele>
        <time>2019-01-07T04:46:15Z</time>
      </trkpt>
      <trkpt lat="42.4403" lon="2.28592">
        <ele>2331</ele>
        <time>2019-01-07T04:46:16Z</time>
      </trkpt>
      <trkpt lat="42.44034" lon="2.28596">
        <ele>2330.4</ele>
        <time>2019-01-07T04:46:18Z</time>
      </trkpt>
      <trkpt lat="42.44038" lon="2.286">
        <ele>2329.8</ele>
        <time>2019-01-07T04:46:19Z</time>
      </trkpt>
      <trkpt lat="42.44042" lon="2.28604">
        <ele>2329</ele>
        <time>2019-01-07T04:46:20Z</time>
      </trkpt>
      <trkpt lat="42.44046" lon="2.28609">
        <ele>2328.3</ele>
        <time>2019-01-07T04:46:22Z</time>
      </trkpt>
      <trkpt lat="42.4405" lon="2.28613">
        <ele>2327.4</ele>
        <time>2019-01-07T04:46:23Z</time>
      </trkpt>
      <trkpt lat="42.44054" lon="2.28617">
        <ele>2326.8</ele>
        <time>2019-01-07T04:46:24Z</time>
      </trkpt>
      <trkpt lat="42.44058" lon="2.28622">
        <ele>2326.3</ele>
        <time>2019-01-07T04:46:26Z</time>
      </trkpt>
      <trkpt lat="42.44062" lon="2.28626">
        <ele>2325.5</ele>
        <time>2019-01-07T04:46:27Z</time>
      </trkpt>
      <trkpt lat="42.44067" lon="2.28629">
        <ele>2324.8</ele>
        <time>2019-01-07T04:46:28Z</time>
      </trkpt>
      <trkpt lat="42.44071" lon="2.28633">
        <ele>2324.2</ele>
        <time>2019-01-07T04:46:30Z</time>
      </trkpt>
      <trkpt lat="42.44074" lon="2.28637">
        <ele>2323.5</ele>
        <time>2019-01-07T04:46:31Z</time>
      </trkpt>
      <trkpt lat="42.44079" lon="2.2864">
        <ele>2323.2</ele>
        <time>2019-01-07T04:46:32Z</time>
      </trkpt>
      <trkpt lat="42.44083" lon="2.28644">
        <ele>2322.7</ele>
        <time>2019-01-07T04:46:34Z</time>
      </trkpt>
      <trkpt lat="42.44086" lon="2.28648">
        <ele>2322</ele>
        <time>2019-01-07T04:46:35Z</time>
      </trkpt>
      <trkpt lat="42.44091" lon="2.28651">
        <ele>2321.7</ele>
        <time>2019-01-07T04:46:36Z</time>
      </trkpt>
      <trkpt lat="42.44096" lon="2.28654">
        <ele>2321.3</ele>
        <time>2019-01-07T04:46:38Z</time>
      </trkpt>
      <trkpt lat="42.441" lon="2.28656">
        <ele>2320.8</ele>
        <time>2019-01-07T04:46:39Z</time>
      </trkpt>
      <trkpt lat="42.44105" lon="2.28659">
        <ele>2320.3</ele>
        <time>2019-01-07T04:46:40Z</time>
      </trkpt>
      <trkpt lat="42.44109" lon="2.28663">
        <ele>2319.8</ele>
        <time>2019-01-07T04:46:42Z</time>
      </trkpt>
      <trkpt lat="42.44113" lon="2.28667">
        <ele>2319.2</ele>
        <time>2019-01-07T04:46:43Z</time>
      </trkpt>
      <trkpt lat="42.44116" lon="2.28672">
        <ele>2318.5</ele>
        <time>2019-01-07T04:46:44Z</time>
      </trkpt>
      <trkpt lat="42.4412" lon="2.28677">
        <ele>2317.2</ele>
        <time>2019-01-07T04:46:46Z</time>
      </trkpt>
      <trkpt lat="42.44125" lon="2.2868">
        <ele>2315.9</ele>
        <time>2019-01-07T04:46:47Z</time>
      </trkpt>
      <trkpt lat="42.44129" lon="2.28684">
        <ele>2314.9</ele>
        <time>2019-01-07T04:46:48Z</time>
      </trkpt>
      <trkpt lat="42.44133" lon="2.28685">
        <ele>2314.2</ele>
        <time>2019-01-07T04:46:50Z</time>
      </trkpt>
      <trkpt lat="42.44138" lon="2.28687">
        <ele>2313.4</ele>
        <time>2019-01-07T04:46:51Z</time>
      </trkpt>
      <trkpt lat="42.44141" lon="2.28692">
        <ele>2312.7</ele>
        <time>2019-01-07T04:46:52Z</time>
      </trkpt>
      <trkpt lat="42.44145" lon="2.28695">
        <ele>2312</ele>
        <time>2019-01-07T04:46:54Z</time>
      </trkpt>
      <trkpt lat="42.4415" lon="2.28699">
        <ele>2311.4</ele>
        <time>2019-01-07T04:46:55Z</time>
      </trkpt>
      <trkpt lat="42.44154" lon="2.28702">
        <ele>2310.7</ele>
        <time>2019-01-07T04:46:56Z</time>
      </trkpt>
      <trkpt lat="42.44158" lon="2.28705">
        <ele>2310</ele>
        <time>2019-01-07T04:46:58Z</time>
      </trkpt>
      <trkpt lat="42.44164" lon="2.28708">
        <ele>2308.9</ele>
        <time>2019-01-07T04:46:59Z</time>
      </trkpt>
      <trkpt lat="42.44168" lon="2.2871">
        <ele>2308</ele>
        <time>2019-01-07T04:47:00Z</time>
      </trkpt>
      <trkpt lat="42.44173" lon="2.28713">
        <ele>2307.6</ele>
        <time>2019-01-07T04:47:02Z</time>
      </trkpt>
      <trkpt lat="42.44178" lon="2.28716">
        <ele>2306.7</ele>
        <time>2019-01-07T04:47:03Z</time>
      </trkpt>
      <trkpt lat="42.44183" lon="2.28719">
        <ele>2306</ele>
        <time>2019-01-07T04:47:05Z</time>
      </trkpt>
      <trkpt lat="42.44187" lon="2.2872">
        <ele>2304.9</ele>
        <time>2019-01-07T04:47:06Z</time>
      </trkpt>
      <trkpt lat="42.44192" lon="2.28724">
        <ele>2304.6</ele>
        <time>2019-01-07T04:47:07Z</time>
      </trkpt>
      <trkpt lat="42.44196" lon="2.28727">
        <ele>2304.3</ele>
        <time>2019-01-07T04:47:09Z</time>
      </trkpt>
      <trkpt lat="42.44201" lon="2.2873">
        <ele>2304.3</ele>
        <time>2019-01-07T04:47:10Z</time>
      </trkpt>
      <trkpt lat="42.44205" lon="2.28734">
        <ele>2303.9</ele>
        <time>2019-01-07T04:47:11Z</time>
      </trkpt>
      <trkpt lat="42.4421" lon="2.28738">
        <ele>2303.4</ele>
        <time>2019-01-07T04:47:13Z</time>
      </trkpt>
      <trkpt lat="42.44214" lon="2.28741">
        <ele>2303</ele>
        <time>2019-01-07T04:47:14Z</time>
      </trkpt>
      <trkpt lat="42.44216" lon="2.28747">
        <ele>2302.1</ele>
        <time>2019-01-07T04:47:15Z</time>
      </trkpt>
      <trkpt lat="42.44218" lon="2.28753">
        <ele>2301.1</ele>
        <time>2019-01-07T04:47:17Z</time>
      </trkpt>
      <trkpt lat="42.44223" lon="2.28756">
        <ele>2299.9</ele>
        <time>2019-01-07T04:47:18Z</time>
      </trkpt>
      <trkpt lat="42.44227" lon="2.2876">
        <ele>2298.4</ele>
        <time>2019-01-07T04:47:19Z</time>
      </trkpt>
      <trkpt lat="42.44231" lon="2.28763">
        <ele>2296.4</ele>
        <time>2019-01-07T04:47:21Z</time>
      </trkpt>
      <trkpt lat="42.44236" lon="2.28767">
        <ele>2295.7</ele>
        <time>2019-01-07T04:47:22Z</time>
      </trkpt>
      <trkpt lat="42.4424" lon="2.28769">
        <ele>2294.2</ele>
        <time>2019-01-07T04:47:23Z</time>
      </trkpt>
      <trkpt lat="42.44245" lon="2.28772">
        <ele>2292.5</ele>
        <time>2019-01-07T04:47:25Z</time>
      </trkpt>
      <trkpt lat="42.44249" lon="2.28774">
        <ele>2291.5</ele>
        <time>2019-01-07T04:47:26Z</time>
      </trkpt>
      <trkpt lat="42.44254" lon="2.28776">
        <ele>2289.9</ele>
        <time>2019-01-07T04:47:27Z</time>
      </trkpt>
      <trkpt lat="42.44258" lon="2.28779">
        <ele>2288.1</ele>
        <time>2019-01-07T04:47:29Z</time>
      </trkpt>
      <trkpt lat="42.44263" lon="2.28782">
        <ele>2286.7</ele>
        <time>2019-01-07T04:47:30Z</time>
      </trkpt>
      <trkpt lat="42.44266" lon="2.28786">
        <ele>2285.6</ele>
        <time>2019-01-07T04:47:31Z</time>
      </trkpt>
      <trkpt lat="42.44271" lon="2.28789">
        <ele>2284.1</ele>
        <time>2019-01-07T04:47:33Z</time>
      </trkpt>
      <trkpt lat="42.44275" lon="2.28792">
        <ele>2283.2</ele>
        <time>2019-01-07T04:47:34Z</time>
      </trkpt>
      <trkpt lat="42.44279" lon="2.28796">
        <ele>2282.3</ele>
        <time>2019-01-07T04:47:35Z</time>
      </trkpt>
      <trkpt lat="42.44284" lon="2.28799">
        <ele>2281.5</ele>
        <time>2019-01-07T04:47:37Z</time>
      </trkpt>
      <trkpt lat="42.44288" lon="2.28804">
        <ele>2280.5</ele>
        <time>2019-01-07T04:47:38Z</time>
      </trkpt>
      <trkpt lat="42.44293" lon="2.28807">
        <ele>2279.7</ele>
        <time>2019-01-07T04:47:39Z</time>
      </trkpt>
      <trkpt lat="42.44298" lon="2.2881">
        <ele>2279.1</ele>
        <time>2019-01-07T04:47:41Z</time>
      </trkpt>
      <trkpt lat="42.44303" lon="2.28813">
        <ele>2278.3</ele>
        <time>2019-01-07T04:47:42Z</time>
      </trkpt>
      <trkpt lat="42.44308" lon="2.28815">
        <ele>2277.6</ele>
        <time>2019-01-07T04:47:44Z</time>
      </trkpt>
      <trkpt lat="42.44312" lon="2.28816">
        <ele>2276.9</ele>
        <time>2019-01-07T04:47:45Z</time>
      </trkpt>
      <trkpt lat="42.44317" lon="2.28818">
        <ele>2276</ele>
        <time>2019-01-07T04:47:46Z</time>
      </trkpt>
      <trkpt lat="42.44322" lon="2.28821">
        <ele>2275.4</ele>
        <time>2019-01-07T04:47:48Z</time>
      </trkpt>
      <trkpt lat="42.44327" lon="2.28824">
        <ele>2274.5</ele>
        <time>2019-01-07T04:47:49Z</time>
      </trkpt>
      <trkpt lat="42.44332" lon="2.28827">
        <ele>2273.9</ele>
        <time>2019-01-07T04:47:51Z</time>
      </trkpt>
      <trkpt lat="42.44336" lon="2.2883">
        <ele>2273.3</ele>
        <time>2019-01-07T04:47:52Z</time>
      </trkpt>
      <trkpt lat="42.44341" lon="2.28832">
        <ele>2272.8</ele>
        <time>2019-01-07T04:47:53Z</time>
      </trkpt>
      <trkpt lat="42.44346" lon="2.28834">
        <ele>2272.8</ele>
        <time>2019-01-07T04:47:55Z</time>
      </trkpt>
      <trkpt lat="42.44351" lon="2.28837">
        <ele>2272.3</ele>
        <time>2019-01-07T04:47:56Z</time>
      </trkpt>
      <trkpt lat="42.44355" lon="2.28839">
        <ele>2271.9</ele>
        <time>2019-01-07T04:47:57Z</time>
      </trkpt>
      <trkpt lat="42.4436" lon="2.28841">
        <ele>2271.6</ele>
        <time>2019-01-07T04:47:59Z</time>
      </trkpt>
      <trkpt lat="42.44365" lon="2.28842">
        <ele>2271.2</ele>
        <time>2019-01-07T04:48:00Z</time>
      </trkpt>
      <trkpt lat="42.44371" lon="2.28842">
        <ele>2271</ele>
        <time>2019-01-07T04:48:01Z</time>
      </trkpt>
      <trkpt lat="42.44376" lon="2.28842">
        <ele>2270.2</ele>
        <time>2019-01-07T04:48:03Z</time>
      </trkpt>
      <trkpt lat="42.44381" lon="2.28842">
        <ele>2270.1</ele>
        <time>2019-01-07T04:48:04Z</time>
      </trkpt>
      <trkpt lat="42.44386" lon="2.28842">
        <ele>2269.6</ele>
        <time>2019-01-07T04:48:06Z</time>
      </trkpt>
      <trkpt lat="42.44392" lon="2.28842">
        <ele>2269</ele>
        <time>2019-01-07T04:48:07Z</time>
      </trkpt>
      <trkpt lat="42.44396" lon="2.28843">
        <ele>2268.5</ele>
        <time>2019-01-07T04:48:08Z</time>
      </trkpt>
      <trkpt lat="42.44401" lon="2.28843">
        <ele>2267.8</ele>
        <time>2019-01-07T04:48:10Z</time>
      </trkpt>
      <trkpt lat="42.44406" lon="2.28846">
        <ele>2267</ele>
        <time>2019-01-07T04:48:11Z</time>
      </trkpt>
      <trkpt lat="42.44411" lon="2.28846">
        <ele>2266.4</ele>
        <time>2019-01-07T04:48:12Z</time>
      </trkpt>
      <trkpt lat="42.44415" lon="2.28847">
        <ele>2266.1</ele>
        <time>2019-01-07T04:48:13Z</time>
      </trkpt>
      <trkpt lat="42.4442" lon="2.28849">
        <ele>2264.7</ele>
        <time>2019-01-07T04:48:15Z</time>
      </trkpt>
      <trkpt lat="42.44425" lon="2.28846">
        <ele>2263.9</ele>
        <time>2019-01-07T04:48:16Z</time>
      </trkpt>
      <trkpt lat="42.44429" lon="2.28849">
        <ele>2262.9</ele>
        <time>2019-01-07T04:48:18Z</time>
      </trkpt>
      <trkpt lat="42.44434" lon="2.2885">
        <ele>2262.3</ele>
        <time>2019-01-07T04:48:19Z</time>
      </trkpt>
      <trkpt lat="42.44438" lon="2.28852">
        <ele>2262.1</ele>
        <time>2019-01-07T04:48:20Z</time>
      </trkpt>
      <trkpt lat="42.44443" lon="2.28854">
        <ele>2261.2</ele>
        <time>2019-01-07T04:48:21Z</time>
      </trkpt>
      <trkpt lat="42.44447" lon="2.28857">
        <ele>2260.5</ele>
        <time>2019-01-07T04:48:23Z</time>
      </trkpt>
      <trkpt lat="42.44451" lon="2.2886">
        <ele>2259.8</ele>
        <time>2019-01-07T04:48:24Z</time>
      </trkpt>
      <trkpt lat="42.44456" lon="2.28863">
        <ele>2258.9</ele>
        <time>2019-01-07T04:48:25Z</time>
      </trkpt>
      <trkpt lat="42.44461" lon="2.28866">
        <ele>2258.1</ele>
        <time>2019-01-07T04:48:27Z</time>
      </trkpt>
      <trkpt lat="42.44465" lon="2.28868">
        <ele>2256.6</ele>
        <time>2019-01-07T04:48:28Z</time>
      </trkpt>
      <trkpt lat="42.4447" lon="2.2887">
        <ele>2255.1</ele>
        <time>2019-01-07T04:48:29Z</time>
      </trkpt>
      <trkpt lat="42.44475" lon="2.28872">
        <ele>2253.8</ele>
        <time>2019-01-07T04:48:31Z</time>
      </trkpt>
      <trkpt lat="42.44479" lon="2.28874">
        <ele>2252.6</ele>
        <time>2019-01-07T04:48:32Z</time>
      </trkpt>
      <trkpt lat="42.44484" lon="2.28874">
        <ele>2251.4</ele>
        <time>2019-01-07T04:48:33Z</time>
      </trkpt>
      <trkpt lat="42.44489" lon="2.28873">
        <ele>2250.2</ele>
        <time>2019-01-07T04:48:34Z</time>
      </trkpt>
      <trkpt lat="42.44494" lon="2.28876">
        <ele>2249</ele>
        <time>2019-01-07T04:48:36Z</time>
      </trkpt>
      <trkpt lat="42.44498" lon="2.28879">
        <ele>2247.9</ele>
        <time>2019-01-07T04:48:37Z</time>
      </trkpt>
      <trkpt lat="42.44503" lon="2.28882">
        <ele>2246.7</ele>
        <time>2019-01-07T04:48:39Z</time>
      </trkpt>
      <trkpt lat="42.44508" lon="2.28885">
        <ele>2245.7</ele>
        <time>2019-01-07T04:48:40Z</time>
      </trkpt>
      <trkpt lat="42.44513" lon="2.28888">
        <ele>2244.9</ele>
        <time>2019-01-07T04:48:41Z</time>
      </trkpt>
      <trkpt lat="42.44518" lon="2.2889">
        <ele>2243.8</ele>
        <time>2019-01-07T04:48:43Z</time>
      </trkpt>
      <trkpt lat="42.44523" lon="2.28893">
        <ele>2242.7</ele>
        <time>2019-01-07T04:48:44Z</time>
      </trkpt>
      <trkpt lat="42.44528" lon="2.28895">
        <ele>2241.5</ele>
        <time>2019-01-07T04:48:46Z</time>
      </trkpt>
      <trkpt lat="42.44533" lon="2.28896">
        <ele>2240.2</ele>
        <time>2019-01-07T04:48:47Z</time>
      </trkpt>
      <trkpt lat="42.44537" lon="2.28898">
        <ele>2239</ele>
        <time>2019-01-07T04:48:48Z</time>
      </trkpt>
      <trkpt lat="42.44542" lon="2.289">
        <ele>2237.5</ele>
        <time>2019-01-07T04:48:50Z</time>
      </trkpt>
      <trkpt lat="42.44546" lon="2.28901">
        <ele>2236.3</ele>
        <time>2019-01-07T04:48:51Z</time>
      </trkpt>
      <trkpt lat="42.44552" lon="2.28903">
        <ele>2235</ele>
        <time>2019-01-07T04:48:52Z</time>
      </trkpt>
      <trkpt lat="42.44556" lon="2.28905">
        <ele>2233.5</ele>
        <time>2019-01-07T04:48:54Z</time>
      </trkpt>
      <trkpt lat="42.44561" lon="2.28907">
        <ele>2232.5</ele>
        <time>2019-01-07T04:48:55Z</time>
      </trkpt>
      <trkpt lat="42.44567" lon="2.28908">
        <ele>2231.6</ele>
        <time>2019-01-07T04:48:56Z</time>
      </trkpt>
      <trkpt lat="42.44572" lon="2.2891">
        <ele>2230.2</ele>
        <time>2019-01-07T04:48:58Z</time>
      </trkpt>
      <trkpt lat="42.44577" lon="2.28913">
        <ele>2229.1</ele>
        <time>2019-01-07T04:48:59Z</time>
      </trkpt>
      <trkpt lat="42.44582" lon="2.28914">
        <ele>2228.5</ele>
        <time>2019-01-07T04:49:01Z</time>
      </trkpt>
      <trkpt lat="42.44587" lon="2.28916">
        <ele>2227.8</ele>
        <time>2019-01-07T04:49:02Z</time>
      </trkpt>
      <trkpt lat="42.44591" lon="2.28918">
        <ele>2227.2</ele>
        <time>2019-01-07T04:49:03Z</time>
      </trkpt>
      <trkpt lat="42.44596" lon="2.28918">
        <ele>2226.5</ele>
        <time>2019-01-07T04:49:04Z</time>
      </trkpt>
      <trkpt lat="42.44601" lon="2.28919">
        <ele>2225.9</ele>
        <time>2019-01-07T04:49:06Z</time>
      </trkpt>
      <trkpt lat="42.44606" lon="2.2892">
        <ele>2225.5</ele>
        <time>2019-01-07T04:49:07Z</time>
      </trkpt>
      <trkpt lat="42.44611" lon="2.28923">
        <ele>2225</ele>
        <time>2019-01-07T04:49:09Z</time>
      </trkpt>
      <trkpt lat="42.44615" lon="2.28925">
        <ele>2224.2</ele>
        <time>2019-01-07T04:49:10Z</time>
      </trkpt>
      <trkpt lat="42.4462" lon="2.28927">
        <ele>2224</ele>
        <time>2019-01-07T04:49:11Z</time>
      </trkpt>
      <trkpt lat="42.44624" lon="2.28929">
        <ele>2223.9</ele>
        <time>2019-01-07T04:49:12Z</time>
      </trkpt>
      <trkpt lat="42.44629" lon="2.28931">
        <ele>2223.7</ele>
        <time>2019-01-07T04:49:14Z</time>
      </trkpt>
      <trkpt lat="42.44634" lon="2.28933">
        <ele>2223.6</ele>
        <time>2019-01-07T04:49:15Z</time>
      </trkpt>
      <trkpt lat="42.44638" lon="2.28933">
        <ele>2223.4</ele>
        <time>2019-01-07T04:49:16Z</time>
      </trkpt>
      <trkpt lat="42.44643" lon="2.28936">
        <ele>2223.2</ele>
        <time>2019-01-07T04:49:18Z</time>
      </trkpt>
      <trkpt lat="42.44647" lon="2.28938">
        <ele>2222.8</ele>
        <time>2019-01-07T04:49:19Z</time>
      </trkpt>
      <trkpt lat="42.44652" lon="2.2894">
        <ele>2222.7</ele>
        <time>2019-01-07T04:49:20Z</time>
      </trkpt>
      <trkpt lat="42.44656" lon="2.28942">
        <ele>2222.3</ele>
        <time>2019-01-07T04:49:21Z</time>
      </trkpt>
      <trkpt lat="42.44661" lon="2.28945">
        <ele>2222.2</ele>
        <time>2019-01-07T04:49:23Z</time>
      </trkpt>
      <trkpt lat="42.44665" lon="2.28947">
        <ele>2222</ele>
        <time>2019-01-07T04:49:24Z</time>
      </trkpt>
      <trkpt lat="42.4467" lon="2.2895">
        <ele>2222.3</ele>
        <time>2019-01-07T04:49:25Z</time>
      </trkpt>
      <trkpt lat="42.44674" lon="2.28953">
        <ele>2222.3</ele>
        <time>2019-01-07T04:49:27Z</time>
      </trkpt>
      <trkpt lat="42.44679" lon="2.28956">
        <ele>2222.4</ele>
        <time>2019-01-07T04:49:28Z</time>
      </trkpt>
      <trkpt lat="42.44683" lon="2.28959">
        <ele>2222.5</ele>
        <time>2019-01-07T04:49:29Z</time>
      </trkpt>
      <trkpt lat="42.44687" lon="2.28962">
        <ele>2222.3</ele>
        <time>2019-01-07T04:49:31Z</time>
      </trkpt>
      <trkpt lat="42.44692" lon="2.28965">
        <ele>2222.4</ele>
        <time>2019-01-07T04:49:32Z</time>
      </trkpt>
      <trkpt lat="42.44696" lon="2.28968">
        <ele>2222.4</ele>
        <time>2019-01-07T04:49:33Z</time>
      </trkpt>
      <trkpt lat="42.44701" lon="2.28971">
        <ele>2222.8</ele>
        <time>2019-01-07T04:49:35Z</time>
      </trkpt>
      <trkpt lat="42.44706" lon="2.28973">
        <ele>2223.2</ele>
        <time>2019-01-07T04:49:36Z</time>
      </trkpt>
      <trkpt lat="42.44711" lon="2.28975">
        <ele>2223.2</ele>
        <time>2019-01-07T04:49:37Z</time>
      </trkpt>
      <trkpt lat="42.44716" lon="2.28979">
        <ele>2223.3</ele>
        <time>2019-01-07T04:49:39Z</time>
      </trkpt>
      <trkpt lat="42.44721" lon="2.28981">
        <ele>2223.6</ele>
        <time>2019-01-07T04:49:40Z</time>
      </trkpt>
      <trkpt lat="42.44725" lon="2.28983">
        <ele>2223.7</ele>
        <time>2019-01-07T04:49:41Z</time>
      </trkpt>
      <trkpt lat="42.4473" lon="2.28986">
        <ele>2223.9</ele>
        <time>2019-01-07T04:49:43Z</time>
      </trkpt>
      <trkpt lat="42.44734" lon="2.28988">
        <ele>2224.5</ele>
        <time>2019-01-07T04:49:44Z</time>
      </trkpt>
      <trkpt lat="42.44739" lon="2.28991">
        <ele>2224.9</ele>
        <time>2019-01-07T04:49:45Z</time>
      </trkpt>
      <trkpt lat="42.44744" lon="2.28992">
        <ele>2225.5</ele>
        <time>2019-01-07T04:49:47Z</time>
      </trkpt>
      <trkpt lat="42.44749" lon="2.28994">
        <ele>2226.1</ele>
        <time>2019-01-07T04:49:48Z</time>
      </trkpt>
      <trkpt lat="42.44753" lon="2.28996">
        <ele>2226.8</ele>
        <time>2019-01-07T04:49:49Z</time>
      </trkpt>
      <trkpt lat="42.44758" lon="2.28997">
        <ele>2227.3</ele>
        <time>2019-01-07T04:49:51Z</time>
      </trkpt>
      <trkpt lat="42.44762" lon="2.29">
        <ele>2227.7</ele>
        <time>2019-01-07T04:49:52Z</time>
      </trkpt>
      <trkpt lat="42.44766" lon="2.29001">
        <ele>2228</ele>
        <time>2019-01-07T04:49:53Z</time>
      </trkpt>
      <trkpt lat="42.44771" lon="2.29001">
        <ele>2228.4</ele>
        <time>2019-01-07T04:49:54Z</time>
      </trkpt>
      <trkpt lat="42.44776" lon="2.29003">
        <ele>2229.3</ele>
        <time>2019-01-07T04:49:56Z</time>
      </trkpt>
      <trkpt lat="42.4478" lon="2.28999">
        <ele>2230.1</ele>
        <time>2019-01-07T04:49:57Z</time>
      </trkpt>
      <trkpt lat="42.44785" lon="2.28998">
        <ele>2230.6</ele>
        <time>2019-01-07T04:49:58Z</time>
      </trkpt>
      <trkpt lat="42.44791" lon="2.28999">
        <ele>2230.7</ele>
        <time>2019-01-07T04:50:00Z</time>
      </trkpt>
      <trkpt lat="42.44795" lon="2.29">
        <ele>2230.6</ele>
        <time>2019-01-07T04:50:01Z</time>
      </trkpt>
      <trkpt lat="42.448" lon="2.29003">
        <ele>2230.5</ele>
        <time>2019-01-07T04:50:02Z</time>
      </trkpt>
      <trkpt lat="42.44804" lon="2.29006">
        <ele>2230.3</ele>
        <time>2019-01-07T04:50:04Z</time>
      </trkpt>
      <trkpt lat="42.44809" lon="2.2901">
        <ele>2230.6</ele>
        <time>2019-01-07T04:50:05Z</time>
      </trkpt>
      <trkpt lat="42.44813" lon="2.29015">
        <ele>2230.3</ele>
        <time>2019-01-07T04:50:07Z</time>
      </trkpt>
      <trkpt lat="42.44816" lon="2.2902">
        <ele>2230.1</ele>
        <time>2019-01-07T04:50:08Z</time>
      </trkpt>
      <trkpt lat="42.44821" lon="2.29023">
        <ele>2229.4</ele>
        <time>2019-01-07T04:50:09Z</time>
      </trkpt>
      <trkpt lat="42.44825" lon="2.29026">
        <ele>2229.1</ele>
        <time>2019-01-07T04:50:10Z</time>
      </trkpt>
      <trkpt lat="42.44829" lon="2.2903">
        <ele>2228.8</ele>
        <time>2019-01-07T04:50:12Z</time>
      </trkpt>
      <trkpt lat="42.44833" lon="2.29033">
        <ele>2228.6</ele>
        <time>2019-01-07T04:50:13Z</time>
      </trkpt>
      <trkpt lat="42.44838" lon="2.29037">
        <ele>2228.6</ele>
        <time>2019-01-07T04:50:15Z</time>
      </trkpt>
      <trkpt lat="42.44843" lon="2.2904">
        <ele>2229</ele>
        <time>2019-01-07T04:50:16Z</time>
      </trkpt>
      <trkpt lat="42.44847" lon="2.29044">
        <ele>2229.3</ele>
        <time>2019-01-07T04:50:17Z</time>
      </trkpt>
      <trkpt lat="42.44852" lon="2.29047">
        <ele>2229.5</ele>
        <time>2019-01-07T04:50:19Z</time>
      </trkpt>
      <trkpt lat="42.44857" lon="2.29049">
        <ele>2229.8</ele>
        <time>2019-01-07T04:50:20Z</time>
      </trkpt>
      <trkpt lat="42.44861" lon="2.29052">
        <ele>2230.4</ele>
        <time>2019-01-07T04:50:22Z</time>
      </trkpt>
      <trkpt lat="42.44866" lon="2.29055">
        <ele>2230.8</ele>
        <time>2019-01-07T04:50:23Z</time>
      </trkpt>
      <trkpt lat="42.4487" lon="2.29059">
        <ele>2231.5</ele>
        <time>2019-01-07T04:50:24Z</time>
      </trkpt>
      <trkpt lat="42.44875" lon="2.29062">
        <ele>2232</ele>
        <time>2019-01-07T04:50:25Z</time>
      </trkpt>
      <trkpt lat="42.4488" lon="2.29065">
        <ele>2232.1</ele>
        <time>2019-01-07T04:50:27Z</time>
      </trkpt>
      <trkpt lat="42.44884" lon="2.29068">
        <ele>2232.2</ele>
        <time>2019-01-07T04:50:28Z</time>
      </trkpt>
      <trkpt lat="42.44888" lon="2.29071">
        <ele>2232.4</ele>
        <time>2019-01-07T04:50:29Z</time>
      </trkpt>
      <trkpt lat="42.44892" lon="2.29073">
        <ele>2232.6</ele>
        <time>2019-01-07T04:50:31Z</time>
      </trkpt>
      <trkpt lat="42.44897" lon="2.29077">
        <ele>2232.8</ele>
        <time>2019-01-07T04:50:32Z</time>
      </trkpt>
      <trkpt lat="42.44901" lon="2.2908">
        <ele>2233.1</ele>
        <time>2019-01-07T04:50:33Z</time>
      </trkpt>
      <trkpt lat="42.44906" lon="2.29081">
        <ele>2233.6</ele>
        <time>2019-01-07T04:50:35Z</time>
      </trkpt>
      <trkpt lat="42.44911" lon="2.29082">
        <ele>2234.6</ele>
        <time>2019-01-07T04:50:36Z</time>
      </trkpt>
      <trkpt lat="42.44916" lon="2.29084">
        <ele>2235.2</ele>
        <time>2019-01-07T04:50:37Z</time>
      </trkpt>
      <trkpt lat="42.4492" lon="2.29084">
        <ele>2235.9</ele>
        <time>2019-01-07T04:50:39Z</time>
      </trkpt>
      <trkpt lat="42.44925" lon="2.29085">
        <ele>2236.4</ele>
        <time>2019-01-07T04:50:40Z</time>
      </trkpt>
      <trkpt lat="42.44929" lon="2.29087">
        <ele>2237.1</ele>
        <time>2019-01-07T04:50:41Z</time>
      </trkpt>
      <trkpt lat="42.44934" lon="2.2909">
        <ele>2237.5</ele>
        <time>2019-01-07T04:50:43Z</time>
      </trkpt>
      <trkpt lat="42.44938" lon="2.29095">
        <ele>2237.6</ele>
        <time>2019-01-07T04:50:44Z</time>
      </trkpt>
      <trkpt lat="42.44942" lon="2.291">
        <ele>2237.6</ele>
        <time>2019-01-07T04:50:45Z</time>
      </trkpt>
      <trkpt lat="42.44945" lon="2.29106">
        <ele>2237.8</ele>
        <time>2019-01-07T04:50:47Z</time>
      </trkpt>
      <trkpt lat="42.44948" lon="2.29111">
        <ele>2238.3</ele>
        <time>2019-01-07T04:50:48Z</time>
      </trkpt>
      <trkpt lat="42.44951" lon="2.29117">
        <ele>2238.5</ele>
        <time>2019-01-07T04:50:50Z</time>
      </trkpt>
      <trkpt lat="42.44954" lon="2.29123">
        <ele>2238.5</ele>
        <time>2019-01-07T04:50:51Z</time>
      </trkpt>
      <trkpt lat="42.44957" lon="2.29129">
        <ele>2238.6</ele>
        <time>2019-01-07T04:50:52Z</time>
      </trkpt>
      <trkpt lat="42.44961" lon="2.29134">
        <ele>2238.5</ele>
        <time>2019-01-07T04:50:54Z</time>
      </trkpt>
      <trkpt lat="42.44965" lon="2.29139">
        <ele>2238.1</ele>
        <time>2019-01-07T04:50:55Z</time>
      </trkpt>
      <trkpt lat="42.44969" lon="2.29144">
        <ele>2238.1</ele>
        <time>2019-01-07T04:50:57Z</time>
      </trkpt>
      <trkpt lat="42.44973" lon="2.2915">
        <ele>2238</ele>
        <time>2019-01-07T04:50:58Z</time>
      </trkpt>
      <trkpt lat="42.44976" lon="2.29155">
        <ele>2237.9</ele>
        <time>2019-01-07T04:51:00Z</time>
      </trkpt>
      <trkpt lat="42.44979" lon="2.2916">
        <ele>2238</ele>
        <time>2019-01-07T04:51:01Z</time>
      </trkpt>
      <trkpt lat="42.44983" lon="2.29164">
        <ele>2237.9</ele>
        <time>2019-01-07T04:51:02Z</time>
      </trkpt>
      <trkpt lat="42.44987" lon="2.2917">
        <ele>2237.9</ele>
        <time>2019-01-07T04:51:04Z</time>
      </trkpt>
      <trkpt lat="42.44991" lon="2.29175">
        <ele>2238.2</ele>
        <time>2019-01-07T04:51:05Z</time>
      </trkpt>
      <trkpt lat="42.44995" lon="2.29179">
        <ele>2238.1</ele>
        <time>2019-01-07T04:51:06Z</time>
      </trkpt>
      <trkpt lat="42.44999" lon="2.29183">
        <ele>2238</ele>
        <time>2019-01-07T04:51:08Z</time>
      </trkpt>
      <trkpt lat="42.45003" lon="2.29186">
        <ele>2238.2</ele>
        <time>2019-01-07T04:51:09Z</time>
      </trkpt>
      <trkpt lat="42.45007" lon="2.29189">
        <ele>2238.3</ele>
        <time>2019-01-07T04:51:10Z</time>
      </trkpt>
      <trkpt lat="42.45012" lon="2.29192">
        <ele>2238.2</ele>
        <time>2019-01-07T04:51:12Z</time>
      </trkpt>
      <trkpt lat="42.45017" lon="2.29194">
        <ele>2237.8</ele>
        <time>2019-01-07T04:51:13Z</time>
      </trkpt>
      <trkpt lat="42.45021" lon="2.29198">
        <ele>2237.1</ele>
        <time>2019-01-07T04:51:14Z</time>
      </trkpt>
      <trkpt lat="42.45023" lon="2.29203">
        <ele>2236.3</ele>
        <time>2019-01-07T04:51:16Z</time>
      </trkpt>
      <trkpt lat="42.45025" lon="2.2921">
        <ele>2235.7</ele>
        <time>2019-01-07T04:51:17Z</time>
      </trkpt>
      <trkpt lat="42.45025" lon="2.29219">
        <ele>2235.3</ele>
        <time>2019-01-07T04:51:19Z</time>
      </trkpt>
      <trkpt lat="42.45024" lon="2.29225">
        <ele>2235.2</ele>
        <time>2019-01-07T04:51:20Z</time>
      </trkpt>
      <trkpt lat="42.45023" lon="2.29231">
        <ele>2235.4</ele>
        <time>2019-01-07T04:51:21Z</time>
      </trkpt>
      <trkpt lat="42.45021" lon="2.29237">
        <ele>2235.8</ele>
        <time>2019-01-07T04:51:23Z</time>
      </trkpt>
      <trkpt lat="42.4502" lon="2.29243">
        <ele>2235.9</ele>
        <time>2019-01-07T04:51:24Z</time>
      </trkpt>
      <trkpt lat="42.45016" lon="2.29247">
        <ele>2235.9</ele>
        <time>2019-01-07T04:51:25Z</time>
      </trkpt>
      <trkpt lat="42.45017" lon="2.29253">
        <ele>2235.6</ele>
        <time>2019-01-07T04:51:26Z</time>
      </trkpt>
      <trkpt lat="42.45016" lon="2.29259">
        <ele>2234.4</ele>
        <time>2019-01-07T04:51:28Z</time>
      </trkpt>
      <trkpt lat="42.45019" lon="2.29265">
        <ele>2233.3</ele>
        <time>2019-01-07T04:51:29Z</time>
      </trkpt>
      <trkpt lat="42.45024" lon="2.29265">
        <ele>2232.2</ele>
        <time>2019-01-07T04:51:30Z</time>
      </trkpt>
      <trkpt lat="42.45029" lon="2.29266">
        <ele>2231.4</ele>
        <time>2019-01-07T04:51:32Z</time>
      </trkpt>
      <trkpt lat="42.45033" lon="2.29269">
        <ele>2230.3</ele>
        <time>2019-01-07T04:51:33Z</time>
      </trkpt>
      <trkpt lat="42.45038" lon="2.29273">
        <ele>2229.2</ele>
        <time>2019-01-07T04:51:34Z</time>
      </trkpt>
      <trkpt lat="42.45042" lon="2.29277">
        <ele>2227.7</ele>
        <time>2019-01-07T04:51:36Z</time>
      </trkpt>
      <trkpt lat="42.45046" lon="2.2928">
        <ele>2226.4</ele>
        <time>2019-01-07T04:51:37Z</time>
      </trkpt>
      <trkpt lat="42.45051" lon="2.29283">
        <ele>2225.2</ele>
        <time>2019-01-07T04:51:39Z</time>
      </trkpt>
      <trkpt lat="42.45056" lon="2.29286">
        <ele>2224.4</ele>
        <time>2019-01-07T04:51:40Z</time>
      </trkpt>
      <trkpt lat="42.4506" lon="2.29291">
        <ele>2223.5</ele>
        <time>2019-01-07T04:51:41Z</time>
      </trkpt>
      <trkpt lat="42.45063" lon="2.29295">
        <ele>2222.9</ele>
        <time>2019-01-07T04:51:43Z</time>
      </trkpt>
      <trkpt lat="42.45065" lon="2.29301">
        <ele>2222.2</ele>
        <time>2019-01-07T04:51:44Z</time>
      </trkpt>
      <trkpt lat="42.45066" lon="2.29307">
        <ele>2221.6</ele>
        <time>2019-01-07T04:51:45Z</time>
      </trkpt>
      <trkpt lat="42.45068" lon="2.29313">
        <ele>2220.9</ele>
        <time>2019-01-07T04:51:46Z</time>
      </trkpt>
      <trkpt lat="42.45071" lon="2.29319">
        <ele>2220.2</ele>
        <time>2019-01-07T04:51:48Z</time>
      </trkpt>
      <trkpt lat="42.45071" lon="2.29326">
        <ele>2219.3</ele>
        <time>2019-01-07T04:51:49Z</time>
      </trkpt>
      <trkpt lat="42.45073" lon="2.29332">
        <ele>2217.9</ele>
        <time>2019-01-07T04:51:50Z</time>
      </trkpt>
      <trkpt lat="42.45075" lon="2.29339">
        <ele>2216.7</ele>
        <time>2019-01-07T04:51:52Z</time>
      </trkpt>
      <trkpt lat="42.45078" lon="2.29343">
        <ele>2216.1</ele>
        <time>2019-01-07T04:51:53Z</time>
      </trkpt>
      <trkpt lat="42.45082" lon="2.29349">
        <ele>2214.9</ele>
        <time>2019-01-07T04:51:54Z</time>
      </trkpt>
      <trkpt lat="42.45084" lon="2.29354">
        <ele>2213.8</ele>
        <time>2019-01-07T04:51:56Z</time>
      </trkpt>
      <trkpt lat="42.45087" lon="2.29359">
        <ele>2213.1</ele>
        <time>2019-01-07T04:51:57Z</time>
      </trkpt>
      <trkpt lat="42.45092" lon="2.29363">
        <ele>2212.1</ele>
        <time>2019-01-07T04:51:58Z</time>
      </trkpt>
      <trkpt lat="42.45096" lon="2.29368">
        <ele>2211.1</ele>
        <time>2019-01-07T04:52:00Z</time>
      </trkpt>
      <trkpt lat="42.451" lon="2.29373">
        <ele>2210.1</ele>
        <time>2019-01-07T04:52:01Z</time>
      </trkpt>
      <trkpt lat="42.45103" lon="2.29378">
        <ele>2209.3</ele>
        <time>2019-01-07T04:52:03Z</time>
      </trkpt>
      <trkpt lat="42.45106" lon="2.29382">
        <ele>2208.7</ele>
        <time>2019-01-07T04:52:04Z</time>
      </trkpt>
      <trkpt lat="42.45109" lon="2.29387">
        <ele>2208.5</ele>
        <time>2019-01-07T04:52:05Z</time>
      </trkpt>
      <trkpt lat="42.45112" lon="2.29392">
        <ele>2207.9</ele>
        <time>2019-01-07T04:52:06Z</time>
      </trkpt>
      <trkpt lat="42.45115" lon="2.29397">
        <ele>2207.6</ele>
        <time>2019-01-07T04:52:08Z</time>
      </trkpt>
      <trkpt lat="42.45118" lon="2.29403">
        <ele>2207.4</ele>
        <time>2019-01-07T04:52:09Z</time>
      </trkpt>
      <trkpt lat="42.45121" lon="2.29408">
        <ele>2207.6</ele>
        <time>2019-01-07T04:52:10Z</time>
      </trkpt>
      <trkpt lat="42.45123" lon="2.29414">
        <ele>2207.5</ele>
        <time>2019-01-07T04:52:12Z</time>
      </trkpt>
      <trkpt lat="42.45126" lon="2.29419">
        <ele>2206.8</ele>
        <time>2019-01-07T04:52:13Z</time>
      </trkpt>
      <trkpt lat="42.45126" lon="2.29426">
        <ele>2205.1</ele>
        <time>2019-01-07T04:52:14Z</time>
      </trkpt>
      <trkpt lat="42.45129" lon="2.29431">
        <ele>2204</ele>
        <time>2019-01-07T04:52:15Z</time>
      </trkpt>
      <trkpt lat="42.45132" lon="2.29437">
        <ele>2203</ele>
        <time>2019-01-07T04:52:17Z</time>
      </trkpt>
      <trkpt lat="42.45137" lon="2.29441">
        <ele>2202.5</ele>
        <time>2019-01-07T04:52:18Z</time>
      </trkpt>
      <trkpt lat="42.45141" lon="2.29446">
        <ele>2201.6</ele>
        <time>2019-01-07T04:52:20Z</time>
      </trkpt>
      <trkpt lat="42.45144" lon="2.29449">
        <ele>2201.1</ele>
        <time>2019-01-07T04:52:21Z</time>
      </trkpt>
      <trkpt lat="42.45149" lon="2.29453">
        <ele>2200.7</ele>
        <time>2019-01-07T04:52:22Z</time>
      </trkpt>
      <trkpt lat="42.45152" lon="2.29457">
        <ele>2200.6</ele>
        <time>2019-01-07T04:52:24Z</time>
      </trkpt>
      <trkpt lat="42.45155" lon="2.29463">
        <ele>2200.1</ele>
        <time>2019-01-07T04:52:25Z</time>
      </trkpt>
      <trkpt lat="42.45157" lon="2.29469">
        <ele>2199.2</ele>
        <time>2019-01-07T04:52:26Z</time>
      </trkpt>
      <trkpt lat="42.4516" lon="2.29473">
        <ele>2198.1</ele>
        <time>2019-01-07T04:52:27Z</time>
      </trkpt>
      <trkpt lat="42.45163" lon="2.29479">
        <ele>2197.1</ele>
        <time>2019-01-07T04:52:29Z</time>
      </trkpt>
      <trkpt lat="42.45165" lon="2.29485">
        <ele>2194.8</ele>
        <time>2019-01-07T04:52:30Z</time>
      </trkpt>
      <trkpt lat="42.45168" lon="2.2949">
        <ele>2193.6</ele>
        <time>2019-01-07T04:52:31Z</time>
      </trkpt>
      <trkpt lat="42.45171" lon="2.29496">
        <ele>2192.6</ele>
        <time>2019-01-07T04:52:33Z</time>
      </trkpt>
      <trkpt lat="42.45175" lon="2.295">
        <ele>2191.4</ele>
        <time>2019-01-07T04:52:34Z</time>
      </trkpt>
      <trkpt lat="42.45178" lon="2.29506">
        <ele>2190.1</ele>
        <time>2019-01-07T04:52:36Z</time>
      </trkpt>
      <trkpt lat="42.45181" lon="2.29512">
        <ele>2189.2</ele>
        <time>2019-01-07T04:52:37Z</time>
      </trkpt>
      <trkpt lat="42.45185" lon="2.29516">
        <ele>2188.3</ele>
        <time>2019-01-07T04:52:38Z</time>
      </trkpt>
      <trkpt lat="42.45187" lon="2.29523">
        <ele>2187</ele>
        <time>2019-01-07T04:52:40Z</time>
      </trkpt>
      <trkpt lat="42.45189" lon="2.29529">
        <ele>2186.3</ele>
        <time>2019-01-07T04:52:41Z</time>
      </trkpt>
      <trkpt lat="42.45192" lon="2.29535">
        <ele>2185.6</ele>
        <time>2019-01-07T04:52:42Z</time>
      </trkpt>
      <trkpt lat="42.45196" lon="2.29538">
        <ele>2184.9</ele>
        <time>2019-01-07T04:52:44Z</time>
      </trkpt>
      <trkpt lat="42.45199" lon="2.29544">
        <ele>2184.3</ele>
        <time>2019-01-07T04:52:45Z</time>
      </trkpt>
      <trkpt lat="42.45201" lon="2.29549">
        <ele>2183.9</ele>
        <time>2019-01-07T04:52:46Z</time>
      </trkpt>
      <trkpt lat="42.45203" lon="2.29555">
        <ele>2183.5</ele>
        <time>2019-01-07T04:52:47Z</time>
      </trkpt>
      <trkpt lat="42.45206" lon="2.2956">
        <ele>2182.8</ele>
        <time>2019-01-07T04:52:49Z</time>
      </trkpt>
      <trkpt lat="42.45211" lon="2.29562">
        <ele>2182.1</ele>
        <time>2019-01-07T04:52:50Z</time>
      </trkpt>
      <trkpt lat="42.45215" lon="2.29564">
        <ele>2180.8</ele>
        <time>2019-01-07T04:52:51Z</time>
      </trkpt>
      <trkpt lat="42.45219" lon="2.29567">
        <ele>2179.4</ele>
        <time>2019-01-07T04:52:53Z</time>
      </trkpt>
      <trkpt lat="42.45223" lon="2.29572">
        <ele>2178.3</ele>
        <time>2019-01-07T04:52:54Z</time>
      </trkpt>
      <trkpt lat="42.45228" lon="2.29575">
        <ele>2177.5</ele>
        <time>2019-01-07T04:52:55Z</time>
      </trkpt>
      <trkpt lat="42.45232" lon="2.29578">
        <ele>2177.1</ele>
        <time>2019-01-07T04:52:57Z</time>
      </trkpt>
      <trkpt lat="42.45237" lon="2.29581">
        <ele>2176.9</ele>
        <time>2019-01-07T04:52:58Z</time>
      </trkpt>
      <trkpt lat="42.45239" lon="2.29588">
        <ele>2176.8</ele>
        <time>2019-01-07T04:52:59Z</time>
      </trkpt>
      <trkpt lat="42.45243" lon="2.29593">
        <ele>2176.6</ele>
        <time>2019-01-07T04:53:01Z</time>
      </trkpt>
      <trkpt lat="42.45248" lon="2.29592">
        <ele>2175.5</ele>
        <time>2019-01-07T04:53:02Z</time>
      </trkpt>
      <trkpt lat="42.45252" lon="2.29593">
        <ele>2174.6</ele>
        <time>2019-01-07T04:53:03Z</time>
      </trkpt>
      <trkpt lat="42.45255" lon="2.29598">
        <ele>2173</ele>
        <time>2019-01-07T04:53:05Z</time>
      </trkpt>
      <trkpt lat="42.45255" lon="2.29605">
        <ele>2171.9</ele>
        <time>2019-01-07T04:53:06Z</time>
      </trkpt>
      <trkpt lat="42.4526" lon="2.29607">
        <ele>2170.9</ele>
        <time>2019-01-07T04:53:07Z</time>
      </trkpt>
      <trkpt lat="42.45264" lon="2.2961">
        <ele>2170.1</ele>
        <time>2019-01-07T04:53:09Z</time>
      </trkpt>
      <trkpt lat="42.45269" lon="2.2961">
        <ele>2169.4</ele>
        <time>2019-01-07T04:53:10Z</time>
      </trkpt>
      <trkpt lat="42.45274" lon="2.2961">
        <ele>2168.6</ele>
        <time>2019-01-07T04:53:11Z</time>
      </trkpt>
      <trkpt lat="42.45279" lon="2.29612">
        <ele>2167.8</ele>
        <time>2019-01-07T04:53:13Z</time>
      </trkpt>
      <trkpt lat="42.45284" lon="2.29612">
        <ele>2166.9</ele>
        <time>2019-01-07T04:53:14Z</time>
      </trkpt>
      <trkpt lat="42.45288" lon="2.29615">
        <ele>2165.8</ele>
        <time>2019-01-07T04:53:15Z</time>
      </trkpt>
      <trkpt lat="42.45293" lon="2.29616">
        <ele>2165.1</ele>
        <time>2019-01-07T04:53:16Z</time>
      </trkpt>
      <trkpt lat="42.45296" lon="2.29622">
        <ele>2164.1</ele>
        <time>2019-01-07T04:53:18Z</time>
      </trkpt>
      <trkpt lat="42.453" lon="2.29625">
        <ele>2163.8</ele>
        <time>2019-01-07T04:53:19Z</time>
      </trkpt>
      <trkpt lat="42.45304" lon="2.29628">
        <ele>2162.8</ele>
        <time>2019-01-07T04:53:20Z</time>
      </trkpt>
      <trkpt lat="42.45308" lon="2.29632">
        <ele>2161.8</ele>
        <time>2019-01-07T04:53:22Z</time>
      </trkpt>
      <trkpt lat="42.45312" lon="2.29635">
        <ele>2160.9</ele>
        <time>2019-01-07T04:53:23Z</time>
      </trkpt>
      <trkpt lat="42.45317" lon="2.29638">
        <ele>2159.6</ele>
        <time>2019-01-07T04:53:24Z</time>
      </trkpt>
      <trkpt lat="42.45321" lon="2.29641">
        <ele>2157.8</ele>
        <time>2019-01-07T04:53:26Z</time>
      </trkpt>
      <trkpt lat="42.45324" lon="2.29647">
        <ele>2156.9</ele>
        <time>2019-01-07T04:53:27Z</time>
      </trkpt>
      <trkpt lat="42.45327" lon="2.29652">
        <ele>2156</ele>
        <time>2019-01-07T04:53:28Z</time>
      </trkpt>
      <trkpt lat="42.45331" lon="2.29657">
        <ele>2155.5</ele>
        <time>2019-01-07T04:53:30Z</time>
      </trkpt>
      <trkpt lat="42.45334" lon="2.29662">
        <ele>2155</ele>
        <time>2019-01-07T04:53:31Z</time>
      </trkpt>
      <trkpt lat="42.45338" lon="2.29665">
        <ele>2153.8</ele>
        <time>2019-01-07T04:53:32Z</time>
      </trkpt>
      <trkpt lat="42.45341" lon="2.29672">
        <ele>2152.9</ele>
        <time>2019-01-07T04:53:34Z</time>
      </trkpt>
      <trkpt lat="42.45344" lon="2.29678">
        <ele>2152.1</ele>
        <time>2019-01-07T04:53:35Z</time>
      </trkpt>
      <trkpt lat="42.45347" lon="2.29683">
        <ele>2151.1</ele>
        <time>2019-01-07T04:53:36Z</time>
      </trkpt>
      <trkpt lat="42.45349" lon="2.29689">
        <ele>2150.3</ele>
        <time>2019-01-07T04:53:38Z</time>
      </trkpt>
      <trkpt lat="42.45351" lon="2.29694">
        <ele>2149.4</ele>
        <time>2019-01-07T04:53:39Z</time>
      </trkpt>
      <trkpt lat="42.45356" lon="2.297">
        <ele>2148.3</ele>
        <time>2019-01-07T04:53:40Z</time>
      </trkpt>
      <trkpt lat="42.4536" lon="2.29704">
        <ele>2147.6</ele>
        <time>2019-01-07T04:53:42Z</time>
      </trkpt>
      <trkpt lat="42.45364" lon="2.29707">
        <ele>2147.2</ele>
        <time>2019-01-07T04:53:43Z</time>
      </trkpt>
      <trkpt lat="42.45369" lon="2.29711">
        <ele>2146.8</ele>
        <time>2019-01-07T04:53:45Z</time>
      </trkpt>
      <trkpt lat="42.45373" lon="2.29716">
        <ele>2146.5</ele>
        <time>2019-01-07T04:53:46Z</time>
      </trkpt>
      <trkpt lat="42.45378" lon="2.29721">
        <ele>2146.2</ele>
        <time>2019-01-07T04:53:48Z</time>
      </trkpt>
      <trkpt lat="42.45382" lon="2.29725">
        <ele>2145.9</ele>
        <time>2019-01-07T04:53:49Z</time>
      </trkpt>
      <trkpt lat="42.45386" lon="2.29729">
        <ele>2145.7</ele>
        <time>2019-01-07T04:53:51Z</time>
      </trkpt>
      <trkpt lat="42.45391" lon="2.29734">
        <ele>2145.7</ele>
        <time>2019-01-07T04:53:52Z</time>
      </trkpt>
      <trkpt lat="42.45394" lon="2.29739">
        <ele>2146.3</ele>
        <time>2019-01-07T04:53:53Z</time>
      </trkpt>
      <trkpt lat="42.45398" lon="2.29743">
        <ele>2146.8</ele>
        <time>2019-01-07T04:53:55Z</time>
      </trkpt>
      <trkpt lat="42.45403" lon="2.29747">
        <ele>2147.3</ele>
        <time>2019-01-07T04:53:56Z</time>
      </trkpt>
      <trkpt lat="42.45407" lon="2.29752">
        <ele>2147.4</ele>
        <time>2019-01-07T04:53:58Z</time>
      </trkpt>
      <trkpt lat="42.45411" lon="2.29754">
        <ele>2147.5</ele>
        <time>2019-01-07T04:53:59Z</time>
      </trkpt>
      <trkpt lat="42.45415" lon="2.29757">
        <ele>2147.6</ele>
        <time>2019-01-07T04:54:00Z</time>
      </trkpt>
      <trkpt lat="42.45419" lon="2.29761">
        <ele>2147.9</ele>
        <time>2019-01-07T04:54:01Z</time>
      </trkpt>
      <trkpt lat="42.45424" lon="2.29765">
        <ele>2148.2</ele>
        <time>2019-01-07T04:54:03Z</time>
      </trkpt>
      <trkpt lat="42.45428" lon="2.29769">
        <ele>2148.4</ele>
        <time>2019-01-07T04:54:04Z</time>
      </trkpt>
      <trkpt lat="42.45432" lon="2.29773">
        <ele>2148.9</ele>
        <time>2019-01-07T04:54:06Z</time>
      </trkpt>
      <trkpt lat="42.45436" lon="2.29778">
        <ele>2149.4</ele>
        <time>2019-01-07T04:54:07Z</time>
      </trkpt>
      <trkpt lat="42.45441" lon="2.29781">
        <ele>2149.7</ele>
        <time>2019-01-07T04:54:08Z</time>
      </trkpt>
      <trkpt lat="42.45445" lon="2.29785">
        <ele>2149.8</ele>
        <time>2019-01-07T04:54:10Z</time>
      </trkpt>
      <trkpt lat="42.4545" lon="2.29787">
        <ele>2149.8</ele>
        <time>2019-01-07T04:54:11Z</time>
      </trkpt>
      <trkpt lat="42.45455" lon="2.29788">
        <ele>2149.8</ele>
        <time>2019-01-07T04:54:12Z</time>
      </trkpt>
      <trkpt lat="42.4546" lon="2.29789">
        <ele>2149.7</ele>
        <time>2019-01-07T04:54:14Z</time>
      </trkpt>
      <trkpt lat="42.45465" lon="2.29791">
        <ele>2149.2</ele>
        <time>2019-01-07T04:54:15Z</time>
      </trkpt>
      <trkpt lat="42.4547" lon="2.29791">
        <ele>2149.1</ele>
        <time>2019-01-07T04:54:17Z</time>
      </trkpt>
      <trkpt lat="42.45476" lon="2.29792">
        <ele>2148.9</ele>
        <time>2019-01-07T04:54:18Z</time>
      </trkpt>
      <trkpt lat="42.45481" lon="2.29792">
        <ele>2148.7</ele>
        <time>2019-01-07T04:54:19Z</time>
      </trkpt>
      <trkpt lat="42.45485" lon="2.29792">
        <ele>2148.4</ele>
        <time>2019-01-07T04:54:21Z</time>
      </trkpt>
      <trkpt lat="42.4549" lon="2.29793">
        <ele>2147.8</ele>
        <time>2019-01-07T04:54:22Z</time>
      </trkpt>
      <trkpt lat="42.45495" lon="2.29793">
        <ele>2147.4</ele>
        <time>2019-01-07T04:54:23Z</time>
      </trkpt>
      <trkpt lat="42.455" lon="2.29794">
        <ele>2146.8</ele>
        <time>2019-01-07T04:54:25Z</time>
      </trkpt>
      <trkpt lat="42.45505" lon="2.29795">
        <ele>2146.2</ele>
        <time>2019-01-07T04:54:26Z</time>
      </trkpt>
      <trkpt lat="42.4551" lon="2.29796">
        <ele>2145.9</ele>
        <time>2019-01-07T04:54:27Z</time>
      </trkpt>
      <trkpt lat="42.45515" lon="2.29797">
        <ele>2145.4</ele>
        <time>2019-01-07T04:54:29Z</time>
      </trkpt>
      <trkpt lat="42.4552" lon="2.29798">
        <ele>2144.7</ele>
        <time>2019-01-07T04:54:30Z</time>
      </trkpt>
      <trkpt lat="42.45525" lon="2.29799">
        <ele>2143.9</ele>
        <time>2019-01-07T04:54:31Z</time>
      </trkpt>
      <trkpt lat="42.45531" lon="2.298">
        <ele>2143.1</ele>
        <time>2019-01-07T04:54:33Z</time>
      </trkpt>
      <trkpt lat="42.45536" lon="2.29802">
        <ele>2142.6</ele>
        <time>2019-01-07T04:54:34Z</time>
      </trkpt>
      <trkpt lat="42.45541" lon="2.29803">
        <ele>2141.8</ele>
        <time>2019-01-07T04:54:36Z</time>
      </trkpt>
      <trkpt lat="42.45546" lon="2.29804">
        <ele>2141.1</ele>
        <time>2019-01-07T04:54:37Z</time>
      </trkpt>
      <trkpt lat="42.45551" lon="2.29805">
        <ele>2140.4</ele>
        <time>2019-01-07T04:54:38Z</time>
      </trkpt>
      <trkpt lat="42.45556" lon="2.29806">
        <ele>2139.8</ele>
        <time>2019-01-07T04:54:40Z</time>
      </trkpt>
      <trkpt lat="42.45561" lon="2.29807">
        <ele>2139.4</ele>
        <time>2019-01-07T04:54:41Z</time>
      </trkpt>
      <trkpt lat="42.45566" lon="2.29808">
        <ele>2139.1</ele>
        <time>2019-01-07T04:54:42Z</time>
      </trkpt>
      <trkpt lat="42.45571" lon="2.2981">
        <ele>2139</ele>
        <time>2019-01-07T04:54:44Z</time>
      </trkpt>
      <trkpt lat="42.45576" lon="2.2981">
        <ele>2139</ele>
        <time>2019-01-07T04:54:45Z</time>
      </trkpt>
      <trkpt lat="42.45581" lon="2.29811">
        <ele>2138.3</ele>
        <time>2019-01-07T04:54:47Z</time>
      </trkpt>
      <trkpt lat="42.45586" lon="2.29812">
        <ele>2137.4</ele>
        <time>2019-01-07T04:54:48Z</time>
      </trkpt>
      <trkpt lat="42.45592" lon="2.29813">
        <ele>2136.3</ele>
        <time>2019-01-07T04:54:49Z</time>
      </trkpt>
      <trkpt lat="42.45597" lon="2.29813">
        <ele>2135.3</ele>
        <time>2019-01-07T04:54:51Z</time>
      </trkpt>
      <trkpt lat="42.45602" lon="2.29813">
        <ele>2134.7</ele>
        <time>2019-01-07T04:54:52Z</time>
      </trkpt>
      <trkpt lat="42.45607" lon="2.29813">
        <ele>2134</ele>
        <time>2019-01-07T04:54:53Z</time>
      </trkpt>
      <trkpt lat="42.45612" lon="2.29814">
        <ele>2133.1</ele>
        <time>2019-01-07T04:54:55Z</time>
      </trkpt>
      <trkpt lat="42.45616" lon="2.29815">
        <ele>2132.6</ele>
        <time>2019-01-07T04:54:56Z</time>
      </trkpt>
      <trkpt lat="42.45622" lon="2.29816">
        <ele>2131.7</ele>
        <time>2019-01-07T04:54:57Z</time>
      </trkpt>
      <trkpt lat="42.45626" lon="2.2982">
        <ele>2131</ele>
        <time>2019-01-07T04:54:59Z</time>
      </trkpt>
      <trkpt lat="42.45631" lon="2.29822">
        <ele>2129.8</ele>
        <time>2019-01-07T04:55:00Z</time>
      </trkpt>
      <trkpt lat="42.45635" lon="2.29826">
        <ele>2128.8</ele>
        <time>2019-01-07T04:55:01Z</time>
      </trkpt>
      <trkpt lat="42.45639" lon="2.29829">
        <ele>2127.9</ele>
        <time>2019-01-07T04:55:03Z</time>
      </trkpt>
      <trkpt lat="42.45644" lon="2.29828">
        <ele>2126.6</ele>
        <time>2019-01-07T04:55:04Z</time>
      </trkpt>
      <trkpt lat="42.45649" lon="2.29827">
        <ele>2125.9</ele>
        <time>2019-01-07T04:55:05Z</time>
      </trkpt>
      <trkpt lat="42.45654" lon="2.29825">
        <ele>2125.3</ele>
        <time>2019-01-07T04:55:07Z</time>
      </trkpt>
      <trkpt lat="42.45659" lon="2.29824">
        <ele>2124.7</ele>
        <time>2019-01-07T04:55:08Z</time>
      </trkpt>
      <trkpt lat="42.45663" lon="2.29823">
        <ele>2123.4</ele>
        <time>2019-01-07T04:55:09Z</time>
      </trkpt>
      <trkpt lat="42.45669" lon="2.29823">
        <ele>2122.8</ele>
        <time>2019-01-07T04:55:11Z</time>
      </trkpt>
      <trkpt lat="42.45674" lon="2.29824">
        <ele>2121.6</ele>
        <time>2019-01-07T04:55:12Z</time>
      </trkpt>
      <trkpt lat="42.45679" lon="2.29826">
        <ele>2120.4</ele>
        <time>2019-01-07T04:55:13Z</time>
      </trkpt>
      <trkpt lat="42.45683" lon="2.29828">
        <ele>2119.3</ele>
        <time>2019-01-07T04:55:15Z</time>
      </trkpt>
      <trkpt lat="42.45687" lon="2.29832">
        <ele>2118.3</ele>
        <time>2019-01-07T04:55:16Z</time>
      </trkpt>
      <trkpt lat="42.45688" lon="2.29838">
        <ele>2116.8</ele>
        <time>2019-01-07T04:55:17Z</time>
      </trkpt>
      <trkpt lat="42.45689" lon="2.29845">
        <ele>2115.7</ele>
        <time>2019-01-07T04:55:19Z</time>
      </trkpt>
      <trkpt lat="42.45693" lon="2.2985">
        <ele>2114.8</ele>
        <time>2019-01-07T04:55:20Z</time>
      </trkpt>
      <trkpt lat="42.45698" lon="2.29854">
        <ele>2114.3</ele>
        <time>2019-01-07T04:55:22Z</time>
      </trkpt>
      <trkpt lat="42.45702" lon="2.29858">
        <ele>2113.4</ele>
        <time>2019-01-07T04:55:23Z</time>
      </trkpt>
      <trkpt lat="42.45706" lon="2.29862">
        <ele>2112.5</ele>
        <time>2019-01-07T04:55:24Z</time>
      </trkpt>
      <trkpt lat="42.45709" lon="2.29868">
        <ele>2111.5</ele>
        <time>2019-01-07T04:55:26Z</time>
      </trkpt>
      <trkpt lat="42.45713" lon="2.29872">
        <ele>2110.1</ele>
        <time>2019-01-07T04:55:27Z</time>
      </trkpt>
      <trkpt lat="42.45717" lon="2.29875">
        <ele>2109.2</ele>
        <time>2019-01-07T04:55:28Z</time>
      </trkpt>
      <trkpt lat="42.45721" lon="2.29881">
        <ele>2108</ele>
        <time>2019-01-07T04:55:30Z</time>
      </trkpt>
      <trkpt lat="42.45724" lon="2.29886">
        <ele>2106.6</ele>
        <time>2019-01-07T04:55:31Z</time>
      </trkpt>
      <trkpt lat="42.45728" lon="2.29891">
        <ele>2105.8</ele>
        <time>2019-01-07T04:55:33Z</time>
      </trkpt>
      <trkpt lat="42.45731" lon="2.29896">
        <ele>2104.6</ele>
        <time>2019-01-07T04:55:34Z</time>
      </trkpt>
      <trkpt lat="42.45733" lon="2.29902">
        <ele>2103.5</ele>
        <time>2019-01-07T04:55:35Z</time>
      </trkpt>
      <trkpt lat="42.45737" lon="2.29907">
        <ele>2102.1</ele>
        <time>2019-01-07T04:55:37Z</time>
      </trkpt>
      <trkpt lat="42.45741" lon="2.2991">
        <ele>2101.2</ele>
        <time>2019-01-07T04:55:38Z</time>
      </trkpt>
      <trkpt lat="42.45745" lon="2.29915">
        <ele>2099.9</ele>
        <time>2019-01-07T04:55:39Z</time>
      </trkpt>
      <trkpt lat="42.45749" lon="2.29919">
        <ele>2099</ele>
        <time>2019-01-07T04:55:41Z</time>
      </trkpt>
      <trkpt lat="42.45753" lon="2.29924">
        <ele>2098.2</ele>
        <time>2019-01-07T04:55:42Z</time>
      </trkpt>
      <trkpt lat="42.45758" lon="2.29928">
        <ele>2097.1</ele>
        <time>2019-01-07T04:55:44Z</time>
      </trkpt>
      <trkpt lat="42.45763" lon="2.29932">
        <ele>2096.1</ele>
        <time>2019-01-07T04:55:45Z</time>
      </trkpt>
      <trkpt lat="42.45766" lon="2.29936">
        <ele>2095.3</ele>
        <time>2019-01-07T04:55:46Z</time>
      </trkpt>
      <trkpt lat="42.4577" lon="2.29941">
        <ele>2094.3</ele>
        <time>2019-01-07T04:55:48Z</time>
      </trkpt>
      <trkpt lat="42.45774" lon="2.29946">
        <ele>2093.2</ele>
        <time>2019-01-07T04:55:49Z</time>
      </trkpt>
      <trkpt lat="42.45778" lon="2.29951">
        <ele>2092</ele>
        <time>2019-01-07T04:55:51Z</time>
      </trkpt>
      <trkpt lat="42.4578" lon="2.29957">
        <ele>2090.7</ele>
        <time>2019-01-07T04:55:52Z</time>
      </trkpt>
      <trkpt lat="42.45783" lon="2.29962">
        <ele>2089.8</ele>
        <time>2019-01-07T04:55:53Z</time>
      </trkpt>
      <trkpt lat="42.45786" lon="2.29967">
        <ele>2088.7</ele>
        <time>2019-01-07T04:55:55Z</time>
      </trkpt>
      <trkpt lat="42.45791" lon="2.2997">
        <ele>2087.3</ele>
        <time>2019-01-07T04:55:56Z</time>
      </trkpt>
      <trkpt lat="42.45796" lon="2.29973">
        <ele>2086.1</ele>
        <time>2019-01-07T04:55:57Z</time>
      </trkpt>
      <trkpt lat="42.458" lon="2.29977">
        <ele>2085</ele>
        <time>2019-01-07T04:55:59Z</time>
      </trkpt>
      <trkpt lat="42.45804" lon="2.29981">
        <ele>2083.7</ele>
        <time>2019-01-07T04:56:00Z</time>
      </trkpt>
      <trkpt lat="42.45808" lon="2.29984">
        <ele>2082.6</ele>
        <time>2019-01-07T04:56:01Z</time>
      </trkpt>
      <trkpt lat="42.45811" lon="2.29988">
        <ele>2081.5</ele>
        <time>2019-01-07T04:56:03Z</time>
      </trkpt>
      <trkpt lat="42.45815" lon="2.29992">
        <ele>2080</ele>
        <time>2019-01-07T04:56:04Z</time>
      </trkpt>
      <trkpt lat="42.45819" lon="2.29996">
        <ele>2078.8</ele>
        <time>2019-01-07T04:56:05Z</time>
      </trkpt>
      <trkpt lat="42.45823" lon="2.29999">
        <ele>2078.1</ele>
        <time>2019-01-07T04:56:06Z</time>
      </trkpt>
      <trkpt lat="42.45826" lon="2.30004">
        <ele>2076.6</ele>
        <time>2019-01-07T04:56:08Z</time>
      </trkpt>
      <trkpt lat="42.45828" lon="2.30011">
        <ele>2075.3</ele>
        <time>2019-01-07T04:56:09Z</time>
      </trkpt>
      <trkpt lat="42.4583" lon="2.30017">
        <ele>2074</ele>
        <time>2019-01-07T04:56:10Z</time>
      </trkpt>
      <trkpt lat="42.45832" lon="2.30022">
        <ele>2072.8</ele>
        <time>2019-01-07T04:56:12Z</time>
      </trkpt>
      <trkpt lat="42.45834" lon="2.30029">
        <ele>2071.3</ele>
        <time>2019-01-07T04:56:13Z</time>
      </trkpt>
      <trkpt lat="42.45835" lon="2.30035">
        <ele>2070</ele>
        <time>2019-01-07T04:56:14Z</time>
      </trkpt>
      <trkpt lat="42.45839" lon="2.30039">
        <ele>2068.5</ele>
        <time>2019-01-07T04:56:16Z</time>
      </trkpt>
      <trkpt lat="42.45843" lon="2.30043">
        <ele>2067.3</ele>
        <time>2019-01-07T04:56:17Z</time>
      </trkpt>
      <trkpt lat="42.45848" lon="2.30047">
        <ele>2065.7</ele>
        <time>2019-01-07T04:56:18Z</time>
      </trkpt>
      <trkpt lat="42.45851" lon="2.30051">
        <ele>2064.5</ele>
        <time>2019-01-07T04:56:19Z</time>
      </trkpt>
      <trkpt lat="42.45854" lon="2.30056">
        <ele>2063.1</ele>
        <time>2019-01-07T04:56:21Z</time>
      </trkpt>
      <trkpt lat="42.45857" lon="2.30063">
        <ele>2062</ele>
        <time>2019-01-07T04:56:22Z</time>
      </trkpt>
      <trkpt lat="42.4586" lon="2.30069">
        <ele>2060.8</ele>
        <time>2019-01-07T04:56:24Z</time>
      </trkpt>
      <trkpt lat="42.45864" lon="2.30073">
        <ele>2059.9</ele>
        <time>2019-01-07T04:56:25Z</time>
      </trkpt>
      <trkpt lat="42.45867" lon="2.30078">
        <ele>2058.9</ele>
        <time>2019-01-07T04:56:26Z</time>
      </trkpt>
      <trkpt lat="42.45871" lon="2.30082">
        <ele>2057.4</ele>
        <time>2019-01-07T04:56:28Z</time>
      </trkpt>
      <trkpt lat="42.45876" lon="2.30086">
        <ele>2056</ele>
        <time>2019-01-07T04:56:29Z</time>
      </trkpt>
      <trkpt lat="42.45879" lon="2.30091">
        <ele>2054.7</ele>
        <time>2019-01-07T04:56:30Z</time>
      </trkpt>
      <trkpt lat="42.45883" lon="2.30095">
        <ele>2053.4</ele>
        <time>2019-01-07T04:56:32Z</time>
      </trkpt>
      <trkpt lat="42.45887" lon="2.30099">
        <ele>2052.6</ele>
        <time>2019-01-07T04:56:33Z</time>
      </trkpt>
      <trkpt lat="42.45892" lon="2.30104">
        <ele>2051.6</ele>
        <time>2019-01-07T04:56:35Z</time>
      </trkpt>
      <trkpt lat="42.45896" lon="2.30108">
        <ele>2050.4</ele>
        <time>2019-01-07T04:56:36Z</time>
      </trkpt>
      <trkpt lat="42.459" lon="2.30112">
        <ele>2049.8</ele>
        <time>2019-01-07T04:56:37Z</time>
      </trkpt>
      <trkpt lat="42.45903" lon="2.30116">
        <ele>2049.2</ele>
        <time>2019-01-07T04:56:39Z</time>
      </trkpt>
      <trkpt lat="42.45908" lon="2.30117">
        <ele>2048.6</ele>
        <time>2019-01-07T04:56:40Z</time>
      </trkpt>
      <trkpt lat="42.45913" lon="2.30119">
        <ele>2047.8</ele>
        <time>2019-01-07T04:56:41Z</time>
      </trkpt>
      <trkpt lat="42.45918" lon="2.3012">
        <ele>2047.5</ele>
        <time>2019-01-07T04:56:43Z</time>
      </trkpt>
      <trkpt lat="42.45923" lon="2.3012">
        <ele>2047.2</ele>
        <time>2019-01-07T04:56:44Z</time>
      </trkpt>
      <trkpt lat="42.45926" lon="2.30124">
        <ele>2046.7</ele>
        <time>2019-01-07T04:56:45Z</time>
      </trkpt>
      <trkpt lat="42.45931" lon="2.30123">
        <ele>2046.7</ele>
        <time>2019-01-07T04:56:46Z</time>
      </trkpt>
      <trkpt lat="42.45935" lon="2.30125">
        <ele>2046.6</ele>
        <time>2019-01-07T04:56:48Z</time>
      </trkpt>
      <trkpt lat="42.4594" lon="2.30128">
        <ele>2046.8</ele>
        <time>2019-01-07T04:56:49Z</time>
      </trkpt>
      <trkpt lat="42.45945" lon="2.3013">
        <ele>2047.2</ele>
        <time>2019-01-07T04:56:50Z</time>
      </trkpt>
      <trkpt lat="42.45948" lon="2.30135">
        <ele>2047.4</ele>
        <time>2019-01-07T04:56:52Z</time>
      </trkpt>
      <trkpt lat="42.45952" lon="2.30139">
        <ele>2048.3</ele>
        <time>2019-01-07T04:56:53Z</time>
      </trkpt>
      <trkpt lat="42.45953" lon="2.30145">
        <ele>2049.4</ele>
        <time>2019-01-07T04:56:54Z</time>
      </trkpt>
      <trkpt lat="42.45953" lon="2.30152">
        <ele>2050.5</ele>
        <time>2019-01-07T04:56:56Z</time>
      </trkpt>
      <trkpt lat="42.45949" lon="2.3015">
        <ele>2051.4</ele>
        <time>2019-01-07T04:56:57Z</time>
      </trkpt>
      <trkpt lat="42.45951" lon="2.30157">
        <ele>2051.5</ele>
        <time>2019-01-07T04:56:58Z</time>
      </trkpt>
      <trkpt lat="42.4595" lon="2.3015">
        <ele>2051.8</ele>
        <time>2019-01-07T04:56:59Z</time>
      </trkpt>
      <trkpt lat="42.45954" lon="2.30154">
        <ele>2051.6</ele>
        <time>2019-01-07T04:57:01Z</time>
      </trkpt>
      <trkpt lat="42.45958" lon="2.30157">
        <ele>2051.6</ele>
        <time>2019-01-07T04:57:02Z</time>
      </trkpt>
      <trkpt lat="42.45963" lon="2.3016">
        <ele>2052.1</ele>
        <time>2019-01-07T04:57:03Z</time>
      </trkpt>
      <trkpt lat="42.45968" lon="2.30161">
        <ele>2052.6</ele>
        <time>2019-01-07T04:57:05Z</time>
      </trkpt>
      <trkpt lat="42.45973" lon="2.30163">
        <ele>2052.8</ele>
        <time>2019-01-07T04:57:06Z</time>
      </trkpt>
      <trkpt lat="42.45978" lon="2.30165">
        <ele>2053.1</ele>
        <time>2019-01-07T04:57:07Z</time>
      </trkpt>
      <trkpt lat="42.45983" lon="2.30165">
        <ele>2053.2</ele>
        <time>2019-01-07T04:57:09Z</time>
      </trkpt>
      <trkpt lat="42.45987" lon="2.30161">
        <ele>2053.8</ele>
        <time>2019-01-07T04:57:10Z</time>
      </trkpt>
      <trkpt lat="42.45992" lon="2.30162">
        <ele>2053.7</ele>
        <time>2019-01-07T04:57:11Z</time>
      </trkpt>
      <trkpt lat="42.45996" lon="2.30165">
        <ele>2053</ele>
        <time>2019-01-07T04:57:13Z</time>
      </trkpt>
      <trkpt lat="42.46001" lon="2.30168">
        <ele>2052.4</ele>
        <time>2019-01-07T04:57:14Z</time>
      </trkpt>
      <trkpt lat="42.46007" lon="2.3017">
        <ele>2051.7</ele>
        <time>2019-01-07T04:57:16Z</time>
      </trkpt>
      <trkpt lat="42.46011" lon="2.30174">
        <ele>2051</ele>
        <time>2019-01-07T04:57:17Z</time>
      </trkpt>
      <trkpt lat="42.46015" lon="2.30179">
        <ele>2050.2</ele>
        <time>2019-01-07T04:57:19Z</time>
      </trkpt>
      <trkpt lat="42.4602" lon="2.30194">
        <ele>2033.7</ele>
        <time>2019-01-07T04:57:22Z</time>
      </trkpt>
      <trkpt lat="42.46013" lon="2.30201">
        <ele>2035.8</ele>
        <time>2019-01-07T04:57:24Z</time>
      </trkpt>
      <trkpt lat="42.46008" lon="2.30205">
        <ele>2037.3</ele>
        <time>2019-01-07T04:57:26Z</time>
      </trkpt>
      <trkpt lat="42.46003" lon="2.30212">
        <ele>2038.7</ele>
        <time>2019-01-07T04:57:28Z</time>
      </trkpt>
      <trkpt lat="42.45998" lon="2.30216">
        <ele>2039.4</ele>
        <time>2019-01-07T04:57:30Z</time>
      </trkpt>
      <trkpt lat="42.45994" lon="2.30224">
        <ele>2039.8</ele>
        <time>2019-01-07T04:57:31Z</time>
      </trkpt>
      <trkpt lat="42.45991" lon="2.30232">
        <ele>2040</ele>
        <time>2019-01-07T04:57:33Z</time>
      </trkpt>
      <trkpt lat="42.45988" lon="2.30238">
        <ele>2039.9</ele>
        <time>2019-01-07T04:57:34Z</time>
      </trkpt>
      <trkpt lat="42.45986" lon="2.30243">
        <ele>2040</ele>
        <time>2019-01-07T04:57:36Z</time>
      </trkpt>
      <trkpt lat="42.45986" lon="2.30252">
        <ele>2039.9</ele>
        <time>2019-01-07T04:57:37Z</time>
      </trkpt>
      <trkpt lat="42.45979" lon="2.30264">
        <ele>2036.3</ele>
        <time>2019-01-07T04:57:40Z</time>
      </trkpt>
      <trkpt lat="42.45973" lon="2.30268">
        <ele>2034.9</ele>
        <time>2019-01-07T04:57:42Z</time>
      </trkpt>
      <trkpt lat="42.4597" lon="2.3027">
        <ele>2034.1</ele>
        <time>2019-01-07T04:57:43Z</time>
      </trkpt>
      <trkpt lat="42.45965" lon="2.30273">
        <ele>2033.1</ele>
        <time>2019-01-07T04:57:45Z</time>
      </trkpt>
      <trkpt lat="42.45962" lon="2.30275">
        <ele>2032.1</ele>
        <time>2019-01-07T04:57:46Z</time>
      </trkpt>
      <trkpt lat="42.45957" lon="2.30292">
        <ele>2027.4</ele>
        <time>2019-01-07T04:57:49Z</time>
      </trkpt>
      <trkpt lat="42.4595" lon="2.30299">
        <ele>2025.5</ele>
        <time>2019-01-07T04:57:51Z</time>
      </trkpt>
      <trkpt lat="42.45935" lon="2.30298">
        <ele>2025.2</ele>
        <time>2019-01-07T04:57:55Z</time>
      </trkpt>
      <trkpt lat="42.45929" lon="2.30303">
        <ele>2023.5</ele>
        <time>2019-01-07T04:57:57Z</time>
      </trkpt>
      <trkpt lat="42.45925" lon="2.30304">
        <ele>2022.9</ele>
        <time>2019-01-07T04:57:59Z</time>
      </trkpt>
      <trkpt lat="42.45918" lon="2.30307">
        <ele>2022</ele>
        <time>2019-01-07T04:58:00Z</time>
      </trkpt>
      <trkpt lat="42.45913" lon="2.30308">
        <ele>2021.1</ele>
        <time>2019-01-07T04:58:02Z</time>
      </trkpt>
      <trkpt lat="42.45908" lon="2.3031">
        <ele>2019.5</ele>
        <time>2019-01-07T04:58:03Z</time>
      </trkpt>
      <trkpt lat="42.45899" lon="2.3032">
        <ele>2015.7</ele>
        <time>2019-01-07T04:58:06Z</time>
      </trkpt>
      <trkpt lat="42.45888" lon="2.30325">
        <ele>2012.2</ele>
        <time>2019-01-07T04:58:09Z</time>
      </trkpt>
      <trkpt lat="42.45881" lon="2.30325">
        <ele>2010.9</ele>
        <time>2019-01-07T04:58:11Z</time>
      </trkpt>
      <trkpt lat="42.45872" lon="2.30328">
        <ele>2008.4</ele>
        <time>2019-01-07T04:58:14Z</time>
      </trkpt>
      <trkpt lat="42.45865" lon="2.30329">
        <ele>2007.1</ele>
        <time>2019-01-07T04:58:16Z</time>
      </trkpt>
      <trkpt lat="42.45859" lon="2.30328">
        <ele>2006.1</ele>
        <time>2019-01-07T04:58:17Z</time>
      </trkpt>
      <trkpt lat="42.45852" lon="2.30328">
        <ele>2005.2</ele>
        <time>2019-01-07T04:58:19Z</time>
      </trkpt>
      <trkpt lat="42.45847" lon="2.30327">
        <ele>2004.3</ele>
        <time>2019-01-07T04:58:20Z</time>
      </trkpt>
      <trkpt lat="42.45842" lon="2.30327">
        <ele>2003.4</ele>
        <time>2019-01-07T04:58:22Z</time>
      </trkpt>
      <trkpt lat="42.45839" lon="2.30327">
        <ele>2002.8</ele>
        <time>2019-01-07T04:58:23Z</time>
      </trkpt>
      <trkpt lat="42.45834" lon="2.30335">
        <ele>1999.8</ele>
        <time>2019-01-07T04:58:25Z</time>
      </trkpt>
      <trkpt lat="42.45831" lon="2.3034">
        <ele>1998.3</ele>
        <time>2019-01-07T04:58:26Z</time>
      </trkpt>
      <trkpt lat="42.45826" lon="2.30343">
        <ele>1995.9</ele>
        <time>2019-01-07T04:58:27Z</time>
      </trkpt>
      <trkpt lat="42.45824" lon="2.30347">
        <ele>1994.2</ele>
        <time>2019-01-07T04:58:28Z</time>
      </trkpt>
      <trkpt lat="42.45818" lon="2.30353">
        <ele>1990.9</ele>
        <time>2019-01-07T04:58:30Z</time>
      </trkpt>
      <trkpt lat="42.45812" lon="2.30358">
        <ele>1988.2</ele>
        <time>2019-01-07T04:58:32Z</time>
      </trkpt>
      <trkpt lat="42.45807" lon="2.30362">
        <ele>1986.1</ele>
        <time>2019-01-07T04:58:34Z</time>
      </trkpt>
      <trkpt lat="42.45804" lon="2.30365">
        <ele>1984.6</ele>
        <time>2019-01-07T04:58:35Z</time>
      </trkpt>
      <trkpt lat="42.458" lon="2.30369">
        <ele>1982.7</ele>
        <time>2019-01-07T04:58:36Z</time>
      </trkpt>
      <trkpt lat="42.45796" lon="2.30372">
        <ele>1981</ele>
        <time>2019-01-07T04:58:37Z</time>
      </trkpt>
      <trkpt lat="42.45799" lon="2.30381">
        <ele>1979.8</ele>
        <time>2019-01-07T04:58:39Z</time>
      </trkpt>
      <trkpt lat="42.45798" lon="2.30387">
        <ele>1977.8</ele>
        <time>2019-01-07T04:58:40Z</time>
      </trkpt>
      <trkpt lat="42.45799" lon="2.30393">
        <ele>1977.1</ele>
        <time>2019-01-07T04:58:42Z</time>
      </trkpt>
      <trkpt lat="42.45805" lon="2.30397">
        <ele>1977.5</ele>
        <time>2019-01-07T04:58:43Z</time>
      </trkpt>
      <trkpt lat="42.45809" lon="2.30394">
        <ele>1978.9</ele>
        <time>2019-01-07T04:58:44Z</time>
      </trkpt>
      <trkpt lat="42.45815" lon="2.30398">
        <ele>1979.1</ele>
        <time>2019-01-07T04:58:46Z</time>
      </trkpt>
      <trkpt lat="42.4582" lon="2.30406">
        <ele>1978.7</ele>
        <time>2019-01-07T04:58:48Z</time>
      </trkpt>
      <trkpt lat="42.45827" lon="2.30407">
        <ele>1980.1</ele>
        <time>2019-01-07T04:58:50Z</time>
      </trkpt>
      <trkpt lat="42.45829" lon="2.30414">
        <ele>1978.6</ele>
        <time>2019-01-07T04:58:52Z</time>
      </trkpt>
      <trkpt lat="42.45831" lon="2.3042">
        <ele>1977.8</ele>
        <time>2019-01-07T04:58:53Z</time>
      </trkpt>
      <trkpt lat="42.45835" lon="2.3042">
        <ele>1978.4</ele>
        <time>2019-01-07T04:58:54Z</time>
      </trkpt>
      <trkpt lat="42.45836" lon="2.30423">
        <ele>1977.4</ele>
        <time>2019-01-07T04:58:55Z</time>
      </trkpt>
      <trkpt lat="42.4584" lon="2.30429">
        <ele>1976.1</ele>
        <time>2019-01-07T04:58:56Z</time>
      </trkpt>
      <trkpt lat="42.45849" lon="2.30436">
        <ele>1974.9</ele>
        <time>2019-01-07T04:58:59Z</time>
      </trkpt>
      <trkpt lat="42.45848" lon="2.30436">
        <ele>1974.5</ele>
        <time>2019-01-07T04:59:00Z</time>
      </trkpt>
      <trkpt lat="42.45852" lon="2.30443">
        <ele>1972.7</ele>
        <time>2019-01-07T04:59:01Z</time>
      </trkpt>
      <trkpt lat="42.45855" lon="2.30446">
        <ele>1972</ele>
        <time>2019-01-07T04:59:02Z</time>
      </trkpt>
      <trkpt lat="42.45857" lon="2.30448">
        <ele>1971.5</ele>
        <time>2019-01-07T04:59:03Z</time>
      </trkpt>
      <trkpt lat="42.45861" lon="2.30452">
        <ele>1970.9</ele>
        <time>2019-01-07T04:59:04Z</time>
      </trkpt>
      <trkpt lat="42.45865" lon="2.30451">
        <ele>1971.1</ele>
        <time>2019-01-07T04:59:05Z</time>
      </trkpt>
      <trkpt lat="42.4587" lon="2.30452">
        <ele>1970.9</ele>
        <time>2019-01-07T04:59:07Z</time>
      </trkpt>
      <trkpt lat="42.45873" lon="2.30461">
        <ele>1968</ele>
        <time>2019-01-07T04:59:09Z</time>
      </trkpt>
      <trkpt lat="42.45878" lon="2.30464">
        <ele>1967.4</ele>
        <time>2019-01-07T04:59:10Z</time>
      </trkpt>
      <trkpt lat="42.45879" lon="2.30476">
        <ele>1963.3</ele>
        <time>2019-01-07T04:59:12Z</time>
      </trkpt>
      <trkpt lat="42.45874" lon="2.3051">
        <ele>1950.8</ele>
        <time>2019-01-07T04:59:19Z</time>
      </trkpt>
      <trkpt lat="42.45878" lon="2.30531">
        <ele>1943.9</ele>
        <time>2019-01-07T04:59:23Z</time>
      </trkpt>
      <trkpt lat="42.45881" lon="2.30539">
        <ele>1940.6</ele>
        <time>2019-01-07T04:59:25Z</time>
      </trkpt>
      <trkpt lat="42.45886" lon="2.30551">
        <ele>1936.4</ele>
        <time>2019-01-07T04:59:28Z</time>
      </trkpt>
      <trkpt lat="42.45888" lon="2.3056">
        <ele>1932.9</ele>
        <time>2019-01-07T04:59:30Z</time>
      </trkpt>
      <trkpt lat="42.45893" lon="2.3057">
        <ele>1929</ele>
        <time>2019-01-07T04:59:32Z</time>
      </trkpt>
      <trkpt lat="42.45904" lon="2.30571">
        <ele>1928.6</ele>
        <time>2019-01-07T04:59:35Z</time>
      </trkpt>
      <trkpt lat="42.45923" lon="2.30575">
        <ele>1925.9</ele>
        <time>2019-01-07T04:59:40Z</time>
      </trkpt>
      <trkpt lat="42.45947" lon="2.30576">
        <ele>1923</ele>
        <time>2019-01-07T04:59:47Z</time>
      </trkpt>
      <trkpt lat="42.45958" lon="2.30581">
        <ele>1919.8</ele>
        <time>2019-01-07T04:59:50Z</time>
      </trkpt>
      <trkpt lat="42.45968" lon="2.3058">
        <ele>1919.3</ele>
        <time>2019-01-07T04:59:53Z</time>
      </trkpt>
      <trkpt lat="42.45979" lon="2.30578">
        <ele>1919.4</ele>
        <time>2019-01-07T04:59:55Z</time>
      </trkpt>
      <trkpt lat="42.45986" lon="2.30583">
        <ele>1916.1</ele>
        <time>2019-01-07T04:59:58Z</time>
      </trkpt>
      <trkpt lat="42.46002" lon="2.30581">
        <ele>1915.3</ele>
        <time>2019-01-07T05:00:02Z</time>
      </trkpt>
      <trkpt lat="42.46006" lon="2.30582">
        <ele>1914.7</ele>
        <time>2019-01-07T05:00:03Z</time>
      </trkpt>
      <trkpt lat="42.46013" lon="2.30584">
        <ele>1913.9</ele>
        <time>2019-01-07T05:00:05Z</time>
      </trkpt>
      <trkpt lat="42.4602" lon="2.30593">
        <ele>1909.3</ele>
        <time>2019-01-07T05:00:07Z</time>
      </trkpt>
      <trkpt lat="42.46024" lon="2.30596">
        <ele>1907.8</ele>
        <time>2019-01-07T05:00:08Z</time>
      </trkpt>
      <trkpt lat="42.46029" lon="2.30593">
        <ele>1909.1</ele>
        <time>2019-01-07T05:00:10Z</time>
      </trkpt>
      <trkpt lat="42.46035" lon="2.30595">
        <ele>1907.5</ele>
        <time>2019-01-07T05:00:12Z</time>
      </trkpt>
      <trkpt lat="42.4604" lon="2.30592">
        <ele>1909.5</ele>
        <time>2019-01-07T05:00:13Z</time>
      </trkpt>
      <trkpt lat="42.46056" lon="2.30597">
        <ele>1906.3</ele>
        <time>2019-01-07T05:00:17Z</time>
      </trkpt>
      <trkpt lat="42.46073" lon="2.30609">
        <ele>1899</ele>
        <time>2019-01-07T05:00:23Z</time>
      </trkpt>
      <trkpt lat="42.46082" lon="2.30611">
        <ele>1897</ele>
        <time>2019-01-07T05:00:25Z</time>
      </trkpt>
      <trkpt lat="42.46088" lon="2.30615">
        <ele>1893.7</ele>
        <time>2019-01-07T05:00:27Z</time>
      </trkpt>
      <trkpt lat="42.46089" lon="2.30615">
        <ele>1893.6</ele>
        <time>2019-01-07T05:00:27Z</time>
      </trkpt>
      <trkpt lat="42.4609" lon="2.30615">
        <ele>1893.4</ele>
        <time>2019-01-07T05:00:27Z</time>
      </trkpt>
      <trkpt lat="42.46091" lon="2.30615">
        <ele>1893.3</ele>
        <time>2019-01-07T05:00:27Z</time>
      </trkpt>
      <trkpt lat="42.46092" lon="2.30615">
        <ele>1893.1</ele>
        <time>2019-01-07T05:00:28Z</time>
      </trkpt>
      <trkpt lat="42.46094" lon="2.30616">
        <ele>1892.7</ele>
        <time>2019-01-07T05:00:28Z</time>
      </trkpt>
      <trkpt lat="42.461" lon="2.30617">
        <ele>1890.8</ele>
        <time>2019-01-07T05:00:30Z</time>
      </trkpt>
      <trkpt lat="42.46106" lon="2.30619">
        <ele>1888.2</ele>
        <time>2019-01-07T05:00:32Z</time>
      </trkpt>
      <trkpt lat="42.46111" lon="2.3062">
        <ele>1886.6</ele>
        <time>2019-01-07T05:00:33Z</time>
      </trkpt>
      <trkpt lat="42.46123" lon="2.30621">
        <ele>1883.8</ele>
        <time>2019-01-07T05:00:36Z</time>
      </trkpt>
      <trkpt lat="42.46128" lon="2.3062">
        <ele>1883.6</ele>
        <time>2019-01-07T05:00:38Z</time>
      </trkpt>
      <trkpt lat="42.46131" lon="2.3062">
        <ele>1883</ele>
        <time>2019-01-07T05:00:38Z</time>
      </trkpt>
      <trkpt lat="42.46137" lon="2.30621">
        <ele>1881.2</ele>
        <time>2019-01-07T05:00:40Z</time>
      </trkpt>
      <trkpt lat="42.46139" lon="2.30621">
        <ele>1881.4</ele>
        <time>2019-01-07T05:00:41Z</time>
      </trkpt>
      <trkpt lat="42.46142" lon="2.3062">
        <ele>1881.1</ele>
        <time>2019-01-07T05:00:41Z</time>
      </trkpt>
      <trkpt lat="42.46146" lon="2.30619">
        <ele>1880.9</ele>
        <time>2019-01-07T05:00:43Z</time>
      </trkpt>
      <trkpt lat="42.46151" lon="2.30619">
        <ele>1897.5</ele>
        <time>2019-01-07T05:00:44Z</time>
      </trkpt>
      <trkpt lat="42.46156" lon="2.30619">
        <ele>1896.8</ele>
        <time>2019-01-07T05:00:45Z</time>
      </trkpt>
      <trkpt lat="42.46161" lon="2.30618">
        <ele>1895.8</ele>
        <time>2019-01-07T05:00:46Z</time>
      </trkpt>
      <trkpt lat="42.46166" lon="2.30618">
        <ele>1894.3</ele>
        <time>2019-01-07T05:00:48Z</time>
      </trkpt>
      <trkpt lat="42.46171" lon="2.30618">
        <ele>1893.5</ele>
        <time>2019-01-07T05:00:49Z</time>
      </trkpt>
      <trkpt lat="42.46176" lon="2.30619">
        <ele>1892.8</ele>
        <time>2019-01-07T05:00:50Z</time>
      </trkpt>
      <trkpt lat="42.46181" lon="2.30619">
        <ele>1892.5</ele>
        <time>2019-01-07T05:00:52Z</time>
      </trkpt>
      <trkpt lat="42.46186" lon="2.30622">
        <ele>1891.5</ele>
        <time>2019-01-07T05:00:53Z</time>
      </trkpt>
      <trkpt lat="42.46191" lon="2.30623">
        <ele>1891.1</ele>
        <time>2019-01-07T05:00:55Z</time>
      </trkpt>
      <trkpt lat="42.46196" lon="2.30625">
        <ele>1889.9</ele>
        <time>2019-01-07T05:00:56Z</time>
      </trkpt>
      <trkpt lat="42.46201" lon="2.30627">
        <ele>1888.5</ele>
        <time>2019-01-07T05:00:57Z</time>
      </trkpt>
      <trkpt lat="42.46206" lon="2.30627">
        <ele>1886.9</ele>
        <time>2019-01-07T05:00:59Z</time>
      </trkpt>
      <trkpt lat="42.46211" lon="2.30627">
        <ele>1885.9</ele>
        <time>2019-01-07T05:01:00Z</time>
      </trkpt>
      <trkpt lat="42.46217" lon="2.30628">
        <ele>1885.4</ele>
        <time>2019-01-07T05:01:02Z</time>
      </trkpt>
      <trkpt lat="42.46223" lon="2.3063">
        <ele>1884.4</ele>
        <time>2019-01-07T05:01:03Z</time>
      </trkpt>
      <trkpt lat="42.46228" lon="2.30627">
        <ele>1883.5</ele>
        <time>2019-01-07T05:01:05Z</time>
      </trkpt>
      <trkpt lat="42.46233" lon="2.30627">
        <ele>1882.9</ele>
        <time>2019-01-07T05:01:06Z</time>
      </trkpt>
      <trkpt lat="42.46239" lon="2.30626">
        <ele>1882.6</ele>
        <time>2019-01-07T05:01:08Z</time>
      </trkpt>
      <trkpt lat="42.46244" lon="2.30627">
        <ele>1882.4</ele>
        <time>2019-01-07T05:01:09Z</time>
      </trkpt>
      <trkpt lat="42.46249" lon="2.30628">
        <ele>1881.6</ele>
        <time>2019-01-07T05:01:10Z</time>
      </trkpt>
      <trkpt lat="42.46255" lon="2.30628">
        <ele>1881.1</ele>
        <time>2019-01-07T05:01:12Z</time>
      </trkpt>
      <trkpt lat="42.4626" lon="2.30627">
        <ele>1880.4</ele>
        <time>2019-01-07T05:01:13Z</time>
      </trkpt>
      <trkpt lat="42.46266" lon="2.30628">
        <ele>1879.6</ele>
        <time>2019-01-07T05:01:15Z</time>
      </trkpt>
      <trkpt lat="42.46271" lon="2.30628">
        <ele>1878.5</ele>
        <time>2019-01-07T05:01:16Z</time>
      </trkpt>
      <trkpt lat="42.46276" lon="2.30628">
        <ele>1878.2</ele>
        <time>2019-01-07T05:01:18Z</time>
      </trkpt>
      <trkpt lat="42.46281" lon="2.30627">
        <ele>1877.9</ele>
        <time>2019-01-07T05:01:19Z</time>
      </trkpt>
      <trkpt lat="42.46286" lon="2.30626">
        <ele>1878</ele>
        <time>2019-01-07T05:01:20Z</time>
      </trkpt>
      <trkpt lat="42.46291" lon="2.30623">
        <ele>1877.8</ele>
        <time>2019-01-07T05:01:22Z</time>
      </trkpt>
      <trkpt lat="42.46295" lon="2.30618">
        <ele>1877.8</ele>
        <time>2019-01-07T05:01:23Z</time>
      </trkpt>
      <trkpt lat="42.46301" lon="2.30617">
        <ele>1877.8</ele>
        <time>2019-01-07T05:01:25Z</time>
      </trkpt>
      <trkpt lat="42.46306" lon="2.30618">
        <ele>1877.3</ele>
        <time>2019-01-07T05:01:26Z</time>
      </trkpt>
      <trkpt lat="42.46312" lon="2.30619">
        <ele>1876.9</ele>
        <time>2019-01-07T05:01:28Z</time>
      </trkpt>
      <trkpt lat="42.46316" lon="2.30621">
        <ele>1876.4</ele>
        <time>2019-01-07T05:01:29Z</time>
      </trkpt>
      <trkpt lat="42.4632" lon="2.30621">
        <ele>1875.7</ele>
        <time>2019-01-07T05:01:30Z</time>
      </trkpt>
      <trkpt lat="42.46325" lon="2.30622">
        <ele>1875.6</ele>
        <time>2019-01-07T05:01:31Z</time>
      </trkpt>
      <trkpt lat="42.4633" lon="2.30624">
        <ele>1875.4</ele>
        <time>2019-01-07T05:01:33Z</time>
      </trkpt>
      <trkpt lat="42.46334" lon="2.30627">
        <ele>1874.8</ele>
        <time>2019-01-07T05:01:34Z</time>
      </trkpt>
      <trkpt lat="42.46338" lon="2.30629">
        <ele>1874</ele>
        <time>2019-01-07T05:01:35Z</time>
      </trkpt>
      <trkpt lat="42.46343" lon="2.30629">
        <ele>1874</ele>
        <time>2019-01-07T05:01:36Z</time>
      </trkpt>
      <trkpt lat="42.46348" lon="2.30632">
        <ele>1873.7</ele>
        <time>2019-01-07T05:01:38Z</time>
      </trkpt>
      <trkpt lat="42.46353" lon="2.30634">
        <ele>1873.7</ele>
        <time>2019-01-07T05:01:39Z</time>
      </trkpt>
      <trkpt lat="42.46358" lon="2.30636">
        <ele>1873.3</ele>
        <time>2019-01-07T05:01:41Z</time>
      </trkpt>
      <trkpt lat="42.46363" lon="2.30638">
        <ele>1872.5</ele>
        <time>2019-01-07T05:01:42Z</time>
      </trkpt>
      <trkpt lat="42.46367" lon="2.30639">
        <ele>1872.1</ele>
        <time>2019-01-07T05:01:43Z</time>
      </trkpt>
      <trkpt lat="42.46373" lon="2.3064">
        <ele>1872</ele>
        <time>2019-01-07T05:01:45Z</time>
      </trkpt>
      <trkpt lat="42.46378" lon="2.30643">
        <ele>1871.4</ele>
        <time>2019-01-07T05:01:46Z</time>
      </trkpt>
      <trkpt lat="42.46383" lon="2.30645">
        <ele>1870.6</ele>
        <time>2019-01-07T05:01:48Z</time>
      </trkpt>
      <trkpt lat="42.46388" lon="2.30649">
        <ele>1869.8</ele>
        <time>2019-01-07T05:01:49Z</time>
      </trkpt>
      <trkpt lat="42.46392" lon="2.3065">
        <ele>1869.6</ele>
        <time>2019-01-07T05:01:50Z</time>
      </trkpt>
      <trkpt lat="42.46397" lon="2.30649">
        <ele>1869.5</ele>
        <time>2019-01-07T05:01:52Z</time>
      </trkpt>
      <trkpt lat="42.46403" lon="2.3065">
        <ele>1870.1</ele>
        <time>2019-01-07T05:01:53Z</time>
      </trkpt>
      <trkpt lat="42.46408" lon="2.3065">
        <ele>1869.8</ele>
        <time>2019-01-07T05:01:54Z</time>
      </trkpt>
      <trkpt lat="42.46412" lon="2.3065">
        <ele>1869.6</ele>
        <time>2019-01-07T05:01:56Z</time>
      </trkpt>
      <trkpt lat="42.46417" lon="2.3065">
        <ele>1869.5</ele>
        <time>2019-01-07T05:01:57Z</time>
      </trkpt>
      <trkpt lat="42.46421" lon="2.30649">
        <ele>1869.1</ele>
        <time>2019-01-07T05:01:58Z</time>
      </trkpt>
      <trkpt lat="42.46426" lon="2.30649">
        <ele>1868.5</ele>
        <time>2019-01-07T05:01:59Z</time>
      </trkpt>
      <trkpt lat="42.4643" lon="2.30652">
        <ele>1868.1</ele>
        <time>2019-01-07T05:02:01Z</time>
      </trkpt>
      <trkpt lat="42.46435" lon="2.30653">
        <ele>1867.3</ele>
        <time>2019-01-07T05:02:02Z</time>
      </trkpt>
      <trkpt lat="42.4644" lon="2.30655">
        <ele>1866.9</ele>
        <time>2019-01-07T05:02:03Z</time>
      </trkpt>
      <trkpt lat="42.46445" lon="2.30658">
        <ele>1866.5</ele>
        <time>2019-01-07T05:02:05Z</time>
      </trkpt>
      <trkpt lat="42.46449" lon="2.30661">
        <ele>1866.2</ele>
        <time>2019-01-07T05:02:06Z</time>
      </trkpt>
      <trkpt lat="42.46454" lon="2.30663">
        <ele>1865.7</ele>
        <time>2019-01-07T05:02:07Z</time>
      </trkpt>
      <trkpt lat="42.46458" lon="2.30668">
        <ele>1865.2</ele>
        <time>2019-01-07T05:02:09Z</time>
      </trkpt>
      <trkpt lat="42.46462" lon="2.3067">
        <ele>1864.7</ele>
        <time>2019-01-07T05:02:10Z</time>
      </trkpt>
      <trkpt lat="42.46467" lon="2.30673">
        <ele>1864.4</ele>
        <time>2019-01-07T05:02:11Z</time>
      </trkpt>
      <trkpt lat="42.46472" lon="2.30678">
        <ele>1863.7</ele>
        <time>2019-01-07T05:02:13Z</time>
      </trkpt>
      <trkpt lat="42.46476" lon="2.30681">
        <ele>1863.1</ele>
        <time>2019-01-07T05:02:14Z</time>
      </trkpt>
      <trkpt lat="42.46481" lon="2.30685">
        <ele>1863</ele>
        <time>2019-01-07T05:02:16Z</time>
      </trkpt>
      <trkpt lat="42.46484" lon="2.30691">
        <ele>1862.5</ele>
        <time>2019-01-07T05:02:17Z</time>
      </trkpt>
      <trkpt lat="42.46488" lon="2.30695">
        <ele>1862.1</ele>
        <time>2019-01-07T05:02:18Z</time>
      </trkpt>
      <trkpt lat="42.46493" lon="2.30699">
        <ele>1861.3</ele>
        <time>2019-01-07T05:02:20Z</time>
      </trkpt>
      <trkpt lat="42.46494" lon="2.30705">
        <ele>1860.7</ele>
        <time>2019-01-07T05:02:21Z</time>
      </trkpt>
      <trkpt lat="42.46499" lon="2.30708">
        <ele>1860.1</ele>
        <time>2019-01-07T05:02:23Z</time>
      </trkpt>
      <trkpt lat="42.46502" lon="2.30712">
        <ele>1860</ele>
        <time>2019-01-07T05:02:24Z</time>
      </trkpt>
      <trkpt lat="42.46507" lon="2.30712">
        <ele>1860.3</ele>
        <time>2019-01-07T05:02:25Z</time>
      </trkpt>
      <trkpt lat="42.46512" lon="2.30714">
        <ele>1859.5</ele>
        <time>2019-01-07T05:02:27Z</time>
      </trkpt>
      <trkpt lat="42.46517" lon="2.30714">
        <ele>1858.6</ele>
        <time>2019-01-07T05:02:28Z</time>
      </trkpt>
      <trkpt lat="42.46522" lon="2.30713">
        <ele>1857.5</ele>
        <time>2019-01-07T05:02:29Z</time>
      </trkpt>
      <trkpt lat="42.46527" lon="2.30712">
        <ele>1856.7</ele>
        <time>2019-01-07T05:02:31Z</time>
      </trkpt>
      <trkpt lat="42.46532" lon="2.30713">
        <ele>1855.7</ele>
        <time>2019-01-07T05:02:32Z</time>
      </trkpt>
      <trkpt lat="42.46537" lon="2.30709">
        <ele>1854</ele>
        <time>2019-01-07T05:02:33Z</time>
      </trkpt>
      <trkpt lat="42.46541" lon="2.30707">
        <ele>1852.5</ele>
        <time>2019-01-07T05:02:35Z</time>
      </trkpt>
      <trkpt lat="42.46546" lon="2.3071">
        <ele>1851.4</ele>
        <time>2019-01-07T05:02:36Z</time>
      </trkpt>
      <trkpt lat="42.46551" lon="2.3071">
        <ele>1851</ele>
        <time>2019-01-07T05:02:37Z</time>
      </trkpt>
      <trkpt lat="42.46556" lon="2.3071">
        <ele>1849.8</ele>
        <time>2019-01-07T05:02:39Z</time>
      </trkpt>
      <trkpt lat="42.46561" lon="2.30708">
        <ele>1849</ele>
        <time>2019-01-07T05:02:40Z</time>
      </trkpt>
      <trkpt lat="42.46566" lon="2.30707">
        <ele>1848.2</ele>
        <time>2019-01-07T05:02:41Z</time>
      </trkpt>
      <trkpt lat="42.46571" lon="2.30707">
        <ele>1846.9</ele>
        <time>2019-01-07T05:02:43Z</time>
      </trkpt>
      <trkpt lat="42.46576" lon="2.30706">
        <ele>1846</ele>
        <time>2019-01-07T05:02:44Z</time>
      </trkpt>
      <trkpt lat="42.46581" lon="2.30705">
        <ele>1844.4</ele>
        <time>2019-01-07T05:02:45Z</time>
      </trkpt>
      <trkpt lat="42.46586" lon="2.30705">
        <ele>1842.9</ele>
        <time>2019-01-07T05:02:47Z</time>
      </trkpt>
      <trkpt lat="42.4659" lon="2.30706">
        <ele>1841.5</ele>
        <time>2019-01-07T05:02:48Z</time>
      </trkpt>
      <trkpt lat="42.46595" lon="2.30705">
        <ele>1840.4</ele>
        <time>2019-01-07T05:02:49Z</time>
      </trkpt>
      <trkpt lat="42.466" lon="2.30703">
        <ele>1839.4</ele>
        <time>2019-01-07T05:02:50Z</time>
      </trkpt>
      <trkpt lat="42.46604" lon="2.30701">
        <ele>1837.5</ele>
        <time>2019-01-07T05:02:52Z</time>
      </trkpt>
      <trkpt lat="42.46609" lon="2.30698">
        <ele>1835</ele>
        <time>2019-01-07T05:02:53Z</time>
      </trkpt>
      <trkpt lat="42.46614" lon="2.30696">
        <ele>1834</ele>
        <time>2019-01-07T05:02:55Z</time>
      </trkpt>
      <trkpt lat="42.46619" lon="2.30696">
        <ele>1833.3</ele>
        <time>2019-01-07T05:02:56Z</time>
      </trkpt>
      <trkpt lat="42.46624" lon="2.30695">
        <ele>1831.8</ele>
        <time>2019-01-07T05:02:57Z</time>
      </trkpt>
      <trkpt lat="42.46628" lon="2.30697">
        <ele>1830.1</ele>
        <time>2019-01-07T05:02:58Z</time>
      </trkpt>
      <trkpt lat="42.46634" lon="2.30697">
        <ele>1828.6</ele>
        <time>2019-01-07T05:03:00Z</time>
      </trkpt>
      <trkpt lat="42.46639" lon="2.30698">
        <ele>1827.5</ele>
        <time>2019-01-07T05:03:01Z</time>
      </trkpt>
      <trkpt lat="42.46644" lon="2.30698">
        <ele>1826.2</ele>
        <time>2019-01-07T05:03:03Z</time>
      </trkpt>
      <trkpt lat="42.46649" lon="2.30698">
        <ele>1825.6</ele>
        <time>2019-01-07T05:03:04Z</time>
      </trkpt>
      <trkpt lat="42.46654" lon="2.30696">
        <ele>1824.8</ele>
        <time>2019-01-07T05:03:05Z</time>
      </trkpt>
      <trkpt lat="42.4666" lon="2.30696">
        <ele>1824.4</ele>
        <time>2019-01-07T05:03:07Z</time>
      </trkpt>
      <trkpt lat="42.46665" lon="2.30696">
        <ele>1822.3</ele>
        <time>2019-01-07T05:03:09Z</time>
      </trkpt>
      <trkpt lat="42.46671" lon="2.30692">
        <ele>1821.3</ele>
        <time>2019-01-07T05:03:10Z</time>
      </trkpt>
      <trkpt lat="42.46675" lon="2.30694">
        <ele>1820.3</ele>
        <time>2019-01-07T05:03:11Z</time>
      </trkpt>
      <trkpt lat="42.4668" lon="2.30696">
        <ele>1818.9</ele>
        <time>2019-01-07T05:03:13Z</time>
      </trkpt>
      <trkpt lat="42.46685" lon="2.30695">
        <ele>1817.7</ele>
        <time>2019-01-07T05:03:14Z</time>
      </trkpt>
      <trkpt lat="42.4669" lon="2.30694">
        <ele>1816.6</ele>
        <time>2019-01-07T05:03:15Z</time>
      </trkpt>
      <trkpt lat="42.46695" lon="2.30693">
        <ele>1815.3</ele>
        <time>2019-01-07T05:03:17Z</time>
      </trkpt>
      <trkpt lat="42.46701" lon="2.30691">
        <ele>1814</ele>
        <time>2019-01-07T05:03:18Z</time>
      </trkpt>
      <trkpt lat="42.46705" lon="2.30688">
        <ele>1812.9</ele>
        <time>2019-01-07T05:03:19Z</time>
      </trkpt>
      <trkpt lat="42.4671" lon="2.30687">
        <ele>1812.4</ele>
        <time>2019-01-07T05:03:21Z</time>
      </trkpt>
      <trkpt lat="42.46716" lon="2.30687">
        <ele>1811.5</ele>
        <time>2019-01-07T05:03:22Z</time>
      </trkpt>
      <trkpt lat="42.46721" lon="2.30685">
        <ele>1810.5</ele>
        <time>2019-01-07T05:03:24Z</time>
      </trkpt>
      <trkpt lat="42.46727" lon="2.30683">
        <ele>1809.7</ele>
        <time>2019-01-07T05:03:25Z</time>
      </trkpt>
      <trkpt lat="42.46732" lon="2.30683">
        <ele>1808.8</ele>
        <time>2019-01-07T05:03:27Z</time>
      </trkpt>
      <trkpt lat="42.46737" lon="2.30682">
        <ele>1807.2</ele>
        <time>2019-01-07T05:03:28Z</time>
      </trkpt>
      <trkpt lat="42.46742" lon="2.30682">
        <ele>1806.1</ele>
        <time>2019-01-07T05:03:30Z</time>
      </trkpt>
      <trkpt lat="42.46747" lon="2.3068">
        <ele>1805.5</ele>
        <time>2019-01-07T05:03:31Z</time>
      </trkpt>
      <trkpt lat="42.46752" lon="2.30683">
        <ele>1804.8</ele>
        <time>2019-01-07T05:03:32Z</time>
      </trkpt>
      <trkpt lat="42.46756" lon="2.30685">
        <ele>1803.1</ele>
        <time>2019-01-07T05:03:34Z</time>
      </trkpt>
      <trkpt lat="42.46761" lon="2.30685">
        <ele>1802.4</ele>
        <time>2019-01-07T05:03:35Z</time>
      </trkpt>
      <trkpt lat="42.46767" lon="2.30685">
        <ele>1801.2</ele>
        <time>2019-01-07T05:03:36Z</time>
      </trkpt>
      <trkpt lat="42.46771" lon="2.30683">
        <ele>1800.7</ele>
        <time>2019-01-07T05:03:38Z</time>
      </trkpt>
      <trkpt lat="42.46776" lon="2.30681">
        <ele>1800.2</ele>
        <time>2019-01-07T05:03:39Z</time>
      </trkpt>
      <trkpt lat="42.4678" lon="2.30683">
        <ele>1798.6</ele>
        <time>2019-01-07T05:03:40Z</time>
      </trkpt>
      <trkpt lat="42.46785" lon="2.30684">
        <ele>1797.7</ele>
        <time>2019-01-07T05:03:41Z</time>
      </trkpt>
      <trkpt lat="42.4679" lon="2.30686">
        <ele>1796.6</ele>
        <time>2019-01-07T05:03:43Z</time>
      </trkpt>
      <trkpt lat="42.46795" lon="2.30689">
        <ele>1795.5</ele>
        <time>2019-01-07T05:03:44Z</time>
      </trkpt>
      <trkpt lat="42.46799" lon="2.30692">
        <ele>1794.4</ele>
        <time>2019-01-07T05:03:46Z</time>
      </trkpt>
      <trkpt lat="42.46804" lon="2.30693">
        <ele>1793.3</ele>
        <time>2019-01-07T05:03:47Z</time>
      </trkpt>
      <trkpt lat="42.46809" lon="2.30695">
        <ele>1792.7</ele>
        <time>2019-01-07T05:03:48Z</time>
      </trkpt>
      <trkpt lat="42.46814" lon="2.30696">
        <ele>1791.9</ele>
        <time>2019-01-07T05:03:50Z</time>
      </trkpt>
      <trkpt lat="42.46818" lon="2.30699">
        <ele>1790.9</ele>
        <time>2019-01-07T05:03:51Z</time>
      </trkpt>
      <trkpt lat="42.46823" lon="2.30702">
        <ele>1789.3</ele>
        <time>2019-01-07T05:03:52Z</time>
      </trkpt>
      <trkpt lat="42.46827" lon="2.30705">
        <ele>1788.5</ele>
        <time>2019-01-07T05:03:54Z</time>
      </trkpt>
      <trkpt lat="42.46833" lon="2.30707">
        <ele>1787.7</ele>
        <time>2019-01-07T05:03:55Z</time>
      </trkpt>
      <trkpt lat="42.46838" lon="2.30707">
        <ele>1787.1</ele>
        <time>2019-01-07T05:03:56Z</time>
      </trkpt>
      <trkpt lat="42.46842" lon="2.30708">
        <ele>1786.8</ele>
        <time>2019-01-07T05:03:58Z</time>
      </trkpt>
      <trkpt lat="42.46847" lon="2.30712">
        <ele>1786</ele>
        <time>2019-01-07T05:03:59Z</time>
      </trkpt>
      <trkpt lat="42.46851" lon="2.30715">
        <ele>1785.1</ele>
        <time>2019-01-07T05:04:00Z</time>
      </trkpt>
      <trkpt lat="42.46856" lon="2.30717">
        <ele>1784.3</ele>
        <time>2019-01-07T05:04:02Z</time>
      </trkpt>
      <trkpt lat="42.46861" lon="2.30719">
        <ele>1783.5</ele>
        <time>2019-01-07T05:04:03Z</time>
      </trkpt>
      <trkpt lat="42.46867" lon="2.30721">
        <ele>1783.3</ele>
        <time>2019-01-07T05:04:05Z</time>
      </trkpt>
      <trkpt lat="42.46872" lon="2.30722">
        <ele>1783.2</ele>
        <time>2019-01-07T05:04:06Z</time>
      </trkpt>
      <trkpt lat="42.46875" lon="2.30726">
        <ele>1781.9</ele>
        <time>2019-01-07T05:04:07Z</time>
      </trkpt>
      <trkpt lat="42.46878" lon="2.30731">
        <ele>1780.7</ele>
        <time>2019-01-07T05:04:09Z</time>
      </trkpt>
      <trkpt lat="42.46883" lon="2.30735">
        <ele>1778.9</ele>
        <time>2019-01-07T05:04:10Z</time>
      </trkpt>
      <trkpt lat="42.46886" lon="2.3074">
        <ele>1777.1</ele>
        <time>2019-01-07T05:04:11Z</time>
      </trkpt>
      <trkpt lat="42.4689" lon="2.30743">
        <ele>1774.9</ele>
        <time>2019-01-07T05:04:13Z</time>
      </trkpt>
      <trkpt lat="42.46895" lon="2.30745">
        <ele>1774.7</ele>
        <time>2019-01-07T05:04:14Z</time>
      </trkpt>
      <trkpt lat="42.469" lon="2.30744">
        <ele>1774.3</ele>
        <time>2019-01-07T05:04:15Z</time>
      </trkpt>
      <trkpt lat="42.46904" lon="2.30743">
        <ele>1774.1</ele>
        <time>2019-01-07T05:04:16Z</time>
      </trkpt>
      <trkpt lat="42.46909" lon="2.30746">
        <ele>1772.4</ele>
        <time>2019-01-07T05:04:18Z</time>
      </trkpt>
      <trkpt lat="42.46913" lon="2.30752">
        <ele>1770.9</ele>
        <time>2019-01-07T05:04:19Z</time>
      </trkpt>
      <trkpt lat="42.46914" lon="2.30759">
        <ele>1769.5</ele>
        <time>2019-01-07T05:04:21Z</time>
      </trkpt>
      <trkpt lat="42.46914" lon="2.30765">
        <ele>1768.8</ele>
        <time>2019-01-07T05:04:22Z</time>
      </trkpt>
      <trkpt lat="42.46915" lon="2.30773">
        <ele>1767.2</ele>
        <time>2019-01-07T05:04:24Z</time>
      </trkpt>
      <trkpt lat="42.46916" lon="2.3078">
        <ele>1765.8</ele>
        <time>2019-01-07T05:04:25Z</time>
      </trkpt>
      <trkpt lat="42.46915" lon="2.30787">
        <ele>1765.2</ele>
        <time>2019-01-07T05:04:26Z</time>
      </trkpt>
      <trkpt lat="42.46913" lon="2.30793">
        <ele>1764.2</ele>
        <time>2019-01-07T05:04:28Z</time>
      </trkpt>
      <trkpt lat="42.46912" lon="2.308">
        <ele>1763.9</ele>
        <time>2019-01-07T05:04:29Z</time>
      </trkpt>
      <trkpt lat="42.46911" lon="2.30807">
        <ele>1763.6</ele>
        <time>2019-01-07T05:04:30Z</time>
      </trkpt>
      <trkpt lat="42.46912" lon="2.30814">
        <ele>1763.2</ele>
        <time>2019-01-07T05:04:32Z</time>
      </trkpt>
      <trkpt lat="42.46909" lon="2.30819">
        <ele>1763.6</ele>
        <time>2019-01-07T05:04:33Z</time>
      </trkpt>
      <trkpt lat="42.46912" lon="2.30814">
        <ele>1763</ele>
        <time>2019-01-07T05:04:34Z</time>
      </trkpt>
      <trkpt lat="42.46908" lon="2.30809">
        <ele>1762.6</ele>
        <time>2019-01-07T05:04:36Z</time>
      </trkpt>
      <trkpt lat="42.46903" lon="2.30808">
        <ele>1761.7</ele>
        <time>2019-01-07T05:04:37Z</time>
      </trkpt>
      <trkpt lat="42.46899" lon="2.30812">
        <ele>1760</ele>
        <time>2019-01-07T05:04:38Z</time>
      </trkpt>
      <trkpt lat="42.46894" lon="2.30815">
        <ele>1758.9</ele>
        <time>2019-01-07T05:04:40Z</time>
      </trkpt>
      <trkpt lat="42.46889" lon="2.30818">
        <ele>1758.2</ele>
        <time>2019-01-07T05:04:41Z</time>
      </trkpt>
      <trkpt lat="42.46884" lon="2.30815">
        <ele>1756.4</ele>
        <time>2019-01-07T05:04:43Z</time>
      </trkpt>
      <trkpt lat="42.46883" lon="2.30809">
        <ele>1754.8</ele>
        <time>2019-01-07T05:04:44Z</time>
      </trkpt>
      <trkpt lat="42.46878" lon="2.30808">
        <ele>1753.7</ele>
        <time>2019-01-07T05:04:45Z</time>
      </trkpt>
      <trkpt lat="42.46873" lon="2.3081">
        <ele>1751.8</ele>
        <time>2019-01-07T05:04:47Z</time>
      </trkpt>
      <trkpt lat="42.46868" lon="2.30812">
        <ele>1749.9</ele>
        <time>2019-01-07T05:04:48Z</time>
      </trkpt>
      <trkpt lat="42.46865" lon="2.30817">
        <ele>1748.4</ele>
        <time>2019-01-07T05:04:49Z</time>
      </trkpt>
      <trkpt lat="42.46861" lon="2.30819">
        <ele>1746.2</ele>
        <time>2019-01-07T05:04:50Z</time>
      </trkpt>
      <trkpt lat="42.46857" lon="2.30822">
        <ele>1744.6</ele>
        <time>2019-01-07T05:04:52Z</time>
      </trkpt>
      <trkpt lat="42.46852" lon="2.30823">
        <ele>1742.7</ele>
        <time>2019-01-07T05:04:53Z</time>
      </trkpt>
      <trkpt lat="42.46848" lon="2.30826">
        <ele>1741.1</ele>
        <time>2019-01-07T05:04:54Z</time>
      </trkpt>
      <trkpt lat="42.46844" lon="2.30831">
        <ele>1739.6</ele>
        <time>2019-01-07T05:04:56Z</time>
      </trkpt>
      <trkpt lat="42.46841" lon="2.30836">
        <ele>1737.9</ele>
        <time>2019-01-07T05:04:57Z</time>
      </trkpt>
      <trkpt lat="42.46837" lon="2.30841">
        <ele>1736.4</ele>
        <time>2019-01-07T05:04:58Z</time>
      </trkpt>
      <trkpt lat="42.46834" lon="2.30847">
        <ele>1734.9</ele>
        <time>2019-01-07T05:05:00Z</time>
      </trkpt>
      <trkpt lat="42.46832" lon="2.30853">
        <ele>1733.7</ele>
        <time>2019-01-07T05:05:01Z</time>
      </trkpt>
      <trkpt lat="42.46829" lon="2.30859">
        <ele>1731.8</ele>
        <time>2019-01-07T05:05:02Z</time>
      </trkpt>
      <trkpt lat="42.46829" lon="2.30865">
        <ele>1729.7</ele>
        <time>2019-01-07T05:05:04Z</time>
      </trkpt>
      <trkpt lat="42.46827" lon="2.30872">
        <ele>1728.7</ele>
        <time>2019-01-07T05:05:05Z</time>
      </trkpt>
      <trkpt lat="42.46826" lon="2.3088">
        <ele>1726.5</ele>
        <time>2019-01-07T05:05:07Z</time>
      </trkpt>
      <trkpt lat="42.46823" lon="2.30886">
        <ele>1725.4</ele>
        <time>2019-01-07T05:05:08Z</time>
      </trkpt>
      <trkpt lat="42.46822" lon="2.30893">
        <ele>1724.1</ele>
        <time>2019-01-07T05:05:10Z</time>
      </trkpt>
      <trkpt lat="42.46824" lon="2.309">
        <ele>1722.3</ele>
        <time>2019-01-07T05:05:11Z</time>
      </trkpt>
      <trkpt lat="42.46827" lon="2.30906">
        <ele>1721.2</ele>
        <time>2019-01-07T05:05:12Z</time>
      </trkpt>
      <trkpt lat="42.46828" lon="2.30913">
        <ele>1719.7</ele>
        <time>2019-01-07T05:05:14Z</time>
      </trkpt>
      <trkpt lat="42.4683" lon="2.30918">
        <ele>1718.2</ele>
        <time>2019-01-07T05:05:15Z</time>
      </trkpt>
      <trkpt lat="42.46833" lon="2.30924">
        <ele>1716.8</ele>
        <time>2019-01-07T05:05:16Z</time>
      </trkpt>
      <trkpt lat="42.46837" lon="2.30929">
        <ele>1714.9</ele>
        <time>2019-01-07T05:05:18Z</time>
      </trkpt>
      <trkpt lat="42.46841" lon="2.30934">
        <ele>1713.5</ele>
        <time>2019-01-07T05:05:19Z</time>
      </trkpt>
      <trkpt lat="42.46843" lon="2.3094">
        <ele>1712</ele>
        <time>2019-01-07T05:05:21Z</time>
      </trkpt>
      <trkpt lat="42.46841" lon="2.30946">
        <ele>1709.7</ele>
        <time>2019-01-07T05:05:22Z</time>
      </trkpt>
      <trkpt lat="42.46842" lon="2.30953">
        <ele>1707.1</ele>
        <time>2019-01-07T05:05:23Z</time>
      </trkpt>
      <trkpt lat="42.46846" lon="2.30958">
        <ele>1705.8</ele>
        <time>2019-01-07T05:05:25Z</time>
      </trkpt>
      <trkpt lat="42.46851" lon="2.3096">
        <ele>1704.9</ele>
        <time>2019-01-07T05:05:26Z</time>
      </trkpt>
      <trkpt lat="42.46855" lon="2.30965">
        <ele>1703.4</ele>
        <time>2019-01-07T05:05:27Z</time>
      </trkpt>
      <trkpt lat="42.46855" lon="2.30972">
        <ele>1701.5</ele>
        <time>2019-01-07T05:05:29Z</time>
      </trkpt>
      <trkpt lat="42.46857" lon="2.30979">
        <ele>1699.5</ele>
        <time>2019-01-07T05:05:30Z</time>
      </trkpt>
      <trkpt lat="42.46858" lon="2.30985">
        <ele>1698.4</ele>
        <time>2019-01-07T05:05:32Z</time>
      </trkpt>
      <trkpt lat="42.46857" lon="2.30993">
        <ele>1696.8</ele>
        <time>2019-01-07T05:05:33Z</time>
      </trkpt>
      <trkpt lat="42.46857" lon="2.30999">
        <ele>1695</ele>
        <time>2019-01-07T05:05:34Z</time>
      </trkpt>
      <trkpt lat="42.46858" lon="2.31005">
        <ele>1693.3</ele>
        <time>2019-01-07T05:05:36Z</time>
      </trkpt>
      <trkpt lat="42.4686" lon="2.31012">
        <ele>1691.6</ele>
        <time>2019-01-07T05:05:37Z</time>
      </trkpt>
      <trkpt lat="42.46866" lon="2.31015">
        <ele>1690.1</ele>
        <time>2019-01-07T05:05:39Z</time>
      </trkpt>
      <trkpt lat="42.4687" lon="2.31019">
        <ele>1688.2</ele>
        <time>2019-01-07T05:05:40Z</time>
      </trkpt>
      <trkpt lat="42.46874" lon="2.31022">
        <ele>1687.1</ele>
        <time>2019-01-07T05:05:41Z</time>
      </trkpt>
      <trkpt lat="42.46879" lon="2.31023">
        <ele>1685.7</ele>
        <time>2019-01-07T05:05:43Z</time>
      </trkpt>
      <trkpt lat="42.46887" lon="2.31021">
        <ele>1684.7</ele>
        <time>2019-01-07T05:05:45Z</time>
      </trkpt>
      <trkpt lat="42.46892" lon="2.31016">
        <ele>1683.1</ele>
        <time>2019-01-07T05:05:46Z</time>
      </trkpt>
      <trkpt lat="42.46896" lon="2.31016">
        <ele>1682.2</ele>
        <time>2019-01-07T05:05:47Z</time>
      </trkpt>
      <trkpt lat="42.469" lon="2.31013">
        <ele>1681.4</ele>
        <time>2019-01-07T05:05:49Z</time>
      </trkpt>
      <trkpt lat="42.46904" lon="2.31017">
        <ele>1679.4</ele>
        <time>2019-01-07T05:05:50Z</time>
      </trkpt>
      <trkpt lat="42.46909" lon="2.3102">
        <ele>1678</ele>
        <time>2019-01-07T05:05:51Z</time>
      </trkpt>
      <trkpt lat="42.46913" lon="2.31021">
        <ele>1676.8</ele>
        <time>2019-01-07T05:05:53Z</time>
      </trkpt>
      <trkpt lat="42.46916" lon="2.31026">
        <ele>1674.4</ele>
        <time>2019-01-07T05:05:54Z</time>
      </trkpt>
      <trkpt lat="42.46921" lon="2.31029">
        <ele>1672.3</ele>
        <time>2019-01-07T05:05:55Z</time>
      </trkpt>
      <trkpt lat="42.46926" lon="2.3103">
        <ele>1671.3</ele>
        <time>2019-01-07T05:05:57Z</time>
      </trkpt>
      <trkpt lat="42.46927" lon="2.31036">
        <ele>1670.3</ele>
        <time>2019-01-07T05:05:58Z</time>
      </trkpt>
      <trkpt lat="42.46933" lon="2.31038">
        <ele>1668.8</ele>
        <time>2019-01-07T05:05:59Z</time>
      </trkpt>
      <trkpt lat="42.46936" lon="2.31043">
        <ele>1667.5</ele>
        <time>2019-01-07T05:06:01Z</time>
      </trkpt>
      <trkpt lat="42.46932" lon="2.31047">
        <ele>1665.1</ele>
        <time>2019-01-07T05:06:02Z</time>
      </trkpt>
      <trkpt lat="42.46933" lon="2.31054">
        <ele>1663.6</ele>
        <time>2019-01-07T05:06:03Z</time>
      </trkpt>
      <trkpt lat="42.46928" lon="2.31056">
        <ele>1663</ele>
        <time>2019-01-07T05:06:05Z</time>
      </trkpt>
      <trkpt lat="42.46922" lon="2.31056">
        <ele>1662.7</ele>
        <time>2019-01-07T05:06:06Z</time>
      </trkpt>
      <trkpt lat="42.46917" lon="2.31056">
        <ele>1662.4</ele>
        <time>2019-01-07T05:06:08Z</time>
      </trkpt>
      <trkpt lat="42.46916" lon="2.31062">
        <ele>1661.3</ele>
        <time>2019-01-07T05:06:09Z</time>
      </trkpt>
      <trkpt lat="42.46917" lon="2.31068">
        <ele>1659.9</ele>
        <time>2019-01-07T05:06:10Z</time>
      </trkpt>
      <trkpt lat="42.46921" lon="2.3107">
        <ele>1657.8</ele>
        <time>2019-01-07T05:06:11Z</time>
      </trkpt>
      <trkpt lat="42.46926" lon="2.31069">
        <ele>1655.3</ele>
        <time>2019-01-07T05:06:13Z</time>
      </trkpt>
      <trkpt lat="42.46932" lon="2.31068">
        <ele>1654.1</ele>
        <time>2019-01-07T05:06:14Z</time>
      </trkpt>
      <trkpt lat="42.46936" lon="2.31068">
        <ele>1653.2</ele>
        <time>2019-01-07T05:06:15Z</time>
      </trkpt>
      <trkpt lat="42.46941" lon="2.31069">
        <ele>1651.9</ele>
        <time>2019-01-07T05:06:17Z</time>
      </trkpt>
      <trkpt lat="42.46938" lon="2.31074">
        <ele>1650.7</ele>
        <time>2019-01-07T05:06:18Z</time>
      </trkpt>
      <trkpt lat="42.46934" lon="2.31078">
        <ele>1649.9</ele>
        <time>2019-01-07T05:06:19Z</time>
      </trkpt>
      <trkpt lat="42.46929" lon="2.3108">
        <ele>1649</ele>
        <time>2019-01-07T05:06:21Z</time>
      </trkpt>
      <trkpt lat="42.46926" lon="2.31085">
        <ele>1647.5</ele>
        <time>2019-01-07T05:06:22Z</time>
      </trkpt>
      <trkpt lat="42.4693" lon="2.31085">
        <ele>1645.9</ele>
        <time>2019-01-07T05:06:23Z</time>
      </trkpt>
      <trkpt lat="42.46935" lon="2.31086">
        <ele>1645.4</ele>
        <time>2019-01-07T05:06:24Z</time>
      </trkpt>
      <trkpt lat="42.46941" lon="2.31086">
        <ele>1644.8</ele>
        <time>2019-01-07T05:06:26Z</time>
      </trkpt>
      <trkpt lat="42.46941" lon="2.31093">
        <ele>1642.1</ele>
        <time>2019-01-07T05:06:27Z</time>
      </trkpt>
      <trkpt lat="42.46938" lon="2.31097">
        <ele>1640.6</ele>
        <time>2019-01-07T05:06:29Z</time>
      </trkpt>
      <trkpt lat="42.46936" lon="2.31103">
        <ele>1639.5</ele>
        <time>2019-01-07T05:06:30Z</time>
      </trkpt>
      <trkpt lat="42.4694" lon="2.31106">
        <ele>1638.6</ele>
        <time>2019-01-07T05:06:31Z</time>
      </trkpt>
      <trkpt lat="42.46945" lon="2.31107">
        <ele>1637.7</ele>
        <time>2019-01-07T05:06:32Z</time>
      </trkpt>
      <trkpt lat="42.4695" lon="2.31107">
        <ele>1636.3</ele>
        <time>2019-01-07T05:06:34Z</time>
      </trkpt>
      <trkpt lat="42.46955" lon="2.31105">
        <ele>1635.5</ele>
        <time>2019-01-07T05:06:35Z</time>
      </trkpt>
      <trkpt lat="42.4696" lon="2.31104">
        <ele>1634.8</ele>
        <time>2019-01-07T05:06:36Z</time>
      </trkpt>
      <trkpt lat="42.46965" lon="2.31103">
        <ele>1633.9</ele>
        <time>2019-01-07T05:06:38Z</time>
      </trkpt>
      <trkpt lat="42.46969" lon="2.31101">
        <ele>1632.6</ele>
        <time>2019-01-07T05:06:39Z</time>
      </trkpt>
      <trkpt lat="42.46974" lon="2.31098">
        <ele>1632.2</ele>
        <time>2019-01-07T05:06:40Z</time>
      </trkpt>
      <trkpt lat="42.46978" lon="2.31096">
        <ele>1631.5</ele>
        <time>2019-01-07T05:06:42Z</time>
      </trkpt>
      <trkpt lat="42.46983" lon="2.31096">
        <ele>1631</ele>
        <time>2019-01-07T05:06:43Z</time>
      </trkpt>
      <trkpt lat="42.46988" lon="2.31097">
        <ele>1630.1</ele>
        <time>2019-01-07T05:06:44Z</time>
      </trkpt>
      <trkpt lat="42.46993" lon="2.31099">
        <ele>1628.7</ele>
        <time>2019-01-07T05:06:46Z</time>
      </trkpt>
      <trkpt lat="42.46998" lon="2.31101">
        <ele>1627.7</ele>
        <time>2019-01-07T05:06:47Z</time>
      </trkpt>
      <trkpt lat="42.47002" lon="2.311">
        <ele>1627</ele>
        <time>2019-01-07T05:06:48Z</time>
      </trkpt>
      <trkpt lat="42.47007" lon="2.31103">
        <ele>1625.2</ele>
        <time>2019-01-07T05:06:49Z</time>
      </trkpt>
      <trkpt lat="42.47005" lon="2.31109">
        <ele>1623.9</ele>
        <time>2019-01-07T05:06:51Z</time>
      </trkpt>
      <trkpt lat="42.47001" lon="2.31112">
        <ele>1623.5</ele>
        <time>2019-01-07T05:06:52Z</time>
      </trkpt>
      <trkpt lat="42.47004" lon="2.31117">
        <ele>1622.4</ele>
        <time>2019-01-07T05:06:53Z</time>
      </trkpt>
      <trkpt lat="42.47001" lon="2.31122">
        <ele>1622.6</ele>
        <time>2019-01-07T05:06:55Z</time>
      </trkpt>
      <trkpt lat="42.46997" lon="2.31125">
        <ele>1622.5</ele>
        <time>2019-01-07T05:06:56Z</time>
      </trkpt>
      <trkpt lat="42.46999" lon="2.31131">
        <ele>1622.1</ele>
        <time>2019-01-07T05:06:57Z</time>
      </trkpt>
      <trkpt lat="42.47004" lon="2.31131">
        <ele>1622</ele>
        <time>2019-01-07T05:06:58Z</time>
      </trkpt>
      <trkpt lat="42.47008" lon="2.31135">
        <ele>1621.5</ele>
        <time>2019-01-07T05:07:00Z</time>
      </trkpt>
      <trkpt lat="42.47011" lon="2.3114">
        <ele>1621</ele>
        <time>2019-01-07T05:07:01Z</time>
      </trkpt>
      <trkpt lat="42.47012" lon="2.31146">
        <ele>1620.9</ele>
        <time>2019-01-07T05:07:02Z</time>
      </trkpt>
      <trkpt lat="42.47014" lon="2.31151">
        <ele>1620.8</ele>
        <time>2019-01-07T05:07:03Z</time>
      </trkpt>
      <trkpt lat="42.47019" lon="2.31154">
        <ele>1621.6</ele>
        <time>2019-01-07T05:07:05Z</time>
      </trkpt>
      <trkpt lat="42.47023" lon="2.31157">
        <ele>1622.1</ele>
        <time>2019-01-07T05:07:06Z</time>
      </trkpt>
      <trkpt lat="42.47028" lon="2.31159">
        <ele>1622.8</ele>
        <time>2019-01-07T05:07:07Z</time>
      </trkpt>
      <trkpt lat="42.47033" lon="2.31162">
        <ele>1623.3</ele>
        <time>2019-01-07T05:07:09Z</time>
      </trkpt>
      <trkpt lat="42.47038" lon="2.31162">
        <ele>1622.8</ele>
        <time>2019-01-07T05:07:10Z</time>
      </trkpt>
      <trkpt lat="42.47042" lon="2.3116">
        <ele>1622.2</ele>
        <time>2019-01-07T05:07:11Z</time>
      </trkpt>
      <trkpt lat="42.47047" lon="2.31157">
        <ele>1621.1</ele>
        <time>2019-01-07T05:07:13Z</time>
      </trkpt>
      <trkpt lat="42.47052" lon="2.31159">
        <ele>1620.8</ele>
        <time>2019-01-07T05:07:14Z</time>
      </trkpt>
      <trkpt lat="42.47056" lon="2.31163">
        <ele>1620.6</ele>
        <time>2019-01-07T05:07:15Z</time>
      </trkpt>
      <trkpt lat="42.47059" lon="2.31157">
        <ele>1620</ele>
        <time>2019-01-07T05:07:17Z</time>
      </trkpt>
      <trkpt lat="42.47063" lon="2.31154">
        <ele>1619.3</ele>
        <time>2019-01-07T05:07:18Z</time>
      </trkpt>
      <trkpt lat="42.47067" lon="2.31151">
        <ele>1618.6</ele>
        <time>2019-01-07T05:07:19Z</time>
      </trkpt>
      <trkpt lat="42.4707" lon="2.31145">
        <ele>1617.5</ele>
        <time>2019-01-07T05:07:21Z</time>
      </trkpt>
      <trkpt lat="42.47075" lon="2.31145">
        <ele>1616.7</ele>
        <time>2019-01-07T05:07:22Z</time>
      </trkpt>
      <trkpt lat="42.47078" lon="2.3114">
        <ele>1616.1</ele>
        <time>2019-01-07T05:07:23Z</time>
      </trkpt>
      <trkpt lat="42.47081" lon="2.31135">
        <ele>1615.3</ele>
        <time>2019-01-07T05:07:24Z</time>
      </trkpt>
      <trkpt lat="42.47085" lon="2.31133">
        <ele>1614.6</ele>
        <time>2019-01-07T05:07:26Z</time>
      </trkpt>
      <trkpt lat="42.4709" lon="2.3113">
        <ele>1614</ele>
        <time>2019-01-07T05:07:27Z</time>
      </trkpt>
      <trkpt lat="42.47094" lon="2.3113">
        <ele>1613.5</ele>
        <time>2019-01-07T05:07:28Z</time>
      </trkpt>
      <trkpt lat="42.47099" lon="2.31131">
        <ele>1613</ele>
        <time>2019-01-07T05:07:29Z</time>
      </trkpt>
      <trkpt lat="42.47104" lon="2.31131">
        <ele>1612.7</ele>
        <time>2019-01-07T05:07:31Z</time>
      </trkpt>
      <trkpt lat="42.47108" lon="2.31131">
        <ele>1612.3</ele>
        <time>2019-01-07T05:07:32Z</time>
      </trkpt>
      <trkpt lat="42.47113" lon="2.3113">
        <ele>1611.8</ele>
        <time>2019-01-07T05:07:33Z</time>
      </trkpt>
      <trkpt lat="42.47119" lon="2.31127">
        <ele>1611.4</ele>
        <time>2019-01-07T05:07:35Z</time>
      </trkpt>
      <trkpt lat="42.47123" lon="2.31126">
        <ele>1611.2</ele>
        <time>2019-01-07T05:07:36Z</time>
      </trkpt>
      <trkpt lat="42.4713" lon="2.31125">
        <ele>1611.2</ele>
        <time>2019-01-07T05:07:38Z</time>
      </trkpt>
      <trkpt lat="42.47134" lon="2.31124">
        <ele>1611.1</ele>
        <time>2019-01-07T05:07:39Z</time>
      </trkpt>
      <trkpt lat="42.47139" lon="2.31123">
        <ele>1610.8</ele>
        <time>2019-01-07T05:07:40Z</time>
      </trkpt>
      <trkpt lat="42.47143" lon="2.31118">
        <ele>1610.5</ele>
        <time>2019-01-07T05:07:42Z</time>
      </trkpt>
      <trkpt lat="42.47147" lon="2.31114">
        <ele>1610.6</ele>
        <time>2019-01-07T05:07:43Z</time>
      </trkpt>
      <trkpt lat="42.4715" lon="2.31109">
        <ele>1610.6</ele>
        <time>2019-01-07T05:07:44Z</time>
      </trkpt>
      <trkpt lat="42.47154" lon="2.31106">
        <ele>1610.5</ele>
        <time>2019-01-07T05:07:46Z</time>
      </trkpt>
      <trkpt lat="42.47157" lon="2.311">
        <ele>1610</ele>
        <time>2019-01-07T05:07:47Z</time>
      </trkpt>
      <trkpt lat="42.47161" lon="2.31096">
        <ele>1609.5</ele>
        <time>2019-01-07T05:07:48Z</time>
      </trkpt>
      <trkpt lat="42.47164" lon="2.3109">
        <ele>1609.2</ele>
        <time>2019-01-07T05:07:50Z</time>
      </trkpt>
      <trkpt lat="42.47168" lon="2.31089">
        <ele>1608.4</ele>
        <time>2019-01-07T05:07:51Z</time>
      </trkpt>
      <trkpt lat="42.47173" lon="2.31085">
        <ele>1607.4</ele>
        <time>2019-01-07T05:07:52Z</time>
      </trkpt>
      <trkpt lat="42.47177" lon="2.31082">
        <ele>1607.3</ele>
        <time>2019-01-07T05:07:54Z</time>
      </trkpt>
      <trkpt lat="42.47179" lon="2.31077">
        <ele>1606.6</ele>
        <time>2019-01-07T05:07:55Z</time>
      </trkpt>
      <trkpt lat="42.47182" lon="2.31072">
        <ele>1605.6</ele>
        <time>2019-01-07T05:07:56Z</time>
      </trkpt>
      <trkpt lat="42.47186" lon="2.31069">
        <ele>1603.9</ele>
        <time>2019-01-07T05:07:57Z</time>
      </trkpt>
      <trkpt lat="42.47191" lon="2.31066">
        <ele>1603.4</ele>
        <time>2019-01-07T05:07:59Z</time>
      </trkpt>
      <trkpt lat="42.47195" lon="2.31062">
        <ele>1602.7</ele>
        <time>2019-01-07T05:08:00Z</time>
      </trkpt>
      <trkpt lat="42.47199" lon="2.31058">
        <ele>1601.7</ele>
        <time>2019-01-07T05:08:01Z</time>
      </trkpt>
      <trkpt lat="42.47203" lon="2.31052">
        <ele>1601.2</ele>
        <time>2019-01-07T05:08:03Z</time>
      </trkpt>
      <trkpt lat="42.47205" lon="2.31046">
        <ele>1600.9</ele>
        <time>2019-01-07T05:08:04Z</time>
      </trkpt>
      <trkpt lat="42.47207" lon="2.31041">
        <ele>1599.6</ele>
        <time>2019-01-07T05:08:05Z</time>
      </trkpt>
      <trkpt lat="42.4721" lon="2.31036">
        <ele>1598.8</ele>
        <time>2019-01-07T05:08:07Z</time>
      </trkpt>
      <trkpt lat="42.47207" lon="2.31028">
        <ele>1598</ele>
        <time>2019-01-07T05:08:08Z</time>
      </trkpt>
      <trkpt lat="42.47207" lon="2.3102">
        <ele>1597.5</ele>
        <time>2019-01-07T05:08:10Z</time>
      </trkpt>
      <trkpt lat="42.4721" lon="2.31015">
        <ele>1597.2</ele>
        <time>2019-01-07T05:08:11Z</time>
      </trkpt>
      <trkpt lat="42.47214" lon="2.3101">
        <ele>1597</ele>
        <time>2019-01-07T05:08:13Z</time>
      </trkpt>
      <trkpt lat="42.47216" lon="2.31005">
        <ele>1596.2</ele>
        <time>2019-01-07T05:08:14Z</time>
      </trkpt>
      <trkpt lat="42.47219" lon="2.30998">
        <ele>1595.2</ele>
        <time>2019-01-07T05:08:15Z</time>
      </trkpt>
      <trkpt lat="42.47222" lon="2.30991">
        <ele>1594.3</ele>
        <time>2019-01-07T05:08:17Z</time>
      </trkpt>
      <trkpt lat="42.47223" lon="2.30985">
        <ele>1593.4</ele>
        <time>2019-01-07T05:08:18Z</time>
      </trkpt>
      <trkpt lat="42.47225" lon="2.30979">
        <ele>1592.2</ele>
        <time>2019-01-07T05:08:20Z</time>
      </trkpt>
      <trkpt lat="42.47227" lon="2.30973">
        <ele>1591.7</ele>
        <time>2019-01-07T05:08:21Z</time>
      </trkpt>
      <trkpt lat="42.47228" lon="2.30965">
        <ele>1591</ele>
        <time>2019-01-07T05:08:23Z</time>
      </trkpt>
      <trkpt lat="42.47228" lon="2.30958">
        <ele>1590.6</ele>
        <time>2019-01-07T05:08:24Z</time>
      </trkpt>
      <trkpt lat="42.47226" lon="2.30952">
        <ele>1590.1</ele>
        <time>2019-01-07T05:08:25Z</time>
      </trkpt>
      <trkpt lat="42.47227" lon="2.30946">
        <ele>1589.5</ele>
        <time>2019-01-07T05:08:26Z</time>
      </trkpt>
      <trkpt lat="42.4723" lon="2.30941">
        <ele>1589.3</ele>
        <time>2019-01-07T05:08:28Z</time>
      </trkpt>
      <trkpt lat="42.47232" lon="2.30935">
        <ele>1589.5</ele>
        <time>2019-01-07T05:08:29Z</time>
      </trkpt>
      <trkpt lat="42.47233" lon="2.30928">
        <ele>1589.3</ele>
        <time>2019-01-07T05:08:30Z</time>
      </trkpt>
      <trkpt lat="42.47236" lon="2.30922">
        <ele>1588</ele>
        <time>2019-01-07T05:08:32Z</time>
      </trkpt>
      <trkpt lat="42.47234" lon="2.30915">
        <ele>1587.7</ele>
        <time>2019-01-07T05:08:33Z</time>
      </trkpt>
      <trkpt lat="42.47234" lon="2.30909">
        <ele>1587.5</ele>
        <time>2019-01-07T05:08:34Z</time>
      </trkpt>
      <trkpt lat="42.47237" lon="2.30904">
        <ele>1587.1</ele>
        <time>2019-01-07T05:08:36Z</time>
      </trkpt>
      <trkpt lat="42.47241" lon="2.30898">
        <ele>1586.2</ele>
        <time>2019-01-07T05:08:37Z</time>
      </trkpt>
      <trkpt lat="42.47245" lon="2.30894">
        <ele>1585.7</ele>
        <time>2019-01-07T05:08:39Z</time>
      </trkpt>
      <trkpt lat="42.4725" lon="2.3089">
        <ele>1585.4</ele>
        <time>2019-01-07T05:08:40Z</time>
      </trkpt>
      <trkpt lat="42.47254" lon="2.30884">
        <ele>1584.7</ele>
        <time>2019-01-07T05:08:42Z</time>
      </trkpt>
      <trkpt lat="42.47255" lon="2.30878">
        <ele>1583.8</ele>
        <time>2019-01-07T05:08:43Z</time>
      </trkpt>
      <trkpt lat="42.47259" lon="2.30874">
        <ele>1582.8</ele>
        <time>2019-01-07T05:08:44Z</time>
      </trkpt>
      <trkpt lat="42.47261" lon="2.30868">
        <ele>1581.7</ele>
        <time>2019-01-07T05:08:46Z</time>
      </trkpt>
      <trkpt lat="42.47266" lon="2.30865">
        <ele>1580.5</ele>
        <time>2019-01-07T05:08:47Z</time>
      </trkpt>
      <trkpt lat="42.47271" lon="2.30861">
        <ele>1579.8</ele>
        <time>2019-01-07T05:08:48Z</time>
      </trkpt>
      <trkpt lat="42.47275" lon="2.30858">
        <ele>1579.3</ele>
        <time>2019-01-07T05:08:50Z</time>
      </trkpt>
      <trkpt lat="42.47278" lon="2.30852">
        <ele>1578.8</ele>
        <time>2019-01-07T05:08:51Z</time>
      </trkpt>
      <trkpt lat="42.47281" lon="2.30848">
        <ele>1578.5</ele>
        <time>2019-01-07T05:08:52Z</time>
      </trkpt>
      <trkpt lat="42.47285" lon="2.30843">
        <ele>1577.8</ele>
        <time>2019-01-07T05:08:54Z</time>
      </trkpt>
      <trkpt lat="42.4729" lon="2.30839">
        <ele>1576</ele>
        <time>2019-01-07T05:08:55Z</time>
      </trkpt>
      <trkpt lat="42.47287" lon="2.30833">
        <ele>1574.9</ele>
        <time>2019-01-07T05:08:57Z</time>
      </trkpt>
      <trkpt lat="42.47283" lon="2.30827">
        <ele>1574.9</ele>
        <time>2019-01-07T05:08:58Z</time>
      </trkpt>
      <trkpt lat="42.47282" lon="2.3082">
        <ele>1573.8</ele>
        <time>2019-01-07T05:09:00Z</time>
      </trkpt>
      <trkpt lat="42.47287" lon="2.30817">
        <ele>1573.6</ele>
        <time>2019-01-07T05:09:01Z</time>
      </trkpt>
      <trkpt lat="42.47292" lon="2.30814">
        <ele>1572.8</ele>
        <time>2019-01-07T05:09:02Z</time>
      </trkpt>
      <trkpt lat="42.47297" lon="2.30811">
        <ele>1571.8</ele>
        <time>2019-01-07T05:09:04Z</time>
      </trkpt>
      <trkpt lat="42.47298" lon="2.30804">
        <ele>1571.1</ele>
        <time>2019-01-07T05:09:05Z</time>
      </trkpt>
      <trkpt lat="42.47302" lon="2.308">
        <ele>1570.4</ele>
        <time>2019-01-07T05:09:07Z</time>
      </trkpt>
      <trkpt lat="42.47306" lon="2.30796">
        <ele>1570.1</ele>
        <time>2019-01-07T05:09:08Z</time>
      </trkpt>
      <trkpt lat="42.47309" lon="2.3079">
        <ele>1568.5</ele>
        <time>2019-01-07T05:09:09Z</time>
      </trkpt>
      <trkpt lat="42.4731" lon="2.30783">
        <ele>1567.1</ele>
        <time>2019-01-07T05:09:11Z</time>
      </trkpt>
      <trkpt lat="42.47307" lon="2.30778">
        <ele>1566.7</ele>
        <time>2019-01-07T05:09:12Z</time>
      </trkpt>
      <trkpt lat="42.47303" lon="2.30781">
        <ele>1566.5</ele>
        <time>2019-01-07T05:09:13Z</time>
      </trkpt>
      <trkpt lat="42.47307" lon="2.30777">
        <ele>1566.9</ele>
        <time>2019-01-07T05:09:14Z</time>
      </trkpt>
      <trkpt lat="42.47312" lon="2.30778">
        <ele>1556.3</ele>
        <time>2019-01-07T05:09:16Z</time>
      </trkpt>
      <trkpt lat="42.47312" lon="2.30779">
        <ele>1556.7</ele>
        <time>2019-01-07T05:09:16Z</time>
      </trkpt>
      <trkpt lat="42.47313" lon="2.30782">
        <ele>1557.6</ele>
        <time>2019-01-07T05:09:17Z</time>
      </trkpt>
      <trkpt lat="42.47313" lon="2.30785">
        <ele>1558.2</ele>
        <time>2019-01-07T05:09:17Z</time>
      </trkpt>
      <trkpt lat="42.47312" lon="2.30786">
        <ele>1558.2</ele>
        <time>2019-01-07T05:09:18Z</time>
      </trkpt>
      <trkpt lat="42.47311" lon="2.30786">
        <ele>1557.9</ele>
        <time>2019-01-07T05:09:18Z</time>
      </trkpt>
      <trkpt lat="42.47311" lon="2.30788">
        <ele>1558.3</ele>
        <time>2019-01-07T05:09:18Z</time>
      </trkpt>
      <trkpt lat="42.47311" lon="2.30788">
        <ele>1534.3</ele>
        <time>2019-01-07T05:09:18Z</time>
      </trkpt>
      <trkpt lat="42.47311" lon="2.30788">
        <ele>1534.3</ele>
        <time>2019-01-07T05:09:18Z</time>
      </trkpt>
      <trkpt lat="42.47315" lon="2.30787">
        <ele>1532.4</ele>
        <time>2019-01-07T05:09:19Z</time>
      </trkpt>
      <trkpt lat="42.47319" lon="2.30784">
        <ele>1532.2</ele>
        <time>2019-01-07T05:09:21Z</time>
      </trkpt>
      <trkpt lat="42.47323" lon="2.3078">
        <ele>1531.8</ele>
        <time>2019-01-07T05:09:22Z</time>
      </trkpt>
      <trkpt lat="42.47328" lon="2.30776">
        <ele>1531.5</ele>
        <time>2019-01-07T05:09:24Z</time>
      </trkpt>
      <trkpt lat="42.47333" lon="2.30775">
        <ele>1530.7</ele>
        <time>2019-01-07T05:09:25Z</time>
      </trkpt>
      <trkpt lat="42.47338" lon="2.30776">
        <ele>1530.1</ele>
        <time>2019-01-07T05:09:26Z</time>
      </trkpt>
      <trkpt lat="42.47343" lon="2.30778">
        <ele>1529.9</ele>
        <time>2019-01-07T05:09:27Z</time>
      </trkpt>
      <trkpt lat="42.47348" lon="2.30779">
        <ele>1530.4</ele>
        <time>2019-01-07T05:09:29Z</time>
      </trkpt>
      <trkpt lat="42.47352" lon="2.30775">
        <ele>1531</ele>
        <time>2019-01-07T05:09:30Z</time>
      </trkpt>
      <trkpt lat="42.47357" lon="2.30774">
        <ele>1531.8</ele>
        <time>2019-01-07T05:09:32Z</time>
      </trkpt>
      <trkpt lat="42.47361" lon="2.30771">
        <ele>1533.2</ele>
        <time>2019-01-07T05:09:33Z</time>
      </trkpt>
      <trkpt lat="42.47364" lon="2.30766">
        <ele>1534.3</ele>
        <time>2019-01-07T05:09:34Z</time>
      </trkpt>
      <trkpt lat="42.47368" lon="2.30762">
        <ele>1535.5</ele>
        <time>2019-01-07T05:09:35Z</time>
      </trkpt>
      <trkpt lat="42.47371" lon="2.30757">
        <ele>1537.8</ele>
        <time>2019-01-07T05:09:37Z</time>
      </trkpt>
      <trkpt lat="42.47375" lon="2.30752">
        <ele>1538.6</ele>
        <time>2019-01-07T05:09:38Z</time>
      </trkpt>
      <trkpt lat="42.47379" lon="2.30748">
        <ele>1539.4</ele>
        <time>2019-01-07T05:09:39Z</time>
      </trkpt>
      <trkpt lat="42.47382" lon="2.30741">
        <ele>1540.1</ele>
        <time>2019-01-07T05:09:41Z</time>
      </trkpt>
      <trkpt lat="42.47384" lon="2.30736">
        <ele>1540.8</ele>
        <time>2019-01-07T05:09:42Z</time>
      </trkpt>
      <trkpt lat="42.47389" lon="2.30732">
        <ele>1541.8</ele>
        <time>2019-01-07T05:09:44Z</time>
      </trkpt>
      <trkpt lat="42.47393" lon="2.30729">
        <ele>1542.5</ele>
        <time>2019-01-07T05:09:45Z</time>
      </trkpt>
      <trkpt lat="42.47398" lon="2.30727">
        <ele>1543.2</ele>
        <time>2019-01-07T05:09:46Z</time>
      </trkpt>
      <trkpt lat="42.47402" lon="2.30725">
        <ele>1543.8</ele>
        <time>2019-01-07T05:09:48Z</time>
      </trkpt>
      <trkpt lat="42.47406" lon="2.30722">
        <ele>1544.3</ele>
        <time>2019-01-07T05:09:49Z</time>
      </trkpt>
      <trkpt lat="42.47411" lon="2.30719">
        <ele>1544.7</ele>
        <time>2019-01-07T05:09:50Z</time>
      </trkpt>
      <trkpt lat="42.47415" lon="2.30716">
        <ele>1544.9</ele>
        <time>2019-01-07T05:09:51Z</time>
      </trkpt>
      <trkpt lat="42.4742" lon="2.30713">
        <ele>1545.2</ele>
        <time>2019-01-07T05:09:53Z</time>
      </trkpt>
      <trkpt lat="42.47424" lon="2.30709">
        <ele>1545.5</ele>
        <time>2019-01-07T05:09:54Z</time>
      </trkpt>
      <trkpt lat="42.47429" lon="2.30706">
        <ele>1545.3</ele>
        <time>2019-01-07T05:09:56Z</time>
      </trkpt>
      <trkpt lat="42.47434" lon="2.30704">
        <ele>1545.4</ele>
        <time>2019-01-07T05:09:57Z</time>
      </trkpt>
      <trkpt lat="42.47438" lon="2.30702">
        <ele>1545.3</ele>
        <time>2019-01-07T05:09:58Z</time>
      </trkpt>
      <trkpt lat="42.47443" lon="2.30698">
        <ele>1545.5</ele>
        <time>2019-01-07T05:10:00Z</time>
      </trkpt>
      <trkpt lat="42.47448" lon="2.30697">
        <ele>1545.6</ele>
        <time>2019-01-07T05:10:01Z</time>
      </trkpt>
      <trkpt lat="42.47452" lon="2.30694">
        <ele>1545.8</ele>
        <time>2019-01-07T05:10:02Z</time>
      </trkpt>
      <trkpt lat="42.47457" lon="2.3069">
        <ele>1545.9</ele>
        <time>2019-01-07T05:10:04Z</time>
      </trkpt>
      <trkpt lat="42.47462" lon="2.30686">
        <ele>1545.8</ele>
        <time>2019-01-07T05:10:05Z</time>
      </trkpt>
      <trkpt lat="42.47466" lon="2.30682">
        <ele>1545.8</ele>
        <time>2019-01-07T05:10:07Z</time>
      </trkpt>
      <trkpt lat="42.4747" lon="2.30676">
        <ele>1545.9</ele>
        <time>2019-01-07T05:10:08Z</time>
      </trkpt>
      <trkpt lat="42.47474" lon="2.30673">
        <ele>1545.8</ele>
        <time>2019-01-07T05:10:09Z</time>
      </trkpt>
      <trkpt lat="42.47479" lon="2.30672">
        <ele>1545.9</ele>
        <time>2019-01-07T05:10:11Z</time>
      </trkpt>
      <trkpt lat="42.47484" lon="2.3067">
        <ele>1545.9</ele>
        <time>2019-01-07T05:10:12Z</time>
      </trkpt>
      <trkpt lat="42.47488" lon="2.30669">
        <ele>1546.4</ele>
        <time>2019-01-07T05:10:13Z</time>
      </trkpt>
      <trkpt lat="42.47494" lon="2.30666">
        <ele>1546.7</ele>
        <time>2019-01-07T05:10:15Z</time>
      </trkpt>
      <trkpt lat="42.47497" lon="2.30661">
        <ele>1547.2</ele>
        <time>2019-01-07T05:10:16Z</time>
      </trkpt>
      <trkpt lat="42.47501" lon="2.30659">
        <ele>1548.2</ele>
        <time>2019-01-07T05:10:17Z</time>
      </trkpt>
      <trkpt lat="42.47507" lon="2.30656">
        <ele>1548.3</ele>
        <time>2019-01-07T05:10:19Z</time>
      </trkpt>
      <trkpt lat="42.47512" lon="2.30654">
        <ele>1548.4</ele>
        <time>2019-01-07T05:10:20Z</time>
      </trkpt>
      <trkpt lat="42.47517" lon="2.30653">
        <ele>1548.8</ele>
        <time>2019-01-07T05:10:22Z</time>
      </trkpt>
      <trkpt lat="42.47523" lon="2.30652">
        <ele>1549.3</ele>
        <time>2019-01-07T05:10:23Z</time>
      </trkpt>
      <trkpt lat="42.47527" lon="2.30648">
        <ele>1549.5</ele>
        <time>2019-01-07T05:10:25Z</time>
      </trkpt>
      <trkpt lat="42.47532" lon="2.30644">
        <ele>1549.2</ele>
        <time>2019-01-07T05:10:26Z</time>
      </trkpt>
      <trkpt lat="42.47537" lon="2.3064">
        <ele>1549.4</ele>
        <time>2019-01-07T05:10:28Z</time>
      </trkpt>
      <trkpt lat="42.47542" lon="2.30637">
        <ele>1549.4</ele>
        <time>2019-01-07T05:10:29Z</time>
      </trkpt>
      <trkpt lat="42.47546" lon="2.30634">
        <ele>1549.2</ele>
        <time>2019-01-07T05:10:30Z</time>
      </trkpt>
      <trkpt lat="42.47551" lon="2.30631">
        <ele>1549.1</ele>
        <time>2019-01-07T05:10:32Z</time>
      </trkpt>
      <trkpt lat="42.47555" lon="2.30627">
        <ele>1549.2</ele>
        <time>2019-01-07T05:10:33Z</time>
      </trkpt>
      <trkpt lat="42.4756" lon="2.30624">
        <ele>1549.1</ele>
        <time>2019-01-07T05:10:35Z</time>
      </trkpt>
      <trkpt lat="42.47564" lon="2.3062">
        <ele>1549.1</ele>
        <time>2019-01-07T05:10:36Z</time>
      </trkpt>
      <trkpt lat="42.47569" lon="2.30617">
        <ele>1549</ele>
        <time>2019-01-07T05:10:37Z</time>
      </trkpt>
      <trkpt lat="42.47574" lon="2.30612">
        <ele>1549</ele>
        <time>2019-01-07T05:10:39Z</time>
      </trkpt>
      <trkpt lat="42.47578" lon="2.30607">
        <ele>1549</ele>
        <time>2019-01-07T05:10:40Z</time>
      </trkpt>
      <trkpt lat="42.47582" lon="2.30605">
        <ele>1549.3</ele>
        <time>2019-01-07T05:10:42Z</time>
      </trkpt>
      <trkpt lat="42.47588" lon="2.30606">
        <ele>1548.9</ele>
        <time>2019-01-07T05:10:43Z</time>
      </trkpt>
      <trkpt lat="42.47592" lon="2.3061">
        <ele>1547.8</ele>
        <time>2019-01-07T05:10:45Z</time>
      </trkpt>
      <trkpt lat="42.47596" lon="2.30613">
        <ele>1547.2</ele>
        <time>2019-01-07T05:10:46Z</time>
      </trkpt>
      <trkpt lat="42.47601" lon="2.30618">
        <ele>1546.9</ele>
        <time>2019-01-07T05:10:47Z</time>
      </trkpt>
      <trkpt lat="42.47604" lon="2.30623">
        <ele>1546.5</ele>
        <time>2019-01-07T05:10:49Z</time>
      </trkpt>
      <trkpt lat="42.47607" lon="2.30629">
        <ele>1546.6</ele>
        <time>2019-01-07T05:10:50Z</time>
      </trkpt>
      <trkpt lat="42.4761" lon="2.30635">
        <ele>1546.6</ele>
        <time>2019-01-07T05:10:52Z</time>
      </trkpt>
      <trkpt lat="42.47614" lon="2.3064">
        <ele>1546.8</ele>
        <time>2019-01-07T05:10:53Z</time>
      </trkpt>
      <trkpt lat="42.47618" lon="2.30645">
        <ele>1546.8</ele>
        <time>2019-01-07T05:10:54Z</time>
      </trkpt>
      <trkpt lat="42.47622" lon="2.3065">
        <ele>1546.7</ele>
        <time>2019-01-07T05:10:56Z</time>
      </trkpt>
      <trkpt lat="42.47627" lon="2.30654">
        <ele>1546.7</ele>
        <time>2019-01-07T05:10:57Z</time>
      </trkpt>
      <trkpt lat="42.47632" lon="2.30657">
        <ele>1546.7</ele>
        <time>2019-01-07T05:10:59Z</time>
      </trkpt>
      <trkpt lat="42.47635" lon="2.30661">
        <ele>1546.8</ele>
        <time>2019-01-07T05:11:00Z</time>
      </trkpt>
      <trkpt lat="42.4764" lon="2.30664">
        <ele>1546.5</ele>
        <time>2019-01-07T05:11:01Z</time>
      </trkpt>
      <trkpt lat="42.47644" lon="2.30668">
        <ele>1546</ele>
        <time>2019-01-07T05:11:03Z</time>
      </trkpt>
      <trkpt lat="42.47649" lon="2.30672">
        <ele>1545.5</ele>
        <time>2019-01-07T05:11:04Z</time>
      </trkpt>
      <trkpt lat="42.47653" lon="2.30675">
        <ele>1544.8</ele>
        <time>2019-01-07T05:11:06Z</time>
      </trkpt>
      <trkpt lat="42.47658" lon="2.30679">
        <ele>1544.2</ele>
        <time>2019-01-07T05:11:07Z</time>
      </trkpt>
      <trkpt lat="42.47662" lon="2.30683">
        <ele>1543.8</ele>
        <time>2019-01-07T05:11:08Z</time>
      </trkpt>
      <trkpt lat="42.47666" lon="2.30687">
        <ele>1543.6</ele>
        <time>2019-01-07T05:11:10Z</time>
      </trkpt>
      <trkpt lat="42.47671" lon="2.30689">
        <ele>1542.9</ele>
        <time>2019-01-07T05:11:11Z</time>
      </trkpt>
      <trkpt lat="42.47675" lon="2.30694">
        <ele>1542.6</ele>
        <time>2019-01-07T05:11:13Z</time>
      </trkpt>
      <trkpt lat="42.47679" lon="2.30701">
        <ele>1542.5</ele>
        <time>2019-01-07T05:11:14Z</time>
      </trkpt>
      <trkpt lat="42.47681" lon="2.30706">
        <ele>1542.1</ele>
        <time>2019-01-07T05:11:15Z</time>
      </trkpt>
      <trkpt lat="42.47685" lon="2.30711">
        <ele>1541.4</ele>
        <time>2019-01-07T05:11:17Z</time>
      </trkpt>
      <trkpt lat="42.47689" lon="2.30716">
        <ele>1540.9</ele>
        <time>2019-01-07T05:11:18Z</time>
      </trkpt>
      <trkpt lat="42.47693" lon="2.30721">
        <ele>1540.1</ele>
        <time>2019-01-07T05:11:20Z</time>
      </trkpt>
      <trkpt lat="42.47693" lon="2.30727">
        <ele>1540</ele>
        <time>2019-01-07T05:11:21Z</time>
      </trkpt>
      <trkpt lat="42.47695" lon="2.30734">
        <ele>1539.8</ele>
        <time>2019-01-07T05:11:22Z</time>
      </trkpt>
      <trkpt lat="42.47698" lon="2.30739">
        <ele>1539.7</ele>
        <time>2019-01-07T05:11:24Z</time>
      </trkpt>
      <trkpt lat="42.47703" lon="2.3074">
        <ele>1539.9</ele>
        <time>2019-01-07T05:11:25Z</time>
      </trkpt>
      <trkpt lat="42.47705" lon="2.30734">
        <ele>1540.3</ele>
        <time>2019-01-07T05:11:26Z</time>
      </trkpt>
      <trkpt lat="42.47709" lon="2.30729">
        <ele>1540.2</ele>
        <time>2019-01-07T05:11:28Z</time>
      </trkpt>
      <trkpt lat="42.47713" lon="2.3073">
        <ele>1540.3</ele>
        <time>2019-01-07T05:11:29Z</time>
      </trkpt>
      <trkpt lat="42.47719" lon="2.30731">
        <ele>1541</ele>
        <time>2019-01-07T05:11:30Z</time>
      </trkpt>
      <trkpt lat="42.47722" lon="2.30726">
        <ele>1541.7</ele>
        <time>2019-01-07T05:11:32Z</time>
      </trkpt>
      <trkpt lat="42.47725" lon="2.3072">
        <ele>1542.4</ele>
        <time>2019-01-07T05:11:33Z</time>
      </trkpt>
      <trkpt lat="42.47727" lon="2.30715">
        <ele>1543.1</ele>
        <time>2019-01-07T05:11:34Z</time>
      </trkpt>
      <trkpt lat="42.47729" lon="2.30709">
        <ele>1543.7</ele>
        <time>2019-01-07T05:11:35Z</time>
      </trkpt>
      <trkpt lat="42.47731" lon="2.30702">
        <ele>1543.9</ele>
        <time>2019-01-07T05:11:37Z</time>
      </trkpt>
      <trkpt lat="42.47733" lon="2.30697">
        <ele>1543.9</ele>
        <time>2019-01-07T05:11:38Z</time>
      </trkpt>
      <trkpt lat="42.47736" lon="2.30692">
        <ele>1543.8</ele>
        <time>2019-01-07T05:11:39Z</time>
      </trkpt>
      <trkpt lat="42.47736" lon="2.30685">
        <ele>1543.7</ele>
        <time>2019-01-07T05:11:41Z</time>
      </trkpt>
      <trkpt lat="42.47737" lon="2.30679">
        <ele>1543.7</ele>
        <time>2019-01-07T05:11:42Z</time>
      </trkpt>
      <trkpt lat="42.47738" lon="2.30673">
        <ele>1543.9</ele>
        <time>2019-01-07T05:11:43Z</time>
      </trkpt>
      <trkpt lat="42.47741" lon="2.30668">
        <ele>1544.1</ele>
        <time>2019-01-07T05:11:44Z</time>
      </trkpt>
      <trkpt lat="42.47744" lon="2.30662">
        <ele>1544.1</ele>
        <time>2019-01-07T05:11:46Z</time>
      </trkpt>
      <trkpt lat="42.47744" lon="2.30656">
        <ele>1545.8</ele>
        <time>2019-01-07T05:11:47Z</time>
      </trkpt>
      <trkpt lat="42.47747" lon="2.30649">
        <ele>1547.1</ele>
        <time>2019-01-07T05:11:48Z</time>
      </trkpt>
      <trkpt lat="42.47749" lon="2.30643">
        <ele>1547.7</ele>
        <time>2019-01-07T05:11:50Z</time>
      </trkpt>
      <trkpt lat="42.47753" lon="2.30641">
        <ele>1549.2</ele>
        <time>2019-01-07T05:11:51Z</time>
      </trkpt>
      <trkpt lat="42.47749" lon="2.30638">
        <ele>1549.2</ele>
        <time>2019-01-07T05:11:52Z</time>
      </trkpt>
      <trkpt lat="42.47745" lon="2.30637">
        <ele>1549.2</ele>
        <time>2019-01-07T05:11:53Z</time>
      </trkpt>
      <trkpt lat="42.47749" lon="2.30634">
        <ele>1548.7</ele>
        <time>2019-01-07T05:11:55Z</time>
      </trkpt>
      <trkpt lat="42.47749" lon="2.3064">
        <ele>1549.1</ele>
        <time>2019-01-07T05:11:56Z</time>
      </trkpt>
      <trkpt lat="42.47745" lon="2.30638">
        <ele>1548.6</ele>
        <time>2019-01-07T05:11:57Z</time>
      </trkpt>
      <trkpt lat="42.47746" lon="2.30643">
        <ele>1548.4</ele>
        <time>2019-01-07T05:11:59Z</time>
      </trkpt>
      <trkpt lat="42.47746" lon="2.3065">
        <ele>1547.2</ele>
        <time>2019-01-07T05:12:00Z</time>
      </trkpt>
      <trkpt lat="42.47746" lon="2.30656">
        <ele>1546.6</ele>
        <time>2019-01-07T05:12:01Z</time>
      </trkpt>
      <trkpt lat="42.47744" lon="2.30662">
        <ele>1545.4</ele>
        <time>2019-01-07T05:12:02Z</time>
      </trkpt>
      <trkpt lat="42.4774" lon="2.30665">
        <ele>1544.5</ele>
        <time>2019-01-07T05:12:04Z</time>
      </trkpt>
      <trkpt lat="42.47736" lon="2.30668">
        <ele>1543.6</ele>
        <time>2019-01-07T05:12:05Z</time>
      </trkpt>
      <trkpt lat="42.47731" lon="2.30665">
        <ele>1541.1</ele>
        <time>2019-01-07T05:12:06Z</time>
      </trkpt>
      <trkpt lat="42.47727" lon="2.30662">
        <ele>1540</ele>
        <time>2019-01-07T05:12:08Z</time>
      </trkpt>
      <trkpt lat="42.47724" lon="2.30657">
        <ele>1537.7</ele>
        <time>2019-01-07T05:12:09Z</time>
      </trkpt>
      <trkpt lat="42.4772" lon="2.3066">
        <ele>1537.1</ele>
        <time>2019-01-07T05:12:10Z</time>
      </trkpt>
      <trkpt lat="42.47719" lon="2.30666">
        <ele>1537.5</ele>
        <time>2019-01-07T05:12:11Z</time>
      </trkpt>
      <trkpt lat="42.47717" lon="2.3066">
        <ele>1536</ele>
        <time>2019-01-07T05:12:13Z</time>
      </trkpt>
      <trkpt lat="42.47714" lon="2.30654">
        <ele>1534.6</ele>
        <time>2019-01-07T05:12:14Z</time>
      </trkpt>
      <trkpt lat="42.47711" lon="2.30649">
        <ele>1533</ele>
        <time>2019-01-07T05:12:15Z</time>
      </trkpt>
      <trkpt lat="42.47707" lon="2.30645">
        <ele>1531.5</ele>
        <time>2019-01-07T05:12:17Z</time>
      </trkpt>
      <trkpt lat="42.47703" lon="2.30641">
        <ele>1530.3</ele>
        <time>2019-01-07T05:12:18Z</time>
      </trkpt>
      <trkpt lat="42.47698" lon="2.30639">
        <ele>1528.7</ele>
        <time>2019-01-07T05:12:19Z</time>
      </trkpt>
      <trkpt lat="42.47698" lon="2.30632">
        <ele>1527.1</ele>
        <time>2019-01-07T05:12:21Z</time>
      </trkpt>
      <trkpt lat="42.47695" lon="2.30626">
        <ele>1526.7</ele>
        <time>2019-01-07T05:12:22Z</time>
      </trkpt>
      <trkpt lat="42.47694" lon="2.3062">
        <ele>1526.2</ele>
        <time>2019-01-07T05:12:23Z</time>
      </trkpt>
      <trkpt lat="42.47694" lon="2.30613">
        <ele>1525.6</ele>
        <time>2019-01-07T05:12:25Z</time>
      </trkpt>
      <trkpt lat="42.47695" lon="2.30606">
        <ele>1525.2</ele>
        <time>2019-01-07T05:12:26Z</time>
      </trkpt>
      <trkpt lat="42.47695" lon="2.306">
        <ele>1524.8</ele>
        <time>2019-01-07T05:12:27Z</time>
      </trkpt>
      <trkpt lat="42.47694" lon="2.30592">
        <ele>1524.3</ele>
        <time>2019-01-07T05:12:29Z</time>
      </trkpt>
      <trkpt lat="42.47693" lon="2.30585">
        <ele>1523.2</ele>
        <time>2019-01-07T05:12:30Z</time>
      </trkpt>
      <trkpt lat="42.4769" lon="2.30579">
        <ele>1521.7</ele>
        <time>2019-01-07T05:12:32Z</time>
      </trkpt>
      <trkpt lat="42.47689" lon="2.30573">
        <ele>1520.4</ele>
        <time>2019-01-07T05:12:33Z</time>
      </trkpt>
      <trkpt lat="42.47688" lon="2.30566">
        <ele>1519.3</ele>
        <time>2019-01-07T05:12:34Z</time>
      </trkpt>
      <trkpt lat="42.47686" lon="2.3056">
        <ele>1518.4</ele>
        <time>2019-01-07T05:12:35Z</time>
      </trkpt>
      <trkpt lat="42.47684" lon="2.30555">
        <ele>1516.9</ele>
        <time>2019-01-07T05:12:37Z</time>
      </trkpt>
      <trkpt lat="42.47684" lon="2.30547">
        <ele>1516.1</ele>
        <time>2019-01-07T05:12:38Z</time>
      </trkpt>
      <trkpt lat="42.47681" lon="2.30539">
        <ele>1514.9</ele>
        <time>2019-01-07T05:12:40Z</time>
      </trkpt>
      <trkpt lat="42.47679" lon="2.30534">
        <ele>1513.6</ele>
        <time>2019-01-07T05:12:41Z</time>
      </trkpt>
      <trkpt lat="42.47678" lon="2.30527">
        <ele>1511.5</ele>
        <time>2019-01-07T05:12:42Z</time>
      </trkpt>
      <trkpt lat="42.47679" lon="2.30521">
        <ele>1510.2</ele>
        <time>2019-01-07T05:12:44Z</time>
      </trkpt>
      <trkpt lat="42.4768" lon="2.30514">
        <ele>1509.5</ele>
        <time>2019-01-07T05:12:45Z</time>
      </trkpt>
      <trkpt lat="42.47678" lon="2.30507">
        <ele>1508</ele>
        <time>2019-01-07T05:12:46Z</time>
      </trkpt>
      <trkpt lat="42.47677" lon="2.305">
        <ele>1506.4</ele>
        <time>2019-01-07T05:12:48Z</time>
      </trkpt>
      <trkpt lat="42.47677" lon="2.30493">
        <ele>1505.2</ele>
        <time>2019-01-07T05:12:49Z</time>
      </trkpt>
      <trkpt lat="42.47678" lon="2.30487">
        <ele>1504</ele>
        <time>2019-01-07T05:12:50Z</time>
      </trkpt>
      <trkpt lat="42.47678" lon="2.3048">
        <ele>1503</ele>
        <time>2019-01-07T05:12:52Z</time>
      </trkpt>
      <trkpt lat="42.47676" lon="2.30474">
        <ele>1502</ele>
        <time>2019-01-07T05:12:53Z</time>
      </trkpt>
      <trkpt lat="42.47673" lon="2.30468">
        <ele>1500.8</ele>
        <time>2019-01-07T05:12:54Z</time>
      </trkpt>
      <trkpt lat="42.47672" lon="2.30462">
        <ele>1500.1</ele>
        <time>2019-01-07T05:12:56Z</time>
      </trkpt>
      <trkpt lat="42.4767" lon="2.30456">
        <ele>1498.2</ele>
        <time>2019-01-07T05:12:57Z</time>
      </trkpt>
      <trkpt lat="42.47668" lon="2.30449">
        <ele>1497.4</ele>
        <time>2019-01-07T05:12:58Z</time>
      </trkpt>
      <trkpt lat="42.47664" lon="2.30445">
        <ele>1496</ele>
        <time>2019-01-07T05:13:00Z</time>
      </trkpt>
      <trkpt lat="42.47664" lon="2.30436">
        <ele>1495.6</ele>
        <time>2019-01-07T05:13:01Z</time>
      </trkpt>
      <trkpt lat="42.47664" lon="2.30429">
        <ele>1495.1</ele>
        <time>2019-01-07T05:13:03Z</time>
      </trkpt>
      <trkpt lat="42.47661" lon="2.30421">
        <ele>1494.1</ele>
        <time>2019-01-07T05:13:05Z</time>
      </trkpt>
      <trkpt lat="42.4766" lon="2.30415">
        <ele>1493.7</ele>
        <time>2019-01-07T05:13:06Z</time>
      </trkpt>
      <trkpt lat="42.47658" lon="2.30408">
        <ele>1492</ele>
        <time>2019-01-07T05:13:08Z</time>
      </trkpt>
      <trkpt lat="42.47657" lon="2.30399">
        <ele>1491.5</ele>
        <time>2019-01-07T05:13:09Z</time>
      </trkpt>
      <trkpt lat="42.47655" lon="2.30393">
        <ele>1490.2</ele>
        <time>2019-01-07T05:13:11Z</time>
      </trkpt>
      <trkpt lat="42.47651" lon="2.3039">
        <ele>1489.7</ele>
        <time>2019-01-07T05:13:12Z</time>
      </trkpt>
      <trkpt lat="42.47647" lon="2.30386">
        <ele>1489</ele>
        <time>2019-01-07T05:13:13Z</time>
      </trkpt>
      <trkpt lat="42.47644" lon="2.3038">
        <ele>1487.5</ele>
        <time>2019-01-07T05:13:15Z</time>
      </trkpt>
      <trkpt lat="42.4764" lon="2.30374">
        <ele>1487</ele>
        <time>2019-01-07T05:13:16Z</time>
      </trkpt>
      <trkpt lat="42.47637" lon="2.3037">
        <ele>1485.6</ele>
        <time>2019-01-07T05:13:17Z</time>
      </trkpt>
      <trkpt lat="42.47634" lon="2.30365">
        <ele>1485.3</ele>
        <time>2019-01-07T05:13:19Z</time>
      </trkpt>
      <trkpt lat="42.4763" lon="2.30361">
        <ele>1484.6</ele>
        <time>2019-01-07T05:13:20Z</time>
      </trkpt>
      <trkpt lat="42.47625" lon="2.30356">
        <ele>1484.4</ele>
        <time>2019-01-07T05:13:22Z</time>
      </trkpt>
      <trkpt lat="42.4762" lon="2.30353">
        <ele>1484.4</ele>
        <time>2019-01-07T05:13:23Z</time>
      </trkpt>
      <trkpt lat="42.47616" lon="2.30355">
        <ele>1484</ele>
        <time>2019-01-07T05:13:24Z</time>
      </trkpt>
      <trkpt lat="42.47612" lon="2.30358">
        <ele>1483.5</ele>
        <time>2019-01-07T05:13:25Z</time>
      </trkpt>
      <trkpt lat="42.47608" lon="2.30361">
        <ele>1482.9</ele>
        <time>2019-01-07T05:13:27Z</time>
      </trkpt>
      <trkpt lat="42.47605" lon="2.30365">
        <ele>1482.4</ele>
        <time>2019-01-07T05:13:28Z</time>
      </trkpt>
      <trkpt lat="42.476" lon="2.30367">
        <ele>1481.8</ele>
        <time>2019-01-07T05:13:29Z</time>
      </trkpt>
      <trkpt lat="42.47595" lon="2.30367">
        <ele>1481.4</ele>
        <time>2019-01-07T05:13:30Z</time>
      </trkpt>
      <trkpt lat="42.47591" lon="2.30363">
        <ele>1481.4</ele>
        <time>2019-01-07T05:13:32Z</time>
      </trkpt>
      <trkpt lat="42.47589" lon="2.30358">
        <ele>1481.1</ele>
        <time>2019-01-07T05:13:33Z</time>
      </trkpt>
      <trkpt lat="42.4759" lon="2.30351">
        <ele>1480.2</ele>
        <time>2019-01-07T05:13:34Z</time>
      </trkpt>
      <trkpt lat="42.47594" lon="2.30345">
        <ele>1479.7</ele>
        <time>2019-01-07T05:13:36Z</time>
      </trkpt>
      <trkpt lat="42.47596" lon="2.30338">
        <ele>1478.7</ele>
        <time>2019-01-07T05:13:37Z</time>
      </trkpt>
      <trkpt lat="42.47597" lon="2.30332">
        <ele>1478.2</ele>
        <time>2019-01-07T05:13:39Z</time>
      </trkpt>
      <trkpt lat="42.47596" lon="2.30325">
        <ele>1477.6</ele>
        <time>2019-01-07T05:13:40Z</time>
      </trkpt>
      <trkpt lat="42.47593" lon="2.3032">
        <ele>1476.4</ele>
        <time>2019-01-07T05:13:41Z</time>
      </trkpt>
      <trkpt lat="42.47588" lon="2.30318">
        <ele>1475.9</ele>
        <time>2019-01-07T05:13:43Z</time>
      </trkpt>
      <trkpt lat="42.4759" lon="2.30313">
        <ele>1476.1</ele>
        <time>2019-01-07T05:13:44Z</time>
      </trkpt>
      <trkpt lat="42.47589" lon="2.30307">
        <ele>1475.9</ele>
        <time>2019-01-07T05:13:45Z</time>
      </trkpt>
      <trkpt lat="42.47586" lon="2.30301">
        <ele>1476.7</ele>
        <time>2019-01-07T05:13:46Z</time>
      </trkpt>
      <trkpt lat="42.47582" lon="2.30297">
        <ele>1477.4</ele>
        <time>2019-01-07T05:13:48Z</time>
      </trkpt>
      <trkpt lat="42.47578" lon="2.30294">
        <ele>1477.9</ele>
        <time>2019-01-07T05:13:49Z</time>
      </trkpt>
      <trkpt lat="42.47575" lon="2.30289">
        <ele>1478.6</ele>
        <time>2019-01-07T05:13:50Z</time>
      </trkpt>
      <trkpt lat="42.47571" lon="2.30284">
        <ele>1479.4</ele>
        <time>2019-01-07T05:13:52Z</time>
      </trkpt>
      <trkpt lat="42.47567" lon="2.30279">
        <ele>1479.7</ele>
        <time>2019-01-07T05:13:53Z</time>
      </trkpt>
      <trkpt lat="42.47564" lon="2.30275">
        <ele>1480</ele>
        <time>2019-01-07T05:13:54Z</time>
      </trkpt>
      <trkpt lat="42.4756" lon="2.30271">
        <ele>1480.2</ele>
        <time>2019-01-07T05:13:56Z</time>
      </trkpt>
      <trkpt lat="42.47557" lon="2.30266">
        <ele>1480.5</ele>
        <time>2019-01-07T05:13:57Z</time>
      </trkpt>
      <trkpt lat="42.47552" lon="2.30261">
        <ele>1481.1</ele>
        <time>2019-01-07T05:13:58Z</time>
      </trkpt>
      <trkpt lat="42.47549" lon="2.30256">
        <ele>1481.6</ele>
        <time>2019-01-07T05:14:00Z</time>
      </trkpt>
      <trkpt lat="42.47546" lon="2.30251">
        <ele>1482</ele>
        <time>2019-01-07T05:14:01Z</time>
      </trkpt>
      <trkpt lat="42.47543" lon="2.30246">
        <ele>1482.3</ele>
        <time>2019-01-07T05:14:02Z</time>
      </trkpt>
      <trkpt lat="42.47539" lon="2.3024">
        <ele>1482.6</ele>
        <time>2019-01-07T05:14:04Z</time>
      </trkpt>
      <trkpt lat="42.47535" lon="2.30236">
        <ele>1483.2</ele>
        <time>2019-01-07T05:14:05Z</time>
      </trkpt>
      <trkpt lat="42.47531" lon="2.30232">
        <ele>1483.6</ele>
        <time>2019-01-07T05:14:06Z</time>
      </trkpt>
      <trkpt lat="42.47528" lon="2.30226">
        <ele>1484.2</ele>
        <time>2019-01-07T05:14:08Z</time>
      </trkpt>
      <trkpt lat="42.47524" lon="2.30222">
        <ele>1484.8</ele>
        <time>2019-01-07T05:14:09Z</time>
      </trkpt>
      <trkpt lat="42.47521" lon="2.30218">
        <ele>1485.6</ele>
        <time>2019-01-07T05:14:10Z</time>
      </trkpt>
      <trkpt lat="42.47517" lon="2.30214">
        <ele>1486.7</ele>
        <time>2019-01-07T05:14:12Z</time>
      </trkpt>
      <trkpt lat="42.47513" lon="2.30211">
        <ele>1487.3</ele>
        <time>2019-01-07T05:14:13Z</time>
      </trkpt>
      <trkpt lat="42.47509" lon="2.30205">
        <ele>1488.4</ele>
        <time>2019-01-07T05:14:14Z</time>
      </trkpt>
      <trkpt lat="42.47506" lon="2.302">
        <ele>1489.1</ele>
        <time>2019-01-07T05:14:16Z</time>
      </trkpt>
      <trkpt lat="42.47503" lon="2.30196">
        <ele>1489.4</ele>
        <time>2019-01-07T05:14:17Z</time>
      </trkpt>
      <trkpt lat="42.475" lon="2.30192">
        <ele>1490</ele>
        <time>2019-01-07T05:14:18Z</time>
      </trkpt>
      <trkpt lat="42.47498" lon="2.30186">
        <ele>1490.5</ele>
        <time>2019-01-07T05:14:19Z</time>
      </trkpt>
      <trkpt lat="42.47495" lon="2.30181">
        <ele>1491.1</ele>
        <time>2019-01-07T05:14:21Z</time>
      </trkpt>
      <trkpt lat="42.47492" lon="2.30177">
        <ele>1491.7</ele>
        <time>2019-01-07T05:14:22Z</time>
      </trkpt>
      <trkpt lat="42.47488" lon="2.30173">
        <ele>1492.1</ele>
        <time>2019-01-07T05:14:23Z</time>
      </trkpt>
      <trkpt lat="42.47486" lon="2.30167">
        <ele>1493.3</ele>
        <time>2019-01-07T05:14:24Z</time>
      </trkpt>
      <trkpt lat="42.47482" lon="2.30164">
        <ele>1493.5</ele>
        <time>2019-01-07T05:14:25Z</time>
      </trkpt>
      <trkpt lat="42.47478" lon="2.3016">
        <ele>1494</ele>
        <time>2019-01-07T05:14:27Z</time>
      </trkpt>
      <trkpt lat="42.47473" lon="2.30157">
        <ele>1494.5</ele>
        <time>2019-01-07T05:14:28Z</time>
      </trkpt>
      <trkpt lat="42.47469" lon="2.30154">
        <ele>1495.1</ele>
        <time>2019-01-07T05:14:29Z</time>
      </trkpt>
      <trkpt lat="42.47466" lon="2.30148">
        <ele>1495.8</ele>
        <time>2019-01-07T05:14:31Z</time>
      </trkpt>
      <trkpt lat="42.47463" lon="2.30143">
        <ele>1496.2</ele>
        <time>2019-01-07T05:14:32Z</time>
      </trkpt>
      <trkpt lat="42.4746" lon="2.30136">
        <ele>1496.4</ele>
        <time>2019-01-07T05:14:34Z</time>
      </trkpt>
      <trkpt lat="42.47456" lon="2.30132">
        <ele>1496.8</ele>
        <time>2019-01-07T05:14:35Z</time>
      </trkpt>
      <trkpt lat="42.47451" lon="2.30129">
        <ele>1497.6</ele>
        <time>2019-01-07T05:14:36Z</time>
      </trkpt>
      <trkpt lat="42.47446" lon="2.30126">
        <ele>1498</ele>
        <time>2019-01-07T05:14:38Z</time>
      </trkpt>
      <trkpt lat="42.47441" lon="2.30124">
        <ele>1498.5</ele>
        <time>2019-01-07T05:14:39Z</time>
      </trkpt>
      <trkpt lat="42.47437" lon="2.3012">
        <ele>1499.1</ele>
        <time>2019-01-07T05:14:41Z</time>
      </trkpt>
      <trkpt lat="42.47433" lon="2.30117">
        <ele>1500.1</ele>
        <time>2019-01-07T05:14:42Z</time>
      </trkpt>
      <trkpt lat="42.47426" lon="2.30114">
        <ele>1500</ele>
        <time>2019-01-07T05:14:44Z</time>
      </trkpt>
      <trkpt lat="42.47422" lon="2.30109">
        <ele>1501.1</ele>
        <time>2019-01-07T05:14:45Z</time>
      </trkpt>
      <trkpt lat="42.47418" lon="2.30107">
        <ele>1501.7</ele>
        <time>2019-01-07T05:14:46Z</time>
      </trkpt>
      <trkpt lat="42.47413" lon="2.30106">
        <ele>1501.9</ele>
        <time>2019-01-07T05:14:48Z</time>
      </trkpt>
      <trkpt lat="42.47406" lon="2.30102">
        <ele>1501</ele>
        <time>2019-01-07T05:14:50Z</time>
      </trkpt>
      <trkpt lat="42.474" lon="2.301">
        <ele>1501</ele>
        <time>2019-01-07T05:14:51Z</time>
      </trkpt>
      <trkpt lat="42.47395" lon="2.30097">
        <ele>1500</ele>
        <time>2019-01-07T05:14:53Z</time>
      </trkpt>
      <trkpt lat="42.47391" lon="2.30094">
        <ele>1500</ele>
        <time>2019-01-07T05:14:54Z</time>
      </trkpt>
      <trkpt lat="42.47385" lon="2.30088">
        <ele>1501</ele>
        <time>2019-01-07T05:14:56Z</time>
      </trkpt>
      <trkpt lat="42.4738" lon="2.30082">
        <ele>1502.5</ele>
        <time>2019-01-07T05:14:58Z</time>
      </trkpt>
      <trkpt lat="42.47375" lon="2.30078">
        <ele>1503</ele>
        <time>2019-01-07T05:14:59Z</time>
      </trkpt>
      <trkpt lat="42.47374" lon="2.30072">
        <ele>1504.1</ele>
        <time>2019-01-07T05:15:01Z</time>
      </trkpt>
      <trkpt lat="42.47375" lon="2.30066">
        <ele>1503.9</ele>
        <time>2019-01-07T05:15:02Z</time>
      </trkpt>
      <trkpt lat="42.47378" lon="2.3006">
        <ele>1503.3</ele>
        <time>2019-01-07T05:15:03Z</time>
      </trkpt>
      <trkpt lat="42.47377" lon="2.30053">
        <ele>1503.3</ele>
        <time>2019-01-07T05:15:05Z</time>
      </trkpt>
      <trkpt lat="42.47371" lon="2.30047">
        <ele>1503.1</ele>
        <time>2019-01-07T05:15:07Z</time>
      </trkpt>
      <trkpt lat="42.47367" lon="2.30041">
        <ele>1504.1</ele>
        <time>2019-01-07T05:15:08Z</time>
      </trkpt>
      <trkpt lat="42.47363" lon="2.30037">
        <ele>1504.5</ele>
        <time>2019-01-07T05:15:10Z</time>
      </trkpt>
      <trkpt lat="42.47361" lon="2.30031">
        <ele>1505.5</ele>
        <time>2019-01-07T05:15:11Z</time>
      </trkpt>
      <trkpt lat="42.47358" lon="2.30027">
        <ele>1507</ele>
        <time>2019-01-07T05:15:12Z</time>
      </trkpt>
      <trkpt lat="42.47356" lon="2.30021">
        <ele>1508.5</ele>
        <time>2019-01-07T05:15:13Z</time>
      </trkpt>
      <trkpt lat="42.47353" lon="2.30016">
        <ele>1509.4</ele>
        <time>2019-01-07T05:15:15Z</time>
      </trkpt>
      <trkpt lat="42.4735" lon="2.3001">
        <ele>1509.1</ele>
        <time>2019-01-07T05:15:16Z</time>
      </trkpt>
      <trkpt lat="42.47347" lon="2.30005">
        <ele>1510.7</ele>
        <time>2019-01-07T05:15:17Z</time>
      </trkpt>
      <trkpt lat="42.47346" lon="2.29999">
        <ele>1511.3</ele>
        <time>2019-01-07T05:15:19Z</time>
      </trkpt>
      <trkpt lat="42.47341" lon="2.29996">
        <ele>1512.1</ele>
        <time>2019-01-07T05:15:20Z</time>
      </trkpt>
      <trkpt lat="42.47338" lon="2.2999">
        <ele>1512.8</ele>
        <time>2019-01-07T05:15:21Z</time>
      </trkpt>
      <trkpt lat="42.47336" lon="2.29985">
        <ele>1513.1</ele>
        <time>2019-01-07T05:15:22Z</time>
      </trkpt>
      <trkpt lat="42.47336" lon="2.29978">
        <ele>1513.7</ele>
        <time>2019-01-07T05:15:24Z</time>
      </trkpt>
      <trkpt lat="42.47334" lon="2.29972">
        <ele>1514.8</ele>
        <time>2019-01-07T05:15:25Z</time>
      </trkpt>
      <trkpt lat="42.47333" lon="2.29965">
        <ele>1516.2</ele>
        <time>2019-01-07T05:15:26Z</time>
      </trkpt>
      <trkpt lat="42.4733" lon="2.2996">
        <ele>1517.1</ele>
        <time>2019-01-07T05:15:28Z</time>
      </trkpt>
      <trkpt lat="42.47327" lon="2.29955">
        <ele>1517.8</ele>
        <time>2019-01-07T05:15:29Z</time>
      </trkpt>
      <trkpt lat="42.47325" lon="2.29948">
        <ele>1518.2</ele>
        <time>2019-01-07T05:15:30Z</time>
      </trkpt>
      <trkpt lat="42.47322" lon="2.29944">
        <ele>1518.9</ele>
        <time>2019-01-07T05:15:32Z</time>
      </trkpt>
      <trkpt lat="42.4732" lon="2.29937">
        <ele>1519.3</ele>
        <time>2019-01-07T05:15:33Z</time>
      </trkpt>
      <trkpt lat="42.47316" lon="2.29933">
        <ele>1520</ele>
        <time>2019-01-07T05:15:34Z</time>
      </trkpt>
      <trkpt lat="42.47312" lon="2.29928">
        <ele>1521.2</ele>
        <time>2019-01-07T05:15:36Z</time>
      </trkpt>
      <trkpt lat="42.47309" lon="2.29924">
        <ele>1521.6</ele>
        <time>2019-01-07T05:15:37Z</time>
      </trkpt>
      <trkpt lat="42.47307" lon="2.29918">
        <ele>1521.9</ele>
        <time>2019-01-07T05:15:38Z</time>
      </trkpt>
      <trkpt lat="42.47304" lon="2.29913">
        <ele>1522.6</ele>
        <time>2019-01-07T05:15:40Z</time>
      </trkpt>
      <trkpt lat="42.47302" lon="2.29907">
        <ele>1523.6</ele>
        <time>2019-01-07T05:15:41Z</time>
      </trkpt>
      <trkpt lat="42.47307" lon="2.29906">
        <ele>1524.8</ele>
        <time>2019-01-07T05:15:42Z</time>
      </trkpt>
      <trkpt lat="42.47311" lon="2.29909">
        <ele>1525.9</ele>
        <time>2019-01-07T05:15:43Z</time>
      </trkpt>
      <trkpt lat="42.47315" lon="2.29912">
        <ele>1526.9</ele>
        <time>2019-01-07T05:15:45Z</time>
      </trkpt>
      <trkpt lat="42.47319" lon="2.29915">
        <ele>1527.6</ele>
        <time>2019-01-07T05:15:46Z</time>
      </trkpt>
      <trkpt lat="42.47317" lon="2.29909">
        <ele>1529.5</ele>
        <time>2019-01-07T05:15:47Z</time>
      </trkpt>
      <trkpt lat="42.47315" lon="2.29904">
        <ele>1530.1</ele>
        <time>2019-01-07T05:15:48Z</time>
      </trkpt>
      <trkpt lat="42.47313" lon="2.29898">
        <ele>1530.7</ele>
        <time>2019-01-07T05:15:50Z</time>
      </trkpt>
      <trkpt lat="42.4731" lon="2.29892">
        <ele>1531.3</ele>
        <time>2019-01-07T05:15:51Z</time>
      </trkpt>
      <trkpt lat="42.47306" lon="2.29888">
        <ele>1531.9</ele>
        <time>2019-01-07T05:15:52Z</time>
      </trkpt>
      <trkpt lat="42.47304" lon="2.29882">
        <ele>1532.9</ele>
        <time>2019-01-07T05:15:54Z</time>
      </trkpt>
      <trkpt lat="42.47308" lon="2.29878">
        <ele>1535.5</ele>
        <time>2019-01-07T05:15:55Z</time>
      </trkpt>
      <trkpt lat="42.47307" lon="2.29872">
        <ele>1537.3</ele>
        <time>2019-01-07T05:15:56Z</time>
      </trkpt>
      <trkpt lat="42.47303" lon="2.29868">
        <ele>1537.9</ele>
        <time>2019-01-07T05:15:58Z</time>
      </trkpt>
      <trkpt lat="42.473" lon="2.29864">
        <ele>1538.8</ele>
        <time>2019-01-07T05:15:59Z</time>
      </trkpt>
      <trkpt lat="42.47298" lon="2.29857">
        <ele>1539.7</ele>
        <time>2019-01-07T05:16:00Z</time>
      </trkpt>
      <trkpt lat="42.47296" lon="2.29852">
        <ele>1540.8</ele>
        <time>2019-01-07T05:16:01Z</time>
      </trkpt>
      <trkpt lat="42.47295" lon="2.29846">
        <ele>1541.8</ele>
        <time>2019-01-07T05:16:03Z</time>
      </trkpt>
      <trkpt lat="42.47292" lon="2.2984">
        <ele>1542.8</ele>
        <time>2019-01-07T05:16:04Z</time>
      </trkpt>
      <trkpt lat="42.47289" lon="2.29836">
        <ele>1543.9</ele>
        <time>2019-01-07T05:16:05Z</time>
      </trkpt>
      <trkpt lat="42.47286" lon="2.29832">
        <ele>1544.5</ele>
        <time>2019-01-07T05:16:06Z</time>
      </trkpt>
      <trkpt lat="42.47283" lon="2.29827">
        <ele>1545.4</ele>
        <time>2019-01-07T05:16:08Z</time>
      </trkpt>
      <trkpt lat="42.47279" lon="2.29822">
        <ele>1546.8</ele>
        <time>2019-01-07T05:16:09Z</time>
      </trkpt>
      <trkpt lat="42.47274" lon="2.29821">
        <ele>1547.6</ele>
        <time>2019-01-07T05:16:10Z</time>
      </trkpt>
      <trkpt lat="42.4727" lon="2.29817">
        <ele>1548.5</ele>
        <time>2019-01-07T05:16:12Z</time>
      </trkpt>
      <trkpt lat="42.4727" lon="2.29811">
        <ele>1549.8</ele>
        <time>2019-01-07T05:16:13Z</time>
      </trkpt>
      <trkpt lat="42.47265" lon="2.29807">
        <ele>1551</ele>
        <time>2019-01-07T05:16:14Z</time>
      </trkpt>
      <trkpt lat="42.47261" lon="2.29805">
        <ele>1551.7</ele>
        <time>2019-01-07T05:16:16Z</time>
      </trkpt>
      <trkpt lat="42.47263" lon="2.29799">
        <ele>1553.8</ele>
        <time>2019-01-07T05:16:17Z</time>
      </trkpt>
      <trkpt lat="42.4726" lon="2.29794">
        <ele>1555.2</ele>
        <time>2019-01-07T05:16:18Z</time>
      </trkpt>
      <trkpt lat="42.47255" lon="2.29791">
        <ele>1556.2</ele>
        <time>2019-01-07T05:16:20Z</time>
      </trkpt>
      <trkpt lat="42.4725" lon="2.29789">
        <ele>1557.3</ele>
        <time>2019-01-07T05:16:21Z</time>
      </trkpt>
      <trkpt lat="42.47247" lon="2.29785">
        <ele>1558.1</ele>
        <time>2019-01-07T05:16:22Z</time>
      </trkpt>
      <trkpt lat="42.47243" lon="2.29781">
        <ele>1559.3</ele>
        <time>2019-01-07T05:16:23Z</time>
      </trkpt>
      <trkpt lat="42.47239" lon="2.29778">
        <ele>1560.5</ele>
        <time>2019-01-07T05:16:25Z</time>
      </trkpt>
      <trkpt lat="42.47236" lon="2.29772">
        <ele>1561.6</ele>
        <time>2019-01-07T05:16:26Z</time>
      </trkpt>
      <trkpt lat="42.47233" lon="2.29767">
        <ele>1562.6</ele>
        <time>2019-01-07T05:16:27Z</time>
      </trkpt>
      <trkpt lat="42.47229" lon="2.29764">
        <ele>1563.4</ele>
        <time>2019-01-07T05:16:28Z</time>
      </trkpt>
      <trkpt lat="42.47226" lon="2.29759">
        <ele>1564.4</ele>
        <time>2019-01-07T05:16:30Z</time>
      </trkpt>
      <trkpt lat="42.47223" lon="2.29754">
        <ele>1565.2</ele>
        <time>2019-01-07T05:16:31Z</time>
      </trkpt>
      <trkpt lat="42.47219" lon="2.2975">
        <ele>1566.2</ele>
        <time>2019-01-07T05:16:32Z</time>
      </trkpt>
      <trkpt lat="42.47217" lon="2.29744">
        <ele>1567.1</ele>
        <time>2019-01-07T05:16:34Z</time>
      </trkpt>
      <trkpt lat="42.47213" lon="2.29739">
        <ele>1567.8</ele>
        <time>2019-01-07T05:16:35Z</time>
      </trkpt>
      <trkpt lat="42.47209" lon="2.29734">
        <ele>1568.8</ele>
        <time>2019-01-07T05:16:37Z</time>
      </trkpt>
      <trkpt lat="42.47205" lon="2.2973">
        <ele>1569.6</ele>
        <time>2019-01-07T05:16:38Z</time>
      </trkpt>
      <trkpt lat="42.47202" lon="2.29725">
        <ele>1570.2</ele>
        <time>2019-01-07T05:16:39Z</time>
      </trkpt>
      <trkpt lat="42.472" lon="2.2972">
        <ele>1571.1</ele>
        <time>2019-01-07T05:16:40Z</time>
      </trkpt>
      <trkpt lat="42.47196" lon="2.29715">
        <ele>1572.1</ele>
        <time>2019-01-07T05:16:42Z</time>
      </trkpt>
      <trkpt lat="42.47192" lon="2.29711">
        <ele>1572.4</ele>
        <time>2019-01-07T05:16:43Z</time>
      </trkpt>
      <trkpt lat="42.47188" lon="2.29707">
        <ele>1573.1</ele>
        <time>2019-01-07T05:16:44Z</time>
      </trkpt>
      <trkpt lat="42.47184" lon="2.29703">
        <ele>1573.7</ele>
        <time>2019-01-07T05:16:46Z</time>
      </trkpt>
      <trkpt lat="42.4718" lon="2.297">
        <ele>1574.3</ele>
        <time>2019-01-07T05:16:47Z</time>
      </trkpt>
      <trkpt lat="42.47175" lon="2.29698">
        <ele>1575.2</ele>
        <time>2019-01-07T05:16:48Z</time>
      </trkpt>
      <trkpt lat="42.47171" lon="2.29694">
        <ele>1575.9</ele>
        <time>2019-01-07T05:16:49Z</time>
      </trkpt>
      <trkpt lat="42.47168" lon="2.29689">
        <ele>1576.5</ele>
        <time>2019-01-07T05:16:51Z</time>
      </trkpt>
      <trkpt lat="42.47164" lon="2.29685">
        <ele>1577.5</ele>
        <time>2019-01-07T05:16:52Z</time>
      </trkpt>
      <trkpt lat="42.47162" lon="2.29679">
        <ele>1578.2</ele>
        <time>2019-01-07T05:16:53Z</time>
      </trkpt>
      <trkpt lat="42.47158" lon="2.29674">
        <ele>1579.2</ele>
        <time>2019-01-07T05:16:55Z</time>
      </trkpt>
      <trkpt lat="42.47155" lon="2.29669">
        <ele>1580.2</ele>
        <time>2019-01-07T05:16:56Z</time>
      </trkpt>
      <trkpt lat="42.47152" lon="2.29664">
        <ele>1580.6</ele>
        <time>2019-01-07T05:16:57Z</time>
      </trkpt>
      <trkpt lat="42.47148" lon="2.29659">
        <ele>1581.3</ele>
        <time>2019-01-07T05:16:59Z</time>
      </trkpt>
      <trkpt lat="42.47144" lon="2.29654">
        <ele>1582.2</ele>
        <time>2019-01-07T05:17:00Z</time>
      </trkpt>
      <trkpt lat="42.4714" lon="2.2965">
        <ele>1583.4</ele>
        <time>2019-01-07T05:17:02Z</time>
      </trkpt>
      <trkpt lat="42.47137" lon="2.29644">
        <ele>1584.5</ele>
        <time>2019-01-07T05:17:03Z</time>
      </trkpt>
      <trkpt lat="42.47133" lon="2.2964">
        <ele>1585.4</ele>
        <time>2019-01-07T05:17:04Z</time>
      </trkpt>
      <trkpt lat="42.47131" lon="2.29635">
        <ele>1585.8</ele>
        <time>2019-01-07T05:17:05Z</time>
      </trkpt>
      <trkpt lat="42.47127" lon="2.29631">
        <ele>1586.5</ele>
        <time>2019-01-07T05:17:07Z</time>
      </trkpt>
      <trkpt lat="42.47123" lon="2.29628">
        <ele>1587.3</ele>
        <time>2019-01-07T05:17:08Z</time>
      </trkpt>
      <trkpt lat="42.47118" lon="2.29627">
        <ele>1588.2</ele>
        <time>2019-01-07T05:17:09Z</time>
      </trkpt>
      <trkpt lat="42.47114" lon="2.29624">
        <ele>1589.3</ele>
        <time>2019-01-07T05:17:11Z</time>
      </trkpt>
      <trkpt lat="42.47111" lon="2.29618">
        <ele>1589.9</ele>
        <time>2019-01-07T05:17:12Z</time>
      </trkpt>
      <trkpt lat="42.47107" lon="2.29614">
        <ele>1590.7</ele>
        <time>2019-01-07T05:17:13Z</time>
      </trkpt>
      <trkpt lat="42.47103" lon="2.2961">
        <ele>1591.6</ele>
        <time>2019-01-07T05:17:15Z</time>
      </trkpt>
      <trkpt lat="42.47099" lon="2.29605">
        <ele>1592.3</ele>
        <time>2019-01-07T05:17:16Z</time>
      </trkpt>
      <trkpt lat="42.47096" lon="2.296">
        <ele>1593</ele>
        <time>2019-01-07T05:17:17Z</time>
      </trkpt>
      <trkpt lat="42.47094" lon="2.29595">
        <ele>1593.5</ele>
        <time>2019-01-07T05:17:19Z</time>
      </trkpt>
      <trkpt lat="42.4709" lon="2.2959">
        <ele>1594.8</ele>
        <time>2019-01-07T05:17:20Z</time>
      </trkpt>
      <trkpt lat="42.47088" lon="2.29585">
        <ele>1595.3</ele>
        <time>2019-01-07T05:17:21Z</time>
      </trkpt>
      <trkpt lat="42.47084" lon="2.2958">
        <ele>1595.9</ele>
        <time>2019-01-07T05:17:23Z</time>
      </trkpt>
      <trkpt lat="42.4708" lon="2.29576">
        <ele>1596.3</ele>
        <time>2019-01-07T05:17:24Z</time>
      </trkpt>
      <trkpt lat="42.47075" lon="2.29573">
        <ele>1597.2</ele>
        <time>2019-01-07T05:17:25Z</time>
      </trkpt>
      <trkpt lat="42.47071" lon="2.2957">
        <ele>1597.4</ele>
        <time>2019-01-07T05:17:27Z</time>
      </trkpt>
      <trkpt lat="42.47067" lon="2.29567">
        <ele>1598.2</ele>
        <time>2019-01-07T05:17:28Z</time>
      </trkpt>
      <trkpt lat="42.47063" lon="2.29563">
        <ele>1599.4</ele>
        <time>2019-01-07T05:17:29Z</time>
      </trkpt>
      <trkpt lat="42.47062" lon="2.29557">
        <ele>1600.3</ele>
        <time>2019-01-07T05:17:30Z</time>
      </trkpt>
      <trkpt lat="42.47061" lon="2.29551">
        <ele>1601.3</ele>
        <time>2019-01-07T05:17:32Z</time>
      </trkpt>
      <trkpt lat="42.47056" lon="2.2955">
        <ele>1602.9</ele>
        <time>2019-01-07T05:17:33Z</time>
      </trkpt>
      <trkpt lat="42.47052" lon="2.29549">
        <ele>1604.1</ele>
        <time>2019-01-07T05:17:34Z</time>
      </trkpt>
      <trkpt lat="42.47049" lon="2.29543">
        <ele>1605.1</ele>
        <time>2019-01-07T05:17:35Z</time>
      </trkpt>
      <trkpt lat="42.47044" lon="2.29543">
        <ele>1605.2</ele>
        <time>2019-01-07T05:17:37Z</time>
      </trkpt>
      <trkpt lat="42.47039" lon="2.29542">
        <ele>1605.5</ele>
        <time>2019-01-07T05:17:38Z</time>
      </trkpt>
      <trkpt lat="42.47034" lon="2.29543">
        <ele>1605.1</ele>
        <time>2019-01-07T05:17:39Z</time>
      </trkpt>
      <trkpt lat="42.4703" lon="2.2954">
        <ele>1606.3</ele>
        <time>2019-01-07T05:17:41Z</time>
      </trkpt>
      <trkpt lat="42.47025" lon="2.29539">
        <ele>1607.1</ele>
        <time>2019-01-07T05:17:42Z</time>
      </trkpt>
      <trkpt lat="42.4702" lon="2.29535">
        <ele>1607.7</ele>
        <time>2019-01-07T05:17:44Z</time>
      </trkpt>
      <trkpt lat="42.47015" lon="2.29533">
        <ele>1607.8</ele>
        <time>2019-01-07T05:17:45Z</time>
      </trkpt>
      <trkpt lat="42.4701" lon="2.29531">
        <ele>1608.2</ele>
        <time>2019-01-07T05:17:46Z</time>
      </trkpt>
      <trkpt lat="42.47005" lon="2.29531">
        <ele>1608.2</ele>
        <time>2019-01-07T05:17:48Z</time>
      </trkpt>
      <trkpt lat="42.47" lon="2.29529">
        <ele>1608.5</ele>
        <time>2019-01-07T05:17:49Z</time>
      </trkpt>
      <trkpt lat="42.46995" lon="2.29527">
        <ele>1608.9</ele>
        <time>2019-01-07T05:17:50Z</time>
      </trkpt>
      <trkpt lat="42.4699" lon="2.29525">
        <ele>1609.2</ele>
        <time>2019-01-07T05:17:52Z</time>
      </trkpt>
      <trkpt lat="42.46985" lon="2.29525">
        <ele>1609.1</ele>
        <time>2019-01-07T05:17:53Z</time>
      </trkpt>
      <trkpt lat="42.4698" lon="2.29526">
        <ele>1609.1</ele>
        <time>2019-01-07T05:17:54Z</time>
      </trkpt>
      <trkpt lat="42.46975" lon="2.29525">
        <ele>1609.6</ele>
        <time>2019-01-07T05:17:56Z</time>
      </trkpt>
      <trkpt lat="42.4697" lon="2.29526">
        <ele>1610.3</ele>
        <time>2019-01-07T05:17:57Z</time>
      </trkpt>
      <trkpt lat="42.46965" lon="2.29525">
        <ele>1610.6</ele>
        <time>2019-01-07T05:17:59Z</time>
      </trkpt>
      <trkpt lat="42.46961" lon="2.2952">
        <ele>1611</ele>
        <time>2019-01-07T05:18:00Z</time>
      </trkpt>
      <trkpt lat="42.46957" lon="2.29517">
        <ele>1611.4</ele>
        <time>2019-01-07T05:18:01Z</time>
      </trkpt>
      <trkpt lat="42.46954" lon="2.29512">
        <ele>1611.7</ele>
        <time>2019-01-07T05:18:03Z</time>
      </trkpt>
      <trkpt lat="42.46949" lon="2.29509">
        <ele>1612.7</ele>
        <time>2019-01-07T05:18:04Z</time>
      </trkpt>
      <trkpt lat="42.46946" lon="2.29505">
        <ele>1614</ele>
        <time>2019-01-07T05:18:05Z</time>
      </trkpt>
      <trkpt lat="42.46941" lon="2.29502">
        <ele>1614.9</ele>
        <time>2019-01-07T05:18:06Z</time>
      </trkpt>
      <trkpt lat="42.46937" lon="2.29499">
        <ele>1616.2</ele>
        <time>2019-01-07T05:18:08Z</time>
      </trkpt>
      <trkpt lat="42.46932" lon="2.29497">
        <ele>1617.7</ele>
        <time>2019-01-07T05:18:09Z</time>
      </trkpt>
      <trkpt lat="42.46927" lon="2.29494">
        <ele>1618.6</ele>
        <time>2019-01-07T05:18:10Z</time>
      </trkpt>
      <trkpt lat="42.46923" lon="2.29492">
        <ele>1619.2</ele>
        <time>2019-01-07T05:18:12Z</time>
      </trkpt>
      <trkpt lat="42.4692" lon="2.29487">
        <ele>1620.3</ele>
        <time>2019-01-07T05:18:13Z</time>
      </trkpt>
      <trkpt lat="42.46917" lon="2.29482">
        <ele>1621.1</ele>
        <time>2019-01-07T05:18:14Z</time>
      </trkpt>
      <trkpt lat="42.46914" lon="2.29476">
        <ele>1622</ele>
        <time>2019-01-07T05:18:16Z</time>
      </trkpt>
      <trkpt lat="42.4691" lon="2.29475">
        <ele>1623.1</ele>
        <time>2019-01-07T05:18:17Z</time>
      </trkpt>
      <trkpt lat="42.46906" lon="2.2947">
        <ele>1624.5</ele>
        <time>2019-01-07T05:18:18Z</time>
      </trkpt>
      <trkpt lat="42.46903" lon="2.29464">
        <ele>1625.4</ele>
        <time>2019-01-07T05:18:20Z</time>
      </trkpt>
      <trkpt lat="42.469" lon="2.29459">
        <ele>1626.2</ele>
        <time>2019-01-07T05:18:21Z</time>
      </trkpt>
      <trkpt lat="42.46895" lon="2.29457">
        <ele>1627.5</ele>
        <time>2019-01-07T05:18:22Z</time>
      </trkpt>
      <trkpt lat="42.46892" lon="2.29452">
        <ele>1628</ele>
        <time>2019-01-07T05:18:24Z</time>
      </trkpt>
      <trkpt lat="42.46887" lon="2.29451">
        <ele>1629</ele>
        <time>2019-01-07T05:18:25Z</time>
      </trkpt>
      <trkpt lat="42.46882" lon="2.2945">
        <ele>1629.5</ele>
        <time>2019-01-07T05:18:26Z</time>
      </trkpt>
      <trkpt lat="42.46877" lon="2.29452">
        <ele>1630</ele>
        <time>2019-01-07T05:18:28Z</time>
      </trkpt>
      <trkpt lat="42.46873" lon="2.29457">
        <ele>1630.1</ele>
        <time>2019-01-07T05:18:29Z</time>
      </trkpt>
      <trkpt lat="42.46874" lon="2.2945">
        <ele>1630</ele>
        <time>2019-01-07T05:18:30Z</time>
      </trkpt>
      <trkpt lat="42.46869" lon="2.29453">
        <ele>1631.2</ele>
        <time>2019-01-07T05:18:32Z</time>
      </trkpt>
      <trkpt lat="42.46871" lon="2.29447">
        <ele>1631.4</ele>
        <time>2019-01-07T05:18:33Z</time>
      </trkpt>
      <trkpt lat="42.46867" lon="2.29441">
        <ele>1631.6</ele>
        <time>2019-01-07T05:18:34Z</time>
      </trkpt>
      <trkpt lat="42.46864" lon="2.29437">
        <ele>1632</ele>
        <time>2019-01-07T05:18:36Z</time>
      </trkpt>
      <trkpt lat="42.46862" lon="2.29431">
        <ele>1632.9</ele>
        <time>2019-01-07T05:18:37Z</time>
      </trkpt>
      <trkpt lat="42.4686" lon="2.29425">
        <ele>1633.8</ele>
        <time>2019-01-07T05:18:38Z</time>
      </trkpt>
      <trkpt lat="42.46857" lon="2.29421">
        <ele>1635</ele>
        <time>2019-01-07T05:18:39Z</time>
      </trkpt>
      <trkpt lat="42.46852" lon="2.29419">
        <ele>1635.6</ele>
        <time>2019-01-07T05:18:41Z</time>
      </trkpt>
      <trkpt lat="42.46847" lon="2.29419">
        <ele>1636.4</ele>
        <time>2019-01-07T05:18:42Z</time>
      </trkpt>
      <trkpt lat="42.46843" lon="2.2942">
        <ele>1637.9</ele>
        <time>2019-01-07T05:18:43Z</time>
      </trkpt>
      <trkpt lat="42.4684" lon="2.29427">
        <ele>1638</ele>
        <time>2019-01-07T05:18:45Z</time>
      </trkpt>
      <trkpt lat="42.46837" lon="2.29422">
        <ele>1639.5</ele>
        <time>2019-01-07T05:18:46Z</time>
      </trkpt>
      <trkpt lat="42.46837" lon="2.29416">
        <ele>1640.3</ele>
        <time>2019-01-07T05:18:47Z</time>
      </trkpt>
      <trkpt lat="42.46841" lon="2.29412">
        <ele>1640.6</ele>
        <time>2019-01-07T05:18:48Z</time>
      </trkpt>
      <trkpt lat="42.46838" lon="2.29407">
        <ele>1641.4</ele>
        <time>2019-01-07T05:18:50Z</time>
      </trkpt>
      <trkpt lat="42.46833" lon="2.29406">
        <ele>1643</ele>
        <time>2019-01-07T05:18:51Z</time>
      </trkpt>
      <trkpt lat="42.46833" lon="2.29399">
        <ele>1644.3</ele>
        <time>2019-01-07T05:18:52Z</time>
      </trkpt>
      <trkpt lat="42.46835" lon="2.29392">
        <ele>1645.7</ele>
        <time>2019-01-07T05:18:54Z</time>
      </trkpt>
      <trkpt lat="42.46831" lon="2.29387">
        <ele>1646.6</ele>
        <time>2019-01-07T05:18:55Z</time>
      </trkpt>
      <trkpt lat="42.46828" lon="2.29382">
        <ele>1647.8</ele>
        <time>2019-01-07T05:18:57Z</time>
      </trkpt>
      <trkpt lat="42.46825" lon="2.29377">
        <ele>1648.7</ele>
        <time>2019-01-07T05:18:58Z</time>
      </trkpt>
      <trkpt lat="42.46821" lon="2.29373">
        <ele>1649.6</ele>
        <time>2019-01-07T05:18:59Z</time>
      </trkpt>
      <trkpt lat="42.46816" lon="2.29371">
        <ele>1650.6</ele>
        <time>2019-01-07T05:19:00Z</time>
      </trkpt>
      <trkpt lat="42.46812" lon="2.29368">
        <ele>1651.1</ele>
        <time>2019-01-07T05:19:02Z</time>
      </trkpt>
      <trkpt lat="42.46808" lon="2.29364">
        <ele>1652.1</ele>
        <time>2019-01-07T05:19:03Z</time>
      </trkpt>
      <trkpt lat="42.46804" lon="2.2936">
        <ele>1652.8</ele>
        <time>2019-01-07T05:19:04Z</time>
      </trkpt>
      <trkpt lat="42.46801" lon="2.29355">
        <ele>1653.5</ele>
        <time>2019-01-07T05:19:06Z</time>
      </trkpt>
      <trkpt lat="42.46797" lon="2.29352">
        <ele>1654.1</ele>
        <time>2019-01-07T05:19:07Z</time>
      </trkpt>
      <trkpt lat="42.46793" lon="2.29348">
        <ele>1654.4</ele>
        <time>2019-01-07T05:19:08Z</time>
      </trkpt>
      <trkpt lat="42.46792" lon="2.29342">
        <ele>1654.8</ele>
        <time>2019-01-07T05:19:09Z</time>
      </trkpt>
      <trkpt lat="42.46787" lon="2.29339">
        <ele>1655</ele>
        <time>2019-01-07T05:19:11Z</time>
      </trkpt>
      <trkpt lat="42.46784" lon="2.29334">
        <ele>1656.5</ele>
        <time>2019-01-07T05:19:12Z</time>
      </trkpt>
      <trkpt lat="42.46782" lon="2.29328">
        <ele>1657</ele>
        <time>2019-01-07T05:19:13Z</time>
      </trkpt>
      <trkpt lat="42.4678" lon="2.29321">
        <ele>1657.1</ele>
        <time>2019-01-07T05:19:15Z</time>
      </trkpt>
      <trkpt lat="42.46777" lon="2.29315">
        <ele>1658.7</ele>
        <time>2019-01-07T05:19:16Z</time>
      </trkpt>
      <trkpt lat="42.46775" lon="2.2931">
        <ele>1659.4</ele>
        <time>2019-01-07T05:19:17Z</time>
      </trkpt>
      <trkpt lat="42.4677" lon="2.29308">
        <ele>1659</ele>
        <time>2019-01-07T05:19:19Z</time>
      </trkpt>
      <trkpt lat="42.46765" lon="2.29307">
        <ele>1660.3</ele>
        <time>2019-01-07T05:19:20Z</time>
      </trkpt>
      <trkpt lat="42.46762" lon="2.29302">
        <ele>1660.4</ele>
        <time>2019-01-07T05:19:21Z</time>
      </trkpt>
      <trkpt lat="42.46759" lon="2.29297">
        <ele>1660.9</ele>
        <time>2019-01-07T05:19:23Z</time>
      </trkpt>
      <trkpt lat="42.46755" lon="2.29292">
        <ele>1661.9</ele>
        <time>2019-01-07T05:19:24Z</time>
      </trkpt>
      <trkpt lat="42.46752" lon="2.29288">
        <ele>1663.1</ele>
        <time>2019-01-07T05:19:25Z</time>
      </trkpt>
      <trkpt lat="42.46749" lon="2.29283">
        <ele>1664.1</ele>
        <time>2019-01-07T05:19:27Z</time>
      </trkpt>
      <trkpt lat="42.46747" lon="2.29277">
        <ele>1665.2</ele>
        <time>2019-01-07T05:19:28Z</time>
      </trkpt>
      <trkpt lat="42.46745" lon="2.29269">
        <ele>1666.3</ele>
        <time>2019-01-07T05:19:29Z</time>
      </trkpt>
      <trkpt lat="42.46742" lon="2.29264">
        <ele>1667.5</ele>
        <time>2019-01-07T05:19:31Z</time>
      </trkpt>
      <trkpt lat="42.46738" lon="2.2926">
        <ele>1668.2</ele>
        <time>2019-01-07T05:19:32Z</time>
      </trkpt>
      <trkpt lat="42.46735" lon="2.29255">
        <ele>1669.2</ele>
        <time>2019-01-07T05:19:33Z</time>
      </trkpt>
      <trkpt lat="42.46733" lon="2.29249">
        <ele>1670.9</ele>
        <time>2019-01-07T05:19:35Z</time>
      </trkpt>
      <trkpt lat="42.46731" lon="2.29243">
        <ele>1671.5</ele>
        <time>2019-01-07T05:19:36Z</time>
      </trkpt>
      <trkpt lat="42.46726" lon="2.2924">
        <ele>1672.8</ele>
        <time>2019-01-07T05:19:37Z</time>
      </trkpt>
      <trkpt lat="42.46722" lon="2.29237">
        <ele>1674</ele>
        <time>2019-01-07T05:19:38Z</time>
      </trkpt>
      <trkpt lat="42.46719" lon="2.29233">
        <ele>1674.7</ele>
        <time>2019-01-07T05:19:40Z</time>
      </trkpt>
      <trkpt lat="42.46715" lon="2.29228">
        <ele>1676.1</ele>
        <time>2019-01-07T05:19:41Z</time>
      </trkpt>
      <trkpt lat="42.46712" lon="2.29223">
        <ele>1677.2</ele>
        <time>2019-01-07T05:19:42Z</time>
      </trkpt>
      <trkpt lat="42.46708" lon="2.2922">
        <ele>1677.9</ele>
        <time>2019-01-07T05:19:44Z</time>
      </trkpt>
      <trkpt lat="42.46705" lon="2.29215">
        <ele>1678.7</ele>
        <time>2019-01-07T05:19:45Z</time>
      </trkpt>
      <trkpt lat="42.467" lon="2.29212">
        <ele>1679.7</ele>
        <time>2019-01-07T05:19:46Z</time>
      </trkpt>
      <trkpt lat="42.46697" lon="2.29208">
        <ele>1680.8</ele>
        <time>2019-01-07T05:19:47Z</time>
      </trkpt>
      <trkpt lat="42.46692" lon="2.29207">
        <ele>1681.9</ele>
        <time>2019-01-07T05:19:49Z</time>
      </trkpt>
      <trkpt lat="42.46694" lon="2.29201">
        <ele>1682.6</ele>
        <time>2019-01-07T05:19:50Z</time>
      </trkpt>
      <trkpt lat="42.46692" lon="2.29207">
        <ele>1682.7</ele>
        <time>2019-01-07T05:19:51Z</time>
      </trkpt>
      <trkpt lat="42.46691" lon="2.29201">
        <ele>1683</ele>
        <time>2019-01-07T05:19:53Z</time>
      </trkpt>
      <trkpt lat="42.46692" lon="2.29207">
        <ele>1682.5</ele>
        <time>2019-01-07T05:19:54Z</time>
      </trkpt>
      <trkpt lat="42.46687" lon="2.29209">
        <ele>1682.3</ele>
        <time>2019-01-07T05:19:55Z</time>
      </trkpt>
      <trkpt lat="42.46682" lon="2.29212">
        <ele>1682.6</ele>
        <time>2019-01-07T05:19:57Z</time>
      </trkpt>
      <trkpt lat="42.46677" lon="2.29211">
        <ele>1683.3</ele>
        <time>2019-01-07T05:19:58Z</time>
      </trkpt>
      <trkpt lat="42.46673" lon="2.29207">
        <ele>1684.3</ele>
        <time>2019-01-07T05:19:59Z</time>
      </trkpt>
      <trkpt lat="42.46669" lon="2.29207">
        <ele>1685.1</ele>
        <time>2019-01-07T05:20:01Z</time>
      </trkpt>
      <trkpt lat="42.46664" lon="2.29207">
        <ele>1685.6</ele>
        <time>2019-01-07T05:20:02Z</time>
      </trkpt>
      <trkpt lat="42.46659" lon="2.29204">
        <ele>1686.9</ele>
        <time>2019-01-07T05:20:03Z</time>
      </trkpt>
      <trkpt lat="42.46658" lon="2.29197">
        <ele>1688.9</ele>
        <time>2019-01-07T05:20:05Z</time>
      </trkpt>
      <trkpt lat="42.4666" lon="2.29191">
        <ele>1689.9</ele>
        <time>2019-01-07T05:20:06Z</time>
      </trkpt>
      <trkpt lat="42.46663" lon="2.29186">
        <ele>1690.7</ele>
        <time>2019-01-07T05:20:07Z</time>
      </trkpt>
      <trkpt lat="42.46666" lon="2.29182">
        <ele>1691</ele>
        <time>2019-01-07T05:20:08Z</time>
      </trkpt>
      <trkpt lat="42.4667" lon="2.29176">
        <ele>1691.7</ele>
        <time>2019-01-07T05:20:10Z</time>
      </trkpt>
      <trkpt lat="42.46672" lon="2.29171">
        <ele>1691.9</ele>
        <time>2019-01-07T05:20:11Z</time>
      </trkpt>
      <trkpt lat="42.46677" lon="2.29167">
        <ele>1692</ele>
        <time>2019-01-07T05:20:13Z</time>
      </trkpt>
      <trkpt lat="42.46681" lon="2.29163">
        <ele>1692.3</ele>
        <time>2019-01-07T05:20:14Z</time>
      </trkpt>
      <trkpt lat="42.46685" lon="2.2916">
        <ele>1693.2</ele>
        <time>2019-01-07T05:20:15Z</time>
      </trkpt>
      <trkpt lat="42.46684" lon="2.29153">
        <ele>1694</ele>
        <time>2019-01-07T05:20:17Z</time>
      </trkpt>
      <trkpt lat="42.46679" lon="2.29153">
        <ele>1695</ele>
        <time>2019-01-07T05:20:18Z</time>
      </trkpt>
      <trkpt lat="42.46675" lon="2.29151">
        <ele>1696.1</ele>
        <time>2019-01-07T05:20:19Z</time>
      </trkpt>
      <trkpt lat="42.46675" lon="2.29144">
        <ele>1697.2</ele>
        <time>2019-01-07T05:20:20Z</time>
      </trkpt>
      <trkpt lat="42.46679" lon="2.29141">
        <ele>1698.5</ele>
        <time>2019-01-07T05:20:22Z</time>
      </trkpt>
      <trkpt lat="42.46683" lon="2.29137">
        <ele>1699.5</ele>
        <time>2019-01-07T05:20:23Z</time>
      </trkpt>
      <trkpt lat="42.46688" lon="2.29135">
        <ele>1700.1</ele>
        <time>2019-01-07T05:20:24Z</time>
      </trkpt>
      <trkpt lat="42.46692" lon="2.29132">
        <ele>1700.2</ele>
        <time>2019-01-07T05:20:26Z</time>
      </trkpt>
      <trkpt lat="42.46695" lon="2.29127">
        <ele>1700.5</ele>
        <time>2019-01-07T05:20:27Z</time>
      </trkpt>
      <trkpt lat="42.46699" lon="2.29122">
        <ele>1701.3</ele>
        <time>2019-01-07T05:20:28Z</time>
      </trkpt>
      <trkpt lat="42.46704" lon="2.2912">
        <ele>1701.4</ele>
        <time>2019-01-07T05:20:29Z</time>
      </trkpt>
      <trkpt lat="42.46701" lon="2.29115">
        <ele>1702.3</ele>
        <time>2019-01-07T05:20:31Z</time>
      </trkpt>
      <trkpt lat="42.46697" lon="2.29111">
        <ele>1703.3</ele>
        <time>2019-01-07T05:20:32Z</time>
      </trkpt>
      <trkpt lat="42.46694" lon="2.29106">
        <ele>1704</ele>
        <time>2019-01-07T05:20:33Z</time>
      </trkpt>
      <trkpt lat="42.4669" lon="2.29101">
        <ele>1705.4</ele>
        <time>2019-01-07T05:20:35Z</time>
      </trkpt>
      <trkpt lat="42.46686" lon="2.29099">
        <ele>1706.7</ele>
        <time>2019-01-07T05:20:36Z</time>
      </trkpt>
      <trkpt lat="42.46681" lon="2.291">
        <ele>1707.2</ele>
        <time>2019-01-07T05:20:37Z</time>
      </trkpt>
      <trkpt lat="42.46676" lon="2.29102">
        <ele>1707.7</ele>
        <time>2019-01-07T05:20:39Z</time>
      </trkpt>
      <trkpt lat="42.46672" lon="2.29101">
        <ele>1708</ele>
        <time>2019-01-07T05:20:40Z</time>
      </trkpt>
      <trkpt lat="42.46668" lon="2.29097">
        <ele>1708.6</ele>
        <time>2019-01-07T05:20:41Z</time>
      </trkpt>
      <trkpt lat="42.46663" lon="2.29096">
        <ele>1709.3</ele>
        <time>2019-01-07T05:20:42Z</time>
      </trkpt>
      <trkpt lat="42.46659" lon="2.29097">
        <ele>1709.8</ele>
        <time>2019-01-07T05:20:44Z</time>
      </trkpt>
      <trkpt lat="42.46656" lon="2.29102">
        <ele>1710.4</ele>
        <time>2019-01-07T05:20:45Z</time>
      </trkpt>
      <trkpt lat="42.46652" lon="2.29107">
        <ele>1710.7</ele>
        <time>2019-01-07T05:20:46Z</time>
      </trkpt>
      <trkpt lat="42.46647" lon="2.29109">
        <ele>1710.8</ele>
        <time>2019-01-07T05:20:48Z</time>
      </trkpt>
      <trkpt lat="42.46643" lon="2.29109">
        <ele>1711.2</ele>
        <time>2019-01-07T05:20:49Z</time>
      </trkpt>
      <trkpt lat="42.46638" lon="2.29112">
        <ele>1712.8</ele>
        <time>2019-01-07T05:20:50Z</time>
      </trkpt>
      <trkpt lat="42.46633" lon="2.29111">
        <ele>1714</ele>
        <time>2019-01-07T05:20:51Z</time>
      </trkpt>
      <trkpt lat="42.4663" lon="2.29116">
        <ele>1714.8</ele>
        <time>2019-01-07T05:20:53Z</time>
      </trkpt>
      <trkpt lat="42.46626" lon="2.29119">
        <ele>1715.3</ele>
        <time>2019-01-07T05:20:54Z</time>
      </trkpt>
      <trkpt lat="42.46623" lon="2.29125">
        <ele>1715.6</ele>
        <time>2019-01-07T05:20:55Z</time>
      </trkpt>
      <trkpt lat="42.46619" lon="2.29129">
        <ele>1715.6</ele>
        <time>2019-01-07T05:20:57Z</time>
      </trkpt>
      <trkpt lat="42.46614" lon="2.29133">
        <ele>1716.3</ele>
        <time>2019-01-07T05:20:58Z</time>
      </trkpt>
      <trkpt lat="42.4661" lon="2.29137">
        <ele>1717.1</ele>
        <time>2019-01-07T05:20:59Z</time>
      </trkpt>
      <trkpt lat="42.46606" lon="2.2914">
        <ele>1717.3</ele>
        <time>2019-01-07T05:21:01Z</time>
      </trkpt>
      <trkpt lat="42.46603" lon="2.29145">
        <ele>1717.8</ele>
        <time>2019-01-07T05:21:02Z</time>
      </trkpt>
      <trkpt lat="42.46599" lon="2.29149">
        <ele>1717.9</ele>
        <time>2019-01-07T05:21:03Z</time>
      </trkpt>
      <trkpt lat="42.46595" lon="2.29153">
        <ele>1718.4</ele>
        <time>2019-01-07T05:21:05Z</time>
      </trkpt>
      <trkpt lat="42.4659" lon="2.29157">
        <ele>1719.3</ele>
        <time>2019-01-07T05:21:06Z</time>
      </trkpt>
      <trkpt lat="42.46586" lon="2.29157">
        <ele>1720.2</ele>
        <time>2019-01-07T05:21:07Z</time>
      </trkpt>
      <trkpt lat="42.46582" lon="2.29159">
        <ele>1721.2</ele>
        <time>2019-01-07T05:21:09Z</time>
      </trkpt>
      <trkpt lat="42.46577" lon="2.29162">
        <ele>1722.4</ele>
        <time>2019-01-07T05:21:10Z</time>
      </trkpt>
      <trkpt lat="42.46573" lon="2.29167">
        <ele>1723.2</ele>
        <time>2019-01-07T05:21:11Z</time>
      </trkpt>
      <trkpt lat="42.46569" lon="2.29168">
        <ele>1724.1</ele>
        <time>2019-01-07T05:21:13Z</time>
      </trkpt>
      <trkpt lat="42.46564" lon="2.29168">
        <ele>1726</ele>
        <time>2019-01-07T05:21:14Z</time>
      </trkpt>
      <trkpt lat="42.46559" lon="2.29171">
        <ele>1726.6</ele>
        <time>2019-01-07T05:21:15Z</time>
      </trkpt>
      <trkpt lat="42.46554" lon="2.29171">
        <ele>1727.3</ele>
        <time>2019-01-07T05:21:17Z</time>
      </trkpt>
      <trkpt lat="42.4655" lon="2.29173">
        <ele>1729.1</ele>
        <time>2019-01-07T05:21:18Z</time>
      </trkpt>
      <trkpt lat="42.46545" lon="2.29174">
        <ele>1729.9</ele>
        <time>2019-01-07T05:21:19Z</time>
      </trkpt>
      <trkpt lat="42.46539" lon="2.29172">
        <ele>1731.3</ele>
        <time>2019-01-07T05:21:21Z</time>
      </trkpt>
      <trkpt lat="42.46537" lon="2.29166">
        <ele>1733.6</ele>
        <time>2019-01-07T05:21:22Z</time>
      </trkpt>
      <trkpt lat="42.46536" lon="2.2916">
        <ele>1735.5</ele>
        <time>2019-01-07T05:21:23Z</time>
      </trkpt>
      <trkpt lat="42.46532" lon="2.29158">
        <ele>1737.2</ele>
        <time>2019-01-07T05:21:25Z</time>
      </trkpt>
      <trkpt lat="42.46527" lon="2.29157">
        <ele>1738.6</ele>
        <time>2019-01-07T05:21:26Z</time>
      </trkpt>
      <trkpt lat="42.46522" lon="2.29158">
        <ele>1740</ele>
        <time>2019-01-07T05:21:27Z</time>
      </trkpt>
      <trkpt lat="42.46518" lon="2.29162">
        <ele>1741</ele>
        <time>2019-01-07T05:21:28Z</time>
      </trkpt>
      <trkpt lat="42.46513" lon="2.29161">
        <ele>1742.4</ele>
        <time>2019-01-07T05:21:30Z</time>
      </trkpt>
      <trkpt lat="42.46508" lon="2.29159">
        <ele>1743.7</ele>
        <time>2019-01-07T05:21:31Z</time>
      </trkpt>
      <trkpt lat="42.46506" lon="2.29153">
        <ele>1747.4</ele>
        <time>2019-01-07T05:21:32Z</time>
      </trkpt>
      <trkpt lat="42.46508" lon="2.29147">
        <ele>1749.2</ele>
        <time>2019-01-07T05:21:34Z</time>
      </trkpt>
      <trkpt lat="42.4651" lon="2.2914">
        <ele>1749.4</ele>
        <time>2019-01-07T05:21:35Z</time>
      </trkpt>
      <trkpt lat="42.46513" lon="2.29135">
        <ele>1749.4</ele>
        <time>2019-01-07T05:21:36Z</time>
      </trkpt>
      <trkpt lat="42.46509" lon="2.29132">
        <ele>1750.9</ele>
        <time>2019-01-07T05:21:38Z</time>
      </trkpt>
      <trkpt lat="42.46504" lon="2.29131">
        <ele>1752.2</ele>
        <time>2019-01-07T05:21:39Z</time>
      </trkpt>
      <trkpt lat="42.46499" lon="2.29131">
        <ele>1753.7</ele>
        <time>2019-01-07T05:21:40Z</time>
      </trkpt>
      <trkpt lat="42.46498" lon="2.29125">
        <ele>1756</ele>
        <time>2019-01-07T05:21:42Z</time>
      </trkpt>
      <trkpt lat="42.46493" lon="2.29124">
        <ele>1756.9</ele>
        <time>2019-01-07T05:21:43Z</time>
      </trkpt>
      <trkpt lat="42.46492" lon="2.29118">
        <ele>1758.2</ele>
        <time>2019-01-07T05:21:44Z</time>
      </trkpt>
      <trkpt lat="42.46488" lon="2.29113">
        <ele>1759.7</ele>
        <time>2019-01-07T05:21:45Z</time>
      </trkpt>
      <trkpt lat="42.46484" lon="2.29108">
        <ele>1760.7</ele>
        <time>2019-01-07T05:21:47Z</time>
      </trkpt>
      <trkpt lat="42.4648" lon="2.29111">
        <ele>1761.7</ele>
        <time>2019-01-07T05:21:48Z</time>
      </trkpt>
      <trkpt lat="42.46477" lon="2.29106">
        <ele>1762.7</ele>
        <time>2019-01-07T05:21:49Z</time>
      </trkpt>
      <trkpt lat="42.46474" lon="2.29101">
        <ele>1763.5</ele>
        <time>2019-01-07T05:21:50Z</time>
      </trkpt>
      <trkpt lat="42.4647" lon="2.29098">
        <ele>1763.9</ele>
        <time>2019-01-07T05:21:52Z</time>
      </trkpt>
      <trkpt lat="42.46465" lon="2.29097">
        <ele>1764.6</ele>
        <time>2019-01-07T05:21:53Z</time>
      </trkpt>
      <trkpt lat="42.46462" lon="2.29091">
        <ele>1765</ele>
        <time>2019-01-07T05:21:54Z</time>
      </trkpt>
      <trkpt lat="42.46458" lon="2.29088">
        <ele>1766.8</ele>
        <time>2019-01-07T05:21:56Z</time>
      </trkpt>
      <trkpt lat="42.46454" lon="2.29084">
        <ele>1767.8</ele>
        <time>2019-01-07T05:21:57Z</time>
      </trkpt>
      <trkpt lat="42.46452" lon="2.29078">
        <ele>1768.3</ele>
        <time>2019-01-07T05:21:58Z</time>
      </trkpt>
      <trkpt lat="42.46451" lon="2.29072">
        <ele>1769.3</ele>
        <time>2019-01-07T05:22:00Z</time>
      </trkpt>
      <trkpt lat="42.46447" lon="2.29066">
        <ele>1770.8</ele>
        <time>2019-01-07T05:22:01Z</time>
      </trkpt>
      <trkpt lat="42.46445" lon="2.2906">
        <ele>1772.7</ele>
        <time>2019-01-07T05:22:02Z</time>
      </trkpt>
      <trkpt lat="42.46443" lon="2.29053">
        <ele>1773.5</ele>
        <time>2019-01-07T05:22:04Z</time>
      </trkpt>
      <trkpt lat="42.46441" lon="2.29048">
        <ele>1774.1</ele>
        <time>2019-01-07T05:22:05Z</time>
      </trkpt>
      <trkpt lat="42.4644" lon="2.29041">
        <ele>1775.3</ele>
        <time>2019-01-07T05:22:06Z</time>
      </trkpt>
      <trkpt lat="42.46436" lon="2.29036">
        <ele>1775.7</ele>
        <time>2019-01-07T05:22:08Z</time>
      </trkpt>
      <trkpt lat="42.46432" lon="2.29031">
        <ele>1776</ele>
        <time>2019-01-07T05:22:09Z</time>
      </trkpt>
      <trkpt lat="42.46429" lon="2.29026">
        <ele>1776.7</ele>
        <time>2019-01-07T05:22:11Z</time>
      </trkpt>
      <trkpt lat="42.46427" lon="2.29019">
        <ele>1776.9</ele>
        <time>2019-01-07T05:22:12Z</time>
      </trkpt>
      <trkpt lat="42.46424" lon="2.29014">
        <ele>1777.1</ele>
        <time>2019-01-07T05:22:13Z</time>
      </trkpt>
      <trkpt lat="42.46422" lon="2.29009">
        <ele>1777.3</ele>
        <time>2019-01-07T05:22:15Z</time>
      </trkpt>
      <trkpt lat="42.46418" lon="2.29004">
        <ele>1777.3</ele>
        <time>2019-01-07T05:22:16Z</time>
      </trkpt>
      <trkpt lat="42.46414" lon="2.29002">
        <ele>1777.5</ele>
        <time>2019-01-07T05:22:17Z</time>
      </trkpt>
      <trkpt lat="42.46409" lon="2.28998">
        <ele>1777.5</ele>
        <time>2019-01-07T05:22:18Z</time>
      </trkpt>
      <trkpt lat="42.46407" lon="2.28992">
        <ele>1777.9</ele>
        <time>2019-01-07T05:22:20Z</time>
      </trkpt>
      <trkpt lat="42.46404" lon="2.28986">
        <ele>1778.1</ele>
        <time>2019-01-07T05:22:21Z</time>
      </trkpt>
      <trkpt lat="42.46402" lon="2.2898">
        <ele>1778.8</ele>
        <time>2019-01-07T05:22:23Z</time>
      </trkpt>
      <trkpt lat="42.46398" lon="2.28975">
        <ele>1779.1</ele>
        <time>2019-01-07T05:22:24Z</time>
      </trkpt>
      <trkpt lat="42.46395" lon="2.28969">
        <ele>1779.3</ele>
        <time>2019-01-07T05:22:25Z</time>
      </trkpt>
      <trkpt lat="42.46393" lon="2.28963">
        <ele>1780</ele>
        <time>2019-01-07T05:22:27Z</time>
      </trkpt>
      <trkpt lat="42.46389" lon="2.2896">
        <ele>1780.1</ele>
        <time>2019-01-07T05:22:28Z</time>
      </trkpt>
      <trkpt lat="42.46385" lon="2.28956">
        <ele>1780.7</ele>
        <time>2019-01-07T05:22:29Z</time>
      </trkpt>
      <trkpt lat="42.4638" lon="2.28957">
        <ele>1781.4</ele>
        <time>2019-01-07T05:22:31Z</time>
      </trkpt>
      <trkpt lat="42.46376" lon="2.28954">
        <ele>1782.8</ele>
        <time>2019-01-07T05:22:32Z</time>
      </trkpt>
      <trkpt lat="42.46372" lon="2.2895">
        <ele>1783.6</ele>
        <time>2019-01-07T05:22:33Z</time>
      </trkpt>
      <trkpt lat="42.46368" lon="2.28945">
        <ele>1784.4</ele>
        <time>2019-01-07T05:22:35Z</time>
      </trkpt>
      <trkpt lat="42.46364" lon="2.28942">
        <ele>1785.4</ele>
        <time>2019-01-07T05:22:36Z</time>
      </trkpt>
      <trkpt lat="42.46361" lon="2.28937">
        <ele>1785.7</ele>
        <time>2019-01-07T05:22:37Z</time>
      </trkpt>
      <trkpt lat="42.46356" lon="2.28932">
        <ele>1786.8</ele>
        <time>2019-01-07T05:22:39Z</time>
      </trkpt>
      <trkpt lat="42.46352" lon="2.2893">
        <ele>1787.1</ele>
        <time>2019-01-07T05:22:40Z</time>
      </trkpt>
      <trkpt lat="42.46349" lon="2.28925">
        <ele>1787.7</ele>
        <time>2019-01-07T05:22:41Z</time>
      </trkpt>
      <trkpt lat="42.46353" lon="2.2892">
        <ele>1788.6</ele>
        <time>2019-01-07T05:22:42Z</time>
      </trkpt>
      <trkpt lat="42.4635" lon="2.28914">
        <ele>1789.2</ele>
        <time>2019-01-07T05:22:44Z</time>
      </trkpt>
      <trkpt lat="42.46347" lon="2.28909">
        <ele>1789.7</ele>
        <time>2019-01-07T05:22:45Z</time>
      </trkpt>
      <trkpt lat="42.46343" lon="2.28905">
        <ele>1789.5</ele>
        <time>2019-01-07T05:22:46Z</time>
      </trkpt>
      <trkpt lat="42.46338" lon="2.28902">
        <ele>1789.8</ele>
        <time>2019-01-07T05:22:48Z</time>
      </trkpt>
      <trkpt lat="42.46334" lon="2.28898">
        <ele>1790.3</ele>
        <time>2019-01-07T05:22:49Z</time>
      </trkpt>
      <trkpt lat="42.46329" lon="2.28896">
        <ele>1790.5</ele>
        <time>2019-01-07T05:22:50Z</time>
      </trkpt>
      <trkpt lat="42.46324" lon="2.28894">
        <ele>1790.8</ele>
        <time>2019-01-07T05:22:52Z</time>
      </trkpt>
      <trkpt lat="42.46321" lon="2.28888">
        <ele>1790.8</ele>
        <time>2019-01-07T05:22:53Z</time>
      </trkpt>
      <trkpt lat="42.46318" lon="2.28883">
        <ele>1792.1</ele>
        <time>2019-01-07T05:22:55Z</time>
      </trkpt>
      <trkpt lat="42.46316" lon="2.28876">
        <ele>1793.6</ele>
        <time>2019-01-07T05:22:56Z</time>
      </trkpt>
      <trkpt lat="42.46314" lon="2.28871">
        <ele>1794.9</ele>
        <time>2019-01-07T05:22:57Z</time>
      </trkpt>
      <trkpt lat="42.46309" lon="2.28869">
        <ele>1797.4</ele>
        <time>2019-01-07T05:22:59Z</time>
      </trkpt>
      <trkpt lat="42.46305" lon="2.28865">
        <ele>1798.8</ele>
        <time>2019-01-07T05:23:00Z</time>
      </trkpt>
      <trkpt lat="42.46301" lon="2.28866">
        <ele>1799.3</ele>
        <time>2019-01-07T05:23:01Z</time>
      </trkpt>
      <trkpt lat="42.46299" lon="2.2886">
        <ele>1800.7</ele>
        <time>2019-01-07T05:23:02Z</time>
      </trkpt>
      <trkpt lat="42.46295" lon="2.28857">
        <ele>1801.7</ele>
        <time>2019-01-07T05:23:04Z</time>
      </trkpt>
      <trkpt lat="42.46295" lon="2.2885">
        <ele>1803.4</ele>
        <time>2019-01-07T05:23:05Z</time>
      </trkpt>
      <trkpt lat="42.46291" lon="2.28845">
        <ele>1804.4</ele>
        <time>2019-01-07T05:23:06Z</time>
      </trkpt>
      <trkpt lat="42.46286" lon="2.28843">
        <ele>1805.4</ele>
        <time>2019-01-07T05:23:08Z</time>
      </trkpt>
      <trkpt lat="42.46282" lon="2.28841">
        <ele>1806</ele>
        <time>2019-01-07T05:23:09Z</time>
      </trkpt>
      <trkpt lat="42.46277" lon="2.28838">
        <ele>1806.6</ele>
        <time>2019-01-07T05:23:10Z</time>
      </trkpt>
      <trkpt lat="42.46272" lon="2.28837">
        <ele>1807</ele>
        <time>2019-01-07T05:23:12Z</time>
      </trkpt>
      <trkpt lat="42.46268" lon="2.28833">
        <ele>1807.6</ele>
        <time>2019-01-07T05:23:13Z</time>
      </trkpt>
      <trkpt lat="42.46263" lon="2.28832">
        <ele>1808</ele>
        <time>2019-01-07T05:23:14Z</time>
      </trkpt>
      <trkpt lat="42.46258" lon="2.2883">
        <ele>1808.4</ele>
        <time>2019-01-07T05:23:16Z</time>
      </trkpt>
      <trkpt lat="42.46253" lon="2.28826">
        <ele>1808.5</ele>
        <time>2019-01-07T05:23:17Z</time>
      </trkpt>
      <trkpt lat="42.46249" lon="2.28824">
        <ele>1809</ele>
        <time>2019-01-07T05:23:18Z</time>
      </trkpt>
      <trkpt lat="42.46249" lon="2.28817">
        <ele>1809.6</ele>
        <time>2019-01-07T05:23:20Z</time>
      </trkpt>
      <trkpt lat="42.46245" lon="2.28814">
        <ele>1810.4</ele>
        <time>2019-01-07T05:23:21Z</time>
      </trkpt>
      <trkpt lat="42.4624" lon="2.28811">
        <ele>1811.3</ele>
        <time>2019-01-07T05:23:22Z</time>
      </trkpt>
      <trkpt lat="42.46237" lon="2.28806">
        <ele>1811.7</ele>
        <time>2019-01-07T05:23:24Z</time>
      </trkpt>
      <trkpt lat="42.46233" lon="2.28803">
        <ele>1813.4</ele>
        <time>2019-01-07T05:23:25Z</time>
      </trkpt>
      <trkpt lat="42.46228" lon="2.288">
        <ele>1814.3</ele>
        <time>2019-01-07T05:23:26Z</time>
      </trkpt>
      <trkpt lat="42.46227" lon="2.28793">
        <ele>1815.4</ele>
        <time>2019-01-07T05:23:28Z</time>
      </trkpt>
      <trkpt lat="42.46225" lon="2.28787">
        <ele>1816.3</ele>
        <time>2019-01-07T05:23:29Z</time>
      </trkpt>
      <trkpt lat="42.46223" lon="2.28781">
        <ele>1817</ele>
        <time>2019-01-07T05:23:30Z</time>
      </trkpt>
      <trkpt lat="42.46219" lon="2.28776">
        <ele>1817.7</ele>
        <time>2019-01-07T05:23:32Z</time>
      </trkpt>
      <trkpt lat="42.46216" lon="2.28771">
        <ele>1818.6</ele>
        <time>2019-01-07T05:23:33Z</time>
      </trkpt>
      <trkpt lat="42.46213" lon="2.28765">
        <ele>1819</ele>
        <time>2019-01-07T05:23:34Z</time>
      </trkpt>
      <trkpt lat="42.46211" lon="2.28759">
        <ele>1819.8</ele>
        <time>2019-01-07T05:23:36Z</time>
      </trkpt>
      <trkpt lat="42.4621" lon="2.28752">
        <ele>1820.7</ele>
        <time>2019-01-07T05:23:37Z</time>
      </trkpt>
      <trkpt lat="42.46208" lon="2.28746">
        <ele>1821.6</ele>
        <time>2019-01-07T05:23:38Z</time>
      </trkpt>
      <trkpt lat="42.46206" lon="2.2874">
        <ele>1822.1</ele>
        <time>2019-01-07T05:23:40Z</time>
      </trkpt>
      <trkpt lat="42.46205" lon="2.28733">
        <ele>1822.9</ele>
        <time>2019-01-07T05:23:41Z</time>
      </trkpt>
      <trkpt lat="42.46204" lon="2.28727">
        <ele>1823.7</ele>
        <time>2019-01-07T05:23:42Z</time>
      </trkpt>
      <trkpt lat="42.46203" lon="2.28721">
        <ele>1824.6</ele>
        <time>2019-01-07T05:23:44Z</time>
      </trkpt>
      <trkpt lat="42.46202" lon="2.28714">
        <ele>1825.7</ele>
        <time>2019-01-07T05:23:45Z</time>
      </trkpt>
      <trkpt lat="42.46199" lon="2.28709">
        <ele>1827.1</ele>
        <time>2019-01-07T05:23:46Z</time>
      </trkpt>
      <trkpt lat="42.46196" lon="2.28704">
        <ele>1828.4</ele>
        <time>2019-01-07T05:23:47Z</time>
      </trkpt>
      <trkpt lat="42.46193" lon="2.28698">
        <ele>1829.6</ele>
        <time>2019-01-07T05:23:49Z</time>
      </trkpt>
      <trkpt lat="42.4619" lon="2.28694">
        <ele>1830.8</ele>
        <time>2019-01-07T05:23:50Z</time>
      </trkpt>
      <trkpt lat="42.46188" lon="2.28688">
        <ele>1832.1</ele>
        <time>2019-01-07T05:23:51Z</time>
      </trkpt>
      <trkpt lat="42.46185" lon="2.28684">
        <ele>1833.5</ele>
        <time>2019-01-07T05:23:53Z</time>
      </trkpt>
      <trkpt lat="42.46181" lon="2.2868">
        <ele>1834.7</ele>
        <time>2019-01-07T05:23:54Z</time>
      </trkpt>
      <trkpt lat="42.46177" lon="2.28677">
        <ele>1837.1</ele>
        <time>2019-01-07T05:23:55Z</time>
      </trkpt>
      <trkpt lat="42.46172" lon="2.28675">
        <ele>1838</ele>
        <time>2019-01-07T05:23:56Z</time>
      </trkpt>
      <trkpt lat="42.46169" lon="2.28671">
        <ele>1839.4</ele>
        <time>2019-01-07T05:23:58Z</time>
      </trkpt>
      <trkpt lat="42.46166" lon="2.28666">
        <ele>1841.1</ele>
        <time>2019-01-07T05:23:59Z</time>
      </trkpt>
      <trkpt lat="42.46165" lon="2.2866">
        <ele>1841.9</ele>
        <time>2019-01-07T05:24:00Z</time>
      </trkpt>
      <trkpt lat="42.4616" lon="2.28656">
        <ele>1843</ele>
        <time>2019-01-07T05:24:01Z</time>
      </trkpt>
      <trkpt lat="42.4616" lon="2.28649">
        <ele>1844.3</ele>
        <time>2019-01-07T05:24:03Z</time>
      </trkpt>
      <trkpt lat="42.46155" lon="2.28647">
        <ele>1846.6</ele>
        <time>2019-01-07T05:24:04Z</time>
      </trkpt>
      <trkpt lat="42.46151" lon="2.28643">
        <ele>1848.4</ele>
        <time>2019-01-07T05:24:05Z</time>
      </trkpt>
      <trkpt lat="42.46153" lon="2.28637">
        <ele>1849.3</ele>
        <time>2019-01-07T05:24:07Z</time>
      </trkpt>
      <trkpt lat="42.46149" lon="2.28633">
        <ele>1850.5</ele>
        <time>2019-01-07T05:24:08Z</time>
      </trkpt>
      <trkpt lat="42.46145" lon="2.2863">
        <ele>1852</ele>
        <time>2019-01-07T05:24:09Z</time>
      </trkpt>
      <trkpt lat="42.46141" lon="2.28625">
        <ele>1853.6</ele>
        <time>2019-01-07T05:24:10Z</time>
      </trkpt>
      <trkpt lat="42.46138" lon="2.2862">
        <ele>1854.6</ele>
        <time>2019-01-07T05:24:12Z</time>
      </trkpt>
      <trkpt lat="42.46133" lon="2.28618">
        <ele>1856</ele>
        <time>2019-01-07T05:24:13Z</time>
      </trkpt>
      <trkpt lat="42.4613" lon="2.28614">
        <ele>1857</ele>
        <time>2019-01-07T05:24:14Z</time>
      </trkpt>
      <trkpt lat="42.46125" lon="2.28612">
        <ele>1857.9</ele>
        <time>2019-01-07T05:24:16Z</time>
      </trkpt>
      <trkpt lat="42.4612" lon="2.2861">
        <ele>1858.7</ele>
        <time>2019-01-07T05:24:17Z</time>
      </trkpt>
      <trkpt lat="42.46117" lon="2.28606">
        <ele>1859.4</ele>
        <time>2019-01-07T05:24:18Z</time>
      </trkpt>
      <trkpt lat="42.46112" lon="2.28605">
        <ele>1860.4</ele>
        <time>2019-01-07T05:24:20Z</time>
      </trkpt>
      <trkpt lat="42.46106" lon="2.28605">
        <ele>1861.3</ele>
        <time>2019-01-07T05:24:21Z</time>
      </trkpt>
      <trkpt lat="42.46102" lon="2.28601">
        <ele>1862.2</ele>
        <time>2019-01-07T05:24:22Z</time>
      </trkpt>
      <trkpt lat="42.46099" lon="2.28597">
        <ele>1863</ele>
        <time>2019-01-07T05:24:24Z</time>
      </trkpt>
      <trkpt lat="42.46095" lon="2.28593">
        <ele>1863.6</ele>
        <time>2019-01-07T05:24:25Z</time>
      </trkpt>
      <trkpt lat="42.4609" lon="2.2859">
        <ele>1864.3</ele>
        <time>2019-01-07T05:24:26Z</time>
      </trkpt>
      <trkpt lat="42.46087" lon="2.28585">
        <ele>1864.8</ele>
        <time>2019-01-07T05:24:28Z</time>
      </trkpt>
      <trkpt lat="42.46084" lon="2.2858">
        <ele>1865.8</ele>
        <time>2019-01-07T05:24:29Z</time>
      </trkpt>
      <trkpt lat="42.4608" lon="2.28575">
        <ele>1866.2</ele>
        <time>2019-01-07T05:24:30Z</time>
      </trkpt>
      <trkpt lat="42.46076" lon="2.28571">
        <ele>1867.4</ele>
        <time>2019-01-07T05:24:32Z</time>
      </trkpt>
      <trkpt lat="42.46072" lon="2.28567">
        <ele>1868.1</ele>
        <time>2019-01-07T05:24:33Z</time>
      </trkpt>
      <trkpt lat="42.46069" lon="2.28562">
        <ele>1869.1</ele>
        <time>2019-01-07T05:24:34Z</time>
      </trkpt>
      <trkpt lat="42.46064" lon="2.28559">
        <ele>1869.9</ele>
        <time>2019-01-07T05:24:36Z</time>
      </trkpt>
      <trkpt lat="42.46061" lon="2.28555">
        <ele>1870.2</ele>
        <time>2019-01-07T05:24:37Z</time>
      </trkpt>
      <trkpt lat="42.46056" lon="2.28556">
        <ele>1870.7</ele>
        <time>2019-01-07T05:24:38Z</time>
      </trkpt>
      <trkpt lat="42.46053" lon="2.28562">
        <ele>1871.6</ele>
        <time>2019-01-07T05:24:40Z</time>
      </trkpt>
      <trkpt lat="42.4605" lon="2.28556">
        <ele>1872.5</ele>
        <time>2019-01-07T05:24:41Z</time>
      </trkpt>
      <trkpt lat="42.46046" lon="2.28552">
        <ele>1873.5</ele>
        <time>2019-01-07T05:24:42Z</time>
      </trkpt>
      <trkpt lat="42.46041" lon="2.2855">
        <ele>1874.3</ele>
        <time>2019-01-07T05:24:44Z</time>
      </trkpt>
      <trkpt lat="42.46038" lon="2.28545">
        <ele>1875.1</ele>
        <time>2019-01-07T05:24:45Z</time>
      </trkpt>
      <trkpt lat="42.46033" lon="2.28546">
        <ele>1876</ele>
        <time>2019-01-07T05:24:46Z</time>
      </trkpt>
      <trkpt lat="42.46029" lon="2.2855">
        <ele>1876.6</ele>
        <time>2019-01-07T05:24:48Z</time>
      </trkpt>
      <trkpt lat="42.46025" lon="2.28552">
        <ele>1877.7</ele>
        <time>2019-01-07T05:24:49Z</time>
      </trkpt>
      <trkpt lat="42.4602" lon="2.28553">
        <ele>1878.6</ele>
        <time>2019-01-07T05:24:50Z</time>
      </trkpt>
      <trkpt lat="42.46015" lon="2.2855">
        <ele>1880</ele>
        <time>2019-01-07T05:24:51Z</time>
      </trkpt>
      <trkpt lat="42.46011" lon="2.28546">
        <ele>1880.9</ele>
        <time>2019-01-07T05:24:53Z</time>
      </trkpt>
      <trkpt lat="42.46008" lon="2.28542">
        <ele>1881.4</ele>
        <time>2019-01-07T05:24:54Z</time>
      </trkpt>
      <trkpt lat="42.46004" lon="2.28538">
        <ele>1882.4</ele>
        <time>2019-01-07T05:24:55Z</time>
      </trkpt>
      <trkpt lat="42.46" lon="2.28534">
        <ele>1883.7</ele>
        <time>2019-01-07T05:24:57Z</time>
      </trkpt>
      <trkpt lat="42.45999" lon="2.28528">
        <ele>1884.6</ele>
        <time>2019-01-07T05:24:58Z</time>
      </trkpt>
      <trkpt lat="42.45996" lon="2.28522">
        <ele>1885.7</ele>
        <time>2019-01-07T05:24:59Z</time>
      </trkpt>
      <trkpt lat="42.45992" lon="2.28519">
        <ele>1886.5</ele>
        <time>2019-01-07T05:25:01Z</time>
      </trkpt>
      <trkpt lat="42.4599" lon="2.28513">
        <ele>1887.1</ele>
        <time>2019-01-07T05:25:02Z</time>
      </trkpt>
      <trkpt lat="42.45987" lon="2.28508">
        <ele>1887.6</ele>
        <time>2019-01-07T05:25:03Z</time>
      </trkpt>
      <trkpt lat="42.45983" lon="2.28503">
        <ele>1888.6</ele>
        <time>2019-01-07T05:25:04Z</time>
      </trkpt>
      <trkpt lat="42.4598" lon="2.28498">
        <ele>1889.6</ele>
        <time>2019-01-07T05:25:06Z</time>
      </trkpt>
      <trkpt lat="42.45982" lon="2.28492">
        <ele>1891.4</ele>
        <time>2019-01-07T05:25:07Z</time>
      </trkpt>
      <trkpt lat="42.4598" lon="2.28487">
        <ele>1892</ele>
        <time>2019-01-07T05:25:08Z</time>
      </trkpt>
      <trkpt lat="42.45977" lon="2.28482">
        <ele>1892.6</ele>
        <time>2019-01-07T05:25:09Z</time>
      </trkpt>
      <trkpt lat="42.45975" lon="2.28476">
        <ele>1893.3</ele>
        <time>2019-01-07T05:25:11Z</time>
      </trkpt>
      <trkpt lat="42.45973" lon="2.2847">
        <ele>1894.2</ele>
        <time>2019-01-07T05:25:12Z</time>
      </trkpt>
      <trkpt lat="42.45972" lon="2.28462">
        <ele>1894.9</ele>
        <time>2019-01-07T05:25:14Z</time>
      </trkpt>
      <trkpt lat="42.45967" lon="2.28458">
        <ele>1895.3</ele>
        <time>2019-01-07T05:25:15Z</time>
      </trkpt>
      <trkpt lat="42.45962" lon="2.28455">
        <ele>1895.7</ele>
        <time>2019-01-07T05:25:17Z</time>
      </trkpt>
      <trkpt lat="42.45958" lon="2.28451">
        <ele>1896.2</ele>
        <time>2019-01-07T05:25:18Z</time>
      </trkpt>
      <trkpt lat="42.45954" lon="2.28448">
        <ele>1896.7</ele>
        <time>2019-01-07T05:25:19Z</time>
      </trkpt>
      <trkpt lat="42.45952" lon="2.28442">
        <ele>1897.5</ele>
        <time>2019-01-07T05:25:20Z</time>
      </trkpt>
      <trkpt lat="42.45949" lon="2.28438">
        <ele>1898.2</ele>
        <time>2019-01-07T05:25:22Z</time>
      </trkpt>
      <trkpt lat="42.45946" lon="2.28433">
        <ele>1899</ele>
        <time>2019-01-07T05:25:23Z</time>
      </trkpt>
      <trkpt lat="42.45941" lon="2.28429">
        <ele>1899.9</ele>
        <time>2019-01-07T05:25:24Z</time>
      </trkpt>
      <trkpt lat="42.45937" lon="2.28424">
        <ele>1900.5</ele>
        <time>2019-01-07T05:25:26Z</time>
      </trkpt>
      <trkpt lat="42.45936" lon="2.28418">
        <ele>1901.9</ele>
        <time>2019-01-07T05:25:27Z</time>
      </trkpt>
      <trkpt lat="42.45931" lon="2.28413">
        <ele>1902.9</ele>
        <time>2019-01-07T05:25:28Z</time>
      </trkpt>
      <trkpt lat="42.45929" lon="2.28408">
        <ele>1903.7</ele>
        <time>2019-01-07T05:25:30Z</time>
      </trkpt>
      <trkpt lat="42.45928" lon="2.28401">
        <ele>1904.6</ele>
        <time>2019-01-07T05:25:31Z</time>
      </trkpt>
      <trkpt lat="42.45926" lon="2.28395">
        <ele>1905.7</ele>
        <time>2019-01-07T05:25:32Z</time>
      </trkpt>
      <trkpt lat="42.45922" lon="2.28391">
        <ele>1906.2</ele>
        <time>2019-01-07T05:25:34Z</time>
      </trkpt>
      <trkpt lat="42.45919" lon="2.28386">
        <ele>1906.7</ele>
        <time>2019-01-07T05:25:35Z</time>
      </trkpt>
      <trkpt lat="42.45918" lon="2.2838">
        <ele>1907.8</ele>
        <time>2019-01-07T05:25:36Z</time>
      </trkpt>
      <trkpt lat="42.45914" lon="2.28376">
        <ele>1908.3</ele>
        <time>2019-01-07T05:25:37Z</time>
      </trkpt>
      <trkpt lat="42.45911" lon="2.2837">
        <ele>1909.1</ele>
        <time>2019-01-07T05:25:39Z</time>
      </trkpt>
      <trkpt lat="42.4591" lon="2.28364">
        <ele>1909.7</ele>
        <time>2019-01-07T05:25:40Z</time>
      </trkpt>
      <trkpt lat="42.45906" lon="2.28359">
        <ele>1910.8</ele>
        <time>2019-01-07T05:25:42Z</time>
      </trkpt>
      <trkpt lat="42.45901" lon="2.28357">
        <ele>1911.8</ele>
        <time>2019-01-07T05:25:43Z</time>
      </trkpt>
      <trkpt lat="42.45899" lon="2.28352">
        <ele>1912.2</ele>
        <time>2019-01-07T05:25:44Z</time>
      </trkpt>
      <trkpt lat="42.45895" lon="2.28348">
        <ele>1912.8</ele>
        <time>2019-01-07T05:25:45Z</time>
      </trkpt>
      <trkpt lat="42.45891" lon="2.28343">
        <ele>1913.3</ele>
        <time>2019-01-07T05:25:47Z</time>
      </trkpt>
      <trkpt lat="42.4589" lon="2.28337">
        <ele>1913.9</ele>
        <time>2019-01-07T05:25:48Z</time>
      </trkpt>
      <trkpt lat="42.45887" lon="2.28332">
        <ele>1914.5</ele>
        <time>2019-01-07T05:25:49Z</time>
      </trkpt>
      <trkpt lat="42.45885" lon="2.28325">
        <ele>1915.6</ele>
        <time>2019-01-07T05:25:51Z</time>
      </trkpt>
      <trkpt lat="42.45884" lon="2.2832">
        <ele>1916.4</ele>
        <time>2019-01-07T05:25:52Z</time>
      </trkpt>
      <trkpt lat="42.45884" lon="2.28313">
        <ele>1917</ele>
        <time>2019-01-07T05:25:53Z</time>
      </trkpt>
      <trkpt lat="42.45882" lon="2.28307">
        <ele>1917.6</ele>
        <time>2019-01-07T05:25:54Z</time>
      </trkpt>
      <trkpt lat="42.45879" lon="2.28302">
        <ele>1918.5</ele>
        <time>2019-01-07T05:25:56Z</time>
      </trkpt>
      <trkpt lat="42.45876" lon="2.28296">
        <ele>1919.5</ele>
        <time>2019-01-07T05:25:57Z</time>
      </trkpt>
      <trkpt lat="42.45874" lon="2.2829">
        <ele>1920.6</ele>
        <time>2019-01-07T05:25:58Z</time>
      </trkpt>
      <trkpt lat="42.4587" lon="2.28285">
        <ele>1921.4</ele>
        <time>2019-01-07T05:26:00Z</time>
      </trkpt>
      <trkpt lat="42.45866" lon="2.28281">
        <ele>1922.3</ele>
        <time>2019-01-07T05:26:01Z</time>
      </trkpt>
      <trkpt lat="42.45864" lon="2.28275">
        <ele>1923.2</ele>
        <time>2019-01-07T05:26:03Z</time>
      </trkpt>
      <trkpt lat="42.45864" lon="2.28268">
        <ele>1923.7</ele>
        <time>2019-01-07T05:26:04Z</time>
      </trkpt>
      <trkpt lat="42.45861" lon="2.28262">
        <ele>1924</ele>
        <time>2019-01-07T05:26:05Z</time>
      </trkpt>
      <trkpt lat="42.45857" lon="2.28259">
        <ele>1924.6</ele>
        <time>2019-01-07T05:26:06Z</time>
      </trkpt>
      <trkpt lat="42.45853" lon="2.28254">
        <ele>1925.8</ele>
        <time>2019-01-07T05:26:08Z</time>
      </trkpt>
      <trkpt lat="42.45852" lon="2.28248">
        <ele>1925.8</ele>
        <time>2019-01-07T05:26:09Z</time>
      </trkpt>
      <trkpt lat="42.45849" lon="2.28243">
        <ele>1926.2</ele>
        <time>2019-01-07T05:26:10Z</time>
      </trkpt>
      <trkpt lat="42.45844" lon="2.28242">
        <ele>1926.5</ele>
        <time>2019-01-07T05:26:12Z</time>
      </trkpt>
      <trkpt lat="42.45841" lon="2.28237">
        <ele>1927.3</ele>
        <time>2019-01-07T05:26:13Z</time>
      </trkpt>
      <trkpt lat="42.45838" lon="2.28231">
        <ele>1928.1</ele>
        <time>2019-01-07T05:26:14Z</time>
      </trkpt>
      <trkpt lat="42.45835" lon="2.28226">
        <ele>1929.1</ele>
        <time>2019-01-07T05:26:16Z</time>
      </trkpt>
      <trkpt lat="42.45833" lon="2.28221">
        <ele>1930.2</ele>
        <time>2019-01-07T05:26:17Z</time>
      </trkpt>
      <trkpt lat="42.4583" lon="2.28216">
        <ele>1931.1</ele>
        <time>2019-01-07T05:26:18Z</time>
      </trkpt>
      <trkpt lat="42.45832" lon="2.2821">
        <ele>1932.3</ele>
        <time>2019-01-07T05:26:19Z</time>
      </trkpt>
      <trkpt lat="42.45835" lon="2.28205">
        <ele>1932.9</ele>
        <time>2019-01-07T05:26:21Z</time>
      </trkpt>
      <trkpt lat="42.45839" lon="2.28207">
        <ele>1932.6</ele>
        <time>2019-01-07T05:26:22Z</time>
      </trkpt>
      <trkpt lat="42.4584" lon="2.28213">
        <ele>1930.5</ele>
        <time>2019-01-07T05:26:23Z</time>
      </trkpt>
      <trkpt lat="42.4584" lon="2.28206">
        <ele>1931.6</ele>
        <time>2019-01-07T05:26:24Z</time>
      </trkpt>
      <trkpt lat="42.45835" lon="2.28204">
        <ele>1932.3</ele>
        <time>2019-01-07T05:26:26Z</time>
      </trkpt>
      <trkpt lat="42.45832" lon="2.28198">
        <ele>1933</ele>
        <time>2019-01-07T05:26:27Z</time>
      </trkpt>
      <trkpt lat="42.45828" lon="2.28194">
        <ele>1933.7</ele>
        <time>2019-01-07T05:26:28Z</time>
      </trkpt>
      <trkpt lat="42.45825" lon="2.2819">
        <ele>1934.2</ele>
        <time>2019-01-07T05:26:30Z</time>
      </trkpt>
      <trkpt lat="42.45823" lon="2.28183">
        <ele>1934.7</ele>
        <time>2019-01-07T05:26:31Z</time>
      </trkpt>
      <trkpt lat="42.45822" lon="2.28176">
        <ele>1935.4</ele>
        <time>2019-01-07T05:26:32Z</time>
      </trkpt>
      <trkpt lat="42.45822" lon="2.28169">
        <ele>1936.1</ele>
        <time>2019-01-07T05:26:34Z</time>
      </trkpt>
      <trkpt lat="42.4582" lon="2.28163">
        <ele>1936.5</ele>
        <time>2019-01-07T05:26:35Z</time>
      </trkpt>
      <trkpt lat="42.45816" lon="2.28158">
        <ele>1937</ele>
        <time>2019-01-07T05:26:37Z</time>
      </trkpt>
      <trkpt lat="42.45812" lon="2.28155">
        <ele>1937.3</ele>
        <time>2019-01-07T05:26:38Z</time>
      </trkpt>
      <trkpt lat="42.45807" lon="2.28152">
        <ele>1937.7</ele>
        <time>2019-01-07T05:26:39Z</time>
      </trkpt>
      <trkpt lat="42.45802" lon="2.2815">
        <ele>1938.2</ele>
        <time>2019-01-07T05:26:41Z</time>
      </trkpt>
      <trkpt lat="42.45798" lon="2.28148">
        <ele>1938.6</ele>
        <time>2019-01-07T05:26:42Z</time>
      </trkpt>
      <trkpt lat="42.45795" lon="2.28142">
        <ele>1939</ele>
        <time>2019-01-07T05:26:43Z</time>
      </trkpt>
      <trkpt lat="42.45794" lon="2.28135">
        <ele>1939.6</ele>
        <time>2019-01-07T05:26:45Z</time>
      </trkpt>
      <trkpt lat="42.45793" lon="2.28129">
        <ele>1941.1</ele>
        <time>2019-01-07T05:26:46Z</time>
      </trkpt>
      <trkpt lat="42.45791" lon="2.28123">
        <ele>1941.2</ele>
        <time>2019-01-07T05:26:47Z</time>
      </trkpt>
      <trkpt lat="42.4579" lon="2.28117">
        <ele>1941.9</ele>
        <time>2019-01-07T05:26:48Z</time>
      </trkpt>
      <trkpt lat="42.45786" lon="2.28112">
        <ele>1942.5</ele>
        <time>2019-01-07T05:26:50Z</time>
      </trkpt>
      <trkpt lat="42.45785" lon="2.28106">
        <ele>1944.2</ele>
        <time>2019-01-07T05:26:51Z</time>
      </trkpt>
      <trkpt lat="42.45782" lon="2.28101">
        <ele>1945</ele>
        <time>2019-01-07T05:26:52Z</time>
      </trkpt>
      <trkpt lat="42.4578" lon="2.28095">
        <ele>1946.4</ele>
        <time>2019-01-07T05:26:54Z</time>
      </trkpt>
      <trkpt lat="42.45777" lon="2.2809">
        <ele>1947.6</ele>
        <time>2019-01-07T05:26:55Z</time>
      </trkpt>
      <trkpt lat="42.45778" lon="2.28084">
        <ele>1949</ele>
        <time>2019-01-07T05:26:56Z</time>
      </trkpt>
      <trkpt lat="42.45776" lon="2.28079">
        <ele>1949.8</ele>
        <time>2019-01-07T05:26:57Z</time>
      </trkpt>
      <trkpt lat="42.45773" lon="2.28074">
        <ele>1950.9</ele>
        <time>2019-01-07T05:26:59Z</time>
      </trkpt>
      <trkpt lat="42.45771" lon="2.28068">
        <ele>1952</ele>
        <time>2019-01-07T05:27:00Z</time>
      </trkpt>
      <trkpt lat="42.45771" lon="2.28061">
        <ele>1952.7</ele>
        <time>2019-01-07T05:27:01Z</time>
      </trkpt>
      <trkpt lat="42.4577" lon="2.28055">
        <ele>1953.5</ele>
        <time>2019-01-07T05:27:03Z</time>
      </trkpt>
      <trkpt lat="42.45767" lon="2.28049">
        <ele>1954.5</ele>
        <time>2019-01-07T05:27:04Z</time>
      </trkpt>
      <trkpt lat="42.45769" lon="2.28043">
        <ele>1955.5</ele>
        <time>2019-01-07T05:27:05Z</time>
      </trkpt>
      <trkpt lat="42.4577" lon="2.28036">
        <ele>1956.4</ele>
        <time>2019-01-07T05:27:07Z</time>
      </trkpt>
      <trkpt lat="42.45768" lon="2.2803">
        <ele>1957</ele>
        <time>2019-01-07T05:27:08Z</time>
      </trkpt>
      <trkpt lat="42.45765" lon="2.28025">
        <ele>1957.9</ele>
        <time>2019-01-07T05:27:09Z</time>
      </trkpt>
      <trkpt lat="42.45765" lon="2.28018">
        <ele>1959.3</ele>
        <time>2019-01-07T05:27:10Z</time>
      </trkpt>
      <trkpt lat="42.45765" lon="2.28011">
        <ele>1960.3</ele>
        <time>2019-01-07T05:27:12Z</time>
      </trkpt>
      <trkpt lat="42.45762" lon="2.28007">
        <ele>1961.1</ele>
        <time>2019-01-07T05:27:13Z</time>
      </trkpt>
      <trkpt lat="42.45758" lon="2.28003">
        <ele>1961.8</ele>
        <time>2019-01-07T05:27:14Z</time>
      </trkpt>
      <trkpt lat="42.45753" lon="2.28001">
        <ele>1963.2</ele>
        <time>2019-01-07T05:27:16Z</time>
      </trkpt>
      <trkpt lat="42.45751" lon="2.27996">
        <ele>1964</ele>
        <time>2019-01-07T05:27:17Z</time>
      </trkpt>
      <trkpt lat="42.45748" lon="2.27991">
        <ele>1964.8</ele>
        <time>2019-01-07T05:27:18Z</time>
      </trkpt>
      <trkpt lat="42.45745" lon="2.27985">
        <ele>1965.6</ele>
        <time>2019-01-07T05:27:19Z</time>
      </trkpt>
      <trkpt lat="42.45741" lon="2.27981">
        <ele>1966.7</ele>
        <time>2019-01-07T05:27:21Z</time>
      </trkpt>
      <trkpt lat="42.45737" lon="2.27976">
        <ele>1968.2</ele>
        <time>2019-01-07T05:27:22Z</time>
      </trkpt>
      <trkpt lat="42.45735" lon="2.2797">
        <ele>1969</ele>
        <time>2019-01-07T05:27:23Z</time>
      </trkpt>
      <trkpt lat="42.45732" lon="2.27965">
        <ele>1969.8</ele>
        <time>2019-01-07T05:27:25Z</time>
      </trkpt>
      <trkpt lat="42.45728" lon="2.27961">
        <ele>1970.5</ele>
        <time>2019-01-07T05:27:26Z</time>
      </trkpt>
      <trkpt lat="42.45727" lon="2.27954">
        <ele>1971.6</ele>
        <time>2019-01-07T05:27:28Z</time>
      </trkpt>
      <trkpt lat="42.45726" lon="2.27947">
        <ele>1972.4</ele>
        <time>2019-01-07T05:27:29Z</time>
      </trkpt>
      <trkpt lat="42.45724" lon="2.27941">
        <ele>1973.6</ele>
        <time>2019-01-07T05:27:30Z</time>
      </trkpt>
      <trkpt lat="42.45724" lon="2.27934">
        <ele>1974.8</ele>
        <time>2019-01-07T05:27:31Z</time>
      </trkpt>
      <trkpt lat="42.45722" lon="2.27928">
        <ele>1976.4</ele>
        <time>2019-01-07T05:27:33Z</time>
      </trkpt>
      <trkpt lat="42.45719" lon="2.27923">
        <ele>1977.5</ele>
        <time>2019-01-07T05:27:34Z</time>
      </trkpt>
      <trkpt lat="42.45718" lon="2.27916">
        <ele>1978.6</ele>
        <time>2019-01-07T05:27:35Z</time>
      </trkpt>
      <trkpt lat="42.45717" lon="2.2791">
        <ele>1979.9</ele>
        <time>2019-01-07T05:27:37Z</time>
      </trkpt>
      <trkpt lat="42.45714" lon="2.27905">
        <ele>1981.2</ele>
        <time>2019-01-07T05:27:38Z</time>
      </trkpt>
      <trkpt lat="42.45714" lon="2.27898">
        <ele>1982.4</ele>
        <time>2019-01-07T05:27:39Z</time>
      </trkpt>
      <trkpt lat="42.45714" lon="2.27892">
        <ele>1983.8</ele>
        <time>2019-01-07T05:27:41Z</time>
      </trkpt>
      <trkpt lat="42.4571" lon="2.27888">
        <ele>1985.1</ele>
        <time>2019-01-07T05:27:42Z</time>
      </trkpt>
      <trkpt lat="42.45707" lon="2.27884">
        <ele>1985.9</ele>
        <time>2019-01-07T05:27:43Z</time>
      </trkpt>
      <trkpt lat="42.45704" lon="2.27877">
        <ele>1987</ele>
        <time>2019-01-07T05:27:45Z</time>
      </trkpt>
      <trkpt lat="42.457" lon="2.27874">
        <ele>1988.2</ele>
        <time>2019-01-07T05:27:46Z</time>
      </trkpt>
      <trkpt lat="42.45697" lon="2.27869">
        <ele>1990.4</ele>
        <time>2019-01-07T05:27:47Z</time>
      </trkpt>
      <trkpt lat="42.45693" lon="2.27866">
        <ele>1991.8</ele>
        <time>2019-01-07T05:27:48Z</time>
      </trkpt>
      <trkpt lat="42.4569" lon="2.2786">
        <ele>1993.5</ele>
        <time>2019-01-07T05:27:50Z</time>
      </trkpt>
      <trkpt lat="42.4569" lon="2.27853">
        <ele>1994.3</ele>
        <time>2019-01-07T05:27:51Z</time>
      </trkpt>
      <trkpt lat="42.4569" lon="2.27847">
        <ele>1995.7</ele>
        <time>2019-01-07T05:27:52Z</time>
      </trkpt>
      <trkpt lat="42.45693" lon="2.27842">
        <ele>1996.9</ele>
        <time>2019-01-07T05:27:54Z</time>
      </trkpt>
      <trkpt lat="42.4569" lon="2.27838">
        <ele>1998.5</ele>
        <time>2019-01-07T05:27:55Z</time>
      </trkpt>
      <trkpt lat="42.45688" lon="2.27831">
        <ele>1999.9</ele>
        <time>2019-01-07T05:27:56Z</time>
      </trkpt>
      <trkpt lat="42.45686" lon="2.27825">
        <ele>2001.4</ele>
        <time>2019-01-07T05:27:57Z</time>
      </trkpt>
      <trkpt lat="42.45687" lon="2.27819">
        <ele>2002</ele>
        <time>2019-01-07T05:27:59Z</time>
      </trkpt>
      <trkpt lat="42.45686" lon="2.27813">
        <ele>2003.3</ele>
        <time>2019-01-07T05:28:00Z</time>
      </trkpt>
      <trkpt lat="42.45683" lon="2.27808">
        <ele>2004.7</ele>
        <time>2019-01-07T05:28:01Z</time>
      </trkpt>
      <trkpt lat="42.45683" lon="2.27801">
        <ele>2006</ele>
        <time>2019-01-07T05:28:02Z</time>
      </trkpt>
      <trkpt lat="42.4568" lon="2.27796">
        <ele>2007.8</ele>
        <time>2019-01-07T05:28:04Z</time>
      </trkpt>
      <trkpt lat="42.45677" lon="2.27792">
        <ele>2008.6</ele>
        <time>2019-01-07T05:28:05Z</time>
      </trkpt>
      <trkpt lat="42.45673" lon="2.27787">
        <ele>2010.9</ele>
        <time>2019-01-07T05:28:06Z</time>
      </trkpt>
      <trkpt lat="42.45669" lon="2.27784">
        <ele>2012.7</ele>
        <time>2019-01-07T05:28:08Z</time>
      </trkpt>
      <trkpt lat="42.45665" lon="2.27782">
        <ele>2014.3</ele>
        <time>2019-01-07T05:28:09Z</time>
      </trkpt>
      <trkpt lat="42.45663" lon="2.27776">
        <ele>2014.8</ele>
        <time>2019-01-07T05:28:10Z</time>
      </trkpt>
      <trkpt lat="42.45659" lon="2.27772">
        <ele>2015.7</ele>
        <time>2019-01-07T05:28:11Z</time>
      </trkpt>
      <trkpt lat="42.45655" lon="2.27772">
        <ele>2016.4</ele>
        <time>2019-01-07T05:28:13Z</time>
      </trkpt>
      <trkpt lat="42.4565" lon="2.2777">
        <ele>2016.6</ele>
        <time>2019-01-07T05:28:14Z</time>
      </trkpt>
      <trkpt lat="42.45646" lon="2.27767">
        <ele>2016.9</ele>
        <time>2019-01-07T05:28:15Z</time>
      </trkpt>
      <trkpt lat="42.45642" lon="2.27764">
        <ele>2017.2</ele>
        <time>2019-01-07T05:28:16Z</time>
      </trkpt>
      <trkpt lat="42.45637" lon="2.27762">
        <ele>2017.7</ele>
        <time>2019-01-07T05:28:18Z</time>
      </trkpt>
      <trkpt lat="42.45633" lon="2.27758">
        <ele>2018.9</ele>
        <time>2019-01-07T05:28:19Z</time>
      </trkpt>
      <trkpt lat="42.4563" lon="2.27753">
        <ele>2020.1</ele>
        <time>2019-01-07T05:28:20Z</time>
      </trkpt>
      <trkpt lat="42.45631" lon="2.27747">
        <ele>2022.5</ele>
        <time>2019-01-07T05:28:21Z</time>
      </trkpt>
      <trkpt lat="42.45628" lon="2.27742">
        <ele>2023.2</ele>
        <time>2019-01-07T05:28:23Z</time>
      </trkpt>
      <trkpt lat="42.45624" lon="2.27737">
        <ele>2024.1</ele>
        <time>2019-01-07T05:28:24Z</time>
      </trkpt>
      <trkpt lat="42.45627" lon="2.27732">
        <ele>2025.9</ele>
        <time>2019-01-07T05:28:25Z</time>
      </trkpt>
      <trkpt lat="42.45626" lon="2.27725">
        <ele>2028.2</ele>
        <time>2019-01-07T05:28:27Z</time>
      </trkpt>
      <trkpt lat="42.45627" lon="2.27719">
        <ele>2029.8</ele>
        <time>2019-01-07T05:28:28Z</time>
      </trkpt>
      <trkpt lat="42.45624" lon="2.27713">
        <ele>2031.1</ele>
        <time>2019-01-07T05:28:29Z</time>
      </trkpt>
      <trkpt lat="42.45624" lon="2.27707">
        <ele>2033.4</ele>
        <time>2019-01-07T05:28:31Z</time>
      </trkpt>
      <trkpt lat="42.45628" lon="2.27703">
        <ele>2034.8</ele>
        <time>2019-01-07T05:28:32Z</time>
      </trkpt>
      <trkpt lat="42.45632" lon="2.27701">
        <ele>2035.8</ele>
        <time>2019-01-07T05:28:33Z</time>
      </trkpt>
      <trkpt lat="42.45636" lon="2.27697">
        <ele>2037.7</ele>
        <time>2019-01-07T05:28:34Z</time>
      </trkpt>
      <trkpt lat="42.45641" lon="2.27696">
        <ele>2038.6</ele>
        <time>2019-01-07T05:28:36Z</time>
      </trkpt>
      <trkpt lat="42.45645" lon="2.27693">
        <ele>2040.4</ele>
        <time>2019-01-07T05:28:37Z</time>
      </trkpt>
      <trkpt lat="42.45646" lon="2.27687">
        <ele>2041.8</ele>
        <time>2019-01-07T05:28:38Z</time>
      </trkpt>
      <trkpt lat="42.45648" lon="2.27681">
        <ele>2043.2</ele>
        <time>2019-01-07T05:28:39Z</time>
      </trkpt>
      <trkpt lat="42.45652" lon="2.27677">
        <ele>2045.4</ele>
        <time>2019-01-07T05:28:41Z</time>
      </trkpt>
      <trkpt lat="42.45656" lon="2.27675">
        <ele>2046.5</ele>
        <time>2019-01-07T05:28:42Z</time>
      </trkpt>
      <trkpt lat="42.45661" lon="2.27675">
        <ele>2047.8</ele>
        <time>2019-01-07T05:28:43Z</time>
      </trkpt>
      <trkpt lat="42.45664" lon="2.27669">
        <ele>2048.7</ele>
        <time>2019-01-07T05:28:45Z</time>
      </trkpt>
      <trkpt lat="42.45667" lon="2.27664">
        <ele>2050.3</ele>
        <time>2019-01-07T05:28:46Z</time>
      </trkpt>
      <trkpt lat="42.45666" lon="2.27658">
        <ele>2052</ele>
        <time>2019-01-07T05:28:47Z</time>
      </trkpt>
      <trkpt lat="42.4567" lon="2.27654">
        <ele>2053.4</ele>
        <time>2019-01-07T05:28:49Z</time>
      </trkpt>
      <trkpt lat="42.45672" lon="2.27648">
        <ele>2055.2</ele>
        <time>2019-01-07T05:28:50Z</time>
      </trkpt>
      <trkpt lat="42.45677" lon="2.27648">
        <ele>2055.9</ele>
        <time>2019-01-07T05:28:51Z</time>
      </trkpt>
      <trkpt lat="42.45682" lon="2.27646">
        <ele>2056.6</ele>
        <time>2019-01-07T05:28:52Z</time>
      </trkpt>
      <trkpt lat="42.45686" lon="2.27642">
        <ele>2058.2</ele>
        <time>2019-01-07T05:28:54Z</time>
      </trkpt>
      <trkpt lat="42.4569" lon="2.27638">
        <ele>2059.3</ele>
        <time>2019-01-07T05:28:55Z</time>
      </trkpt>
      <trkpt lat="42.45694" lon="2.27635">
        <ele>2061</ele>
        <time>2019-01-07T05:28:56Z</time>
      </trkpt>
      <trkpt lat="42.45698" lon="2.27632">
        <ele>2063.1</ele>
        <time>2019-01-07T05:28:58Z</time>
      </trkpt>
      <trkpt lat="42.45703" lon="2.2763">
        <ele>2063.4</ele>
        <time>2019-01-07T05:28:59Z</time>
      </trkpt>
      <trkpt lat="42.45707" lon="2.27628">
        <ele>2064.4</ele>
        <time>2019-01-07T05:29:00Z</time>
      </trkpt>
      <trkpt lat="42.45712" lon="2.27626">
        <ele>2065.7</ele>
        <time>2019-01-07T05:29:02Z</time>
      </trkpt>
      <trkpt lat="42.45716" lon="2.27622">
        <ele>2067.1</ele>
        <time>2019-01-07T05:29:03Z</time>
      </trkpt>
      <trkpt lat="42.4572" lon="2.27618">
        <ele>2067.6</ele>
        <time>2019-01-07T05:29:04Z</time>
      </trkpt>
      <trkpt lat="42.45724" lon="2.27614">
        <ele>2068.5</ele>
        <time>2019-01-07T05:29:05Z</time>
      </trkpt>
      <trkpt lat="42.45727" lon="2.2761">
        <ele>2069.5</ele>
        <time>2019-01-07T05:29:07Z</time>
      </trkpt>
      <trkpt lat="42.45731" lon="2.27606">
        <ele>2071.3</ele>
        <time>2019-01-07T05:29:08Z</time>
      </trkpt>
      <trkpt lat="42.45734" lon="2.27601">
        <ele>2073.1</ele>
        <time>2019-01-07T05:29:09Z</time>
      </trkpt>
      <trkpt lat="42.45737" lon="2.27596">
        <ele>2075</ele>
        <time>2019-01-07T05:29:10Z</time>
      </trkpt>
      <trkpt lat="42.45741" lon="2.27594">
        <ele>2077.2</ele>
        <time>2019-01-07T05:29:12Z</time>
      </trkpt>
      <trkpt lat="42.45744" lon="2.27588">
        <ele>2080</ele>
        <time>2019-01-07T05:29:13Z</time>
      </trkpt>
      <trkpt lat="42.45748" lon="2.27584">
        <ele>2082.5</ele>
        <time>2019-01-07T05:29:14Z</time>
      </trkpt>
      <trkpt lat="42.45748" lon="2.27578">
        <ele>2084</ele>
        <time>2019-01-07T05:29:16Z</time>
      </trkpt>
      <trkpt lat="42.4575" lon="2.27572">
        <ele>2086.5</ele>
        <time>2019-01-07T05:29:17Z</time>
      </trkpt>
      <trkpt lat="42.45751" lon="2.27566">
        <ele>2089.7</ele>
        <time>2019-01-07T05:29:18Z</time>
      </trkpt>
      <trkpt lat="42.45754" lon="2.27562">
        <ele>2091.6</ele>
        <time>2019-01-07T05:29:20Z</time>
      </trkpt>
      <trkpt lat="42.45757" lon="2.27557">
        <ele>2094.1</ele>
        <time>2019-01-07T05:29:21Z</time>
      </trkpt>
      <trkpt lat="42.45756" lon="2.2755">
        <ele>2097.2</ele>
        <time>2019-01-07T05:29:22Z</time>
      </trkpt>
      <trkpt lat="42.45753" lon="2.27545">
        <ele>2100</ele>
        <time>2019-01-07T05:29:23Z</time>
      </trkpt>
      <trkpt lat="42.45756" lon="2.27541">
        <ele>2101.4</ele>
        <time>2019-01-07T05:29:25Z</time>
      </trkpt>
      <trkpt lat="42.45761" lon="2.27544">
        <ele>2102</ele>
        <time>2019-01-07T05:29:26Z</time>
      </trkpt>
      <trkpt lat="42.45765" lon="2.27545">
        <ele>2101.3</ele>
        <time>2019-01-07T05:29:27Z</time>
      </trkpt>
      <trkpt lat="42.45762" lon="2.27549">
        <ele>2101.7</ele>
        <time>2019-01-07T05:29:28Z</time>
      </trkpt>
      <trkpt lat="42.4576" lon="2.27544">
        <ele>2101.9</ele>
        <time>2019-01-07T05:29:29Z</time>
      </trkpt>
      <trkpt lat="42.45756" lon="2.27547">
        <ele>2101.7</ele>
        <time>2019-01-07T05:29:31Z</time>
      </trkpt>
      <trkpt lat="42.45753" lon="2.27552">
        <ele>2101.8</ele>
        <time>2019-01-07T05:29:32Z</time>
      </trkpt>
      <trkpt lat="42.45751" lon="2.27546">
        <ele>2102.3</ele>
        <time>2019-01-07T05:29:33Z</time>
      </trkpt>
      <trkpt lat="42.45747" lon="2.27542">
        <ele>2102.7</ele>
        <time>2019-01-07T05:29:34Z</time>
      </trkpt>
      <trkpt lat="42.45751" lon="2.27538">
        <ele>2105.2</ele>
        <time>2019-01-07T05:29:36Z</time>
      </trkpt>
      <trkpt lat="42.45755" lon="2.27534">
        <ele>2107.3</ele>
        <time>2019-01-07T05:29:37Z</time>
      </trkpt>
      <trkpt lat="42.45756" lon="2.27528">
        <ele>2110</ele>
        <time>2019-01-07T05:29:38Z</time>
      </trkpt>
      <trkpt lat="42.45754" lon="2.27523">
        <ele>2111.7</ele>
        <time>2019-01-07T05:29:40Z</time>
      </trkpt>
      <trkpt lat="42.45756" lon="2.27517">
        <ele>2114.5</ele>
        <time>2019-01-07T05:29:41Z</time>
      </trkpt>
      <trkpt lat="42.45752" lon="2.27513">
        <ele>2115.7</ele>
        <time>2019-01-07T05:29:42Z</time>
      </trkpt>
      <trkpt lat="42.45752" lon="2.27507">
        <ele>2118</ele>
        <time>2019-01-07T05:29:43Z</time>
      </trkpt>
      <trkpt lat="42.45749" lon="2.27501">
        <ele>2119.2</ele>
        <time>2019-01-07T05:29:45Z</time>
      </trkpt>
      <trkpt lat="42.45749" lon="2.27495">
        <ele>2121.8</ele>
        <time>2019-01-07T05:29:46Z</time>
      </trkpt>
      <trkpt lat="42.45752" lon="2.2749">
        <ele>2125.3</ele>
        <time>2019-01-07T05:29:47Z</time>
      </trkpt>
      <trkpt lat="42.45753" lon="2.27484">
        <ele>2127.6</ele>
        <time>2019-01-07T05:29:48Z</time>
      </trkpt>
      <trkpt lat="42.45752" lon="2.27478">
        <ele>2130.1</ele>
        <time>2019-01-07T05:29:50Z</time>
      </trkpt>
      <trkpt lat="42.45752" lon="2.27471">
        <ele>2132.4</ele>
        <time>2019-01-07T05:29:51Z</time>
      </trkpt>
      <trkpt lat="42.45749" lon="2.27467">
        <ele>2134.2</ele>
        <time>2019-01-07T05:29:52Z</time>
      </trkpt>
      <trkpt lat="42.45745" lon="2.27463">
        <ele>2135.8</ele>
        <time>2019-01-07T05:29:54Z</time>
      </trkpt>
      <trkpt lat="42.45744" lon="2.27457">
        <ele>2137.9</ele>
        <time>2019-01-07T05:29:55Z</time>
      </trkpt>
      <trkpt lat="42.45747" lon="2.27453">
        <ele>2139.8</ele>
        <time>2019-01-07T05:29:56Z</time>
      </trkpt>
      <trkpt lat="42.45746" lon="2.27447">
        <ele>2141.7</ele>
        <time>2019-01-07T05:29:57Z</time>
      </trkpt>
      <trkpt lat="42.45743" lon="2.27442">
        <ele>2142.9</ele>
        <time>2019-01-07T05:29:59Z</time>
      </trkpt>
      <trkpt lat="42.45738" lon="2.2744">
        <ele>2143.9</ele>
        <time>2019-01-07T05:30:00Z</time>
      </trkpt>
      <trkpt lat="42.45734" lon="2.27437">
        <ele>2144.8</ele>
        <time>2019-01-07T05:30:01Z</time>
      </trkpt>
      <trkpt lat="42.45737" lon="2.27432">
        <ele>2147.6</ele>
        <time>2019-01-07T05:30:02Z</time>
      </trkpt>
      <trkpt lat="42.45738" lon="2.27426">
        <ele>2149.4</ele>
        <time>2019-01-07T05:30:04Z</time>
      </trkpt>
      <trkpt lat="42.45734" lon="2.27422">
        <ele>2151.5</ele>
        <time>2019-01-07T05:30:05Z</time>
      </trkpt>
      <trkpt lat="42.45729" lon="2.27419">
        <ele>2152.9</ele>
        <time>2019-01-07T05:30:06Z</time>
      </trkpt>
      <trkpt lat="42.45725" lon="2.27415">
        <ele>2156.8</ele>
        <time>2019-01-07T05:30:08Z</time>
      </trkpt>
      <trkpt lat="42.4572" lon="2.27414">
        <ele>2157.8</ele>
        <time>2019-01-07T05:30:09Z</time>
      </trkpt>
      <trkpt lat="42.45717" lon="2.27411">
        <ele>2158.9</ele>
        <time>2019-01-07T05:30:10Z</time>
      </trkpt>
      <trkpt lat="42.45713" lon="2.27406">
        <ele>2160.1</ele>
        <time>2019-01-07T05:30:11Z</time>
      </trkpt>
      <trkpt lat="42.45708" lon="2.27406">
        <ele>2161.1</ele>
        <time>2019-01-07T05:30:13Z</time>
      </trkpt>
      <trkpt lat="42.45706" lon="2.27399">
        <ele>2163.2</ele>
        <time>2019-01-07T05:30:14Z</time>
      </trkpt>
      <trkpt lat="42.45711" lon="2.27395">
        <ele>2164.8</ele>
        <time>2019-01-07T05:30:16Z</time>
      </trkpt>
      <trkpt lat="42.45713" lon="2.2739">
        <ele>2166.8</ele>
        <time>2019-01-07T05:30:17Z</time>
      </trkpt>
      <trkpt lat="42.45711" lon="2.27384">
        <ele>2169.7</ele>
        <time>2019-01-07T05:30:18Z</time>
      </trkpt>
      <trkpt lat="42.45707" lon="2.2738">
        <ele>2171.1</ele>
        <time>2019-01-07T05:30:19Z</time>
      </trkpt>
      <trkpt lat="42.45704" lon="2.27375">
        <ele>2172.7</ele>
        <time>2019-01-07T05:30:21Z</time>
      </trkpt>
      <trkpt lat="42.45703" lon="2.27369">
        <ele>2177.5</ele>
        <time>2019-01-07T05:30:22Z</time>
      </trkpt>
      <trkpt lat="42.45707" lon="2.27366">
        <ele>2179.7</ele>
        <time>2019-01-07T05:30:23Z</time>
      </trkpt>
      <trkpt lat="42.45704" lon="2.2736">
        <ele>2182.1</ele>
        <time>2019-01-07T05:30:24Z</time>
      </trkpt>
      <trkpt lat="42.45704" lon="2.27354">
        <ele>2184.3</ele>
        <time>2019-01-07T05:30:26Z</time>
      </trkpt>
      <trkpt lat="42.45708" lon="2.27355">
        <ele>2185.6</ele>
        <time>2019-01-07T05:30:27Z</time>
      </trkpt>
      <trkpt lat="42.45712" lon="2.2735">
        <ele>2187.5</ele>
        <time>2019-01-07T05:30:28Z</time>
      </trkpt>
      <trkpt lat="42.45716" lon="2.27352">
        <ele>2188.5</ele>
        <time>2019-01-07T05:30:30Z</time>
      </trkpt>
      <trkpt lat="42.45721" lon="2.27353">
        <ele>2188</ele>
        <time>2019-01-07T05:30:31Z</time>
      </trkpt>
      <trkpt lat="42.45716" lon="2.2735">
        <ele>2188.4</ele>
        <time>2019-01-07T05:30:32Z</time>
      </trkpt>
      <trkpt lat="42.45715" lon="2.27344">
        <ele>2189.8</ele>
        <time>2019-01-07T05:30:33Z</time>
      </trkpt>
      <trkpt lat="42.4571" lon="2.27343">
        <ele>2191.5</ele>
        <time>2019-01-07T05:30:35Z</time>
      </trkpt>
      <trkpt lat="42.45706" lon="2.2734">
        <ele>2192</ele>
        <time>2019-01-07T05:30:36Z</time>
      </trkpt>
      <trkpt lat="42.45702" lon="2.27338">
        <ele>2193.1</ele>
        <time>2019-01-07T05:30:37Z</time>
      </trkpt>
      <trkpt lat="42.45702" lon="2.27332">
        <ele>2196</ele>
        <time>2019-01-07T05:30:38Z</time>
      </trkpt>
      <trkpt lat="42.45698" lon="2.27328">
        <ele>2197.8</ele>
        <time>2019-01-07T05:30:40Z</time>
      </trkpt>
      <trkpt lat="42.45694" lon="2.27325">
        <ele>2199.3</ele>
        <time>2019-01-07T05:30:41Z</time>
      </trkpt>
      <trkpt lat="42.45691" lon="2.27318">
        <ele>2201.1</ele>
        <time>2019-01-07T05:30:42Z</time>
      </trkpt>
      <trkpt lat="42.45693" lon="2.27312">
        <ele>2204.6</ele>
        <time>2019-01-07T05:30:44Z</time>
      </trkpt>
      <trkpt lat="42.4569" lon="2.27307">
        <ele>2206.8</ele>
        <time>2019-01-07T05:30:45Z</time>
      </trkpt>
      <trkpt lat="42.45686" lon="2.27303">
        <ele>2208.2</ele>
        <time>2019-01-07T05:30:46Z</time>
      </trkpt>
      <trkpt lat="42.4569" lon="2.27301">
        <ele>2209.6</ele>
        <time>2019-01-07T05:30:48Z</time>
      </trkpt>
      <trkpt lat="42.45695" lon="2.27305">
        <ele>2210.9</ele>
        <time>2019-01-07T05:30:49Z</time>
      </trkpt>
      <trkpt lat="42.45699" lon="2.27303">
        <ele>2212.5</ele>
        <time>2019-01-07T05:30:50Z</time>
      </trkpt>
      <trkpt lat="42.45703" lon="2.273">
        <ele>2214</ele>
        <time>2019-01-07T05:30:52Z</time>
      </trkpt>
      <trkpt lat="42.45708" lon="2.273">
        <ele>2215.1</ele>
        <time>2019-01-07T05:30:53Z</time>
      </trkpt>
      <trkpt lat="42.45712" lon="2.27296">
        <ele>2218.9</ele>
        <time>2019-01-07T05:30:54Z</time>
      </trkpt>
      <trkpt lat="42.45716" lon="2.27293">
        <ele>2219.8</ele>
        <time>2019-01-07T05:30:55Z</time>
      </trkpt>
      <trkpt lat="42.4572" lon="2.27289">
        <ele>2221.1</ele>
        <time>2019-01-07T05:30:57Z</time>
      </trkpt>
      <trkpt lat="42.4572" lon="2.27283">
        <ele>2224.6</ele>
        <time>2019-01-07T05:30:58Z</time>
      </trkpt>
      <trkpt lat="42.45719" lon="2.27277">
        <ele>2226.6</ele>
        <time>2019-01-07T05:30:59Z</time>
      </trkpt>
      <trkpt lat="42.45723" lon="2.27278">
        <ele>2226.6</ele>
        <time>2019-01-07T05:31:00Z</time>
      </trkpt>
      <trkpt lat="42.45727" lon="2.27274">
        <ele>2227.5</ele>
        <time>2019-01-07T05:31:02Z</time>
      </trkpt>
      <trkpt lat="42.45731" lon="2.27272">
        <ele>2229.5</ele>
        <time>2019-01-07T05:31:03Z</time>
      </trkpt>
      <trkpt lat="42.45735" lon="2.27268">
        <ele>2231.5</ele>
        <time>2019-01-07T05:31:04Z</time>
      </trkpt>
      <trkpt lat="42.4574" lon="2.27269">
        <ele>2233.6</ele>
        <time>2019-01-07T05:31:05Z</time>
      </trkpt>
      <trkpt lat="42.45744" lon="2.27266">
        <ele>2234.8</ele>
        <time>2019-01-07T05:31:07Z</time>
      </trkpt>
      <trkpt lat="42.45747" lon="2.27262">
        <ele>2236.1</ele>
        <time>2019-01-07T05:31:08Z</time>
      </trkpt>
      <trkpt lat="42.45752" lon="2.27263">
        <ele>2237.2</ele>
        <time>2019-01-07T05:31:09Z</time>
      </trkpt>
      <trkpt lat="42.45755" lon="2.27259">
        <ele>2238.5</ele>
        <time>2019-01-07T05:31:10Z</time>
      </trkpt>
      <trkpt lat="42.4576" lon="2.27257">
        <ele>2240.4</ele>
        <time>2019-01-07T05:31:12Z</time>
      </trkpt>
      <trkpt lat="42.45764" lon="2.27254">
        <ele>2241.8</ele>
        <time>2019-01-07T05:31:13Z</time>
      </trkpt>
      <trkpt lat="42.45768" lon="2.2725">
        <ele>2243.3</ele>
        <time>2019-01-07T05:31:14Z</time>
      </trkpt>
      <trkpt lat="42.45772" lon="2.27246">
        <ele>2244.9</ele>
        <time>2019-01-07T05:31:15Z</time>
      </trkpt>
      <trkpt lat="42.45777" lon="2.27246">
        <ele>2245.9</ele>
        <time>2019-01-07T05:31:17Z</time>
      </trkpt>
      <trkpt lat="42.4578" lon="2.27243">
        <ele>2247</ele>
        <time>2019-01-07T05:31:18Z</time>
      </trkpt>
      <trkpt lat="42.45784" lon="2.27239">
        <ele>2248.4</ele>
        <time>2019-01-07T05:31:19Z</time>
      </trkpt>
      <trkpt lat="42.45789" lon="2.27241">
        <ele>2248.9</ele>
        <time>2019-01-07T05:31:21Z</time>
      </trkpt>
      <trkpt lat="42.45794" lon="2.2724">
        <ele>2249.5</ele>
        <time>2019-01-07T05:31:22Z</time>
      </trkpt>
      <trkpt lat="42.45798" lon="2.27239">
        <ele>2250.1</ele>
        <time>2019-01-07T05:31:23Z</time>
      </trkpt>
      <trkpt lat="42.45803" lon="2.27237">
        <ele>2250.7</ele>
        <time>2019-01-07T05:31:24Z</time>
      </trkpt>
      <trkpt lat="42.45808" lon="2.27236">
        <ele>2251</ele>
        <time>2019-01-07T05:31:26Z</time>
      </trkpt>
      <trkpt lat="42.45812" lon="2.27233">
        <ele>2251.4</ele>
        <time>2019-01-07T05:31:27Z</time>
      </trkpt>
      <trkpt lat="42.45817" lon="2.2723">
        <ele>2252.4</ele>
        <time>2019-01-07T05:31:29Z</time>
      </trkpt>
      <trkpt lat="42.45822" lon="2.27226">
        <ele>2252.7</ele>
        <time>2019-01-07T05:31:30Z</time>
      </trkpt>
      <trkpt lat="42.45826" lon="2.27223">
        <ele>2253.3</ele>
        <time>2019-01-07T05:31:31Z</time>
      </trkpt>
      <trkpt lat="42.4583" lon="2.2722">
        <ele>2253.5</ele>
        <time>2019-01-07T05:31:32Z</time>
      </trkpt>
      <trkpt lat="42.45833" lon="2.27215">
        <ele>2254.1</ele>
        <time>2019-01-07T05:31:34Z</time>
      </trkpt>
      <trkpt lat="42.45835" lon="2.2721">
        <ele>2255.8</ele>
        <time>2019-01-07T05:31:35Z</time>
      </trkpt>
      <trkpt lat="42.45836" lon="2.27203">
        <ele>2257</ele>
        <time>2019-01-07T05:31:36Z</time>
      </trkpt>
      <trkpt lat="42.45834" lon="2.27197">
        <ele>2258.8</ele>
        <time>2019-01-07T05:31:37Z</time>
      </trkpt>
      <trkpt lat="42.45835" lon="2.27191">
        <ele>2260.8</ele>
        <time>2019-01-07T05:31:39Z</time>
      </trkpt>
      <trkpt lat="42.45836" lon="2.27184">
        <ele>2262.7</ele>
        <time>2019-01-07T05:31:40Z</time>
      </trkpt>
      <trkpt lat="42.45838" lon="2.27179">
        <ele>2264.7</ele>
        <time>2019-01-07T05:31:41Z</time>
      </trkpt>
      <trkpt lat="42.4584" lon="2.27172">
        <ele>2266.8</ele>
        <time>2019-01-07T05:31:43Z</time>
      </trkpt>
      <trkpt lat="42.45842" lon="2.27167">
        <ele>2268.6</ele>
        <time>2019-01-07T05:31:44Z</time>
      </trkpt>
      <trkpt lat="42.45843" lon="2.2716">
        <ele>2271.1</ele>
        <time>2019-01-07T05:31:45Z</time>
      </trkpt>
      <trkpt lat="42.45842" lon="2.27152">
        <ele>2273.6</ele>
        <time>2019-01-07T05:31:47Z</time>
      </trkpt>
      <trkpt lat="42.4584" lon="2.27146">
        <ele>2275.4</ele>
        <time>2019-01-07T05:31:48Z</time>
      </trkpt>
      <trkpt lat="42.45843" lon="2.27141">
        <ele>2276.5</ele>
        <time>2019-01-07T05:31:49Z</time>
      </trkpt>
      <trkpt lat="42.45847" lon="2.27136">
        <ele>2277.6</ele>
        <time>2019-01-07T05:31:51Z</time>
      </trkpt>
      <trkpt lat="42.45851" lon="2.27132">
        <ele>2279.3</ele>
        <time>2019-01-07T05:31:52Z</time>
      </trkpt>
      <trkpt lat="42.45855" lon="2.27127">
        <ele>2280.3</ele>
        <time>2019-01-07T05:31:54Z</time>
      </trkpt>
      <trkpt lat="42.45859" lon="2.27124">
        <ele>2281.1</ele>
        <time>2019-01-07T05:31:55Z</time>
      </trkpt>
      <trkpt lat="42.45862" lon="2.27119">
        <ele>2282.2</ele>
        <time>2019-01-07T05:31:56Z</time>
      </trkpt>
      <trkpt lat="42.45867" lon="2.27116">
        <ele>2283.2</ele>
        <time>2019-01-07T05:31:58Z</time>
      </trkpt>
      <trkpt lat="42.45871" lon="2.27112">
        <ele>2284.5</ele>
        <time>2019-01-07T05:31:59Z</time>
      </trkpt>
      <trkpt lat="42.45875" lon="2.2711">
        <ele>2285.4</ele>
        <time>2019-01-07T05:32:00Z</time>
      </trkpt>
      <trkpt lat="42.45879" lon="2.27106">
        <ele>2286.2</ele>
        <time>2019-01-07T05:32:01Z</time>
      </trkpt>
      <trkpt lat="42.45884" lon="2.27105">
        <ele>2286.9</ele>
        <time>2019-01-07T05:32:03Z</time>
      </trkpt>
      <trkpt lat="42.45889" lon="2.27102">
        <ele>2288</ele>
        <time>2019-01-07T05:32:04Z</time>
      </trkpt>
      <trkpt lat="42.45893" lon="2.27102">
        <ele>2289.2</ele>
        <time>2019-01-07T05:32:05Z</time>
      </trkpt>
      <trkpt lat="42.45892" lon="2.27096">
        <ele>2289.3</ele>
        <time>2019-01-07T05:32:07Z</time>
      </trkpt>
      <trkpt lat="42.45891" lon="2.2709">
        <ele>2289.9</ele>
        <time>2019-01-07T05:32:08Z</time>
      </trkpt>
      <trkpt lat="42.4589" lon="2.27083">
        <ele>2290.7</ele>
        <time>2019-01-07T05:32:09Z</time>
      </trkpt>
      <trkpt lat="42.45889" lon="2.27076">
        <ele>2291.3</ele>
        <time>2019-01-07T05:32:11Z</time>
      </trkpt>
      <trkpt lat="42.45886" lon="2.27071">
        <ele>2291.9</ele>
        <time>2019-01-07T05:32:12Z</time>
      </trkpt>
      <trkpt lat="42.45883" lon="2.27065">
        <ele>2292.6</ele>
        <time>2019-01-07T05:32:13Z</time>
      </trkpt>
      <trkpt lat="42.45881" lon="2.27059">
        <ele>2293</ele>
        <time>2019-01-07T05:32:15Z</time>
      </trkpt>
      <trkpt lat="42.45879" lon="2.27053">
        <ele>2294</ele>
        <time>2019-01-07T05:32:16Z</time>
      </trkpt>
      <trkpt lat="42.45877" lon="2.27047">
        <ele>2295.2</ele>
        <time>2019-01-07T05:32:17Z</time>
      </trkpt>
      <trkpt lat="42.45874" lon="2.27042">
        <ele>2296.2</ele>
        <time>2019-01-07T05:32:18Z</time>
      </trkpt>
      <trkpt lat="42.45872" lon="2.27036">
        <ele>2296.6</ele>
        <time>2019-01-07T05:32:20Z</time>
      </trkpt>
      <trkpt lat="42.45869" lon="2.27032">
        <ele>2297.2</ele>
        <time>2019-01-07T05:32:21Z</time>
      </trkpt>
      <trkpt lat="42.45866" lon="2.27027">
        <ele>2297.9</ele>
        <time>2019-01-07T05:32:22Z</time>
      </trkpt>
      <trkpt lat="42.45862" lon="2.27022">
        <ele>2298.1</ele>
        <time>2019-01-07T05:32:23Z</time>
      </trkpt>
      <trkpt lat="42.4586" lon="2.27017">
        <ele>2298.7</ele>
        <time>2019-01-07T05:32:25Z</time>
      </trkpt>
      <trkpt lat="42.45856" lon="2.27012">
        <ele>2299</ele>
        <time>2019-01-07T05:32:26Z</time>
      </trkpt>
      <trkpt lat="42.45853" lon="2.27006">
        <ele>2299.4</ele>
        <time>2019-01-07T05:32:27Z</time>
      </trkpt>
      <trkpt lat="42.4585" lon="2.27002">
        <ele>2299.8</ele>
        <time>2019-01-07T05:32:29Z</time>
      </trkpt>
      <trkpt lat="42.45847" lon="2.26997">
        <ele>2300.3</ele>
        <time>2019-01-07T05:32:30Z</time>
      </trkpt>
      <trkpt lat="42.45844" lon="2.26992">
        <ele>2300.4</ele>
        <time>2019-01-07T05:32:31Z</time>
      </trkpt>
      <trkpt lat="42.45842" lon="2.26986">
        <ele>2301.1</ele>
        <time>2019-01-07T05:32:33Z</time>
      </trkpt>
      <trkpt lat="42.45839" lon="2.2698">
        <ele>2301.8</ele>
        <time>2019-01-07T05:32:34Z</time>
      </trkpt>
      <trkpt lat="42.45836" lon="2.26974">
        <ele>2302.4</ele>
        <time>2019-01-07T05:32:35Z</time>
      </trkpt>
      <trkpt lat="42.45834" lon="2.26968">
        <ele>2302.8</ele>
        <time>2019-01-07T05:32:37Z</time>
      </trkpt>
      <trkpt lat="42.45832" lon="2.26963">
        <ele>2303.5</ele>
        <time>2019-01-07T05:32:38Z</time>
      </trkpt>
      <trkpt lat="42.4583" lon="2.26957">
        <ele>2304.1</ele>
        <time>2019-01-07T05:32:39Z</time>
      </trkpt>
      <trkpt lat="42.45828" lon="2.26951">
        <ele>2305.1</ele>
        <time>2019-01-07T05:32:40Z</time>
      </trkpt>
      <trkpt lat="42.45825" lon="2.26945">
        <ele>2306.2</ele>
        <time>2019-01-07T05:32:42Z</time>
      </trkpt>
      <trkpt lat="42.45823" lon="2.26939">
        <ele>2307.1</ele>
        <time>2019-01-07T05:32:43Z</time>
      </trkpt>
      <trkpt lat="42.45821" lon="2.26933">
        <ele>2307.8</ele>
        <time>2019-01-07T05:32:44Z</time>
      </trkpt>
      <trkpt lat="42.45819" lon="2.26926">
        <ele>2308.5</ele>
        <time>2019-01-07T05:32:46Z</time>
      </trkpt>
      <trkpt lat="42.4582" lon="2.26919">
        <ele>2309.8</ele>
        <time>2019-01-07T05:32:47Z</time>
      </trkpt>
      <trkpt lat="42.45818" lon="2.26913">
        <ele>2311.5</ele>
        <time>2019-01-07T05:32:48Z</time>
      </trkpt>
      <trkpt lat="42.45818" lon="2.26906">
        <ele>2312.1</ele>
        <time>2019-01-07T05:32:50Z</time>
      </trkpt>
      <trkpt lat="42.45816" lon="2.26899">
        <ele>2313.1</ele>
        <time>2019-01-07T05:32:51Z</time>
      </trkpt>
      <trkpt lat="42.45815" lon="2.26893">
        <ele>2313.9</ele>
        <time>2019-01-07T05:32:53Z</time>
      </trkpt>
      <trkpt lat="42.45813" lon="2.26887">
        <ele>2315.1</ele>
        <time>2019-01-07T05:32:54Z</time>
      </trkpt>
      <trkpt lat="42.45812" lon="2.2688">
        <ele>2316</ele>
        <time>2019-01-07T05:32:55Z</time>
      </trkpt>
      <trkpt lat="42.45812" lon="2.26874">
        <ele>2316.8</ele>
        <time>2019-01-07T05:32:56Z</time>
      </trkpt>
      <trkpt lat="42.45811" lon="2.26867">
        <ele>2317.5</ele>
        <time>2019-01-07T05:32:58Z</time>
      </trkpt>
      <trkpt lat="42.4581" lon="2.26861">
        <ele>2318.4</ele>
        <time>2019-01-07T05:32:59Z</time>
      </trkpt>
      <trkpt lat="42.45809" lon="2.26855">
        <ele>2319.3</ele>
        <time>2019-01-07T05:33:00Z</time>
      </trkpt>
      <trkpt lat="42.45807" lon="2.26849">
        <ele>2320.3</ele>
        <time>2019-01-07T05:33:02Z</time>
      </trkpt>
      <trkpt lat="42.45804" lon="2.26844">
        <ele>2320.9</ele>
        <time>2019-01-07T05:33:03Z</time>
      </trkpt>
      <trkpt lat="42.45803" lon="2.26837">
        <ele>2322</ele>
        <time>2019-01-07T05:33:04Z</time>
      </trkpt>
      <trkpt lat="42.45801" lon="2.26831">
        <ele>2323.1</ele>
        <time>2019-01-07T05:33:05Z</time>
      </trkpt>
      <trkpt lat="42.458" lon="2.26824">
        <ele>2324.1</ele>
        <time>2019-01-07T05:33:07Z</time>
      </trkpt>
      <trkpt lat="42.45798" lon="2.26819">
        <ele>2324.8</ele>
        <time>2019-01-07T05:33:08Z</time>
      </trkpt>
      <trkpt lat="42.45797" lon="2.26811">
        <ele>2326.2</ele>
        <time>2019-01-07T05:33:10Z</time>
      </trkpt>
      <trkpt lat="42.45795" lon="2.26806">
        <ele>2326.9</ele>
        <time>2019-01-07T05:33:11Z</time>
      </trkpt>
      <trkpt lat="42.45793" lon="2.268">
        <ele>2328.1</ele>
        <time>2019-01-07T05:33:12Z</time>
      </trkpt>
      <trkpt lat="42.45792" lon="2.26793">
        <ele>2329.8</ele>
        <time>2019-01-07T05:33:13Z</time>
      </trkpt>
      <trkpt lat="42.4579" lon="2.26787">
        <ele>2330.7</ele>
        <time>2019-01-07T05:33:15Z</time>
      </trkpt>
      <trkpt lat="42.45788" lon="2.26781">
        <ele>2331.9</ele>
        <time>2019-01-07T05:33:16Z</time>
      </trkpt>
      <trkpt lat="42.45787" lon="2.26775">
        <ele>2332.9</ele>
        <time>2019-01-07T05:33:17Z</time>
      </trkpt>
      <trkpt lat="42.45783" lon="2.2677">
        <ele>2334.2</ele>
        <time>2019-01-07T05:33:19Z</time>
      </trkpt>
      <trkpt lat="42.45782" lon="2.26763">
        <ele>2334.8</ele>
        <time>2019-01-07T05:33:20Z</time>
      </trkpt>
      <trkpt lat="42.45782" lon="2.26757">
        <ele>2335.8</ele>
        <time>2019-01-07T05:33:21Z</time>
      </trkpt>
      <trkpt lat="42.45779" lon="2.26751">
        <ele>2336.6</ele>
        <time>2019-01-07T05:33:23Z</time>
      </trkpt>
      <trkpt lat="42.45778" lon="2.26745">
        <ele>2337.5</ele>
        <time>2019-01-07T05:33:24Z</time>
      </trkpt>
      <trkpt lat="42.45777" lon="2.26739">
        <ele>2339</ele>
        <time>2019-01-07T05:33:25Z</time>
      </trkpt>
      <trkpt lat="42.45775" lon="2.26732">
        <ele>2340</ele>
        <time>2019-01-07T05:33:26Z</time>
      </trkpt>
      <trkpt lat="42.45772" lon="2.26727">
        <ele>2341.2</ele>
        <time>2019-01-07T05:33:28Z</time>
      </trkpt>
      <trkpt lat="42.45771" lon="2.26721">
        <ele>2343.1</ele>
        <time>2019-01-07T05:33:29Z</time>
      </trkpt>
      <trkpt lat="42.45767" lon="2.26716">
        <ele>2344.1</ele>
        <time>2019-01-07T05:33:30Z</time>
      </trkpt>
      <trkpt lat="42.45766" lon="2.26709">
        <ele>2345.4</ele>
        <time>2019-01-07T05:33:32Z</time>
      </trkpt>
      <trkpt lat="42.45764" lon="2.26703">
        <ele>2346.6</ele>
        <time>2019-01-07T05:33:33Z</time>
      </trkpt>
      <trkpt lat="42.45762" lon="2.26697">
        <ele>2347.6</ele>
        <time>2019-01-07T05:33:34Z</time>
      </trkpt>
      <trkpt lat="42.45761" lon="2.26691">
        <ele>2348.6</ele>
        <time>2019-01-07T05:33:35Z</time>
      </trkpt>
      <trkpt lat="42.45758" lon="2.26685">
        <ele>2349.7</ele>
        <time>2019-01-07T05:33:37Z</time>
      </trkpt>
      <trkpt lat="42.45756" lon="2.26679">
        <ele>2350.6</ele>
        <time>2019-01-07T05:33:38Z</time>
      </trkpt>
      <trkpt lat="42.45753" lon="2.26674">
        <ele>2351.8</ele>
        <time>2019-01-07T05:33:39Z</time>
      </trkpt>
      <trkpt lat="42.45751" lon="2.26668">
        <ele>2353.1</ele>
        <time>2019-01-07T05:33:41Z</time>
      </trkpt>
      <trkpt lat="42.4575" lon="2.26661">
        <ele>2354.2</ele>
        <time>2019-01-07T05:33:42Z</time>
      </trkpt>
      <trkpt lat="42.45747" lon="2.26656">
        <ele>2355.4</ele>
        <time>2019-01-07T05:33:43Z</time>
      </trkpt>
      <trkpt lat="42.45745" lon="2.2665">
        <ele>2357.5</ele>
        <time>2019-01-07T05:33:45Z</time>
      </trkpt>
      <trkpt lat="42.45744" lon="2.26645">
        <ele>2358.6</ele>
        <time>2019-01-07T05:33:46Z</time>
      </trkpt>
      <trkpt lat="42.45742" lon="2.26639">
        <ele>2359.9</ele>
        <time>2019-01-07T05:33:47Z</time>
      </trkpt>
      <trkpt lat="42.4574" lon="2.26633">
        <ele>2361</ele>
        <time>2019-01-07T05:33:48Z</time>
      </trkpt>
      <trkpt lat="42.45738" lon="2.26628">
        <ele>2361.8</ele>
        <time>2019-01-07T05:33:50Z</time>
      </trkpt>
      <trkpt lat="42.45735" lon="2.26622">
        <ele>2362.9</ele>
        <time>2019-01-07T05:33:51Z</time>
      </trkpt>
      <trkpt lat="42.45733" lon="2.26616">
        <ele>2364.1</ele>
        <time>2019-01-07T05:33:52Z</time>
      </trkpt>
      <trkpt lat="42.45731" lon="2.2661">
        <ele>2365.8</ele>
        <time>2019-01-07T05:33:53Z</time>
      </trkpt>
      <trkpt lat="42.45731" lon="2.26604">
        <ele>2367.1</ele>
        <time>2019-01-07T05:33:55Z</time>
      </trkpt>
      <trkpt lat="42.45728" lon="2.26599">
        <ele>2368.1</ele>
        <time>2019-01-07T05:33:56Z</time>
      </trkpt>
      <trkpt lat="42.45726" lon="2.26594">
        <ele>2369.3</ele>
        <time>2019-01-07T05:33:57Z</time>
      </trkpt>
      <trkpt lat="42.45724" lon="2.26587">
        <ele>2370.2</ele>
        <time>2019-01-07T05:33:58Z</time>
      </trkpt>
      <trkpt lat="42.45721" lon="2.26581">
        <ele>2371.3</ele>
        <time>2019-01-07T05:34:00Z</time>
      </trkpt>
      <trkpt lat="42.45718" lon="2.26577">
        <ele>2372.5</ele>
        <time>2019-01-07T05:34:01Z</time>
      </trkpt>
      <trkpt lat="42.45715" lon="2.26571">
        <ele>2373.4</ele>
        <time>2019-01-07T05:34:03Z</time>
      </trkpt>
      <trkpt lat="42.45716" lon="2.26565">
        <ele>2375.1</ele>
        <time>2019-01-07T05:34:04Z</time>
      </trkpt>
      <trkpt lat="42.45716" lon="2.26558">
        <ele>2376.7</ele>
        <time>2019-01-07T05:34:05Z</time>
      </trkpt>
      <trkpt lat="42.45715" lon="2.26552">
        <ele>2378.5</ele>
        <time>2019-01-07T05:34:06Z</time>
      </trkpt>
      <trkpt lat="42.45712" lon="2.26546">
        <ele>2379.8</ele>
        <time>2019-01-07T05:34:08Z</time>
      </trkpt>
      <trkpt lat="42.45709" lon="2.26541">
        <ele>2381</ele>
        <time>2019-01-07T05:34:09Z</time>
      </trkpt>
      <trkpt lat="42.45706" lon="2.26535">
        <ele>2382.2</ele>
        <time>2019-01-07T05:34:10Z</time>
      </trkpt>
      <trkpt lat="42.45702" lon="2.2653">
        <ele>2382.8</ele>
        <time>2019-01-07T05:34:12Z</time>
      </trkpt>
      <trkpt lat="42.45699" lon="2.26525">
        <ele>2383.3</ele>
        <time>2019-01-07T05:34:13Z</time>
      </trkpt>
      <trkpt lat="42.45696" lon="2.2652">
        <ele>2384.8</ele>
        <time>2019-01-07T05:34:14Z</time>
      </trkpt>
      <trkpt lat="42.45694" lon="2.26515">
        <ele>2386.2</ele>
        <time>2019-01-07T05:34:16Z</time>
      </trkpt>
      <trkpt lat="42.45691" lon="2.2651">
        <ele>2387.9</ele>
        <time>2019-01-07T05:34:17Z</time>
      </trkpt>
      <trkpt lat="42.45687" lon="2.26505">
        <ele>2388.7</ele>
        <time>2019-01-07T05:34:18Z</time>
      </trkpt>
      <trkpt lat="42.45684" lon="2.265">
        <ele>2390.5</ele>
        <time>2019-01-07T05:34:19Z</time>
      </trkpt>
      <trkpt lat="42.45684" lon="2.26494">
        <ele>2391.1</ele>
        <time>2019-01-07T05:34:21Z</time>
      </trkpt>
      <trkpt lat="42.45681" lon="2.26489">
        <ele>2392</ele>
        <time>2019-01-07T05:34:22Z</time>
      </trkpt>
      <trkpt lat="42.4568" lon="2.26483">
        <ele>2394</ele>
        <time>2019-01-07T05:34:23Z</time>
      </trkpt>
      <trkpt lat="42.45682" lon="2.26476">
        <ele>2394.7</ele>
        <time>2019-01-07T05:34:25Z</time>
      </trkpt>
      <trkpt lat="42.45679" lon="2.2647">
        <ele>2396.2</ele>
        <time>2019-01-07T05:34:26Z</time>
      </trkpt>
      <trkpt lat="42.45676" lon="2.26466">
        <ele>2397.2</ele>
        <time>2019-01-07T05:34:27Z</time>
      </trkpt>
      <trkpt lat="42.45673" lon="2.26461">
        <ele>2398.1</ele>
        <time>2019-01-07T05:34:28Z</time>
      </trkpt>
      <trkpt lat="42.45672" lon="2.26454">
        <ele>2399</ele>
        <time>2019-01-07T05:34:30Z</time>
      </trkpt>
      <trkpt lat="42.45668" lon="2.2645">
        <ele>2399.5</ele>
        <time>2019-01-07T05:34:31Z</time>
      </trkpt>
      <trkpt lat="42.45666" lon="2.26444">
        <ele>2400.7</ele>
        <time>2019-01-07T05:34:33Z</time>
      </trkpt>
      <trkpt lat="42.45662" lon="2.26439">
        <ele>2401.1</ele>
        <time>2019-01-07T05:34:34Z</time>
      </trkpt>
      <trkpt lat="42.45659" lon="2.26434">
        <ele>2402.3</ele>
        <time>2019-01-07T05:34:35Z</time>
      </trkpt>
      <trkpt lat="42.45658" lon="2.26427">
        <ele>2404.4</ele>
        <time>2019-01-07T05:34:36Z</time>
      </trkpt>
      <trkpt lat="42.45656" lon="2.26422">
        <ele>2405.2</ele>
        <time>2019-01-07T05:34:38Z</time>
      </trkpt>
      <trkpt lat="42.45651" lon="2.26419">
        <ele>2406.3</ele>
        <time>2019-01-07T05:34:39Z</time>
      </trkpt>
      <trkpt lat="42.4565" lon="2.26413">
        <ele>2407.2</ele>
        <time>2019-01-07T05:34:40Z</time>
      </trkpt>
      <trkpt lat="42.45648" lon="2.26406">
        <ele>2408.6</ele>
        <time>2019-01-07T05:34:42Z</time>
      </trkpt>
      <trkpt lat="42.45644" lon="2.26402">
        <ele>2409.4</ele>
        <time>2019-01-07T05:34:43Z</time>
      </trkpt>
      <trkpt lat="42.45642" lon="2.26397">
        <ele>2410.1</ele>
        <time>2019-01-07T05:34:44Z</time>
      </trkpt>
      <trkpt lat="42.45641" lon="2.2639">
        <ele>2411</ele>
        <time>2019-01-07T05:34:45Z</time>
      </trkpt>
      <trkpt lat="42.45638" lon="2.26386">
        <ele>2412.5</ele>
        <time>2019-01-07T05:34:47Z</time>
      </trkpt>
      <trkpt lat="42.45638" lon="2.26379">
        <ele>2413.4</ele>
        <time>2019-01-07T05:34:48Z</time>
      </trkpt>
      <trkpt lat="42.45639" lon="2.26372">
        <ele>2414.1</ele>
        <time>2019-01-07T05:34:49Z</time>
      </trkpt>
      <trkpt lat="42.45637" lon="2.26367">
        <ele>2414.8</ele>
        <time>2019-01-07T05:34:51Z</time>
      </trkpt>
      <trkpt lat="42.45634" lon="2.26361">
        <ele>2415.7</ele>
        <time>2019-01-07T05:34:52Z</time>
      </trkpt>
      <trkpt lat="42.45632" lon="2.26356">
        <ele>2416.7</ele>
        <time>2019-01-07T05:34:53Z</time>
      </trkpt>
      <trkpt lat="42.4563" lon="2.2635">
        <ele>2418.4</ele>
        <time>2019-01-07T05:34:54Z</time>
      </trkpt>
      <trkpt lat="42.45627" lon="2.26345">
        <ele>2420.2</ele>
        <time>2019-01-07T05:34:56Z</time>
      </trkpt>
      <trkpt lat="42.45623" lon="2.26341">
        <ele>2422.9</ele>
        <time>2019-01-07T05:34:57Z</time>
      </trkpt>
      <trkpt lat="42.45621" lon="2.26335">
        <ele>2423.9</ele>
        <time>2019-01-07T05:34:58Z</time>
      </trkpt>
      <trkpt lat="42.45618" lon="2.26329">
        <ele>2424.9</ele>
        <time>2019-01-07T05:35:00Z</time>
      </trkpt>
      <trkpt lat="42.45615" lon="2.26324">
        <ele>2426</ele>
        <time>2019-01-07T05:35:01Z</time>
      </trkpt>
      <trkpt lat="42.45613" lon="2.26317">
        <ele>2428.7</ele>
        <time>2019-01-07T05:35:02Z</time>
      </trkpt>
      <trkpt lat="42.45613" lon="2.26311">
        <ele>2430.6</ele>
        <time>2019-01-07T05:35:04Z</time>
      </trkpt>
      <trkpt lat="42.45612" lon="2.26305">
        <ele>2431.9</ele>
        <time>2019-01-07T05:35:05Z</time>
      </trkpt>
      <trkpt lat="42.45615" lon="2.263">
        <ele>2431.5</ele>
        <time>2019-01-07T05:35:06Z</time>
      </trkpt>
      <trkpt lat="42.45611" lon="2.26304">
        <ele>2431.6</ele>
        <time>2019-01-07T05:35:08Z</time>
      </trkpt>
      <trkpt lat="42.45612" lon="2.26298">
        <ele>2433.1</ele>
        <time>2019-01-07T05:35:09Z</time>
      </trkpt>
      <trkpt lat="42.45608" lon="2.26294">
        <ele>2433.9</ele>
        <time>2019-01-07T05:35:10Z</time>
      </trkpt>
      <trkpt lat="42.4561" lon="2.26288">
        <ele>2434</ele>
        <time>2019-01-07T05:35:11Z</time>
      </trkpt>
      <trkpt lat="42.45607" lon="2.26283">
        <ele>2434.7</ele>
        <time>2019-01-07T05:35:13Z</time>
      </trkpt>
      <trkpt lat="42.45606" lon="2.26276">
        <ele>2434.9</ele>
        <time>2019-01-07T05:35:14Z</time>
      </trkpt>
      <trkpt lat="42.45606" lon="2.2627">
        <ele>2435.2</ele>
        <time>2019-01-07T05:35:15Z</time>
      </trkpt>
      <trkpt lat="42.45606" lon="2.26264">
        <ele>2435.7</ele>
        <time>2019-01-07T05:35:16Z</time>
      </trkpt>
      <trkpt lat="42.45605" lon="2.26257">
        <ele>2435.8</ele>
        <time>2019-01-07T05:35:18Z</time>
      </trkpt>
      <trkpt lat="42.45606" lon="2.2625">
        <ele>2435.9</ele>
        <time>2019-01-07T05:35:19Z</time>
      </trkpt>
      <trkpt lat="42.45606" lon="2.26243">
        <ele>2435.8</ele>
        <time>2019-01-07T05:35:21Z</time>
      </trkpt>
      <trkpt lat="42.45606" lon="2.26236">
        <ele>2435.9</ele>
        <time>2019-01-07T05:35:22Z</time>
      </trkpt>
      <trkpt lat="42.45606" lon="2.26229">
        <ele>2435.6</ele>
        <time>2019-01-07T05:35:23Z</time>
      </trkpt>
      <trkpt lat="42.45604" lon="2.26223">
        <ele>2435.4</ele>
        <time>2019-01-07T05:35:25Z</time>
      </trkpt>
      <trkpt lat="42.45603" lon="2.26216">
        <ele>2435.6</ele>
        <time>2019-01-07T05:35:26Z</time>
      </trkpt>
      <trkpt lat="42.45604" lon="2.26209">
        <ele>2436.2</ele>
        <time>2019-01-07T05:35:27Z</time>
      </trkpt>
      <trkpt lat="42.45602" lon="2.26203">
        <ele>2436.4</ele>
        <time>2019-01-07T05:35:29Z</time>
      </trkpt>
      <trkpt lat="42.456" lon="2.26197">
        <ele>2436.5</ele>
        <time>2019-01-07T05:35:30Z</time>
      </trkpt>
      <trkpt lat="42.45599" lon="2.26191">
        <ele>2436.8</ele>
        <time>2019-01-07T05:35:31Z</time>
      </trkpt>
      <trkpt lat="42.45597" lon="2.26185">
        <ele>2437.1</ele>
        <time>2019-01-07T05:35:32Z</time>
      </trkpt>
      <trkpt lat="42.45596" lon="2.26178">
        <ele>2437.7</ele>
        <time>2019-01-07T05:35:34Z</time>
      </trkpt>
      <trkpt lat="42.45593" lon="2.26173">
        <ele>2438.1</ele>
        <time>2019-01-07T05:35:35Z</time>
      </trkpt>
      <trkpt lat="42.45591" lon="2.26167">
        <ele>2438.9</ele>
        <time>2019-01-07T05:35:36Z</time>
      </trkpt>
      <trkpt lat="42.4559" lon="2.2616">
        <ele>2439</ele>
        <time>2019-01-07T05:35:38Z</time>
      </trkpt>
      <trkpt lat="42.45589" lon="2.26153">
        <ele>2439.5</ele>
        <time>2019-01-07T05:35:39Z</time>
      </trkpt>
      <trkpt lat="42.45589" lon="2.26146">
        <ele>2440.1</ele>
        <time>2019-01-07T05:35:40Z</time>
      </trkpt>
      <trkpt lat="42.45587" lon="2.2614">
        <ele>2440.9</ele>
        <time>2019-01-07T05:35:42Z</time>
      </trkpt>
      <trkpt lat="42.45585" lon="2.26134">
        <ele>2441.9</ele>
        <time>2019-01-07T05:35:43Z</time>
      </trkpt>
      <trkpt lat="42.45583" lon="2.26127">
        <ele>2442.7</ele>
        <time>2019-01-07T05:35:44Z</time>
      </trkpt>
      <trkpt lat="42.45581" lon="2.26121">
        <ele>2443.8</ele>
        <time>2019-01-07T05:35:46Z</time>
      </trkpt>
      <trkpt lat="42.4558" lon="2.26114">
        <ele>2444.7</ele>
        <time>2019-01-07T05:35:47Z</time>
      </trkpt>
      <trkpt lat="42.45578" lon="2.26108">
        <ele>2445.7</ele>
        <time>2019-01-07T05:35:49Z</time>
      </trkpt>
      <trkpt lat="42.45577" lon="2.26102">
        <ele>2446.5</ele>
        <time>2019-01-07T05:35:50Z</time>
      </trkpt>
      <trkpt lat="42.45577" lon="2.26096">
        <ele>2447.7</ele>
        <time>2019-01-07T05:35:51Z</time>
      </trkpt>
      <trkpt lat="42.45576" lon="2.26089">
        <ele>2448.1</ele>
        <time>2019-01-07T05:35:52Z</time>
      </trkpt>
      <trkpt lat="42.45574" lon="2.26083">
        <ele>2449.2</ele>
        <time>2019-01-07T05:35:54Z</time>
      </trkpt>
      <trkpt lat="42.45572" lon="2.26077">
        <ele>2450</ele>
        <time>2019-01-07T05:35:55Z</time>
      </trkpt>
      <trkpt lat="42.4557" lon="2.26071">
        <ele>2451.1</ele>
        <time>2019-01-07T05:35:56Z</time>
      </trkpt>
      <trkpt lat="42.45568" lon="2.26065">
        <ele>2451.5</ele>
        <time>2019-01-07T05:35:57Z</time>
      </trkpt>
      <trkpt lat="42.45565" lon="2.2606">
        <ele>2452.1</ele>
        <time>2019-01-07T05:35:59Z</time>
      </trkpt>
      <trkpt lat="42.45563" lon="2.26054">
        <ele>2452.7</ele>
        <time>2019-01-07T05:36:00Z</time>
      </trkpt>
      <trkpt lat="42.45561" lon="2.26048">
        <ele>2453.3</ele>
        <time>2019-01-07T05:36:01Z</time>
      </trkpt>
      <trkpt lat="42.45558" lon="2.26043">
        <ele>2453.8</ele>
        <time>2019-01-07T05:36:03Z</time>
      </trkpt>
      <trkpt lat="42.45556" lon="2.26037">
        <ele>2454.5</ele>
        <time>2019-01-07T05:36:04Z</time>
      </trkpt>
      <trkpt lat="42.45554" lon="2.26032">
        <ele>2455.7</ele>
        <time>2019-01-07T05:36:05Z</time>
      </trkpt>
      <trkpt lat="42.45552" lon="2.26025">
        <ele>2456.2</ele>
        <time>2019-01-07T05:36:06Z</time>
      </trkpt>
      <trkpt lat="42.4555" lon="2.26019">
        <ele>2457.6</ele>
        <time>2019-01-07T05:36:08Z</time>
      </trkpt>
      <trkpt lat="42.45547" lon="2.26014">
        <ele>2459</ele>
        <time>2019-01-07T05:36:09Z</time>
      </trkpt>
      <trkpt lat="42.45545" lon="2.26008">
        <ele>2459.3</ele>
        <time>2019-01-07T05:36:10Z</time>
      </trkpt>
      <trkpt lat="42.45543" lon="2.26002">
        <ele>2459.6</ele>
        <time>2019-01-07T05:36:12Z</time>
      </trkpt>
      <trkpt lat="42.4554" lon="2.25996">
        <ele>2460.1</ele>
        <time>2019-01-07T05:36:13Z</time>
      </trkpt>
      <trkpt lat="42.45537" lon="2.2599">
        <ele>2460.3</ele>
        <time>2019-01-07T05:36:14Z</time>
      </trkpt>
      <trkpt lat="42.45536" lon="2.25984">
        <ele>2461.4</ele>
        <time>2019-01-07T05:36:16Z</time>
      </trkpt>
      <trkpt lat="42.45534" lon="2.25978">
        <ele>2462.2</ele>
        <time>2019-01-07T05:36:17Z</time>
      </trkpt>
      <trkpt lat="42.45531" lon="2.25972">
        <ele>2462.4</ele>
        <time>2019-01-07T05:36:18Z</time>
      </trkpt>
      <trkpt lat="42.4553" lon="2.25966">
        <ele>2463.4</ele>
        <time>2019-01-07T05:36:20Z</time>
      </trkpt>
      <trkpt lat="42.45527" lon="2.2596">
        <ele>2464.2</ele>
        <time>2019-01-07T05:36:21Z</time>
      </trkpt>
      <trkpt lat="42.45525" lon="2.25955">
        <ele>2464.7</ele>
        <time>2019-01-07T05:36:22Z</time>
      </trkpt>
      <trkpt lat="42.45523" lon="2.25949">
        <ele>2465.3</ele>
        <time>2019-01-07T05:36:24Z</time>
      </trkpt>
      <trkpt lat="42.4552" lon="2.25944">
        <ele>2465.7</ele>
        <time>2019-01-07T05:36:25Z</time>
      </trkpt>
      <trkpt lat="42.45518" lon="2.25937">
        <ele>2466.5</ele>
        <time>2019-01-07T05:36:26Z</time>
      </trkpt>
      <trkpt lat="42.45516" lon="2.25932">
        <ele>2466.8</ele>
        <time>2019-01-07T05:36:27Z</time>
      </trkpt>
      <trkpt lat="42.45513" lon="2.25925">
        <ele>2467.8</ele>
        <time>2019-01-07T05:36:29Z</time>
      </trkpt>
      <trkpt lat="42.45511" lon="2.2592">
        <ele>2468.7</ele>
        <time>2019-01-07T05:36:30Z</time>
      </trkpt>
      <trkpt lat="42.45508" lon="2.25914">
        <ele>2469.3</ele>
        <time>2019-01-07T05:36:31Z</time>
      </trkpt>
      <trkpt lat="42.45507" lon="2.25908">
        <ele>2469.8</ele>
        <time>2019-01-07T05:36:33Z</time>
      </trkpt>
      <trkpt lat="42.45504" lon="2.25903">
        <ele>2470.1</ele>
        <time>2019-01-07T05:36:34Z</time>
      </trkpt>
      <trkpt lat="42.45501" lon="2.25898">
        <ele>2470.2</ele>
        <time>2019-01-07T05:36:35Z</time>
      </trkpt>
      <trkpt lat="42.45502" lon="2.25892">
        <ele>2470.8</ele>
        <time>2019-01-07T05:36:36Z</time>
      </trkpt>
      <trkpt lat="42.45501" lon="2.25885">
        <ele>2471.3</ele>
        <time>2019-01-07T05:36:38Z</time>
      </trkpt>
      <trkpt lat="42.45502" lon="2.25878">
        <ele>2471.2</ele>
        <time>2019-01-07T05:36:39Z</time>
      </trkpt>
      <trkpt lat="42.45501" lon="2.25872">
        <ele>2471.6</ele>
        <time>2019-01-07T05:36:40Z</time>
      </trkpt>
      <trkpt lat="42.455" lon="2.25866">
        <ele>2471.7</ele>
        <time>2019-01-07T05:36:42Z</time>
      </trkpt>
      <trkpt lat="42.45498" lon="2.25861">
        <ele>2471.7</ele>
        <time>2019-01-07T05:36:43Z</time>
      </trkpt>
      <trkpt lat="42.45496" lon="2.25854">
        <ele>2472.3</ele>
        <time>2019-01-07T05:36:44Z</time>
      </trkpt>
      <trkpt lat="42.45493" lon="2.25849">
        <ele>2472.6</ele>
        <time>2019-01-07T05:36:45Z</time>
      </trkpt>
      <trkpt lat="42.4549" lon="2.25845">
        <ele>2472.8</ele>
        <time>2019-01-07T05:36:47Z</time>
      </trkpt>
      <trkpt lat="42.45485" lon="2.25842">
        <ele>2473.2</ele>
        <time>2019-01-07T05:36:48Z</time>
      </trkpt>
      <trkpt lat="42.45481" lon="2.25845">
        <ele>2474.5</ele>
        <time>2019-01-07T05:36:49Z</time>
      </trkpt>
      <trkpt lat="42.45476" lon="2.25845">
        <ele>2475.6</ele>
        <time>2019-01-07T05:36:51Z</time>
      </trkpt>
      <trkpt lat="42.45472" lon="2.25847">
        <ele>2477.5</ele>
        <time>2019-01-07T05:36:52Z</time>
      </trkpt>
      <trkpt lat="42.45467" lon="2.25848">
        <ele>2479.2</ele>
        <time>2019-01-07T05:36:53Z</time>
      </trkpt>
      <trkpt lat="42.45462" lon="2.25846">
        <ele>2480.5</ele>
        <time>2019-01-07T05:36:54Z</time>
      </trkpt>
      <trkpt lat="42.45458" lon="2.25842">
        <ele>2482.6</ele>
        <time>2019-01-07T05:36:56Z</time>
      </trkpt>
      <trkpt lat="42.45454" lon="2.25841">
        <ele>2484</ele>
        <time>2019-01-07T05:36:57Z</time>
      </trkpt>
      <trkpt lat="42.45452" lon="2.25835">
        <ele>2485.6</ele>
        <time>2019-01-07T05:36:58Z</time>
      </trkpt>
      <trkpt lat="42.45449" lon="2.25831">
        <ele>2487.2</ele>
        <time>2019-01-07T05:36:59Z</time>
      </trkpt>
      <trkpt lat="42.45447" lon="2.25825">
        <ele>2488</ele>
        <time>2019-01-07T05:37:01Z</time>
      </trkpt>
      <trkpt lat="42.45442" lon="2.25824">
        <ele>2489.3</ele>
        <time>2019-01-07T05:37:02Z</time>
      </trkpt>
      <trkpt lat="42.45438" lon="2.2582">
        <ele>2491.6</ele>
        <time>2019-01-07T05:37:03Z</time>
      </trkpt>
      <trkpt lat="42.45434" lon="2.2582">
        <ele>2493.1</ele>
        <time>2019-01-07T05:37:04Z</time>
      </trkpt>
      <trkpt lat="42.45429" lon="2.25821">
        <ele>2493.8</ele>
        <time>2019-01-07T05:37:06Z</time>
      </trkpt>
      <trkpt lat="42.45424" lon="2.25824">
        <ele>2494.8</ele>
        <time>2019-01-07T05:37:07Z</time>
      </trkpt>
      <trkpt lat="42.45419" lon="2.25823">
        <ele>2495.5</ele>
        <time>2019-01-07T05:37:09Z</time>
      </trkpt>
      <trkpt lat="42.45415" lon="2.25822">
        <ele>2496.9</ele>
        <time>2019-01-07T05:37:10Z</time>
      </trkpt>
      <trkpt lat="42.45409" lon="2.2582">
        <ele>2498.7</ele>
        <time>2019-01-07T05:37:11Z</time>
      </trkpt>
      <trkpt lat="42.45405" lon="2.25821">
        <ele>2499.6</ele>
        <time>2019-01-07T05:37:12Z</time>
      </trkpt>
      <trkpt lat="42.454" lon="2.25819">
        <ele>2501</ele>
        <time>2019-01-07T05:37:14Z</time>
      </trkpt>
      <trkpt lat="42.45396" lon="2.25816">
        <ele>2502.5</ele>
        <time>2019-01-07T05:37:15Z</time>
      </trkpt>
      <trkpt lat="42.45392" lon="2.25815">
        <ele>2503.9</ele>
        <time>2019-01-07T05:37:16Z</time>
      </trkpt>
      <trkpt lat="42.45387" lon="2.25811">
        <ele>2505.2</ele>
        <time>2019-01-07T05:37:18Z</time>
      </trkpt>
      <trkpt lat="42.45382" lon="2.2581">
        <ele>2506.9</ele>
        <time>2019-01-07T05:37:19Z</time>
      </trkpt>
      <trkpt lat="42.45377" lon="2.25809">
        <ele>2508.4</ele>
        <time>2019-01-07T05:37:20Z</time>
      </trkpt>
      <trkpt lat="42.45375" lon="2.25804">
        <ele>2510</ele>
        <time>2019-01-07T05:37:21Z</time>
      </trkpt>
      <trkpt lat="42.45371" lon="2.258">
        <ele>2510.7</ele>
        <time>2019-01-07T05:37:23Z</time>
      </trkpt>
      <trkpt lat="42.45367" lon="2.25795">
        <ele>2512.7</ele>
        <time>2019-01-07T05:37:24Z</time>
      </trkpt>
      <trkpt lat="42.45363" lon="2.25791">
        <ele>2513.3</ele>
        <time>2019-01-07T05:37:25Z</time>
      </trkpt>
      <trkpt lat="42.45359" lon="2.25787">
        <ele>2513.7</ele>
        <time>2019-01-07T05:37:27Z</time>
      </trkpt>
      <trkpt lat="42.45356" lon="2.25782">
        <ele>2514.7</ele>
        <time>2019-01-07T05:37:28Z</time>
      </trkpt>
      <trkpt lat="42.45352" lon="2.25778">
        <ele>2515.7</ele>
        <time>2019-01-07T05:37:29Z</time>
      </trkpt>
      <trkpt lat="42.45348" lon="2.25774">
        <ele>2516.7</ele>
        <time>2019-01-07T05:37:31Z</time>
      </trkpt>
      <trkpt lat="42.45344" lon="2.2577">
        <ele>2518.4</ele>
        <time>2019-01-07T05:37:32Z</time>
      </trkpt>
      <trkpt lat="42.4534" lon="2.25766">
        <ele>2519.6</ele>
        <time>2019-01-07T05:37:33Z</time>
      </trkpt>
      <trkpt lat="42.45336" lon="2.25765">
        <ele>2521.5</ele>
        <time>2019-01-07T05:37:35Z</time>
      </trkpt>
      <trkpt lat="42.45333" lon="2.25759">
        <ele>2523.2</ele>
        <time>2019-01-07T05:37:36Z</time>
      </trkpt>
      <trkpt lat="42.45329" lon="2.25756">
        <ele>2524.6</ele>
        <time>2019-01-07T05:37:37Z</time>
      </trkpt>
      <trkpt lat="42.45325" lon="2.25751">
        <ele>2526.7</ele>
        <time>2019-01-07T05:37:39Z</time>
      </trkpt>
      <trkpt lat="42.45321" lon="2.25749">
        <ele>2528.3</ele>
        <time>2019-01-07T05:37:40Z</time>
      </trkpt>
      <trkpt lat="42.45316" lon="2.25751">
        <ele>2529.6</ele>
        <time>2019-01-07T05:37:41Z</time>
      </trkpt>
      <trkpt lat="42.45313" lon="2.25756">
        <ele>2531.4</ele>
        <time>2019-01-07T05:37:42Z</time>
      </trkpt>
      <trkpt lat="42.45309" lon="2.25753">
        <ele>2533.5</ele>
        <time>2019-01-07T05:37:44Z</time>
      </trkpt>
      <trkpt lat="42.45305" lon="2.2575">
        <ele>2535.1</ele>
        <time>2019-01-07T05:37:45Z</time>
      </trkpt>
      <trkpt lat="42.45301" lon="2.25747">
        <ele>2535.9</ele>
        <time>2019-01-07T05:37:46Z</time>
      </trkpt>
      <trkpt lat="42.45295" lon="2.25744">
        <ele>2538.6</ele>
        <time>2019-01-07T05:37:48Z</time>
      </trkpt>
      <trkpt lat="42.45291" lon="2.25742">
        <ele>2540</ele>
        <time>2019-01-07T05:37:49Z</time>
      </trkpt>
      <trkpt lat="42.45288" lon="2.25737">
        <ele>2541.4</ele>
        <time>2019-01-07T05:37:50Z</time>
      </trkpt>
      <trkpt lat="42.45284" lon="2.25733">
        <ele>2542.6</ele>
        <time>2019-01-07T05:37:52Z</time>
      </trkpt>
      <trkpt lat="42.45279" lon="2.25731">
        <ele>2543.6</ele>
        <time>2019-01-07T05:37:53Z</time>
      </trkpt>
      <trkpt lat="42.45275" lon="2.25728">
        <ele>2545.2</ele>
        <time>2019-01-07T05:37:54Z</time>
      </trkpt>
      <trkpt lat="42.4527" lon="2.25727">
        <ele>2548.3</ele>
        <time>2019-01-07T05:37:55Z</time>
      </trkpt>
      <trkpt lat="42.45266" lon="2.25723">
        <ele>2550.4</ele>
        <time>2019-01-07T05:37:57Z</time>
      </trkpt>
      <trkpt lat="42.45262" lon="2.25721">
        <ele>2552.1</ele>
        <time>2019-01-07T05:37:58Z</time>
      </trkpt>
      <trkpt lat="42.45258" lon="2.25717">
        <ele>2554.5</ele>
        <time>2019-01-07T05:37:59Z</time>
      </trkpt>
      <trkpt lat="42.45254" lon="2.25714">
        <ele>2556</ele>
        <time>2019-01-07T05:38:01Z</time>
      </trkpt>
      <trkpt lat="42.4525" lon="2.2571">
        <ele>2557.4</ele>
        <time>2019-01-07T05:38:02Z</time>
      </trkpt>
      <trkpt lat="42.45248" lon="2.25704">
        <ele>2558.7</ele>
        <time>2019-01-07T05:38:03Z</time>
      </trkpt>
      <trkpt lat="42.45244" lon="2.257">
        <ele>2560</ele>
        <time>2019-01-07T05:38:04Z</time>
      </trkpt>
      <trkpt lat="42.45241" lon="2.25696">
        <ele>2561.8</ele>
        <time>2019-01-07T05:38:06Z</time>
      </trkpt>
      <trkpt lat="42.45237" lon="2.25691">
        <ele>2563.1</ele>
        <time>2019-01-07T05:38:07Z</time>
      </trkpt>
      <trkpt lat="42.45233" lon="2.25686">
        <ele>2564.9</ele>
        <time>2019-01-07T05:38:08Z</time>
      </trkpt>
      <trkpt lat="42.45229" lon="2.25682">
        <ele>2565.8</ele>
        <time>2019-01-07T05:38:10Z</time>
      </trkpt>
      <trkpt lat="42.45227" lon="2.25677">
        <ele>2566.6</ele>
        <time>2019-01-07T05:38:11Z</time>
      </trkpt>
      <trkpt lat="42.45226" lon="2.2567">
        <ele>2566.8</ele>
        <time>2019-01-07T05:38:12Z</time>
      </trkpt>
      <trkpt lat="42.45223" lon="2.25665">
        <ele>2567.1</ele>
        <time>2019-01-07T05:38:13Z</time>
      </trkpt>
      <trkpt lat="42.4522" lon="2.25659">
        <ele>2567.7</ele>
        <time>2019-01-07T05:38:15Z</time>
      </trkpt>
      <trkpt lat="42.45218" lon="2.25653">
        <ele>2568.1</ele>
        <time>2019-01-07T05:38:16Z</time>
      </trkpt>
      <trkpt lat="42.45217" lon="2.25646">
        <ele>2568.3</ele>
        <time>2019-01-07T05:38:18Z</time>
      </trkpt>
      <trkpt lat="42.45216" lon="2.25639">
        <ele>2568.6</ele>
        <time>2019-01-07T05:38:19Z</time>
      </trkpt>
      <trkpt lat="42.45213" lon="2.25633">
        <ele>2569</ele>
        <time>2019-01-07T05:38:20Z</time>
      </trkpt>
      <trkpt lat="42.45211" lon="2.25627">
        <ele>2569.2</ele>
        <time>2019-01-07T05:38:22Z</time>
      </trkpt>
      <trkpt lat="42.45208" lon="2.25621">
        <ele>2570</ele>
        <time>2019-01-07T05:38:23Z</time>
      </trkpt>
      <trkpt lat="42.45204" lon="2.25618">
        <ele>2570.9</ele>
        <time>2019-01-07T05:38:24Z</time>
      </trkpt>
      <trkpt lat="42.45201" lon="2.25613">
        <ele>2571.5</ele>
        <time>2019-01-07T05:38:26Z</time>
      </trkpt>
      <trkpt lat="42.45198" lon="2.25608">
        <ele>2572.4</ele>
        <time>2019-01-07T05:38:27Z</time>
      </trkpt>
      <trkpt lat="42.45195" lon="2.25603">
        <ele>2573.1</ele>
        <time>2019-01-07T05:38:28Z</time>
      </trkpt>
      <trkpt lat="42.45192" lon="2.25599">
        <ele>2574</ele>
        <time>2019-01-07T05:38:29Z</time>
      </trkpt>
      <trkpt lat="42.45189" lon="2.25593">
        <ele>2574.7</ele>
        <time>2019-01-07T05:38:31Z</time>
      </trkpt>
      <trkpt lat="42.45185" lon="2.25589">
        <ele>2575.3</ele>
        <time>2019-01-07T05:38:32Z</time>
      </trkpt>
      <trkpt lat="42.4518" lon="2.25586">
        <ele>2575.9</ele>
        <time>2019-01-07T05:38:34Z</time>
      </trkpt>
      <trkpt lat="42.45175" lon="2.25583">
        <ele>2576.6</ele>
        <time>2019-01-07T05:38:35Z</time>
      </trkpt>
      <trkpt lat="42.4517" lon="2.2558">
        <ele>2578</ele>
        <time>2019-01-07T05:38:36Z</time>
      </trkpt>
      <trkpt lat="42.45166" lon="2.25578">
        <ele>2579</ele>
        <time>2019-01-07T05:38:38Z</time>
      </trkpt>
      <trkpt lat="42.45162" lon="2.25575">
        <ele>2579.8</ele>
        <time>2019-01-07T05:38:39Z</time>
      </trkpt>
      <trkpt lat="42.45158" lon="2.2557">
        <ele>2580.6</ele>
        <time>2019-01-07T05:38:40Z</time>
      </trkpt>
      <trkpt lat="42.45153" lon="2.25568">
        <ele>2582.4</ele>
        <time>2019-01-07T05:38:41Z</time>
      </trkpt>
      <trkpt lat="42.45149" lon="2.25565">
        <ele>2584.5</ele>
        <time>2019-01-07T05:38:43Z</time>
      </trkpt>
      <trkpt lat="42.45144" lon="2.25563">
        <ele>2586.2</ele>
        <time>2019-01-07T05:38:44Z</time>
      </trkpt>
      <trkpt lat="42.45139" lon="2.25564">
        <ele>2588.1</ele>
        <time>2019-01-07T05:38:45Z</time>
      </trkpt>
      <trkpt lat="42.45134" lon="2.25566">
        <ele>2589.1</ele>
        <time>2019-01-07T05:38:47Z</time>
      </trkpt>
      <trkpt lat="42.4513" lon="2.25567">
        <ele>2589.9</ele>
        <time>2019-01-07T05:38:48Z</time>
      </trkpt>
      <trkpt lat="42.45126" lon="2.25564">
        <ele>2591</ele>
        <time>2019-01-07T05:38:49Z</time>
      </trkpt>
      <trkpt lat="42.45121" lon="2.25562">
        <ele>2592.2</ele>
        <time>2019-01-07T05:38:51Z</time>
      </trkpt>
      <trkpt lat="42.45117" lon="2.25559">
        <ele>2592.9</ele>
        <time>2019-01-07T05:38:52Z</time>
      </trkpt>
      <trkpt lat="42.45113" lon="2.25557">
        <ele>2593.4</ele>
        <time>2019-01-07T05:38:53Z</time>
      </trkpt>
      <trkpt lat="42.45108" lon="2.25555">
        <ele>2594.2</ele>
        <time>2019-01-07T05:38:54Z</time>
      </trkpt>
      <trkpt lat="42.45103" lon="2.25552">
        <ele>2595.1</ele>
        <time>2019-01-07T05:38:56Z</time>
      </trkpt>
      <trkpt lat="42.45099" lon="2.25548">
        <ele>2596.2</ele>
        <time>2019-01-07T05:38:57Z</time>
      </trkpt>
      <trkpt lat="42.45095" lon="2.25544">
        <ele>2597</ele>
        <time>2019-01-07T05:38:58Z</time>
      </trkpt>
      <trkpt lat="42.45091" lon="2.2554">
        <ele>2597.9</ele>
        <time>2019-01-07T05:39:00Z</time>
      </trkpt>
      <trkpt lat="42.45086" lon="2.25538">
        <ele>2598.7</ele>
        <time>2019-01-07T05:39:01Z</time>
      </trkpt>
      <trkpt lat="42.45082" lon="2.25538">
        <ele>2599.8</ele>
        <time>2019-01-07T05:39:02Z</time>
      </trkpt>
      <trkpt lat="42.45078" lon="2.25533">
        <ele>2600.9</ele>
        <time>2019-01-07T05:39:04Z</time>
      </trkpt>
      <trkpt lat="42.45074" lon="2.25531">
        <ele>2602.2</ele>
        <time>2019-01-07T05:39:05Z</time>
      </trkpt>
      <trkpt lat="42.45069" lon="2.2553">
        <ele>2604.2</ele>
        <time>2019-01-07T05:39:06Z</time>
      </trkpt>
      <trkpt lat="42.45064" lon="2.2553">
        <ele>2606</ele>
        <time>2019-01-07T05:39:08Z</time>
      </trkpt>
      <trkpt lat="42.45061" lon="2.25526">
        <ele>2607.5</ele>
        <time>2019-01-07T05:39:09Z</time>
      </trkpt>
      <trkpt lat="42.45061" lon="2.2552">
        <ele>2610.2</ele>
        <time>2019-01-07T05:39:10Z</time>
      </trkpt>
      <trkpt lat="42.45057" lon="2.25515">
        <ele>2610.8</ele>
        <time>2019-01-07T05:39:11Z</time>
      </trkpt>
      <trkpt lat="42.45058" lon="2.25509">
        <ele>2610.6</ele>
        <time>2019-01-07T05:39:13Z</time>
      </trkpt>
      <trkpt lat="42.45062" lon="2.25504">
        <ele>2609.6</ele>
        <time>2019-01-07T05:39:14Z</time>
      </trkpt>
      <trkpt lat="42.45067" lon="2.25504">
        <ele>2608.9</ele>
        <time>2019-01-07T05:39:15Z</time>
      </trkpt>
      <trkpt lat="42.45072" lon="2.25503">
        <ele>2608</ele>
        <time>2019-01-07T05:39:17Z</time>
      </trkpt>
      <trkpt lat="42.45073" lon="2.25497">
        <ele>2606.9</ele>
        <time>2019-01-07T05:39:18Z</time>
      </trkpt>
      <trkpt lat="42.45071" lon="2.25491">
        <ele>2606.8</ele>
        <time>2019-01-07T05:39:19Z</time>
      </trkpt>
      <trkpt lat="42.45071" lon="2.25484">
        <ele>2606.9</ele>
        <time>2019-01-07T05:39:21Z</time>
      </trkpt>
      <trkpt lat="42.4507" lon="2.25477">
        <ele>2607</ele>
        <time>2019-01-07T05:39:22Z</time>
      </trkpt>
      <trkpt lat="42.45069" lon="2.25471">
        <ele>2607</ele>
        <time>2019-01-07T05:39:23Z</time>
      </trkpt>
      <trkpt lat="42.45069" lon="2.25464">
        <ele>2606.9</ele>
        <time>2019-01-07T05:39:25Z</time>
      </trkpt>
      <trkpt lat="42.45068" lon="2.25457">
        <ele>2606.5</ele>
        <time>2019-01-07T05:39:26Z</time>
      </trkpt>
      <trkpt lat="42.45068" lon="2.25451">
        <ele>2606.1</ele>
        <time>2019-01-07T05:39:27Z</time>
      </trkpt>
      <trkpt lat="42.45065" lon="2.25445">
        <ele>2605.9</ele>
        <time>2019-01-07T05:39:29Z</time>
      </trkpt>
      <trkpt lat="42.45062" lon="2.25439">
        <ele>2606</ele>
        <time>2019-01-07T05:39:30Z</time>
      </trkpt>
      <trkpt lat="42.45058" lon="2.25435">
        <ele>2606.5</ele>
        <time>2019-01-07T05:39:31Z</time>
      </trkpt>
      <trkpt lat="42.45054" lon="2.25431">
        <ele>2607.3</ele>
        <time>2019-01-07T05:39:33Z</time>
      </trkpt>
      <trkpt lat="42.45052" lon="2.25425">
        <ele>2607.1</ele>
        <time>2019-01-07T05:39:34Z</time>
      </trkpt>
      <trkpt lat="42.45049" lon="2.2542">
        <ele>2608.1</ele>
        <time>2019-01-07T05:39:35Z</time>
      </trkpt>
      <trkpt lat="42.45047" lon="2.25415">
        <ele>2609.3</ele>
        <time>2019-01-07T05:39:36Z</time>
      </trkpt>
      <trkpt lat="42.45046" lon="2.25408">
        <ele>2608.5</ele>
        <time>2019-01-07T05:39:38Z</time>
      </trkpt>
      <trkpt lat="42.45043" lon="2.25403">
        <ele>2608.2</ele>
        <time>2019-01-07T05:39:39Z</time>
      </trkpt>
      <trkpt lat="42.45039" lon="2.25399">
        <ele>2607.9</ele>
        <time>2019-01-07T05:39:41Z</time>
      </trkpt>
      <trkpt lat="42.45035" lon="2.25394">
        <ele>2607.8</ele>
        <time>2019-01-07T05:39:42Z</time>
      </trkpt>
      <trkpt lat="42.45035" lon="2.25387">
        <ele>2607.1</ele>
        <time>2019-01-07T05:39:43Z</time>
      </trkpt>
      <trkpt lat="42.45033" lon="2.25379">
        <ele>2606.9</ele>
        <time>2019-01-07T05:39:45Z</time>
      </trkpt>
      <trkpt lat="42.45031" lon="2.25373">
        <ele>2606.7</ele>
        <time>2019-01-07T05:39:46Z</time>
      </trkpt>
      <trkpt lat="42.45027" lon="2.25371">
        <ele>2606.6</ele>
        <time>2019-01-07T05:39:47Z</time>
      </trkpt>
      <trkpt lat="42.45024" lon="2.25365">
        <ele>2606.6</ele>
        <time>2019-01-07T05:39:49Z</time>
      </trkpt>
      <trkpt lat="42.45021" lon="2.2536">
        <ele>2606.3</ele>
        <time>2019-01-07T05:39:50Z</time>
      </trkpt>
      <trkpt lat="42.45019" lon="2.25354">
        <ele>2606.1</ele>
        <time>2019-01-07T05:39:51Z</time>
      </trkpt>
      <trkpt lat="42.45017" lon="2.25349">
        <ele>2605.7</ele>
        <time>2019-01-07T05:39:53Z</time>
      </trkpt>
      <trkpt lat="42.45014" lon="2.25343">
        <ele>2605</ele>
        <time>2019-01-07T05:39:54Z</time>
      </trkpt>
      <trkpt lat="42.45009" lon="2.25339">
        <ele>2604.3</ele>
        <time>2019-01-07T05:39:55Z</time>
      </trkpt>
      <trkpt lat="42.45006" lon="2.25334">
        <ele>2603.2</ele>
        <time>2019-01-07T05:39:57Z</time>
      </trkpt>
      <trkpt lat="42.45003" lon="2.25328">
        <ele>2603</ele>
        <time>2019-01-07T05:39:58Z</time>
      </trkpt>
      <trkpt lat="42.44999" lon="2.25324">
        <ele>2602.6</ele>
        <time>2019-01-07T05:40:00Z</time>
      </trkpt>
      <trkpt lat="42.44994" lon="2.25319">
        <ele>2601.9</ele>
        <time>2019-01-07T05:40:01Z</time>
      </trkpt>
      <trkpt lat="42.44991" lon="2.25314">
        <ele>2601.8</ele>
        <time>2019-01-07T05:40:02Z</time>
      </trkpt>
      <trkpt lat="42.44988" lon="2.25308">
        <ele>2601.6</ele>
        <time>2019-01-07T05:40:04Z</time>
      </trkpt>
      <trkpt lat="42.44986" lon="2.25301">
        <ele>2601.3</ele>
        <time>2019-01-07T05:40:05Z</time>
      </trkpt>
      <trkpt lat="42.44983" lon="2.25295">
        <ele>2601.2</ele>
        <time>2019-01-07T05:40:07Z</time>
      </trkpt>
      <trkpt lat="42.4498" lon="2.2529">
        <ele>2600.9</ele>
        <time>2019-01-07T05:40:08Z</time>
      </trkpt>
      <trkpt lat="42.44977" lon="2.25285">
        <ele>2601</ele>
        <time>2019-01-07T05:40:09Z</time>
      </trkpt>
      <trkpt lat="42.44974" lon="2.25278">
        <ele>2601.3</ele>
        <time>2019-01-07T05:40:11Z</time>
      </trkpt>
      <trkpt lat="42.44972" lon="2.25272">
        <ele>2601.3</ele>
        <time>2019-01-07T05:40:12Z</time>
      </trkpt>
      <trkpt lat="42.44969" lon="2.25266">
        <ele>2600.6</ele>
        <time>2019-01-07T05:40:14Z</time>
      </trkpt>
      <trkpt lat="42.44967" lon="2.25259">
        <ele>2600.3</ele>
        <time>2019-01-07T05:40:15Z</time>
      </trkpt>
      <trkpt lat="42.44964" lon="2.25252">
        <ele>2599.4</ele>
        <time>2019-01-07T05:40:17Z</time>
      </trkpt>
      <trkpt lat="42.44962" lon="2.25246">
        <ele>2599.4</ele>
        <time>2019-01-07T05:40:18Z</time>
      </trkpt>
      <trkpt lat="42.4496" lon="2.2524">
        <ele>2598.3</ele>
        <time>2019-01-07T05:40:19Z</time>
      </trkpt>
      <trkpt lat="42.44958" lon="2.25234">
        <ele>2597.4</ele>
        <time>2019-01-07T05:40:21Z</time>
      </trkpt>
      <trkpt lat="42.44955" lon="2.25227">
        <ele>2596.4</ele>
        <time>2019-01-07T05:40:22Z</time>
      </trkpt>
      <trkpt lat="42.44954" lon="2.25221">
        <ele>2595.9</ele>
        <time>2019-01-07T05:40:23Z</time>
      </trkpt>
      <trkpt lat="42.4495" lon="2.25216">
        <ele>2595.5</ele>
        <time>2019-01-07T05:40:25Z</time>
      </trkpt>
      <trkpt lat="42.44947" lon="2.25211">
        <ele>2595.1</ele>
        <time>2019-01-07T05:40:26Z</time>
      </trkpt>
      <trkpt lat="42.44944" lon="2.25205">
        <ele>2595.1</ele>
        <time>2019-01-07T05:40:27Z</time>
      </trkpt>
      <trkpt lat="42.44941" lon="2.252">
        <ele>2595</ele>
        <time>2019-01-07T05:40:29Z</time>
      </trkpt>
      <trkpt lat="42.44937" lon="2.25194">
        <ele>2594.8</ele>
        <time>2019-01-07T05:40:30Z</time>
      </trkpt>
      <trkpt lat="42.44934" lon="2.25187">
        <ele>2594.5</ele>
        <time>2019-01-07T05:40:32Z</time>
      </trkpt>
      <trkpt lat="42.44932" lon="2.25181">
        <ele>2594.4</ele>
        <time>2019-01-07T05:40:33Z</time>
      </trkpt>
      <trkpt lat="42.44928" lon="2.25177">
        <ele>2594</ele>
        <time>2019-01-07T05:40:35Z</time>
      </trkpt>
      <trkpt lat="42.44923" lon="2.25172">
        <ele>2594.4</ele>
        <time>2019-01-07T05:40:36Z</time>
      </trkpt>
      <trkpt lat="42.44919" lon="2.2517">
        <ele>2594.8</ele>
        <time>2019-01-07T05:40:38Z</time>
      </trkpt>
      <trkpt lat="42.44914" lon="2.25166">
        <ele>2595</ele>
        <time>2019-01-07T05:40:39Z</time>
      </trkpt>
      <trkpt lat="42.4491" lon="2.25161">
        <ele>2595.1</ele>
        <time>2019-01-07T05:40:41Z</time>
      </trkpt>
      <trkpt lat="42.44905" lon="2.25159">
        <ele>2595.4</ele>
        <time>2019-01-07T05:40:42Z</time>
      </trkpt>
      <trkpt lat="42.44901" lon="2.25156">
        <ele>2595.6</ele>
        <time>2019-01-07T05:40:43Z</time>
      </trkpt>
      <trkpt lat="42.44898" lon="2.25152">
        <ele>2595.7</ele>
        <time>2019-01-07T05:40:44Z</time>
      </trkpt>
      <trkpt lat="42.44893" lon="2.2515">
        <ele>2595.9</ele>
        <time>2019-01-07T05:40:46Z</time>
      </trkpt>
      <trkpt lat="42.44889" lon="2.25146">
        <ele>2595.8</ele>
        <time>2019-01-07T05:40:47Z</time>
      </trkpt>
      <trkpt lat="42.44886" lon="2.2514">
        <ele>2595.9</ele>
        <time>2019-01-07T05:40:48Z</time>
      </trkpt>
      <trkpt lat="42.44881" lon="2.25139">
        <ele>2596</ele>
        <time>2019-01-07T05:40:50Z</time>
      </trkpt>
      <trkpt lat="42.44875" lon="2.25138">
        <ele>2596.3</ele>
        <time>2019-01-07T05:40:51Z</time>
      </trkpt>
      <trkpt lat="42.4487" lon="2.25137">
        <ele>2596.4</ele>
        <time>2019-01-07T05:40:53Z</time>
      </trkpt>
      <trkpt lat="42.44864" lon="2.25136">
        <ele>2596.6</ele>
        <time>2019-01-07T05:40:54Z</time>
      </trkpt>
      <trkpt lat="42.44858" lon="2.25135">
        <ele>2596.9</ele>
        <time>2019-01-07T05:40:56Z</time>
      </trkpt>
      <trkpt lat="42.44854" lon="2.25133">
        <ele>2597.1</ele>
        <time>2019-01-07T05:40:57Z</time>
      </trkpt>
      <trkpt lat="42.4485" lon="2.25128">
        <ele>2597.4</ele>
        <time>2019-01-07T05:40:58Z</time>
      </trkpt>
      <trkpt lat="42.44845" lon="2.25125">
        <ele>2597.7</ele>
        <time>2019-01-07T05:41:00Z</time>
      </trkpt>
      <trkpt lat="42.44841" lon="2.25121">
        <ele>2597.9</ele>
        <time>2019-01-07T05:41:01Z</time>
      </trkpt>
      <trkpt lat="42.44838" lon="2.25117">
        <ele>2598</ele>
        <time>2019-01-07T05:41:02Z</time>
      </trkpt>
      <trkpt lat="42.44833" lon="2.25114">
        <ele>2599.2</ele>
        <time>2019-01-07T05:41:04Z</time>
      </trkpt>
      <trkpt lat="42.44829" lon="2.2511">
        <ele>2600</ele>
        <time>2019-01-07T05:41:05Z</time>
      </trkpt>
      <trkpt lat="42.44826" lon="2.25106">
        <ele>2601</ele>
        <time>2019-01-07T05:41:06Z</time>
      </trkpt>
      <trkpt lat="42.44821" lon="2.25104">
        <ele>2601.6</ele>
        <time>2019-01-07T05:41:07Z</time>
      </trkpt>
      <trkpt lat="42.44817" lon="2.25101">
        <ele>2602.8</ele>
        <time>2019-01-07T05:41:09Z</time>
      </trkpt>
      <trkpt lat="42.44812" lon="2.25098">
        <ele>2603.2</ele>
        <time>2019-01-07T05:41:10Z</time>
      </trkpt>
      <trkpt lat="42.44807" lon="2.25096">
        <ele>2603.6</ele>
        <time>2019-01-07T05:41:12Z</time>
      </trkpt>
      <trkpt lat="42.44802" lon="2.25095">
        <ele>2604.7</ele>
        <time>2019-01-07T05:41:13Z</time>
      </trkpt>
      <trkpt lat="42.44797" lon="2.25092">
        <ele>2605.8</ele>
        <time>2019-01-07T05:41:14Z</time>
      </trkpt>
      <trkpt lat="42.44793" lon="2.2509">
        <ele>2606</ele>
        <time>2019-01-07T05:41:16Z</time>
      </trkpt>
      <trkpt lat="42.44787" lon="2.25091">
        <ele>2606.5</ele>
        <time>2019-01-07T05:41:17Z</time>
      </trkpt>
      <trkpt lat="42.44782" lon="2.25091">
        <ele>2606.5</ele>
        <time>2019-01-07T05:41:18Z</time>
      </trkpt>
      <trkpt lat="42.44777" lon="2.25091">
        <ele>2606.8</ele>
        <time>2019-01-07T05:41:20Z</time>
      </trkpt>
      <trkpt lat="42.44771" lon="2.25091">
        <ele>2607.6</ele>
        <time>2019-01-07T05:41:21Z</time>
      </trkpt>
      <trkpt lat="42.44766" lon="2.25089">
        <ele>2608</ele>
        <time>2019-01-07T05:41:23Z</time>
      </trkpt>
      <trkpt lat="42.44761" lon="2.25084">
        <ele>2608.9</ele>
        <time>2019-01-07T05:41:24Z</time>
      </trkpt>
      <trkpt lat="42.44758" lon="2.25079">
        <ele>2609.2</ele>
        <time>2019-01-07T05:41:26Z</time>
      </trkpt>
      <trkpt lat="42.44753" lon="2.25077">
        <ele>2609.4</ele>
        <time>2019-01-07T05:41:27Z</time>
      </trkpt>
      <trkpt lat="42.44747" lon="2.2508">
        <ele>2609.2</ele>
        <time>2019-01-07T05:41:29Z</time>
      </trkpt>
      <trkpt lat="42.44742" lon="2.25078">
        <ele>2609</ele>
        <time>2019-01-07T05:41:30Z</time>
      </trkpt>
      <trkpt lat="42.44737" lon="2.25076">
        <ele>2609</ele>
        <time>2019-01-07T05:41:32Z</time>
      </trkpt>
      <trkpt lat="42.44732" lon="2.25079">
        <ele>2608.5</ele>
        <time>2019-01-07T05:41:33Z</time>
      </trkpt>
      <trkpt lat="42.44726" lon="2.25076">
        <ele>2608.8</ele>
        <time>2019-01-07T05:41:35Z</time>
      </trkpt>
      <trkpt lat="42.44721" lon="2.25077">
        <ele>2608.6</ele>
        <time>2019-01-07T05:41:36Z</time>
      </trkpt>
      <trkpt lat="42.44715" lon="2.25077">
        <ele>2608.5</ele>
        <time>2019-01-07T05:41:38Z</time>
      </trkpt>
      <trkpt lat="42.44709" lon="2.25077">
        <ele>2608.2</ele>
        <time>2019-01-07T05:41:39Z</time>
      </trkpt>
      <trkpt lat="42.44705" lon="2.25077">
        <ele>2607.9</ele>
        <time>2019-01-07T05:41:40Z</time>
      </trkpt>
      <trkpt lat="42.447" lon="2.25077">
        <ele>2608.4</ele>
        <time>2019-01-07T05:41:42Z</time>
      </trkpt>
      <trkpt lat="42.44695" lon="2.25077">
        <ele>2608</ele>
        <time>2019-01-07T05:41:43Z</time>
      </trkpt>
      <trkpt lat="42.44689" lon="2.25075">
        <ele>2607.8</ele>
        <time>2019-01-07T05:41:45Z</time>
      </trkpt>
      <trkpt lat="42.44683" lon="2.25077">
        <ele>2607.9</ele>
        <time>2019-01-07T05:41:46Z</time>
      </trkpt>
      <trkpt lat="42.44679" lon="2.25075">
        <ele>2607.8</ele>
        <time>2019-01-07T05:41:47Z</time>
      </trkpt>
      <trkpt lat="42.44674" lon="2.25072">
        <ele>2608</ele>
        <time>2019-01-07T05:41:49Z</time>
      </trkpt>
      <trkpt lat="42.44668" lon="2.25073">
        <ele>2607.6</ele>
        <time>2019-01-07T05:41:50Z</time>
      </trkpt>
      <trkpt lat="42.44663" lon="2.25072">
        <ele>2607.5</ele>
        <time>2019-01-07T05:41:52Z</time>
      </trkpt>
      <trkpt lat="42.44658" lon="2.25071">
        <ele>2607.3</ele>
        <time>2019-01-07T05:41:53Z</time>
      </trkpt>
      <trkpt lat="42.44654" lon="2.25068">
        <ele>2607.4</ele>
        <time>2019-01-07T05:41:54Z</time>
      </trkpt>
      <trkpt lat="42.44649" lon="2.25066">
        <ele>2607.4</ele>
        <time>2019-01-07T05:41:56Z</time>
      </trkpt>
      <trkpt lat="42.44643" lon="2.25064">
        <ele>2607.3</ele>
        <time>2019-01-07T05:41:57Z</time>
      </trkpt>
      <trkpt lat="42.44637" lon="2.25063">
        <ele>2607.2</ele>
        <time>2019-01-07T05:41:59Z</time>
      </trkpt>
      <trkpt lat="42.44632" lon="2.25064">
        <ele>2607.3</ele>
        <time>2019-01-07T05:42:00Z</time>
      </trkpt>
      <trkpt lat="42.44626" lon="2.25064">
        <ele>2607.3</ele>
        <time>2019-01-07T05:42:02Z</time>
      </trkpt>
      <trkpt lat="42.4462" lon="2.25064">
        <ele>2607.2</ele>
        <time>2019-01-07T05:42:03Z</time>
      </trkpt>
      <trkpt lat="42.44615" lon="2.25064">
        <ele>2607.8</ele>
        <time>2019-01-07T05:42:05Z</time>
      </trkpt>
      <trkpt lat="42.44611" lon="2.25062">
        <ele>2608.1</ele>
        <time>2019-01-07T05:42:06Z</time>
      </trkpt>
      <trkpt lat="42.44604" lon="2.25063">
        <ele>2608.5</ele>
        <time>2019-01-07T05:42:08Z</time>
      </trkpt>
      <trkpt lat="42.446" lon="2.25063">
        <ele>2608.7</ele>
        <time>2019-01-07T05:42:09Z</time>
      </trkpt>
      <trkpt lat="42.44595" lon="2.25063">
        <ele>2608.9</ele>
        <time>2019-01-07T05:42:10Z</time>
      </trkpt>
      <trkpt lat="42.4459" lon="2.25063">
        <ele>2609.2</ele>
        <time>2019-01-07T05:42:12Z</time>
      </trkpt>
      <trkpt lat="42.44585" lon="2.25064">
        <ele>2609.4</ele>
        <time>2019-01-07T05:42:13Z</time>
      </trkpt>
      <trkpt lat="42.44581" lon="2.25068">
        <ele>2609.6</ele>
        <time>2019-01-07T05:42:14Z</time>
      </trkpt>
      <trkpt lat="42.44577" lon="2.25072">
        <ele>2609.9</ele>
        <time>2019-01-07T05:42:16Z</time>
      </trkpt>
      <trkpt lat="42.44572" lon="2.25073">
        <ele>2610.2</ele>
        <time>2019-01-07T05:42:17Z</time>
      </trkpt>
      <trkpt lat="42.44567" lon="2.25077">
        <ele>2610.2</ele>
        <time>2019-01-07T05:42:19Z</time>
      </trkpt>
      <trkpt lat="42.44562" lon="2.25082">
        <ele>2610.6</ele>
        <time>2019-01-07T05:42:20Z</time>
      </trkpt>
      <trkpt lat="42.44558" lon="2.25084">
        <ele>2611.5</ele>
        <time>2019-01-07T05:42:21Z</time>
      </trkpt>
      <trkpt lat="42.44552" lon="2.25087">
        <ele>2612</ele>
        <time>2019-01-07T05:42:23Z</time>
      </trkpt>
      <trkpt lat="42.44548" lon="2.25089">
        <ele>2612.2</ele>
        <time>2019-01-07T05:42:24Z</time>
      </trkpt>
      <trkpt lat="42.44544" lon="2.25094">
        <ele>2612.8</ele>
        <time>2019-01-07T05:42:26Z</time>
      </trkpt>
      <trkpt lat="42.4454" lon="2.25097">
        <ele>2613</ele>
        <time>2019-01-07T05:42:27Z</time>
      </trkpt>
      <trkpt lat="42.44535" lon="2.25099">
        <ele>2613.5</ele>
        <time>2019-01-07T05:42:28Z</time>
      </trkpt>
      <trkpt lat="42.4453" lon="2.25101">
        <ele>2613.8</ele>
        <time>2019-01-07T05:42:30Z</time>
      </trkpt>
      <trkpt lat="42.44526" lon="2.25103">
        <ele>2614.4</ele>
        <time>2019-01-07T05:42:31Z</time>
      </trkpt>
      <trkpt lat="42.44521" lon="2.25106">
        <ele>2615</ele>
        <time>2019-01-07T05:42:32Z</time>
      </trkpt>
      <trkpt lat="42.44517" lon="2.2511">
        <ele>2615.5</ele>
        <time>2019-01-07T05:42:34Z</time>
      </trkpt>
      <trkpt lat="42.44512" lon="2.25113">
        <ele>2615.9</ele>
        <time>2019-01-07T05:42:35Z</time>
      </trkpt>
      <trkpt lat="42.44508" lon="2.25117">
        <ele>2616.5</ele>
        <time>2019-01-07T05:42:36Z</time>
      </trkpt>
      <trkpt lat="42.44503" lon="2.25119">
        <ele>2618.4</ele>
        <time>2019-01-07T05:42:38Z</time>
      </trkpt>
      <trkpt lat="42.44499" lon="2.25123">
        <ele>2619.9</ele>
        <time>2019-01-07T05:42:39Z</time>
      </trkpt>
      <trkpt lat="42.44495" lon="2.25126">
        <ele>2621.2</ele>
        <time>2019-01-07T05:42:40Z</time>
      </trkpt>
      <trkpt lat="42.44491" lon="2.25129">
        <ele>2621.6</ele>
        <time>2019-01-07T05:42:42Z</time>
      </trkpt>
      <trkpt lat="42.44486" lon="2.25134">
        <ele>2621</ele>
        <time>2019-01-07T05:42:43Z</time>
      </trkpt>
      <trkpt lat="42.44482" lon="2.25137">
        <ele>2620.8</ele>
        <time>2019-01-07T05:42:44Z</time>
      </trkpt>
      <trkpt lat="42.44478" lon="2.2514">
        <ele>2620.6</ele>
        <time>2019-01-07T05:42:46Z</time>
      </trkpt>
      <trkpt lat="42.44474" lon="2.25138">
        <ele>2621</ele>
        <time>2019-01-07T05:42:47Z</time>
      </trkpt>
      <trkpt lat="42.44469" lon="2.25142">
        <ele>2621.6</ele>
        <time>2019-01-07T05:42:48Z</time>
      </trkpt>
      <trkpt lat="42.44464" lon="2.25145">
        <ele>2622.4</ele>
        <time>2019-01-07T05:42:50Z</time>
      </trkpt>
      <trkpt lat="42.44461" lon="2.2515">
        <ele>2622.6</ele>
        <time>2019-01-07T05:42:51Z</time>
      </trkpt>
      <trkpt lat="42.44457" lon="2.25152">
        <ele>2622.9</ele>
        <time>2019-01-07T05:42:52Z</time>
      </trkpt>
      <trkpt lat="42.44453" lon="2.25155">
        <ele>2623.4</ele>
        <time>2019-01-07T05:42:53Z</time>
      </trkpt>
      <trkpt lat="42.44449" lon="2.25159">
        <ele>2623.8</ele>
        <time>2019-01-07T05:42:55Z</time>
      </trkpt>
      <trkpt lat="42.44444" lon="2.25161">
        <ele>2624.3</ele>
        <time>2019-01-07T05:42:56Z</time>
      </trkpt>
      <trkpt lat="42.4444" lon="2.25165">
        <ele>2624.8</ele>
        <time>2019-01-07T05:42:57Z</time>
      </trkpt>
      <trkpt lat="42.44437" lon="2.25169">
        <ele>2625.3</ele>
        <time>2019-01-07T05:42:59Z</time>
      </trkpt>
      <trkpt lat="42.44433" lon="2.25174">
        <ele>2625.9</ele>
        <time>2019-01-07T05:43:00Z</time>
      </trkpt>
      <trkpt lat="42.44429" lon="2.25179">
        <ele>2626.5</ele>
        <time>2019-01-07T05:43:01Z</time>
      </trkpt>
      <trkpt lat="42.44426" lon="2.25184">
        <ele>2627.2</ele>
        <time>2019-01-07T05:43:03Z</time>
      </trkpt>
      <trkpt lat="42.44422" lon="2.25188">
        <ele>2627.9</ele>
        <time>2019-01-07T05:43:04Z</time>
      </trkpt>
      <trkpt lat="42.44418" lon="2.25192">
        <ele>2629</ele>
        <time>2019-01-07T05:43:05Z</time>
      </trkpt>
      <trkpt lat="42.44415" lon="2.25197">
        <ele>2629.9</ele>
        <time>2019-01-07T05:43:07Z</time>
      </trkpt>
      <trkpt lat="42.44411" lon="2.252">
        <ele>2630.4</ele>
        <time>2019-01-07T05:43:08Z</time>
      </trkpt>
      <trkpt lat="42.44407" lon="2.25203">
        <ele>2631.2</ele>
        <time>2019-01-07T05:43:09Z</time>
      </trkpt>
      <trkpt lat="42.44402" lon="2.25205">
        <ele>2632.2</ele>
        <time>2019-01-07T05:43:10Z</time>
      </trkpt>
      <trkpt lat="42.44397" lon="2.25207">
        <ele>2632.7</ele>
        <time>2019-01-07T05:43:12Z</time>
      </trkpt>
      <trkpt lat="42.44393" lon="2.2521">
        <ele>2633.4</ele>
        <time>2019-01-07T05:43:13Z</time>
      </trkpt>
      <trkpt lat="42.44391" lon="2.25216">
        <ele>2634</ele>
        <time>2019-01-07T05:43:14Z</time>
      </trkpt>
      <trkpt lat="42.44387" lon="2.25221">
        <ele>2635.2</ele>
        <time>2019-01-07T05:43:16Z</time>
      </trkpt>
      <trkpt lat="42.44384" lon="2.25226">
        <ele>2636.7</ele>
        <time>2019-01-07T05:43:17Z</time>
      </trkpt>
      <trkpt lat="42.44381" lon="2.25231">
        <ele>2637.9</ele>
        <time>2019-01-07T05:43:18Z</time>
      </trkpt>
      <trkpt lat="42.44377" lon="2.25234">
        <ele>2639.2</ele>
        <time>2019-01-07T05:43:19Z</time>
      </trkpt>
      <trkpt lat="42.44374" lon="2.25238">
        <ele>2640.3</ele>
        <time>2019-01-07T05:43:21Z</time>
      </trkpt>
      <trkpt lat="42.44369" lon="2.25241">
        <ele>2640.5</ele>
        <time>2019-01-07T05:43:22Z</time>
      </trkpt>
      <trkpt lat="42.44365" lon="2.25243">
        <ele>2640.6</ele>
        <time>2019-01-07T05:43:23Z</time>
      </trkpt>
      <trkpt lat="42.4436" lon="2.25246">
        <ele>2640.8</ele>
        <time>2019-01-07T05:43:25Z</time>
      </trkpt>
      <trkpt lat="42.44357" lon="2.2525">
        <ele>2641.3</ele>
        <time>2019-01-07T05:43:26Z</time>
      </trkpt>
      <trkpt lat="42.44353" lon="2.25255">
        <ele>2642.3</ele>
        <time>2019-01-07T05:43:27Z</time>
      </trkpt>
      <trkpt lat="42.44351" lon="2.2526">
        <ele>2642.9</ele>
        <time>2019-01-07T05:43:28Z</time>
      </trkpt>
      <trkpt lat="42.44347" lon="2.25264">
        <ele>2643.4</ele>
        <time>2019-01-07T05:43:30Z</time>
      </trkpt>
      <trkpt lat="42.44344" lon="2.25269">
        <ele>2643.8</ele>
        <time>2019-01-07T05:43:31Z</time>
      </trkpt>
      <trkpt lat="42.44341" lon="2.25275">
        <ele>2644.2</ele>
        <time>2019-01-07T05:43:32Z</time>
      </trkpt>
      <trkpt lat="42.44338" lon="2.2528">
        <ele>2644.9</ele>
        <time>2019-01-07T05:43:34Z</time>
      </trkpt>
      <trkpt lat="42.44335" lon="2.25285">
        <ele>2646.1</ele>
        <time>2019-01-07T05:43:35Z</time>
      </trkpt>
      <trkpt lat="42.44333" lon="2.2529">
        <ele>2647.3</ele>
        <time>2019-01-07T05:43:36Z</time>
      </trkpt>
      <trkpt lat="42.44331" lon="2.25297">
        <ele>2649</ele>
        <time>2019-01-07T05:43:37Z</time>
      </trkpt>
      <trkpt lat="42.44326" lon="2.25296">
        <ele>2650.4</ele>
        <time>2019-01-07T05:43:39Z</time>
      </trkpt>
      <trkpt lat="42.44322" lon="2.25298">
        <ele>2650.6</ele>
        <time>2019-01-07T05:43:40Z</time>
      </trkpt>
      <trkpt lat="42.44317" lon="2.253">
        <ele>2650.1</ele>
        <time>2019-01-07T05:43:41Z</time>
      </trkpt>
      <trkpt lat="42.44312" lon="2.25301">
        <ele>2650.2</ele>
        <time>2019-01-07T05:43:43Z</time>
      </trkpt>
      <trkpt lat="42.44309" lon="2.25305">
        <ele>2651.4</ele>
        <time>2019-01-07T05:43:44Z</time>
      </trkpt>
      <trkpt lat="42.44305" lon="2.25309">
        <ele>2652.6</ele>
        <time>2019-01-07T05:43:45Z</time>
      </trkpt>
      <trkpt lat="42.44301" lon="2.25312">
        <ele>2655</ele>
        <time>2019-01-07T05:43:46Z</time>
      </trkpt>
      <trkpt lat="42.44296" lon="2.25311">
        <ele>2655.9</ele>
        <time>2019-01-07T05:43:48Z</time>
      </trkpt>
      <trkpt lat="42.44291" lon="2.25308">
        <ele>2655.6</ele>
        <time>2019-01-07T05:43:49Z</time>
      </trkpt>
      <trkpt lat="42.44287" lon="2.2531">
        <ele>2656.2</ele>
        <time>2019-01-07T05:43:50Z</time>
      </trkpt>
      <trkpt lat="42.44283" lon="2.25315">
        <ele>2657</ele>
        <time>2019-01-07T05:43:52Z</time>
      </trkpt>
      <trkpt lat="42.44281" lon="2.2532">
        <ele>2657.5</ele>
        <time>2019-01-07T05:43:53Z</time>
      </trkpt>
      <trkpt lat="42.44276" lon="2.25322">
        <ele>2657.3</ele>
        <time>2019-01-07T05:43:54Z</time>
      </trkpt>
      <trkpt lat="42.44275" lon="2.25328">
        <ele>2659.2</ele>
        <time>2019-01-07T05:43:56Z</time>
      </trkpt>
      <trkpt lat="42.44272" lon="2.25333">
        <ele>2659.2</ele>
        <time>2019-01-07T05:43:57Z</time>
      </trkpt>
      <trkpt lat="42.44269" lon="2.25339">
        <ele>2659.4</ele>
        <time>2019-01-07T05:43:58Z</time>
      </trkpt>
      <trkpt lat="42.44265" lon="2.25342">
        <ele>2660.3</ele>
        <time>2019-01-07T05:44:00Z</time>
      </trkpt>
      <trkpt lat="42.4426" lon="2.25345">
        <ele>2660</ele>
        <time>2019-01-07T05:44:01Z</time>
      </trkpt>
      <trkpt lat="42.44256" lon="2.25347">
        <ele>2658.2</ele>
        <time>2019-01-07T05:44:02Z</time>
      </trkpt>
      <trkpt lat="42.44252" lon="2.25351">
        <ele>2658</ele>
        <time>2019-01-07T05:44:03Z</time>
      </trkpt>
      <trkpt lat="42.44249" lon="2.25356">
        <ele>2658</ele>
        <time>2019-01-07T05:44:05Z</time>
      </trkpt>
      <trkpt lat="42.44244" lon="2.25358">
        <ele>2657.9</ele>
        <time>2019-01-07T05:44:06Z</time>
      </trkpt>
      <trkpt lat="42.44241" lon="2.25363">
        <ele>2657.8</ele>
        <time>2019-01-07T05:44:07Z</time>
      </trkpt>
      <trkpt lat="42.44239" lon="2.25369">
        <ele>2658.5</ele>
        <time>2019-01-07T05:44:09Z</time>
      </trkpt>
      <trkpt lat="42.44236" lon="2.25375">
        <ele>2658.7</ele>
        <time>2019-01-07T05:44:10Z</time>
      </trkpt>
      <trkpt lat="42.44233" lon="2.2538">
        <ele>2658.8</ele>
        <time>2019-01-07T05:44:11Z</time>
      </trkpt>
      <trkpt lat="42.44232" lon="2.25386">
        <ele>2659</ele>
        <time>2019-01-07T05:44:12Z</time>
      </trkpt>
      <trkpt lat="42.44229" lon="2.25391">
        <ele>2659.5</ele>
        <time>2019-01-07T05:44:14Z</time>
      </trkpt>
      <trkpt lat="42.44226" lon="2.25396">
        <ele>2659.7</ele>
        <time>2019-01-07T05:44:15Z</time>
      </trkpt>
      <trkpt lat="42.44225" lon="2.25402">
        <ele>2660.5</ele>
        <time>2019-01-07T05:44:16Z</time>
      </trkpt>
      <trkpt lat="42.44222" lon="2.25408">
        <ele>2660.5</ele>
        <time>2019-01-07T05:44:18Z</time>
      </trkpt>
      <trkpt lat="42.44218" lon="2.25414">
        <ele>2660.6</ele>
        <time>2019-01-07T05:44:19Z</time>
      </trkpt>
      <trkpt lat="42.44223" lon="2.25416">
        <ele>2661.8</ele>
        <time>2019-01-07T05:44:20Z</time>
      </trkpt>
      <trkpt lat="42.44226" lon="2.25411">
        <ele>2662</ele>
        <time>2019-01-07T05:44:22Z</time>
      </trkpt>
      <trkpt lat="42.4423" lon="2.25407">
        <ele>2662</ele>
        <time>2019-01-07T05:44:23Z</time>
      </trkpt>
      <trkpt lat="42.44234" lon="2.25402">
        <ele>2662</ele>
        <time>2019-01-07T05:44:24Z</time>
      </trkpt>
      <trkpt lat="42.4423" lon="2.25405">
        <ele>2661.8</ele>
        <time>2019-01-07T05:44:26Z</time>
      </trkpt>
      <trkpt lat="42.44226" lon="2.25409">
        <ele>2662</ele>
        <time>2019-01-07T05:44:27Z</time>
      </trkpt>
      <trkpt lat="42.44222" lon="2.25414">
        <ele>2661.8</ele>
        <time>2019-01-07T05:44:28Z</time>
      </trkpt>
      <trkpt lat="42.44218" lon="2.25419">
        <ele>2661.6</ele>
        <time>2019-01-07T05:44:30Z</time>
      </trkpt>
      <trkpt lat="42.44215" lon="2.25423">
        <ele>2661.6</ele>
        <time>2019-01-07T05:44:31Z</time>
      </trkpt>
      <trkpt lat="42.4421" lon="2.25425">
        <ele>2661.5</ele>
        <time>2019-01-07T05:44:32Z</time>
      </trkpt>
      <trkpt lat="42.44205" lon="2.25426">
        <ele>2661.2</ele>
        <time>2019-01-07T05:44:34Z</time>
      </trkpt>
      <trkpt lat="42.44199" lon="2.25427">
        <ele>2660.9</ele>
        <time>2019-01-07T05:44:35Z</time>
      </trkpt>
      <trkpt lat="42.44195" lon="2.25427">
        <ele>2660.3</ele>
        <time>2019-01-07T05:44:36Z</time>
      </trkpt>
      <trkpt lat="42.4419" lon="2.25429">
        <ele>2659.8</ele>
        <time>2019-01-07T05:44:38Z</time>
      </trkpt>
      <trkpt lat="42.44185" lon="2.2543">
        <ele>2658.8</ele>
        <time>2019-01-07T05:44:39Z</time>
      </trkpt>
      <trkpt lat="42.4418" lon="2.25431">
        <ele>2657.9</ele>
        <time>2019-01-07T05:44:40Z</time>
      </trkpt>
      <trkpt lat="42.44175" lon="2.25433">
        <ele>2657.6</ele>
        <time>2019-01-07T05:44:42Z</time>
      </trkpt>
      <trkpt lat="42.4417" lon="2.25434">
        <ele>2657.7</ele>
        <time>2019-01-07T05:44:43Z</time>
      </trkpt>
      <trkpt lat="42.44165" lon="2.25437">
        <ele>2657.4</ele>
        <time>2019-01-07T05:44:44Z</time>
      </trkpt>
      <trkpt lat="42.4416" lon="2.25437">
        <ele>2657</ele>
        <time>2019-01-07T05:44:46Z</time>
      </trkpt>
      <trkpt lat="42.44156" lon="2.25439">
        <ele>2656.5</ele>
        <time>2019-01-07T05:44:47Z</time>
      </trkpt>
      <trkpt lat="42.44152" lon="2.25441">
        <ele>2656.2</ele>
        <time>2019-01-07T05:44:48Z</time>
      </trkpt>
      <trkpt lat="42.44147" lon="2.25444">
        <ele>2656</ele>
        <time>2019-01-07T05:44:50Z</time>
      </trkpt>
      <trkpt lat="42.44142" lon="2.25448">
        <ele>2656</ele>
        <time>2019-01-07T05:44:51Z</time>
      </trkpt>
      <trkpt lat="42.44138" lon="2.25451">
        <ele>2656</ele>
        <time>2019-01-07T05:44:52Z</time>
      </trkpt>
      <trkpt lat="42.44135" lon="2.25456">
        <ele>2656</ele>
        <time>2019-01-07T05:44:54Z</time>
      </trkpt>
      <trkpt lat="42.44131" lon="2.25461">
        <ele>2656.2</ele>
        <time>2019-01-07T05:44:55Z</time>
      </trkpt>
      <trkpt lat="42.44127" lon="2.25466">
        <ele>2656.3</ele>
        <time>2019-01-07T05:44:57Z</time>
      </trkpt>
      <trkpt lat="42.44122" lon="2.25469">
        <ele>2656.5</ele>
        <time>2019-01-07T05:44:58Z</time>
      </trkpt>
      <trkpt lat="42.44119" lon="2.25473">
        <ele>2656.7</ele>
        <time>2019-01-07T05:44:59Z</time>
      </trkpt>
      <trkpt lat="42.44116" lon="2.25479">
        <ele>2657.2</ele>
        <time>2019-01-07T05:45:01Z</time>
      </trkpt>
      <trkpt lat="42.44112" lon="2.25483">
        <ele>2657.7</ele>
        <time>2019-01-07T05:45:02Z</time>
      </trkpt>
      <trkpt lat="42.44109" lon="2.25489">
        <ele>2658.4</ele>
        <time>2019-01-07T05:45:03Z</time>
      </trkpt>
      <trkpt lat="42.44106" lon="2.25494">
        <ele>2659.1</ele>
        <time>2019-01-07T05:45:05Z</time>
      </trkpt>
      <trkpt lat="42.44103" lon="2.255">
        <ele>2659.8</ele>
        <time>2019-01-07T05:45:06Z</time>
      </trkpt>
      <trkpt lat="42.44102" lon="2.25507">
        <ele>2660.7</ele>
        <time>2019-01-07T05:45:07Z</time>
      </trkpt>
      <trkpt lat="42.44101" lon="2.25513">
        <ele>2661.6</ele>
        <time>2019-01-07T05:45:09Z</time>
      </trkpt>
      <trkpt lat="42.44097" lon="2.25517">
        <ele>2662.2</ele>
        <time>2019-01-07T05:45:10Z</time>
      </trkpt>
      <trkpt lat="42.44093" lon="2.25523">
        <ele>2662.2</ele>
        <time>2019-01-07T05:45:11Z</time>
      </trkpt>
      <trkpt lat="42.4409" lon="2.25527">
        <ele>2662.5</ele>
        <time>2019-01-07T05:45:13Z</time>
      </trkpt>
      <trkpt lat="42.44087" lon="2.25532">
        <ele>2662.7</ele>
        <time>2019-01-07T05:45:14Z</time>
      </trkpt>
      <trkpt lat="42.44084" lon="2.25537">
        <ele>2663.1</ele>
        <time>2019-01-07T05:45:15Z</time>
      </trkpt>
      <trkpt lat="42.4408" lon="2.25542">
        <ele>2663.4</ele>
        <time>2019-01-07T05:45:17Z</time>
      </trkpt>
      <trkpt lat="42.44076" lon="2.25546">
        <ele>2663.5</ele>
        <time>2019-01-07T05:45:18Z</time>
      </trkpt>
      <trkpt lat="42.44073" lon="2.25551">
        <ele>2664</ele>
        <time>2019-01-07T05:45:19Z</time>
      </trkpt>
      <trkpt lat="42.44069" lon="2.25556">
        <ele>2664.5</ele>
        <time>2019-01-07T05:45:21Z</time>
      </trkpt>
      <trkpt lat="42.44065" lon="2.25561">
        <ele>2665.1</ele>
        <time>2019-01-07T05:45:22Z</time>
      </trkpt>
      <trkpt lat="42.44062" lon="2.25565">
        <ele>2665.7</ele>
        <time>2019-01-07T05:45:23Z</time>
      </trkpt>
      <trkpt lat="42.44058" lon="2.2557">
        <ele>2666.3</ele>
        <time>2019-01-07T05:45:25Z</time>
      </trkpt>
      <trkpt lat="42.44055" lon="2.25575">
        <ele>2666.8</ele>
        <time>2019-01-07T05:45:26Z</time>
      </trkpt>
      <trkpt lat="42.4405" lon="2.2558">
        <ele>2667</ele>
        <time>2019-01-07T05:45:28Z</time>
      </trkpt>
      <trkpt lat="42.44048" lon="2.25585">
        <ele>2668.2</ele>
        <time>2019-01-07T05:45:29Z</time>
      </trkpt>
      <trkpt lat="42.44044" lon="2.2559">
        <ele>2668.6</ele>
        <time>2019-01-07T05:45:30Z</time>
      </trkpt>
      <trkpt lat="42.44041" lon="2.25595">
        <ele>2669.2</ele>
        <time>2019-01-07T05:45:31Z</time>
      </trkpt>
      <trkpt lat="42.44038" lon="2.256">
        <ele>2669.6</ele>
        <time>2019-01-07T05:45:33Z</time>
      </trkpt>
      <trkpt lat="42.44034" lon="2.25604">
        <ele>2670.3</ele>
        <time>2019-01-07T05:45:34Z</time>
      </trkpt>
      <trkpt lat="42.4403" lon="2.25608">
        <ele>2670.4</ele>
        <time>2019-01-07T05:45:35Z</time>
      </trkpt>
      <trkpt lat="42.44028" lon="2.25613">
        <ele>2671.2</ele>
        <time>2019-01-07T05:45:37Z</time>
      </trkpt>
      <trkpt lat="42.44025" lon="2.25618">
        <ele>2671.7</ele>
        <time>2019-01-07T05:45:38Z</time>
      </trkpt>
      <trkpt lat="42.44021" lon="2.25623">
        <ele>2672</ele>
        <time>2019-01-07T05:45:39Z</time>
      </trkpt>
      <trkpt lat="42.44018" lon="2.25628">
        <ele>2672.5</ele>
        <time>2019-01-07T05:45:41Z</time>
      </trkpt>
      <trkpt lat="42.44015" lon="2.25633">
        <ele>2672.9</ele>
        <time>2019-01-07T05:45:42Z</time>
      </trkpt>
      <trkpt lat="42.4401" lon="2.25634">
        <ele>2673.6</ele>
        <time>2019-01-07T05:45:43Z</time>
      </trkpt>
      <trkpt lat="42.44005" lon="2.25635">
        <ele>2673.8</ele>
        <time>2019-01-07T05:45:44Z</time>
      </trkpt>
      <trkpt lat="42.44001" lon="2.25635">
        <ele>2674.1</ele>
        <time>2019-01-07T05:45:46Z</time>
      </trkpt>
      <trkpt lat="42.43996" lon="2.25634">
        <ele>2674.4</ele>
        <time>2019-01-07T05:45:47Z</time>
      </trkpt>
      <trkpt lat="42.43991" lon="2.25635">
        <ele>2675.4</ele>
        <time>2019-01-07T05:45:48Z</time>
      </trkpt>
      <trkpt lat="42.43986" lon="2.25637">
        <ele>2675.1</ele>
        <time>2019-01-07T05:45:50Z</time>
      </trkpt>
      <trkpt lat="42.43981" lon="2.25641">
        <ele>2675.6</ele>
        <time>2019-01-07T05:45:51Z</time>
      </trkpt>
      <trkpt lat="42.43977" lon="2.25644">
        <ele>2676.2</ele>
        <time>2019-01-07T05:45:52Z</time>
      </trkpt>
      <trkpt lat="42.43973" lon="2.25647">
        <ele>2677</ele>
        <time>2019-01-07T05:45:54Z</time>
      </trkpt>
      <trkpt lat="42.43968" lon="2.2565">
        <ele>2677.5</ele>
        <time>2019-01-07T05:45:55Z</time>
      </trkpt>
      <trkpt lat="42.43963" lon="2.25652">
        <ele>2678.3</ele>
        <time>2019-01-07T05:45:56Z</time>
      </trkpt>
      <trkpt lat="42.43959" lon="2.25656">
        <ele>2679.1</ele>
        <time>2019-01-07T05:45:58Z</time>
      </trkpt>
      <trkpt lat="42.43956" lon="2.25662">
        <ele>2679.2</ele>
        <time>2019-01-07T05:45:59Z</time>
      </trkpt>
      <trkpt lat="42.43953" lon="2.25667">
        <ele>2679.9</ele>
        <time>2019-01-07T05:46:00Z</time>
      </trkpt>
      <trkpt lat="42.43952" lon="2.25673">
        <ele>2680.5</ele>
        <time>2019-01-07T05:46:02Z</time>
      </trkpt>
      <trkpt lat="42.43949" lon="2.25679">
        <ele>2680.8</ele>
        <time>2019-01-07T05:46:03Z</time>
      </trkpt>
      <trkpt lat="42.43945" lon="2.25683">
        <ele>2681.5</ele>
        <time>2019-01-07T05:46:04Z</time>
      </trkpt>
      <trkpt lat="42.4394" lon="2.25686">
        <ele>2682</ele>
        <time>2019-01-07T05:46:06Z</time>
      </trkpt>
      <trkpt lat="42.43936" lon="2.25689">
        <ele>2682.4</ele>
        <time>2019-01-07T05:46:07Z</time>
      </trkpt>
      <trkpt lat="42.43932" lon="2.25694">
        <ele>2683</ele>
        <time>2019-01-07T05:46:08Z</time>
      </trkpt>
      <trkpt lat="42.43929" lon="2.25698">
        <ele>2683.7</ele>
        <time>2019-01-07T05:46:10Z</time>
      </trkpt>
      <trkpt lat="42.43926" lon="2.25704">
        <ele>2684.6</ele>
        <time>2019-01-07T05:46:11Z</time>
      </trkpt>
      <trkpt lat="42.43922" lon="2.25708">
        <ele>2685.2</ele>
        <time>2019-01-07T05:46:12Z</time>
      </trkpt>
      <trkpt lat="42.43918" lon="2.25712">
        <ele>2685.7</ele>
        <time>2019-01-07T05:46:14Z</time>
      </trkpt>
      <trkpt lat="42.43914" lon="2.25717">
        <ele>2685.8</ele>
        <time>2019-01-07T05:46:15Z</time>
      </trkpt>
      <trkpt lat="42.43911" lon="2.25721">
        <ele>2686.1</ele>
        <time>2019-01-07T05:46:16Z</time>
      </trkpt>
      <trkpt lat="42.43908" lon="2.25726">
        <ele>2686.4</ele>
        <time>2019-01-07T05:46:18Z</time>
      </trkpt>
      <trkpt lat="42.43905" lon="2.25732">
        <ele>2686.6</ele>
        <time>2019-01-07T05:46:19Z</time>
      </trkpt>
      <trkpt lat="42.43903" lon="2.25738">
        <ele>2687.4</ele>
        <time>2019-01-07T05:46:20Z</time>
      </trkpt>
      <trkpt lat="42.439" lon="2.25744">
        <ele>2687.8</ele>
        <time>2019-01-07T05:46:22Z</time>
      </trkpt>
      <trkpt lat="42.43898" lon="2.25749">
        <ele>2687.9</ele>
        <time>2019-01-07T05:46:23Z</time>
      </trkpt>
      <trkpt lat="42.43895" lon="2.25756">
        <ele>2688</ele>
        <time>2019-01-07T05:46:24Z</time>
      </trkpt>
      <trkpt lat="42.43892" lon="2.25761">
        <ele>2688.2</ele>
        <time>2019-01-07T05:46:26Z</time>
      </trkpt>
      <trkpt lat="42.43888" lon="2.25765">
        <ele>2688.4</ele>
        <time>2019-01-07T05:46:27Z</time>
      </trkpt>
      <trkpt lat="42.43884" lon="2.25771">
        <ele>2688.4</ele>
        <time>2019-01-07T05:46:28Z</time>
      </trkpt>
      <trkpt lat="42.43881" lon="2.25775">
        <ele>2688.4</ele>
        <time>2019-01-07T05:46:30Z</time>
      </trkpt>
      <trkpt lat="42.43876" lon="2.25779">
        <ele>2688.7</ele>
        <time>2019-01-07T05:46:31Z</time>
      </trkpt>
      <trkpt lat="42.43872" lon="2.25783">
        <ele>2688.8</ele>
        <time>2019-01-07T05:46:32Z</time>
      </trkpt>
      <trkpt lat="42.43869" lon="2.25787">
        <ele>2689.1</ele>
        <time>2019-01-07T05:46:34Z</time>
      </trkpt>
      <trkpt lat="42.43865" lon="2.25791">
        <ele>2689.1</ele>
        <time>2019-01-07T05:46:35Z</time>
      </trkpt>
      <trkpt lat="42.43862" lon="2.25796">
        <ele>2689.2</ele>
        <time>2019-01-07T05:46:36Z</time>
      </trkpt>
      <trkpt lat="42.43859" lon="2.25802">
        <ele>2689.3</ele>
        <time>2019-01-07T05:46:38Z</time>
      </trkpt>
      <trkpt lat="42.43858" lon="2.25808">
        <ele>2689.2</ele>
        <time>2019-01-07T05:46:39Z</time>
      </trkpt>
      <trkpt lat="42.43855" lon="2.25813">
        <ele>2689.1</ele>
        <time>2019-01-07T05:46:40Z</time>
      </trkpt>
      <trkpt lat="42.43853" lon="2.25819">
        <ele>2688.9</ele>
        <time>2019-01-07T05:46:41Z</time>
      </trkpt>
      <trkpt lat="42.4385" lon="2.25824">
        <ele>2688.7</ele>
        <time>2019-01-07T05:46:43Z</time>
      </trkpt>
      <trkpt lat="42.43802" lon="2.25861">
        <ele>2689</ele>
        <time>2019-01-07T05:46:57Z</time>
      </trkpt>
      <trkpt lat="42.43804" lon="2.25849">
        <ele>2689.2</ele>
        <time>2019-01-07T05:47:00Z</time>
      </trkpt>
      <trkpt lat="42.43807" lon="2.25836">
        <ele>2690</ele>
        <time>2019-01-07T05:47:03Z</time>
      </trkpt>
      <trkpt lat="42.43809" lon="2.25822">
        <ele>2689.2</ele>
        <time>2019-01-07T05:47:05Z</time>
      </trkpt>
      <trkpt lat="42.43809" lon="2.2581">
        <ele>2689.7</ele>
        <time>2019-01-07T05:47:08Z</time>
      </trkpt>
      <trkpt lat="42.43812" lon="2.25797">
        <ele>2690.1</ele>
        <time>2019-01-07T05:47:10Z</time>
      </trkpt>
      <trkpt lat="42.43812" lon="2.25784">
        <ele>2690.6</ele>
        <time>2019-01-07T05:47:13Z</time>
      </trkpt>
      <trkpt lat="42.43814" lon="2.25771">
        <ele>2691</ele>
        <time>2019-01-07T05:47:16Z</time>
      </trkpt>
      <trkpt lat="42.43818" lon="2.25759">
        <ele>2691</ele>
        <time>2019-01-07T05:47:18Z</time>
      </trkpt>
      <trkpt lat="42.43821" lon="2.25747">
        <ele>2691.6</ele>
        <time>2019-01-07T05:47:21Z</time>
      </trkpt>
      <trkpt lat="42.43823" lon="2.25734">
        <ele>2692.1</ele>
        <time>2019-01-07T05:47:23Z</time>
      </trkpt>
      <trkpt lat="42.43825" lon="2.25721">
        <ele>2692.1</ele>
        <time>2019-01-07T05:47:26Z</time>
      </trkpt>
      <trkpt lat="42.43826" lon="2.25707">
        <ele>2691.5</ele>
        <time>2019-01-07T05:47:29Z</time>
      </trkpt>
      <trkpt lat="42.43828" lon="2.25695">
        <ele>2691.1</ele>
        <time>2019-01-07T05:47:31Z</time>
      </trkpt>
      <trkpt lat="42.43828" lon="2.25682">
        <ele>2690.9</ele>
        <time>2019-01-07T05:47:34Z</time>
      </trkpt>
      <trkpt lat="42.43826" lon="2.25669">
        <ele>2689.3</ele>
        <time>2019-01-07T05:47:36Z</time>
      </trkpt>
      <trkpt lat="42.43825" lon="2.25657">
        <ele>2686.1</ele>
        <time>2019-01-07T05:47:39Z</time>
      </trkpt>
      <trkpt lat="42.43824" lon="2.25644">
        <ele>2684.5</ele>
        <time>2019-01-07T05:47:41Z</time>
      </trkpt>
      <trkpt lat="42.43821" lon="2.25632">
        <ele>2682.1</ele>
        <time>2019-01-07T05:47:44Z</time>
      </trkpt>
      <trkpt lat="42.43817" lon="2.2562">
        <ele>2680</ele>
        <time>2019-01-07T05:47:46Z</time>
      </trkpt>
      <trkpt lat="42.43814" lon="2.25608">
        <ele>2679.2</ele>
        <time>2019-01-07T05:47:49Z</time>
      </trkpt>
      <trkpt lat="42.43813" lon="2.25595">
        <ele>2676.8</ele>
        <time>2019-01-07T05:47:51Z</time>
      </trkpt>
      <trkpt lat="42.43809" lon="2.25583">
        <ele>2675.5</ele>
        <time>2019-01-07T05:47:54Z</time>
      </trkpt>
      <trkpt lat="42.43806" lon="2.25572">
        <ele>2674.7</ele>
        <time>2019-01-07T05:47:56Z</time>
      </trkpt>
      <trkpt lat="42.43804" lon="2.25559">
        <ele>2673.5</ele>
        <time>2019-01-07T05:47:59Z</time>
      </trkpt>
      <trkpt lat="42.43802" lon="2.25546">
        <ele>2672.3</ele>
        <time>2019-01-07T05:48:01Z</time>
      </trkpt>
      <trkpt lat="42.43798" lon="2.25535">
        <ele>2670.1</ele>
        <time>2019-01-07T05:48:04Z</time>
      </trkpt>
      <trkpt lat="42.43793" lon="2.25523">
        <ele>2666.7</ele>
        <time>2019-01-07T05:48:06Z</time>
      </trkpt>
      <trkpt lat="42.43788" lon="2.25513">
        <ele>2665.1</ele>
        <time>2019-01-07T05:48:09Z</time>
      </trkpt>
      <trkpt lat="42.43785" lon="2.25501">
        <ele>2664.8</ele>
        <time>2019-01-07T05:48:11Z</time>
      </trkpt>
      <trkpt lat="42.43782" lon="2.2549">
        <ele>2664.1</ele>
        <time>2019-01-07T05:48:14Z</time>
      </trkpt>
      <trkpt lat="42.43779" lon="2.25477">
        <ele>2663.5</ele>
        <time>2019-01-07T05:48:16Z</time>
      </trkpt>
      <trkpt lat="42.43774" lon="2.25466">
        <ele>2661.8</ele>
        <time>2019-01-07T05:48:19Z</time>
      </trkpt>
      <trkpt lat="42.43768" lon="2.25456">
        <ele>2661.2</ele>
        <time>2019-01-07T05:48:21Z</time>
      </trkpt>
      <trkpt lat="42.43761" lon="2.25448">
        <ele>2660.9</ele>
        <time>2019-01-07T05:48:24Z</time>
      </trkpt>
      <trkpt lat="42.43752" lon="2.25442">
        <ele>2660</ele>
        <time>2019-01-07T05:48:26Z</time>
      </trkpt>
      <trkpt lat="42.43747" lon="2.25431">
        <ele>2657.4</ele>
        <time>2019-01-07T05:48:29Z</time>
      </trkpt>
      <trkpt lat="42.43742" lon="2.2542">
        <ele>2657.1</ele>
        <time>2019-01-07T05:48:32Z</time>
      </trkpt>
      <trkpt lat="42.43738" lon="2.25409">
        <ele>2657.1</ele>
        <time>2019-01-07T05:48:34Z</time>
      </trkpt>
      <trkpt lat="42.43733" lon="2.25398">
        <ele>2656.9</ele>
        <time>2019-01-07T05:48:37Z</time>
      </trkpt>
      <trkpt lat="42.43727" lon="2.25388">
        <ele>2656.2</ele>
        <time>2019-01-07T05:48:39Z</time>
      </trkpt>
      <trkpt lat="42.43721" lon="2.25378">
        <ele>2656.2</ele>
        <time>2019-01-07T05:48:42Z</time>
      </trkpt>
      <trkpt lat="42.43716" lon="2.25367">
        <ele>2655.3</ele>
        <time>2019-01-07T05:48:44Z</time>
      </trkpt>
      <trkpt lat="42.4371" lon="2.25357">
        <ele>2655</ele>
        <time>2019-01-07T05:48:47Z</time>
      </trkpt>
      <trkpt lat="42.43704" lon="2.25349">
        <ele>2654.4</ele>
        <time>2019-01-07T05:48:49Z</time>
      </trkpt>
      <trkpt lat="42.43697" lon="2.2534">
        <ele>2652.9</ele>
        <time>2019-01-07T05:48:52Z</time>
      </trkpt>
      <trkpt lat="42.43691" lon="2.25331">
        <ele>2651.8</ele>
        <time>2019-01-07T05:48:54Z</time>
      </trkpt>
      <trkpt lat="42.43683" lon="2.25324">
        <ele>2650.3</ele>
        <time>2019-01-07T05:48:57Z</time>
      </trkpt>
      <trkpt lat="42.43677" lon="2.25315">
        <ele>2650.1</ele>
        <time>2019-01-07T05:48:59Z</time>
      </trkpt>
      <trkpt lat="42.43672" lon="2.25303">
        <ele>2650.1</ele>
        <time>2019-01-07T05:49:02Z</time>
      </trkpt>
      <trkpt lat="42.43667" lon="2.25293">
        <ele>2650.2</ele>
        <time>2019-01-07T05:49:04Z</time>
      </trkpt>
      <trkpt lat="42.43662" lon="2.25281">
        <ele>2650.1</ele>
        <time>2019-01-07T05:49:07Z</time>
      </trkpt>
      <trkpt lat="42.4366" lon="2.25268">
        <ele>2650.6</ele>
        <time>2019-01-07T05:49:09Z</time>
      </trkpt>
      <trkpt lat="42.43658" lon="2.25256">
        <ele>2651.1</ele>
        <time>2019-01-07T05:49:12Z</time>
      </trkpt>
      <trkpt lat="42.43656" lon="2.25242">
        <ele>2650.7</ele>
        <time>2019-01-07T05:49:15Z</time>
      </trkpt>
      <trkpt lat="42.43655" lon="2.25228">
        <ele>2649</ele>
        <time>2019-01-07T05:49:17Z</time>
      </trkpt>
      <trkpt lat="42.43654" lon="2.25215">
        <ele>2649.3</ele>
        <time>2019-01-07T05:49:20Z</time>
      </trkpt>
      <trkpt lat="42.43645" lon="2.25209">
        <ele>2650</ele>
        <time>2019-01-07T05:49:22Z</time>
      </trkpt>
      <trkpt lat="42.43638" lon="2.25202">
        <ele>2650.2</ele>
        <time>2019-01-07T05:49:25Z</time>
      </trkpt>
      <trkpt lat="42.43629" lon="2.25198">
        <ele>2649.3</ele>
        <time>2019-01-07T05:49:27Z</time>
      </trkpt>
      <trkpt lat="42.43619" lon="2.25197">
        <ele>2647.1</ele>
        <time>2019-01-07T05:49:30Z</time>
      </trkpt>
      <trkpt lat="42.43609" lon="2.25196">
        <ele>2646.1</ele>
        <time>2019-01-07T05:49:33Z</time>
      </trkpt>
      <trkpt lat="42.436" lon="2.25195">
        <ele>2645.1</ele>
        <time>2019-01-07T05:49:35Z</time>
      </trkpt>
      <trkpt lat="42.43591" lon="2.25195">
        <ele>2644.5</ele>
        <time>2019-01-07T05:49:38Z</time>
      </trkpt>
      <trkpt lat="42.4358" lon="2.25193">
        <ele>2643.7</ele>
        <time>2019-01-07T05:49:40Z</time>
      </trkpt>
      <trkpt lat="42.43572" lon="2.25186">
        <ele>2641.5</ele>
        <time>2019-01-07T05:49:43Z</time>
      </trkpt>
      <trkpt lat="42.43563" lon="2.25182">
        <ele>2638.3</ele>
        <time>2019-01-07T05:49:46Z</time>
      </trkpt>
      <trkpt lat="42.43554" lon="2.25177">
        <ele>2636.2</ele>
        <time>2019-01-07T05:49:48Z</time>
      </trkpt>
      <trkpt lat="42.43545" lon="2.25173">
        <ele>2634.6</ele>
        <time>2019-01-07T05:49:51Z</time>
      </trkpt>
      <trkpt lat="42.43536" lon="2.25172">
        <ele>2633.6</ele>
        <time>2019-01-07T05:49:53Z</time>
      </trkpt>
      <trkpt lat="42.43526" lon="2.2517">
        <ele>2632.9</ele>
        <time>2019-01-07T05:49:56Z</time>
      </trkpt>
      <trkpt lat="42.43516" lon="2.25167">
        <ele>2631.8</ele>
        <time>2019-01-07T05:49:58Z</time>
      </trkpt>
      <trkpt lat="42.43507" lon="2.25168">
        <ele>2631.1</ele>
        <time>2019-01-07T05:50:01Z</time>
      </trkpt>
      <trkpt lat="42.43497" lon="2.25167">
        <ele>2630.3</ele>
        <time>2019-01-07T05:50:04Z</time>
      </trkpt>
      <trkpt lat="42.43487" lon="2.25163">
        <ele>2628.1</ele>
        <time>2019-01-07T05:50:06Z</time>
      </trkpt>
      <trkpt lat="42.43478" lon="2.25162">
        <ele>2625.9</ele>
        <time>2019-01-07T05:50:09Z</time>
      </trkpt>
      <trkpt lat="42.43469" lon="2.25161">
        <ele>2624.5</ele>
        <time>2019-01-07T05:50:11Z</time>
      </trkpt>
      <trkpt lat="42.43459" lon="2.25158">
        <ele>2624.1</ele>
        <time>2019-01-07T05:50:14Z</time>
      </trkpt>
      <trkpt lat="42.4345" lon="2.25155">
        <ele>2624.2</ele>
        <time>2019-01-07T05:50:16Z</time>
      </trkpt>
      <trkpt lat="42.43441" lon="2.25149">
        <ele>2624.9</ele>
        <time>2019-01-07T05:50:19Z</time>
      </trkpt>
      <trkpt lat="42.43433" lon="2.25142">
        <ele>2625.1</ele>
        <time>2019-01-07T05:50:22Z</time>
      </trkpt>
      <trkpt lat="42.43425" lon="2.25135">
        <ele>2626.1</ele>
        <time>2019-01-07T05:50:24Z</time>
      </trkpt>
      <trkpt lat="42.4342" lon="2.25124">
        <ele>2628</ele>
        <time>2019-01-07T05:50:27Z</time>
      </trkpt>
      <trkpt lat="42.43417" lon="2.25113">
        <ele>2630.2</ele>
        <time>2019-01-07T05:50:29Z</time>
      </trkpt>
      <trkpt lat="42.43409" lon="2.25106">
        <ele>2633.3</ele>
        <time>2019-01-07T05:50:32Z</time>
      </trkpt>
      <trkpt lat="42.434" lon="2.25104">
        <ele>2636.7</ele>
        <time>2019-01-07T05:50:34Z</time>
      </trkpt>
      <trkpt lat="42.43391" lon="2.25101">
        <ele>2642</ele>
        <time>2019-01-07T05:50:36Z</time>
      </trkpt>
      <trkpt lat="42.43382" lon="2.25097">
        <ele>2644</ele>
        <time>2019-01-07T05:50:39Z</time>
      </trkpt>
      <trkpt lat="42.43373" lon="2.25092">
        <ele>2645.1</ele>
        <time>2019-01-07T05:50:42Z</time>
      </trkpt>
      <trkpt lat="42.43366" lon="2.25085">
        <ele>2645.2</ele>
        <time>2019-01-07T05:50:44Z</time>
      </trkpt>
      <trkpt lat="42.43357" lon="2.2508">
        <ele>2644.6</ele>
        <time>2019-01-07T05:50:47Z</time>
      </trkpt>
      <trkpt lat="42.43349" lon="2.25074">
        <ele>2643.5</ele>
        <time>2019-01-07T05:50:49Z</time>
      </trkpt>
      <trkpt lat="42.4334" lon="2.2507">
        <ele>2640.7</ele>
        <time>2019-01-07T05:50:51Z</time>
      </trkpt>
      <trkpt lat="42.43331" lon="2.25068">
        <ele>2639.1</ele>
        <time>2019-01-07T05:50:54Z</time>
      </trkpt>
      <trkpt lat="42.43323" lon="2.2506">
        <ele>2640.2</ele>
        <time>2019-01-07T05:50:57Z</time>
      </trkpt>
      <trkpt lat="42.43314" lon="2.25058">
        <ele>2641.1</ele>
        <time>2019-01-07T05:50:59Z</time>
      </trkpt>
      <trkpt lat="42.43304" lon="2.25053">
        <ele>2640.8</ele>
        <time>2019-01-07T05:51:02Z</time>
      </trkpt>
      <trkpt lat="42.43296" lon="2.25047">
        <ele>2640.1</ele>
        <time>2019-01-07T05:51:04Z</time>
      </trkpt>
      <trkpt lat="42.43289" lon="2.25039">
        <ele>2640.1</ele>
        <time>2019-01-07T05:51:07Z</time>
      </trkpt>
      <trkpt lat="42.43282" lon="2.25031">
        <ele>2640.1</ele>
        <time>2019-01-07T05:51:09Z</time>
      </trkpt>
      <trkpt lat="42.43275" lon="2.25022">
        <ele>2638.5</ele>
        <time>2019-01-07T05:51:12Z</time>
      </trkpt>
      <trkpt lat="42.4327" lon="2.25011">
        <ele>2636.5</ele>
        <time>2019-01-07T05:51:14Z</time>
      </trkpt>
      <trkpt lat="42.43265" lon="2.25001">
        <ele>2635.4</ele>
        <time>2019-01-07T05:51:17Z</time>
      </trkpt>
      <trkpt lat="42.43256" lon="2.24997">
        <ele>2635.5</ele>
        <time>2019-01-07T05:51:19Z</time>
      </trkpt>
      <trkpt lat="42.4325" lon="2.24987">
        <ele>2636.1</ele>
        <time>2019-01-07T05:51:22Z</time>
      </trkpt>
      <trkpt lat="42.43242" lon="2.2498">
        <ele>2636.1</ele>
        <time>2019-01-07T05:51:24Z</time>
      </trkpt>
      <trkpt lat="42.43238" lon="2.24967">
        <ele>2636.6</ele>
        <time>2019-01-07T05:51:27Z</time>
      </trkpt>
      <trkpt lat="42.43234" lon="2.24956">
        <ele>2639</ele>
        <time>2019-01-07T05:51:30Z</time>
      </trkpt>
      <trkpt lat="42.43228" lon="2.24946">
        <ele>2639.5</ele>
        <time>2019-01-07T05:51:32Z</time>
      </trkpt>
      <trkpt lat="42.43223" lon="2.24935">
        <ele>2641.8</ele>
        <time>2019-01-07T05:51:35Z</time>
      </trkpt>
      <trkpt lat="42.43222" lon="2.24922">
        <ele>2642.1</ele>
        <time>2019-01-07T05:51:37Z</time>
      </trkpt>
      <trkpt lat="42.43213" lon="2.2492">
        <ele>2638.6</ele>
        <time>2019-01-07T05:51:40Z</time>
      </trkpt>
      <trkpt lat="42.43213" lon="2.24908">
        <ele>2637.3</ele>
        <time>2019-01-07T05:51:42Z</time>
      </trkpt>
      <trkpt lat="42.43207" lon="2.24897">
        <ele>2635.2</ele>
        <time>2019-01-07T05:51:45Z</time>
      </trkpt>
      <trkpt lat="42.43201" lon="2.24888">
        <ele>2634</ele>
        <time>2019-01-07T05:51:47Z</time>
      </trkpt>
      <trkpt lat="42.43193" lon="2.24883">
        <ele>2632.1</ele>
        <time>2019-01-07T05:51:50Z</time>
      </trkpt>
      <trkpt lat="42.4319" lon="2.24871">
        <ele>2629.6</ele>
        <time>2019-01-07T05:51:52Z</time>
      </trkpt>
      <trkpt lat="42.43186" lon="2.24859">
        <ele>2629.8</ele>
        <time>2019-01-07T05:51:55Z</time>
      </trkpt>
      <trkpt lat="42.4318" lon="2.2485">
        <ele>2630</ele>
        <time>2019-01-07T05:51:57Z</time>
      </trkpt>
      <trkpt lat="42.43172" lon="2.24842">
        <ele>2630.1</ele>
        <time>2019-01-07T05:52:00Z</time>
      </trkpt>
      <trkpt lat="42.43165" lon="2.24833">
        <ele>2627.8</ele>
        <time>2019-01-07T05:52:02Z</time>
      </trkpt>
      <trkpt lat="42.43156" lon="2.2483">
        <ele>2623.9</ele>
        <time>2019-01-07T05:52:05Z</time>
      </trkpt>
      <trkpt lat="42.4315" lon="2.2482">
        <ele>2623.1</ele>
        <time>2019-01-07T05:52:07Z</time>
      </trkpt>
      <trkpt lat="42.43144" lon="2.2481">
        <ele>2622</ele>
        <time>2019-01-07T05:52:10Z</time>
      </trkpt>
      <trkpt lat="42.43137" lon="2.24801">
        <ele>2619.8</ele>
        <time>2019-01-07T05:52:12Z</time>
      </trkpt>
      <trkpt lat="42.43131" lon="2.2479">
        <ele>2619.1</ele>
        <time>2019-01-07T05:52:15Z</time>
      </trkpt>
      <trkpt lat="42.43132" lon="2.24778">
        <ele>2619</ele>
        <time>2019-01-07T05:52:17Z</time>
      </trkpt>
      <trkpt lat="42.43125" lon="2.24769">
        <ele>2619.1</ele>
        <time>2019-01-07T05:52:20Z</time>
      </trkpt>
      <trkpt lat="42.43117" lon="2.24763">
        <ele>2617.7</ele>
        <time>2019-01-07T05:52:23Z</time>
      </trkpt>
      <trkpt lat="42.43111" lon="2.24752">
        <ele>2615.2</ele>
        <time>2019-01-07T05:52:25Z</time>
      </trkpt>
      <trkpt lat="42.43102" lon="2.24746">
        <ele>2614.9</ele>
        <time>2019-01-07T05:52:28Z</time>
      </trkpt>
      <trkpt lat="42.43095" lon="2.24737">
        <ele>2614.1</ele>
        <time>2019-01-07T05:52:30Z</time>
      </trkpt>
      <trkpt lat="42.43087" lon="2.24731">
        <ele>2613.4</ele>
        <time>2019-01-07T05:52:33Z</time>
      </trkpt>
      <trkpt lat="42.43076" lon="2.24729">
        <ele>2613</ele>
        <time>2019-01-07T05:52:36Z</time>
      </trkpt>
      <trkpt lat="42.43067" lon="2.24726">
        <ele>2613.1</ele>
        <time>2019-01-07T05:52:38Z</time>
      </trkpt>
      <trkpt lat="42.43057" lon="2.24723">
        <ele>2613</ele>
        <time>2019-01-07T05:52:41Z</time>
      </trkpt>
      <trkpt lat="42.43048" lon="2.24719">
        <ele>2613.6</ele>
        <time>2019-01-07T05:52:44Z</time>
      </trkpt>
      <trkpt lat="42.43039" lon="2.24716">
        <ele>2614.1</ele>
        <time>2019-01-07T05:52:46Z</time>
      </trkpt>
      <trkpt lat="42.43031" lon="2.24709">
        <ele>2614.2</ele>
        <time>2019-01-07T05:52:49Z</time>
      </trkpt>
      <trkpt lat="42.43022" lon="2.24706">
        <ele>2615.1</ele>
        <time>2019-01-07T05:52:51Z</time>
      </trkpt>
      <trkpt lat="42.43073" lon="2.24687">
        <ele>2604</ele>
        <time>2019-01-07T06:49:22Z</time>
      </trkpt>
      <trkpt lat="42.43067" lon="2.24676">
        <ele>2603.1</ele>
        <time>2019-01-07T06:49:24Z</time>
      </trkpt>
      <trkpt lat="42.43062" lon="2.24664">
        <ele>2603.1</ele>
        <time>2019-01-07T06:49:27Z</time>
      </trkpt>
      <trkpt lat="42.43058" lon="2.24653">
        <ele>2601.1</ele>
        <time>2019-01-07T06:49:29Z</time>
      </trkpt>
      <trkpt lat="42.43053" lon="2.24643">
        <ele>2600.1</ele>
        <time>2019-01-07T06:49:32Z</time>
      </trkpt>
      <trkpt lat="42.43047" lon="2.24633">
        <ele>2599</ele>
        <time>2019-01-07T06:49:34Z</time>
      </trkpt>
      <trkpt lat="42.43043" lon="2.24622">
        <ele>2597.1</ele>
        <time>2019-01-07T06:49:37Z</time>
      </trkpt>
      <trkpt lat="42.43036" lon="2.24613">
        <ele>2597</ele>
        <time>2019-01-07T06:49:39Z</time>
      </trkpt>
      <trkpt lat="42.43031" lon="2.24602">
        <ele>2598</ele>
        <time>2019-01-07T06:49:42Z</time>
      </trkpt>
      <trkpt lat="42.43027" lon="2.24589">
        <ele>2599.1</ele>
        <time>2019-01-07T06:49:45Z</time>
      </trkpt>
      <trkpt lat="42.43025" lon="2.24576">
        <ele>2598.1</ele>
        <time>2019-01-07T06:49:47Z</time>
      </trkpt>
      <trkpt lat="42.43021" lon="2.24564">
        <ele>2597</ele>
        <time>2019-01-07T06:49:50Z</time>
      </trkpt>
      <trkpt lat="42.43022" lon="2.24552">
        <ele>2594</ele>
        <time>2019-01-07T06:49:52Z</time>
      </trkpt>
      <trkpt lat="42.43022" lon="2.24538">
        <ele>2594.1</ele>
        <time>2019-01-07T06:49:55Z</time>
      </trkpt>
      <trkpt lat="42.43021" lon="2.24525">
        <ele>2594</ele>
        <time>2019-01-07T06:49:57Z</time>
      </trkpt>
      <trkpt lat="42.4302" lon="2.24512">
        <ele>2594.1</ele>
        <time>2019-01-07T06:50:00Z</time>
      </trkpt>
      <trkpt lat="42.4302" lon="2.24499">
        <ele>2593</ele>
        <time>2019-01-07T06:50:03Z</time>
      </trkpt>
      <trkpt lat="42.43023" lon="2.24483">
        <ele>2589.1</ele>
        <time>2019-01-07T06:50:06Z</time>
      </trkpt>
      <trkpt lat="42.43025" lon="2.24471">
        <ele>2586</ele>
        <time>2019-01-07T06:50:08Z</time>
      </trkpt>
      <trkpt lat="42.43024" lon="2.24457">
        <ele>2587.1</ele>
        <time>2019-01-07T06:50:11Z</time>
      </trkpt>
      <trkpt lat="42.43024" lon="2.24444">
        <ele>2587</ele>
        <time>2019-01-07T06:50:13Z</time>
      </trkpt>
      <trkpt lat="42.43023" lon="2.2443">
        <ele>2587.1</ele>
        <time>2019-01-07T06:50:16Z</time>
      </trkpt>
      <trkpt lat="42.43025" lon="2.24417">
        <ele>2586.1</ele>
        <time>2019-01-07T06:50:19Z</time>
      </trkpt>
      <trkpt lat="42.43024" lon="2.24404">
        <ele>2584</ele>
        <time>2019-01-07T06:50:21Z</time>
      </trkpt>
      <trkpt lat="42.43026" lon="2.24392">
        <ele>2580</ele>
        <time>2019-01-07T06:50:24Z</time>
      </trkpt>
      <trkpt lat="42.43027" lon="2.24379">
        <ele>2578.1</ele>
        <time>2019-01-07T06:50:26Z</time>
      </trkpt>
      <trkpt lat="42.43029" lon="2.24366">
        <ele>2578</ele>
        <time>2019-01-07T06:50:29Z</time>
      </trkpt>
      <trkpt lat="42.43028" lon="2.24353">
        <ele>2577.1</ele>
        <time>2019-01-07T06:50:32Z</time>
      </trkpt>
      <trkpt lat="42.43031" lon="2.2434">
        <ele>2576</ele>
        <time>2019-01-07T06:50:34Z</time>
      </trkpt>
      <trkpt lat="42.4303" lon="2.24327">
        <ele>2581.1</ele>
        <time>2019-01-07T06:50:37Z</time>
      </trkpt>
      <trkpt lat="42.43034" lon="2.24315">
        <ele>2581.1</ele>
        <time>2019-01-07T06:50:40Z</time>
      </trkpt>
      <trkpt lat="42.43034" lon="2.24301">
        <ele>2580</ele>
        <time>2019-01-07T06:50:42Z</time>
      </trkpt>
      <trkpt lat="42.43039" lon="2.24289">
        <ele>2579</ele>
        <time>2019-01-07T06:50:45Z</time>
      </trkpt>
      <trkpt lat="42.43041" lon="2.24277">
        <ele>2579</ele>
        <time>2019-01-07T06:50:48Z</time>
      </trkpt>
      <trkpt lat="42.43046" lon="2.24266">
        <ele>2578.1</ele>
        <time>2019-01-07T06:50:50Z</time>
      </trkpt>
      <trkpt lat="42.43051" lon="2.24256">
        <ele>2577</ele>
        <time>2019-01-07T06:50:53Z</time>
      </trkpt>
      <trkpt lat="42.43056" lon="2.24244">
        <ele>2579</ele>
        <time>2019-01-07T06:50:55Z</time>
      </trkpt>
      <trkpt lat="42.43063" lon="2.24234">
        <ele>2578</ele>
        <time>2019-01-07T06:50:58Z</time>
      </trkpt>
      <trkpt lat="42.4307" lon="2.24224">
        <ele>2577.1</ele>
        <time>2019-01-07T06:51:01Z</time>
      </trkpt>
      <trkpt lat="42.43079" lon="2.24222">
        <ele>2573.1</ele>
        <time>2019-01-07T06:51:03Z</time>
      </trkpt>
      <trkpt lat="42.43087" lon="2.24215">
        <ele>2572.1</ele>
        <time>2019-01-07T06:51:06Z</time>
      </trkpt>
      <trkpt lat="42.43097" lon="2.24217">
        <ele>2569.1</ele>
        <time>2019-01-07T06:51:08Z</time>
      </trkpt>
      <trkpt lat="42.43103" lon="2.24226">
        <ele>2564</ele>
        <time>2019-01-07T06:51:11Z</time>
      </trkpt>
      <trkpt lat="42.43112" lon="2.24232">
        <ele>2562.1</ele>
        <time>2019-01-07T06:51:13Z</time>
      </trkpt>
      <trkpt lat="42.43117" lon="2.24242">
        <ele>2561</ele>
        <time>2019-01-07T06:51:16Z</time>
      </trkpt>
      <trkpt lat="42.43122" lon="2.24254">
        <ele>2559.1</ele>
        <time>2019-01-07T06:51:19Z</time>
      </trkpt>
      <trkpt lat="42.43128" lon="2.24266">
        <ele>2557.1</ele>
        <time>2019-01-07T06:51:21Z</time>
      </trkpt>
      <trkpt lat="42.43126" lon="2.24279">
        <ele>2554</ele>
        <time>2019-01-07T06:51:24Z</time>
      </trkpt>
      <trkpt lat="42.43119" lon="2.24289">
        <ele>2550</ele>
        <time>2019-01-07T06:51:27Z</time>
      </trkpt>
      <trkpt lat="42.43112" lon="2.24298">
        <ele>2546.1</ele>
        <time>2019-01-07T06:51:29Z</time>
      </trkpt>
      <trkpt lat="42.4311" lon="2.24311">
        <ele>2543.1</ele>
        <time>2019-01-07T06:51:32Z</time>
      </trkpt>
      <trkpt lat="42.43103" lon="2.24324">
        <ele>2540</ele>
        <time>2019-01-07T06:51:35Z</time>
      </trkpt>
      <trkpt lat="42.4311" lon="2.24335">
        <ele>2538.1</ele>
        <time>2019-01-07T06:51:38Z</time>
      </trkpt>
      <trkpt lat="42.43117" lon="2.24345">
        <ele>2538.1</ele>
        <time>2019-01-07T06:51:41Z</time>
      </trkpt>
      <trkpt lat="42.43115" lon="2.24358">
        <ele>2537.1</ele>
        <time>2019-01-07T06:51:43Z</time>
      </trkpt>
      <trkpt lat="42.43117" lon="2.2437">
        <ele>2534</ele>
        <time>2019-01-07T06:51:46Z</time>
      </trkpt>
      <trkpt lat="42.43122" lon="2.24384">
        <ele>2529</ele>
        <time>2019-01-07T06:51:49Z</time>
      </trkpt>
      <trkpt lat="42.43129" lon="2.24394">
        <ele>2526.1</ele>
        <time>2019-01-07T06:51:51Z</time>
      </trkpt>
      <trkpt lat="42.43137" lon="2.244">
        <ele>2522.1</ele>
        <time>2019-01-07T06:51:54Z</time>
      </trkpt>
      <trkpt lat="42.43145" lon="2.24406">
        <ele>2518</ele>
        <time>2019-01-07T06:51:56Z</time>
      </trkpt>
      <trkpt lat="42.43149" lon="2.24417">
        <ele>2513</ele>
        <time>2019-01-07T06:51:59Z</time>
      </trkpt>
      <trkpt lat="42.43159" lon="2.24424">
        <ele>2510.1</ele>
        <time>2019-01-07T06:52:02Z</time>
      </trkpt>
      <trkpt lat="42.43166" lon="2.24432">
        <ele>2506.1</ele>
        <time>2019-01-07T06:52:04Z</time>
      </trkpt>
      <trkpt lat="42.43175" lon="2.24436">
        <ele>2503.1</ele>
        <time>2019-01-07T06:52:07Z</time>
      </trkpt>
      <trkpt lat="42.43185" lon="2.2444">
        <ele>2499</ele>
        <time>2019-01-07T06:52:10Z</time>
      </trkpt>
      <trkpt lat="42.4319" lon="2.24454">
        <ele>2498.1</ele>
        <time>2019-01-07T06:52:13Z</time>
      </trkpt>
      <trkpt lat="42.43197" lon="2.24464">
        <ele>2496</ele>
        <time>2019-01-07T06:52:15Z</time>
      </trkpt>
      <trkpt lat="42.43206" lon="2.24466">
        <ele>2494</ele>
        <time>2019-01-07T06:52:18Z</time>
      </trkpt>
      <trkpt lat="42.43215" lon="2.24467">
        <ele>2492.1</ele>
        <time>2019-01-07T06:52:20Z</time>
      </trkpt>
      <trkpt lat="42.43223" lon="2.24475">
        <ele>2489.1</ele>
        <time>2019-01-07T06:52:23Z</time>
      </trkpt>
      <trkpt lat="42.43233" lon="2.24477">
        <ele>2487.1</ele>
        <time>2019-01-07T06:52:26Z</time>
      </trkpt>
      <trkpt lat="42.43242" lon="2.24481">
        <ele>2485</ele>
        <time>2019-01-07T06:52:28Z</time>
      </trkpt>
      <trkpt lat="42.43252" lon="2.24483">
        <ele>2483</ele>
        <time>2019-01-07T06:52:31Z</time>
      </trkpt>
      <trkpt lat="42.43259" lon="2.24492">
        <ele>2481</ele>
        <time>2019-01-07T06:52:33Z</time>
      </trkpt>
      <trkpt lat="42.43268" lon="2.24497">
        <ele>2479</ele>
        <time>2019-01-07T06:52:36Z</time>
      </trkpt>
      <trkpt lat="42.43277" lon="2.245">
        <ele>2476.1</ele>
        <time>2019-01-07T06:52:38Z</time>
      </trkpt>
      <trkpt lat="42.43284" lon="2.24507">
        <ele>2477.1</ele>
        <time>2019-01-07T06:52:41Z</time>
      </trkpt>
      <trkpt lat="42.43294" lon="2.24506">
        <ele>2477.1</ele>
        <time>2019-01-07T06:52:43Z</time>
      </trkpt>
      <trkpt lat="42.43303" lon="2.2451">
        <ele>2476.1</ele>
        <time>2019-01-07T06:52:46Z</time>
      </trkpt>
      <trkpt lat="42.43311" lon="2.24516">
        <ele>2475.1</ele>
        <time>2019-01-07T06:52:49Z</time>
      </trkpt>
      <trkpt lat="42.4332" lon="2.24518">
        <ele>2472</ele>
        <time>2019-01-07T06:52:51Z</time>
      </trkpt>
      <trkpt lat="42.4333" lon="2.2452">
        <ele>2470.1</ele>
        <time>2019-01-07T06:52:54Z</time>
      </trkpt>
      <trkpt lat="42.43336" lon="2.24532">
        <ele>2468.1</ele>
        <time>2019-01-07T06:52:56Z</time>
      </trkpt>
      <trkpt lat="42.43344" lon="2.24538">
        <ele>2465</ele>
        <time>2019-01-07T06:52:59Z</time>
      </trkpt>
      <trkpt lat="42.43354" lon="2.24538">
        <ele>2461</ele>
        <time>2019-01-07T06:53:02Z</time>
      </trkpt>
      <trkpt lat="42.43362" lon="2.24545">
        <ele>2459.1</ele>
        <time>2019-01-07T06:53:04Z</time>
      </trkpt>
      <trkpt lat="42.43371" lon="2.24549">
        <ele>2457</ele>
        <time>2019-01-07T06:53:07Z</time>
      </trkpt>
      <trkpt lat="42.43369" lon="2.24537">
        <ele>2455.1</ele>
        <time>2019-01-07T06:53:09Z</time>
      </trkpt>
      <trkpt lat="42.43376" lon="2.24547">
        <ele>2460.1</ele>
        <time>2019-01-07T06:53:12Z</time>
      </trkpt>
      <trkpt lat="42.43366" lon="2.24552">
        <ele>2458</ele>
        <time>2019-01-07T06:53:15Z</time>
      </trkpt>
      <trkpt lat="42.43377" lon="2.24552">
        <ele>2454.1</ele>
        <time>2019-01-07T06:53:17Z</time>
      </trkpt>
      <trkpt lat="42.43386" lon="2.24555">
        <ele>2449</ele>
        <time>2019-01-07T06:53:20Z</time>
      </trkpt>
      <trkpt lat="42.43397" lon="2.24563">
        <ele>2450.1</ele>
        <time>2019-01-07T06:53:24Z</time>
      </trkpt>
      <trkpt lat="42.43409" lon="2.24564">
        <ele>2449.1</ele>
        <time>2019-01-07T06:53:27Z</time>
      </trkpt>
      <trkpt lat="42.43421" lon="2.24566">
        <ele>2448.1</ele>
        <time>2019-01-07T06:53:30Z</time>
      </trkpt>
      <trkpt lat="42.43433" lon="2.24568">
        <ele>2447</ele>
        <time>2019-01-07T06:53:33Z</time>
      </trkpt>
      <trkpt lat="42.43442" lon="2.24566">
        <ele>2444</ele>
        <time>2019-01-07T06:53:36Z</time>
      </trkpt>
      <trkpt lat="42.43452" lon="2.24563">
        <ele>2441</ele>
        <time>2019-01-07T06:53:38Z</time>
      </trkpt>
      <trkpt lat="42.43463" lon="2.24563">
        <ele>2440.1</ele>
        <time>2019-01-07T06:53:41Z</time>
      </trkpt>
      <trkpt lat="42.43471" lon="2.24558">
        <ele>2436</ele>
        <time>2019-01-07T06:53:43Z</time>
      </trkpt>
      <trkpt lat="42.43481" lon="2.24563">
        <ele>2436.1</ele>
        <time>2019-01-07T06:53:46Z</time>
      </trkpt>
      <trkpt lat="42.43486" lon="2.2455">
        <ele>2434.1</ele>
        <time>2019-01-07T06:53:49Z</time>
      </trkpt>
      <trkpt lat="42.43497" lon="2.2455">
        <ele>2434</ele>
        <time>2019-01-07T06:53:52Z</time>
      </trkpt>
      <trkpt lat="42.43486" lon="2.24545">
        <ele>2433.1</ele>
        <time>2019-01-07T06:53:55Z</time>
      </trkpt>
      <trkpt lat="42.43498" lon="2.24541">
        <ele>2432.1</ele>
        <time>2019-01-07T06:53:58Z</time>
      </trkpt>
      <trkpt lat="42.43508" lon="2.24538">
        <ele>2430.1</ele>
        <time>2019-01-07T06:54:01Z</time>
      </trkpt>
      <trkpt lat="42.43518" lon="2.24541">
        <ele>2429</ele>
        <time>2019-01-07T06:54:04Z</time>
      </trkpt>
      <trkpt lat="42.43529" lon="2.24539">
        <ele>2426</ele>
        <time>2019-01-07T06:54:07Z</time>
      </trkpt>
      <trkpt lat="42.43537" lon="2.24533">
        <ele>2423</ele>
        <time>2019-01-07T06:54:09Z</time>
      </trkpt>
      <trkpt lat="42.43547" lon="2.2453">
        <ele>2421</ele>
        <time>2019-01-07T06:54:12Z</time>
      </trkpt>
      <trkpt lat="42.43549" lon="2.24518">
        <ele>2417.1</ele>
        <time>2019-01-07T06:54:14Z</time>
      </trkpt>
      <trkpt lat="42.43559" lon="2.24512">
        <ele>2413.1</ele>
        <time>2019-01-07T06:54:17Z</time>
      </trkpt>
      <trkpt lat="42.43568" lon="2.24509">
        <ele>2411</ele>
        <time>2019-01-07T06:54:20Z</time>
      </trkpt>
      <trkpt lat="42.43578" lon="2.2451">
        <ele>2410.1</ele>
        <time>2019-01-07T06:54:22Z</time>
      </trkpt>
      <trkpt lat="42.43588" lon="2.24509">
        <ele>2409.1</ele>
        <time>2019-01-07T06:54:25Z</time>
      </trkpt>
      <trkpt lat="42.43598" lon="2.24506">
        <ele>2406</ele>
        <time>2019-01-07T06:54:28Z</time>
      </trkpt>
      <trkpt lat="42.43608" lon="2.24502">
        <ele>2402.1</ele>
        <time>2019-01-07T06:54:30Z</time>
      </trkpt>
      <trkpt lat="42.43614" lon="2.24493">
        <ele>2400</ele>
        <time>2019-01-07T06:54:33Z</time>
      </trkpt>
      <trkpt lat="42.43621" lon="2.24485">
        <ele>2399</ele>
        <time>2019-01-07T06:54:35Z</time>
      </trkpt>
      <trkpt lat="42.4363" lon="2.2448">
        <ele>2396</ele>
        <time>2019-01-07T06:54:38Z</time>
      </trkpt>
      <trkpt lat="42.43638" lon="2.24476">
        <ele>2394</ele>
        <time>2019-01-07T06:54:40Z</time>
      </trkpt>
      <trkpt lat="42.43649" lon="2.24477">
        <ele>2391</ele>
        <time>2019-01-07T06:54:43Z</time>
      </trkpt>
      <trkpt lat="42.43658" lon="2.24471">
        <ele>2390</ele>
        <time>2019-01-07T06:54:46Z</time>
      </trkpt>
      <trkpt lat="42.43667" lon="2.24471">
        <ele>2388</ele>
        <time>2019-01-07T06:54:48Z</time>
      </trkpt>
      <trkpt lat="42.43675" lon="2.24477">
        <ele>2387.1</ele>
        <time>2019-01-07T06:54:51Z</time>
      </trkpt>
      <trkpt lat="42.43685" lon="2.24477">
        <ele>2387</ele>
        <time>2019-01-07T06:54:53Z</time>
      </trkpt>
      <trkpt lat="42.43694" lon="2.2448">
        <ele>2387.1</ele>
        <time>2019-01-07T06:54:56Z</time>
      </trkpt>
      <trkpt lat="42.43705" lon="2.24476">
        <ele>2384.1</ele>
        <time>2019-01-07T06:54:59Z</time>
      </trkpt>
      <trkpt lat="42.43716" lon="2.24479">
        <ele>2382.1</ele>
        <time>2019-01-07T06:55:02Z</time>
      </trkpt>
      <trkpt lat="42.43722" lon="2.24469">
        <ele>2381.1</ele>
        <time>2019-01-07T06:55:04Z</time>
      </trkpt>
      <trkpt lat="42.43733" lon="2.24468">
        <ele>2381</ele>
        <time>2019-01-07T06:55:07Z</time>
      </trkpt>
      <trkpt lat="42.43742" lon="2.24462">
        <ele>2381</ele>
        <time>2019-01-07T06:55:10Z</time>
      </trkpt>
      <trkpt lat="42.43752" lon="2.24459">
        <ele>2381</ele>
        <time>2019-01-07T06:55:13Z</time>
      </trkpt>
      <trkpt lat="42.43763" lon="2.24456">
        <ele>2381</ele>
        <time>2019-01-07T06:55:16Z</time>
      </trkpt>
      <trkpt lat="42.43771" lon="2.24451">
        <ele>2381</ele>
        <time>2019-01-07T06:55:18Z</time>
      </trkpt>
      <trkpt lat="42.43781" lon="2.24446">
        <ele>2379</ele>
        <time>2019-01-07T06:55:21Z</time>
      </trkpt>
      <trkpt lat="42.43791" lon="2.24444">
        <ele>2377</ele>
        <time>2019-01-07T06:55:24Z</time>
      </trkpt>
      <trkpt lat="42.43803" lon="2.24445">
        <ele>2374</ele>
        <time>2019-01-07T06:55:27Z</time>
      </trkpt>
      <trkpt lat="42.43812" lon="2.2444">
        <ele>2375</ele>
        <time>2019-01-07T06:55:29Z</time>
      </trkpt>
      <trkpt lat="42.43824" lon="2.24439">
        <ele>2374.1</ele>
        <time>2019-01-07T06:55:33Z</time>
      </trkpt>
      <trkpt lat="42.43833" lon="2.24439">
        <ele>2374.1</ele>
        <time>2019-01-07T06:55:35Z</time>
      </trkpt>
      <trkpt lat="42.43843" lon="2.2444">
        <ele>2374</ele>
        <time>2019-01-07T06:55:38Z</time>
      </trkpt>
      <trkpt lat="42.43852" lon="2.24439">
        <ele>2374.1</ele>
        <time>2019-01-07T06:55:40Z</time>
      </trkpt>
      <trkpt lat="42.43862" lon="2.24436">
        <ele>2374</ele>
        <time>2019-01-07T06:55:43Z</time>
      </trkpt>
      <trkpt lat="42.43871" lon="2.24436">
        <ele>2372</ele>
        <time>2019-01-07T06:55:45Z</time>
      </trkpt>
      <trkpt lat="42.43881" lon="2.24431">
        <ele>2371</ele>
        <time>2019-01-07T06:55:48Z</time>
      </trkpt>
      <trkpt lat="42.4389" lon="2.24427">
        <ele>2371.1</ele>
        <time>2019-01-07T06:55:51Z</time>
      </trkpt>
      <trkpt lat="42.439" lon="2.24426">
        <ele>2370</ele>
        <time>2019-01-07T06:55:53Z</time>
      </trkpt>
      <trkpt lat="42.43909" lon="2.24426">
        <ele>2368.1</ele>
        <time>2019-01-07T06:55:56Z</time>
      </trkpt>
      <trkpt lat="42.43919" lon="2.24427">
        <ele>2366</ele>
        <time>2019-01-07T06:55:58Z</time>
      </trkpt>
      <trkpt lat="42.43928" lon="2.24426">
        <ele>2364</ele>
        <time>2019-01-07T06:56:01Z</time>
      </trkpt>
      <trkpt lat="42.43936" lon="2.24421">
        <ele>2362</ele>
        <time>2019-01-07T06:56:03Z</time>
      </trkpt>
      <trkpt lat="42.43947" lon="2.24415">
        <ele>2361.1</ele>
        <time>2019-01-07T06:56:06Z</time>
      </trkpt>
      <trkpt lat="42.43956" lon="2.24411">
        <ele>2361.1</ele>
        <time>2019-01-07T06:56:09Z</time>
      </trkpt>
      <trkpt lat="42.43968" lon="2.24411">
        <ele>2360.1</ele>
        <time>2019-01-07T06:56:12Z</time>
      </trkpt>
      <trkpt lat="42.4398" lon="2.24408">
        <ele>2358</ele>
        <time>2019-01-07T06:56:15Z</time>
      </trkpt>
      <trkpt lat="42.4399" lon="2.24401">
        <ele>2356</ele>
        <time>2019-01-07T06:56:18Z</time>
      </trkpt>
      <trkpt lat="42.44" lon="2.24396">
        <ele>2353.1</ele>
        <time>2019-01-07T06:56:21Z</time>
      </trkpt>
      <trkpt lat="42.4401" lon="2.24396">
        <ele>2353.1</ele>
        <time>2019-01-07T06:56:24Z</time>
      </trkpt>
      <trkpt lat="42.4402" lon="2.24399">
        <ele>2353.1</ele>
        <time>2019-01-07T06:56:26Z</time>
      </trkpt>
      <trkpt lat="42.44029" lon="2.24402">
        <ele>2353.1</ele>
        <time>2019-01-07T06:56:29Z</time>
      </trkpt>
      <trkpt lat="42.44039" lon="2.24403">
        <ele>2353</ele>
        <time>2019-01-07T06:56:32Z</time>
      </trkpt>
      <trkpt lat="42.44049" lon="2.24401">
        <ele>2353</ele>
        <time>2019-01-07T06:56:34Z</time>
      </trkpt>
      <trkpt lat="42.44058" lon="2.24396">
        <ele>2353</ele>
        <time>2019-01-07T06:56:37Z</time>
      </trkpt>
      <trkpt lat="42.44069" lon="2.24393">
        <ele>2353</ele>
        <time>2019-01-07T06:56:40Z</time>
      </trkpt>
      <trkpt lat="42.44077" lon="2.24388">
        <ele>2353.1</ele>
        <time>2019-01-07T06:56:42Z</time>
      </trkpt>
      <trkpt lat="42.44087" lon="2.24385">
        <ele>2352</ele>
        <time>2019-01-07T06:56:45Z</time>
      </trkpt>
      <trkpt lat="42.44097" lon="2.24384">
        <ele>2351</ele>
        <time>2019-01-07T06:56:48Z</time>
      </trkpt>
      <trkpt lat="42.44108" lon="2.24379">
        <ele>2350</ele>
        <time>2019-01-07T06:56:51Z</time>
      </trkpt>
      <trkpt lat="42.44118" lon="2.24376">
        <ele>2348</ele>
        <time>2019-01-07T06:56:54Z</time>
      </trkpt>
      <trkpt lat="42.4413" lon="2.24375">
        <ele>2346</ele>
        <time>2019-01-07T06:56:57Z</time>
      </trkpt>
      <trkpt lat="42.44138" lon="2.24369">
        <ele>2345</ele>
        <time>2019-01-07T06:56:59Z</time>
      </trkpt>
      <trkpt lat="42.44148" lon="2.24366">
        <ele>2343</ele>
        <time>2019-01-07T06:57:02Z</time>
      </trkpt>
      <trkpt lat="42.44159" lon="2.24368">
        <ele>2341</ele>
        <time>2019-01-07T06:57:05Z</time>
      </trkpt>
      <trkpt lat="42.44167" lon="2.24376">
        <ele>2340</ele>
        <time>2019-01-07T06:57:08Z</time>
      </trkpt>
      <trkpt lat="42.44178" lon="2.24377">
        <ele>2338</ele>
        <time>2019-01-07T06:57:10Z</time>
      </trkpt>
      <trkpt lat="42.44187" lon="2.24375">
        <ele>2337</ele>
        <time>2019-01-07T06:57:13Z</time>
      </trkpt>
      <trkpt lat="42.44196" lon="2.24371">
        <ele>2337.1</ele>
        <time>2019-01-07T06:57:15Z</time>
      </trkpt>
      <trkpt lat="42.44206" lon="2.24371">
        <ele>2335</ele>
        <time>2019-01-07T06:57:18Z</time>
      </trkpt>
      <trkpt lat="42.44216" lon="2.24373">
        <ele>2334</ele>
        <time>2019-01-07T06:57:21Z</time>
      </trkpt>
      <trkpt lat="42.44226" lon="2.24374">
        <ele>2332</ele>
        <time>2019-01-07T06:57:23Z</time>
      </trkpt>
      <trkpt lat="42.44236" lon="2.24372">
        <ele>2330</ele>
        <time>2019-01-07T06:57:26Z</time>
      </trkpt>
      <trkpt lat="42.44237" lon="2.24359">
        <ele>2330</ele>
        <time>2019-01-07T06:57:29Z</time>
      </trkpt>
      <trkpt lat="42.44242" lon="2.24346">
        <ele>2331</ele>
        <time>2019-01-07T06:57:32Z</time>
      </trkpt>
      <trkpt lat="42.44252" lon="2.2434">
        <ele>2331.1</ele>
        <time>2019-01-07T06:57:35Z</time>
      </trkpt>
      <trkpt lat="42.44261" lon="2.24344">
        <ele>2328</ele>
        <time>2019-01-07T06:57:37Z</time>
      </trkpt>
      <trkpt lat="42.44271" lon="2.24347">
        <ele>2327</ele>
        <time>2019-01-07T06:57:40Z</time>
      </trkpt>
      <trkpt lat="42.44279" lon="2.24338">
        <ele>2326.1</ele>
        <time>2019-01-07T06:57:43Z</time>
      </trkpt>
      <trkpt lat="42.4429" lon="2.24335">
        <ele>2323</ele>
        <time>2019-01-07T06:57:46Z</time>
      </trkpt>
      <trkpt lat="42.44297" lon="2.24342">
        <ele>2321</ele>
        <time>2019-01-07T06:57:48Z</time>
      </trkpt>
      <trkpt lat="42.44306" lon="2.24342">
        <ele>2319.1</ele>
        <time>2019-01-07T06:57:51Z</time>
      </trkpt>
      <trkpt lat="42.44314" lon="2.24336">
        <ele>2318</ele>
        <time>2019-01-07T06:57:53Z</time>
      </trkpt>
      <trkpt lat="42.44322" lon="2.24328">
        <ele>2316</ele>
        <time>2019-01-07T06:57:55Z</time>
      </trkpt>
      <trkpt lat="42.44332" lon="2.2433">
        <ele>2314</ele>
        <time>2019-01-07T06:57:58Z</time>
      </trkpt>
      <trkpt lat="42.4434" lon="2.24336">
        <ele>2313.1</ele>
        <time>2019-01-07T06:58:01Z</time>
      </trkpt>
      <trkpt lat="42.44351" lon="2.24328">
        <ele>2313</ele>
        <time>2019-01-07T06:58:04Z</time>
      </trkpt>
      <trkpt lat="42.44359" lon="2.24321">
        <ele>2313.1</ele>
        <time>2019-01-07T06:58:06Z</time>
      </trkpt>
      <trkpt lat="42.4436" lon="2.24309">
        <ele>2313.1</ele>
        <time>2019-01-07T06:58:09Z</time>
      </trkpt>
      <trkpt lat="42.44369" lon="2.24306">
        <ele>2311</ele>
        <time>2019-01-07T06:58:11Z</time>
      </trkpt>
      <trkpt lat="42.44377" lon="2.24301">
        <ele>2309</ele>
        <time>2019-01-07T06:58:14Z</time>
      </trkpt>
      <trkpt lat="42.44387" lon="2.24299">
        <ele>2307.1</ele>
        <time>2019-01-07T06:58:16Z</time>
      </trkpt>
      <trkpt lat="42.44397" lon="2.24292">
        <ele>2308.1</ele>
        <time>2019-01-07T06:58:19Z</time>
      </trkpt>
      <trkpt lat="42.44406" lon="2.24288">
        <ele>2308.1</ele>
        <time>2019-01-07T06:58:22Z</time>
      </trkpt>
      <trkpt lat="42.44414" lon="2.24281">
        <ele>2306</ele>
        <time>2019-01-07T06:58:24Z</time>
      </trkpt>
      <trkpt lat="42.44423" lon="2.2428">
        <ele>2304</ele>
        <time>2019-01-07T06:58:27Z</time>
      </trkpt>
      <trkpt lat="42.44432" lon="2.24275">
        <ele>2303</ele>
        <time>2019-01-07T06:58:29Z</time>
      </trkpt>
      <trkpt lat="42.44441" lon="2.24272">
        <ele>2303</ele>
        <time>2019-01-07T06:58:32Z</time>
      </trkpt>
      <trkpt lat="42.4445" lon="2.24273">
        <ele>2301</ele>
        <time>2019-01-07T06:58:34Z</time>
      </trkpt>
      <trkpt lat="42.44459" lon="2.24272">
        <ele>2300.1</ele>
        <time>2019-01-07T06:58:37Z</time>
      </trkpt>
      <trkpt lat="42.44469" lon="2.24271">
        <ele>2299</ele>
        <time>2019-01-07T06:58:40Z</time>
      </trkpt>
      <trkpt lat="42.44478" lon="2.24264">
        <ele>2298</ele>
        <time>2019-01-07T06:58:42Z</time>
      </trkpt>
      <trkpt lat="42.44483" lon="2.2425">
        <ele>2296</ele>
        <time>2019-01-07T06:58:45Z</time>
      </trkpt>
      <trkpt lat="42.44489" lon="2.24241">
        <ele>2296</ele>
        <time>2019-01-07T06:58:48Z</time>
      </trkpt>
      <trkpt lat="42.44492" lon="2.24229">
        <ele>2295.1</ele>
        <time>2019-01-07T06:58:50Z</time>
      </trkpt>
      <trkpt lat="42.44501" lon="2.24221">
        <ele>2292.1</ele>
        <time>2019-01-07T06:58:53Z</time>
      </trkpt>
      <trkpt lat="42.44503" lon="2.24209">
        <ele>2290</ele>
        <time>2019-01-07T06:58:55Z</time>
      </trkpt>
      <trkpt lat="42.44509" lon="2.24199">
        <ele>2288</ele>
        <time>2019-01-07T06:58:58Z</time>
      </trkpt>
      <trkpt lat="42.44514" lon="2.24188">
        <ele>2286</ele>
        <time>2019-01-07T06:59:01Z</time>
      </trkpt>
      <trkpt lat="42.44517" lon="2.24176">
        <ele>2283.1</ele>
        <time>2019-01-07T06:59:03Z</time>
      </trkpt>
      <trkpt lat="42.44527" lon="2.24174">
        <ele>2279</ele>
        <time>2019-01-07T06:59:06Z</time>
      </trkpt>
      <trkpt lat="42.44532" lon="2.24163">
        <ele>2277.1</ele>
        <time>2019-01-07T06:59:08Z</time>
      </trkpt>
      <trkpt lat="42.4454" lon="2.24154">
        <ele>2276.1</ele>
        <time>2019-01-07T06:59:11Z</time>
      </trkpt>
      <trkpt lat="42.44546" lon="2.24145">
        <ele>2275</ele>
        <time>2019-01-07T06:59:13Z</time>
      </trkpt>
      <trkpt lat="42.44554" lon="2.24137">
        <ele>2272</ele>
        <time>2019-01-07T06:59:16Z</time>
      </trkpt>
      <trkpt lat="42.44561" lon="2.24128">
        <ele>2272.1</ele>
        <time>2019-01-07T06:59:19Z</time>
      </trkpt>
      <trkpt lat="42.44569" lon="2.24123">
        <ele>2270</ele>
        <time>2019-01-07T06:59:21Z</time>
      </trkpt>
      <trkpt lat="42.44577" lon="2.24111">
        <ele>2268.1</ele>
        <time>2019-01-07T06:59:24Z</time>
      </trkpt>
      <trkpt lat="42.44583" lon="2.24099">
        <ele>2268</ele>
        <time>2019-01-07T06:59:27Z</time>
      </trkpt>
      <trkpt lat="42.44588" lon="2.24089">
        <ele>2269</ele>
        <time>2019-01-07T06:59:29Z</time>
      </trkpt>
      <trkpt lat="42.44597" lon="2.24083">
        <ele>2268</ele>
        <time>2019-01-07T06:59:32Z</time>
      </trkpt>
      <trkpt lat="42.44608" lon="2.2408">
        <ele>2265.1</ele>
        <time>2019-01-07T06:59:35Z</time>
      </trkpt>
      <trkpt lat="42.44618" lon="2.24077">
        <ele>2261.1</ele>
        <time>2019-01-07T06:59:38Z</time>
      </trkpt>
      <trkpt lat="42.44629" lon="2.24078">
        <ele>2256</ele>
        <time>2019-01-07T06:59:41Z</time>
      </trkpt>
      <trkpt lat="42.44638" lon="2.24082">
        <ele>2251</ele>
        <time>2019-01-07T06:59:43Z</time>
      </trkpt>
      <trkpt lat="42.44642" lon="2.24094">
        <ele>2250.1</ele>
        <time>2019-01-07T06:59:46Z</time>
      </trkpt>
      <trkpt lat="42.44652" lon="2.24091">
        <ele>2248</ele>
        <time>2019-01-07T06:59:49Z</time>
      </trkpt>
      <trkpt lat="42.44661" lon="2.24087">
        <ele>2245</ele>
        <time>2019-01-07T06:59:51Z</time>
      </trkpt>
      <trkpt lat="42.44673" lon="2.24088">
        <ele>2244.1</ele>
        <time>2019-01-07T06:59:54Z</time>
      </trkpt>
      <trkpt lat="42.44684" lon="2.24085">
        <ele>2244</ele>
        <time>2019-01-07T06:59:57Z</time>
      </trkpt>
      <trkpt lat="42.44688" lon="2.24074">
        <ele>2245</ele>
        <time>2019-01-07T07:00:00Z</time>
      </trkpt>
      <trkpt lat="42.44696" lon="2.24063">
        <ele>2244</ele>
        <time>2019-01-07T07:00:03Z</time>
      </trkpt>
      <trkpt lat="42.44705" lon="2.24059">
        <ele>2241.1</ele>
        <time>2019-01-07T07:00:05Z</time>
      </trkpt>
      <trkpt lat="42.44714" lon="2.24053">
        <ele>2240</ele>
        <time>2019-01-07T07:00:08Z</time>
      </trkpt>
      <trkpt lat="42.44723" lon="2.2405">
        <ele>2238</ele>
        <time>2019-01-07T07:00:10Z</time>
      </trkpt>
      <trkpt lat="42.44732" lon="2.24057">
        <ele>2235.1</ele>
        <time>2019-01-07T07:00:13Z</time>
      </trkpt>
      <trkpt lat="42.44742" lon="2.24054">
        <ele>2233.1</ele>
        <time>2019-01-07T07:00:16Z</time>
      </trkpt>
      <trkpt lat="42.44751" lon="2.24049">
        <ele>2232.1</ele>
        <time>2019-01-07T07:00:18Z</time>
      </trkpt>
      <trkpt lat="42.4476" lon="2.24046">
        <ele>2232.1</ele>
        <time>2019-01-07T07:00:21Z</time>
      </trkpt>
      <trkpt lat="42.44768" lon="2.24039">
        <ele>2232.1</ele>
        <time>2019-01-07T07:00:23Z</time>
      </trkpt>
      <trkpt lat="42.44777" lon="2.24034">
        <ele>2231.1</ele>
        <time>2019-01-07T07:00:26Z</time>
      </trkpt>
      <trkpt lat="42.44786" lon="2.24028">
        <ele>2227</ele>
        <time>2019-01-07T07:00:29Z</time>
      </trkpt>
      <trkpt lat="42.44793" lon="2.24017">
        <ele>2226</ele>
        <time>2019-01-07T07:00:32Z</time>
      </trkpt>
      <trkpt lat="42.44803" lon="2.24014">
        <ele>2222</ele>
        <time>2019-01-07T07:00:34Z</time>
      </trkpt>
      <trkpt lat="42.4481" lon="2.24004">
        <ele>2221</ele>
        <time>2019-01-07T07:00:37Z</time>
      </trkpt>
      <trkpt lat="42.44819" lon="2.24003">
        <ele>2217.1</ele>
        <time>2019-01-07T07:00:40Z</time>
      </trkpt>
      <trkpt lat="42.44829" lon="2.24">
        <ele>2213</ele>
        <time>2019-01-07T07:00:42Z</time>
      </trkpt>
      <trkpt lat="42.44838" lon="2.23995">
        <ele>2211</ele>
        <time>2019-01-07T07:00:45Z</time>
      </trkpt>
      <trkpt lat="42.44844" lon="2.23985">
        <ele>2211.1</ele>
        <time>2019-01-07T07:00:47Z</time>
      </trkpt>
      <trkpt lat="42.4485" lon="2.23972">
        <ele>2209</ele>
        <time>2019-01-07T07:00:50Z</time>
      </trkpt>
      <trkpt lat="42.44858" lon="2.23966">
        <ele>2205</ele>
        <time>2019-01-07T07:00:53Z</time>
      </trkpt>
      <trkpt lat="42.44861" lon="2.23953">
        <ele>2203.1</ele>
        <time>2019-01-07T07:00:55Z</time>
      </trkpt>
      <trkpt lat="42.44866" lon="2.23938">
        <ele>2202.1</ele>
        <time>2019-01-07T07:00:59Z</time>
      </trkpt>
      <trkpt lat="42.44876" lon="2.23936">
        <ele>2199</ele>
        <time>2019-01-07T07:01:01Z</time>
      </trkpt>
      <trkpt lat="42.44885" lon="2.23929">
        <ele>2198</ele>
        <time>2019-01-07T07:01:04Z</time>
      </trkpt>
      <trkpt lat="42.44892" lon="2.23938">
        <ele>2197</ele>
        <time>2019-01-07T07:01:07Z</time>
      </trkpt>
      <trkpt lat="42.449" lon="2.23932">
        <ele>2197</ele>
        <time>2019-01-07T07:01:09Z</time>
      </trkpt>
      <trkpt lat="42.4491" lon="2.23924">
        <ele>2197.1</ele>
        <time>2019-01-07T07:01:12Z</time>
      </trkpt>
      <trkpt lat="42.44921" lon="2.23921">
        <ele>2196.1</ele>
        <time>2019-01-07T07:01:15Z</time>
      </trkpt>
      <trkpt lat="42.44929" lon="2.23916">
        <ele>2193</ele>
        <time>2019-01-07T07:01:17Z</time>
      </trkpt>
      <trkpt lat="42.44938" lon="2.23911">
        <ele>2190</ele>
        <time>2019-01-07T07:01:20Z</time>
      </trkpt>
      <trkpt lat="42.44948" lon="2.23912">
        <ele>2189</ele>
        <time>2019-01-07T07:01:23Z</time>
      </trkpt>
      <trkpt lat="42.44957" lon="2.23914">
        <ele>2189.1</ele>
        <time>2019-01-07T07:01:25Z</time>
      </trkpt>
      <trkpt lat="42.44965" lon="2.23908">
        <ele>2187.1</ele>
        <time>2019-01-07T07:01:28Z</time>
      </trkpt>
      <trkpt lat="42.44973" lon="2.23902">
        <ele>2186</ele>
        <time>2019-01-07T07:01:30Z</time>
      </trkpt>
      <trkpt lat="42.44982" lon="2.23897">
        <ele>2186.1</ele>
        <time>2019-01-07T07:01:33Z</time>
      </trkpt>
      <trkpt lat="42.44991" lon="2.23893">
        <ele>2183</ele>
        <time>2019-01-07T07:01:35Z</time>
      </trkpt>
      <trkpt lat="42.45" lon="2.23892">
        <ele>2183</ele>
        <time>2019-01-07T07:01:38Z</time>
      </trkpt>
      <trkpt lat="42.45006" lon="2.23881">
        <ele>2180.1</ele>
        <time>2019-01-07T07:01:40Z</time>
      </trkpt>
      <trkpt lat="42.45017" lon="2.23882">
        <ele>2180</ele>
        <time>2019-01-07T07:01:43Z</time>
      </trkpt>
      <trkpt lat="42.45019" lon="2.2387">
        <ele>2175</ele>
        <time>2019-01-07T07:01:45Z</time>
      </trkpt>
      <trkpt lat="42.45026" lon="2.23862">
        <ele>2170.1</ele>
        <time>2019-01-07T07:01:48Z</time>
      </trkpt>
      <trkpt lat="42.45034" lon="2.23854">
        <ele>2169</ele>
        <time>2019-01-07T07:01:50Z</time>
      </trkpt>
      <trkpt lat="42.45043" lon="2.23857">
        <ele>2168.1</ele>
        <time>2019-01-07T07:01:53Z</time>
      </trkpt>
      <trkpt lat="42.45053" lon="2.23853">
        <ele>2163</ele>
        <time>2019-01-07T07:01:56Z</time>
      </trkpt>
      <trkpt lat="42.45056" lon="2.2384">
        <ele>2159.1</ele>
        <time>2019-01-07T07:01:58Z</time>
      </trkpt>
      <trkpt lat="42.45067" lon="2.23843">
        <ele>2157.1</ele>
        <time>2019-01-07T07:02:01Z</time>
      </trkpt>
      <trkpt lat="42.45076" lon="2.23836">
        <ele>2154.1</ele>
        <time>2019-01-07T07:02:04Z</time>
      </trkpt>
      <trkpt lat="42.45086" lon="2.23843">
        <ele>2153</ele>
        <time>2019-01-07T07:02:07Z</time>
      </trkpt>
      <trkpt lat="42.45095" lon="2.23839">
        <ele>2151</ele>
        <time>2019-01-07T07:02:09Z</time>
      </trkpt>
      <trkpt lat="42.45101" lon="2.23829">
        <ele>2148</ele>
        <time>2019-01-07T07:02:12Z</time>
      </trkpt>
      <trkpt lat="42.45111" lon="2.23831">
        <ele>2148</ele>
        <time>2019-01-07T07:02:14Z</time>
      </trkpt>
      <trkpt lat="42.45112" lon="2.23819">
        <ele>2146.1</ele>
        <time>2019-01-07T07:02:17Z</time>
      </trkpt>
      <trkpt lat="42.45119" lon="2.23827">
        <ele>2147.1</ele>
        <time>2019-01-07T07:02:19Z</time>
      </trkpt>
      <trkpt lat="42.4513" lon="2.23831">
        <ele>2148</ele>
        <time>2019-01-07T07:02:23Z</time>
      </trkpt>
      <trkpt lat="42.45139" lon="2.23829">
        <ele>2145</ele>
        <time>2019-01-07T07:02:25Z</time>
      </trkpt>
      <trkpt lat="42.4514" lon="2.23817">
        <ele>2139.1</ele>
        <time>2019-01-07T07:02:27Z</time>
      </trkpt>
      <trkpt lat="42.45148" lon="2.23807">
        <ele>2135.1</ele>
        <time>2019-01-07T07:02:30Z</time>
      </trkpt>
      <trkpt lat="42.45154" lon="2.23797">
        <ele>2134.1</ele>
        <time>2019-01-07T07:02:33Z</time>
      </trkpt>
      <trkpt lat="42.45163" lon="2.2379">
        <ele>2132.1</ele>
        <time>2019-01-07T07:02:36Z</time>
      </trkpt>
      <trkpt lat="42.45175" lon="2.2379">
        <ele>2130</ele>
        <time>2019-01-07T07:02:39Z</time>
      </trkpt>
      <trkpt lat="42.45174" lon="2.23775">
        <ele>2128</ele>
        <time>2019-01-07T07:02:42Z</time>
      </trkpt>
      <trkpt lat="42.45184" lon="2.23765">
        <ele>2126.1</ele>
        <time>2019-01-07T07:02:45Z</time>
      </trkpt>
      <trkpt lat="42.45191" lon="2.23757">
        <ele>2124</ele>
        <time>2019-01-07T07:02:48Z</time>
      </trkpt>
      <trkpt lat="42.45198" lon="2.23749">
        <ele>2121</ele>
        <time>2019-01-07T07:02:50Z</time>
      </trkpt>
      <trkpt lat="42.45206" lon="2.23739">
        <ele>2119.1</ele>
        <time>2019-01-07T07:02:53Z</time>
      </trkpt>
      <trkpt lat="42.45216" lon="2.2374">
        <ele>2116.1</ele>
        <time>2019-01-07T07:02:56Z</time>
      </trkpt>
      <trkpt lat="42.45225" lon="2.23737">
        <ele>2115</ele>
        <time>2019-01-07T07:02:58Z</time>
      </trkpt>
      <trkpt lat="42.45233" lon="2.23731">
        <ele>2113.1</ele>
        <time>2019-01-07T07:03:01Z</time>
      </trkpt>
      <trkpt lat="42.45243" lon="2.23732">
        <ele>2112.1</ele>
        <time>2019-01-07T07:03:03Z</time>
      </trkpt>
      <trkpt lat="42.45252" lon="2.23729">
        <ele>2109</ele>
        <time>2019-01-07T07:03:06Z</time>
      </trkpt>
      <trkpt lat="42.4526" lon="2.23721">
        <ele>2108</ele>
        <time>2019-01-07T07:03:08Z</time>
      </trkpt>
      <trkpt lat="42.45269" lon="2.23725">
        <ele>2109</ele>
        <time>2019-01-07T07:03:11Z</time>
      </trkpt>
      <trkpt lat="42.45273" lon="2.23712">
        <ele>2106</ele>
        <time>2019-01-07T07:03:13Z</time>
      </trkpt>
      <trkpt lat="42.4528" lon="2.23702">
        <ele>2105</ele>
        <time>2019-01-07T07:03:16Z</time>
      </trkpt>
      <trkpt lat="42.4529" lon="2.23713">
        <ele>2105.1</ele>
        <time>2019-01-07T07:03:19Z</time>
      </trkpt>
      <trkpt lat="42.45291" lon="2.23701">
        <ele>2102.1</ele>
        <time>2019-01-07T07:03:22Z</time>
      </trkpt>
      <trkpt lat="42.4529" lon="2.23687">
        <ele>2100.1</ele>
        <time>2019-01-07T07:03:25Z</time>
      </trkpt>
      <trkpt lat="42.45294" lon="2.23675">
        <ele>2098.1</ele>
        <time>2019-01-07T07:03:27Z</time>
      </trkpt>
      <trkpt lat="42.45295" lon="2.23659">
        <ele>2097</ele>
        <time>2019-01-07T07:03:30Z</time>
      </trkpt>
      <trkpt lat="42.45302" lon="2.2365">
        <ele>2095.1</ele>
        <time>2019-01-07T07:03:33Z</time>
      </trkpt>
      <trkpt lat="42.45307" lon="2.23639">
        <ele>2094.1</ele>
        <time>2019-01-07T07:03:35Z</time>
      </trkpt>
      <trkpt lat="42.45318" lon="2.23634">
        <ele>2093.1</ele>
        <time>2019-01-07T07:03:38Z</time>
      </trkpt>
      <trkpt lat="42.45326" lon="2.23624">
        <ele>2092.1</ele>
        <time>2019-01-07T07:03:41Z</time>
      </trkpt>
      <trkpt lat="42.45334" lon="2.23619">
        <ele>2089</ele>
        <time>2019-01-07T07:03:44Z</time>
      </trkpt>
      <trkpt lat="42.45336" lon="2.23605">
        <ele>2088</ele>
        <time>2019-01-07T07:03:46Z</time>
      </trkpt>
      <trkpt lat="42.45342" lon="2.23594">
        <ele>2088</ele>
        <time>2019-01-07T07:03:49Z</time>
      </trkpt>
      <trkpt lat="42.45352" lon="2.23599">
        <ele>2088.1</ele>
        <time>2019-01-07T07:03:52Z</time>
      </trkpt>
      <trkpt lat="42.4536" lon="2.23588">
        <ele>2088</ele>
        <time>2019-01-07T07:03:55Z</time>
      </trkpt>
      <trkpt lat="42.4537" lon="2.23582">
        <ele>2085.1</ele>
        <time>2019-01-07T07:03:58Z</time>
      </trkpt>
      <trkpt lat="42.45373" lon="2.2357">
        <ele>2084</ele>
        <time>2019-01-07T07:04:01Z</time>
      </trkpt>
      <trkpt lat="42.45383" lon="2.23567">
        <ele>2082</ele>
        <time>2019-01-07T07:04:03Z</time>
      </trkpt>
      <trkpt lat="42.45392" lon="2.23567">
        <ele>2080.1</ele>
        <time>2019-01-07T07:04:06Z</time>
      </trkpt>
      <trkpt lat="42.454" lon="2.23558">
        <ele>2078</ele>
        <time>2019-01-07T07:04:09Z</time>
      </trkpt>
      <trkpt lat="42.45401" lon="2.23545">
        <ele>2078.1</ele>
        <time>2019-01-07T07:04:11Z</time>
      </trkpt>
      <trkpt lat="42.454" lon="2.23533">
        <ele>2078</ele>
        <time>2019-01-07T07:04:14Z</time>
      </trkpt>
      <trkpt lat="42.45409" lon="2.23531">
        <ele>2076</ele>
        <time>2019-01-07T07:04:16Z</time>
      </trkpt>
      <trkpt lat="42.45419" lon="2.23529">
        <ele>2073</ele>
        <time>2019-01-07T07:04:19Z</time>
      </trkpt>
      <trkpt lat="42.45426" lon="2.2352">
        <ele>2071</ele>
        <time>2019-01-07T07:04:21Z</time>
      </trkpt>
      <trkpt lat="42.45433" lon="2.23509">
        <ele>2070</ele>
        <time>2019-01-07T07:04:24Z</time>
      </trkpt>
      <trkpt lat="42.4544" lon="2.23499">
        <ele>2068</ele>
        <time>2019-01-07T07:04:27Z</time>
      </trkpt>
      <trkpt lat="42.45442" lon="2.23486">
        <ele>2064.1</ele>
        <time>2019-01-07T07:04:30Z</time>
      </trkpt>
      <trkpt lat="42.45451" lon="2.23481">
        <ele>2061.1</ele>
        <time>2019-01-07T07:04:32Z</time>
      </trkpt>
      <trkpt lat="42.45457" lon="2.23472">
        <ele>2057</ele>
        <time>2019-01-07T07:04:35Z</time>
      </trkpt>
      <trkpt lat="42.45464" lon="2.23462">
        <ele>2053.1</ele>
        <time>2019-01-07T07:04:37Z</time>
      </trkpt>
      <trkpt lat="42.4547" lon="2.23453">
        <ele>2049</ele>
        <time>2019-01-07T07:04:40Z</time>
      </trkpt>
      <trkpt lat="42.45475" lon="2.23441">
        <ele>2045.1</ele>
        <time>2019-01-07T07:04:42Z</time>
      </trkpt>
      <trkpt lat="42.45483" lon="2.23436">
        <ele>2044.1</ele>
        <time>2019-01-07T07:04:45Z</time>
      </trkpt>
      <trkpt lat="42.45479" lon="2.23424">
        <ele>2045</ele>
        <time>2019-01-07T07:04:47Z</time>
      </trkpt>
      <trkpt lat="42.45484" lon="2.23414">
        <ele>2043</ele>
        <time>2019-01-07T07:04:50Z</time>
      </trkpt>
      <trkpt lat="42.45492" lon="2.23406">
        <ele>2039.1</ele>
        <time>2019-01-07T07:04:53Z</time>
      </trkpt>
      <trkpt lat="42.45502" lon="2.23409">
        <ele>2038</ele>
        <time>2019-01-07T07:04:55Z</time>
      </trkpt>
      <trkpt lat="42.45507" lon="2.23398">
        <ele>2034.1</ele>
        <time>2019-01-07T07:04:58Z</time>
      </trkpt>
      <trkpt lat="42.45515" lon="2.23391">
        <ele>2030</ele>
        <time>2019-01-07T07:05:00Z</time>
      </trkpt>
      <trkpt lat="42.45523" lon="2.23384">
        <ele>2028.1</ele>
        <time>2019-01-07T07:05:03Z</time>
      </trkpt>
      <trkpt lat="42.45532" lon="2.23382">
        <ele>2026.1</ele>
        <time>2019-01-07T07:05:05Z</time>
      </trkpt>
      <trkpt lat="42.45542" lon="2.23378">
        <ele>2025.1</ele>
        <time>2019-01-07T07:05:08Z</time>
      </trkpt>
      <trkpt lat="42.45552" lon="2.23376">
        <ele>2024.1</ele>
        <time>2019-01-07T07:05:11Z</time>
      </trkpt>
      <trkpt lat="42.45562" lon="2.23374">
        <ele>2021</ele>
        <time>2019-01-07T07:05:13Z</time>
      </trkpt>
      <trkpt lat="42.45571" lon="2.23374">
        <ele>2019.1</ele>
        <time>2019-01-07T07:05:16Z</time>
      </trkpt>
      <trkpt lat="42.4558" lon="2.2338">
        <ele>2018</ele>
        <time>2019-01-07T07:05:19Z</time>
      </trkpt>
      <trkpt lat="42.45589" lon="2.23377">
        <ele>2016</ele>
        <time>2019-01-07T07:05:21Z</time>
      </trkpt>
      <trkpt lat="42.45599" lon="2.23375">
        <ele>2014.1</ele>
        <time>2019-01-07T07:05:24Z</time>
      </trkpt>
      <trkpt lat="42.45605" lon="2.23365">
        <ele>2013.1</ele>
        <time>2019-01-07T07:05:27Z</time>
      </trkpt>
      <trkpt lat="42.45607" lon="2.23353">
        <ele>2011.1</ele>
        <time>2019-01-07T07:05:29Z</time>
      </trkpt>
      <trkpt lat="42.45613" lon="2.23341">
        <ele>2008</ele>
        <time>2019-01-07T07:05:32Z</time>
      </trkpt>
      <trkpt lat="42.45612" lon="2.23328">
        <ele>2006</ele>
        <time>2019-01-07T07:05:34Z</time>
      </trkpt>
      <trkpt lat="42.45613" lon="2.23315">
        <ele>2006.1</ele>
        <time>2019-01-07T07:05:37Z</time>
      </trkpt>
      <trkpt lat="42.45621" lon="2.23309">
        <ele>2004</ele>
        <time>2019-01-07T07:05:39Z</time>
      </trkpt>
      <trkpt lat="42.45628" lon="2.23301">
        <ele>2002.1</ele>
        <time>2019-01-07T07:05:42Z</time>
      </trkpt>
      <trkpt lat="42.45633" lon="2.2329">
        <ele>2001</ele>
        <time>2019-01-07T07:05:44Z</time>
      </trkpt>
      <trkpt lat="42.45637" lon="2.23279">
        <ele>1999.1</ele>
        <time>2019-01-07T07:05:47Z</time>
      </trkpt>
      <trkpt lat="42.45641" lon="2.23268">
        <ele>1999</ele>
        <time>2019-01-07T07:05:49Z</time>
      </trkpt>
      <trkpt lat="42.45648" lon="2.23259">
        <ele>1997</ele>
        <time>2019-01-07T07:05:52Z</time>
      </trkpt>
      <trkpt lat="42.45655" lon="2.2325">
        <ele>1995</ele>
        <time>2019-01-07T07:05:54Z</time>
      </trkpt>
      <trkpt lat="42.45663" lon="2.23242">
        <ele>1995.1</ele>
        <time>2019-01-07T07:05:57Z</time>
      </trkpt>
      <trkpt lat="42.45671" lon="2.23236">
        <ele>1995.1</ele>
        <time>2019-01-07T07:06:00Z</time>
      </trkpt>
      <trkpt lat="42.45679" lon="2.23228">
        <ele>1995</ele>
        <time>2019-01-07T07:06:02Z</time>
      </trkpt>
      <trkpt lat="42.45686" lon="2.2322">
        <ele>1994.1</ele>
        <time>2019-01-07T07:06:05Z</time>
      </trkpt>
      <trkpt lat="42.45696" lon="2.23219">
        <ele>1992</ele>
        <time>2019-01-07T07:06:07Z</time>
      </trkpt>
      <trkpt lat="42.45706" lon="2.23219">
        <ele>1992.1</ele>
        <time>2019-01-07T07:06:10Z</time>
      </trkpt>
      <trkpt lat="42.45714" lon="2.23208">
        <ele>1992</ele>
        <time>2019-01-07T07:06:13Z</time>
      </trkpt>
      <trkpt lat="42.45723" lon="2.23213">
        <ele>1992</ele>
        <time>2019-01-07T07:06:16Z</time>
      </trkpt>
      <trkpt lat="42.45732" lon="2.23213">
        <ele>1990</ele>
        <time>2019-01-07T07:06:18Z</time>
      </trkpt>
      <trkpt lat="42.45741" lon="2.23212">
        <ele>1988</ele>
        <time>2019-01-07T07:06:20Z</time>
      </trkpt>
      <trkpt lat="42.45748" lon="2.23201">
        <ele>1986</ele>
        <time>2019-01-07T07:06:23Z</time>
      </trkpt>
      <trkpt lat="42.45757" lon="2.23198">
        <ele>1984.1</ele>
        <time>2019-01-07T07:06:26Z</time>
      </trkpt>
      <trkpt lat="42.45757" lon="2.23183">
        <ele>1984.1</ele>
        <time>2019-01-07T07:06:29Z</time>
      </trkpt>
      <trkpt lat="42.45758" lon="2.2317">
        <ele>1983.1</ele>
        <time>2019-01-07T07:06:31Z</time>
      </trkpt>
      <trkpt lat="42.45767" lon="2.23164">
        <ele>1981</ele>
        <time>2019-01-07T07:06:34Z</time>
      </trkpt>
      <trkpt lat="42.45776" lon="2.23157">
        <ele>1979</ele>
        <time>2019-01-07T07:06:36Z</time>
      </trkpt>
      <trkpt lat="42.45786" lon="2.23159">
        <ele>1977.1</ele>
        <time>2019-01-07T07:06:39Z</time>
      </trkpt>
      <trkpt lat="42.45795" lon="2.23157">
        <ele>1974.1</ele>
        <time>2019-01-07T07:06:42Z</time>
      </trkpt>
      <trkpt lat="42.45805" lon="2.23159">
        <ele>1971.1</ele>
        <time>2019-01-07T07:06:44Z</time>
      </trkpt>
      <trkpt lat="42.45814" lon="2.23154">
        <ele>1969</ele>
        <time>2019-01-07T07:06:47Z</time>
      </trkpt>
      <trkpt lat="42.45824" lon="2.23146">
        <ele>1968.1</ele>
        <time>2019-01-07T07:06:50Z</time>
      </trkpt>
      <trkpt lat="42.45817" lon="2.23158">
        <ele>1969</ele>
        <time>2019-01-07T07:06:53Z</time>
      </trkpt>
      <trkpt lat="42.45824" lon="2.23151">
        <ele>1966</ele>
        <time>2019-01-07T07:06:56Z</time>
      </trkpt>
      <trkpt lat="42.45837" lon="2.2315">
        <ele>1964</ele>
        <time>2019-01-07T07:06:59Z</time>
      </trkpt>
      <trkpt lat="42.45843" lon="2.23139">
        <ele>1963.1</ele>
        <time>2019-01-07T07:07:02Z</time>
      </trkpt>
      <trkpt lat="42.45848" lon="2.23128">
        <ele>1962.1</ele>
        <time>2019-01-07T07:07:04Z</time>
      </trkpt>
      <trkpt lat="42.45853" lon="2.23117">
        <ele>1960</ele>
        <time>2019-01-07T07:07:07Z</time>
      </trkpt>
      <trkpt lat="42.45863" lon="2.23114">
        <ele>1958.1</ele>
        <time>2019-01-07T07:07:09Z</time>
      </trkpt>
      <trkpt lat="42.45872" lon="2.23113">
        <ele>1958</ele>
        <time>2019-01-07T07:07:12Z</time>
      </trkpt>
      <trkpt lat="42.45885" lon="2.23112">
        <ele>1958</ele>
        <time>2019-01-07T07:07:15Z</time>
      </trkpt>
      <trkpt lat="42.45894" lon="2.23108">
        <ele>1957.1</ele>
        <time>2019-01-07T07:07:18Z</time>
      </trkpt>
      <trkpt lat="42.45895" lon="2.23094">
        <ele>1957.1</ele>
        <time>2019-01-07T07:07:21Z</time>
      </trkpt>
      <trkpt lat="42.45901" lon="2.23084">
        <ele>1955.1</ele>
        <time>2019-01-07T07:07:23Z</time>
      </trkpt>
      <trkpt lat="42.45904" lon="2.23069">
        <ele>1957</ele>
        <time>2019-01-07T07:07:26Z</time>
      </trkpt>
      <trkpt lat="42.4591" lon="2.23057">
        <ele>1958</ele>
        <time>2019-01-07T07:07:29Z</time>
      </trkpt>
      <trkpt lat="42.4592" lon="2.23052">
        <ele>1957</ele>
        <time>2019-01-07T07:07:32Z</time>
      </trkpt>
      <trkpt lat="42.45931" lon="2.23046">
        <ele>1955.1</ele>
        <time>2019-01-07T07:07:35Z</time>
      </trkpt>
      <trkpt lat="42.45941" lon="2.23043">
        <ele>1952</ele>
        <time>2019-01-07T07:07:38Z</time>
      </trkpt>
      <trkpt lat="42.4595" lon="2.23039">
        <ele>1951</ele>
        <time>2019-01-07T07:07:40Z</time>
      </trkpt>
      <trkpt lat="42.45958" lon="2.23032">
        <ele>1951</ele>
        <time>2019-01-07T07:07:43Z</time>
      </trkpt>
      <trkpt lat="42.45967" lon="2.23026">
        <ele>1951</ele>
        <time>2019-01-07T07:07:46Z</time>
      </trkpt>
      <trkpt lat="42.45975" lon="2.23017">
        <ele>1951.1</ele>
        <time>2019-01-07T07:07:48Z</time>
      </trkpt>
      <trkpt lat="42.45984" lon="2.23013">
        <ele>1948.1</ele>
        <time>2019-01-07T07:07:51Z</time>
      </trkpt>
      <trkpt lat="42.45995" lon="2.23008">
        <ele>1946</ele>
        <time>2019-01-07T07:07:54Z</time>
      </trkpt>
      <trkpt lat="42.46002" lon="2.22998">
        <ele>1945</ele>
        <time>2019-01-07T07:07:57Z</time>
      </trkpt>
      <trkpt lat="42.4601" lon="2.22991">
        <ele>1945</ele>
        <time>2019-01-07T07:07:59Z</time>
      </trkpt>
      <trkpt lat="42.46019" lon="2.22985">
        <ele>1945</ele>
        <time>2019-01-07T07:08:02Z</time>
      </trkpt>
      <trkpt lat="42.46029" lon="2.2298">
        <ele>1945.1</ele>
        <time>2019-01-07T07:08:05Z</time>
      </trkpt>
      <trkpt lat="42.46039" lon="2.22977">
        <ele>1945</ele>
        <time>2019-01-07T07:08:07Z</time>
      </trkpt>
      <trkpt lat="42.46048" lon="2.22972">
        <ele>1945.1</ele>
        <time>2019-01-07T07:08:10Z</time>
      </trkpt>
      <trkpt lat="42.46057" lon="2.2297">
        <ele>1944</ele>
        <time>2019-01-07T07:08:12Z</time>
      </trkpt>
      <trkpt lat="42.46065" lon="2.22975">
        <ele>1942</ele>
        <time>2019-01-07T07:08:15Z</time>
      </trkpt>
      <trkpt lat="42.46076" lon="2.22974">
        <ele>1940</ele>
        <time>2019-01-07T07:08:18Z</time>
      </trkpt>
      <trkpt lat="42.46085" lon="2.22974">
        <ele>1939</ele>
        <time>2019-01-07T07:08:20Z</time>
      </trkpt>
      <trkpt lat="42.46095" lon="2.22976">
        <ele>1938</ele>
        <time>2019-01-07T07:08:23Z</time>
      </trkpt>
      <trkpt lat="42.46105" lon="2.22976">
        <ele>1938.1</ele>
        <time>2019-01-07T07:08:26Z</time>
      </trkpt>
      <trkpt lat="42.46114" lon="2.2298">
        <ele>1937</ele>
        <time>2019-01-07T07:08:28Z</time>
      </trkpt>
      <trkpt lat="42.46125" lon="2.22972">
        <ele>1934</ele>
        <time>2019-01-07T07:08:31Z</time>
      </trkpt>
      <trkpt lat="42.46131" lon="2.22963">
        <ele>1935</ele>
        <time>2019-01-07T07:08:34Z</time>
      </trkpt>
      <trkpt lat="42.4614" lon="2.22956">
        <ele>1935</ele>
        <time>2019-01-07T07:08:37Z</time>
      </trkpt>
      <trkpt lat="42.46148" lon="2.22947">
        <ele>1935.1</ele>
        <time>2019-01-07T07:08:39Z</time>
      </trkpt>
      <trkpt lat="42.46153" lon="2.22937">
        <ele>1934.1</ele>
        <time>2019-01-07T07:08:42Z</time>
      </trkpt>
      <trkpt lat="42.46163" lon="2.22931">
        <ele>1932</ele>
        <time>2019-01-07T07:08:45Z</time>
      </trkpt>
      <trkpt lat="42.46172" lon="2.22923">
        <ele>1928</ele>
        <time>2019-01-07T07:08:47Z</time>
      </trkpt>
      <trkpt lat="42.46181" lon="2.22923">
        <ele>1927.1</ele>
        <time>2019-01-07T07:08:50Z</time>
      </trkpt>
      <trkpt lat="42.46189" lon="2.22915">
        <ele>1925.1</ele>
        <time>2019-01-07T07:08:53Z</time>
      </trkpt>
      <trkpt lat="42.46199" lon="2.22908">
        <ele>1923.1</ele>
        <time>2019-01-07T07:08:56Z</time>
      </trkpt>
      <trkpt lat="42.46207" lon="2.22901">
        <ele>1919.1</ele>
        <time>2019-01-07T07:08:58Z</time>
      </trkpt>
      <trkpt lat="42.46217" lon="2.22899">
        <ele>1914</ele>
        <time>2019-01-07T07:09:01Z</time>
      </trkpt>
      <trkpt lat="42.46224" lon="2.2289">
        <ele>1910</ele>
        <time>2019-01-07T07:09:03Z</time>
      </trkpt>
      <trkpt lat="42.46233" lon="2.22884">
        <ele>1907</ele>
        <time>2019-01-07T07:09:06Z</time>
      </trkpt>
      <trkpt lat="42.46242" lon="2.2288">
        <ele>1905.1</ele>
        <time>2019-01-07T07:09:09Z</time>
      </trkpt>
      <trkpt lat="42.46249" lon="2.22872">
        <ele>1904</ele>
        <time>2019-01-07T07:09:11Z</time>
      </trkpt>
      <trkpt lat="42.46248" lon="2.2286">
        <ele>1903</ele>
        <time>2019-01-07T07:09:14Z</time>
      </trkpt>
      <trkpt lat="42.46247" lon="2.22845">
        <ele>1901.1</ele>
        <time>2019-01-07T07:09:16Z</time>
      </trkpt>
      <trkpt lat="42.46244" lon="2.22834">
        <ele>1900</ele>
        <time>2019-01-07T07:09:19Z</time>
      </trkpt>
      <trkpt lat="42.46242" lon="2.22821">
        <ele>1900</ele>
        <time>2019-01-07T07:09:21Z</time>
      </trkpt>
      <trkpt lat="42.46245" lon="2.22809">
        <ele>1898</ele>
        <time>2019-01-07T07:09:24Z</time>
      </trkpt>
      <trkpt lat="42.46245" lon="2.22796">
        <ele>1898</ele>
        <time>2019-01-07T07:09:27Z</time>
      </trkpt>
      <trkpt lat="42.4624" lon="2.22784">
        <ele>1899</ele>
        <time>2019-01-07T07:09:29Z</time>
      </trkpt>
      <trkpt lat="42.46235" lon="2.22774">
        <ele>1900.1</ele>
        <time>2019-01-07T07:09:32Z</time>
      </trkpt>
      <trkpt lat="42.46231" lon="2.22762">
        <ele>1898</ele>
        <time>2019-01-07T07:09:34Z</time>
      </trkpt>
      <trkpt lat="42.46227" lon="2.2275">
        <ele>1896</ele>
        <time>2019-01-07T07:09:37Z</time>
      </trkpt>
      <trkpt lat="42.46231" lon="2.22738">
        <ele>1895.1</ele>
        <time>2019-01-07T07:09:39Z</time>
      </trkpt>
      <trkpt lat="42.46234" lon="2.22726">
        <ele>1894.1</ele>
        <time>2019-01-07T07:09:42Z</time>
      </trkpt>
      <trkpt lat="42.46236" lon="2.22713">
        <ele>1891</ele>
        <time>2019-01-07T07:09:45Z</time>
      </trkpt>
      <trkpt lat="42.46242" lon="2.22703">
        <ele>1887</ele>
        <time>2019-01-07T07:09:47Z</time>
      </trkpt>
      <trkpt lat="42.46241" lon="2.22691">
        <ele>1885.1</ele>
        <time>2019-01-07T07:09:50Z</time>
      </trkpt>
      <trkpt lat="42.46244" lon="2.22679">
        <ele>1885</ele>
        <time>2019-01-07T07:09:52Z</time>
      </trkpt>
      <trkpt lat="42.46246" lon="2.22667">
        <ele>1884.1</ele>
        <time>2019-01-07T07:09:55Z</time>
      </trkpt>
      <trkpt lat="42.46253" lon="2.22658">
        <ele>1880.1</ele>
        <time>2019-01-07T07:09:57Z</time>
      </trkpt>
      <trkpt lat="42.4626" lon="2.22649">
        <ele>1877.1</ele>
        <time>2019-01-07T07:10:00Z</time>
      </trkpt>
      <trkpt lat="42.46262" lon="2.22637">
        <ele>1874.1</ele>
        <time>2019-01-07T07:10:02Z</time>
      </trkpt>
      <trkpt lat="42.46257" lon="2.22626">
        <ele>1874</ele>
        <time>2019-01-07T07:10:05Z</time>
      </trkpt>
      <trkpt lat="42.4626" lon="2.22611">
        <ele>1874</ele>
        <time>2019-01-07T07:10:08Z</time>
      </trkpt>
      <trkpt lat="42.46262" lon="2.22598">
        <ele>1870.1</ele>
        <time>2019-01-07T07:10:10Z</time>
      </trkpt>
      <trkpt lat="42.46264" lon="2.22585">
        <ele>1867</ele>
        <time>2019-01-07T07:10:13Z</time>
      </trkpt>
      <trkpt lat="42.46257" lon="2.22574">
        <ele>1867.1</ele>
        <time>2019-01-07T07:10:16Z</time>
      </trkpt>
      <trkpt lat="42.46262" lon="2.22563">
        <ele>1864</ele>
        <time>2019-01-07T07:10:18Z</time>
      </trkpt>
      <trkpt lat="42.46269" lon="2.22555">
        <ele>1860.1</ele>
        <time>2019-01-07T07:10:21Z</time>
      </trkpt>
      <trkpt lat="42.46272" lon="2.22543">
        <ele>1858</ele>
        <time>2019-01-07T07:10:23Z</time>
      </trkpt>
      <trkpt lat="42.46275" lon="2.22531">
        <ele>1857</ele>
        <time>2019-01-07T07:10:26Z</time>
      </trkpt>
      <trkpt lat="42.46273" lon="2.22517">
        <ele>1857</ele>
        <time>2019-01-07T07:10:28Z</time>
      </trkpt>
      <trkpt lat="42.46267" lon="2.22505">
        <ele>1858</ele>
        <time>2019-01-07T07:10:31Z</time>
      </trkpt>
      <trkpt lat="42.46264" lon="2.22494">
        <ele>1859.1</ele>
        <time>2019-01-07T07:10:33Z</time>
      </trkpt>
      <trkpt lat="42.46263" lon="2.2248">
        <ele>1860</ele>
        <time>2019-01-07T07:10:36Z</time>
      </trkpt>
      <trkpt lat="42.4627" lon="2.2247">
        <ele>1857</ele>
        <time>2019-01-07T07:10:39Z</time>
      </trkpt>
      <trkpt lat="42.4628" lon="2.22464">
        <ele>1853</ele>
        <time>2019-01-07T07:10:42Z</time>
      </trkpt>
      <trkpt lat="42.46289" lon="2.22463">
        <ele>1849</ele>
        <time>2019-01-07T07:10:44Z</time>
      </trkpt>
      <trkpt lat="42.46297" lon="2.22458">
        <ele>1846</ele>
        <time>2019-01-07T07:10:47Z</time>
      </trkpt>
      <trkpt lat="42.463" lon="2.22446">
        <ele>1844</ele>
        <time>2019-01-07T07:10:49Z</time>
      </trkpt>
      <trkpt lat="42.46305" lon="2.22434">
        <ele>1843</ele>
        <time>2019-01-07T07:10:52Z</time>
      </trkpt>
      <trkpt lat="42.46303" lon="2.22417">
        <ele>1841.1</ele>
        <time>2019-01-07T07:10:55Z</time>
      </trkpt>
      <trkpt lat="42.4631" lon="2.22408">
        <ele>1839</ele>
        <time>2019-01-07T07:10:57Z</time>
      </trkpt>
      <trkpt lat="42.46306" lon="2.22396">
        <ele>1836.1</ele>
        <time>2019-01-07T07:11:00Z</time>
      </trkpt>
      <trkpt lat="42.46313" lon="2.22388">
        <ele>1836</ele>
        <time>2019-01-07T07:11:02Z</time>
      </trkpt>
      <trkpt lat="42.46321" lon="2.22381">
        <ele>1836</ele>
        <time>2019-01-07T07:11:05Z</time>
      </trkpt>
      <trkpt lat="42.46328" lon="2.22371">
        <ele>1836</ele>
        <time>2019-01-07T07:11:08Z</time>
      </trkpt>
      <trkpt lat="42.46337" lon="2.22364">
        <ele>1836</ele>
        <time>2019-01-07T07:11:10Z</time>
      </trkpt>
      <trkpt lat="42.46341" lon="2.22351">
        <ele>1836</ele>
        <time>2019-01-07T07:11:13Z</time>
      </trkpt>
      <trkpt lat="42.4635" lon="2.22345">
        <ele>1836</ele>
        <time>2019-01-07T07:11:16Z</time>
      </trkpt>
      <trkpt lat="42.4636" lon="2.22342">
        <ele>1836.1</ele>
        <time>2019-01-07T07:11:19Z</time>
      </trkpt>
      <trkpt lat="42.46372" lon="2.22344">
        <ele>1836.1</ele>
        <time>2019-01-07T07:11:22Z</time>
      </trkpt>
      <trkpt lat="42.4638" lon="2.22335">
        <ele>1836</ele>
        <time>2019-01-07T07:11:24Z</time>
      </trkpt>
      <trkpt lat="42.46389" lon="2.22325">
        <ele>1836.1</ele>
        <time>2019-01-07T07:11:28Z</time>
      </trkpt>
      <trkpt lat="42.46397" lon="2.22318">
        <ele>1836.1</ele>
        <time>2019-01-07T07:11:30Z</time>
      </trkpt>
      <trkpt lat="42.46408" lon="2.22319">
        <ele>1836.1</ele>
        <time>2019-01-07T07:11:33Z</time>
      </trkpt>
      <trkpt lat="42.46415" lon="2.2233">
        <ele>1836.1</ele>
        <time>2019-01-07T07:11:36Z</time>
      </trkpt>
      <trkpt lat="42.46423" lon="2.22335">
        <ele>1836</ele>
        <time>2019-01-07T07:11:38Z</time>
      </trkpt>
      <trkpt lat="42.46428" lon="2.22345">
        <ele>1836</ele>
        <time>2019-01-07T07:11:41Z</time>
      </trkpt>
      <trkpt lat="42.46429" lon="2.22358">
        <ele>1836</ele>
        <time>2019-01-07T07:11:43Z</time>
      </trkpt>
      <trkpt lat="42.46429" lon="2.22373">
        <ele>1832.1</ele>
        <time>2019-01-07T07:11:46Z</time>
      </trkpt>
      <trkpt lat="42.46432" lon="2.22385">
        <ele>1831</ele>
        <time>2019-01-07T07:11:49Z</time>
      </trkpt>
      <trkpt lat="42.46431" lon="2.22372">
        <ele>1833</ele>
        <time>2019-01-07T07:11:51Z</time>
      </trkpt>
      <trkpt lat="42.46435" lon="2.22384">
        <ele>1830</ele>
        <time>2019-01-07T07:11:54Z</time>
      </trkpt>
      <trkpt lat="42.4644" lon="2.22396">
        <ele>1829</ele>
        <time>2019-01-07T07:11:56Z</time>
      </trkpt>
      <trkpt lat="42.46441" lon="2.22409">
        <ele>1829</ele>
        <time>2019-01-07T07:11:59Z</time>
      </trkpt>
      <trkpt lat="42.4644" lon="2.22394">
        <ele>1829.1</ele>
        <time>2019-01-07T07:12:02Z</time>
      </trkpt>
      <trkpt lat="42.46452" lon="2.22395">
        <ele>1829.1</ele>
        <time>2019-01-07T07:12:05Z</time>
      </trkpt>
      <trkpt lat="42.46443" lon="2.22388">
        <ele>1830.1</ele>
        <time>2019-01-07T07:12:08Z</time>
      </trkpt>
      <trkpt lat="42.46438" lon="2.22378">
        <ele>1831</ele>
        <time>2019-01-07T07:12:10Z</time>
      </trkpt>
      <trkpt lat="42.46439" lon="2.22392">
        <ele>1832</ele>
        <time>2019-01-07T07:12:13Z</time>
      </trkpt>
      <trkpt lat="42.46431" lon="2.22377">
        <ele>1834</ele>
        <time>2019-01-07T07:12:17Z</time>
      </trkpt>
      <trkpt lat="42.46441" lon="2.2239">
        <ele>1831.1</ele>
        <time>2019-01-07T07:12:20Z</time>
      </trkpt>
      <trkpt lat="42.46442" lon="2.22371">
        <ele>1831.1</ele>
        <time>2019-01-07T07:12:24Z</time>
      </trkpt>
      <trkpt lat="42.46426" lon="2.22378">
        <ele>1831.1</ele>
        <time>2019-01-07T07:12:29Z</time>
      </trkpt>
      <trkpt lat="42.46437" lon="2.22392">
        <ele>1831.1</ele>
        <time>2019-01-07T07:12:33Z</time>
      </trkpt>
      <trkpt lat="42.46426" lon="2.22375">
        <ele>1832.1</ele>
        <time>2019-01-07T07:12:37Z</time>
      </trkpt>
      <trkpt lat="42.46435" lon="2.22379">
        <ele>1833.1</ele>
        <time>2019-01-07T07:12:40Z</time>
      </trkpt>
      <trkpt lat="42.46439" lon="2.22365">
        <ele>1832</ele>
        <time>2019-01-07T07:12:43Z</time>
      </trkpt>
      <trkpt lat="42.46429" lon="2.22374">
        <ele>1831</ele>
        <time>2019-01-07T07:12:46Z</time>
      </trkpt>
      <trkpt lat="42.46424" lon="2.22392">
        <ele>1829.1</ele>
        <time>2019-01-07T07:12:50Z</time>
      </trkpt>
      <trkpt lat="42.46433" lon="2.22396">
        <ele>1829.1</ele>
        <time>2019-01-07T07:12:52Z</time>
      </trkpt>
      <trkpt lat="42.46434" lon="2.22382">
        <ele>1830</ele>
        <time>2019-01-07T07:12:55Z</time>
      </trkpt>
      <trkpt lat="42.46438" lon="2.22393">
        <ele>1829</ele>
        <time>2019-01-07T07:12:57Z</time>
      </trkpt>
      <trkpt lat="42.46439" lon="2.22407">
        <ele>1829.1</ele>
        <time>2019-01-07T07:13:00Z</time>
      </trkpt>
      <trkpt lat="42.46439" lon="2.22393">
        <ele>1829.1</ele>
        <time>2019-01-07T07:13:03Z</time>
      </trkpt>
      <trkpt lat="42.46434" lon="2.22381">
        <ele>1830</ele>
        <time>2019-01-07T07:13:05Z</time>
      </trkpt>
      <trkpt lat="42.46439" lon="2.22392">
        <ele>1829</ele>
        <time>2019-01-07T07:13:08Z</time>
      </trkpt>
      <trkpt lat="42.46431" lon="2.22382">
        <ele>1832</ele>
        <time>2019-01-07T07:13:11Z</time>
      </trkpt>
      <trkpt lat="42.4643" lon="2.22365">
        <ele>1835</ele>
        <time>2019-01-07T07:13:14Z</time>
      </trkpt>
      <trkpt lat="42.46429" lon="2.22352">
        <ele>1836.1</ele>
        <time>2019-01-07T07:13:17Z</time>
      </trkpt>
      <trkpt lat="42.46428" lon="2.2234">
        <ele>1836</ele>
        <time>2019-01-07T07:13:19Z</time>
      </trkpt>
      <trkpt lat="42.46429" lon="2.22326">
        <ele>1836</ele>
        <time>2019-01-07T07:13:22Z</time>
      </trkpt>
      <trkpt lat="42.46423" lon="2.22314">
        <ele>1836.1</ele>
        <time>2019-01-07T07:13:25Z</time>
      </trkpt>
      <trkpt lat="42.46414" lon="2.22307">
        <ele>1836</ele>
        <time>2019-01-07T07:13:28Z</time>
      </trkpt>
      <trkpt lat="42.46407" lon="2.22292">
        <ele>1837</ele>
        <time>2019-01-07T07:13:31Z</time>
      </trkpt>
      <trkpt lat="42.464" lon="2.22283">
        <ele>1839.1</ele>
        <time>2019-01-07T07:13:34Z</time>
      </trkpt>
      <trkpt lat="42.46394" lon="2.22274">
        <ele>1842</ele>
        <time>2019-01-07T07:13:36Z</time>
      </trkpt>
      <trkpt lat="42.46388" lon="2.22264">
        <ele>1842.1</ele>
        <time>2019-01-07T07:13:38Z</time>
      </trkpt>
      <trkpt lat="42.46383" lon="2.22253">
        <ele>1842</ele>
        <time>2019-01-07T07:13:41Z</time>
      </trkpt>
      <trkpt lat="42.46381" lon="2.2224">
        <ele>1842.1</ele>
        <time>2019-01-07T07:13:44Z</time>
      </trkpt>
      <trkpt lat="42.46377" lon="2.22228">
        <ele>1842</ele>
        <time>2019-01-07T07:13:46Z</time>
      </trkpt>
      <trkpt lat="42.46371" lon="2.22215">
        <ele>1844</ele>
        <time>2019-01-07T07:13:49Z</time>
      </trkpt>
      <trkpt lat="42.4636" lon="2.22214">
        <ele>1845</ele>
        <time>2019-01-07T07:13:52Z</time>
      </trkpt>
      <trkpt lat="42.46352" lon="2.22207">
        <ele>1846.1</ele>
        <time>2019-01-07T07:13:55Z</time>
      </trkpt>
      <trkpt lat="42.46348" lon="2.22195">
        <ele>1849.1</ele>
        <time>2019-01-07T07:13:57Z</time>
      </trkpt>
      <trkpt lat="42.46341" lon="2.22186">
        <ele>1849</ele>
        <time>2019-01-07T07:14:00Z</time>
      </trkpt>
      <trkpt lat="42.46331" lon="2.22177">
        <ele>1850</ele>
        <time>2019-01-07T07:14:03Z</time>
      </trkpt>
      <trkpt lat="42.46323" lon="2.2217">
        <ele>1852</ele>
        <time>2019-01-07T07:14:06Z</time>
      </trkpt>
      <trkpt lat="42.46316" lon="2.22161">
        <ele>1854.1</ele>
        <time>2019-01-07T07:14:08Z</time>
      </trkpt>
      <trkpt lat="42.46306" lon="2.2216">
        <ele>1856</ele>
        <time>2019-01-07T07:14:11Z</time>
      </trkpt>
      <trkpt lat="42.46294" lon="2.2216">
        <ele>1856.1</ele>
        <time>2019-01-07T07:14:14Z</time>
      </trkpt>
      <trkpt lat="42.46285" lon="2.22157">
        <ele>1856</ele>
        <time>2019-01-07T07:14:16Z</time>
      </trkpt>
      <trkpt lat="42.46275" lon="2.22155">
        <ele>1856</ele>
        <time>2019-01-07T07:14:19Z</time>
      </trkpt>
      <trkpt lat="42.46265" lon="2.22152">
        <ele>1856</ele>
        <time>2019-01-07T07:14:22Z</time>
      </trkpt>
      <trkpt lat="42.46255" lon="2.2215">
        <ele>1856.1</ele>
        <time>2019-01-07T07:14:25Z</time>
      </trkpt>
      <trkpt lat="42.46247" lon="2.2214">
        <ele>1856.1</ele>
        <time>2019-01-07T07:14:28Z</time>
      </trkpt>
      <trkpt lat="42.46238" lon="2.22135">
        <ele>1856.1</ele>
        <time>2019-01-07T07:14:30Z</time>
      </trkpt>
      <trkpt lat="42.46228" lon="2.2214">
        <ele>1857</ele>
        <time>2019-01-07T07:14:33Z</time>
      </trkpt>
      <trkpt lat="42.46223" lon="2.22129">
        <ele>1859</ele>
        <time>2019-01-07T07:14:36Z</time>
      </trkpt>
      <trkpt lat="42.46214" lon="2.22123">
        <ele>1860.1</ele>
        <time>2019-01-07T07:14:38Z</time>
      </trkpt>
      <trkpt lat="42.46204" lon="2.22117">
        <ele>1862.1</ele>
        <time>2019-01-07T07:14:41Z</time>
      </trkpt>
      <trkpt lat="42.46195" lon="2.22118">
        <ele>1861</ele>
        <time>2019-01-07T07:14:44Z</time>
      </trkpt>
      <trkpt lat="42.46188" lon="2.22107">
        <ele>1862</ele>
        <time>2019-01-07T07:14:46Z</time>
      </trkpt>
      <trkpt lat="42.4618" lon="2.22099">
        <ele>1863</ele>
        <time>2019-01-07T07:14:49Z</time>
      </trkpt>
      <trkpt lat="42.46175" lon="2.22082">
        <ele>1866.1</ele>
        <time>2019-01-07T07:14:53Z</time>
      </trkpt>
      <trkpt lat="42.46167" lon="2.22073">
        <ele>1867.1</ele>
        <time>2019-01-07T07:14:55Z</time>
      </trkpt>
      <trkpt lat="42.46161" lon="2.22063">
        <ele>1867.1</ele>
        <time>2019-01-07T07:14:58Z</time>
      </trkpt>
      <trkpt lat="42.46156" lon="2.22052">
        <ele>1868.1</ele>
        <time>2019-01-07T07:15:01Z</time>
      </trkpt>
      <trkpt lat="42.4615" lon="2.22042">
        <ele>1869.1</ele>
        <time>2019-01-07T07:15:03Z</time>
      </trkpt>
      <trkpt lat="42.46146" lon="2.22028">
        <ele>1871</ele>
        <time>2019-01-07T07:15:06Z</time>
      </trkpt>
      <trkpt lat="42.46142" lon="2.22013">
        <ele>1870</ele>
        <time>2019-01-07T07:15:09Z</time>
      </trkpt>
      <trkpt lat="42.46136" lon="2.22002">
        <ele>1870</ele>
        <time>2019-01-07T07:15:12Z</time>
      </trkpt>
      <trkpt lat="42.46133" lon="2.2199">
        <ele>1872.1</ele>
        <time>2019-01-07T07:15:14Z</time>
      </trkpt>
      <trkpt lat="42.46131" lon="2.21977">
        <ele>1874.1</ele>
        <time>2019-01-07T07:15:17Z</time>
      </trkpt>
      <trkpt lat="42.4613" lon="2.21963">
        <ele>1874.1</ele>
        <time>2019-01-07T07:15:20Z</time>
      </trkpt>
      <trkpt lat="42.46129" lon="2.21949">
        <ele>1874.1</ele>
        <time>2019-01-07T07:15:22Z</time>
      </trkpt>
      <trkpt lat="42.46126" lon="2.21938">
        <ele>1876.1</ele>
        <time>2019-01-07T07:15:25Z</time>
      </trkpt>
      <trkpt lat="42.46129" lon="2.21923">
        <ele>1880</ele>
        <time>2019-01-07T07:15:28Z</time>
      </trkpt>
      <trkpt lat="42.46126" lon="2.2191">
        <ele>1882.1</ele>
        <time>2019-01-07T07:15:31Z</time>
      </trkpt>
      <trkpt lat="42.46121" lon="2.21898">
        <ele>1882</ele>
        <time>2019-01-07T07:15:33Z</time>
      </trkpt>
      <trkpt lat="42.46111" lon="2.219">
        <ele>1881</ele>
        <time>2019-01-07T07:15:36Z</time>
      </trkpt>
      <trkpt lat="42.46102" lon="2.21896">
        <ele>1882</ele>
        <time>2019-01-07T07:15:38Z</time>
      </trkpt>
      <trkpt lat="42.46092" lon="2.21897">
        <ele>1881</ele>
        <time>2019-01-07T07:15:41Z</time>
      </trkpt>
      <trkpt lat="42.46082" lon="2.21895">
        <ele>1882.1</ele>
        <time>2019-01-07T07:15:44Z</time>
      </trkpt>
      <trkpt lat="42.46073" lon="2.21891">
        <ele>1884.1</ele>
        <time>2019-01-07T07:15:46Z</time>
      </trkpt>
      <trkpt lat="42.46065" lon="2.21883">
        <ele>1885.1</ele>
        <time>2019-01-07T07:15:49Z</time>
      </trkpt>
      <trkpt lat="42.4606" lon="2.21872">
        <ele>1888.1</ele>
        <time>2019-01-07T07:15:52Z</time>
      </trkpt>
      <trkpt lat="42.46057" lon="2.2186">
        <ele>1891.1</ele>
        <time>2019-01-07T07:15:54Z</time>
      </trkpt>
      <trkpt lat="42.46056" lon="2.21847">
        <ele>1894</ele>
        <time>2019-01-07T07:15:57Z</time>
      </trkpt>
      <trkpt lat="42.46056" lon="2.21835">
        <ele>1897</ele>
        <time>2019-01-07T07:15:59Z</time>
      </trkpt>
      <trkpt lat="42.46052" lon="2.21824">
        <ele>1899</ele>
        <time>2019-01-07T07:16:02Z</time>
      </trkpt>
      <trkpt lat="42.46056" lon="2.21813">
        <ele>1902.1</ele>
        <time>2019-01-07T07:16:04Z</time>
      </trkpt>
      <trkpt lat="42.46049" lon="2.21805">
        <ele>1902.1</ele>
        <time>2019-01-07T07:16:07Z</time>
      </trkpt>
      <trkpt lat="42.46045" lon="2.21794">
        <ele>1905</ele>
        <time>2019-01-07T07:16:09Z</time>
      </trkpt>
      <trkpt lat="42.46044" lon="2.21781">
        <ele>1917</ele>
        <time>2019-01-07T07:16:12Z</time>
      </trkpt>
      <trkpt lat="42.46035" lon="2.21775">
        <ele>1917</ele>
        <time>2019-01-07T07:16:14Z</time>
      </trkpt>
      <trkpt lat="42.46027" lon="2.21768">
        <ele>1917.1</ele>
        <time>2019-01-07T07:16:17Z</time>
      </trkpt>
      <trkpt lat="42.46019" lon="2.21762">
        <ele>1917.1</ele>
        <time>2019-01-07T07:16:19Z</time>
      </trkpt>
      <trkpt lat="42.46012" lon="2.21751">
        <ele>1918</ele>
        <time>2019-01-07T07:16:22Z</time>
      </trkpt>
      <trkpt lat="42.46002" lon="2.21748">
        <ele>1918</ele>
        <time>2019-01-07T07:16:25Z</time>
      </trkpt>
      <trkpt lat="42.45993" lon="2.21752">
        <ele>1917</ele>
        <time>2019-01-07T07:16:27Z</time>
      </trkpt>
      <trkpt lat="42.45983" lon="2.21748">
        <ele>1918</ele>
        <time>2019-01-07T07:16:30Z</time>
      </trkpt>
      <trkpt lat="42.45974" lon="2.21746">
        <ele>1919.1</ele>
        <time>2019-01-07T07:16:32Z</time>
      </trkpt>
      <trkpt lat="42.45966" lon="2.21737">
        <ele>1921</ele>
        <time>2019-01-07T07:16:35Z</time>
      </trkpt>
      <trkpt lat="42.45955" lon="2.21733">
        <ele>1922</ele>
        <time>2019-01-07T07:16:38Z</time>
      </trkpt>
      <trkpt lat="42.45946" lon="2.21732">
        <ele>1922</ele>
        <time>2019-01-07T07:16:41Z</time>
      </trkpt>
      <trkpt lat="42.45936" lon="2.21728">
        <ele>1923</ele>
        <time>2019-01-07T07:16:43Z</time>
      </trkpt>
      <trkpt lat="42.45926" lon="2.21723">
        <ele>1924.1</ele>
        <time>2019-01-07T07:16:46Z</time>
      </trkpt>
      <trkpt lat="42.45918" lon="2.21717">
        <ele>1925</ele>
        <time>2019-01-07T07:16:49Z</time>
      </trkpt>
      <trkpt lat="42.45909" lon="2.21712">
        <ele>1927.1</ele>
        <time>2019-01-07T07:16:51Z</time>
      </trkpt>
      <trkpt lat="42.45904" lon="2.21702">
        <ele>1929</ele>
        <time>2019-01-07T07:16:54Z</time>
      </trkpt>
      <trkpt lat="42.45895" lon="2.21696">
        <ele>1931</ele>
        <time>2019-01-07T07:16:56Z</time>
      </trkpt>
      <trkpt lat="42.45889" lon="2.21687">
        <ele>1933.1</ele>
        <time>2019-01-07T07:16:59Z</time>
      </trkpt>
      <trkpt lat="42.45883" lon="2.21677">
        <ele>1936.1</ele>
        <time>2019-01-07T07:17:01Z</time>
      </trkpt>
      <trkpt lat="42.45872" lon="2.21672">
        <ele>1937.1</ele>
        <time>2019-01-07T07:17:04Z</time>
      </trkpt>
      <trkpt lat="42.45859" lon="2.21665">
        <ele>1938</ele>
        <time>2019-01-07T07:17:08Z</time>
      </trkpt>
      <trkpt lat="42.45857" lon="2.2165">
        <ele>1938</ele>
        <time>2019-01-07T07:17:11Z</time>
      </trkpt>
      <trkpt lat="42.45856" lon="2.21638">
        <ele>1939</ele>
        <time>2019-01-07T07:17:13Z</time>
      </trkpt>
      <trkpt lat="42.45854" lon="2.21623">
        <ele>1942</ele>
        <time>2019-01-07T07:17:16Z</time>
      </trkpt>
      <trkpt lat="42.45852" lon="2.2161">
        <ele>1945.1</ele>
        <time>2019-01-07T07:17:19Z</time>
      </trkpt>
      <trkpt lat="42.45843" lon="2.21605">
        <ele>1945.1</ele>
        <time>2019-01-07T07:17:21Z</time>
      </trkpt>
      <trkpt lat="42.45837" lon="2.21596">
        <ele>1945</ele>
        <time>2019-01-07T07:17:24Z</time>
      </trkpt>
      <trkpt lat="42.45829" lon="2.21587">
        <ele>1946.1</ele>
        <time>2019-01-07T07:17:26Z</time>
      </trkpt>
      <trkpt lat="42.45818" lon="2.21581">
        <ele>1949.1</ele>
        <time>2019-01-07T07:17:30Z</time>
      </trkpt>
      <trkpt lat="42.45818" lon="2.21568">
        <ele>1950</ele>
        <time>2019-01-07T07:17:32Z</time>
      </trkpt>
      <trkpt lat="42.45817" lon="2.21555">
        <ele>1952</ele>
        <time>2019-01-07T07:17:35Z</time>
      </trkpt>
      <trkpt lat="42.45812" lon="2.21544">
        <ele>1955</ele>
        <time>2019-01-07T07:17:37Z</time>
      </trkpt>
      <trkpt lat="42.45813" lon="2.21532">
        <ele>1957.1</ele>
        <time>2019-01-07T07:17:40Z</time>
      </trkpt>
      <trkpt lat="42.45808" lon="2.21521">
        <ele>1960.1</ele>
        <time>2019-01-07T07:17:42Z</time>
      </trkpt>
      <trkpt lat="42.45809" lon="2.21508">
        <ele>1962</ele>
        <time>2019-01-07T07:17:45Z</time>
      </trkpt>
      <trkpt lat="42.4581" lon="2.21495">
        <ele>1964</ele>
        <time>2019-01-07T07:17:47Z</time>
      </trkpt>
      <trkpt lat="42.45812" lon="2.21482">
        <ele>1965.1</ele>
        <time>2019-01-07T07:17:50Z</time>
      </trkpt>
      <trkpt lat="42.45809" lon="2.2147">
        <ele>1967.1</ele>
        <time>2019-01-07T07:17:53Z</time>
      </trkpt>
      <trkpt lat="42.45811" lon="2.21456">
        <ele>1970</ele>
        <time>2019-01-07T07:17:55Z</time>
      </trkpt>
      <trkpt lat="42.45816" lon="2.21443">
        <ele>1973</ele>
        <time>2019-01-07T07:17:58Z</time>
      </trkpt>
      <trkpt lat="42.45816" lon="2.21429">
        <ele>1978</ele>
        <time>2019-01-07T07:18:01Z</time>
      </trkpt>
      <trkpt lat="42.45808" lon="2.2142">
        <ele>1979.1</ele>
        <time>2019-01-07T07:18:04Z</time>
      </trkpt>
      <trkpt lat="42.45806" lon="2.21407">
        <ele>1982.1</ele>
        <time>2019-01-07T07:18:06Z</time>
      </trkpt>
      <trkpt lat="42.45798" lon="2.21398">
        <ele>1984.1</ele>
        <time>2019-01-07T07:18:09Z</time>
      </trkpt>
      <trkpt lat="42.4579" lon="2.21387">
        <ele>1987.1</ele>
        <time>2019-01-07T07:18:12Z</time>
      </trkpt>
      <trkpt lat="42.45791" lon="2.21372">
        <ele>1990.1</ele>
        <time>2019-01-07T07:18:15Z</time>
      </trkpt>
      <trkpt lat="42.45783" lon="2.21364">
        <ele>1992</ele>
        <time>2019-01-07T07:18:18Z</time>
      </trkpt>
      <trkpt lat="42.45779" lon="2.21352">
        <ele>1995</ele>
        <time>2019-01-07T07:18:20Z</time>
      </trkpt>
      <trkpt lat="42.45774" lon="2.21339">
        <ele>1998</ele>
        <time>2019-01-07T07:18:23Z</time>
      </trkpt>
      <trkpt lat="42.4577" lon="2.21328">
        <ele>2001.1</ele>
        <time>2019-01-07T07:18:26Z</time>
      </trkpt>
      <trkpt lat="42.45767" lon="2.21309">
        <ele>2006</ele>
        <time>2019-01-07T07:18:29Z</time>
      </trkpt>
      <trkpt lat="42.45766" lon="2.21297">
        <ele>2008.1</ele>
        <time>2019-01-07T07:18:32Z</time>
      </trkpt>
      <trkpt lat="42.4576" lon="2.21289">
        <ele>2010.1</ele>
        <time>2019-01-07T07:18:34Z</time>
      </trkpt>
      <trkpt lat="42.45752" lon="2.21281">
        <ele>2012.1</ele>
        <time>2019-01-07T07:18:37Z</time>
      </trkpt>
      <trkpt lat="42.45758" lon="2.2127">
        <ele>2016</ele>
        <time>2019-01-07T07:18:39Z</time>
      </trkpt>
      <trkpt lat="42.45749" lon="2.21273">
        <ele>2016</ele>
        <time>2019-01-07T07:18:42Z</time>
      </trkpt>
      <trkpt lat="42.4575" lon="2.2126">
        <ele>2023.1</ele>
        <time>2019-01-07T07:18:44Z</time>
      </trkpt>
      <trkpt lat="42.45749" lon="2.21248">
        <ele>2028.1</ele>
        <time>2019-01-07T07:18:47Z</time>
      </trkpt>
      <trkpt lat="42.45747" lon="2.21233">
        <ele>2031</ele>
        <time>2019-01-07T07:18:49Z</time>
      </trkpt>
      <trkpt lat="42.45746" lon="2.21221">
        <ele>2035</ele>
        <time>2019-01-07T07:18:52Z</time>
      </trkpt>
      <trkpt lat="42.45745" lon="2.21208">
        <ele>2038</ele>
        <time>2019-01-07T07:18:54Z</time>
      </trkpt>
      <trkpt lat="42.4575" lon="2.21195">
        <ele>2040</ele>
        <time>2019-01-07T07:18:57Z</time>
      </trkpt>
      <trkpt lat="42.45741" lon="2.21192">
        <ele>2043.1</ele>
        <time>2019-01-07T07:19:00Z</time>
      </trkpt>
      <trkpt lat="42.45731" lon="2.2119">
        <ele>2045.1</ele>
        <time>2019-01-07T07:19:02Z</time>
      </trkpt>
      <trkpt lat="42.45721" lon="2.21194">
        <ele>2047.1</ele>
        <time>2019-01-07T07:19:05Z</time>
      </trkpt>
      <trkpt lat="42.45713" lon="2.21189">
        <ele>2049</ele>
        <time>2019-01-07T07:19:07Z</time>
      </trkpt>
      <trkpt lat="42.45703" lon="2.21189">
        <ele>2052.1</ele>
        <time>2019-01-07T07:19:10Z</time>
      </trkpt>
      <trkpt lat="42.45694" lon="2.21185">
        <ele>2054.1</ele>
        <time>2019-01-07T07:19:13Z</time>
      </trkpt>
      <trkpt lat="42.45684" lon="2.21186">
        <ele>2054</ele>
        <time>2019-01-07T07:19:15Z</time>
      </trkpt>
      <trkpt lat="42.45675" lon="2.21185">
        <ele>2054.1</ele>
        <time>2019-01-07T07:19:18Z</time>
      </trkpt>
      <trkpt lat="42.45673" lon="2.21171">
        <ele>2054</ele>
        <time>2019-01-07T07:19:20Z</time>
      </trkpt>
      <trkpt lat="42.45678" lon="2.2116">
        <ele>2054</ele>
        <time>2019-01-07T07:19:23Z</time>
      </trkpt>
      <trkpt lat="42.45673" lon="2.21149">
        <ele>2054</ele>
        <time>2019-01-07T07:19:25Z</time>
      </trkpt>
      <trkpt lat="42.45664" lon="2.21144">
        <ele>2054.1</ele>
        <time>2019-01-07T07:19:28Z</time>
      </trkpt>
      <trkpt lat="42.45658" lon="2.21134">
        <ele>2055.1</ele>
        <time>2019-01-07T07:19:30Z</time>
      </trkpt>
      <trkpt lat="42.45649" lon="2.21126">
        <ele>2055.1</ele>
        <time>2019-01-07T07:19:33Z</time>
      </trkpt>
      <trkpt lat="42.45648" lon="2.2111">
        <ele>2056</ele>
        <time>2019-01-07T07:19:36Z</time>
      </trkpt>
      <trkpt lat="42.45646" lon="2.21098">
        <ele>2059.1</ele>
        <time>2019-01-07T07:19:39Z</time>
      </trkpt>
      <trkpt lat="42.45649" lon="2.21085">
        <ele>2063</ele>
        <time>2019-01-07T07:19:42Z</time>
      </trkpt>
      <trkpt lat="42.45647" lon="2.21071">
        <ele>2062</ele>
        <time>2019-01-07T07:19:44Z</time>
      </trkpt>
      <trkpt lat="42.45641" lon="2.21062">
        <ele>2061.1</ele>
        <time>2019-01-07T07:19:47Z</time>
      </trkpt>
      <trkpt lat="42.45639" lon="2.21048">
        <ele>2063</ele>
        <time>2019-01-07T07:19:49Z</time>
      </trkpt>
      <trkpt lat="42.45629" lon="2.21045">
        <ele>2060</ele>
        <time>2019-01-07T07:19:52Z</time>
      </trkpt>
      <trkpt lat="42.4562" lon="2.21051">
        <ele>2060</ele>
        <time>2019-01-07T07:19:55Z</time>
      </trkpt>
      <trkpt lat="42.45618" lon="2.21035">
        <ele>2060.1</ele>
        <time>2019-01-07T07:19:58Z</time>
      </trkpt>
      <trkpt lat="42.45608" lon="2.21031">
        <ele>2060</ele>
        <time>2019-01-07T07:20:00Z</time>
      </trkpt>
      <trkpt lat="42.45598" lon="2.21032">
        <ele>2060.1</ele>
        <time>2019-01-07T07:20:03Z</time>
      </trkpt>
      <trkpt lat="42.45593" lon="2.21021">
        <ele>2062.1</ele>
        <time>2019-01-07T07:20:06Z</time>
      </trkpt>
      <trkpt lat="42.45596" lon="2.21009">
        <ele>2065</ele>
        <time>2019-01-07T07:20:08Z</time>
      </trkpt>
      <trkpt lat="42.45587" lon="2.21012">
        <ele>2064.1</ele>
        <time>2019-01-07T07:20:11Z</time>
      </trkpt>
      <trkpt lat="42.45577" lon="2.21008">
        <ele>2064.1</ele>
        <time>2019-01-07T07:20:14Z</time>
      </trkpt>
      <trkpt lat="42.45573" lon="2.20995">
        <ele>2065.1</ele>
        <time>2019-01-07T07:20:16Z</time>
      </trkpt>
      <trkpt lat="42.4558" lon="2.20986">
        <ele>2067.1</ele>
        <time>2019-01-07T07:20:19Z</time>
      </trkpt>
      <trkpt lat="42.45586" lon="2.20975">
        <ele>2068.1</ele>
        <time>2019-01-07T07:20:21Z</time>
      </trkpt>
      <trkpt lat="42.45583" lon="2.20963">
        <ele>2070</ele>
        <time>2019-01-07T07:20:24Z</time>
      </trkpt>
      <trkpt lat="42.45582" lon="2.20949">
        <ele>2073</ele>
        <time>2019-01-07T07:20:27Z</time>
      </trkpt>
      <trkpt lat="42.45584" lon="2.20936">
        <ele>2075</ele>
        <time>2019-01-07T07:20:29Z</time>
      </trkpt>
      <trkpt lat="42.45586" lon="2.20921">
        <ele>2075</ele>
        <time>2019-01-07T07:20:32Z</time>
      </trkpt>
      <trkpt lat="42.45584" lon="2.20908">
        <ele>2074.1</ele>
        <time>2019-01-07T07:20:35Z</time>
      </trkpt>
      <trkpt lat="42.45582" lon="2.20895">
        <ele>2073.1</ele>
        <time>2019-01-07T07:20:38Z</time>
      </trkpt>
      <trkpt lat="42.45576" lon="2.20883">
        <ele>2073.1</ele>
        <time>2019-01-07T07:20:41Z</time>
      </trkpt>
      <trkpt lat="42.45571" lon="2.2087">
        <ele>2073</ele>
        <time>2019-01-07T07:20:43Z</time>
      </trkpt>
      <trkpt lat="42.45567" lon="2.20858">
        <ele>2075.1</ele>
        <time>2019-01-07T07:20:46Z</time>
      </trkpt>
      <trkpt lat="42.45563" lon="2.20846">
        <ele>2078.1</ele>
        <time>2019-01-07T07:20:49Z</time>
      </trkpt>
      <trkpt lat="42.45555" lon="2.20853">
        <ele>2076.1</ele>
        <time>2019-01-07T07:20:51Z</time>
      </trkpt>
      <trkpt lat="42.45546" lon="2.20856">
        <ele>2075.1</ele>
        <time>2019-01-07T07:20:54Z</time>
      </trkpt>
      <trkpt lat="42.45537" lon="2.20853">
        <ele>2077</ele>
        <time>2019-01-07T07:20:56Z</time>
      </trkpt>
      <trkpt lat="42.45533" lon="2.2084">
        <ele>2080</ele>
        <time>2019-01-07T07:20:59Z</time>
      </trkpt>
      <trkpt lat="42.45526" lon="2.20832">
        <ele>2081.1</ele>
        <time>2019-01-07T07:21:01Z</time>
      </trkpt>
      <trkpt lat="42.45517" lon="2.20824">
        <ele>2083</ele>
        <time>2019-01-07T07:21:04Z</time>
      </trkpt>
      <trkpt lat="42.45508" lon="2.20817">
        <ele>2085</ele>
        <time>2019-01-07T07:21:07Z</time>
      </trkpt>
      <trkpt lat="42.455" lon="2.20811">
        <ele>2087.1</ele>
        <time>2019-01-07T07:21:10Z</time>
      </trkpt>
      <trkpt lat="42.45493" lon="2.20801">
        <ele>2087.1</ele>
        <time>2019-01-07T07:21:12Z</time>
      </trkpt>
      <trkpt lat="42.4549" lon="2.20788">
        <ele>2089</ele>
        <time>2019-01-07T07:21:15Z</time>
      </trkpt>
      <trkpt lat="42.45484" lon="2.20776">
        <ele>2091</ele>
        <time>2019-01-07T07:21:18Z</time>
      </trkpt>
      <trkpt lat="42.45475" lon="2.20768">
        <ele>2091.1</ele>
        <time>2019-01-07T07:21:20Z</time>
      </trkpt>
      <trkpt lat="42.45468" lon="2.20757">
        <ele>2093.1</ele>
        <time>2019-01-07T07:21:23Z</time>
      </trkpt>
      <trkpt lat="42.45464" lon="2.20746">
        <ele>2095</ele>
        <time>2019-01-07T07:21:26Z</time>
      </trkpt>
      <trkpt lat="42.45461" lon="2.20734">
        <ele>2097</ele>
        <time>2019-01-07T07:21:28Z</time>
      </trkpt>
      <trkpt lat="42.45455" lon="2.2072">
        <ele>2097</ele>
        <time>2019-01-07T07:21:32Z</time>
      </trkpt>
      <trkpt lat="42.45449" lon="2.2071">
        <ele>2095.1</ele>
        <time>2019-01-07T07:21:34Z</time>
      </trkpt>
      <trkpt lat="42.45443" lon="2.20699">
        <ele>2094</ele>
        <time>2019-01-07T07:21:37Z</time>
      </trkpt>
      <trkpt lat="42.4544" lon="2.20687">
        <ele>2094</ele>
        <time>2019-01-07T07:21:39Z</time>
      </trkpt>
      <trkpt lat="42.45439" lon="2.20674">
        <ele>2098.1</ele>
        <time>2019-01-07T07:21:42Z</time>
      </trkpt>
      <trkpt lat="42.45435" lon="2.20662">
        <ele>2097.1</ele>
        <time>2019-01-07T07:21:44Z</time>
      </trkpt>
      <trkpt lat="42.45433" lon="2.20647">
        <ele>2095</ele>
        <time>2019-01-07T07:21:47Z</time>
      </trkpt>
      <trkpt lat="42.4543" lon="2.20633">
        <ele>2094.1</ele>
        <time>2019-01-07T07:21:50Z</time>
      </trkpt>
      <trkpt lat="42.45422" lon="2.20626">
        <ele>2093</ele>
        <time>2019-01-07T07:21:53Z</time>
      </trkpt>
      <trkpt lat="42.45412" lon="2.20624">
        <ele>2093.1</ele>
        <time>2019-01-07T07:21:56Z</time>
      </trkpt>
      <trkpt lat="42.45403" lon="2.20625">
        <ele>2094</ele>
        <time>2019-01-07T07:21:58Z</time>
      </trkpt>
      <trkpt lat="42.45394" lon="2.20624">
        <ele>2097</ele>
        <time>2019-01-07T07:22:01Z</time>
      </trkpt>
      <trkpt lat="42.45384" lon="2.20629">
        <ele>2097</ele>
        <time>2019-01-07T07:22:03Z</time>
      </trkpt>
      <trkpt lat="42.45375" lon="2.20629">
        <ele>2097</ele>
        <time>2019-01-07T07:22:06Z</time>
      </trkpt>
      <trkpt lat="42.45364" lon="2.20628">
        <ele>2097.1</ele>
        <time>2019-01-07T07:22:09Z</time>
      </trkpt>
      <trkpt lat="42.45356" lon="2.20633">
        <ele>2097.1</ele>
        <time>2019-01-07T07:22:11Z</time>
      </trkpt>
      <trkpt lat="42.45347" lon="2.20637">
        <ele>2099.1</ele>
        <time>2019-01-07T07:22:13Z</time>
      </trkpt>
      <trkpt lat="42.45338" lon="2.20631">
        <ele>2102</ele>
        <time>2019-01-07T07:22:16Z</time>
      </trkpt>
      <trkpt lat="42.45329" lon="2.20629">
        <ele>2104.1</ele>
        <time>2019-01-07T07:22:19Z</time>
      </trkpt>
      <trkpt lat="42.45322" lon="2.20637">
        <ele>2105</ele>
        <time>2019-01-07T07:22:21Z</time>
      </trkpt>
      <trkpt lat="42.45313" lon="2.20638">
        <ele>2107</ele>
        <time>2019-01-07T07:22:24Z</time>
      </trkpt>
      <trkpt lat="42.45304" lon="2.20634">
        <ele>2109</ele>
        <time>2019-01-07T07:22:26Z</time>
      </trkpt>
      <trkpt lat="42.45299" lon="2.20622">
        <ele>2110.1</ele>
        <time>2019-01-07T07:22:29Z</time>
      </trkpt>
      <trkpt lat="42.45301" lon="2.20609">
        <ele>2110</ele>
        <time>2019-01-07T07:22:31Z</time>
      </trkpt>
      <trkpt lat="42.45293" lon="2.20603">
        <ele>2113</ele>
        <time>2019-01-07T07:22:34Z</time>
      </trkpt>
      <trkpt lat="42.45292" lon="2.2059">
        <ele>2114.1</ele>
        <time>2019-01-07T07:22:37Z</time>
      </trkpt>
      <trkpt lat="42.45289" lon="2.20576">
        <ele>2115.1</ele>
        <time>2019-01-07T07:22:39Z</time>
      </trkpt>
      <trkpt lat="42.45286" lon="2.20562">
        <ele>2115</ele>
        <time>2019-01-07T07:22:42Z</time>
      </trkpt>
      <trkpt lat="42.45288" lon="2.20548">
        <ele>2116</ele>
        <time>2019-01-07T07:22:45Z</time>
      </trkpt>
      <trkpt lat="42.45289" lon="2.20535">
        <ele>2117</ele>
        <time>2019-01-07T07:22:48Z</time>
      </trkpt>
      <trkpt lat="42.45282" lon="2.20522">
        <ele>2117</ele>
        <time>2019-01-07T07:22:51Z</time>
      </trkpt>
      <trkpt lat="42.45286" lon="2.2051">
        <ele>2117</ele>
        <time>2019-01-07T07:22:53Z</time>
      </trkpt>
      <trkpt lat="42.45283" lon="2.20497">
        <ele>2118.1</ele>
        <time>2019-01-07T07:22:56Z</time>
      </trkpt>
      <trkpt lat="42.4528" lon="2.20483">
        <ele>2120.1</ele>
        <time>2019-01-07T07:22:59Z</time>
      </trkpt>
      <trkpt lat="42.45273" lon="2.20473">
        <ele>2120</ele>
        <time>2019-01-07T07:23:02Z</time>
      </trkpt>
      <trkpt lat="42.45266" lon="2.20464">
        <ele>2119</ele>
        <time>2019-01-07T07:23:04Z</time>
      </trkpt>
      <trkpt lat="42.45256" lon="2.20456">
        <ele>2116</ele>
        <time>2019-01-07T07:23:07Z</time>
      </trkpt>
      <trkpt lat="42.45247" lon="2.20452">
        <ele>2116</ele>
        <time>2019-01-07T07:23:10Z</time>
      </trkpt>
      <trkpt lat="42.45239" lon="2.20445">
        <ele>2118.1</ele>
        <time>2019-01-07T07:23:13Z</time>
      </trkpt>
      <trkpt lat="42.45228" lon="2.20446">
        <ele>2121</ele>
        <time>2019-01-07T07:23:15Z</time>
      </trkpt>
      <trkpt lat="42.45217" lon="2.20445">
        <ele>2122.1</ele>
        <time>2019-01-07T07:23:18Z</time>
      </trkpt>
      <trkpt lat="42.45209" lon="2.20439">
        <ele>2122</ele>
        <time>2019-01-07T07:23:21Z</time>
      </trkpt>
      <trkpt lat="42.45197" lon="2.20437">
        <ele>2122</ele>
        <time>2019-01-07T07:23:24Z</time>
      </trkpt>
      <trkpt lat="42.45184" lon="2.2043">
        <ele>2122.1</ele>
        <time>2019-01-07T07:23:28Z</time>
      </trkpt>
      <trkpt lat="42.45177" lon="2.20422">
        <ele>2122.1</ele>
        <time>2019-01-07T07:23:30Z</time>
      </trkpt>
      <trkpt lat="42.45166" lon="2.20416">
        <ele>2122</ele>
        <time>2019-01-07T07:23:33Z</time>
      </trkpt>
      <trkpt lat="42.45158" lon="2.2041">
        <ele>2124.1</ele>
        <time>2019-01-07T07:23:36Z</time>
      </trkpt>
      <trkpt lat="42.45149" lon="2.20403">
        <ele>2125</ele>
        <time>2019-01-07T07:23:39Z</time>
      </trkpt>
      <trkpt lat="42.45141" lon="2.20397">
        <ele>2127</ele>
        <time>2019-01-07T07:23:41Z</time>
      </trkpt>
      <trkpt lat="42.45134" lon="2.20382">
        <ele>2131</ele>
        <time>2019-01-07T07:23:44Z</time>
      </trkpt>
      <trkpt lat="42.45125" lon="2.20373">
        <ele>2133.1</ele>
        <time>2019-01-07T07:23:48Z</time>
      </trkpt>
      <trkpt lat="42.45115" lon="2.20365">
        <ele>2135</ele>
        <time>2019-01-07T07:23:51Z</time>
      </trkpt>
      <trkpt lat="42.45107" lon="2.20357">
        <ele>2135.1</ele>
        <time>2019-01-07T07:23:53Z</time>
      </trkpt>
      <trkpt lat="42.45097" lon="2.20352">
        <ele>2135.1</ele>
        <time>2019-01-07T07:23:56Z</time>
      </trkpt>
      <trkpt lat="42.45088" lon="2.20342">
        <ele>2135.1</ele>
        <time>2019-01-07T07:23:59Z</time>
      </trkpt>
      <trkpt lat="42.45081" lon="2.20335">
        <ele>2137.1</ele>
        <time>2019-01-07T07:24:02Z</time>
      </trkpt>
      <trkpt lat="42.4507" lon="2.20328">
        <ele>2141</ele>
        <time>2019-01-07T07:24:05Z</time>
      </trkpt>
      <trkpt lat="42.45064" lon="2.2032">
        <ele>2144</ele>
        <time>2019-01-07T07:24:07Z</time>
      </trkpt>
      <trkpt lat="42.45055" lon="2.20313">
        <ele>2147.1</ele>
        <time>2019-01-07T07:24:10Z</time>
      </trkpt>
      <trkpt lat="42.45049" lon="2.20303">
        <ele>2149</ele>
        <time>2019-01-07T07:24:12Z</time>
      </trkpt>
      <trkpt lat="42.4504" lon="2.20299">
        <ele>2151</ele>
        <time>2019-01-07T07:24:15Z</time>
      </trkpt>
      <trkpt lat="42.45033" lon="2.20291">
        <ele>2153.1</ele>
        <time>2019-01-07T07:24:17Z</time>
      </trkpt>
      <trkpt lat="42.45025" lon="2.20281">
        <ele>2155.1</ele>
        <time>2019-01-07T07:24:20Z</time>
      </trkpt>
      <trkpt lat="42.45016" lon="2.20276">
        <ele>2157</ele>
        <time>2019-01-07T07:24:23Z</time>
      </trkpt>
      <trkpt lat="42.45008" lon="2.2027">
        <ele>2158.1</ele>
        <time>2019-01-07T07:24:25Z</time>
      </trkpt>
      <trkpt lat="42.44999" lon="2.20265">
        <ele>2159.1</ele>
        <time>2019-01-07T07:24:28Z</time>
      </trkpt>
      <trkpt lat="42.44994" lon="2.20254">
        <ele>2162.1</ele>
        <time>2019-01-07T07:24:30Z</time>
      </trkpt>
      <trkpt lat="42.44984" lon="2.20251">
        <ele>2163.1</ele>
        <time>2019-01-07T07:24:33Z</time>
      </trkpt>
      <trkpt lat="42.44976" lon="2.20246">
        <ele>2163.1</ele>
        <time>2019-01-07T07:24:35Z</time>
      </trkpt>
      <trkpt lat="42.44965" lon="2.20246">
        <ele>2163.1</ele>
        <time>2019-01-07T07:24:38Z</time>
      </trkpt>
      <trkpt lat="42.44956" lon="2.20244">
        <ele>2163.1</ele>
        <time>2019-01-07T07:24:41Z</time>
      </trkpt>
      <trkpt lat="42.44946" lon="2.20234">
        <ele>2163</ele>
        <time>2019-01-07T07:24:44Z</time>
      </trkpt>
      <trkpt lat="42.44938" lon="2.20226">
        <ele>2163</ele>
        <time>2019-01-07T07:24:47Z</time>
      </trkpt>
      <trkpt lat="42.44928" lon="2.20219">
        <ele>2164.1</ele>
        <time>2019-01-07T07:24:50Z</time>
      </trkpt>
      <trkpt lat="42.44917" lon="2.20212">
        <ele>2165.1</ele>
        <time>2019-01-07T07:24:53Z</time>
      </trkpt>
      <trkpt lat="42.44909" lon="2.20205">
        <ele>2167.1</ele>
        <time>2019-01-07T07:24:56Z</time>
      </trkpt>
      <trkpt lat="42.44902" lon="2.20196">
        <ele>2169.1</ele>
        <time>2019-01-07T07:24:58Z</time>
      </trkpt>
      <trkpt lat="42.44901" lon="2.20183">
        <ele>2169</ele>
        <time>2019-01-07T07:25:01Z</time>
      </trkpt>
      <trkpt lat="42.44898" lon="2.2017">
        <ele>2169</ele>
        <time>2019-01-07T07:25:04Z</time>
      </trkpt>
      <trkpt lat="42.44891" lon="2.2016">
        <ele>2171.1</ele>
        <time>2019-01-07T07:25:06Z</time>
      </trkpt>
      <trkpt lat="42.44883" lon="2.20153">
        <ele>2172</ele>
        <time>2019-01-07T07:25:09Z</time>
      </trkpt>
      <trkpt lat="42.44876" lon="2.20143">
        <ele>2172</ele>
        <time>2019-01-07T07:25:11Z</time>
      </trkpt>
      <trkpt lat="42.4487" lon="2.20134">
        <ele>2172.1</ele>
        <time>2019-01-07T07:25:14Z</time>
      </trkpt>
      <trkpt lat="42.44861" lon="2.20128">
        <ele>2172</ele>
        <time>2019-01-07T07:25:16Z</time>
      </trkpt>
      <trkpt lat="42.44851" lon="2.20126">
        <ele>2173</ele>
        <time>2019-01-07T07:25:19Z</time>
      </trkpt>
      <trkpt lat="42.44843" lon="2.20133">
        <ele>2174</ele>
        <time>2019-01-07T07:25:22Z</time>
      </trkpt>
      <trkpt lat="42.44833" lon="2.20128">
        <ele>2175.1</ele>
        <time>2019-01-07T07:25:24Z</time>
      </trkpt>
      <trkpt lat="42.44823" lon="2.20126">
        <ele>2173.1</ele>
        <time>2019-01-07T07:25:27Z</time>
      </trkpt>
      <trkpt lat="42.44814" lon="2.20127">
        <ele>2171</ele>
        <time>2019-01-07T07:25:30Z</time>
      </trkpt>
      <trkpt lat="42.44805" lon="2.2013">
        <ele>2169.1</ele>
        <time>2019-01-07T07:25:32Z</time>
      </trkpt>
      <trkpt lat="42.44797" lon="2.20122">
        <ele>2170.1</ele>
        <time>2019-01-07T07:25:35Z</time>
      </trkpt>
      <trkpt lat="42.4479" lon="2.20132">
        <ele>2169.1</ele>
        <time>2019-01-07T07:25:37Z</time>
      </trkpt>
      <trkpt lat="42.44781" lon="2.20127">
        <ele>2170.1</ele>
        <time>2019-01-07T07:25:40Z</time>
      </trkpt>
      <trkpt lat="42.44779" lon="2.20115">
        <ele>2171.1</ele>
        <time>2019-01-07T07:25:42Z</time>
      </trkpt>
      <trkpt lat="42.44769" lon="2.20115">
        <ele>2171.1</ele>
        <time>2019-01-07T07:25:45Z</time>
      </trkpt>
      <trkpt lat="42.44762" lon="2.20106">
        <ele>2170</ele>
        <time>2019-01-07T07:25:47Z</time>
      </trkpt>
      <trkpt lat="42.44753" lon="2.20101">
        <ele>2168</ele>
        <time>2019-01-07T07:25:50Z</time>
      </trkpt>
      <trkpt lat="42.44745" lon="2.20094">
        <ele>2167</ele>
        <time>2019-01-07T07:25:53Z</time>
      </trkpt>
      <trkpt lat="42.44739" lon="2.20084">
        <ele>2167.1</ele>
        <time>2019-01-07T07:25:55Z</time>
      </trkpt>
      <trkpt lat="42.44734" lon="2.20074">
        <ele>2168.1</ele>
        <time>2019-01-07T07:25:58Z</time>
      </trkpt>
      <trkpt lat="42.44726" lon="2.20066">
        <ele>2167</ele>
        <time>2019-01-07T07:26:00Z</time>
      </trkpt>
      <trkpt lat="42.44718" lon="2.20058">
        <ele>2167.1</ele>
        <time>2019-01-07T07:26:03Z</time>
      </trkpt>
      <trkpt lat="42.44709" lon="2.20048">
        <ele>2167.1</ele>
        <time>2019-01-07T07:26:06Z</time>
      </trkpt>
      <trkpt lat="42.44702" lon="2.20039">
        <ele>2167.1</ele>
        <time>2019-01-07T07:26:08Z</time>
      </trkpt>
      <trkpt lat="42.44695" lon="2.2003">
        <ele>2167.1</ele>
        <time>2019-01-07T07:26:11Z</time>
      </trkpt>
      <trkpt lat="42.44687" lon="2.2002">
        <ele>2167.1</ele>
        <time>2019-01-07T07:26:14Z</time>
      </trkpt>
      <trkpt lat="42.44679" lon="2.20014">
        <ele>2167.1</ele>
        <time>2019-01-07T07:26:16Z</time>
      </trkpt>
      <trkpt lat="42.44673" lon="2.20001">
        <ele>2167</ele>
        <time>2019-01-07T07:26:19Z</time>
      </trkpt>
      <trkpt lat="42.44667" lon="2.19991">
        <ele>2167</ele>
        <time>2019-01-07T07:26:22Z</time>
      </trkpt>
      <trkpt lat="42.44658" lon="2.19982">
        <ele>2167</ele>
        <time>2019-01-07T07:26:25Z</time>
      </trkpt>
      <trkpt lat="42.44652" lon="2.19972">
        <ele>2167.1</ele>
        <time>2019-01-07T07:26:27Z</time>
      </trkpt>
      <trkpt lat="42.44642" lon="2.19968">
        <ele>2168.1</ele>
        <time>2019-01-07T07:26:30Z</time>
      </trkpt>
      <trkpt lat="42.44635" lon="2.1996">
        <ele>2170.1</ele>
        <time>2019-01-07T07:26:33Z</time>
      </trkpt>
      <trkpt lat="42.44625" lon="2.19959">
        <ele>2170</ele>
        <time>2019-01-07T07:26:35Z</time>
      </trkpt>
      <trkpt lat="42.44616" lon="2.19952">
        <ele>2172</ele>
        <time>2019-01-07T07:26:38Z</time>
      </trkpt>
      <trkpt lat="42.44606" lon="2.19951">
        <ele>2170.1</ele>
        <time>2019-01-07T07:26:41Z</time>
      </trkpt>
      <trkpt lat="42.44595" lon="2.19949">
        <ele>2169.1</ele>
        <time>2019-01-07T07:26:44Z</time>
      </trkpt>
      <trkpt lat="42.44586" lon="2.19945">
        <ele>2167</ele>
        <time>2019-01-07T07:26:46Z</time>
      </trkpt>
      <trkpt lat="42.44575" lon="2.19947">
        <ele>2167</ele>
        <time>2019-01-07T07:26:49Z</time>
      </trkpt>
      <trkpt lat="42.44565" lon="2.19947">
        <ele>2167</ele>
        <time>2019-01-07T07:26:52Z</time>
      </trkpt>
      <trkpt lat="42.44557" lon="2.19952">
        <ele>2167</ele>
        <time>2019-01-07T07:26:54Z</time>
      </trkpt>
      <trkpt lat="42.44554" lon="2.1994">
        <ele>2167</ele>
        <time>2019-01-07T07:26:57Z</time>
      </trkpt>
      <trkpt lat="42.44563" lon="2.19946">
        <ele>2167.1</ele>
        <time>2019-01-07T07:27:00Z</time>
      </trkpt>
      <trkpt lat="42.44555" lon="2.19952">
        <ele>2167.1</ele>
        <time>2019-01-07T07:27:02Z</time>
      </trkpt>
      <trkpt lat="42.44542" lon="2.19952">
        <ele>2167.1</ele>
        <time>2019-01-07T07:27:05Z</time>
      </trkpt>
      <trkpt lat="42.44533" lon="2.19956">
        <ele>2167</ele>
        <time>2019-01-07T07:27:08Z</time>
      </trkpt>
      <trkpt lat="42.44523" lon="2.19953">
        <ele>2168</ele>
        <time>2019-01-07T07:27:10Z</time>
      </trkpt>
      <trkpt lat="42.44514" lon="2.19953">
        <ele>2169</ele>
        <time>2019-01-07T07:27:13Z</time>
      </trkpt>
      <trkpt lat="42.44506" lon="2.19947">
        <ele>2172.1</ele>
        <time>2019-01-07T07:27:15Z</time>
      </trkpt>
      <trkpt lat="42.44496" lon="2.19946">
        <ele>2173.1</ele>
        <time>2019-01-07T07:27:18Z</time>
      </trkpt>
      <trkpt lat="42.44485" lon="2.1995">
        <ele>2173.1</ele>
        <time>2019-01-07T07:27:21Z</time>
      </trkpt>
      <trkpt lat="42.44475" lon="2.19952">
        <ele>2173</ele>
        <time>2019-01-07T07:27:24Z</time>
      </trkpt>
      <trkpt lat="42.44465" lon="2.1995">
        <ele>2175</ele>
        <time>2019-01-07T07:27:27Z</time>
      </trkpt>
      <trkpt lat="42.44455" lon="2.19947">
        <ele>2178</ele>
        <time>2019-01-07T07:27:29Z</time>
      </trkpt>
      <trkpt lat="42.44446" lon="2.19949">
        <ele>2180</ele>
        <time>2019-01-07T07:27:32Z</time>
      </trkpt>
      <trkpt lat="42.44437" lon="2.19945">
        <ele>2182.1</ele>
        <time>2019-01-07T07:27:34Z</time>
      </trkpt>
      <trkpt lat="42.44428" lon="2.19938">
        <ele>2186.1</ele>
        <time>2019-01-07T07:27:37Z</time>
      </trkpt>
      <trkpt lat="42.44417" lon="2.19934">
        <ele>2189</ele>
        <time>2019-01-07T07:27:40Z</time>
      </trkpt>
      <trkpt lat="42.44408" lon="2.19931">
        <ele>2191.1</ele>
        <time>2019-01-07T07:27:43Z</time>
      </trkpt>
      <trkpt lat="42.44399" lon="2.1993">
        <ele>2193.1</ele>
        <time>2019-01-07T07:27:45Z</time>
      </trkpt>
      <trkpt lat="42.4439" lon="2.19929">
        <ele>2194</ele>
        <time>2019-01-07T07:27:47Z</time>
      </trkpt>
      <trkpt lat="42.4438" lon="2.19923">
        <ele>2194.1</ele>
        <time>2019-01-07T07:27:50Z</time>
      </trkpt>
      <trkpt lat="42.44371" lon="2.19915">
        <ele>2194.1</ele>
        <time>2019-01-07T07:27:53Z</time>
      </trkpt>
      <trkpt lat="42.44363" lon="2.19908">
        <ele>2194</ele>
        <time>2019-01-07T07:27:56Z</time>
      </trkpt>
      <trkpt lat="42.44353" lon="2.19907">
        <ele>2194</ele>
        <time>2019-01-07T07:27:58Z</time>
      </trkpt>
      <trkpt lat="42.44344" lon="2.19901">
        <ele>2194</ele>
        <time>2019-01-07T07:28:01Z</time>
      </trkpt>
      <trkpt lat="42.44334" lon="2.19895">
        <ele>2194.1</ele>
        <time>2019-01-07T07:28:04Z</time>
      </trkpt>
      <trkpt lat="42.44325" lon="2.1989">
        <ele>2194.1</ele>
        <time>2019-01-07T07:28:07Z</time>
      </trkpt>
      <trkpt lat="42.44316" lon="2.19891">
        <ele>2194</ele>
        <time>2019-01-07T07:28:09Z</time>
      </trkpt>
      <trkpt lat="42.44305" lon="2.19892">
        <ele>2194</ele>
        <time>2019-01-07T07:28:12Z</time>
      </trkpt>
      <trkpt lat="42.44296" lon="2.19897">
        <ele>2194.1</ele>
        <time>2019-01-07T07:28:15Z</time>
      </trkpt>
      <trkpt lat="42.44284" lon="2.19898">
        <ele>2194</ele>
        <time>2019-01-07T07:28:18Z</time>
      </trkpt>
      <trkpt lat="42.44277" lon="2.19908">
        <ele>2194</ele>
        <time>2019-01-07T07:28:20Z</time>
      </trkpt>
      <trkpt lat="42.44267" lon="2.19907">
        <ele>2197.1</ele>
        <time>2019-01-07T07:28:23Z</time>
      </trkpt>
      <trkpt lat="42.44258" lon="2.19912">
        <ele>2199</ele>
        <time>2019-01-07T07:28:26Z</time>
      </trkpt>
      <trkpt lat="42.44248" lon="2.19911">
        <ele>2201</ele>
        <time>2019-01-07T07:28:28Z</time>
      </trkpt>
      <trkpt lat="42.4424" lon="2.19918">
        <ele>2203</ele>
        <time>2019-01-07T07:28:31Z</time>
      </trkpt>
      <trkpt lat="42.44233" lon="2.19907">
        <ele>2203.1</ele>
        <time>2019-01-07T07:28:34Z</time>
      </trkpt>
      <trkpt lat="42.44225" lon="2.199">
        <ele>2203</ele>
        <time>2019-01-07T07:28:36Z</time>
      </trkpt>
      <trkpt lat="42.44218" lon="2.19892">
        <ele>2211</ele>
        <time>2019-01-07T07:28:39Z</time>
      </trkpt>
      <trkpt lat="42.44208" lon="2.19894">
        <ele>2211</ele>
        <time>2019-01-07T07:28:41Z</time>
      </trkpt>
      <trkpt lat="42.44198" lon="2.19894">
        <ele>2212</ele>
        <time>2019-01-07T07:28:44Z</time>
      </trkpt>
      <trkpt lat="42.44189" lon="2.19898">
        <ele>2214</ele>
        <time>2019-01-07T07:28:47Z</time>
      </trkpt>
      <trkpt lat="42.4418" lon="2.199">
        <ele>2217.1</ele>
        <time>2019-01-07T07:28:49Z</time>
      </trkpt>
      <trkpt lat="42.44171" lon="2.19905">
        <ele>2221</ele>
        <time>2019-01-07T07:28:52Z</time>
      </trkpt>
      <trkpt lat="42.44161" lon="2.1991">
        <ele>2221.1</ele>
        <time>2019-01-07T07:28:54Z</time>
      </trkpt>
      <trkpt lat="42.44154" lon="2.19921">
        <ele>2221.1</ele>
        <time>2019-01-07T07:28:57Z</time>
      </trkpt>
      <trkpt lat="42.44145" lon="2.19926">
        <ele>2220</ele>
        <time>2019-01-07T07:29:00Z</time>
      </trkpt>
      <trkpt lat="42.44135" lon="2.19931">
        <ele>2221</ele>
        <time>2019-01-07T07:29:03Z</time>
      </trkpt>
      <trkpt lat="42.44134" lon="2.19944">
        <ele>2224.1</ele>
        <time>2019-01-07T07:29:05Z</time>
      </trkpt>
      <trkpt lat="42.4413" lon="2.19955">
        <ele>2224.1</ele>
        <time>2019-01-07T07:29:08Z</time>
      </trkpt>
      <trkpt lat="42.44119" lon="2.1996">
        <ele>2224.1</ele>
        <time>2019-01-07T07:29:11Z</time>
      </trkpt>
      <trkpt lat="42.4411" lon="2.19959">
        <ele>2224.1</ele>
        <time>2019-01-07T07:29:13Z</time>
      </trkpt>
      <trkpt lat="42.44103" lon="2.19968">
        <ele>2224</ele>
        <time>2019-01-07T07:29:16Z</time>
      </trkpt>
      <trkpt lat="42.44093" lon="2.19968">
        <ele>2224.1</ele>
        <time>2019-01-07T07:29:19Z</time>
      </trkpt>
      <trkpt lat="42.44083" lon="2.1997">
        <ele>2224.1</ele>
        <time>2019-01-07T07:29:21Z</time>
      </trkpt>
      <trkpt lat="42.44074" lon="2.19975">
        <ele>2227</ele>
        <time>2019-01-07T07:29:24Z</time>
      </trkpt>
      <trkpt lat="42.44064" lon="2.19972">
        <ele>2229.1</ele>
        <time>2019-01-07T07:29:27Z</time>
      </trkpt>
      <trkpt lat="42.44055" lon="2.1997">
        <ele>2231.1</ele>
        <time>2019-01-07T07:29:29Z</time>
      </trkpt>
      <trkpt lat="42.44045" lon="2.19969">
        <ele>2231</ele>
        <time>2019-01-07T07:29:32Z</time>
      </trkpt>
      <trkpt lat="42.44037" lon="2.19975">
        <ele>2231</ele>
        <time>2019-01-07T07:29:34Z</time>
      </trkpt>
      <trkpt lat="42.44027" lon="2.19978">
        <ele>2231</ele>
        <time>2019-01-07T07:29:37Z</time>
      </trkpt>
      <trkpt lat="42.44018" lon="2.19982">
        <ele>2233.1</ele>
        <time>2019-01-07T07:29:39Z</time>
      </trkpt>
      <trkpt lat="42.44008" lon="2.19981">
        <ele>2236</ele>
        <time>2019-01-07T07:29:42Z</time>
      </trkpt>
      <trkpt lat="42.43998" lon="2.19981">
        <ele>2238</ele>
        <time>2019-01-07T07:29:45Z</time>
      </trkpt>
      <trkpt lat="42.4399" lon="2.19989">
        <ele>2239</ele>
        <time>2019-01-07T07:29:48Z</time>
      </trkpt>
      <trkpt lat="42.43981" lon="2.19991">
        <ele>2241</ele>
        <time>2019-01-07T07:29:50Z</time>
      </trkpt>
      <trkpt lat="42.43972" lon="2.19992">
        <ele>2243</ele>
        <time>2019-01-07T07:29:52Z</time>
      </trkpt>
      <trkpt lat="42.43962" lon="2.19994">
        <ele>2243.1</ele>
        <time>2019-01-07T07:29:55Z</time>
      </trkpt>
      <trkpt lat="42.43953" lon="2.19995">
        <ele>2243.1</ele>
        <time>2019-01-07T07:29:57Z</time>
      </trkpt>
      <trkpt lat="42.43943" lon="2.19989">
        <ele>2242.1</ele>
        <time>2019-01-07T07:30:00Z</time>
      </trkpt>
      <trkpt lat="42.43934" lon="2.19993">
        <ele>2244</ele>
        <time>2019-01-07T07:30:03Z</time>
      </trkpt>
      <trkpt lat="42.43931" lon="2.20006">
        <ele>2246</ele>
        <time>2019-01-07T07:30:06Z</time>
      </trkpt>
      <trkpt lat="42.43925" lon="2.20017">
        <ele>2249</ele>
        <time>2019-01-07T07:30:08Z</time>
      </trkpt>
      <trkpt lat="42.4392" lon="2.2003">
        <ele>2251.1</ele>
        <time>2019-01-07T07:30:11Z</time>
      </trkpt>
      <trkpt lat="42.43912" lon="2.20037">
        <ele>2252.1</ele>
        <time>2019-01-07T07:30:14Z</time>
      </trkpt>
      <trkpt lat="42.43903" lon="2.2003">
        <ele>2251.1</ele>
        <time>2019-01-07T07:30:16Z</time>
      </trkpt>
      <trkpt lat="42.43895" lon="2.20024">
        <ele>2250</ele>
        <time>2019-01-07T07:30:19Z</time>
      </trkpt>
      <trkpt lat="42.43885" lon="2.20022">
        <ele>2250.1</ele>
        <time>2019-01-07T07:30:22Z</time>
      </trkpt>
      <trkpt lat="42.43879" lon="2.20012">
        <ele>2247</ele>
        <time>2019-01-07T07:30:24Z</time>
      </trkpt>
      <trkpt lat="42.4387" lon="2.20007">
        <ele>2246</ele>
        <time>2019-01-07T07:30:27Z</time>
      </trkpt>
      <trkpt lat="42.43863" lon="2.19998">
        <ele>2244.1</ele>
        <time>2019-01-07T07:30:29Z</time>
      </trkpt>
      <trkpt lat="42.43853" lon="2.19993">
        <ele>2246</ele>
        <time>2019-01-07T07:30:32Z</time>
      </trkpt>
      <trkpt lat="42.43843" lon="2.1999">
        <ele>2247</ele>
        <time>2019-01-07T07:30:35Z</time>
      </trkpt>
      <trkpt lat="42.43835" lon="2.19982">
        <ele>2246</ele>
        <time>2019-01-07T07:30:38Z</time>
      </trkpt>
      <trkpt lat="42.43828" lon="2.19974">
        <ele>2246</ele>
        <time>2019-01-07T07:30:40Z</time>
      </trkpt>
      <trkpt lat="42.43819" lon="2.19971">
        <ele>2248</ele>
        <time>2019-01-07T07:30:43Z</time>
      </trkpt>
      <trkpt lat="42.43809" lon="2.19968">
        <ele>2250</ele>
        <time>2019-01-07T07:30:45Z</time>
      </trkpt>
      <trkpt lat="42.438" lon="2.19962">
        <ele>2253</ele>
        <time>2019-01-07T07:30:48Z</time>
      </trkpt>
      <trkpt lat="42.4379" lon="2.19958">
        <ele>2255</ele>
        <time>2019-01-07T07:30:51Z</time>
      </trkpt>
      <trkpt lat="42.4378" lon="2.19951">
        <ele>2257.1</ele>
        <time>2019-01-07T07:30:54Z</time>
      </trkpt>
      <trkpt lat="42.43771" lon="2.19946">
        <ele>2256</ele>
        <time>2019-01-07T07:30:56Z</time>
      </trkpt>
      <trkpt lat="42.4376" lon="2.19945">
        <ele>2254.1</ele>
        <time>2019-01-07T07:30:59Z</time>
      </trkpt>
      <trkpt lat="42.4375" lon="2.19947">
        <ele>2252</ele>
        <time>2019-01-07T07:31:02Z</time>
      </trkpt>
      <trkpt lat="42.43741" lon="2.19951">
        <ele>2253.1</ele>
        <time>2019-01-07T07:31:04Z</time>
      </trkpt>
      <trkpt lat="42.43731" lon="2.19954">
        <ele>2254</ele>
        <time>2019-01-07T07:31:07Z</time>
      </trkpt>
      <trkpt lat="42.43722" lon="2.19955">
        <ele>2254</ele>
        <time>2019-01-07T07:31:09Z</time>
      </trkpt>
      <trkpt lat="42.43714" lon="2.19961">
        <ele>2254.1</ele>
        <time>2019-01-07T07:31:12Z</time>
      </trkpt>
      <trkpt lat="42.43705" lon="2.19972">
        <ele>2254.1</ele>
        <time>2019-01-07T07:31:15Z</time>
      </trkpt>
      <trkpt lat="42.43702" lon="2.19984">
        <ele>2256.1</ele>
        <time>2019-01-07T07:31:18Z</time>
      </trkpt>
      <trkpt lat="42.43697" lon="2.19995">
        <ele>2258.1</ele>
        <time>2019-01-07T07:31:20Z</time>
      </trkpt>
      <trkpt lat="42.4369" lon="2.20003">
        <ele>2257</ele>
        <time>2019-01-07T07:31:23Z</time>
      </trkpt>
      <trkpt lat="42.43682" lon="2.20012">
        <ele>2259.1</ele>
        <time>2019-01-07T07:31:25Z</time>
      </trkpt>
      <trkpt lat="42.43675" lon="2.20024">
        <ele>2259</ele>
        <time>2019-01-07T07:31:29Z</time>
      </trkpt>
      <trkpt lat="42.43665" lon="2.20024">
        <ele>2257.1</ele>
        <time>2019-01-07T07:31:31Z</time>
      </trkpt>
      <trkpt lat="42.43656" lon="2.20024">
        <ele>2257.1</ele>
        <time>2019-01-07T07:31:34Z</time>
      </trkpt>
      <trkpt lat="42.43647" lon="2.20022">
        <ele>2257</ele>
        <time>2019-01-07T07:31:36Z</time>
      </trkpt>
      <trkpt lat="42.43637" lon="2.20028">
        <ele>2255</ele>
        <time>2019-01-07T07:31:39Z</time>
      </trkpt>
      <trkpt lat="42.43627" lon="2.20032">
        <ele>2256</ele>
        <time>2019-01-07T07:31:42Z</time>
      </trkpt>
      <trkpt lat="42.43616" lon="2.20033">
        <ele>2256</ele>
        <time>2019-01-07T07:31:44Z</time>
      </trkpt>
      <trkpt lat="42.43607" lon="2.20035">
        <ele>2257</ele>
        <time>2019-01-07T07:31:47Z</time>
      </trkpt>
      <trkpt lat="42.43597" lon="2.20037">
        <ele>2257.1</ele>
        <time>2019-01-07T07:31:50Z</time>
      </trkpt>
      <trkpt lat="42.43589" lon="2.20043">
        <ele>2258</ele>
        <time>2019-01-07T07:31:52Z</time>
      </trkpt>
      <trkpt lat="42.4358" lon="2.20036">
        <ele>2257.1</ele>
        <time>2019-01-07T07:31:55Z</time>
      </trkpt>
      <trkpt lat="42.4357" lon="2.20032">
        <ele>2259.1</ele>
        <time>2019-01-07T07:31:58Z</time>
      </trkpt>
      <trkpt lat="42.43563" lon="2.20023">
        <ele>2260</ele>
        <time>2019-01-07T07:32:00Z</time>
      </trkpt>
      <trkpt lat="42.43554" lon="2.20015">
        <ele>2262.1</ele>
        <time>2019-01-07T07:32:03Z</time>
      </trkpt>
      <trkpt lat="42.43548" lon="2.20006">
        <ele>2262</ele>
        <time>2019-01-07T07:32:06Z</time>
      </trkpt>
      <trkpt lat="42.43539" lon="2.20003">
        <ele>2262.1</ele>
        <time>2019-01-07T07:32:08Z</time>
      </trkpt>
      <trkpt lat="42.43529" lon="2.20005">
        <ele>2262</ele>
        <time>2019-01-07T07:32:11Z</time>
      </trkpt>
      <trkpt lat="42.43519" lon="2.20001">
        <ele>2261</ele>
        <time>2019-01-07T07:32:14Z</time>
      </trkpt>
      <trkpt lat="42.43511" lon="2.19995">
        <ele>2261.1</ele>
        <time>2019-01-07T07:32:16Z</time>
      </trkpt>
      <trkpt lat="42.43508" lon="2.19983">
        <ele>2261.1</ele>
        <time>2019-01-07T07:32:18Z</time>
      </trkpt>
      <trkpt lat="42.43499" lon="2.19975">
        <ele>2262</ele>
        <time>2019-01-07T07:32:21Z</time>
      </trkpt>
      <trkpt lat="42.4349" lon="2.19967">
        <ele>2263</ele>
        <time>2019-01-07T07:32:24Z</time>
      </trkpt>
      <trkpt lat="42.43482" lon="2.19958">
        <ele>2263</ele>
        <time>2019-01-07T07:32:27Z</time>
      </trkpt>
      <trkpt lat="42.43473" lon="2.19956">
        <ele>2264</ele>
        <time>2019-01-07T07:32:29Z</time>
      </trkpt>
      <trkpt lat="42.43464" lon="2.19954">
        <ele>2265.1</ele>
        <time>2019-01-07T07:32:32Z</time>
      </trkpt>
      <trkpt lat="42.43455" lon="2.19951">
        <ele>2264.1</ele>
        <time>2019-01-07T07:32:34Z</time>
      </trkpt>
      <trkpt lat="42.43446" lon="2.19949">
        <ele>2263</ele>
        <time>2019-01-07T07:32:37Z</time>
      </trkpt>
      <trkpt lat="42.43436" lon="2.19945">
        <ele>2264.1</ele>
        <time>2019-01-07T07:32:39Z</time>
      </trkpt>
      <trkpt lat="42.43427" lon="2.19942">
        <ele>2266</ele>
        <time>2019-01-07T07:32:42Z</time>
      </trkpt>
      <trkpt lat="42.43422" lon="2.19928">
        <ele>2268</ele>
        <time>2019-01-07T07:32:45Z</time>
      </trkpt>
      <trkpt lat="42.43418" lon="2.19911">
        <ele>2268</ele>
        <time>2019-01-07T07:32:49Z</time>
      </trkpt>
      <trkpt lat="42.43415" lon="2.19899">
        <ele>2268</ele>
        <time>2019-01-07T07:32:51Z</time>
      </trkpt>
      <trkpt lat="42.43411" lon="2.19886">
        <ele>2268.1</ele>
        <time>2019-01-07T07:32:54Z</time>
      </trkpt>
      <trkpt lat="42.43411" lon="2.19873">
        <ele>2268.1</ele>
        <time>2019-01-07T07:32:56Z</time>
      </trkpt>
      <trkpt lat="42.4341" lon="2.19859">
        <ele>2268.1</ele>
        <time>2019-01-07T07:32:59Z</time>
      </trkpt>
      <trkpt lat="42.43404" lon="2.19848">
        <ele>2268</ele>
        <time>2019-01-07T07:33:02Z</time>
      </trkpt>
      <trkpt lat="42.43398" lon="2.19838">
        <ele>2268</ele>
        <time>2019-01-07T07:33:04Z</time>
      </trkpt>
      <trkpt lat="42.43388" lon="2.19834">
        <ele>2268.1</ele>
        <time>2019-01-07T07:33:07Z</time>
      </trkpt>
      <trkpt lat="42.43379" lon="2.19829">
        <ele>2268</ele>
        <time>2019-01-07T07:33:10Z</time>
      </trkpt>
      <trkpt lat="42.43374" lon="2.19817">
        <ele>2268.1</ele>
        <time>2019-01-07T07:33:12Z</time>
      </trkpt>
      <trkpt lat="42.43369" lon="2.19804">
        <ele>2269</ele>
        <time>2019-01-07T07:33:15Z</time>
      </trkpt>
      <trkpt lat="42.43366" lon="2.19792">
        <ele>2269</ele>
        <time>2019-01-07T07:33:18Z</time>
      </trkpt>
      <trkpt lat="42.4336" lon="2.19782">
        <ele>2268.1</ele>
        <time>2019-01-07T07:33:20Z</time>
      </trkpt>
      <trkpt lat="42.43352" lon="2.19775">
        <ele>2269.1</ele>
        <time>2019-01-07T07:33:23Z</time>
      </trkpt>
      <trkpt lat="42.43344" lon="2.19768">
        <ele>2269.1</ele>
        <time>2019-01-07T07:33:25Z</time>
      </trkpt>
      <trkpt lat="42.43336" lon="2.19763">
        <ele>2268.1</ele>
        <time>2019-01-07T07:33:28Z</time>
      </trkpt>
      <trkpt lat="42.43328" lon="2.19755">
        <ele>2268</ele>
        <time>2019-01-07T07:33:30Z</time>
      </trkpt>
      <trkpt lat="42.43318" lon="2.1975">
        <ele>2268.1</ele>
        <time>2019-01-07T07:33:33Z</time>
      </trkpt>
      <trkpt lat="42.43313" lon="2.19739">
        <ele>2271.1</ele>
        <time>2019-01-07T07:33:36Z</time>
      </trkpt>
      <trkpt lat="42.43307" lon="2.19728">
        <ele>2273</ele>
        <time>2019-01-07T07:33:39Z</time>
      </trkpt>
      <trkpt lat="42.43296" lon="2.19727">
        <ele>2272</ele>
        <time>2019-01-07T07:33:41Z</time>
      </trkpt>
      <trkpt lat="42.43286" lon="2.19726">
        <ele>2270.1</ele>
        <time>2019-01-07T07:33:44Z</time>
      </trkpt>
      <trkpt lat="42.43276" lon="2.1972">
        <ele>2269</ele>
        <time>2019-01-07T07:33:47Z</time>
      </trkpt>
      <trkpt lat="42.43266" lon="2.19723">
        <ele>2268</ele>
        <time>2019-01-07T07:33:50Z</time>
      </trkpt>
      <trkpt lat="42.43258" lon="2.19714">
        <ele>2271</ele>
        <time>2019-01-07T07:33:52Z</time>
      </trkpt>
      <trkpt lat="42.43249" lon="2.19712">
        <ele>2270</ele>
        <time>2019-01-07T07:33:55Z</time>
      </trkpt>
      <trkpt lat="42.43239" lon="2.19713">
        <ele>2270</ele>
        <time>2019-01-07T07:33:57Z</time>
      </trkpt>
      <trkpt lat="42.43232" lon="2.19706">
        <ele>2272</ele>
        <time>2019-01-07T07:34:00Z</time>
      </trkpt>
      <trkpt lat="42.43223" lon="2.19701">
        <ele>2273</ele>
        <time>2019-01-07T07:34:02Z</time>
      </trkpt>
      <trkpt lat="42.43214" lon="2.19704">
        <ele>2276</ele>
        <time>2019-01-07T07:34:05Z</time>
      </trkpt>
      <trkpt lat="42.43203" lon="2.19699">
        <ele>2280.1</ele>
        <time>2019-01-07T07:34:08Z</time>
      </trkpt>
      <trkpt lat="42.43194" lon="2.19692">
        <ele>2283.1</ele>
        <time>2019-01-07T07:34:11Z</time>
      </trkpt>
      <trkpt lat="42.43184" lon="2.19685">
        <ele>2286.1</ele>
        <time>2019-01-07T07:34:14Z</time>
      </trkpt>
      <trkpt lat="42.43178" lon="2.19697">
        <ele>2286.1</ele>
        <time>2019-01-07T07:34:17Z</time>
      </trkpt>
      <trkpt lat="42.43169" lon="2.19703">
        <ele>2290</ele>
        <time>2019-01-07T07:34:19Z</time>
      </trkpt>
      <trkpt lat="42.43159" lon="2.19702">
        <ele>2292</ele>
        <time>2019-01-07T07:34:22Z</time>
      </trkpt>
      <trkpt lat="42.43157" lon="2.19715">
        <ele>2294</ele>
        <time>2019-01-07T07:34:25Z</time>
      </trkpt>
      <trkpt lat="42.4316" lon="2.19727">
        <ele>2295.1</ele>
        <time>2019-01-07T07:34:27Z</time>
      </trkpt>
      <trkpt lat="42.43158" lon="2.19741">
        <ele>2295.1</ele>
        <time>2019-01-07T07:34:30Z</time>
      </trkpt>
      <trkpt lat="42.43154" lon="2.19754">
        <ele>2296.1</ele>
        <time>2019-01-07T07:34:33Z</time>
      </trkpt>
      <trkpt lat="42.43147" lon="2.19762">
        <ele>2298.1</ele>
        <time>2019-01-07T07:34:35Z</time>
      </trkpt>
      <trkpt lat="42.43137" lon="2.1976">
        <ele>2297.1</ele>
        <time>2019-01-07T07:34:38Z</time>
      </trkpt>
      <trkpt lat="42.43131" lon="2.19749">
        <ele>2295.1</ele>
        <time>2019-01-07T07:34:41Z</time>
      </trkpt>
      <trkpt lat="42.4312" lon="2.19745">
        <ele>2295.1</ele>
        <time>2019-01-07T07:34:43Z</time>
      </trkpt>
      <trkpt lat="42.43109" lon="2.19746">
        <ele>2296</ele>
        <time>2019-01-07T07:34:46Z</time>
      </trkpt>
      <trkpt lat="42.431" lon="2.19749">
        <ele>2295</ele>
        <time>2019-01-07T07:34:49Z</time>
      </trkpt>
      <trkpt lat="42.43089" lon="2.19741">
        <ele>2295</ele>
        <time>2019-01-07T07:34:52Z</time>
      </trkpt>
      <trkpt lat="42.43079" lon="2.19738">
        <ele>2296</ele>
        <time>2019-01-07T07:34:55Z</time>
      </trkpt>
      <trkpt lat="42.43079" lon="2.19722">
        <ele>2295</ele>
        <time>2019-01-07T07:34:58Z</time>
      </trkpt>
      <trkpt lat="42.43072" lon="2.19713">
        <ele>2295.1</ele>
        <time>2019-01-07T07:35:01Z</time>
      </trkpt>
      <trkpt lat="42.43062" lon="2.19708">
        <ele>2295.1</ele>
        <time>2019-01-07T07:35:03Z</time>
      </trkpt>
      <trkpt lat="42.43053" lon="2.19701">
        <ele>2302</ele>
        <time>2019-01-07T07:35:06Z</time>
      </trkpt>
      <trkpt lat="42.43046" lon="2.19693">
        <ele>2302.1</ele>
        <time>2019-01-07T07:35:09Z</time>
      </trkpt>
      <trkpt lat="42.43038" lon="2.19688">
        <ele>2302</ele>
        <time>2019-01-07T07:35:11Z</time>
      </trkpt>
      <trkpt lat="42.43028" lon="2.19678">
        <ele>2302</ele>
        <time>2019-01-07T07:35:14Z</time>
      </trkpt>
      <trkpt lat="42.43021" lon="2.19668">
        <ele>2304.1</ele>
        <time>2019-01-07T07:35:17Z</time>
      </trkpt>
      <trkpt lat="42.43012" lon="2.19664">
        <ele>2305.1</ele>
        <time>2019-01-07T07:35:20Z</time>
      </trkpt>
      <trkpt lat="42.43003" lon="2.19666">
        <ele>2308</ele>
        <time>2019-01-07T07:35:22Z</time>
      </trkpt>
      <trkpt lat="42.42998" lon="2.19654">
        <ele>2306</ele>
        <time>2019-01-07T07:35:25Z</time>
      </trkpt>
      <trkpt lat="42.42988" lon="2.19654">
        <ele>2310</ele>
        <time>2019-01-07T07:35:27Z</time>
      </trkpt>
      <trkpt lat="42.42978" lon="2.19654">
        <ele>2313.1</ele>
        <time>2019-01-07T07:35:30Z</time>
      </trkpt>
      <trkpt lat="42.42969" lon="2.19651">
        <ele>2315.1</ele>
        <time>2019-01-07T07:35:32Z</time>
      </trkpt>
      <trkpt lat="42.42961" lon="2.19644">
        <ele>2315</ele>
        <time>2019-01-07T07:35:35Z</time>
      </trkpt>
      <trkpt lat="42.42952" lon="2.19635">
        <ele>2315.1</ele>
        <time>2019-01-07T07:35:38Z</time>
      </trkpt>
      <trkpt lat="42.42943" lon="2.19627">
        <ele>2316</ele>
        <time>2019-01-07T07:35:41Z</time>
      </trkpt>
      <trkpt lat="42.42935" lon="2.19621">
        <ele>2320.1</ele>
        <time>2019-01-07T07:35:43Z</time>
      </trkpt>
      <trkpt lat="42.42927" lon="2.19612">
        <ele>2324</ele>
        <time>2019-01-07T07:35:46Z</time>
      </trkpt>
      <trkpt lat="42.42919" lon="2.19605">
        <ele>2326</ele>
        <time>2019-01-07T07:35:49Z</time>
      </trkpt>
      <trkpt lat="42.42911" lon="2.19598">
        <ele>2328.1</ele>
        <time>2019-01-07T07:35:51Z</time>
      </trkpt>
      <trkpt lat="42.42903" lon="2.19592">
        <ele>2330</ele>
        <time>2019-01-07T07:35:54Z</time>
      </trkpt>
      <trkpt lat="42.42894" lon="2.19586">
        <ele>2333</ele>
        <time>2019-01-07T07:35:56Z</time>
      </trkpt>
      <trkpt lat="42.42885" lon="2.19584">
        <ele>2336</ele>
        <time>2019-01-07T07:35:59Z</time>
      </trkpt>
      <trkpt lat="42.42879" lon="2.19574">
        <ele>2335.1</ele>
        <time>2019-01-07T07:36:01Z</time>
      </trkpt>
      <trkpt lat="42.42875" lon="2.19562">
        <ele>2334</ele>
        <time>2019-01-07T07:36:04Z</time>
      </trkpt>
      <trkpt lat="42.42868" lon="2.19549">
        <ele>2334</ele>
        <time>2019-01-07T07:36:07Z</time>
      </trkpt>
      <trkpt lat="42.42859" lon="2.1954">
        <ele>2336.1</ele>
        <time>2019-01-07T07:36:10Z</time>
      </trkpt>
      <trkpt lat="42.42851" lon="2.19533">
        <ele>2336</ele>
        <time>2019-01-07T07:36:13Z</time>
      </trkpt>
      <trkpt lat="42.42839" lon="2.19531">
        <ele>2336</ele>
        <time>2019-01-07T07:36:16Z</time>
      </trkpt>
      <trkpt lat="42.4283" lon="2.19527">
        <ele>2337.1</ele>
        <time>2019-01-07T07:36:18Z</time>
      </trkpt>
      <trkpt lat="42.42821" lon="2.19521">
        <ele>2339</ele>
        <time>2019-01-07T07:36:21Z</time>
      </trkpt>
      <trkpt lat="42.42811" lon="2.19522">
        <ele>2341</ele>
        <time>2019-01-07T07:36:23Z</time>
      </trkpt>
      <trkpt lat="42.42802" lon="2.19519">
        <ele>2343.1</ele>
        <time>2019-01-07T07:36:26Z</time>
      </trkpt>
      <trkpt lat="42.42793" lon="2.19515">
        <ele>2346</ele>
        <time>2019-01-07T07:36:29Z</time>
      </trkpt>
      <trkpt lat="42.42787" lon="2.19505">
        <ele>2347</ele>
        <time>2019-01-07T07:36:31Z</time>
      </trkpt>
      <trkpt lat="42.42777" lon="2.19511">
        <ele>2350</ele>
        <time>2019-01-07T07:36:34Z</time>
      </trkpt>
      <trkpt lat="42.42772" lon="2.19523">
        <ele>2352</ele>
        <time>2019-01-07T07:36:37Z</time>
      </trkpt>
      <trkpt lat="42.42769" lon="2.19536">
        <ele>2350.1</ele>
        <time>2019-01-07T07:36:39Z</time>
      </trkpt>
      <trkpt lat="42.42763" lon="2.19548">
        <ele>2352.1</ele>
        <time>2019-01-07T07:36:42Z</time>
      </trkpt>
      <trkpt lat="42.42755" lon="2.19555">
        <ele>2354.1</ele>
        <time>2019-01-07T07:36:45Z</time>
      </trkpt>
      <trkpt lat="42.42746" lon="2.19564">
        <ele>2357</ele>
        <time>2019-01-07T07:36:48Z</time>
      </trkpt>
      <trkpt lat="42.42738" lon="2.19571">
        <ele>2359.1</ele>
        <time>2019-01-07T07:36:50Z</time>
      </trkpt>
      <trkpt lat="42.42729" lon="2.19577">
        <ele>2361</ele>
        <time>2019-01-07T07:36:53Z</time>
      </trkpt>
      <trkpt lat="42.42721" lon="2.19585">
        <ele>2362</ele>
        <time>2019-01-07T07:36:55Z</time>
      </trkpt>
      <trkpt lat="42.42716" lon="2.19597">
        <ele>2361.1</ele>
        <time>2019-01-07T07:36:58Z</time>
      </trkpt>
      <trkpt lat="42.42706" lon="2.19595">
        <ele>2364</ele>
        <time>2019-01-07T07:37:01Z</time>
      </trkpt>
      <trkpt lat="42.42695" lon="2.19596">
        <ele>2366</ele>
        <time>2019-01-07T07:37:04Z</time>
      </trkpt>
      <trkpt lat="42.42686" lon="2.19595">
        <ele>2367.1</ele>
        <time>2019-01-07T07:37:06Z</time>
      </trkpt>
      <trkpt lat="42.42677" lon="2.19595">
        <ele>2366</ele>
        <time>2019-01-07T07:37:09Z</time>
      </trkpt>
      <trkpt lat="42.42668" lon="2.19593">
        <ele>2367.1</ele>
        <time>2019-01-07T07:37:11Z</time>
      </trkpt>
      <trkpt lat="42.42659" lon="2.19596">
        <ele>2369</ele>
        <time>2019-01-07T07:37:14Z</time>
      </trkpt>
      <trkpt lat="42.42651" lon="2.1959">
        <ele>2372.1</ele>
        <time>2019-01-07T07:37:16Z</time>
      </trkpt>
      <trkpt lat="42.42642" lon="2.19595">
        <ele>2372</ele>
        <time>2019-01-07T07:37:19Z</time>
      </trkpt>
      <trkpt lat="42.42637" lon="2.19608">
        <ele>2370.1</ele>
        <time>2019-01-07T07:37:21Z</time>
      </trkpt>
      <trkpt lat="42.42629" lon="2.19614">
        <ele>2373.1</ele>
        <time>2019-01-07T07:37:24Z</time>
      </trkpt>
      <trkpt lat="42.42618" lon="2.19611">
        <ele>2375.1</ele>
        <time>2019-01-07T07:37:27Z</time>
      </trkpt>
      <trkpt lat="42.4261" lon="2.19615">
        <ele>2377</ele>
        <time>2019-01-07T07:37:29Z</time>
      </trkpt>
      <trkpt lat="42.426" lon="2.19616">
        <ele>2381</ele>
        <time>2019-01-07T07:37:32Z</time>
      </trkpt>
      <trkpt lat="42.42593" lon="2.19625">
        <ele>2386</ele>
        <time>2019-01-07T07:37:34Z</time>
      </trkpt>
      <trkpt lat="42.42586" lon="2.19636">
        <ele>2388.1</ele>
        <time>2019-01-07T07:37:37Z</time>
      </trkpt>
      <trkpt lat="42.42583" lon="2.19648">
        <ele>2390.1</ele>
        <time>2019-01-07T07:37:40Z</time>
      </trkpt>
      <trkpt lat="42.42578" lon="2.19659">
        <ele>2391.1</ele>
        <time>2019-01-07T07:37:42Z</time>
      </trkpt>
      <trkpt lat="42.42578" lon="2.19672">
        <ele>2392.1</ele>
        <time>2019-01-07T07:37:45Z</time>
      </trkpt>
      <trkpt lat="42.42576" lon="2.19684">
        <ele>2395</ele>
        <time>2019-01-07T07:37:47Z</time>
      </trkpt>
      <trkpt lat="42.42572" lon="2.19696">
        <ele>2396.1</ele>
        <time>2019-01-07T07:37:50Z</time>
      </trkpt>
      <trkpt lat="42.42567" lon="2.19706">
        <ele>2396.1</ele>
        <time>2019-01-07T07:37:52Z</time>
      </trkpt>
      <trkpt lat="42.42561" lon="2.19718">
        <ele>2396</ele>
        <time>2019-01-07T07:37:55Z</time>
      </trkpt>
      <trkpt lat="42.42556" lon="2.19729">
        <ele>2399.1</ele>
        <time>2019-01-07T07:37:58Z</time>
      </trkpt>
      <trkpt lat="42.42551" lon="2.1974">
        <ele>2401</ele>
        <time>2019-01-07T07:38:00Z</time>
      </trkpt>
      <trkpt lat="42.42546" lon="2.1975">
        <ele>2403</ele>
        <time>2019-01-07T07:38:03Z</time>
      </trkpt>
      <trkpt lat="42.4254" lon="2.19761">
        <ele>2403</ele>
        <time>2019-01-07T07:38:05Z</time>
      </trkpt>
      <trkpt lat="42.42541" lon="2.19774">
        <ele>2403</ele>
        <time>2019-01-07T07:38:08Z</time>
      </trkpt>
      <trkpt lat="42.42538" lon="2.19786">
        <ele>2404.1</ele>
        <time>2019-01-07T07:38:11Z</time>
      </trkpt>
      <trkpt lat="42.42533" lon="2.19797">
        <ele>2404.1</ele>
        <time>2019-01-07T07:38:13Z</time>
      </trkpt>
      <trkpt lat="42.42528" lon="2.1981">
        <ele>2405.1</ele>
        <time>2019-01-07T07:38:16Z</time>
      </trkpt>
      <trkpt lat="42.42521" lon="2.19821">
        <ele>2408</ele>
        <time>2019-01-07T07:38:19Z</time>
      </trkpt>
      <trkpt lat="42.42512" lon="2.19827">
        <ele>2409.1</ele>
        <time>2019-01-07T07:38:21Z</time>
      </trkpt>
      <trkpt lat="42.42503" lon="2.19833">
        <ele>2410</ele>
        <time>2019-01-07T07:38:24Z</time>
      </trkpt>
      <trkpt lat="42.42494" lon="2.19837">
        <ele>2412</ele>
        <time>2019-01-07T07:38:27Z</time>
      </trkpt>
      <trkpt lat="42.42484" lon="2.19839">
        <ele>2416.1</ele>
        <time>2019-01-07T07:38:29Z</time>
      </trkpt>
      <trkpt lat="42.42472" lon="2.19834">
        <ele>2416.1</ele>
        <time>2019-01-07T07:38:33Z</time>
      </trkpt>
      <trkpt lat="42.42478" lon="2.19844">
        <ele>2416</ele>
        <time>2019-01-07T07:38:35Z</time>
      </trkpt>
      <trkpt lat="42.42473" lon="2.1983">
        <ele>2416</ele>
        <time>2019-01-07T07:38:38Z</time>
      </trkpt>
      <trkpt lat="42.42482" lon="2.19834">
        <ele>2412</ele>
        <time>2019-01-07T07:38:40Z</time>
      </trkpt>
      <trkpt lat="42.42492" lon="2.19835">
        <ele>2412.1</ele>
        <time>2019-01-07T07:38:43Z</time>
      </trkpt>
      <trkpt lat="42.42488" lon="2.19848">
        <ele>2414</ele>
        <time>2019-01-07T07:38:46Z</time>
      </trkpt>
      <trkpt lat="42.42485" lon="2.19859">
        <ele>2419</ele>
        <time>2019-01-07T07:38:48Z</time>
      </trkpt>
      <trkpt lat="42.42479" lon="2.19871">
        <ele>2420</ele>
        <time>2019-01-07T07:38:51Z</time>
      </trkpt>
      <trkpt lat="42.42471" lon="2.19883">
        <ele>2422.1</ele>
        <time>2019-01-07T07:38:54Z</time>
      </trkpt>
      <trkpt lat="42.42463" lon="2.19893">
        <ele>2422</ele>
        <time>2019-01-07T07:38:57Z</time>
      </trkpt>
      <trkpt lat="42.42452" lon="2.19901">
        <ele>2424</ele>
        <time>2019-01-07T07:39:01Z</time>
      </trkpt>
      <trkpt lat="42.42443" lon="2.19906">
        <ele>2425.1</ele>
        <time>2019-01-07T07:39:03Z</time>
      </trkpt>
      <trkpt lat="42.42436" lon="2.19912">
        <ele>2425.1</ele>
        <time>2019-01-07T07:39:05Z</time>
      </trkpt>
      <trkpt lat="42.42429" lon="2.19924">
        <ele>2429</ele>
        <time>2019-01-07T07:39:08Z</time>
      </trkpt>
      <trkpt lat="42.42425" lon="2.19935">
        <ele>2433</ele>
        <time>2019-01-07T07:39:11Z</time>
      </trkpt>
      <trkpt lat="42.42426" lon="2.19949">
        <ele>2439.1</ele>
        <time>2019-01-07T07:39:14Z</time>
      </trkpt>
      <trkpt lat="42.42431" lon="2.19959">
        <ele>2442</ele>
        <time>2019-01-07T07:39:16Z</time>
      </trkpt>
      <trkpt lat="42.42433" lon="2.19971">
        <ele>2446</ele>
        <time>2019-01-07T07:39:18Z</time>
      </trkpt>
      <trkpt lat="42.42442" lon="2.19976">
        <ele>2450</ele>
        <time>2019-01-07T07:39:21Z</time>
      </trkpt>
      <trkpt lat="42.42446" lon="2.19987">
        <ele>2453</ele>
        <time>2019-01-07T07:39:23Z</time>
      </trkpt>
      <trkpt lat="42.42437" lon="2.19991">
        <ele>2452.1</ele>
        <time>2019-01-07T07:39:26Z</time>
      </trkpt>
      <trkpt lat="42.42436" lon="2.20003">
        <ele>2454</ele>
        <time>2019-01-07T07:39:28Z</time>
      </trkpt>
      <trkpt lat="42.42434" lon="2.20015">
        <ele>2455.1</ele>
        <time>2019-01-07T07:39:31Z</time>
      </trkpt>
      <trkpt lat="42.42426" lon="2.20024">
        <ele>2453</ele>
        <time>2019-01-07T07:39:33Z</time>
      </trkpt>
      <trkpt lat="42.42422" lon="2.20035">
        <ele>2453.1</ele>
        <time>2019-01-07T07:39:36Z</time>
      </trkpt>
      <trkpt lat="42.42426" lon="2.20047">
        <ele>2459</ele>
        <time>2019-01-07T07:39:38Z</time>
      </trkpt>
      <trkpt lat="42.42427" lon="2.2006">
        <ele>2463</ele>
        <time>2019-01-07T07:39:41Z</time>
      </trkpt>
      <trkpt lat="42.42434" lon="2.20068">
        <ele>2467.1</ele>
        <time>2019-01-07T07:39:43Z</time>
      </trkpt>
      <trkpt lat="42.42428" lon="2.20078">
        <ele>2467.1</ele>
        <time>2019-01-07T07:39:46Z</time>
      </trkpt>
      <trkpt lat="42.42425" lon="2.20092">
        <ele>2469.1</ele>
        <time>2019-01-07T07:39:49Z</time>
      </trkpt>
      <trkpt lat="42.42423" lon="2.20104">
        <ele>2471</ele>
        <time>2019-01-07T07:39:51Z</time>
      </trkpt>
      <trkpt lat="42.4242" lon="2.20116">
        <ele>2473.1</ele>
        <time>2019-01-07T07:39:54Z</time>
      </trkpt>
      <trkpt lat="42.42418" lon="2.2013">
        <ele>2479.1</ele>
        <time>2019-01-07T07:39:57Z</time>
      </trkpt>
      <trkpt lat="42.42417" lon="2.20143">
        <ele>2483</ele>
        <time>2019-01-07T07:39:59Z</time>
      </trkpt>
      <trkpt lat="42.42418" lon="2.20156">
        <ele>2483.1</ele>
        <time>2019-01-07T07:40:02Z</time>
      </trkpt>
      <trkpt lat="42.42418" lon="2.20169">
        <ele>2485.1</ele>
        <time>2019-01-07T07:40:04Z</time>
      </trkpt>
      <trkpt lat="42.42421" lon="2.20181">
        <ele>2492</ele>
        <time>2019-01-07T07:40:07Z</time>
      </trkpt>
      <trkpt lat="42.42418" lon="2.20194">
        <ele>2498</ele>
        <time>2019-01-07T07:40:09Z</time>
      </trkpt>
      <trkpt lat="42.42416" lon="2.20208">
        <ele>2500</ele>
        <time>2019-01-07T07:40:12Z</time>
      </trkpt>
      <trkpt lat="42.42408" lon="2.20215">
        <ele>2500.1</ele>
        <time>2019-01-07T07:40:15Z</time>
      </trkpt>
      <trkpt lat="42.424" lon="2.20226">
        <ele>2500.1</ele>
        <time>2019-01-07T07:40:18Z</time>
      </trkpt>
      <trkpt lat="42.42392" lon="2.20234">
        <ele>2500.1</ele>
        <time>2019-01-07T07:40:21Z</time>
      </trkpt>
      <trkpt lat="42.42388" lon="2.20245">
        <ele>2503.1</ele>
        <time>2019-01-07T07:40:23Z</time>
      </trkpt>
      <trkpt lat="42.42387" lon="2.20259">
        <ele>2506</ele>
        <time>2019-01-07T07:40:26Z</time>
      </trkpt>
      <trkpt lat="42.42388" lon="2.20273">
        <ele>2509</ele>
        <time>2019-01-07T07:40:29Z</time>
      </trkpt>
      <trkpt lat="42.42384" lon="2.20284">
        <ele>2510.1</ele>
        <time>2019-01-07T07:40:31Z</time>
      </trkpt>
      <trkpt lat="42.4238" lon="2.20296">
        <ele>2510</ele>
        <time>2019-01-07T07:40:34Z</time>
      </trkpt>
      <trkpt lat="42.4237" lon="2.20299">
        <ele>2510.1</ele>
        <time>2019-01-07T07:40:36Z</time>
      </trkpt>
      <trkpt lat="42.4236" lon="2.20297">
        <ele>2510</ele>
        <time>2019-01-07T07:40:39Z</time>
      </trkpt>
      <trkpt lat="42.42351" lon="2.20298">
        <ele>2510</ele>
        <time>2019-01-07T07:40:41Z</time>
      </trkpt>
      <trkpt lat="42.42342" lon="2.20304">
        <ele>2510</ele>
        <time>2019-01-07T07:40:44Z</time>
      </trkpt>
      <trkpt lat="42.42333" lon="2.20302">
        <ele>2511.1</ele>
        <time>2019-01-07T07:40:46Z</time>
      </trkpt>
      <trkpt lat="42.42324" lon="2.20299">
        <ele>2513.1</ele>
        <time>2019-01-07T07:40:49Z</time>
      </trkpt>
      <trkpt lat="42.42315" lon="2.20288">
        <ele>2515</ele>
        <time>2019-01-07T07:40:52Z</time>
      </trkpt>
      <trkpt lat="42.42305" lon="2.20285">
        <ele>2518.1</ele>
        <time>2019-01-07T07:40:55Z</time>
      </trkpt>
      <trkpt lat="42.42294" lon="2.2029">
        <ele>2520</ele>
        <time>2019-01-07T07:40:58Z</time>
      </trkpt>
      <trkpt lat="42.42284" lon="2.20288">
        <ele>2522</ele>
        <time>2019-01-07T07:41:01Z</time>
      </trkpt>
      <trkpt lat="42.4228" lon="2.20277">
        <ele>2522.1</ele>
        <time>2019-01-07T07:41:03Z</time>
      </trkpt>
      <trkpt lat="42.42289" lon="2.20272">
        <ele>2519</ele>
        <time>2019-01-07T07:41:06Z</time>
      </trkpt>
      <trkpt lat="42.42288" lon="2.20256">
        <ele>2516.1</ele>
        <time>2019-01-07T07:41:09Z</time>
      </trkpt>
      <trkpt lat="42.42278" lon="2.20257">
        <ele>2519</ele>
        <time>2019-01-07T07:41:11Z</time>
      </trkpt>
      <trkpt lat="42.42269" lon="2.20266">
        <ele>2523</ele>
        <time>2019-01-07T07:41:14Z</time>
      </trkpt>
      <trkpt lat="42.42258" lon="2.20267">
        <ele>2525</ele>
        <time>2019-01-07T07:41:17Z</time>
      </trkpt>
      <trkpt lat="42.4225" lon="2.20261">
        <ele>2528</ele>
        <time>2019-01-07T07:41:20Z</time>
      </trkpt>
      <trkpt lat="42.42243" lon="2.20252">
        <ele>2534.1</ele>
        <time>2019-01-07T07:41:22Z</time>
      </trkpt>
      <trkpt lat="42.42234" lon="2.20256">
        <ele>2537.1</ele>
        <time>2019-01-07T07:41:25Z</time>
      </trkpt>
      <trkpt lat="42.42225" lon="2.20251">
        <ele>2543.1</ele>
        <time>2019-01-07T07:41:27Z</time>
      </trkpt>
      <trkpt lat="42.42215" lon="2.20251">
        <ele>2548</ele>
        <time>2019-01-07T07:41:30Z</time>
      </trkpt>
      <trkpt lat="42.42219" lon="2.20239">
        <ele>2554</ele>
        <time>2019-01-07T07:41:33Z</time>
      </trkpt>
      <trkpt lat="42.4221" lon="2.20248">
        <ele>2557</ele>
        <time>2019-01-07T07:41:36Z</time>
      </trkpt>
      <trkpt lat="42.42201" lon="2.20251">
        <ele>2563.1</ele>
        <time>2019-01-07T07:41:38Z</time>
      </trkpt>
      <trkpt lat="42.42202" lon="2.20238">
        <ele>2569</ele>
        <time>2019-01-07T07:41:41Z</time>
      </trkpt>
      <trkpt lat="42.42201" lon="2.20224">
        <ele>2575</ele>
        <time>2019-01-07T07:41:44Z</time>
      </trkpt>
      <trkpt lat="42.42192" lon="2.20227">
        <ele>2570</ele>
        <time>2019-01-07T07:41:46Z</time>
      </trkpt>
      <trkpt lat="42.42199" lon="2.20215">
        <ele>2571</ele>
        <time>2019-01-07T07:41:49Z</time>
      </trkpt>
      <trkpt lat="42.4219" lon="2.20217">
        <ele>2569</ele>
        <time>2019-01-07T07:41:52Z</time>
      </trkpt>
      <trkpt lat="42.42182" lon="2.2021">
        <ele>2575</ele>
        <time>2019-01-07T07:41:54Z</time>
      </trkpt>
      <trkpt lat="42.42174" lon="2.20202">
        <ele>2580</ele>
        <time>2019-01-07T07:41:57Z</time>
      </trkpt>
      <trkpt lat="42.42171" lon="2.20215">
        <ele>2582</ele>
        <time>2019-01-07T07:42:00Z</time>
      </trkpt>
      <trkpt lat="42.42165" lon="2.20226">
        <ele>2586.1</ele>
        <time>2019-01-07T07:42:02Z</time>
      </trkpt>
      <trkpt lat="42.42158" lon="2.20235">
        <ele>2590.1</ele>
        <time>2019-01-07T07:42:05Z</time>
      </trkpt>
      <trkpt lat="42.42151" lon="2.20246">
        <ele>2593</ele>
        <time>2019-01-07T07:42:08Z</time>
      </trkpt>
      <trkpt lat="42.42142" lon="2.20245">
        <ele>2597.1</ele>
        <time>2019-01-07T07:42:10Z</time>
      </trkpt>
      <trkpt lat="42.42136" lon="2.20235">
        <ele>2600</ele>
        <time>2019-01-07T07:42:13Z</time>
      </trkpt>
      <trkpt lat="42.42126" lon="2.20235">
        <ele>2602.1</ele>
        <time>2019-01-07T07:42:15Z</time>
      </trkpt>
      <trkpt lat="42.42117" lon="2.20237">
        <ele>2605</ele>
        <time>2019-01-07T07:42:18Z</time>
      </trkpt>
      <trkpt lat="42.42106" lon="2.20234">
        <ele>2604</ele>
        <time>2019-01-07T07:42:21Z</time>
      </trkpt>
      <trkpt lat="42.421" lon="2.20223">
        <ele>2602.1</ele>
        <time>2019-01-07T07:42:24Z</time>
      </trkpt>
      <trkpt lat="42.42096" lon="2.20211">
        <ele>2600</ele>
        <time>2019-01-07T07:42:26Z</time>
      </trkpt>
      <trkpt lat="42.42094" lon="2.20199">
        <ele>2597.1</ele>
        <time>2019-01-07T07:42:29Z</time>
      </trkpt>
      <trkpt lat="42.42086" lon="2.20188">
        <ele>2593</ele>
        <time>2019-01-07T07:42:31Z</time>
      </trkpt>
      <trkpt lat="42.42087" lon="2.20175">
        <ele>2594</ele>
        <time>2019-01-07T07:42:34Z</time>
      </trkpt>
      <trkpt lat="42.42095" lon="2.20166">
        <ele>2594.1</ele>
        <time>2019-01-07T07:42:37Z</time>
      </trkpt>
      <trkpt lat="42.42085" lon="2.20158">
        <ele>2593</ele>
        <time>2019-01-07T07:42:40Z</time>
      </trkpt>
      <trkpt lat="42.42079" lon="2.20147">
        <ele>2591.1</ele>
        <time>2019-01-07T07:42:43Z</time>
      </trkpt>
      <trkpt lat="42.42071" lon="2.20141">
        <ele>2589.1</ele>
        <time>2019-01-07T07:42:45Z</time>
      </trkpt>
      <trkpt lat="42.42061" lon="2.20135">
        <ele>2588</ele>
        <time>2019-01-07T07:42:48Z</time>
      </trkpt>
      <trkpt lat="42.42051" lon="2.20134">
        <ele>2587</ele>
        <time>2019-01-07T07:42:51Z</time>
      </trkpt>
      <trkpt lat="42.42041" lon="2.20132">
        <ele>2587</ele>
        <time>2019-01-07T07:42:54Z</time>
      </trkpt>
      <trkpt lat="42.42031" lon="2.20129">
        <ele>2588.1</ele>
        <time>2019-01-07T07:42:56Z</time>
      </trkpt>
      <trkpt lat="42.42025" lon="2.20119">
        <ele>2590.1</ele>
        <time>2019-01-07T07:42:59Z</time>
      </trkpt>
      <trkpt lat="42.42023" lon="2.20106">
        <ele>2595.1</ele>
        <time>2019-01-07T07:43:01Z</time>
      </trkpt>
      <trkpt lat="42.42023" lon="2.20093">
        <ele>2601.1</ele>
        <time>2019-01-07T07:43:04Z</time>
      </trkpt>
      <trkpt lat="42.42015" lon="2.20085">
        <ele>2602.1</ele>
        <time>2019-01-07T07:43:06Z</time>
      </trkpt>
      <trkpt lat="42.42009" lon="2.20075">
        <ele>2607.1</ele>
        <time>2019-01-07T07:43:09Z</time>
      </trkpt>
      <trkpt lat="42.41999" lon="2.20075">
        <ele>2605</ele>
        <time>2019-01-07T07:43:12Z</time>
      </trkpt>
      <trkpt lat="42.41989" lon="2.2007">
        <ele>2609.1</ele>
        <time>2019-01-07T07:43:15Z</time>
      </trkpt>
      <trkpt lat="42.41978" lon="2.2007">
        <ele>2611.1</ele>
        <time>2019-01-07T07:43:17Z</time>
      </trkpt>
      <trkpt lat="42.41968" lon="2.20055">
        <ele>2616.1</ele>
        <time>2019-01-07T07:43:21Z</time>
      </trkpt>
      <trkpt lat="42.41953" lon="2.20055">
        <ele>2618</ele>
        <time>2019-01-07T07:43:25Z</time>
      </trkpt>
      <trkpt lat="42.41961" lon="2.20042">
        <ele>2620</ele>
        <time>2019-01-07T07:43:29Z</time>
      </trkpt>
      <trkpt lat="42.41968" lon="2.20033">
        <ele>2626.1</ele>
        <time>2019-01-07T07:43:31Z</time>
      </trkpt>
      <trkpt lat="42.41964" lon="2.20022">
        <ele>2627</ele>
        <time>2019-01-07T07:43:34Z</time>
      </trkpt>
      <trkpt lat="42.41973" lon="2.20027">
        <ele>2628</ele>
        <time>2019-01-07T07:43:36Z</time>
      </trkpt>
      <trkpt lat="42.4198" lon="2.20018">
        <ele>2633</ele>
        <time>2019-01-07T07:43:39Z</time>
      </trkpt>
      <trkpt lat="42.41989" lon="2.20021">
        <ele>2634</ele>
        <time>2019-01-07T07:43:41Z</time>
      </trkpt>
      <trkpt lat="42.41998" lon="2.2002">
        <ele>2637.1</ele>
        <time>2019-01-07T07:43:44Z</time>
      </trkpt>
      <trkpt lat="42.42007" lon="2.20013">
        <ele>2641</ele>
        <time>2019-01-07T07:43:47Z</time>
      </trkpt>
      <trkpt lat="42.42016" lon="2.20012">
        <ele>2645.1</ele>
        <time>2019-01-07T07:43:49Z</time>
      </trkpt>
      <trkpt lat="42.42016" lon="2.19998">
        <ele>2651.1</ele>
        <time>2019-01-07T07:43:52Z</time>
      </trkpt>
      <trkpt lat="42.42013" lon="2.19986">
        <ele>2657</ele>
        <time>2019-01-07T07:43:54Z</time>
      </trkpt>
      <trkpt lat="42.42005" lon="2.19978">
        <ele>2658</ele>
        <time>2019-01-07T07:43:57Z</time>
      </trkpt>
      <trkpt lat="42.41996" lon="2.19976">
        <ele>2658</ele>
        <time>2019-01-07T07:44:00Z</time>
      </trkpt>
      <trkpt lat="42.41997" lon="2.19961">
        <ele>2662.1</ele>
        <time>2019-01-07T07:44:02Z</time>
      </trkpt>
      <trkpt lat="42.41998" lon="2.19949">
        <ele>2666</ele>
        <time>2019-01-07T07:44:05Z</time>
      </trkpt>
      <trkpt lat="42.41995" lon="2.19937">
        <ele>2669</ele>
        <time>2019-01-07T07:44:07Z</time>
      </trkpt>
      <trkpt lat="42.41988" lon="2.19928">
        <ele>2671.1</ele>
        <time>2019-01-07T07:44:10Z</time>
      </trkpt>
      <trkpt lat="42.41981" lon="2.1992">
        <ele>2673.1</ele>
        <time>2019-01-07T07:44:12Z</time>
      </trkpt>
      <trkpt lat="42.41972" lon="2.19913">
        <ele>2675.1</ele>
        <time>2019-01-07T07:44:15Z</time>
      </trkpt>
      <trkpt lat="42.41963" lon="2.19917">
        <ele>2676</ele>
        <time>2019-01-07T07:44:18Z</time>
      </trkpt>
      <trkpt lat="42.41954" lon="2.19918">
        <ele>2678</ele>
        <time>2019-01-07T07:44:20Z</time>
      </trkpt>
      <trkpt lat="42.41943" lon="2.19923">
        <ele>2680</ele>
        <time>2019-01-07T07:44:23Z</time>
      </trkpt>
      <trkpt lat="42.41929" lon="2.19921">
        <ele>2683.1</ele>
        <time>2019-01-07T07:44:27Z</time>
      </trkpt>
      <trkpt lat="42.4192" lon="2.19918">
        <ele>2686</ele>
        <time>2019-01-07T07:44:29Z</time>
      </trkpt>
      <trkpt lat="42.4191" lon="2.19919">
        <ele>2686</ele>
        <time>2019-01-07T07:44:32Z</time>
      </trkpt>
      <trkpt lat="42.419" lon="2.19924">
        <ele>2686.1</ele>
        <time>2019-01-07T07:44:35Z</time>
      </trkpt>
      <trkpt lat="42.4189" lon="2.19926">
        <ele>2685.1</ele>
        <time>2019-01-07T07:44:38Z</time>
      </trkpt>
      <trkpt lat="42.41878" lon="2.19927">
        <ele>2685</ele>
        <time>2019-01-07T07:44:41Z</time>
      </trkpt>
      <trkpt lat="42.41888" lon="2.1993">
        <ele>2684.1</ele>
        <time>2019-01-07T07:44:43Z</time>
      </trkpt>
      <trkpt lat="42.41881" lon="2.19922">
        <ele>2687.1</ele>
        <time>2019-01-07T07:44:46Z</time>
      </trkpt>
      <trkpt lat="42.41878" lon="2.1991">
        <ele>2690.1</ele>
        <time>2019-01-07T07:44:48Z</time>
      </trkpt>
      <trkpt lat="42.41874" lon="2.19895">
        <ele>2693</ele>
        <time>2019-01-07T07:44:51Z</time>
      </trkpt>
      <trkpt lat="42.41873" lon="2.19881">
        <ele>2693</ele>
        <time>2019-01-07T07:44:54Z</time>
      </trkpt>
      <trkpt lat="42.41872" lon="2.19868">
        <ele>2692</ele>
        <time>2019-01-07T07:44:57Z</time>
      </trkpt>
      <trkpt lat="42.41872" lon="2.19853">
        <ele>2692</ele>
        <time>2019-01-07T07:45:00Z</time>
      </trkpt>
      <trkpt lat="42.41875" lon="2.1984">
        <ele>2693</ele>
        <time>2019-01-07T07:45:02Z</time>
      </trkpt>
      <trkpt lat="42.41878" lon="2.19827">
        <ele>2694</ele>
        <time>2019-01-07T07:45:05Z</time>
      </trkpt>
      <trkpt lat="42.41878" lon="2.19815">
        <ele>2694.1</ele>
        <time>2019-01-07T07:45:07Z</time>
      </trkpt>
      <trkpt lat="42.41882" lon="2.19801">
        <ele>2694</ele>
        <time>2019-01-07T07:45:10Z</time>
      </trkpt>
      <trkpt lat="42.41883" lon="2.19788">
        <ele>2695</ele>
        <time>2019-01-07T07:45:13Z</time>
      </trkpt>
      <trkpt lat="42.41881" lon="2.19801">
        <ele>2694.1</ele>
        <time>2019-01-07T07:45:15Z</time>
      </trkpt>
      <trkpt lat="42.41883" lon="2.19789">
        <ele>2695.1</ele>
        <time>2019-01-07T07:45:18Z</time>
      </trkpt>
      <trkpt lat="42.41879" lon="2.19775">
        <ele>2697</ele>
        <time>2019-01-07T07:45:21Z</time>
      </trkpt>
      <trkpt lat="42.41876" lon="2.19763">
        <ele>2699.1</ele>
        <time>2019-01-07T07:45:23Z</time>
      </trkpt>
      <trkpt lat="42.41877" lon="2.19749">
        <ele>2700.1</ele>
        <time>2019-01-07T07:45:26Z</time>
      </trkpt>
      <trkpt lat="42.41876" lon="2.19736">
        <ele>2701.1</ele>
        <time>2019-01-07T07:45:29Z</time>
      </trkpt>
      <trkpt lat="42.41872" lon="2.19725">
        <ele>2702.1</ele>
        <time>2019-01-07T07:45:31Z</time>
      </trkpt>
      <trkpt lat="42.41872" lon="2.19712">
        <ele>2702</ele>
        <time>2019-01-07T07:45:34Z</time>
      </trkpt>
      <trkpt lat="42.41871" lon="2.19699">
        <ele>2703</ele>
        <time>2019-01-07T07:45:36Z</time>
      </trkpt>
      <trkpt lat="42.4187" lon="2.19686">
        <ele>2704</ele>
        <time>2019-01-07T07:45:39Z</time>
      </trkpt>
      <trkpt lat="42.41869" lon="2.19673">
        <ele>2704.1</ele>
        <time>2019-01-07T07:45:41Z</time>
      </trkpt>
      <trkpt lat="42.41864" lon="2.19663">
        <ele>2706.1</ele>
        <time>2019-01-07T07:45:44Z</time>
      </trkpt>
      <trkpt lat="42.41859" lon="2.19653">
        <ele>2709.1</ele>
        <time>2019-01-07T07:45:46Z</time>
      </trkpt>
      <trkpt lat="42.41855" lon="2.1964">
        <ele>2711.1</ele>
        <time>2019-01-07T07:45:49Z</time>
      </trkpt>
      <trkpt lat="42.41852" lon="2.19628">
        <ele>2712</ele>
        <time>2019-01-07T07:45:51Z</time>
      </trkpt>
      <trkpt lat="42.41849" lon="2.19615">
        <ele>2713.1</ele>
        <time>2019-01-07T07:45:54Z</time>
      </trkpt>
      <trkpt lat="42.41848" lon="2.19603">
        <ele>2715</ele>
        <time>2019-01-07T07:45:56Z</time>
      </trkpt>
      <trkpt lat="42.41844" lon="2.19592">
        <ele>2718.1</ele>
        <time>2019-01-07T07:45:59Z</time>
      </trkpt>
      <trkpt lat="42.41841" lon="2.19579">
        <ele>2720</ele>
        <time>2019-01-07T07:46:01Z</time>
      </trkpt>
      <trkpt lat="42.41839" lon="2.19567">
        <ele>2723</ele>
        <time>2019-01-07T07:46:04Z</time>
      </trkpt>
      <trkpt lat="42.41838" lon="2.19554">
        <ele>2726</ele>
        <time>2019-01-07T07:46:06Z</time>
      </trkpt>
      <trkpt lat="42.41833" lon="2.19543">
        <ele>2728.1</ele>
        <time>2019-01-07T07:46:09Z</time>
      </trkpt>
      <trkpt lat="42.41825" lon="2.19549">
        <ele>2727</ele>
        <time>2019-01-07T07:46:11Z</time>
      </trkpt>
      <trkpt lat="42.41819" lon="2.1956">
        <ele>2728</ele>
        <time>2019-01-07T07:46:14Z</time>
      </trkpt>
      <trkpt lat="42.41814" lon="2.19572">
        <ele>2730</ele>
        <time>2019-01-07T07:46:17Z</time>
      </trkpt>
      <trkpt lat="42.41809" lon="2.19584">
        <ele>2733.1</ele>
        <time>2019-01-07T07:46:19Z</time>
      </trkpt>
      <trkpt lat="42.41805" lon="2.19596">
        <ele>2734</ele>
        <time>2019-01-07T07:46:22Z</time>
      </trkpt>
      <trkpt lat="42.41803" lon="2.19608">
        <ele>2734</ele>
        <time>2019-01-07T07:46:25Z</time>
      </trkpt>
      <trkpt lat="42.41799" lon="2.19619">
        <ele>2735.1</ele>
        <time>2019-01-07T07:46:27Z</time>
      </trkpt>
      <trkpt lat="42.41791" lon="2.19628">
        <ele>2737.1</ele>
        <time>2019-01-07T07:46:30Z</time>
      </trkpt>
      <trkpt lat="42.41788" lon="2.1964">
        <ele>2739</ele>
        <time>2019-01-07T07:46:32Z</time>
      </trkpt>
      <trkpt lat="42.41784" lon="2.19653">
        <ele>2743</ele>
        <time>2019-01-07T07:46:35Z</time>
      </trkpt>
      <trkpt lat="42.41781" lon="2.19665">
        <ele>2746</ele>
        <time>2019-01-07T07:46:37Z</time>
      </trkpt>
      <trkpt lat="42.41777" lon="2.19677">
        <ele>2748</ele>
        <time>2019-01-07T07:46:40Z</time>
      </trkpt>
      <trkpt lat="42.41772" lon="2.19687">
        <ele>2748.1</ele>
        <time>2019-01-07T07:46:42Z</time>
      </trkpt>
      <trkpt lat="42.41828" lon="2.1947">
        <ele>2726.9</ele>
        <time>2019-01-07T08:49:50Z</time>
      </trkpt>
      <trkpt lat="42.41831" lon="2.1946">
        <ele>2729.7</ele>
        <time>2019-01-07T08:49:52Z</time>
      </trkpt>
      <trkpt lat="42.41834" lon="2.19451">
        <ele>2731.6</ele>
        <time>2019-01-07T08:49:53Z</time>
      </trkpt>
      <trkpt lat="42.41839" lon="2.19417">
        <ele>2734.1</ele>
        <time>2019-01-07T08:50:00Z</time>
      </trkpt>
      <trkpt lat="42.4184" lon="2.19389">
        <ele>2740.3</ele>
        <time>2019-01-07T08:50:06Z</time>
      </trkpt>
      <trkpt lat="42.41838" lon="2.19353">
        <ele>2745.5</ele>
        <time>2019-01-07T08:50:13Z</time>
      </trkpt>
      <trkpt lat="42.41834" lon="2.19312">
        <ele>2750.4</ele>
        <time>2019-01-07T08:50:21Z</time>
      </trkpt>
      <trkpt lat="42.41834" lon="2.19281">
        <ele>2756.3</ele>
        <time>2019-01-07T08:50:27Z</time>
      </trkpt>
      <trkpt lat="42.41833" lon="2.19245">
        <ele>2765</ele>
        <time>2019-01-07T08:50:34Z</time>
      </trkpt>
      <trkpt lat="42.41832" lon="2.19221">
        <ele>2769.2</ele>
        <time>2019-01-07T08:50:39Z</time>
      </trkpt>
      <trkpt lat="42.41827" lon="2.19197">
        <ele>2773.8</ele>
        <time>2019-01-07T08:50:44Z</time>
      </trkpt>
      <trkpt lat="42.41825" lon="2.19188">
        <ele>2775.7</ele>
        <time>2019-01-07T08:50:46Z</time>
      </trkpt>
      <trkpt lat="42.41817" lon="2.19135">
        <ele>2786.7</ele>
        <time>2019-01-07T08:50:56Z</time>
      </trkpt>
      <trkpt lat="42.41796" lon="2.19086">
        <ele>2796.4</ele>
        <time>2019-01-07T08:51:08Z</time>
      </trkpt>
      <trkpt lat="42.4178" lon="2.19083">
        <ele>2799.4</ele>
        <time>2019-01-07T08:51:12Z</time>
      </trkpt>
      <trkpt lat="42.41734" lon="2.19047">
        <ele>2801.1</ele>
        <time>2019-01-07T08:51:26Z</time>
      </trkpt>
      <trkpt lat="42.41733" lon="2.19046">
        <ele>2801</ele>
        <time>2019-01-07T08:51:26Z</time>
      </trkpt>
      <trkpt lat="42.41729" lon="2.1905">
        <ele>2801.3</ele>
        <time>2019-01-07T08:51:28Z</time>
      </trkpt>
      <trkpt lat="42.41733" lon="2.19017">
        <ele>2795.8</ele>
        <time>2019-01-07T08:51:34Z</time>
      </trkpt>
      <trkpt lat="42.41747" lon="2.18969">
        <ele>2792.1</ele>
        <time>2019-01-07T08:51:44Z</time>
      </trkpt>
      <trkpt lat="42.41755" lon="2.18969">
        <ele>2791.4</ele>
        <time>2019-01-07T08:51:47Z</time>
      </trkpt>
      <trkpt lat="42.41753" lon="2.18963">
        <ele>2792.2</ele>
        <time>2019-01-07T08:51:48Z</time>
      </trkpt>
      <trkpt lat="42.41751" lon="2.18956">
        <ele>2792.7</ele>
        <time>2019-01-07T08:51:49Z</time>
      </trkpt>
      <trkpt lat="42.41755" lon="2.18873">
        <ele>2782.1</ele>
        <time>2019-01-07T08:52:06Z</time>
      </trkpt>
      <trkpt lat="42.41757" lon="2.18851">
        <ele>2777.2</ele>
        <time>2019-01-07T08:52:10Z</time>
      </trkpt>
      <trkpt lat="42.41772" lon="2.18794">
        <ele>2770.7</ele>
        <time>2019-01-07T08:52:22Z</time>
      </trkpt>
      <trkpt lat="42.41777" lon="2.18697">
        <ele>2779</ele>
        <time>2019-01-07T08:52:41Z</time>
      </trkpt>
      <trkpt lat="42.41784" lon="2.18667">
        <ele>2778.7</ele>
        <time>2019-01-07T08:52:47Z</time>
      </trkpt>
      <trkpt lat="42.4179" lon="2.18647">
        <ele>2775.9</ele>
        <time>2019-01-07T08:52:52Z</time>
      </trkpt>
      <trkpt lat="42.41811" lon="2.18582">
        <ele>2775.9</ele>
        <time>2019-01-07T08:53:06Z</time>
      </trkpt>
      <trkpt lat="42.41832" lon="2.18546">
        <ele>2775.4</ele>
        <time>2019-01-07T08:53:15Z</time>
      </trkpt>
      <trkpt lat="42.41873" lon="2.18514">
        <ele>2774.3</ele>
        <time>2019-01-07T08:53:27Z</time>
      </trkpt>
      <trkpt lat="42.41902" lon="2.18479">
        <ele>2780.1</ele>
        <time>2019-01-07T08:53:38Z</time>
      </trkpt>
      <trkpt lat="42.41922" lon="2.18461">
        <ele>2785.3</ele>
        <time>2019-01-07T08:53:44Z</time>
      </trkpt>
      <trkpt lat="42.41924" lon="2.18458">
        <ele>2786.1</ele>
        <time>2019-01-07T08:53:45Z</time>
      </trkpt>
      <trkpt lat="42.41925" lon="2.18455">
        <ele>2787.1</ele>
        <time>2019-01-07T08:53:46Z</time>
      </trkpt>
      <trkpt lat="42.41939" lon="2.18434">
        <ele>2793</ele>
        <time>2019-01-07T08:53:51Z</time>
      </trkpt>
      <trkpt lat="42.41943" lon="2.18431">
        <ele>2793.8</ele>
        <time>2019-01-07T08:53:52Z</time>
      </trkpt>
      <trkpt lat="42.41945" lon="2.18431">
        <ele>2794.1</ele>
        <time>2019-01-07T08:53:53Z</time>
      </trkpt>
      <trkpt lat="42.41949" lon="2.18421">
        <ele>2793.1</ele>
        <time>2019-01-07T08:53:55Z</time>
      </trkpt>
      <trkpt lat="42.41948" lon="2.18419">
        <ele>2793.4</ele>
        <time>2019-01-07T08:53:56Z</time>
      </trkpt>
      <trkpt lat="42.41948" lon="2.18424">
        <ele>2793.3</ele>
        <time>2019-01-07T08:53:57Z</time>
      </trkpt>
      <trkpt lat="42.41889" lon="2.1832">
        <ele>2789.5</ele>
        <time>2019-01-07T08:54:23Z</time>
      </trkpt>
      <trkpt lat="42.41859" lon="2.18245">
        <ele>2790.1</ele>
        <time>2019-01-07T08:54:39Z</time>
      </trkpt>
      <trkpt lat="42.41845" lon="2.18193">
        <ele>2790.5</ele>
        <time>2019-01-07T08:54:50Z</time>
      </trkpt>
      <trkpt lat="42.41841" lon="2.18175">
        <ele>2790.5</ele>
        <time>2019-01-07T08:54:54Z</time>
      </trkpt>
      <trkpt lat="42.41842" lon="2.1817">
        <ele>2790.3</ele>
        <time>2019-01-07T08:54:55Z</time>
      </trkpt>
      <trkpt lat="42.41843" lon="2.1816">
        <ele>2789.7</ele>
        <time>2019-01-07T08:54:57Z</time>
      </trkpt>
      <trkpt lat="42.41842" lon="2.18122">
        <ele>2787.3</ele>
        <time>2019-01-07T08:55:04Z</time>
      </trkpt>
      <trkpt lat="42.41846" lon="2.18115">
        <ele>2785.6</ele>
        <time>2019-01-07T08:55:06Z</time>
      </trkpt>
      <trkpt lat="42.41846" lon="2.18104">
        <ele>2784.5</ele>
        <time>2019-01-07T08:55:08Z</time>
      </trkpt>
      <trkpt lat="42.41867" lon="2.18069">
        <ele>2771</ele>
        <time>2019-01-07T08:55:17Z</time>
      </trkpt>
      <trkpt lat="42.41882" lon="2.18033">
        <ele>2763</ele>
        <time>2019-01-07T08:55:25Z</time>
      </trkpt>
      <trkpt lat="42.41888" lon="2.18022">
        <ele>2760.2</ele>
        <time>2019-01-07T08:55:28Z</time>
      </trkpt>
      <trkpt lat="42.41922" lon="2.17963">
        <ele>2746.5</ele>
        <time>2019-01-07T08:55:43Z</time>
      </trkpt>
      <trkpt lat="42.41931" lon="2.17908">
        <ele>2740.1</ele>
        <time>2019-01-07T08:55:54Z</time>
      </trkpt>
      <trkpt lat="42.41936" lon="2.17896">
        <ele>2735.8</ele>
        <time>2019-01-07T08:55:57Z</time>
      </trkpt>
      <trkpt lat="42.41937" lon="2.1789">
        <ele>2734.3</ele>
        <time>2019-01-07T08:55:58Z</time>
      </trkpt>
      <trkpt lat="42.41939" lon="2.1788">
        <ele>2729.6</ele>
        <time>2019-01-07T08:56:00Z</time>
      </trkpt>
      <trkpt lat="42.4194" lon="2.17879">
        <ele>2729</ele>
        <time>2019-01-07T08:56:00Z</time>
      </trkpt>
      <trkpt lat="42.41967" lon="2.17858">
        <ele>2715.6</ele>
        <time>2019-01-07T08:56:08Z</time>
      </trkpt>
      <trkpt lat="42.41968" lon="2.17856">
        <ele>2715</ele>
        <time>2019-01-07T08:56:09Z</time>
      </trkpt>
      <trkpt lat="42.41976" lon="2.17849">
        <ele>2711</ele>
        <time>2019-01-07T08:56:11Z</time>
      </trkpt>
      <trkpt lat="42.41989" lon="2.17839">
        <ele>2705.1</ele>
        <time>2019-01-07T08:56:15Z</time>
      </trkpt>
      <trkpt lat="42.41986" lon="2.17824">
        <ele>2702.4</ele>
        <time>2019-01-07T08:56:18Z</time>
      </trkpt>
      <trkpt lat="42.41987" lon="2.17823">
        <ele>2702.2</ele>
        <time>2019-01-07T08:56:19Z</time>
      </trkpt>
      <trkpt lat="42.4199" lon="2.17804">
        <ele>2697.4</ele>
        <time>2019-01-07T08:56:23Z</time>
      </trkpt>
      <trkpt lat="42.41992" lon="2.17802">
        <ele>2696.5</ele>
        <time>2019-01-07T08:56:23Z</time>
      </trkpt>
      <trkpt lat="42.41994" lon="2.17795">
        <ele>2693.7</ele>
        <time>2019-01-07T08:56:25Z</time>
      </trkpt>
      <trkpt lat="42.42004" lon="2.17775">
        <ele>2685.6</ele>
        <time>2019-01-07T08:56:29Z</time>
      </trkpt>
      <trkpt lat="42.42006" lon="2.1777">
        <ele>2683</ele>
        <time>2019-01-07T08:56:31Z</time>
      </trkpt>
      <trkpt lat="42.42009" lon="2.17766">
        <ele>2681.4</ele>
        <time>2019-01-07T08:56:32Z</time>
      </trkpt>
      <trkpt lat="42.42019" lon="2.17759">
        <ele>2680.1</ele>
        <time>2019-01-07T08:56:35Z</time>
      </trkpt>
      <trkpt lat="42.42025" lon="2.17753">
        <ele>2679.8</ele>
        <time>2019-01-07T08:56:37Z</time>
      </trkpt>
      <trkpt lat="42.42027" lon="2.17748">
        <ele>2679.2</ele>
        <time>2019-01-07T08:56:38Z</time>
      </trkpt>
      <trkpt lat="42.42032" lon="2.17738">
        <ele>2673.3</ele>
        <time>2019-01-07T08:56:40Z</time>
      </trkpt>
      <trkpt lat="42.42038" lon="2.1773">
        <ele>2669</ele>
        <time>2019-01-07T08:56:42Z</time>
      </trkpt>
      <trkpt lat="42.42043" lon="2.17728">
        <ele>2668.3</ele>
        <time>2019-01-07T08:56:44Z</time>
      </trkpt>
      <trkpt lat="42.42051" lon="2.17725">
        <ele>2667.2</ele>
        <time>2019-01-07T08:56:46Z</time>
      </trkpt>
      <trkpt lat="42.42058" lon="2.17714">
        <ele>2663.5</ele>
        <time>2019-01-07T08:56:49Z</time>
      </trkpt>
      <trkpt lat="42.42058" lon="2.17712">
        <ele>2662.6</ele>
        <time>2019-01-07T08:56:49Z</time>
      </trkpt>
      <trkpt lat="42.42059" lon="2.17705">
        <ele>2660.7</ele>
        <time>2019-01-07T08:56:51Z</time>
      </trkpt>
      <trkpt lat="42.4206" lon="2.17704">
        <ele>2660.2</ele>
        <time>2019-01-07T08:56:51Z</time>
      </trkpt>
      <trkpt lat="42.42063" lon="2.17693">
        <ele>2657.1</ele>
        <time>2019-01-07T08:56:53Z</time>
      </trkpt>
      <trkpt lat="42.42091" lon="2.17637">
        <ele>2646.9</ele>
        <time>2019-01-07T08:57:07Z</time>
      </trkpt>
      <trkpt lat="42.42139" lon="2.1758">
        <ele>2648.5</ele>
        <time>2019-01-07T08:57:24Z</time>
      </trkpt>
      <trkpt lat="42.42172" lon="2.17535">
        <ele>2650.4</ele>
        <time>2019-01-07T08:57:36Z</time>
      </trkpt>
      <trkpt lat="42.42174" lon="2.17529">
        <ele>2651.6</ele>
        <time>2019-01-07T08:57:37Z</time>
      </trkpt>
      <trkpt lat="42.42174" lon="2.17524">
        <ele>2652.3</ele>
        <time>2019-01-07T08:57:38Z</time>
      </trkpt>
      <trkpt lat="42.42186" lon="2.17499">
        <ele>2653.9</ele>
        <time>2019-01-07T08:57:44Z</time>
      </trkpt>
      <trkpt lat="42.42185" lon="2.17492">
        <ele>2654.1</ele>
        <time>2019-01-07T08:57:45Z</time>
      </trkpt>
      <trkpt lat="42.42185" lon="2.17489">
        <ele>2654.1</ele>
        <time>2019-01-07T08:57:46Z</time>
      </trkpt>
      <trkpt lat="42.42192" lon="2.17467">
        <ele>2656.3</ele>
        <time>2019-01-07T08:57:51Z</time>
      </trkpt>
      <trkpt lat="42.42207" lon="2.17432">
        <ele>2654.6</ele>
        <time>2019-01-07T08:57:59Z</time>
      </trkpt>
      <trkpt lat="42.42215" lon="2.17408">
        <ele>2654.5</ele>
        <time>2019-01-07T08:58:04Z</time>
      </trkpt>
      <trkpt lat="42.42217" lon="2.17408">
        <ele>2655</ele>
        <time>2019-01-07T08:58:04Z</time>
      </trkpt>
      <trkpt lat="42.42226" lon="2.17394">
        <ele>2656.7</ele>
        <time>2019-01-07T08:58:08Z</time>
      </trkpt>
      <trkpt lat="42.42229" lon="2.17387">
        <ele>2657.1</ele>
        <time>2019-01-07T08:58:10Z</time>
      </trkpt>
      <trkpt lat="42.42231" lon="2.1738">
        <ele>2657.8</ele>
        <time>2019-01-07T08:58:11Z</time>
      </trkpt>
      <trkpt lat="42.42234" lon="2.17365">
        <ele>2660.2</ele>
        <time>2019-01-07T08:58:14Z</time>
      </trkpt>
      <trkpt lat="42.42234" lon="2.17352">
        <ele>2662.7</ele>
        <time>2019-01-07T08:58:17Z</time>
      </trkpt>
      <trkpt lat="42.42235" lon="2.1735">
        <ele>2663.3</ele>
        <time>2019-01-07T08:58:17Z</time>
      </trkpt>
      <trkpt lat="42.42235" lon="2.17344">
        <ele>2664.6</ele>
        <time>2019-01-07T08:58:18Z</time>
      </trkpt>
      <trkpt lat="42.42237" lon="2.17319">
        <ele>2671.2</ele>
        <time>2019-01-07T08:58:23Z</time>
      </trkpt>
      <trkpt lat="42.42235" lon="2.17294">
        <ele>2676</ele>
        <time>2019-01-07T08:58:28Z</time>
      </trkpt>
      <trkpt lat="42.42238" lon="2.17273">
        <ele>2679.9</ele>
        <time>2019-01-07T08:58:32Z</time>
      </trkpt>
      <trkpt lat="42.4224" lon="2.17268">
        <ele>2682.1</ele>
        <time>2019-01-07T08:58:34Z</time>
      </trkpt>
      <trkpt lat="42.4224" lon="2.17266">
        <ele>2682.5</ele>
        <time>2019-01-07T08:58:34Z</time>
      </trkpt>
      <trkpt lat="42.42242" lon="2.17262">
        <ele>2684.3</ele>
        <time>2019-01-07T08:58:35Z</time>
      </trkpt>
      <trkpt lat="42.42249" lon="2.17244">
        <ele>2693.1</ele>
        <time>2019-01-07T08:58:39Z</time>
      </trkpt>
      <trkpt lat="42.42251" lon="2.1724">
        <ele>2694.4</ele>
        <time>2019-01-07T08:58:40Z</time>
      </trkpt>
      <trkpt lat="42.42256" lon="2.17233">
        <ele>2695.6</ele>
        <time>2019-01-07T08:58:42Z</time>
      </trkpt>
      <trkpt lat="42.42261" lon="2.17216">
        <ele>2699.4</ele>
        <time>2019-01-07T08:58:46Z</time>
      </trkpt>
      <trkpt lat="42.42271" lon="2.17166">
        <ele>2713.2</ele>
        <time>2019-01-07T08:58:56Z</time>
      </trkpt>
      <trkpt lat="42.42278" lon="2.17156">
        <ele>2717.1</ele>
        <time>2019-01-07T08:58:58Z</time>
      </trkpt>
      <trkpt lat="42.42286" lon="2.17134">
        <ele>2722.5</ele>
        <time>2019-01-07T08:59:03Z</time>
      </trkpt>
      <trkpt lat="42.42286" lon="2.17133">
        <ele>2723</ele>
        <time>2019-01-07T08:59:03Z</time>
      </trkpt>
      <trkpt lat="42.42307" lon="2.17079">
        <ele>2737.7</ele>
        <time>2019-01-07T08:59:15Z</time>
      </trkpt>
      <trkpt lat="42.42309" lon="2.17077">
        <ele>2737.9</ele>
        <time>2019-01-07T08:59:16Z</time>
      </trkpt>
      <trkpt lat="42.42316" lon="2.17047">
        <ele>2748.3</ele>
        <time>2019-01-07T08:59:22Z</time>
      </trkpt>
      <trkpt lat="42.42329" lon="2.17027">
        <ele>2752.5</ele>
        <time>2019-01-07T08:59:28Z</time>
      </trkpt>
      <trkpt lat="42.42331" lon="2.17024">
        <ele>2753.2</ele>
        <time>2019-01-07T08:59:28Z</time>
      </trkpt>
      <trkpt lat="42.42336" lon="2.16982">
        <ele>2766.6</ele>
        <time>2019-01-07T08:59:37Z</time>
      </trkpt>
      <trkpt lat="42.42362" lon="2.16946">
        <ele>2785.3</ele>
        <time>2019-01-07T08:59:46Z</time>
      </trkpt>
      <trkpt lat="42.42388" lon="2.1693">
        <ele>2793.6</ele>
        <time>2019-01-07T08:59:54Z</time>
      </trkpt>
      <trkpt lat="42.42403" lon="2.1691">
        <ele>2803.2</ele>
        <time>2019-01-07T09:00:00Z</time>
      </trkpt>
      <trkpt lat="42.42416" lon="2.16893">
        <ele>2810.2</ele>
        <time>2019-01-07T09:00:05Z</time>
      </trkpt>
      <trkpt lat="42.42435" lon="2.1685">
        <ele>2828.9</ele>
        <time>2019-01-07T09:00:14Z</time>
      </trkpt>
      <trkpt lat="42.42449" lon="2.16833">
        <ele>2834.7</ele>
        <time>2019-01-07T09:00:19Z</time>
      </trkpt>
      <trkpt lat="42.4246" lon="2.16818">
        <ele>2839.3</ele>
        <time>2019-01-07T09:00:23Z</time>
      </trkpt>
      <trkpt lat="42.42478" lon="2.16773">
        <ele>2854.6</ele>
        <time>2019-01-07T09:00:34Z</time>
      </trkpt>
      <trkpt lat="42.42424" lon="2.16739">
        <ele>2850.9</ele>
        <time>2019-01-07T09:00:49Z</time>
      </trkpt>
      <trkpt lat="42.42416" lon="2.16722">
        <ele>2848.9</ele>
        <time>2019-01-07T09:00:53Z</time>
      </trkpt>
      <trkpt lat="42.42413" lon="2.16716">
        <ele>2846.5</ele>
        <time>2019-01-07T09:00:55Z</time>
      </trkpt>
      <trkpt lat="42.42406" lon="2.1671">
        <ele>2842.6</ele>
        <time>2019-01-07T09:00:57Z</time>
      </trkpt>
      <trkpt lat="42.42397" lon="2.16705">
        <ele>2838.9</ele>
        <time>2019-01-07T09:01:00Z</time>
      </trkpt>
      <trkpt lat="42.42396" lon="2.16704">
        <ele>2838.2</ele>
        <time>2019-01-07T09:01:00Z</time>
      </trkpt>
      <trkpt lat="42.42385" lon="2.16697">
        <ele>2834.2</ele>
        <time>2019-01-07T09:01:03Z</time>
      </trkpt>
      <trkpt lat="42.42377" lon="2.16688">
        <ele>2831</ele>
        <time>2019-01-07T09:01:06Z</time>
      </trkpt>
      <trkpt lat="42.42432" lon="2.16729">
        <ele>2859.1</ele>
        <time>2019-01-07T09:30:18Z</time>
      </trkpt>
      <trkpt lat="42.42443" lon="2.16741">
        <ele>2862.6</ele>
        <time>2019-01-07T09:30:21Z</time>
      </trkpt>
      <trkpt lat="42.42453" lon="2.16747">
        <ele>2865.8</ele>
        <time>2019-01-07T09:30:24Z</time>
      </trkpt>
      <trkpt lat="42.42467" lon="2.16755">
        <ele>2868.2</ele>
        <time>2019-01-07T09:30:28Z</time>
      </trkpt>
      <trkpt lat="42.42479" lon="2.16763">
        <ele>2870.7</ele>
        <time>2019-01-07T09:30:32Z</time>
      </trkpt>
      <trkpt lat="42.42489" lon="2.16768">
        <ele>2874.6</ele>
        <time>2019-01-07T09:30:35Z</time>
      </trkpt>
      <trkpt lat="42.42492" lon="2.16769">
        <ele>2875.6</ele>
        <time>2019-01-07T09:30:35Z</time>
      </trkpt>
      <trkpt lat="42.42488" lon="2.16765">
        <ele>2869.3</ele>
        <time>2019-01-07T09:30:37Z</time>
      </trkpt>
      <trkpt lat="42.42485" lon="2.16764">
        <ele>2865.8</ele>
        <time>2019-01-07T09:30:37Z</time>
      </trkpt>
      <trkpt lat="42.42486" lon="2.16762">
        <ele>2864</ele>
        <time>2019-01-07T09:30:38Z</time>
      </trkpt>
      <trkpt lat="42.42489" lon="2.16762">
        <ele>2863.4</ele>
        <time>2019-01-07T09:30:39Z</time>
      </trkpt>
      <trkpt lat="42.42494" lon="2.16767">
        <ele>2863</ele>
        <time>2019-01-07T09:30:40Z</time>
      </trkpt>
      <trkpt lat="42.42499" lon="2.1677">
        <ele>2861.5</ele>
        <time>2019-01-07T09:30:42Z</time>
      </trkpt>
      <trkpt lat="42.42504" lon="2.16771">
        <ele>2858.7</ele>
        <time>2019-01-07T09:30:43Z</time>
      </trkpt>
      <trkpt lat="42.42506" lon="2.16773">
        <ele>2857.2</ele>
        <time>2019-01-07T09:30:44Z</time>
      </trkpt>
      <trkpt lat="42.42509" lon="2.16772">
        <ele>2853.8</ele>
        <time>2019-01-07T09:30:45Z</time>
      </trkpt>
      <trkpt lat="42.42511" lon="2.16769">
        <ele>2853.9</ele>
        <time>2019-01-07T09:30:45Z</time>
      </trkpt>
      <trkpt lat="42.42513" lon="2.16768">
        <ele>2854.8</ele>
        <time>2019-01-07T09:30:46Z</time>
      </trkpt>
      <trkpt lat="42.42516" lon="2.16773">
        <ele>2855.3</ele>
        <time>2019-01-07T09:30:47Z</time>
      </trkpt>
      <trkpt lat="42.42522" lon="2.16776">
        <ele>2854.9</ele>
        <time>2019-01-07T09:30:49Z</time>
      </trkpt>
      <trkpt lat="42.42527" lon="2.16777">
        <ele>2854.3</ele>
        <time>2019-01-07T09:30:50Z</time>
      </trkpt>
      <trkpt lat="42.4253" lon="2.16777">
        <ele>2851.9</ele>
        <time>2019-01-07T09:30:51Z</time>
      </trkpt>
      <trkpt lat="42.42527" lon="2.16779">
        <ele>2850.9</ele>
        <time>2019-01-07T09:30:52Z</time>
      </trkpt>
      <trkpt lat="42.42524" lon="2.16781">
        <ele>2850.9</ele>
        <time>2019-01-07T09:30:53Z</time>
      </trkpt>
      <trkpt lat="42.42527" lon="2.16782">
        <ele>2849.5</ele>
        <time>2019-01-07T09:30:54Z</time>
      </trkpt>
      <trkpt lat="42.4253" lon="2.16785">
        <ele>2847.1</ele>
        <time>2019-01-07T09:30:55Z</time>
      </trkpt>
      <trkpt lat="42.42534" lon="2.16789">
        <ele>2842.7</ele>
        <time>2019-01-07T09:30:56Z</time>
      </trkpt>
      <trkpt lat="42.42537" lon="2.1679">
        <ele>2841.3</ele>
        <time>2019-01-07T09:30:57Z</time>
      </trkpt>
      <trkpt lat="42.42539" lon="2.16791">
        <ele>2840.8</ele>
        <time>2019-01-07T09:30:57Z</time>
      </trkpt>
      <trkpt lat="42.42542" lon="2.16792">
        <ele>2841.3</ele>
        <time>2019-01-07T09:30:58Z</time>
      </trkpt>
      <trkpt lat="42.42544" lon="2.16794">
        <ele>2842.7</ele>
        <time>2019-01-07T09:30:59Z</time>
      </trkpt>
      <trkpt lat="42.42546" lon="2.16798">
        <ele>2842.8</ele>
        <time>2019-01-07T09:31:00Z</time>
      </trkpt>
      <trkpt lat="42.42548" lon="2.16799">
        <ele>2841.8</ele>
        <time>2019-01-07T09:31:00Z</time>
      </trkpt>
      <trkpt lat="42.42551" lon="2.168">
        <ele>2843.2</ele>
        <time>2019-01-07T09:31:01Z</time>
      </trkpt>
      <trkpt lat="42.42554" lon="2.16804">
        <ele>2845.7</ele>
        <time>2019-01-07T09:31:02Z</time>
      </trkpt>
      <trkpt lat="42.42557" lon="2.16805">
        <ele>2844.3</ele>
        <time>2019-01-07T09:31:03Z</time>
      </trkpt>
      <trkpt lat="42.42558" lon="2.16808">
        <ele>2841.8</ele>
        <time>2019-01-07T09:31:04Z</time>
      </trkpt>
      <trkpt lat="42.4256" lon="2.1681">
        <ele>2838</ele>
        <time>2019-01-07T09:31:04Z</time>
      </trkpt>
      <trkpt lat="42.42564" lon="2.1681">
        <ele>2834.1</ele>
        <time>2019-01-07T09:31:06Z</time>
      </trkpt>
      <trkpt lat="42.42566" lon="2.16814">
        <ele>2833.1</ele>
        <time>2019-01-07T09:31:06Z</time>
      </trkpt>
      <trkpt lat="42.42567" lon="2.16817">
        <ele>2831.8</ele>
        <time>2019-01-07T09:31:07Z</time>
      </trkpt>
      <trkpt lat="42.42571" lon="2.16821">
        <ele>2830.3</ele>
        <time>2019-01-07T09:31:08Z</time>
      </trkpt>
      <trkpt lat="42.42575" lon="2.16824">
        <ele>2826</ele>
        <time>2019-01-07T09:31:10Z</time>
      </trkpt>
      <trkpt lat="42.42579" lon="2.16827">
        <ele>2824.5</ele>
        <time>2019-01-07T09:31:11Z</time>
      </trkpt>
      <trkpt lat="42.42582" lon="2.1683">
        <ele>2825</ele>
        <time>2019-01-07T09:31:12Z</time>
      </trkpt>
      <trkpt lat="42.42585" lon="2.16835">
        <ele>2825</ele>
        <time>2019-01-07T09:31:13Z</time>
      </trkpt>
      <trkpt lat="42.42591" lon="2.16836">
        <ele>2824.5</ele>
        <time>2019-01-07T09:31:15Z</time>
      </trkpt>
      <trkpt lat="42.42593" lon="2.16837">
        <ele>2822.6</ele>
        <time>2019-01-07T09:31:15Z</time>
      </trkpt>
      <trkpt lat="42.42595" lon="2.16839">
        <ele>2819.7</ele>
        <time>2019-01-07T09:31:16Z</time>
      </trkpt>
      <trkpt lat="42.42595" lon="2.16842">
        <ele>2817.8</ele>
        <time>2019-01-07T09:31:17Z</time>
      </trkpt>
      <trkpt lat="42.42596" lon="2.16844">
        <ele>2816.8</ele>
        <time>2019-01-07T09:31:17Z</time>
      </trkpt>
      <trkpt lat="42.42598" lon="2.16847">
        <ele>2814.5</ele>
        <time>2019-01-07T09:31:18Z</time>
      </trkpt>
      <trkpt lat="42.42602" lon="2.16849">
        <ele>2814.4</ele>
        <time>2019-01-07T09:31:19Z</time>
      </trkpt>
      <trkpt lat="42.42608" lon="2.16852">
        <ele>2818.3</ele>
        <time>2019-01-07T09:31:21Z</time>
      </trkpt>
      <trkpt lat="42.42613" lon="2.16849">
        <ele>2813.4</ele>
        <time>2019-01-07T09:31:22Z</time>
      </trkpt>
      <trkpt lat="42.42613" lon="2.16848">
        <ele>2813</ele>
        <time>2019-01-07T09:31:22Z</time>
      </trkpt>
      <trkpt lat="42.42617" lon="2.16853">
        <ele>2809.2</ele>
        <time>2019-01-07T09:31:24Z</time>
      </trkpt>
      <trkpt lat="42.42618" lon="2.16857">
        <ele>2810.2</ele>
        <time>2019-01-07T09:31:25Z</time>
      </trkpt>
      <trkpt lat="42.42618" lon="2.1686">
        <ele>2813.4</ele>
        <time>2019-01-07T09:31:25Z</time>
      </trkpt>
      <trkpt lat="42.42617" lon="2.1686">
        <ele>2815</ele>
        <time>2019-01-07T09:31:26Z</time>
      </trkpt>
      <trkpt lat="42.42618" lon="2.16861">
        <ele>2815</ele>
        <time>2019-01-07T09:31:26Z</time>
      </trkpt>
      <trkpt lat="42.42617" lon="2.16864">
        <ele>2815.3</ele>
        <time>2019-01-07T09:31:26Z</time>
      </trkpt>
      <trkpt lat="42.4262" lon="2.16868">
        <ele>2812.5</ele>
        <time>2019-01-07T09:31:28Z</time>
      </trkpt>
      <trkpt lat="42.42621" lon="2.16867">
        <ele>2809.2</ele>
        <time>2019-01-07T09:31:28Z</time>
      </trkpt>
      <trkpt lat="42.42621" lon="2.1687">
        <ele>2805.4</ele>
        <time>2019-01-07T09:31:29Z</time>
      </trkpt>
      <trkpt lat="42.42624" lon="2.1687">
        <ele>2800</ele>
        <time>2019-01-07T09:31:29Z</time>
      </trkpt>
      <trkpt lat="42.42627" lon="2.1687">
        <ele>2800.5</ele>
        <time>2019-01-07T09:31:30Z</time>
      </trkpt>
      <trkpt lat="42.42627" lon="2.16872">
        <ele>2800.5</ele>
        <time>2019-01-07T09:31:31Z</time>
      </trkpt>
      <trkpt lat="42.42625" lon="2.16875">
        <ele>2799.6</ele>
        <time>2019-01-07T09:31:31Z</time>
      </trkpt>
      <trkpt lat="42.42628" lon="2.16877">
        <ele>2798.6</ele>
        <time>2019-01-07T09:31:32Z</time>
      </trkpt>
      <trkpt lat="42.42629" lon="2.16879">
        <ele>2800.5</ele>
        <time>2019-01-07T09:31:32Z</time>
      </trkpt>
      <trkpt lat="42.42632" lon="2.16883">
        <ele>2799</ele>
        <time>2019-01-07T09:31:34Z</time>
      </trkpt>
      <trkpt lat="42.42633" lon="2.16884">
        <ele>2798.2</ele>
        <time>2019-01-07T09:31:34Z</time>
      </trkpt>
      <trkpt lat="42.42634" lon="2.16884">
        <ele>2804.9</ele>
        <time>2019-01-07T09:31:34Z</time>
      </trkpt>
      <trkpt lat="42.42634" lon="2.16883">
        <ele>2798.5</ele>
        <time>2019-01-07T09:31:35Z</time>
      </trkpt>
      <trkpt lat="42.4263" lon="2.16888">
        <ele>2799.5</ele>
        <time>2019-01-07T09:31:36Z</time>
      </trkpt>
      <trkpt lat="42.42625" lon="2.16889">
        <ele>2793.2</ele>
        <time>2019-01-07T09:31:37Z</time>
      </trkpt>
      <trkpt lat="42.42624" lon="2.16892">
        <ele>2795.2</ele>
        <time>2019-01-07T09:31:38Z</time>
      </trkpt>
      <trkpt lat="42.42625" lon="2.16895">
        <ele>2793.2</ele>
        <time>2019-01-07T09:31:39Z</time>
      </trkpt>
      <trkpt lat="42.42626" lon="2.16898">
        <ele>2786.6</ele>
        <time>2019-01-07T09:31:39Z</time>
      </trkpt>
      <trkpt lat="42.42627" lon="2.16898">
        <ele>2787.1</ele>
        <time>2019-01-07T09:31:40Z</time>
      </trkpt>
      <trkpt lat="42.4263" lon="2.16897">
        <ele>2785.1</ele>
        <time>2019-01-07T09:31:40Z</time>
      </trkpt>
      <trkpt lat="42.42632" lon="2.16897">
        <ele>2781.2</ele>
        <time>2019-01-07T09:31:41Z</time>
      </trkpt>
      <trkpt lat="42.42637" lon="2.16899">
        <ele>2779.3</ele>
        <time>2019-01-07T09:31:42Z</time>
      </trkpt>
      <trkpt lat="42.42638" lon="2.16901">
        <ele>2778.8</ele>
        <time>2019-01-07T09:31:43Z</time>
      </trkpt>
      <trkpt lat="42.42641" lon="2.16904">
        <ele>2778.3</ele>
        <time>2019-01-07T09:31:44Z</time>
      </trkpt>
      <trkpt lat="42.42642" lon="2.16903">
        <ele>2778.3</ele>
        <time>2019-01-07T09:31:44Z</time>
      </trkpt>
      <trkpt lat="42.42643" lon="2.16905">
        <ele>2775.9</ele>
        <time>2019-01-07T09:31:44Z</time>
      </trkpt>
      <trkpt lat="42.42645" lon="2.16911">
        <ele>2772.6</ele>
        <time>2019-01-07T09:31:46Z</time>
      </trkpt>
      <trkpt lat="42.42641" lon="2.16933">
        <ele>2786.6</ele>
        <time>2019-01-07T09:31:50Z</time>
      </trkpt>
      <trkpt lat="42.4264" lon="2.16934">
        <ele>2786</ele>
        <time>2019-01-07T09:31:51Z</time>
      </trkpt>
      <trkpt lat="42.42639" lon="2.16946">
        <ele>2791.3</ele>
        <time>2019-01-07T09:31:53Z</time>
      </trkpt>
      <trkpt lat="42.4264" lon="2.16947">
        <ele>2790.8</ele>
        <time>2019-01-07T09:31:53Z</time>
      </trkpt>
      <trkpt lat="42.42643" lon="2.16949">
        <ele>2789.9</ele>
        <time>2019-01-07T09:31:54Z</time>
      </trkpt>
      <trkpt lat="42.42643" lon="2.16947">
        <ele>2788.5</ele>
        <time>2019-01-07T09:31:55Z</time>
      </trkpt>
      <trkpt lat="42.42642" lon="2.16939">
        <ele>2780.4</ele>
        <time>2019-01-07T09:31:56Z</time>
      </trkpt>
      <trkpt lat="42.42643" lon="2.16933">
        <ele>2773.1</ele>
        <time>2019-01-07T09:31:58Z</time>
      </trkpt>
      <trkpt lat="42.42645" lon="2.16931">
        <ele>2767.9</ele>
        <time>2019-01-07T09:31:58Z</time>
      </trkpt>
      <trkpt lat="42.42648" lon="2.16933">
        <ele>2765.4</ele>
        <time>2019-01-07T09:31:59Z</time>
      </trkpt>
      <trkpt lat="42.42649" lon="2.16934">
        <ele>2764.4</ele>
        <time>2019-01-07T09:31:59Z</time>
      </trkpt>
      <trkpt lat="42.4265" lon="2.16934">
        <ele>2761.5</ele>
        <time>2019-01-07T09:32:00Z</time>
      </trkpt>
      <trkpt lat="42.42652" lon="2.16935">
        <ele>2758.2</ele>
        <time>2019-01-07T09:32:00Z</time>
      </trkpt>
      <trkpt lat="42.42653" lon="2.16939">
        <ele>2754.8</ele>
        <time>2019-01-07T09:32:01Z</time>
      </trkpt>
      <trkpt lat="42.42652" lon="2.16941">
        <ele>2753.3</ele>
        <time>2019-01-07T09:32:02Z</time>
      </trkpt>
      <trkpt lat="42.42654" lon="2.16944">
        <ele>2753</ele>
        <time>2019-01-07T09:32:02Z</time>
      </trkpt>
      <trkpt lat="42.42656" lon="2.16946">
        <ele>2751.5</ele>
        <time>2019-01-07T09:32:03Z</time>
      </trkpt>
      <trkpt lat="42.42658" lon="2.16949">
        <ele>2749</ele>
        <time>2019-01-07T09:32:04Z</time>
      </trkpt>
      <trkpt lat="42.42659" lon="2.16951">
        <ele>2748.1</ele>
        <time>2019-01-07T09:32:04Z</time>
      </trkpt>
      <trkpt lat="42.42662" lon="2.16953">
        <ele>2746.7</ele>
        <time>2019-01-07T09:32:05Z</time>
      </trkpt>
      <trkpt lat="42.42664" lon="2.16954">
        <ele>2745.7</ele>
        <time>2019-01-07T09:32:06Z</time>
      </trkpt>
      <trkpt lat="42.42668" lon="2.16959">
        <ele>2742.8</ele>
        <time>2019-01-07T09:32:07Z</time>
      </trkpt>
      <trkpt lat="42.42668" lon="2.16959">
        <ele>2742.4</ele>
        <time>2019-01-07T09:32:07Z</time>
      </trkpt>
      <trkpt lat="42.42667" lon="2.16955">
        <ele>2741.8</ele>
        <time>2019-01-07T09:32:08Z</time>
      </trkpt>
      <trkpt lat="42.42667" lon="2.16953">
        <ele>2744.8</ele>
        <time>2019-01-07T09:32:08Z</time>
      </trkpt>
      <trkpt lat="42.42671" lon="2.16958">
        <ele>2744.8</ele>
        <time>2019-01-07T09:32:10Z</time>
      </trkpt>
      <trkpt lat="42.42673" lon="2.16962">
        <ele>2743.8</ele>
        <time>2019-01-07T09:32:11Z</time>
      </trkpt>
      <trkpt lat="42.42673" lon="2.16967">
        <ele>2743.3</ele>
        <time>2019-01-07T09:32:12Z</time>
      </trkpt>
      <trkpt lat="42.42673" lon="2.16972">
        <ele>2740.5</ele>
        <time>2019-01-07T09:32:13Z</time>
      </trkpt>
      <trkpt lat="42.42675" lon="2.16977">
        <ele>2739.9</ele>
        <time>2019-01-07T09:32:14Z</time>
      </trkpt>
      <trkpt lat="42.42676" lon="2.16983">
        <ele>2746.3</ele>
        <time>2019-01-07T09:32:15Z</time>
      </trkpt>
      <trkpt lat="42.42676" lon="2.16983">
        <ele>2747.1</ele>
        <time>2019-01-07T09:32:15Z</time>
      </trkpt>
      <trkpt lat="42.42675" lon="2.16985">
        <ele>2747.1</ele>
        <time>2019-01-07T09:32:16Z</time>
      </trkpt>
      <trkpt lat="42.42672" lon="2.16989">
        <ele>2743.7</ele>
        <time>2019-01-07T09:32:17Z</time>
      </trkpt>
      <trkpt lat="42.42669" lon="2.1699">
        <ele>2742.3</ele>
        <time>2019-01-07T09:32:17Z</time>
      </trkpt>
      <trkpt lat="42.42667" lon="2.16988">
        <ele>2736.5</ele>
        <time>2019-01-07T09:32:18Z</time>
      </trkpt>
      <trkpt lat="42.42664" lon="2.16988">
        <ele>2731.8</ele>
        <time>2019-01-07T09:32:19Z</time>
      </trkpt>
      <trkpt lat="42.42663" lon="2.16989">
        <ele>2729.3</ele>
        <time>2019-01-07T09:32:19Z</time>
      </trkpt>
      <trkpt lat="42.42666" lon="2.16993">
        <ele>2729.9</ele>
        <time>2019-01-07T09:32:20Z</time>
      </trkpt>
      <trkpt lat="42.42667" lon="2.16996">
        <ele>2728</ele>
        <time>2019-01-07T09:32:21Z</time>
      </trkpt>
      <trkpt lat="42.42672" lon="2.17002">
        <ele>2726.9</ele>
        <time>2019-01-07T09:32:23Z</time>
      </trkpt>
      <trkpt lat="42.42675" lon="2.17008">
        <ele>2725.6</ele>
        <time>2019-01-07T09:32:24Z</time>
      </trkpt>
      <trkpt lat="42.42676" lon="2.17014">
        <ele>2724</ele>
        <time>2019-01-07T09:32:25Z</time>
      </trkpt>
      <trkpt lat="42.42678" lon="2.17014">
        <ele>2724.5</ele>
        <time>2019-01-07T09:32:26Z</time>
      </trkpt>
      <trkpt lat="42.42679" lon="2.17015">
        <ele>2722.7</ele>
        <time>2019-01-07T09:32:26Z</time>
      </trkpt>
      <trkpt lat="42.4268" lon="2.17018">
        <ele>2719.8</ele>
        <time>2019-01-07T09:32:27Z</time>
      </trkpt>
      <trkpt lat="42.4268" lon="2.17023">
        <ele>2716</ele>
        <time>2019-01-07T09:32:28Z</time>
      </trkpt>
      <trkpt lat="42.4268" lon="2.17029">
        <ele>2713.5</ele>
        <time>2019-01-07T09:32:29Z</time>
      </trkpt>
      <trkpt lat="42.42683" lon="2.17033">
        <ele>2709.6</ele>
        <time>2019-01-07T09:32:30Z</time>
      </trkpt>
      <trkpt lat="42.42685" lon="2.17036">
        <ele>2708.2</ele>
        <time>2019-01-07T09:32:31Z</time>
      </trkpt>
      <trkpt lat="42.42688" lon="2.17039">
        <ele>2708.8</ele>
        <time>2019-01-07T09:32:32Z</time>
      </trkpt>
      <trkpt lat="42.4269" lon="2.17041">
        <ele>2707.7</ele>
        <time>2019-01-07T09:32:32Z</time>
      </trkpt>
      <trkpt lat="42.42693" lon="2.17038">
        <ele>2714</ele>
        <time>2019-01-07T09:32:34Z</time>
      </trkpt>
      <trkpt lat="42.42692" lon="2.17035">
        <ele>2714.9</ele>
        <time>2019-01-07T09:32:34Z</time>
      </trkpt>
      <trkpt lat="42.42687" lon="2.17045">
        <ele>2709.6</ele>
        <time>2019-01-07T09:32:37Z</time>
      </trkpt>
      <trkpt lat="42.42685" lon="2.17048">
        <ele>2711</ele>
        <time>2019-01-07T09:32:37Z</time>
      </trkpt>
      <trkpt lat="42.42682" lon="2.17047">
        <ele>2708.7</ele>
        <time>2019-01-07T09:32:38Z</time>
      </trkpt>
      <trkpt lat="42.4268" lon="2.17049">
        <ele>2707.2</ele>
        <time>2019-01-07T09:32:39Z</time>
      </trkpt>
      <trkpt lat="42.42679" lon="2.17052">
        <ele>2705.9</ele>
        <time>2019-01-07T09:32:39Z</time>
      </trkpt>
      <trkpt lat="42.4268" lon="2.17056">
        <ele>2704.8</ele>
        <time>2019-01-07T09:32:40Z</time>
      </trkpt>
      <trkpt lat="42.42681" lon="2.1706">
        <ele>2703.4</ele>
        <time>2019-01-07T09:32:41Z</time>
      </trkpt>
      <trkpt lat="42.42683" lon="2.17065">
        <ele>2702.5</ele>
        <time>2019-01-07T09:32:42Z</time>
      </trkpt>
      <trkpt lat="42.42687" lon="2.17068">
        <ele>2701.9</ele>
        <time>2019-01-07T09:32:43Z</time>
      </trkpt>
      <trkpt lat="42.4269" lon="2.1707">
        <ele>2701.5</ele>
        <time>2019-01-07T09:32:44Z</time>
      </trkpt>
      <trkpt lat="42.42692" lon="2.17075">
        <ele>2700.5</ele>
        <time>2019-01-07T09:32:45Z</time>
      </trkpt>
      <trkpt lat="42.42693" lon="2.17079">
        <ele>2700</ele>
        <time>2019-01-07T09:32:46Z</time>
      </trkpt>
      <trkpt lat="42.42694" lon="2.17082">
        <ele>2698.5</ele>
        <time>2019-01-07T09:32:47Z</time>
      </trkpt>
      <trkpt lat="42.42698" lon="2.17087">
        <ele>2697.1</ele>
        <time>2019-01-07T09:32:48Z</time>
      </trkpt>
      <trkpt lat="42.42701" lon="2.17091">
        <ele>2695.8</ele>
        <time>2019-01-07T09:32:49Z</time>
      </trkpt>
      <trkpt lat="42.427" lon="2.17096">
        <ele>2694.7</ele>
        <time>2019-01-07T09:32:50Z</time>
      </trkpt>
      <trkpt lat="42.42699" lon="2.171">
        <ele>2694.8</ele>
        <time>2019-01-07T09:32:51Z</time>
      </trkpt>
      <trkpt lat="42.427" lon="2.17105">
        <ele>2693.8</ele>
        <time>2019-01-07T09:32:52Z</time>
      </trkpt>
      <trkpt lat="42.427" lon="2.17107">
        <ele>2691.9</ele>
        <time>2019-01-07T09:32:53Z</time>
      </trkpt>
      <trkpt lat="42.42701" lon="2.17112">
        <ele>2691</ele>
        <time>2019-01-07T09:32:54Z</time>
      </trkpt>
      <trkpt lat="42.42702" lon="2.17117">
        <ele>2689</ele>
        <time>2019-01-07T09:32:55Z</time>
      </trkpt>
      <trkpt lat="42.42702" lon="2.1712">
        <ele>2687.5</ele>
        <time>2019-01-07T09:32:55Z</time>
      </trkpt>
      <trkpt lat="42.42701" lon="2.17124">
        <ele>2685.6</ele>
        <time>2019-01-07T09:32:56Z</time>
      </trkpt>
      <trkpt lat="42.42703" lon="2.17129">
        <ele>2683.7</ele>
        <time>2019-01-07T09:32:57Z</time>
      </trkpt>
      <trkpt lat="42.42704" lon="2.17134">
        <ele>2681.8</ele>
        <time>2019-01-07T09:32:58Z</time>
      </trkpt>
      <trkpt lat="42.42704" lon="2.17137">
        <ele>2679.9</ele>
        <time>2019-01-07T09:32:59Z</time>
      </trkpt>
      <trkpt lat="42.42707" lon="2.17142">
        <ele>2677.9</ele>
        <time>2019-01-07T09:33:00Z</time>
      </trkpt>
      <trkpt lat="42.42708" lon="2.17146">
        <ele>2676.1</ele>
        <time>2019-01-07T09:33:01Z</time>
      </trkpt>
      <trkpt lat="42.42706" lon="2.17151">
        <ele>2673.2</ele>
        <time>2019-01-07T09:33:02Z</time>
      </trkpt>
      <trkpt lat="42.42709" lon="2.17156">
        <ele>2669.7</ele>
        <time>2019-01-07T09:33:03Z</time>
      </trkpt>
      <trkpt lat="42.42712" lon="2.17159">
        <ele>2667.3</ele>
        <time>2019-01-07T09:33:04Z</time>
      </trkpt>
      <trkpt lat="42.42714" lon="2.17162">
        <ele>2663.1</ele>
        <time>2019-01-07T09:33:05Z</time>
      </trkpt>
      <trkpt lat="42.42716" lon="2.17163">
        <ele>2660.6</ele>
        <time>2019-01-07T09:33:06Z</time>
      </trkpt>
      <trkpt lat="42.42718" lon="2.1717">
        <ele>2657.7</ele>
        <time>2019-01-07T09:33:07Z</time>
      </trkpt>
      <trkpt lat="42.42718" lon="2.17171">
        <ele>2656.7</ele>
        <time>2019-01-07T09:33:07Z</time>
      </trkpt>
      <trkpt lat="42.42716" lon="2.1717">
        <ele>2653</ele>
        <time>2019-01-07T09:33:08Z</time>
      </trkpt>
      <trkpt lat="42.42719" lon="2.17177">
        <ele>2661.5</ele>
        <time>2019-01-07T09:33:10Z</time>
      </trkpt>
      <trkpt lat="42.42722" lon="2.17177">
        <ele>2665.5</ele>
        <time>2019-01-07T09:33:10Z</time>
      </trkpt>
      <trkpt lat="42.42722" lon="2.17176">
        <ele>2670.8</ele>
        <time>2019-01-07T09:33:10Z</time>
      </trkpt>
      <trkpt lat="42.42722" lon="2.17178">
        <ele>2670.2</ele>
        <time>2019-01-07T09:33:11Z</time>
      </trkpt>
      <trkpt lat="42.42728" lon="2.17175">
        <ele>2665</ele>
        <time>2019-01-07T09:33:12Z</time>
      </trkpt>
      <trkpt lat="42.42734" lon="2.17181">
        <ele>2667.4</ele>
        <time>2019-01-07T09:33:14Z</time>
      </trkpt>
      <trkpt lat="42.42741" lon="2.17181">
        <ele>2661.1</ele>
        <time>2019-01-07T09:33:16Z</time>
      </trkpt>
      <trkpt lat="42.42746" lon="2.17179">
        <ele>2657.7</ele>
        <time>2019-01-07T09:33:18Z</time>
      </trkpt>
      <trkpt lat="42.42751" lon="2.17178">
        <ele>2667.3</ele>
        <time>2019-01-07T09:33:19Z</time>
      </trkpt>
      <trkpt lat="42.42756" lon="2.17191">
        <ele>2680.4</ele>
        <time>2019-01-07T09:33:22Z</time>
      </trkpt>
      <trkpt lat="42.42754" lon="2.17187">
        <ele>2669.7</ele>
        <time>2019-01-07T09:33:22Z</time>
      </trkpt>
      <trkpt lat="42.42755" lon="2.17184">
        <ele>2667.3</ele>
        <time>2019-01-07T09:33:23Z</time>
      </trkpt>
      <trkpt lat="42.4276" lon="2.17182">
        <ele>2666</ele>
        <time>2019-01-07T09:33:25Z</time>
      </trkpt>
      <trkpt lat="42.42767" lon="2.17185">
        <ele>2666</ele>
        <time>2019-01-07T09:33:27Z</time>
      </trkpt>
      <trkpt lat="42.42774" lon="2.17184">
        <ele>2664.4</ele>
        <time>2019-01-07T09:33:29Z</time>
      </trkpt>
      <trkpt lat="42.42781" lon="2.1719">
        <ele>2664.9</ele>
        <time>2019-01-07T09:33:31Z</time>
      </trkpt>
      <trkpt lat="42.42789" lon="2.17194">
        <ele>2663.6</ele>
        <time>2019-01-07T09:33:33Z</time>
      </trkpt>
      <trkpt lat="42.42794" lon="2.17199">
        <ele>2662.5</ele>
        <time>2019-01-07T09:33:35Z</time>
      </trkpt>
      <trkpt lat="42.42802" lon="2.17203">
        <ele>2660.6</ele>
        <time>2019-01-07T09:33:37Z</time>
      </trkpt>
      <trkpt lat="42.42803" lon="2.17205">
        <ele>2658.6</ele>
        <time>2019-01-07T09:33:37Z</time>
      </trkpt>
      <trkpt lat="42.42805" lon="2.17207">
        <ele>2658.2</ele>
        <time>2019-01-07T09:33:38Z</time>
      </trkpt>
      <trkpt lat="42.42811" lon="2.17209">
        <ele>2656.8</ele>
        <time>2019-01-07T09:33:40Z</time>
      </trkpt>
      <trkpt lat="42.42819" lon="2.17213">
        <ele>2654.4</ele>
        <time>2019-01-07T09:33:42Z</time>
      </trkpt>
      <trkpt lat="42.42824" lon="2.17216">
        <ele>2651.6</ele>
        <time>2019-01-07T09:33:43Z</time>
      </trkpt>
      <trkpt lat="42.42831" lon="2.17221">
        <ele>2649</ele>
        <time>2019-01-07T09:33:45Z</time>
      </trkpt>
      <trkpt lat="42.42838" lon="2.17227">
        <ele>2648.7</ele>
        <time>2019-01-07T09:33:48Z</time>
      </trkpt>
      <trkpt lat="42.42847" lon="2.17233">
        <ele>2648.6</ele>
        <time>2019-01-07T09:33:50Z</time>
      </trkpt>
      <trkpt lat="42.42855" lon="2.1724">
        <ele>2649</ele>
        <time>2019-01-07T09:33:53Z</time>
      </trkpt>
      <trkpt lat="42.42856" lon="2.1724">
        <ele>2649.1</ele>
        <time>2019-01-07T09:33:53Z</time>
      </trkpt>
      <trkpt lat="42.42862" lon="2.17242">
        <ele>2648.1</ele>
        <time>2019-01-07T09:33:55Z</time>
      </trkpt>
      <trkpt lat="42.42867" lon="2.17244">
        <ele>2643.3</ele>
        <time>2019-01-07T09:33:56Z</time>
      </trkpt>
      <trkpt lat="42.42873" lon="2.17246">
        <ele>2639</ele>
        <time>2019-01-07T09:33:58Z</time>
      </trkpt>
      <trkpt lat="42.42875" lon="2.17246">
        <ele>2634.7</ele>
        <time>2019-01-07T09:33:58Z</time>
      </trkpt>
      <trkpt lat="42.42881" lon="2.17243">
        <ele>2631.8</ele>
        <time>2019-01-07T09:34:00Z</time>
      </trkpt>
      <trkpt lat="42.42886" lon="2.17241">
        <ele>2630.4</ele>
        <time>2019-01-07T09:34:02Z</time>
      </trkpt>
      <trkpt lat="42.42894" lon="2.17234">
        <ele>2629.8</ele>
        <time>2019-01-07T09:34:04Z</time>
      </trkpt>
      <trkpt lat="42.42898" lon="2.17229">
        <ele>2629.4</ele>
        <time>2019-01-07T09:34:06Z</time>
      </trkpt>
      <trkpt lat="42.42905" lon="2.17223">
        <ele>2631.8</ele>
        <time>2019-01-07T09:34:08Z</time>
      </trkpt>
      <trkpt lat="42.42912" lon="2.1722">
        <ele>2631.7</ele>
        <time>2019-01-07T09:34:10Z</time>
      </trkpt>
      <trkpt lat="42.4292" lon="2.17214">
        <ele>2629.9</ele>
        <time>2019-01-07T09:34:12Z</time>
      </trkpt>
      <trkpt lat="42.42934" lon="2.17212">
        <ele>2627.4</ele>
        <time>2019-01-07T09:34:16Z</time>
      </trkpt>
      <trkpt lat="42.42942" lon="2.17209">
        <ele>2626.9</ele>
        <time>2019-01-07T09:34:18Z</time>
      </trkpt>
      <trkpt lat="42.42956" lon="2.17209">
        <ele>2628.5</ele>
        <time>2019-01-07T09:34:22Z</time>
      </trkpt>
      <trkpt lat="42.42968" lon="2.1721">
        <ele>2633.8</ele>
        <time>2019-01-07T09:34:25Z</time>
      </trkpt>
      <trkpt lat="42.42973" lon="2.1721">
        <ele>2634.6</ele>
        <time>2019-01-07T09:34:26Z</time>
      </trkpt>
      <trkpt lat="42.42977" lon="2.17209">
        <ele>2633.8</ele>
        <time>2019-01-07T09:34:27Z</time>
      </trkpt>
      <trkpt lat="42.42978" lon="2.17209">
        <ele>2633.8</ele>
        <time>2019-01-07T09:34:28Z</time>
      </trkpt>
      <trkpt lat="42.42979" lon="2.17209">
        <ele>2632.7</ele>
        <time>2019-01-07T09:34:28Z</time>
      </trkpt>
      <trkpt lat="42.42988" lon="2.1721">
        <ele>2633.3</ele>
        <time>2019-01-07T09:34:30Z</time>
      </trkpt>
      <trkpt lat="42.42989" lon="2.1721">
        <ele>2633.7</ele>
        <time>2019-01-07T09:34:31Z</time>
      </trkpt>
      <trkpt lat="42.42994" lon="2.17209">
        <ele>2634.6</ele>
        <time>2019-01-07T09:34:32Z</time>
      </trkpt>
      <trkpt lat="42.42996" lon="2.17209">
        <ele>2635.1</ele>
        <time>2019-01-07T09:34:32Z</time>
      </trkpt>
      <trkpt lat="42.43005" lon="2.17209">
        <ele>2636.1</ele>
        <time>2019-01-07T09:34:35Z</time>
      </trkpt>
      <trkpt lat="42.43016" lon="2.17203">
        <ele>2633.8</ele>
        <time>2019-01-07T09:34:38Z</time>
      </trkpt>
      <trkpt lat="42.43022" lon="2.17202">
        <ele>2634.7</ele>
        <time>2019-01-07T09:34:40Z</time>
      </trkpt>
      <trkpt lat="42.43024" lon="2.17201">
        <ele>2635.2</ele>
        <time>2019-01-07T09:34:40Z</time>
      </trkpt>
      <trkpt lat="42.43029" lon="2.17199">
        <ele>2638.1</ele>
        <time>2019-01-07T09:34:42Z</time>
      </trkpt>
      <trkpt lat="42.43033" lon="2.17197">
        <ele>2638.5</ele>
        <time>2019-01-07T09:34:43Z</time>
      </trkpt>
      <trkpt lat="42.43034" lon="2.17197">
        <ele>2637.1</ele>
        <time>2019-01-07T09:34:43Z</time>
      </trkpt>
      <trkpt lat="42.43035" lon="2.17195">
        <ele>2636.7</ele>
        <time>2019-01-07T09:34:43Z</time>
      </trkpt>
      <trkpt lat="42.43038" lon="2.17194">
        <ele>2634.2</ele>
        <time>2019-01-07T09:34:44Z</time>
      </trkpt>
      <trkpt lat="42.4304" lon="2.17194">
        <ele>2633.3</ele>
        <time>2019-01-07T09:34:45Z</time>
      </trkpt>
      <trkpt lat="42.43044" lon="2.17194">
        <ele>2631.7</ele>
        <time>2019-01-07T09:34:46Z</time>
      </trkpt>
      <trkpt lat="42.43046" lon="2.17195">
        <ele>2632.2</ele>
        <time>2019-01-07T09:34:47Z</time>
      </trkpt>
      <trkpt lat="42.43049" lon="2.17194">
        <ele>2637.1</ele>
        <time>2019-01-07T09:34:47Z</time>
      </trkpt>
      <trkpt lat="42.43055" lon="2.17193">
        <ele>2643.3</ele>
        <time>2019-01-07T09:34:49Z</time>
      </trkpt>
      <trkpt lat="42.43056" lon="2.17193">
        <ele>2642.9</ele>
        <time>2019-01-07T09:34:49Z</time>
      </trkpt>
      <trkpt lat="42.43058" lon="2.17191">
        <ele>2640.5</ele>
        <time>2019-01-07T09:34:50Z</time>
      </trkpt>
      <trkpt lat="42.43062" lon="2.17188">
        <ele>2638.5</ele>
        <time>2019-01-07T09:34:51Z</time>
      </trkpt>
      <trkpt lat="42.43067" lon="2.17188">
        <ele>2641.5</ele>
        <time>2019-01-07T09:34:52Z</time>
      </trkpt>
      <trkpt lat="42.43071" lon="2.17188">
        <ele>2646.2</ele>
        <time>2019-01-07T09:34:53Z</time>
      </trkpt>
      <trkpt lat="42.43069" lon="2.17182">
        <ele>2641.9</ele>
        <time>2019-01-07T09:34:55Z</time>
      </trkpt>
      <trkpt lat="42.43069" lon="2.17182">
        <ele>2642.3</ele>
        <time>2019-01-07T09:34:55Z</time>
      </trkpt>
      <trkpt lat="42.4307" lon="2.17182">
        <ele>2641.4</ele>
        <time>2019-01-07T09:34:55Z</time>
      </trkpt>
      <trkpt lat="42.43073" lon="2.17184">
        <ele>2641.9</ele>
        <time>2019-01-07T09:34:56Z</time>
      </trkpt>
      <trkpt lat="42.43075" lon="2.17182">
        <ele>2642.9</ele>
        <time>2019-01-07T09:34:56Z</time>
      </trkpt>
      <trkpt lat="42.43077" lon="2.17175">
        <ele>2641</ele>
        <time>2019-01-07T09:34:58Z</time>
      </trkpt>
      <trkpt lat="42.4308" lon="2.17169">
        <ele>2639</ele>
        <time>2019-01-07T09:34:59Z</time>
      </trkpt>
      <trkpt lat="42.43085" lon="2.17164">
        <ele>2638.5</ele>
        <time>2019-01-07T09:35:01Z</time>
      </trkpt>
      <trkpt lat="42.43088" lon="2.17158">
        <ele>2635.2</ele>
        <time>2019-01-07T09:35:02Z</time>
      </trkpt>
      <trkpt lat="42.4309" lon="2.17156">
        <ele>2633.7</ele>
        <time>2019-01-07T09:35:03Z</time>
      </trkpt>
      <trkpt lat="42.43091" lon="2.17156">
        <ele>2633.3</ele>
        <time>2019-01-07T09:35:03Z</time>
      </trkpt>
      <trkpt lat="42.43092" lon="2.17156">
        <ele>2634.2</ele>
        <time>2019-01-07T09:35:04Z</time>
      </trkpt>
      <trkpt lat="42.43095" lon="2.17156">
        <ele>2633.8</ele>
        <time>2019-01-07T09:35:04Z</time>
      </trkpt>
      <trkpt lat="42.43097" lon="2.17156">
        <ele>2632.7</ele>
        <time>2019-01-07T09:35:05Z</time>
      </trkpt>
      <trkpt lat="42.43098" lon="2.17159">
        <ele>2630.8</ele>
        <time>2019-01-07T09:35:06Z</time>
      </trkpt>
      <trkpt lat="42.43099" lon="2.17162">
        <ele>2628.9</ele>
        <time>2019-01-07T09:35:06Z</time>
      </trkpt>
      <trkpt lat="42.431" lon="2.17166">
        <ele>2626.1</ele>
        <time>2019-01-07T09:35:07Z</time>
      </trkpt>
      <trkpt lat="42.431" lon="2.17167">
        <ele>2623.2</ele>
        <time>2019-01-07T09:35:07Z</time>
      </trkpt>
      <trkpt lat="42.43102" lon="2.17167">
        <ele>2622.2</ele>
        <time>2019-01-07T09:35:08Z</time>
      </trkpt>
      <trkpt lat="42.43105" lon="2.17164">
        <ele>2622.2</ele>
        <time>2019-01-07T09:35:09Z</time>
      </trkpt>
      <trkpt lat="42.43107" lon="2.17163">
        <ele>2622.6</ele>
        <time>2019-01-07T09:35:10Z</time>
      </trkpt>
      <trkpt lat="42.4311" lon="2.17162">
        <ele>2619.2</ele>
        <time>2019-01-07T09:35:10Z</time>
      </trkpt>
      <trkpt lat="42.43111" lon="2.17162">
        <ele>2617.9</ele>
        <time>2019-01-07T09:35:11Z</time>
      </trkpt>
      <trkpt lat="42.43113" lon="2.17162">
        <ele>2616</ele>
        <time>2019-01-07T09:35:11Z</time>
      </trkpt>
      <trkpt lat="42.43116" lon="2.17161">
        <ele>2614</ele>
        <time>2019-01-07T09:35:12Z</time>
      </trkpt>
      <trkpt lat="42.43118" lon="2.1716">
        <ele>2612.5</ele>
        <time>2019-01-07T09:35:12Z</time>
      </trkpt>
      <trkpt lat="42.4312" lon="2.17159">
        <ele>2610.2</ele>
        <time>2019-01-07T09:35:13Z</time>
      </trkpt>
      <trkpt lat="42.43123" lon="2.17156">
        <ele>2609.6</ele>
        <time>2019-01-07T09:35:14Z</time>
      </trkpt>
      <trkpt lat="42.43129" lon="2.17154">
        <ele>2613.5</ele>
        <time>2019-01-07T09:35:16Z</time>
      </trkpt>
      <trkpt lat="42.43135" lon="2.17154">
        <ele>2616.5</ele>
        <time>2019-01-07T09:35:17Z</time>
      </trkpt>
      <trkpt lat="42.43136" lon="2.17155">
        <ele>2617</ele>
        <time>2019-01-07T09:35:18Z</time>
      </trkpt>
      <trkpt lat="42.43136" lon="2.17151">
        <ele>2612.6</ele>
        <time>2019-01-07T09:35:18Z</time>
      </trkpt>
      <trkpt lat="42.43141" lon="2.17146">
        <ele>2611.7</ele>
        <time>2019-01-07T09:35:20Z</time>
      </trkpt>
      <trkpt lat="42.43146" lon="2.17136">
        <ele>2606.7</ele>
        <time>2019-01-07T09:35:22Z</time>
      </trkpt>
      <trkpt lat="42.43149" lon="2.17134">
        <ele>2606.7</ele>
        <time>2019-01-07T09:35:23Z</time>
      </trkpt>
      <trkpt lat="42.43153" lon="2.17131">
        <ele>2609.6</ele>
        <time>2019-01-07T09:35:24Z</time>
      </trkpt>
      <trkpt lat="42.43157" lon="2.1713">
        <ele>2614</ele>
        <time>2019-01-07T09:35:26Z</time>
      </trkpt>
      <trkpt lat="42.4316" lon="2.17126">
        <ele>2614.9</ele>
        <time>2019-01-07T09:35:27Z</time>
      </trkpt>
      <trkpt lat="42.43163" lon="2.17121">
        <ele>2617.4</ele>
        <time>2019-01-07T09:35:28Z</time>
      </trkpt>
      <trkpt lat="42.43165" lon="2.17117">
        <ele>2617.9</ele>
        <time>2019-01-07T09:35:29Z</time>
      </trkpt>
      <trkpt lat="42.43166" lon="2.17114">
        <ele>2618.4</ele>
        <time>2019-01-07T09:35:30Z</time>
      </trkpt>
      <trkpt lat="42.43163" lon="2.17111">
        <ele>2613.5</ele>
        <time>2019-01-07T09:35:31Z</time>
      </trkpt>
      <trkpt lat="42.43162" lon="2.17108">
        <ele>2611.6</ele>
        <time>2019-01-07T09:35:31Z</time>
      </trkpt>
      <trkpt lat="42.43165" lon="2.17103">
        <ele>2613.6</ele>
        <time>2019-01-07T09:35:32Z</time>
      </trkpt>
      <trkpt lat="42.43169" lon="2.17099">
        <ele>2615.5</ele>
        <time>2019-01-07T09:35:34Z</time>
      </trkpt>
      <trkpt lat="42.43173" lon="2.17097">
        <ele>2615.5</ele>
        <time>2019-01-07T09:35:35Z</time>
      </trkpt>
      <trkpt lat="42.43176" lon="2.17096">
        <ele>2614</ele>
        <time>2019-01-07T09:35:36Z</time>
      </trkpt>
      <trkpt lat="42.43176" lon="2.17095">
        <ele>2611.1</ele>
        <time>2019-01-07T09:35:36Z</time>
      </trkpt>
      <trkpt lat="42.43179" lon="2.17092">
        <ele>2608.7</ele>
        <time>2019-01-07T09:35:37Z</time>
      </trkpt>
      <trkpt lat="42.43181" lon="2.17089">
        <ele>2608.3</ele>
        <time>2019-01-07T09:35:38Z</time>
      </trkpt>
      <trkpt lat="42.43185" lon="2.17088">
        <ele>2607.8</ele>
        <time>2019-01-07T09:35:39Z</time>
      </trkpt>
      <trkpt lat="42.43188" lon="2.17087">
        <ele>2607.8</ele>
        <time>2019-01-07T09:35:40Z</time>
      </trkpt>
      <trkpt lat="42.43192" lon="2.17084">
        <ele>2602</ele>
        <time>2019-01-07T09:35:41Z</time>
      </trkpt>
      <trkpt lat="42.43193" lon="2.17084">
        <ele>2602</ele>
        <time>2019-01-07T09:35:41Z</time>
      </trkpt>
      <trkpt lat="42.43194" lon="2.17083">
        <ele>2601.1</ele>
        <time>2019-01-07T09:35:42Z</time>
      </trkpt>
      <trkpt lat="42.43197" lon="2.17082">
        <ele>2599.6</ele>
        <time>2019-01-07T09:35:43Z</time>
      </trkpt>
      <trkpt lat="42.43198" lon="2.17083">
        <ele>2599.2</ele>
        <time>2019-01-07T09:35:43Z</time>
      </trkpt>
      <trkpt lat="42.43201" lon="2.17083">
        <ele>2598.1</ele>
        <time>2019-01-07T09:35:44Z</time>
      </trkpt>
      <trkpt lat="42.43204" lon="2.17081">
        <ele>2597.6</ele>
        <time>2019-01-07T09:35:44Z</time>
      </trkpt>
      <trkpt lat="42.43206" lon="2.17079">
        <ele>2597.6</ele>
        <time>2019-01-07T09:35:45Z</time>
      </trkpt>
      <trkpt lat="42.4321" lon="2.17075">
        <ele>2599.5</ele>
        <time>2019-01-07T09:35:46Z</time>
      </trkpt>
      <trkpt lat="42.43213" lon="2.17071">
        <ele>2602.1</ele>
        <time>2019-01-07T09:35:48Z</time>
      </trkpt>
      <trkpt lat="42.43217" lon="2.17071">
        <ele>2604.5</ele>
        <time>2019-01-07T09:35:49Z</time>
      </trkpt>
      <trkpt lat="42.4322" lon="2.1707">
        <ele>2602.9</ele>
        <time>2019-01-07T09:35:49Z</time>
      </trkpt>
      <trkpt lat="42.43223" lon="2.17068">
        <ele>2600.1</ele>
        <time>2019-01-07T09:35:50Z</time>
      </trkpt>
      <trkpt lat="42.43227" lon="2.1707">
        <ele>2603.5</ele>
        <time>2019-01-07T09:35:52Z</time>
      </trkpt>
      <trkpt lat="42.4323" lon="2.17072">
        <ele>2607.2</ele>
        <time>2019-01-07T09:35:53Z</time>
      </trkpt>
      <trkpt lat="42.43234" lon="2.17071">
        <ele>2607.3</ele>
        <time>2019-01-07T09:35:53Z</time>
      </trkpt>
      <trkpt lat="42.43238" lon="2.17069">
        <ele>2605.3</ele>
        <time>2019-01-07T09:35:55Z</time>
      </trkpt>
      <trkpt lat="42.43239" lon="2.17065">
        <ele>2606.3</ele>
        <time>2019-01-07T09:35:56Z</time>
      </trkpt>
      <trkpt lat="42.43241" lon="2.1706">
        <ele>2606.8</ele>
        <time>2019-01-07T09:35:57Z</time>
      </trkpt>
      <trkpt lat="42.43243" lon="2.17054">
        <ele>2608.3</ele>
        <time>2019-01-07T09:35:58Z</time>
      </trkpt>
      <trkpt lat="42.43244" lon="2.17052">
        <ele>2608.3</ele>
        <time>2019-01-07T09:35:58Z</time>
      </trkpt>
      <trkpt lat="42.43247" lon="2.17046">
        <ele>2609.7</ele>
        <time>2019-01-07T09:36:00Z</time>
      </trkpt>
      <trkpt lat="42.4325" lon="2.17043">
        <ele>2611.6</ele>
        <time>2019-01-07T09:36:01Z</time>
      </trkpt>
      <trkpt lat="42.43253" lon="2.17039">
        <ele>2613.6</ele>
        <time>2019-01-07T09:36:02Z</time>
      </trkpt>
      <trkpt lat="42.43256" lon="2.17034">
        <ele>2613.1</ele>
        <time>2019-01-07T09:36:03Z</time>
      </trkpt>
      <trkpt lat="42.43256" lon="2.17031">
        <ele>2614.1</ele>
        <time>2019-01-07T09:36:04Z</time>
      </trkpt>
      <trkpt lat="42.43257" lon="2.17029">
        <ele>2614</ele>
        <time>2019-01-07T09:36:04Z</time>
      </trkpt>
      <trkpt lat="42.4326" lon="2.17025">
        <ele>2614.5</ele>
        <time>2019-01-07T09:36:06Z</time>
      </trkpt>
      <trkpt lat="42.43265" lon="2.1702">
        <ele>2613.5</ele>
        <time>2019-01-07T09:36:07Z</time>
      </trkpt>
      <trkpt lat="42.43269" lon="2.17015">
        <ele>2612</ele>
        <time>2019-01-07T09:36:09Z</time>
      </trkpt>
      <trkpt lat="42.43269" lon="2.17015">
        <ele>2611.6</ele>
        <time>2019-01-07T09:36:09Z</time>
      </trkpt>
      <trkpt lat="42.43271" lon="2.17013">
        <ele>2613.1</ele>
        <time>2019-01-07T09:36:09Z</time>
      </trkpt>
      <trkpt lat="42.43274" lon="2.1701">
        <ele>2614.5</ele>
        <time>2019-01-07T09:36:10Z</time>
      </trkpt>
      <trkpt lat="42.43276" lon="2.17003">
        <ele>2616.4</ele>
        <time>2019-01-07T09:36:12Z</time>
      </trkpt>
      <trkpt lat="42.43279" lon="2.16997">
        <ele>2619.3</ele>
        <time>2019-01-07T09:36:13Z</time>
      </trkpt>
      <trkpt lat="42.43281" lon="2.16994">
        <ele>2619.2</ele>
        <time>2019-01-07T09:36:14Z</time>
      </trkpt>
      <trkpt lat="42.43283" lon="2.16991">
        <ele>2619.3</ele>
        <time>2019-01-07T09:36:15Z</time>
      </trkpt>
      <trkpt lat="42.43284" lon="2.16989">
        <ele>2618.3</ele>
        <time>2019-01-07T09:36:15Z</time>
      </trkpt>
      <trkpt lat="42.43287" lon="2.16988">
        <ele>2616.4</ele>
        <time>2019-01-07T09:36:16Z</time>
      </trkpt>
      <trkpt lat="42.43288" lon="2.16986">
        <ele>2613.5</ele>
        <time>2019-01-07T09:36:17Z</time>
      </trkpt>
      <trkpt lat="42.43294" lon="2.16982">
        <ele>2612.6</ele>
        <time>2019-01-07T09:36:18Z</time>
      </trkpt>
      <trkpt lat="42.43295" lon="2.16982">
        <ele>2613.6</ele>
        <time>2019-01-07T09:36:19Z</time>
      </trkpt>
      <trkpt lat="42.43297" lon="2.16979">
        <ele>2615.5</ele>
        <time>2019-01-07T09:36:19Z</time>
      </trkpt>
      <trkpt lat="42.43298" lon="2.16978">
        <ele>2617.4</ele>
        <time>2019-01-07T09:36:20Z</time>
      </trkpt>
      <trkpt lat="42.43299" lon="2.16978">
        <ele>2615.5</ele>
        <time>2019-01-07T09:36:20Z</time>
      </trkpt>
      <trkpt lat="42.43299" lon="2.16975">
        <ele>2616.4</ele>
        <time>2019-01-07T09:36:21Z</time>
      </trkpt>
      <trkpt lat="42.43299" lon="2.16974">
        <ele>2615.9</ele>
        <time>2019-01-07T09:36:21Z</time>
      </trkpt>
      <trkpt lat="42.43302" lon="2.16973">
        <ele>2615.4</ele>
        <time>2019-01-07T09:36:22Z</time>
      </trkpt>
      <trkpt lat="42.43305" lon="2.16971">
        <ele>2614.5</ele>
        <time>2019-01-07T09:36:23Z</time>
      </trkpt>
      <trkpt lat="42.43309" lon="2.16969">
        <ele>2613.5</ele>
        <time>2019-01-07T09:36:24Z</time>
      </trkpt>
      <trkpt lat="42.43312" lon="2.1697">
        <ele>2616.4</ele>
        <time>2019-01-07T09:36:25Z</time>
      </trkpt>
      <trkpt lat="42.43312" lon="2.16969">
        <ele>2614</ele>
        <time>2019-01-07T09:36:25Z</time>
      </trkpt>
      <trkpt lat="42.43312" lon="2.16968">
        <ele>2613.6</ele>
        <time>2019-01-07T09:36:25Z</time>
      </trkpt>
      <trkpt lat="42.43319" lon="2.1697">
        <ele>2625.5</ele>
        <time>2019-01-07T09:36:27Z</time>
      </trkpt>
      <trkpt lat="42.43318" lon="2.16969">
        <ele>2623.2</ele>
        <time>2019-01-07T09:36:27Z</time>
      </trkpt>
      <trkpt lat="42.43317" lon="2.16965">
        <ele>2618.3</ele>
        <time>2019-01-07T09:36:28Z</time>
      </trkpt>
      <trkpt lat="42.43321" lon="2.16964">
        <ele>2618.8</ele>
        <time>2019-01-07T09:36:29Z</time>
      </trkpt>
      <trkpt lat="42.43311" lon="2.16962">
        <ele>2616.4</ele>
        <time>2019-01-07T09:36:32Z</time>
      </trkpt>
      <trkpt lat="42.43313" lon="2.16962">
        <ele>2620.7</ele>
        <time>2019-01-07T09:36:32Z</time>
      </trkpt>
      <trkpt lat="42.43313" lon="2.16961">
        <ele>2622.2</ele>
        <time>2019-01-07T09:36:32Z</time>
      </trkpt>
      <trkpt lat="42.43314" lon="2.16963">
        <ele>2621.2</ele>
        <time>2019-01-07T09:36:33Z</time>
      </trkpt>
      <trkpt lat="42.43311" lon="2.16962">
        <ele>2618.8</ele>
        <time>2019-01-07T09:36:33Z</time>
      </trkpt>
      <trkpt lat="42.43308" lon="2.16964">
        <ele>2617.3</ele>
        <time>2019-01-07T09:36:34Z</time>
      </trkpt>
      <trkpt lat="42.43308" lon="2.16966">
        <ele>2616</ele>
        <time>2019-01-07T09:36:35Z</time>
      </trkpt>
      <trkpt lat="42.43308" lon="2.16966">
        <ele>2617.8</ele>
        <time>2019-01-07T09:36:35Z</time>
      </trkpt>
      <trkpt lat="42.43308" lon="2.16963">
        <ele>2617.8</ele>
        <time>2019-01-07T09:36:35Z</time>
      </trkpt>
      <trkpt lat="42.43309" lon="2.16962">
        <ele>2618.4</ele>
        <time>2019-01-07T09:36:36Z</time>
      </trkpt>
      <trkpt lat="42.43311" lon="2.1696">
        <ele>2618.8</ele>
        <time>2019-01-07T09:36:36Z</time>
      </trkpt>
      <trkpt lat="42.43314" lon="2.16958">
        <ele>2617.9</ele>
        <time>2019-01-07T09:36:37Z</time>
      </trkpt>
      <trkpt lat="42.43315" lon="2.16954">
        <ele>2617</ele>
        <time>2019-01-07T09:36:38Z</time>
      </trkpt>
      <trkpt lat="42.43319" lon="2.16952">
        <ele>2615.9</ele>
        <time>2019-01-07T09:36:39Z</time>
      </trkpt>
      <trkpt lat="42.43319" lon="2.16951">
        <ele>2616.4</ele>
        <time>2019-01-07T09:36:39Z</time>
      </trkpt>
      <trkpt lat="42.43321" lon="2.1695">
        <ele>2617.3</ele>
        <time>2019-01-07T09:36:40Z</time>
      </trkpt>
      <trkpt lat="42.43325" lon="2.16949">
        <ele>2614.9</ele>
        <time>2019-01-07T09:36:41Z</time>
      </trkpt>
      <trkpt lat="42.43326" lon="2.16945">
        <ele>2610.6</ele>
        <time>2019-01-07T09:36:42Z</time>
      </trkpt>
      <trkpt lat="42.43324" lon="2.16943">
        <ele>2605.8</ele>
        <time>2019-01-07T09:36:42Z</time>
      </trkpt>
      <trkpt lat="42.43326" lon="2.16945">
        <ele>2607.7</ele>
        <time>2019-01-07T09:36:43Z</time>
      </trkpt>
      <trkpt lat="42.43333" lon="2.16942">
        <ele>2603</ele>
        <time>2019-01-07T09:36:45Z</time>
      </trkpt>
      <trkpt lat="42.43337" lon="2.1694">
        <ele>2600.6</ele>
        <time>2019-01-07T09:36:46Z</time>
      </trkpt>
      <trkpt lat="42.43338" lon="2.16939">
        <ele>2600.1</ele>
        <time>2019-01-07T09:36:46Z</time>
      </trkpt>
      <trkpt lat="42.43341" lon="2.16936">
        <ele>2599.1</ele>
        <time>2019-01-07T09:36:47Z</time>
      </trkpt>
      <trkpt lat="42.43342" lon="2.16933">
        <ele>2598.6</ele>
        <time>2019-01-07T09:36:48Z</time>
      </trkpt>
      <trkpt lat="42.43343" lon="2.16933">
        <ele>2598.1</ele>
        <time>2019-01-07T09:36:48Z</time>
      </trkpt>
      <trkpt lat="42.43344" lon="2.16932">
        <ele>2597.1</ele>
        <time>2019-01-07T09:36:48Z</time>
      </trkpt>
      <trkpt lat="42.43345" lon="2.16933">
        <ele>2595.3</ele>
        <time>2019-01-07T09:36:49Z</time>
      </trkpt>
      <trkpt lat="42.43347" lon="2.16935">
        <ele>2592.4</ele>
        <time>2019-01-07T09:36:49Z</time>
      </trkpt>
      <trkpt lat="42.43348" lon="2.16934">
        <ele>2593.3</ele>
        <time>2019-01-07T09:36:50Z</time>
      </trkpt>
      <trkpt lat="42.43347" lon="2.16931">
        <ele>2590.4</ele>
        <time>2019-01-07T09:36:50Z</time>
      </trkpt>
      <trkpt lat="42.43351" lon="2.16932">
        <ele>2592.4</ele>
        <time>2019-01-07T09:36:51Z</time>
      </trkpt>
      <trkpt lat="42.43352" lon="2.16932">
        <ele>2589</ele>
        <time>2019-01-07T09:36:52Z</time>
      </trkpt>
      <trkpt lat="42.43354" lon="2.16933">
        <ele>2588.5</ele>
        <time>2019-01-07T09:36:52Z</time>
      </trkpt>
      <trkpt lat="42.43355" lon="2.16933">
        <ele>2588.5</ele>
        <time>2019-01-07T09:36:52Z</time>
      </trkpt>
      <trkpt lat="42.4336" lon="2.16933">
        <ele>2588.1</ele>
        <time>2019-01-07T09:36:54Z</time>
      </trkpt>
      <trkpt lat="42.43363" lon="2.16935">
        <ele>2589.9</ele>
        <time>2019-01-07T09:36:55Z</time>
      </trkpt>
      <trkpt lat="42.43367" lon="2.16936">
        <ele>2590.9</ele>
        <time>2019-01-07T09:36:56Z</time>
      </trkpt>
      <trkpt lat="42.43371" lon="2.16939">
        <ele>2594.2</ele>
        <time>2019-01-07T09:36:57Z</time>
      </trkpt>
      <trkpt lat="42.43373" lon="2.16938">
        <ele>2596.3</ele>
        <time>2019-01-07T09:36:58Z</time>
      </trkpt>
      <trkpt lat="42.43373" lon="2.16936">
        <ele>2596.7</ele>
        <time>2019-01-07T09:36:58Z</time>
      </trkpt>
      <trkpt lat="42.43375" lon="2.16936">
        <ele>2590.9</ele>
        <time>2019-01-07T09:36:59Z</time>
      </trkpt>
      <trkpt lat="42.43377" lon="2.16934">
        <ele>2589.5</ele>
        <time>2019-01-07T09:36:59Z</time>
      </trkpt>
      <trkpt lat="42.4338" lon="2.16931">
        <ele>2588.6</ele>
        <time>2019-01-07T09:37:00Z</time>
      </trkpt>
      <trkpt lat="42.43385" lon="2.16928">
        <ele>2590</ele>
        <time>2019-01-07T09:37:02Z</time>
      </trkpt>
      <trkpt lat="42.43389" lon="2.16925">
        <ele>2589</ele>
        <time>2019-01-07T09:37:03Z</time>
      </trkpt>
      <trkpt lat="42.43391" lon="2.1692">
        <ele>2585.6</ele>
        <time>2019-01-07T09:37:04Z</time>
      </trkpt>
      <trkpt lat="42.43394" lon="2.16917">
        <ele>2581.3</ele>
        <time>2019-01-07T09:37:05Z</time>
      </trkpt>
      <trkpt lat="42.43404" lon="2.16917">
        <ele>2582.7</ele>
        <time>2019-01-07T09:37:08Z</time>
      </trkpt>
      <trkpt lat="42.4341" lon="2.16918">
        <ele>2585.1</ele>
        <time>2019-01-07T09:37:09Z</time>
      </trkpt>
      <trkpt lat="42.43413" lon="2.16919">
        <ele>2586.1</ele>
        <time>2019-01-07T09:37:10Z</time>
      </trkpt>
      <trkpt lat="42.43416" lon="2.16919">
        <ele>2588.6</ele>
        <time>2019-01-07T09:37:11Z</time>
      </trkpt>
      <trkpt lat="42.43417" lon="2.16918">
        <ele>2589.6</ele>
        <time>2019-01-07T09:37:11Z</time>
      </trkpt>
      <trkpt lat="42.4342" lon="2.16916">
        <ele>2589.9</ele>
        <time>2019-01-07T09:37:12Z</time>
      </trkpt>
      <trkpt lat="42.43422" lon="2.16915">
        <ele>2589.6</ele>
        <time>2019-01-07T09:37:13Z</time>
      </trkpt>
      <trkpt lat="42.43421" lon="2.16912">
        <ele>2587.6</ele>
        <time>2019-01-07T09:37:13Z</time>
      </trkpt>
      <trkpt lat="42.43422" lon="2.16907">
        <ele>2584.3</ele>
        <time>2019-01-07T09:37:15Z</time>
      </trkpt>
      <trkpt lat="42.43422" lon="2.16908">
        <ele>2587.2</ele>
        <time>2019-01-07T09:37:15Z</time>
      </trkpt>
      <trkpt lat="42.43424" lon="2.1691">
        <ele>2594.2</ele>
        <time>2019-01-07T09:37:16Z</time>
      </trkpt>
      <trkpt lat="42.43425" lon="2.16915">
        <ele>2600.5</ele>
        <time>2019-01-07T09:37:16Z</time>
      </trkpt>
      <trkpt lat="42.43427" lon="2.16906">
        <ele>2588.6</ele>
        <time>2019-01-07T09:37:18Z</time>
      </trkpt>
      <trkpt lat="42.43427" lon="2.16906">
        <ele>2589.1</ele>
        <time>2019-01-07T09:37:18Z</time>
      </trkpt>
      <trkpt lat="42.43432" lon="2.16907">
        <ele>2594.2</ele>
        <time>2019-01-07T09:37:20Z</time>
      </trkpt>
      <trkpt lat="42.43434" lon="2.16909">
        <ele>2596.7</ele>
        <time>2019-01-07T09:37:20Z</time>
      </trkpt>
      <trkpt lat="42.43438" lon="2.16907">
        <ele>2599.6</ele>
        <time>2019-01-07T09:37:22Z</time>
      </trkpt>
      <trkpt lat="42.43441" lon="2.16905">
        <ele>2602.5</ele>
        <time>2019-01-07T09:37:22Z</time>
      </trkpt>
      <trkpt lat="42.43438" lon="2.16905">
        <ele>2602.4</ele>
        <time>2019-01-07T09:37:23Z</time>
      </trkpt>
      <trkpt lat="42.43441" lon="2.16903">
        <ele>2603.9</ele>
        <time>2019-01-07T09:37:24Z</time>
      </trkpt>
      <trkpt lat="42.43443" lon="2.16901">
        <ele>2604.9</ele>
        <time>2019-01-07T09:37:25Z</time>
      </trkpt>
      <trkpt lat="42.43446" lon="2.16897">
        <ele>2607.2</ele>
        <time>2019-01-07T09:37:26Z</time>
      </trkpt>
      <trkpt lat="42.43449" lon="2.16891">
        <ele>2609.6</ele>
        <time>2019-01-07T09:37:27Z</time>
      </trkpt>
      <trkpt lat="42.43455" lon="2.1689">
        <ele>2612.1</ele>
        <time>2019-01-07T09:37:29Z</time>
      </trkpt>
      <trkpt lat="42.43459" lon="2.16888">
        <ele>2613.5</ele>
        <time>2019-01-07T09:37:30Z</time>
      </trkpt>
      <trkpt lat="42.43462" lon="2.16886">
        <ele>2613.1</ele>
        <time>2019-01-07T09:37:31Z</time>
      </trkpt>
      <trkpt lat="42.43465" lon="2.16884">
        <ele>2614.6</ele>
        <time>2019-01-07T09:37:32Z</time>
      </trkpt>
      <trkpt lat="42.4347" lon="2.1688">
        <ele>2615.5</ele>
        <time>2019-01-07T09:37:33Z</time>
      </trkpt>
      <trkpt lat="42.43472" lon="2.16878">
        <ele>2617</ele>
        <time>2019-01-07T09:37:34Z</time>
      </trkpt>
      <trkpt lat="42.43478" lon="2.16879">
        <ele>2624.2</ele>
        <time>2019-01-07T09:37:36Z</time>
      </trkpt>
      <trkpt lat="42.43476" lon="2.16877">
        <ele>2620.8</ele>
        <time>2019-01-07T09:37:36Z</time>
      </trkpt>
      <trkpt lat="42.43476" lon="2.16875">
        <ele>2619.3</ele>
        <time>2019-01-07T09:37:37Z</time>
      </trkpt>
      <trkpt lat="42.4348" lon="2.16875">
        <ele>2619.2</ele>
        <time>2019-01-07T09:37:38Z</time>
      </trkpt>
      <trkpt lat="42.43483" lon="2.16875">
        <ele>2620.2</ele>
        <time>2019-01-07T09:37:39Z</time>
      </trkpt>
      <trkpt lat="42.43486" lon="2.16873">
        <ele>2620.7</ele>
        <time>2019-01-07T09:37:39Z</time>
      </trkpt>
      <trkpt lat="42.4349" lon="2.16872">
        <ele>2621.2</ele>
        <time>2019-01-07T09:37:41Z</time>
      </trkpt>
      <trkpt lat="42.43501" lon="2.16868">
        <ele>2623.7</ele>
        <time>2019-01-07T09:37:44Z</time>
      </trkpt>
      <trkpt lat="42.43507" lon="2.16867">
        <ele>2626</ele>
        <time>2019-01-07T09:37:45Z</time>
      </trkpt>
      <trkpt lat="42.4351" lon="2.16865">
        <ele>2628.4</ele>
        <time>2019-01-07T09:37:46Z</time>
      </trkpt>
      <trkpt lat="42.43516" lon="2.16867">
        <ele>2629</ele>
        <time>2019-01-07T09:37:48Z</time>
      </trkpt>
      <trkpt lat="42.43521" lon="2.16864">
        <ele>2628.5</ele>
        <time>2019-01-07T09:37:49Z</time>
      </trkpt>
      <trkpt lat="42.43521" lon="2.16862">
        <ele>2625</ele>
        <time>2019-01-07T09:37:50Z</time>
      </trkpt>
      <trkpt lat="42.43521" lon="2.16853">
        <ele>2629.4</ele>
        <time>2019-01-07T09:37:51Z</time>
      </trkpt>
      <trkpt lat="42.43524" lon="2.16849">
        <ele>2630.3</ele>
        <time>2019-01-07T09:37:53Z</time>
      </trkpt>
      <trkpt lat="42.43525" lon="2.16848">
        <ele>2630.3</ele>
        <time>2019-01-07T09:37:53Z</time>
      </trkpt>
      <trkpt lat="42.43527" lon="2.16844">
        <ele>2630.8</ele>
        <time>2019-01-07T09:37:54Z</time>
      </trkpt>
      <trkpt lat="42.43526" lon="2.1684">
        <ele>2629</ele>
        <time>2019-01-07T09:37:55Z</time>
      </trkpt>
      <trkpt lat="42.43528" lon="2.16838">
        <ele>2626.9</ele>
        <time>2019-01-07T09:37:55Z</time>
      </trkpt>
      <trkpt lat="42.4353" lon="2.16837">
        <ele>2626.1</ele>
        <time>2019-01-07T09:37:56Z</time>
      </trkpt>
      <trkpt lat="42.43532" lon="2.16838">
        <ele>2626.6</ele>
        <time>2019-01-07T09:37:57Z</time>
      </trkpt>
      <trkpt lat="42.43538" lon="2.16839">
        <ele>2626.9</ele>
        <time>2019-01-07T09:37:58Z</time>
      </trkpt>
      <trkpt lat="42.43539" lon="2.16838">
        <ele>2626.9</ele>
        <time>2019-01-07T09:37:58Z</time>
      </trkpt>
      <trkpt lat="42.43543" lon="2.16835">
        <ele>2628.5</ele>
        <time>2019-01-07T09:38:00Z</time>
      </trkpt>
      <trkpt lat="42.43547" lon="2.16829">
        <ele>2631.3</ele>
        <time>2019-01-07T09:38:01Z</time>
      </trkpt>
      <trkpt lat="42.43547" lon="2.16825">
        <ele>2632.7</ele>
        <time>2019-01-07T09:38:02Z</time>
      </trkpt>
      <trkpt lat="42.43548" lon="2.16819">
        <ele>2633.7</ele>
        <time>2019-01-07T09:38:03Z</time>
      </trkpt>
      <trkpt lat="42.43556" lon="2.16812">
        <ele>2636.1</ele>
        <time>2019-01-07T09:38:06Z</time>
      </trkpt>
      <trkpt lat="42.43566" lon="2.16804">
        <ele>2640.4</ele>
        <time>2019-01-07T09:38:09Z</time>
      </trkpt>
      <trkpt lat="42.43571" lon="2.16798">
        <ele>2642.8</ele>
        <time>2019-01-07T09:38:11Z</time>
      </trkpt>
      <trkpt lat="42.43574" lon="2.16794">
        <ele>2642.9</ele>
        <time>2019-01-07T09:38:12Z</time>
      </trkpt>
      <trkpt lat="42.43574" lon="2.16793">
        <ele>2642</ele>
        <time>2019-01-07T09:38:12Z</time>
      </trkpt>
      <trkpt lat="42.43573" lon="2.16792">
        <ele>2645.3</ele>
        <time>2019-01-07T09:38:12Z</time>
      </trkpt>
      <trkpt lat="42.43573" lon="2.16792">
        <ele>2645.3</ele>
        <time>2019-01-07T09:38:12Z</time>
      </trkpt>
      <trkpt lat="42.43569" lon="2.1679">
        <ele>2640.4</ele>
        <time>2019-01-07T09:38:13Z</time>
      </trkpt>
      <trkpt lat="42.43568" lon="2.16791">
        <ele>2638.5</ele>
        <time>2019-01-07T09:38:14Z</time>
      </trkpt>
      <trkpt lat="42.4357" lon="2.16792">
        <ele>2638.5</ele>
        <time>2019-01-07T09:38:14Z</time>
      </trkpt>
      <trkpt lat="42.43575" lon="2.1679">
        <ele>2637</ele>
        <time>2019-01-07T09:38:16Z</time>
      </trkpt>
      <trkpt lat="42.4358" lon="2.16787">
        <ele>2636.7</ele>
        <time>2019-01-07T09:38:17Z</time>
      </trkpt>
      <trkpt lat="42.43585" lon="2.16785">
        <ele>2636.1</ele>
        <time>2019-01-07T09:38:19Z</time>
      </trkpt>
      <trkpt lat="42.43591" lon="2.16784">
        <ele>2635.7</ele>
        <time>2019-01-07T09:38:20Z</time>
      </trkpt>
      <trkpt lat="42.43599" lon="2.16784">
        <ele>2636.6</ele>
        <time>2019-01-07T09:38:22Z</time>
      </trkpt>
      <trkpt lat="42.43601" lon="2.16785">
        <ele>2635.7</ele>
        <time>2019-01-07T09:38:23Z</time>
      </trkpt>
      <trkpt lat="42.43604" lon="2.16789">
        <ele>2633.3</ele>
        <time>2019-01-07T09:38:24Z</time>
      </trkpt>
      <trkpt lat="42.43606" lon="2.16793">
        <ele>2629</ele>
        <time>2019-01-07T09:38:25Z</time>
      </trkpt>
      <trkpt lat="42.43609" lon="2.16798">
        <ele>2625.6</ele>
        <time>2019-01-07T09:38:26Z</time>
      </trkpt>
      <trkpt lat="42.43611" lon="2.16801">
        <ele>2622.2</ele>
        <time>2019-01-07T09:38:27Z</time>
      </trkpt>
      <trkpt lat="42.43612" lon="2.16807">
        <ele>2620.7</ele>
        <time>2019-01-07T09:38:28Z</time>
      </trkpt>
      <trkpt lat="42.43612" lon="2.1681">
        <ele>2619.7</ele>
        <time>2019-01-07T09:38:29Z</time>
      </trkpt>
      <trkpt lat="42.43615" lon="2.16814">
        <ele>2618.9</ele>
        <time>2019-01-07T09:38:30Z</time>
      </trkpt>
      <trkpt lat="42.43619" lon="2.16812">
        <ele>2618.3</ele>
        <time>2019-01-07T09:38:31Z</time>
      </trkpt>
      <trkpt lat="42.43621" lon="2.16814">
        <ele>2618.4</ele>
        <time>2019-01-07T09:38:31Z</time>
      </trkpt>
      <trkpt lat="42.43623" lon="2.16817">
        <ele>2618.4</ele>
        <time>2019-01-07T09:38:32Z</time>
      </trkpt>
      <trkpt lat="42.43626" lon="2.16818">
        <ele>2620.2</ele>
        <time>2019-01-07T09:38:33Z</time>
      </trkpt>
      <trkpt lat="42.43629" lon="2.16818">
        <ele>2622.7</ele>
        <time>2019-01-07T09:38:34Z</time>
      </trkpt>
      <trkpt lat="42.43631" lon="2.16818">
        <ele>2621.7</ele>
        <time>2019-01-07T09:38:34Z</time>
      </trkpt>
      <trkpt lat="42.43633" lon="2.16822">
        <ele>2622.7</ele>
        <time>2019-01-07T09:38:35Z</time>
      </trkpt>
      <trkpt lat="42.43634" lon="2.16821">
        <ele>2617.3</ele>
        <time>2019-01-07T09:38:36Z</time>
      </trkpt>
      <trkpt lat="42.43633" lon="2.1682">
        <ele>2612.5</ele>
        <time>2019-01-07T09:38:36Z</time>
      </trkpt>
      <trkpt lat="42.43639" lon="2.16827">
        <ele>2611.1</ele>
        <time>2019-01-07T09:38:38Z</time>
      </trkpt>
      <trkpt lat="42.43638" lon="2.16829">
        <ele>2609.1</ele>
        <time>2019-01-07T09:38:38Z</time>
      </trkpt>
      <trkpt lat="42.43638" lon="2.16836">
        <ele>2606.8</ele>
        <time>2019-01-07T09:38:39Z</time>
      </trkpt>
      <trkpt lat="42.43638" lon="2.16841">
        <ele>2604.5</ele>
        <time>2019-01-07T09:38:40Z</time>
      </trkpt>
      <trkpt lat="42.4364" lon="2.16844">
        <ele>2602.1</ele>
        <time>2019-01-07T09:38:41Z</time>
      </trkpt>
      <trkpt lat="42.43642" lon="2.16848">
        <ele>2601.1</ele>
        <time>2019-01-07T09:38:42Z</time>
      </trkpt>
      <trkpt lat="42.43651" lon="2.16853">
        <ele>2604</ele>
        <time>2019-01-07T09:38:45Z</time>
      </trkpt>
      <trkpt lat="42.43651" lon="2.1685">
        <ele>2599.1</ele>
        <time>2019-01-07T09:38:45Z</time>
      </trkpt>
      <trkpt lat="42.43649" lon="2.16846">
        <ele>2592.9</ele>
        <time>2019-01-07T09:38:46Z</time>
      </trkpt>
      <trkpt lat="42.43644" lon="2.16844">
        <ele>2586.6</ele>
        <time>2019-01-07T09:38:47Z</time>
      </trkpt>
      <trkpt lat="42.43649" lon="2.16846">
        <ele>2588</ele>
        <time>2019-01-07T09:38:49Z</time>
      </trkpt>
      <trkpt lat="42.4365" lon="2.16846">
        <ele>2589</ele>
        <time>2019-01-07T09:38:49Z</time>
      </trkpt>
      <trkpt lat="42.43658" lon="2.16852">
        <ele>2594.3</ele>
        <time>2019-01-07T09:38:52Z</time>
      </trkpt>
      <trkpt lat="42.43657" lon="2.16853">
        <ele>2589.5</ele>
        <time>2019-01-07T09:38:52Z</time>
      </trkpt>
      <trkpt lat="42.43662" lon="2.16854">
        <ele>2590</ele>
        <time>2019-01-07T09:38:54Z</time>
      </trkpt>
      <trkpt lat="42.43666" lon="2.16858">
        <ele>2590.4</ele>
        <time>2019-01-07T09:38:55Z</time>
      </trkpt>
      <trkpt lat="42.43666" lon="2.16858">
        <ele>2590.5</ele>
        <time>2019-01-07T09:38:55Z</time>
      </trkpt>
      <trkpt lat="42.43669" lon="2.16859">
        <ele>2592.9</ele>
        <time>2019-01-07T09:38:56Z</time>
      </trkpt>
      <trkpt lat="42.43676" lon="2.16861">
        <ele>2593.8</ele>
        <time>2019-01-07T09:38:58Z</time>
      </trkpt>
      <trkpt lat="42.43679" lon="2.16864">
        <ele>2596.8</ele>
        <time>2019-01-07T09:38:59Z</time>
      </trkpt>
      <trkpt lat="42.43676" lon="2.16869">
        <ele>2599.6</ele>
        <time>2019-01-07T09:39:00Z</time>
      </trkpt>
      <trkpt lat="42.43673" lon="2.16873">
        <ele>2597.1</ele>
        <time>2019-01-07T09:39:01Z</time>
      </trkpt>
      <trkpt lat="42.4367" lon="2.16869">
        <ele>2582.2</ele>
        <time>2019-01-07T09:39:02Z</time>
      </trkpt>
      <trkpt lat="42.43675" lon="2.16872">
        <ele>2584.7</ele>
        <time>2019-01-07T09:39:04Z</time>
      </trkpt>
      <trkpt lat="42.43677" lon="2.16872">
        <ele>2585.6</ele>
        <time>2019-01-07T09:39:04Z</time>
      </trkpt>
      <trkpt lat="42.43681" lon="2.16873">
        <ele>2588.6</ele>
        <time>2019-01-07T09:39:06Z</time>
      </trkpt>
      <trkpt lat="42.43684" lon="2.16874">
        <ele>2589.5</ele>
        <time>2019-01-07T09:39:06Z</time>
      </trkpt>
      <trkpt lat="42.43691" lon="2.16874">
        <ele>2588.5</ele>
        <time>2019-01-07T09:39:08Z</time>
      </trkpt>
      <trkpt lat="42.43677" lon="2.1687">
        <ele>2577</ele>
        <time>2019-01-07T09:39:12Z</time>
      </trkpt>
      <trkpt lat="42.43683" lon="2.16876">
        <ele>2577.5</ele>
        <time>2019-01-07T09:39:14Z</time>
      </trkpt>
      <trkpt lat="42.43697" lon="2.16882">
        <ele>2553</ele>
        <time>2019-01-07T09:39:18Z</time>
      </trkpt>
      <trkpt lat="42.43692" lon="2.16884">
        <ele>2545.7</ele>
        <time>2019-01-07T09:39:19Z</time>
      </trkpt>
      <trkpt lat="42.43696" lon="2.16885">
        <ele>2548.6</ele>
        <time>2019-01-07T09:39:20Z</time>
      </trkpt>
      <trkpt lat="42.437" lon="2.16887">
        <ele>2552</ele>
        <time>2019-01-07T09:39:21Z</time>
      </trkpt>
      <trkpt lat="42.43699" lon="2.16887">
        <ele>2551.5</ele>
        <time>2019-01-07T09:39:22Z</time>
      </trkpt>
      <trkpt lat="42.43698" lon="2.16885">
        <ele>2549.7</ele>
        <time>2019-01-07T09:39:22Z</time>
      </trkpt>
      <trkpt lat="42.43708" lon="2.16881">
        <ele>2557.8</ele>
        <time>2019-01-07T09:39:25Z</time>
      </trkpt>
      <trkpt lat="42.43713" lon="2.16879">
        <ele>2561.6</ele>
        <time>2019-01-07T09:39:26Z</time>
      </trkpt>
      <trkpt lat="42.4371" lon="2.16878">
        <ele>2557.3</ele>
        <time>2019-01-07T09:39:27Z</time>
      </trkpt>
      <trkpt lat="42.43713" lon="2.16879">
        <ele>2556.4</ele>
        <time>2019-01-07T09:39:28Z</time>
      </trkpt>
      <trkpt lat="42.43713" lon="2.1688">
        <ele>2556.4</ele>
        <time>2019-01-07T09:39:28Z</time>
      </trkpt>
      <trkpt lat="42.43716" lon="2.16883">
        <ele>2558.2</ele>
        <time>2019-01-07T09:39:29Z</time>
      </trkpt>
      <trkpt lat="42.43718" lon="2.16884">
        <ele>2557.7</ele>
        <time>2019-01-07T09:39:29Z</time>
      </trkpt>
      <trkpt lat="42.43718" lon="2.16884">
        <ele>2554.8</ele>
        <time>2019-01-07T09:39:30Z</time>
      </trkpt>
      <trkpt lat="42.4372" lon="2.16884">
        <ele>2553.4</ele>
        <time>2019-01-07T09:39:30Z</time>
      </trkpt>
      <trkpt lat="42.43717" lon="2.16881">
        <ele>2548.7</ele>
        <time>2019-01-07T09:39:31Z</time>
      </trkpt>
      <trkpt lat="42.43718" lon="2.16883">
        <ele>2548.1</ele>
        <time>2019-01-07T09:39:31Z</time>
      </trkpt>
      <trkpt lat="42.43718" lon="2.16884">
        <ele>2545.8</ele>
        <time>2019-01-07T09:39:32Z</time>
      </trkpt>
      <trkpt lat="42.4372" lon="2.16887">
        <ele>2544.3</ele>
        <time>2019-01-07T09:39:32Z</time>
      </trkpt>
      <trkpt lat="42.43724" lon="2.1689">
        <ele>2545.7</ele>
        <time>2019-01-07T09:39:33Z</time>
      </trkpt>
      <trkpt lat="42.43727" lon="2.16889">
        <ele>2540</ele>
        <time>2019-01-07T09:39:34Z</time>
      </trkpt>
      <trkpt lat="42.43734" lon="2.16889">
        <ele>2534.7</ele>
        <time>2019-01-07T09:39:36Z</time>
      </trkpt>
      <trkpt lat="42.43732" lon="2.16889">
        <ele>2529.9</ele>
        <time>2019-01-07T09:39:37Z</time>
      </trkpt>
      <trkpt lat="42.43734" lon="2.16888">
        <ele>2529.9</ele>
        <time>2019-01-07T09:39:37Z</time>
      </trkpt>
      <trkpt lat="42.43745" lon="2.16891">
        <ele>2526.5</ele>
        <time>2019-01-07T09:39:40Z</time>
      </trkpt>
      <trkpt lat="42.43746" lon="2.1689">
        <ele>2523.6</ele>
        <time>2019-01-07T09:39:40Z</time>
      </trkpt>
      <trkpt lat="42.43745" lon="2.16887">
        <ele>2520.8</ele>
        <time>2019-01-07T09:39:41Z</time>
      </trkpt>
      <trkpt lat="42.43749" lon="2.16887">
        <ele>2519.4</ele>
        <time>2019-01-07T09:39:42Z</time>
      </trkpt>
      <trkpt lat="42.43751" lon="2.16889">
        <ele>2518.4</ele>
        <time>2019-01-07T09:39:43Z</time>
      </trkpt>
      <trkpt lat="42.43754" lon="2.16888">
        <ele>2519.9</ele>
        <time>2019-01-07T09:39:43Z</time>
      </trkpt>
      <trkpt lat="42.43758" lon="2.16888">
        <ele>2522.3</ele>
        <time>2019-01-07T09:39:44Z</time>
      </trkpt>
      <trkpt lat="42.43763" lon="2.16886">
        <ele>2522.7</ele>
        <time>2019-01-07T09:39:46Z</time>
      </trkpt>
      <trkpt lat="42.43763" lon="2.16885">
        <ele>2522.2</ele>
        <time>2019-01-07T09:39:46Z</time>
      </trkpt>
      <trkpt lat="42.43766" lon="2.16885">
        <ele>2518.4</ele>
        <time>2019-01-07T09:39:47Z</time>
      </trkpt>
      <trkpt lat="42.43768" lon="2.16886">
        <ele>2515.4</ele>
        <time>2019-01-07T09:39:48Z</time>
      </trkpt>
      <trkpt lat="42.43769" lon="2.16888">
        <ele>2510.6</ele>
        <time>2019-01-07T09:39:48Z</time>
      </trkpt>
      <trkpt lat="42.43769" lon="2.16889">
        <ele>2508.7</ele>
        <time>2019-01-07T09:39:48Z</time>
      </trkpt>
      <trkpt lat="42.4377" lon="2.16888">
        <ele>2510.3</ele>
        <time>2019-01-07T09:39:49Z</time>
      </trkpt>
      <trkpt lat="42.43771" lon="2.1689">
        <ele>2505.3</ele>
        <time>2019-01-07T09:39:49Z</time>
      </trkpt>
      <trkpt lat="42.43773" lon="2.16893">
        <ele>2502.9</ele>
        <time>2019-01-07T09:39:50Z</time>
      </trkpt>
      <trkpt lat="42.43774" lon="2.16896">
        <ele>2501.6</ele>
        <time>2019-01-07T09:39:51Z</time>
      </trkpt>
      <trkpt lat="42.43771" lon="2.16896">
        <ele>2489.5</ele>
        <time>2019-01-07T09:39:51Z</time>
      </trkpt>
      <trkpt lat="42.43774" lon="2.16895">
        <ele>2490.9</ele>
        <time>2019-01-07T09:39:52Z</time>
      </trkpt>
      <trkpt lat="42.43775" lon="2.16894">
        <ele>2488.1</ele>
        <time>2019-01-07T09:39:53Z</time>
      </trkpt>
      <trkpt lat="42.43774" lon="2.16893">
        <ele>2487.5</ele>
        <time>2019-01-07T09:39:53Z</time>
      </trkpt>
      <trkpt lat="42.43777" lon="2.16893">
        <ele>2486.2</ele>
        <time>2019-01-07T09:39:54Z</time>
      </trkpt>
      <trkpt lat="42.4378" lon="2.16893">
        <ele>2483.7</ele>
        <time>2019-01-07T09:39:54Z</time>
      </trkpt>
      <trkpt lat="42.43783" lon="2.16893">
        <ele>2483.2</ele>
        <time>2019-01-07T09:39:55Z</time>
      </trkpt>
      <trkpt lat="42.43783" lon="2.16893">
        <ele>2484.2</ele>
        <time>2019-01-07T09:39:55Z</time>
      </trkpt>
      <trkpt lat="42.43786" lon="2.16891">
        <ele>2484.8</ele>
        <time>2019-01-07T09:39:56Z</time>
      </trkpt>
      <trkpt lat="42.4379" lon="2.16891">
        <ele>2485.3</ele>
        <time>2019-01-07T09:39:57Z</time>
      </trkpt>
      <trkpt lat="42.43802" lon="2.16889">
        <ele>2487.1</ele>
        <time>2019-01-07T09:40:00Z</time>
      </trkpt>
      <trkpt lat="42.43801" lon="2.16888">
        <ele>2485.7</ele>
        <time>2019-01-07T09:40:01Z</time>
      </trkpt>
      <trkpt lat="42.43802" lon="2.16886">
        <ele>2482.3</ele>
        <time>2019-01-07T09:40:01Z</time>
      </trkpt>
      <trkpt lat="42.438" lon="2.16884">
        <ele>2479.5</ele>
        <time>2019-01-07T09:40:02Z</time>
      </trkpt>
      <trkpt lat="42.43798" lon="2.16882">
        <ele>2475.6</ele>
        <time>2019-01-07T09:40:02Z</time>
      </trkpt>
      <trkpt lat="42.43802" lon="2.16882">
        <ele>2473.7</ele>
        <time>2019-01-07T09:40:03Z</time>
      </trkpt>
      <trkpt lat="42.43801" lon="2.16883">
        <ele>2469.3</ele>
        <time>2019-01-07T09:40:03Z</time>
      </trkpt>
      <trkpt lat="42.43803" lon="2.16882">
        <ele>2468.3</ele>
        <time>2019-01-07T09:40:04Z</time>
      </trkpt>
      <trkpt lat="42.43807" lon="2.1688">
        <ele>2466</ele>
        <time>2019-01-07T09:40:05Z</time>
      </trkpt>
      <trkpt lat="42.43804" lon="2.16882">
        <ele>2464.6</ele>
        <time>2019-01-07T09:40:06Z</time>
      </trkpt>
      <trkpt lat="42.43811" lon="2.16884">
        <ele>2458.3</ele>
        <time>2019-01-07T09:40:08Z</time>
      </trkpt>
      <trkpt lat="42.43814" lon="2.16884">
        <ele>2458.2</ele>
        <time>2019-01-07T09:40:09Z</time>
      </trkpt>
      <trkpt lat="42.43817" lon="2.16884">
        <ele>2456.4</ele>
        <time>2019-01-07T09:40:09Z</time>
      </trkpt>
      <trkpt lat="42.43819" lon="2.16882">
        <ele>2455</ele>
        <time>2019-01-07T09:40:10Z</time>
      </trkpt>
      <trkpt lat="42.43824" lon="2.16881">
        <ele>2454.5</ele>
        <time>2019-01-07T09:40:11Z</time>
      </trkpt>
      <trkpt lat="42.43832" lon="2.16879">
        <ele>2451.1</ele>
        <time>2019-01-07T09:40:14Z</time>
      </trkpt>
      <trkpt lat="42.43831" lon="2.16875">
        <ele>2446.3</ele>
        <time>2019-01-07T09:40:15Z</time>
      </trkpt>
      <trkpt lat="42.43833" lon="2.1688">
        <ele>2444.8</ele>
        <time>2019-01-07T09:40:16Z</time>
      </trkpt>
      <trkpt lat="42.43835" lon="2.16883">
        <ele>2443.8</ele>
        <time>2019-01-07T09:40:17Z</time>
      </trkpt>
      <trkpt lat="42.43835" lon="2.16886">
        <ele>2442.4</ele>
        <time>2019-01-07T09:40:17Z</time>
      </trkpt>
      <trkpt lat="42.43835" lon="2.16884">
        <ele>2446.3</ele>
        <time>2019-01-07T09:40:18Z</time>
      </trkpt>
      <trkpt lat="42.43841" lon="2.16877">
        <ele>2448.7</ele>
        <time>2019-01-07T09:40:20Z</time>
      </trkpt>
      <trkpt lat="42.43841" lon="2.16877">
        <ele>2448.2</ele>
        <time>2019-01-07T09:40:20Z</time>
      </trkpt>
      <trkpt lat="42.43844" lon="2.16861">
        <ele>2436.6</ele>
        <time>2019-01-07T09:40:23Z</time>
      </trkpt>
      <trkpt lat="42.43841" lon="2.16859">
        <ele>2429</ele>
        <time>2019-01-07T09:40:24Z</time>
      </trkpt>
      <trkpt lat="42.43843" lon="2.16858">
        <ele>2428.4</ele>
        <time>2019-01-07T09:40:24Z</time>
      </trkpt>
      <trkpt lat="42.43841" lon="2.16859">
        <ele>2426</ele>
        <time>2019-01-07T09:40:25Z</time>
      </trkpt>
      <trkpt lat="42.43867" lon="2.16848">
        <ele>2412.1</ele>
        <time>2019-01-07T09:40:32Z</time>
      </trkpt>
      <trkpt lat="42.43869" lon="2.16849">
        <ele>2407.3</ele>
        <time>2019-01-07T09:40:33Z</time>
      </trkpt>
      <trkpt lat="42.43922" lon="2.1683">
        <ele>2341</ele>
        <time>2019-01-07T09:40:48Z</time>
      </trkpt>
      <trkpt lat="42.43914" lon="2.16827">
        <ele>2377.1</ele>
        <time>2019-01-07T09:40:50Z</time>
      </trkpt>
      <trkpt lat="42.43903" lon="2.16818">
        <ele>2377</ele>
        <time>2019-01-07T09:40:53Z</time>
      </trkpt>
      <trkpt lat="42.43928" lon="2.16803">
        <ele>2347.7</ele>
        <time>2019-01-07T09:41:00Z</time>
      </trkpt>
      <trkpt lat="42.43932" lon="2.16808">
        <ele>2347.2</ele>
        <time>2019-01-07T09:41:02Z</time>
      </trkpt>
      <trkpt lat="42.4395" lon="2.16778">
        <ele>2269.3</ele>
        <time>2019-01-07T09:41:10Z</time>
      </trkpt>
      <trkpt lat="42.43938" lon="2.16781">
        <ele>2247.3</ele>
        <time>2019-01-07T09:41:13Z</time>
      </trkpt>
      <trkpt lat="42.43944" lon="2.1678">
        <ele>2253.5</ele>
        <time>2019-01-07T09:41:14Z</time>
      </trkpt>
      <trkpt lat="42.43953" lon="2.1677">
        <ele>2282.9</ele>
        <time>2019-01-07T09:41:17Z</time>
      </trkpt>
      <trkpt lat="42.43961" lon="2.1675">
        <ele>2327.1</ele>
        <time>2019-01-07T09:41:22Z</time>
      </trkpt>
      <trkpt lat="42.4397" lon="2.16744">
        <ele>2316</ele>
        <time>2019-01-07T09:41:25Z</time>
      </trkpt>
      <trkpt lat="42.43974" lon="2.16746">
        <ele>2308.3</ele>
        <time>2019-01-07T09:41:26Z</time>
      </trkpt>
      <trkpt lat="42.43975" lon="2.16746">
        <ele>2307.8</ele>
        <time>2019-01-07T09:41:26Z</time>
      </trkpt>
      <trkpt lat="42.43981" lon="2.16751">
        <ele>2299.7</ele>
        <time>2019-01-07T09:41:28Z</time>
      </trkpt>
      <trkpt lat="42.44009" lon="2.16739">
        <ele>2257.3</ele>
        <time>2019-01-07T09:41:36Z</time>
      </trkpt>
      <trkpt lat="42.44027" lon="2.16725">
        <ele>2256.8</ele>
        <time>2019-01-07T09:41:41Z</time>
      </trkpt>
      <trkpt lat="42.44021" lon="2.16692">
        <ele>2300.2</ele>
        <time>2019-01-07T09:41:48Z</time>
      </trkpt>
      <trkpt lat="42.44021" lon="2.16692">
        <ele>2309.7</ele>
        <time>2019-01-07T09:41:48Z</time>
      </trkpt>
      <trkpt lat="42.44025" lon="2.16693">
        <ele>2310.8</ele>
        <time>2019-01-07T09:41:49Z</time>
      </trkpt>
      <trkpt lat="42.44029" lon="2.16689">
        <ele>2301.2</ele>
        <time>2019-01-07T09:41:51Z</time>
      </trkpt>
      <trkpt lat="42.44028" lon="2.16686">
        <ele>2297.7</ele>
        <time>2019-01-07T09:41:51Z</time>
      </trkpt>
      <trkpt lat="42.44055" lon="2.16697">
        <ele>2249.6</ele>
        <time>2019-01-07T09:41:59Z</time>
      </trkpt>
      <trkpt lat="42.4407" lon="2.16698">
        <ele>2213.1</ele>
        <time>2019-01-07T09:42:03Z</time>
      </trkpt>
      <trkpt lat="42.44077" lon="2.16693">
        <ele>2218</ele>
        <time>2019-01-07T09:42:05Z</time>
      </trkpt>
      <trkpt lat="42.4408" lon="2.16692">
        <ele>2217.4</ele>
        <time>2019-01-07T09:42:06Z</time>
      </trkpt>
      <trkpt lat="42.44082" lon="2.16688">
        <ele>2210.2</ele>
        <time>2019-01-07T09:42:07Z</time>
      </trkpt>
      <trkpt lat="42.44082" lon="2.16684">
        <ele>2203.1</ele>
        <time>2019-01-07T09:42:07Z</time>
      </trkpt>
      <trkpt lat="42.44085" lon="2.16681">
        <ele>2203.6</ele>
        <time>2019-01-07T09:42:08Z</time>
      </trkpt>
      <trkpt lat="42.44088" lon="2.16682">
        <ele>2203.1</ele>
        <time>2019-01-07T09:42:09Z</time>
      </trkpt>
      <trkpt lat="42.4409" lon="2.1668">
        <ele>2202.6</ele>
        <time>2019-01-07T09:42:10Z</time>
      </trkpt>
      <trkpt lat="42.44093" lon="2.16678">
        <ele>2200.6</ele>
        <time>2019-01-07T09:42:11Z</time>
      </trkpt>
      <trkpt lat="42.44093" lon="2.16675">
        <ele>2197.3</ele>
        <time>2019-01-07T09:42:11Z</time>
      </trkpt>
      <trkpt lat="42.44093" lon="2.16669">
        <ele>2194.8</ele>
        <time>2019-01-07T09:42:12Z</time>
      </trkpt>
      <trkpt lat="42.44094" lon="2.16667">
        <ele>2194.3</ele>
        <time>2019-01-07T09:42:13Z</time>
      </trkpt>
      <trkpt lat="42.44098" lon="2.16662">
        <ele>2193.5</ele>
        <time>2019-01-07T09:42:14Z</time>
      </trkpt>
      <trkpt lat="42.44101" lon="2.16659">
        <ele>2196.4</ele>
        <time>2019-01-07T09:42:15Z</time>
      </trkpt>
      <trkpt lat="42.44101" lon="2.1666">
        <ele>2197.3</ele>
        <time>2019-01-07T09:42:15Z</time>
      </trkpt>
      <trkpt lat="42.44101" lon="2.16654">
        <ele>2195.9</ele>
        <time>2019-01-07T09:42:17Z</time>
      </trkpt>
      <trkpt lat="42.441" lon="2.16651">
        <ele>2189.6</ele>
        <time>2019-01-07T09:42:17Z</time>
      </trkpt>
      <trkpt lat="42.44111" lon="2.16648">
        <ele>2190.1</ele>
        <time>2019-01-07T09:42:20Z</time>
      </trkpt>
      <trkpt lat="42.44114" lon="2.16649">
        <ele>2191</ele>
        <time>2019-01-07T09:42:21Z</time>
      </trkpt>
      <trkpt lat="42.44116" lon="2.16645">
        <ele>2188.7</ele>
        <time>2019-01-07T09:42:22Z</time>
      </trkpt>
      <trkpt lat="42.44116" lon="2.16641">
        <ele>2187.1</ele>
        <time>2019-01-07T09:42:23Z</time>
      </trkpt>
      <trkpt lat="42.44116" lon="2.16637">
        <ele>2180.4</ele>
        <time>2019-01-07T09:42:24Z</time>
      </trkpt>
      <trkpt lat="42.44119" lon="2.16635">
        <ele>2179</ele>
        <time>2019-01-07T09:42:25Z</time>
      </trkpt>
      <trkpt lat="42.4412" lon="2.16629">
        <ele>2176.2</ele>
        <time>2019-01-07T09:42:26Z</time>
      </trkpt>
      <trkpt lat="42.44119" lon="2.16624">
        <ele>2171.8</ele>
        <time>2019-01-07T09:42:27Z</time>
      </trkpt>
      <trkpt lat="42.44121" lon="2.16621">
        <ele>2168.4</ele>
        <time>2019-01-07T09:42:28Z</time>
      </trkpt>
      <trkpt lat="42.44126" lon="2.16621">
        <ele>2171.8</ele>
        <time>2019-01-07T09:42:29Z</time>
      </trkpt>
      <trkpt lat="42.44127" lon="2.16622">
        <ele>2173.8</ele>
        <time>2019-01-07T09:42:29Z</time>
      </trkpt>
      <trkpt lat="42.44127" lon="2.1662">
        <ele>2173.2</ele>
        <time>2019-01-07T09:42:30Z</time>
      </trkpt>
      <trkpt lat="42.44127" lon="2.16616">
        <ele>2171.9</ele>
        <time>2019-01-07T09:42:30Z</time>
      </trkpt>
      <trkpt lat="42.44127" lon="2.1661">
        <ele>2170.8</ele>
        <time>2019-01-07T09:42:32Z</time>
      </trkpt>
      <trkpt lat="42.44126" lon="2.16605">
        <ele>2169</ele>
        <time>2019-01-07T09:42:33Z</time>
      </trkpt>
      <trkpt lat="42.44126" lon="2.16601">
        <ele>2167.9</ele>
        <time>2019-01-07T09:42:33Z</time>
      </trkpt>
      <trkpt lat="42.44124" lon="2.16598">
        <ele>2167.4</ele>
        <time>2019-01-07T09:42:34Z</time>
      </trkpt>
      <trkpt lat="42.44123" lon="2.16596">
        <ele>2166.6</ele>
        <time>2019-01-07T09:42:35Z</time>
      </trkpt>
      <trkpt lat="42.44124" lon="2.16591">
        <ele>2163.2</ele>
        <time>2019-01-07T09:42:36Z</time>
      </trkpt>
      <trkpt lat="42.44124" lon="2.16587">
        <ele>2160.7</ele>
        <time>2019-01-07T09:42:36Z</time>
      </trkpt>
      <trkpt lat="42.4412" lon="2.16584">
        <ele>2161.3</ele>
        <time>2019-01-07T09:42:37Z</time>
      </trkpt>
      <trkpt lat="42.44114" lon="2.16581">
        <ele>2160.3</ele>
        <time>2019-01-07T09:42:39Z</time>
      </trkpt>
      <trkpt lat="42.44115" lon="2.16576">
        <ele>2160.7</ele>
        <time>2019-01-07T09:42:40Z</time>
      </trkpt>
      <trkpt lat="42.44119" lon="2.16567">
        <ele>2157.9</ele>
        <time>2019-01-07T09:42:42Z</time>
      </trkpt>
      <trkpt lat="42.4412" lon="2.16564">
        <ele>2157.4</ele>
        <time>2019-01-07T09:42:43Z</time>
      </trkpt>
      <trkpt lat="42.44117" lon="2.16564">
        <ele>2156</ele>
        <time>2019-01-07T09:42:43Z</time>
      </trkpt>
      <trkpt lat="42.44115" lon="2.16565">
        <ele>2155.9</ele>
        <time>2019-01-07T09:42:44Z</time>
      </trkpt>
      <trkpt lat="42.44111" lon="2.16563">
        <ele>2155.4</ele>
        <time>2019-01-07T09:42:45Z</time>
      </trkpt>
      <trkpt lat="42.44107" lon="2.16561">
        <ele>2156.5</ele>
        <time>2019-01-07T09:42:46Z</time>
      </trkpt>
      <trkpt lat="42.44107" lon="2.16558">
        <ele>2155.5</ele>
        <time>2019-01-07T09:42:47Z</time>
      </trkpt>
      <trkpt lat="42.44105" lon="2.16555">
        <ele>2155</ele>
        <time>2019-01-07T09:42:48Z</time>
      </trkpt>
      <trkpt lat="42.44104" lon="2.16544">
        <ele>2154.4</ele>
        <time>2019-01-07T09:42:50Z</time>
      </trkpt>
      <trkpt lat="42.44104" lon="2.16539">
        <ele>2154.5</ele>
        <time>2019-01-07T09:42:51Z</time>
      </trkpt>
      <trkpt lat="42.44105" lon="2.1653">
        <ele>2152.6</ele>
        <time>2019-01-07T09:42:52Z</time>
      </trkpt>
      <trkpt lat="42.44105" lon="2.16522">
        <ele>2152.5</ele>
        <time>2019-01-07T09:42:54Z</time>
      </trkpt>
      <trkpt lat="42.44105" lon="2.16512">
        <ele>2152.6</ele>
        <time>2019-01-07T09:42:56Z</time>
      </trkpt>
      <trkpt lat="42.44106" lon="2.16504">
        <ele>2152.5</ele>
        <time>2019-01-07T09:42:58Z</time>
      </trkpt>
      <trkpt lat="42.44107" lon="2.16494">
        <ele>2151.1</ele>
        <time>2019-01-07T09:43:00Z</time>
      </trkpt>
      <trkpt lat="42.44109" lon="2.16485">
        <ele>2147.7</ele>
        <time>2019-01-07T09:43:02Z</time>
      </trkpt>
      <trkpt lat="42.4411" lon="2.1647">
        <ele>2148.3</ele>
        <time>2019-01-07T09:43:04Z</time>
      </trkpt>
      <trkpt lat="42.44114" lon="2.16459">
        <ele>2148.8</ele>
        <time>2019-01-07T09:43:07Z</time>
      </trkpt>
      <trkpt lat="42.44119" lon="2.1645">
        <ele>2145.3</ele>
        <time>2019-01-07T09:43:09Z</time>
      </trkpt>
      <trkpt lat="42.44126" lon="2.16437">
        <ele>2143.5</ele>
        <time>2019-01-07T09:43:12Z</time>
      </trkpt>
      <trkpt lat="42.44139" lon="2.16428">
        <ele>2141</ele>
        <time>2019-01-07T09:43:16Z</time>
      </trkpt>
      <trkpt lat="42.44146" lon="2.16427">
        <ele>2143.4</ele>
        <time>2019-01-07T09:43:18Z</time>
      </trkpt>
      <trkpt lat="42.44151" lon="2.16426">
        <ele>2144.8</ele>
        <time>2019-01-07T09:43:19Z</time>
      </trkpt>
      <trkpt lat="42.44152" lon="2.16425">
        <ele>2145.3</ele>
        <time>2019-01-07T09:43:20Z</time>
      </trkpt>
      <trkpt lat="42.44154" lon="2.16419">
        <ele>2143.5</ele>
        <time>2019-01-07T09:43:21Z</time>
      </trkpt>
      <trkpt lat="42.44154" lon="2.16417">
        <ele>2142.4</ele>
        <time>2019-01-07T09:43:22Z</time>
      </trkpt>
      <trkpt lat="42.44163" lon="2.16413">
        <ele>2140.5</ele>
        <time>2019-01-07T09:43:24Z</time>
      </trkpt>
      <trkpt lat="42.44165" lon="2.16414">
        <ele>2141</ele>
        <time>2019-01-07T09:43:25Z</time>
      </trkpt>
      <trkpt lat="42.4417" lon="2.16422">
        <ele>2140.6</ele>
        <time>2019-01-07T09:43:27Z</time>
      </trkpt>
      <trkpt lat="42.4417" lon="2.16422">
        <ele>2140.5</ele>
        <time>2019-01-07T09:43:27Z</time>
      </trkpt>
      <trkpt lat="42.44174" lon="2.1642">
        <ele>2140.6</ele>
        <time>2019-01-07T09:43:28Z</time>
      </trkpt>
      <trkpt lat="42.44178" lon="2.16414">
        <ele>2141.6</ele>
        <time>2019-01-07T09:43:30Z</time>
      </trkpt>
      <trkpt lat="42.44183" lon="2.16413">
        <ele>2141.6</ele>
        <time>2019-01-07T09:43:31Z</time>
      </trkpt>
      <trkpt lat="42.4419" lon="2.16413">
        <ele>2143.5</ele>
        <time>2019-01-07T09:43:33Z</time>
      </trkpt>
      <trkpt lat="42.44198" lon="2.16414">
        <ele>2144.4</ele>
        <time>2019-01-07T09:43:35Z</time>
      </trkpt>
      <trkpt lat="42.44202" lon="2.16412">
        <ele>2142.5</ele>
        <time>2019-01-07T09:43:36Z</time>
      </trkpt>
      <trkpt lat="42.44214" lon="2.16412">
        <ele>2134.8</ele>
        <time>2019-01-07T09:43:39Z</time>
      </trkpt>
      <trkpt lat="42.44215" lon="2.16413">
        <ele>2137.6</ele>
        <time>2019-01-07T09:43:39Z</time>
      </trkpt>
      <trkpt lat="42.44201" lon="2.16414">
        <ele>2141.6</ele>
        <time>2019-01-07T09:43:43Z</time>
      </trkpt>
      <trkpt lat="42.44208" lon="2.16411">
        <ele>2143.4</ele>
        <time>2019-01-07T09:43:45Z</time>
      </trkpt>
      <trkpt lat="42.44213" lon="2.16411">
        <ele>2146.4</ele>
        <time>2019-01-07T09:43:46Z</time>
      </trkpt>
      <trkpt lat="42.44212" lon="2.16412">
        <ele>2142</ele>
        <time>2019-01-07T09:43:47Z</time>
      </trkpt>
      <trkpt lat="42.44215" lon="2.16416">
        <ele>2141.1</ele>
        <time>2019-01-07T09:43:48Z</time>
      </trkpt>
      <trkpt lat="42.44222" lon="2.16422">
        <ele>2141.1</ele>
        <time>2019-01-07T09:43:50Z</time>
      </trkpt>
      <trkpt lat="42.44226" lon="2.16425">
        <ele>2141.5</ele>
        <time>2019-01-07T09:43:51Z</time>
      </trkpt>
      <trkpt lat="42.44233" lon="2.16427">
        <ele>2142.5</ele>
        <time>2019-01-07T09:43:53Z</time>
      </trkpt>
      <trkpt lat="42.44234" lon="2.16428">
        <ele>2142</ele>
        <time>2019-01-07T09:43:53Z</time>
      </trkpt>
      <trkpt lat="42.44236" lon="2.16426">
        <ele>2136.7</ele>
        <time>2019-01-07T09:43:54Z</time>
      </trkpt>
      <trkpt lat="42.44239" lon="2.16427">
        <ele>2134.8</ele>
        <time>2019-01-07T09:43:55Z</time>
      </trkpt>
      <trkpt lat="42.44241" lon="2.16428">
        <ele>2133.3</ele>
        <time>2019-01-07T09:43:56Z</time>
      </trkpt>
      <trkpt lat="42.44251" lon="2.16437">
        <ele>2134.9</ele>
        <time>2019-01-07T09:43:59Z</time>
      </trkpt>
      <trkpt lat="42.44253" lon="2.16438">
        <ele>2134.3</ele>
        <time>2019-01-07T09:43:59Z</time>
      </trkpt>
      <trkpt lat="42.44258" lon="2.16437">
        <ele>2131.4</ele>
        <time>2019-01-07T09:44:01Z</time>
      </trkpt>
      <trkpt lat="42.44261" lon="2.16439">
        <ele>2130.9</ele>
        <time>2019-01-07T09:44:02Z</time>
      </trkpt>
      <trkpt lat="42.44261" lon="2.16442">
        <ele>2130.9</ele>
        <time>2019-01-07T09:44:02Z</time>
      </trkpt>
      <trkpt lat="42.44264" lon="2.16445">
        <ele>2130.4</ele>
        <time>2019-01-07T09:44:03Z</time>
      </trkpt>
      <trkpt lat="42.44267" lon="2.16445">
        <ele>2129.9</ele>
        <time>2019-01-07T09:44:04Z</time>
      </trkpt>
      <trkpt lat="42.44273" lon="2.16446">
        <ele>2129.5</ele>
        <time>2019-01-07T09:44:06Z</time>
      </trkpt>
      <trkpt lat="42.44277" lon="2.16447">
        <ele>2129.9</ele>
        <time>2019-01-07T09:44:07Z</time>
      </trkpt>
      <trkpt lat="42.4428" lon="2.16448">
        <ele>2129</ele>
        <time>2019-01-07T09:44:07Z</time>
      </trkpt>
      <trkpt lat="42.44282" lon="2.16448">
        <ele>2128.1</ele>
        <time>2019-01-07T09:44:08Z</time>
      </trkpt>
      <trkpt lat="42.44287" lon="2.16449">
        <ele>2127.6</ele>
        <time>2019-01-07T09:44:09Z</time>
      </trkpt>
      <trkpt lat="42.44291" lon="2.1645">
        <ele>2126.7</ele>
        <time>2019-01-07T09:44:10Z</time>
      </trkpt>
      <trkpt lat="42.44294" lon="2.1645">
        <ele>2123.2</ele>
        <time>2019-01-07T09:44:11Z</time>
      </trkpt>
      <trkpt lat="42.44295" lon="2.1645">
        <ele>2121.8</ele>
        <time>2019-01-07T09:44:11Z</time>
      </trkpt>
      <trkpt lat="42.44301" lon="2.16453">
        <ele>2118.4</ele>
        <time>2019-01-07T09:44:13Z</time>
      </trkpt>
      <trkpt lat="42.44304" lon="2.1646">
        <ele>2117.5</ele>
        <time>2019-01-07T09:44:15Z</time>
      </trkpt>
      <trkpt lat="42.44307" lon="2.16463">
        <ele>2117</ele>
        <time>2019-01-07T09:44:16Z</time>
      </trkpt>
      <trkpt lat="42.44314" lon="2.16473">
        <ele>2114.6</ele>
        <time>2019-01-07T09:44:18Z</time>
      </trkpt>
      <trkpt lat="42.44315" lon="2.16477">
        <ele>2113.1</ele>
        <time>2019-01-07T09:44:19Z</time>
      </trkpt>
      <trkpt lat="42.44318" lon="2.16489">
        <ele>2112.1</ele>
        <time>2019-01-07T09:44:22Z</time>
      </trkpt>
      <trkpt lat="42.4432" lon="2.16495">
        <ele>2112.7</ele>
        <time>2019-01-07T09:44:23Z</time>
      </trkpt>
      <trkpt lat="42.44323" lon="2.16498">
        <ele>2113.6</ele>
        <time>2019-01-07T09:44:24Z</time>
      </trkpt>
      <trkpt lat="42.44325" lon="2.16502">
        <ele>2110.3</ele>
        <time>2019-01-07T09:44:25Z</time>
      </trkpt>
      <trkpt lat="42.44328" lon="2.16509">
        <ele>2109.3</ele>
        <time>2019-01-07T09:44:26Z</time>
      </trkpt>
      <trkpt lat="42.44334" lon="2.16519">
        <ele>2110.7</ele>
        <time>2019-01-07T09:44:29Z</time>
      </trkpt>
      <trkpt lat="42.44337" lon="2.1653">
        <ele>2113.1</ele>
        <time>2019-01-07T09:44:31Z</time>
      </trkpt>
      <trkpt lat="42.44341" lon="2.16537">
        <ele>2112.7</ele>
        <time>2019-01-07T09:44:33Z</time>
      </trkpt>
      <trkpt lat="42.44347" lon="2.16539">
        <ele>2110.3</ele>
        <time>2019-01-07T09:44:35Z</time>
      </trkpt>
      <trkpt lat="42.44349" lon="2.16539">
        <ele>2108.8</ele>
        <time>2019-01-07T09:44:35Z</time>
      </trkpt>
      <trkpt lat="42.44355" lon="2.16549">
        <ele>2107.4</ele>
        <time>2019-01-07T09:44:38Z</time>
      </trkpt>
      <trkpt lat="42.44364" lon="2.16553">
        <ele>2106.4</ele>
        <time>2019-01-07T09:44:40Z</time>
      </trkpt>
      <trkpt lat="42.44368" lon="2.16557">
        <ele>2105.9</ele>
        <time>2019-01-07T09:44:42Z</time>
      </trkpt>
      <trkpt lat="42.44376" lon="2.16565">
        <ele>2106</ele>
        <time>2019-01-07T09:44:44Z</time>
      </trkpt>
      <trkpt lat="42.44377" lon="2.16566">
        <ele>2106.5</ele>
        <time>2019-01-07T09:44:45Z</time>
      </trkpt>
      <trkpt lat="42.44381" lon="2.16571">
        <ele>2105.4</ele>
        <time>2019-01-07T09:44:46Z</time>
      </trkpt>
      <trkpt lat="42.44385" lon="2.16578">
        <ele>2106.9</ele>
        <time>2019-01-07T09:44:48Z</time>
      </trkpt>
      <trkpt lat="42.44394" lon="2.16584">
        <ele>2105.9</ele>
        <time>2019-01-07T09:44:51Z</time>
      </trkpt>
      <trkpt lat="42.44395" lon="2.16586">
        <ele>2106</ele>
        <time>2019-01-07T09:44:51Z</time>
      </trkpt>
      <trkpt lat="42.44394" lon="2.1659">
        <ele>2098.8</ele>
        <time>2019-01-07T09:44:52Z</time>
      </trkpt>
      <trkpt lat="42.44395" lon="2.16593">
        <ele>2095.4</ele>
        <time>2019-01-07T09:44:53Z</time>
      </trkpt>
      <trkpt lat="42.44399" lon="2.16598">
        <ele>2095.3</ele>
        <time>2019-01-07T09:44:54Z</time>
      </trkpt>
      <trkpt lat="42.44403" lon="2.16602">
        <ele>2094.4</ele>
        <time>2019-01-07T09:44:55Z</time>
      </trkpt>
      <trkpt lat="42.44406" lon="2.16609">
        <ele>2094.4</ele>
        <time>2019-01-07T09:44:57Z</time>
      </trkpt>
      <trkpt lat="42.44407" lon="2.16612">
        <ele>2094.4</ele>
        <time>2019-01-07T09:44:57Z</time>
      </trkpt>
      <trkpt lat="42.4441" lon="2.16616">
        <ele>2092</ele>
        <time>2019-01-07T09:44:59Z</time>
      </trkpt>
      <trkpt lat="42.44416" lon="2.1662">
        <ele>2092.5</ele>
        <time>2019-01-07T09:45:00Z</time>
      </trkpt>
      <trkpt lat="42.44424" lon="2.16623">
        <ele>2093</ele>
        <time>2019-01-07T09:45:03Z</time>
      </trkpt>
      <trkpt lat="42.44429" lon="2.16626">
        <ele>2094.9</ele>
        <time>2019-01-07T09:45:04Z</time>
      </trkpt>
      <trkpt lat="42.4443" lon="2.16628">
        <ele>2093</ele>
        <time>2019-01-07T09:45:04Z</time>
      </trkpt>
      <trkpt lat="42.44431" lon="2.16629">
        <ele>2092.9</ele>
        <time>2019-01-07T09:45:05Z</time>
      </trkpt>
      <trkpt lat="42.44432" lon="2.1663">
        <ele>2093.5</ele>
        <time>2019-01-07T09:45:05Z</time>
      </trkpt>
      <trkpt lat="42.44441" lon="2.16638">
        <ele>2097.3</ele>
        <time>2019-01-07T09:45:08Z</time>
      </trkpt>
      <trkpt lat="42.44442" lon="2.16639">
        <ele>2097.3</ele>
        <time>2019-01-07T09:45:08Z</time>
      </trkpt>
      <trkpt lat="42.44447" lon="2.16645">
        <ele>2100.2</ele>
        <time>2019-01-07T09:45:10Z</time>
      </trkpt>
      <trkpt lat="42.44448" lon="2.16646">
        <ele>2100.2</ele>
        <time>2019-01-07T09:45:11Z</time>
      </trkpt>
      <trkpt lat="42.44447" lon="2.16653">
        <ele>2094.4</ele>
        <time>2019-01-07T09:45:12Z</time>
      </trkpt>
      <trkpt lat="42.44445" lon="2.16655">
        <ele>2092</ele>
        <time>2019-01-07T09:45:12Z</time>
      </trkpt>
      <trkpt lat="42.44447" lon="2.16664">
        <ele>2091.1</ele>
        <time>2019-01-07T09:45:14Z</time>
      </trkpt>
      <trkpt lat="42.44447" lon="2.16676">
        <ele>2091.1</ele>
        <time>2019-01-07T09:45:17Z</time>
      </trkpt>
      <trkpt lat="42.44446" lon="2.1668">
        <ele>2090.5</ele>
        <time>2019-01-07T09:45:18Z</time>
      </trkpt>
      <trkpt lat="42.44447" lon="2.16682">
        <ele>2089.6</ele>
        <time>2019-01-07T09:45:18Z</time>
      </trkpt>
      <trkpt lat="42.44448" lon="2.16683">
        <ele>2087.2</ele>
        <time>2019-01-07T09:45:18Z</time>
      </trkpt>
      <trkpt lat="42.44452" lon="2.16684">
        <ele>2082.8</ele>
        <time>2019-01-07T09:45:20Z</time>
      </trkpt>
      <trkpt lat="42.4446" lon="2.16691">
        <ele>2083.3</ele>
        <time>2019-01-07T09:45:22Z</time>
      </trkpt>
      <trkpt lat="42.44463" lon="2.16694">
        <ele>2083.4</ele>
        <time>2019-01-07T09:45:23Z</time>
      </trkpt>
      <trkpt lat="42.44464" lon="2.16696">
        <ele>2081</ele>
        <time>2019-01-07T09:45:24Z</time>
      </trkpt>
      <trkpt lat="42.44463" lon="2.16698">
        <ele>2079.6</ele>
        <time>2019-01-07T09:45:24Z</time>
      </trkpt>
      <trkpt lat="42.44465" lon="2.16698">
        <ele>2078.6</ele>
        <time>2019-01-07T09:45:25Z</time>
      </trkpt>
      <trkpt lat="42.44469" lon="2.16704">
        <ele>2077.1</ele>
        <time>2019-01-07T09:45:26Z</time>
      </trkpt>
      <trkpt lat="42.44472" lon="2.1671">
        <ele>2076.7</ele>
        <time>2019-01-07T09:45:28Z</time>
      </trkpt>
      <trkpt lat="42.44476" lon="2.16713">
        <ele>2076.2</ele>
        <time>2019-01-07T09:45:29Z</time>
      </trkpt>
      <trkpt lat="42.44483" lon="2.16718">
        <ele>2076.1</ele>
        <time>2019-01-07T09:45:31Z</time>
      </trkpt>
      <trkpt lat="42.44487" lon="2.16718">
        <ele>2074.8</ele>
        <time>2019-01-07T09:45:32Z</time>
      </trkpt>
      <trkpt lat="42.44492" lon="2.16724">
        <ele>2074.7</ele>
        <time>2019-01-07T09:45:34Z</time>
      </trkpt>
      <trkpt lat="42.44498" lon="2.1673">
        <ele>2074.2</ele>
        <time>2019-01-07T09:45:36Z</time>
      </trkpt>
      <trkpt lat="42.44501" lon="2.16731">
        <ele>2075.1</ele>
        <time>2019-01-07T09:45:36Z</time>
      </trkpt>
      <trkpt lat="42.44503" lon="2.16732">
        <ele>2075.7</ele>
        <time>2019-01-07T09:45:37Z</time>
      </trkpt>
      <trkpt lat="42.44511" lon="2.16735">
        <ele>2077.2</ele>
        <time>2019-01-07T09:45:39Z</time>
      </trkpt>
      <trkpt lat="42.44513" lon="2.16737">
        <ele>2072.8</ele>
        <time>2019-01-07T09:45:40Z</time>
      </trkpt>
      <trkpt lat="42.44513" lon="2.16738">
        <ele>2069.4</ele>
        <time>2019-01-07T09:45:40Z</time>
      </trkpt>
      <trkpt lat="42.44515" lon="2.16745">
        <ele>2067.1</ele>
        <time>2019-01-07T09:45:42Z</time>
      </trkpt>
      <trkpt lat="42.44516" lon="2.16746">
        <ele>2066.5</ele>
        <time>2019-01-07T09:45:42Z</time>
      </trkpt>
      <trkpt lat="42.44521" lon="2.16754">
        <ele>2067.1</ele>
        <time>2019-01-07T09:45:44Z</time>
      </trkpt>
      <trkpt lat="42.44525" lon="2.16761">
        <ele>2069.5</ele>
        <time>2019-01-07T09:45:46Z</time>
      </trkpt>
      <trkpt lat="42.44526" lon="2.16769">
        <ele>2068.4</ele>
        <time>2019-01-07T09:45:47Z</time>
      </trkpt>
      <trkpt lat="42.44535" lon="2.16771">
        <ele>2066.5</ele>
        <time>2019-01-07T09:45:50Z</time>
      </trkpt>
      <trkpt lat="42.44537" lon="2.16777">
        <ele>2067</ele>
        <time>2019-01-07T09:45:51Z</time>
      </trkpt>
      <trkpt lat="42.44542" lon="2.16778">
        <ele>2067.6</ele>
        <time>2019-01-07T09:45:53Z</time>
      </trkpt>
      <trkpt lat="42.44544" lon="2.16781">
        <ele>2067.6</ele>
        <time>2019-01-07T09:45:53Z</time>
      </trkpt>
      <trkpt lat="42.44546" lon="2.16786">
        <ele>2065.5</ele>
        <time>2019-01-07T09:45:54Z</time>
      </trkpt>
      <trkpt lat="42.44548" lon="2.16788">
        <ele>2064.2</ele>
        <time>2019-01-07T09:45:55Z</time>
      </trkpt>
      <trkpt lat="42.44549" lon="2.16795">
        <ele>2064.6</ele>
        <time>2019-01-07T09:45:56Z</time>
      </trkpt>
      <trkpt lat="42.44551" lon="2.168">
        <ele>2060.2</ele>
        <time>2019-01-07T09:45:58Z</time>
      </trkpt>
      <trkpt lat="42.44557" lon="2.16808">
        <ele>2058.8</ele>
        <time>2019-01-07T09:46:00Z</time>
      </trkpt>
      <trkpt lat="42.44557" lon="2.16812">
        <ele>2058.9</ele>
        <time>2019-01-07T09:46:01Z</time>
      </trkpt>
      <trkpt lat="42.44561" lon="2.16816">
        <ele>2055.9</ele>
        <time>2019-01-07T09:46:02Z</time>
      </trkpt>
      <trkpt lat="42.44562" lon="2.16824">
        <ele>2055.4</ele>
        <time>2019-01-07T09:46:04Z</time>
      </trkpt>
      <trkpt lat="42.44561" lon="2.16826">
        <ele>2055.1</ele>
        <time>2019-01-07T09:46:04Z</time>
      </trkpt>
      <trkpt lat="42.44561" lon="2.16837">
        <ele>2055</ele>
        <time>2019-01-07T09:46:06Z</time>
      </trkpt>
      <trkpt lat="42.44569" lon="2.1684">
        <ele>2053.6</ele>
        <time>2019-01-07T09:46:08Z</time>
      </trkpt>
      <trkpt lat="42.44572" lon="2.16847">
        <ele>2052.1</ele>
        <time>2019-01-07T09:46:10Z</time>
      </trkpt>
      <trkpt lat="42.44575" lon="2.1685">
        <ele>2052.7</ele>
        <time>2019-01-07T09:46:11Z</time>
      </trkpt>
      <trkpt lat="42.44576" lon="2.16852">
        <ele>2049.7</ele>
        <time>2019-01-07T09:46:11Z</time>
      </trkpt>
      <trkpt lat="42.4458" lon="2.16857">
        <ele>2048.2</ele>
        <time>2019-01-07T09:46:13Z</time>
      </trkpt>
      <trkpt lat="42.44586" lon="2.16863">
        <ele>2048.7</ele>
        <time>2019-01-07T09:46:15Z</time>
      </trkpt>
      <trkpt lat="42.44587" lon="2.16864">
        <ele>2048.8</ele>
        <time>2019-01-07T09:46:15Z</time>
      </trkpt>
      <trkpt lat="42.4459" lon="2.1687">
        <ele>2048.7</ele>
        <time>2019-01-07T09:46:17Z</time>
      </trkpt>
      <trkpt lat="42.44587" lon="2.16874">
        <ele>2045.8</ele>
        <time>2019-01-07T09:46:18Z</time>
      </trkpt>
      <trkpt lat="42.44586" lon="2.16876">
        <ele>2043.5</ele>
        <time>2019-01-07T09:46:18Z</time>
      </trkpt>
      <trkpt lat="42.4459" lon="2.16877">
        <ele>2043.1</ele>
        <time>2019-01-07T09:46:19Z</time>
      </trkpt>
      <trkpt lat="42.44595" lon="2.16881">
        <ele>2042</ele>
        <time>2019-01-07T09:46:21Z</time>
      </trkpt>
      <trkpt lat="42.44602" lon="2.16885">
        <ele>2042.5</ele>
        <time>2019-01-07T09:46:23Z</time>
      </trkpt>
      <trkpt lat="42.44605" lon="2.16887">
        <ele>2040.5</ele>
        <time>2019-01-07T09:46:24Z</time>
      </trkpt>
      <trkpt lat="42.44611" lon="2.16892">
        <ele>2040.1</ele>
        <time>2019-01-07T09:46:26Z</time>
      </trkpt>
      <trkpt lat="42.44615" lon="2.16895">
        <ele>2040.6</ele>
        <time>2019-01-07T09:46:27Z</time>
      </trkpt>
      <trkpt lat="42.44621" lon="2.169">
        <ele>2041</ele>
        <time>2019-01-07T09:46:29Z</time>
      </trkpt>
      <trkpt lat="42.44624" lon="2.16904">
        <ele>2038.2</ele>
        <time>2019-01-07T09:46:30Z</time>
      </trkpt>
      <trkpt lat="42.44625" lon="2.16906">
        <ele>2038.1</ele>
        <time>2019-01-07T09:46:30Z</time>
      </trkpt>
      <trkpt lat="42.44629" lon="2.16909">
        <ele>2035.2</ele>
        <time>2019-01-07T09:46:32Z</time>
      </trkpt>
      <trkpt lat="42.44633" lon="2.16914">
        <ele>2033.9</ele>
        <time>2019-01-07T09:46:33Z</time>
      </trkpt>
      <trkpt lat="42.44639" lon="2.16919">
        <ele>2033.4</ele>
        <time>2019-01-07T09:46:35Z</time>
      </trkpt>
      <trkpt lat="42.44649" lon="2.16926">
        <ele>2034.9</ele>
        <time>2019-01-07T09:46:38Z</time>
      </trkpt>
      <trkpt lat="42.44651" lon="2.16926">
        <ele>2032.5</ele>
        <time>2019-01-07T09:46:39Z</time>
      </trkpt>
      <trkpt lat="42.44656" lon="2.16929">
        <ele>2029.5</ele>
        <time>2019-01-07T09:46:40Z</time>
      </trkpt>
      <trkpt lat="42.44659" lon="2.1693">
        <ele>2029.6</ele>
        <time>2019-01-07T09:46:41Z</time>
      </trkpt>
      <trkpt lat="42.44663" lon="2.16929">
        <ele>2028.6</ele>
        <time>2019-01-07T09:46:42Z</time>
      </trkpt>
      <trkpt lat="42.44666" lon="2.16931">
        <ele>2025.6</ele>
        <time>2019-01-07T09:46:43Z</time>
      </trkpt>
      <trkpt lat="42.44667" lon="2.16931">
        <ele>2024.2</ele>
        <time>2019-01-07T09:46:43Z</time>
      </trkpt>
      <trkpt lat="42.44672" lon="2.16935">
        <ele>2023.2</ele>
        <time>2019-01-07T09:46:45Z</time>
      </trkpt>
      <trkpt lat="42.44676" lon="2.16936">
        <ele>2021.3</ele>
        <time>2019-01-07T09:46:46Z</time>
      </trkpt>
      <trkpt lat="42.44682" lon="2.16939">
        <ele>2020.3</ele>
        <time>2019-01-07T09:46:47Z</time>
      </trkpt>
      <trkpt lat="42.44685" lon="2.1694">
        <ele>2020.4</ele>
        <time>2019-01-07T09:46:48Z</time>
      </trkpt>
      <trkpt lat="42.44693" lon="2.16943">
        <ele>2021.4</ele>
        <time>2019-01-07T09:46:50Z</time>
      </trkpt>
      <trkpt lat="42.44701" lon="2.16945">
        <ele>2022.7</ele>
        <time>2019-01-07T09:46:53Z</time>
      </trkpt>
      <trkpt lat="42.44702" lon="2.16945">
        <ele>2022.3</ele>
        <time>2019-01-07T09:46:53Z</time>
      </trkpt>
      <trkpt lat="42.44702" lon="2.16948">
        <ele>2015.2</ele>
        <time>2019-01-07T09:46:53Z</time>
      </trkpt>
      <trkpt lat="42.44704" lon="2.16951">
        <ele>2013.2</ele>
        <time>2019-01-07T09:46:54Z</time>
      </trkpt>
      <trkpt lat="42.44706" lon="2.16959">
        <ele>2011.7</ele>
        <time>2019-01-07T09:46:56Z</time>
      </trkpt>
      <trkpt lat="42.44711" lon="2.16961">
        <ele>2008.8</ele>
        <time>2019-01-07T09:46:57Z</time>
      </trkpt>
      <trkpt lat="42.44724" lon="2.16962">
        <ele>2007.4</ele>
        <time>2019-01-07T09:47:01Z</time>
      </trkpt>
      <trkpt lat="42.44728" lon="2.16964">
        <ele>2009.3</ele>
        <time>2019-01-07T09:47:02Z</time>
      </trkpt>
      <trkpt lat="42.44735" lon="2.16968">
        <ele>2010.8</ele>
        <time>2019-01-07T09:47:04Z</time>
      </trkpt>
      <trkpt lat="42.44743" lon="2.16973">
        <ele>2011.2</ele>
        <time>2019-01-07T09:47:06Z</time>
      </trkpt>
      <trkpt lat="42.44745" lon="2.16976">
        <ele>2011.3</ele>
        <time>2019-01-07T09:47:07Z</time>
      </trkpt>
      <trkpt lat="42.44746" lon="2.16978">
        <ele>2010.2</ele>
        <time>2019-01-07T09:47:08Z</time>
      </trkpt>
      <trkpt lat="42.44753" lon="2.16977">
        <ele>2007.8</ele>
        <time>2019-01-07T09:47:09Z</time>
      </trkpt>
      <trkpt lat="42.44759" lon="2.16978">
        <ele>2006.4</ele>
        <time>2019-01-07T09:47:11Z</time>
      </trkpt>
      <trkpt lat="42.44767" lon="2.16979">
        <ele>2008.9</ele>
        <time>2019-01-07T09:47:13Z</time>
      </trkpt>
      <trkpt lat="42.44772" lon="2.1698">
        <ele>2009.3</ele>
        <time>2019-01-07T09:47:14Z</time>
      </trkpt>
      <trkpt lat="42.44776" lon="2.16978">
        <ele>2007.4</ele>
        <time>2019-01-07T09:47:16Z</time>
      </trkpt>
      <trkpt lat="42.44783" lon="2.16982">
        <ele>2006.4</ele>
        <time>2019-01-07T09:47:18Z</time>
      </trkpt>
      <trkpt lat="42.44788" lon="2.16982">
        <ele>2006.4</ele>
        <time>2019-01-07T09:47:19Z</time>
      </trkpt>
      <trkpt lat="42.44793" lon="2.16981">
        <ele>2003.5</ele>
        <time>2019-01-07T09:47:20Z</time>
      </trkpt>
      <trkpt lat="42.44798" lon="2.16984">
        <ele>2002.1</ele>
        <time>2019-01-07T09:47:22Z</time>
      </trkpt>
      <trkpt lat="42.44803" lon="2.16989">
        <ele>1999.7</ele>
        <time>2019-01-07T09:47:23Z</time>
      </trkpt>
      <trkpt lat="42.44806" lon="2.16991">
        <ele>1999.7</ele>
        <time>2019-01-07T09:47:24Z</time>
      </trkpt>
      <trkpt lat="42.44809" lon="2.16993">
        <ele>1999.3</ele>
        <time>2019-01-07T09:47:25Z</time>
      </trkpt>
      <trkpt lat="42.44811" lon="2.16995">
        <ele>1999.2</ele>
        <time>2019-01-07T09:47:26Z</time>
      </trkpt>
      <trkpt lat="42.44816" lon="2.16997">
        <ele>1999.3</ele>
        <time>2019-01-07T09:47:27Z</time>
      </trkpt>
      <trkpt lat="42.4482" lon="2.17">
        <ele>1994.5</ele>
        <time>2019-01-07T09:47:28Z</time>
      </trkpt>
      <trkpt lat="42.44823" lon="2.17002">
        <ele>1993.4</ele>
        <time>2019-01-07T09:47:29Z</time>
      </trkpt>
      <trkpt lat="42.44828" lon="2.17004">
        <ele>1992.5</ele>
        <time>2019-01-07T09:47:31Z</time>
      </trkpt>
      <trkpt lat="42.4483" lon="2.17007">
        <ele>1992.5</ele>
        <time>2019-01-07T09:47:31Z</time>
      </trkpt>
      <trkpt lat="42.44833" lon="2.17012">
        <ele>1992.6</ele>
        <time>2019-01-07T09:47:33Z</time>
      </trkpt>
      <trkpt lat="42.44839" lon="2.17013">
        <ele>1991.5</ele>
        <time>2019-01-07T09:47:34Z</time>
      </trkpt>
      <trkpt lat="42.44845" lon="2.17017">
        <ele>1991</ele>
        <time>2019-01-07T09:47:36Z</time>
      </trkpt>
      <trkpt lat="42.44852" lon="2.1702">
        <ele>1992.1</ele>
        <time>2019-01-07T09:47:38Z</time>
      </trkpt>
      <trkpt lat="42.44857" lon="2.17022">
        <ele>1992.1</ele>
        <time>2019-01-07T09:47:39Z</time>
      </trkpt>
      <trkpt lat="42.44863" lon="2.17022">
        <ele>1990.2</ele>
        <time>2019-01-07T09:47:41Z</time>
      </trkpt>
      <trkpt lat="42.44867" lon="2.17022">
        <ele>1991.6</ele>
        <time>2019-01-07T09:47:42Z</time>
      </trkpt>
      <trkpt lat="42.44879" lon="2.17023">
        <ele>1994.5</ele>
        <time>2019-01-07T09:47:45Z</time>
      </trkpt>
      <trkpt lat="42.44887" lon="2.17022">
        <ele>1996.3</ele>
        <time>2019-01-07T09:47:47Z</time>
      </trkpt>
      <trkpt lat="42.44887" lon="2.17019">
        <ele>1992</ele>
        <time>2019-01-07T09:47:48Z</time>
      </trkpt>
      <trkpt lat="42.44894" lon="2.17019">
        <ele>1991</ele>
        <time>2019-01-07T09:47:50Z</time>
      </trkpt>
      <trkpt lat="42.44901" lon="2.17021">
        <ele>1991.1</ele>
        <time>2019-01-07T09:47:52Z</time>
      </trkpt>
      <trkpt lat="42.44905" lon="2.17021">
        <ele>1986.7</ele>
        <time>2019-01-07T09:47:53Z</time>
      </trkpt>
      <trkpt lat="42.44912" lon="2.17023">
        <ele>1983.4</ele>
        <time>2019-01-07T09:47:55Z</time>
      </trkpt>
      <trkpt lat="42.44918" lon="2.17022">
        <ele>1984.4</ele>
        <time>2019-01-07T09:47:56Z</time>
      </trkpt>
      <trkpt lat="42.44925" lon="2.17023">
        <ele>1981</ele>
        <time>2019-01-07T09:47:58Z</time>
      </trkpt>
      <trkpt lat="42.44929" lon="2.17023">
        <ele>1980.1</ele>
        <time>2019-01-07T09:47:59Z</time>
      </trkpt>
      <trkpt lat="42.44936" lon="2.17027">
        <ele>1977.2</ele>
        <time>2019-01-07T09:48:01Z</time>
      </trkpt>
      <trkpt lat="42.44939" lon="2.1703">
        <ele>1976.2</ele>
        <time>2019-01-07T09:48:02Z</time>
      </trkpt>
      <trkpt lat="42.44941" lon="2.17031">
        <ele>1974.8</ele>
        <time>2019-01-07T09:48:03Z</time>
      </trkpt>
      <trkpt lat="42.44949" lon="2.17032">
        <ele>1972.3</ele>
        <time>2019-01-07T09:48:05Z</time>
      </trkpt>
      <trkpt lat="42.44955" lon="2.17034">
        <ele>1975.2</ele>
        <time>2019-01-07T09:48:07Z</time>
      </trkpt>
      <trkpt lat="42.44964" lon="2.17039">
        <ele>1971.8</ele>
        <time>2019-01-07T09:48:09Z</time>
      </trkpt>
      <trkpt lat="42.44968" lon="2.17046">
        <ele>1974.3</ele>
        <time>2019-01-07T09:48:11Z</time>
      </trkpt>
      <trkpt lat="42.44974" lon="2.17048">
        <ele>1978.2</ele>
        <time>2019-01-07T09:48:13Z</time>
      </trkpt>
      <trkpt lat="42.44979" lon="2.17049">
        <ele>1979</ele>
        <time>2019-01-07T09:48:14Z</time>
      </trkpt>
      <trkpt lat="42.4499" lon="2.17051">
        <ele>1983.8</ele>
        <time>2019-01-07T09:48:17Z</time>
      </trkpt>
      <trkpt lat="42.44993" lon="2.17051">
        <ele>1985.3</ele>
        <time>2019-01-07T09:48:18Z</time>
      </trkpt>
      <trkpt lat="42.44996" lon="2.1705">
        <ele>1985.7</ele>
        <time>2019-01-07T09:48:19Z</time>
      </trkpt>
      <trkpt lat="42.45001" lon="2.1705">
        <ele>1987.2</ele>
        <time>2019-01-07T09:48:20Z</time>
      </trkpt>
      <trkpt lat="42.45001" lon="2.17049">
        <ele>1986.2</ele>
        <time>2019-01-07T09:48:20Z</time>
      </trkpt>
      <trkpt lat="42.45005" lon="2.17046">
        <ele>1983.8</ele>
        <time>2019-01-07T09:48:21Z</time>
      </trkpt>
      <trkpt lat="42.4501" lon="2.1704">
        <ele>1983.3</ele>
        <time>2019-01-07T09:48:23Z</time>
      </trkpt>
      <trkpt lat="42.45009" lon="2.17038">
        <ele>1977.7</ele>
        <time>2019-01-07T09:48:23Z</time>
      </trkpt>
      <trkpt lat="42.45017" lon="2.17041">
        <ele>1979.1</ele>
        <time>2019-01-07T09:48:26Z</time>
      </trkpt>
      <trkpt lat="42.45024" lon="2.17036">
        <ele>1978.1</ele>
        <time>2019-01-07T09:48:28Z</time>
      </trkpt>
      <trkpt lat="42.4503" lon="2.17034">
        <ele>1979.1</ele>
        <time>2019-01-07T09:48:29Z</time>
      </trkpt>
      <trkpt lat="42.45029" lon="2.17034">
        <ele>1976.7</ele>
        <time>2019-01-07T09:48:29Z</time>
      </trkpt>
      <trkpt lat="42.4503" lon="2.17033">
        <ele>1969.9</ele>
        <time>2019-01-07T09:48:30Z</time>
      </trkpt>
      <trkpt lat="42.45034" lon="2.17034">
        <ele>1967.1</ele>
        <time>2019-01-07T09:48:31Z</time>
      </trkpt>
      <trkpt lat="42.45041" lon="2.17036">
        <ele>1967</ele>
        <time>2019-01-07T09:48:32Z</time>
      </trkpt>
      <trkpt lat="42.45042" lon="2.17037">
        <ele>1966.6</ele>
        <time>2019-01-07T09:48:33Z</time>
      </trkpt>
      <trkpt lat="42.45047" lon="2.17039">
        <ele>1967</ele>
        <time>2019-01-07T09:48:34Z</time>
      </trkpt>
      <trkpt lat="42.45051" lon="2.17039">
        <ele>1966</ele>
        <time>2019-01-07T09:48:35Z</time>
      </trkpt>
      <trkpt lat="42.45056" lon="2.17043">
        <ele>1962.3</ele>
        <time>2019-01-07T09:48:37Z</time>
      </trkpt>
      <trkpt lat="42.45059" lon="2.17046">
        <ele>1958.9</ele>
        <time>2019-01-07T09:48:38Z</time>
      </trkpt>
      <trkpt lat="42.45063" lon="2.1705">
        <ele>1957.9</ele>
        <time>2019-01-07T09:48:39Z</time>
      </trkpt>
      <trkpt lat="42.45071" lon="2.1705">
        <ele>1959.9</ele>
        <time>2019-01-07T09:48:41Z</time>
      </trkpt>
      <trkpt lat="42.45076" lon="2.17054">
        <ele>1958.3</ele>
        <time>2019-01-07T09:48:43Z</time>
      </trkpt>
      <trkpt lat="42.45078" lon="2.17054">
        <ele>1958.9</ele>
        <time>2019-01-07T09:48:43Z</time>
      </trkpt>
      <trkpt lat="42.45083" lon="2.17055">
        <ele>1956</ele>
        <time>2019-01-07T09:48:45Z</time>
      </trkpt>
      <trkpt lat="42.45085" lon="2.17056">
        <ele>1956.4</ele>
        <time>2019-01-07T09:48:45Z</time>
      </trkpt>
      <trkpt lat="42.45097" lon="2.17062">
        <ele>1958.3</ele>
        <time>2019-01-07T09:48:49Z</time>
      </trkpt>
      <trkpt lat="42.45097" lon="2.17063">
        <ele>1957.9</ele>
        <time>2019-01-07T09:48:49Z</time>
      </trkpt>
      <trkpt lat="42.45101" lon="2.17065">
        <ele>1958.3</ele>
        <time>2019-01-07T09:48:50Z</time>
      </trkpt>
      <trkpt lat="42.45101" lon="2.17065">
        <ele>1958</ele>
        <time>2019-01-07T09:48:50Z</time>
      </trkpt>
      <trkpt lat="42.45105" lon="2.17073">
        <ele>1958.3</ele>
        <time>2019-01-07T09:48:52Z</time>
      </trkpt>
      <trkpt lat="42.45113" lon="2.17072">
        <ele>1958.3</ele>
        <time>2019-01-07T09:48:54Z</time>
      </trkpt>
      <trkpt lat="42.45114" lon="2.17077">
        <ele>1957</ele>
        <time>2019-01-07T09:48:55Z</time>
      </trkpt>
      <trkpt lat="42.45118" lon="2.17079">
        <ele>1954.1</ele>
        <time>2019-01-07T09:48:56Z</time>
      </trkpt>
      <trkpt lat="42.45122" lon="2.1708">
        <ele>1955.1</ele>
        <time>2019-01-07T09:48:57Z</time>
      </trkpt>
      <trkpt lat="42.4513" lon="2.1708">
        <ele>1953.6</ele>
        <time>2019-01-07T09:48:59Z</time>
      </trkpt>
      <trkpt lat="42.45136" lon="2.17082">
        <ele>1952.2</ele>
        <time>2019-01-07T09:49:01Z</time>
      </trkpt>
      <trkpt lat="42.45143" lon="2.17085">
        <ele>1945.8</ele>
        <time>2019-01-07T09:49:03Z</time>
      </trkpt>
      <trkpt lat="42.45147" lon="2.1709">
        <ele>1944.9</ele>
        <time>2019-01-07T09:49:04Z</time>
      </trkpt>
      <trkpt lat="42.4515" lon="2.17093">
        <ele>1946.3</ele>
        <time>2019-01-07T09:49:06Z</time>
      </trkpt>
      <trkpt lat="42.45151" lon="2.17095">
        <ele>1946.8</ele>
        <time>2019-01-07T09:49:06Z</time>
      </trkpt>
      <trkpt lat="42.45154" lon="2.17103">
        <ele>1948.8</ele>
        <time>2019-01-07T09:49:08Z</time>
      </trkpt>
      <trkpt lat="42.45158" lon="2.17109">
        <ele>1949.7</ele>
        <time>2019-01-07T09:49:09Z</time>
      </trkpt>
      <trkpt lat="42.45158" lon="2.17109">
        <ele>1947.9</ele>
        <time>2019-01-07T09:49:09Z</time>
      </trkpt>
      <trkpt lat="42.45164" lon="2.17112">
        <ele>1944</ele>
        <time>2019-01-07T09:49:11Z</time>
      </trkpt>
      <trkpt lat="42.45165" lon="2.1712">
        <ele>1944.4</ele>
        <time>2019-01-07T09:49:13Z</time>
      </trkpt>
      <trkpt lat="42.45167" lon="2.1712">
        <ele>1940.1</ele>
        <time>2019-01-07T09:49:13Z</time>
      </trkpt>
      <trkpt lat="42.45166" lon="2.17123">
        <ele>1941.6</ele>
        <time>2019-01-07T09:49:14Z</time>
      </trkpt>
      <trkpt lat="42.45169" lon="2.1713">
        <ele>1946.3</ele>
        <time>2019-01-07T09:49:15Z</time>
      </trkpt>
      <trkpt lat="42.45173" lon="2.17135">
        <ele>1946.8</ele>
        <time>2019-01-07T09:49:17Z</time>
      </trkpt>
      <trkpt lat="42.45176" lon="2.17143">
        <ele>1945.4</ele>
        <time>2019-01-07T09:49:19Z</time>
      </trkpt>
      <trkpt lat="42.45178" lon="2.17146">
        <ele>1943.5</ele>
        <time>2019-01-07T09:49:19Z</time>
      </trkpt>
      <trkpt lat="42.45187" lon="2.17154">
        <ele>1943.9</ele>
        <time>2019-01-07T09:49:22Z</time>
      </trkpt>
      <trkpt lat="42.45196" lon="2.17162">
        <ele>1945.4</ele>
        <time>2019-01-07T09:49:25Z</time>
      </trkpt>
      <trkpt lat="42.45203" lon="2.17162">
        <ele>1938.2</ele>
        <time>2019-01-07T09:49:27Z</time>
      </trkpt>
      <trkpt lat="42.45207" lon="2.17169">
        <ele>1939.7</ele>
        <time>2019-01-07T09:49:29Z</time>
      </trkpt>
      <trkpt lat="42.45212" lon="2.17173">
        <ele>1938.7</ele>
        <time>2019-01-07T09:49:30Z</time>
      </trkpt>
      <trkpt lat="42.45216" lon="2.17178">
        <ele>1936.2</ele>
        <time>2019-01-07T09:49:31Z</time>
      </trkpt>
      <trkpt lat="42.45218" lon="2.17189">
        <ele>1933.8</ele>
        <time>2019-01-07T09:49:34Z</time>
      </trkpt>
      <trkpt lat="42.45231" lon="2.1719">
        <ele>1932.4</ele>
        <time>2019-01-07T09:49:37Z</time>
      </trkpt>
      <trkpt lat="42.45233" lon="2.17191">
        <ele>1931.9</ele>
        <time>2019-01-07T09:49:38Z</time>
      </trkpt>
      <trkpt lat="42.45239" lon="2.17194">
        <ele>1931.4</ele>
        <time>2019-01-07T09:49:39Z</time>
      </trkpt>
      <trkpt lat="42.45245" lon="2.17197">
        <ele>1931.5</ele>
        <time>2019-01-07T09:49:41Z</time>
      </trkpt>
      <trkpt lat="42.45247" lon="2.17198">
        <ele>1931.5</ele>
        <time>2019-01-07T09:49:42Z</time>
      </trkpt>
      <trkpt lat="42.45258" lon="2.172">
        <ele>1932.5</ele>
        <time>2019-01-07T09:49:45Z</time>
      </trkpt>
      <trkpt lat="42.4526" lon="2.17202">
        <ele>1932.4</ele>
        <time>2019-01-07T09:49:45Z</time>
      </trkpt>
      <trkpt lat="42.45266" lon="2.172">
        <ele>1932.9</ele>
        <time>2019-01-07T09:49:47Z</time>
      </trkpt>
      <trkpt lat="42.45274" lon="2.17202">
        <ele>1932.9</ele>
        <time>2019-01-07T09:49:49Z</time>
      </trkpt>
      <trkpt lat="42.4528" lon="2.17202">
        <ele>1932.5</ele>
        <time>2019-01-07T09:49:51Z</time>
      </trkpt>
      <trkpt lat="42.45287" lon="2.17205">
        <ele>1934.4</ele>
        <time>2019-01-07T09:49:53Z</time>
      </trkpt>
      <trkpt lat="42.45293" lon="2.17204">
        <ele>1931.9</ele>
        <time>2019-01-07T09:49:54Z</time>
      </trkpt>
      <trkpt lat="42.45295" lon="2.17206">
        <ele>1930.9</ele>
        <time>2019-01-07T09:49:55Z</time>
      </trkpt>
      <trkpt lat="42.45297" lon="2.17207">
        <ele>1930.5</ele>
        <time>2019-01-07T09:49:55Z</time>
      </trkpt>
      <trkpt lat="42.4531" lon="2.17203">
        <ele>1928.1</ele>
        <time>2019-01-07T09:49:59Z</time>
      </trkpt>
      <trkpt lat="42.45313" lon="2.17203">
        <ele>1927.1</ele>
        <time>2019-01-07T09:50:00Z</time>
      </trkpt>
      <trkpt lat="42.45319" lon="2.17206">
        <ele>1924.7</ele>
        <time>2019-01-07T09:50:01Z</time>
      </trkpt>
      <trkpt lat="42.45323" lon="2.17209">
        <ele>1923.3</ele>
        <time>2019-01-07T09:50:03Z</time>
      </trkpt>
      <trkpt lat="42.45331" lon="2.17212">
        <ele>1923.4</ele>
        <time>2019-01-07T09:50:05Z</time>
      </trkpt>
      <trkpt lat="42.45342" lon="2.17212">
        <ele>1922.4</ele>
        <time>2019-01-07T09:50:08Z</time>
      </trkpt>
      <trkpt lat="42.4535" lon="2.17212">
        <ele>1920.4</ele>
        <time>2019-01-07T09:50:10Z</time>
      </trkpt>
      <trkpt lat="42.45358" lon="2.17213">
        <ele>1920.9</ele>
        <time>2019-01-07T09:50:12Z</time>
      </trkpt>
      <trkpt lat="42.45367" lon="2.17211">
        <ele>1919</ele>
        <time>2019-01-07T09:50:15Z</time>
      </trkpt>
      <trkpt lat="42.45377" lon="2.17208">
        <ele>1918.4</ele>
        <time>2019-01-07T09:50:17Z</time>
      </trkpt>
      <trkpt lat="42.45387" lon="2.17207">
        <ele>1919.9</ele>
        <time>2019-01-07T09:50:20Z</time>
      </trkpt>
      <trkpt lat="42.45392" lon="2.17205">
        <ele>1920.5</ele>
        <time>2019-01-07T09:50:21Z</time>
      </trkpt>
      <trkpt lat="42.45402" lon="2.172">
        <ele>1917.6</ele>
        <time>2019-01-07T09:50:24Z</time>
      </trkpt>
      <trkpt lat="42.45409" lon="2.17197">
        <ele>1919.5</ele>
        <time>2019-01-07T09:50:26Z</time>
      </trkpt>
      <trkpt lat="42.45416" lon="2.17196">
        <ele>1921.9</ele>
        <time>2019-01-07T09:50:28Z</time>
      </trkpt>
      <trkpt lat="42.4542" lon="2.17195">
        <ele>1920.5</ele>
        <time>2019-01-07T09:50:29Z</time>
      </trkpt>
      <trkpt lat="42.45423" lon="2.17194">
        <ele>1919</ele>
        <time>2019-01-07T09:50:30Z</time>
      </trkpt>
      <trkpt lat="42.45428" lon="2.17191">
        <ele>1919</ele>
        <time>2019-01-07T09:50:31Z</time>
      </trkpt>
      <trkpt lat="42.45431" lon="2.17187">
        <ele>1917</ele>
        <time>2019-01-07T09:50:32Z</time>
      </trkpt>
      <trkpt lat="42.45441" lon="2.17182">
        <ele>1916</ele>
        <time>2019-01-07T09:50:35Z</time>
      </trkpt>
      <trkpt lat="42.45446" lon="2.17178">
        <ele>1915.1</ele>
        <time>2019-01-07T09:50:37Z</time>
      </trkpt>
      <trkpt lat="42.45454" lon="2.17176">
        <ele>1921.3</ele>
        <time>2019-01-07T09:50:39Z</time>
      </trkpt>
      <trkpt lat="42.45458" lon="2.17173">
        <ele>1919.9</ele>
        <time>2019-01-07T09:50:40Z</time>
      </trkpt>
      <trkpt lat="42.45462" lon="2.17171">
        <ele>1918.9</ele>
        <time>2019-01-07T09:50:41Z</time>
      </trkpt>
      <trkpt lat="42.45466" lon="2.17169">
        <ele>1917.1</ele>
        <time>2019-01-07T09:50:42Z</time>
      </trkpt>
      <trkpt lat="42.45473" lon="2.17163">
        <ele>1912.7</ele>
        <time>2019-01-07T09:50:45Z</time>
      </trkpt>
      <trkpt lat="42.45481" lon="2.17161">
        <ele>1912.8</ele>
        <time>2019-01-07T09:50:47Z</time>
      </trkpt>
      <trkpt lat="42.45489" lon="2.17162">
        <ele>1913.7</ele>
        <time>2019-01-07T09:50:49Z</time>
      </trkpt>
      <trkpt lat="42.45491" lon="2.17162">
        <ele>1913.3</ele>
        <time>2019-01-07T09:50:50Z</time>
      </trkpt>
      <trkpt lat="42.45497" lon="2.1716">
        <ele>1909.9</ele>
        <time>2019-01-07T09:50:51Z</time>
      </trkpt>
      <trkpt lat="42.45498" lon="2.17161">
        <ele>1909.3</ele>
        <time>2019-01-07T09:50:51Z</time>
      </trkpt>
      <trkpt lat="42.45503" lon="2.17161">
        <ele>1907.4</ele>
        <time>2019-01-07T09:50:53Z</time>
      </trkpt>
      <trkpt lat="42.45507" lon="2.17163">
        <ele>1903.5</ele>
        <time>2019-01-07T09:50:54Z</time>
      </trkpt>
      <trkpt lat="42.45508" lon="2.17166">
        <ele>1901.7</ele>
        <time>2019-01-07T09:50:55Z</time>
      </trkpt>
      <trkpt lat="42.45514" lon="2.17167">
        <ele>1898.3</ele>
        <time>2019-01-07T09:50:56Z</time>
      </trkpt>
      <trkpt lat="42.45517" lon="2.17165">
        <ele>1894.5</ele>
        <time>2019-01-07T09:50:57Z</time>
      </trkpt>
      <trkpt lat="42.45526" lon="2.17169">
        <ele>1894.4</ele>
        <time>2019-01-07T09:51:00Z</time>
      </trkpt>
      <trkpt lat="42.45533" lon="2.1717">
        <ele>1894.4</ele>
        <time>2019-01-07T09:51:02Z</time>
      </trkpt>
      <trkpt lat="42.45533" lon="2.17171">
        <ele>1894.4</ele>
        <time>2019-01-07T09:51:02Z</time>
      </trkpt>
      <trkpt lat="42.45539" lon="2.17174">
        <ele>1893.5</ele>
        <time>2019-01-07T09:51:03Z</time>
      </trkpt>
      <trkpt lat="42.45542" lon="2.17173">
        <ele>1891.1</ele>
        <time>2019-01-07T09:51:04Z</time>
      </trkpt>
      <trkpt lat="42.45548" lon="2.17175">
        <ele>1888.3</ele>
        <time>2019-01-07T09:51:06Z</time>
      </trkpt>
      <trkpt lat="42.45556" lon="2.17179">
        <ele>1888.2</ele>
        <time>2019-01-07T09:51:08Z</time>
      </trkpt>
      <trkpt lat="42.45562" lon="2.17185">
        <ele>1890.1</ele>
        <time>2019-01-07T09:51:10Z</time>
      </trkpt>
      <trkpt lat="42.45566" lon="2.17189">
        <ele>1888.3</ele>
        <time>2019-01-07T09:51:11Z</time>
      </trkpt>
      <trkpt lat="42.4557" lon="2.17192">
        <ele>1886.4</ele>
        <time>2019-01-07T09:51:12Z</time>
      </trkpt>
      <trkpt lat="42.45573" lon="2.17195">
        <ele>1885.4</ele>
        <time>2019-01-07T09:51:14Z</time>
      </trkpt>
      <trkpt lat="42.45575" lon="2.17195">
        <ele>1883.5</ele>
        <time>2019-01-07T09:51:14Z</time>
      </trkpt>
      <trkpt lat="42.45578" lon="2.17197">
        <ele>1882.5</ele>
        <time>2019-01-07T09:51:15Z</time>
      </trkpt>
      <trkpt lat="42.45584" lon="2.17198">
        <ele>1881.1</ele>
        <time>2019-01-07T09:51:17Z</time>
      </trkpt>
      <trkpt lat="42.45591" lon="2.17201">
        <ele>1878.6</ele>
        <time>2019-01-07T09:51:18Z</time>
      </trkpt>
      <trkpt lat="42.45599" lon="2.17203">
        <ele>1879.1</ele>
        <time>2019-01-07T09:51:21Z</time>
      </trkpt>
      <trkpt lat="42.45604" lon="2.17202">
        <ele>1877.1</ele>
        <time>2019-01-07T09:51:22Z</time>
      </trkpt>
      <trkpt lat="42.45607" lon="2.17203">
        <ele>1875.7</ele>
        <time>2019-01-07T09:51:23Z</time>
      </trkpt>
      <trkpt lat="42.4561" lon="2.17205">
        <ele>1870.9</ele>
        <time>2019-01-07T09:51:24Z</time>
      </trkpt>
      <trkpt lat="42.45616" lon="2.17209">
        <ele>1868.6</ele>
        <time>2019-01-07T09:51:26Z</time>
      </trkpt>
      <trkpt lat="42.45625" lon="2.17214">
        <ele>1866</ele>
        <time>2019-01-07T09:51:28Z</time>
      </trkpt>
      <trkpt lat="42.45631" lon="2.17226">
        <ele>1864.6</ele>
        <time>2019-01-07T09:51:31Z</time>
      </trkpt>
      <trkpt lat="42.45633" lon="2.17234">
        <ele>1863.6</ele>
        <time>2019-01-07T09:51:33Z</time>
      </trkpt>
      <trkpt lat="42.45635" lon="2.17238">
        <ele>1863.2</ele>
        <time>2019-01-07T09:51:34Z</time>
      </trkpt>
      <trkpt lat="42.45642" lon="2.17251">
        <ele>1861.3</ele>
        <time>2019-01-07T09:51:37Z</time>
      </trkpt>
      <trkpt lat="42.45645" lon="2.17261">
        <ele>1861.4</ele>
        <time>2019-01-07T09:51:39Z</time>
      </trkpt>
      <trkpt lat="42.45647" lon="2.17264">
        <ele>1861.3</ele>
        <time>2019-01-07T09:51:40Z</time>
      </trkpt>
      <trkpt lat="42.45651" lon="2.17274">
        <ele>1859.3</ele>
        <time>2019-01-07T09:51:42Z</time>
      </trkpt>
      <trkpt lat="42.45657" lon="2.17283">
        <ele>1857.4</ele>
        <time>2019-01-07T09:51:44Z</time>
      </trkpt>
      <trkpt lat="42.45658" lon="2.1729">
        <ele>1853.5</ele>
        <time>2019-01-07T09:51:46Z</time>
      </trkpt>
      <trkpt lat="42.4566" lon="2.17294">
        <ele>1853.5</ele>
        <time>2019-01-07T09:51:47Z</time>
      </trkpt>
      <trkpt lat="42.45663" lon="2.17297">
        <ele>1852.2</ele>
        <time>2019-01-07T09:51:48Z</time>
      </trkpt>
      <trkpt lat="42.45672" lon="2.17307">
        <ele>1852.7</ele>
        <time>2019-01-07T09:51:51Z</time>
      </trkpt>
      <trkpt lat="42.45674" lon="2.1731">
        <ele>1851.6</ele>
        <time>2019-01-07T09:51:51Z</time>
      </trkpt>
      <trkpt lat="42.4568" lon="2.17321">
        <ele>1852.7</ele>
        <time>2019-01-07T09:51:54Z</time>
      </trkpt>
      <trkpt lat="42.45685" lon="2.17329">
        <ele>1852.1</ele>
        <time>2019-01-07T09:51:56Z</time>
      </trkpt>
      <trkpt lat="42.45686" lon="2.17337">
        <ele>1847.3</ele>
        <time>2019-01-07T09:51:58Z</time>
      </trkpt>
      <trkpt lat="42.45691" lon="2.17349">
        <ele>1845.5</ele>
        <time>2019-01-07T09:52:00Z</time>
      </trkpt>
      <trkpt lat="42.45697" lon="2.1736">
        <ele>1845.4</ele>
        <time>2019-01-07T09:52:03Z</time>
      </trkpt>
      <trkpt lat="42.45704" lon="2.17374">
        <ele>1846.4</ele>
        <time>2019-01-07T09:52:06Z</time>
      </trkpt>
      <trkpt lat="42.45711" lon="2.17383">
        <ele>1845.9</ele>
        <time>2019-01-07T09:52:09Z</time>
      </trkpt>
      <trkpt lat="42.45717" lon="2.17389">
        <ele>1844.4</ele>
        <time>2019-01-07T09:52:11Z</time>
      </trkpt>
      <trkpt lat="42.45721" lon="2.17393">
        <ele>1843.6</ele>
        <time>2019-01-07T09:52:12Z</time>
      </trkpt>
      <trkpt lat="42.45721" lon="2.17397">
        <ele>1843.1</ele>
        <time>2019-01-07T09:52:13Z</time>
      </trkpt>
      <trkpt lat="42.45723" lon="2.17399">
        <ele>1843.1</ele>
        <time>2019-01-07T09:52:14Z</time>
      </trkpt>
      <trkpt lat="42.45729" lon="2.17406">
        <ele>1842.6</ele>
        <time>2019-01-07T09:52:16Z</time>
      </trkpt>
      <trkpt lat="42.45738" lon="2.1741">
        <ele>1842.1</ele>
        <time>2019-01-07T09:52:18Z</time>
      </trkpt>
      <trkpt lat="42.45744" lon="2.17418">
        <ele>1841.6</ele>
        <time>2019-01-07T09:52:20Z</time>
      </trkpt>
      <trkpt lat="42.45748" lon="2.1742">
        <ele>1842.6</ele>
        <time>2019-01-07T09:52:22Z</time>
      </trkpt>
      <trkpt lat="42.45755" lon="2.17425">
        <ele>1843.1</ele>
        <time>2019-01-07T09:52:24Z</time>
      </trkpt>
      <trkpt lat="42.45758" lon="2.17426">
        <ele>1843.5</ele>
        <time>2019-01-07T09:52:25Z</time>
      </trkpt>
      <trkpt lat="42.45762" lon="2.17432">
        <ele>1839.1</ele>
        <time>2019-01-07T09:52:26Z</time>
      </trkpt>
      <trkpt lat="42.45762" lon="2.17433">
        <ele>1838.2</ele>
        <time>2019-01-07T09:52:26Z</time>
      </trkpt>
      <trkpt lat="42.45771" lon="2.17438">
        <ele>1838.2</ele>
        <time>2019-01-07T09:52:29Z</time>
      </trkpt>
      <trkpt lat="42.45784" lon="2.17443">
        <ele>1840.2</ele>
        <time>2019-01-07T09:52:32Z</time>
      </trkpt>
      <trkpt lat="42.45793" lon="2.17445">
        <ele>1839.6</ele>
        <time>2019-01-07T09:52:35Z</time>
      </trkpt>
      <trkpt lat="42.45803" lon="2.17447">
        <ele>1840.6</ele>
        <time>2019-01-07T09:52:38Z</time>
      </trkpt>
      <trkpt lat="42.4581" lon="2.17446">
        <ele>1838.6</ele>
        <time>2019-01-07T09:52:39Z</time>
      </trkpt>
      <trkpt lat="42.45821" lon="2.17445">
        <ele>1835.3</ele>
        <time>2019-01-07T09:52:42Z</time>
      </trkpt>
      <trkpt lat="42.45827" lon="2.17445">
        <ele>1835.8</ele>
        <time>2019-01-07T09:52:44Z</time>
      </trkpt>
      <trkpt lat="42.4583" lon="2.17446">
        <ele>1835.9</ele>
        <time>2019-01-07T09:52:45Z</time>
      </trkpt>
      <trkpt lat="42.45832" lon="2.17444">
        <ele>1834.3</ele>
        <time>2019-01-07T09:52:46Z</time>
      </trkpt>
      <trkpt lat="42.45836" lon="2.17445">
        <ele>1831.5</ele>
        <time>2019-01-07T09:52:46Z</time>
      </trkpt>
      <trkpt lat="42.45841" lon="2.17449">
        <ele>1829.1</ele>
        <time>2019-01-07T09:52:48Z</time>
      </trkpt>
      <trkpt lat="42.4584" lon="2.17448">
        <ele>1822.3</ele>
        <time>2019-01-07T09:52:48Z</time>
      </trkpt>
      <trkpt lat="42.45845" lon="2.17445">
        <ele>1819</ele>
        <time>2019-01-07T09:52:50Z</time>
      </trkpt>
      <trkpt lat="42.45842" lon="2.17445">
        <ele>1812.7</ele>
        <time>2019-01-07T09:52:51Z</time>
      </trkpt>
      <trkpt lat="42.45841" lon="2.17444">
        <ele>1811.8</ele>
        <time>2019-01-07T09:52:51Z</time>
      </trkpt>
      <trkpt lat="42.45842" lon="2.17443">
        <ele>1798.4</ele>
        <time>2019-01-07T09:52:51Z</time>
      </trkpt>
      <trkpt lat="42.45842" lon="2.17442">
        <ele>1796</ele>
        <time>2019-01-07T09:52:51Z</time>
      </trkpt>
      <trkpt lat="42.4585" lon="2.17442">
        <ele>1788.3</ele>
        <time>2019-01-07T09:52:53Z</time>
      </trkpt>
      <trkpt lat="42.45857" lon="2.17449">
        <ele>1788.7</ele>
        <time>2019-01-07T09:52:56Z</time>
      </trkpt>
      <trkpt lat="42.45863" lon="2.17455">
        <ele>1788.7</ele>
        <time>2019-01-07T09:52:58Z</time>
      </trkpt>
      <trkpt lat="42.45872" lon="2.17455">
        <ele>1783.9</ele>
        <time>2019-01-07T09:53:00Z</time>
      </trkpt>
      <trkpt lat="42.45882" lon="2.17458">
        <ele>1782</ele>
        <time>2019-01-07T09:53:03Z</time>
      </trkpt>
      <trkpt lat="42.45892" lon="2.17459">
        <ele>1782.4</ele>
        <time>2019-01-07T09:53:06Z</time>
      </trkpt>
      <trkpt lat="42.45902" lon="2.17454">
        <ele>1771.9</ele>
        <time>2019-01-07T09:53:08Z</time>
      </trkpt>
      <trkpt lat="42.45913" lon="2.17443">
        <ele>1766.7</ele>
        <time>2019-01-07T09:53:12Z</time>
      </trkpt>
      <trkpt lat="42.45918" lon="2.17446">
        <ele>1772.3</ele>
        <time>2019-01-07T09:53:14Z</time>
      </trkpt>
      <trkpt lat="42.45924" lon="2.17448">
        <ele>1774.2</ele>
        <time>2019-01-07T09:53:15Z</time>
      </trkpt>
      <trkpt lat="42.4593" lon="2.17449">
        <ele>1776.7</ele>
        <time>2019-01-07T09:53:17Z</time>
      </trkpt>
      <trkpt lat="42.45941" lon="2.1745">
        <ele>1776.7</ele>
        <time>2019-01-07T09:53:20Z</time>
      </trkpt>
      <trkpt lat="42.45946" lon="2.17453">
        <ele>1778.2</ele>
        <time>2019-01-07T09:53:21Z</time>
      </trkpt>
      <trkpt lat="42.45947" lon="2.17454">
        <ele>1779.5</ele>
        <time>2019-01-07T09:53:21Z</time>
      </trkpt>
      <trkpt lat="42.45955" lon="2.1746">
        <ele>1777.6</ele>
        <time>2019-01-07T09:53:24Z</time>
      </trkpt>
      <trkpt lat="42.4596" lon="2.17467">
        <ele>1777.6</ele>
        <time>2019-01-07T09:53:26Z</time>
      </trkpt>
      <trkpt lat="42.45969" lon="2.17478">
        <ele>1779.5</ele>
        <time>2019-01-07T09:53:29Z</time>
      </trkpt>
      <trkpt lat="42.45974" lon="2.17477">
        <ele>1784</ele>
        <time>2019-01-07T09:53:30Z</time>
      </trkpt>
      <trkpt lat="42.4598" lon="2.17491">
        <ele>1784</ele>
        <time>2019-01-07T09:53:34Z</time>
      </trkpt>
      <trkpt lat="42.45986" lon="2.17498">
        <ele>1784.8</ele>
        <time>2019-01-07T09:53:36Z</time>
      </trkpt>
      <trkpt lat="42.45996" lon="2.1749">
        <ele>1777.7</ele>
        <time>2019-01-07T09:53:39Z</time>
      </trkpt>
      <trkpt lat="42.45999" lon="2.17493">
        <ele>1779.6</ele>
        <time>2019-01-07T09:53:40Z</time>
      </trkpt>
      <trkpt lat="42.46012" lon="2.17497">
        <ele>1780.1</ele>
        <time>2019-01-07T09:53:43Z</time>
      </trkpt>
      <trkpt lat="42.46019" lon="2.17491">
        <ele>1779.1</ele>
        <time>2019-01-07T09:53:46Z</time>
      </trkpt>
      <trkpt lat="42.46022" lon="2.17493">
        <ele>1781</ele>
        <time>2019-01-07T09:53:46Z</time>
      </trkpt>
      <trkpt lat="42.46028" lon="2.17498">
        <ele>1783.4</ele>
        <time>2019-01-07T09:53:48Z</time>
      </trkpt>
      <trkpt lat="42.46037" lon="2.17507">
        <ele>1791.6</ele>
        <time>2019-01-07T09:53:52Z</time>
      </trkpt>
      <trkpt lat="42.46041" lon="2.17512">
        <ele>1794.4</ele>
        <time>2019-01-07T09:53:53Z</time>
      </trkpt>
      <trkpt lat="42.46046" lon="2.1751">
        <ele>1788.7</ele>
        <time>2019-01-07T09:53:54Z</time>
      </trkpt>
      <trkpt lat="42.46059" lon="2.17503">
        <ele>1787.7</ele>
        <time>2019-01-07T09:53:58Z</time>
      </trkpt>
      <trkpt lat="42.46064" lon="2.17502">
        <ele>1787.7</ele>
        <time>2019-01-07T09:53:59Z</time>
      </trkpt>
      <trkpt lat="42.46069" lon="2.17499">
        <ele>1789.2</ele>
        <time>2019-01-07T09:54:01Z</time>
      </trkpt>
      <trkpt lat="42.46073" lon="2.17502">
        <ele>1793.5</ele>
        <time>2019-01-07T09:54:02Z</time>
      </trkpt>
      <trkpt lat="42.46078" lon="2.17508">
        <ele>1797.4</ele>
        <time>2019-01-07T09:54:04Z</time>
      </trkpt>
      <trkpt lat="42.46087" lon="2.17504">
        <ele>1795</ele>
        <time>2019-01-07T09:54:06Z</time>
      </trkpt>
      <trkpt lat="42.46094" lon="2.175">
        <ele>1787.2</ele>
        <time>2019-01-07T09:54:08Z</time>
      </trkpt>
      <trkpt lat="42.46106" lon="2.17494">
        <ele>1782</ele>
        <time>2019-01-07T09:54:12Z</time>
      </trkpt>
      <trkpt lat="42.46112" lon="2.17493">
        <ele>1780.5</ele>
        <time>2019-01-07T09:54:13Z</time>
      </trkpt>
      <trkpt lat="42.46114" lon="2.17494">
        <ele>1780.6</ele>
        <time>2019-01-07T09:54:14Z</time>
      </trkpt>
      <trkpt lat="42.46119" lon="2.17495">
        <ele>1783.5</ele>
        <time>2019-01-07T09:54:15Z</time>
      </trkpt>
      <trkpt lat="42.46123" lon="2.17496">
        <ele>1785.9</ele>
        <time>2019-01-07T09:54:16Z</time>
      </trkpt>
      <trkpt lat="42.4613" lon="2.17503">
        <ele>1793</ele>
        <time>2019-01-07T09:54:19Z</time>
      </trkpt>
      <trkpt lat="42.46133" lon="2.17507">
        <ele>1795</ele>
        <time>2019-01-07T09:54:20Z</time>
      </trkpt>
      <trkpt lat="42.4614" lon="2.17512">
        <ele>1794.5</ele>
        <time>2019-01-07T09:54:22Z</time>
      </trkpt>
      <trkpt lat="42.46142" lon="2.17512">
        <ele>1793.6</ele>
        <time>2019-01-07T09:54:22Z</time>
      </trkpt>
      <trkpt lat="42.46149" lon="2.17515">
        <ele>1792.5</ele>
        <time>2019-01-07T09:54:24Z</time>
      </trkpt>
      <trkpt lat="42.46152" lon="2.17516">
        <ele>1792.5</ele>
        <time>2019-01-07T09:54:25Z</time>
      </trkpt>
      <trkpt lat="42.46159" lon="2.17523">
        <ele>1794.4</ele>
        <time>2019-01-07T09:54:27Z</time>
      </trkpt>
      <trkpt lat="42.4616" lon="2.17528">
        <ele>1791.6</ele>
        <time>2019-01-07T09:54:28Z</time>
      </trkpt>
      <trkpt lat="42.46161" lon="2.17532">
        <ele>1791.1</ele>
        <time>2019-01-07T09:54:29Z</time>
      </trkpt>
      <trkpt lat="42.46166" lon="2.1754">
        <ele>1789.6</ele>
        <time>2019-01-07T09:54:31Z</time>
      </trkpt>
      <trkpt lat="42.46172" lon="2.1754">
        <ele>1789.1</ele>
        <time>2019-01-07T09:54:33Z</time>
      </trkpt>
      <trkpt lat="42.46182" lon="2.17539">
        <ele>1785.3</ele>
        <time>2019-01-07T09:54:36Z</time>
      </trkpt>
      <trkpt lat="42.46184" lon="2.17538">
        <ele>1784.4</ele>
        <time>2019-01-07T09:54:36Z</time>
      </trkpt>
      <trkpt lat="42.4619" lon="2.17535">
        <ele>1782.1</ele>
        <time>2019-01-07T09:54:38Z</time>
      </trkpt>
      <trkpt lat="42.46192" lon="2.17534">
        <ele>1782.5</ele>
        <time>2019-01-07T09:54:38Z</time>
      </trkpt>
      <trkpt lat="42.46202" lon="2.17534">
        <ele>1780.1</ele>
        <time>2019-01-07T09:54:41Z</time>
      </trkpt>
      <trkpt lat="42.46203" lon="2.17535">
        <ele>1780.5</ele>
        <time>2019-01-07T09:54:42Z</time>
      </trkpt>
      <trkpt lat="42.46206" lon="2.17539">
        <ele>1780</ele>
        <time>2019-01-07T09:54:43Z</time>
      </trkpt>
      <trkpt lat="42.46208" lon="2.17539">
        <ele>1780.1</ele>
        <time>2019-01-07T09:54:43Z</time>
      </trkpt>
      <trkpt lat="42.46216" lon="2.17537">
        <ele>1781.1</ele>
        <time>2019-01-07T09:54:45Z</time>
      </trkpt>
      <trkpt lat="42.46219" lon="2.17536">
        <ele>1783.5</ele>
        <time>2019-01-07T09:54:46Z</time>
      </trkpt>
      <trkpt lat="42.46225" lon="2.17543">
        <ele>1789.6</ele>
        <time>2019-01-07T09:54:48Z</time>
      </trkpt>
      <trkpt lat="42.46233" lon="2.1754">
        <ele>1789.7</ele>
        <time>2019-01-07T09:54:50Z</time>
      </trkpt>
      <trkpt lat="42.46236" lon="2.17539">
        <ele>1792.1</ele>
        <time>2019-01-07T09:54:51Z</time>
      </trkpt>
      <trkpt lat="42.46244" lon="2.1754">
        <ele>1789.7</ele>
        <time>2019-01-07T09:54:53Z</time>
      </trkpt>
      <trkpt lat="42.46244" lon="2.17541">
        <ele>1791.1</ele>
        <time>2019-01-07T09:54:54Z</time>
      </trkpt>
      <trkpt lat="42.46251" lon="2.17546">
        <ele>1787.7</ele>
        <time>2019-01-07T09:54:56Z</time>
      </trkpt>
      <trkpt lat="42.46255" lon="2.17547">
        <ele>1785.8</ele>
        <time>2019-01-07T09:54:57Z</time>
      </trkpt>
      <trkpt lat="42.46264" lon="2.17549">
        <ele>1788.7</ele>
        <time>2019-01-07T09:54:59Z</time>
      </trkpt>
      <trkpt lat="42.46265" lon="2.17551">
        <ele>1790.6</ele>
        <time>2019-01-07T09:55:00Z</time>
      </trkpt>
      <trkpt lat="42.46269" lon="2.17555">
        <ele>1787.8</ele>
        <time>2019-01-07T09:55:01Z</time>
      </trkpt>
      <trkpt lat="42.46274" lon="2.17558">
        <ele>1792</ele>
        <time>2019-01-07T09:55:03Z</time>
      </trkpt>
      <trkpt lat="42.46281" lon="2.17557">
        <ele>1790.7</ele>
        <time>2019-01-07T09:55:05Z</time>
      </trkpt>
      <trkpt lat="42.46286" lon="2.17556">
        <ele>1789.2</ele>
        <time>2019-01-07T09:55:06Z</time>
      </trkpt>
      <trkpt lat="42.46294" lon="2.17555">
        <ele>1789.2</ele>
        <time>2019-01-07T09:55:08Z</time>
      </trkpt>
      <trkpt lat="42.46295" lon="2.17555">
        <ele>1789.1</ele>
        <time>2019-01-07T09:55:08Z</time>
      </trkpt>
      <trkpt lat="42.46301" lon="2.17555">
        <ele>1789.2</ele>
        <time>2019-01-07T09:55:10Z</time>
      </trkpt>
      <trkpt lat="42.46313" lon="2.17554">
        <ele>1786.3</ele>
        <time>2019-01-07T09:55:13Z</time>
      </trkpt>
      <trkpt lat="42.46322" lon="2.17552">
        <ele>1778.1</ele>
        <time>2019-01-07T09:55:15Z</time>
      </trkpt>
      <trkpt lat="42.46329" lon="2.17565">
        <ele>1762.2</ele>
        <time>2019-01-07T09:55:18Z</time>
      </trkpt>
      <trkpt lat="42.46335" lon="2.17572">
        <ele>1757.9</ele>
        <time>2019-01-07T09:55:21Z</time>
      </trkpt>
      <trkpt lat="42.4635" lon="2.17579">
        <ele>1766.2</ele>
        <time>2019-01-07T09:55:25Z</time>
      </trkpt>
      <trkpt lat="42.46362" lon="2.1758">
        <ele>1774.2</ele>
        <time>2019-01-07T09:55:28Z</time>
      </trkpt>
      <trkpt lat="42.46363" lon="2.17583">
        <ele>1772.9</ele>
        <time>2019-01-07T09:55:29Z</time>
      </trkpt>
      <trkpt lat="42.46365" lon="2.176">
        <ele>1756.6</ele>
        <time>2019-01-07T09:55:32Z</time>
      </trkpt>
      <trkpt lat="42.46373" lon="2.17607">
        <ele>1755.6</ele>
        <time>2019-01-07T09:55:35Z</time>
      </trkpt>
      <trkpt lat="42.46378" lon="2.17612">
        <ele>1754.1</ele>
        <time>2019-01-07T09:55:36Z</time>
      </trkpt>
      <trkpt lat="42.46379" lon="2.17616">
        <ele>1753.2</ele>
        <time>2019-01-07T09:55:37Z</time>
      </trkpt>
      <trkpt lat="42.46389" lon="2.17625">
        <ele>1756.6</ele>
        <time>2019-01-07T09:55:40Z</time>
      </trkpt>
      <trkpt lat="42.46402" lon="2.17633">
        <ele>1761.7</ele>
        <time>2019-01-07T09:55:44Z</time>
      </trkpt>
      <trkpt lat="42.46412" lon="2.17641">
        <ele>1765.6</ele>
        <time>2019-01-07T09:55:47Z</time>
      </trkpt>
      <trkpt lat="42.46419" lon="2.17644">
        <ele>1764.7</ele>
        <time>2019-01-07T09:55:49Z</time>
      </trkpt>
      <trkpt lat="42.46425" lon="2.17649">
        <ele>1764.2</ele>
        <time>2019-01-07T09:55:51Z</time>
      </trkpt>
      <trkpt lat="42.46434" lon="2.17654">
        <ele>1768.6</ele>
        <time>2019-01-07T09:55:54Z</time>
      </trkpt>
      <trkpt lat="42.46443" lon="2.17655">
        <ele>1765.6</ele>
        <time>2019-01-07T09:55:56Z</time>
      </trkpt>
      <trkpt lat="42.46447" lon="2.17665">
        <ele>1751.2</ele>
        <time>2019-01-07T09:55:58Z</time>
      </trkpt>
      <trkpt lat="42.46449" lon="2.17666">
        <ele>1750.8</ele>
        <time>2019-01-07T09:55:59Z</time>
      </trkpt>
      <trkpt lat="42.46457" lon="2.17667">
        <ele>1743</ele>
        <time>2019-01-07T09:56:01Z</time>
      </trkpt>
      <trkpt lat="42.4646" lon="2.17665">
        <ele>1741.6</ele>
        <time>2019-01-07T09:56:02Z</time>
      </trkpt>
      <trkpt lat="42.46466" lon="2.17665">
        <ele>1742.1</ele>
        <time>2019-01-07T09:56:03Z</time>
      </trkpt>
      <trkpt lat="42.46472" lon="2.17666">
        <ele>1740.1</ele>
        <time>2019-01-07T09:56:05Z</time>
      </trkpt>
      <trkpt lat="42.4648" lon="2.17664">
        <ele>1736.8</ele>
        <time>2019-01-07T09:56:07Z</time>
      </trkpt>
      <trkpt lat="42.46487" lon="2.17665">
        <ele>1736.3</ele>
        <time>2019-01-07T09:56:09Z</time>
      </trkpt>
      <trkpt lat="42.46495" lon="2.1767">
        <ele>1736.4</ele>
        <time>2019-01-07T09:56:11Z</time>
      </trkpt>
      <trkpt lat="42.46505" lon="2.17672">
        <ele>1732</ele>
        <time>2019-01-07T09:56:14Z</time>
      </trkpt>
      <trkpt lat="42.4651" lon="2.17675">
        <ele>1732</ele>
        <time>2019-01-07T09:56:16Z</time>
      </trkpt>
      <trkpt lat="42.46514" lon="2.17671">
        <ele>1729.6</ele>
        <time>2019-01-07T09:56:17Z</time>
      </trkpt>
      <trkpt lat="42.46518" lon="2.17668">
        <ele>1719.5</ele>
        <time>2019-01-07T09:56:18Z</time>
      </trkpt>
      <trkpt lat="42.46525" lon="2.17672">
        <ele>1718</ele>
        <time>2019-01-07T09:56:20Z</time>
      </trkpt>
      <trkpt lat="42.46526" lon="2.17674">
        <ele>1716.7</ele>
        <time>2019-01-07T09:56:21Z</time>
      </trkpt>
      <trkpt lat="42.46531" lon="2.17679">
        <ele>1717.5</ele>
        <time>2019-01-07T09:56:22Z</time>
      </trkpt>
      <trkpt lat="42.46537" lon="2.17685">
        <ele>1716.1</ele>
        <time>2019-01-07T09:56:24Z</time>
      </trkpt>
      <trkpt lat="42.46545" lon="2.17686">
        <ele>1716.1</ele>
        <time>2019-01-07T09:56:26Z</time>
      </trkpt>
      <trkpt lat="42.46547" lon="2.17682">
        <ele>1716.6</ele>
        <time>2019-01-07T09:56:27Z</time>
      </trkpt>
      <trkpt lat="42.46553" lon="2.17674">
        <ele>1719</ele>
        <time>2019-01-07T09:56:30Z</time>
      </trkpt>
      <trkpt lat="42.4656" lon="2.17675">
        <ele>1722.3</ele>
        <time>2019-01-07T09:56:31Z</time>
      </trkpt>
      <trkpt lat="42.46565" lon="2.17675">
        <ele>1722.4</ele>
        <time>2019-01-07T09:56:33Z</time>
      </trkpt>
      <trkpt lat="42.46571" lon="2.17678">
        <ele>1725.7</ele>
        <time>2019-01-07T09:56:35Z</time>
      </trkpt>
      <trkpt lat="42.4658" lon="2.17681">
        <ele>1735.4</ele>
        <time>2019-01-07T09:56:37Z</time>
      </trkpt>
      <trkpt lat="42.46589" lon="2.17686">
        <ele>1743.6</ele>
        <time>2019-01-07T09:56:40Z</time>
      </trkpt>
      <trkpt lat="42.46598" lon="2.1769">
        <ele>1744.6</ele>
        <time>2019-01-07T09:56:42Z</time>
      </trkpt>
      <trkpt lat="42.46603" lon="2.1769">
        <ele>1737.3</ele>
        <time>2019-01-07T09:56:43Z</time>
      </trkpt>
      <trkpt lat="42.46608" lon="2.17686">
        <ele>1736.3</ele>
        <time>2019-01-07T09:56:45Z</time>
      </trkpt>
      <trkpt lat="42.46609" lon="2.17685">
        <ele>1736.3</ele>
        <time>2019-01-07T09:56:45Z</time>
      </trkpt>
      <trkpt lat="42.46621" lon="2.17684">
        <ele>1735.8</ele>
        <time>2019-01-07T09:56:48Z</time>
      </trkpt>
      <trkpt lat="42.46624" lon="2.17682">
        <ele>1735.4</ele>
        <time>2019-01-07T09:56:49Z</time>
      </trkpt>
      <trkpt lat="42.46629" lon="2.17679">
        <ele>1730.1</ele>
        <time>2019-01-07T09:56:51Z</time>
      </trkpt>
      <trkpt lat="42.46638" lon="2.1767">
        <ele>1729.6</ele>
        <time>2019-01-07T09:56:54Z</time>
      </trkpt>
      <trkpt lat="42.46642" lon="2.1767">
        <ele>1729.1</ele>
        <time>2019-01-07T09:56:55Z</time>
      </trkpt>
      <trkpt lat="42.46651" lon="2.17676">
        <ele>1734</ele>
        <time>2019-01-07T09:56:57Z</time>
      </trkpt>
      <trkpt lat="42.46652" lon="2.17678">
        <ele>1735.3</ele>
        <time>2019-01-07T09:56:58Z</time>
      </trkpt>
      <trkpt lat="42.46658" lon="2.17685">
        <ele>1738.2</ele>
        <time>2019-01-07T09:57:00Z</time>
      </trkpt>
      <trkpt lat="42.46666" lon="2.17681">
        <ele>1737.8</ele>
        <time>2019-01-07T09:57:02Z</time>
      </trkpt>
      <trkpt lat="42.46673" lon="2.17683">
        <ele>1733.9</ele>
        <time>2019-01-07T09:57:04Z</time>
      </trkpt>
      <trkpt lat="42.46674" lon="2.17683">
        <ele>1732</ele>
        <time>2019-01-07T09:57:05Z</time>
      </trkpt>
      <trkpt lat="42.46682" lon="2.17681">
        <ele>1726.2</ele>
        <time>2019-01-07T09:57:07Z</time>
      </trkpt>
      <trkpt lat="42.46684" lon="2.17681">
        <ele>1726.8</ele>
        <time>2019-01-07T09:57:07Z</time>
      </trkpt>
      <trkpt lat="42.4669" lon="2.17677">
        <ele>1725.3</ele>
        <time>2019-01-07T09:57:09Z</time>
      </trkpt>
      <trkpt lat="42.46692" lon="2.17679">
        <ele>1724.8</ele>
        <time>2019-01-07T09:57:10Z</time>
      </trkpt>
      <trkpt lat="42.46701" lon="2.17684">
        <ele>1732.1</ele>
        <time>2019-01-07T09:57:12Z</time>
      </trkpt>
      <trkpt lat="42.46705" lon="2.17683">
        <ele>1734.4</ele>
        <time>2019-01-07T09:57:13Z</time>
      </trkpt>
      <trkpt lat="42.46713" lon="2.17678">
        <ele>1736.9</ele>
        <time>2019-01-07T09:57:16Z</time>
      </trkpt>
      <trkpt lat="42.46722" lon="2.17671">
        <ele>1735.3</ele>
        <time>2019-01-07T09:57:19Z</time>
      </trkpt>
      <trkpt lat="42.46724" lon="2.17674">
        <ele>1737.2</ele>
        <time>2019-01-07T09:57:19Z</time>
      </trkpt>
      <trkpt lat="42.46734" lon="2.17679">
        <ele>1744</ele>
        <time>2019-01-07T09:57:22Z</time>
      </trkpt>
      <trkpt lat="42.46741" lon="2.17676">
        <ele>1744</ele>
        <time>2019-01-07T09:57:24Z</time>
      </trkpt>
      <trkpt lat="42.46749" lon="2.17677">
        <ele>1743</ele>
        <time>2019-01-07T09:57:26Z</time>
      </trkpt>
      <trkpt lat="42.4675" lon="2.1768">
        <ele>1741.2</ele>
        <time>2019-01-07T09:57:27Z</time>
      </trkpt>
      <trkpt lat="42.46752" lon="2.17683">
        <ele>1743.6</ele>
        <time>2019-01-07T09:57:28Z</time>
      </trkpt>
      <trkpt lat="42.46757" lon="2.17681">
        <ele>1749.8</ele>
        <time>2019-01-07T09:57:29Z</time>
      </trkpt>
      <trkpt lat="42.46764" lon="2.17675">
        <ele>1753.2</ele>
        <time>2019-01-07T09:57:31Z</time>
      </trkpt>
      <trkpt lat="42.46766" lon="2.17668">
        <ele>1756</ele>
        <time>2019-01-07T09:57:33Z</time>
      </trkpt>
      <trkpt lat="42.46769" lon="2.17669">
        <ele>1755.1</ele>
        <time>2019-01-07T09:57:33Z</time>
      </trkpt>
      <trkpt lat="42.46771" lon="2.17667">
        <ele>1755.6</ele>
        <time>2019-01-07T09:57:34Z</time>
      </trkpt>
      <trkpt lat="42.46774" lon="2.17664">
        <ele>1758.4</ele>
        <time>2019-01-07T09:57:35Z</time>
      </trkpt>
      <trkpt lat="42.4678" lon="2.17656">
        <ele>1759.8</ele>
        <time>2019-01-07T09:57:37Z</time>
      </trkpt>
      <trkpt lat="42.46781" lon="2.17656">
        <ele>1759.3</ele>
        <time>2019-01-07T09:57:38Z</time>
      </trkpt>
      <trkpt lat="42.46786" lon="2.1765">
        <ele>1761.8</ele>
        <time>2019-01-07T09:57:39Z</time>
      </trkpt>
      <trkpt lat="42.46793" lon="2.17644">
        <ele>1761.8</ele>
        <time>2019-01-07T09:57:42Z</time>
      </trkpt>
      <trkpt lat="42.46797" lon="2.17645">
        <ele>1763.7</ele>
        <time>2019-01-07T09:57:43Z</time>
      </trkpt>
      <trkpt lat="42.468" lon="2.17642">
        <ele>1763.2</ele>
        <time>2019-01-07T09:57:44Z</time>
      </trkpt>
      <trkpt lat="42.46806" lon="2.17634">
        <ele>1755.6</ele>
        <time>2019-01-07T09:57:46Z</time>
      </trkpt>
      <trkpt lat="42.46812" lon="2.17629">
        <ele>1752.7</ele>
        <time>2019-01-07T09:57:48Z</time>
      </trkpt>
      <trkpt lat="42.46819" lon="2.17625">
        <ele>1751.8</ele>
        <time>2019-01-07T09:57:50Z</time>
      </trkpt>
      <trkpt lat="42.46832" lon="2.17621">
        <ele>1754.1</ele>
        <time>2019-01-07T09:57:53Z</time>
      </trkpt>
      <trkpt lat="42.46833" lon="2.1762">
        <ele>1754.6</ele>
        <time>2019-01-07T09:57:54Z</time>
      </trkpt>
      <trkpt lat="42.46839" lon="2.17616">
        <ele>1755</ele>
        <time>2019-01-07T09:57:56Z</time>
      </trkpt>
      <trkpt lat="42.46839" lon="2.17614">
        <ele>1754.1</ele>
        <time>2019-01-07T09:57:56Z</time>
      </trkpt>
      <trkpt lat="42.46851" lon="2.17605">
        <ele>1755.5</ele>
        <time>2019-01-07T09:58:00Z</time>
      </trkpt>
      <trkpt lat="42.46853" lon="2.17604">
        <ele>1757.1</ele>
        <time>2019-01-07T09:58:00Z</time>
      </trkpt>
      <trkpt lat="42.46863" lon="2.17595">
        <ele>1757</ele>
        <time>2019-01-07T09:58:03Z</time>
      </trkpt>
      <trkpt lat="42.46866" lon="2.17596">
        <ele>1758.4</ele>
        <time>2019-01-07T09:58:04Z</time>
      </trkpt>
      <trkpt lat="42.46873" lon="2.17592">
        <ele>1763.7</ele>
        <time>2019-01-07T09:58:06Z</time>
      </trkpt>
      <trkpt lat="42.46879" lon="2.17588">
        <ele>1765.7</ele>
        <time>2019-01-07T09:58:08Z</time>
      </trkpt>
      <trkpt lat="42.46881" lon="2.17577">
        <ele>1760.9</ele>
        <time>2019-01-07T09:58:10Z</time>
      </trkpt>
      <trkpt lat="42.46889" lon="2.17573">
        <ele>1762.2</ele>
        <time>2019-01-07T09:58:12Z</time>
      </trkpt>
      <trkpt lat="42.46896" lon="2.17567">
        <ele>1763.8</ele>
        <time>2019-01-07T09:58:15Z</time>
      </trkpt>
      <trkpt lat="42.46898" lon="2.17565">
        <ele>1764.2</ele>
        <time>2019-01-07T09:58:15Z</time>
      </trkpt>
      <trkpt lat="42.46901" lon="2.17561">
        <ele>1764.6</ele>
        <time>2019-01-07T09:58:16Z</time>
      </trkpt>
      <trkpt lat="42.46904" lon="2.17558">
        <ele>1766.6</ele>
        <time>2019-01-07T09:58:17Z</time>
      </trkpt>
      <trkpt lat="42.46906" lon="2.17557">
        <ele>1767.5</ele>
        <time>2019-01-07T09:58:18Z</time>
      </trkpt>
      <trkpt lat="42.46908" lon="2.17553">
        <ele>1768.6</ele>
        <time>2019-01-07T09:58:19Z</time>
      </trkpt>
      <trkpt lat="42.46913" lon="2.17548">
        <ele>1770.9</ele>
        <time>2019-01-07T09:58:20Z</time>
      </trkpt>
      <trkpt lat="42.46918" lon="2.17545">
        <ele>1770.9</ele>
        <time>2019-01-07T09:58:22Z</time>
      </trkpt>
      <trkpt lat="42.46917" lon="2.17545">
        <ele>1768.5</ele>
        <time>2019-01-07T09:58:22Z</time>
      </trkpt>
      <trkpt lat="42.4692" lon="2.17544">
        <ele>1769</ele>
        <time>2019-01-07T09:58:23Z</time>
      </trkpt>
      <trkpt lat="42.46926" lon="2.17536">
        <ele>1768.5</ele>
        <time>2019-01-07T09:58:25Z</time>
      </trkpt>
      <trkpt lat="42.46935" lon="2.17533">
        <ele>1770.4</ele>
        <time>2019-01-07T09:58:28Z</time>
      </trkpt>
      <trkpt lat="42.46938" lon="2.17531">
        <ele>1769.5</ele>
        <time>2019-01-07T09:58:29Z</time>
      </trkpt>
      <trkpt lat="42.46948" lon="2.1753">
        <ele>1770.9</ele>
        <time>2019-01-07T09:58:31Z</time>
      </trkpt>
      <trkpt lat="42.46956" lon="2.17526">
        <ele>1769.9</ele>
        <time>2019-01-07T09:58:34Z</time>
      </trkpt>
      <trkpt lat="42.46958" lon="2.17526">
        <ele>1771</ele>
        <time>2019-01-07T09:58:34Z</time>
      </trkpt>
      <trkpt lat="42.46968" lon="2.17524">
        <ele>1772.3</ele>
        <time>2019-01-07T09:58:37Z</time>
      </trkpt>
      <trkpt lat="42.46975" lon="2.17521">
        <ele>1771.8</ele>
        <time>2019-01-07T09:58:39Z</time>
      </trkpt>
      <trkpt lat="42.46982" lon="2.17514">
        <ele>1770.5</ele>
        <time>2019-01-07T09:58:41Z</time>
      </trkpt>
      <trkpt lat="42.46983" lon="2.17515">
        <ele>1772.9</ele>
        <time>2019-01-07T09:58:41Z</time>
      </trkpt>
      <trkpt lat="42.46986" lon="2.17518">
        <ele>1774.8</ele>
        <time>2019-01-07T09:58:42Z</time>
      </trkpt>
      <trkpt lat="42.47" lon="2.17518">
        <ele>1780.5</ele>
        <time>2019-01-07T09:58:46Z</time>
      </trkpt>
      <trkpt lat="42.47007" lon="2.17516">
        <ele>1782.5</ele>
        <time>2019-01-07T09:58:48Z</time>
      </trkpt>
      <trkpt lat="42.47012" lon="2.17517">
        <ele>1782.9</ele>
        <time>2019-01-07T09:58:49Z</time>
      </trkpt>
      <trkpt lat="42.47019" lon="2.17516">
        <ele>1785.3</ele>
        <time>2019-01-07T09:58:51Z</time>
      </trkpt>
      <trkpt lat="42.47024" lon="2.17512">
        <ele>1786.3</ele>
        <time>2019-01-07T09:58:53Z</time>
      </trkpt>
      <trkpt lat="42.47029" lon="2.17508">
        <ele>1785.9</ele>
        <time>2019-01-07T09:58:54Z</time>
      </trkpt>
      <trkpt lat="42.47037" lon="2.17503">
        <ele>1791.7</ele>
        <time>2019-01-07T09:58:57Z</time>
      </trkpt>
      <trkpt lat="42.47044" lon="2.175">
        <ele>1793.5</ele>
        <time>2019-01-07T09:58:59Z</time>
      </trkpt>
      <trkpt lat="42.47049" lon="2.17492">
        <ele>1796.5</ele>
        <time>2019-01-07T09:59:01Z</time>
      </trkpt>
      <trkpt lat="42.47052" lon="2.17486">
        <ele>1794.5</ele>
        <time>2019-01-07T09:59:02Z</time>
      </trkpt>
      <trkpt lat="42.47055" lon="2.17481">
        <ele>1793.1</ele>
        <time>2019-01-07T09:59:03Z</time>
      </trkpt>
      <trkpt lat="42.47056" lon="2.17479">
        <ele>1792.6</ele>
        <time>2019-01-07T09:59:04Z</time>
      </trkpt>
      <trkpt lat="42.47058" lon="2.17473">
        <ele>1788.2</ele>
        <time>2019-01-07T09:59:05Z</time>
      </trkpt>
      <trkpt lat="42.47065" lon="2.17475">
        <ele>1788.7</ele>
        <time>2019-01-07T09:59:07Z</time>
      </trkpt>
      <trkpt lat="42.47076" lon="2.17477">
        <ele>1789.6</ele>
        <time>2019-01-07T09:59:10Z</time>
      </trkpt>
      <trkpt lat="42.47088" lon="2.1748">
        <ele>1788.2</ele>
        <time>2019-01-07T09:59:13Z</time>
      </trkpt>
      <trkpt lat="42.4709" lon="2.17479">
        <ele>1787.8</ele>
        <time>2019-01-07T09:59:14Z</time>
      </trkpt>
      <trkpt lat="42.471" lon="2.17475">
        <ele>1787.8</ele>
        <time>2019-01-07T09:59:17Z</time>
      </trkpt>
      <trkpt lat="42.47105" lon="2.17475">
        <ele>1788.8</ele>
        <time>2019-01-07T09:59:18Z</time>
      </trkpt>
      <trkpt lat="42.47113" lon="2.17473">
        <ele>1790.2</ele>
        <time>2019-01-07T09:59:20Z</time>
      </trkpt>
      <trkpt lat="42.47125" lon="2.17468">
        <ele>1796.5</ele>
        <time>2019-01-07T09:59:23Z</time>
      </trkpt>
      <trkpt lat="42.47128" lon="2.17465">
        <ele>1798.9</ele>
        <time>2019-01-07T09:59:25Z</time>
      </trkpt>
      <trkpt lat="42.47129" lon="2.17462">
        <ele>1798.3</ele>
        <time>2019-01-07T09:59:25Z</time>
      </trkpt>
      <trkpt lat="42.47133" lon="2.17461">
        <ele>1802.2</ele>
        <time>2019-01-07T09:59:26Z</time>
      </trkpt>
      <trkpt lat="42.47143" lon="2.17456">
        <ele>1805.5</ele>
        <time>2019-01-07T09:59:29Z</time>
      </trkpt>
      <trkpt lat="42.47144" lon="2.17453">
        <ele>1806.5</ele>
        <time>2019-01-07T09:59:30Z</time>
      </trkpt>
      <trkpt lat="42.47149" lon="2.17448">
        <ele>1809</ele>
        <time>2019-01-07T09:59:31Z</time>
      </trkpt>
      <trkpt lat="42.47149" lon="2.17447">
        <ele>1809.4</ele>
        <time>2019-01-07T09:59:32Z</time>
      </trkpt>
      <trkpt lat="42.47154" lon="2.17443">
        <ele>1810.3</ele>
        <time>2019-01-07T09:59:33Z</time>
      </trkpt>
      <trkpt lat="42.47158" lon="2.17443">
        <ele>1814.2</ele>
        <time>2019-01-07T09:59:34Z</time>
      </trkpt>
      <trkpt lat="42.47166" lon="2.17439">
        <ele>1821.9</ele>
        <time>2019-01-07T09:59:37Z</time>
      </trkpt>
      <trkpt lat="42.47167" lon="2.17439">
        <ele>1822.8</ele>
        <time>2019-01-07T09:59:37Z</time>
      </trkpt>
      <trkpt lat="42.47169" lon="2.17443">
        <ele>1833.5</ele>
        <time>2019-01-07T09:59:38Z</time>
      </trkpt>
      <trkpt lat="42.47172" lon="2.17446">
        <ele>1838.6</ele>
        <time>2019-01-07T09:59:39Z</time>
      </trkpt>
      <trkpt lat="42.47173" lon="2.17448">
        <ele>1839.2</ele>
        <time>2019-01-07T09:59:39Z</time>
      </trkpt>
      <trkpt lat="42.47174" lon="2.17449">
        <ele>1840.1</ele>
        <time>2019-01-07T09:59:40Z</time>
      </trkpt>
      <trkpt lat="42.4717" lon="2.17465">
        <ele>1843</ele>
        <time>2019-01-07T09:59:43Z</time>
      </trkpt>
      <trkpt lat="42.47168" lon="2.1747">
        <ele>1844.4</ele>
        <time>2019-01-07T09:59:44Z</time>
      </trkpt>
      <trkpt lat="42.47162" lon="2.1749">
        <ele>1875.3</ele>
        <time>2019-01-07T09:59:48Z</time>
      </trkpt>
      <trkpt lat="42.47168" lon="2.17479">
        <ele>1872.8</ele>
        <time>2019-01-07T09:59:51Z</time>
      </trkpt>
      <trkpt lat="42.47179" lon="2.17457">
        <ele>1868</ele>
        <time>2019-01-07T09:59:56Z</time>
      </trkpt>
      <trkpt lat="42.47181" lon="2.17448">
        <ele>1854</ele>
        <time>2019-01-07T09:59:58Z</time>
      </trkpt>
      <trkpt lat="42.4718" lon="2.17445">
        <ele>1833</ele>
        <time>2019-01-07T09:59:59Z</time>
      </trkpt>
      <trkpt lat="42.47191" lon="2.17441">
        <ele>1838.2</ele>
        <time>2019-01-07T10:00:02Z</time>
      </trkpt>
      <trkpt lat="42.47192" lon="2.17438">
        <ele>1830</ele>
        <time>2019-01-07T10:00:02Z</time>
      </trkpt>
      <trkpt lat="42.47199" lon="2.17436">
        <ele>1826.2</ele>
        <time>2019-01-07T10:00:04Z</time>
      </trkpt>
      <trkpt lat="42.47213" lon="2.17435">
        <ele>1828.1</ele>
        <time>2019-01-07T10:00:08Z</time>
      </trkpt>
      <trkpt lat="42.47217" lon="2.17434">
        <ele>1828.1</ele>
        <time>2019-01-07T10:00:09Z</time>
      </trkpt>
      <trkpt lat="42.47221" lon="2.17431">
        <ele>1827.6</ele>
        <time>2019-01-07T10:00:10Z</time>
      </trkpt>
      <trkpt lat="42.47226" lon="2.17432">
        <ele>1830.1</ele>
        <time>2019-01-07T10:00:12Z</time>
      </trkpt>
      <trkpt lat="42.47228" lon="2.17432">
        <ele>1830</ele>
        <time>2019-01-07T10:00:12Z</time>
      </trkpt>
      <trkpt lat="42.47236" lon="2.17431">
        <ele>1829.5</ele>
        <time>2019-01-07T10:00:14Z</time>
      </trkpt>
      <trkpt lat="42.47238" lon="2.17431">
        <ele>1829.6</ele>
        <time>2019-01-07T10:00:15Z</time>
      </trkpt>
      <trkpt lat="42.47244" lon="2.1743">
        <ele>1831.5</ele>
        <time>2019-01-07T10:00:16Z</time>
      </trkpt>
      <trkpt lat="42.47247" lon="2.1743">
        <ele>1832.5</ele>
        <time>2019-01-07T10:00:17Z</time>
      </trkpt>
      <trkpt lat="42.47255" lon="2.17427">
        <ele>1831.1</ele>
        <time>2019-01-07T10:00:19Z</time>
      </trkpt>
      <trkpt lat="42.47263" lon="2.17429">
        <ele>1835.9</ele>
        <time>2019-01-07T10:00:22Z</time>
      </trkpt>
      <trkpt lat="42.47265" lon="2.17429">
        <ele>1837.2</ele>
        <time>2019-01-07T10:00:22Z</time>
      </trkpt>
      <trkpt lat="42.47269" lon="2.17432">
        <ele>1836.7</ele>
        <time>2019-01-07T10:00:23Z</time>
      </trkpt>
      <trkpt lat="42.47274" lon="2.17432">
        <ele>1837.7</ele>
        <time>2019-01-07T10:00:25Z</time>
      </trkpt>
      <trkpt lat="42.47278" lon="2.17432">
        <ele>1838.3</ele>
        <time>2019-01-07T10:00:26Z</time>
      </trkpt>
      <trkpt lat="42.47285" lon="2.17429">
        <ele>1837.3</ele>
        <time>2019-01-07T10:00:28Z</time>
      </trkpt>
      <trkpt lat="42.47289" lon="2.17428">
        <ele>1836.3</ele>
        <time>2019-01-07T10:00:29Z</time>
      </trkpt>
      <trkpt lat="42.47292" lon="2.17429">
        <ele>1834.8</ele>
        <time>2019-01-07T10:00:30Z</time>
      </trkpt>
      <trkpt lat="42.47299" lon="2.1743">
        <ele>1834.4</ele>
        <time>2019-01-07T10:00:31Z</time>
      </trkpt>
      <trkpt lat="42.47302" lon="2.17428">
        <ele>1834.9</ele>
        <time>2019-01-07T10:00:32Z</time>
      </trkpt>
      <trkpt lat="42.47308" lon="2.17425">
        <ele>1834.4</ele>
        <time>2019-01-07T10:00:34Z</time>
      </trkpt>
      <trkpt lat="42.47311" lon="2.17422">
        <ele>1834.8</ele>
        <time>2019-01-07T10:00:35Z</time>
      </trkpt>
      <trkpt lat="42.47315" lon="2.1742">
        <ele>1834.3</ele>
        <time>2019-01-07T10:00:36Z</time>
      </trkpt>
      <trkpt lat="42.4732" lon="2.17416">
        <ele>1831.5</ele>
        <time>2019-01-07T10:00:38Z</time>
      </trkpt>
      <trkpt lat="42.47324" lon="2.17412">
        <ele>1830</ele>
        <time>2019-01-07T10:00:39Z</time>
      </trkpt>
      <trkpt lat="42.47331" lon="2.17411">
        <ele>1831.1</ele>
        <time>2019-01-07T10:00:41Z</time>
      </trkpt>
      <trkpt lat="42.47336" lon="2.17411">
        <ele>1831.9</ele>
        <time>2019-01-07T10:00:42Z</time>
      </trkpt>
      <trkpt lat="42.47346" lon="2.17403">
        <ele>1831.6</ele>
        <time>2019-01-07T10:00:45Z</time>
      </trkpt>
      <trkpt lat="42.47348" lon="2.17403">
        <ele>1833</ele>
        <time>2019-01-07T10:00:46Z</time>
      </trkpt>
      <trkpt lat="42.47353" lon="2.17401">
        <ele>1832.5</ele>
        <time>2019-01-07T10:00:47Z</time>
      </trkpt>
      <trkpt lat="42.47355" lon="2.17399">
        <ele>1830.6</ele>
        <time>2019-01-07T10:00:48Z</time>
      </trkpt>
      <trkpt lat="42.47358" lon="2.17396">
        <ele>1827.1</ele>
        <time>2019-01-07T10:00:49Z</time>
      </trkpt>
      <trkpt lat="42.47366" lon="2.17387">
        <ele>1820.4</ele>
        <time>2019-01-07T10:00:52Z</time>
      </trkpt>
      <trkpt lat="42.47378" lon="2.1738">
        <ele>1823.8</ele>
        <time>2019-01-07T10:00:55Z</time>
      </trkpt>
      <trkpt lat="42.4738" lon="2.17378">
        <ele>1823.3</ele>
        <time>2019-01-07T10:00:56Z</time>
      </trkpt>
      <trkpt lat="42.47384" lon="2.17374">
        <ele>1823.4</ele>
        <time>2019-01-07T10:00:57Z</time>
      </trkpt>
      <trkpt lat="42.47385" lon="2.17373">
        <ele>1823.3</ele>
        <time>2019-01-07T10:00:58Z</time>
      </trkpt>
      <trkpt lat="42.4739" lon="2.17367">
        <ele>1825.3</ele>
        <time>2019-01-07T10:00:59Z</time>
      </trkpt>
      <trkpt lat="42.47402" lon="2.1736">
        <ele>1824.2</ele>
        <time>2019-01-07T10:01:03Z</time>
      </trkpt>
      <trkpt lat="42.47407" lon="2.17355">
        <ele>1824.8</ele>
        <time>2019-01-07T10:01:04Z</time>
      </trkpt>
      <trkpt lat="42.47413" lon="2.17354">
        <ele>1826.1</ele>
        <time>2019-01-07T10:01:06Z</time>
      </trkpt>
      <trkpt lat="42.47414" lon="2.17353">
        <ele>1827.1</ele>
        <time>2019-01-07T10:01:06Z</time>
      </trkpt>
      <trkpt lat="42.47418" lon="2.1735">
        <ele>1829.1</ele>
        <time>2019-01-07T10:01:08Z</time>
      </trkpt>
      <trkpt lat="42.47425" lon="2.17344">
        <ele>1833</ele>
        <time>2019-01-07T10:01:10Z</time>
      </trkpt>
      <trkpt lat="42.47428" lon="2.17339">
        <ele>1834.8</ele>
        <time>2019-01-07T10:01:11Z</time>
      </trkpt>
      <trkpt lat="42.4743" lon="2.17335">
        <ele>1835.3</ele>
        <time>2019-01-07T10:01:12Z</time>
      </trkpt>
      <trkpt lat="42.47435" lon="2.17325">
        <ele>1839.7</ele>
        <time>2019-01-07T10:01:14Z</time>
      </trkpt>
      <trkpt lat="42.4744" lon="2.17317">
        <ele>1838.3</ele>
        <time>2019-01-07T10:01:16Z</time>
      </trkpt>
      <trkpt lat="42.47441" lon="2.17314">
        <ele>1837.3</ele>
        <time>2019-01-07T10:01:17Z</time>
      </trkpt>
      <trkpt lat="42.47444" lon="2.17309">
        <ele>1835.9</ele>
        <time>2019-01-07T10:01:18Z</time>
      </trkpt>
      <trkpt lat="42.47445" lon="2.17306">
        <ele>1835.3</ele>
        <time>2019-01-07T10:01:19Z</time>
      </trkpt>
      <trkpt lat="42.47447" lon="2.17301">
        <ele>1834.9</ele>
        <time>2019-01-07T10:01:20Z</time>
      </trkpt>
      <trkpt lat="42.47447" lon="2.17294">
        <ele>1832.5</ele>
        <time>2019-01-07T10:01:22Z</time>
      </trkpt>
      <trkpt lat="42.4745" lon="2.1729">
        <ele>1830</ele>
        <time>2019-01-07T10:01:23Z</time>
      </trkpt>
      <trkpt lat="42.4745" lon="2.17289">
        <ele>1829.5</ele>
        <time>2019-01-07T10:01:23Z</time>
      </trkpt>
      <trkpt lat="42.47454" lon="2.17281">
        <ele>1829.5</ele>
        <time>2019-01-07T10:01:25Z</time>
      </trkpt>
      <trkpt lat="42.47456" lon="2.17276">
        <ele>1829.5</ele>
        <time>2019-01-07T10:01:26Z</time>
      </trkpt>
      <trkpt lat="42.47459" lon="2.17267">
        <ele>1835.4</ele>
        <time>2019-01-07T10:01:28Z</time>
      </trkpt>
      <trkpt lat="42.47462" lon="2.17259">
        <ele>1838.3</ele>
        <time>2019-01-07T10:01:30Z</time>
      </trkpt>
      <trkpt lat="42.47464" lon="2.17253">
        <ele>1836.7</ele>
        <time>2019-01-07T10:01:31Z</time>
      </trkpt>
      <trkpt lat="42.47461" lon="2.17238">
        <ele>1834.8</ele>
        <time>2019-01-07T10:01:34Z</time>
      </trkpt>
      <trkpt lat="42.47462" lon="2.17231">
        <ele>1835.9</ele>
        <time>2019-01-07T10:01:35Z</time>
      </trkpt>
      <trkpt lat="42.47463" lon="2.17228">
        <ele>1836.7</ele>
        <time>2019-01-07T10:01:36Z</time>
      </trkpt>
      <trkpt lat="42.47466" lon="2.17219">
        <ele>1839.7</ele>
        <time>2019-01-07T10:01:38Z</time>
      </trkpt>
      <trkpt lat="42.47467" lon="2.17207">
        <ele>1838.7</ele>
        <time>2019-01-07T10:01:40Z</time>
      </trkpt>
      <trkpt lat="42.4747" lon="2.17201">
        <ele>1840.7</ele>
        <time>2019-01-07T10:01:42Z</time>
      </trkpt>
      <trkpt lat="42.47472" lon="2.17194">
        <ele>1838.6</ele>
        <time>2019-01-07T10:01:43Z</time>
      </trkpt>
      <trkpt lat="42.47472" lon="2.17191">
        <ele>1837.7</ele>
        <time>2019-01-07T10:01:44Z</time>
      </trkpt>
      <trkpt lat="42.47471" lon="2.17186">
        <ele>1836.4</ele>
        <time>2019-01-07T10:01:45Z</time>
      </trkpt>
      <trkpt lat="42.47476" lon="2.17177">
        <ele>1834.4</ele>
        <time>2019-01-07T10:01:47Z</time>
      </trkpt>
      <trkpt lat="42.47478" lon="2.17167">
        <ele>1832</ele>
        <time>2019-01-07T10:01:49Z</time>
      </trkpt>
      <trkpt lat="42.47479" lon="2.17157">
        <ele>1831</ele>
        <time>2019-01-07T10:01:51Z</time>
      </trkpt>
      <trkpt lat="42.47479" lon="2.17155">
        <ele>1830.6</ele>
        <time>2019-01-07T10:01:51Z</time>
      </trkpt>
      <trkpt lat="42.47482" lon="2.17144">
        <ele>1831.1</ele>
        <time>2019-01-07T10:01:54Z</time>
      </trkpt>
      <trkpt lat="42.47487" lon="2.17128">
        <ele>1832.9</ele>
        <time>2019-01-07T10:01:57Z</time>
      </trkpt>
      <trkpt lat="42.4749" lon="2.17112">
        <ele>1832.9</ele>
        <time>2019-01-07T10:02:00Z</time>
      </trkpt>
      <trkpt lat="42.4749" lon="2.17111">
        <ele>1832.5</ele>
        <time>2019-01-07T10:02:01Z</time>
      </trkpt>
      <trkpt lat="42.47492" lon="2.17101">
        <ele>1832.9</ele>
        <time>2019-01-07T10:02:03Z</time>
      </trkpt>
      <trkpt lat="42.47494" lon="2.17092">
        <ele>1837.2</ele>
        <time>2019-01-07T10:02:05Z</time>
      </trkpt>
      <trkpt lat="42.47496" lon="2.17086">
        <ele>1839.1</ele>
        <time>2019-01-07T10:02:06Z</time>
      </trkpt>
      <trkpt lat="42.47497" lon="2.17068">
        <ele>1844.5</ele>
        <time>2019-01-07T10:02:09Z</time>
      </trkpt>
      <trkpt lat="42.47496" lon="2.17065">
        <ele>1844.4</ele>
        <time>2019-01-07T10:02:10Z</time>
      </trkpt>
      <trkpt lat="42.47495" lon="2.17063">
        <ele>1844.5</ele>
        <time>2019-01-07T10:02:10Z</time>
      </trkpt>
      <trkpt lat="42.47497" lon="2.17056">
        <ele>1842.1</ele>
        <time>2019-01-07T10:02:12Z</time>
      </trkpt>
      <trkpt lat="42.47493" lon="2.17045">
        <ele>1839.7</ele>
        <time>2019-01-07T10:02:14Z</time>
      </trkpt>
      <trkpt lat="42.47492" lon="2.17037">
        <ele>1839.2</ele>
        <time>2019-01-07T10:02:16Z</time>
      </trkpt>
      <trkpt lat="42.47491" lon="2.17029">
        <ele>1838.7</ele>
        <time>2019-01-07T10:02:17Z</time>
      </trkpt>
      <trkpt lat="42.47491" lon="2.17022">
        <ele>1840.7</ele>
        <time>2019-01-07T10:02:19Z</time>
      </trkpt>
      <trkpt lat="42.47492" lon="2.17018">
        <ele>1842</ele>
        <time>2019-01-07T10:02:20Z</time>
      </trkpt>
      <trkpt lat="42.47493" lon="2.17006">
        <ele>1847.8</ele>
        <time>2019-01-07T10:02:22Z</time>
      </trkpt>
      <trkpt lat="42.47493" lon="2.17002">
        <ele>1848.3</ele>
        <time>2019-01-07T10:02:23Z</time>
      </trkpt>
      <trkpt lat="42.47493" lon="2.16994">
        <ele>1848.8</ele>
        <time>2019-01-07T10:02:24Z</time>
      </trkpt>
      <trkpt lat="42.47493" lon="2.1699">
        <ele>1849.3</ele>
        <time>2019-01-07T10:02:25Z</time>
      </trkpt>
      <trkpt lat="42.47492" lon="2.16985">
        <ele>1849.3</ele>
        <time>2019-01-07T10:02:26Z</time>
      </trkpt>
      <trkpt lat="42.47495" lon="2.16974">
        <ele>1849.8</ele>
        <time>2019-01-07T10:02:29Z</time>
      </trkpt>
      <trkpt lat="42.47495" lon="2.16971">
        <ele>1851.2</ele>
        <time>2019-01-07T10:02:29Z</time>
      </trkpt>
      <trkpt lat="42.47496" lon="2.16965">
        <ele>1849.3</ele>
        <time>2019-01-07T10:02:30Z</time>
      </trkpt>
      <trkpt lat="42.47496" lon="2.16958">
        <ele>1847.8</ele>
        <time>2019-01-07T10:02:32Z</time>
      </trkpt>
      <trkpt lat="42.47495" lon="2.16949">
        <ele>1846.4</ele>
        <time>2019-01-07T10:02:33Z</time>
      </trkpt>
      <trkpt lat="42.47494" lon="2.16944">
        <ele>1845.9</ele>
        <time>2019-01-07T10:02:35Z</time>
      </trkpt>
      <trkpt lat="42.47495" lon="2.16938">
        <ele>1845.9</ele>
        <time>2019-01-07T10:02:36Z</time>
      </trkpt>
      <trkpt lat="42.47495" lon="2.16934">
        <ele>1845.9</ele>
        <time>2019-01-07T10:02:36Z</time>
      </trkpt>
      <trkpt lat="42.47495" lon="2.16924">
        <ele>1846.4</ele>
        <time>2019-01-07T10:02:38Z</time>
      </trkpt>
      <trkpt lat="42.47495" lon="2.16921">
        <ele>1847.4</ele>
        <time>2019-01-07T10:02:39Z</time>
      </trkpt>
      <trkpt lat="42.47496" lon="2.16914">
        <ele>1849.3</ele>
        <time>2019-01-07T10:02:41Z</time>
      </trkpt>
      <trkpt lat="42.47496" lon="2.16908">
        <ele>1850.2</ele>
        <time>2019-01-07T10:02:42Z</time>
      </trkpt>
      <trkpt lat="42.47495" lon="2.16906">
        <ele>1850.7</ele>
        <time>2019-01-07T10:02:42Z</time>
      </trkpt>
      <trkpt lat="42.47498" lon="2.16895">
        <ele>1849.7</ele>
        <time>2019-01-07T10:02:44Z</time>
      </trkpt>
      <trkpt lat="42.47498" lon="2.16893">
        <ele>1848.9</ele>
        <time>2019-01-07T10:02:45Z</time>
      </trkpt>
      <trkpt lat="42.47498" lon="2.16891">
        <ele>1847.4</ele>
        <time>2019-01-07T10:02:45Z</time>
      </trkpt>
      <trkpt lat="42.47496" lon="2.16882">
        <ele>1844.9</ele>
        <time>2019-01-07T10:02:47Z</time>
      </trkpt>
      <trkpt lat="42.47497" lon="2.16873">
        <ele>1861.3</ele>
        <time>2019-01-07T10:02:49Z</time>
      </trkpt>
      <trkpt lat="42.47494" lon="2.16865">
        <ele>1861.3</ele>
        <time>2019-01-07T10:02:50Z</time>
      </trkpt>
      <trkpt lat="42.47495" lon="2.16863">
        <ele>1860.8</ele>
        <time>2019-01-07T10:02:51Z</time>
      </trkpt>
      <trkpt lat="42.47492" lon="2.16856">
        <ele>1861.3</ele>
        <time>2019-01-07T10:02:52Z</time>
      </trkpt>
      <trkpt lat="42.47492" lon="2.16851">
        <ele>1861.7</ele>
        <time>2019-01-07T10:02:53Z</time>
      </trkpt>
      <trkpt lat="42.47488" lon="2.16844">
        <ele>1861.4</ele>
        <time>2019-01-07T10:02:55Z</time>
      </trkpt>
      <trkpt lat="42.47489" lon="2.16839">
        <ele>1862.8</ele>
        <time>2019-01-07T10:02:56Z</time>
      </trkpt>
      <trkpt lat="42.47487" lon="2.16833">
        <ele>1861.3</ele>
        <time>2019-01-07T10:02:57Z</time>
      </trkpt>
      <trkpt lat="42.47483" lon="2.16824">
        <ele>1861.8</ele>
        <time>2019-01-07T10:03:00Z</time>
      </trkpt>
      <trkpt lat="42.4748" lon="2.16822">
        <ele>1860.8</ele>
        <time>2019-01-07T10:03:00Z</time>
      </trkpt>
      <trkpt lat="42.47478" lon="2.16819">
        <ele>1861.3</ele>
        <time>2019-01-07T10:03:01Z</time>
      </trkpt>
      <trkpt lat="42.47481" lon="2.16809">
        <ele>1861.7</ele>
        <time>2019-01-07T10:03:03Z</time>
      </trkpt>
      <trkpt lat="42.47479" lon="2.16805">
        <ele>1858.5</ele>
        <time>2019-01-07T10:03:04Z</time>
      </trkpt>
      <trkpt lat="42.47479" lon="2.16803">
        <ele>1856.4</ele>
        <time>2019-01-07T10:03:05Z</time>
      </trkpt>
      <trkpt lat="42.4748" lon="2.16794">
        <ele>1858.9</ele>
        <time>2019-01-07T10:03:07Z</time>
      </trkpt>
      <trkpt lat="42.47479" lon="2.16793">
        <ele>1858.4</ele>
        <time>2019-01-07T10:03:07Z</time>
      </trkpt>
      <trkpt lat="42.47477" lon="2.16785">
        <ele>1855</ele>
        <time>2019-01-07T10:03:09Z</time>
      </trkpt>
      <trkpt lat="42.47473" lon="2.16779">
        <ele>1857</ele>
        <time>2019-01-07T10:03:10Z</time>
      </trkpt>
      <trkpt lat="42.47472" lon="2.16774">
        <ele>1859.9</ele>
        <time>2019-01-07T10:03:11Z</time>
      </trkpt>
      <trkpt lat="42.47472" lon="2.16767">
        <ele>1864.7</ele>
        <time>2019-01-07T10:03:13Z</time>
      </trkpt>
      <trkpt lat="42.47467" lon="2.16763">
        <ele>1863.6</ele>
        <time>2019-01-07T10:03:14Z</time>
      </trkpt>
      <trkpt lat="42.47462" lon="2.16757">
        <ele>1863.2</ele>
        <time>2019-01-07T10:03:16Z</time>
      </trkpt>
      <trkpt lat="42.47461" lon="2.16753">
        <ele>1864.1</ele>
        <time>2019-01-07T10:03:17Z</time>
      </trkpt>
      <trkpt lat="42.47459" lon="2.16749">
        <ele>1865.7</ele>
        <time>2019-01-07T10:03:18Z</time>
      </trkpt>
      <trkpt lat="42.47459" lon="2.1674">
        <ele>1865.1</ele>
        <time>2019-01-07T10:03:19Z</time>
      </trkpt>
      <trkpt lat="42.47455" lon="2.16734">
        <ele>1864.2</ele>
        <time>2019-01-07T10:03:21Z</time>
      </trkpt>
      <trkpt lat="42.47451" lon="2.16728">
        <ele>1867</ele>
        <time>2019-01-07T10:03:22Z</time>
      </trkpt>
      <trkpt lat="42.47449" lon="2.16722">
        <ele>1870.9</ele>
        <time>2019-01-07T10:03:24Z</time>
      </trkpt>
      <trkpt lat="42.47449" lon="2.16719">
        <ele>1871.9</ele>
        <time>2019-01-07T10:03:24Z</time>
      </trkpt>
      <trkpt lat="42.47448" lon="2.16718">
        <ele>1872.4</ele>
        <time>2019-01-07T10:03:25Z</time>
      </trkpt>
      <trkpt lat="42.47446" lon="2.1671">
        <ele>1871.8</ele>
        <time>2019-01-07T10:03:26Z</time>
      </trkpt>
      <trkpt lat="42.47447" lon="2.167">
        <ele>1869</ele>
        <time>2019-01-07T10:03:28Z</time>
      </trkpt>
      <trkpt lat="42.47449" lon="2.16692">
        <ele>1862.2</ele>
        <time>2019-01-07T10:03:30Z</time>
      </trkpt>
      <trkpt lat="42.47451" lon="2.16686">
        <ele>1857.4</ele>
        <time>2019-01-07T10:03:31Z</time>
      </trkpt>
      <trkpt lat="42.47456" lon="2.16677">
        <ele>1856.9</ele>
        <time>2019-01-07T10:03:33Z</time>
      </trkpt>
      <trkpt lat="42.47458" lon="2.16673">
        <ele>1857</ele>
        <time>2019-01-07T10:03:34Z</time>
      </trkpt>
      <trkpt lat="42.47461" lon="2.16668">
        <ele>1858.4</ele>
        <time>2019-01-07T10:03:36Z</time>
      </trkpt>
      <trkpt lat="42.47464" lon="2.16664">
        <ele>1857.5</ele>
        <time>2019-01-07T10:03:37Z</time>
      </trkpt>
      <trkpt lat="42.47467" lon="2.16663">
        <ele>1859.4</ele>
        <time>2019-01-07T10:03:38Z</time>
      </trkpt>
      <trkpt lat="42.47471" lon="2.16659">
        <ele>1860.4</ele>
        <time>2019-01-07T10:03:39Z</time>
      </trkpt>
      <trkpt lat="42.47476" lon="2.16653">
        <ele>1860.8</ele>
        <time>2019-01-07T10:03:41Z</time>
      </trkpt>
      <trkpt lat="42.47484" lon="2.16645">
        <ele>1867.6</ele>
        <time>2019-01-07T10:03:43Z</time>
      </trkpt>
      <trkpt lat="42.47489" lon="2.16638">
        <ele>1873.8</ele>
        <time>2019-01-07T10:03:45Z</time>
      </trkpt>
      <trkpt lat="42.47491" lon="2.16625">
        <ele>1882.4</ele>
        <time>2019-01-07T10:03:48Z</time>
      </trkpt>
      <trkpt lat="42.4749" lon="2.16618">
        <ele>1881</ele>
        <time>2019-01-07T10:03:49Z</time>
      </trkpt>
      <trkpt lat="42.4749" lon="2.16616">
        <ele>1881</ele>
        <time>2019-01-07T10:03:50Z</time>
      </trkpt>
      <trkpt lat="42.47491" lon="2.16606">
        <ele>1882.4</ele>
        <time>2019-01-07T10:03:52Z</time>
      </trkpt>
      <trkpt lat="42.47492" lon="2.16604">
        <ele>1883</ele>
        <time>2019-01-07T10:03:52Z</time>
      </trkpt>
      <trkpt lat="42.47495" lon="2.1659">
        <ele>1891</ele>
        <time>2019-01-07T10:03:55Z</time>
      </trkpt>
      <trkpt lat="42.47498" lon="2.16583">
        <ele>1892.6</ele>
        <time>2019-01-07T10:03:57Z</time>
      </trkpt>
      <trkpt lat="42.47498" lon="2.16578">
        <ele>1893.4</ele>
        <time>2019-01-07T10:03:57Z</time>
      </trkpt>
      <trkpt lat="42.47501" lon="2.1657">
        <ele>1894</ele>
        <time>2019-01-07T10:03:59Z</time>
      </trkpt>
      <trkpt lat="42.47503" lon="2.16566">
        <ele>1894.9</ele>
        <time>2019-01-07T10:04:00Z</time>
      </trkpt>
      <trkpt lat="42.47503" lon="2.1656">
        <ele>1895.5</ele>
        <time>2019-01-07T10:04:01Z</time>
      </trkpt>
      <trkpt lat="42.47506" lon="2.16557">
        <ele>1896.8</ele>
        <time>2019-01-07T10:04:02Z</time>
      </trkpt>
      <trkpt lat="42.47507" lon="2.16554">
        <ele>1896.3</ele>
        <time>2019-01-07T10:04:03Z</time>
      </trkpt>
      <trkpt lat="42.47508" lon="2.16547">
        <ele>1893.9</ele>
        <time>2019-01-07T10:04:04Z</time>
      </trkpt>
      <trkpt lat="42.47509" lon="2.16539">
        <ele>1893.1</ele>
        <time>2019-01-07T10:04:06Z</time>
      </trkpt>
      <trkpt lat="42.47512" lon="2.16536">
        <ele>1890.6</ele>
        <time>2019-01-07T10:04:07Z</time>
      </trkpt>
      <trkpt lat="42.47513" lon="2.16533">
        <ele>1891.5</ele>
        <time>2019-01-07T10:04:07Z</time>
      </trkpt>
      <trkpt lat="42.47515" lon="2.16525">
        <ele>1885.9</ele>
        <time>2019-01-07T10:04:09Z</time>
      </trkpt>
      <trkpt lat="42.47517" lon="2.16517">
        <ele>1871.9</ele>
        <time>2019-01-07T10:04:11Z</time>
      </trkpt>
      <trkpt lat="42.47519" lon="2.16514">
        <ele>1873.3</ele>
        <time>2019-01-07T10:04:12Z</time>
      </trkpt>
      <trkpt lat="42.47523" lon="2.1651">
        <ele>1875.8</ele>
        <time>2019-01-07T10:04:13Z</time>
      </trkpt>
      <trkpt lat="42.47529" lon="2.16502">
        <ele>1880.6</ele>
        <time>2019-01-07T10:04:15Z</time>
      </trkpt>
      <trkpt lat="42.47531" lon="2.16498">
        <ele>1884.3</ele>
        <time>2019-01-07T10:04:16Z</time>
      </trkpt>
      <trkpt lat="42.47533" lon="2.16489">
        <ele>1896.8</ele>
        <time>2019-01-07T10:04:18Z</time>
      </trkpt>
      <trkpt lat="42.47535" lon="2.1648">
        <ele>1895.9</ele>
        <time>2019-01-07T10:04:20Z</time>
      </trkpt>
      <trkpt lat="42.47537" lon="2.16473">
        <ele>1896</ele>
        <time>2019-01-07T10:04:21Z</time>
      </trkpt>
      <trkpt lat="42.47538" lon="2.16458">
        <ele>1897.9</ele>
        <time>2019-01-07T10:04:24Z</time>
      </trkpt>
      <trkpt lat="42.47538" lon="2.16453">
        <ele>1896</ele>
        <time>2019-01-07T10:04:25Z</time>
      </trkpt>
      <trkpt lat="42.47538" lon="2.16444">
        <ele>1895.4</ele>
        <time>2019-01-07T10:04:27Z</time>
      </trkpt>
      <trkpt lat="42.47539" lon="2.16441">
        <ele>1896.9</ele>
        <time>2019-01-07T10:04:28Z</time>
      </trkpt>
      <trkpt lat="42.4754" lon="2.16436">
        <ele>1897.3</ele>
        <time>2019-01-07T10:04:29Z</time>
      </trkpt>
      <trkpt lat="42.47541" lon="2.16435">
        <ele>1897.4</ele>
        <time>2019-01-07T10:04:29Z</time>
      </trkpt>
      <trkpt lat="42.47542" lon="2.16429">
        <ele>1896</ele>
        <time>2019-01-07T10:04:30Z</time>
      </trkpt>
      <trkpt lat="42.47542" lon="2.16427">
        <ele>1894.9</ele>
        <time>2019-01-07T10:04:31Z</time>
      </trkpt>
      <trkpt lat="42.47543" lon="2.16424">
        <ele>1894.9</ele>
        <time>2019-01-07T10:04:31Z</time>
      </trkpt>
      <trkpt lat="42.47546" lon="2.16416">
        <ele>1893.9</ele>
        <time>2019-01-07T10:04:33Z</time>
      </trkpt>
      <trkpt lat="42.47548" lon="2.16407">
        <ele>1891.6</ele>
        <time>2019-01-07T10:04:35Z</time>
      </trkpt>
      <trkpt lat="42.4755" lon="2.16403">
        <ele>1893.4</ele>
        <time>2019-01-07T10:04:36Z</time>
      </trkpt>
      <trkpt lat="42.47551" lon="2.16402">
        <ele>1893</ele>
        <time>2019-01-07T10:04:36Z</time>
      </trkpt>
      <trkpt lat="42.47553" lon="2.16393">
        <ele>1892</ele>
        <time>2019-01-07T10:04:38Z</time>
      </trkpt>
      <trkpt lat="42.47552" lon="2.16385">
        <ele>1895.9</ele>
        <time>2019-01-07T10:04:39Z</time>
      </trkpt>
      <trkpt lat="42.47553" lon="2.16379">
        <ele>1895.4</ele>
        <time>2019-01-07T10:04:41Z</time>
      </trkpt>
      <trkpt lat="42.47554" lon="2.16372">
        <ele>1893.1</ele>
        <time>2019-01-07T10:04:42Z</time>
      </trkpt>
      <trkpt lat="42.47557" lon="2.16366">
        <ele>1890.1</ele>
        <time>2019-01-07T10:04:43Z</time>
      </trkpt>
      <trkpt lat="42.47561" lon="2.1636">
        <ele>1884.8</ele>
        <time>2019-01-07T10:04:45Z</time>
      </trkpt>
      <trkpt lat="42.47562" lon="2.16358">
        <ele>1883.8</ele>
        <time>2019-01-07T10:04:46Z</time>
      </trkpt>
      <trkpt lat="42.47566" lon="2.16351">
        <ele>1887.3</ele>
        <time>2019-01-07T10:04:47Z</time>
      </trkpt>
      <trkpt lat="42.4757" lon="2.16349">
        <ele>1888.2</ele>
        <time>2019-01-07T10:04:48Z</time>
      </trkpt>
      <trkpt lat="42.47573" lon="2.16344">
        <ele>1888.2</ele>
        <time>2019-01-07T10:04:50Z</time>
      </trkpt>
      <trkpt lat="42.47574" lon="2.16342">
        <ele>1887.2</ele>
        <time>2019-01-07T10:04:50Z</time>
      </trkpt>
      <trkpt lat="42.47578" lon="2.16336">
        <ele>1883</ele>
        <time>2019-01-07T10:04:52Z</time>
      </trkpt>
      <trkpt lat="42.47587" lon="2.16333">
        <ele>1886.8</ele>
        <time>2019-01-07T10:04:54Z</time>
      </trkpt>
      <trkpt lat="42.47594" lon="2.1633">
        <ele>1888.3</ele>
        <time>2019-01-07T10:04:56Z</time>
      </trkpt>
      <trkpt lat="42.47601" lon="2.16326">
        <ele>1884.3</ele>
        <time>2019-01-07T10:04:58Z</time>
      </trkpt>
      <trkpt lat="42.47606" lon="2.16329">
        <ele>1884.8</ele>
        <time>2019-01-07T10:05:00Z</time>
      </trkpt>
      <trkpt lat="42.47613" lon="2.16331">
        <ele>1887.7</ele>
        <time>2019-01-07T10:05:02Z</time>
      </trkpt>
      <trkpt lat="42.4762" lon="2.16332">
        <ele>1891</ele>
        <time>2019-01-07T10:05:04Z</time>
      </trkpt>
      <trkpt lat="42.47624" lon="2.16329">
        <ele>1889.6</ele>
        <time>2019-01-07T10:05:05Z</time>
      </trkpt>
      <trkpt lat="42.47628" lon="2.16324">
        <ele>1889.7</ele>
        <time>2019-01-07T10:05:06Z</time>
      </trkpt>
      <trkpt lat="42.4763" lon="2.16322">
        <ele>1889.2</ele>
        <time>2019-01-07T10:05:07Z</time>
      </trkpt>
      <trkpt lat="42.47636" lon="2.1632">
        <ele>1889.6</ele>
        <time>2019-01-07T10:05:09Z</time>
      </trkpt>
      <trkpt lat="42.47641" lon="2.1632">
        <ele>1892</ele>
        <time>2019-01-07T10:05:10Z</time>
      </trkpt>
      <trkpt lat="42.47644" lon="2.1632">
        <ele>1896.8</ele>
        <time>2019-01-07T10:05:11Z</time>
      </trkpt>
      <trkpt lat="42.47654" lon="2.16317">
        <ele>1898.3</ele>
        <time>2019-01-07T10:05:14Z</time>
      </trkpt>
      <trkpt lat="42.47657" lon="2.16317">
        <ele>1899.8</ele>
        <time>2019-01-07T10:05:14Z</time>
      </trkpt>
      <trkpt lat="42.47663" lon="2.16316">
        <ele>1896</ele>
        <time>2019-01-07T10:05:16Z</time>
      </trkpt>
      <trkpt lat="42.47669" lon="2.16313">
        <ele>1893.9</ele>
        <time>2019-01-07T10:05:18Z</time>
      </trkpt>
      <trkpt lat="42.47678" lon="2.16308">
        <ele>1894.4</ele>
        <time>2019-01-07T10:05:20Z</time>
      </trkpt>
      <trkpt lat="42.47678" lon="2.16306">
        <ele>1894.9</ele>
        <time>2019-01-07T10:05:20Z</time>
      </trkpt>
      <trkpt lat="42.4768" lon="2.16305">
        <ele>1895.5</ele>
        <time>2019-01-07T10:05:21Z</time>
      </trkpt>
      <trkpt lat="42.47684" lon="2.16306">
        <ele>1896.9</ele>
        <time>2019-01-07T10:05:22Z</time>
      </trkpt>
      <trkpt lat="42.47693" lon="2.16306">
        <ele>1899.8</ele>
        <time>2019-01-07T10:05:24Z</time>
      </trkpt>
      <trkpt lat="42.47696" lon="2.163">
        <ele>1898.8</ele>
        <time>2019-01-07T10:05:26Z</time>
      </trkpt>
      <trkpt lat="42.47698" lon="2.16298">
        <ele>1896.8</ele>
        <time>2019-01-07T10:05:27Z</time>
      </trkpt>
      <trkpt lat="42.47699" lon="2.16296">
        <ele>1895.4</ele>
        <time>2019-01-07T10:05:27Z</time>
      </trkpt>
      <trkpt lat="42.47703" lon="2.16295">
        <ele>1897.4</ele>
        <time>2019-01-07T10:05:28Z</time>
      </trkpt>
      <trkpt lat="42.47709" lon="2.1629">
        <ele>1897.4</ele>
        <time>2019-01-07T10:05:30Z</time>
      </trkpt>
      <trkpt lat="42.47715" lon="2.16286">
        <ele>1896.8</ele>
        <time>2019-01-07T10:05:32Z</time>
      </trkpt>
      <trkpt lat="42.47726" lon="2.16279">
        <ele>1897.8</ele>
        <time>2019-01-07T10:05:35Z</time>
      </trkpt>
      <trkpt lat="42.47731" lon="2.16275">
        <ele>1898.9</ele>
        <time>2019-01-07T10:05:37Z</time>
      </trkpt>
      <trkpt lat="42.47738" lon="2.16272">
        <ele>1899.2</ele>
        <time>2019-01-07T10:05:39Z</time>
      </trkpt>
      <trkpt lat="42.47744" lon="2.16265">
        <ele>1900.7</ele>
        <time>2019-01-07T10:05:41Z</time>
      </trkpt>
      <trkpt lat="42.47749" lon="2.16259">
        <ele>1898.9</ele>
        <time>2019-01-07T10:05:42Z</time>
      </trkpt>
      <trkpt lat="42.47754" lon="2.16257">
        <ele>1897.3</ele>
        <time>2019-01-07T10:05:44Z</time>
      </trkpt>
      <trkpt lat="42.47755" lon="2.16256">
        <ele>1897.3</ele>
        <time>2019-01-07T10:05:44Z</time>
      </trkpt>
      <trkpt lat="42.47765" lon="2.16249">
        <ele>1896.4</ele>
        <time>2019-01-07T10:05:47Z</time>
      </trkpt>
      <trkpt lat="42.47769" lon="2.16246">
        <ele>1896.4</ele>
        <time>2019-01-07T10:05:48Z</time>
      </trkpt>
      <trkpt lat="42.47775" lon="2.16239">
        <ele>1894.4</ele>
        <time>2019-01-07T10:05:50Z</time>
      </trkpt>
      <trkpt lat="42.47781" lon="2.16229">
        <ele>1893.9</ele>
        <time>2019-01-07T10:05:53Z</time>
      </trkpt>
      <trkpt lat="42.47785" lon="2.16228">
        <ele>1897.3</ele>
        <time>2019-01-07T10:05:54Z</time>
      </trkpt>
      <trkpt lat="42.47787" lon="2.16226">
        <ele>1897.8</ele>
        <time>2019-01-07T10:05:55Z</time>
      </trkpt>
      <trkpt lat="42.47794" lon="2.16221">
        <ele>1896</ele>
        <time>2019-01-07T10:05:57Z</time>
      </trkpt>
      <trkpt lat="42.47796" lon="2.1622">
        <ele>1897.4</ele>
        <time>2019-01-07T10:05:57Z</time>
      </trkpt>
      <trkpt lat="42.47796" lon="2.1622">
        <ele>1899.7</ele>
        <time>2019-01-07T10:05:57Z</time>
      </trkpt>
      <trkpt lat="42.47799" lon="2.16217">
        <ele>1900.7</ele>
        <time>2019-01-07T10:05:58Z</time>
      </trkpt>
      <trkpt lat="42.47802" lon="2.16216">
        <ele>1902.7</ele>
        <time>2019-01-07T10:05:59Z</time>
      </trkpt>
      <trkpt lat="42.47806" lon="2.16211">
        <ele>1903.6</ele>
        <time>2019-01-07T10:06:01Z</time>
      </trkpt>
      <trkpt lat="42.47808" lon="2.16207">
        <ele>1903.2</ele>
        <time>2019-01-07T10:06:02Z</time>
      </trkpt>
      <trkpt lat="42.47819" lon="2.16198">
        <ele>1900.7</ele>
        <time>2019-01-07T10:06:05Z</time>
      </trkpt>
      <trkpt lat="42.47825" lon="2.16201">
        <ele>1899.2</ele>
        <time>2019-01-07T10:06:07Z</time>
      </trkpt>
      <trkpt lat="42.4783" lon="2.16201">
        <ele>1896.3</ele>
        <time>2019-01-07T10:06:08Z</time>
      </trkpt>
      <trkpt lat="42.47836" lon="2.162">
        <ele>1892</ele>
        <time>2019-01-07T10:06:10Z</time>
      </trkpt>
      <trkpt lat="42.47837" lon="2.162">
        <ele>1892.1</ele>
        <time>2019-01-07T10:06:10Z</time>
      </trkpt>
      <trkpt lat="42.47849" lon="2.16194">
        <ele>1893</ele>
        <time>2019-01-07T10:06:13Z</time>
      </trkpt>
      <trkpt lat="42.47853" lon="2.16191">
        <ele>1896.4</ele>
        <time>2019-01-07T10:06:15Z</time>
      </trkpt>
      <trkpt lat="42.47855" lon="2.16188">
        <ele>1898.4</ele>
        <time>2019-01-07T10:06:15Z</time>
      </trkpt>
      <trkpt lat="42.47862" lon="2.16183">
        <ele>1897.8</ele>
        <time>2019-01-07T10:06:18Z</time>
      </trkpt>
      <trkpt lat="42.47866" lon="2.1618">
        <ele>1898.3</ele>
        <time>2019-01-07T10:06:19Z</time>
      </trkpt>
      <trkpt lat="42.47873" lon="2.16176">
        <ele>1900.3</ele>
        <time>2019-01-07T10:06:21Z</time>
      </trkpt>
      <trkpt lat="42.47876" lon="2.16175">
        <ele>1902.1</ele>
        <time>2019-01-07T10:06:22Z</time>
      </trkpt>
      <trkpt lat="42.47887" lon="2.16172">
        <ele>1907.9</ele>
        <time>2019-01-07T10:06:25Z</time>
      </trkpt>
      <trkpt lat="42.47892" lon="2.16172">
        <ele>1910.3</ele>
        <time>2019-01-07T10:06:26Z</time>
      </trkpt>
      <trkpt lat="42.47902" lon="2.16172">
        <ele>1911.8</ele>
        <time>2019-01-07T10:06:29Z</time>
      </trkpt>
      <trkpt lat="42.4791" lon="2.16173">
        <ele>1910.9</ele>
        <time>2019-01-07T10:06:31Z</time>
      </trkpt>
      <trkpt lat="42.47919" lon="2.1617">
        <ele>1912.7</ele>
        <time>2019-01-07T10:06:33Z</time>
      </trkpt>
      <trkpt lat="42.47927" lon="2.1617">
        <ele>1912.3</ele>
        <time>2019-01-07T10:06:35Z</time>
      </trkpt>
      <trkpt lat="42.47936" lon="2.16169">
        <ele>1911.8</ele>
        <time>2019-01-07T10:06:38Z</time>
      </trkpt>
      <trkpt lat="42.47938" lon="2.16169">
        <ele>1911.3</ele>
        <time>2019-01-07T10:06:38Z</time>
      </trkpt>
      <trkpt lat="42.4795" lon="2.16165">
        <ele>1911.3</ele>
        <time>2019-01-07T10:06:42Z</time>
      </trkpt>
      <trkpt lat="42.47951" lon="2.16162">
        <ele>1911.3</ele>
        <time>2019-01-07T10:06:42Z</time>
      </trkpt>
      <trkpt lat="42.47963" lon="2.1615">
        <ele>1908.9</ele>
        <time>2019-01-07T10:06:46Z</time>
      </trkpt>
      <trkpt lat="42.47973" lon="2.16139">
        <ele>1909.8</ele>
        <time>2019-01-07T10:06:49Z</time>
      </trkpt>
      <trkpt lat="42.47974" lon="2.16135">
        <ele>1908.8</ele>
        <time>2019-01-07T10:06:50Z</time>
      </trkpt>
      <trkpt lat="42.47973" lon="2.16113">
        <ele>1906.9</ele>
        <time>2019-01-07T10:06:55Z</time>
      </trkpt>
      <trkpt lat="42.47974" lon="2.16094">
        <ele>1905.1</ele>
        <time>2019-01-07T10:06:58Z</time>
      </trkpt>
      <trkpt lat="42.47974" lon="2.16076">
        <ele>1905.5</ele>
        <time>2019-01-07T10:07:02Z</time>
      </trkpt>
      <trkpt lat="42.47976" lon="2.16062">
        <ele>1903.5</ele>
        <time>2019-01-07T10:07:05Z</time>
      </trkpt>
      <trkpt lat="42.47976" lon="2.16059">
        <ele>1903.2</ele>
        <time>2019-01-07T10:07:05Z</time>
      </trkpt>
      <trkpt lat="42.47981" lon="2.16044">
        <ele>1899.7</ele>
        <time>2019-01-07T10:07:09Z</time>
      </trkpt>
      <trkpt lat="42.47984" lon="2.16031">
        <ele>1900.3</ele>
        <time>2019-01-07T10:07:11Z</time>
      </trkpt>
      <trkpt lat="42.47989" lon="2.16018">
        <ele>1900.7</ele>
        <time>2019-01-07T10:07:14Z</time>
      </trkpt>
      <trkpt lat="42.47991" lon="2.16015">
        <ele>1900.7</ele>
        <time>2019-01-07T10:07:15Z</time>
      </trkpt>
      <trkpt lat="42.47992" lon="2.16014">
        <ele>1900.2</ele>
        <time>2019-01-07T10:07:15Z</time>
      </trkpt>
      <trkpt lat="42.47995" lon="2.16004">
        <ele>1896.3</ele>
        <time>2019-01-07T10:07:17Z</time>
      </trkpt>
      <trkpt lat="42.47995" lon="2.15998">
        <ele>1892.6</ele>
        <time>2019-01-07T10:07:19Z</time>
      </trkpt>
      <trkpt lat="42.47995" lon="2.15989">
        <ele>1889.2</ele>
        <time>2019-01-07T10:07:20Z</time>
      </trkpt>
      <trkpt lat="42.47998" lon="2.15975">
        <ele>1888.8</ele>
        <time>2019-01-07T10:07:23Z</time>
      </trkpt>
      <trkpt lat="42.48002" lon="2.15959">
        <ele>1888.3</ele>
        <time>2019-01-07T10:07:27Z</time>
      </trkpt>
      <trkpt lat="42.48006" lon="2.15947">
        <ele>1884.4</ele>
        <time>2019-01-07T10:07:29Z</time>
      </trkpt>
      <trkpt lat="42.48008" lon="2.15943">
        <ele>1884.4</ele>
        <time>2019-01-07T10:07:30Z</time>
      </trkpt>
      <trkpt lat="42.48014" lon="2.15932">
        <ele>1884.8</ele>
        <time>2019-01-07T10:07:33Z</time>
      </trkpt>
      <trkpt lat="42.4802" lon="2.15922">
        <ele>1885.3</ele>
        <time>2019-01-07T10:07:35Z</time>
      </trkpt>
      <trkpt lat="42.48028" lon="2.15912">
        <ele>1885.9</ele>
        <time>2019-01-07T10:07:38Z</time>
      </trkpt>
      <trkpt lat="42.48039" lon="2.15896">
        <ele>1885.3</ele>
        <time>2019-01-07T10:07:42Z</time>
      </trkpt>
      <trkpt lat="42.48045" lon="2.15887">
        <ele>1883.8</ele>
        <time>2019-01-07T10:07:45Z</time>
      </trkpt>
      <trkpt lat="42.48054" lon="2.15875">
        <ele>1882</ele>
        <time>2019-01-07T10:07:48Z</time>
      </trkpt>
      <trkpt lat="42.48058" lon="2.15867">
        <ele>1879.1</ele>
        <time>2019-01-07T10:07:50Z</time>
      </trkpt>
      <trkpt lat="42.48064" lon="2.15862">
        <ele>1876.1</ele>
        <time>2019-01-07T10:07:52Z</time>
      </trkpt>
      <trkpt lat="42.48073" lon="2.15852">
        <ele>1875.7</ele>
        <time>2019-01-07T10:07:55Z</time>
      </trkpt>
      <trkpt lat="42.48081" lon="2.15843">
        <ele>1874.2</ele>
        <time>2019-01-07T10:07:58Z</time>
      </trkpt>
      <trkpt lat="42.48092" lon="2.1583">
        <ele>1874.3</ele>
        <time>2019-01-07T10:08:02Z</time>
      </trkpt>
      <trkpt lat="42.48101" lon="2.1582">
        <ele>1874.2</ele>
        <time>2019-01-07T10:08:05Z</time>
      </trkpt>
      <trkpt lat="42.48106" lon="2.15815">
        <ele>1874.8</ele>
        <time>2019-01-07T10:08:06Z</time>
      </trkpt>
      <trkpt lat="42.48114" lon="2.15808">
        <ele>1877.2</ele>
        <time>2019-01-07T10:08:09Z</time>
      </trkpt>
      <trkpt lat="42.48123" lon="2.15797">
        <ele>1875.2</ele>
        <time>2019-01-07T10:08:12Z</time>
      </trkpt>
      <trkpt lat="42.48132" lon="2.1579">
        <ele>1874.2</ele>
        <time>2019-01-07T10:08:15Z</time>
      </trkpt>
      <trkpt lat="42.48143" lon="2.15778">
        <ele>1876.6</ele>
        <time>2019-01-07T10:08:19Z</time>
      </trkpt>
      <trkpt lat="42.48151" lon="2.15769">
        <ele>1877.1</ele>
        <time>2019-01-07T10:08:22Z</time>
      </trkpt>
      <trkpt lat="42.48158" lon="2.15758">
        <ele>1878.6</ele>
        <time>2019-01-07T10:08:25Z</time>
      </trkpt>
      <trkpt lat="42.48167" lon="2.15745">
        <ele>1881.1</ele>
        <time>2019-01-07T10:08:28Z</time>
      </trkpt>
      <trkpt lat="42.48168" lon="2.15743">
        <ele>1881.5</ele>
        <time>2019-01-07T10:08:28Z</time>
      </trkpt>
      <trkpt lat="42.48176" lon="2.1573">
        <ele>1877.6</ele>
        <time>2019-01-07T10:08:32Z</time>
      </trkpt>
      <trkpt lat="42.48184" lon="2.15717">
        <ele>1878.2</ele>
        <time>2019-01-07T10:08:35Z</time>
      </trkpt>
      <trkpt lat="42.48192" lon="2.15706">
        <ele>1875.2</ele>
        <time>2019-01-07T10:08:38Z</time>
      </trkpt>
      <trkpt lat="42.48201" lon="2.15687">
        <ele>1875.2</ele>
        <time>2019-01-07T10:08:43Z</time>
      </trkpt>
      <trkpt lat="42.48204" lon="2.15679">
        <ele>1874.2</ele>
        <time>2019-01-07T10:08:44Z</time>
      </trkpt>
      <trkpt lat="42.48206" lon="2.15678">
        <ele>1874.7</ele>
        <time>2019-01-07T10:08:45Z</time>
      </trkpt>
      <trkpt lat="42.48216" lon="2.15672">
        <ele>1877.1</ele>
        <time>2019-01-07T10:08:48Z</time>
      </trkpt>
      <trkpt lat="42.48221" lon="2.1567">
        <ele>1877.2</ele>
        <time>2019-01-07T10:08:49Z</time>
      </trkpt>
      <trkpt lat="42.48224" lon="2.15668">
        <ele>1876.7</ele>
        <time>2019-01-07T10:08:50Z</time>
      </trkpt>
      <trkpt lat="42.4823" lon="2.15664">
        <ele>1877.2</ele>
        <time>2019-01-07T10:08:52Z</time>
      </trkpt>
      <trkpt lat="42.48231" lon="2.15662">
        <ele>1877.2</ele>
        <time>2019-01-07T10:08:52Z</time>
      </trkpt>
      <trkpt lat="42.48239" lon="2.15656">
        <ele>1878.2</ele>
        <time>2019-01-07T10:08:55Z</time>
      </trkpt>
      <trkpt lat="42.48245" lon="2.15651">
        <ele>1874.7</ele>
        <time>2019-01-07T10:08:57Z</time>
      </trkpt>
      <trkpt lat="42.4825" lon="2.15646">
        <ele>1875.7</ele>
        <time>2019-01-07T10:08:58Z</time>
      </trkpt>
      <trkpt lat="42.48253" lon="2.15645">
        <ele>1875.3</ele>
        <time>2019-01-07T10:08:59Z</time>
      </trkpt>
      <trkpt lat="42.48261" lon="2.1564">
        <ele>1876.1</ele>
        <time>2019-01-07T10:09:01Z</time>
      </trkpt>
      <trkpt lat="42.48266" lon="2.15634">
        <ele>1876.6</ele>
        <time>2019-01-07T10:09:03Z</time>
      </trkpt>
      <trkpt lat="42.48275" lon="2.15632">
        <ele>1875.7</ele>
        <time>2019-01-07T10:09:06Z</time>
      </trkpt>
      <trkpt lat="42.48282" lon="2.1563">
        <ele>1873.3</ele>
        <time>2019-01-07T10:09:08Z</time>
      </trkpt>
      <trkpt lat="42.48283" lon="2.15629">
        <ele>1873.9</ele>
        <time>2019-01-07T10:09:08Z</time>
      </trkpt>
      <trkpt lat="42.48293" lon="2.15621">
        <ele>1869</ele>
        <time>2019-01-07T10:09:11Z</time>
      </trkpt>
      <trkpt lat="42.48298" lon="2.15618">
        <ele>1867.6</ele>
        <time>2019-01-07T10:09:13Z</time>
      </trkpt>
      <trkpt lat="42.48301" lon="2.15616">
        <ele>1867</ele>
        <time>2019-01-07T10:09:13Z</time>
      </trkpt>
      <trkpt lat="42.48306" lon="2.15613">
        <ele>1868.6</ele>
        <time>2019-01-07T10:09:15Z</time>
      </trkpt>
      <trkpt lat="42.48312" lon="2.15608">
        <ele>1866.6</ele>
        <time>2019-01-07T10:09:17Z</time>
      </trkpt>
      <trkpt lat="42.48314" lon="2.15604">
        <ele>1867</ele>
        <time>2019-01-07T10:09:18Z</time>
      </trkpt>
      <trkpt lat="42.48313" lon="2.15595">
        <ele>1867</ele>
        <time>2019-01-07T10:09:19Z</time>
      </trkpt>
      <trkpt lat="42.4831" lon="2.15584">
        <ele>1869.4</ele>
        <time>2019-01-07T10:09:22Z</time>
      </trkpt>
      <trkpt lat="42.4831" lon="2.15581">
        <ele>1869.9</ele>
        <time>2019-01-07T10:09:22Z</time>
      </trkpt>
      <trkpt lat="42.48309" lon="2.15569">
        <ele>1869.9</ele>
        <time>2019-01-07T10:09:25Z</time>
      </trkpt>
      <trkpt lat="42.48311" lon="2.15564">
        <ele>1866.5</ele>
        <time>2019-01-07T10:09:26Z</time>
      </trkpt>
      <trkpt lat="42.48312" lon="2.15558">
        <ele>1859.4</ele>
        <time>2019-01-07T10:09:27Z</time>
      </trkpt>
      <trkpt lat="42.48312" lon="2.15549">
        <ele>1858.5</ele>
        <time>2019-01-07T10:09:29Z</time>
      </trkpt>
      <trkpt lat="42.48313" lon="2.15541">
        <ele>1856.1</ele>
        <time>2019-01-07T10:09:30Z</time>
      </trkpt>
      <trkpt lat="42.48312" lon="2.15536">
        <ele>1855.1</ele>
        <time>2019-01-07T10:09:31Z</time>
      </trkpt>
      <trkpt lat="42.48313" lon="2.15527">
        <ele>1853.1</ele>
        <time>2019-01-07T10:09:33Z</time>
      </trkpt>
      <trkpt lat="42.48312" lon="2.1552">
        <ele>1849.3</ele>
        <time>2019-01-07T10:09:34Z</time>
      </trkpt>
      <trkpt lat="42.48314" lon="2.15512">
        <ele>1845.9</ele>
        <time>2019-01-07T10:09:36Z</time>
      </trkpt>
      <trkpt lat="42.48319" lon="2.15504">
        <ele>1844.4</ele>
        <time>2019-01-07T10:09:38Z</time>
      </trkpt>
      <trkpt lat="42.48323" lon="2.15498">
        <ele>1845.4</ele>
        <time>2019-01-07T10:09:40Z</time>
      </trkpt>
      <trkpt lat="42.48326" lon="2.15494">
        <ele>1844.4</ele>
        <time>2019-01-07T10:09:41Z</time>
      </trkpt>
      <trkpt lat="42.48328" lon="2.15487">
        <ele>1843.1</ele>
        <time>2019-01-07T10:09:42Z</time>
      </trkpt>
      <trkpt lat="42.48329" lon="2.15482">
        <ele>1842.1</ele>
        <time>2019-01-07T10:09:44Z</time>
      </trkpt>
      <trkpt lat="42.48334" lon="2.1547">
        <ele>1839.6</ele>
        <time>2019-01-07T10:09:46Z</time>
      </trkpt>
      <trkpt lat="42.48336" lon="2.15462">
        <ele>1839.1</ele>
        <time>2019-01-07T10:09:48Z</time>
      </trkpt>
      <trkpt lat="42.48339" lon="2.15452">
        <ele>1840.1</ele>
        <time>2019-01-07T10:09:50Z</time>
      </trkpt>
      <trkpt lat="42.48341" lon="2.15447">
        <ele>1839.6</ele>
        <time>2019-01-07T10:09:51Z</time>
      </trkpt>
      <trkpt lat="42.48344" lon="2.15441">
        <ele>1839.6</ele>
        <time>2019-01-07T10:09:53Z</time>
      </trkpt>
      <trkpt lat="42.4835" lon="2.15434">
        <ele>1840.1</ele>
        <time>2019-01-07T10:09:55Z</time>
      </trkpt>
      <trkpt lat="42.48353" lon="2.15427">
        <ele>1840.6</ele>
        <time>2019-01-07T10:09:56Z</time>
      </trkpt>
      <trkpt lat="42.48354" lon="2.15425">
        <ele>1840.7</ele>
        <time>2019-01-07T10:09:57Z</time>
      </trkpt>
      <trkpt lat="42.48358" lon="2.15416">
        <ele>1840.7</ele>
        <time>2019-01-07T10:09:59Z</time>
      </trkpt>
      <trkpt lat="42.48365" lon="2.154">
        <ele>1838.2</ele>
        <time>2019-01-07T10:10:03Z</time>
      </trkpt>
      <trkpt lat="42.4837" lon="2.15393">
        <ele>1837.2</ele>
        <time>2019-01-07T10:10:04Z</time>
      </trkpt>
      <trkpt lat="42.4838" lon="2.15381">
        <ele>1838.3</ele>
        <time>2019-01-07T10:10:08Z</time>
      </trkpt>
      <trkpt lat="42.48384" lon="2.15377">
        <ele>1836.8</ele>
        <time>2019-01-07T10:10:09Z</time>
      </trkpt>
      <trkpt lat="42.48385" lon="2.15374">
        <ele>1834.8</ele>
        <time>2019-01-07T10:10:10Z</time>
      </trkpt>
      <trkpt lat="42.48393" lon="2.15365">
        <ele>1830.1</ele>
        <time>2019-01-07T10:10:13Z</time>
      </trkpt>
      <trkpt lat="42.484" lon="2.15356">
        <ele>1824.7</ele>
        <time>2019-01-07T10:10:15Z</time>
      </trkpt>
      <trkpt lat="42.4841" lon="2.15347">
        <ele>1828.1</ele>
        <time>2019-01-07T10:10:19Z</time>
      </trkpt>
      <trkpt lat="42.48416" lon="2.15342">
        <ele>1828.1</ele>
        <time>2019-01-07T10:10:20Z</time>
      </trkpt>
      <trkpt lat="42.48413" lon="2.1534">
        <ele>1822.3</ele>
        <time>2019-01-07T10:10:21Z</time>
      </trkpt>
      <trkpt lat="42.48407" lon="2.15337">
        <ele>1816.1</ele>
        <time>2019-01-07T10:10:23Z</time>
      </trkpt>
      <trkpt lat="42.48407" lon="2.15337">
        <ele>1816.1</ele>
        <time>2019-01-07T10:10:23Z</time>
      </trkpt>
      <trkpt lat="42.48414" lon="2.15341">
        <ele>1831.5</ele>
        <time>2019-01-07T10:10:25Z</time>
      </trkpt>
      <trkpt lat="42.48419" lon="2.15335">
        <ele>1832.5</ele>
        <time>2019-01-07T10:10:27Z</time>
      </trkpt>
      <trkpt lat="42.48426" lon="2.15326">
        <ele>1830.5</ele>
        <time>2019-01-07T10:10:29Z</time>
      </trkpt>
      <trkpt lat="42.4843" lon="2.15316">
        <ele>1826.7</ele>
        <time>2019-01-07T10:10:32Z</time>
      </trkpt>
      <trkpt lat="42.48435" lon="2.1531">
        <ele>1825.8</ele>
        <time>2019-01-07T10:10:33Z</time>
      </trkpt>
      <trkpt lat="42.48439" lon="2.15304">
        <ele>1826.1</ele>
        <time>2019-01-07T10:10:35Z</time>
      </trkpt>
      <trkpt lat="42.48449" lon="2.15293">
        <ele>1826.1</ele>
        <time>2019-01-07T10:10:38Z</time>
      </trkpt>
      <trkpt lat="42.48452" lon="2.15288">
        <ele>1823.8</ele>
        <time>2019-01-07T10:10:40Z</time>
      </trkpt>
      <trkpt lat="42.48455" lon="2.15284">
        <ele>1821</ele>
        <time>2019-01-07T10:10:41Z</time>
      </trkpt>
      <trkpt lat="42.48454" lon="2.15278">
        <ele>1814.7</ele>
        <time>2019-01-07T10:10:42Z</time>
      </trkpt>
      <trkpt lat="42.48454" lon="2.15272">
        <ele>1810.4</ele>
        <time>2019-01-07T10:10:43Z</time>
      </trkpt>
      <trkpt lat="42.48455" lon="2.1527">
        <ele>1807.9</ele>
        <time>2019-01-07T10:10:44Z</time>
      </trkpt>
      <trkpt lat="42.48462" lon="2.15265">
        <ele>1809.5</ele>
        <time>2019-01-07T10:10:46Z</time>
      </trkpt>
      <trkpt lat="42.48465" lon="2.15259">
        <ele>1809</ele>
        <time>2019-01-07T10:10:47Z</time>
      </trkpt>
      <trkpt lat="42.48473" lon="2.15257">
        <ele>1813.2</ele>
        <time>2019-01-07T10:10:49Z</time>
      </trkpt>
      <trkpt lat="42.48474" lon="2.15256">
        <ele>1814.1</ele>
        <time>2019-01-07T10:10:50Z</time>
      </trkpt>
      <trkpt lat="42.4848" lon="2.1525">
        <ele>1815.7</ele>
        <time>2019-01-07T10:10:51Z</time>
      </trkpt>
      <trkpt lat="42.48481" lon="2.15245">
        <ele>1815.6</ele>
        <time>2019-01-07T10:10:53Z</time>
      </trkpt>
      <trkpt lat="42.48486" lon="2.1524">
        <ele>1815.1</ele>
        <time>2019-01-07T10:10:54Z</time>
      </trkpt>
      <trkpt lat="42.48484" lon="2.1523">
        <ele>1809.5</ele>
        <time>2019-01-07T10:10:56Z</time>
      </trkpt>
      <trkpt lat="42.48489" lon="2.15224">
        <ele>1809</ele>
        <time>2019-01-07T10:10:58Z</time>
      </trkpt>
      <trkpt lat="42.48494" lon="2.15216">
        <ele>1809.4</ele>
        <time>2019-01-07T10:11:00Z</time>
      </trkpt>
      <trkpt lat="42.48499" lon="2.15209">
        <ele>1811.3</ele>
        <time>2019-01-07T10:11:02Z</time>
      </trkpt>
      <trkpt lat="42.48502" lon="2.15207">
        <ele>1811.4</ele>
        <time>2019-01-07T10:11:03Z</time>
      </trkpt>
      <trkpt lat="42.48505" lon="2.15204">
        <ele>1812.7</ele>
        <time>2019-01-07T10:11:04Z</time>
      </trkpt>
      <trkpt lat="42.48507" lon="2.15194">
        <ele>1813.2</ele>
        <time>2019-01-07T10:11:06Z</time>
      </trkpt>
      <trkpt lat="42.48511" lon="2.15181">
        <ele>1810.8</ele>
        <time>2019-01-07T10:11:09Z</time>
      </trkpt>
      <trkpt lat="42.48514" lon="2.15176">
        <ele>1811.4</ele>
        <time>2019-01-07T10:11:10Z</time>
      </trkpt>
      <trkpt lat="42.48516" lon="2.15173">
        <ele>1811.7</ele>
        <time>2019-01-07T10:11:11Z</time>
      </trkpt>
      <trkpt lat="42.48519" lon="2.15164">
        <ele>1811.7</ele>
        <time>2019-01-07T10:11:13Z</time>
      </trkpt>
      <trkpt lat="42.4852" lon="2.15154">
        <ele>1808.9</ele>
        <time>2019-01-07T10:11:15Z</time>
      </trkpt>
      <trkpt lat="42.4852" lon="2.15143">
        <ele>1806.5</ele>
        <time>2019-01-07T10:11:17Z</time>
      </trkpt>
      <trkpt lat="42.48521" lon="2.1513">
        <ele>1805.5</ele>
        <time>2019-01-07T10:11:19Z</time>
      </trkpt>
      <trkpt lat="42.4852" lon="2.15126">
        <ele>1803.2</ele>
        <time>2019-01-07T10:11:20Z</time>
      </trkpt>
      <trkpt lat="42.48522" lon="2.15118">
        <ele>1801.7</ele>
        <time>2019-01-07T10:11:22Z</time>
      </trkpt>
      <trkpt lat="42.48526" lon="2.15111">
        <ele>1799.3</ele>
        <time>2019-01-07T10:11:24Z</time>
      </trkpt>
      <trkpt lat="42.48528" lon="2.15107">
        <ele>1798.8</ele>
        <time>2019-01-07T10:11:25Z</time>
      </trkpt>
      <trkpt lat="42.48531" lon="2.15097">
        <ele>1799.7</ele>
        <time>2019-01-07T10:11:27Z</time>
      </trkpt>
      <trkpt lat="42.48534" lon="2.15089">
        <ele>1797.9</ele>
        <time>2019-01-07T10:11:28Z</time>
      </trkpt>
      <trkpt lat="42.48536" lon="2.15083">
        <ele>1794</ele>
        <time>2019-01-07T10:11:30Z</time>
      </trkpt>
      <trkpt lat="42.48539" lon="2.15076">
        <ele>1791.6</ele>
        <time>2019-01-07T10:11:31Z</time>
      </trkpt>
      <trkpt lat="42.48539" lon="2.1507">
        <ele>1788.7</ele>
        <time>2019-01-07T10:11:32Z</time>
      </trkpt>
      <trkpt lat="42.48541" lon="2.15063">
        <ele>1788.2</ele>
        <time>2019-01-07T10:11:34Z</time>
      </trkpt>
      <trkpt lat="42.48539" lon="2.15056">
        <ele>1785.4</ele>
        <time>2019-01-07T10:11:35Z</time>
      </trkpt>
      <trkpt lat="42.48541" lon="2.15049">
        <ele>1782.5</ele>
        <time>2019-01-07T10:11:37Z</time>
      </trkpt>
      <trkpt lat="42.48541" lon="2.15044">
        <ele>1781</ele>
        <time>2019-01-07T10:11:38Z</time>
      </trkpt>
      <trkpt lat="42.48542" lon="2.15039">
        <ele>1778.7</ele>
        <time>2019-01-07T10:11:39Z</time>
      </trkpt>
      <trkpt lat="42.48539" lon="2.15033">
        <ele>1776.3</ele>
        <time>2019-01-07T10:11:40Z</time>
      </trkpt>
      <trkpt lat="42.48539" lon="2.15033">
        <ele>1773.3</ele>
        <time>2019-01-07T10:11:40Z</time>
      </trkpt>
      <trkpt lat="42.48539" lon="2.15033">
        <ele>1773.4</ele>
        <time>2019-01-07T10:11:40Z</time>
      </trkpt>
      <trkpt lat="42.48543" lon="2.15028">
        <ele>1772.3</ele>
        <time>2019-01-07T10:11:42Z</time>
      </trkpt>
      <trkpt lat="42.48547" lon="2.15022">
        <ele>1773.3</ele>
        <time>2019-01-07T10:11:44Z</time>
      </trkpt>
      <trkpt lat="42.48547" lon="2.1502">
        <ele>1773.8</ele>
        <time>2019-01-07T10:11:44Z</time>
      </trkpt>
      <trkpt lat="42.48554" lon="2.15011">
        <ele>1774.8</ele>
        <time>2019-01-07T10:11:46Z</time>
      </trkpt>
      <trkpt lat="42.48556" lon="2.15005">
        <ele>1775.3</ele>
        <time>2019-01-07T10:11:48Z</time>
      </trkpt>
      <trkpt lat="42.48557" lon="2.15004">
        <ele>1774.7</ele>
        <time>2019-01-07T10:11:48Z</time>
      </trkpt>
      <trkpt lat="42.48559" lon="2.14998">
        <ele>1776.3</ele>
        <time>2019-01-07T10:11:49Z</time>
      </trkpt>
      <trkpt lat="42.4856" lon="2.14993">
        <ele>1775.8</ele>
        <time>2019-01-07T10:11:50Z</time>
      </trkpt>
      <trkpt lat="42.48564" lon="2.1499">
        <ele>1774.7</ele>
        <time>2019-01-07T10:11:52Z</time>
      </trkpt>
      <trkpt lat="42.48565" lon="2.14989">
        <ele>1773.3</ele>
        <time>2019-01-07T10:11:52Z</time>
      </trkpt>
      <trkpt lat="42.48565" lon="2.14978">
        <ele>1770</ele>
        <time>2019-01-07T10:11:54Z</time>
      </trkpt>
      <trkpt lat="42.48567" lon="2.14977">
        <ele>1768.5</ele>
        <time>2019-01-07T10:11:54Z</time>
      </trkpt>
      <trkpt lat="42.48574" lon="2.14969">
        <ele>1765.1</ele>
        <time>2019-01-07T10:11:57Z</time>
      </trkpt>
      <trkpt lat="42.48578" lon="2.14962">
        <ele>1763.8</ele>
        <time>2019-01-07T10:11:59Z</time>
      </trkpt>
      <trkpt lat="42.48581" lon="2.14955">
        <ele>1763.7</ele>
        <time>2019-01-07T10:12:00Z</time>
      </trkpt>
      <trkpt lat="42.48584" lon="2.14953">
        <ele>1763.3</ele>
        <time>2019-01-07T10:12:01Z</time>
      </trkpt>
      <trkpt lat="42.48589" lon="2.14949">
        <ele>1764.2</ele>
        <time>2019-01-07T10:12:03Z</time>
      </trkpt>
      <trkpt lat="42.4859" lon="2.14947">
        <ele>1763.3</ele>
        <time>2019-01-07T10:12:03Z</time>
      </trkpt>
      <trkpt lat="42.48595" lon="2.14942">
        <ele>1759.9</ele>
        <time>2019-01-07T10:12:05Z</time>
      </trkpt>
      <trkpt lat="42.486" lon="2.14939">
        <ele>1760.4</ele>
        <time>2019-01-07T10:12:06Z</time>
      </trkpt>
      <trkpt lat="42.48603" lon="2.14931">
        <ele>1759.9</ele>
        <time>2019-01-07T10:12:08Z</time>
      </trkpt>
      <trkpt lat="42.48606" lon="2.14928">
        <ele>1759.4</ele>
        <time>2019-01-07T10:12:09Z</time>
      </trkpt>
      <trkpt lat="42.48612" lon="2.14925">
        <ele>1758.4</ele>
        <time>2019-01-07T10:12:11Z</time>
      </trkpt>
      <trkpt lat="42.48615" lon="2.14925">
        <ele>1758.4</ele>
        <time>2019-01-07T10:12:11Z</time>
      </trkpt>
      <trkpt lat="42.48616" lon="2.14925">
        <ele>1757.9</ele>
        <time>2019-01-07T10:12:12Z</time>
      </trkpt>
      <trkpt lat="42.4862" lon="2.14923">
        <ele>1757</ele>
        <time>2019-01-07T10:12:13Z</time>
      </trkpt>
      <trkpt lat="42.48627" lon="2.1492">
        <ele>1755.6</ele>
        <time>2019-01-07T10:12:15Z</time>
      </trkpt>
      <trkpt lat="42.48635" lon="2.14918">
        <ele>1753.7</ele>
        <time>2019-01-07T10:12:17Z</time>
      </trkpt>
      <trkpt lat="42.48642" lon="2.14915">
        <ele>1752.7</ele>
        <time>2019-01-07T10:12:19Z</time>
      </trkpt>
      <trkpt lat="42.4865" lon="2.14909">
        <ele>1747.4</ele>
        <time>2019-01-07T10:12:21Z</time>
      </trkpt>
      <trkpt lat="42.48653" lon="2.14907">
        <ele>1745.5</ele>
        <time>2019-01-07T10:12:22Z</time>
      </trkpt>
      <trkpt lat="42.48655" lon="2.14905">
        <ele>1744.1</ele>
        <time>2019-01-07T10:12:23Z</time>
      </trkpt>
      <trkpt lat="42.48664" lon="2.14899">
        <ele>1744.9</ele>
        <time>2019-01-07T10:12:26Z</time>
      </trkpt>
      <trkpt lat="42.48668" lon="2.14896">
        <ele>1745.9</ele>
        <time>2019-01-07T10:12:27Z</time>
      </trkpt>
      <trkpt lat="42.48676" lon="2.1489">
        <ele>1746.8</ele>
        <time>2019-01-07T10:12:29Z</time>
      </trkpt>
      <trkpt lat="42.48677" lon="2.14888">
        <ele>1747.3</ele>
        <time>2019-01-07T10:12:30Z</time>
      </trkpt>
      <trkpt lat="42.48689" lon="2.14879">
        <ele>1752.6</ele>
        <time>2019-01-07T10:12:33Z</time>
      </trkpt>
      <trkpt lat="42.48695" lon="2.14872">
        <ele>1754.1</ele>
        <time>2019-01-07T10:12:36Z</time>
      </trkpt>
      <trkpt lat="42.48696" lon="2.1487">
        <ele>1753.2</ele>
        <time>2019-01-07T10:12:36Z</time>
      </trkpt>
      <trkpt lat="42.48701" lon="2.14866">
        <ele>1752.6</ele>
        <time>2019-01-07T10:12:38Z</time>
      </trkpt>
      <trkpt lat="42.48705" lon="2.14859">
        <ele>1751.8</ele>
        <time>2019-01-07T10:12:40Z</time>
      </trkpt>
      <trkpt lat="42.48714" lon="2.14849">
        <ele>1749.3</ele>
        <time>2019-01-07T10:12:42Z</time>
      </trkpt>
      <trkpt lat="42.4872" lon="2.14843">
        <ele>1746.9</ele>
        <time>2019-01-07T10:12:45Z</time>
      </trkpt>
      <trkpt lat="42.48727" lon="2.14841">
        <ele>1744.1</ele>
        <time>2019-01-07T10:12:46Z</time>
      </trkpt>
      <trkpt lat="42.48732" lon="2.14838">
        <ele>1741.1</ele>
        <time>2019-01-07T10:12:48Z</time>
      </trkpt>
      <trkpt lat="42.48738" lon="2.14837">
        <ele>1739.2</ele>
        <time>2019-01-07T10:12:50Z</time>
      </trkpt>
      <trkpt lat="42.48742" lon="2.14834">
        <ele>1737.7</ele>
        <time>2019-01-07T10:12:51Z</time>
      </trkpt>
      <trkpt lat="42.4875" lon="2.14831">
        <ele>1738.2</ele>
        <time>2019-01-07T10:12:53Z</time>
      </trkpt>
      <trkpt lat="42.4875" lon="2.14831">
        <ele>1737.8</ele>
        <time>2019-01-07T10:12:53Z</time>
      </trkpt>
      <trkpt lat="42.48758" lon="2.14826">
        <ele>1735.3</ele>
        <time>2019-01-07T10:12:55Z</time>
      </trkpt>
      <trkpt lat="42.4876" lon="2.14825">
        <ele>1734.8</ele>
        <time>2019-01-07T10:12:56Z</time>
      </trkpt>
      <trkpt lat="42.48763" lon="2.14824">
        <ele>1734.9</ele>
        <time>2019-01-07T10:12:57Z</time>
      </trkpt>
      <trkpt lat="42.48771" lon="2.14821">
        <ele>1735.9</ele>
        <time>2019-01-07T10:12:59Z</time>
      </trkpt>
      <trkpt lat="42.48772" lon="2.14817">
        <ele>1735.8</ele>
        <time>2019-01-07T10:13:00Z</time>
      </trkpt>
      <trkpt lat="42.48773" lon="2.14816">
        <ele>1735.4</ele>
        <time>2019-01-07T10:13:00Z</time>
      </trkpt>
      <trkpt lat="42.4878" lon="2.14804">
        <ele>1735.3</ele>
        <time>2019-01-07T10:13:03Z</time>
      </trkpt>
      <trkpt lat="42.4878" lon="2.14803">
        <ele>1735.3</ele>
        <time>2019-01-07T10:13:03Z</time>
      </trkpt>
      <trkpt lat="42.48781" lon="2.14794">
        <ele>1734.8</ele>
        <time>2019-01-07T10:13:05Z</time>
      </trkpt>
      <trkpt lat="42.48786" lon="2.14784">
        <ele>1734.8</ele>
        <time>2019-01-07T10:13:08Z</time>
      </trkpt>
      <trkpt lat="42.48785" lon="2.14775">
        <ele>1736.4</ele>
        <time>2019-01-07T10:13:09Z</time>
      </trkpt>
      <trkpt lat="42.48784" lon="2.14767">
        <ele>1736.9</ele>
        <time>2019-01-07T10:13:11Z</time>
      </trkpt>
      <trkpt lat="42.48786" lon="2.14763">
        <ele>1735.9</ele>
        <time>2019-01-07T10:13:12Z</time>
      </trkpt>
      <trkpt lat="42.48787" lon="2.14756">
        <ele>1734.8</ele>
        <time>2019-01-07T10:13:13Z</time>
      </trkpt>
      <trkpt lat="42.48785" lon="2.14747">
        <ele>1732</ele>
        <time>2019-01-07T10:13:15Z</time>
      </trkpt>
      <trkpt lat="42.48786" lon="2.1474">
        <ele>1730</ele>
        <time>2019-01-07T10:13:16Z</time>
      </trkpt>
      <trkpt lat="42.48787" lon="2.14731">
        <ele>1729.6</ele>
        <time>2019-01-07T10:13:18Z</time>
      </trkpt>
      <trkpt lat="42.48785" lon="2.14722">
        <ele>1727.1</ele>
        <time>2019-01-07T10:13:20Z</time>
      </trkpt>
      <trkpt lat="42.48784" lon="2.14721">
        <ele>1726.2</ele>
        <time>2019-01-07T10:13:20Z</time>
      </trkpt>
      <trkpt lat="42.48786" lon="2.14714">
        <ele>1722.4</ele>
        <time>2019-01-07T10:13:22Z</time>
      </trkpt>
      <trkpt lat="42.48788" lon="2.14708">
        <ele>1721.8</ele>
        <time>2019-01-07T10:13:23Z</time>
      </trkpt>
      <trkpt lat="42.48791" lon="2.14701">
        <ele>1722.9</ele>
        <time>2019-01-07T10:13:24Z</time>
      </trkpt>
      <trkpt lat="42.48793" lon="2.14699">
        <ele>1724.8</ele>
        <time>2019-01-07T10:13:25Z</time>
      </trkpt>
      <trkpt lat="42.48796" lon="2.14701">
        <ele>1724.4</ele>
        <time>2019-01-07T10:13:26Z</time>
      </trkpt>
      <trkpt lat="42.488" lon="2.14705">
        <ele>1722.3</ele>
        <time>2019-01-07T10:13:28Z</time>
      </trkpt>
      <trkpt lat="42.48806" lon="2.14712">
        <ele>1717.1</ele>
        <time>2019-01-07T10:13:29Z</time>
      </trkpt>
      <trkpt lat="42.48813" lon="2.14719">
        <ele>1713.3</ele>
        <time>2019-01-07T10:13:32Z</time>
      </trkpt>
      <trkpt lat="42.48821" lon="2.14724">
        <ele>1711.4</ele>
        <time>2019-01-07T10:13:34Z</time>
      </trkpt>
      <trkpt lat="42.48829" lon="2.14731">
        <ele>1710.8</ele>
        <time>2019-01-07T10:13:37Z</time>
      </trkpt>
      <trkpt lat="42.48833" lon="2.14735">
        <ele>1712.2</ele>
        <time>2019-01-07T10:13:38Z</time>
      </trkpt>
      <trkpt lat="42.4884" lon="2.14743">
        <ele>1711.9</ele>
        <time>2019-01-07T10:13:40Z</time>
      </trkpt>
      <trkpt lat="42.48846" lon="2.14749">
        <ele>1709</ele>
        <time>2019-01-07T10:13:43Z</time>
      </trkpt>
      <trkpt lat="42.48854" lon="2.14754">
        <ele>1703.7</ele>
        <time>2019-01-07T10:13:45Z</time>
      </trkpt>
      <trkpt lat="42.4886" lon="2.1476">
        <ele>1700.8</ele>
        <time>2019-01-07T10:13:47Z</time>
      </trkpt>
      <trkpt lat="42.48864" lon="2.14763">
        <ele>1697.8</ele>
        <time>2019-01-07T10:13:48Z</time>
      </trkpt>
      <trkpt lat="42.4887" lon="2.14764">
        <ele>1694.5</ele>
        <time>2019-01-07T10:13:50Z</time>
      </trkpt>
      <trkpt lat="42.48877" lon="2.14764">
        <ele>1692.2</ele>
        <time>2019-01-07T10:13:52Z</time>
      </trkpt>
      <trkpt lat="42.48881" lon="2.14761">
        <ele>1691.2</ele>
        <time>2019-01-07T10:13:53Z</time>
      </trkpt>
      <trkpt lat="42.48885" lon="2.14758">
        <ele>1691.1</ele>
        <time>2019-01-07T10:13:54Z</time>
      </trkpt>
      <trkpt lat="42.48888" lon="2.14757">
        <ele>1692.5</ele>
        <time>2019-01-07T10:13:55Z</time>
      </trkpt>
      <trkpt lat="42.48894" lon="2.1475">
        <ele>1692.5</ele>
        <time>2019-01-07T10:13:57Z</time>
      </trkpt>
      <trkpt lat="42.48896" lon="2.14746">
        <ele>1691.2</ele>
        <time>2019-01-07T10:13:58Z</time>
      </trkpt>
      <trkpt lat="42.48898" lon="2.14742">
        <ele>1690.6</ele>
        <time>2019-01-07T10:13:59Z</time>
      </trkpt>
      <trkpt lat="42.489" lon="2.14737">
        <ele>1688.2</ele>
        <time>2019-01-07T10:14:00Z</time>
      </trkpt>
      <trkpt lat="42.48901" lon="2.14727">
        <ele>1685.9</ele>
        <time>2019-01-07T10:14:02Z</time>
      </trkpt>
      <trkpt lat="42.48903" lon="2.14724">
        <ele>1685.3</ele>
        <time>2019-01-07T10:14:03Z</time>
      </trkpt>
      <trkpt lat="42.48905" lon="2.14718">
        <ele>1684</ele>
        <time>2019-01-07T10:14:04Z</time>
      </trkpt>
      <trkpt lat="42.48906" lon="2.14716">
        <ele>1684</ele>
        <time>2019-01-07T10:14:05Z</time>
      </trkpt>
      <trkpt lat="42.48909" lon="2.14712">
        <ele>1682.5</ele>
        <time>2019-01-07T10:14:06Z</time>
      </trkpt>
      <trkpt lat="42.48909" lon="2.14709">
        <ele>1682.5</ele>
        <time>2019-01-07T10:14:06Z</time>
      </trkpt>
      <trkpt lat="42.48911" lon="2.14705">
        <ele>1683.4</ele>
        <time>2019-01-07T10:14:07Z</time>
      </trkpt>
      <trkpt lat="42.48916" lon="2.14695">
        <ele>1685.8</ele>
        <time>2019-01-07T10:14:09Z</time>
      </trkpt>
      <trkpt lat="42.48919" lon="2.14683">
        <ele>1684.5</ele>
        <time>2019-01-07T10:14:12Z</time>
      </trkpt>
      <trkpt lat="42.48919" lon="2.14678">
        <ele>1682.4</ele>
        <time>2019-01-07T10:14:13Z</time>
      </trkpt>
      <trkpt lat="42.4892" lon="2.1467">
        <ele>1680.1</ele>
        <time>2019-01-07T10:14:14Z</time>
      </trkpt>
      <trkpt lat="42.48922" lon="2.1466">
        <ele>1677.2</ele>
        <time>2019-01-07T10:14:17Z</time>
      </trkpt>
      <trkpt lat="42.48923" lon="2.14656">
        <ele>1677.3</ele>
        <time>2019-01-07T10:14:17Z</time>
      </trkpt>
      <trkpt lat="42.48923" lon="2.14647">
        <ele>1674.4</ele>
        <time>2019-01-07T10:14:19Z</time>
      </trkpt>
      <trkpt lat="42.48923" lon="2.14643">
        <ele>1673.4</ele>
        <time>2019-01-07T10:14:20Z</time>
      </trkpt>
      <trkpt lat="42.48923" lon="2.14642">
        <ele>1673.4</ele>
        <time>2019-01-07T10:14:20Z</time>
      </trkpt>
      <trkpt lat="42.48923" lon="2.14631">
        <ele>1673.8</ele>
        <time>2019-01-07T10:14:22Z</time>
      </trkpt>
      <trkpt lat="42.48925" lon="2.14623">
        <ele>1675.7</ele>
        <time>2019-01-07T10:14:24Z</time>
      </trkpt>
      <trkpt lat="42.48925" lon="2.1462">
        <ele>1674.8</ele>
        <time>2019-01-07T10:14:25Z</time>
      </trkpt>
      <trkpt lat="42.48925" lon="2.14619">
        <ele>1674.8</ele>
        <time>2019-01-07T10:14:25Z</time>
      </trkpt>
      <trkpt lat="42.48924" lon="2.14609">
        <ele>1674.4</ele>
        <time>2019-01-07T10:14:27Z</time>
      </trkpt>
      <trkpt lat="42.48924" lon="2.146">
        <ele>1671.4</ele>
        <time>2019-01-07T10:14:29Z</time>
      </trkpt>
      <trkpt lat="42.48924" lon="2.14592">
        <ele>1672.3</ele>
        <time>2019-01-07T10:14:30Z</time>
      </trkpt>
      <trkpt lat="42.48924" lon="2.14587">
        <ele>1670.9</ele>
        <time>2019-01-07T10:14:31Z</time>
      </trkpt>
      <trkpt lat="42.48926" lon="2.14577">
        <ele>1667.2</ele>
        <time>2019-01-07T10:14:33Z</time>
      </trkpt>
      <trkpt lat="42.48931" lon="2.14571">
        <ele>1659.4</ele>
        <time>2019-01-07T10:14:35Z</time>
      </trkpt>
      <trkpt lat="42.48933" lon="2.14568">
        <ele>1657.5</ele>
        <time>2019-01-07T10:14:36Z</time>
      </trkpt>
      <trkpt lat="42.48938" lon="2.14563">
        <ele>1655.5</ele>
        <time>2019-01-07T10:14:37Z</time>
      </trkpt>
      <trkpt lat="42.4894" lon="2.14561">
        <ele>1654.6</ele>
        <time>2019-01-07T10:14:38Z</time>
      </trkpt>
      <trkpt lat="42.48945" lon="2.14557">
        <ele>1651.7</ele>
        <time>2019-01-07T10:14:40Z</time>
      </trkpt>
      <trkpt lat="42.48951" lon="2.14553">
        <ele>1651.8</ele>
        <time>2019-01-07T10:14:41Z</time>
      </trkpt>
      <trkpt lat="42.48958" lon="2.14546">
        <ele>1652.2</ele>
        <time>2019-01-07T10:14:44Z</time>
      </trkpt>
      <trkpt lat="42.48962" lon="2.14543">
        <ele>1650.3</ele>
        <time>2019-01-07T10:14:45Z</time>
      </trkpt>
      <trkpt lat="42.48966" lon="2.14542">
        <ele>1647.8</ele>
        <time>2019-01-07T10:14:46Z</time>
      </trkpt>
      <trkpt lat="42.48972" lon="2.14539">
        <ele>1645.5</ele>
        <time>2019-01-07T10:14:48Z</time>
      </trkpt>
      <trkpt lat="42.48977" lon="2.14535">
        <ele>1645</ele>
        <time>2019-01-07T10:14:49Z</time>
      </trkpt>
      <trkpt lat="42.48983" lon="2.14533">
        <ele>1642.5</ele>
        <time>2019-01-07T10:14:51Z</time>
      </trkpt>
      <trkpt lat="42.48987" lon="2.14529">
        <ele>1640.7</ele>
        <time>2019-01-07T10:14:52Z</time>
      </trkpt>
      <trkpt lat="42.48994" lon="2.14523">
        <ele>1639.3</ele>
        <time>2019-01-07T10:14:54Z</time>
      </trkpt>
      <trkpt lat="42.48999" lon="2.14519">
        <ele>1638.2</ele>
        <time>2019-01-07T10:14:56Z</time>
      </trkpt>
      <trkpt lat="42.49009" lon="2.14513">
        <ele>1636.8</ele>
        <time>2019-01-07T10:14:59Z</time>
      </trkpt>
      <trkpt lat="42.49015" lon="2.1451">
        <ele>1635.9</ele>
        <time>2019-01-07T10:15:01Z</time>
      </trkpt>
      <trkpt lat="42.49017" lon="2.14508">
        <ele>1634.5</ele>
        <time>2019-01-07T10:15:01Z</time>
      </trkpt>
      <trkpt lat="42.49024" lon="2.14505">
        <ele>1632.1</ele>
        <time>2019-01-07T10:15:03Z</time>
      </trkpt>
      <trkpt lat="42.49032" lon="2.145">
        <ele>1630.6</ele>
        <time>2019-01-07T10:15:06Z</time>
      </trkpt>
      <trkpt lat="42.49035" lon="2.14495">
        <ele>1628.2</ele>
        <time>2019-01-07T10:15:07Z</time>
      </trkpt>
      <trkpt lat="42.49041" lon="2.14491">
        <ele>1623.9</ele>
        <time>2019-01-07T10:15:09Z</time>
      </trkpt>
      <trkpt lat="42.49042" lon="2.14491">
        <ele>1623.4</ele>
        <time>2019-01-07T10:15:09Z</time>
      </trkpt>
      <trkpt lat="42.49051" lon="2.14484">
        <ele>1622</ele>
        <time>2019-01-07T10:15:12Z</time>
      </trkpt>
      <trkpt lat="42.49056" lon="2.14479">
        <ele>1621</ele>
        <time>2019-01-07T10:15:13Z</time>
      </trkpt>
      <trkpt lat="42.49061" lon="2.14473">
        <ele>1619</ele>
        <time>2019-01-07T10:15:15Z</time>
      </trkpt>
      <trkpt lat="42.49067" lon="2.14466">
        <ele>1619</ele>
        <time>2019-01-07T10:15:17Z</time>
      </trkpt>
      <trkpt lat="42.49074" lon="2.14459">
        <ele>1619.6</ele>
        <time>2019-01-07T10:15:20Z</time>
      </trkpt>
      <trkpt lat="42.49074" lon="2.14457">
        <ele>1619</ele>
        <time>2019-01-07T10:15:20Z</time>
      </trkpt>
      <trkpt lat="42.49076" lon="2.14446">
        <ele>1616.6</ele>
        <time>2019-01-07T10:15:22Z</time>
      </trkpt>
      <trkpt lat="42.49079" lon="2.1444">
        <ele>1613.3</ele>
        <time>2019-01-07T10:15:24Z</time>
      </trkpt>
      <trkpt lat="42.49083" lon="2.1443">
        <ele>1611.9</ele>
        <time>2019-01-07T10:15:26Z</time>
      </trkpt>
      <trkpt lat="42.49084" lon="2.14422">
        <ele>1610.4</ele>
        <time>2019-01-07T10:15:27Z</time>
      </trkpt>
      <trkpt lat="42.49086" lon="2.14413">
        <ele>1610.3</ele>
        <time>2019-01-07T10:15:29Z</time>
      </trkpt>
      <trkpt lat="42.49085" lon="2.14407">
        <ele>1609.5</ele>
        <time>2019-01-07T10:15:31Z</time>
      </trkpt>
      <trkpt lat="42.49085" lon="2.14397">
        <ele>1607.9</ele>
        <time>2019-01-07T10:15:32Z</time>
      </trkpt>
      <trkpt lat="42.49088" lon="2.14388">
        <ele>1606</ele>
        <time>2019-01-07T10:15:34Z</time>
      </trkpt>
      <trkpt lat="42.49092" lon="2.14379">
        <ele>1604.6</ele>
        <time>2019-01-07T10:15:37Z</time>
      </trkpt>
      <trkpt lat="42.49096" lon="2.14382">
        <ele>1603.1</ele>
        <time>2019-01-07T10:15:38Z</time>
      </trkpt>
      <trkpt lat="42.49101" lon="2.14383">
        <ele>1601.8</ele>
        <time>2019-01-07T10:15:39Z</time>
      </trkpt>
      <trkpt lat="42.49101" lon="2.14381">
        <ele>1601.3</ele>
        <time>2019-01-07T10:15:39Z</time>
      </trkpt>
      <trkpt lat="42.49105" lon="2.14376">
        <ele>1599.8</ele>
        <time>2019-01-07T10:15:41Z</time>
      </trkpt>
      <trkpt lat="42.49109" lon="2.14379">
        <ele>1599.3</ele>
        <time>2019-01-07T10:15:42Z</time>
      </trkpt>
      <trkpt lat="42.4912" lon="2.14379">
        <ele>1597.4</ele>
        <time>2019-01-07T10:15:45Z</time>
      </trkpt>
      <trkpt lat="42.49133" lon="2.14376">
        <ele>1596</ele>
        <time>2019-01-07T10:15:48Z</time>
      </trkpt>
      <trkpt lat="42.49146" lon="2.14372">
        <ele>1593.6</ele>
        <time>2019-01-07T10:15:52Z</time>
      </trkpt>
      <trkpt lat="42.4916" lon="2.1437">
        <ele>1591.6</ele>
        <time>2019-01-07T10:15:56Z</time>
      </trkpt>
      <trkpt lat="42.49168" lon="2.14363">
        <ele>1589.2</ele>
        <time>2019-01-07T10:15:59Z</time>
      </trkpt>
      <trkpt lat="42.49168" lon="2.14349">
        <ele>1586.3</ele>
        <time>2019-01-07T10:16:01Z</time>
      </trkpt>
      <trkpt lat="42.49162" lon="2.1434">
        <ele>1582.6</ele>
        <time>2019-01-07T10:16:04Z</time>
      </trkpt>
      <trkpt lat="42.49154" lon="2.1433">
        <ele>1579.1</ele>
        <time>2019-01-07T10:16:06Z</time>
      </trkpt>
      <trkpt lat="42.4915" lon="2.14326">
        <ele>1576.7</ele>
        <time>2019-01-07T10:16:08Z</time>
      </trkpt>
      <trkpt lat="42.49151" lon="2.14325">
        <ele>1574.9</ele>
        <time>2019-01-07T10:16:08Z</time>
      </trkpt>
      <trkpt lat="42.49148" lon="2.14328">
        <ele>1571</ele>
        <time>2019-01-07T10:16:09Z</time>
      </trkpt>
      <trkpt lat="42.49147" lon="2.14325">
        <ele>1571</ele>
        <time>2019-01-07T10:16:10Z</time>
      </trkpt>
      <trkpt lat="42.49146" lon="2.14324">
        <ele>1570.1</ele>
        <time>2019-01-07T10:16:10Z</time>
      </trkpt>
      <trkpt lat="42.49141" lon="2.14316">
        <ele>1570</ele>
        <time>2019-01-07T10:16:12Z</time>
      </trkpt>
      <trkpt lat="42.49134" lon="2.14309">
        <ele>1567.6</ele>
        <time>2019-01-07T10:16:14Z</time>
      </trkpt>
      <trkpt lat="42.49131" lon="2.14305">
        <ele>1567.1</ele>
        <time>2019-01-07T10:16:15Z</time>
      </trkpt>
      <trkpt lat="42.49127" lon="2.14298">
        <ele>1565.6</ele>
        <time>2019-01-07T10:16:17Z</time>
      </trkpt>
      <trkpt lat="42.4912" lon="2.14289">
        <ele>1565.2</ele>
        <time>2019-01-07T10:16:20Z</time>
      </trkpt>
      <trkpt lat="42.49113" lon="2.14281">
        <ele>1563.8</ele>
        <time>2019-01-07T10:16:22Z</time>
      </trkpt>
      <trkpt lat="42.49108" lon="2.14273">
        <ele>1562.4</ele>
        <time>2019-01-07T10:16:24Z</time>
      </trkpt>
      <trkpt lat="42.49101" lon="2.1426">
        <ele>1562.4</ele>
        <time>2019-01-07T10:16:27Z</time>
      </trkpt>
      <trkpt lat="42.49098" lon="2.14253">
        <ele>1562.4</ele>
        <time>2019-01-07T10:16:29Z</time>
      </trkpt>
      <trkpt lat="42.49094" lon="2.14238">
        <ele>1561.3</ele>
        <time>2019-01-07T10:16:32Z</time>
      </trkpt>
      <trkpt lat="42.49089" lon="2.14225">
        <ele>1560.5</ele>
        <time>2019-01-07T10:16:35Z</time>
      </trkpt>
      <trkpt lat="42.49083" lon="2.14214">
        <ele>1559.5</ele>
        <time>2019-01-07T10:16:38Z</time>
      </trkpt>
      <trkpt lat="42.49079" lon="2.14206">
        <ele>1559.5</ele>
        <time>2019-01-07T10:16:40Z</time>
      </trkpt>
      <trkpt lat="42.49077" lon="2.14192">
        <ele>1558.9</ele>
        <time>2019-01-07T10:16:42Z</time>
      </trkpt>
      <trkpt lat="42.49077" lon="2.14181">
        <ele>1559.4</ele>
        <time>2019-01-07T10:16:45Z</time>
      </trkpt>
      <trkpt lat="42.49077" lon="2.14179">
        <ele>1559.5</ele>
        <time>2019-01-07T10:16:45Z</time>
      </trkpt>
      <trkpt lat="42.49076" lon="2.14172">
        <ele>1558.9</ele>
        <time>2019-01-07T10:16:47Z</time>
      </trkpt>
      <trkpt lat="42.49073" lon="2.14157">
        <ele>1558.1</ele>
        <time>2019-01-07T10:16:49Z</time>
      </trkpt>
      <trkpt lat="42.4907" lon="2.14145">
        <ele>1556.5</ele>
        <time>2019-01-07T10:16:52Z</time>
      </trkpt>
      <trkpt lat="42.49069" lon="2.14139">
        <ele>1555.5</ele>
        <time>2019-01-07T10:16:53Z</time>
      </trkpt>
      <trkpt lat="42.49067" lon="2.14127">
        <ele>1554.1</ele>
        <time>2019-01-07T10:16:56Z</time>
      </trkpt>
      <trkpt lat="42.49066" lon="2.14117">
        <ele>1553.2</ele>
        <time>2019-01-07T10:16:58Z</time>
      </trkpt>
      <trkpt lat="42.49067" lon="2.14114">
        <ele>1551.7</ele>
        <time>2019-01-07T10:16:58Z</time>
      </trkpt>
      <trkpt lat="42.49069" lon="2.14111">
        <ele>1550.8</ele>
        <time>2019-01-07T10:16:59Z</time>
      </trkpt>
      <trkpt lat="42.49072" lon="2.14112">
        <ele>1549.3</ele>
        <time>2019-01-07T10:17:00Z</time>
      </trkpt>
      <trkpt lat="42.49076" lon="2.14113">
        <ele>1548.8</ele>
        <time>2019-01-07T10:17:01Z</time>
      </trkpt>
      <trkpt lat="42.49084" lon="2.14113">
        <ele>1547.4</ele>
        <time>2019-01-07T10:17:03Z</time>
      </trkpt>
      <trkpt lat="42.49089" lon="2.14111">
        <ele>1548.9</ele>
        <time>2019-01-07T10:17:05Z</time>
      </trkpt>
      <trkpt lat="42.4909" lon="2.14111">
        <ele>1549.3</ele>
        <time>2019-01-07T10:17:05Z</time>
      </trkpt>
      <trkpt lat="42.49098" lon="2.14111">
        <ele>1549.3</ele>
        <time>2019-01-07T10:17:07Z</time>
      </trkpt>
      <trkpt lat="42.49104" lon="2.1411">
        <ele>1547.4</ele>
        <time>2019-01-07T10:17:08Z</time>
      </trkpt>
      <trkpt lat="42.4911" lon="2.14112">
        <ele>1545.6</ele>
        <time>2019-01-07T10:17:10Z</time>
      </trkpt>
      <trkpt lat="42.49111" lon="2.14113">
        <ele>1545.6</ele>
        <time>2019-01-07T10:17:10Z</time>
      </trkpt>
      <trkpt lat="42.49117" lon="2.14117">
        <ele>1543.6</ele>
        <time>2019-01-07T10:17:12Z</time>
      </trkpt>
      <trkpt lat="42.49119" lon="2.14119">
        <ele>1543.1</ele>
        <time>2019-01-07T10:17:13Z</time>
      </trkpt>
      <trkpt lat="42.49126" lon="2.14121">
        <ele>1543.5</ele>
        <time>2019-01-07T10:17:15Z</time>
      </trkpt>
      <trkpt lat="42.4913" lon="2.14122">
        <ele>1541.6</ele>
        <time>2019-01-07T10:17:16Z</time>
      </trkpt>
      <trkpt lat="42.49141" lon="2.14126">
        <ele>1536</ele>
        <time>2019-01-07T10:17:19Z</time>
      </trkpt>
      <trkpt lat="42.49143" lon="2.14124">
        <ele>1533</ele>
        <time>2019-01-07T10:17:20Z</time>
      </trkpt>
      <trkpt lat="42.49147" lon="2.14122">
        <ele>1531.5</ele>
        <time>2019-01-07T10:17:21Z</time>
      </trkpt>
      <trkpt lat="42.49154" lon="2.14116">
        <ele>1531.1</ele>
        <time>2019-01-07T10:17:23Z</time>
      </trkpt>
      <trkpt lat="42.49159" lon="2.14113">
        <ele>1530.7</ele>
        <time>2019-01-07T10:17:24Z</time>
      </trkpt>
      <trkpt lat="42.49161" lon="2.14105">
        <ele>1530.2</ele>
        <time>2019-01-07T10:17:26Z</time>
      </trkpt>
      <trkpt lat="42.49169" lon="2.14101">
        <ele>1532</ele>
        <time>2019-01-07T10:17:28Z</time>
      </trkpt>
      <trkpt lat="42.4918" lon="2.14104">
        <ele>1532.1</ele>
        <time>2019-01-07T10:17:31Z</time>
      </trkpt>
      <trkpt lat="42.49185" lon="2.1411">
        <ele>1532.1</ele>
        <time>2019-01-07T10:17:33Z</time>
      </trkpt>
      <trkpt lat="42.49191" lon="2.14122">
        <ele>1530.6</ele>
        <time>2019-01-07T10:17:36Z</time>
      </trkpt>
      <trkpt lat="42.49193" lon="2.14125">
        <ele>1528.6</ele>
        <time>2019-01-07T10:17:37Z</time>
      </trkpt>
      <trkpt lat="42.49199" lon="2.14133">
        <ele>1526.3</ele>
        <time>2019-01-07T10:17:39Z</time>
      </trkpt>
      <trkpt lat="42.49209" lon="2.1414">
        <ele>1524.4</ele>
        <time>2019-01-07T10:17:42Z</time>
      </trkpt>
      <trkpt lat="42.49218" lon="2.14147">
        <ele>1523.9</ele>
        <time>2019-01-07T10:17:45Z</time>
      </trkpt>
      <trkpt lat="42.49229" lon="2.14155">
        <ele>1523</ele>
        <time>2019-01-07T10:17:48Z</time>
      </trkpt>
      <trkpt lat="42.4924" lon="2.14163">
        <ele>1522.9</ele>
        <time>2019-01-07T10:17:52Z</time>
      </trkpt>
      <trkpt lat="42.49249" lon="2.14169">
        <ele>1523.4</ele>
        <time>2019-01-07T10:17:54Z</time>
      </trkpt>
      <trkpt lat="42.49257" lon="2.14173">
        <ele>1523</ele>
        <time>2019-01-07T10:17:56Z</time>
      </trkpt>
      <trkpt lat="42.49266" lon="2.14175">
        <ele>1521.5</ele>
        <time>2019-01-07T10:17:59Z</time>
      </trkpt>
      <trkpt lat="42.49274" lon="2.14176">
        <ele>1520</ele>
        <time>2019-01-07T10:18:01Z</time>
      </trkpt>
      <trkpt lat="42.49281" lon="2.14175">
        <ele>1518.5</ele>
        <time>2019-01-07T10:18:03Z</time>
      </trkpt>
      <trkpt lat="42.49285" lon="2.14173">
        <ele>1518.5</ele>
        <time>2019-01-07T10:18:04Z</time>
      </trkpt>
      <trkpt lat="42.49293" lon="2.14169">
        <ele>1515.7</ele>
        <time>2019-01-07T10:18:06Z</time>
      </trkpt>
      <trkpt lat="42.493" lon="2.14168">
        <ele>1513.7</ele>
        <time>2019-01-07T10:18:08Z</time>
      </trkpt>
      <trkpt lat="42.49305" lon="2.14163">
        <ele>1512.3</ele>
        <time>2019-01-07T10:18:10Z</time>
      </trkpt>
      <trkpt lat="42.49313" lon="2.14159">
        <ele>1510.5</ele>
        <time>2019-01-07T10:18:12Z</time>
      </trkpt>
      <trkpt lat="42.49315" lon="2.14158">
        <ele>1509.9</ele>
        <time>2019-01-07T10:18:13Z</time>
      </trkpt>
      <trkpt lat="42.49315" lon="2.14153">
        <ele>1510</ele>
        <time>2019-01-07T10:18:14Z</time>
      </trkpt>
      <trkpt lat="42.4931" lon="2.1415">
        <ele>1508.9</ele>
        <time>2019-01-07T10:18:15Z</time>
      </trkpt>
      <trkpt lat="42.49299" lon="2.1414">
        <ele>1507.1</ele>
        <time>2019-01-07T10:18:19Z</time>
      </trkpt>
      <trkpt lat="42.49289" lon="2.14126">
        <ele>1502.2</ele>
        <time>2019-01-07T10:18:22Z</time>
      </trkpt>
      <trkpt lat="42.49288" lon="2.14125">
        <ele>1502.2</ele>
        <time>2019-01-07T10:18:23Z</time>
      </trkpt>
      <trkpt lat="42.49283" lon="2.14116">
        <ele>1502.7</ele>
        <time>2019-01-07T10:18:25Z</time>
      </trkpt>
      <trkpt lat="42.49274" lon="2.14101">
        <ele>1501.7</ele>
        <time>2019-01-07T10:18:29Z</time>
      </trkpt>
      <trkpt lat="42.4927" lon="2.14086">
        <ele>1504.7</ele>
        <time>2019-01-07T10:18:32Z</time>
      </trkpt>
      <trkpt lat="42.49263" lon="2.14076">
        <ele>1508.5</ele>
        <time>2019-01-07T10:18:35Z</time>
      </trkpt>
      <trkpt lat="42.49257" lon="2.14064">
        <ele>1508</ele>
        <time>2019-01-07T10:18:37Z</time>
      </trkpt>
      <trkpt lat="42.49253" lon="2.14054">
        <ele>1506.1</ele>
        <time>2019-01-07T10:18:40Z</time>
      </trkpt>
      <trkpt lat="42.49248" lon="2.14039">
        <ele>1505.6</ele>
        <time>2019-01-07T10:18:43Z</time>
      </trkpt>
      <trkpt lat="42.49246" lon="2.14029">
        <ele>1505.7</ele>
        <time>2019-01-07T10:18:45Z</time>
      </trkpt>
      <trkpt lat="42.49242" lon="2.14018">
        <ele>1507.1</ele>
        <time>2019-01-07T10:18:47Z</time>
      </trkpt>
      <trkpt lat="42.49237" lon="2.14007">
        <ele>1508.6</ele>
        <time>2019-01-07T10:18:50Z</time>
      </trkpt>
      <trkpt lat="42.49232" lon="2.13989">
        <ele>1506</ele>
        <time>2019-01-07T10:18:54Z</time>
      </trkpt>
      <trkpt lat="42.49228" lon="2.13976">
        <ele>1507.5</ele>
        <time>2019-01-07T10:18:56Z</time>
      </trkpt>
      <trkpt lat="42.49223" lon="2.13966">
        <ele>1509.4</ele>
        <time>2019-01-07T10:18:59Z</time>
      </trkpt>
      <trkpt lat="42.4922" lon="2.13965">
        <ele>1510.5</ele>
        <time>2019-01-07T10:19:00Z</time>
      </trkpt>
      <trkpt lat="42.49146" lon="2.14118">
        <ele>1527.2</ele>
        <time>2019-01-07T11:50:54Z</time>
      </trkpt>
      <trkpt lat="42.49144" lon="2.14116">
        <ele>1526.2</ele>
        <time>2019-01-07T11:50:54Z</time>
      </trkpt>
      <trkpt lat="42.49143" lon="2.1412">
        <ele>1527.7</ele>
        <time>2019-01-07T11:50:55Z</time>
      </trkpt>
      <trkpt lat="42.4913" lon="2.14123">
        <ele>1529.7</ele>
        <time>2019-01-07T11:50:59Z</time>
      </trkpt>
      <trkpt lat="42.49129" lon="2.14123">
        <ele>1530.2</ele>
        <time>2019-01-07T11:50:59Z</time>
      </trkpt>
      <trkpt lat="42.49128" lon="2.14121">
        <ele>1530.6</ele>
        <time>2019-01-07T11:51:00Z</time>
      </trkpt>
      <trkpt lat="42.49124" lon="2.14119">
        <ele>1531.5</ele>
        <time>2019-01-07T11:51:01Z</time>
      </trkpt>
      <trkpt lat="42.49121" lon="2.14117">
        <ele>1532</ele>
        <time>2019-01-07T11:51:01Z</time>
      </trkpt>
      <trkpt lat="42.49112" lon="2.14112">
        <ele>1534.4</ele>
        <time>2019-01-07T11:51:04Z</time>
      </trkpt>
      <trkpt lat="42.49105" lon="2.14109">
        <ele>1536.4</ele>
        <time>2019-01-07T11:51:06Z</time>
      </trkpt>
      <trkpt lat="42.4909" lon="2.14112">
        <ele>1539.7</ele>
        <time>2019-01-07T11:51:10Z</time>
      </trkpt>
      <trkpt lat="42.49088" lon="2.14112">
        <ele>1540.2</ele>
        <time>2019-01-07T11:51:11Z</time>
      </trkpt>
      <trkpt lat="42.49077" lon="2.14114">
        <ele>1542.7</ele>
        <time>2019-01-07T11:51:14Z</time>
      </trkpt>
      <trkpt lat="42.49062" lon="2.1411">
        <ele>1545.5</ele>
        <time>2019-01-07T11:51:18Z</time>
      </trkpt>
      <trkpt lat="42.49053" lon="2.14109">
        <ele>1547.4</ele>
        <time>2019-01-07T11:51:20Z</time>
      </trkpt>
      <trkpt lat="42.49043" lon="2.14107">
        <ele>1549.3</ele>
        <time>2019-01-07T11:51:23Z</time>
      </trkpt>
      <trkpt lat="42.49035" lon="2.14108">
        <ele>1552.2</ele>
        <time>2019-01-07T11:51:25Z</time>
      </trkpt>
      <trkpt lat="42.49032" lon="2.14107">
        <ele>1552.7</ele>
        <time>2019-01-07T11:51:26Z</time>
      </trkpt>
      <trkpt lat="42.49027" lon="2.1411">
        <ele>1554.2</ele>
        <time>2019-01-07T11:51:27Z</time>
      </trkpt>
      <trkpt lat="42.49019" lon="2.14112">
        <ele>1555.7</ele>
        <time>2019-01-07T11:51:29Z</time>
      </trkpt>
      <trkpt lat="42.49014" lon="2.14113">
        <ele>1558.4</ele>
        <time>2019-01-07T11:51:31Z</time>
      </trkpt>
      <trkpt lat="42.49007" lon="2.14116">
        <ele>1560.8</ele>
        <time>2019-01-07T11:51:33Z</time>
      </trkpt>
      <trkpt lat="42.49006" lon="2.14116">
        <ele>1560.8</ele>
        <time>2019-01-07T11:51:33Z</time>
      </trkpt>
      <trkpt lat="42.48993" lon="2.14119">
        <ele>1564.8</ele>
        <time>2019-01-07T11:51:36Z</time>
      </trkpt>
      <trkpt lat="42.48986" lon="2.14115">
        <ele>1568.1</ele>
        <time>2019-01-07T11:51:38Z</time>
      </trkpt>
      <trkpt lat="42.48984" lon="2.14117">
        <ele>1566.2</ele>
        <time>2019-01-07T11:51:39Z</time>
      </trkpt>
      <trkpt lat="42.48981" lon="2.14117">
        <ele>1568.5</ele>
        <time>2019-01-07T11:51:40Z</time>
      </trkpt>
      <trkpt lat="42.4897" lon="2.14114">
        <ele>1572</ele>
        <time>2019-01-07T11:51:43Z</time>
      </trkpt>
      <trkpt lat="42.48968" lon="2.14111">
        <ele>1573</ele>
        <time>2019-01-07T11:51:44Z</time>
      </trkpt>
      <trkpt lat="42.48952" lon="2.14105">
        <ele>1576.3</ele>
        <time>2019-01-07T11:51:48Z</time>
      </trkpt>
      <trkpt lat="42.48943" lon="2.141">
        <ele>1577.7</ele>
        <time>2019-01-07T11:51:51Z</time>
      </trkpt>
      <trkpt lat="42.48941" lon="2.141">
        <ele>1579.2</ele>
        <time>2019-01-07T11:51:51Z</time>
      </trkpt>
      <trkpt lat="42.48931" lon="2.14101">
        <ele>1581.5</ele>
        <time>2019-01-07T11:51:54Z</time>
      </trkpt>
      <trkpt lat="42.48921" lon="2.14097">
        <ele>1583.4</ele>
        <time>2019-01-07T11:51:57Z</time>
      </trkpt>
      <trkpt lat="42.48914" lon="2.14094">
        <ele>1584.4</ele>
        <time>2019-01-07T11:51:59Z</time>
      </trkpt>
      <trkpt lat="42.48905" lon="2.14095">
        <ele>1587.8</ele>
        <time>2019-01-07T11:52:01Z</time>
      </trkpt>
      <trkpt lat="42.48899" lon="2.1409">
        <ele>1591.2</ele>
        <time>2019-01-07T11:52:03Z</time>
      </trkpt>
      <trkpt lat="42.48888" lon="2.1408">
        <ele>1591.6</ele>
        <time>2019-01-07T11:52:06Z</time>
      </trkpt>
      <trkpt lat="42.48882" lon="2.1408">
        <ele>1593</ele>
        <time>2019-01-07T11:52:08Z</time>
      </trkpt>
      <trkpt lat="42.48875" lon="2.14079">
        <ele>1595.9</ele>
        <time>2019-01-07T11:52:10Z</time>
      </trkpt>
      <trkpt lat="42.48867" lon="2.14081">
        <ele>1597.5</ele>
        <time>2019-01-07T11:52:12Z</time>
      </trkpt>
      <trkpt lat="42.48861" lon="2.14089">
        <ele>1600.4</ele>
        <time>2019-01-07T11:52:14Z</time>
      </trkpt>
      <trkpt lat="42.48851" lon="2.141">
        <ele>1604.2</ele>
        <time>2019-01-07T11:52:18Z</time>
      </trkpt>
      <trkpt lat="42.48846" lon="2.14103">
        <ele>1607.5</ele>
        <time>2019-01-07T11:52:19Z</time>
      </trkpt>
      <trkpt lat="42.48843" lon="2.14114">
        <ele>1608.9</ele>
        <time>2019-01-07T11:52:22Z</time>
      </trkpt>
      <trkpt lat="42.48841" lon="2.14136">
        <ele>1611.9</ele>
        <time>2019-01-07T11:52:26Z</time>
      </trkpt>
      <trkpt lat="42.48841" lon="2.14137">
        <ele>1611.4</ele>
        <time>2019-01-07T11:52:26Z</time>
      </trkpt>
      <trkpt lat="42.48835" lon="2.14146">
        <ele>1614.3</ele>
        <time>2019-01-07T11:52:28Z</time>
      </trkpt>
      <trkpt lat="42.48829" lon="2.14155">
        <ele>1615.7</ele>
        <time>2019-01-07T11:52:31Z</time>
      </trkpt>
      <trkpt lat="42.48827" lon="2.14155">
        <ele>1616.2</ele>
        <time>2019-01-07T11:52:31Z</time>
      </trkpt>
      <trkpt lat="42.48821" lon="2.14159">
        <ele>1618.1</ele>
        <time>2019-01-07T11:52:33Z</time>
      </trkpt>
      <trkpt lat="42.4882" lon="2.14159">
        <ele>1618.1</ele>
        <time>2019-01-07T11:52:33Z</time>
      </trkpt>
      <trkpt lat="42.48808" lon="2.14162">
        <ele>1621.4</ele>
        <time>2019-01-07T11:52:37Z</time>
      </trkpt>
      <trkpt lat="42.48798" lon="2.14165">
        <ele>1624.8</ele>
        <time>2019-01-07T11:52:39Z</time>
      </trkpt>
      <trkpt lat="42.48786" lon="2.14169">
        <ele>1628.1</ele>
        <time>2019-01-07T11:52:43Z</time>
      </trkpt>
      <trkpt lat="42.48784" lon="2.1417">
        <ele>1628.6</ele>
        <time>2019-01-07T11:52:43Z</time>
      </trkpt>
      <trkpt lat="42.48774" lon="2.14174">
        <ele>1631.6</ele>
        <time>2019-01-07T11:52:46Z</time>
      </trkpt>
      <trkpt lat="42.48764" lon="2.14178">
        <ele>1634.9</ele>
        <time>2019-01-07T11:52:49Z</time>
      </trkpt>
      <trkpt lat="42.4876" lon="2.14179">
        <ele>1637.4</ele>
        <time>2019-01-07T11:52:50Z</time>
      </trkpt>
      <trkpt lat="42.48753" lon="2.14187">
        <ele>1639.8</ele>
        <time>2019-01-07T11:52:52Z</time>
      </trkpt>
      <trkpt lat="42.48738" lon="2.14193">
        <ele>1642.1</ele>
        <time>2019-01-07T11:52:56Z</time>
      </trkpt>
      <trkpt lat="42.48735" lon="2.14197">
        <ele>1643.1</ele>
        <time>2019-01-07T11:52:58Z</time>
      </trkpt>
      <trkpt lat="42.48728" lon="2.14201">
        <ele>1643.6</ele>
        <time>2019-01-07T11:52:59Z</time>
      </trkpt>
      <trkpt lat="42.48725" lon="2.14204">
        <ele>1644</ele>
        <time>2019-01-07T11:53:00Z</time>
      </trkpt>
      <trkpt lat="42.48725" lon="2.1421">
        <ele>1646</ele>
        <time>2019-01-07T11:53:01Z</time>
      </trkpt>
      <trkpt lat="42.4872" lon="2.14213">
        <ele>1647.8</ele>
        <time>2019-01-07T11:53:03Z</time>
      </trkpt>
      <trkpt lat="42.48711" lon="2.14219">
        <ele>1650.7</ele>
        <time>2019-01-07T11:53:06Z</time>
      </trkpt>
      <trkpt lat="42.48703" lon="2.14225">
        <ele>1652.3</ele>
        <time>2019-01-07T11:53:08Z</time>
      </trkpt>
      <trkpt lat="42.48701" lon="2.14229">
        <ele>1653.7</ele>
        <time>2019-01-07T11:53:09Z</time>
      </trkpt>
      <trkpt lat="42.48691" lon="2.14236">
        <ele>1656</ele>
        <time>2019-01-07T11:53:12Z</time>
      </trkpt>
      <trkpt lat="42.48678" lon="2.14247">
        <ele>1660.3</ele>
        <time>2019-01-07T11:53:16Z</time>
      </trkpt>
      <trkpt lat="42.48673" lon="2.14256">
        <ele>1662.3</ele>
        <time>2019-01-07T11:53:18Z</time>
      </trkpt>
      <trkpt lat="42.48664" lon="2.14272">
        <ele>1664.8</ele>
        <time>2019-01-07T11:53:22Z</time>
      </trkpt>
      <trkpt lat="42.48658" lon="2.1428">
        <ele>1665.6</ele>
        <time>2019-01-07T11:53:25Z</time>
      </trkpt>
      <trkpt lat="42.48656" lon="2.14281">
        <ele>1666.2</ele>
        <time>2019-01-07T11:53:25Z</time>
      </trkpt>
      <trkpt lat="42.48655" lon="2.14279">
        <ele>1669.9</ele>
        <time>2019-01-07T11:53:26Z</time>
      </trkpt>
      <trkpt lat="42.48657" lon="2.14272">
        <ele>1671.9</ele>
        <time>2019-01-07T11:53:27Z</time>
      </trkpt>
      <trkpt lat="42.4866" lon="2.14257">
        <ele>1672.4</ele>
        <time>2019-01-07T11:53:30Z</time>
      </trkpt>
      <trkpt lat="42.4866" lon="2.14244">
        <ele>1674.8</ele>
        <time>2019-01-07T11:53:33Z</time>
      </trkpt>
      <trkpt lat="42.48657" lon="2.14239">
        <ele>1675.3</ele>
        <time>2019-01-07T11:53:34Z</time>
      </trkpt>
      <trkpt lat="42.48654" lon="2.14215">
        <ele>1678.7</ele>
        <time>2019-01-07T11:53:39Z</time>
      </trkpt>
      <trkpt lat="42.48649" lon="2.14202">
        <ele>1682.1</ele>
        <time>2019-01-07T11:53:42Z</time>
      </trkpt>
      <trkpt lat="42.48646" lon="2.142">
        <ele>1683</ele>
        <time>2019-01-07T11:53:43Z</time>
      </trkpt>
      <trkpt lat="42.48645" lon="2.142">
        <ele>1682.9</ele>
        <time>2019-01-07T11:53:43Z</time>
      </trkpt>
      <trkpt lat="42.4863" lon="2.14192">
        <ele>1687.3</ele>
        <time>2019-01-07T11:53:47Z</time>
      </trkpt>
      <trkpt lat="42.48621" lon="2.14192">
        <ele>1689.2</ele>
        <time>2019-01-07T11:53:49Z</time>
      </trkpt>
      <trkpt lat="42.48606" lon="2.14191">
        <ele>1692.1</ele>
        <time>2019-01-07T11:53:54Z</time>
      </trkpt>
      <trkpt lat="42.48603" lon="2.14192">
        <ele>1693</ele>
        <time>2019-01-07T11:53:54Z</time>
      </trkpt>
      <trkpt lat="42.48585" lon="2.14185">
        <ele>1695.4</ele>
        <time>2019-01-07T11:53:59Z</time>
      </trkpt>
      <trkpt lat="42.48583" lon="2.14186">
        <ele>1695.5</ele>
        <time>2019-01-07T11:54:00Z</time>
      </trkpt>
      <trkpt lat="42.48572" lon="2.14192">
        <ele>1699.4</ele>
        <time>2019-01-07T11:54:03Z</time>
      </trkpt>
      <trkpt lat="42.48567" lon="2.14195">
        <ele>1700.3</ele>
        <time>2019-01-07T11:54:04Z</time>
      </trkpt>
      <trkpt lat="42.48563" lon="2.14202">
        <ele>1701.3</ele>
        <time>2019-01-07T11:54:06Z</time>
      </trkpt>
      <trkpt lat="42.48559" lon="2.14205">
        <ele>1703.7</ele>
        <time>2019-01-07T11:54:07Z</time>
      </trkpt>
      <trkpt lat="42.48554" lon="2.14205">
        <ele>1703.6</ele>
        <time>2019-01-07T11:54:09Z</time>
      </trkpt>
      <trkpt lat="42.48546" lon="2.14206">
        <ele>1705</ele>
        <time>2019-01-07T11:54:11Z</time>
      </trkpt>
      <trkpt lat="42.4854" lon="2.14205">
        <ele>1706.6</ele>
        <time>2019-01-07T11:54:13Z</time>
      </trkpt>
      <trkpt lat="42.48531" lon="2.14207">
        <ele>1707</ele>
        <time>2019-01-07T11:54:15Z</time>
      </trkpt>
      <trkpt lat="42.48518" lon="2.14207">
        <ele>1710.3</ele>
        <time>2019-01-07T11:54:18Z</time>
      </trkpt>
      <trkpt lat="42.48515" lon="2.14211">
        <ele>1710.8</ele>
        <time>2019-01-07T11:54:19Z</time>
      </trkpt>
      <trkpt lat="42.48514" lon="2.14211">
        <ele>1710.8</ele>
        <time>2019-01-07T11:54:20Z</time>
      </trkpt>
      <trkpt lat="42.48502" lon="2.14214">
        <ele>1714.7</ele>
        <time>2019-01-07T11:54:23Z</time>
      </trkpt>
      <trkpt lat="42.48493" lon="2.14215">
        <ele>1717.1</ele>
        <time>2019-01-07T11:54:26Z</time>
      </trkpt>
      <trkpt lat="42.48488" lon="2.14214">
        <ele>1718.5</ele>
        <time>2019-01-07T11:54:27Z</time>
      </trkpt>
      <trkpt lat="42.48483" lon="2.14214">
        <ele>1718.6</ele>
        <time>2019-01-07T11:54:28Z</time>
      </trkpt>
      <trkpt lat="42.48474" lon="2.14224">
        <ele>1721</ele>
        <time>2019-01-07T11:54:31Z</time>
      </trkpt>
      <trkpt lat="42.48467" lon="2.14225">
        <ele>1722</ele>
        <time>2019-01-07T11:54:33Z</time>
      </trkpt>
      <trkpt lat="42.48463" lon="2.14224">
        <ele>1722.3</ele>
        <time>2019-01-07T11:54:34Z</time>
      </trkpt>
      <trkpt lat="42.48451" lon="2.14221">
        <ele>1723.4</ele>
        <time>2019-01-07T11:54:38Z</time>
      </trkpt>
      <trkpt lat="42.48445" lon="2.14222">
        <ele>1723.3</ele>
        <time>2019-01-07T11:54:39Z</time>
      </trkpt>
      <trkpt lat="42.48437" lon="2.14222">
        <ele>1723.3</ele>
        <time>2019-01-07T11:54:41Z</time>
      </trkpt>
      <trkpt lat="42.4843" lon="2.14226">
        <ele>1724.3</ele>
        <time>2019-01-07T11:54:43Z</time>
      </trkpt>
      <trkpt lat="42.48421" lon="2.1423">
        <ele>1724.8</ele>
        <time>2019-01-07T11:54:46Z</time>
      </trkpt>
      <trkpt lat="42.48411" lon="2.14234">
        <ele>1726.2</ele>
        <time>2019-01-07T11:54:49Z</time>
      </trkpt>
      <trkpt lat="42.48405" lon="2.1424">
        <ele>1727.6</ele>
        <time>2019-01-07T11:54:51Z</time>
      </trkpt>
      <trkpt lat="42.48398" lon="2.14242">
        <ele>1728.6</ele>
        <time>2019-01-07T11:54:53Z</time>
      </trkpt>
      <trkpt lat="42.48398" lon="2.14247">
        <ele>1729.6</ele>
        <time>2019-01-07T11:54:54Z</time>
      </trkpt>
      <trkpt lat="42.48393" lon="2.14261">
        <ele>1733.4</ele>
        <time>2019-01-07T11:54:57Z</time>
      </trkpt>
      <trkpt lat="42.48384" lon="2.14268">
        <ele>1734.9</ele>
        <time>2019-01-07T11:54:59Z</time>
      </trkpt>
      <trkpt lat="42.48375" lon="2.14269">
        <ele>1736.3</ele>
        <time>2019-01-07T11:55:02Z</time>
      </trkpt>
      <trkpt lat="42.48369" lon="2.14264">
        <ele>1736.8</ele>
        <time>2019-01-07T11:55:04Z</time>
      </trkpt>
      <trkpt lat="42.48364" lon="2.14267">
        <ele>1737.7</ele>
        <time>2019-01-07T11:55:05Z</time>
      </trkpt>
      <trkpt lat="42.48361" lon="2.14267">
        <ele>1738.3</ele>
        <time>2019-01-07T11:55:06Z</time>
      </trkpt>
      <trkpt lat="42.48357" lon="2.14263">
        <ele>1739.3</ele>
        <time>2019-01-07T11:55:07Z</time>
      </trkpt>
      <trkpt lat="42.48352" lon="2.14268">
        <ele>1740.1</ele>
        <time>2019-01-07T11:55:09Z</time>
      </trkpt>
      <trkpt lat="42.4834" lon="2.14274">
        <ele>1744.5</ele>
        <time>2019-01-07T11:55:12Z</time>
      </trkpt>
      <trkpt lat="42.48336" lon="2.14279">
        <ele>1744.9</ele>
        <time>2019-01-07T11:55:14Z</time>
      </trkpt>
      <trkpt lat="42.48325" lon="2.14286">
        <ele>1747.3</ele>
        <time>2019-01-07T11:55:17Z</time>
      </trkpt>
      <trkpt lat="42.48308" lon="2.14294">
        <ele>1748.8</ele>
        <time>2019-01-07T11:55:22Z</time>
      </trkpt>
      <trkpt lat="42.48298" lon="2.143">
        <ele>1752.1</ele>
        <time>2019-01-07T11:55:25Z</time>
      </trkpt>
      <trkpt lat="42.48296" lon="2.143">
        <ele>1752.2</ele>
        <time>2019-01-07T11:55:25Z</time>
      </trkpt>
      <trkpt lat="42.48291" lon="2.14303">
        <ele>1752.1</ele>
        <time>2019-01-07T11:55:26Z</time>
      </trkpt>
      <trkpt lat="42.48285" lon="2.1431">
        <ele>1753.1</ele>
        <time>2019-01-07T11:55:29Z</time>
      </trkpt>
      <trkpt lat="42.48279" lon="2.14312">
        <ele>1753.7</ele>
        <time>2019-01-07T11:55:30Z</time>
      </trkpt>
      <trkpt lat="42.48264" lon="2.14323">
        <ele>1754.2</ele>
        <time>2019-01-07T11:55:35Z</time>
      </trkpt>
      <trkpt lat="42.48263" lon="2.14329">
        <ele>1754.2</ele>
        <time>2019-01-07T11:55:36Z</time>
      </trkpt>
      <trkpt lat="42.48261" lon="2.14332">
        <ele>1754.1</ele>
        <time>2019-01-07T11:55:37Z</time>
      </trkpt>
      <trkpt lat="42.48259" lon="2.14335">
        <ele>1754.2</ele>
        <time>2019-01-07T11:55:38Z</time>
      </trkpt>
      <trkpt lat="42.48253" lon="2.14341">
        <ele>1755.5</ele>
        <time>2019-01-07T11:55:40Z</time>
      </trkpt>
      <trkpt lat="42.48238" lon="2.14352">
        <ele>1757.5</ele>
        <time>2019-01-07T11:55:44Z</time>
      </trkpt>
      <trkpt lat="42.48233" lon="2.14357">
        <ele>1758.4</ele>
        <time>2019-01-07T11:55:46Z</time>
      </trkpt>
      <trkpt lat="42.48217" lon="2.14372">
        <ele>1760.4</ele>
        <time>2019-01-07T11:55:51Z</time>
      </trkpt>
      <trkpt lat="42.48208" lon="2.14386">
        <ele>1761.8</ele>
        <time>2019-01-07T11:55:55Z</time>
      </trkpt>
      <trkpt lat="42.48203" lon="2.14392">
        <ele>1762.2</ele>
        <time>2019-01-07T11:55:56Z</time>
      </trkpt>
      <trkpt lat="42.482" lon="2.14396">
        <ele>1763.2</ele>
        <time>2019-01-07T11:55:58Z</time>
      </trkpt>
      <trkpt lat="42.48192" lon="2.14411">
        <ele>1764.7</ele>
        <time>2019-01-07T11:56:01Z</time>
      </trkpt>
      <trkpt lat="42.48186" lon="2.1443">
        <ele>1768.6</ele>
        <time>2019-01-07T11:56:05Z</time>
      </trkpt>
      <trkpt lat="42.48184" lon="2.14434">
        <ele>1769.1</ele>
        <time>2019-01-07T11:56:06Z</time>
      </trkpt>
      <trkpt lat="42.48169" lon="2.14453">
        <ele>1770.9</ele>
        <time>2019-01-07T11:56:12Z</time>
      </trkpt>
      <trkpt lat="42.48168" lon="2.14454">
        <ele>1770.9</ele>
        <time>2019-01-07T11:56:12Z</time>
      </trkpt>
      <trkpt lat="42.4816" lon="2.14473">
        <ele>1772.8</ele>
        <time>2019-01-07T11:56:16Z</time>
      </trkpt>
      <trkpt lat="42.48155" lon="2.14482">
        <ele>1776.2</ele>
        <time>2019-01-07T11:56:19Z</time>
      </trkpt>
      <trkpt lat="42.48154" lon="2.14483">
        <ele>1776.2</ele>
        <time>2019-01-07T11:56:19Z</time>
      </trkpt>
      <trkpt lat="42.48147" lon="2.14484">
        <ele>1778.1</ele>
        <time>2019-01-07T11:56:21Z</time>
      </trkpt>
      <trkpt lat="42.48136" lon="2.14478">
        <ele>1778.1</ele>
        <time>2019-01-07T11:56:24Z</time>
      </trkpt>
      <trkpt lat="42.48123" lon="2.14488">
        <ele>1779.2</ele>
        <time>2019-01-07T11:56:28Z</time>
      </trkpt>
      <trkpt lat="42.48111" lon="2.14497">
        <ele>1779.5</ele>
        <time>2019-01-07T11:56:32Z</time>
      </trkpt>
      <trkpt lat="42.48101" lon="2.14504">
        <ele>1780.5</ele>
        <time>2019-01-07T11:56:35Z</time>
      </trkpt>
      <trkpt lat="42.48088" lon="2.14506">
        <ele>1781</ele>
        <time>2019-01-07T11:56:38Z</time>
      </trkpt>
      <trkpt lat="42.48086" lon="2.14508">
        <ele>1781.5</ele>
        <time>2019-01-07T11:56:39Z</time>
      </trkpt>
      <trkpt lat="42.48072" lon="2.1451">
        <ele>1781.5</ele>
        <time>2019-01-07T11:56:43Z</time>
      </trkpt>
      <trkpt lat="42.48065" lon="2.14511">
        <ele>1782.5</ele>
        <time>2019-01-07T11:56:44Z</time>
      </trkpt>
      <trkpt lat="42.48048" lon="2.14506">
        <ele>1783.9</ele>
        <time>2019-01-07T11:56:49Z</time>
      </trkpt>
      <trkpt lat="42.48046" lon="2.1452">
        <ele>1784.4</ele>
        <time>2019-01-07T11:56:52Z</time>
      </trkpt>
      <trkpt lat="42.48036" lon="2.14536">
        <ele>1786.3</ele>
        <time>2019-01-07T11:56:56Z</time>
      </trkpt>
      <trkpt lat="42.48033" lon="2.14539">
        <ele>1786.3</ele>
        <time>2019-01-07T11:56:57Z</time>
      </trkpt>
      <trkpt lat="42.48029" lon="2.14545">
        <ele>1786.7</ele>
        <time>2019-01-07T11:56:59Z</time>
      </trkpt>
      <trkpt lat="42.48022" lon="2.14552">
        <ele>1787.3</ele>
        <time>2019-01-07T11:57:01Z</time>
      </trkpt>
      <trkpt lat="42.48018" lon="2.14559">
        <ele>1787.2</ele>
        <time>2019-01-07T11:57:03Z</time>
      </trkpt>
      <trkpt lat="42.48013" lon="2.14564">
        <ele>1787.8</ele>
        <time>2019-01-07T11:57:04Z</time>
      </trkpt>
      <trkpt lat="42.4801" lon="2.14567">
        <ele>1787.3</ele>
        <time>2019-01-07T11:57:05Z</time>
      </trkpt>
      <trkpt lat="42.48005" lon="2.14573">
        <ele>1787.7</ele>
        <time>2019-01-07T11:57:07Z</time>
      </trkpt>
      <trkpt lat="42.48004" lon="2.14575">
        <ele>1788.3</ele>
        <time>2019-01-07T11:57:08Z</time>
      </trkpt>
      <trkpt lat="42.47983" lon="2.14593">
        <ele>1790.1</ele>
        <time>2019-01-07T11:57:14Z</time>
      </trkpt>
      <trkpt lat="42.47978" lon="2.146">
        <ele>1790.6</ele>
        <time>2019-01-07T11:57:16Z</time>
      </trkpt>
      <trkpt lat="42.47976" lon="2.146">
        <ele>1791.1</ele>
        <time>2019-01-07T11:57:17Z</time>
      </trkpt>
      <trkpt lat="42.4796" lon="2.14609">
        <ele>1792</ele>
        <time>2019-01-07T11:57:21Z</time>
      </trkpt>
      <trkpt lat="42.47957" lon="2.14613">
        <ele>1793.1</ele>
        <time>2019-01-07T11:57:22Z</time>
      </trkpt>
      <trkpt lat="42.47949" lon="2.14619">
        <ele>1794</ele>
        <time>2019-01-07T11:57:25Z</time>
      </trkpt>
      <trkpt lat="42.47946" lon="2.14624">
        <ele>1794.5</ele>
        <time>2019-01-07T11:57:26Z</time>
      </trkpt>
      <trkpt lat="42.47937" lon="2.14629">
        <ele>1795.9</ele>
        <time>2019-01-07T11:57:29Z</time>
      </trkpt>
      <trkpt lat="42.47922" lon="2.14626">
        <ele>1796.5</ele>
        <time>2019-01-07T11:57:33Z</time>
      </trkpt>
      <trkpt lat="42.4792" lon="2.14629">
        <ele>1796.9</ele>
        <time>2019-01-07T11:57:33Z</time>
      </trkpt>
      <trkpt lat="42.47916" lon="2.1463">
        <ele>1797.4</ele>
        <time>2019-01-07T11:57:35Z</time>
      </trkpt>
      <trkpt lat="42.47907" lon="2.1463">
        <ele>1797.8</ele>
        <time>2019-01-07T11:57:37Z</time>
      </trkpt>
      <trkpt lat="42.47897" lon="2.14635">
        <ele>1798.3</ele>
        <time>2019-01-07T11:57:40Z</time>
      </trkpt>
      <trkpt lat="42.47889" lon="2.14648">
        <ele>1799.2</ele>
        <time>2019-01-07T11:57:43Z</time>
      </trkpt>
      <trkpt lat="42.47885" lon="2.14651">
        <ele>1799.2</ele>
        <time>2019-01-07T11:57:44Z</time>
      </trkpt>
      <trkpt lat="42.47874" lon="2.14656">
        <ele>1799.3</ele>
        <time>2019-01-07T11:57:48Z</time>
      </trkpt>
      <trkpt lat="42.47866" lon="2.14649">
        <ele>1799.8</ele>
        <time>2019-01-07T11:57:50Z</time>
      </trkpt>
      <trkpt lat="42.4787" lon="2.14619">
        <ele>1800.3</ele>
        <time>2019-01-07T11:57:56Z</time>
      </trkpt>
      <trkpt lat="42.47881" lon="2.14596">
        <ele>1799.3</ele>
        <time>2019-01-07T11:58:02Z</time>
      </trkpt>
      <trkpt lat="42.47881" lon="2.14595">
        <ele>1800.2</ele>
        <time>2019-01-07T11:58:02Z</time>
      </trkpt>
      <trkpt lat="42.47881" lon="2.14592">
        <ele>1799.3</ele>
        <time>2019-01-07T11:58:02Z</time>
      </trkpt>
      <trkpt lat="42.47878" lon="2.14582">
        <ele>1799.2</ele>
        <time>2019-01-07T11:58:05Z</time>
      </trkpt>
      <trkpt lat="42.47866" lon="2.14572">
        <ele>1802.2</ele>
        <time>2019-01-07T11:58:08Z</time>
      </trkpt>
      <trkpt lat="42.47864" lon="2.14571">
        <ele>1803.7</ele>
        <time>2019-01-07T11:58:09Z</time>
      </trkpt>
      <trkpt lat="42.47852" lon="2.14561">
        <ele>1806.9</ele>
        <time>2019-01-07T11:58:13Z</time>
      </trkpt>
      <trkpt lat="42.47843" lon="2.14553">
        <ele>1809.8</ele>
        <time>2019-01-07T11:58:16Z</time>
      </trkpt>
      <trkpt lat="42.47831" lon="2.14548">
        <ele>1813.3</ele>
        <time>2019-01-07T11:58:19Z</time>
      </trkpt>
      <trkpt lat="42.47814" lon="2.1455">
        <ele>1815.7</ele>
        <time>2019-01-07T11:58:23Z</time>
      </trkpt>
      <trkpt lat="42.47807" lon="2.14552">
        <ele>1817</ele>
        <time>2019-01-07T11:58:25Z</time>
      </trkpt>
      <trkpt lat="42.47793" lon="2.14565">
        <ele>1817.1</ele>
        <time>2019-01-07T11:58:30Z</time>
      </trkpt>
      <trkpt lat="42.47787" lon="2.14572">
        <ele>1817.1</ele>
        <time>2019-01-07T11:58:32Z</time>
      </trkpt>
      <trkpt lat="42.47783" lon="2.14575">
        <ele>1817.6</ele>
        <time>2019-01-07T11:58:33Z</time>
      </trkpt>
      <trkpt lat="42.47756" lon="2.14578">
        <ele>1818.1</ele>
        <time>2019-01-07T11:58:40Z</time>
      </trkpt>
      <trkpt lat="42.47738" lon="2.14589">
        <ele>1818.1</ele>
        <time>2019-01-07T11:58:46Z</time>
      </trkpt>
      <trkpt lat="42.47729" lon="2.14591">
        <ele>1818</ele>
        <time>2019-01-07T11:58:48Z</time>
      </trkpt>
      <trkpt lat="42.47704" lon="2.14596">
        <ele>1819.4</ele>
        <time>2019-01-07T11:58:55Z</time>
      </trkpt>
      <trkpt lat="42.47694" lon="2.14598">
        <ele>1820.4</ele>
        <time>2019-01-07T11:58:57Z</time>
      </trkpt>
      <trkpt lat="42.47686" lon="2.14588">
        <ele>1821.9</ele>
        <time>2019-01-07T11:59:00Z</time>
      </trkpt>
      <trkpt lat="42.47672" lon="2.1458">
        <ele>1824.8</ele>
        <time>2019-01-07T11:59:04Z</time>
      </trkpt>
      <trkpt lat="42.47657" lon="2.14578">
        <ele>1829.6</ele>
        <time>2019-01-07T11:59:08Z</time>
      </trkpt>
      <trkpt lat="42.47653" lon="2.14575">
        <ele>1829.6</ele>
        <time>2019-01-07T11:59:10Z</time>
      </trkpt>
      <trkpt lat="42.47636" lon="2.14566">
        <ele>1832.5</ele>
        <time>2019-01-07T11:59:14Z</time>
      </trkpt>
      <trkpt lat="42.47632" lon="2.14565">
        <ele>1833.5</ele>
        <time>2019-01-07T11:59:15Z</time>
      </trkpt>
      <trkpt lat="42.47631" lon="2.14565">
        <ele>1833.5</ele>
        <time>2019-01-07T11:59:16Z</time>
      </trkpt>
      <trkpt lat="42.4762" lon="2.14561">
        <ele>1836.7</ele>
        <time>2019-01-07T11:59:19Z</time>
      </trkpt>
      <trkpt lat="42.47611" lon="2.14555">
        <ele>1838.3</ele>
        <time>2019-01-07T11:59:22Z</time>
      </trkpt>
      <trkpt lat="42.47596" lon="2.1455">
        <ele>1841.5</ele>
        <time>2019-01-07T11:59:25Z</time>
      </trkpt>
      <trkpt lat="42.47595" lon="2.14552">
        <ele>1843.5</ele>
        <time>2019-01-07T11:59:26Z</time>
      </trkpt>
      <trkpt lat="42.47583" lon="2.14547">
        <ele>1844.4</ele>
        <time>2019-01-07T11:59:29Z</time>
      </trkpt>
      <trkpt lat="42.4758" lon="2.14546">
        <ele>1845</ele>
        <time>2019-01-07T11:59:30Z</time>
      </trkpt>
      <trkpt lat="42.47569" lon="2.14545">
        <ele>1847.4</ele>
        <time>2019-01-07T11:59:33Z</time>
      </trkpt>
      <trkpt lat="42.47562" lon="2.14544">
        <ele>1847.9</ele>
        <time>2019-01-07T11:59:35Z</time>
      </trkpt>
      <trkpt lat="42.47557" lon="2.14543">
        <ele>1848.3</ele>
        <time>2019-01-07T11:59:36Z</time>
      </trkpt>
      <trkpt lat="42.4755" lon="2.14549">
        <ele>1849.7</ele>
        <time>2019-01-07T11:59:38Z</time>
      </trkpt>
      <trkpt lat="42.47533" lon="2.14543">
        <ele>1852.6</ele>
        <time>2019-01-07T11:59:43Z</time>
      </trkpt>
      <trkpt lat="42.47523" lon="2.14542">
        <ele>1854.5</ele>
        <time>2019-01-07T11:59:46Z</time>
      </trkpt>
      <trkpt lat="42.47507" lon="2.14538">
        <ele>1857.4</ele>
        <time>2019-01-07T11:59:50Z</time>
      </trkpt>
      <trkpt lat="42.47501" lon="2.14538">
        <ele>1858.4</ele>
        <time>2019-01-07T11:59:52Z</time>
      </trkpt>
      <trkpt lat="42.47496" lon="2.14541">
        <ele>1859.3</ele>
        <time>2019-01-07T11:59:53Z</time>
      </trkpt>
      <trkpt lat="42.47493" lon="2.14544">
        <ele>1860.8</ele>
        <time>2019-01-07T11:59:54Z</time>
      </trkpt>
      <trkpt lat="42.47487" lon="2.14548">
        <ele>1862.3</ele>
        <time>2019-01-07T11:59:56Z</time>
      </trkpt>
      <trkpt lat="42.47481" lon="2.14551">
        <ele>1864.1</ele>
        <time>2019-01-07T11:59:58Z</time>
      </trkpt>
      <trkpt lat="42.47473" lon="2.1455">
        <ele>1866.2</ele>
        <time>2019-01-07T12:00:00Z</time>
      </trkpt>
      <trkpt lat="42.47473" lon="2.14555">
        <ele>1868</ele>
        <time>2019-01-07T12:00:01Z</time>
      </trkpt>
      <trkpt lat="42.47467" lon="2.14553">
        <ele>1868.9</ele>
        <time>2019-01-07T12:00:02Z</time>
      </trkpt>
      <trkpt lat="42.4745" lon="2.14546">
        <ele>1871.4</ele>
        <time>2019-01-07T12:00:07Z</time>
      </trkpt>
      <trkpt lat="42.47441" lon="2.14548">
        <ele>1875.7</ele>
        <time>2019-01-07T12:00:09Z</time>
      </trkpt>
      <trkpt lat="42.47435" lon="2.14545">
        <ele>1877.6</ele>
        <time>2019-01-07T12:00:11Z</time>
      </trkpt>
      <trkpt lat="42.47431" lon="2.14543">
        <ele>1878.1</ele>
        <time>2019-01-07T12:00:12Z</time>
      </trkpt>
      <trkpt lat="42.47423" lon="2.14541">
        <ele>1880</ele>
        <time>2019-01-07T12:00:15Z</time>
      </trkpt>
      <trkpt lat="42.47419" lon="2.14541">
        <ele>1880.5</ele>
        <time>2019-01-07T12:00:15Z</time>
      </trkpt>
      <trkpt lat="42.47416" lon="2.14539">
        <ele>1881.4</ele>
        <time>2019-01-07T12:00:17Z</time>
      </trkpt>
      <trkpt lat="42.47411" lon="2.14544">
        <ele>1882.5</ele>
        <time>2019-01-07T12:00:18Z</time>
      </trkpt>
      <trkpt lat="42.47409" lon="2.14545">
        <ele>1882.4</ele>
        <time>2019-01-07T12:00:19Z</time>
      </trkpt>
      <trkpt lat="42.47405" lon="2.14547">
        <ele>1883.9</ele>
        <time>2019-01-07T12:00:20Z</time>
      </trkpt>
      <trkpt lat="42.47399" lon="2.14556">
        <ele>1884.4</ele>
        <time>2019-01-07T12:00:22Z</time>
      </trkpt>
      <trkpt lat="42.47392" lon="2.14562">
        <ele>1883.8</ele>
        <time>2019-01-07T12:00:24Z</time>
      </trkpt>
      <trkpt lat="42.47385" lon="2.14564">
        <ele>1884.3</ele>
        <time>2019-01-07T12:00:26Z</time>
      </trkpt>
      <trkpt lat="42.47376" lon="2.14563">
        <ele>1884.4</ele>
        <time>2019-01-07T12:00:29Z</time>
      </trkpt>
      <trkpt lat="42.4737" lon="2.14563">
        <ele>1884.8</ele>
        <time>2019-01-07T12:00:30Z</time>
      </trkpt>
      <trkpt lat="42.47365" lon="2.14566">
        <ele>1886.2</ele>
        <time>2019-01-07T12:00:32Z</time>
      </trkpt>
      <trkpt lat="42.47354" lon="2.14563">
        <ele>1886.8</ele>
        <time>2019-01-07T12:00:35Z</time>
      </trkpt>
      <trkpt lat="42.47348" lon="2.14565">
        <ele>1887.2</ele>
        <time>2019-01-07T12:00:36Z</time>
      </trkpt>
      <trkpt lat="42.47346" lon="2.14566">
        <ele>1887.8</ele>
        <time>2019-01-07T12:00:37Z</time>
      </trkpt>
      <trkpt lat="42.47339" lon="2.14568">
        <ele>1888.7</ele>
        <time>2019-01-07T12:00:39Z</time>
      </trkpt>
      <trkpt lat="42.47331" lon="2.14572">
        <ele>1889.1</ele>
        <time>2019-01-07T12:00:41Z</time>
      </trkpt>
      <trkpt lat="42.47324" lon="2.14573">
        <ele>1890.6</ele>
        <time>2019-01-07T12:00:43Z</time>
      </trkpt>
      <trkpt lat="42.47323" lon="2.14573">
        <ele>1890.2</ele>
        <time>2019-01-07T12:00:43Z</time>
      </trkpt>
      <trkpt lat="42.47307" lon="2.14587">
        <ele>1892.5</ele>
        <time>2019-01-07T12:00:48Z</time>
      </trkpt>
      <trkpt lat="42.473" lon="2.14589">
        <ele>1894.4</ele>
        <time>2019-01-07T12:00:50Z</time>
      </trkpt>
      <trkpt lat="42.47288" lon="2.1459">
        <ele>1895.4</ele>
        <time>2019-01-07T12:00:53Z</time>
      </trkpt>
      <trkpt lat="42.47282" lon="2.14591">
        <ele>1895.4</ele>
        <time>2019-01-07T12:00:55Z</time>
      </trkpt>
      <trkpt lat="42.47261" lon="2.14601">
        <ele>1896</ele>
        <time>2019-01-07T12:01:01Z</time>
      </trkpt>
      <trkpt lat="42.47256" lon="2.14605">
        <ele>1895.5</ele>
        <time>2019-01-07T12:01:02Z</time>
      </trkpt>
      <trkpt lat="42.47254" lon="2.14606">
        <ele>1896.3</ele>
        <time>2019-01-07T12:01:03Z</time>
      </trkpt>
      <trkpt lat="42.47242" lon="2.14603">
        <ele>1897.8</ele>
        <time>2019-01-07T12:01:06Z</time>
      </trkpt>
      <trkpt lat="42.47229" lon="2.14623">
        <ele>1899.3</ele>
        <time>2019-01-07T12:01:12Z</time>
      </trkpt>
      <trkpt lat="42.47222" lon="2.1463">
        <ele>1900.8</ele>
        <time>2019-01-07T12:01:14Z</time>
      </trkpt>
      <trkpt lat="42.47216" lon="2.14635">
        <ele>1900.7</ele>
        <time>2019-01-07T12:01:16Z</time>
      </trkpt>
      <trkpt lat="42.47212" lon="2.14639">
        <ele>1901.7</ele>
        <time>2019-01-07T12:01:17Z</time>
      </trkpt>
      <trkpt lat="42.47204" lon="2.14641">
        <ele>1902.2</ele>
        <time>2019-01-07T12:01:19Z</time>
      </trkpt>
      <trkpt lat="42.47197" lon="2.14643">
        <ele>1902.6</ele>
        <time>2019-01-07T12:01:21Z</time>
      </trkpt>
      <trkpt lat="42.47191" lon="2.14645">
        <ele>1902.1</ele>
        <time>2019-01-07T12:01:23Z</time>
      </trkpt>
      <trkpt lat="42.4718" lon="2.1465">
        <ele>1902.1</ele>
        <time>2019-01-07T12:01:26Z</time>
      </trkpt>
      <trkpt lat="42.47178" lon="2.14655">
        <ele>1902.7</ele>
        <time>2019-01-07T12:01:27Z</time>
      </trkpt>
      <trkpt lat="42.47172" lon="2.14663">
        <ele>1902.2</ele>
        <time>2019-01-07T12:01:29Z</time>
      </trkpt>
      <trkpt lat="42.4717" lon="2.14664">
        <ele>1902.2</ele>
        <time>2019-01-07T12:01:30Z</time>
      </trkpt>
      <trkpt lat="42.47167" lon="2.14669">
        <ele>1902.6</ele>
        <time>2019-01-07T12:01:31Z</time>
      </trkpt>
      <trkpt lat="42.47163" lon="2.14673">
        <ele>1902.1</ele>
        <time>2019-01-07T12:01:32Z</time>
      </trkpt>
      <trkpt lat="42.4716" lon="2.14676">
        <ele>1902.7</ele>
        <time>2019-01-07T12:01:33Z</time>
      </trkpt>
      <trkpt lat="42.47156" lon="2.14681">
        <ele>1902.7</ele>
        <time>2019-01-07T12:01:35Z</time>
      </trkpt>
      <trkpt lat="42.47143" lon="2.14684">
        <ele>1903.5</ele>
        <time>2019-01-07T12:01:38Z</time>
      </trkpt>
      <trkpt lat="42.47134" lon="2.14694">
        <ele>1904</ele>
        <time>2019-01-07T12:01:42Z</time>
      </trkpt>
      <trkpt lat="42.47128" lon="2.14702">
        <ele>1905</ele>
        <time>2019-01-07T12:01:44Z</time>
      </trkpt>
      <trkpt lat="42.47124" lon="2.14706">
        <ele>1905</ele>
        <time>2019-01-07T12:01:45Z</time>
      </trkpt>
      <trkpt lat="42.47118" lon="2.14715">
        <ele>1907.4</ele>
        <time>2019-01-07T12:01:48Z</time>
      </trkpt>
      <trkpt lat="42.47112" lon="2.14718">
        <ele>1908.4</ele>
        <time>2019-01-07T12:01:49Z</time>
      </trkpt>
      <trkpt lat="42.47103" lon="2.14728">
        <ele>1909.9</ele>
        <time>2019-01-07T12:01:52Z</time>
      </trkpt>
      <trkpt lat="42.47097" lon="2.1473">
        <ele>1909.9</ele>
        <time>2019-01-07T12:01:54Z</time>
      </trkpt>
      <trkpt lat="42.47095" lon="2.14732">
        <ele>1910.9</ele>
        <time>2019-01-07T12:01:55Z</time>
      </trkpt>
      <trkpt lat="42.47083" lon="2.14736">
        <ele>1911.2</ele>
        <time>2019-01-07T12:01:58Z</time>
      </trkpt>
      <trkpt lat="42.47077" lon="2.14739">
        <ele>1912.8</ele>
        <time>2019-01-07T12:02:00Z</time>
      </trkpt>
      <trkpt lat="42.47075" lon="2.14741">
        <ele>1912.8</ele>
        <time>2019-01-07T12:02:00Z</time>
      </trkpt>
      <trkpt lat="42.47071" lon="2.14743">
        <ele>1912.7</ele>
        <time>2019-01-07T12:02:01Z</time>
      </trkpt>
      <trkpt lat="42.47067" lon="2.14749">
        <ele>1913.2</ele>
        <time>2019-01-07T12:02:03Z</time>
      </trkpt>
      <trkpt lat="42.47063" lon="2.1475">
        <ele>1913.6</ele>
        <time>2019-01-07T12:02:04Z</time>
      </trkpt>
      <trkpt lat="42.47057" lon="2.14755">
        <ele>1914.1</ele>
        <time>2019-01-07T12:02:06Z</time>
      </trkpt>
      <trkpt lat="42.47047" lon="2.14758">
        <ele>1915.2</ele>
        <time>2019-01-07T12:02:09Z</time>
      </trkpt>
      <trkpt lat="42.47045" lon="2.1476">
        <ele>1915.7</ele>
        <time>2019-01-07T12:02:09Z</time>
      </trkpt>
      <trkpt lat="42.47034" lon="2.1476">
        <ele>1917.1</ele>
        <time>2019-01-07T12:02:12Z</time>
      </trkpt>
      <trkpt lat="42.47019" lon="2.14761">
        <ele>1919.4</ele>
        <time>2019-01-07T12:02:16Z</time>
      </trkpt>
      <trkpt lat="42.47017" lon="2.14763">
        <ele>1920</ele>
        <time>2019-01-07T12:02:17Z</time>
      </trkpt>
      <trkpt lat="42.47009" lon="2.14767">
        <ele>1921.8</ele>
        <time>2019-01-07T12:02:19Z</time>
      </trkpt>
      <trkpt lat="42.46999" lon="2.14768">
        <ele>1923.3</ele>
        <time>2019-01-07T12:02:22Z</time>
      </trkpt>
      <trkpt lat="42.46989" lon="2.14766">
        <ele>1924.2</ele>
        <time>2019-01-07T12:02:24Z</time>
      </trkpt>
      <trkpt lat="42.46986" lon="2.14768">
        <ele>1924.7</ele>
        <time>2019-01-07T12:02:25Z</time>
      </trkpt>
      <trkpt lat="42.46979" lon="2.1477">
        <ele>1925.8</ele>
        <time>2019-01-07T12:02:27Z</time>
      </trkpt>
      <trkpt lat="42.46976" lon="2.1477">
        <ele>1926.1</ele>
        <time>2019-01-07T12:02:28Z</time>
      </trkpt>
      <trkpt lat="42.46965" lon="2.14773">
        <ele>1926.6</ele>
        <time>2019-01-07T12:02:31Z</time>
      </trkpt>
      <trkpt lat="42.46961" lon="2.14773">
        <ele>1927.2</ele>
        <time>2019-01-07T12:02:32Z</time>
      </trkpt>
      <trkpt lat="42.46958" lon="2.14778">
        <ele>1927.1</ele>
        <time>2019-01-07T12:02:33Z</time>
      </trkpt>
      <trkpt lat="42.46955" lon="2.14784">
        <ele>1927.1</ele>
        <time>2019-01-07T12:02:35Z</time>
      </trkpt>
      <trkpt lat="42.46954" lon="2.14787">
        <ele>1927.2</ele>
        <time>2019-01-07T12:02:35Z</time>
      </trkpt>
      <trkpt lat="42.4695" lon="2.14791">
        <ele>1927.2</ele>
        <time>2019-01-07T12:02:37Z</time>
      </trkpt>
      <trkpt lat="42.46947" lon="2.14794">
        <ele>1927.1</ele>
        <time>2019-01-07T12:02:38Z</time>
      </trkpt>
      <trkpt lat="42.46937" lon="2.14801">
        <ele>1926.6</ele>
        <time>2019-01-07T12:02:41Z</time>
      </trkpt>
      <trkpt lat="42.46934" lon="2.14803">
        <ele>1926.1</ele>
        <time>2019-01-07T12:02:42Z</time>
      </trkpt>
      <trkpt lat="42.46925" lon="2.14805">
        <ele>1924.8</ele>
        <time>2019-01-07T12:02:44Z</time>
      </trkpt>
      <trkpt lat="42.46913" lon="2.14818">
        <ele>1924.7</ele>
        <time>2019-01-07T12:02:48Z</time>
      </trkpt>
      <trkpt lat="42.46909" lon="2.14823">
        <ele>1924.8</ele>
        <time>2019-01-07T12:02:50Z</time>
      </trkpt>
      <trkpt lat="42.46903" lon="2.14846">
        <ele>1923.8</ele>
        <time>2019-01-07T12:02:54Z</time>
      </trkpt>
      <trkpt lat="42.46901" lon="2.14847">
        <ele>1924.2</ele>
        <time>2019-01-07T12:02:55Z</time>
      </trkpt>
      <trkpt lat="42.46901" lon="2.14852">
        <ele>1924.7</ele>
        <time>2019-01-07T12:02:56Z</time>
      </trkpt>
      <trkpt lat="42.46888" lon="2.14855">
        <ele>1926.1</ele>
        <time>2019-01-07T12:02:59Z</time>
      </trkpt>
      <trkpt lat="42.46882" lon="2.1486">
        <ele>1926.7</ele>
        <time>2019-01-07T12:03:01Z</time>
      </trkpt>
      <trkpt lat="42.46869" lon="2.14868">
        <ele>1927.7</ele>
        <time>2019-01-07T12:03:05Z</time>
      </trkpt>
      <trkpt lat="42.46854" lon="2.14887">
        <ele>1927.1</ele>
        <time>2019-01-07T12:03:10Z</time>
      </trkpt>
      <trkpt lat="42.46853" lon="2.14902">
        <ele>1929</ele>
        <time>2019-01-07T12:03:13Z</time>
      </trkpt>
      <trkpt lat="42.46834" lon="2.14921">
        <ele>1931.9</ele>
        <time>2019-01-07T12:03:20Z</time>
      </trkpt>
      <trkpt lat="42.46832" lon="2.14925">
        <ele>1932</ele>
        <time>2019-01-07T12:03:21Z</time>
      </trkpt>
      <trkpt lat="42.46832" lon="2.14933">
        <ele>1931.4</ele>
        <time>2019-01-07T12:03:22Z</time>
      </trkpt>
      <trkpt lat="42.46829" lon="2.14937">
        <ele>1932.9</ele>
        <time>2019-01-07T12:03:23Z</time>
      </trkpt>
      <trkpt lat="42.46823" lon="2.14954">
        <ele>1935.8</ele>
        <time>2019-01-07T12:03:27Z</time>
      </trkpt>
      <trkpt lat="42.4682" lon="2.14958">
        <ele>1935.9</ele>
        <time>2019-01-07T12:03:28Z</time>
      </trkpt>
      <trkpt lat="42.46815" lon="2.14962">
        <ele>1936.7</ele>
        <time>2019-01-07T12:03:29Z</time>
      </trkpt>
      <trkpt lat="42.46811" lon="2.14972">
        <ele>1938.3</ele>
        <time>2019-01-07T12:03:32Z</time>
      </trkpt>
      <trkpt lat="42.46807" lon="2.14972">
        <ele>1939.1</ele>
        <time>2019-01-07T12:03:33Z</time>
      </trkpt>
      <trkpt lat="42.468" lon="2.14972">
        <ele>1940.1</ele>
        <time>2019-01-07T12:03:35Z</time>
      </trkpt>
      <trkpt lat="42.46797" lon="2.14978">
        <ele>1940.6</ele>
        <time>2019-01-07T12:03:36Z</time>
      </trkpt>
      <trkpt lat="42.46794" lon="2.14987">
        <ele>1942.6</ele>
        <time>2019-01-07T12:03:38Z</time>
      </trkpt>
      <trkpt lat="42.4679" lon="2.14994">
        <ele>1944</ele>
        <time>2019-01-07T12:03:40Z</time>
      </trkpt>
      <trkpt lat="42.46786" lon="2.15005">
        <ele>1946.3</ele>
        <time>2019-01-07T12:03:42Z</time>
      </trkpt>
      <trkpt lat="42.4678" lon="2.1501">
        <ele>1949.8</ele>
        <time>2019-01-07T12:03:44Z</time>
      </trkpt>
      <trkpt lat="42.46779" lon="2.15012">
        <ele>1951.1</ele>
        <time>2019-01-07T12:03:44Z</time>
      </trkpt>
      <trkpt lat="42.46778" lon="2.1502">
        <ele>1953.5</ele>
        <time>2019-01-07T12:03:46Z</time>
      </trkpt>
      <trkpt lat="42.4677" lon="2.1503">
        <ele>1956.9</ele>
        <time>2019-01-07T12:03:49Z</time>
      </trkpt>
      <trkpt lat="42.46766" lon="2.15045">
        <ele>1958.3</ele>
        <time>2019-01-07T12:03:52Z</time>
      </trkpt>
      <trkpt lat="42.46766" lon="2.15048">
        <ele>1958.8</ele>
        <time>2019-01-07T12:03:53Z</time>
      </trkpt>
      <trkpt lat="42.46765" lon="2.15056">
        <ele>1959.3</ele>
        <time>2019-01-07T12:03:54Z</time>
      </trkpt>
      <trkpt lat="42.46762" lon="2.15058">
        <ele>1959.8</ele>
        <time>2019-01-07T12:03:55Z</time>
      </trkpt>
      <trkpt lat="42.46758" lon="2.15064">
        <ele>1960.7</ele>
        <time>2019-01-07T12:03:57Z</time>
      </trkpt>
      <trkpt lat="42.46751" lon="2.15064">
        <ele>1961.3</ele>
        <time>2019-01-07T12:03:58Z</time>
      </trkpt>
      <trkpt lat="42.4674" lon="2.15077">
        <ele>1962.2</ele>
        <time>2019-01-07T12:04:02Z</time>
      </trkpt>
      <trkpt lat="42.46739" lon="2.15083">
        <ele>1963.1</ele>
        <time>2019-01-07T12:04:03Z</time>
      </trkpt>
      <trkpt lat="42.46735" lon="2.15087">
        <ele>1964.7</ele>
        <time>2019-01-07T12:04:05Z</time>
      </trkpt>
      <trkpt lat="42.4673" lon="2.1509">
        <ele>1965.2</ele>
        <time>2019-01-07T12:04:06Z</time>
      </trkpt>
      <trkpt lat="42.46729" lon="2.15095">
        <ele>1965.6</ele>
        <time>2019-01-07T12:04:07Z</time>
      </trkpt>
      <trkpt lat="42.46726" lon="2.151">
        <ele>1966</ele>
        <time>2019-01-07T12:04:08Z</time>
      </trkpt>
      <trkpt lat="42.46718" lon="2.15115">
        <ele>1967.5</ele>
        <time>2019-01-07T12:04:12Z</time>
      </trkpt>
      <trkpt lat="42.46707" lon="2.1513">
        <ele>1968.9</ele>
        <time>2019-01-07T12:04:16Z</time>
      </trkpt>
      <trkpt lat="42.46706" lon="2.15132">
        <ele>1969.4</ele>
        <time>2019-01-07T12:04:17Z</time>
      </trkpt>
      <trkpt lat="42.46703" lon="2.15136">
        <ele>1970.4</ele>
        <time>2019-01-07T12:04:18Z</time>
      </trkpt>
      <trkpt lat="42.46701" lon="2.15139">
        <ele>1970.8</ele>
        <time>2019-01-07T12:04:19Z</time>
      </trkpt>
      <trkpt lat="42.46698" lon="2.15146">
        <ele>1972.4</ele>
        <time>2019-01-07T12:04:20Z</time>
      </trkpt>
      <trkpt lat="42.46694" lon="2.15148">
        <ele>1972.9</ele>
        <time>2019-01-07T12:04:21Z</time>
      </trkpt>
      <trkpt lat="42.46684" lon="2.15151">
        <ele>1974.8</ele>
        <time>2019-01-07T12:04:24Z</time>
      </trkpt>
      <trkpt lat="42.46681" lon="2.1515">
        <ele>1975.2</ele>
        <time>2019-01-07T12:04:25Z</time>
      </trkpt>
      <trkpt lat="42.46673" lon="2.15149">
        <ele>1975.7</ele>
        <time>2019-01-07T12:04:27Z</time>
      </trkpt>
      <trkpt lat="42.46661" lon="2.1515">
        <ele>1978.1</ele>
        <time>2019-01-07T12:04:30Z</time>
      </trkpt>
      <trkpt lat="42.46651" lon="2.15151">
        <ele>1979</ele>
        <time>2019-01-07T12:04:33Z</time>
      </trkpt>
      <trkpt lat="42.4665" lon="2.15152">
        <ele>1979.5</ele>
        <time>2019-01-07T12:04:33Z</time>
      </trkpt>
      <trkpt lat="42.46634" lon="2.15157">
        <ele>1982.4</ele>
        <time>2019-01-07T12:04:38Z</time>
      </trkpt>
      <trkpt lat="42.46627" lon="2.15158">
        <ele>1985.4</ele>
        <time>2019-01-07T12:04:40Z</time>
      </trkpt>
      <trkpt lat="42.4662" lon="2.1516">
        <ele>1986.7</ele>
        <time>2019-01-07T12:04:42Z</time>
      </trkpt>
      <trkpt lat="42.46619" lon="2.1517">
        <ele>1988.2</ele>
        <time>2019-01-07T12:04:44Z</time>
      </trkpt>
      <trkpt lat="42.46609" lon="2.15168">
        <ele>1989.7</ele>
        <time>2019-01-07T12:04:47Z</time>
      </trkpt>
      <trkpt lat="42.46596" lon="2.15163">
        <ele>1993.4</ele>
        <time>2019-01-07T12:04:50Z</time>
      </trkpt>
      <trkpt lat="42.46589" lon="2.1516">
        <ele>1994.5</ele>
        <time>2019-01-07T12:04:52Z</time>
      </trkpt>
      <trkpt lat="42.46585" lon="2.1516">
        <ele>1996.9</ele>
        <time>2019-01-07T12:04:53Z</time>
      </trkpt>
      <trkpt lat="42.46567" lon="2.15158">
        <ele>1999.8</ele>
        <time>2019-01-07T12:04:58Z</time>
      </trkpt>
      <trkpt lat="42.46563" lon="2.15158">
        <ele>1999.8</ele>
        <time>2019-01-07T12:04:59Z</time>
      </trkpt>
      <trkpt lat="42.46559" lon="2.15158">
        <ele>2000.6</ele>
        <time>2019-01-07T12:05:00Z</time>
      </trkpt>
      <trkpt lat="42.46556" lon="2.1516">
        <ele>2001.1</ele>
        <time>2019-01-07T12:05:01Z</time>
      </trkpt>
      <trkpt lat="42.46547" lon="2.15158">
        <ele>2001.6</ele>
        <time>2019-01-07T12:05:04Z</time>
      </trkpt>
      <trkpt lat="42.46539" lon="2.15156">
        <ele>2004</ele>
        <time>2019-01-07T12:05:06Z</time>
      </trkpt>
      <trkpt lat="42.46528" lon="2.15149">
        <ele>2005.1</ele>
        <time>2019-01-07T12:05:09Z</time>
      </trkpt>
      <trkpt lat="42.46523" lon="2.15143">
        <ele>2006</ele>
        <time>2019-01-07T12:05:11Z</time>
      </trkpt>
      <trkpt lat="42.46519" lon="2.15136">
        <ele>2006.5</ele>
        <time>2019-01-07T12:05:12Z</time>
      </trkpt>
      <trkpt lat="42.46507" lon="2.15114">
        <ele>2006</ele>
        <time>2019-01-07T12:05:18Z</time>
      </trkpt>
      <trkpt lat="42.46492" lon="2.15095">
        <ele>2008.9</ele>
        <time>2019-01-07T12:05:23Z</time>
      </trkpt>
      <trkpt lat="42.46487" lon="2.15089">
        <ele>2010.4</ele>
        <time>2019-01-07T12:05:25Z</time>
      </trkpt>
      <trkpt lat="42.46484" lon="2.15088">
        <ele>2010.3</ele>
        <time>2019-01-07T12:05:26Z</time>
      </trkpt>
      <trkpt lat="42.46472" lon="2.15074">
        <ele>2010.7</ele>
        <time>2019-01-07T12:05:30Z</time>
      </trkpt>
      <trkpt lat="42.46471" lon="2.15072">
        <ele>2011.2</ele>
        <time>2019-01-07T12:05:31Z</time>
      </trkpt>
      <trkpt lat="42.46468" lon="2.15071">
        <ele>2011.2</ele>
        <time>2019-01-07T12:05:31Z</time>
      </trkpt>
      <trkpt lat="42.46446" lon="2.15061">
        <ele>2011.8</ele>
        <time>2019-01-07T12:05:38Z</time>
      </trkpt>
      <trkpt lat="42.46433" lon="2.15065">
        <ele>2014.2</ele>
        <time>2019-01-07T12:05:41Z</time>
      </trkpt>
      <trkpt lat="42.46432" lon="2.15065">
        <ele>2014.2</ele>
        <time>2019-01-07T12:05:41Z</time>
      </trkpt>
      <trkpt lat="42.46423" lon="2.15067">
        <ele>2017</ele>
        <time>2019-01-07T12:05:44Z</time>
      </trkpt>
      <trkpt lat="42.46416" lon="2.1507">
        <ele>2018</ele>
        <time>2019-01-07T12:05:46Z</time>
      </trkpt>
      <trkpt lat="42.46403" lon="2.15067">
        <ele>2019.5</ele>
        <time>2019-01-07T12:05:49Z</time>
      </trkpt>
      <trkpt lat="42.46394" lon="2.15062">
        <ele>2021.4</ele>
        <time>2019-01-07T12:05:52Z</time>
      </trkpt>
      <trkpt lat="42.46385" lon="2.15061">
        <ele>2023.8</ele>
        <time>2019-01-07T12:05:54Z</time>
      </trkpt>
      <trkpt lat="42.4638" lon="2.15064">
        <ele>2024.7</ele>
        <time>2019-01-07T12:05:56Z</time>
      </trkpt>
      <trkpt lat="42.46376" lon="2.15062">
        <ele>2025.6</ele>
        <time>2019-01-07T12:05:57Z</time>
      </trkpt>
      <trkpt lat="42.46367" lon="2.15056">
        <ele>2027.6</ele>
        <time>2019-01-07T12:06:00Z</time>
      </trkpt>
      <trkpt lat="42.46342" lon="2.15061">
        <ele>2029</ele>
        <time>2019-01-07T12:06:06Z</time>
      </trkpt>
      <trkpt lat="42.46323" lon="2.15059">
        <ele>2030</ele>
        <time>2019-01-07T12:06:12Z</time>
      </trkpt>
      <trkpt lat="42.4632" lon="2.15057">
        <ele>2030.9</ele>
        <time>2019-01-07T12:06:12Z</time>
      </trkpt>
      <trkpt lat="42.46304" lon="2.15041">
        <ele>2032.9</ele>
        <time>2019-01-07T12:06:18Z</time>
      </trkpt>
      <trkpt lat="42.463" lon="2.15037">
        <ele>2033.3</ele>
        <time>2019-01-07T12:06:19Z</time>
      </trkpt>
      <trkpt lat="42.46297" lon="2.15034">
        <ele>2034.9</ele>
        <time>2019-01-07T12:06:20Z</time>
      </trkpt>
      <trkpt lat="42.46288" lon="2.15026">
        <ele>2036.3</ele>
        <time>2019-01-07T12:06:23Z</time>
      </trkpt>
      <trkpt lat="42.46279" lon="2.15017">
        <ele>2037.3</ele>
        <time>2019-01-07T12:06:26Z</time>
      </trkpt>
      <trkpt lat="42.46267" lon="2.15009">
        <ele>2039.6</ele>
        <time>2019-01-07T12:06:29Z</time>
      </trkpt>
      <trkpt lat="42.46262" lon="2.15005">
        <ele>2041</ele>
        <time>2019-01-07T12:06:31Z</time>
      </trkpt>
      <trkpt lat="42.46253" lon="2.15001">
        <ele>2043.4</ele>
        <time>2019-01-07T12:06:33Z</time>
      </trkpt>
      <trkpt lat="42.46245" lon="2.14997">
        <ele>2042.6</ele>
        <time>2019-01-07T12:06:36Z</time>
      </trkpt>
      <trkpt lat="42.4624" lon="2.14994">
        <ele>2042.5</ele>
        <time>2019-01-07T12:06:37Z</time>
      </trkpt>
      <trkpt lat="42.46233" lon="2.14992">
        <ele>2043</ele>
        <time>2019-01-07T12:06:39Z</time>
      </trkpt>
      <trkpt lat="42.46229" lon="2.14989">
        <ele>2043.4</ele>
        <time>2019-01-07T12:06:40Z</time>
      </trkpt>
      <trkpt lat="42.46221" lon="2.14988">
        <ele>2044.5</ele>
        <time>2019-01-07T12:06:42Z</time>
      </trkpt>
      <trkpt lat="42.46209" lon="2.14987">
        <ele>2047.4</ele>
        <time>2019-01-07T12:06:46Z</time>
      </trkpt>
      <trkpt lat="42.46205" lon="2.14988">
        <ele>2047.7</ele>
        <time>2019-01-07T12:06:47Z</time>
      </trkpt>
      <trkpt lat="42.462" lon="2.14986">
        <ele>2048.3</ele>
        <time>2019-01-07T12:06:48Z</time>
      </trkpt>
      <trkpt lat="42.46189" lon="2.1499">
        <ele>2049.7</ele>
        <time>2019-01-07T12:06:51Z</time>
      </trkpt>
      <trkpt lat="42.46182" lon="2.14995">
        <ele>2051.1</ele>
        <time>2019-01-07T12:06:53Z</time>
      </trkpt>
      <trkpt lat="42.46175" lon="2.14995">
        <ele>2051.7</ele>
        <time>2019-01-07T12:06:55Z</time>
      </trkpt>
      <trkpt lat="42.46162" lon="2.14993">
        <ele>2054</ele>
        <time>2019-01-07T12:06:59Z</time>
      </trkpt>
      <trkpt lat="42.46153" lon="2.14994">
        <ele>2057</ele>
        <time>2019-01-07T12:07:01Z</time>
      </trkpt>
      <trkpt lat="42.46148" lon="2.14998">
        <ele>2058.4</ele>
        <time>2019-01-07T12:07:03Z</time>
      </trkpt>
      <trkpt lat="42.46148" lon="2.14999">
        <ele>2058.9</ele>
        <time>2019-01-07T12:07:03Z</time>
      </trkpt>
      <trkpt lat="42.46132" lon="2.15004">
        <ele>2060.2</ele>
        <time>2019-01-07T12:07:07Z</time>
      </trkpt>
      <trkpt lat="42.4613" lon="2.15004">
        <ele>2060.2</ele>
        <time>2019-01-07T12:07:08Z</time>
      </trkpt>
      <trkpt lat="42.46115" lon="2.14985">
        <ele>2061.2</ele>
        <time>2019-01-07T12:07:13Z</time>
      </trkpt>
      <trkpt lat="42.46111" lon="2.14974">
        <ele>2061.7</ele>
        <time>2019-01-07T12:07:16Z</time>
      </trkpt>
      <trkpt lat="42.46108" lon="2.14972">
        <ele>2061.7</ele>
        <time>2019-01-07T12:07:16Z</time>
      </trkpt>
      <trkpt lat="42.46105" lon="2.1497">
        <ele>2062.6</ele>
        <time>2019-01-07T12:07:17Z</time>
      </trkpt>
      <trkpt lat="42.4609" lon="2.14957">
        <ele>2066.1</ele>
        <time>2019-01-07T12:07:22Z</time>
      </trkpt>
      <trkpt lat="42.46088" lon="2.14956">
        <ele>2067</ele>
        <time>2019-01-07T12:07:23Z</time>
      </trkpt>
      <trkpt lat="42.46081" lon="2.14951">
        <ele>2069.5</ele>
        <time>2019-01-07T12:07:25Z</time>
      </trkpt>
      <trkpt lat="42.46076" lon="2.14953">
        <ele>2070.4</ele>
        <time>2019-01-07T12:07:26Z</time>
      </trkpt>
      <trkpt lat="42.4607" lon="2.14954">
        <ele>2071.4</ele>
        <time>2019-01-07T12:07:28Z</time>
      </trkpt>
      <trkpt lat="42.4606" lon="2.14935">
        <ele>2072.3</ele>
        <time>2019-01-07T12:07:32Z</time>
      </trkpt>
      <trkpt lat="42.46051" lon="2.14925">
        <ele>2074.8</ele>
        <time>2019-01-07T12:07:35Z</time>
      </trkpt>
      <trkpt lat="42.46048" lon="2.14923">
        <ele>2075.6</ele>
        <time>2019-01-07T12:07:36Z</time>
      </trkpt>
      <trkpt lat="42.46041" lon="2.14913">
        <ele>2078.6</ele>
        <time>2019-01-07T12:07:39Z</time>
      </trkpt>
      <trkpt lat="42.46036" lon="2.1491">
        <ele>2079.9</ele>
        <time>2019-01-07T12:07:41Z</time>
      </trkpt>
      <trkpt lat="42.46035" lon="2.14906">
        <ele>2081.9</ele>
        <time>2019-01-07T12:07:41Z</time>
      </trkpt>
      <trkpt lat="42.46027" lon="2.14896">
        <ele>2083.9</ele>
        <time>2019-01-07T12:07:44Z</time>
      </trkpt>
      <trkpt lat="42.46026" lon="2.14891">
        <ele>2084.8</ele>
        <time>2019-01-07T12:07:45Z</time>
      </trkpt>
      <trkpt lat="42.46024" lon="2.14883">
        <ele>2086.3</ele>
        <time>2019-01-07T12:07:47Z</time>
      </trkpt>
      <trkpt lat="42.4602" lon="2.14877">
        <ele>2087.3</ele>
        <time>2019-01-07T12:07:48Z</time>
      </trkpt>
      <trkpt lat="42.46" lon="2.14869">
        <ele>2089.7</ele>
        <time>2019-01-07T12:07:54Z</time>
      </trkpt>
      <trkpt lat="42.45994" lon="2.14864">
        <ele>2090.1</ele>
        <time>2019-01-07T12:07:56Z</time>
      </trkpt>
      <trkpt lat="42.45987" lon="2.14855">
        <ele>2091.1</ele>
        <time>2019-01-07T12:07:58Z</time>
      </trkpt>
      <trkpt lat="42.4598" lon="2.14857">
        <ele>2092</ele>
        <time>2019-01-07T12:08:00Z</time>
      </trkpt>
      <trkpt lat="42.4597" lon="2.1485">
        <ele>2093.4</ele>
        <time>2019-01-07T12:08:03Z</time>
      </trkpt>
      <trkpt lat="42.45957" lon="2.14846">
        <ele>2096.3</ele>
        <time>2019-01-07T12:08:07Z</time>
      </trkpt>
      <trkpt lat="42.45944" lon="2.14842">
        <ele>2099.2</ele>
        <time>2019-01-07T12:08:10Z</time>
      </trkpt>
      <trkpt lat="42.45926" lon="2.14833">
        <ele>2101.7</ele>
        <time>2019-01-07T12:08:15Z</time>
      </trkpt>
      <trkpt lat="42.45918" lon="2.14827">
        <ele>2105</ele>
        <time>2019-01-07T12:08:18Z</time>
      </trkpt>
      <trkpt lat="42.45908" lon="2.14826">
        <ele>2107</ele>
        <time>2019-01-07T12:08:21Z</time>
      </trkpt>
      <trkpt lat="42.45907" lon="2.14826">
        <ele>2107.4</ele>
        <time>2019-01-07T12:08:21Z</time>
      </trkpt>
      <trkpt lat="42.45899" lon="2.14827">
        <ele>2110.3</ele>
        <time>2019-01-07T12:08:23Z</time>
      </trkpt>
      <trkpt lat="42.45872" lon="2.14828">
        <ele>2112.7</ele>
        <time>2019-01-07T12:08:30Z</time>
      </trkpt>
      <trkpt lat="42.45867" lon="2.14831">
        <ele>2112.7</ele>
        <time>2019-01-07T12:08:32Z</time>
      </trkpt>
      <trkpt lat="42.45854" lon="2.14828">
        <ele>2114.2</ele>
        <time>2019-01-07T12:08:35Z</time>
      </trkpt>
      <trkpt lat="42.45843" lon="2.14829">
        <ele>2115</ele>
        <time>2019-01-07T12:08:38Z</time>
      </trkpt>
      <trkpt lat="42.45835" lon="2.14831">
        <ele>2115</ele>
        <time>2019-01-07T12:08:41Z</time>
      </trkpt>
      <trkpt lat="42.45829" lon="2.14831">
        <ele>2116</ele>
        <time>2019-01-07T12:08:42Z</time>
      </trkpt>
      <trkpt lat="42.45825" lon="2.14829">
        <ele>2117.4</ele>
        <time>2019-01-07T12:08:43Z</time>
      </trkpt>
      <trkpt lat="42.45819" lon="2.14825">
        <ele>2119.4</ele>
        <time>2019-01-07T12:08:45Z</time>
      </trkpt>
      <trkpt lat="42.45812" lon="2.14823">
        <ele>2122.2</ele>
        <time>2019-01-07T12:08:47Z</time>
      </trkpt>
      <trkpt lat="42.45808" lon="2.1482">
        <ele>2123.3</ele>
        <time>2019-01-07T12:08:48Z</time>
      </trkpt>
      <trkpt lat="42.45803" lon="2.14816">
        <ele>2127.2</ele>
        <time>2019-01-07T12:08:50Z</time>
      </trkpt>
      <trkpt lat="42.45795" lon="2.14812">
        <ele>2128.6</ele>
        <time>2019-01-07T12:08:52Z</time>
      </trkpt>
      <trkpt lat="42.4578" lon="2.14807">
        <ele>2131</ele>
        <time>2019-01-07T12:08:56Z</time>
      </trkpt>
      <trkpt lat="42.45809" lon="2.14824">
        <ele>2146.8</ele>
        <time>2019-01-07T12:09:04Z</time>
      </trkpt>
      <trkpt lat="42.45808" lon="2.14822">
        <ele>2146.4</ele>
        <time>2019-01-07T12:09:05Z</time>
      </trkpt>
      <trkpt lat="42.45802" lon="2.1482">
        <ele>2148.7</ele>
        <time>2019-01-07T12:09:06Z</time>
      </trkpt>
      <trkpt lat="42.458" lon="2.14816">
        <ele>2151.1</ele>
        <time>2019-01-07T12:09:07Z</time>
      </trkpt>
      <trkpt lat="42.45794" lon="2.14815">
        <ele>2147.7</ele>
        <time>2019-01-07T12:09:09Z</time>
      </trkpt>
      <trkpt lat="42.4579" lon="2.14811">
        <ele>2145.4</ele>
        <time>2019-01-07T12:09:10Z</time>
      </trkpt>
      <trkpt lat="42.45787" lon="2.1481">
        <ele>2144.4</ele>
        <time>2019-01-07T12:09:11Z</time>
      </trkpt>
      <trkpt lat="42.45779" lon="2.14804">
        <ele>2145.4</ele>
        <time>2019-01-07T12:09:14Z</time>
      </trkpt>
      <trkpt lat="42.45767" lon="2.14795">
        <ele>2142.4</ele>
        <time>2019-01-07T12:09:17Z</time>
      </trkpt>
      <trkpt lat="42.45755" lon="2.1479">
        <ele>2145.8</ele>
        <time>2019-01-07T12:09:20Z</time>
      </trkpt>
      <trkpt lat="42.45746" lon="2.14781">
        <ele>2148.3</ele>
        <time>2019-01-07T12:09:24Z</time>
      </trkpt>
      <trkpt lat="42.45738" lon="2.14775">
        <ele>2149.6</ele>
        <time>2019-01-07T12:09:26Z</time>
      </trkpt>
      <trkpt lat="42.45728" lon="2.14777">
        <ele>2149.3</ele>
        <time>2019-01-07T12:09:29Z</time>
      </trkpt>
      <trkpt lat="42.45727" lon="2.14776">
        <ele>2149.6</ele>
        <time>2019-01-07T12:09:29Z</time>
      </trkpt>
      <trkpt lat="42.4572" lon="2.1477">
        <ele>2149.6</ele>
        <time>2019-01-07T12:09:31Z</time>
      </trkpt>
      <trkpt lat="42.45716" lon="2.14757">
        <ele>2152</ele>
        <time>2019-01-07T12:09:34Z</time>
      </trkpt>
      <trkpt lat="42.45712" lon="2.14753">
        <ele>2154.1</ele>
        <time>2019-01-07T12:09:35Z</time>
      </trkpt>
      <trkpt lat="42.45707" lon="2.14743">
        <ele>2157.9</ele>
        <time>2019-01-07T12:09:38Z</time>
      </trkpt>
      <trkpt lat="42.45707" lon="2.14742">
        <ele>2158.3</ele>
        <time>2019-01-07T12:09:38Z</time>
      </trkpt>
      <trkpt lat="42.45707" lon="2.14727">
        <ele>2158.3</ele>
        <time>2019-01-07T12:09:41Z</time>
      </trkpt>
      <trkpt lat="42.45702" lon="2.1472">
        <ele>2159.3</ele>
        <time>2019-01-07T12:09:43Z</time>
      </trkpt>
      <trkpt lat="42.45695" lon="2.14711">
        <ele>2160.3</ele>
        <time>2019-01-07T12:09:45Z</time>
      </trkpt>
      <trkpt lat="42.45688" lon="2.14699">
        <ele>2161.3</ele>
        <time>2019-01-07T12:09:48Z</time>
      </trkpt>
      <trkpt lat="42.45687" lon="2.14697">
        <ele>2160.8</ele>
        <time>2019-01-07T12:09:49Z</time>
      </trkpt>
      <trkpt lat="42.4568" lon="2.14688">
        <ele>2162.1</ele>
        <time>2019-01-07T12:09:51Z</time>
      </trkpt>
      <trkpt lat="42.45683" lon="2.14677">
        <ele>2165.5</ele>
        <time>2019-01-07T12:09:54Z</time>
      </trkpt>
      <trkpt lat="42.45688" lon="2.14663">
        <ele>2169</ele>
        <time>2019-01-07T12:09:57Z</time>
      </trkpt>
      <trkpt lat="42.45692" lon="2.14657">
        <ele>2170.8</ele>
        <time>2019-01-07T12:09:58Z</time>
      </trkpt>
      <trkpt lat="42.45692" lon="2.14656">
        <ele>2171.4</ele>
        <time>2019-01-07T12:09:59Z</time>
      </trkpt>
      <trkpt lat="42.45692" lon="2.14646">
        <ele>2172.8</ele>
        <time>2019-01-07T12:10:01Z</time>
      </trkpt>
      <trkpt lat="42.45695" lon="2.14638">
        <ele>2174.3</ele>
        <time>2019-01-07T12:10:02Z</time>
      </trkpt>
      <trkpt lat="42.45696" lon="2.14635">
        <ele>2175.6</ele>
        <time>2019-01-07T12:10:03Z</time>
      </trkpt>
      <trkpt lat="42.45698" lon="2.14631">
        <ele>2176.6</ele>
        <time>2019-01-07T12:10:04Z</time>
      </trkpt>
      <trkpt lat="42.45702" lon="2.14629">
        <ele>2178</ele>
        <time>2019-01-07T12:10:05Z</time>
      </trkpt>
      <trkpt lat="42.45704" lon="2.14627">
        <ele>2179.9</ele>
        <time>2019-01-07T12:10:06Z</time>
      </trkpt>
      <trkpt lat="42.45709" lon="2.14627">
        <ele>2181.8</ele>
        <time>2019-01-07T12:10:07Z</time>
      </trkpt>
      <trkpt lat="42.45715" lon="2.14629">
        <ele>2183.8</ele>
        <time>2019-01-07T12:10:09Z</time>
      </trkpt>
      <trkpt lat="42.45717" lon="2.14628">
        <ele>2183.4</ele>
        <time>2019-01-07T12:10:09Z</time>
      </trkpt>
      <trkpt lat="42.45721" lon="2.14628">
        <ele>2183.4</ele>
        <time>2019-01-07T12:10:10Z</time>
      </trkpt>
      <trkpt lat="42.45719" lon="2.14624">
        <ele>2183.9</ele>
        <time>2019-01-07T12:10:11Z</time>
      </trkpt>
      <trkpt lat="42.4572" lon="2.1462">
        <ele>2185.2</ele>
        <time>2019-01-07T12:10:12Z</time>
      </trkpt>
      <trkpt lat="42.45722" lon="2.14616">
        <ele>2185.7</ele>
        <time>2019-01-07T12:10:13Z</time>
      </trkpt>
      <trkpt lat="42.4572" lon="2.14614">
        <ele>2183.9</ele>
        <time>2019-01-07T12:10:14Z</time>
      </trkpt>
      <trkpt lat="42.45721" lon="2.14609">
        <ele>2185.2</ele>
        <time>2019-01-07T12:10:15Z</time>
      </trkpt>
      <trkpt lat="42.45722" lon="2.14605">
        <ele>2186.8</ele>
        <time>2019-01-07T12:10:15Z</time>
      </trkpt>
      <trkpt lat="42.45725" lon="2.14603">
        <ele>2187.1</ele>
        <time>2019-01-07T12:10:16Z</time>
      </trkpt>
      <trkpt lat="42.45728" lon="2.14602">
        <ele>2189.1</ele>
        <time>2019-01-07T12:10:17Z</time>
      </trkpt>
      <trkpt lat="42.45726" lon="2.146">
        <ele>2191.5</ele>
        <time>2019-01-07T12:10:18Z</time>
      </trkpt>
      <trkpt lat="42.45727" lon="2.14599">
        <ele>2193.5</ele>
        <time>2019-01-07T12:10:18Z</time>
      </trkpt>
      <trkpt lat="42.45731" lon="2.14596">
        <ele>2196.4</ele>
        <time>2019-01-07T12:10:19Z</time>
      </trkpt>
      <trkpt lat="42.45733" lon="2.14594">
        <ele>2198.7</ele>
        <time>2019-01-07T12:10:20Z</time>
      </trkpt>
      <trkpt lat="42.45734" lon="2.14594">
        <ele>2200.2</ele>
        <time>2019-01-07T12:10:20Z</time>
      </trkpt>
      <trkpt lat="42.45733" lon="2.14593">
        <ele>2205.5</ele>
        <time>2019-01-07T12:10:21Z</time>
      </trkpt>
      <trkpt lat="42.45733" lon="2.14593">
        <ele>2205.9</ele>
        <time>2019-01-07T12:10:21Z</time>
      </trkpt>
      <trkpt lat="42.45736" lon="2.14592">
        <ele>2208.9</ele>
        <time>2019-01-07T12:10:22Z</time>
      </trkpt>
      <trkpt lat="42.45739" lon="2.14588">
        <ele>2213.2</ele>
        <time>2019-01-07T12:10:23Z</time>
      </trkpt>
      <trkpt lat="42.45742" lon="2.14586">
        <ele>2214.5</ele>
        <time>2019-01-07T12:10:24Z</time>
      </trkpt>
      <trkpt lat="42.45744" lon="2.14582">
        <ele>2215.5</ele>
        <time>2019-01-07T12:10:25Z</time>
      </trkpt>
      <trkpt lat="42.45746" lon="2.14579">
        <ele>2219.8</ele>
        <time>2019-01-07T12:10:26Z</time>
      </trkpt>
      <trkpt lat="42.45749" lon="2.14576">
        <ele>2218</ele>
        <time>2019-01-07T12:10:27Z</time>
      </trkpt>
      <trkpt lat="42.45751" lon="2.14572">
        <ele>2218.4</ele>
        <time>2019-01-07T12:10:28Z</time>
      </trkpt>
      <trkpt lat="42.45753" lon="2.14569">
        <ele>2218.4</ele>
        <time>2019-01-07T12:10:28Z</time>
      </trkpt>
      <trkpt lat="42.45756" lon="2.14562">
        <ele>2217.5</ele>
        <time>2019-01-07T12:10:30Z</time>
      </trkpt>
      <trkpt lat="42.45755" lon="2.14559">
        <ele>2222.3</ele>
        <time>2019-01-07T12:10:30Z</time>
      </trkpt>
      <trkpt lat="42.45753" lon="2.14556">
        <ele>2209.8</ele>
        <time>2019-01-07T12:10:31Z</time>
      </trkpt>
      <trkpt lat="42.45754" lon="2.14547">
        <ele>2206.5</ele>
        <time>2019-01-07T12:10:33Z</time>
      </trkpt>
      <trkpt lat="42.45754" lon="2.14545">
        <ele>2205.5</ele>
        <time>2019-01-07T12:10:34Z</time>
      </trkpt>
      <trkpt lat="42.45755" lon="2.14542">
        <ele>2205.5</ele>
        <time>2019-01-07T12:10:34Z</time>
      </trkpt>
      <trkpt lat="42.45756" lon="2.1454">
        <ele>2206.4</ele>
        <time>2019-01-07T12:10:35Z</time>
      </trkpt>
      <trkpt lat="42.45755" lon="2.14533">
        <ele>2209.3</ele>
        <time>2019-01-07T12:10:36Z</time>
      </trkpt>
      <trkpt lat="42.45755" lon="2.14526">
        <ele>2209.4</ele>
        <time>2019-01-07T12:10:37Z</time>
      </trkpt>
      <trkpt lat="42.45755" lon="2.14523">
        <ele>2211.7</ele>
        <time>2019-01-07T12:10:38Z</time>
      </trkpt>
      <trkpt lat="42.45753" lon="2.14516">
        <ele>2213.1</ele>
        <time>2019-01-07T12:10:39Z</time>
      </trkpt>
      <trkpt lat="42.45752" lon="2.14507">
        <ele>2214.5</ele>
        <time>2019-01-07T12:10:41Z</time>
      </trkpt>
      <trkpt lat="42.45751" lon="2.14501">
        <ele>2218.5</ele>
        <time>2019-01-07T12:10:42Z</time>
      </trkpt>
      <trkpt lat="42.45752" lon="2.14494">
        <ele>2222.2</ele>
        <time>2019-01-07T12:10:44Z</time>
      </trkpt>
      <trkpt lat="42.45752" lon="2.1449">
        <ele>2223.8</ele>
        <time>2019-01-07T12:10:45Z</time>
      </trkpt>
      <trkpt lat="42.45754" lon="2.14481">
        <ele>2226.7</ele>
        <time>2019-01-07T12:10:46Z</time>
      </trkpt>
      <trkpt lat="42.45755" lon="2.1448">
        <ele>2227.6</ele>
        <time>2019-01-07T12:10:47Z</time>
      </trkpt>
      <trkpt lat="42.45756" lon="2.14472">
        <ele>2228</ele>
        <time>2019-01-07T12:10:48Z</time>
      </trkpt>
      <trkpt lat="42.45759" lon="2.14463">
        <ele>2230.9</ele>
        <time>2019-01-07T12:10:50Z</time>
      </trkpt>
      <trkpt lat="42.45759" lon="2.14451">
        <ele>2232.4</ele>
        <time>2019-01-07T12:10:53Z</time>
      </trkpt>
      <trkpt lat="42.4576" lon="2.14444">
        <ele>2231.9</ele>
        <time>2019-01-07T12:10:54Z</time>
      </trkpt>
      <trkpt lat="42.4576" lon="2.14437">
        <ele>2230.5</ele>
        <time>2019-01-07T12:10:55Z</time>
      </trkpt>
      <trkpt lat="42.45765" lon="2.14428">
        <ele>2232.8</ele>
        <time>2019-01-07T12:10:58Z</time>
      </trkpt>
      <trkpt lat="42.45766" lon="2.14427">
        <ele>2236.2</ele>
        <time>2019-01-07T12:10:58Z</time>
      </trkpt>
      <trkpt lat="42.45763" lon="2.14424">
        <ele>2240.5</ele>
        <time>2019-01-07T12:10:59Z</time>
      </trkpt>
      <trkpt lat="42.45762" lon="2.14419">
        <ele>2243.5</ele>
        <time>2019-01-07T12:11:00Z</time>
      </trkpt>
      <trkpt lat="42.45761" lon="2.14417">
        <ele>2244.9</ele>
        <time>2019-01-07T12:11:00Z</time>
      </trkpt>
      <trkpt lat="42.4576" lon="2.14414">
        <ele>2246.8</ele>
        <time>2019-01-07T12:11:01Z</time>
      </trkpt>
      <trkpt lat="42.4576" lon="2.14409">
        <ele>2246.3</ele>
        <time>2019-01-07T12:11:02Z</time>
      </trkpt>
      <trkpt lat="42.4576" lon="2.14404">
        <ele>2245.8</ele>
        <time>2019-01-07T12:11:03Z</time>
      </trkpt>
      <trkpt lat="42.45758" lon="2.14398">
        <ele>2244.4</ele>
        <time>2019-01-07T12:11:04Z</time>
      </trkpt>
      <trkpt lat="42.45757" lon="2.14396">
        <ele>2247.8</ele>
        <time>2019-01-07T12:11:05Z</time>
      </trkpt>
      <trkpt lat="42.45758" lon="2.14392">
        <ele>2250.2</ele>
        <time>2019-01-07T12:11:05Z</time>
      </trkpt>
      <trkpt lat="42.45758" lon="2.14389">
        <ele>2254</ele>
        <time>2019-01-07T12:11:06Z</time>
      </trkpt>
      <trkpt lat="42.45756" lon="2.14384">
        <ele>2254.5</ele>
        <time>2019-01-07T12:11:07Z</time>
      </trkpt>
      <trkpt lat="42.45755" lon="2.14382">
        <ele>2253.5</ele>
        <time>2019-01-07T12:11:07Z</time>
      </trkpt>
      <trkpt lat="42.45755" lon="2.14377">
        <ele>2253.1</ele>
        <time>2019-01-07T12:11:09Z</time>
      </trkpt>
      <trkpt lat="42.45754" lon="2.14372">
        <ele>2254.4</ele>
        <time>2019-01-07T12:11:10Z</time>
      </trkpt>
      <trkpt lat="42.45754" lon="2.14369">
        <ele>2264.6</ele>
        <time>2019-01-07T12:11:10Z</time>
      </trkpt>
      <trkpt lat="42.45755" lon="2.14368">
        <ele>2267.4</ele>
        <time>2019-01-07T12:11:10Z</time>
      </trkpt>
      <trkpt lat="42.45754" lon="2.14361">
        <ele>2270.8</ele>
        <time>2019-01-07T12:11:12Z</time>
      </trkpt>
      <trkpt lat="42.45754" lon="2.14359">
        <ele>2272.2</ele>
        <time>2019-01-07T12:11:12Z</time>
      </trkpt>
      <trkpt lat="42.45753" lon="2.14353">
        <ele>2272.3</ele>
        <time>2019-01-07T12:11:13Z</time>
      </trkpt>
      <trkpt lat="42.45753" lon="2.14348">
        <ele>2268.9</ele>
        <time>2019-01-07T12:11:14Z</time>
      </trkpt>
      <trkpt lat="42.45752" lon="2.14342">
        <ele>2269.3</ele>
        <time>2019-01-07T12:11:16Z</time>
      </trkpt>
      <trkpt lat="42.45752" lon="2.14338">
        <ele>2276.6</ele>
        <time>2019-01-07T12:11:16Z</time>
      </trkpt>
      <trkpt lat="42.45751" lon="2.14335">
        <ele>2280</ele>
        <time>2019-01-07T12:11:17Z</time>
      </trkpt>
      <trkpt lat="42.45751" lon="2.14332">
        <ele>2280.9</ele>
        <time>2019-01-07T12:11:18Z</time>
      </trkpt>
      <trkpt lat="42.45752" lon="2.1433">
        <ele>2284.8</ele>
        <time>2019-01-07T12:11:18Z</time>
      </trkpt>
      <trkpt lat="42.45752" lon="2.14326">
        <ele>2287.6</ele>
        <time>2019-01-07T12:11:19Z</time>
      </trkpt>
      <trkpt lat="42.45753" lon="2.14325">
        <ele>2289</ele>
        <time>2019-01-07T12:11:19Z</time>
      </trkpt>
      <trkpt lat="42.45754" lon="2.14321">
        <ele>2291</ele>
        <time>2019-01-07T12:11:20Z</time>
      </trkpt>
      <trkpt lat="42.45754" lon="2.14318">
        <ele>2293</ele>
        <time>2019-01-07T12:11:21Z</time>
      </trkpt>
      <trkpt lat="42.45754" lon="2.14315">
        <ele>2292.9</ele>
        <time>2019-01-07T12:11:21Z</time>
      </trkpt>
      <trkpt lat="42.45754" lon="2.14308">
        <ele>2291.1</ele>
        <time>2019-01-07T12:11:23Z</time>
      </trkpt>
      <trkpt lat="42.4575" lon="2.14309">
        <ele>2295.8</ele>
        <time>2019-01-07T12:11:24Z</time>
      </trkpt>
      <trkpt lat="42.4575" lon="2.14308">
        <ele>2296.3</ele>
        <time>2019-01-07T12:11:24Z</time>
      </trkpt>
      <trkpt lat="42.45752" lon="2.14304">
        <ele>2299.2</ele>
        <time>2019-01-07T12:11:25Z</time>
      </trkpt>
      <trkpt lat="42.45752" lon="2.143">
        <ele>2300.6</ele>
        <time>2019-01-07T12:11:26Z</time>
      </trkpt>
      <trkpt lat="42.45752" lon="2.14297">
        <ele>2302.1</ele>
        <time>2019-01-07T12:11:26Z</time>
      </trkpt>
      <trkpt lat="42.45752" lon="2.14293">
        <ele>2305.5</ele>
        <time>2019-01-07T12:11:27Z</time>
      </trkpt>
      <trkpt lat="42.45752" lon="2.14291">
        <ele>2306.3</ele>
        <time>2019-01-07T12:11:28Z</time>
      </trkpt>
      <trkpt lat="42.45756" lon="2.14286">
        <ele>2311.6</ele>
        <time>2019-01-07T12:11:29Z</time>
      </trkpt>
      <trkpt lat="42.45755" lon="2.14285">
        <ele>2312.1</ele>
        <time>2019-01-07T12:11:29Z</time>
      </trkpt>
      <trkpt lat="42.45755" lon="2.14285">
        <ele>2315.1</ele>
        <time>2019-01-07T12:11:29Z</time>
      </trkpt>
      <trkpt lat="42.45754" lon="2.14283">
        <ele>2316.5</ele>
        <time>2019-01-07T12:11:30Z</time>
      </trkpt>
      <trkpt lat="42.45754" lon="2.14281">
        <ele>2317.9</ele>
        <time>2019-01-07T12:11:30Z</time>
      </trkpt>
      <trkpt lat="42.45753" lon="2.14279">
        <ele>2318.9</ele>
        <time>2019-01-07T12:11:31Z</time>
      </trkpt>
      <trkpt lat="42.45753" lon="2.14277">
        <ele>2321.3</ele>
        <time>2019-01-07T12:11:31Z</time>
      </trkpt>
      <trkpt lat="42.45751" lon="2.14274">
        <ele>2320.3</ele>
        <time>2019-01-07T12:11:32Z</time>
      </trkpt>
      <trkpt lat="42.45751" lon="2.1427">
        <ele>2318.9</ele>
        <time>2019-01-07T12:11:33Z</time>
      </trkpt>
      <trkpt lat="42.45752" lon="2.14267">
        <ele>2319.9</ele>
        <time>2019-01-07T12:11:33Z</time>
      </trkpt>
      <trkpt lat="42.45751" lon="2.14264">
        <ele>2322.2</ele>
        <time>2019-01-07T12:11:34Z</time>
      </trkpt>
      <trkpt lat="42.45751" lon="2.14261">
        <ele>2325.1</ele>
        <time>2019-01-07T12:11:35Z</time>
      </trkpt>
      <trkpt lat="42.45751" lon="2.1426">
        <ele>2326.5</ele>
        <time>2019-01-07T12:11:35Z</time>
      </trkpt>
      <trkpt lat="42.45752" lon="2.14255">
        <ele>2326.1</ele>
        <time>2019-01-07T12:11:36Z</time>
      </trkpt>
      <trkpt lat="42.45753" lon="2.14252">
        <ele>2326.2</ele>
        <time>2019-01-07T12:11:37Z</time>
      </trkpt>
      <trkpt lat="42.45755" lon="2.14251">
        <ele>2325.7</ele>
        <time>2019-01-07T12:11:37Z</time>
      </trkpt>
      <trkpt lat="42.45755" lon="2.14247">
        <ele>2330.5</ele>
        <time>2019-01-07T12:11:38Z</time>
      </trkpt>
      <trkpt lat="42.45755" lon="2.14245">
        <ele>2334.8</ele>
        <time>2019-01-07T12:11:38Z</time>
      </trkpt>
      <trkpt lat="42.45756" lon="2.14242">
        <ele>2334.2</ele>
        <time>2019-01-07T12:11:39Z</time>
      </trkpt>
      <trkpt lat="42.45757" lon="2.14239">
        <ele>2339.5</ele>
        <time>2019-01-07T12:11:40Z</time>
      </trkpt>
      <trkpt lat="42.45759" lon="2.14238">
        <ele>2343</ele>
        <time>2019-01-07T12:11:40Z</time>
      </trkpt>
      <trkpt lat="42.45761" lon="2.14239">
        <ele>2344.8</ele>
        <time>2019-01-07T12:11:41Z</time>
      </trkpt>
      <trkpt lat="42.45764" lon="2.14241">
        <ele>2353</ele>
        <time>2019-01-07T12:11:42Z</time>
      </trkpt>
      <trkpt lat="42.45766" lon="2.14238">
        <ele>2351</ele>
        <time>2019-01-07T12:11:43Z</time>
      </trkpt>
      <trkpt lat="42.45768" lon="2.14239">
        <ele>2350.6</ele>
        <time>2019-01-07T12:11:43Z</time>
      </trkpt>
      <trkpt lat="42.45771" lon="2.14236">
        <ele>2347.8</ele>
        <time>2019-01-07T12:11:44Z</time>
      </trkpt>
      <trkpt lat="42.45773" lon="2.14236">
        <ele>2344.9</ele>
        <time>2019-01-07T12:11:44Z</time>
      </trkpt>
      <trkpt lat="42.45776" lon="2.14237">
        <ele>2348.2</ele>
        <time>2019-01-07T12:11:45Z</time>
      </trkpt>
      <trkpt lat="42.45776" lon="2.14237">
        <ele>2348.2</ele>
        <time>2019-01-07T12:11:45Z</time>
      </trkpt>
      <trkpt lat="42.45778" lon="2.1424">
        <ele>2350.7</ele>
        <time>2019-01-07T12:11:46Z</time>
      </trkpt>
      <trkpt lat="42.45777" lon="2.14243">
        <ele>2350.6</ele>
        <time>2019-01-07T12:11:47Z</time>
      </trkpt>
      <trkpt lat="42.45779" lon="2.14242">
        <ele>2351.5</ele>
        <time>2019-01-07T12:11:47Z</time>
      </trkpt>
      <trkpt lat="42.45782" lon="2.1424">
        <ele>2356.8</ele>
        <time>2019-01-07T12:11:48Z</time>
      </trkpt>
      <trkpt lat="42.45785" lon="2.14238">
        <ele>2361.6</ele>
        <time>2019-01-07T12:11:49Z</time>
      </trkpt>
      <trkpt lat="42.45782" lon="2.14236">
        <ele>2369.4</ele>
        <time>2019-01-07T12:11:50Z</time>
      </trkpt>
      <trkpt lat="42.45781" lon="2.14234">
        <ele>2370.7</ele>
        <time>2019-01-07T12:11:51Z</time>
      </trkpt>
      <trkpt lat="42.45779" lon="2.1423">
        <ele>2370.4</ele>
        <time>2019-01-07T12:11:52Z</time>
      </trkpt>
      <trkpt lat="42.45779" lon="2.14223">
        <ele>2365.5</ele>
        <time>2019-01-07T12:11:53Z</time>
      </trkpt>
      <trkpt lat="42.45779" lon="2.1422">
        <ele>2370.7</ele>
        <time>2019-01-07T12:11:54Z</time>
      </trkpt>
      <trkpt lat="42.45781" lon="2.14218">
        <ele>2375.2</ele>
        <time>2019-01-07T12:11:54Z</time>
      </trkpt>
      <trkpt lat="42.45782" lon="2.14216">
        <ele>2374.1</ele>
        <time>2019-01-07T12:11:55Z</time>
      </trkpt>
      <trkpt lat="42.45782" lon="2.14214">
        <ele>2372.8</ele>
        <time>2019-01-07T12:11:55Z</time>
      </trkpt>
      <trkpt lat="42.45779" lon="2.14212">
        <ele>2366.5</ele>
        <time>2019-01-07T12:11:56Z</time>
      </trkpt>
      <trkpt lat="42.45778" lon="2.1421">
        <ele>2365</ele>
        <time>2019-01-07T12:11:56Z</time>
      </trkpt>
      <trkpt lat="42.45776" lon="2.14206">
        <ele>2355.9</ele>
        <time>2019-01-07T12:11:57Z</time>
      </trkpt>
      <trkpt lat="42.45774" lon="2.14203">
        <ele>2363.2</ele>
        <time>2019-01-07T12:11:58Z</time>
      </trkpt>
      <trkpt lat="42.4577" lon="2.14197">
        <ele>2361.2</ele>
        <time>2019-01-07T12:12:00Z</time>
      </trkpt>
      <trkpt lat="42.4577" lon="2.14197">
        <ele>2362.2</ele>
        <time>2019-01-07T12:12:00Z</time>
      </trkpt>
      <trkpt lat="42.45771" lon="2.14196">
        <ele>2377</ele>
        <time>2019-01-07T12:12:00Z</time>
      </trkpt>
      <trkpt lat="42.45773" lon="2.14192">
        <ele>2375.2</ele>
        <time>2019-01-07T12:12:01Z</time>
      </trkpt>
      <trkpt lat="42.45775" lon="2.14189">
        <ele>2375.6</ele>
        <time>2019-01-07T12:12:02Z</time>
      </trkpt>
      <trkpt lat="42.45772" lon="2.14186">
        <ele>2378.1</ele>
        <time>2019-01-07T12:12:03Z</time>
      </trkpt>
      <trkpt lat="42.45774" lon="2.14176">
        <ele>2391.4</ele>
        <time>2019-01-07T12:12:05Z</time>
      </trkpt>
      <trkpt lat="42.45773" lon="2.14174">
        <ele>2392.9</ele>
        <time>2019-01-07T12:12:06Z</time>
      </trkpt>
      <trkpt lat="42.45771" lon="2.14172">
        <ele>2387.6</ele>
        <time>2019-01-07T12:12:06Z</time>
      </trkpt>
      <trkpt lat="42.45771" lon="2.1417">
        <ele>2387.1</ele>
        <time>2019-01-07T12:12:06Z</time>
      </trkpt>
      <trkpt lat="42.4577" lon="2.14168">
        <ele>2393.9</ele>
        <time>2019-01-07T12:12:07Z</time>
      </trkpt>
      <trkpt lat="42.45768" lon="2.14167">
        <ele>2400.2</ele>
        <time>2019-01-07T12:12:07Z</time>
      </trkpt>
      <trkpt lat="42.45767" lon="2.14165">
        <ele>2398.7</ele>
        <time>2019-01-07T12:12:08Z</time>
      </trkpt>
      <trkpt lat="42.45764" lon="2.14165">
        <ele>2398.6</ele>
        <time>2019-01-07T12:12:09Z</time>
      </trkpt>
      <trkpt lat="42.45763" lon="2.14165">
        <ele>2398.6</ele>
        <time>2019-01-07T12:12:09Z</time>
      </trkpt>
      <trkpt lat="42.45765" lon="2.14162">
        <ele>2398.2</ele>
        <time>2019-01-07T12:12:10Z</time>
      </trkpt>
      <trkpt lat="42.45762" lon="2.14159">
        <ele>2396.8</ele>
        <time>2019-01-07T12:12:11Z</time>
      </trkpt>
      <trkpt lat="42.4576" lon="2.14157">
        <ele>2396.2</ele>
        <time>2019-01-07T12:12:11Z</time>
      </trkpt>
      <trkpt lat="42.45759" lon="2.14155">
        <ele>2397.3</ele>
        <time>2019-01-07T12:12:12Z</time>
      </trkpt>
      <trkpt lat="42.45758" lon="2.14152">
        <ele>2399.6</ele>
        <time>2019-01-07T12:12:12Z</time>
      </trkpt>
      <trkpt lat="42.45757" lon="2.14151">
        <ele>2402</ele>
        <time>2019-01-07T12:12:13Z</time>
      </trkpt>
      <trkpt lat="42.45756" lon="2.14147">
        <ele>2401.6</ele>
        <time>2019-01-07T12:12:14Z</time>
      </trkpt>
      <trkpt lat="42.45756" lon="2.14145">
        <ele>2403.5</ele>
        <time>2019-01-07T12:12:14Z</time>
      </trkpt>
      <trkpt lat="42.45754" lon="2.14142">
        <ele>2405.8</ele>
        <time>2019-01-07T12:12:15Z</time>
      </trkpt>
      <trkpt lat="42.45754" lon="2.14141">
        <ele>2410.2</ele>
        <time>2019-01-07T12:12:15Z</time>
      </trkpt>
      <trkpt lat="42.45751" lon="2.14142">
        <ele>2415.1</ele>
        <time>2019-01-07T12:12:16Z</time>
      </trkpt>
      <trkpt lat="42.45751" lon="2.1414">
        <ele>2416.9</ele>
        <time>2019-01-07T12:12:16Z</time>
      </trkpt>
      <trkpt lat="42.45752" lon="2.14138">
        <ele>2419.4</ele>
        <time>2019-01-07T12:12:17Z</time>
      </trkpt>
      <trkpt lat="42.45753" lon="2.14132">
        <ele>2417.4</ele>
        <time>2019-01-07T12:12:18Z</time>
      </trkpt>
      <trkpt lat="42.4575" lon="2.14131">
        <ele>2407.3</ele>
        <time>2019-01-07T12:12:19Z</time>
      </trkpt>
      <trkpt lat="42.45753" lon="2.14133">
        <ele>2417.9</ele>
        <time>2019-01-07T12:12:20Z</time>
      </trkpt>
      <trkpt lat="42.45755" lon="2.14132">
        <ele>2420.3</ele>
        <time>2019-01-07T12:12:20Z</time>
      </trkpt>
      <trkpt lat="42.45756" lon="2.14129">
        <ele>2419.9</ele>
        <time>2019-01-07T12:12:21Z</time>
      </trkpt>
      <trkpt lat="42.45755" lon="2.14126">
        <ele>2419.9</ele>
        <time>2019-01-07T12:12:21Z</time>
      </trkpt>
      <trkpt lat="42.45758" lon="2.14124">
        <ele>2418.8</ele>
        <time>2019-01-07T12:12:22Z</time>
      </trkpt>
      <trkpt lat="42.45759" lon="2.14121">
        <ele>2417.9</ele>
        <time>2019-01-07T12:12:23Z</time>
      </trkpt>
      <trkpt lat="42.45761" lon="2.14121">
        <ele>2419.9</ele>
        <time>2019-01-07T12:12:23Z</time>
      </trkpt>
      <trkpt lat="42.45762" lon="2.1412">
        <ele>2420.3</ele>
        <time>2019-01-07T12:12:23Z</time>
      </trkpt>
      <trkpt lat="42.45764" lon="2.1412">
        <ele>2421.8</ele>
        <time>2019-01-07T12:12:24Z</time>
      </trkpt>
      <trkpt lat="42.45766" lon="2.14119">
        <ele>2422.2</ele>
        <time>2019-01-07T12:12:25Z</time>
      </trkpt>
      <trkpt lat="42.45768" lon="2.14121">
        <ele>2422.3</ele>
        <time>2019-01-07T12:12:25Z</time>
      </trkpt>
      <trkpt lat="42.4577" lon="2.1412">
        <ele>2416.9</ele>
        <time>2019-01-07T12:12:26Z</time>
      </trkpt>
      <trkpt lat="42.4577" lon="2.14112">
        <ele>2417.4</ele>
        <time>2019-01-07T12:12:27Z</time>
      </trkpt>
      <trkpt lat="42.4577" lon="2.14108">
        <ele>2416</ele>
        <time>2019-01-07T12:12:28Z</time>
      </trkpt>
      <trkpt lat="42.4577" lon="2.14107">
        <ele>2415.5</ele>
        <time>2019-01-07T12:12:28Z</time>
      </trkpt>
      <trkpt lat="42.45769" lon="2.14103">
        <ele>2415.4</ele>
        <time>2019-01-07T12:12:29Z</time>
      </trkpt>
      <trkpt lat="42.45768" lon="2.141">
        <ele>2415.9</ele>
        <time>2019-01-07T12:12:30Z</time>
      </trkpt>
      <trkpt lat="42.45765" lon="2.14095">
        <ele>2415.9</ele>
        <time>2019-01-07T12:12:31Z</time>
      </trkpt>
      <trkpt lat="42.45763" lon="2.14091">
        <ele>2417.4</ele>
        <time>2019-01-07T12:12:32Z</time>
      </trkpt>
      <trkpt lat="42.45762" lon="2.14089">
        <ele>2417.4</ele>
        <time>2019-01-07T12:12:33Z</time>
      </trkpt>
      <trkpt lat="42.45762" lon="2.14088">
        <ele>2417.9</ele>
        <time>2019-01-07T12:12:33Z</time>
      </trkpt>
      <trkpt lat="42.4576" lon="2.14085">
        <ele>2424.6</ele>
        <time>2019-01-07T12:12:33Z</time>
      </trkpt>
      <trkpt lat="42.45759" lon="2.14082">
        <ele>2427.9</ele>
        <time>2019-01-07T12:12:34Z</time>
      </trkpt>
      <trkpt lat="42.45758" lon="2.1408">
        <ele>2431.3</ele>
        <time>2019-01-07T12:12:35Z</time>
      </trkpt>
      <trkpt lat="42.45755" lon="2.14077">
        <ele>2439.1</ele>
        <time>2019-01-07T12:12:36Z</time>
      </trkpt>
      <trkpt lat="42.45754" lon="2.14072">
        <ele>2444.4</ele>
        <time>2019-01-07T12:12:37Z</time>
      </trkpt>
      <trkpt lat="42.45753" lon="2.14065">
        <ele>2451.5</ele>
        <time>2019-01-07T12:12:38Z</time>
      </trkpt>
      <trkpt lat="42.45754" lon="2.14063">
        <ele>2454</ele>
        <time>2019-01-07T12:12:39Z</time>
      </trkpt>
      <trkpt lat="42.45753" lon="2.14058">
        <ele>2457.9</ele>
        <time>2019-01-07T12:12:40Z</time>
      </trkpt>
      <trkpt lat="42.45754" lon="2.14053">
        <ele>2458.7</ele>
        <time>2019-01-07T12:12:40Z</time>
      </trkpt>
      <trkpt lat="42.45756" lon="2.1405">
        <ele>2459.2</ele>
        <time>2019-01-07T12:12:41Z</time>
      </trkpt>
      <trkpt lat="42.45754" lon="2.14046">
        <ele>2461.2</ele>
        <time>2019-01-07T12:12:42Z</time>
      </trkpt>
      <trkpt lat="42.45756" lon="2.14042">
        <ele>2461.1</ele>
        <time>2019-01-07T12:12:43Z</time>
      </trkpt>
      <trkpt lat="42.45757" lon="2.14039">
        <ele>2461.6</ele>
        <time>2019-01-07T12:12:44Z</time>
      </trkpt>
      <trkpt lat="42.45755" lon="2.14035">
        <ele>2459.7</ele>
        <time>2019-01-07T12:12:45Z</time>
      </trkpt>
      <trkpt lat="42.45754" lon="2.14033">
        <ele>2464.9</ele>
        <time>2019-01-07T12:12:45Z</time>
      </trkpt>
      <trkpt lat="42.45754" lon="2.14029">
        <ele>2470.4</ele>
        <time>2019-01-07T12:12:46Z</time>
      </trkpt>
      <trkpt lat="42.45755" lon="2.14025">
        <ele>2471.7</ele>
        <time>2019-01-07T12:12:47Z</time>
      </trkpt>
      <trkpt lat="42.45755" lon="2.14023">
        <ele>2474.7</ele>
        <time>2019-01-07T12:12:48Z</time>
      </trkpt>
      <trkpt lat="42.45755" lon="2.14017">
        <ele>2480.3</ele>
        <time>2019-01-07T12:12:49Z</time>
      </trkpt>
      <trkpt lat="42.45759" lon="2.14011">
        <ele>2482.3</ele>
        <time>2019-01-07T12:12:50Z</time>
      </trkpt>
      <trkpt lat="42.45759" lon="2.14008">
        <ele>2484.3</ele>
        <time>2019-01-07T12:12:51Z</time>
      </trkpt>
      <trkpt lat="42.4576" lon="2.14004">
        <ele>2484.2</ele>
        <time>2019-01-07T12:12:52Z</time>
      </trkpt>
      <trkpt lat="42.4576" lon="2.14001">
        <ele>2486.2</ele>
        <time>2019-01-07T12:12:52Z</time>
      </trkpt>
      <trkpt lat="42.4576" lon="2.13999">
        <ele>2490.9</ele>
        <time>2019-01-07T12:12:53Z</time>
      </trkpt>
      <trkpt lat="42.45759" lon="2.13997">
        <ele>2494.8</ele>
        <time>2019-01-07T12:12:53Z</time>
      </trkpt>
      <trkpt lat="42.45759" lon="2.13994">
        <ele>2497.2</ele>
        <time>2019-01-07T12:12:54Z</time>
      </trkpt>
      <trkpt lat="42.4576" lon="2.13991">
        <ele>2497.2</ele>
        <time>2019-01-07T12:12:54Z</time>
      </trkpt>
      <trkpt lat="42.45761" lon="2.13989">
        <ele>2496.7</ele>
        <time>2019-01-07T12:12:55Z</time>
      </trkpt>
      <trkpt lat="42.45761" lon="2.13983">
        <ele>2500.1</ele>
        <time>2019-01-07T12:12:56Z</time>
      </trkpt>
      <trkpt lat="42.45761" lon="2.13979">
        <ele>2500.6</ele>
        <time>2019-01-07T12:12:57Z</time>
      </trkpt>
      <trkpt lat="42.45763" lon="2.13976">
        <ele>2503.4</ele>
        <time>2019-01-07T12:12:58Z</time>
      </trkpt>
      <trkpt lat="42.45765" lon="2.13973">
        <ele>2504.8</ele>
        <time>2019-01-07T12:12:59Z</time>
      </trkpt>
      <trkpt lat="42.45766" lon="2.13971">
        <ele>2505.8</ele>
        <time>2019-01-07T12:12:59Z</time>
      </trkpt>
      <trkpt lat="42.45768" lon="2.13971">
        <ele>2506.9</ele>
        <time>2019-01-07T12:13:00Z</time>
      </trkpt>
      <trkpt lat="42.45766" lon="2.13966">
        <ele>2511.1</ele>
        <time>2019-01-07T12:13:01Z</time>
      </trkpt>
      <trkpt lat="42.45766" lon="2.13965">
        <ele>2514</ele>
        <time>2019-01-07T12:13:01Z</time>
      </trkpt>
      <trkpt lat="42.45766" lon="2.1396">
        <ele>2515.4</ele>
        <time>2019-01-07T12:13:02Z</time>
      </trkpt>
      <trkpt lat="42.45766" lon="2.13954">
        <ele>2517.9</ele>
        <time>2019-01-07T12:13:03Z</time>
      </trkpt>
      <trkpt lat="42.45765" lon="2.13951">
        <ele>2517.4</ele>
        <time>2019-01-07T12:13:04Z</time>
      </trkpt>
      <trkpt lat="42.45767" lon="2.13948">
        <ele>2519.3</ele>
        <time>2019-01-07T12:13:04Z</time>
      </trkpt>
      <trkpt lat="42.45766" lon="2.13945">
        <ele>2520.7</ele>
        <time>2019-01-07T12:13:05Z</time>
      </trkpt>
      <trkpt lat="42.45766" lon="2.13941">
        <ele>2523.6</ele>
        <time>2019-01-07T12:13:06Z</time>
      </trkpt>
      <trkpt lat="42.45768" lon="2.1394">
        <ele>2524.6</ele>
        <time>2019-01-07T12:13:07Z</time>
      </trkpt>
      <trkpt lat="42.45771" lon="2.13934">
        <ele>2524.2</ele>
        <time>2019-01-07T12:13:08Z</time>
      </trkpt>
      <trkpt lat="42.45773" lon="2.13937">
        <ele>2529.9</ele>
        <time>2019-01-07T12:13:09Z</time>
      </trkpt>
      <trkpt lat="42.4577" lon="2.13934">
        <ele>2530.3</ele>
        <time>2019-01-07T12:13:10Z</time>
      </trkpt>
      <trkpt lat="42.45769" lon="2.13928">
        <ele>2533.2</ele>
        <time>2019-01-07T12:13:11Z</time>
      </trkpt>
      <trkpt lat="42.4577" lon="2.13928">
        <ele>2533.8</ele>
        <time>2019-01-07T12:13:11Z</time>
      </trkpt>
      <trkpt lat="42.45772" lon="2.13925">
        <ele>2531.4</ele>
        <time>2019-01-07T12:13:12Z</time>
      </trkpt>
      <trkpt lat="42.45771" lon="2.13921">
        <ele>2533.8</ele>
        <time>2019-01-07T12:13:13Z</time>
      </trkpt>
      <trkpt lat="42.45769" lon="2.13916">
        <ele>2536.2</ele>
        <time>2019-01-07T12:13:14Z</time>
      </trkpt>
      <trkpt lat="42.45771" lon="2.13911">
        <ele>2537.7</ele>
        <time>2019-01-07T12:13:15Z</time>
      </trkpt>
      <trkpt lat="42.45771" lon="2.1391">
        <ele>2539.1</ele>
        <time>2019-01-07T12:13:15Z</time>
      </trkpt>
      <trkpt lat="42.45775" lon="2.13909">
        <ele>2543.9</ele>
        <time>2019-01-07T12:13:16Z</time>
      </trkpt>
      <trkpt lat="42.45777" lon="2.13907">
        <ele>2544.7</ele>
        <time>2019-01-07T12:13:17Z</time>
      </trkpt>
      <trkpt lat="42.45781" lon="2.13905">
        <ele>2545.2</ele>
        <time>2019-01-07T12:13:18Z</time>
      </trkpt>
      <trkpt lat="42.45783" lon="2.13903">
        <ele>2542.3</ele>
        <time>2019-01-07T12:13:19Z</time>
      </trkpt>
      <trkpt lat="42.45782" lon="2.13899">
        <ele>2540.9</ele>
        <time>2019-01-07T12:13:19Z</time>
      </trkpt>
      <trkpt lat="42.45778" lon="2.13894">
        <ele>2545.2</ele>
        <time>2019-01-07T12:13:21Z</time>
      </trkpt>
      <trkpt lat="42.45776" lon="2.13888">
        <ele>2554.9</ele>
        <time>2019-01-07T12:13:22Z</time>
      </trkpt>
      <trkpt lat="42.45776" lon="2.13886">
        <ele>2557.3</ele>
        <time>2019-01-07T12:13:23Z</time>
      </trkpt>
      <trkpt lat="42.45776" lon="2.13881">
        <ele>2562.6</ele>
        <time>2019-01-07T12:13:23Z</time>
      </trkpt>
      <trkpt lat="42.45778" lon="2.13878">
        <ele>2565.4</ele>
        <time>2019-01-07T12:13:24Z</time>
      </trkpt>
      <trkpt lat="42.45778" lon="2.13875">
        <ele>2565.9</ele>
        <time>2019-01-07T12:13:25Z</time>
      </trkpt>
      <trkpt lat="42.45777" lon="2.13873">
        <ele>2565.5</ele>
        <time>2019-01-07T12:13:25Z</time>
      </trkpt>
      <trkpt lat="42.45779" lon="2.13871">
        <ele>2565</ele>
        <time>2019-01-07T12:13:26Z</time>
      </trkpt>
      <trkpt lat="42.45778" lon="2.13872">
        <ele>2568.4</ele>
        <time>2019-01-07T12:13:26Z</time>
      </trkpt>
      <trkpt lat="42.45777" lon="2.13869">
        <ele>2571.2</ele>
        <time>2019-01-07T12:13:27Z</time>
      </trkpt>
      <trkpt lat="42.45775" lon="2.13866">
        <ele>2572.1</ele>
        <time>2019-01-07T12:13:28Z</time>
      </trkpt>
      <trkpt lat="42.45777" lon="2.13862">
        <ele>2571.2</ele>
        <time>2019-01-07T12:13:28Z</time>
      </trkpt>
      <trkpt lat="42.45776" lon="2.1386">
        <ele>2572.6</ele>
        <time>2019-01-07T12:13:29Z</time>
      </trkpt>
      <trkpt lat="42.45775" lon="2.13857">
        <ele>2574.6</ele>
        <time>2019-01-07T12:13:30Z</time>
      </trkpt>
      <trkpt lat="42.45771" lon="2.13853">
        <ele>2580.4</ele>
        <time>2019-01-07T12:13:31Z</time>
      </trkpt>
      <trkpt lat="42.4577" lon="2.13847">
        <ele>2587.1</ele>
        <time>2019-01-07T12:13:32Z</time>
      </trkpt>
      <trkpt lat="42.4577" lon="2.13842">
        <ele>2585.1</ele>
        <time>2019-01-07T12:13:33Z</time>
      </trkpt>
      <trkpt lat="42.45771" lon="2.1384">
        <ele>2588</ele>
        <time>2019-01-07T12:13:33Z</time>
      </trkpt>
      <trkpt lat="42.45771" lon="2.13839">
        <ele>2595.3</ele>
        <time>2019-01-07T12:13:34Z</time>
      </trkpt>
      <trkpt lat="42.4577" lon="2.13836">
        <ele>2596.2</ele>
        <time>2019-01-07T12:13:34Z</time>
      </trkpt>
      <trkpt lat="42.45771" lon="2.13835">
        <ele>2596.2</ele>
        <time>2019-01-07T12:13:35Z</time>
      </trkpt>
      <trkpt lat="42.45771" lon="2.13831">
        <ele>2598.1</ele>
        <time>2019-01-07T12:13:35Z</time>
      </trkpt>
      <trkpt lat="42.45771" lon="2.13828">
        <ele>2599.5</ele>
        <time>2019-01-07T12:13:36Z</time>
      </trkpt>
      <trkpt lat="42.45768" lon="2.13825">
        <ele>2602.4</ele>
        <time>2019-01-07T12:13:37Z</time>
      </trkpt>
      <trkpt lat="42.45766" lon="2.1382">
        <ele>2604.5</ele>
        <time>2019-01-07T12:13:38Z</time>
      </trkpt>
      <trkpt lat="42.45764" lon="2.13816">
        <ele>2605.4</ele>
        <time>2019-01-07T12:13:39Z</time>
      </trkpt>
      <trkpt lat="42.45764" lon="2.13816">
        <ele>2606.3</ele>
        <time>2019-01-07T12:13:39Z</time>
      </trkpt>
      <trkpt lat="42.45765" lon="2.13814">
        <ele>2609.2</ele>
        <time>2019-01-07T12:13:39Z</time>
      </trkpt>
      <trkpt lat="42.45764" lon="2.1381">
        <ele>2613</ele>
        <time>2019-01-07T12:13:40Z</time>
      </trkpt>
      <trkpt lat="42.45763" lon="2.13805">
        <ele>2614</ele>
        <time>2019-01-07T12:13:41Z</time>
      </trkpt>
      <trkpt lat="42.45763" lon="2.13804">
        <ele>2614.5</ele>
        <time>2019-01-07T12:13:41Z</time>
      </trkpt>
      <trkpt lat="42.45766" lon="2.13802">
        <ele>2615.4</ele>
        <time>2019-01-07T12:13:42Z</time>
      </trkpt>
      <trkpt lat="42.45767" lon="2.138">
        <ele>2616.4</ele>
        <time>2019-01-07T12:13:43Z</time>
      </trkpt>
      <trkpt lat="42.45766" lon="2.13798">
        <ele>2619.2</ele>
        <time>2019-01-07T12:13:43Z</time>
      </trkpt>
      <trkpt lat="42.45765" lon="2.13793">
        <ele>2620.2</ele>
        <time>2019-01-07T12:13:44Z</time>
      </trkpt>
      <trkpt lat="42.45766" lon="2.13789">
        <ele>2621.2</ele>
        <time>2019-01-07T12:13:45Z</time>
      </trkpt>
      <trkpt lat="42.45765" lon="2.13782">
        <ele>2622.7</ele>
        <time>2019-01-07T12:13:46Z</time>
      </trkpt>
      <trkpt lat="42.45767" lon="2.13783">
        <ele>2623.1</ele>
        <time>2019-01-07T12:13:47Z</time>
      </trkpt>
      <trkpt lat="42.45768" lon="2.13783">
        <ele>2624.2</ele>
        <time>2019-01-07T12:13:47Z</time>
      </trkpt>
      <trkpt lat="42.45768" lon="2.13779">
        <ele>2626.1</ele>
        <time>2019-01-07T12:13:48Z</time>
      </trkpt>
      <trkpt lat="42.45768" lon="2.13774">
        <ele>2626.9</ele>
        <time>2019-01-07T12:13:49Z</time>
      </trkpt>
      <trkpt lat="42.45768" lon="2.1377">
        <ele>2627.5</ele>
        <time>2019-01-07T12:13:50Z</time>
      </trkpt>
      <trkpt lat="42.45771" lon="2.13767">
        <ele>2630.3</ele>
        <time>2019-01-07T12:13:51Z</time>
      </trkpt>
      <trkpt lat="42.45773" lon="2.13762">
        <ele>2633.2</ele>
        <time>2019-01-07T12:13:52Z</time>
      </trkpt>
      <trkpt lat="42.45778" lon="2.1376">
        <ele>2636.1</ele>
        <time>2019-01-07T12:13:53Z</time>
      </trkpt>
      <trkpt lat="42.45779" lon="2.13764">
        <ele>2633.3</ele>
        <time>2019-01-07T12:13:54Z</time>
      </trkpt>
      <trkpt lat="42.45779" lon="2.13763">
        <ele>2636.6</ele>
        <time>2019-01-07T12:13:55Z</time>
      </trkpt>
      <trkpt lat="42.45778" lon="2.13761">
        <ele>2636.6</ele>
        <time>2019-01-07T12:13:55Z</time>
      </trkpt>
      <trkpt lat="42.45777" lon="2.13761">
        <ele>2636.7</ele>
        <time>2019-01-07T12:13:55Z</time>
      </trkpt>
      <trkpt lat="42.45774" lon="2.13756">
        <ele>2637.5</ele>
        <time>2019-01-07T12:13:57Z</time>
      </trkpt>
      <trkpt lat="42.4577" lon="2.13749">
        <ele>2638.1</ele>
        <time>2019-01-07T12:13:58Z</time>
      </trkpt>
      <trkpt lat="42.4577" lon="2.13747">
        <ele>2637</ele>
        <time>2019-01-07T12:13:59Z</time>
      </trkpt>
      <trkpt lat="42.45768" lon="2.13743">
        <ele>2640.4</ele>
        <time>2019-01-07T12:14:00Z</time>
      </trkpt>
      <trkpt lat="42.45764" lon="2.13735">
        <ele>2639</ele>
        <time>2019-01-07T12:14:02Z</time>
      </trkpt>
      <trkpt lat="42.45764" lon="2.13738">
        <ele>2646.2</ele>
        <time>2019-01-07T12:14:02Z</time>
      </trkpt>
      <trkpt lat="42.45763" lon="2.1373">
        <ele>2648.2</ele>
        <time>2019-01-07T12:14:04Z</time>
      </trkpt>
      <trkpt lat="42.45763" lon="2.13722">
        <ele>2648.6</ele>
        <time>2019-01-07T12:14:05Z</time>
      </trkpt>
      <trkpt lat="42.45766" lon="2.13718">
        <ele>2650.6</ele>
        <time>2019-01-07T12:14:06Z</time>
      </trkpt>
      <trkpt lat="42.45765" lon="2.13711">
        <ele>2651.6</ele>
        <time>2019-01-07T12:14:07Z</time>
      </trkpt>
      <trkpt lat="42.45765" lon="2.1371">
        <ele>2651.5</ele>
        <time>2019-01-07T12:14:08Z</time>
      </trkpt>
      <trkpt lat="42.45767" lon="2.13702">
        <ele>2653</ele>
        <time>2019-01-07T12:14:09Z</time>
      </trkpt>
      <trkpt lat="42.45765" lon="2.13689">
        <ele>2655.9</ele>
        <time>2019-01-07T12:14:12Z</time>
      </trkpt>
      <trkpt lat="42.45762" lon="2.13678">
        <ele>2656.3</ele>
        <time>2019-01-07T12:14:14Z</time>
      </trkpt>
      <trkpt lat="42.45757" lon="2.13665">
        <ele>2654.4</ele>
        <time>2019-01-07T12:14:17Z</time>
      </trkpt>
      <trkpt lat="42.45755" lon="2.13659">
        <ele>2655.3</ele>
        <time>2019-01-07T12:14:18Z</time>
      </trkpt>
      <trkpt lat="42.45754" lon="2.13656">
        <ele>2654.4</ele>
        <time>2019-01-07T12:14:19Z</time>
      </trkpt>
      <trkpt lat="42.45752" lon="2.13653">
        <ele>2653.9</ele>
        <time>2019-01-07T12:14:20Z</time>
      </trkpt>
      <trkpt lat="42.45749" lon="2.13646">
        <ele>2654.9</ele>
        <time>2019-01-07T12:14:22Z</time>
      </trkpt>
      <trkpt lat="42.45747" lon="2.13642">
        <ele>2656.8</ele>
        <time>2019-01-07T12:14:23Z</time>
      </trkpt>
      <trkpt lat="42.45745" lon="2.13634">
        <ele>2661.5</ele>
        <time>2019-01-07T12:14:24Z</time>
      </trkpt>
      <trkpt lat="42.45742" lon="2.13629">
        <ele>2664.5</ele>
        <time>2019-01-07T12:14:25Z</time>
      </trkpt>
      <trkpt lat="42.4574" lon="2.13626">
        <ele>2666</ele>
        <time>2019-01-07T12:14:26Z</time>
      </trkpt>
      <trkpt lat="42.45736" lon="2.13624">
        <ele>2667.8</ele>
        <time>2019-01-07T12:14:27Z</time>
      </trkpt>
      <trkpt lat="42.45735" lon="2.13623">
        <ele>2667.3</ele>
        <time>2019-01-07T12:14:28Z</time>
      </trkpt>
      <trkpt lat="42.45732" lon="2.13621">
        <ele>2668.3</ele>
        <time>2019-01-07T12:14:29Z</time>
      </trkpt>
      <trkpt lat="42.45729" lon="2.13618">
        <ele>2670.7</ele>
        <time>2019-01-07T12:14:29Z</time>
      </trkpt>
      <trkpt lat="42.45726" lon="2.13615">
        <ele>2672.1</ele>
        <time>2019-01-07T12:14:31Z</time>
      </trkpt>
      <trkpt lat="42.45721" lon="2.13614">
        <ele>2673.7</ele>
        <time>2019-01-07T12:14:32Z</time>
      </trkpt>
      <trkpt lat="42.45718" lon="2.13611">
        <ele>2676.4</ele>
        <time>2019-01-07T12:14:33Z</time>
      </trkpt>
      <trkpt lat="42.45715" lon="2.13609">
        <ele>2678.5</ele>
        <time>2019-01-07T12:14:34Z</time>
      </trkpt>
      <trkpt lat="42.45711" lon="2.13606">
        <ele>2679.9</ele>
        <time>2019-01-07T12:14:35Z</time>
      </trkpt>
      <trkpt lat="42.45707" lon="2.13603">
        <ele>2682.3</ele>
        <time>2019-01-07T12:14:36Z</time>
      </trkpt>
      <trkpt lat="42.45702" lon="2.13597">
        <ele>2683.7</ele>
        <time>2019-01-07T12:14:38Z</time>
      </trkpt>
      <trkpt lat="42.45699" lon="2.13592">
        <ele>2684.6</ele>
        <time>2019-01-07T12:14:39Z</time>
      </trkpt>
      <trkpt lat="42.45695" lon="2.13589">
        <ele>2685.2</ele>
        <time>2019-01-07T12:14:40Z</time>
      </trkpt>
      <trkpt lat="42.45692" lon="2.13586">
        <ele>2686.6</ele>
        <time>2019-01-07T12:14:41Z</time>
      </trkpt>
      <trkpt lat="42.45688" lon="2.1358">
        <ele>2688</ele>
        <time>2019-01-07T12:14:43Z</time>
      </trkpt>
      <trkpt lat="42.45683" lon="2.13575">
        <ele>2689.9</ele>
        <time>2019-01-07T12:14:45Z</time>
      </trkpt>
      <trkpt lat="42.45678" lon="2.13572">
        <ele>2692.4</ele>
        <time>2019-01-07T12:14:46Z</time>
      </trkpt>
      <trkpt lat="42.45672" lon="2.13573">
        <ele>2693.4</ele>
        <time>2019-01-07T12:14:48Z</time>
      </trkpt>
      <trkpt lat="42.45672" lon="2.13573">
        <ele>2693.4</ele>
        <time>2019-01-07T12:14:48Z</time>
      </trkpt>
      <trkpt lat="42.45673" lon="2.13573">
        <ele>2694.8</ele>
        <time>2019-01-07T12:14:48Z</time>
      </trkpt>
      <trkpt lat="42.45672" lon="2.13572">
        <ele>2699.5</ele>
        <time>2019-01-07T12:14:48Z</time>
      </trkpt>
      <trkpt lat="42.45667" lon="2.13566">
        <ele>2699</ele>
        <time>2019-01-07T12:14:50Z</time>
      </trkpt>
      <trkpt lat="42.45662" lon="2.13556">
        <ele>2700.1</ele>
        <time>2019-01-07T12:14:53Z</time>
      </trkpt>
      <trkpt lat="42.45661" lon="2.13555">
        <ele>2699.5</ele>
        <time>2019-01-07T12:14:53Z</time>
      </trkpt>
      <trkpt lat="42.45652" lon="2.13541">
        <ele>2698.6</ele>
        <time>2019-01-07T12:14:57Z</time>
      </trkpt>
      <trkpt lat="42.45649" lon="2.13533">
        <ele>2699</ele>
        <time>2019-01-07T12:14:59Z</time>
      </trkpt>
      <trkpt lat="42.45647" lon="2.13525">
        <ele>2699.5</ele>
        <time>2019-01-07T12:15:00Z</time>
      </trkpt>
      <trkpt lat="42.45645" lon="2.13514">
        <ele>2701.5</ele>
        <time>2019-01-07T12:15:02Z</time>
      </trkpt>
      <trkpt lat="42.45643" lon="2.13512">
        <ele>2702.5</ele>
        <time>2019-01-07T12:15:03Z</time>
      </trkpt>
      <trkpt lat="42.45633" lon="2.13503">
        <ele>2704.4</ele>
        <time>2019-01-07T12:15:06Z</time>
      </trkpt>
      <trkpt lat="42.45628" lon="2.13499">
        <ele>2704.8</ele>
        <time>2019-01-07T12:15:08Z</time>
      </trkpt>
      <trkpt lat="42.45626" lon="2.13497">
        <ele>2699.1</ele>
        <time>2019-01-07T12:15:09Z</time>
      </trkpt>
      <trkpt lat="42.45626" lon="2.13501">
        <ele>2697.6</ele>
        <time>2019-01-07T12:15:09Z</time>
      </trkpt>
      <trkpt lat="42.45626" lon="2.13507">
        <ele>2698.6</ele>
        <time>2019-01-07T12:15:10Z</time>
      </trkpt>
      <trkpt lat="42.45627" lon="2.13513">
        <ele>2698.6</ele>
        <time>2019-01-07T12:15:12Z</time>
      </trkpt>
      <trkpt lat="42.45625" lon="2.13515">
        <ele>2696.3</ele>
        <time>2019-01-07T12:15:12Z</time>
      </trkpt>
      <trkpt lat="42.45622" lon="2.13513">
        <ele>2697.6</ele>
        <time>2019-01-07T12:15:13Z</time>
      </trkpt>
      <trkpt lat="42.45614" lon="2.13506">
        <ele>2701</ele>
        <time>2019-01-07T12:15:16Z</time>
      </trkpt>
      <trkpt lat="42.45607" lon="2.13505">
        <ele>2703.4</ele>
        <time>2019-01-07T12:15:18Z</time>
      </trkpt>
      <trkpt lat="42.45597" lon="2.13501">
        <ele>2705.9</ele>
        <time>2019-01-07T12:15:20Z</time>
      </trkpt>
      <trkpt lat="42.45588" lon="2.13494">
        <ele>2707.3</ele>
        <time>2019-01-07T12:15:23Z</time>
      </trkpt>
      <trkpt lat="42.45582" lon="2.13487">
        <ele>2705.9</ele>
        <time>2019-01-07T12:15:25Z</time>
      </trkpt>
      <trkpt lat="42.45577" lon="2.13483">
        <ele>2704.3</ele>
        <time>2019-01-07T12:15:27Z</time>
      </trkpt>
      <trkpt lat="42.45574" lon="2.13479">
        <ele>2704.3</ele>
        <time>2019-01-07T12:15:28Z</time>
      </trkpt>
      <trkpt lat="42.45572" lon="2.13479">
        <ele>2705.9</ele>
        <time>2019-01-07T12:15:29Z</time>
      </trkpt>
      <trkpt lat="42.45567" lon="2.13475">
        <ele>2708.8</ele>
        <time>2019-01-07T12:15:30Z</time>
      </trkpt>
      <trkpt lat="42.45562" lon="2.13469">
        <ele>2709.7</ele>
        <time>2019-01-07T12:15:32Z</time>
      </trkpt>
      <trkpt lat="42.4555" lon="2.13461">
        <ele>2709.1</ele>
        <time>2019-01-07T12:15:35Z</time>
      </trkpt>
      <trkpt lat="42.45544" lon="2.13457">
        <ele>2708.7</ele>
        <time>2019-01-07T12:15:37Z</time>
      </trkpt>
      <trkpt lat="42.45538" lon="2.13452">
        <ele>2707.8</ele>
        <time>2019-01-07T12:15:39Z</time>
      </trkpt>
      <trkpt lat="42.45531" lon="2.13446">
        <ele>2706.7</ele>
        <time>2019-01-07T12:15:41Z</time>
      </trkpt>
      <trkpt lat="42.45527" lon="2.13448">
        <ele>2706.3</ele>
        <time>2019-01-07T12:15:42Z</time>
      </trkpt>
      <trkpt lat="42.45522" lon="2.13449">
        <ele>2705.4</ele>
        <time>2019-01-07T12:15:44Z</time>
      </trkpt>
      <trkpt lat="42.45518" lon="2.13443">
        <ele>2704.8</ele>
        <time>2019-01-07T12:15:45Z</time>
      </trkpt>
      <trkpt lat="42.45511" lon="2.13433">
        <ele>2705.4</ele>
        <time>2019-01-07T12:15:48Z</time>
      </trkpt>
      <trkpt lat="42.45503" lon="2.13425">
        <ele>2702.4</ele>
        <time>2019-01-07T12:15:51Z</time>
      </trkpt>
      <trkpt lat="42.45491" lon="2.13418">
        <ele>2701</ele>
        <time>2019-01-07T12:15:54Z</time>
      </trkpt>
      <trkpt lat="42.45483" lon="2.13414">
        <ele>2701.4</ele>
        <time>2019-01-07T12:15:56Z</time>
      </trkpt>
      <trkpt lat="42.45476" lon="2.13405">
        <ele>2702.4</ele>
        <time>2019-01-07T12:15:59Z</time>
      </trkpt>
      <trkpt lat="42.45467" lon="2.13394">
        <ele>2702.4</ele>
        <time>2019-01-07T12:16:02Z</time>
      </trkpt>
      <trkpt lat="42.45466" lon="2.13393">
        <ele>2702.4</ele>
        <time>2019-01-07T12:16:03Z</time>
      </trkpt>
      <trkpt lat="42.45459" lon="2.13384">
        <ele>2704.4</ele>
        <time>2019-01-07T12:16:05Z</time>
      </trkpt>
      <trkpt lat="42.45457" lon="2.13378">
        <ele>2705.9</ele>
        <time>2019-01-07T12:16:06Z</time>
      </trkpt>
      <trkpt lat="42.45455" lon="2.13373">
        <ele>2705.8</ele>
        <time>2019-01-07T12:16:07Z</time>
      </trkpt>
      <trkpt lat="42.45454" lon="2.13369">
        <ele>2706.7</ele>
        <time>2019-01-07T12:16:08Z</time>
      </trkpt>
      <trkpt lat="42.4545" lon="2.13364">
        <ele>2707.2</ele>
        <time>2019-01-07T12:16:10Z</time>
      </trkpt>
      <trkpt lat="42.45445" lon="2.13356">
        <ele>2708.3</ele>
        <time>2019-01-07T12:16:12Z</time>
      </trkpt>
      <trkpt lat="42.4544" lon="2.1335">
        <ele>2707.7</ele>
        <time>2019-01-07T12:16:14Z</time>
      </trkpt>
      <trkpt lat="42.45431" lon="2.1334">
        <ele>2706.4</ele>
        <time>2019-01-07T12:16:17Z</time>
      </trkpt>
      <trkpt lat="42.45425" lon="2.13337">
        <ele>2708.2</ele>
        <time>2019-01-07T12:16:18Z</time>
      </trkpt>
      <trkpt lat="42.45421" lon="2.13335">
        <ele>2709.6</ele>
        <time>2019-01-07T12:16:20Z</time>
      </trkpt>
      <trkpt lat="42.45417" lon="2.13333">
        <ele>2710.1</ele>
        <time>2019-01-07T12:16:21Z</time>
      </trkpt>
      <trkpt lat="42.45411" lon="2.13329">
        <ele>2711</ele>
        <time>2019-01-07T12:16:22Z</time>
      </trkpt>
      <trkpt lat="42.45402" lon="2.13322">
        <ele>2713.9</ele>
        <time>2019-01-07T12:16:25Z</time>
      </trkpt>
      <trkpt lat="42.45393" lon="2.13316">
        <ele>2716.3</ele>
        <time>2019-01-07T12:16:28Z</time>
      </trkpt>
      <trkpt lat="42.45386" lon="2.13307">
        <ele>2720.2</ele>
        <time>2019-01-07T12:16:30Z</time>
      </trkpt>
      <trkpt lat="42.4538" lon="2.13301">
        <ele>2723.5</ele>
        <time>2019-01-07T12:16:32Z</time>
      </trkpt>
      <trkpt lat="42.45372" lon="2.13297">
        <ele>2725</ele>
        <time>2019-01-07T12:16:35Z</time>
      </trkpt>
      <trkpt lat="42.45362" lon="2.13289">
        <ele>2726.5</ele>
        <time>2019-01-07T12:16:38Z</time>
      </trkpt>
      <trkpt lat="42.45355" lon="2.13283">
        <ele>2726.4</ele>
        <time>2019-01-07T12:16:40Z</time>
      </trkpt>
      <trkpt lat="42.45345" lon="2.13271">
        <ele>2726.4</ele>
        <time>2019-01-07T12:16:44Z</time>
      </trkpt>
      <trkpt lat="42.45345" lon="2.1327">
        <ele>2725.9</ele>
        <time>2019-01-07T12:16:44Z</time>
      </trkpt>
      <trkpt lat="42.45341" lon="2.13262">
        <ele>2726.9</ele>
        <time>2019-01-07T12:16:46Z</time>
      </trkpt>
      <trkpt lat="42.45334" lon="2.13256">
        <ele>2733.2</ele>
        <time>2019-01-07T12:16:48Z</time>
      </trkpt>
      <trkpt lat="42.45327" lon="2.1325">
        <ele>2741.8</ele>
        <time>2019-01-07T12:16:50Z</time>
      </trkpt>
      <trkpt lat="42.45318" lon="2.13247">
        <ele>2747.2</ele>
        <time>2019-01-07T12:16:52Z</time>
      </trkpt>
      <trkpt lat="42.45309" lon="2.1324">
        <ele>2742.3</ele>
        <time>2019-01-07T12:16:55Z</time>
      </trkpt>
      <trkpt lat="42.45303" lon="2.13234">
        <ele>2745.8</ele>
        <time>2019-01-07T12:16:57Z</time>
      </trkpt>
      <trkpt lat="42.45297" lon="2.13232">
        <ele>2745.7</ele>
        <time>2019-01-07T12:16:59Z</time>
      </trkpt>
      <trkpt lat="42.4529" lon="2.13227">
        <ele>2746.7</ele>
        <time>2019-01-07T12:17:01Z</time>
      </trkpt>
      <trkpt lat="42.45288" lon="2.13224">
        <ele>2749</ele>
        <time>2019-01-07T12:17:02Z</time>
      </trkpt>
      <trkpt lat="42.45285" lon="2.1322">
        <ele>2745.7</ele>
        <time>2019-01-07T12:17:03Z</time>
      </trkpt>
      <trkpt lat="42.4528" lon="2.13216">
        <ele>2745.2</ele>
        <time>2019-01-07T12:17:04Z</time>
      </trkpt>
      <trkpt lat="42.45275" lon="2.13214">
        <ele>2741.8</ele>
        <time>2019-01-07T12:17:06Z</time>
      </trkpt>
      <trkpt lat="42.45264" lon="2.13211">
        <ele>2742.4</ele>
        <time>2019-01-07T12:17:09Z</time>
      </trkpt>
      <trkpt lat="42.45249" lon="2.13214">
        <ele>2744.8</ele>
        <time>2019-01-07T12:17:13Z</time>
      </trkpt>
      <trkpt lat="42.45245" lon="2.13214">
        <ele>2745.2</ele>
        <time>2019-01-07T12:17:14Z</time>
      </trkpt>
      <trkpt lat="42.45238" lon="2.13215">
        <ele>2746.3</ele>
        <time>2019-01-07T12:17:16Z</time>
      </trkpt>
      <trkpt lat="42.45237" lon="2.13214">
        <ele>2745.8</ele>
        <time>2019-01-07T12:17:16Z</time>
      </trkpt>
      <trkpt lat="42.45231" lon="2.13214">
        <ele>2745.7</ele>
        <time>2019-01-07T12:17:18Z</time>
      </trkpt>
      <trkpt lat="42.45221" lon="2.13216">
        <ele>2747.6</ele>
        <time>2019-01-07T12:17:21Z</time>
      </trkpt>
      <trkpt lat="42.45217" lon="2.13215">
        <ele>2747.1</ele>
        <time>2019-01-07T12:17:22Z</time>
      </trkpt>
      <trkpt lat="42.4522" lon="2.1321">
        <ele>2747.1</ele>
        <time>2019-01-07T12:17:23Z</time>
      </trkpt>
      <trkpt lat="42.45219" lon="2.13209">
        <ele>2747.1</ele>
        <time>2019-01-07T12:17:23Z</time>
      </trkpt>
      <trkpt lat="42.45216" lon="2.13208">
        <ele>2748.5</ele>
        <time>2019-01-07T12:17:24Z</time>
      </trkpt>
      <trkpt lat="42.45214" lon="2.13207">
        <ele>2749</ele>
        <time>2019-01-07T12:17:25Z</time>
      </trkpt>
      <trkpt lat="42.45211" lon="2.13207">
        <ele>2750.6</ele>
        <time>2019-01-07T12:17:26Z</time>
      </trkpt>
      <trkpt lat="42.4521" lon="2.13204">
        <ele>2751.4</ele>
        <time>2019-01-07T12:17:26Z</time>
      </trkpt>
      <trkpt lat="42.4521" lon="2.13204">
        <ele>2751.5</ele>
        <time>2019-01-07T12:17:26Z</time>
      </trkpt>
      <trkpt lat="42.45208" lon="2.13206">
        <ele>2750.6</ele>
        <time>2019-01-07T12:17:27Z</time>
      </trkpt>
      <trkpt lat="42.45208" lon="2.13207">
        <ele>2751.5</ele>
        <time>2019-01-07T12:17:27Z</time>
      </trkpt>
      <trkpt lat="42.45207" lon="2.13208">
        <ele>2750.6</ele>
        <time>2019-01-07T12:17:27Z</time>
      </trkpt>
      <trkpt lat="42.45202" lon="2.13206">
        <ele>2750.6</ele>
        <time>2019-01-07T12:17:29Z</time>
      </trkpt>
      <trkpt lat="42.45198" lon="2.13204">
        <ele>2748.5</ele>
        <time>2019-01-07T12:17:30Z</time>
      </trkpt>
      <trkpt lat="42.45198" lon="2.1321">
        <ele>2745.7</ele>
        <time>2019-01-07T12:17:31Z</time>
      </trkpt>
      <trkpt lat="42.45199" lon="2.13217">
        <ele>2745.2</ele>
        <time>2019-01-07T12:17:33Z</time>
      </trkpt>
      <trkpt lat="42.45198" lon="2.13218">
        <ele>2744.8</ele>
        <time>2019-01-07T12:17:33Z</time>
      </trkpt>
      <trkpt lat="42.45192" lon="2.13214">
        <ele>2744.7</ele>
        <time>2019-01-07T12:17:35Z</time>
      </trkpt>
      <trkpt lat="42.45186" lon="2.13212">
        <ele>2744.3</ele>
        <time>2019-01-07T12:17:37Z</time>
      </trkpt>
      <trkpt lat="42.45179" lon="2.13209">
        <ele>2744.3</ele>
        <time>2019-01-07T12:17:39Z</time>
      </trkpt>
      <trkpt lat="42.45175" lon="2.13206">
        <ele>2744.2</ele>
        <time>2019-01-07T12:17:40Z</time>
      </trkpt>
      <trkpt lat="42.45173" lon="2.13203">
        <ele>2744.2</ele>
        <time>2019-01-07T12:17:40Z</time>
      </trkpt>
      <trkpt lat="42.45172" lon="2.13203">
        <ele>2744.3</ele>
        <time>2019-01-07T12:17:41Z</time>
      </trkpt>
      <trkpt lat="42.45167" lon="2.13197">
        <ele>2746.2</ele>
        <time>2019-01-07T12:17:42Z</time>
      </trkpt>
      <trkpt lat="42.45164" lon="2.13194">
        <ele>2746.2</ele>
        <time>2019-01-07T12:17:43Z</time>
      </trkpt>
      <trkpt lat="42.45157" lon="2.13184">
        <ele>2745.7</ele>
        <time>2019-01-07T12:17:46Z</time>
      </trkpt>
      <trkpt lat="42.45146" lon="2.13175">
        <ele>2746.6</ele>
        <time>2019-01-07T12:17:49Z</time>
      </trkpt>
      <trkpt lat="42.45139" lon="2.13169">
        <ele>2747.6</ele>
        <time>2019-01-07T12:17:52Z</time>
      </trkpt>
      <trkpt lat="42.45136" lon="2.13167">
        <ele>2747.2</ele>
        <time>2019-01-07T12:17:53Z</time>
      </trkpt>
      <trkpt lat="42.45132" lon="2.13166">
        <ele>2748.5</ele>
        <time>2019-01-07T12:17:54Z</time>
      </trkpt>
      <trkpt lat="42.45129" lon="2.13164">
        <ele>2748.5</ele>
        <time>2019-01-07T12:17:55Z</time>
      </trkpt>
      <trkpt lat="42.45128" lon="2.13162">
        <ele>2746.3</ele>
        <time>2019-01-07T12:17:55Z</time>
      </trkpt>
      <trkpt lat="42.4513" lon="2.13156">
        <ele>2741.3</ele>
        <time>2019-01-07T12:17:57Z</time>
      </trkpt>
      <trkpt lat="42.45129" lon="2.13155">
        <ele>2740.4</ele>
        <time>2019-01-07T12:17:57Z</time>
      </trkpt>
      <trkpt lat="42.45128" lon="2.13155">
        <ele>2740.9</ele>
        <time>2019-01-07T12:17:57Z</time>
      </trkpt>
      <trkpt lat="42.45126" lon="2.13153">
        <ele>2741.8</ele>
        <time>2019-01-07T12:17:58Z</time>
      </trkpt>
      <trkpt lat="42.4512" lon="2.13149">
        <ele>2741.8</ele>
        <time>2019-01-07T12:18:00Z</time>
      </trkpt>
      <trkpt lat="42.45115" lon="2.13148">
        <ele>2741.8</ele>
        <time>2019-01-07T12:18:01Z</time>
      </trkpt>
      <trkpt lat="42.45113" lon="2.13147">
        <ele>2742.8</ele>
        <time>2019-01-07T12:18:02Z</time>
      </trkpt>
      <trkpt lat="42.45112" lon="2.13146">
        <ele>2743.3</ele>
        <time>2019-01-07T12:18:02Z</time>
      </trkpt>
      <trkpt lat="42.45107" lon="2.1314">
        <ele>2742.3</ele>
        <time>2019-01-07T12:18:04Z</time>
      </trkpt>
      <trkpt lat="42.45105" lon="2.13139">
        <ele>2742.3</ele>
        <time>2019-01-07T12:18:04Z</time>
      </trkpt>
      <trkpt lat="42.45104" lon="2.13138">
        <ele>2740.4</ele>
        <time>2019-01-07T12:18:05Z</time>
      </trkpt>
      <trkpt lat="42.45102" lon="2.13135">
        <ele>2739.5</ele>
        <time>2019-01-07T12:18:06Z</time>
      </trkpt>
      <trkpt lat="42.45099" lon="2.13129">
        <ele>2738</ele>
        <time>2019-01-07T12:18:07Z</time>
      </trkpt>
      <trkpt lat="42.45097" lon="2.13128">
        <ele>2737.1</ele>
        <time>2019-01-07T12:18:08Z</time>
      </trkpt>
      <trkpt lat="42.45096" lon="2.13125">
        <ele>2735.1</ele>
        <time>2019-01-07T12:18:08Z</time>
      </trkpt>
      <trkpt lat="42.45095" lon="2.13121">
        <ele>2733.7</ele>
        <time>2019-01-07T12:18:09Z</time>
      </trkpt>
      <trkpt lat="42.45094" lon="2.13117">
        <ele>2732.3</ele>
        <time>2019-01-07T12:18:10Z</time>
      </trkpt>
      <trkpt lat="42.45093" lon="2.13112">
        <ele>2730.3</ele>
        <time>2019-01-07T12:18:11Z</time>
      </trkpt>
      <trkpt lat="42.45092" lon="2.13106">
        <ele>2728.4</ele>
        <time>2019-01-07T12:18:12Z</time>
      </trkpt>
      <trkpt lat="42.45091" lon="2.13103">
        <ele>2727.5</ele>
        <time>2019-01-07T12:18:13Z</time>
      </trkpt>
      <trkpt lat="42.45091" lon="2.13097">
        <ele>2726</ele>
        <time>2019-01-07T12:18:14Z</time>
      </trkpt>
      <trkpt lat="42.4509" lon="2.13091">
        <ele>2724</ele>
        <time>2019-01-07T12:18:15Z</time>
      </trkpt>
      <trkpt lat="42.4509" lon="2.13086">
        <ele>2722.2</ele>
        <time>2019-01-07T12:18:16Z</time>
      </trkpt>
      <trkpt lat="42.45089" lon="2.1308">
        <ele>2720.8</ele>
        <time>2019-01-07T12:18:17Z</time>
      </trkpt>
      <trkpt lat="42.4509" lon="2.13075">
        <ele>2719.7</ele>
        <time>2019-01-07T12:18:18Z</time>
      </trkpt>
      <trkpt lat="42.45092" lon="2.13069">
        <ele>2718.3</ele>
        <time>2019-01-07T12:18:20Z</time>
      </trkpt>
      <trkpt lat="42.45092" lon="2.13059">
        <ele>2715.9</ele>
        <time>2019-01-07T12:18:22Z</time>
      </trkpt>
      <trkpt lat="42.45092" lon="2.13058">
        <ele>2716</ele>
        <time>2019-01-07T12:18:22Z</time>
      </trkpt>
      <trkpt lat="42.45094" lon="2.13046">
        <ele>2714.5</ele>
        <time>2019-01-07T12:18:24Z</time>
      </trkpt>
      <trkpt lat="42.45095" lon="2.13037">
        <ele>2713.5</ele>
        <time>2019-01-07T12:18:26Z</time>
      </trkpt>
      <trkpt lat="42.45096" lon="2.1303">
        <ele>2711.5</ele>
        <time>2019-01-07T12:18:28Z</time>
      </trkpt>
      <trkpt lat="42.45099" lon="2.1302">
        <ele>2710.1</ele>
        <time>2019-01-07T12:18:29Z</time>
      </trkpt>
      <trkpt lat="42.451" lon="2.13013">
        <ele>2709.2</ele>
        <time>2019-01-07T12:18:31Z</time>
      </trkpt>
      <trkpt lat="42.45104" lon="2.13002">
        <ele>2708.7</ele>
        <time>2019-01-07T12:18:33Z</time>
      </trkpt>
      <trkpt lat="42.45105" lon="2.12993">
        <ele>2707.3</ele>
        <time>2019-01-07T12:18:35Z</time>
      </trkpt>
      <trkpt lat="42.45107" lon="2.12985">
        <ele>2706.3</ele>
        <time>2019-01-07T12:18:37Z</time>
      </trkpt>
      <trkpt lat="42.45108" lon="2.12975">
        <ele>2704.8</ele>
        <time>2019-01-07T12:18:39Z</time>
      </trkpt>
      <trkpt lat="42.4511" lon="2.12969">
        <ele>2703.4</ele>
        <time>2019-01-07T12:18:40Z</time>
      </trkpt>
      <trkpt lat="42.45111" lon="2.12964">
        <ele>2702.5</ele>
        <time>2019-01-07T12:18:41Z</time>
      </trkpt>
      <trkpt lat="42.45112" lon="2.12957">
        <ele>2701.5</ele>
        <time>2019-01-07T12:18:42Z</time>
      </trkpt>
      <trkpt lat="42.45111" lon="2.1295">
        <ele>2701.4</ele>
        <time>2019-01-07T12:18:44Z</time>
      </trkpt>
      <trkpt lat="42.45112" lon="2.12942">
        <ele>2701.4</ele>
        <time>2019-01-07T12:18:45Z</time>
      </trkpt>
      <trkpt lat="42.45113" lon="2.12933">
        <ele>2702.9</ele>
        <time>2019-01-07T12:18:47Z</time>
      </trkpt>
      <trkpt lat="42.45113" lon="2.12933">
        <ele>2703.5</ele>
        <time>2019-01-07T12:18:47Z</time>
      </trkpt>
      <trkpt lat="42.45113" lon="2.12927">
        <ele>2701.1</ele>
        <time>2019-01-07T12:18:48Z</time>
      </trkpt>
      <trkpt lat="42.45107" lon="2.12937">
        <ele>2699.6</ele>
        <time>2019-01-07T12:18:51Z</time>
      </trkpt>
      <trkpt lat="42.45101" lon="2.12946">
        <ele>2697.6</ele>
        <time>2019-01-07T12:18:53Z</time>
      </trkpt>
      <trkpt lat="42.45096" lon="2.12955">
        <ele>2697.1</ele>
        <time>2019-01-07T12:18:55Z</time>
      </trkpt>
      <trkpt lat="42.45093" lon="2.12964">
        <ele>2697.1</ele>
        <time>2019-01-07T12:18:57Z</time>
      </trkpt>
      <trkpt lat="42.45089" lon="2.12976">
        <ele>2697.6</ele>
        <time>2019-01-07T12:19:00Z</time>
      </trkpt>
      <trkpt lat="42.45084" lon="2.1299">
        <ele>2698.6</ele>
        <time>2019-01-07T12:19:03Z</time>
      </trkpt>
      <trkpt lat="42.4508" lon="2.12999">
        <ele>2699.6</ele>
        <time>2019-01-07T12:19:05Z</time>
      </trkpt>
      <trkpt lat="42.45074" lon="2.13012">
        <ele>2698.5</ele>
        <time>2019-01-07T12:19:08Z</time>
      </trkpt>
      <trkpt lat="42.4507" lon="2.13022">
        <ele>2697.2</ele>
        <time>2019-01-07T12:19:10Z</time>
      </trkpt>
      <trkpt lat="42.45064" lon="2.13035">
        <ele>2696.3</ele>
        <time>2019-01-07T12:19:13Z</time>
      </trkpt>
      <trkpt lat="42.4506" lon="2.13047">
        <ele>2694.2</ele>
        <time>2019-01-07T12:19:16Z</time>
      </trkpt>
      <trkpt lat="42.45057" lon="2.1306">
        <ele>2692.9</ele>
        <time>2019-01-07T12:19:19Z</time>
      </trkpt>
      <trkpt lat="42.45054" lon="2.13069">
        <ele>2692.4</ele>
        <time>2019-01-07T12:19:21Z</time>
      </trkpt>
      <trkpt lat="42.4505" lon="2.13074">
        <ele>2694.2</ele>
        <time>2019-01-07T12:19:22Z</time>
      </trkpt>
      <trkpt lat="42.45046" lon="2.13078">
        <ele>2699.5</ele>
        <time>2019-01-07T12:19:23Z</time>
      </trkpt>
      <trkpt lat="42.45042" lon="2.13091">
        <ele>2701.9</ele>
        <time>2019-01-07T12:19:26Z</time>
      </trkpt>
      <trkpt lat="42.45186" lon="2.13196">
        <ele>2735.6</ele>
        <time>2019-01-07T13:51:21Z</time>
      </trkpt>
      <trkpt lat="42.45188" lon="2.13197">
        <ele>2736.1</ele>
        <time>2019-01-07T13:51:21Z</time>
      </trkpt>
      <trkpt lat="42.45196" lon="2.132">
        <ele>2738</ele>
        <time>2019-01-07T13:51:23Z</time>
      </trkpt>
      <trkpt lat="42.45203" lon="2.13201">
        <ele>2740.8</ele>
        <time>2019-01-07T13:51:25Z</time>
      </trkpt>
      <trkpt lat="42.45208" lon="2.132">
        <ele>2742.3</ele>
        <time>2019-01-07T13:51:27Z</time>
      </trkpt>
      <trkpt lat="42.45209" lon="2.13203">
        <ele>2745.1</ele>
        <time>2019-01-07T13:51:27Z</time>
      </trkpt>
      <trkpt lat="42.45208" lon="2.13203">
        <ele>2743.3</ele>
        <time>2019-01-07T13:51:27Z</time>
      </trkpt>
      <trkpt lat="42.45209" lon="2.13202">
        <ele>2744.3</ele>
        <time>2019-01-07T13:51:28Z</time>
      </trkpt>
      <trkpt lat="42.45209" lon="2.13201">
        <ele>2741.9</ele>
        <time>2019-01-07T13:51:28Z</time>
      </trkpt>
      <trkpt lat="42.45209" lon="2.13201">
        <ele>2742.8</ele>
        <time>2019-01-07T13:51:28Z</time>
      </trkpt>
      <trkpt lat="42.45209" lon="2.13201">
        <ele>2742.7</ele>
        <time>2019-01-07T13:51:28Z</time>
      </trkpt>
      <trkpt lat="42.45209" lon="2.13202">
        <ele>2742.7</ele>
        <time>2019-01-07T13:51:28Z</time>
      </trkpt>
      <trkpt lat="42.45209" lon="2.13202">
        <ele>2742.7</ele>
        <time>2019-01-07T13:51:28Z</time>
      </trkpt>
      <trkpt lat="42.45209" lon="2.13202">
        <ele>2741.9</ele>
        <time>2019-01-07T13:51:28Z</time>
      </trkpt>
      <trkpt lat="42.45207" lon="2.13202">
        <ele>2741.8</ele>
        <time>2019-01-07T13:51:29Z</time>
      </trkpt>
      <trkpt lat="42.45207" lon="2.13201">
        <ele>2742.7</ele>
        <time>2019-01-07T13:51:29Z</time>
      </trkpt>
      <trkpt lat="42.45208" lon="2.13201">
        <ele>2743.2</ele>
        <time>2019-01-07T13:51:29Z</time>
      </trkpt>
      <trkpt lat="42.45207" lon="2.13199">
        <ele>2742.3</ele>
        <time>2019-01-07T13:51:30Z</time>
      </trkpt>
      <trkpt lat="42.45203" lon="2.13197">
        <ele>2742.4</ele>
        <time>2019-01-07T13:51:31Z</time>
      </trkpt>
      <trkpt lat="42.452" lon="2.13197">
        <ele>2742.4</ele>
        <time>2019-01-07T13:51:32Z</time>
      </trkpt>
      <trkpt lat="42.452" lon="2.13197">
        <ele>2743.7</ele>
        <time>2019-01-07T13:51:32Z</time>
      </trkpt>
      <trkpt lat="42.452" lon="2.13198">
        <ele>2745.7</ele>
        <time>2019-01-07T13:51:32Z</time>
      </trkpt>
      <trkpt lat="42.45197" lon="2.13196">
        <ele>2744.3</ele>
        <time>2019-01-07T13:51:33Z</time>
      </trkpt>
      <trkpt lat="42.45192" lon="2.13194">
        <ele>2742.4</ele>
        <time>2019-01-07T13:51:34Z</time>
      </trkpt>
      <trkpt lat="42.45191" lon="2.13193">
        <ele>2744.3</ele>
        <time>2019-01-07T13:51:34Z</time>
      </trkpt>
      <trkpt lat="42.45189" lon="2.1319">
        <ele>2742.8</ele>
        <time>2019-01-07T13:51:35Z</time>
      </trkpt>
      <trkpt lat="42.45189" lon="2.1319">
        <ele>2742.8</ele>
        <time>2019-01-07T13:51:35Z</time>
      </trkpt>
      <trkpt lat="42.45187" lon="2.13187">
        <ele>2741.4</ele>
        <time>2019-01-07T13:51:36Z</time>
      </trkpt>
      <trkpt lat="42.45179" lon="2.13186">
        <ele>2737.9</ele>
        <time>2019-01-07T13:51:38Z</time>
      </trkpt>
      <trkpt lat="42.45171" lon="2.13182">
        <ele>2736</ele>
        <time>2019-01-07T13:51:40Z</time>
      </trkpt>
      <trkpt lat="42.45164" lon="2.13178">
        <ele>2735</ele>
        <time>2019-01-07T13:51:42Z</time>
      </trkpt>
      <trkpt lat="42.45161" lon="2.13175">
        <ele>2736.1</ele>
        <time>2019-01-07T13:51:43Z</time>
      </trkpt>
      <trkpt lat="42.45156" lon="2.13173">
        <ele>2737.5</ele>
        <time>2019-01-07T13:51:45Z</time>
      </trkpt>
      <trkpt lat="42.45153" lon="2.13171">
        <ele>2735.5</ele>
        <time>2019-01-07T13:51:46Z</time>
      </trkpt>
      <trkpt lat="42.45148" lon="2.13169">
        <ele>2732.3</ele>
        <time>2019-01-07T13:51:47Z</time>
      </trkpt>
      <trkpt lat="42.45141" lon="2.13161">
        <ele>2732.6</ele>
        <time>2019-01-07T13:51:50Z</time>
      </trkpt>
      <trkpt lat="42.45137" lon="2.13156">
        <ele>2735</ele>
        <time>2019-01-07T13:51:51Z</time>
      </trkpt>
      <trkpt lat="42.45137" lon="2.13156">
        <ele>2734.2</ele>
        <time>2019-01-07T13:51:51Z</time>
      </trkpt>
      <trkpt lat="42.45137" lon="2.13157">
        <ele>2735.6</ele>
        <time>2019-01-07T13:51:51Z</time>
      </trkpt>
      <trkpt lat="42.45137" lon="2.13157">
        <ele>2734.2</ele>
        <time>2019-01-07T13:51:51Z</time>
      </trkpt>
      <trkpt lat="42.45133" lon="2.13154">
        <ele>2735.5</ele>
        <time>2019-01-07T13:51:52Z</time>
      </trkpt>
      <trkpt lat="42.4513" lon="2.13152">
        <ele>2737</ele>
        <time>2019-01-07T13:51:53Z</time>
      </trkpt>
      <trkpt lat="42.45124" lon="2.1315">
        <ele>2739</ele>
        <time>2019-01-07T13:51:55Z</time>
      </trkpt>
      <trkpt lat="42.45121" lon="2.1315">
        <ele>2736.5</ele>
        <time>2019-01-07T13:51:56Z</time>
      </trkpt>
      <trkpt lat="42.45121" lon="2.13149">
        <ele>2736.6</ele>
        <time>2019-01-07T13:51:56Z</time>
      </trkpt>
      <trkpt lat="42.45122" lon="2.13148">
        <ele>2740.4</ele>
        <time>2019-01-07T13:51:56Z</time>
      </trkpt>
      <trkpt lat="42.45118" lon="2.13146">
        <ele>2738.4</ele>
        <time>2019-01-07T13:51:57Z</time>
      </trkpt>
      <trkpt lat="42.45116" lon="2.13144">
        <ele>2737.1</ele>
        <time>2019-01-07T13:51:58Z</time>
      </trkpt>
      <trkpt lat="42.45113" lon="2.13145">
        <ele>2738</ele>
        <time>2019-01-07T13:51:59Z</time>
      </trkpt>
      <trkpt lat="42.45112" lon="2.13143">
        <ele>2738</ele>
        <time>2019-01-07T13:51:59Z</time>
      </trkpt>
      <trkpt lat="42.45112" lon="2.13142">
        <ele>2737.9</ele>
        <time>2019-01-07T13:51:59Z</time>
      </trkpt>
      <trkpt lat="42.45109" lon="2.1314">
        <ele>2740.9</ele>
        <time>2019-01-07T13:52:00Z</time>
      </trkpt>
      <trkpt lat="42.45106" lon="2.13138">
        <ele>2741.8</ele>
        <time>2019-01-07T13:52:01Z</time>
      </trkpt>
      <trkpt lat="42.45106" lon="2.13136">
        <ele>2740.3</ele>
        <time>2019-01-07T13:52:01Z</time>
      </trkpt>
      <trkpt lat="42.451" lon="2.13133">
        <ele>2738.9</ele>
        <time>2019-01-07T13:52:03Z</time>
      </trkpt>
      <trkpt lat="42.451" lon="2.13132">
        <ele>2739</ele>
        <time>2019-01-07T13:52:03Z</time>
      </trkpt>
      <trkpt lat="42.45099" lon="2.13123">
        <ele>2736.6</ele>
        <time>2019-01-07T13:52:05Z</time>
      </trkpt>
      <trkpt lat="42.45097" lon="2.1312">
        <ele>2735.6</ele>
        <time>2019-01-07T13:52:06Z</time>
      </trkpt>
      <trkpt lat="42.45093" lon="2.13115">
        <ele>2733.1</ele>
        <time>2019-01-07T13:52:08Z</time>
      </trkpt>
      <trkpt lat="42.45092" lon="2.13113">
        <ele>2731.2</ele>
        <time>2019-01-07T13:52:08Z</time>
      </trkpt>
      <trkpt lat="42.45092" lon="2.13108">
        <ele>2732.2</ele>
        <time>2019-01-07T13:52:09Z</time>
      </trkpt>
      <trkpt lat="42.4509" lon="2.13103">
        <ele>2729.9</ele>
        <time>2019-01-07T13:52:10Z</time>
      </trkpt>
      <trkpt lat="42.4509" lon="2.13095">
        <ele>2726.5</ele>
        <time>2019-01-07T13:52:12Z</time>
      </trkpt>
      <trkpt lat="42.45089" lon="2.13086">
        <ele>2724.5</ele>
        <time>2019-01-07T13:52:13Z</time>
      </trkpt>
      <trkpt lat="42.45088" lon="2.13085">
        <ele>2723</ele>
        <time>2019-01-07T13:52:14Z</time>
      </trkpt>
      <trkpt lat="42.45089" lon="2.13085">
        <ele>2724.5</ele>
        <time>2019-01-07T13:52:14Z</time>
      </trkpt>
      <trkpt lat="42.45089" lon="2.13082">
        <ele>2724</ele>
        <time>2019-01-07T13:52:14Z</time>
      </trkpt>
      <trkpt lat="42.45091" lon="2.13066">
        <ele>2722.1</ele>
        <time>2019-01-07T13:52:17Z</time>
      </trkpt>
      <trkpt lat="42.45094" lon="2.13042">
        <ele>2719.7</ele>
        <time>2019-01-07T13:52:22Z</time>
      </trkpt>
      <trkpt lat="42.45099" lon="2.13028">
        <ele>2718.7</ele>
        <time>2019-01-07T13:52:25Z</time>
      </trkpt>
      <trkpt lat="42.45102" lon="2.1302">
        <ele>2717.4</ele>
        <time>2019-01-07T13:52:27Z</time>
      </trkpt>
      <trkpt lat="42.45104" lon="2.13018">
        <ele>2718.7</ele>
        <time>2019-01-07T13:52:28Z</time>
      </trkpt>
      <trkpt lat="42.45108" lon="2.13009">
        <ele>2717.7</ele>
        <time>2019-01-07T13:52:30Z</time>
      </trkpt>
      <trkpt lat="42.4511" lon="2.13006">
        <ele>2719.2</ele>
        <time>2019-01-07T13:52:31Z</time>
      </trkpt>
      <trkpt lat="42.45114" lon="2.13">
        <ele>2718.3</ele>
        <time>2019-01-07T13:52:32Z</time>
      </trkpt>
      <trkpt lat="42.45116" lon="2.12994">
        <ele>2719.8</ele>
        <time>2019-01-07T13:52:33Z</time>
      </trkpt>
      <trkpt lat="42.45117" lon="2.12987">
        <ele>2721.1</ele>
        <time>2019-01-07T13:52:35Z</time>
      </trkpt>
      <trkpt lat="42.45118" lon="2.12985">
        <ele>2718.2</ele>
        <time>2019-01-07T13:52:35Z</time>
      </trkpt>
      <trkpt lat="42.4512" lon="2.1298">
        <ele>2720.1</ele>
        <time>2019-01-07T13:52:37Z</time>
      </trkpt>
      <trkpt lat="42.45124" lon="2.12965">
        <ele>2717.3</ele>
        <time>2019-01-07T13:52:40Z</time>
      </trkpt>
      <trkpt lat="42.4513" lon="2.12955">
        <ele>2718.3</ele>
        <time>2019-01-07T13:52:42Z</time>
      </trkpt>
      <trkpt lat="42.45133" lon="2.12947">
        <ele>2718.7</ele>
        <time>2019-01-07T13:52:44Z</time>
      </trkpt>
      <trkpt lat="42.45133" lon="2.12942">
        <ele>2716.9</ele>
        <time>2019-01-07T13:52:45Z</time>
      </trkpt>
      <trkpt lat="42.45136" lon="2.12925">
        <ele>2715.8</ele>
        <time>2019-01-07T13:52:48Z</time>
      </trkpt>
      <trkpt lat="42.45136" lon="2.12924">
        <ele>2715.9</ele>
        <time>2019-01-07T13:52:49Z</time>
      </trkpt>
      <trkpt lat="42.45137" lon="2.12919">
        <ele>2715</ele>
        <time>2019-01-07T13:52:50Z</time>
      </trkpt>
      <trkpt lat="42.45137" lon="2.12918">
        <ele>2714.9</ele>
        <time>2019-01-07T13:52:50Z</time>
      </trkpt>
      <trkpt lat="42.45138" lon="2.12915">
        <ele>2718.3</ele>
        <time>2019-01-07T13:52:50Z</time>
      </trkpt>
      <trkpt lat="42.45138" lon="2.1291">
        <ele>2718.7</ele>
        <time>2019-01-07T13:52:51Z</time>
      </trkpt>
      <trkpt lat="42.45139" lon="2.12899">
        <ele>2716.3</ele>
        <time>2019-01-07T13:52:54Z</time>
      </trkpt>
      <trkpt lat="42.45139" lon="2.12897">
        <ele>2719.8</ele>
        <time>2019-01-07T13:52:54Z</time>
      </trkpt>
      <trkpt lat="42.4514" lon="2.12893">
        <ele>2715.3</ele>
        <time>2019-01-07T13:52:55Z</time>
      </trkpt>
      <trkpt lat="42.45142" lon="2.12888">
        <ele>2717.7</ele>
        <time>2019-01-07T13:52:56Z</time>
      </trkpt>
      <trkpt lat="42.45144" lon="2.12882">
        <ele>2717.3</ele>
        <time>2019-01-07T13:52:57Z</time>
      </trkpt>
      <trkpt lat="42.45144" lon="2.12882">
        <ele>2717.3</ele>
        <time>2019-01-07T13:52:57Z</time>
      </trkpt>
      <trkpt lat="42.45145" lon="2.12877">
        <ele>2715.8</ele>
        <time>2019-01-07T13:52:58Z</time>
      </trkpt>
      <trkpt lat="42.45146" lon="2.12877">
        <ele>2717.3</ele>
        <time>2019-01-07T13:52:59Z</time>
      </trkpt>
      <trkpt lat="42.45146" lon="2.12876">
        <ele>2717.7</ele>
        <time>2019-01-07T13:52:59Z</time>
      </trkpt>
      <trkpt lat="42.45147" lon="2.12873">
        <ele>2714.4</ele>
        <time>2019-01-07T13:52:59Z</time>
      </trkpt>
      <trkpt lat="42.45149" lon="2.12864">
        <ele>2715.4</ele>
        <time>2019-01-07T13:53:01Z</time>
      </trkpt>
      <trkpt lat="42.45149" lon="2.12858">
        <ele>2713.4</ele>
        <time>2019-01-07T13:53:02Z</time>
      </trkpt>
      <trkpt lat="42.45152" lon="2.12848">
        <ele>2710.5</ele>
        <time>2019-01-07T13:53:04Z</time>
      </trkpt>
      <trkpt lat="42.45152" lon="2.12844">
        <ele>2708.7</ele>
        <time>2019-01-07T13:53:05Z</time>
      </trkpt>
      <trkpt lat="42.45155" lon="2.12834">
        <ele>2706.7</ele>
        <time>2019-01-07T13:53:07Z</time>
      </trkpt>
      <trkpt lat="42.45156" lon="2.1283">
        <ele>2704.8</ele>
        <time>2019-01-07T13:53:08Z</time>
      </trkpt>
      <trkpt lat="42.45155" lon="2.12829">
        <ele>2705.2</ele>
        <time>2019-01-07T13:53:08Z</time>
      </trkpt>
      <trkpt lat="42.45156" lon="2.12828">
        <ele>2702</ele>
        <time>2019-01-07T13:53:09Z</time>
      </trkpt>
      <trkpt lat="42.45157" lon="2.12825">
        <ele>2700</ele>
        <time>2019-01-07T13:53:09Z</time>
      </trkpt>
      <trkpt lat="42.45157" lon="2.12823">
        <ele>2702</ele>
        <time>2019-01-07T13:53:10Z</time>
      </trkpt>
      <trkpt lat="42.45159" lon="2.12822">
        <ele>2705.2</ele>
        <time>2019-01-07T13:53:10Z</time>
      </trkpt>
      <trkpt lat="42.45159" lon="2.1282">
        <ele>2703.4</ele>
        <time>2019-01-07T13:53:11Z</time>
      </trkpt>
      <trkpt lat="42.45159" lon="2.12819">
        <ele>2701</ele>
        <time>2019-01-07T13:53:11Z</time>
      </trkpt>
      <trkpt lat="42.45159" lon="2.12819">
        <ele>2697.6</ele>
        <time>2019-01-07T13:53:11Z</time>
      </trkpt>
      <trkpt lat="42.4516" lon="2.12817">
        <ele>2701.9</ele>
        <time>2019-01-07T13:53:11Z</time>
      </trkpt>
      <trkpt lat="42.45159" lon="2.12816">
        <ele>2700</ele>
        <time>2019-01-07T13:53:11Z</time>
      </trkpt>
      <trkpt lat="42.45158" lon="2.12816">
        <ele>2697.7</ele>
        <time>2019-01-07T13:53:12Z</time>
      </trkpt>
      <trkpt lat="42.45158" lon="2.12815">
        <ele>2696.2</ele>
        <time>2019-01-07T13:53:12Z</time>
      </trkpt>
      <trkpt lat="42.45159" lon="2.12814">
        <ele>2700</ele>
        <time>2019-01-07T13:53:12Z</time>
      </trkpt>
      <trkpt lat="42.45158" lon="2.12812">
        <ele>2697.6</ele>
        <time>2019-01-07T13:53:13Z</time>
      </trkpt>
      <trkpt lat="42.4516" lon="2.12803">
        <ele>2695.6</ele>
        <time>2019-01-07T13:53:15Z</time>
      </trkpt>
      <trkpt lat="42.4516" lon="2.12802">
        <ele>2695.6</ele>
        <time>2019-01-07T13:53:15Z</time>
      </trkpt>
      <trkpt lat="42.45162" lon="2.12796">
        <ele>2691.9</ele>
        <time>2019-01-07T13:53:16Z</time>
      </trkpt>
      <trkpt lat="42.45164" lon="2.12792">
        <ele>2689.5</ele>
        <time>2019-01-07T13:53:17Z</time>
      </trkpt>
      <trkpt lat="42.45164" lon="2.12792">
        <ele>2689.5</ele>
        <time>2019-01-07T13:53:17Z</time>
      </trkpt>
      <trkpt lat="42.45166" lon="2.12789">
        <ele>2692.3</ele>
        <time>2019-01-07T13:53:18Z</time>
      </trkpt>
      <trkpt lat="42.45166" lon="2.12776">
        <ele>2688.9</ele>
        <time>2019-01-07T13:53:20Z</time>
      </trkpt>
      <trkpt lat="42.45165" lon="2.12775">
        <ele>2689</ele>
        <time>2019-01-07T13:53:20Z</time>
      </trkpt>
      <trkpt lat="42.45165" lon="2.12773">
        <ele>2686.1</ele>
        <time>2019-01-07T13:53:21Z</time>
      </trkpt>
      <trkpt lat="42.45166" lon="2.12771">
        <ele>2688.9</ele>
        <time>2019-01-07T13:53:21Z</time>
      </trkpt>
      <trkpt lat="42.45166" lon="2.12771">
        <ele>2687.5</ele>
        <time>2019-01-07T13:53:21Z</time>
      </trkpt>
      <trkpt lat="42.45164" lon="2.12767">
        <ele>2688.9</ele>
        <time>2019-01-07T13:53:22Z</time>
      </trkpt>
      <trkpt lat="42.45164" lon="2.12763">
        <ele>2687</ele>
        <time>2019-01-07T13:53:23Z</time>
      </trkpt>
      <trkpt lat="42.45167" lon="2.12759">
        <ele>2687.1</ele>
        <time>2019-01-07T13:53:24Z</time>
      </trkpt>
      <trkpt lat="42.45166" lon="2.12758">
        <ele>2685.1</ele>
        <time>2019-01-07T13:53:24Z</time>
      </trkpt>
      <trkpt lat="42.45163" lon="2.12751">
        <ele>2683.1</ele>
        <time>2019-01-07T13:53:26Z</time>
      </trkpt>
      <trkpt lat="42.45163" lon="2.12742">
        <ele>2680.7</ele>
        <time>2019-01-07T13:53:28Z</time>
      </trkpt>
      <trkpt lat="42.45163" lon="2.12739">
        <ele>2683.1</ele>
        <time>2019-01-07T13:53:28Z</time>
      </trkpt>
      <trkpt lat="42.45164" lon="2.12738">
        <ele>2683.1</ele>
        <time>2019-01-07T13:53:29Z</time>
      </trkpt>
      <trkpt lat="42.45165" lon="2.12737">
        <ele>2683.1</ele>
        <time>2019-01-07T13:53:29Z</time>
      </trkpt>
      <trkpt lat="42.45166" lon="2.12736">
        <ele>2679.9</ele>
        <time>2019-01-07T13:53:29Z</time>
      </trkpt>
      <trkpt lat="42.45167" lon="2.12735">
        <ele>2682.8</ele>
        <time>2019-01-07T13:53:30Z</time>
      </trkpt>
      <trkpt lat="42.4517" lon="2.12728">
        <ele>2685.2</ele>
        <time>2019-01-07T13:53:31Z</time>
      </trkpt>
      <trkpt lat="42.45172" lon="2.12721">
        <ele>2687.9</ele>
        <time>2019-01-07T13:53:33Z</time>
      </trkpt>
      <trkpt lat="42.45175" lon="2.12713">
        <ele>2689.4</ele>
        <time>2019-01-07T13:53:34Z</time>
      </trkpt>
      <trkpt lat="42.45176" lon="2.1271">
        <ele>2687</ele>
        <time>2019-01-07T13:53:35Z</time>
      </trkpt>
      <trkpt lat="42.45177" lon="2.12708">
        <ele>2690.8</ele>
        <time>2019-01-07T13:53:36Z</time>
      </trkpt>
      <trkpt lat="42.45178" lon="2.12704">
        <ele>2690.8</ele>
        <time>2019-01-07T13:53:36Z</time>
      </trkpt>
      <trkpt lat="42.45178" lon="2.12703">
        <ele>2690</ele>
        <time>2019-01-07T13:53:37Z</time>
      </trkpt>
      <trkpt lat="42.4518" lon="2.12702">
        <ele>2686.5</ele>
        <time>2019-01-07T13:53:37Z</time>
      </trkpt>
      <trkpt lat="42.45185" lon="2.12696">
        <ele>2690.3</ele>
        <time>2019-01-07T13:53:39Z</time>
      </trkpt>
      <trkpt lat="42.45188" lon="2.12691">
        <ele>2692.8</ele>
        <time>2019-01-07T13:53:40Z</time>
      </trkpt>
      <trkpt lat="42.45194" lon="2.12684">
        <ele>2695.1</ele>
        <time>2019-01-07T13:53:42Z</time>
      </trkpt>
      <trkpt lat="42.45194" lon="2.12683">
        <ele>2695.2</ele>
        <time>2019-01-07T13:53:42Z</time>
      </trkpt>
      <trkpt lat="42.45195" lon="2.1268">
        <ele>2698.6</ele>
        <time>2019-01-07T13:53:43Z</time>
      </trkpt>
      <trkpt lat="42.45196" lon="2.12679">
        <ele>2700.4</ele>
        <time>2019-01-07T13:53:43Z</time>
      </trkpt>
      <trkpt lat="42.45197" lon="2.12677">
        <ele>2697.2</ele>
        <time>2019-01-07T13:53:44Z</time>
      </trkpt>
      <trkpt lat="42.45205" lon="2.12669">
        <ele>2695.7</ele>
        <time>2019-01-07T13:53:47Z</time>
      </trkpt>
      <trkpt lat="42.4521" lon="2.12667">
        <ele>2698.6</ele>
        <time>2019-01-07T13:53:48Z</time>
      </trkpt>
      <trkpt lat="42.45212" lon="2.12663">
        <ele>2700</ele>
        <time>2019-01-07T13:53:49Z</time>
      </trkpt>
      <trkpt lat="42.45212" lon="2.12661">
        <ele>2698</ele>
        <time>2019-01-07T13:53:49Z</time>
      </trkpt>
      <trkpt lat="42.45215" lon="2.12658">
        <ele>2699.5</ele>
        <time>2019-01-07T13:53:50Z</time>
      </trkpt>
      <trkpt lat="42.45215" lon="2.12657">
        <ele>2701.9</ele>
        <time>2019-01-07T13:53:50Z</time>
      </trkpt>
      <trkpt lat="42.45222" lon="2.12643">
        <ele>2698</ele>
        <time>2019-01-07T13:53:54Z</time>
      </trkpt>
      <trkpt lat="42.45227" lon="2.12628">
        <ele>2697.7</ele>
        <time>2019-01-07T13:53:57Z</time>
      </trkpt>
      <trkpt lat="42.4523" lon="2.12613">
        <ele>2696.2</ele>
        <time>2019-01-07T13:54:00Z</time>
      </trkpt>
      <trkpt lat="42.45235" lon="2.12598">
        <ele>2698.6</ele>
        <time>2019-01-07T13:54:03Z</time>
      </trkpt>
      <trkpt lat="42.45237" lon="2.12588">
        <ele>2700.4</ele>
        <time>2019-01-07T13:54:05Z</time>
      </trkpt>
      <trkpt lat="42.45239" lon="2.12581">
        <ele>2699.1</ele>
        <time>2019-01-07T13:54:07Z</time>
      </trkpt>
      <trkpt lat="42.45242" lon="2.12563">
        <ele>2701</ele>
        <time>2019-01-07T13:54:10Z</time>
      </trkpt>
      <trkpt lat="42.45245" lon="2.12558">
        <ele>2702</ele>
        <time>2019-01-07T13:54:12Z</time>
      </trkpt>
      <trkpt lat="42.45249" lon="2.12549">
        <ele>2704.3</ele>
        <time>2019-01-07T13:54:14Z</time>
      </trkpt>
      <trkpt lat="42.45251" lon="2.12544">
        <ele>2704.4</ele>
        <time>2019-01-07T13:54:15Z</time>
      </trkpt>
      <trkpt lat="42.45252" lon="2.12541">
        <ele>2704.8</ele>
        <time>2019-01-07T13:54:15Z</time>
      </trkpt>
      <trkpt lat="42.45254" lon="2.12528">
        <ele>2706.2</ele>
        <time>2019-01-07T13:54:18Z</time>
      </trkpt>
      <trkpt lat="42.45255" lon="2.12528">
        <ele>2707.3</ele>
        <time>2019-01-07T13:54:18Z</time>
      </trkpt>
      <trkpt lat="42.45258" lon="2.12527">
        <ele>2710</ele>
        <time>2019-01-07T13:54:19Z</time>
      </trkpt>
      <trkpt lat="42.45258" lon="2.12526">
        <ele>2711.6</ele>
        <time>2019-01-07T13:54:19Z</time>
      </trkpt>
      <trkpt lat="42.4526" lon="2.12524">
        <ele>2710.1</ele>
        <time>2019-01-07T13:54:20Z</time>
      </trkpt>
      <trkpt lat="42.4526" lon="2.12523">
        <ele>2695.2</ele>
        <time>2019-01-07T13:54:20Z</time>
      </trkpt>
      <trkpt lat="42.45261" lon="2.12522">
        <ele>2696.7</ele>
        <time>2019-01-07T13:54:20Z</time>
      </trkpt>
      <trkpt lat="42.45262" lon="2.12515">
        <ele>2696.1</ele>
        <time>2019-01-07T13:54:22Z</time>
      </trkpt>
      <trkpt lat="42.45263" lon="2.12502">
        <ele>2695.1</ele>
        <time>2019-01-07T13:54:24Z</time>
      </trkpt>
      <trkpt lat="42.45266" lon="2.12488">
        <ele>2694.2</ele>
        <time>2019-01-07T13:54:27Z</time>
      </trkpt>
      <trkpt lat="42.45267" lon="2.1248">
        <ele>2692.8</ele>
        <time>2019-01-07T13:54:29Z</time>
      </trkpt>
      <trkpt lat="42.45269" lon="2.12475">
        <ele>2690.8</ele>
        <time>2019-01-07T13:54:30Z</time>
      </trkpt>
      <trkpt lat="42.4527" lon="2.12471">
        <ele>2693.7</ele>
        <time>2019-01-07T13:54:31Z</time>
      </trkpt>
      <trkpt lat="42.4527" lon="2.12468">
        <ele>2691.9</ele>
        <time>2019-01-07T13:54:31Z</time>
      </trkpt>
      <trkpt lat="42.45271" lon="2.12466">
        <ele>2693.3</ele>
        <time>2019-01-07T13:54:32Z</time>
      </trkpt>
      <trkpt lat="42.45273" lon="2.12455">
        <ele>2690.9</ele>
        <time>2019-01-07T13:54:34Z</time>
      </trkpt>
      <trkpt lat="42.45276" lon="2.12443">
        <ele>2688</ele>
        <time>2019-01-07T13:54:37Z</time>
      </trkpt>
      <trkpt lat="42.45279" lon="2.12434">
        <ele>2685.1</ele>
        <time>2019-01-07T13:54:39Z</time>
      </trkpt>
      <trkpt lat="42.45279" lon="2.12432">
        <ele>2683.7</ele>
        <time>2019-01-07T13:54:39Z</time>
      </trkpt>
      <trkpt lat="42.45279" lon="2.12432">
        <ele>2683.6</ele>
        <time>2019-01-07T13:54:39Z</time>
      </trkpt>
      <trkpt lat="42.4528" lon="2.12424">
        <ele>2684.2</ele>
        <time>2019-01-07T13:54:40Z</time>
      </trkpt>
      <trkpt lat="42.45281" lon="2.1242">
        <ele>2682.7</ele>
        <time>2019-01-07T13:54:41Z</time>
      </trkpt>
      <trkpt lat="42.45281" lon="2.12416">
        <ele>2682.2</ele>
        <time>2019-01-07T13:54:42Z</time>
      </trkpt>
      <trkpt lat="42.45282" lon="2.12409">
        <ele>2683.6</ele>
        <time>2019-01-07T13:54:43Z</time>
      </trkpt>
      <trkpt lat="42.45283" lon="2.12398">
        <ele>2682.2</ele>
        <time>2019-01-07T13:54:46Z</time>
      </trkpt>
      <trkpt lat="42.45285" lon="2.12394">
        <ele>2680.7</ele>
        <time>2019-01-07T13:54:47Z</time>
      </trkpt>
      <trkpt lat="42.45285" lon="2.12391">
        <ele>2680.8</ele>
        <time>2019-01-07T13:54:47Z</time>
      </trkpt>
      <trkpt lat="42.45289" lon="2.12385">
        <ele>2678.4</ele>
        <time>2019-01-07T13:54:49Z</time>
      </trkpt>
      <trkpt lat="42.45292" lon="2.12374">
        <ele>2675.4</ele>
        <time>2019-01-07T13:54:51Z</time>
      </trkpt>
      <trkpt lat="42.45295" lon="2.12366">
        <ele>2672.7</ele>
        <time>2019-01-07T13:54:53Z</time>
      </trkpt>
      <trkpt lat="42.45299" lon="2.12357">
        <ele>2670.2</ele>
        <time>2019-01-07T13:54:55Z</time>
      </trkpt>
      <trkpt lat="42.45306" lon="2.12349">
        <ele>2668.8</ele>
        <time>2019-01-07T13:54:58Z</time>
      </trkpt>
      <trkpt lat="42.45311" lon="2.12343">
        <ele>2666.3</ele>
        <time>2019-01-07T13:54:59Z</time>
      </trkpt>
      <trkpt lat="42.45319" lon="2.1234">
        <ele>2664</ele>
        <time>2019-01-07T13:55:01Z</time>
      </trkpt>
      <trkpt lat="42.45324" lon="2.12336">
        <ele>2661.6</ele>
        <time>2019-01-07T13:55:03Z</time>
      </trkpt>
      <trkpt lat="42.45328" lon="2.12331">
        <ele>2659.6</ele>
        <time>2019-01-07T13:55:05Z</time>
      </trkpt>
      <trkpt lat="42.45331" lon="2.12325">
        <ele>2658.6</ele>
        <time>2019-01-07T13:55:06Z</time>
      </trkpt>
      <trkpt lat="42.45331" lon="2.12324">
        <ele>2658.6</ele>
        <time>2019-01-07T13:55:06Z</time>
      </trkpt>
      <trkpt lat="42.45332" lon="2.12324">
        <ele>2655.4</ele>
        <time>2019-01-07T13:55:06Z</time>
      </trkpt>
      <trkpt lat="42.45336" lon="2.1232">
        <ele>2655.4</ele>
        <time>2019-01-07T13:55:08Z</time>
      </trkpt>
      <trkpt lat="42.45337" lon="2.12317">
        <ele>2657.3</ele>
        <time>2019-01-07T13:55:08Z</time>
      </trkpt>
      <trkpt lat="42.45337" lon="2.12307">
        <ele>2654.4</ele>
        <time>2019-01-07T13:55:10Z</time>
      </trkpt>
      <trkpt lat="42.45345" lon="2.12307">
        <ele>2652</ele>
        <time>2019-01-07T13:55:12Z</time>
      </trkpt>
      <trkpt lat="42.45345" lon="2.12307">
        <ele>2651.9</ele>
        <time>2019-01-07T13:55:12Z</time>
      </trkpt>
      <trkpt lat="42.45347" lon="2.12306">
        <ele>2653.4</ele>
        <time>2019-01-07T13:55:13Z</time>
      </trkpt>
      <trkpt lat="42.45348" lon="2.12305">
        <ele>2653.4</ele>
        <time>2019-01-07T13:55:13Z</time>
      </trkpt>
      <trkpt lat="42.45349" lon="2.12305">
        <ele>2653.4</ele>
        <time>2019-01-07T13:55:13Z</time>
      </trkpt>
      <trkpt lat="42.45351" lon="2.12295">
        <ele>2650</ele>
        <time>2019-01-07T13:55:15Z</time>
      </trkpt>
      <trkpt lat="42.45353" lon="2.12292">
        <ele>2649.5</ele>
        <time>2019-01-07T13:55:16Z</time>
      </trkpt>
      <trkpt lat="42.45358" lon="2.12287">
        <ele>2646.6</ele>
        <time>2019-01-07T13:55:18Z</time>
      </trkpt>
      <trkpt lat="42.45365" lon="2.12283">
        <ele>2644.3</ele>
        <time>2019-01-07T13:55:20Z</time>
      </trkpt>
      <trkpt lat="42.4537" lon="2.12276">
        <ele>2641.9</ele>
        <time>2019-01-07T13:55:22Z</time>
      </trkpt>
      <trkpt lat="42.45374" lon="2.12272">
        <ele>2640.9</ele>
        <time>2019-01-07T13:55:23Z</time>
      </trkpt>
      <trkpt lat="42.45377" lon="2.12266">
        <ele>2640</ele>
        <time>2019-01-07T13:55:25Z</time>
      </trkpt>
      <trkpt lat="42.45378" lon="2.12261">
        <ele>2638.5</ele>
        <time>2019-01-07T13:55:26Z</time>
      </trkpt>
      <trkpt lat="42.45378" lon="2.12261">
        <ele>2640.4</ele>
        <time>2019-01-07T13:55:26Z</time>
      </trkpt>
      <trkpt lat="42.45383" lon="2.12255">
        <ele>2638.4</ele>
        <time>2019-01-07T13:55:27Z</time>
      </trkpt>
      <trkpt lat="42.45385" lon="2.12252">
        <ele>2635.6</ele>
        <time>2019-01-07T13:55:28Z</time>
      </trkpt>
      <trkpt lat="42.45385" lon="2.12252">
        <ele>2636.1</ele>
        <time>2019-01-07T13:55:28Z</time>
      </trkpt>
      <trkpt lat="42.45388" lon="2.1225">
        <ele>2637.9</ele>
        <time>2019-01-07T13:55:29Z</time>
      </trkpt>
      <trkpt lat="42.45393" lon="2.12244">
        <ele>2634.6</ele>
        <time>2019-01-07T13:55:31Z</time>
      </trkpt>
      <trkpt lat="42.454" lon="2.12234">
        <ele>2633.1</ele>
        <time>2019-01-07T13:55:34Z</time>
      </trkpt>
      <trkpt lat="42.45405" lon="2.12222">
        <ele>2631.7</ele>
        <time>2019-01-07T13:55:36Z</time>
      </trkpt>
      <trkpt lat="42.45407" lon="2.12219">
        <ele>2630.3</ele>
        <time>2019-01-07T13:55:37Z</time>
      </trkpt>
      <trkpt lat="42.45411" lon="2.12212">
        <ele>2626.9</ele>
        <time>2019-01-07T13:55:39Z</time>
      </trkpt>
      <trkpt lat="42.45417" lon="2.12205">
        <ele>2625.6</ele>
        <time>2019-01-07T13:55:41Z</time>
      </trkpt>
      <trkpt lat="42.45424" lon="2.12193">
        <ele>2624.5</ele>
        <time>2019-01-07T13:55:44Z</time>
      </trkpt>
      <trkpt lat="42.45428" lon="2.12188">
        <ele>2623.1</ele>
        <time>2019-01-07T13:55:46Z</time>
      </trkpt>
      <trkpt lat="42.45434" lon="2.1218">
        <ele>2621.7</ele>
        <time>2019-01-07T13:55:48Z</time>
      </trkpt>
      <trkpt lat="42.45442" lon="2.12168">
        <ele>2620.3</ele>
        <time>2019-01-07T13:55:51Z</time>
      </trkpt>
      <trkpt lat="42.45444" lon="2.12166">
        <ele>2619.8</ele>
        <time>2019-01-07T13:55:52Z</time>
      </trkpt>
      <trkpt lat="42.45452" lon="2.12155">
        <ele>2616.8</ele>
        <time>2019-01-07T13:55:55Z</time>
      </trkpt>
      <trkpt lat="42.45453" lon="2.12153">
        <ele>2616.3</ele>
        <time>2019-01-07T13:55:55Z</time>
      </trkpt>
      <trkpt lat="42.45455" lon="2.12149">
        <ele>2615.8</ele>
        <time>2019-01-07T13:55:56Z</time>
      </trkpt>
      <trkpt lat="42.45463" lon="2.12131">
        <ele>2614.4</ele>
        <time>2019-01-07T13:56:00Z</time>
      </trkpt>
      <trkpt lat="42.45468" lon="2.12123">
        <ele>2613.5</ele>
        <time>2019-01-07T13:56:02Z</time>
      </trkpt>
      <trkpt lat="42.4548" lon="2.12103">
        <ele>2612.6</ele>
        <time>2019-01-07T13:56:07Z</time>
      </trkpt>
      <trkpt lat="42.45483" lon="2.12099">
        <ele>2612</ele>
        <time>2019-01-07T13:56:09Z</time>
      </trkpt>
      <trkpt lat="42.45484" lon="2.12098">
        <ele>2611.5</ele>
        <time>2019-01-07T13:56:09Z</time>
      </trkpt>
      <trkpt lat="42.45493" lon="2.12085">
        <ele>2611.5</ele>
        <time>2019-01-07T13:56:12Z</time>
      </trkpt>
      <trkpt lat="42.45494" lon="2.12077">
        <ele>2610.6</ele>
        <time>2019-01-07T13:56:14Z</time>
      </trkpt>
      <trkpt lat="42.45497" lon="2.12072">
        <ele>2610.7</ele>
        <time>2019-01-07T13:56:15Z</time>
      </trkpt>
      <trkpt lat="42.45502" lon="2.12061">
        <ele>2607.8</ele>
        <time>2019-01-07T13:56:18Z</time>
      </trkpt>
      <trkpt lat="42.45505" lon="2.12057">
        <ele>2606.7</ele>
        <time>2019-01-07T13:56:19Z</time>
      </trkpt>
      <trkpt lat="42.45505" lon="2.12057">
        <ele>2606.7</ele>
        <time>2019-01-07T13:56:19Z</time>
      </trkpt>
      <trkpt lat="42.45505" lon="2.12058">
        <ele>2603.4</ele>
        <time>2019-01-07T13:56:19Z</time>
      </trkpt>
      <trkpt lat="42.45506" lon="2.12057">
        <ele>2605.4</ele>
        <time>2019-01-07T13:56:19Z</time>
      </trkpt>
      <trkpt lat="42.45508" lon="2.12056">
        <ele>2603.8</ele>
        <time>2019-01-07T13:56:20Z</time>
      </trkpt>
      <trkpt lat="42.45508" lon="2.12056">
        <ele>2603.9</ele>
        <time>2019-01-07T13:56:20Z</time>
      </trkpt>
      <trkpt lat="42.45513" lon="2.12045">
        <ele>2603.4</ele>
        <time>2019-01-07T13:56:22Z</time>
      </trkpt>
      <trkpt lat="42.45516" lon="2.12041">
        <ele>2601</ele>
        <time>2019-01-07T13:56:23Z</time>
      </trkpt>
      <trkpt lat="42.45526" lon="2.1203">
        <ele>2597.7</ele>
        <time>2019-01-07T13:56:27Z</time>
      </trkpt>
      <trkpt lat="42.45532" lon="2.12022">
        <ele>2595.7</ele>
        <time>2019-01-07T13:56:29Z</time>
      </trkpt>
      <trkpt lat="42.45544" lon="2.12009">
        <ele>2595.8</ele>
        <time>2019-01-07T13:56:33Z</time>
      </trkpt>
      <trkpt lat="42.45551" lon="2.11999">
        <ele>2595.7</ele>
        <time>2019-01-07T13:56:36Z</time>
      </trkpt>
      <trkpt lat="42.45553" lon="2.11993">
        <ele>2594.2</ele>
        <time>2019-01-07T13:56:37Z</time>
      </trkpt>
      <trkpt lat="42.45557" lon="2.11977">
        <ele>2592.8</ele>
        <time>2019-01-07T13:56:40Z</time>
      </trkpt>
      <trkpt lat="42.45559" lon="2.11975">
        <ele>2592.8</ele>
        <time>2019-01-07T13:56:41Z</time>
      </trkpt>
      <trkpt lat="42.45562" lon="2.11972">
        <ele>2592.4</ele>
        <time>2019-01-07T13:56:42Z</time>
      </trkpt>
      <trkpt lat="42.45564" lon="2.11969">
        <ele>2590.8</ele>
        <time>2019-01-07T13:56:43Z</time>
      </trkpt>
      <trkpt lat="42.45571" lon="2.11959">
        <ele>2588.5</ele>
        <time>2019-01-07T13:56:45Z</time>
      </trkpt>
      <trkpt lat="42.45578" lon="2.11951">
        <ele>2586</ele>
        <time>2019-01-07T13:56:48Z</time>
      </trkpt>
      <trkpt lat="42.45585" lon="2.11947">
        <ele>2585.6</ele>
        <time>2019-01-07T13:56:50Z</time>
      </trkpt>
      <trkpt lat="42.45585" lon="2.11947">
        <ele>2585.6</ele>
        <time>2019-01-07T13:56:50Z</time>
      </trkpt>
      <trkpt lat="42.45591" lon="2.11943">
        <ele>2582.3</ele>
        <time>2019-01-07T13:56:52Z</time>
      </trkpt>
      <trkpt lat="42.45597" lon="2.11939">
        <ele>2579.3</ele>
        <time>2019-01-07T13:56:54Z</time>
      </trkpt>
      <trkpt lat="42.45606" lon="2.1193">
        <ele>2576.4</ele>
        <time>2019-01-07T13:56:57Z</time>
      </trkpt>
      <trkpt lat="42.45612" lon="2.11924">
        <ele>2574.5</ele>
        <time>2019-01-07T13:56:59Z</time>
      </trkpt>
      <trkpt lat="42.45613" lon="2.11924">
        <ele>2573.5</ele>
        <time>2019-01-07T13:56:59Z</time>
      </trkpt>
      <trkpt lat="42.45621" lon="2.11913">
        <ele>2572.2</ele>
        <time>2019-01-07T13:57:02Z</time>
      </trkpt>
      <trkpt lat="42.45627" lon="2.11905">
        <ele>2569.7</ele>
        <time>2019-01-07T13:57:04Z</time>
      </trkpt>
      <trkpt lat="42.45635" lon="2.11899">
        <ele>2566.8</ele>
        <time>2019-01-07T13:57:06Z</time>
      </trkpt>
      <trkpt lat="42.45643" lon="2.11893">
        <ele>2565.5</ele>
        <time>2019-01-07T13:57:09Z</time>
      </trkpt>
      <trkpt lat="42.45652" lon="2.11886">
        <ele>2562.6</ele>
        <time>2019-01-07T13:57:12Z</time>
      </trkpt>
      <trkpt lat="42.45655" lon="2.11884">
        <ele>2559.1</ele>
        <time>2019-01-07T13:57:13Z</time>
      </trkpt>
      <trkpt lat="42.45658" lon="2.11882">
        <ele>2560.7</ele>
        <time>2019-01-07T13:57:14Z</time>
      </trkpt>
      <trkpt lat="42.45658" lon="2.11881">
        <ele>2556.8</ele>
        <time>2019-01-07T13:57:14Z</time>
      </trkpt>
      <trkpt lat="42.45662" lon="2.11879">
        <ele>2559.2</ele>
        <time>2019-01-07T13:57:15Z</time>
      </trkpt>
      <trkpt lat="42.45672" lon="2.11872">
        <ele>2556.3</ele>
        <time>2019-01-07T13:57:18Z</time>
      </trkpt>
      <trkpt lat="42.45672" lon="2.11871">
        <ele>2556.2</ele>
        <time>2019-01-07T13:57:18Z</time>
      </trkpt>
      <trkpt lat="42.4568" lon="2.11861">
        <ele>2553.4</ele>
        <time>2019-01-07T13:57:21Z</time>
      </trkpt>
      <trkpt lat="42.45683" lon="2.11856">
        <ele>2551.4</ele>
        <time>2019-01-07T13:57:22Z</time>
      </trkpt>
      <trkpt lat="42.45693" lon="2.11846">
        <ele>2549.1</ele>
        <time>2019-01-07T13:57:25Z</time>
      </trkpt>
      <trkpt lat="42.45699" lon="2.1184">
        <ele>2547.6</ele>
        <time>2019-01-07T13:57:27Z</time>
      </trkpt>
      <trkpt lat="42.45706" lon="2.1183">
        <ele>2545.3</ele>
        <time>2019-01-07T13:57:30Z</time>
      </trkpt>
      <trkpt lat="42.45713" lon="2.11822">
        <ele>2543.8</ele>
        <time>2019-01-07T13:57:32Z</time>
      </trkpt>
      <trkpt lat="42.45717" lon="2.11816">
        <ele>2541.9</ele>
        <time>2019-01-07T13:57:34Z</time>
      </trkpt>
      <trkpt lat="42.45721" lon="2.11809">
        <ele>2541.9</ele>
        <time>2019-01-07T13:57:36Z</time>
      </trkpt>
      <trkpt lat="42.45723" lon="2.11807">
        <ele>2541</ele>
        <time>2019-01-07T13:57:37Z</time>
      </trkpt>
      <trkpt lat="42.45723" lon="2.11806">
        <ele>2538.5</ele>
        <time>2019-01-07T13:57:37Z</time>
      </trkpt>
      <trkpt lat="42.45726" lon="2.11802">
        <ele>2539.5</ele>
        <time>2019-01-07T13:57:38Z</time>
      </trkpt>
      <trkpt lat="42.45727" lon="2.118">
        <ele>2538.5</ele>
        <time>2019-01-07T13:57:38Z</time>
      </trkpt>
      <trkpt lat="42.4573" lon="2.11796">
        <ele>2537</ele>
        <time>2019-01-07T13:57:39Z</time>
      </trkpt>
      <trkpt lat="42.45738" lon="2.11791">
        <ele>2533.6</ele>
        <time>2019-01-07T13:57:42Z</time>
      </trkpt>
      <trkpt lat="42.45746" lon="2.11786">
        <ele>2529.9</ele>
        <time>2019-01-07T13:57:44Z</time>
      </trkpt>
      <trkpt lat="42.45747" lon="2.11784">
        <ele>2528.9</ele>
        <time>2019-01-07T13:57:45Z</time>
      </trkpt>
      <trkpt lat="42.45748" lon="2.11783">
        <ele>2528</ele>
        <time>2019-01-07T13:57:45Z</time>
      </trkpt>
      <trkpt lat="42.45756" lon="2.11786">
        <ele>2525.6</ele>
        <time>2019-01-07T13:57:47Z</time>
      </trkpt>
      <trkpt lat="42.45756" lon="2.11786">
        <ele>2525.1</ele>
        <time>2019-01-07T13:57:47Z</time>
      </trkpt>
      <trkpt lat="42.4576" lon="2.11786">
        <ele>2521.7</ele>
        <time>2019-01-07T13:57:48Z</time>
      </trkpt>
      <trkpt lat="42.45761" lon="2.11785">
        <ele>2523.7</ele>
        <time>2019-01-07T13:57:49Z</time>
      </trkpt>
      <trkpt lat="42.45762" lon="2.11783">
        <ele>2522.1</ele>
        <time>2019-01-07T13:57:49Z</time>
      </trkpt>
      <trkpt lat="42.45768" lon="2.11779">
        <ele>2521.2</ele>
        <time>2019-01-07T13:57:51Z</time>
      </trkpt>
      <trkpt lat="42.45769" lon="2.11779">
        <ele>2519.7</ele>
        <time>2019-01-07T13:57:51Z</time>
      </trkpt>
      <trkpt lat="42.45773" lon="2.11775">
        <ele>2518.3</ele>
        <time>2019-01-07T13:57:52Z</time>
      </trkpt>
      <trkpt lat="42.45775" lon="2.11774">
        <ele>2516.3</ele>
        <time>2019-01-07T13:57:53Z</time>
      </trkpt>
      <trkpt lat="42.45777" lon="2.11773">
        <ele>2514</ele>
        <time>2019-01-07T13:57:54Z</time>
      </trkpt>
      <trkpt lat="42.45781" lon="2.11768">
        <ele>2514.5</ele>
        <time>2019-01-07T13:57:55Z</time>
      </trkpt>
      <trkpt lat="42.45788" lon="2.11765">
        <ele>2512</ele>
        <time>2019-01-07T13:57:57Z</time>
      </trkpt>
      <trkpt lat="42.45791" lon="2.1176">
        <ele>2511.1</ele>
        <time>2019-01-07T13:57:58Z</time>
      </trkpt>
      <trkpt lat="42.45793" lon="2.11759">
        <ele>2507.7</ele>
        <time>2019-01-07T13:57:59Z</time>
      </trkpt>
      <trkpt lat="42.45796" lon="2.11758">
        <ele>2509.1</ele>
        <time>2019-01-07T13:58:00Z</time>
      </trkpt>
      <trkpt lat="42.45803" lon="2.1175">
        <ele>2505.8</ele>
        <time>2019-01-07T13:58:02Z</time>
      </trkpt>
      <trkpt lat="42.45812" lon="2.1175">
        <ele>2502.4</ele>
        <time>2019-01-07T13:58:04Z</time>
      </trkpt>
      <trkpt lat="42.45819" lon="2.11748">
        <ele>2500.1</ele>
        <time>2019-01-07T13:58:06Z</time>
      </trkpt>
      <trkpt lat="42.45827" lon="2.11747">
        <ele>2498.1</ele>
        <time>2019-01-07T13:58:09Z</time>
      </trkpt>
      <trkpt lat="42.4583" lon="2.11746">
        <ele>2495.7</ele>
        <time>2019-01-07T13:58:09Z</time>
      </trkpt>
      <trkpt lat="42.45835" lon="2.11747">
        <ele>2495.7</ele>
        <time>2019-01-07T13:58:11Z</time>
      </trkpt>
      <trkpt lat="42.45841" lon="2.11742">
        <ele>2494.3</ele>
        <time>2019-01-07T13:58:13Z</time>
      </trkpt>
      <trkpt lat="42.45846" lon="2.11734">
        <ele>2493.4</ele>
        <time>2019-01-07T13:58:15Z</time>
      </trkpt>
      <trkpt lat="42.45848" lon="2.11722">
        <ele>2490.5</ele>
        <time>2019-01-07T13:58:17Z</time>
      </trkpt>
      <trkpt lat="42.45851" lon="2.11714">
        <ele>2488.9</ele>
        <time>2019-01-07T13:58:19Z</time>
      </trkpt>
      <trkpt lat="42.4585" lon="2.11703">
        <ele>2486.1</ele>
        <time>2019-01-07T13:58:21Z</time>
      </trkpt>
      <trkpt lat="42.45847" lon="2.11685">
        <ele>2483.8</ele>
        <time>2019-01-07T13:58:25Z</time>
      </trkpt>
      <trkpt lat="42.45848" lon="2.11683">
        <ele>2482.8</ele>
        <time>2019-01-07T13:58:25Z</time>
      </trkpt>
      <trkpt lat="42.45848" lon="2.11681">
        <ele>2484.2</ele>
        <time>2019-01-07T13:58:25Z</time>
      </trkpt>
      <trkpt lat="42.45847" lon="2.11681">
        <ele>2484.1</ele>
        <time>2019-01-07T13:58:26Z</time>
      </trkpt>
      <trkpt lat="42.45848" lon="2.11679">
        <ele>2483.2</ele>
        <time>2019-01-07T13:58:26Z</time>
      </trkpt>
      <trkpt lat="42.45848" lon="2.11669">
        <ele>2481.3</ele>
        <time>2019-01-07T13:58:28Z</time>
      </trkpt>
      <trkpt lat="42.45844" lon="2.11656">
        <ele>2478.5</ele>
        <time>2019-01-07T13:58:31Z</time>
      </trkpt>
      <trkpt lat="42.45842" lon="2.11648">
        <ele>2477.5</ele>
        <time>2019-01-07T13:58:32Z</time>
      </trkpt>
      <trkpt lat="42.45838" lon="2.11636">
        <ele>2475.5</ele>
        <time>2019-01-07T13:58:35Z</time>
      </trkpt>
      <trkpt lat="42.45836" lon="2.11626">
        <ele>2473.7</ele>
        <time>2019-01-07T13:58:37Z</time>
      </trkpt>
      <trkpt lat="42.4584" lon="2.11618">
        <ele>2470.2</ele>
        <time>2019-01-07T13:58:39Z</time>
      </trkpt>
      <trkpt lat="42.4584" lon="2.11616">
        <ele>2468.4</ele>
        <time>2019-01-07T13:58:39Z</time>
      </trkpt>
      <trkpt lat="42.45847" lon="2.11614">
        <ele>2467.4</ele>
        <time>2019-01-07T13:58:41Z</time>
      </trkpt>
      <trkpt lat="42.45847" lon="2.11601">
        <ele>2464.1</ele>
        <time>2019-01-07T13:58:44Z</time>
      </trkpt>
      <trkpt lat="42.45846" lon="2.11593">
        <ele>2462.1</ele>
        <time>2019-01-07T13:58:45Z</time>
      </trkpt>
      <trkpt lat="42.45847" lon="2.11584">
        <ele>2459.2</ele>
        <time>2019-01-07T13:58:47Z</time>
      </trkpt>
      <trkpt lat="42.45847" lon="2.11584">
        <ele>2459.1</ele>
        <time>2019-01-07T13:58:47Z</time>
      </trkpt>
      <trkpt lat="42.45848" lon="2.11574">
        <ele>2455.8</ele>
        <time>2019-01-07T13:58:49Z</time>
      </trkpt>
      <trkpt lat="42.45852" lon="2.11566">
        <ele>2453.4</ele>
        <time>2019-01-07T13:58:51Z</time>
      </trkpt>
      <trkpt lat="42.45857" lon="2.11558">
        <ele>2450.1</ele>
        <time>2019-01-07T13:58:53Z</time>
      </trkpt>
      <trkpt lat="42.4586" lon="2.11551">
        <ele>2448.1</ele>
        <time>2019-01-07T13:58:55Z</time>
      </trkpt>
      <trkpt lat="42.45857" lon="2.1154">
        <ele>2445.8</ele>
        <time>2019-01-07T13:58:57Z</time>
      </trkpt>
      <trkpt lat="42.45861" lon="2.11531">
        <ele>2442.4</ele>
        <time>2019-01-07T13:58:59Z</time>
      </trkpt>
      <trkpt lat="42.45865" lon="2.11524">
        <ele>2439.9</ele>
        <time>2019-01-07T13:59:00Z</time>
      </trkpt>
      <trkpt lat="42.45867" lon="2.11514">
        <ele>2436.7</ele>
        <time>2019-01-07T13:59:03Z</time>
      </trkpt>
      <trkpt lat="42.45865" lon="2.11507">
        <ele>2436.1</ele>
        <time>2019-01-07T13:59:04Z</time>
      </trkpt>
      <trkpt lat="42.45867" lon="2.11499">
        <ele>2432.7</ele>
        <time>2019-01-07T13:59:06Z</time>
      </trkpt>
      <trkpt lat="42.45872" lon="2.1149">
        <ele>2430.4</ele>
        <time>2019-01-07T13:59:08Z</time>
      </trkpt>
      <trkpt lat="42.45875" lon="2.11483">
        <ele>2427.4</ele>
        <time>2019-01-07T13:59:10Z</time>
      </trkpt>
      <trkpt lat="42.45879" lon="2.11477">
        <ele>2426.5</ele>
        <time>2019-01-07T13:59:11Z</time>
      </trkpt>
      <trkpt lat="42.45887" lon="2.11478">
        <ele>2423.1</ele>
        <time>2019-01-07T13:59:13Z</time>
      </trkpt>
      <trkpt lat="42.45892" lon="2.11472">
        <ele>2421.3</ele>
        <time>2019-01-07T13:59:15Z</time>
      </trkpt>
      <trkpt lat="42.45892" lon="2.11472">
        <ele>2421.2</ele>
        <time>2019-01-07T13:59:15Z</time>
      </trkpt>
      <trkpt lat="42.45895" lon="2.11464">
        <ele>2418.9</ele>
        <time>2019-01-07T13:59:17Z</time>
      </trkpt>
      <trkpt lat="42.45901" lon="2.11461">
        <ele>2416.4</ele>
        <time>2019-01-07T13:59:18Z</time>
      </trkpt>
      <trkpt lat="42.45907" lon="2.11457">
        <ele>2413.5</ele>
        <time>2019-01-07T13:59:20Z</time>
      </trkpt>
      <trkpt lat="42.45914" lon="2.11451">
        <ele>2411.2</ele>
        <time>2019-01-07T13:59:22Z</time>
      </trkpt>
      <trkpt lat="42.4592" lon="2.11448">
        <ele>2407.7</ele>
        <time>2019-01-07T13:59:24Z</time>
      </trkpt>
      <trkpt lat="42.45923" lon="2.11447">
        <ele>2407.2</ele>
        <time>2019-01-07T13:59:25Z</time>
      </trkpt>
      <trkpt lat="42.45924" lon="2.11447">
        <ele>2408.2</ele>
        <time>2019-01-07T13:59:25Z</time>
      </trkpt>
      <trkpt lat="42.45924" lon="2.11446">
        <ele>2406.8</ele>
        <time>2019-01-07T13:59:25Z</time>
      </trkpt>
      <trkpt lat="42.45931" lon="2.11444">
        <ele>2403.4</ele>
        <time>2019-01-07T13:59:27Z</time>
      </trkpt>
      <trkpt lat="42.45939" lon="2.11437">
        <ele>2401.1</ele>
        <time>2019-01-07T13:59:30Z</time>
      </trkpt>
      <trkpt lat="42.45943" lon="2.11435">
        <ele>2399.5</ele>
        <time>2019-01-07T13:59:31Z</time>
      </trkpt>
      <trkpt lat="42.45943" lon="2.11435">
        <ele>2398.7</ele>
        <time>2019-01-07T13:59:31Z</time>
      </trkpt>
      <trkpt lat="42.45946" lon="2.11433">
        <ele>2397.6</ele>
        <time>2019-01-07T13:59:32Z</time>
      </trkpt>
      <trkpt lat="42.45948" lon="2.1143">
        <ele>2395.3</ele>
        <time>2019-01-07T13:59:33Z</time>
      </trkpt>
      <trkpt lat="42.45953" lon="2.11424">
        <ele>2392.4</ele>
        <time>2019-01-07T13:59:34Z</time>
      </trkpt>
      <trkpt lat="42.45959" lon="2.11422">
        <ele>2389.4</ele>
        <time>2019-01-07T13:59:36Z</time>
      </trkpt>
      <trkpt lat="42.45963" lon="2.1142">
        <ele>2386.2</ele>
        <time>2019-01-07T13:59:37Z</time>
      </trkpt>
      <trkpt lat="42.45972" lon="2.11419">
        <ele>2383.2</ele>
        <time>2019-01-07T13:59:40Z</time>
      </trkpt>
      <trkpt lat="42.45976" lon="2.11417">
        <ele>2379</ele>
        <time>2019-01-07T13:59:41Z</time>
      </trkpt>
      <trkpt lat="42.4598" lon="2.11415">
        <ele>2375.5</ele>
        <time>2019-01-07T13:59:42Z</time>
      </trkpt>
      <trkpt lat="42.45984" lon="2.11409">
        <ele>2372.6</ele>
        <time>2019-01-07T13:59:43Z</time>
      </trkpt>
      <trkpt lat="42.4599" lon="2.11412">
        <ele>2369.7</ele>
        <time>2019-01-07T13:59:45Z</time>
      </trkpt>
      <trkpt lat="42.45995" lon="2.11415">
        <ele>2367</ele>
        <time>2019-01-07T13:59:47Z</time>
      </trkpt>
      <trkpt lat="42.46" lon="2.11414">
        <ele>2364.1</ele>
        <time>2019-01-07T13:59:48Z</time>
      </trkpt>
      <trkpt lat="42.46003" lon="2.11406">
        <ele>2362.1</ele>
        <time>2019-01-07T13:59:50Z</time>
      </trkpt>
      <trkpt lat="42.46008" lon="2.114">
        <ele>2359.6</ele>
        <time>2019-01-07T13:59:51Z</time>
      </trkpt>
      <trkpt lat="42.4601" lon="2.11401">
        <ele>2358.2</ele>
        <time>2019-01-07T13:59:52Z</time>
      </trkpt>
      <trkpt lat="42.46015" lon="2.11395">
        <ele>2355.4</ele>
        <time>2019-01-07T13:59:54Z</time>
      </trkpt>
      <trkpt lat="42.4602" lon="2.11391">
        <ele>2352.5</ele>
        <time>2019-01-07T13:59:55Z</time>
      </trkpt>
      <trkpt lat="42.46025" lon="2.11392">
        <ele>2350.1</ele>
        <time>2019-01-07T13:59:57Z</time>
      </trkpt>
      <trkpt lat="42.46032" lon="2.11393">
        <ele>2346.8</ele>
        <time>2019-01-07T13:59:59Z</time>
      </trkpt>
      <trkpt lat="42.4604" lon="2.11389">
        <ele>2343.3</ele>
        <time>2019-01-07T14:00:01Z</time>
      </trkpt>
      <trkpt lat="42.46042" lon="2.11386">
        <ele>2342.8</ele>
        <time>2019-01-07T14:00:02Z</time>
      </trkpt>
      <trkpt lat="42.46041" lon="2.11381">
        <ele>2340</ele>
        <time>2019-01-07T14:00:03Z</time>
      </trkpt>
      <trkpt lat="42.46047" lon="2.11376">
        <ele>2337.6</ele>
        <time>2019-01-07T14:00:04Z</time>
      </trkpt>
      <trkpt lat="42.4605" lon="2.11371">
        <ele>2334.2</ele>
        <time>2019-01-07T14:00:06Z</time>
      </trkpt>
      <trkpt lat="42.46054" lon="2.11364">
        <ele>2332.4</ele>
        <time>2019-01-07T14:00:07Z</time>
      </trkpt>
      <trkpt lat="42.46059" lon="2.11361">
        <ele>2329.4</ele>
        <time>2019-01-07T14:00:09Z</time>
      </trkpt>
      <trkpt lat="42.46062" lon="2.11356">
        <ele>2328</ele>
        <time>2019-01-07T14:00:10Z</time>
      </trkpt>
      <trkpt lat="42.46067" lon="2.1135">
        <ele>2325.5</ele>
        <time>2019-01-07T14:00:12Z</time>
      </trkpt>
      <trkpt lat="42.46071" lon="2.11343">
        <ele>2323.7</ele>
        <time>2019-01-07T14:00:14Z</time>
      </trkpt>
      <trkpt lat="42.46072" lon="2.11342">
        <ele>2323.1</ele>
        <time>2019-01-07T14:00:14Z</time>
      </trkpt>
      <trkpt lat="42.46078" lon="2.11337">
        <ele>2319.3</ele>
        <time>2019-01-07T14:00:16Z</time>
      </trkpt>
      <trkpt lat="42.46084" lon="2.11334">
        <ele>2318.3</ele>
        <time>2019-01-07T14:00:18Z</time>
      </trkpt>
      <trkpt lat="42.46081" lon="2.1133">
        <ele>2315.9</ele>
        <time>2019-01-07T14:00:19Z</time>
      </trkpt>
      <trkpt lat="42.46084" lon="2.11326">
        <ele>2313</ele>
        <time>2019-01-07T14:00:20Z</time>
      </trkpt>
      <trkpt lat="42.46086" lon="2.11323">
        <ele>2311.1</ele>
        <time>2019-01-07T14:00:21Z</time>
      </trkpt>
      <trkpt lat="42.4609" lon="2.1132">
        <ele>2308.8</ele>
        <time>2019-01-07T14:00:22Z</time>
      </trkpt>
      <trkpt lat="42.46091" lon="2.11317">
        <ele>2307.3</ele>
        <time>2019-01-07T14:00:23Z</time>
      </trkpt>
      <trkpt lat="42.46096" lon="2.11312">
        <ele>2305</ele>
        <time>2019-01-07T14:00:24Z</time>
      </trkpt>
      <trkpt lat="42.46102" lon="2.11307">
        <ele>2301.6</ele>
        <time>2019-01-07T14:00:26Z</time>
      </trkpt>
      <trkpt lat="42.46106" lon="2.11299">
        <ele>2298.7</ele>
        <time>2019-01-07T14:00:28Z</time>
      </trkpt>
      <trkpt lat="42.4611" lon="2.11292">
        <ele>2297.2</ele>
        <time>2019-01-07T14:00:30Z</time>
      </trkpt>
      <trkpt lat="42.46108" lon="2.1129">
        <ele>2296.7</ele>
        <time>2019-01-07T14:00:30Z</time>
      </trkpt>
      <trkpt lat="42.46113" lon="2.11282">
        <ele>2293.9</ele>
        <time>2019-01-07T14:00:32Z</time>
      </trkpt>
      <trkpt lat="42.46115" lon="2.11277">
        <ele>2290.4</ele>
        <time>2019-01-07T14:00:34Z</time>
      </trkpt>
      <trkpt lat="42.46117" lon="2.11276">
        <ele>2289</ele>
        <time>2019-01-07T14:00:34Z</time>
      </trkpt>
      <trkpt lat="42.46124" lon="2.11272">
        <ele>2289.1</ele>
        <time>2019-01-07T14:00:36Z</time>
      </trkpt>
      <trkpt lat="42.46126" lon="2.11273">
        <ele>2285.6</ele>
        <time>2019-01-07T14:00:36Z</time>
      </trkpt>
      <trkpt lat="42.46129" lon="2.11272">
        <ele>2287.6</ele>
        <time>2019-01-07T14:00:37Z</time>
      </trkpt>
      <trkpt lat="42.46134" lon="2.11272">
        <ele>2284.7</ele>
        <time>2019-01-07T14:00:39Z</time>
      </trkpt>
      <trkpt lat="42.46138" lon="2.11271">
        <ele>2282.7</ele>
        <time>2019-01-07T14:00:40Z</time>
      </trkpt>
      <trkpt lat="42.4614" lon="2.11271">
        <ele>2280.8</ele>
        <time>2019-01-07T14:00:40Z</time>
      </trkpt>
      <trkpt lat="42.46146" lon="2.11271">
        <ele>2278.9</ele>
        <time>2019-01-07T14:00:42Z</time>
      </trkpt>
      <trkpt lat="42.46147" lon="2.1126">
        <ele>2276.1</ele>
        <time>2019-01-07T14:00:44Z</time>
      </trkpt>
      <trkpt lat="42.46145" lon="2.11249">
        <ele>2273.1</ele>
        <time>2019-01-07T14:00:46Z</time>
      </trkpt>
      <trkpt lat="42.46147" lon="2.11242">
        <ele>2270.2</ele>
        <time>2019-01-07T14:00:48Z</time>
      </trkpt>
      <trkpt lat="42.46153" lon="2.11232">
        <ele>2269.8</ele>
        <time>2019-01-07T14:00:50Z</time>
      </trkpt>
      <trkpt lat="42.46156" lon="2.11227">
        <ele>2268.8</ele>
        <time>2019-01-07T14:00:52Z</time>
      </trkpt>
      <trkpt lat="42.46159" lon="2.11223">
        <ele>2268.3</ele>
        <time>2019-01-07T14:00:53Z</time>
      </trkpt>
      <trkpt lat="42.46159" lon="2.11224">
        <ele>2267.8</ele>
        <time>2019-01-07T14:00:53Z</time>
      </trkpt>
      <trkpt lat="42.4616" lon="2.11219">
        <ele>2267.5</ele>
        <time>2019-01-07T14:00:54Z</time>
      </trkpt>
      <trkpt lat="42.46163" lon="2.11208">
        <ele>2264</ele>
        <time>2019-01-07T14:00:56Z</time>
      </trkpt>
      <trkpt lat="42.46169" lon="2.11199">
        <ele>2260.7</ele>
        <time>2019-01-07T14:00:59Z</time>
      </trkpt>
      <trkpt lat="42.46171" lon="2.11192">
        <ele>2257.3</ele>
        <time>2019-01-07T14:01:00Z</time>
      </trkpt>
      <trkpt lat="42.46176" lon="2.11184">
        <ele>2254</ele>
        <time>2019-01-07T14:01:02Z</time>
      </trkpt>
      <trkpt lat="42.46183" lon="2.11177">
        <ele>2250.5</ele>
        <time>2019-01-07T14:01:04Z</time>
      </trkpt>
      <trkpt lat="42.46186" lon="2.11167">
        <ele>2248.2</ele>
        <time>2019-01-07T14:01:06Z</time>
      </trkpt>
      <trkpt lat="42.46192" lon="2.11163">
        <ele>2244.8</ele>
        <time>2019-01-07T14:01:08Z</time>
      </trkpt>
      <trkpt lat="42.46196" lon="2.11162">
        <ele>2243.8</ele>
        <time>2019-01-07T14:01:09Z</time>
      </trkpt>
      <trkpt lat="42.462" lon="2.11157">
        <ele>2240.9</ele>
        <time>2019-01-07T14:01:11Z</time>
      </trkpt>
      <trkpt lat="42.46204" lon="2.11153">
        <ele>2238.5</ele>
        <time>2019-01-07T14:01:12Z</time>
      </trkpt>
      <trkpt lat="42.46211" lon="2.11148">
        <ele>2236.2</ele>
        <time>2019-01-07T14:01:14Z</time>
      </trkpt>
      <trkpt lat="42.46212" lon="2.11145">
        <ele>2233.8</ele>
        <time>2019-01-07T14:01:15Z</time>
      </trkpt>
      <trkpt lat="42.46216" lon="2.11143">
        <ele>2231.3</ele>
        <time>2019-01-07T14:01:16Z</time>
      </trkpt>
      <trkpt lat="42.46222" lon="2.11141">
        <ele>2229</ele>
        <time>2019-01-07T14:01:18Z</time>
      </trkpt>
      <trkpt lat="42.46228" lon="2.11139">
        <ele>2226.6</ele>
        <time>2019-01-07T14:01:19Z</time>
      </trkpt>
      <trkpt lat="42.46232" lon="2.11137">
        <ele>2224.1</ele>
        <time>2019-01-07T14:01:21Z</time>
      </trkpt>
      <trkpt lat="42.46236" lon="2.11134">
        <ele>2222.8</ele>
        <time>2019-01-07T14:01:22Z</time>
      </trkpt>
      <trkpt lat="42.46237" lon="2.11132">
        <ele>2220.8</ele>
        <time>2019-01-07T14:01:22Z</time>
      </trkpt>
      <trkpt lat="42.46242" lon="2.11129">
        <ele>2219.9</ele>
        <time>2019-01-07T14:01:24Z</time>
      </trkpt>
      <trkpt lat="42.46249" lon="2.1113">
        <ele>2215</ele>
        <time>2019-01-07T14:01:26Z</time>
      </trkpt>
      <trkpt lat="42.46252" lon="2.11129">
        <ele>2212.1</ele>
        <time>2019-01-07T14:01:26Z</time>
      </trkpt>
      <trkpt lat="42.46258" lon="2.11125">
        <ele>2209.2</ele>
        <time>2019-01-07T14:01:28Z</time>
      </trkpt>
      <trkpt lat="42.4626" lon="2.11121">
        <ele>2207.3</ele>
        <time>2019-01-07T14:01:29Z</time>
      </trkpt>
      <trkpt lat="42.46263" lon="2.11115">
        <ele>2204.4</ele>
        <time>2019-01-07T14:01:30Z</time>
      </trkpt>
      <trkpt lat="42.46264" lon="2.11112">
        <ele>2202.5</ele>
        <time>2019-01-07T14:01:31Z</time>
      </trkpt>
      <trkpt lat="42.46263" lon="2.1111">
        <ele>2202.5</ele>
        <time>2019-01-07T14:01:32Z</time>
      </trkpt>
      <trkpt lat="42.46266" lon="2.11104">
        <ele>2198.7</ele>
        <time>2019-01-07T14:01:33Z</time>
      </trkpt>
      <trkpt lat="42.46273" lon="2.111">
        <ele>2195.3</ele>
        <time>2019-01-07T14:01:35Z</time>
      </trkpt>
      <trkpt lat="42.46281" lon="2.11098">
        <ele>2191.9</ele>
        <time>2019-01-07T14:01:37Z</time>
      </trkpt>
      <trkpt lat="42.46283" lon="2.11097">
        <ele>2190.6</ele>
        <time>2019-01-07T14:01:38Z</time>
      </trkpt>
      <trkpt lat="42.46284" lon="2.11092">
        <ele>2188.6</ele>
        <time>2019-01-07T14:01:39Z</time>
      </trkpt>
      <trkpt lat="42.46287" lon="2.11087">
        <ele>2187.1</ele>
        <time>2019-01-07T14:01:40Z</time>
      </trkpt>
      <trkpt lat="42.46288" lon="2.11084">
        <ele>2186.1</ele>
        <time>2019-01-07T14:01:41Z</time>
      </trkpt>
      <trkpt lat="42.46292" lon="2.11087">
        <ele>2184.2</ele>
        <time>2019-01-07T14:01:42Z</time>
      </trkpt>
      <trkpt lat="42.46295" lon="2.1108">
        <ele>2181.4</ele>
        <time>2019-01-07T14:01:43Z</time>
      </trkpt>
      <trkpt lat="42.46301" lon="2.11076">
        <ele>2178.5</ele>
        <time>2019-01-07T14:01:45Z</time>
      </trkpt>
      <trkpt lat="42.46306" lon="2.1107">
        <ele>2176</ele>
        <time>2019-01-07T14:01:47Z</time>
      </trkpt>
      <trkpt lat="42.46311" lon="2.11067">
        <ele>2173.2</ele>
        <time>2019-01-07T14:01:48Z</time>
      </trkpt>
      <trkpt lat="42.46319" lon="2.11063">
        <ele>2170.3</ele>
        <time>2019-01-07T14:01:51Z</time>
      </trkpt>
      <trkpt lat="42.46324" lon="2.11064">
        <ele>2169.9</ele>
        <time>2019-01-07T14:01:52Z</time>
      </trkpt>
      <trkpt lat="42.46327" lon="2.11063">
        <ele>2167</ele>
        <time>2019-01-07T14:01:53Z</time>
      </trkpt>
      <trkpt lat="42.46333" lon="2.11059">
        <ele>2163.6</ele>
        <time>2019-01-07T14:01:54Z</time>
      </trkpt>
      <trkpt lat="42.4634" lon="2.11056">
        <ele>2162.1</ele>
        <time>2019-01-07T14:01:57Z</time>
      </trkpt>
      <trkpt lat="42.46345" lon="2.1105">
        <ele>2156.8</ele>
        <time>2019-01-07T14:01:58Z</time>
      </trkpt>
      <trkpt lat="42.46351" lon="2.11047">
        <ele>2153.9</ele>
        <time>2019-01-07T14:02:00Z</time>
      </trkpt>
      <trkpt lat="42.46359" lon="2.11043">
        <ele>2151.5</ele>
        <time>2019-01-07T14:02:02Z</time>
      </trkpt>
      <trkpt lat="42.46367" lon="2.11039">
        <ele>2148.6</ele>
        <time>2019-01-07T14:02:05Z</time>
      </trkpt>
      <trkpt lat="42.46376" lon="2.11035">
        <ele>2145.4</ele>
        <time>2019-01-07T14:02:07Z</time>
      </trkpt>
      <trkpt lat="42.46384" lon="2.11038">
        <ele>2143.5</ele>
        <time>2019-01-07T14:02:09Z</time>
      </trkpt>
      <trkpt lat="42.46384" lon="2.11036">
        <ele>2141</ele>
        <time>2019-01-07T14:02:10Z</time>
      </trkpt>
      <trkpt lat="42.46387" lon="2.1103">
        <ele>2138.6</ele>
        <time>2019-01-07T14:02:11Z</time>
      </trkpt>
      <trkpt lat="42.46396" lon="2.11026">
        <ele>2136.1</ele>
        <time>2019-01-07T14:02:14Z</time>
      </trkpt>
      <trkpt lat="42.46398" lon="2.11026">
        <ele>2135.8</ele>
        <time>2019-01-07T14:02:14Z</time>
      </trkpt>
      <trkpt lat="42.46403" lon="2.11024">
        <ele>2132.4</ele>
        <time>2019-01-07T14:02:16Z</time>
      </trkpt>
      <trkpt lat="42.46408" lon="2.11024">
        <ele>2128.9</ele>
        <time>2019-01-07T14:02:17Z</time>
      </trkpt>
      <trkpt lat="42.46413" lon="2.11021">
        <ele>2126</ele>
        <time>2019-01-07T14:02:18Z</time>
      </trkpt>
      <trkpt lat="42.4642" lon="2.11018">
        <ele>2123.2</ele>
        <time>2019-01-07T14:02:20Z</time>
      </trkpt>
      <trkpt lat="42.46424" lon="2.11017">
        <ele>2121.7</ele>
        <time>2019-01-07T14:02:22Z</time>
      </trkpt>
      <trkpt lat="42.46425" lon="2.11017">
        <ele>2121.7</ele>
        <time>2019-01-07T14:02:22Z</time>
      </trkpt>
      <trkpt lat="42.46429" lon="2.11018">
        <ele>2117.9</ele>
        <time>2019-01-07T14:02:23Z</time>
      </trkpt>
      <trkpt lat="42.46433" lon="2.11016">
        <ele>2115.5</ele>
        <time>2019-01-07T14:02:24Z</time>
      </trkpt>
      <trkpt lat="42.46443" lon="2.11014">
        <ele>2112.7</ele>
        <time>2019-01-07T14:02:27Z</time>
      </trkpt>
      <trkpt lat="42.4645" lon="2.11011">
        <ele>2110.2</ele>
        <time>2019-01-07T14:02:28Z</time>
      </trkpt>
      <trkpt lat="42.46451" lon="2.11013">
        <ele>2108.8</ele>
        <time>2019-01-07T14:02:29Z</time>
      </trkpt>
      <trkpt lat="42.46457" lon="2.11013">
        <ele>2106</ele>
        <time>2019-01-07T14:02:31Z</time>
      </trkpt>
      <trkpt lat="42.46464" lon="2.11013">
        <ele>2103.9</ele>
        <time>2019-01-07T14:02:33Z</time>
      </trkpt>
      <trkpt lat="42.46471" lon="2.11013">
        <ele>2100.6</ele>
        <time>2019-01-07T14:02:34Z</time>
      </trkpt>
      <trkpt lat="42.46475" lon="2.11016">
        <ele>2099.6</ele>
        <time>2019-01-07T14:02:35Z</time>
      </trkpt>
      <trkpt lat="42.46478" lon="2.11013">
        <ele>2097.2</ele>
        <time>2019-01-07T14:02:36Z</time>
      </trkpt>
      <trkpt lat="42.46485" lon="2.11016">
        <ele>2094.4</ele>
        <time>2019-01-07T14:02:38Z</time>
      </trkpt>
      <trkpt lat="42.46492" lon="2.11019">
        <ele>2091.4</ele>
        <time>2019-01-07T14:02:40Z</time>
      </trkpt>
      <trkpt lat="42.46495" lon="2.11017">
        <ele>2090.5</ele>
        <time>2019-01-07T14:02:41Z</time>
      </trkpt>
      <trkpt lat="42.46499" lon="2.11016">
        <ele>2087.6</ele>
        <time>2019-01-07T14:02:42Z</time>
      </trkpt>
      <trkpt lat="42.46504" lon="2.11018">
        <ele>2085.3</ele>
        <time>2019-01-07T14:02:44Z</time>
      </trkpt>
      <trkpt lat="42.46509" lon="2.11017">
        <ele>2082.4</ele>
        <time>2019-01-07T14:02:45Z</time>
      </trkpt>
      <trkpt lat="42.46515" lon="2.11016">
        <ele>2079</ele>
        <time>2019-01-07T14:02:47Z</time>
      </trkpt>
      <trkpt lat="42.46522" lon="2.11015">
        <ele>2077.1</ele>
        <time>2019-01-07T14:02:49Z</time>
      </trkpt>
      <trkpt lat="42.46531" lon="2.11015">
        <ele>2073.8</ele>
        <time>2019-01-07T14:02:51Z</time>
      </trkpt>
      <trkpt lat="42.46539" lon="2.11017">
        <ele>2071.3</ele>
        <time>2019-01-07T14:02:53Z</time>
      </trkpt>
      <trkpt lat="42.46546" lon="2.11016">
        <ele>2067.9</ele>
        <time>2019-01-07T14:02:55Z</time>
      </trkpt>
      <trkpt lat="42.46553" lon="2.11017">
        <ele>2064.5</ele>
        <time>2019-01-07T14:02:57Z</time>
      </trkpt>
      <trkpt lat="42.46565" lon="2.11015">
        <ele>2061.2</ele>
        <time>2019-01-07T14:03:00Z</time>
      </trkpt>
      <trkpt lat="42.46566" lon="2.11015">
        <ele>2060.8</ele>
        <time>2019-01-07T14:03:00Z</time>
      </trkpt>
      <trkpt lat="42.46571" lon="2.11016">
        <ele>2059.2</ele>
        <time>2019-01-07T14:03:02Z</time>
      </trkpt>
      <trkpt lat="42.46578" lon="2.11014">
        <ele>2056</ele>
        <time>2019-01-07T14:03:04Z</time>
      </trkpt>
      <trkpt lat="42.46588" lon="2.11019">
        <ele>2053.5</ele>
        <time>2019-01-07T14:03:06Z</time>
      </trkpt>
      <trkpt lat="42.46596" lon="2.11018">
        <ele>2051.5</ele>
        <time>2019-01-07T14:03:08Z</time>
      </trkpt>
      <trkpt lat="42.466" lon="2.11016">
        <ele>2048.7</ele>
        <time>2019-01-07T14:03:10Z</time>
      </trkpt>
      <trkpt lat="42.46601" lon="2.11017">
        <ele>2048.8</ele>
        <time>2019-01-07T14:03:10Z</time>
      </trkpt>
      <trkpt lat="42.46609" lon="2.11016">
        <ele>2045.3</ele>
        <time>2019-01-07T14:03:12Z</time>
      </trkpt>
      <trkpt lat="42.46618" lon="2.11016">
        <ele>2042.5</ele>
        <time>2019-01-07T14:03:14Z</time>
      </trkpt>
      <trkpt lat="42.46627" lon="2.11012">
        <ele>2040</ele>
        <time>2019-01-07T14:03:17Z</time>
      </trkpt>
      <trkpt lat="42.46634" lon="2.11008">
        <ele>2037.1</ele>
        <time>2019-01-07T14:03:19Z</time>
      </trkpt>
      <trkpt lat="42.46643" lon="2.11005">
        <ele>2033.8</ele>
        <time>2019-01-07T14:03:21Z</time>
      </trkpt>
      <trkpt lat="42.46652" lon="2.11003">
        <ele>2031.5</ele>
        <time>2019-01-07T14:03:24Z</time>
      </trkpt>
      <trkpt lat="42.46658" lon="2.11002">
        <ele>2029.1</ele>
        <time>2019-01-07T14:03:25Z</time>
      </trkpt>
      <trkpt lat="42.46661" lon="2.11002">
        <ele>2028.1</ele>
        <time>2019-01-07T14:03:26Z</time>
      </trkpt>
      <trkpt lat="42.46665" lon="2.11001">
        <ele>2027.1</ele>
        <time>2019-01-07T14:03:27Z</time>
      </trkpt>
      <trkpt lat="42.46667" lon="2.11002">
        <ele>2025.2</ele>
        <time>2019-01-07T14:03:28Z</time>
      </trkpt>
      <trkpt lat="42.46673" lon="2.11">
        <ele>2021.7</ele>
        <time>2019-01-07T14:03:30Z</time>
      </trkpt>
      <trkpt lat="42.4668" lon="2.10998">
        <ele>2017.9</ele>
        <time>2019-01-07T14:03:32Z</time>
      </trkpt>
      <trkpt lat="42.46688" lon="2.10992">
        <ele>2016.1</ele>
        <time>2019-01-07T14:03:34Z</time>
      </trkpt>
      <trkpt lat="42.46693" lon="2.10992">
        <ele>2013.7</ele>
        <time>2019-01-07T14:03:36Z</time>
      </trkpt>
      <trkpt lat="42.46703" lon="2.10988">
        <ele>2009.7</ele>
        <time>2019-01-07T14:03:38Z</time>
      </trkpt>
      <trkpt lat="42.46707" lon="2.10986">
        <ele>2007.8</ele>
        <time>2019-01-07T14:03:40Z</time>
      </trkpt>
      <trkpt lat="42.46715" lon="2.10982">
        <ele>2004.9</ele>
        <time>2019-01-07T14:03:42Z</time>
      </trkpt>
      <trkpt lat="42.46721" lon="2.10983">
        <ele>2002.1</ele>
        <time>2019-01-07T14:03:43Z</time>
      </trkpt>
      <trkpt lat="42.46729" lon="2.10985">
        <ele>1999.3</ele>
        <time>2019-01-07T14:03:45Z</time>
      </trkpt>
      <trkpt lat="42.46737" lon="2.10988">
        <ele>1996.3</ele>
        <time>2019-01-07T14:03:48Z</time>
      </trkpt>
      <trkpt lat="42.46749" lon="2.10996">
        <ele>1993.5</ele>
        <time>2019-01-07T14:03:51Z</time>
      </trkpt>
      <trkpt lat="42.46761" lon="2.10993">
        <ele>1990.6</ele>
        <time>2019-01-07T14:03:55Z</time>
      </trkpt>
      <trkpt lat="42.4677" lon="2.10988">
        <ele>1987.6</ele>
        <time>2019-01-07T14:03:57Z</time>
      </trkpt>
      <trkpt lat="42.46781" lon="2.10984">
        <ele>1984.8</ele>
        <time>2019-01-07T14:04:00Z</time>
      </trkpt>
      <trkpt lat="42.46791" lon="2.10979">
        <ele>1982.3</ele>
        <time>2019-01-07T14:04:03Z</time>
      </trkpt>
      <trkpt lat="42.46796" lon="2.1098">
        <ele>1981</ele>
        <time>2019-01-07T14:04:04Z</time>
      </trkpt>
      <trkpt lat="42.46806" lon="2.10981">
        <ele>1978</ele>
        <time>2019-01-07T14:04:07Z</time>
      </trkpt>
      <trkpt lat="42.46816" lon="2.10977">
        <ele>1976.1</ele>
        <time>2019-01-07T14:04:10Z</time>
      </trkpt>
      <trkpt lat="42.46824" lon="2.10974">
        <ele>1973.2</ele>
        <time>2019-01-07T14:04:12Z</time>
      </trkpt>
      <trkpt lat="42.46833" lon="2.10972">
        <ele>1971.3</ele>
        <time>2019-01-07T14:04:14Z</time>
      </trkpt>
      <trkpt lat="42.46844" lon="2.10969">
        <ele>1968.5</ele>
        <time>2019-01-07T14:04:17Z</time>
      </trkpt>
      <trkpt lat="42.46855" lon="2.10968">
        <ele>1966.6</ele>
        <time>2019-01-07T14:04:20Z</time>
      </trkpt>
      <trkpt lat="42.46864" lon="2.10966">
        <ele>1964.6</ele>
        <time>2019-01-07T14:04:23Z</time>
      </trkpt>
      <trkpt lat="42.46874" lon="2.10963">
        <ele>1962.2</ele>
        <time>2019-01-07T14:04:25Z</time>
      </trkpt>
      <trkpt lat="42.4688" lon="2.10963">
        <ele>1960.3</ele>
        <time>2019-01-07T14:04:27Z</time>
      </trkpt>
      <trkpt lat="42.46882" lon="2.10962">
        <ele>1959.8</ele>
        <time>2019-01-07T14:04:28Z</time>
      </trkpt>
      <trkpt lat="42.46888" lon="2.10963">
        <ele>1958.8</ele>
        <time>2019-01-07T14:04:29Z</time>
      </trkpt>
      <trkpt lat="42.469" lon="2.10958">
        <ele>1956.5</ele>
        <time>2019-01-07T14:04:33Z</time>
      </trkpt>
      <trkpt lat="42.46903" lon="2.10956">
        <ele>1954.5</ele>
        <time>2019-01-07T14:04:34Z</time>
      </trkpt>
      <trkpt lat="42.46914" lon="2.10951">
        <ele>1952.5</ele>
        <time>2019-01-07T14:04:36Z</time>
      </trkpt>
      <trkpt lat="42.46918" lon="2.10951">
        <ele>1952</ele>
        <time>2019-01-07T14:04:38Z</time>
      </trkpt>
      <trkpt lat="42.46926" lon="2.1095">
        <ele>1950.7</ele>
        <time>2019-01-07T14:04:40Z</time>
      </trkpt>
      <trkpt lat="42.46932" lon="2.10946">
        <ele>1949.3</ele>
        <time>2019-01-07T14:04:42Z</time>
      </trkpt>
      <trkpt lat="42.46935" lon="2.10945">
        <ele>1947.7</ele>
        <time>2019-01-07T14:04:42Z</time>
      </trkpt>
      <trkpt lat="42.46942" lon="2.10942">
        <ele>1946.8</ele>
        <time>2019-01-07T14:04:44Z</time>
      </trkpt>
      <trkpt lat="42.46952" lon="2.1094">
        <ele>1944.8</ele>
        <time>2019-01-07T14:04:47Z</time>
      </trkpt>
      <trkpt lat="42.46956" lon="2.10938">
        <ele>1943</ele>
        <time>2019-01-07T14:04:48Z</time>
      </trkpt>
      <trkpt lat="42.46967" lon="2.10933">
        <ele>1940.5</ele>
        <time>2019-01-07T14:04:51Z</time>
      </trkpt>
      <trkpt lat="42.46977" lon="2.10926">
        <ele>1938.2</ele>
        <time>2019-01-07T14:04:54Z</time>
      </trkpt>
      <trkpt lat="42.46979" lon="2.10926">
        <ele>1938.2</ele>
        <time>2019-01-07T14:04:55Z</time>
      </trkpt>
      <trkpt lat="42.46986" lon="2.10923">
        <ele>1936.2</ele>
        <time>2019-01-07T14:04:57Z</time>
      </trkpt>
      <trkpt lat="42.46996" lon="2.10918">
        <ele>1934.3</ele>
        <time>2019-01-07T14:05:00Z</time>
      </trkpt>
      <trkpt lat="42.47009" lon="2.10911">
        <ele>1931</ele>
        <time>2019-01-07T14:05:03Z</time>
      </trkpt>
      <trkpt lat="42.4702" lon="2.10907">
        <ele>1928</ele>
        <time>2019-01-07T14:05:06Z</time>
      </trkpt>
      <trkpt lat="42.47035" lon="2.10901">
        <ele>1926.1</ele>
        <time>2019-01-07T14:05:11Z</time>
      </trkpt>
      <trkpt lat="42.4705" lon="2.10895">
        <ele>1923.2</ele>
        <time>2019-01-07T14:05:15Z</time>
      </trkpt>
      <trkpt lat="42.47063" lon="2.1089">
        <ele>1921.8</ele>
        <time>2019-01-07T14:05:18Z</time>
      </trkpt>
      <trkpt lat="42.47068" lon="2.10891">
        <ele>1920.3</ele>
        <time>2019-01-07T14:05:20Z</time>
      </trkpt>
      <trkpt lat="42.47079" lon="2.10885">
        <ele>1917.4</ele>
        <time>2019-01-07T14:05:23Z</time>
      </trkpt>
      <trkpt lat="42.4709" lon="2.10876">
        <ele>1915.6</ele>
        <time>2019-01-07T14:05:26Z</time>
      </trkpt>
      <trkpt lat="42.47102" lon="2.10869">
        <ele>1914.2</ele>
        <time>2019-01-07T14:05:30Z</time>
      </trkpt>
      <trkpt lat="42.47115" lon="2.10865">
        <ele>1911.2</ele>
        <time>2019-01-07T14:05:33Z</time>
      </trkpt>
      <trkpt lat="42.47129" lon="2.10859">
        <ele>1908.8</ele>
        <time>2019-01-07T14:05:37Z</time>
      </trkpt>
      <trkpt lat="42.47131" lon="2.10858">
        <ele>1908.8</ele>
        <time>2019-01-07T14:05:38Z</time>
      </trkpt>
      <trkpt lat="42.47138" lon="2.10852">
        <ele>1906.5</ele>
        <time>2019-01-07T14:05:40Z</time>
      </trkpt>
      <trkpt lat="42.4715" lon="2.10846">
        <ele>1904.1</ele>
        <time>2019-01-07T14:05:44Z</time>
      </trkpt>
      <trkpt lat="42.47157" lon="2.10843">
        <ele>1902.6</ele>
        <time>2019-01-07T14:05:45Z</time>
      </trkpt>
      <trkpt lat="42.4717" lon="2.10839">
        <ele>1900.6</ele>
        <time>2019-01-07T14:05:49Z</time>
      </trkpt>
      <trkpt lat="42.47181" lon="2.10836">
        <ele>1898.8</ele>
        <time>2019-01-07T14:05:52Z</time>
      </trkpt>
      <trkpt lat="42.47189" lon="2.10834">
        <ele>1896.9</ele>
        <time>2019-01-07T14:05:54Z</time>
      </trkpt>
      <trkpt lat="42.47198" lon="2.10831">
        <ele>1894.5</ele>
        <time>2019-01-07T14:05:57Z</time>
      </trkpt>
      <trkpt lat="42.47209" lon="2.10826">
        <ele>1892.4</ele>
        <time>2019-01-07T14:06:00Z</time>
      </trkpt>
      <trkpt lat="42.47222" lon="2.1082">
        <ele>1889.7</ele>
        <time>2019-01-07T14:06:03Z</time>
      </trkpt>
      <trkpt lat="42.47232" lon="2.10814">
        <ele>1886.3</ele>
        <time>2019-01-07T14:06:06Z</time>
      </trkpt>
      <trkpt lat="42.47241" lon="2.1081">
        <ele>1883.8</ele>
        <time>2019-01-07T14:06:09Z</time>
      </trkpt>
      <trkpt lat="42.4725" lon="2.10803">
        <ele>1881.4</ele>
        <time>2019-01-07T14:06:12Z</time>
      </trkpt>
      <trkpt lat="42.4726" lon="2.108">
        <ele>1878.1</ele>
        <time>2019-01-07T14:06:14Z</time>
      </trkpt>
      <trkpt lat="42.47268" lon="2.10795">
        <ele>1875.1</ele>
        <time>2019-01-07T14:06:17Z</time>
      </trkpt>
      <trkpt lat="42.4728" lon="2.10788">
        <ele>1872.4</ele>
        <time>2019-01-07T14:06:20Z</time>
      </trkpt>
      <trkpt lat="42.47287" lon="2.10786">
        <ele>1870.3</ele>
        <time>2019-01-07T14:06:22Z</time>
      </trkpt>
      <trkpt lat="42.47294" lon="2.10784">
        <ele>1868</ele>
        <time>2019-01-07T14:06:24Z</time>
      </trkpt>
      <trkpt lat="42.47304" lon="2.10775">
        <ele>1866.6</ele>
        <time>2019-01-07T14:06:27Z</time>
      </trkpt>
      <trkpt lat="42.47308" lon="2.10775">
        <ele>1866.1</ele>
        <time>2019-01-07T14:06:28Z</time>
      </trkpt>
      <trkpt lat="42.47317" lon="2.10773">
        <ele>1864.2</ele>
        <time>2019-01-07T14:06:31Z</time>
      </trkpt>
      <trkpt lat="42.47333" lon="2.10771">
        <ele>1863.6</ele>
        <time>2019-01-07T14:06:35Z</time>
      </trkpt>
      <trkpt lat="42.47346" lon="2.10769">
        <ele>1862.7</ele>
        <time>2019-01-07T14:06:39Z</time>
      </trkpt>
      <trkpt lat="42.47349" lon="2.1077">
        <ele>1862.2</ele>
        <time>2019-01-07T14:06:39Z</time>
      </trkpt>
      <trkpt lat="42.47356" lon="2.10771">
        <ele>1861.2</ele>
        <time>2019-01-07T14:06:41Z</time>
      </trkpt>
      <trkpt lat="42.47359" lon="2.10773">
        <ele>1860.2</ele>
        <time>2019-01-07T14:06:42Z</time>
      </trkpt>
      <trkpt lat="42.47362" lon="2.10769">
        <ele>1857.8</ele>
        <time>2019-01-07T14:06:43Z</time>
      </trkpt>
      <trkpt lat="42.47366" lon="2.10767">
        <ele>1856.4</ele>
        <time>2019-01-07T14:06:44Z</time>
      </trkpt>
      <trkpt lat="42.47366" lon="2.10762">
        <ele>1854.6</ele>
        <time>2019-01-07T14:06:45Z</time>
      </trkpt>
      <trkpt lat="42.4737" lon="2.10758">
        <ele>1851.7</ele>
        <time>2019-01-07T14:06:47Z</time>
      </trkpt>
      <trkpt lat="42.47374" lon="2.10756">
        <ele>1848.8</ele>
        <time>2019-01-07T14:06:48Z</time>
      </trkpt>
      <trkpt lat="42.4738" lon="2.10744">
        <ele>1847.3</ele>
        <time>2019-01-07T14:06:51Z</time>
      </trkpt>
      <trkpt lat="42.47381" lon="2.10742">
        <ele>1846.4</ele>
        <time>2019-01-07T14:06:51Z</time>
      </trkpt>
      <trkpt lat="42.4739" lon="2.10741">
        <ele>1845</ele>
        <time>2019-01-07T14:06:53Z</time>
      </trkpt>
      <trkpt lat="42.47398" lon="2.10734">
        <ele>1843.9</ele>
        <time>2019-01-07T14:06:56Z</time>
      </trkpt>
      <trkpt lat="42.47407" lon="2.10729">
        <ele>1842</ele>
        <time>2019-01-07T14:06:58Z</time>
      </trkpt>
      <trkpt lat="42.4742" lon="2.10728">
        <ele>1838.6</ele>
        <time>2019-01-07T14:07:02Z</time>
      </trkpt>
      <trkpt lat="42.47429" lon="2.10728">
        <ele>1837.3</ele>
        <time>2019-01-07T14:07:04Z</time>
      </trkpt>
      <trkpt lat="42.47437" lon="2.10725">
        <ele>1835.2</ele>
        <time>2019-01-07T14:07:06Z</time>
      </trkpt>
      <trkpt lat="42.47449" lon="2.1072">
        <ele>1833.3</ele>
        <time>2019-01-07T14:07:10Z</time>
      </trkpt>
      <trkpt lat="42.47458" lon="2.10717">
        <ele>1830</ele>
        <time>2019-01-07T14:07:12Z</time>
      </trkpt>
      <trkpt lat="42.47467" lon="2.10712">
        <ele>1829.1</ele>
        <time>2019-01-07T14:07:15Z</time>
      </trkpt>
      <trkpt lat="42.47476" lon="2.10708">
        <ele>1826.7</ele>
        <time>2019-01-07T14:07:18Z</time>
      </trkpt>
      <trkpt lat="42.47486" lon="2.10706">
        <ele>1824.8</ele>
        <time>2019-01-07T14:07:20Z</time>
      </trkpt>
      <trkpt lat="42.47495" lon="2.10705">
        <ele>1822.3</ele>
        <time>2019-01-07T14:07:23Z</time>
      </trkpt>
      <trkpt lat="42.47508" lon="2.10697">
        <ele>1819.4</ele>
        <time>2019-01-07T14:07:26Z</time>
      </trkpt>
      <trkpt lat="42.4752" lon="2.10694">
        <ele>1816.5</ele>
        <time>2019-01-07T14:07:30Z</time>
      </trkpt>
      <trkpt lat="42.47532" lon="2.10689">
        <ele>1815.5</ele>
        <time>2019-01-07T14:07:33Z</time>
      </trkpt>
      <trkpt lat="42.47545" lon="2.10683">
        <ele>1813.6</ele>
        <time>2019-01-07T14:07:37Z</time>
      </trkpt>
      <trkpt lat="42.47562" lon="2.10676">
        <ele>1810.7</ele>
        <time>2019-01-07T14:07:41Z</time>
      </trkpt>
      <trkpt lat="42.47572" lon="2.10675">
        <ele>1808.4</ele>
        <time>2019-01-07T14:07:44Z</time>
      </trkpt>
      <trkpt lat="42.47571" lon="2.10675">
        <ele>1809.3</ele>
        <time>2019-01-07T14:07:44Z</time>
      </trkpt>
      <trkpt lat="42.47571" lon="2.10675">
        <ele>1809.3</ele>
        <time>2019-01-07T14:07:44Z</time>
      </trkpt>
      <trkpt lat="42.47574" lon="2.10673">
        <ele>1808.9</ele>
        <time>2019-01-07T14:07:45Z</time>
      </trkpt>
      <trkpt lat="42.47577" lon="2.10674">
        <ele>1808.8</ele>
        <time>2019-01-07T14:07:46Z</time>
      </trkpt>
      <trkpt lat="42.47581" lon="2.10676">
        <ele>1807.9</ele>
        <time>2019-01-07T14:07:47Z</time>
      </trkpt>
      <trkpt lat="42.47591" lon="2.10663">
        <ele>1806.9</ele>
        <time>2019-01-07T14:07:51Z</time>
      </trkpt>
      <trkpt lat="42.47595" lon="2.1066">
        <ele>1806.4</ele>
        <time>2019-01-07T14:07:52Z</time>
      </trkpt>
      <trkpt lat="42.476" lon="2.10645">
        <ele>1805.5</ele>
        <time>2019-01-07T14:07:55Z</time>
      </trkpt>
      <trkpt lat="42.47609" lon="2.10632">
        <ele>1804</ele>
        <time>2019-01-07T14:07:59Z</time>
      </trkpt>
      <trkpt lat="42.47618" lon="2.10613">
        <ele>1802.6</ele>
        <time>2019-01-07T14:08:03Z</time>
      </trkpt>
      <trkpt lat="42.47627" lon="2.10592">
        <ele>1801.2</ele>
        <time>2019-01-07T14:08:08Z</time>
      </trkpt>
      <trkpt lat="42.47629" lon="2.10589">
        <ele>1801.1</ele>
        <time>2019-01-07T14:08:09Z</time>
      </trkpt>
      <trkpt lat="42.47632" lon="2.10582">
        <ele>1800.6</ele>
        <time>2019-01-07T14:08:11Z</time>
      </trkpt>
      <trkpt lat="42.47634" lon="2.10579">
        <ele>1800.3</ele>
        <time>2019-01-07T14:08:11Z</time>
      </trkpt>
      <trkpt lat="42.47636" lon="2.10569">
        <ele>1799.7</ele>
        <time>2019-01-07T14:08:13Z</time>
      </trkpt>
      <trkpt lat="42.47637" lon="2.10566">
        <ele>1799.8</ele>
        <time>2019-01-07T14:08:14Z</time>
      </trkpt>
      <trkpt lat="42.47638" lon="2.10559">
        <ele>1799.2</ele>
        <time>2019-01-07T14:08:15Z</time>
      </trkpt>
      <trkpt lat="42.47637" lon="2.10555">
        <ele>1799.2</ele>
        <time>2019-01-07T14:08:16Z</time>
      </trkpt>
      <trkpt lat="42.47637" lon="2.10549">
        <ele>1798.3</ele>
        <time>2019-01-07T14:08:17Z</time>
      </trkpt>
      <trkpt lat="42.47637" lon="2.1054">
        <ele>1798.3</ele>
        <time>2019-01-07T14:08:19Z</time>
      </trkpt>
      <trkpt lat="42.47637" lon="2.10539">
        <ele>1797.8</ele>
        <time>2019-01-07T14:08:19Z</time>
      </trkpt>
      <trkpt lat="42.47642" lon="2.10521">
        <ele>1796.3</ele>
        <time>2019-01-07T14:08:23Z</time>
      </trkpt>
      <trkpt lat="42.47645" lon="2.10517">
        <ele>1796.3</ele>
        <time>2019-01-07T14:08:24Z</time>
      </trkpt>
      <trkpt lat="42.47648" lon="2.10507">
        <ele>1794.5</ele>
        <time>2019-01-07T14:08:26Z</time>
      </trkpt>
      <trkpt lat="42.47651" lon="2.10497">
        <ele>1793.9</ele>
        <time>2019-01-07T14:08:29Z</time>
      </trkpt>
      <trkpt lat="42.47653" lon="2.10489">
        <ele>1794</ele>
        <time>2019-01-07T14:08:30Z</time>
      </trkpt>
      <trkpt lat="42.47654" lon="2.10482">
        <ele>1793.1</ele>
        <time>2019-01-07T14:08:32Z</time>
      </trkpt>
      <trkpt lat="42.47654" lon="2.10466">
        <ele>1792</ele>
        <time>2019-01-07T14:08:35Z</time>
      </trkpt>
      <trkpt lat="42.47653" lon="2.10444">
        <ele>1791.6</ele>
        <time>2019-01-07T14:08:39Z</time>
      </trkpt>
      <trkpt lat="42.4765" lon="2.10425">
        <ele>1790.5</ele>
        <time>2019-01-07T14:08:43Z</time>
      </trkpt>
      <trkpt lat="42.47649" lon="2.10413">
        <ele>1788.2</ele>
        <time>2019-01-07T14:08:45Z</time>
      </trkpt>
      <trkpt lat="42.47647" lon="2.10394">
        <ele>1788.2</ele>
        <time>2019-01-07T14:08:49Z</time>
      </trkpt>
      <trkpt lat="42.47645" lon="2.1037">
        <ele>1785.7</ele>
        <time>2019-01-07T14:08:54Z</time>
      </trkpt>
      <trkpt lat="42.47643" lon="2.10346">
        <ele>1785.7</ele>
        <time>2019-01-07T14:08:59Z</time>
      </trkpt>
      <trkpt lat="42.47638" lon="2.10322">
        <ele>1783.9</ele>
        <time>2019-01-07T14:09:03Z</time>
      </trkpt>
      <trkpt lat="42.47637" lon="2.10314">
        <ele>1783.8</ele>
        <time>2019-01-07T14:09:05Z</time>
      </trkpt>
      <trkpt lat="42.47636" lon="2.10301">
        <ele>1782.5</ele>
        <time>2019-01-07T14:09:08Z</time>
      </trkpt>
      <trkpt lat="42.47635" lon="2.10297">
        <ele>1782.4</ele>
        <time>2019-01-07T14:09:08Z</time>
      </trkpt>
      <trkpt lat="42.47634" lon="2.1029">
        <ele>1781.4</ele>
        <time>2019-01-07T14:09:10Z</time>
      </trkpt>
      <trkpt lat="42.47628" lon="2.10274">
        <ele>1780.9</ele>
        <time>2019-01-07T14:09:13Z</time>
      </trkpt>
      <trkpt lat="42.47624" lon="2.10252">
        <ele>1779.6</ele>
        <time>2019-01-07T14:09:18Z</time>
      </trkpt>
      <trkpt lat="42.4762" lon="2.10239">
        <ele>1779</ele>
        <time>2019-01-07T14:09:20Z</time>
      </trkpt>
      <trkpt lat="42.47615" lon="2.10221">
        <ele>1777.2</ele>
        <time>2019-01-07T14:09:24Z</time>
      </trkpt>
      <trkpt lat="42.47609" lon="2.10202">
        <ele>1775.2</ele>
        <time>2019-01-07T14:09:29Z</time>
      </trkpt>
      <trkpt lat="42.47597" lon="2.10184">
        <ele>1774.2</ele>
        <time>2019-01-07T14:09:33Z</time>
      </trkpt>
      <trkpt lat="42.47578" lon="2.10167">
        <ele>1774.2</ele>
        <time>2019-01-07T14:09:39Z</time>
      </trkpt>
      <trkpt lat="42.47571" lon="2.1016">
        <ele>1774.2</ele>
        <time>2019-01-07T14:09:42Z</time>
      </trkpt>
      <trkpt lat="42.47564" lon="2.10154">
        <ele>1773.8</ele>
        <time>2019-01-07T14:09:44Z</time>
      </trkpt>
      <trkpt lat="42.47566" lon="2.1015">
        <ele>1784.4</ele>
        <time>2019-01-07T15:51:45Z</time>
      </trkpt>
      <trkpt lat="42.47565" lon="2.1015">
        <ele>1784.4</ele>
        <time>2019-01-07T15:51:45Z</time>
      </trkpt>
      <trkpt lat="42.47564" lon="2.10148">
        <ele>1784.3</ele>
        <time>2019-01-07T15:51:45Z</time>
      </trkpt>
      <trkpt lat="42.47562" lon="2.10147">
        <ele>1784.3</ele>
        <time>2019-01-07T15:51:46Z</time>
      </trkpt>
      <trkpt lat="42.47558" lon="2.10142">
        <ele>1783.9</ele>
        <time>2019-01-07T15:51:47Z</time>
      </trkpt>
      <trkpt lat="42.47545" lon="2.10126">
        <ele>1783</ele>
        <time>2019-01-07T15:51:52Z</time>
      </trkpt>
      <trkpt lat="42.4753" lon="2.10109">
        <ele>1782</ele>
        <time>2019-01-07T15:51:57Z</time>
      </trkpt>
      <trkpt lat="42.47519" lon="2.10096">
        <ele>1781</ele>
        <time>2019-01-07T15:52:01Z</time>
      </trkpt>
      <trkpt lat="42.47506" lon="2.10081">
        <ele>1780.1</ele>
        <time>2019-01-07T15:52:06Z</time>
      </trkpt>
      <trkpt lat="42.47492" lon="2.10064">
        <ele>1779</ele>
        <time>2019-01-07T15:52:11Z</time>
      </trkpt>
      <trkpt lat="42.47477" lon="2.10047">
        <ele>1778.1</ele>
        <time>2019-01-07T15:52:16Z</time>
      </trkpt>
      <trkpt lat="42.4747" lon="2.10038">
        <ele>1777.6</ele>
        <time>2019-01-07T15:52:18Z</time>
      </trkpt>
      <trkpt lat="42.4746" lon="2.10024">
        <ele>1776.1</ele>
        <time>2019-01-07T15:52:22Z</time>
      </trkpt>
      <trkpt lat="42.47449" lon="2.10007">
        <ele>1774.7</ele>
        <time>2019-01-07T15:52:27Z</time>
      </trkpt>
      <trkpt lat="42.47435" lon="2.09986">
        <ele>1773.7</ele>
        <time>2019-01-07T15:52:32Z</time>
      </trkpt>
      <trkpt lat="42.47423" lon="2.09968">
        <ele>1771.8</ele>
        <time>2019-01-07T15:52:37Z</time>
      </trkpt>
      <trkpt lat="42.47412" lon="2.09949">
        <ele>1770.8</ele>
        <time>2019-01-07T15:52:42Z</time>
      </trkpt>
      <trkpt lat="42.47397" lon="2.0993">
        <ele>1769.4</ele>
        <time>2019-01-07T15:52:47Z</time>
      </trkpt>
      <trkpt lat="42.47384" lon="2.09912">
        <ele>1768.5</ele>
        <time>2019-01-07T15:52:52Z</time>
      </trkpt>
      <trkpt lat="42.47367" lon="2.09897">
        <ele>1766.6</ele>
        <time>2019-01-07T15:52:58Z</time>
      </trkpt>
      <trkpt lat="42.47356" lon="2.09886">
        <ele>1765.6</ele>
        <time>2019-01-07T15:53:01Z</time>
      </trkpt>
      <trkpt lat="42.47341" lon="2.09867">
        <ele>1764.1</ele>
        <time>2019-01-07T15:53:07Z</time>
      </trkpt>
      <trkpt lat="42.47322" lon="2.09866">
        <ele>1765.6</ele>
        <time>2019-01-07T15:53:12Z</time>
      </trkpt>
      <trkpt lat="42.47303" lon="2.09879">
        <ele>1765.7</ele>
        <time>2019-01-07T15:53:17Z</time>
      </trkpt>
      <trkpt lat="42.4728" lon="2.09896">
        <ele>1765.6</ele>
        <time>2019-01-07T15:53:24Z</time>
      </trkpt>
      <trkpt lat="42.47264" lon="2.09908">
        <ele>1764.6</ele>
        <time>2019-01-07T15:53:29Z</time>
      </trkpt>
      <trkpt lat="42.47247" lon="2.09922">
        <ele>1765.2</ele>
        <time>2019-01-07T15:53:35Z</time>
      </trkpt>
      <trkpt lat="42.47224" lon="2.09932">
        <ele>1765.6</ele>
        <time>2019-01-07T15:53:41Z</time>
      </trkpt>
      <trkpt lat="42.47201" lon="2.09934">
        <ele>1767.1</ele>
        <time>2019-01-07T15:53:47Z</time>
      </trkpt>
      <trkpt lat="42.47196" lon="2.09933">
        <ele>1767.5</ele>
        <time>2019-01-07T15:53:49Z</time>
      </trkpt>
      <trkpt lat="42.47189" lon="2.09933">
        <ele>1767.6</ele>
        <time>2019-01-07T15:53:50Z</time>
      </trkpt>
      <trkpt lat="42.47188" lon="2.09933">
        <ele>1767.5</ele>
        <time>2019-01-07T15:53:51Z</time>
      </trkpt>
      <trkpt lat="42.47187" lon="2.09934">
        <ele>1768</ele>
        <time>2019-01-07T15:53:51Z</time>
      </trkpt>
      <trkpt lat="42.47183" lon="2.09937">
        <ele>1768.9</ele>
        <time>2019-01-07T15:53:52Z</time>
      </trkpt>
      <trkpt lat="42.4718" lon="2.09937">
        <ele>1768.9</ele>
        <time>2019-01-07T15:53:53Z</time>
      </trkpt>
      <trkpt lat="42.4718" lon="2.09937">
        <ele>1768.5</ele>
        <time>2019-01-07T15:53:53Z</time>
      </trkpt>
      <trkpt lat="42.47177" lon="2.0993">
        <ele>1768</ele>
        <time>2019-01-07T15:53:55Z</time>
      </trkpt>
      <trkpt lat="42.47165" lon="2.09922">
        <ele>1766.1</ele>
        <time>2019-01-07T15:53:58Z</time>
      </trkpt>
      <trkpt lat="42.47149" lon="2.09911">
        <ele>1764.7</ele>
        <time>2019-01-07T15:54:03Z</time>
      </trkpt>
      <trkpt lat="42.4713" lon="2.09906">
        <ele>1766.1</ele>
        <time>2019-01-07T15:54:08Z</time>
      </trkpt>
      <trkpt lat="42.47127" lon="2.09905">
        <ele>1766.5</ele>
        <time>2019-01-07T15:54:09Z</time>
      </trkpt>
      <trkpt lat="42.47124" lon="2.09904">
        <ele>1766.5</ele>
        <time>2019-01-07T15:54:10Z</time>
      </trkpt>
      <trkpt lat="42.47122" lon="2.09904">
        <ele>1766.5</ele>
        <time>2019-01-07T15:54:10Z</time>
      </trkpt>
      <trkpt lat="42.4712" lon="2.09901">
        <ele>1767.6</ele>
        <time>2019-01-07T15:54:11Z</time>
      </trkpt>
      <trkpt lat="42.47114" lon="2.09896">
        <ele>1768</ele>
        <time>2019-01-07T15:54:13Z</time>
      </trkpt>
      <trkpt lat="42.47114" lon="2.09895">
        <ele>1768</ele>
        <time>2019-01-07T15:54:13Z</time>
      </trkpt>
      <trkpt lat="42.47106" lon="2.09876">
        <ele>1768.9</ele>
        <time>2019-01-07T15:54:18Z</time>
      </trkpt>
      <trkpt lat="42.47096" lon="2.09856">
        <ele>1768.9</ele>
        <time>2019-01-07T15:54:22Z</time>
      </trkpt>
      <trkpt lat="42.4709" lon="2.09848">
        <ele>1769</ele>
        <time>2019-01-07T15:54:25Z</time>
      </trkpt>
      <trkpt lat="42.4708" lon="2.09844">
        <ele>1770.5</ele>
        <time>2019-01-07T15:54:27Z</time>
      </trkpt>
      <trkpt lat="42.47075" lon="2.0984">
        <ele>1770.5</ele>
        <time>2019-01-07T15:54:29Z</time>
      </trkpt>
      <trkpt lat="42.47066" lon="2.09821">
        <ele>1770</ele>
        <time>2019-01-07T15:54:33Z</time>
      </trkpt>
      <trkpt lat="42.47065" lon="2.09816">
        <ele>1769.4</ele>
        <time>2019-01-07T15:54:34Z</time>
      </trkpt>
      <trkpt lat="42.47063" lon="2.09799">
        <ele>1769</ele>
        <time>2019-01-07T15:54:38Z</time>
      </trkpt>
      <trkpt lat="42.47061" lon="2.09778">
        <ele>1767</ele>
        <time>2019-01-07T15:54:42Z</time>
      </trkpt>
      <trkpt lat="42.47061" lon="2.09775">
        <ele>1767</ele>
        <time>2019-01-07T15:54:42Z</time>
      </trkpt>
      <trkpt lat="42.47061" lon="2.09765">
        <ele>1766.6</ele>
        <time>2019-01-07T15:54:45Z</time>
      </trkpt>
      <trkpt lat="42.4706" lon="2.09742">
        <ele>1765.1</ele>
        <time>2019-01-07T15:54:49Z</time>
      </trkpt>
      <trkpt lat="42.47055" lon="2.09731">
        <ele>1763.6</ele>
        <time>2019-01-07T15:54:52Z</time>
      </trkpt>
      <trkpt lat="42.4705" lon="2.09726">
        <ele>1765.2</ele>
        <time>2019-01-07T15:54:53Z</time>
      </trkpt>
      <trkpt lat="42.47041" lon="2.09706">
        <ele>1763.7</ele>
        <time>2019-01-07T15:54:58Z</time>
      </trkpt>
      <trkpt lat="42.47031" lon="2.09688">
        <ele>1762.8</ele>
        <time>2019-01-07T15:55:02Z</time>
      </trkpt>
      <trkpt lat="42.47028" lon="2.09668">
        <ele>1761.7</ele>
        <time>2019-01-07T15:55:06Z</time>
      </trkpt>
      <trkpt lat="42.47026" lon="2.09664">
        <ele>1761.3</ele>
        <time>2019-01-07T15:55:07Z</time>
      </trkpt>
      <trkpt lat="42.47016" lon="2.09652">
        <ele>1760.7</ele>
        <time>2019-01-07T15:55:11Z</time>
      </trkpt>
      <trkpt lat="42.46999" lon="2.09635">
        <ele>1760.7</ele>
        <time>2019-01-07T15:55:16Z</time>
      </trkpt>
      <trkpt lat="42.46996" lon="2.0963">
        <ele>1760.4</ele>
        <time>2019-01-07T15:55:18Z</time>
      </trkpt>
      <trkpt lat="42.46995" lon="2.09629">
        <ele>1760.3</ele>
        <time>2019-01-07T15:55:18Z</time>
      </trkpt>
      <trkpt lat="42.46986" lon="2.09618">
        <ele>1759.9</ele>
        <time>2019-01-07T15:55:21Z</time>
      </trkpt>
      <trkpt lat="42.46974" lon="2.0961">
        <ele>1758.3</ele>
        <time>2019-01-07T15:55:25Z</time>
      </trkpt>
      <trkpt lat="42.46966" lon="2.09607">
        <ele>1757.4</ele>
        <time>2019-01-07T15:55:27Z</time>
      </trkpt>
      <trkpt lat="42.46949" lon="2.09606">
        <ele>1757</ele>
        <time>2019-01-07T15:55:32Z</time>
      </trkpt>
      <trkpt lat="42.46946" lon="2.09605">
        <ele>1756.9</ele>
        <time>2019-01-07T15:55:32Z</time>
      </trkpt>
      <trkpt lat="42.46933" lon="2.09593">
        <ele>1757</ele>
        <time>2019-01-07T15:55:36Z</time>
      </trkpt>
      <trkpt lat="42.4693" lon="2.09589">
        <ele>1758.3</ele>
        <time>2019-01-07T15:55:38Z</time>
      </trkpt>
      <trkpt lat="42.46916" lon="2.09574">
        <ele>1758.4</ele>
        <time>2019-01-07T15:55:42Z</time>
      </trkpt>
      <trkpt lat="42.46911" lon="2.09561">
        <ele>1758.3</ele>
        <time>2019-01-07T15:55:45Z</time>
      </trkpt>
      <trkpt lat="42.46906" lon="2.09547">
        <ele>1758.4</ele>
        <time>2019-01-07T15:55:48Z</time>
      </trkpt>
      <trkpt lat="42.469" lon="2.09539">
        <ele>1758.3</ele>
        <time>2019-01-07T15:55:50Z</time>
      </trkpt>
      <trkpt lat="42.469" lon="2.09533">
        <ele>1758.8</ele>
        <time>2019-01-07T15:55:52Z</time>
      </trkpt>
      <trkpt lat="42.46893" lon="2.09515">
        <ele>1758.9</ele>
        <time>2019-01-07T15:55:56Z</time>
      </trkpt>
      <trkpt lat="42.46881" lon="2.09499">
        <ele>1758.8</ele>
        <time>2019-01-07T15:56:00Z</time>
      </trkpt>
      <trkpt lat="42.46872" lon="2.09491">
        <ele>1758.8</ele>
        <time>2019-01-07T15:56:03Z</time>
      </trkpt>
      <trkpt lat="42.46856" lon="2.09477">
        <ele>1758.9</ele>
        <time>2019-01-07T15:56:08Z</time>
      </trkpt>
      <trkpt lat="42.46838" lon="2.09461">
        <ele>1758.8</ele>
        <time>2019-01-07T15:56:14Z</time>
      </trkpt>
      <trkpt lat="42.46831" lon="2.09441">
        <ele>1759.3</ele>
        <time>2019-01-07T15:56:18Z</time>
      </trkpt>
      <trkpt lat="42.4683" lon="2.09421">
        <ele>1759.4</ele>
        <time>2019-01-07T15:56:22Z</time>
      </trkpt>
      <trkpt lat="42.46825" lon="2.09397">
        <ele>1759.4</ele>
        <time>2019-01-07T15:56:27Z</time>
      </trkpt>
      <trkpt lat="42.46825" lon="2.09395">
        <ele>1757.9</ele>
        <time>2019-01-07T15:56:28Z</time>
      </trkpt>
      <trkpt lat="42.46815" lon="2.09376">
        <ele>1758.3</ele>
        <time>2019-01-07T15:56:32Z</time>
      </trkpt>
      <trkpt lat="42.46806" lon="2.09367">
        <ele>1758.3</ele>
        <time>2019-01-07T15:56:35Z</time>
      </trkpt>
      <trkpt lat="42.46801" lon="2.09362">
        <ele>1759.3</ele>
        <time>2019-01-07T15:56:37Z</time>
      </trkpt>
      <trkpt lat="42.468" lon="2.0936">
        <ele>1759.4</ele>
        <time>2019-01-07T15:56:37Z</time>
      </trkpt>
      <trkpt lat="42.46795" lon="2.0935">
        <ele>1757.9</ele>
        <time>2019-01-07T15:56:40Z</time>
      </trkpt>
      <trkpt lat="42.46794" lon="2.09347">
        <ele>1757.9</ele>
        <time>2019-01-07T15:56:40Z</time>
      </trkpt>
      <trkpt lat="42.46787" lon="2.0933">
        <ele>1758.4</ele>
        <time>2019-01-07T15:56:44Z</time>
      </trkpt>
      <trkpt lat="42.46774" lon="2.09317">
        <ele>1758.4</ele>
        <time>2019-01-07T15:56:48Z</time>
      </trkpt>
      <trkpt lat="42.46762" lon="2.09309">
        <ele>1758.9</ele>
        <time>2019-01-07T15:56:52Z</time>
      </trkpt>
      <trkpt lat="42.46753" lon="2.09303">
        <ele>1760.3</ele>
        <time>2019-01-07T15:56:54Z</time>
      </trkpt>
      <trkpt lat="42.46751" lon="2.093">
        <ele>1760.4</ele>
        <time>2019-01-07T15:56:55Z</time>
      </trkpt>
      <trkpt lat="42.4675" lon="2.09286">
        <ele>1759.9</ele>
        <time>2019-01-07T15:56:58Z</time>
      </trkpt>
      <trkpt lat="42.46751" lon="2.09263">
        <ele>1759.8</ele>
        <time>2019-01-07T15:57:03Z</time>
      </trkpt>
      <trkpt lat="42.4675" lon="2.0924">
        <ele>1760.3</ele>
        <time>2019-01-07T15:57:07Z</time>
      </trkpt>
      <trkpt lat="42.4674" lon="2.09224">
        <ele>1760.3</ele>
        <time>2019-01-07T15:57:11Z</time>
      </trkpt>
      <trkpt lat="42.46728" lon="2.09204">
        <ele>1760.3</ele>
        <time>2019-01-07T15:57:16Z</time>
      </trkpt>
      <trkpt lat="42.46718" lon="2.09183">
        <ele>1760.7</ele>
        <time>2019-01-07T15:57:21Z</time>
      </trkpt>
      <trkpt lat="42.46709" lon="2.09163">
        <ele>1760.7</ele>
        <time>2019-01-07T15:57:26Z</time>
      </trkpt>
      <trkpt lat="42.46706" lon="2.09159">
        <ele>1760.7</ele>
        <time>2019-01-07T15:57:27Z</time>
      </trkpt>
      <trkpt lat="42.46704" lon="2.09157">
        <ele>1760.8</ele>
        <time>2019-01-07T15:57:28Z</time>
      </trkpt>
      <trkpt lat="42.46693" lon="2.09137">
        <ele>1760.7</ele>
        <time>2019-01-07T15:57:33Z</time>
      </trkpt>
      <trkpt lat="42.46681" lon="2.09128">
        <ele>1760.7</ele>
        <time>2019-01-07T15:57:36Z</time>
      </trkpt>
      <trkpt lat="42.46665" lon="2.09111">
        <ele>1760.8</ele>
        <time>2019-01-07T15:57:42Z</time>
      </trkpt>
      <trkpt lat="42.46663" lon="2.0911">
        <ele>1760.7</ele>
        <time>2019-01-07T15:57:42Z</time>
      </trkpt>
      <trkpt lat="42.46662" lon="2.09109">
        <ele>1761.2</ele>
        <time>2019-01-07T15:57:43Z</time>
      </trkpt>
      <trkpt lat="42.46654" lon="2.09101">
        <ele>1760.8</ele>
        <time>2019-01-07T15:57:45Z</time>
      </trkpt>
      <trkpt lat="42.46639" lon="2.09093">
        <ele>1760.7</ele>
        <time>2019-01-07T15:57:50Z</time>
      </trkpt>
      <trkpt lat="42.46636" lon="2.09089">
        <ele>1760.7</ele>
        <time>2019-01-07T15:57:51Z</time>
      </trkpt>
      <trkpt lat="42.46622" lon="2.09082">
        <ele>1760.3</ele>
        <time>2019-01-07T15:57:55Z</time>
      </trkpt>
      <trkpt lat="42.46608" lon="2.09079">
        <ele>1760.7</ele>
        <time>2019-01-07T15:57:59Z</time>
      </trkpt>
      <trkpt lat="42.46604" lon="2.09079">
        <ele>1760.7</ele>
        <time>2019-01-07T15:57:59Z</time>
      </trkpt>
      <trkpt lat="42.46594" lon="2.09077">
        <ele>1760.7</ele>
        <time>2019-01-07T15:58:02Z</time>
      </trkpt>
      <trkpt lat="42.46586" lon="2.0908">
        <ele>1759.8</ele>
        <time>2019-01-07T15:58:04Z</time>
      </trkpt>
      <trkpt lat="42.46584" lon="2.09082">
        <ele>1759.9</ele>
        <time>2019-01-07T15:58:05Z</time>
      </trkpt>
      <trkpt lat="42.46574" lon="2.09089">
        <ele>1759.8</ele>
        <time>2019-01-07T15:58:08Z</time>
      </trkpt>
      <trkpt lat="42.46573" lon="2.09091">
        <ele>1759.8</ele>
        <time>2019-01-07T15:58:08Z</time>
      </trkpt>
      <trkpt lat="42.46572" lon="2.09092">
        <ele>1759.9</ele>
        <time>2019-01-07T15:58:09Z</time>
      </trkpt>
      <trkpt lat="42.4656" lon="2.09102">
        <ele>1761.8</ele>
        <time>2019-01-07T15:58:13Z</time>
      </trkpt>
      <trkpt lat="42.46555" lon="2.09104">
        <ele>1761.7</ele>
        <time>2019-01-07T15:58:14Z</time>
      </trkpt>
      <trkpt lat="42.46549" lon="2.09099">
        <ele>1761.7</ele>
        <time>2019-01-07T15:58:16Z</time>
      </trkpt>
      <trkpt lat="42.46549" lon="2.09099">
        <ele>1760.3</ele>
        <time>2019-01-07T15:58:16Z</time>
      </trkpt>
      <trkpt lat="42.46549" lon="2.091">
        <ele>1762.2</ele>
        <time>2019-01-07T15:58:16Z</time>
      </trkpt>
      <trkpt lat="42.46545" lon="2.091">
        <ele>1762.2</ele>
        <time>2019-01-07T15:58:17Z</time>
      </trkpt>
      <trkpt lat="42.46546" lon="2.09102">
        <ele>1762.2</ele>
        <time>2019-01-07T15:58:18Z</time>
      </trkpt>
      <trkpt lat="42.4654" lon="2.09112">
        <ele>1761.7</ele>
        <time>2019-01-07T15:58:20Z</time>
      </trkpt>
      <trkpt lat="42.4654" lon="2.09118">
        <ele>1761.7</ele>
        <time>2019-01-07T15:58:21Z</time>
      </trkpt>
      <trkpt lat="42.46531" lon="2.09127">
        <ele>1762.2</ele>
        <time>2019-01-07T15:58:24Z</time>
      </trkpt>
      <trkpt lat="42.46512" lon="2.09138">
        <ele>1762.3</ele>
        <time>2019-01-07T15:58:30Z</time>
      </trkpt>
      <trkpt lat="42.46504" lon="2.09144">
        <ele>1762.3</ele>
        <time>2019-01-07T15:58:32Z</time>
      </trkpt>
      <trkpt lat="42.46503" lon="2.09145">
        <ele>1762.3</ele>
        <time>2019-01-07T15:58:33Z</time>
      </trkpt>
      <trkpt lat="42.46488" lon="2.0915">
        <ele>1760.8</ele>
        <time>2019-01-07T15:58:37Z</time>
      </trkpt>
      <trkpt lat="42.46472" lon="2.09155">
        <ele>1762.2</ele>
        <time>2019-01-07T15:58:41Z</time>
      </trkpt>
      <trkpt lat="42.4646" lon="2.09161">
        <ele>1763.2</ele>
        <time>2019-01-07T15:58:44Z</time>
      </trkpt>
      <trkpt lat="42.46445" lon="2.09169">
        <ele>1763.2</ele>
        <time>2019-01-07T15:58:49Z</time>
      </trkpt>
      <trkpt lat="42.46431" lon="2.09171">
        <ele>1763.2</ele>
        <time>2019-01-07T15:58:52Z</time>
      </trkpt>
      <trkpt lat="42.4643" lon="2.09171">
        <ele>1763.2</ele>
        <time>2019-01-07T15:58:53Z</time>
      </trkpt>
      <trkpt lat="42.46425" lon="2.09174">
        <ele>1763.3</ele>
        <time>2019-01-07T15:58:54Z</time>
      </trkpt>
      <trkpt lat="42.4641" lon="2.09182">
        <ele>1763.3</ele>
        <time>2019-01-07T15:58:58Z</time>
      </trkpt>
      <trkpt lat="42.46397" lon="2.09191">
        <ele>1763.6</ele>
        <time>2019-01-07T15:59:02Z</time>
      </trkpt>
      <trkpt lat="42.46387" lon="2.09197">
        <ele>1763.7</ele>
        <time>2019-01-07T15:59:05Z</time>
      </trkpt>
      <trkpt lat="42.46376" lon="2.092">
        <ele>1763.6</ele>
        <time>2019-01-07T15:59:08Z</time>
      </trkpt>
      <trkpt lat="42.46366" lon="2.09203">
        <ele>1763.7</ele>
        <time>2019-01-07T15:59:11Z</time>
      </trkpt>
      <trkpt lat="42.4635" lon="2.09208">
        <ele>1762.3</ele>
        <time>2019-01-07T15:59:15Z</time>
      </trkpt>
      <trkpt lat="42.46348" lon="2.09208">
        <ele>1762.3</ele>
        <time>2019-01-07T15:59:16Z</time>
      </trkpt>
      <trkpt lat="42.46337" lon="2.09211">
        <ele>1763.6</ele>
        <time>2019-01-07T15:59:19Z</time>
      </trkpt>
      <trkpt lat="42.46334" lon="2.09212">
        <ele>1762.2</ele>
        <time>2019-01-07T15:59:20Z</time>
      </trkpt>
      <trkpt lat="42.46323" lon="2.09221">
        <ele>1763.7</ele>
        <time>2019-01-07T15:59:23Z</time>
      </trkpt>
      <trkpt lat="42.46321" lon="2.09223">
        <ele>1765.2</ele>
        <time>2019-01-07T15:59:24Z</time>
      </trkpt>
      <trkpt lat="42.46309" lon="2.09231">
        <ele>1764.1</ele>
        <time>2019-01-07T15:59:27Z</time>
      </trkpt>
      <trkpt lat="42.46307" lon="2.09234">
        <ele>1764.7</ele>
        <time>2019-01-07T15:59:28Z</time>
      </trkpt>
      <trkpt lat="42.46293" lon="2.0924">
        <ele>1764.7</ele>
        <time>2019-01-07T15:59:32Z</time>
      </trkpt>
      <trkpt lat="42.46291" lon="2.09241">
        <ele>1764.7</ele>
        <time>2019-01-07T15:59:33Z</time>
      </trkpt>
      <trkpt lat="42.46284" lon="2.09244">
        <ele>1764.7</ele>
        <time>2019-01-07T15:59:35Z</time>
      </trkpt>
      <trkpt lat="42.46282" lon="2.09244">
        <ele>1765.6</ele>
        <time>2019-01-07T15:59:35Z</time>
      </trkpt>
      <trkpt lat="42.46274" lon="2.09249">
        <ele>1765.7</ele>
        <time>2019-01-07T15:59:37Z</time>
      </trkpt>
      <trkpt lat="42.46264" lon="2.09254">
        <ele>1767.5</ele>
        <time>2019-01-07T15:59:40Z</time>
      </trkpt>
      <trkpt lat="42.46257" lon="2.09263">
        <ele>1766</ele>
        <time>2019-01-07T15:59:43Z</time>
      </trkpt>
      <trkpt lat="42.46254" lon="2.09267">
        <ele>1766</ele>
        <time>2019-01-07T15:59:44Z</time>
      </trkpt>
      <trkpt lat="42.46247" lon="2.09274">
        <ele>1766.6</ele>
        <time>2019-01-07T15:59:46Z</time>
      </trkpt>
      <trkpt lat="42.46238" lon="2.09286">
        <ele>1767</ele>
        <time>2019-01-07T15:59:50Z</time>
      </trkpt>
      <trkpt lat="42.46237" lon="2.09288">
        <ele>1768.5</ele>
        <time>2019-01-07T15:59:50Z</time>
      </trkpt>
      <trkpt lat="42.46229" lon="2.09304">
        <ele>1768.5</ele>
        <time>2019-01-07T15:59:54Z</time>
      </trkpt>
      <trkpt lat="42.46221" lon="2.09318">
        <ele>1768.4</ele>
        <time>2019-01-07T15:59:58Z</time>
      </trkpt>
      <trkpt lat="42.4622" lon="2.09319">
        <ele>1768.4</ele>
        <time>2019-01-07T15:59:58Z</time>
      </trkpt>
      <trkpt lat="42.46205" lon="2.0933">
        <ele>1767.1</ele>
        <time>2019-01-07T16:00:02Z</time>
      </trkpt>
      <trkpt lat="42.46201" lon="2.0934">
        <ele>1767</ele>
        <time>2019-01-07T16:00:05Z</time>
      </trkpt>
      <trkpt lat="42.46191" lon="2.09347">
        <ele>1767</ele>
        <time>2019-01-07T16:00:08Z</time>
      </trkpt>
      <trkpt lat="42.46177" lon="2.09354">
        <ele>1768</ele>
        <time>2019-01-07T16:00:12Z</time>
      </trkpt>
      <trkpt lat="42.46171" lon="2.09362">
        <ele>1768</ele>
        <time>2019-01-07T16:00:14Z</time>
      </trkpt>
      <trkpt lat="42.46168" lon="2.09366">
        <ele>1768.9</ele>
        <time>2019-01-07T16:00:15Z</time>
      </trkpt>
      <trkpt lat="42.46165" lon="2.09368">
        <ele>1767.6</ele>
        <time>2019-01-07T16:00:16Z</time>
      </trkpt>
      <trkpt lat="42.46155" lon="2.09381">
        <ele>1769.4</ele>
        <time>2019-01-07T16:00:19Z</time>
      </trkpt>
      <trkpt lat="42.46139" lon="2.09396">
        <ele>1768.9</ele>
        <time>2019-01-07T16:00:25Z</time>
      </trkpt>
      <trkpt lat="42.46137" lon="2.09398">
        <ele>1767.6</ele>
        <time>2019-01-07T16:00:25Z</time>
      </trkpt>
      <trkpt lat="42.46127" lon="2.09406">
        <ele>1768.1</ele>
        <time>2019-01-07T16:00:29Z</time>
      </trkpt>
      <trkpt lat="42.46114" lon="2.09419">
        <ele>1768</ele>
        <time>2019-01-07T16:00:33Z</time>
      </trkpt>
      <trkpt lat="42.46111" lon="2.09424">
        <ele>1769.4</ele>
        <time>2019-01-07T16:00:34Z</time>
      </trkpt>
      <trkpt lat="42.46093" lon="2.09433">
        <ele>1769.4</ele>
        <time>2019-01-07T16:00:39Z</time>
      </trkpt>
      <trkpt lat="42.46087" lon="2.0944">
        <ele>1769</ele>
        <time>2019-01-07T16:00:41Z</time>
      </trkpt>
      <trkpt lat="42.46074" lon="2.09452">
        <ele>1769.4</ele>
        <time>2019-01-07T16:00:45Z</time>
      </trkpt>
      <trkpt lat="42.4606" lon="2.09468">
        <ele>1769.4</ele>
        <time>2019-01-07T16:00:50Z</time>
      </trkpt>
      <trkpt lat="42.46051" lon="2.09474">
        <ele>1769.4</ele>
        <time>2019-01-07T16:00:53Z</time>
      </trkpt>
      <trkpt lat="42.46047" lon="2.09481">
        <ele>1769.9</ele>
        <time>2019-01-07T16:00:55Z</time>
      </trkpt>
      <trkpt lat="42.46035" lon="2.09493">
        <ele>1769.5</ele>
        <time>2019-01-07T16:00:59Z</time>
      </trkpt>
      <trkpt lat="42.46029" lon="2.09502">
        <ele>1769.4</ele>
        <time>2019-01-07T16:01:01Z</time>
      </trkpt>
      <trkpt lat="42.46017" lon="2.09515">
        <ele>1770</ele>
        <time>2019-01-07T16:01:05Z</time>
      </trkpt>
      <trkpt lat="42.4601" lon="2.09526">
        <ele>1771.3</ele>
        <time>2019-01-07T16:01:08Z</time>
      </trkpt>
      <trkpt lat="42.46004" lon="2.09533">
        <ele>1771.4</ele>
        <time>2019-01-07T16:01:10Z</time>
      </trkpt>
      <trkpt lat="42.46001" lon="2.09535">
        <ele>1771.4</ele>
        <time>2019-01-07T16:01:11Z</time>
      </trkpt>
      <trkpt lat="42.45995" lon="2.09546">
        <ele>1772.3</ele>
        <time>2019-01-07T16:01:14Z</time>
      </trkpt>
      <trkpt lat="42.45989" lon="2.0955">
        <ele>1771.3</ele>
        <time>2019-01-07T16:01:16Z</time>
      </trkpt>
      <trkpt lat="42.45975" lon="2.09563">
        <ele>1771.8</ele>
        <time>2019-01-07T16:01:20Z</time>
      </trkpt>
      <trkpt lat="42.45968" lon="2.09574">
        <ele>1772.3</ele>
        <time>2019-01-07T16:01:23Z</time>
      </trkpt>
      <trkpt lat="42.45967" lon="2.09574">
        <ele>1772.3</ele>
        <time>2019-01-07T16:01:23Z</time>
      </trkpt>
      <trkpt lat="42.45953" lon="2.09586">
        <ele>1772.9</ele>
        <time>2019-01-07T16:01:27Z</time>
      </trkpt>
      <trkpt lat="42.45944" lon="2.096">
        <ele>1772.9</ele>
        <time>2019-01-07T16:01:31Z</time>
      </trkpt>
      <trkpt lat="42.4594" lon="2.09608">
        <ele>1773.2</ele>
        <time>2019-01-07T16:01:33Z</time>
      </trkpt>
      <trkpt lat="42.45933" lon="2.09617">
        <ele>1774.8</ele>
        <time>2019-01-07T16:01:36Z</time>
      </trkpt>
      <trkpt lat="42.45931" lon="2.09619">
        <ele>1774.7</ele>
        <time>2019-01-07T16:01:36Z</time>
      </trkpt>
      <trkpt lat="42.45915" lon="2.09633">
        <ele>1774.7</ele>
        <time>2019-01-07T16:01:42Z</time>
      </trkpt>
      <trkpt lat="42.45906" lon="2.09645">
        <ele>1774.7</ele>
        <time>2019-01-07T16:01:45Z</time>
      </trkpt>
      <trkpt lat="42.459" lon="2.09647">
        <ele>1773.8</ele>
        <time>2019-01-07T16:01:47Z</time>
      </trkpt>
      <trkpt lat="42.45897" lon="2.09645">
        <ele>1771.9</ele>
        <time>2019-01-07T16:01:47Z</time>
      </trkpt>
      <trkpt lat="42.45885" lon="2.09646">
        <ele>1772.9</ele>
        <time>2019-01-07T16:01:51Z</time>
      </trkpt>
      <trkpt lat="42.45884" lon="2.09643">
        <ele>1772.8</ele>
        <time>2019-01-07T16:01:51Z</time>
      </trkpt>
      <trkpt lat="42.45876" lon="2.09645">
        <ele>1772.8</ele>
        <time>2019-01-07T16:01:53Z</time>
      </trkpt>
      <trkpt lat="42.45872" lon="2.09648">
        <ele>1772.8</ele>
        <time>2019-01-07T16:01:55Z</time>
      </trkpt>
      <trkpt lat="42.45863" lon="2.09651">
        <ele>1774.7</ele>
        <time>2019-01-07T16:01:57Z</time>
      </trkpt>
      <trkpt lat="42.45854" lon="2.09659">
        <ele>1776.7</ele>
        <time>2019-01-07T16:02:00Z</time>
      </trkpt>
      <trkpt lat="42.45851" lon="2.0966">
        <ele>1776.6</ele>
        <time>2019-01-07T16:02:01Z</time>
      </trkpt>
      <trkpt lat="42.45845" lon="2.09666">
        <ele>1779.6</ele>
        <time>2019-01-07T16:02:03Z</time>
      </trkpt>
      <trkpt lat="42.45844" lon="2.09667">
        <ele>1779</ele>
        <time>2019-01-07T16:02:03Z</time>
      </trkpt>
      <trkpt lat="42.45842" lon="2.09668">
        <ele>1779.6</ele>
        <time>2019-01-07T16:02:04Z</time>
      </trkpt>
      <trkpt lat="42.45838" lon="2.09666">
        <ele>1780.6</ele>
        <time>2019-01-07T16:02:05Z</time>
      </trkpt>
      <trkpt lat="42.45827" lon="2.09661">
        <ele>1783.4</ele>
        <time>2019-01-07T16:02:08Z</time>
      </trkpt>
      <trkpt lat="42.45822" lon="2.09661">
        <ele>1783.4</ele>
        <time>2019-01-07T16:02:10Z</time>
      </trkpt>
      <trkpt lat="42.45818" lon="2.09658">
        <ele>1784.8</ele>
        <time>2019-01-07T16:02:11Z</time>
      </trkpt>
      <trkpt lat="42.45811" lon="2.09657">
        <ele>1787.7</ele>
        <time>2019-01-07T16:02:12Z</time>
      </trkpt>
      <trkpt lat="42.45806" lon="2.09655">
        <ele>1790.2</ele>
        <time>2019-01-07T16:02:14Z</time>
      </trkpt>
      <trkpt lat="42.45809" lon="2.09654">
        <ele>1791.6</ele>
        <time>2019-01-07T16:02:14Z</time>
      </trkpt>
      <trkpt lat="42.45807" lon="2.09649">
        <ele>1791</ele>
        <time>2019-01-07T16:02:16Z</time>
      </trkpt>
      <trkpt lat="42.45795" lon="2.0965">
        <ele>1790.1</ele>
        <time>2019-01-07T16:02:19Z</time>
      </trkpt>
      <trkpt lat="42.45789" lon="2.0965">
        <ele>1790.1</ele>
        <time>2019-01-07T16:02:20Z</time>
      </trkpt>
      <trkpt lat="42.45773" lon="2.09654">
        <ele>1792</ele>
        <time>2019-01-07T16:02:25Z</time>
      </trkpt>
      <trkpt lat="42.45766" lon="2.09655">
        <ele>1793.5</ele>
        <time>2019-01-07T16:02:27Z</time>
      </trkpt>
      <trkpt lat="42.45752" lon="2.09663">
        <ele>1795</ele>
        <time>2019-01-07T16:02:31Z</time>
      </trkpt>
      <trkpt lat="42.45739" lon="2.09674">
        <ele>1798.2</ele>
        <time>2019-01-07T16:02:35Z</time>
      </trkpt>
      <trkpt lat="42.45729" lon="2.09687">
        <ele>1799.2</ele>
        <time>2019-01-07T16:02:38Z</time>
      </trkpt>
      <trkpt lat="42.45719" lon="2.09705">
        <ele>1800.2</ele>
        <time>2019-01-07T16:02:43Z</time>
      </trkpt>
      <trkpt lat="42.45721" lon="2.09714">
        <ele>1800.2</ele>
        <time>2019-01-07T16:02:45Z</time>
      </trkpt>
      <trkpt lat="42.45714" lon="2.09737">
        <ele>1801.1</ele>
        <time>2019-01-07T16:02:50Z</time>
      </trkpt>
      <trkpt lat="42.45712" lon="2.0974">
        <ele>1801.1</ele>
        <time>2019-01-07T16:02:50Z</time>
      </trkpt>
      <trkpt lat="42.45706" lon="2.09749">
        <ele>1802.6</ele>
        <time>2019-01-07T16:02:53Z</time>
      </trkpt>
      <trkpt lat="42.45697" lon="2.09754">
        <ele>1805.5</ele>
        <time>2019-01-07T16:02:55Z</time>
      </trkpt>
      <trkpt lat="42.45691" lon="2.09745">
        <ele>1806.5</ele>
        <time>2019-01-07T16:02:58Z</time>
      </trkpt>
      <trkpt lat="42.45685" lon="2.09741">
        <ele>1807.5</ele>
        <time>2019-01-07T16:03:00Z</time>
      </trkpt>
      <trkpt lat="42.45684" lon="2.0974">
        <ele>1807.5</ele>
        <time>2019-01-07T16:03:00Z</time>
      </trkpt>
      <trkpt lat="42.45682" lon="2.09739">
        <ele>1808.9</ele>
        <time>2019-01-07T16:03:01Z</time>
      </trkpt>
      <trkpt lat="42.45683" lon="2.09739">
        <ele>1808.3</ele>
        <time>2019-01-07T16:03:01Z</time>
      </trkpt>
      <trkpt lat="42.45695" lon="2.09749">
        <ele>1806.5</ele>
        <time>2019-01-07T16:03:05Z</time>
      </trkpt>
      <trkpt lat="42.45697" lon="2.09752">
        <ele>1805</ele>
        <time>2019-01-07T16:03:05Z</time>
      </trkpt>
      <trkpt lat="42.45693" lon="2.09764">
        <ele>1805.9</ele>
        <time>2019-01-07T16:03:08Z</time>
      </trkpt>
      <trkpt lat="42.45684" lon="2.09773">
        <ele>1807.5</ele>
        <time>2019-01-07T16:03:11Z</time>
      </trkpt>
      <trkpt lat="42.45678" lon="2.09779">
        <ele>1807.4</ele>
        <time>2019-01-07T16:03:13Z</time>
      </trkpt>
      <trkpt lat="42.45675" lon="2.09786">
        <ele>1809.4</ele>
        <time>2019-01-07T16:03:15Z</time>
      </trkpt>
      <trkpt lat="42.45667" lon="2.09801">
        <ele>1810.4</ele>
        <time>2019-01-07T16:03:18Z</time>
      </trkpt>
      <trkpt lat="42.45661" lon="2.09808">
        <ele>1811.2</ele>
        <time>2019-01-07T16:03:21Z</time>
      </trkpt>
      <trkpt lat="42.45653" lon="2.09825">
        <ele>1813.2</ele>
        <time>2019-01-07T16:03:24Z</time>
      </trkpt>
      <trkpt lat="42.45653" lon="2.09841">
        <ele>1813.7</ele>
        <time>2019-01-07T16:03:28Z</time>
      </trkpt>
      <trkpt lat="42.45638" lon="2.09864">
        <ele>1816.5</ele>
        <time>2019-01-07T16:03:34Z</time>
      </trkpt>
      <trkpt lat="42.45634" lon="2.09868">
        <ele>1817</ele>
        <time>2019-01-07T16:03:35Z</time>
      </trkpt>
      <trkpt lat="42.45617" lon="2.09885">
        <ele>1820.4</ele>
        <time>2019-01-07T16:03:41Z</time>
      </trkpt>
      <trkpt lat="42.45606" lon="2.099">
        <ele>1822.3</ele>
        <time>2019-01-07T16:03:45Z</time>
      </trkpt>
      <trkpt lat="42.45587" lon="2.09909">
        <ele>1824.2</ele>
        <time>2019-01-07T16:03:50Z</time>
      </trkpt>
      <trkpt lat="42.45587" lon="2.09914">
        <ele>1825.7</ele>
        <time>2019-01-07T16:03:51Z</time>
      </trkpt>
      <trkpt lat="42.4558" lon="2.09931">
        <ele>1826.6</ele>
        <time>2019-01-07T16:03:55Z</time>
      </trkpt>
      <trkpt lat="42.45561" lon="2.09945">
        <ele>1828.6</ele>
        <time>2019-01-07T16:04:01Z</time>
      </trkpt>
      <trkpt lat="42.45553" lon="2.09962">
        <ele>1830.9</ele>
        <time>2019-01-07T16:04:05Z</time>
      </trkpt>
      <trkpt lat="42.45542" lon="2.0998">
        <ele>1833.8</ele>
        <time>2019-01-07T16:04:09Z</time>
      </trkpt>
      <trkpt lat="42.45534" lon="2.09993">
        <ele>1836.3</ele>
        <time>2019-01-07T16:04:13Z</time>
      </trkpt>
      <trkpt lat="42.45526" lon="2.10003">
        <ele>1839.2</ele>
        <time>2019-01-07T16:04:15Z</time>
      </trkpt>
      <trkpt lat="42.45524" lon="2.1001">
        <ele>1839.1</ele>
        <time>2019-01-07T16:04:17Z</time>
      </trkpt>
      <trkpt lat="42.45517" lon="2.10029">
        <ele>1840.6</ele>
        <time>2019-01-07T16:04:21Z</time>
      </trkpt>
      <trkpt lat="42.45517" lon="2.10031">
        <ele>1840.6</ele>
        <time>2019-01-07T16:04:21Z</time>
      </trkpt>
      <trkpt lat="42.45517" lon="2.10032">
        <ele>1839.1</ele>
        <time>2019-01-07T16:04:22Z</time>
      </trkpt>
      <trkpt lat="42.45516" lon="2.10038">
        <ele>1842</ele>
        <time>2019-01-07T16:04:23Z</time>
      </trkpt>
      <trkpt lat="42.45513" lon="2.10051">
        <ele>1840.1</ele>
        <time>2019-01-07T16:04:26Z</time>
      </trkpt>
      <trkpt lat="42.45501" lon="2.10077">
        <ele>1841.5</ele>
        <time>2019-01-07T16:04:32Z</time>
      </trkpt>
      <trkpt lat="42.455" lon="2.10078">
        <ele>1841.6</ele>
        <time>2019-01-07T16:04:32Z</time>
      </trkpt>
      <trkpt lat="42.45489" lon="2.10092">
        <ele>1845.3</ele>
        <time>2019-01-07T16:04:36Z</time>
      </trkpt>
      <trkpt lat="42.45477" lon="2.10099">
        <ele>1847.8</ele>
        <time>2019-01-07T16:04:40Z</time>
      </trkpt>
      <trkpt lat="42.45467" lon="2.10111">
        <ele>1849.7</ele>
        <time>2019-01-07T16:04:43Z</time>
      </trkpt>
      <trkpt lat="42.45454" lon="2.10124">
        <ele>1849.8</ele>
        <time>2019-01-07T16:04:47Z</time>
      </trkpt>
      <trkpt lat="42.45444" lon="2.10135">
        <ele>1849.8</ele>
        <time>2019-01-07T16:04:51Z</time>
      </trkpt>
      <trkpt lat="42.45432" lon="2.10153">
        <ele>1851.2</ele>
        <time>2019-01-07T16:04:56Z</time>
      </trkpt>
      <trkpt lat="42.45415" lon="2.10164">
        <ele>1854.1</ele>
        <time>2019-01-07T16:05:01Z</time>
      </trkpt>
      <trkpt lat="42.45411" lon="2.10173">
        <ele>1855.4</ele>
        <time>2019-01-07T16:05:03Z</time>
      </trkpt>
      <trkpt lat="42.45398" lon="2.10191">
        <ele>1856.4</ele>
        <time>2019-01-07T16:05:08Z</time>
      </trkpt>
      <trkpt lat="42.45385" lon="2.10215">
        <ele>1858.4</ele>
        <time>2019-01-07T16:05:13Z</time>
      </trkpt>
      <trkpt lat="42.45378" lon="2.1022">
        <ele>1860.3</ele>
        <time>2019-01-07T16:05:15Z</time>
      </trkpt>
      <trkpt lat="42.45367" lon="2.1024">
        <ele>1862.2</ele>
        <time>2019-01-07T16:05:20Z</time>
      </trkpt>
      <trkpt lat="42.45356" lon="2.1025">
        <ele>1864.6</ele>
        <time>2019-01-07T16:05:24Z</time>
      </trkpt>
      <trkpt lat="42.45349" lon="2.10262">
        <ele>1866.5</ele>
        <time>2019-01-07T16:05:27Z</time>
      </trkpt>
      <trkpt lat="42.45339" lon="2.10271">
        <ele>1868.4</ele>
        <time>2019-01-07T16:05:30Z</time>
      </trkpt>
      <trkpt lat="42.45336" lon="2.10286">
        <ele>1870</ele>
        <time>2019-01-07T16:05:33Z</time>
      </trkpt>
      <trkpt lat="42.45334" lon="2.10288">
        <ele>1870.4</ele>
        <time>2019-01-07T16:05:34Z</time>
      </trkpt>
      <trkpt lat="42.4532" lon="2.10296">
        <ele>1871.8</ele>
        <time>2019-01-07T16:05:38Z</time>
      </trkpt>
      <trkpt lat="42.45311" lon="2.1031">
        <ele>1873.2</ele>
        <time>2019-01-07T16:05:41Z</time>
      </trkpt>
      <trkpt lat="42.45311" lon="2.10312">
        <ele>1873.2</ele>
        <time>2019-01-07T16:05:42Z</time>
      </trkpt>
      <trkpt lat="42.45297" lon="2.1033">
        <ele>1875.6</ele>
        <time>2019-01-07T16:05:47Z</time>
      </trkpt>
      <trkpt lat="42.45294" lon="2.10336">
        <ele>1875.6</ele>
        <time>2019-01-07T16:05:48Z</time>
      </trkpt>
      <trkpt lat="42.45288" lon="2.10342">
        <ele>1879.1</ele>
        <time>2019-01-07T16:05:50Z</time>
      </trkpt>
      <trkpt lat="42.45285" lon="2.10343">
        <ele>1879.5</ele>
        <time>2019-01-07T16:05:52Z</time>
      </trkpt>
      <trkpt lat="42.45274" lon="2.10355">
        <ele>1880</ele>
        <time>2019-01-07T16:05:55Z</time>
      </trkpt>
      <trkpt lat="42.45267" lon="2.10361">
        <ele>1881.5</ele>
        <time>2019-01-07T16:05:57Z</time>
      </trkpt>
      <trkpt lat="42.45267" lon="2.10363">
        <ele>1882.9</ele>
        <time>2019-01-07T16:05:58Z</time>
      </trkpt>
      <trkpt lat="42.45265" lon="2.10366">
        <ele>1881.9</ele>
        <time>2019-01-07T16:05:58Z</time>
      </trkpt>
      <trkpt lat="42.4526" lon="2.10375">
        <ele>1882.4</ele>
        <time>2019-01-07T16:06:01Z</time>
      </trkpt>
      <trkpt lat="42.45254" lon="2.10389">
        <ele>1884.8</ele>
        <time>2019-01-07T16:06:04Z</time>
      </trkpt>
      <trkpt lat="42.45247" lon="2.10403">
        <ele>1885.2</ele>
        <time>2019-01-07T16:06:07Z</time>
      </trkpt>
      <trkpt lat="42.45241" lon="2.10418">
        <ele>1886.2</ele>
        <time>2019-01-07T16:06:10Z</time>
      </trkpt>
      <trkpt lat="42.45239" lon="2.10431">
        <ele>1887.2</ele>
        <time>2019-01-07T16:06:13Z</time>
      </trkpt>
      <trkpt lat="42.45234" lon="2.10436">
        <ele>1889.1</ele>
        <time>2019-01-07T16:06:15Z</time>
      </trkpt>
      <trkpt lat="42.4523" lon="2.10446">
        <ele>1890.6</ele>
        <time>2019-01-07T16:06:17Z</time>
      </trkpt>
      <trkpt lat="42.45224" lon="2.10463">
        <ele>1892.5</ele>
        <time>2019-01-07T16:06:21Z</time>
      </trkpt>
      <trkpt lat="42.45218" lon="2.10479">
        <ele>1895.3</ele>
        <time>2019-01-07T16:06:24Z</time>
      </trkpt>
      <trkpt lat="42.45208" lon="2.10491">
        <ele>1896.4</ele>
        <time>2019-01-07T16:06:28Z</time>
      </trkpt>
      <trkpt lat="42.45201" lon="2.10507">
        <ele>1898.2</ele>
        <time>2019-01-07T16:06:31Z</time>
      </trkpt>
      <trkpt lat="42.45195" lon="2.10513">
        <ele>1898.8</ele>
        <time>2019-01-07T16:06:33Z</time>
      </trkpt>
      <trkpt lat="42.45186" lon="2.10518">
        <ele>1901.1</ele>
        <time>2019-01-07T16:06:36Z</time>
      </trkpt>
      <trkpt lat="42.45172" lon="2.10526">
        <ele>1903.6</ele>
        <time>2019-01-07T16:06:40Z</time>
      </trkpt>
      <trkpt lat="42.45163" lon="2.10537">
        <ele>1906</ele>
        <time>2019-01-07T16:06:43Z</time>
      </trkpt>
      <trkpt lat="42.45154" lon="2.10549">
        <ele>1907.8</ele>
        <time>2019-01-07T16:06:47Z</time>
      </trkpt>
      <trkpt lat="42.45147" lon="2.10556">
        <ele>1909.8</ele>
        <time>2019-01-07T16:06:49Z</time>
      </trkpt>
      <trkpt lat="42.45143" lon="2.10557">
        <ele>1910.3</ele>
        <time>2019-01-07T16:06:50Z</time>
      </trkpt>
      <trkpt lat="42.45142" lon="2.10561">
        <ele>1911.8</ele>
        <time>2019-01-07T16:06:51Z</time>
      </trkpt>
      <trkpt lat="42.4514" lon="2.10566">
        <ele>1911.7</ele>
        <time>2019-01-07T16:06:52Z</time>
      </trkpt>
      <trkpt lat="42.45137" lon="2.10568">
        <ele>1909.9</ele>
        <time>2019-01-07T16:06:53Z</time>
      </trkpt>
      <trkpt lat="42.45133" lon="2.1057">
        <ele>1911.2</ele>
        <time>2019-01-07T16:06:54Z</time>
      </trkpt>
      <trkpt lat="42.45125" lon="2.10578">
        <ele>1912.3</ele>
        <time>2019-01-07T16:06:57Z</time>
      </trkpt>
      <trkpt lat="42.4511" lon="2.10601">
        <ele>1913.7</ele>
        <time>2019-01-07T16:07:03Z</time>
      </trkpt>
      <trkpt lat="42.45107" lon="2.10607">
        <ele>1914.2</ele>
        <time>2019-01-07T16:07:04Z</time>
      </trkpt>
      <trkpt lat="42.45107" lon="2.10609">
        <ele>1915.1</ele>
        <time>2019-01-07T16:07:05Z</time>
      </trkpt>
      <trkpt lat="42.45101" lon="2.10625">
        <ele>1918.4</ele>
        <time>2019-01-07T16:07:08Z</time>
      </trkpt>
      <trkpt lat="42.45093" lon="2.10641">
        <ele>1919.8</ele>
        <time>2019-01-07T16:07:12Z</time>
      </trkpt>
      <trkpt lat="42.45085" lon="2.10649">
        <ele>1920.3</ele>
        <time>2019-01-07T16:07:14Z</time>
      </trkpt>
      <trkpt lat="42.45073" lon="2.10666">
        <ele>1920.8</ele>
        <time>2019-01-07T16:07:19Z</time>
      </trkpt>
      <trkpt lat="42.45061" lon="2.10683">
        <ele>1922.3</ele>
        <time>2019-01-07T16:07:24Z</time>
      </trkpt>
      <trkpt lat="42.4505" lon="2.1069">
        <ele>1924.8</ele>
        <time>2019-01-07T16:07:27Z</time>
      </trkpt>
      <trkpt lat="42.45041" lon="2.10694">
        <ele>1925.7</ele>
        <time>2019-01-07T16:07:30Z</time>
      </trkpt>
      <trkpt lat="42.45023" lon="2.10704">
        <ele>1927.6</ele>
        <time>2019-01-07T16:07:35Z</time>
      </trkpt>
      <trkpt lat="42.45022" lon="2.10706">
        <ele>1928.1</ele>
        <time>2019-01-07T16:07:35Z</time>
      </trkpt>
      <trkpt lat="42.45021" lon="2.10714">
        <ele>1929</ele>
        <time>2019-01-07T16:07:37Z</time>
      </trkpt>
      <trkpt lat="42.45012" lon="2.10724">
        <ele>1930.5</ele>
        <time>2019-01-07T16:07:40Z</time>
      </trkpt>
      <trkpt lat="42.45006" lon="2.10739">
        <ele>1931.9</ele>
        <time>2019-01-07T16:07:43Z</time>
      </trkpt>
      <trkpt lat="42.44998" lon="2.10748">
        <ele>1933.8</ele>
        <time>2019-01-07T16:07:46Z</time>
      </trkpt>
      <trkpt lat="42.44979" lon="2.10756">
        <ele>1934.7</ele>
        <time>2019-01-07T16:07:51Z</time>
      </trkpt>
      <trkpt lat="42.44967" lon="2.10776">
        <ele>1936.7</ele>
        <time>2019-01-07T16:07:56Z</time>
      </trkpt>
      <trkpt lat="42.44949" lon="2.108">
        <ele>1938.6</ele>
        <time>2019-01-07T16:08:03Z</time>
      </trkpt>
      <trkpt lat="42.44938" lon="2.10819">
        <ele>1941.1</ele>
        <time>2019-01-07T16:08:08Z</time>
      </trkpt>
      <trkpt lat="42.44929" lon="2.10823">
        <ele>1941.1</ele>
        <time>2019-01-07T16:08:11Z</time>
      </trkpt>
      <trkpt lat="42.44912" lon="2.10837">
        <ele>1942.4</ele>
        <time>2019-01-07T16:08:16Z</time>
      </trkpt>
      <trkpt lat="42.44906" lon="2.10846">
        <ele>1943.9</ele>
        <time>2019-01-07T16:08:18Z</time>
      </trkpt>
      <trkpt lat="42.44896" lon="2.10856">
        <ele>1944.4</ele>
        <time>2019-01-07T16:08:21Z</time>
      </trkpt>
      <trkpt lat="42.44878" lon="2.10869">
        <ele>1945.9</ele>
        <time>2019-01-07T16:08:27Z</time>
      </trkpt>
      <trkpt lat="42.44873" lon="2.1087">
        <ele>1946.4</ele>
        <time>2019-01-07T16:08:28Z</time>
      </trkpt>
      <trkpt lat="42.44865" lon="2.10892">
        <ele>1948.3</ele>
        <time>2019-01-07T16:08:33Z</time>
      </trkpt>
      <trkpt lat="42.44862" lon="2.10901">
        <ele>1949.6</ele>
        <time>2019-01-07T16:08:35Z</time>
      </trkpt>
      <trkpt lat="42.44854" lon="2.1091">
        <ele>1950.6</ele>
        <time>2019-01-07T16:08:38Z</time>
      </trkpt>
      <trkpt lat="42.44842" lon="2.10916">
        <ele>1954</ele>
        <time>2019-01-07T16:08:41Z</time>
      </trkpt>
      <trkpt lat="42.44826" lon="2.10929">
        <ele>1956.5</ele>
        <time>2019-01-07T16:08:46Z</time>
      </trkpt>
      <trkpt lat="42.44814" lon="2.10941">
        <ele>1958.9</ele>
        <time>2019-01-07T16:08:50Z</time>
      </trkpt>
      <trkpt lat="42.44799" lon="2.10959">
        <ele>1960.2</ele>
        <time>2019-01-07T16:08:55Z</time>
      </trkpt>
      <trkpt lat="42.4479" lon="2.10977">
        <ele>1961.2</ele>
        <time>2019-01-07T16:09:00Z</time>
      </trkpt>
      <trkpt lat="42.44782" lon="2.10986">
        <ele>1964.1</ele>
        <time>2019-01-07T16:09:03Z</time>
      </trkpt>
      <trkpt lat="42.44763" lon="2.10989">
        <ele>1966.1</ele>
        <time>2019-01-07T16:09:08Z</time>
      </trkpt>
      <trkpt lat="42.44744" lon="2.11">
        <ele>1967.5</ele>
        <time>2019-01-07T16:09:13Z</time>
      </trkpt>
      <trkpt lat="42.44736" lon="2.11005">
        <ele>1970.4</ele>
        <time>2019-01-07T16:09:15Z</time>
      </trkpt>
      <trkpt lat="42.44736" lon="2.11006">
        <ele>1970.4</ele>
        <time>2019-01-07T16:09:16Z</time>
      </trkpt>
      <trkpt lat="42.44732" lon="2.11008">
        <ele>1968.5</ele>
        <time>2019-01-07T16:09:17Z</time>
      </trkpt>
      <trkpt lat="42.44729" lon="2.11012">
        <ele>1970.3</ele>
        <time>2019-01-07T16:09:18Z</time>
      </trkpt>
      <trkpt lat="42.44723" lon="2.11016">
        <ele>1971.3</ele>
        <time>2019-01-07T16:09:20Z</time>
      </trkpt>
      <trkpt lat="42.44719" lon="2.11021">
        <ele>1971.4</ele>
        <time>2019-01-07T16:09:21Z</time>
      </trkpt>
      <trkpt lat="42.44709" lon="2.11039">
        <ele>1972.8</ele>
        <time>2019-01-07T16:09:26Z</time>
      </trkpt>
      <trkpt lat="42.44705" lon="2.11048">
        <ele>1973.7</ele>
        <time>2019-01-07T16:09:28Z</time>
      </trkpt>
      <trkpt lat="42.447" lon="2.11052">
        <ele>1974.7</ele>
        <time>2019-01-07T16:09:29Z</time>
      </trkpt>
      <trkpt lat="42.44697" lon="2.11057">
        <ele>1975.2</ele>
        <time>2019-01-07T16:09:30Z</time>
      </trkpt>
      <trkpt lat="42.44688" lon="2.11073">
        <ele>1977</ele>
        <time>2019-01-07T16:09:34Z</time>
      </trkpt>
      <trkpt lat="42.44681" lon="2.11087">
        <ele>1977.6</ele>
        <time>2019-01-07T16:09:38Z</time>
      </trkpt>
      <trkpt lat="42.44679" lon="2.11094">
        <ele>1977.6</ele>
        <time>2019-01-07T16:09:39Z</time>
      </trkpt>
      <trkpt lat="42.44676" lon="2.11102">
        <ele>1978.1</ele>
        <time>2019-01-07T16:09:41Z</time>
      </trkpt>
      <trkpt lat="42.44668" lon="2.11114">
        <ele>1980</ele>
        <time>2019-01-07T16:09:44Z</time>
      </trkpt>
      <trkpt lat="42.44666" lon="2.11135">
        <ele>1981.4</ele>
        <time>2019-01-07T16:09:48Z</time>
      </trkpt>
      <trkpt lat="42.44663" lon="2.11163">
        <ele>1984.7</ele>
        <time>2019-01-07T16:09:54Z</time>
      </trkpt>
      <trkpt lat="42.44662" lon="2.11167">
        <ele>1984.7</ele>
        <time>2019-01-07T16:09:55Z</time>
      </trkpt>
      <trkpt lat="42.44652" lon="2.11185">
        <ele>1988.1</ele>
        <time>2019-01-07T16:09:59Z</time>
      </trkpt>
      <trkpt lat="42.44645" lon="2.11199">
        <ele>1991.5</ele>
        <time>2019-01-07T16:10:03Z</time>
      </trkpt>
      <trkpt lat="42.4464" lon="2.11214">
        <ele>1994.9</ele>
        <time>2019-01-07T16:10:06Z</time>
      </trkpt>
      <trkpt lat="42.44625" lon="2.11231">
        <ele>1995.8</ele>
        <time>2019-01-07T16:10:11Z</time>
      </trkpt>
      <trkpt lat="42.44608" lon="2.11252">
        <ele>1998.2</ele>
        <time>2019-01-07T16:10:17Z</time>
      </trkpt>
      <trkpt lat="42.44596" lon="2.11262">
        <ele>1999.7</ele>
        <time>2019-01-07T16:10:21Z</time>
      </trkpt>
      <trkpt lat="42.44595" lon="2.11262">
        <ele>1999.7</ele>
        <time>2019-01-07T16:10:21Z</time>
      </trkpt>
      <trkpt lat="42.44583" lon="2.11272">
        <ele>2003.1</ele>
        <time>2019-01-07T16:10:25Z</time>
      </trkpt>
      <trkpt lat="42.4457" lon="2.11285">
        <ele>2004.4</ele>
        <time>2019-01-07T16:10:29Z</time>
      </trkpt>
      <trkpt lat="42.44561" lon="2.11305">
        <ele>2004.4</ele>
        <time>2019-01-07T16:10:34Z</time>
      </trkpt>
      <trkpt lat="42.44561" lon="2.11309">
        <ele>2004.4</ele>
        <time>2019-01-07T16:10:34Z</time>
      </trkpt>
      <trkpt lat="42.4456" lon="2.11313">
        <ele>2004.4</ele>
        <time>2019-01-07T16:10:35Z</time>
      </trkpt>
      <trkpt lat="42.44555" lon="2.11323">
        <ele>2005</ele>
        <time>2019-01-07T16:10:38Z</time>
      </trkpt>
      <trkpt lat="42.44544" lon="2.11343">
        <ele>2008.3</ele>
        <time>2019-01-07T16:10:42Z</time>
      </trkpt>
      <trkpt lat="42.4454" lon="2.11355">
        <ele>2008.9</ele>
        <time>2019-01-07T16:10:45Z</time>
      </trkpt>
      <trkpt lat="42.44534" lon="2.11365">
        <ele>2009.8</ele>
        <time>2019-01-07T16:10:48Z</time>
      </trkpt>
      <trkpt lat="42.44524" lon="2.11379">
        <ele>2010.8</ele>
        <time>2019-01-07T16:10:51Z</time>
      </trkpt>
      <trkpt lat="42.44523" lon="2.11381">
        <ele>2012.7</ele>
        <time>2019-01-07T16:10:52Z</time>
      </trkpt>
      <trkpt lat="42.44513" lon="2.1139">
        <ele>2013.6</ele>
        <time>2019-01-07T16:10:55Z</time>
      </trkpt>
      <trkpt lat="42.44499" lon="2.11407">
        <ele>2015.5</ele>
        <time>2019-01-07T16:11:00Z</time>
      </trkpt>
      <trkpt lat="42.44498" lon="2.11413">
        <ele>2015.6</ele>
        <time>2019-01-07T16:11:01Z</time>
      </trkpt>
      <trkpt lat="42.44497" lon="2.1143">
        <ele>2015.5</ele>
        <time>2019-01-07T16:11:05Z</time>
      </trkpt>
      <trkpt lat="42.44487" lon="2.11446">
        <ele>2017.4</ele>
        <time>2019-01-07T16:11:09Z</time>
      </trkpt>
      <trkpt lat="42.44483" lon="2.11457">
        <ele>2019</ele>
        <time>2019-01-07T16:11:11Z</time>
      </trkpt>
      <trkpt lat="42.44475" lon="2.11478">
        <ele>2019.4</ele>
        <time>2019-01-07T16:11:16Z</time>
      </trkpt>
      <trkpt lat="42.44468" lon="2.11501">
        <ele>2021.8</ele>
        <time>2019-01-07T16:11:21Z</time>
      </trkpt>
      <trkpt lat="42.44465" lon="2.1151">
        <ele>2023.2</ele>
        <time>2019-01-07T16:11:23Z</time>
      </trkpt>
      <trkpt lat="42.44454" lon="2.11538">
        <ele>2025.2</ele>
        <time>2019-01-07T16:11:29Z</time>
      </trkpt>
      <trkpt lat="42.44442" lon="2.11556">
        <ele>2027.1</ele>
        <time>2019-01-07T16:11:34Z</time>
      </trkpt>
      <trkpt lat="42.44425" lon="2.11571">
        <ele>2029.1</ele>
        <time>2019-01-07T16:11:39Z</time>
      </trkpt>
      <trkpt lat="42.44416" lon="2.11586">
        <ele>2030</ele>
        <time>2019-01-07T16:11:43Z</time>
      </trkpt>
      <trkpt lat="42.44408" lon="2.11601">
        <ele>2033.3</ele>
        <time>2019-01-07T16:11:47Z</time>
      </trkpt>
      <trkpt lat="42.444" lon="2.11605">
        <ele>2035.2</ele>
        <time>2019-01-07T16:11:49Z</time>
      </trkpt>
      <trkpt lat="42.44398" lon="2.11612">
        <ele>2035.2</ele>
        <time>2019-01-07T16:11:50Z</time>
      </trkpt>
      <trkpt lat="42.44399" lon="2.11615">
        <ele>2035.2</ele>
        <time>2019-01-07T16:11:51Z</time>
      </trkpt>
      <trkpt lat="42.44394" lon="2.11613">
        <ele>2035.2</ele>
        <time>2019-01-07T16:11:52Z</time>
      </trkpt>
      <trkpt lat="42.44383" lon="2.11635">
        <ele>2035.2</ele>
        <time>2019-01-07T16:11:57Z</time>
      </trkpt>
      <trkpt lat="42.44372" lon="2.11659">
        <ele>2037.1</ele>
        <time>2019-01-07T16:12:03Z</time>
      </trkpt>
      <trkpt lat="42.44369" lon="2.11667">
        <ele>2037.2</ele>
        <time>2019-01-07T16:12:05Z</time>
      </trkpt>
      <trkpt lat="42.44367" lon="2.11676">
        <ele>2038.7</ele>
        <time>2019-01-07T16:12:07Z</time>
      </trkpt>
      <trkpt lat="42.44366" lon="2.11678">
        <ele>2039.1</ele>
        <time>2019-01-07T16:12:07Z</time>
      </trkpt>
      <trkpt lat="42.44355" lon="2.11695">
        <ele>2040.5</ele>
        <time>2019-01-07T16:12:12Z</time>
      </trkpt>
      <trkpt lat="42.44349" lon="2.11709">
        <ele>2042</ele>
        <time>2019-01-07T16:12:15Z</time>
      </trkpt>
      <trkpt lat="42.4434" lon="2.11715">
        <ele>2043.4</ele>
        <time>2019-01-07T16:12:17Z</time>
      </trkpt>
      <trkpt lat="42.44331" lon="2.11731">
        <ele>2044.9</ele>
        <time>2019-01-07T16:12:22Z</time>
      </trkpt>
      <trkpt lat="42.44318" lon="2.11744">
        <ele>2047.2</ele>
        <time>2019-01-07T16:12:26Z</time>
      </trkpt>
      <trkpt lat="42.44316" lon="2.11751">
        <ele>2047.7</ele>
        <time>2019-01-07T16:12:27Z</time>
      </trkpt>
      <trkpt lat="42.44315" lon="2.11752">
        <ele>2047.8</ele>
        <time>2019-01-07T16:12:27Z</time>
      </trkpt>
      <trkpt lat="42.4431" lon="2.11758">
        <ele>2049.2</ele>
        <time>2019-01-07T16:12:29Z</time>
      </trkpt>
      <trkpt lat="42.44301" lon="2.11772">
        <ele>2051.1</ele>
        <time>2019-01-07T16:12:33Z</time>
      </trkpt>
      <trkpt lat="42.44297" lon="2.11774">
        <ele>2051.5</ele>
        <time>2019-01-07T16:12:34Z</time>
      </trkpt>
      <trkpt lat="42.44289" lon="2.11787">
        <ele>2054.5</ele>
        <time>2019-01-07T16:12:37Z</time>
      </trkpt>
      <trkpt lat="42.44285" lon="2.11794">
        <ele>2055.9</ele>
        <time>2019-01-07T16:12:39Z</time>
      </trkpt>
      <trkpt lat="42.44276" lon="2.11809">
        <ele>2058.8</ele>
        <time>2019-01-07T16:12:43Z</time>
      </trkpt>
      <trkpt lat="42.4427" lon="2.11812">
        <ele>2060.7</ele>
        <time>2019-01-07T16:12:45Z</time>
      </trkpt>
      <trkpt lat="42.4426" lon="2.11819">
        <ele>2063.2</ele>
        <time>2019-01-07T16:12:48Z</time>
      </trkpt>
      <trkpt lat="42.4425" lon="2.11817">
        <ele>2066</ele>
        <time>2019-01-07T16:12:50Z</time>
      </trkpt>
      <trkpt lat="42.44238" lon="2.11818">
        <ele>2069.8</ele>
        <time>2019-01-07T16:12:54Z</time>
      </trkpt>
      <trkpt lat="42.44234" lon="2.1182">
        <ele>2071.3</ele>
        <time>2019-01-07T16:12:55Z</time>
      </trkpt>
      <trkpt lat="42.44228" lon="2.11817">
        <ele>2074.2</ele>
        <time>2019-01-07T16:12:56Z</time>
      </trkpt>
      <trkpt lat="42.44219" lon="2.11823">
        <ele>2077.1</ele>
        <time>2019-01-07T16:12:59Z</time>
      </trkpt>
      <trkpt lat="42.44216" lon="2.11827">
        <ele>2078.5</ele>
        <time>2019-01-07T16:13:00Z</time>
      </trkpt>
      <trkpt lat="42.44211" lon="2.11832">
        <ele>2079.4</ele>
        <time>2019-01-07T16:13:02Z</time>
      </trkpt>
      <trkpt lat="42.44206" lon="2.11834">
        <ele>2082.3</ele>
        <time>2019-01-07T16:13:03Z</time>
      </trkpt>
      <trkpt lat="42.44199" lon="2.11835">
        <ele>2085.8</ele>
        <time>2019-01-07T16:13:05Z</time>
      </trkpt>
      <trkpt lat="42.44193" lon="2.11838">
        <ele>2088.6</ele>
        <time>2019-01-07T16:13:07Z</time>
      </trkpt>
      <trkpt lat="42.44189" lon="2.11841">
        <ele>2090.1</ele>
        <time>2019-01-07T16:13:08Z</time>
      </trkpt>
      <trkpt lat="42.44188" lon="2.11843">
        <ele>2090.5</ele>
        <time>2019-01-07T16:13:09Z</time>
      </trkpt>
      <trkpt lat="42.44185" lon="2.11846">
        <ele>2092.9</ele>
        <time>2019-01-07T16:13:10Z</time>
      </trkpt>
      <trkpt lat="42.44181" lon="2.1185">
        <ele>2095.8</ele>
        <time>2019-01-07T16:13:11Z</time>
      </trkpt>
      <trkpt lat="42.44179" lon="2.11859">
        <ele>2099.1</ele>
        <time>2019-01-07T16:13:13Z</time>
      </trkpt>
      <trkpt lat="42.44175" lon="2.11863">
        <ele>2101.2</ele>
        <time>2019-01-07T16:13:14Z</time>
      </trkpt>
      <trkpt lat="42.44175" lon="2.1187">
        <ele>2102.1</ele>
        <time>2019-01-07T16:13:15Z</time>
      </trkpt>
      <trkpt lat="42.44171" lon="2.11872">
        <ele>2103.5</ele>
        <time>2019-01-07T16:13:17Z</time>
      </trkpt>
      <trkpt lat="42.44166" lon="2.11889">
        <ele>2105</ele>
        <time>2019-01-07T16:13:20Z</time>
      </trkpt>
      <trkpt lat="42.44151" lon="2.11909">
        <ele>2106.9</ele>
        <time>2019-01-07T16:13:26Z</time>
      </trkpt>
      <trkpt lat="42.44136" lon="2.11921">
        <ele>2108.7</ele>
        <time>2019-01-07T16:13:30Z</time>
      </trkpt>
      <trkpt lat="42.44129" lon="2.11936">
        <ele>2108.8</ele>
        <time>2019-01-07T16:13:34Z</time>
      </trkpt>
      <trkpt lat="42.44126" lon="2.11942">
        <ele>2109.3</ele>
        <time>2019-01-07T16:13:35Z</time>
      </trkpt>
      <trkpt lat="42.44113" lon="2.11962">
        <ele>2110.8</ele>
        <time>2019-01-07T16:13:41Z</time>
      </trkpt>
      <trkpt lat="42.44098" lon="2.11979">
        <ele>2112.2</ele>
        <time>2019-01-07T16:13:46Z</time>
      </trkpt>
      <trkpt lat="42.44095" lon="2.11986">
        <ele>2112.1</ele>
        <time>2019-01-07T16:13:47Z</time>
      </trkpt>
      <trkpt lat="42.44082" lon="2.11998">
        <ele>2114.5</ele>
        <time>2019-01-07T16:13:51Z</time>
      </trkpt>
      <trkpt lat="42.44079" lon="2.12003">
        <ele>2115.5</ele>
        <time>2019-01-07T16:13:53Z</time>
      </trkpt>
      <trkpt lat="42.44069" lon="2.12008">
        <ele>2117.5</ele>
        <time>2019-01-07T16:13:56Z</time>
      </trkpt>
      <trkpt lat="42.44053" lon="2.12019">
        <ele>2120.4</ele>
        <time>2019-01-07T16:14:00Z</time>
      </trkpt>
      <trkpt lat="42.4405" lon="2.12022">
        <ele>2120.4</ele>
        <time>2019-01-07T16:14:02Z</time>
      </trkpt>
      <trkpt lat="42.44048" lon="2.12024">
        <ele>2120.9</ele>
        <time>2019-01-07T16:14:02Z</time>
      </trkpt>
      <trkpt lat="42.44039" lon="2.12038">
        <ele>2123.6</ele>
        <time>2019-01-07T16:14:06Z</time>
      </trkpt>
      <trkpt lat="42.4403" lon="2.12046">
        <ele>2126.1</ele>
        <time>2019-01-07T16:14:09Z</time>
      </trkpt>
      <trkpt lat="42.44028" lon="2.12053">
        <ele>2127.6</ele>
        <time>2019-01-07T16:14:10Z</time>
      </trkpt>
      <trkpt lat="42.44021" lon="2.12068">
        <ele>2128</ele>
        <time>2019-01-07T16:14:14Z</time>
      </trkpt>
      <trkpt lat="42.4401" lon="2.12073">
        <ele>2127.6</ele>
        <time>2019-01-07T16:14:17Z</time>
      </trkpt>
      <trkpt lat="42.43995" lon="2.12088">
        <ele>2127.5</ele>
        <time>2019-01-07T16:14:22Z</time>
      </trkpt>
      <trkpt lat="42.43982" lon="2.12104">
        <ele>2127</ele>
        <time>2019-01-07T16:14:26Z</time>
      </trkpt>
      <trkpt lat="42.4397" lon="2.12123">
        <ele>2126.5</ele>
        <time>2019-01-07T16:14:31Z</time>
      </trkpt>
      <trkpt lat="42.43968" lon="2.12124">
        <ele>2126.5</ele>
        <time>2019-01-07T16:14:32Z</time>
      </trkpt>
      <trkpt lat="42.43962" lon="2.12125">
        <ele>2125.7</ele>
        <time>2019-01-07T16:14:34Z</time>
      </trkpt>
      <trkpt lat="42.43956" lon="2.12125">
        <ele>2125.7</ele>
        <time>2019-01-07T16:14:35Z</time>
      </trkpt>
      <trkpt lat="42.4394" lon="2.12141">
        <ele>2126</ele>
        <time>2019-01-07T16:14:41Z</time>
      </trkpt>
      <trkpt lat="42.4393" lon="2.12154">
        <ele>2126</ele>
        <time>2019-01-07T16:14:44Z</time>
      </trkpt>
      <trkpt lat="42.4393" lon="2.12155">
        <ele>2126.1</ele>
        <time>2019-01-07T16:14:44Z</time>
      </trkpt>
      <trkpt lat="42.43917" lon="2.12176">
        <ele>2126</ele>
        <time>2019-01-07T16:14:50Z</time>
      </trkpt>
      <trkpt lat="42.43912" lon="2.12184">
        <ele>2126</ele>
        <time>2019-01-07T16:14:52Z</time>
      </trkpt>
      <trkpt lat="42.43912" lon="2.12186">
        <ele>2126.5</ele>
        <time>2019-01-07T16:14:52Z</time>
      </trkpt>
      <trkpt lat="42.43911" lon="2.12189">
        <ele>2126.5</ele>
        <time>2019-01-07T16:14:53Z</time>
      </trkpt>
      <trkpt lat="42.43905" lon="2.12203">
        <ele>2127.5</ele>
        <time>2019-01-07T16:14:56Z</time>
      </trkpt>
      <trkpt lat="42.43891" lon="2.12223">
        <ele>2128</ele>
        <time>2019-01-07T16:15:02Z</time>
      </trkpt>
      <trkpt lat="42.43886" lon="2.12225">
        <ele>2128.6</ele>
        <time>2019-01-07T16:15:03Z</time>
      </trkpt>
      <trkpt lat="42.43881" lon="2.12229">
        <ele>2128.9</ele>
        <time>2019-01-07T16:15:04Z</time>
      </trkpt>
      <trkpt lat="42.43872" lon="2.12237">
        <ele>2130</ele>
        <time>2019-01-07T16:15:07Z</time>
      </trkpt>
      <trkpt lat="42.43854" lon="2.12244">
        <ele>2130.4</ele>
        <time>2019-01-07T16:15:12Z</time>
      </trkpt>
      <trkpt lat="42.43837" lon="2.12247">
        <ele>2130.9</ele>
        <time>2019-01-07T16:15:17Z</time>
      </trkpt>
      <trkpt lat="42.43826" lon="2.12252">
        <ele>2131.9</ele>
        <time>2019-01-07T16:15:20Z</time>
      </trkpt>
      <trkpt lat="42.43804" lon="2.12255">
        <ele>2132.9</ele>
        <time>2019-01-07T16:15:26Z</time>
      </trkpt>
      <trkpt lat="42.43801" lon="2.12258">
        <ele>2133.3</ele>
        <time>2019-01-07T16:15:27Z</time>
      </trkpt>
      <trkpt lat="42.43791" lon="2.12263">
        <ele>2134.2</ele>
        <time>2019-01-07T16:15:30Z</time>
      </trkpt>
      <trkpt lat="42.43774" lon="2.12281">
        <ele>2135.7</ele>
        <time>2019-01-07T16:15:36Z</time>
      </trkpt>
      <trkpt lat="42.43766" lon="2.12292">
        <ele>2136.1</ele>
        <time>2019-01-07T16:15:39Z</time>
      </trkpt>
      <trkpt lat="42.43764" lon="2.12295">
        <ele>2136.7</ele>
        <time>2019-01-07T16:15:39Z</time>
      </trkpt>
      <trkpt lat="42.43763" lon="2.12297">
        <ele>2136.6</ele>
        <time>2019-01-07T16:15:40Z</time>
      </trkpt>
      <trkpt lat="42.43755" lon="2.12314">
        <ele>2138.2</ele>
        <time>2019-01-07T16:15:44Z</time>
      </trkpt>
      <trkpt lat="42.43752" lon="2.12319">
        <ele>2138.5</ele>
        <time>2019-01-07T16:15:45Z</time>
      </trkpt>
      <trkpt lat="42.43745" lon="2.12326">
        <ele>2140</ele>
        <time>2019-01-07T16:15:47Z</time>
      </trkpt>
      <trkpt lat="42.43742" lon="2.12331">
        <ele>2140.6</ele>
        <time>2019-01-07T16:15:49Z</time>
      </trkpt>
      <trkpt lat="42.43737" lon="2.12338">
        <ele>2142.5</ele>
        <time>2019-01-07T16:15:51Z</time>
      </trkpt>
      <trkpt lat="42.43734" lon="2.12346">
        <ele>2142</ele>
        <time>2019-01-07T16:15:52Z</time>
      </trkpt>
      <trkpt lat="42.43725" lon="2.12359">
        <ele>2140.6</ele>
        <time>2019-01-07T16:15:56Z</time>
      </trkpt>
      <trkpt lat="42.4372" lon="2.12378">
        <ele>2141.9</ele>
        <time>2019-01-07T16:16:00Z</time>
      </trkpt>
      <trkpt lat="42.43715" lon="2.12401">
        <ele>2142.9</ele>
        <time>2019-01-07T16:16:05Z</time>
      </trkpt>
      <trkpt lat="42.43713" lon="2.12404">
        <ele>2141.9</ele>
        <time>2019-01-07T16:16:05Z</time>
      </trkpt>
      <trkpt lat="42.43702" lon="2.1241">
        <ele>2141.9</ele>
        <time>2019-01-07T16:16:09Z</time>
      </trkpt>
      <trkpt lat="42.43697" lon="2.12413">
        <ele>2142.5</ele>
        <time>2019-01-07T16:16:10Z</time>
      </trkpt>
      <trkpt lat="42.43689" lon="2.1242">
        <ele>2141.9</ele>
        <time>2019-01-07T16:16:13Z</time>
      </trkpt>
      <trkpt lat="42.43675" lon="2.12441">
        <ele>2143.8</ele>
        <time>2019-01-07T16:16:18Z</time>
      </trkpt>
      <trkpt lat="42.43675" lon="2.12442">
        <ele>2143.8</ele>
        <time>2019-01-07T16:16:18Z</time>
      </trkpt>
      <trkpt lat="42.43668" lon="2.12462">
        <ele>2144.9</ele>
        <time>2019-01-07T16:16:23Z</time>
      </trkpt>
      <trkpt lat="42.43664" lon="2.1248">
        <ele>2146.2</ele>
        <time>2019-01-07T16:16:26Z</time>
      </trkpt>
      <trkpt lat="42.43653" lon="2.12502">
        <ele>2148.7</ele>
        <time>2019-01-07T16:16:32Z</time>
      </trkpt>
      <trkpt lat="42.43642" lon="2.12515">
        <ele>2152</ele>
        <time>2019-01-07T16:16:36Z</time>
      </trkpt>
      <trkpt lat="42.43631" lon="2.1253">
        <ele>2154.9</ele>
        <time>2019-01-07T16:16:40Z</time>
      </trkpt>
      <trkpt lat="42.43626" lon="2.12533">
        <ele>2153.4</ele>
        <time>2019-01-07T16:16:41Z</time>
      </trkpt>
      <trkpt lat="42.4362" lon="2.12541">
        <ele>2154.4</ele>
        <time>2019-01-07T16:16:43Z</time>
      </trkpt>
      <trkpt lat="42.4361" lon="2.12545">
        <ele>2154.5</ele>
        <time>2019-01-07T16:16:46Z</time>
      </trkpt>
      <trkpt lat="42.436" lon="2.12554">
        <ele>2155.9</ele>
        <time>2019-01-07T16:16:50Z</time>
      </trkpt>
      <trkpt lat="42.4359" lon="2.1256">
        <ele>2157.8</ele>
        <time>2019-01-07T16:16:52Z</time>
      </trkpt>
      <trkpt lat="42.43589" lon="2.12562">
        <ele>2157.8</ele>
        <time>2019-01-07T16:16:53Z</time>
      </trkpt>
      <trkpt lat="42.43587" lon="2.12564">
        <ele>2157.8</ele>
        <time>2019-01-07T16:16:54Z</time>
      </trkpt>
      <trkpt lat="42.4358" lon="2.12575">
        <ele>2158.7</ele>
        <time>2019-01-07T16:16:56Z</time>
      </trkpt>
      <trkpt lat="42.43578" lon="2.12583">
        <ele>2159.2</ele>
        <time>2019-01-07T16:16:58Z</time>
      </trkpt>
      <trkpt lat="42.43574" lon="2.12592">
        <ele>2159.7</ele>
        <time>2019-01-07T16:17:00Z</time>
      </trkpt>
      <trkpt lat="42.43559" lon="2.12611">
        <ele>2160.7</ele>
        <time>2019-01-07T16:17:06Z</time>
      </trkpt>
      <trkpt lat="42.43557" lon="2.12614">
        <ele>2160.7</ele>
        <time>2019-01-07T16:17:06Z</time>
      </trkpt>
      <trkpt lat="42.43545" lon="2.12636">
        <ele>2162.1</ele>
        <time>2019-01-07T16:17:12Z</time>
      </trkpt>
      <trkpt lat="42.43543" lon="2.12639">
        <ele>2163.5</ele>
        <time>2019-01-07T16:17:13Z</time>
      </trkpt>
      <trkpt lat="42.43526" lon="2.12656">
        <ele>2163.6</ele>
        <time>2019-01-07T16:17:18Z</time>
      </trkpt>
      <trkpt lat="42.43521" lon="2.12658">
        <ele>2163.2</ele>
        <time>2019-01-07T16:17:20Z</time>
      </trkpt>
      <trkpt lat="42.4352" lon="2.12659">
        <ele>2163.2</ele>
        <time>2019-01-07T16:17:20Z</time>
      </trkpt>
      <trkpt lat="42.43513" lon="2.12672">
        <ele>2162.1</ele>
        <time>2019-01-07T16:17:23Z</time>
      </trkpt>
      <trkpt lat="42.43512" lon="2.12678">
        <ele>2162.6</ele>
        <time>2019-01-07T16:17:24Z</time>
      </trkpt>
      <trkpt lat="42.43512" lon="2.12679">
        <ele>2162.7</ele>
        <time>2019-01-07T16:17:24Z</time>
      </trkpt>
      <trkpt lat="42.43509" lon="2.12686">
        <ele>2163.6</ele>
        <time>2019-01-07T16:17:26Z</time>
      </trkpt>
      <trkpt lat="42.43506" lon="2.1269">
        <ele>2165</ele>
        <time>2019-01-07T16:17:27Z</time>
      </trkpt>
      <trkpt lat="42.43498" lon="2.12695">
        <ele>2165.1</ele>
        <time>2019-01-07T16:17:29Z</time>
      </trkpt>
      <trkpt lat="42.43497" lon="2.12709">
        <ele>2164.1</ele>
        <time>2019-01-07T16:17:32Z</time>
      </trkpt>
      <trkpt lat="42.43491" lon="2.12729">
        <ele>2166.4</ele>
        <time>2019-01-07T16:17:37Z</time>
      </trkpt>
      <trkpt lat="42.43486" lon="2.12751">
        <ele>2167.9</ele>
        <time>2019-01-07T16:17:41Z</time>
      </trkpt>
      <trkpt lat="42.43486" lon="2.12753">
        <ele>2167.9</ele>
        <time>2019-01-07T16:17:42Z</time>
      </trkpt>
      <trkpt lat="42.43483" lon="2.12761">
        <ele>2169.8</ele>
        <time>2019-01-07T16:17:43Z</time>
      </trkpt>
      <trkpt lat="42.43478" lon="2.12777">
        <ele>2170.4</ele>
        <time>2019-01-07T16:17:47Z</time>
      </trkpt>
      <trkpt lat="42.43472" lon="2.12801">
        <ele>2171.8</ele>
        <time>2019-01-07T16:17:52Z</time>
      </trkpt>
      <trkpt lat="42.4347" lon="2.12807">
        <ele>2172.2</ele>
        <time>2019-01-07T16:17:53Z</time>
      </trkpt>
      <trkpt lat="42.43474" lon="2.1282">
        <ele>2172.8</ele>
        <time>2019-01-07T16:17:56Z</time>
      </trkpt>
      <trkpt lat="42.43475" lon="2.12829">
        <ele>2173.3</ele>
        <time>2019-01-07T16:17:58Z</time>
      </trkpt>
      <trkpt lat="42.43465" lon="2.12828">
        <ele>2174.1</ele>
        <time>2019-01-07T16:18:00Z</time>
      </trkpt>
      <trkpt lat="42.43459" lon="2.12835">
        <ele>2176</ele>
        <time>2019-01-07T16:18:02Z</time>
      </trkpt>
      <trkpt lat="42.4346" lon="2.12869">
        <ele>2178.4</ele>
        <time>2019-01-07T16:18:09Z</time>
      </trkpt>
      <trkpt lat="42.43458" lon="2.12881">
        <ele>2179.4</ele>
        <time>2019-01-07T16:18:11Z</time>
      </trkpt>
      <trkpt lat="42.43456" lon="2.12882">
        <ele>2181.3</ele>
        <time>2019-01-07T16:18:12Z</time>
      </trkpt>
      <trkpt lat="42.43449" lon="2.12893">
        <ele>2184.7</ele>
        <time>2019-01-07T16:18:15Z</time>
      </trkpt>
      <trkpt lat="42.43442" lon="2.12915">
        <ele>2186.7</ele>
        <time>2019-01-07T16:18:20Z</time>
      </trkpt>
      <trkpt lat="42.43435" lon="2.12926">
        <ele>2189.1</ele>
        <time>2019-01-07T16:18:22Z</time>
      </trkpt>
      <trkpt lat="42.43431" lon="2.12939">
        <ele>2191.5</ele>
        <time>2019-01-07T16:18:25Z</time>
      </trkpt>
      <trkpt lat="42.43427" lon="2.12951">
        <ele>2194.3</ele>
        <time>2019-01-07T16:18:28Z</time>
      </trkpt>
      <trkpt lat="42.43425" lon="2.12957">
        <ele>2196.2</ele>
        <time>2019-01-07T16:18:29Z</time>
      </trkpt>
      <trkpt lat="42.43422" lon="2.12964">
        <ele>2199.7</ele>
        <time>2019-01-07T16:18:31Z</time>
      </trkpt>
      <trkpt lat="42.43425" lon="2.12975">
        <ele>2201.1</ele>
        <time>2019-01-07T16:18:33Z</time>
      </trkpt>
      <trkpt lat="42.43426" lon="2.12986">
        <ele>2204</ele>
        <time>2019-01-07T16:18:35Z</time>
      </trkpt>
      <trkpt lat="42.43424" lon="2.12989">
        <ele>2205.4</ele>
        <time>2019-01-07T16:18:36Z</time>
      </trkpt>
      <trkpt lat="42.43423" lon="2.1299">
        <ele>2205.8</ele>
        <time>2019-01-07T16:18:36Z</time>
      </trkpt>
      <trkpt lat="42.4342" lon="2.12992">
        <ele>2206.8</ele>
        <time>2019-01-07T16:18:37Z</time>
      </trkpt>
      <trkpt lat="42.43417" lon="2.12992">
        <ele>2207.8</ele>
        <time>2019-01-07T16:18:38Z</time>
      </trkpt>
      <trkpt lat="42.43414" lon="2.13002">
        <ele>2211.1</ele>
        <time>2019-01-07T16:18:40Z</time>
      </trkpt>
      <trkpt lat="42.43409" lon="2.13009">
        <ele>2214</ele>
        <time>2019-01-07T16:18:42Z</time>
      </trkpt>
      <trkpt lat="42.43403" lon="2.1302">
        <ele>2215.9</ele>
        <time>2019-01-07T16:18:45Z</time>
      </trkpt>
      <trkpt lat="42.43395" lon="2.13029">
        <ele>2217.5</ele>
        <time>2019-01-07T16:18:48Z</time>
      </trkpt>
      <trkpt lat="42.43395" lon="2.13033">
        <ele>2216.9</ele>
        <time>2019-01-07T16:18:48Z</time>
      </trkpt>
      <trkpt lat="42.43394" lon="2.13036">
        <ele>2217.4</ele>
        <time>2019-01-07T16:18:49Z</time>
      </trkpt>
      <trkpt lat="42.43391" lon="2.1304">
        <ele>2218.4</ele>
        <time>2019-01-07T16:18:50Z</time>
      </trkpt>
      <trkpt lat="42.43389" lon="2.13044">
        <ele>2218.4</ele>
        <time>2019-01-07T16:18:51Z</time>
      </trkpt>
      <trkpt lat="42.43388" lon="2.13049">
        <ele>2218.8</ele>
        <time>2019-01-07T16:18:52Z</time>
      </trkpt>
      <trkpt lat="42.43384" lon="2.1306">
        <ele>2219.8</ele>
        <time>2019-01-07T16:18:55Z</time>
      </trkpt>
      <trkpt lat="42.43375" lon="2.13066">
        <ele>2222.2</ele>
        <time>2019-01-07T16:18:57Z</time>
      </trkpt>
      <trkpt lat="42.4337" lon="2.13067">
        <ele>2224.6</ele>
        <time>2019-01-07T16:18:59Z</time>
      </trkpt>
      <trkpt lat="42.43361" lon="2.13068">
        <ele>2228</ele>
        <time>2019-01-07T16:19:01Z</time>
      </trkpt>
      <trkpt lat="42.43358" lon="2.1307">
        <ele>2229.4</ele>
        <time>2019-01-07T16:19:02Z</time>
      </trkpt>
      <trkpt lat="42.43351" lon="2.13067">
        <ele>2232.3</ele>
        <time>2019-01-07T16:19:04Z</time>
      </trkpt>
      <trkpt lat="42.43341" lon="2.13069">
        <ele>2234.8</ele>
        <time>2019-01-07T16:19:06Z</time>
      </trkpt>
      <trkpt lat="42.43339" lon="2.13067">
        <ele>2237.2</ele>
        <time>2019-01-07T16:19:07Z</time>
      </trkpt>
      <trkpt lat="42.43334" lon="2.13072">
        <ele>2238.1</ele>
        <time>2019-01-07T16:19:09Z</time>
      </trkpt>
      <trkpt lat="42.43327" lon="2.13079">
        <ele>2240.5</ele>
        <time>2019-01-07T16:19:11Z</time>
      </trkpt>
      <trkpt lat="42.43326" lon="2.13074">
        <ele>2242.9</ele>
        <time>2019-01-07T16:19:12Z</time>
      </trkpt>
      <trkpt lat="42.43318" lon="2.13071">
        <ele>2245.8</ele>
        <time>2019-01-07T16:19:15Z</time>
      </trkpt>
      <trkpt lat="42.43313" lon="2.13077">
        <ele>2247.7</ele>
        <time>2019-01-07T16:19:16Z</time>
      </trkpt>
      <trkpt lat="42.4331" lon="2.13074">
        <ele>2249.1</ele>
        <time>2019-01-07T16:19:17Z</time>
      </trkpt>
      <trkpt lat="42.43305" lon="2.13076">
        <ele>2248.7</ele>
        <time>2019-01-07T16:19:19Z</time>
      </trkpt>
      <trkpt lat="42.43302" lon="2.13083">
        <ele>2245.8</ele>
        <time>2019-01-07T16:19:20Z</time>
      </trkpt>
      <trkpt lat="42.43292" lon="2.13088">
        <ele>2244.4</ele>
        <time>2019-01-07T16:19:23Z</time>
      </trkpt>
      <trkpt lat="42.43288" lon="2.13088">
        <ele>2245.7</ele>
        <time>2019-01-07T16:19:24Z</time>
      </trkpt>
      <trkpt lat="42.43278" lon="2.13092">
        <ele>2247.7</ele>
        <time>2019-01-07T16:19:27Z</time>
      </trkpt>
      <trkpt lat="42.43275" lon="2.13093">
        <ele>2248.1</ele>
        <time>2019-01-07T16:19:28Z</time>
      </trkpt>
      <trkpt lat="42.43269" lon="2.13095">
        <ele>2249.7</ele>
        <time>2019-01-07T16:19:30Z</time>
      </trkpt>
      <trkpt lat="42.43262" lon="2.13094">
        <ele>2251.1</ele>
        <time>2019-01-07T16:19:32Z</time>
      </trkpt>
      <trkpt lat="42.43255" lon="2.13095">
        <ele>2251.6</ele>
        <time>2019-01-07T16:19:34Z</time>
      </trkpt>
      <trkpt lat="42.43241" lon="2.13095">
        <ele>2252.5</ele>
        <time>2019-01-07T16:19:37Z</time>
      </trkpt>
      <trkpt lat="42.43236" lon="2.13097">
        <ele>2252.5</ele>
        <time>2019-01-07T16:19:39Z</time>
      </trkpt>
      <trkpt lat="42.43234" lon="2.13098">
        <ele>2253.4</ele>
        <time>2019-01-07T16:19:39Z</time>
      </trkpt>
      <trkpt lat="42.4322" lon="2.13095">
        <ele>2255.8</ele>
        <time>2019-01-07T16:19:43Z</time>
      </trkpt>
      <trkpt lat="42.43207" lon="2.13095">
        <ele>2255.8</ele>
        <time>2019-01-07T16:19:46Z</time>
      </trkpt>
      <trkpt lat="42.43191" lon="2.13097">
        <ele>2257.7</ele>
        <time>2019-01-07T16:19:51Z</time>
      </trkpt>
      <trkpt lat="42.43177" lon="2.13108">
        <ele>2258.7</ele>
        <time>2019-01-07T16:19:55Z</time>
      </trkpt>
      <trkpt lat="42.43173" lon="2.13115">
        <ele>2260.7</ele>
        <time>2019-01-07T16:19:57Z</time>
      </trkpt>
      <trkpt lat="42.43163" lon="2.13121">
        <ele>2261.7</ele>
        <time>2019-01-07T16:20:00Z</time>
      </trkpt>
      <trkpt lat="42.43142" lon="2.13131">
        <ele>2263</ele>
        <time>2019-01-07T16:20:06Z</time>
      </trkpt>
      <trkpt lat="42.43118" lon="2.13129">
        <ele>2265.4</ele>
        <time>2019-01-07T16:20:12Z</time>
      </trkpt>
      <trkpt lat="42.43117" lon="2.13128">
        <ele>2265.5</ele>
        <time>2019-01-07T16:20:12Z</time>
      </trkpt>
      <trkpt lat="42.43102" lon="2.13134">
        <ele>2263.1</ele>
        <time>2019-01-07T16:20:16Z</time>
      </trkpt>
      <trkpt lat="42.431" lon="2.1314">
        <ele>2261.1</ele>
        <time>2019-01-07T16:20:18Z</time>
      </trkpt>
      <trkpt lat="42.43099" lon="2.13137">
        <ele>2263.5</ele>
        <time>2019-01-07T16:20:19Z</time>
      </trkpt>
      <trkpt lat="42.43101" lon="2.13132">
        <ele>2265.1</ele>
        <time>2019-01-07T16:20:20Z</time>
      </trkpt>
      <trkpt lat="42.43088" lon="2.13136">
        <ele>2267.4</ele>
        <time>2019-01-07T16:20:23Z</time>
      </trkpt>
      <trkpt lat="42.4307" lon="2.13134">
        <ele>2268.8</ele>
        <time>2019-01-07T16:20:28Z</time>
      </trkpt>
      <trkpt lat="42.4305" lon="2.13137">
        <ele>2269.9</ele>
        <time>2019-01-07T16:20:33Z</time>
      </trkpt>
      <trkpt lat="42.43046" lon="2.13139">
        <ele>2270.3</ele>
        <time>2019-01-07T16:20:35Z</time>
      </trkpt>
      <trkpt lat="42.43038" lon="2.13139">
        <ele>2272.2</ele>
        <time>2019-01-07T16:20:37Z</time>
      </trkpt>
      <trkpt lat="42.43033" lon="2.1314">
        <ele>2272.3</ele>
        <time>2019-01-07T16:20:38Z</time>
      </trkpt>
      <trkpt lat="42.43032" lon="2.13141">
        <ele>2272.3</ele>
        <time>2019-01-07T16:20:38Z</time>
      </trkpt>
      <trkpt lat="42.43025" lon="2.13143">
        <ele>2273.7</ele>
        <time>2019-01-07T16:20:40Z</time>
      </trkpt>
      <trkpt lat="42.43023" lon="2.13144">
        <ele>2273.6</ele>
        <time>2019-01-07T16:20:41Z</time>
      </trkpt>
      <trkpt lat="42.43018" lon="2.1315">
        <ele>2273.6</ele>
        <time>2019-01-07T16:20:43Z</time>
      </trkpt>
      <trkpt lat="42.43006" lon="2.13157">
        <ele>2274.6</ele>
        <time>2019-01-07T16:20:46Z</time>
      </trkpt>
      <trkpt lat="42.42989" lon="2.1316">
        <ele>2276</ele>
        <time>2019-01-07T16:20:51Z</time>
      </trkpt>
      <trkpt lat="42.42979" lon="2.13156">
        <ele>2278</ele>
        <time>2019-01-07T16:20:54Z</time>
      </trkpt>
      <trkpt lat="42.42973" lon="2.13156">
        <ele>2277.9</ele>
        <time>2019-01-07T16:20:55Z</time>
      </trkpt>
      <trkpt lat="42.42969" lon="2.13157">
        <ele>2278</ele>
        <time>2019-01-07T16:20:56Z</time>
      </trkpt>
      <trkpt lat="42.42964" lon="2.13159">
        <ele>2276.6</ele>
        <time>2019-01-07T16:20:58Z</time>
      </trkpt>
      <trkpt lat="42.42954" lon="2.13164">
        <ele>2276.6</ele>
        <time>2019-01-07T16:21:00Z</time>
      </trkpt>
      <trkpt lat="42.42949" lon="2.13166">
        <ele>2295.3</ele>
        <time>2019-01-07T16:21:02Z</time>
      </trkpt>
      <trkpt lat="42.42945" lon="2.1317">
        <ele>2296.3</ele>
        <time>2019-01-07T16:21:03Z</time>
      </trkpt>
      <trkpt lat="42.42931" lon="2.13182">
        <ele>2298.2</ele>
        <time>2019-01-07T16:21:08Z</time>
      </trkpt>
      <trkpt lat="42.42923" lon="2.13186">
        <ele>2299.2</ele>
        <time>2019-01-07T16:21:10Z</time>
      </trkpt>
      <trkpt lat="42.42918" lon="2.13186">
        <ele>2299.6</ele>
        <time>2019-01-07T16:21:11Z</time>
      </trkpt>
      <trkpt lat="42.42915" lon="2.13187">
        <ele>2300</ele>
        <time>2019-01-07T16:21:12Z</time>
      </trkpt>
      <trkpt lat="42.42909" lon="2.13193">
        <ele>2301</ele>
        <time>2019-01-07T16:21:14Z</time>
      </trkpt>
      <trkpt lat="42.42902" lon="2.13196">
        <ele>2299.7</ele>
        <time>2019-01-07T16:21:16Z</time>
      </trkpt>
      <trkpt lat="42.42901" lon="2.13197">
        <ele>2299.7</ele>
        <time>2019-01-07T16:21:16Z</time>
      </trkpt>
      <trkpt lat="42.42894" lon="2.13214">
        <ele>2300</ele>
        <time>2019-01-07T16:21:20Z</time>
      </trkpt>
      <trkpt lat="42.42892" lon="2.13223">
        <ele>2300.5</ele>
        <time>2019-01-07T16:21:22Z</time>
      </trkpt>
      <trkpt lat="42.4289" lon="2.1323">
        <ele>2300.6</ele>
        <time>2019-01-07T16:21:24Z</time>
      </trkpt>
      <trkpt lat="42.42888" lon="2.13236">
        <ele>2300.6</ele>
        <time>2019-01-07T16:21:25Z</time>
      </trkpt>
      <trkpt lat="42.42886" lon="2.13237">
        <ele>2301</ele>
        <time>2019-01-07T16:21:25Z</time>
      </trkpt>
      <trkpt lat="42.42883" lon="2.1324">
        <ele>2302.9</ele>
        <time>2019-01-07T16:21:26Z</time>
      </trkpt>
      <trkpt lat="42.42875" lon="2.1325">
        <ele>2305.3</ele>
        <time>2019-01-07T16:21:29Z</time>
      </trkpt>
      <trkpt lat="42.42858" lon="2.13261">
        <ele>2308.7</ele>
        <time>2019-01-07T16:21:34Z</time>
      </trkpt>
      <trkpt lat="42.42848" lon="2.13277">
        <ele>2313</ele>
        <time>2019-01-07T16:21:38Z</time>
      </trkpt>
      <trkpt lat="42.42845" lon="2.13284">
        <ele>2314.6</ele>
        <time>2019-01-07T16:21:40Z</time>
      </trkpt>
      <trkpt lat="42.42842" lon="2.13288">
        <ele>2315.9</ele>
        <time>2019-01-07T16:21:41Z</time>
      </trkpt>
      <trkpt lat="42.42834" lon="2.13299">
        <ele>2319.4</ele>
        <time>2019-01-07T16:21:44Z</time>
      </trkpt>
      <trkpt lat="42.42826" lon="2.13311">
        <ele>2321.3</ele>
        <time>2019-01-07T16:21:47Z</time>
      </trkpt>
      <trkpt lat="42.42817" lon="2.13324">
        <ele>2324.6</ele>
        <time>2019-01-07T16:21:51Z</time>
      </trkpt>
      <trkpt lat="42.42816" lon="2.13328">
        <ele>2325.1</ele>
        <time>2019-01-07T16:21:52Z</time>
      </trkpt>
      <trkpt lat="42.42816" lon="2.13333">
        <ele>2326.6</ele>
        <time>2019-01-07T16:21:53Z</time>
      </trkpt>
      <trkpt lat="42.42812" lon="2.13347">
        <ele>2328.5</ele>
        <time>2019-01-07T16:21:56Z</time>
      </trkpt>
      <trkpt lat="42.42804" lon="2.13365">
        <ele>2331.3</ele>
        <time>2019-01-07T16:22:00Z</time>
      </trkpt>
      <trkpt lat="42.42799" lon="2.13378">
        <ele>2332.3</ele>
        <time>2019-01-07T16:22:03Z</time>
      </trkpt>
      <trkpt lat="42.42786" lon="2.13396">
        <ele>2335.6</ele>
        <time>2019-01-07T16:22:08Z</time>
      </trkpt>
      <trkpt lat="42.42783" lon="2.134">
        <ele>2336.6</ele>
        <time>2019-01-07T16:22:09Z</time>
      </trkpt>
      <trkpt lat="42.4278" lon="2.13405">
        <ele>2337.2</ele>
        <time>2019-01-07T16:22:10Z</time>
      </trkpt>
      <trkpt lat="42.42766" lon="2.13415">
        <ele>2339.9</ele>
        <time>2019-01-07T16:22:14Z</time>
      </trkpt>
      <trkpt lat="42.42765" lon="2.13417">
        <ele>2339.9</ele>
        <time>2019-01-07T16:22:15Z</time>
      </trkpt>
      <trkpt lat="42.42756" lon="2.1343">
        <ele>2341</ele>
        <time>2019-01-07T16:22:18Z</time>
      </trkpt>
      <trkpt lat="42.42751" lon="2.13439">
        <ele>2341.5</ele>
        <time>2019-01-07T16:22:20Z</time>
      </trkpt>
      <trkpt lat="42.4274" lon="2.13457">
        <ele>2344.4</ele>
        <time>2019-01-07T16:22:25Z</time>
      </trkpt>
      <trkpt lat="42.4273" lon="2.13476">
        <ele>2347.2</ele>
        <time>2019-01-07T16:22:30Z</time>
      </trkpt>
      <trkpt lat="42.42721" lon="2.13495">
        <ele>2347.2</ele>
        <time>2019-01-07T16:22:34Z</time>
      </trkpt>
      <trkpt lat="42.42715" lon="2.13523">
        <ele>2347.3</ele>
        <time>2019-01-07T16:22:40Z</time>
      </trkpt>
      <trkpt lat="42.42709" lon="2.13536">
        <ele>2347.6</ele>
        <time>2019-01-07T16:22:43Z</time>
      </trkpt>
      <trkpt lat="42.42706" lon="2.1354">
        <ele>2348.1</ele>
        <time>2019-01-07T16:22:44Z</time>
      </trkpt>
      <trkpt lat="42.42695" lon="2.13555">
        <ele>2348.6</ele>
        <time>2019-01-07T16:22:48Z</time>
      </trkpt>
      <trkpt lat="42.42684" lon="2.13581">
        <ele>2349.6</ele>
        <time>2019-01-07T16:22:54Z</time>
      </trkpt>
      <trkpt lat="42.42664" lon="2.13598">
        <ele>2352.5</ele>
        <time>2019-01-07T16:23:00Z</time>
      </trkpt>
      <trkpt lat="42.42658" lon="2.13605">
        <ele>2353.9</ele>
        <time>2019-01-07T16:23:03Z</time>
      </trkpt>
      <trkpt lat="42.42646" lon="2.13628">
        <ele>2354</ele>
        <time>2019-01-07T16:23:08Z</time>
      </trkpt>
      <trkpt lat="42.42645" lon="2.13636">
        <ele>2353.9</ele>
        <time>2019-01-07T16:23:10Z</time>
      </trkpt>
      <trkpt lat="42.42645" lon="2.13644">
        <ele>2354.4</ele>
        <time>2019-01-07T16:23:11Z</time>
      </trkpt>
      <trkpt lat="42.42643" lon="2.13649">
        <ele>2354.4</ele>
        <time>2019-01-07T16:23:12Z</time>
      </trkpt>
      <trkpt lat="42.42643" lon="2.13651">
        <ele>2352.9</ele>
        <time>2019-01-07T16:23:13Z</time>
      </trkpt>
      <trkpt lat="42.42642" lon="2.13652">
        <ele>2353</ele>
        <time>2019-01-07T16:23:13Z</time>
      </trkpt>
      <trkpt lat="42.42639" lon="2.1366">
        <ele>2355.3</ele>
        <time>2019-01-07T16:23:15Z</time>
      </trkpt>
      <trkpt lat="42.42636" lon="2.13669">
        <ele>2355.3</ele>
        <time>2019-01-07T16:23:17Z</time>
      </trkpt>
      <trkpt lat="42.42634" lon="2.13675">
        <ele>2355.3</ele>
        <time>2019-01-07T16:23:18Z</time>
      </trkpt>
      <trkpt lat="42.4263" lon="2.13696">
        <ele>2355.4</ele>
        <time>2019-01-07T16:23:22Z</time>
      </trkpt>
      <trkpt lat="42.42627" lon="2.13702">
        <ele>2355.9</ele>
        <time>2019-01-07T16:23:24Z</time>
      </trkpt>
      <trkpt lat="42.42624" lon="2.13709">
        <ele>2355.9</ele>
        <time>2019-01-07T16:23:25Z</time>
      </trkpt>
      <trkpt lat="42.42623" lon="2.13712">
        <ele>2354.5</ele>
        <time>2019-01-07T16:23:26Z</time>
      </trkpt>
      <trkpt lat="42.4262" lon="2.13718">
        <ele>2354.8</ele>
        <time>2019-01-07T16:23:27Z</time>
      </trkpt>
      <trkpt lat="42.42616" lon="2.13741">
        <ele>2354.5</ele>
        <time>2019-01-07T16:23:32Z</time>
      </trkpt>
      <trkpt lat="42.42617" lon="2.13747">
        <ele>2354.5</ele>
        <time>2019-01-07T16:23:33Z</time>
      </trkpt>
      <trkpt lat="42.42616" lon="2.1375">
        <ele>2354.5</ele>
        <time>2019-01-07T16:23:34Z</time>
      </trkpt>
      <trkpt lat="42.42613" lon="2.13755">
        <ele>2354.4</ele>
        <time>2019-01-07T16:23:35Z</time>
      </trkpt>
      <trkpt lat="42.42607" lon="2.13771">
        <ele>2354.4</ele>
        <time>2019-01-07T16:23:39Z</time>
      </trkpt>
      <trkpt lat="42.42603" lon="2.13792">
        <ele>2354.4</ele>
        <time>2019-01-07T16:23:43Z</time>
      </trkpt>
      <trkpt lat="42.42602" lon="2.13794">
        <ele>2354.8</ele>
        <time>2019-01-07T16:23:43Z</time>
      </trkpt>
      <trkpt lat="42.42606" lon="2.13804">
        <ele>2355.3</ele>
        <time>2019-01-07T16:23:46Z</time>
      </trkpt>
      <trkpt lat="42.42608" lon="2.13824">
        <ele>2356.4</ele>
        <time>2019-01-07T16:23:50Z</time>
      </trkpt>
      <trkpt lat="42.42609" lon="2.13839">
        <ele>2357.3</ele>
        <time>2019-01-07T16:23:53Z</time>
      </trkpt>
      <trkpt lat="42.42609" lon="2.13843">
        <ele>2357.7</ele>
        <time>2019-01-07T16:23:53Z</time>
      </trkpt>
      <trkpt lat="42.42607" lon="2.13869">
        <ele>2360.2</ele>
        <time>2019-01-07T16:23:59Z</time>
      </trkpt>
      <trkpt lat="42.42607" lon="2.13871">
        <ele>2360.2</ele>
        <time>2019-01-07T16:23:59Z</time>
      </trkpt>
      <trkpt lat="42.42601" lon="2.13896">
        <ele>2362.5</ele>
        <time>2019-01-07T16:24:04Z</time>
      </trkpt>
      <trkpt lat="42.42601" lon="2.13904">
        <ele>2363.6</ele>
        <time>2019-01-07T16:24:06Z</time>
      </trkpt>
      <trkpt lat="42.426" lon="2.13926">
        <ele>2364.9</ele>
        <time>2019-01-07T16:24:10Z</time>
      </trkpt>
      <trkpt lat="42.42598" lon="2.13947">
        <ele>2366.9</ele>
        <time>2019-01-07T16:24:14Z</time>
      </trkpt>
      <trkpt lat="42.42592" lon="2.13964">
        <ele>2368.3</ele>
        <time>2019-01-07T16:24:18Z</time>
      </trkpt>
      <trkpt lat="42.42593" lon="2.13967">
        <ele>2368.3</ele>
        <time>2019-01-07T16:24:18Z</time>
      </trkpt>
      <trkpt lat="42.4259" lon="2.13969">
        <ele>2368.3</ele>
        <time>2019-01-07T16:24:19Z</time>
      </trkpt>
      <trkpt lat="42.42591" lon="2.13982">
        <ele>2368.4</ele>
        <time>2019-01-07T16:24:22Z</time>
      </trkpt>
      <trkpt lat="42.42595" lon="2.13995">
        <ele>2368.8</ele>
        <time>2019-01-07T16:24:25Z</time>
      </trkpt>
      <trkpt lat="42.42597" lon="2.14007">
        <ele>2369.8</ele>
        <time>2019-01-07T16:24:27Z</time>
      </trkpt>
      <trkpt lat="42.426" lon="2.14031">
        <ele>2369.8</ele>
        <time>2019-01-07T16:24:32Z</time>
      </trkpt>
      <trkpt lat="42.42602" lon="2.14034">
        <ele>2370.2</ele>
        <time>2019-01-07T16:24:33Z</time>
      </trkpt>
      <trkpt lat="42.42601" lon="2.14051">
        <ele>2373.1</ele>
        <time>2019-01-07T16:24:36Z</time>
      </trkpt>
      <trkpt lat="42.42602" lon="2.14054">
        <ele>2373.1</ele>
        <time>2019-01-07T16:24:37Z</time>
      </trkpt>
      <trkpt lat="42.426" lon="2.14058">
        <ele>2374.6</ele>
        <time>2019-01-07T16:24:38Z</time>
      </trkpt>
      <trkpt lat="42.42596" lon="2.1407">
        <ele>2377.1</ele>
        <time>2019-01-07T16:24:40Z</time>
      </trkpt>
      <trkpt lat="42.42596" lon="2.14076">
        <ele>2377.9</ele>
        <time>2019-01-07T16:24:41Z</time>
      </trkpt>
      <trkpt lat="42.42594" lon="2.14084">
        <ele>2379.4</ele>
        <time>2019-01-07T16:24:43Z</time>
      </trkpt>
      <trkpt lat="42.42593" lon="2.14085">
        <ele>2380.3</ele>
        <time>2019-01-07T16:24:43Z</time>
      </trkpt>
      <trkpt lat="42.42595" lon="2.14103">
        <ele>2383.8</ele>
        <time>2019-01-07T16:24:47Z</time>
      </trkpt>
      <trkpt lat="42.42593" lon="2.14105">
        <ele>2385.2</ele>
        <time>2019-01-07T16:24:48Z</time>
      </trkpt>
      <trkpt lat="42.42585" lon="2.1412">
        <ele>2389.1</ele>
        <time>2019-01-07T16:24:51Z</time>
      </trkpt>
      <trkpt lat="42.42582" lon="2.14126">
        <ele>2390</ele>
        <time>2019-01-07T16:24:53Z</time>
      </trkpt>
      <trkpt lat="42.42581" lon="2.14142">
        <ele>2393.4</ele>
        <time>2019-01-07T16:24:56Z</time>
      </trkpt>
      <trkpt lat="42.42581" lon="2.14145">
        <ele>2394.7</ele>
        <time>2019-01-07T16:24:56Z</time>
      </trkpt>
      <trkpt lat="42.4258" lon="2.14148">
        <ele>2394.7</ele>
        <time>2019-01-07T16:24:57Z</time>
      </trkpt>
      <trkpt lat="42.42577" lon="2.14164">
        <ele>2398.7</ele>
        <time>2019-01-07T16:25:00Z</time>
      </trkpt>
      <trkpt lat="42.42576" lon="2.14167">
        <ele>2399.6</ele>
        <time>2019-01-07T16:25:01Z</time>
      </trkpt>
      <trkpt lat="42.42573" lon="2.14173">
        <ele>2401.5</ele>
        <time>2019-01-07T16:25:02Z</time>
      </trkpt>
      <trkpt lat="42.42569" lon="2.1418">
        <ele>2403.4</ele>
        <time>2019-01-07T16:25:04Z</time>
      </trkpt>
      <trkpt lat="42.42569" lon="2.14183">
        <ele>2404.9</ele>
        <time>2019-01-07T16:25:05Z</time>
      </trkpt>
      <trkpt lat="42.42575" lon="2.14198">
        <ele>2407.7</ele>
        <time>2019-01-07T16:25:08Z</time>
      </trkpt>
      <trkpt lat="42.42575" lon="2.14208">
        <ele>2409.7</ele>
        <time>2019-01-07T16:25:10Z</time>
      </trkpt>
      <trkpt lat="42.42576" lon="2.14214">
        <ele>2410.7</ele>
        <time>2019-01-07T16:25:11Z</time>
      </trkpt>
      <trkpt lat="42.42575" lon="2.14227">
        <ele>2414</ele>
        <time>2019-01-07T16:25:14Z</time>
      </trkpt>
      <trkpt lat="42.42574" lon="2.14234">
        <ele>2416</ele>
        <time>2019-01-07T16:25:15Z</time>
      </trkpt>
      <trkpt lat="42.42575" lon="2.14242">
        <ele>2416.4</ele>
        <time>2019-01-07T16:25:17Z</time>
      </trkpt>
      <trkpt lat="42.42571" lon="2.14252">
        <ele>2419.7</ele>
        <time>2019-01-07T16:25:19Z</time>
      </trkpt>
      <trkpt lat="42.42571" lon="2.14269">
        <ele>2422.6</ele>
        <time>2019-01-07T16:25:23Z</time>
      </trkpt>
      <trkpt lat="42.4257" lon="2.14276">
        <ele>2424.1</ele>
        <time>2019-01-07T16:25:24Z</time>
      </trkpt>
      <trkpt lat="42.4257" lon="2.14279">
        <ele>2424.5</ele>
        <time>2019-01-07T16:25:25Z</time>
      </trkpt>
      <trkpt lat="42.4257" lon="2.14287">
        <ele>2426.5</ele>
        <time>2019-01-07T16:25:26Z</time>
      </trkpt>
      <trkpt lat="42.4257" lon="2.14298">
        <ele>2429.3</ele>
        <time>2019-01-07T16:25:28Z</time>
      </trkpt>
      <trkpt lat="42.42569" lon="2.14311">
        <ele>2433.2</ele>
        <time>2019-01-07T16:25:31Z</time>
      </trkpt>
      <trkpt lat="42.42567" lon="2.14318">
        <ele>2435.7</ele>
        <time>2019-01-07T16:25:32Z</time>
      </trkpt>
      <trkpt lat="42.42567" lon="2.14336">
        <ele>2437.6</ele>
        <time>2019-01-07T16:25:36Z</time>
      </trkpt>
      <trkpt lat="42.42563" lon="2.14353">
        <ele>2440.4</ele>
        <time>2019-01-07T16:25:40Z</time>
      </trkpt>
      <trkpt lat="42.42564" lon="2.14366">
        <ele>2443.9</ele>
        <time>2019-01-07T16:25:42Z</time>
      </trkpt>
      <trkpt lat="42.42561" lon="2.14378">
        <ele>2447.2</ele>
        <time>2019-01-07T16:25:45Z</time>
      </trkpt>
      <trkpt lat="42.42558" lon="2.14391">
        <ele>2450.1</ele>
        <time>2019-01-07T16:25:47Z</time>
      </trkpt>
      <trkpt lat="42.42557" lon="2.14399">
        <ele>2452.5</ele>
        <time>2019-01-07T16:25:49Z</time>
      </trkpt>
      <trkpt lat="42.42556" lon="2.14419">
        <ele>2455.4</ele>
        <time>2019-01-07T16:25:53Z</time>
      </trkpt>
      <trkpt lat="42.42551" lon="2.14427">
        <ele>2457.2</ele>
        <time>2019-01-07T16:25:55Z</time>
      </trkpt>
      <trkpt lat="42.42544" lon="2.14442">
        <ele>2460.6</ele>
        <time>2019-01-07T16:25:58Z</time>
      </trkpt>
      <trkpt lat="42.4254" lon="2.14456">
        <ele>2464</ele>
        <time>2019-01-07T16:26:01Z</time>
      </trkpt>
      <trkpt lat="42.4254" lon="2.14475">
        <ele>2467.4</ele>
        <time>2019-01-07T16:26:05Z</time>
      </trkpt>
      <trkpt lat="42.42537" lon="2.14479">
        <ele>2468.3</ele>
        <time>2019-01-07T16:26:06Z</time>
      </trkpt>
      <trkpt lat="42.42534" lon="2.14484">
        <ele>2469.8</ele>
        <time>2019-01-07T16:26:07Z</time>
      </trkpt>
      <trkpt lat="42.42532" lon="2.14505">
        <ele>2472.2</ele>
        <time>2019-01-07T16:26:12Z</time>
      </trkpt>
      <trkpt lat="42.42526" lon="2.14519">
        <ele>2475.6</ele>
        <time>2019-01-07T16:26:15Z</time>
      </trkpt>
      <trkpt lat="42.42526" lon="2.1452">
        <ele>2475.6</ele>
        <time>2019-01-07T16:26:15Z</time>
      </trkpt>
      <trkpt lat="42.42524" lon="2.14545">
        <ele>2479.4</ele>
        <time>2019-01-07T16:26:20Z</time>
      </trkpt>
      <trkpt lat="42.42521" lon="2.1455">
        <ele>2480.4</ele>
        <time>2019-01-07T16:26:21Z</time>
      </trkpt>
      <trkpt lat="42.42513" lon="2.14559">
        <ele>2482.8</ele>
        <time>2019-01-07T16:26:24Z</time>
      </trkpt>
      <trkpt lat="42.4251" lon="2.14573">
        <ele>2484.6</ele>
        <time>2019-01-07T16:26:27Z</time>
      </trkpt>
      <trkpt lat="42.42508" lon="2.1459">
        <ele>2488</ele>
        <time>2019-01-07T16:26:30Z</time>
      </trkpt>
      <trkpt lat="42.42506" lon="2.14604">
        <ele>2491.3</ele>
        <time>2019-01-07T16:26:33Z</time>
      </trkpt>
      <trkpt lat="42.42507" lon="2.14614">
        <ele>2493.4</ele>
        <time>2019-01-07T16:26:35Z</time>
      </trkpt>
      <trkpt lat="42.42508" lon="2.1463">
        <ele>2496.6</ele>
        <time>2019-01-07T16:26:38Z</time>
      </trkpt>
      <trkpt lat="42.42509" lon="2.14649">
        <ele>2499.6</ele>
        <time>2019-01-07T16:26:42Z</time>
      </trkpt>
      <trkpt lat="42.42511" lon="2.14671">
        <ele>2503.4</ele>
        <time>2019-01-07T16:26:46Z</time>
      </trkpt>
      <trkpt lat="42.4251" lon="2.14679">
        <ele>2504.9</ele>
        <time>2019-01-07T16:26:48Z</time>
      </trkpt>
      <trkpt lat="42.42512" lon="2.14695">
        <ele>2507.8</ele>
        <time>2019-01-07T16:26:51Z</time>
      </trkpt>
      <trkpt lat="42.42509" lon="2.14703">
        <ele>2509.1</ele>
        <time>2019-01-07T16:26:53Z</time>
      </trkpt>
      <trkpt lat="42.42509" lon="2.14718">
        <ele>2511.2</ele>
        <time>2019-01-07T16:26:56Z</time>
      </trkpt>
      <trkpt lat="42.42508" lon="2.14719">
        <ele>2511.5</ele>
        <time>2019-01-07T16:26:56Z</time>
      </trkpt>
      <trkpt lat="42.42507" lon="2.14722">
        <ele>2512.5</ele>
        <time>2019-01-07T16:26:57Z</time>
      </trkpt>
      <trkpt lat="42.42506" lon="2.14736">
        <ele>2515.4</ele>
        <time>2019-01-07T16:26:59Z</time>
      </trkpt>
      <trkpt lat="42.425" lon="2.1474">
        <ele>2516</ele>
        <time>2019-01-07T16:27:01Z</time>
      </trkpt>
      <trkpt lat="42.42488" lon="2.14723">
        <ele>2518.8</ele>
        <time>2019-01-07T16:27:06Z</time>
      </trkpt>
      <trkpt lat="42.42482" lon="2.14715">
        <ele>2520.3</ele>
        <time>2019-01-07T16:27:08Z</time>
      </trkpt>
      <trkpt lat="42.42469" lon="2.14698">
        <ele>2523.1</ele>
        <time>2019-01-07T16:27:13Z</time>
      </trkpt>
      <trkpt lat="42.42454" lon="2.14676">
        <ele>2527</ele>
        <time>2019-01-07T16:27:19Z</time>
      </trkpt>
      <trkpt lat="42.42452" lon="2.14689">
        <ele>2529.4</ele>
        <time>2019-01-07T16:27:21Z</time>
      </trkpt>
      <trkpt lat="42.42452" lon="2.14694">
        <ele>2530.9</ele>
        <time>2019-01-07T16:27:22Z</time>
      </trkpt>
      <trkpt lat="42.42451" lon="2.14707">
        <ele>2532.2</ele>
        <time>2019-01-07T16:27:25Z</time>
      </trkpt>
      <trkpt lat="42.42448" lon="2.14722">
        <ele>2535.2</ele>
        <time>2019-01-07T16:27:28Z</time>
      </trkpt>
      <trkpt lat="42.42444" lon="2.14734">
        <ele>2538.6</ele>
        <time>2019-01-07T16:27:31Z</time>
      </trkpt>
      <trkpt lat="42.4244" lon="2.14744">
        <ele>2540.9</ele>
        <time>2019-01-07T16:27:33Z</time>
      </trkpt>
      <trkpt lat="42.42439" lon="2.14744">
        <ele>2540.9</ele>
        <time>2019-01-07T16:27:33Z</time>
      </trkpt>
      <trkpt lat="42.4243" lon="2.14738">
        <ele>2544.2</ele>
        <time>2019-01-07T16:27:36Z</time>
      </trkpt>
      <trkpt lat="42.42426" lon="2.14746">
        <ele>2547.1</ele>
        <time>2019-01-07T16:27:38Z</time>
      </trkpt>
      <trkpt lat="42.42417" lon="2.14736">
        <ele>2551.1</ele>
        <time>2019-01-07T16:27:41Z</time>
      </trkpt>
      <trkpt lat="42.42417" lon="2.14739">
        <ele>2552</ele>
        <time>2019-01-07T16:27:41Z</time>
      </trkpt>
      <trkpt lat="42.42411" lon="2.14749">
        <ele>2554.3</ele>
        <time>2019-01-07T16:27:44Z</time>
      </trkpt>
      <trkpt lat="42.42407" lon="2.14756">
        <ele>2557.8</ele>
        <time>2019-01-07T16:27:46Z</time>
      </trkpt>
      <trkpt lat="42.42405" lon="2.14768">
        <ele>2561.1</ele>
        <time>2019-01-07T16:27:48Z</time>
      </trkpt>
      <trkpt lat="42.42398" lon="2.14775">
        <ele>2563.4</ele>
        <time>2019-01-07T16:27:50Z</time>
      </trkpt>
      <trkpt lat="42.4239" lon="2.14785">
        <ele>2566.8</ele>
        <time>2019-01-07T16:27:53Z</time>
      </trkpt>
      <trkpt lat="42.42383" lon="2.14795">
        <ele>2570.8</ele>
        <time>2019-01-07T16:27:56Z</time>
      </trkpt>
      <trkpt lat="42.4238" lon="2.14805">
        <ele>2573.1</ele>
        <time>2019-01-07T16:27:58Z</time>
      </trkpt>
      <trkpt lat="42.42378" lon="2.14803">
        <ele>2571.6</ele>
        <time>2019-01-07T16:27:59Z</time>
      </trkpt>
      <trkpt lat="42.42376" lon="2.14802">
        <ele>2571.7</ele>
        <time>2019-01-07T16:27:59Z</time>
      </trkpt>
      <trkpt lat="42.42374" lon="2.148">
        <ele>2572.1</ele>
        <time>2019-01-07T16:28:00Z</time>
      </trkpt>
      <trkpt lat="42.42368" lon="2.14803">
        <ele>2574.6</ele>
        <time>2019-01-07T16:28:02Z</time>
      </trkpt>
      <trkpt lat="42.42366" lon="2.14806">
        <ele>2575</ele>
        <time>2019-01-07T16:28:03Z</time>
      </trkpt>
      <trkpt lat="42.42359" lon="2.14816">
        <ele>2577.5</ele>
        <time>2019-01-07T16:28:05Z</time>
      </trkpt>
      <trkpt lat="42.42359" lon="2.14819">
        <ele>2578</ele>
        <time>2019-01-07T16:28:06Z</time>
      </trkpt>
      <trkpt lat="42.42351" lon="2.14829">
        <ele>2580.9</ele>
        <time>2019-01-07T16:28:09Z</time>
      </trkpt>
      <trkpt lat="42.4234" lon="2.14836">
        <ele>2584.6</ele>
        <time>2019-01-07T16:28:12Z</time>
      </trkpt>
      <trkpt lat="42.42333" lon="2.14846">
        <ele>2588.4</ele>
        <time>2019-01-07T16:28:15Z</time>
      </trkpt>
      <trkpt lat="42.42326" lon="2.14856">
        <ele>2590.9</ele>
        <time>2019-01-07T16:28:18Z</time>
      </trkpt>
      <trkpt lat="42.42317" lon="2.14863">
        <ele>2593.7</ele>
        <time>2019-01-07T16:28:20Z</time>
      </trkpt>
      <trkpt lat="42.42307" lon="2.14868">
        <ele>2597.1</ele>
        <time>2019-01-07T16:28:23Z</time>
      </trkpt>
      <trkpt lat="42.42302" lon="2.14858">
        <ele>2600.5</ele>
        <time>2019-01-07T16:28:26Z</time>
      </trkpt>
      <trkpt lat="42.42295" lon="2.14864">
        <ele>2603.9</ele>
        <time>2019-01-07T16:28:28Z</time>
      </trkpt>
      <trkpt lat="42.42287" lon="2.14873">
        <ele>2607.3</ele>
        <time>2019-01-07T16:28:31Z</time>
      </trkpt>
      <trkpt lat="42.42282" lon="2.14876">
        <ele>2608.6</ele>
        <time>2019-01-07T16:28:32Z</time>
      </trkpt>
      <trkpt lat="42.42271" lon="2.14865">
        <ele>2612.6</ele>
        <time>2019-01-07T16:28:36Z</time>
      </trkpt>
      <trkpt lat="42.4227" lon="2.14858">
        <ele>2613.9</ele>
        <time>2019-01-07T16:28:37Z</time>
      </trkpt>
      <trkpt lat="42.42269" lon="2.14844">
        <ele>2615.9</ele>
        <time>2019-01-07T16:28:40Z</time>
      </trkpt>
      <trkpt lat="42.42265" lon="2.14847">
        <ele>2616.9</ele>
        <time>2019-01-07T16:28:41Z</time>
      </trkpt>
      <trkpt lat="42.42254" lon="2.14856">
        <ele>2620.3</ele>
        <time>2019-01-07T16:28:44Z</time>
      </trkpt>
      <trkpt lat="42.42244" lon="2.14862">
        <ele>2623.6</ele>
        <time>2019-01-07T16:28:47Z</time>
      </trkpt>
      <trkpt lat="42.42239" lon="2.14869">
        <ele>2625.5</ele>
        <time>2019-01-07T16:28:49Z</time>
      </trkpt>
      <trkpt lat="42.42235" lon="2.14871">
        <ele>2627.4</ele>
        <time>2019-01-07T16:28:50Z</time>
      </trkpt>
      <trkpt lat="42.4223" lon="2.14881">
        <ele>2630.4</ele>
        <time>2019-01-07T16:28:53Z</time>
      </trkpt>
      <trkpt lat="42.42226" lon="2.14883">
        <ele>2631.2</ele>
        <time>2019-01-07T16:28:54Z</time>
      </trkpt>
      <trkpt lat="42.42225" lon="2.14891">
        <ele>2633.1</ele>
        <time>2019-01-07T16:28:56Z</time>
      </trkpt>
      <trkpt lat="42.42222" lon="2.14898">
        <ele>2635.2</ele>
        <time>2019-01-07T16:28:57Z</time>
      </trkpt>
      <trkpt lat="42.42217" lon="2.14907">
        <ele>2637.9</ele>
        <time>2019-01-07T16:28:59Z</time>
      </trkpt>
      <trkpt lat="42.42214" lon="2.14912">
        <ele>2640</ele>
        <time>2019-01-07T16:29:01Z</time>
      </trkpt>
      <trkpt lat="42.42206" lon="2.14917">
        <ele>2643.3</ele>
        <time>2019-01-07T16:29:03Z</time>
      </trkpt>
      <trkpt lat="42.42197" lon="2.14921">
        <ele>2646.7</ele>
        <time>2019-01-07T16:29:05Z</time>
      </trkpt>
      <trkpt lat="42.42195" lon="2.14923">
        <ele>2647.6</ele>
        <time>2019-01-07T16:29:06Z</time>
      </trkpt>
      <trkpt lat="42.42188" lon="2.14928">
        <ele>2650.9</ele>
        <time>2019-01-07T16:29:08Z</time>
      </trkpt>
      <trkpt lat="42.42179" lon="2.14936">
        <ele>2654.3</ele>
        <time>2019-01-07T16:29:11Z</time>
      </trkpt>
      <trkpt lat="42.42178" lon="2.14937">
        <ele>2654.3</ele>
        <time>2019-01-07T16:29:11Z</time>
      </trkpt>
      <trkpt lat="42.4217" lon="2.14944">
        <ele>2657.8</ele>
        <time>2019-01-07T16:29:14Z</time>
      </trkpt>
      <trkpt lat="42.42159" lon="2.14947">
        <ele>2661.6</ele>
        <time>2019-01-07T16:29:17Z</time>
      </trkpt>
      <trkpt lat="42.42156" lon="2.14947">
        <ele>2662.5</ele>
        <time>2019-01-07T16:29:18Z</time>
      </trkpt>
      <trkpt lat="42.42147" lon="2.14945">
        <ele>2665.9</ele>
        <time>2019-01-07T16:29:20Z</time>
      </trkpt>
      <trkpt lat="42.42138" lon="2.14951">
        <ele>2669.7</ele>
        <time>2019-01-07T16:29:23Z</time>
      </trkpt>
      <trkpt lat="42.42131" lon="2.14956">
        <ele>2672.7</ele>
        <time>2019-01-07T16:29:25Z</time>
      </trkpt>
      <trkpt lat="42.4213" lon="2.14973">
        <ele>2675.5</ele>
        <time>2019-01-07T16:29:28Z</time>
      </trkpt>
      <trkpt lat="42.4213" lon="2.14978">
        <ele>2676.5</ele>
        <time>2019-01-07T16:29:29Z</time>
      </trkpt>
      <trkpt lat="42.42122" lon="2.14979">
        <ele>2679.4</ele>
        <time>2019-01-07T16:29:31Z</time>
      </trkpt>
      <trkpt lat="42.4212" lon="2.14982">
        <ele>2681.3</ele>
        <time>2019-01-07T16:29:32Z</time>
      </trkpt>
      <trkpt lat="42.42114" lon="2.14992">
        <ele>2684.6</ele>
        <time>2019-01-07T16:29:35Z</time>
      </trkpt>
      <trkpt lat="42.42111" lon="2.14994">
        <ele>2685.5</ele>
        <time>2019-01-07T16:29:36Z</time>
      </trkpt>
      <trkpt lat="42.42111" lon="2.15002">
        <ele>2687</ele>
        <time>2019-01-07T16:29:37Z</time>
      </trkpt>
      <trkpt lat="42.42117" lon="2.15022">
        <ele>2688.9</ele>
        <time>2019-01-07T16:29:42Z</time>
      </trkpt>
      <trkpt lat="42.42132" lon="2.15082">
        <ele>2690.4</ele>
        <time>2019-01-07T17:00:18Z</time>
      </trkpt>
      <trkpt lat="42.42132" lon="2.15064">
        <ele>2686</ele>
        <time>2019-01-07T17:00:21Z</time>
      </trkpt>
      <trkpt lat="42.42131" lon="2.1506">
        <ele>2684.8</ele>
        <time>2019-01-07T17:00:22Z</time>
      </trkpt>
      <trkpt lat="42.42097" lon="2.15004">
        <ele>2681.2</ele>
        <time>2019-01-07T17:00:36Z</time>
      </trkpt>
      <trkpt lat="42.42094" lon="2.15001">
        <ele>2681.6</ele>
        <time>2019-01-07T17:00:37Z</time>
      </trkpt>
      <trkpt lat="42.42085" lon="2.14977">
        <ele>2685.1</ele>
        <time>2019-01-07T17:00:42Z</time>
      </trkpt>
      <trkpt lat="42.42082" lon="2.14954">
        <ele>2688.7</ele>
        <time>2019-01-07T17:00:47Z</time>
      </trkpt>
      <trkpt lat="42.4208" lon="2.14932">
        <ele>2692.9</ele>
        <time>2019-01-07T17:00:51Z</time>
      </trkpt>
      <trkpt lat="42.42084" lon="2.14903">
        <ele>2700.3</ele>
        <time>2019-01-07T17:00:57Z</time>
      </trkpt>
      <trkpt lat="42.42085" lon="2.14869">
        <ele>2707.3</ele>
        <time>2019-01-07T17:01:04Z</time>
      </trkpt>
      <trkpt lat="42.42084" lon="2.14866">
        <ele>2708.1</ele>
        <time>2019-01-07T17:01:04Z</time>
      </trkpt>
      <trkpt lat="42.42068" lon="2.14852">
        <ele>2712.9</ele>
        <time>2019-01-07T17:01:09Z</time>
      </trkpt>
      <trkpt lat="42.42047" lon="2.14832">
        <ele>2721.7</ele>
        <time>2019-01-07T17:01:16Z</time>
      </trkpt>
      <trkpt lat="42.42015" lon="2.14795">
        <ele>2732.9</ele>
        <time>2019-01-07T17:01:28Z</time>
      </trkpt>
      <trkpt lat="42.42014" lon="2.14795">
        <ele>2733.2</ele>
        <time>2019-01-07T17:01:28Z</time>
      </trkpt>
      <trkpt lat="42.42011" lon="2.14794">
        <ele>2733.8</ele>
        <time>2019-01-07T17:01:29Z</time>
      </trkpt>
      <trkpt lat="42.41996" lon="2.14788">
        <ele>2738.1</ele>
        <time>2019-01-07T17:01:33Z</time>
      </trkpt>
      <trkpt lat="42.41992" lon="2.14786">
        <ele>2739.2</ele>
        <time>2019-01-07T17:01:34Z</time>
      </trkpt>
      <trkpt lat="42.41988" lon="2.14781">
        <ele>2741.3</ele>
        <time>2019-01-07T17:01:36Z</time>
      </trkpt>
      <trkpt lat="42.4195" lon="2.14759">
        <ele>2753.4</ele>
        <time>2019-01-07T17:01:47Z</time>
      </trkpt>
      <trkpt lat="42.41883" lon="2.1471">
        <ele>2760</ele>
        <time>2019-01-07T17:02:07Z</time>
      </trkpt>
      <trkpt lat="42.41856" lon="2.1466">
        <ele>2764.7</ele>
        <time>2019-01-07T17:02:19Z</time>
      </trkpt>
      <trkpt lat="42.41851" lon="2.14651">
        <ele>2763.3</ele>
        <time>2019-01-07T17:02:21Z</time>
      </trkpt>
      <trkpt lat="42.41848" lon="2.14641">
        <ele>2763.1</ele>
        <time>2019-01-07T17:02:23Z</time>
      </trkpt>
      <trkpt lat="42.41834" lon="2.14592">
        <ele>2761.4</ele>
        <time>2019-01-07T17:02:34Z</time>
      </trkpt>
      <trkpt lat="42.41826" lon="2.14557">
        <ele>2757.5</ele>
        <time>2019-01-07T17:02:41Z</time>
      </trkpt>
      <trkpt lat="42.41823" lon="2.1455">
        <ele>2756.6</ele>
        <time>2019-01-07T17:02:43Z</time>
      </trkpt>
      <trkpt lat="42.41823" lon="2.14543">
        <ele>2756.1</ele>
        <time>2019-01-07T17:02:44Z</time>
      </trkpt>
      <trkpt lat="42.41789" lon="2.14458">
        <ele>2754.6</ele>
        <time>2019-01-07T17:03:03Z</time>
      </trkpt>
      <trkpt lat="42.41774" lon="2.14438">
        <ele>2758.6</ele>
        <time>2019-01-07T17:03:09Z</time>
      </trkpt>
      <trkpt lat="42.41772" lon="2.14429">
        <ele>2759.3</ele>
        <time>2019-01-07T17:03:11Z</time>
      </trkpt>
      <trkpt lat="42.41769" lon="2.14424">
        <ele>2760.2</ele>
        <time>2019-01-07T17:03:12Z</time>
      </trkpt>
      <trkpt lat="42.41766" lon="2.14417">
        <ele>2762.4</ele>
        <time>2019-01-07T17:03:13Z</time>
      </trkpt>
      <trkpt lat="42.41765" lon="2.14414">
        <ele>2762.3</ele>
        <time>2019-01-07T17:03:14Z</time>
      </trkpt>
      <trkpt lat="42.41765" lon="2.14412">
        <ele>2762.4</ele>
        <time>2019-01-07T17:03:15Z</time>
      </trkpt>
      <trkpt lat="42.41753" lon="2.14405">
        <ele>2768.4</ele>
        <time>2019-01-07T17:03:18Z</time>
      </trkpt>
      <trkpt lat="42.41739" lon="2.14384">
        <ele>2771.7</ele>
        <time>2019-01-07T17:03:23Z</time>
      </trkpt>
      <trkpt lat="42.41732" lon="2.14379">
        <ele>2774.2</ele>
        <time>2019-01-07T17:03:26Z</time>
      </trkpt>
      <trkpt lat="42.41727" lon="2.14376">
        <ele>2776</ele>
        <time>2019-01-07T17:03:27Z</time>
      </trkpt>
      <trkpt lat="42.41715" lon="2.14377">
        <ele>2777.8</ele>
        <time>2019-01-07T17:03:30Z</time>
      </trkpt>
      <trkpt lat="42.41717" lon="2.1437">
        <ele>2777.7</ele>
        <time>2019-01-07T17:03:32Z</time>
      </trkpt>
      <trkpt lat="42.41712" lon="2.14366">
        <ele>2778</ele>
        <time>2019-01-07T17:03:33Z</time>
      </trkpt>
      <trkpt lat="42.41647" lon="2.14282">
        <ele>2782.1</ele>
        <time>2019-01-07T17:03:57Z</time>
      </trkpt>
      <trkpt lat="42.41618" lon="2.14179">
        <ele>2768.3</ele>
        <time>2019-01-07T17:04:19Z</time>
      </trkpt>
      <trkpt lat="42.41614" lon="2.14151">
        <ele>2764</ele>
        <time>2019-01-07T17:04:25Z</time>
      </trkpt>
      <trkpt lat="42.41614" lon="2.14135">
        <ele>2762.3</ele>
        <time>2019-01-07T17:04:28Z</time>
      </trkpt>
      <trkpt lat="42.41618" lon="2.1406">
        <ele>2758.5</ele>
        <time>2019-01-07T17:04:42Z</time>
      </trkpt>
      <trkpt lat="42.41625" lon="2.14033">
        <ele>2758.1</ele>
        <time>2019-01-07T17:04:48Z</time>
      </trkpt>
      <trkpt lat="42.41627" lon="2.13992">
        <ele>2756.3</ele>
        <time>2019-01-07T17:04:56Z</time>
      </trkpt>
      <trkpt lat="42.41625" lon="2.13959">
        <ele>2754.6</ele>
        <time>2019-01-07T17:05:03Z</time>
      </trkpt>
      <trkpt lat="42.41623" lon="2.13932">
        <ele>2756.3</ele>
        <time>2019-01-07T17:05:08Z</time>
      </trkpt>
      <trkpt lat="42.4162" lon="2.13927">
        <ele>2757.2</ele>
        <time>2019-01-07T17:05:09Z</time>
      </trkpt>
      <trkpt lat="42.4162" lon="2.13924">
        <ele>2757.7</ele>
        <time>2019-01-07T17:05:10Z</time>
      </trkpt>
      <trkpt lat="42.4162" lon="2.13892">
        <ele>2762.6</ele>
        <time>2019-01-07T17:05:16Z</time>
      </trkpt>
      <trkpt lat="42.41611" lon="2.1385">
        <ele>2773.7</ele>
        <time>2019-01-07T17:05:25Z</time>
      </trkpt>
      <trkpt lat="42.41611" lon="2.13849">
        <ele>2773.9</ele>
        <time>2019-01-07T17:05:25Z</time>
      </trkpt>
      <trkpt lat="42.41611" lon="2.13845">
        <ele>2774.9</ele>
        <time>2019-01-07T17:05:26Z</time>
      </trkpt>
      <trkpt lat="42.41609" lon="2.13837">
        <ele>2776.1</ele>
        <time>2019-01-07T17:05:28Z</time>
      </trkpt>
      <trkpt lat="42.41608" lon="2.13831">
        <ele>2777.5</ele>
        <time>2019-01-07T17:05:29Z</time>
      </trkpt>
      <trkpt lat="42.41608" lon="2.13829">
        <ele>2777.7</ele>
        <time>2019-01-07T17:05:29Z</time>
      </trkpt>
      <trkpt lat="42.41599" lon="2.13803">
        <ele>2781.4</ele>
        <time>2019-01-07T17:05:35Z</time>
      </trkpt>
      <trkpt lat="42.41596" lon="2.13794">
        <ele>2783.3</ele>
        <time>2019-01-07T17:05:37Z</time>
      </trkpt>
      <trkpt lat="42.41596" lon="2.13792">
        <ele>2783.8</ele>
        <time>2019-01-07T17:05:37Z</time>
      </trkpt>
      <trkpt lat="42.41595" lon="2.13787">
        <ele>2785.1</ele>
        <time>2019-01-07T17:05:38Z</time>
      </trkpt>
      <trkpt lat="42.41594" lon="2.13782">
        <ele>2786.4</ele>
        <time>2019-01-07T17:05:39Z</time>
      </trkpt>
      <trkpt lat="42.41581" lon="2.13748">
        <ele>2793.5</ele>
        <time>2019-01-07T17:05:47Z</time>
      </trkpt>
      <trkpt lat="42.41571" lon="2.13732">
        <ele>2792.2</ele>
        <time>2019-01-07T17:05:51Z</time>
      </trkpt>
      <trkpt lat="42.41553" lon="2.13684">
        <ele>2797.3</ele>
        <time>2019-01-07T17:06:01Z</time>
      </trkpt>
      <trkpt lat="42.41552" lon="2.13677">
        <ele>2797.8</ele>
        <time>2019-01-07T17:06:03Z</time>
      </trkpt>
      <trkpt lat="42.41551" lon="2.13674">
        <ele>2797.9</ele>
        <time>2019-01-07T17:06:04Z</time>
      </trkpt>
      <trkpt lat="42.41548" lon="2.13667">
        <ele>2798.3</ele>
        <time>2019-01-07T17:06:05Z</time>
      </trkpt>
      <trkpt lat="42.41547" lon="2.1366">
        <ele>2799.1</ele>
        <time>2019-01-07T17:06:07Z</time>
      </trkpt>
      <trkpt lat="42.41546" lon="2.13658">
        <ele>2799.2</ele>
        <time>2019-01-07T17:06:07Z</time>
      </trkpt>
      <trkpt lat="42.4154" lon="2.13638">
        <ele>2802.2</ele>
        <time>2019-01-07T17:06:11Z</time>
      </trkpt>
      <trkpt lat="42.41538" lon="2.13629">
        <ele>2803</ele>
        <time>2019-01-07T17:06:13Z</time>
      </trkpt>
      <trkpt lat="42.41532" lon="2.13585">
        <ele>2809.5</ele>
        <time>2019-01-07T17:06:22Z</time>
      </trkpt>
      <trkpt lat="42.41515" lon="2.13509">
        <ele>2812</ele>
        <time>2019-01-07T17:06:37Z</time>
      </trkpt>
      <trkpt lat="42.41514" lon="2.13505">
        <ele>2812.3</ele>
        <time>2019-01-07T17:06:38Z</time>
      </trkpt>
      <trkpt lat="42.4151" lon="2.13497">
        <ele>2812.5</ele>
        <time>2019-01-07T17:06:40Z</time>
      </trkpt>
      <trkpt lat="42.41503" lon="2.13437">
        <ele>2818.2</ele>
        <time>2019-01-07T17:06:52Z</time>
      </trkpt>
      <trkpt lat="42.41499" lon="2.13436">
        <ele>2818.7</ele>
        <time>2019-01-07T17:06:53Z</time>
      </trkpt>
      <trkpt lat="42.41494" lon="2.13422">
        <ele>2818.1</ele>
        <time>2019-01-07T17:06:56Z</time>
      </trkpt>
      <trkpt lat="42.41457" lon="2.13359">
        <ele>2820.9</ele>
        <time>2019-01-07T17:07:12Z</time>
      </trkpt>
      <trkpt lat="42.41448" lon="2.13349">
        <ele>2821.4</ele>
        <time>2019-01-07T17:07:15Z</time>
      </trkpt>
      <trkpt lat="42.4145" lon="2.13346">
        <ele>2820.9</ele>
        <time>2019-01-07T17:07:16Z</time>
      </trkpt>
      <trkpt lat="42.41436" lon="2.13336">
        <ele>2819.5</ele>
        <time>2019-01-07T17:07:20Z</time>
      </trkpt>
      <trkpt lat="42.41435" lon="2.1333">
        <ele>2819.1</ele>
        <time>2019-01-07T17:07:21Z</time>
      </trkpt>
      <trkpt lat="42.41436" lon="2.13293">
        <ele>2816.4</ele>
        <time>2019-01-07T17:07:29Z</time>
      </trkpt>
      <trkpt lat="42.4144" lon="2.13287">
        <ele>2816.8</ele>
        <time>2019-01-07T17:07:30Z</time>
      </trkpt>
      <trkpt lat="42.41445" lon="2.13274">
        <ele>2816.1</ele>
        <time>2019-01-07T17:07:33Z</time>
      </trkpt>
      <trkpt lat="42.41446" lon="2.13243">
        <ele>2807.8</ele>
        <time>2019-01-07T17:07:39Z</time>
      </trkpt>
      <trkpt lat="42.41441" lon="2.13236">
        <ele>2805.4</ele>
        <time>2019-01-07T17:07:41Z</time>
      </trkpt>
      <trkpt lat="42.4143" lon="2.13224">
        <ele>2801.4</ele>
        <time>2019-01-07T17:07:45Z</time>
      </trkpt>
      <trkpt lat="42.41422" lon="2.13206">
        <ele>2798.1</ele>
        <time>2019-01-07T17:07:49Z</time>
      </trkpt>
      <trkpt lat="42.41418" lon="2.13175">
        <ele>2792.1</ele>
        <time>2019-01-07T17:07:55Z</time>
      </trkpt>
      <trkpt lat="42.41407" lon="2.1316">
        <ele>2786.5</ele>
        <time>2019-01-07T17:07:59Z</time>
      </trkpt>
      <trkpt lat="42.41407" lon="2.13158">
        <ele>2785.9</ele>
        <time>2019-01-07T17:08:00Z</time>
      </trkpt>
      <trkpt lat="42.41401" lon="2.13146">
        <ele>2781.9</ele>
        <time>2019-01-07T17:08:03Z</time>
      </trkpt>
      <trkpt lat="42.41392" lon="2.13136">
        <ele>2776.7</ele>
        <time>2019-01-07T17:08:06Z</time>
      </trkpt>
      <trkpt lat="42.41358" lon="2.13103">
        <ele>2757.4</ele>
        <time>2019-01-07T17:08:17Z</time>
      </trkpt>
      <trkpt lat="42.41357" lon="2.13101">
        <ele>2756.7</ele>
        <time>2019-01-07T17:08:17Z</time>
      </trkpt>
      <trkpt lat="42.41357" lon="2.13099">
        <ele>2756.4</ele>
        <time>2019-01-07T17:08:18Z</time>
      </trkpt>
      <trkpt lat="42.41354" lon="2.13094">
        <ele>2754.5</ele>
        <time>2019-01-07T17:08:19Z</time>
      </trkpt>
      <trkpt lat="42.41351" lon="2.13085">
        <ele>2752.2</ele>
        <time>2019-01-07T17:08:21Z</time>
      </trkpt>
      <trkpt lat="42.4135" lon="2.13079">
        <ele>2750.9</ele>
        <time>2019-01-07T17:08:22Z</time>
      </trkpt>
      <trkpt lat="42.4133" lon="2.13043">
        <ele>2737.8</ele>
        <time>2019-01-07T17:08:31Z</time>
      </trkpt>
      <trkpt lat="42.41323" lon="2.13038">
        <ele>2735</ele>
        <time>2019-01-07T17:08:33Z</time>
      </trkpt>
      <trkpt lat="42.41323" lon="2.13027">
        <ele>2733.1</ele>
        <time>2019-01-07T17:08:35Z</time>
      </trkpt>
      <trkpt lat="42.41314" lon="2.13012">
        <ele>2729.5</ele>
        <time>2019-01-07T17:08:39Z</time>
      </trkpt>
      <trkpt lat="42.4128" lon="2.12929">
        <ele>2723</ele>
        <time>2019-01-07T17:08:58Z</time>
      </trkpt>
      <trkpt lat="42.41235" lon="2.12894">
        <ele>2720.7</ele>
        <time>2019-01-07T17:09:12Z</time>
      </trkpt>
      <trkpt lat="42.41189" lon="2.12863">
        <ele>2719.8</ele>
        <time>2019-01-07T17:09:25Z</time>
      </trkpt>
      <trkpt lat="42.41181" lon="2.12854">
        <ele>2720.7</ele>
        <time>2019-01-07T17:09:28Z</time>
      </trkpt>
      <trkpt lat="42.41177" lon="2.12849">
        <ele>2721</ele>
        <time>2019-01-07T17:09:30Z</time>
      </trkpt>
      <trkpt lat="42.4115" lon="2.12838">
        <ele>2721.2</ele>
        <time>2019-01-07T17:09:37Z</time>
      </trkpt>
      <trkpt lat="42.41109" lon="2.1284">
        <ele>2716.4</ele>
        <time>2019-01-07T17:09:48Z</time>
      </trkpt>
      <trkpt lat="42.41094" lon="2.12832">
        <ele>2712.5</ele>
        <time>2019-01-07T17:09:52Z</time>
      </trkpt>
      <trkpt lat="42.41091" lon="2.12829">
        <ele>2711.3</ele>
        <time>2019-01-07T17:09:53Z</time>
      </trkpt>
      <trkpt lat="42.41059" lon="2.1278">
        <ele>2696.5</ele>
        <time>2019-01-07T17:10:06Z</time>
      </trkpt>
      <trkpt lat="42.41046" lon="2.1274">
        <ele>2690.1</ele>
        <time>2019-01-07T17:10:15Z</time>
      </trkpt>
      <trkpt lat="42.41024" lon="2.12674">
        <ele>2675.6</ele>
        <time>2019-01-07T17:10:29Z</time>
      </trkpt>
      <trkpt lat="42.40999" lon="2.12609">
        <ele>2657.9</ele>
        <time>2019-01-07T17:10:44Z</time>
      </trkpt>
      <trkpt lat="42.40993" lon="2.12577">
        <ele>2648.4</ele>
        <time>2019-01-07T17:10:50Z</time>
      </trkpt>
      <trkpt lat="42.40985" lon="2.12577">
        <ele>2645.8</ele>
        <time>2019-01-07T17:10:52Z</time>
      </trkpt>
      <trkpt lat="42.40972" lon="2.12563">
        <ele>2639.6</ele>
        <time>2019-01-07T17:10:57Z</time>
      </trkpt>
      <trkpt lat="42.40969" lon="2.1256">
        <ele>2638.3</ele>
        <time>2019-01-07T17:10:58Z</time>
      </trkpt>
      <trkpt lat="42.40951" lon="2.12532">
        <ele>2628.6</ele>
        <time>2019-01-07T17:11:05Z</time>
      </trkpt>
      <trkpt lat="42.40942" lon="2.12539">
        <ele>2628.1</ele>
        <time>2019-01-07T17:11:08Z</time>
      </trkpt>
      <trkpt lat="42.40941" lon="2.12538">
        <ele>2627.6</ele>
        <time>2019-01-07T17:11:08Z</time>
      </trkpt>
      <trkpt lat="42.40937" lon="2.12546">
        <ele>2626.5</ele>
        <time>2019-01-07T17:11:10Z</time>
      </trkpt>
      <trkpt lat="42.40936" lon="2.12548">
        <ele>2626.2</ele>
        <time>2019-01-07T17:11:10Z</time>
      </trkpt>
      <trkpt lat="42.40923" lon="2.12529">
        <ele>2619.6</ele>
        <time>2019-01-07T17:11:15Z</time>
      </trkpt>
      <trkpt lat="42.4091" lon="2.12514">
        <ele>2612.2</ele>
        <time>2019-01-07T17:11:20Z</time>
      </trkpt>
      <trkpt lat="42.40858" lon="2.12492">
        <ele>2604.1</ele>
        <time>2019-01-07T17:11:35Z</time>
      </trkpt>
      <trkpt lat="42.40844" lon="2.12482">
        <ele>2603.6</ele>
        <time>2019-01-07T17:11:39Z</time>
      </trkpt>
      <trkpt lat="42.40836" lon="2.12472">
        <ele>2605.4</ele>
        <time>2019-01-07T17:11:42Z</time>
      </trkpt>
      <trkpt lat="42.40833" lon="2.12469">
        <ele>2605.9</ele>
        <time>2019-01-07T17:11:43Z</time>
      </trkpt>
      <trkpt lat="42.40831" lon="2.12468">
        <ele>2606.1</ele>
        <time>2019-01-07T17:11:43Z</time>
      </trkpt>
      <trkpt lat="42.4083" lon="2.12464">
        <ele>2606.1</ele>
        <time>2019-01-07T17:11:44Z</time>
      </trkpt>
      <trkpt lat="42.408" lon="2.12452">
        <ele>2617.6</ele>
        <time>2019-01-07T17:11:52Z</time>
      </trkpt>
      <trkpt lat="42.40744" lon="2.12427">
        <ele>2625.1</ele>
        <time>2019-01-07T17:12:08Z</time>
      </trkpt>
      <trkpt lat="42.40713" lon="2.12403">
        <ele>2624.5</ele>
        <time>2019-01-07T17:12:18Z</time>
      </trkpt>
      <trkpt lat="42.40706" lon="2.12399">
        <ele>2624.8</ele>
        <time>2019-01-07T17:12:20Z</time>
      </trkpt>
      <trkpt lat="42.40677" lon="2.12381">
        <ele>2629.6</ele>
        <time>2019-01-07T17:12:28Z</time>
      </trkpt>
      <trkpt lat="42.40654" lon="2.12371">
        <ele>2635.5</ele>
        <time>2019-01-07T17:12:35Z</time>
      </trkpt>
      <trkpt lat="42.40652" lon="2.12368">
        <ele>2636.2</ele>
        <time>2019-01-07T17:12:35Z</time>
      </trkpt>
      <trkpt lat="42.40649" lon="2.12365">
        <ele>2637.5</ele>
        <time>2019-01-07T17:12:36Z</time>
      </trkpt>
      <trkpt lat="42.40644" lon="2.12363">
        <ele>2639.3</ele>
        <time>2019-01-07T17:12:38Z</time>
      </trkpt>
      <trkpt lat="42.40639" lon="2.12357">
        <ele>2641.1</ele>
        <time>2019-01-07T17:12:40Z</time>
      </trkpt>
      <trkpt lat="42.40604" lon="2.12347">
        <ele>2651.9</ele>
        <time>2019-01-07T17:12:49Z</time>
      </trkpt>
      <trkpt lat="42.40571" lon="2.12344">
        <ele>2659.1</ele>
        <time>2019-01-07T17:12:58Z</time>
      </trkpt>
      <trkpt lat="42.40567" lon="2.12341">
        <ele>2660.2</ele>
        <time>2019-01-07T17:12:59Z</time>
      </trkpt>
      <trkpt lat="42.40562" lon="2.12342">
        <ele>2661.4</ele>
        <time>2019-01-07T17:13:00Z</time>
      </trkpt>
      <trkpt lat="42.40561" lon="2.12341">
        <ele>2661.8</ele>
        <time>2019-01-07T17:13:01Z</time>
      </trkpt>
      <trkpt lat="42.40558" lon="2.12341">
        <ele>2662.6</ele>
        <time>2019-01-07T17:13:02Z</time>
      </trkpt>
      <trkpt lat="42.40545" lon="2.12338">
        <ele>2665.6</ele>
        <time>2019-01-07T17:13:05Z</time>
      </trkpt>
      <trkpt lat="42.40493" lon="2.12316">
        <ele>2677.5</ele>
        <time>2019-01-07T17:13:20Z</time>
      </trkpt>
      <trkpt lat="42.40487" lon="2.12314">
        <ele>2679.7</ele>
        <time>2019-01-07T17:13:21Z</time>
      </trkpt>
      <trkpt lat="42.40475" lon="2.12312">
        <ele>2683.9</ele>
        <time>2019-01-07T17:13:24Z</time>
      </trkpt>
      <trkpt lat="42.40473" lon="2.12309">
        <ele>2685.2</ele>
        <time>2019-01-07T17:13:25Z</time>
      </trkpt>
      <trkpt lat="42.40448" lon="2.12292">
        <ele>2694.6</ele>
        <time>2019-01-07T17:13:33Z</time>
      </trkpt>
      <trkpt lat="42.40424" lon="2.12311">
        <ele>2703.7</ele>
        <time>2019-01-07T17:13:40Z</time>
      </trkpt>
      <trkpt lat="42.40396" lon="2.12315">
        <ele>2714</ele>
        <time>2019-01-07T17:13:48Z</time>
      </trkpt>
      <trkpt lat="42.40355" lon="2.12314">
        <ele>2725.8</ele>
        <time>2019-01-07T17:13:59Z</time>
      </trkpt>
      <trkpt lat="42.4035" lon="2.12315">
        <ele>2726.8</ele>
        <time>2019-01-07T17:14:00Z</time>
      </trkpt>
      <trkpt lat="42.40345" lon="2.12316">
        <ele>2728</ele>
        <time>2019-01-07T17:14:01Z</time>
      </trkpt>
      <trkpt lat="42.40331" lon="2.1232">
        <ele>2730.3</ele>
        <time>2019-01-07T17:14:05Z</time>
      </trkpt>
      <trkpt lat="42.40322" lon="2.12317">
        <ele>2733.2</ele>
        <time>2019-01-07T17:14:08Z</time>
      </trkpt>
      <trkpt lat="42.40314" lon="2.12314">
        <ele>2736.7</ele>
        <time>2019-01-07T17:14:10Z</time>
      </trkpt>
      <trkpt lat="42.40291" lon="2.12303">
        <ele>2744.5</ele>
        <time>2019-01-07T17:14:16Z</time>
      </trkpt>
      <trkpt lat="42.40269" lon="2.12293">
        <ele>2749.3</ele>
        <time>2019-01-07T17:14:23Z</time>
      </trkpt>
      <trkpt lat="42.40207" lon="2.12295">
        <ele>2759.4</ele>
        <time>2019-01-07T17:14:39Z</time>
      </trkpt>
      <trkpt lat="42.40195" lon="2.12292">
        <ele>2761.9</ele>
        <time>2019-01-07T17:14:42Z</time>
      </trkpt>
      <trkpt lat="42.40188" lon="2.12291">
        <ele>2763.4</ele>
        <time>2019-01-07T17:14:44Z</time>
      </trkpt>
      <trkpt lat="42.40182" lon="2.12293">
        <ele>2764.1</ele>
        <time>2019-01-07T17:14:46Z</time>
      </trkpt>
      <trkpt lat="42.40177" lon="2.12294">
        <ele>2764.8</ele>
        <time>2019-01-07T17:14:47Z</time>
      </trkpt>
      <trkpt lat="42.40129" lon="2.12306">
        <ele>2771</ele>
        <time>2019-01-07T17:15:00Z</time>
      </trkpt>
      <trkpt lat="42.40124" lon="2.12308">
        <ele>2771.9</ele>
        <time>2019-01-07T17:15:02Z</time>
      </trkpt>
      <trkpt lat="42.40122" lon="2.12307">
        <ele>2772.3</ele>
        <time>2019-01-07T17:15:02Z</time>
      </trkpt>
      <trkpt lat="42.40116" lon="2.12303">
        <ele>2774.2</ele>
        <time>2019-01-07T17:15:04Z</time>
      </trkpt>
      <trkpt lat="42.40113" lon="2.12303">
        <ele>2774.8</ele>
        <time>2019-01-07T17:15:05Z</time>
      </trkpt>
      <trkpt lat="42.40108" lon="2.12302">
        <ele>2776.1</ele>
        <time>2019-01-07T17:15:06Z</time>
      </trkpt>
      <trkpt lat="42.40101" lon="2.12299">
        <ele>2777.6</ele>
        <time>2019-01-07T17:15:08Z</time>
      </trkpt>
      <trkpt lat="42.40098" lon="2.12302">
        <ele>2778.3</ele>
        <time>2019-01-07T17:15:09Z</time>
      </trkpt>
      <trkpt lat="42.40061" lon="2.12312">
        <ele>2786.6</ele>
        <time>2019-01-07T17:15:19Z</time>
      </trkpt>
      <trkpt lat="42.40027" lon="2.12312">
        <ele>2795.1</ele>
        <time>2019-01-07T17:15:28Z</time>
      </trkpt>
      <trkpt lat="42.40022" lon="2.1231">
        <ele>2795.6</ele>
        <time>2019-01-07T17:15:29Z</time>
      </trkpt>
      <trkpt lat="42.40013" lon="2.12298">
        <ele>2796.6</ele>
        <time>2019-01-07T17:15:33Z</time>
      </trkpt>
      <trkpt lat="42.40005" lon="2.12288">
        <ele>2798</ele>
        <time>2019-01-07T17:15:36Z</time>
      </trkpt>
      <trkpt lat="42.39991" lon="2.12255">
        <ele>2801.6</ele>
        <time>2019-01-07T17:15:43Z</time>
      </trkpt>
      <trkpt lat="42.39943" lon="2.12205">
        <ele>2806.2</ele>
        <time>2019-01-07T17:15:59Z</time>
      </trkpt>
      <trkpt lat="42.39941" lon="2.12203">
        <ele>2806.5</ele>
        <time>2019-01-07T17:16:00Z</time>
      </trkpt>
      <trkpt lat="42.39932" lon="2.12197">
        <ele>2806</ele>
        <time>2019-01-07T17:16:03Z</time>
      </trkpt>
      <trkpt lat="42.39926" lon="2.12193">
        <ele>2805.8</ele>
        <time>2019-01-07T17:16:05Z</time>
      </trkpt>
      <trkpt lat="42.39916" lon="2.12182">
        <ele>2806.7</ele>
        <time>2019-01-07T17:16:08Z</time>
      </trkpt>
      <trkpt lat="42.39867" lon="2.12158">
        <ele>2807.4</ele>
        <time>2019-01-07T17:16:22Z</time>
      </trkpt>
      <trkpt lat="42.39833" lon="2.12166">
        <ele>2813.1</ele>
        <time>2019-01-07T17:16:31Z</time>
      </trkpt>
      <trkpt lat="42.3983" lon="2.12165">
        <ele>2813.3</ele>
        <time>2019-01-07T17:16:32Z</time>
      </trkpt>
      <trkpt lat="42.39796" lon="2.1216">
        <ele>2819.5</ele>
        <time>2019-01-07T17:16:41Z</time>
      </trkpt>
      <trkpt lat="42.39787" lon="2.1216">
        <ele>2822.6</ele>
        <time>2019-01-07T17:16:44Z</time>
      </trkpt>
      <trkpt lat="42.39782" lon="2.12156">
        <ele>2824.3</ele>
        <time>2019-01-07T17:16:45Z</time>
      </trkpt>
      <trkpt lat="42.39777" lon="2.12156">
        <ele>2825.8</ele>
        <time>2019-01-07T17:16:46Z</time>
      </trkpt>
      <trkpt lat="42.39776" lon="2.12156">
        <ele>2826.4</ele>
        <time>2019-01-07T17:16:47Z</time>
      </trkpt>
      <trkpt lat="42.39772" lon="2.12156">
        <ele>2827.3</ele>
        <time>2019-01-07T17:16:48Z</time>
      </trkpt>
      <trkpt lat="42.3976" lon="2.12155">
        <ele>2831.1</ele>
        <time>2019-01-07T17:16:51Z</time>
      </trkpt>
      <trkpt lat="42.39729" lon="2.12147">
        <ele>2837.1</ele>
        <time>2019-01-07T17:16:59Z</time>
      </trkpt>
      <trkpt lat="42.397" lon="2.12132">
        <ele>2836.7</ele>
        <time>2019-01-07T17:17:08Z</time>
      </trkpt>
      <trkpt lat="42.39703" lon="2.12131">
        <ele>2836.6</ele>
        <time>2019-01-07T17:17:08Z</time>
      </trkpt>
      <trkpt lat="42.39704" lon="2.12119">
        <ele>2835</ele>
        <time>2019-01-07T17:17:11Z</time>
      </trkpt>
      <trkpt lat="42.397" lon="2.12121">
        <ele>2835.2</ele>
        <time>2019-01-07T17:17:12Z</time>
      </trkpt>
      <trkpt lat="42.3969" lon="2.12109">
        <ele>2830.8</ele>
        <time>2019-01-07T17:17:15Z</time>
      </trkpt>
      <trkpt lat="42.39693" lon="2.12103">
        <ele>2830</ele>
        <time>2019-01-07T17:17:17Z</time>
      </trkpt>
      <trkpt lat="42.39691" lon="2.12101">
        <ele>2828.4</ele>
        <time>2019-01-07T17:17:17Z</time>
      </trkpt>
      <trkpt lat="42.39688" lon="2.12099">
        <ele>2825.8</ele>
        <time>2019-01-07T17:17:18Z</time>
      </trkpt>
      <trkpt lat="42.39684" lon="2.12099">
        <ele>2823.7</ele>
        <time>2019-01-07T17:17:19Z</time>
      </trkpt>
      <trkpt lat="42.39681" lon="2.12092">
        <ele>2820.2</ele>
        <time>2019-01-07T17:17:21Z</time>
      </trkpt>
      <trkpt lat="42.39681" lon="2.12089">
        <ele>2819.6</ele>
        <time>2019-01-07T17:17:21Z</time>
      </trkpt>
      <trkpt lat="42.39681" lon="2.12083">
        <ele>2817.5</ele>
        <time>2019-01-07T17:17:23Z</time>
      </trkpt>
      <trkpt lat="42.39681" lon="2.12081">
        <ele>2816.9</ele>
        <time>2019-01-07T17:17:23Z</time>
      </trkpt>
      <trkpt lat="42.39684" lon="2.12072">
        <ele>2814.1</ele>
        <time>2019-01-07T17:17:25Z</time>
      </trkpt>
      <trkpt lat="42.39678" lon="2.12065">
        <ele>2809.9</ele>
        <time>2019-01-07T17:17:27Z</time>
      </trkpt>
      <trkpt lat="42.39678" lon="2.12065">
        <ele>2809.6</ele>
        <time>2019-01-07T17:17:27Z</time>
      </trkpt>
      <trkpt lat="42.39672" lon="2.12054">
        <ele>2805.1</ele>
        <time>2019-01-07T17:17:30Z</time>
      </trkpt>
      <trkpt lat="42.39671" lon="2.12052">
        <ele>2804.7</ele>
        <time>2019-01-07T17:17:30Z</time>
      </trkpt>
      <trkpt lat="42.3966" lon="2.12028">
        <ele>2795.4</ele>
        <time>2019-01-07T17:17:36Z</time>
      </trkpt>
      <trkpt lat="42.39657" lon="2.1202">
        <ele>2792.9</ele>
        <time>2019-01-07T17:17:38Z</time>
      </trkpt>
      <trkpt lat="42.39658" lon="2.11997">
        <ele>2789.6</ele>
        <time>2019-01-07T17:17:42Z</time>
      </trkpt>
      <trkpt lat="42.39658" lon="2.11986">
        <ele>2787.4</ele>
        <time>2019-01-07T17:17:44Z</time>
      </trkpt>
      <trkpt lat="42.39653" lon="2.11976">
        <ele>2785.1</ele>
        <time>2019-01-07T17:17:47Z</time>
      </trkpt>
      <trkpt lat="42.39651" lon="2.11969">
        <ele>2783.6</ele>
        <time>2019-01-07T17:17:48Z</time>
      </trkpt>
      <trkpt lat="42.39648" lon="2.1196">
        <ele>2781.4</ele>
        <time>2019-01-07T17:17:50Z</time>
      </trkpt>
      <trkpt lat="42.39643" lon="2.1195">
        <ele>2779.6</ele>
        <time>2019-01-07T17:17:53Z</time>
      </trkpt>
      <trkpt lat="42.3964" lon="2.11944">
        <ele>2778.7</ele>
        <time>2019-01-07T17:17:54Z</time>
      </trkpt>
      <trkpt lat="42.39636" lon="2.11917">
        <ele>2771.9</ele>
        <time>2019-01-07T17:17:59Z</time>
      </trkpt>
      <trkpt lat="42.39632" lon="2.11891">
        <ele>2764.2</ele>
        <time>2019-01-07T17:18:05Z</time>
      </trkpt>
      <trkpt lat="42.39626" lon="2.11869">
        <ele>2758.3</ele>
        <time>2019-01-07T17:18:09Z</time>
      </trkpt>
      <trkpt lat="42.39631" lon="2.11853">
        <ele>2757.4</ele>
        <time>2019-01-07T17:18:13Z</time>
      </trkpt>
      <trkpt lat="42.39626" lon="2.1183">
        <ele>2753.8</ele>
        <time>2019-01-07T17:18:18Z</time>
      </trkpt>
      <trkpt lat="42.39618" lon="2.11824">
        <ele>2753.3</ele>
        <time>2019-01-07T17:18:20Z</time>
      </trkpt>
      <trkpt lat="42.39618" lon="2.11822">
        <ele>2753.2</ele>
        <time>2019-01-07T17:18:20Z</time>
      </trkpt>
      <trkpt lat="42.39607" lon="2.11791">
        <ele>2748.9</ele>
        <time>2019-01-07T17:18:27Z</time>
      </trkpt>
      <trkpt lat="42.396" lon="2.11782">
        <ele>2746.4</ele>
        <time>2019-01-07T17:18:30Z</time>
      </trkpt>
      <trkpt lat="42.39588" lon="2.11757">
        <ele>2743.8</ele>
        <time>2019-01-07T17:18:36Z</time>
      </trkpt>
      <trkpt lat="42.39561" lon="2.11715">
        <ele>2744.3</ele>
        <time>2019-01-07T17:18:46Z</time>
      </trkpt>
      <trkpt lat="42.39555" lon="2.1171">
        <ele>2744.7</ele>
        <time>2019-01-07T17:18:48Z</time>
      </trkpt>
      <trkpt lat="42.39552" lon="2.11704">
        <ele>2744.5</ele>
        <time>2019-01-07T17:18:50Z</time>
      </trkpt>
      <trkpt lat="42.39548" lon="2.11701">
        <ele>2743.9</ele>
        <time>2019-01-07T17:18:51Z</time>
      </trkpt>
      <trkpt lat="42.39546" lon="2.11696">
        <ele>2745</ele>
        <time>2019-01-07T17:18:52Z</time>
      </trkpt>
      <trkpt lat="42.39541" lon="2.11686">
        <ele>2747.4</ele>
        <time>2019-01-07T17:18:55Z</time>
      </trkpt>
      <trkpt lat="42.3954" lon="2.11685">
        <ele>2747.4</ele>
        <time>2019-01-07T17:18:55Z</time>
      </trkpt>
      <trkpt lat="42.39538" lon="2.1168">
        <ele>2748.9</ele>
        <time>2019-01-07T17:18:56Z</time>
      </trkpt>
      <trkpt lat="42.39537" lon="2.11679">
        <ele>2749.5</ele>
        <time>2019-01-07T17:18:56Z</time>
      </trkpt>
      <trkpt lat="42.39535" lon="2.11676">
        <ele>2750.3</ele>
        <time>2019-01-07T17:18:57Z</time>
      </trkpt>
      <trkpt lat="42.39532" lon="2.11658">
        <ele>2756.3</ele>
        <time>2019-01-07T17:19:01Z</time>
      </trkpt>
      <trkpt lat="42.39528" lon="2.11659">
        <ele>2756.1</ele>
        <time>2019-01-07T17:19:02Z</time>
      </trkpt>
      <trkpt lat="42.39526" lon="2.11658">
        <ele>2755.2</ele>
        <time>2019-01-07T17:19:02Z</time>
      </trkpt>
      <trkpt lat="42.39525" lon="2.11655">
        <ele>2755.8</ele>
        <time>2019-01-07T17:19:03Z</time>
      </trkpt>
      <trkpt lat="42.39526" lon="2.1165">
        <ele>2757.2</ele>
        <time>2019-01-07T17:19:04Z</time>
      </trkpt>
      <trkpt lat="42.39523" lon="2.1162">
        <ele>2762.2</ele>
        <time>2019-01-07T17:19:10Z</time>
      </trkpt>
      <trkpt lat="42.3952" lon="2.11614">
        <ele>2762.3</ele>
        <time>2019-01-07T17:19:11Z</time>
      </trkpt>
      <trkpt lat="42.39517" lon="2.11599">
        <ele>2766</ele>
        <time>2019-01-07T17:19:14Z</time>
      </trkpt>
      <trkpt lat="42.39523" lon="2.11595">
        <ele>2768.3</ele>
        <time>2019-01-07T17:19:16Z</time>
      </trkpt>
      <trkpt lat="42.39515" lon="2.11579">
        <ele>2772.8</ele>
        <time>2019-01-07T17:19:20Z</time>
      </trkpt>
      <trkpt lat="42.39511" lon="2.11575">
        <ele>2774.1</ele>
        <time>2019-01-07T17:19:21Z</time>
      </trkpt>
      <trkpt lat="42.3951" lon="2.11572">
        <ele>2775.1</ele>
        <time>2019-01-07T17:19:22Z</time>
      </trkpt>
      <trkpt lat="42.39506" lon="2.11569">
        <ele>2776.8</ele>
        <time>2019-01-07T17:19:23Z</time>
      </trkpt>
      <trkpt lat="42.39501" lon="2.11567">
        <ele>2777.5</ele>
        <time>2019-01-07T17:19:24Z</time>
      </trkpt>
      <trkpt lat="42.395" lon="2.11568">
        <ele>2777.5</ele>
        <time>2019-01-07T17:19:25Z</time>
      </trkpt>
      <trkpt lat="42.39491" lon="2.11566">
        <ele>2778.1</ele>
        <time>2019-01-07T17:19:27Z</time>
      </trkpt>
      <trkpt lat="42.39489" lon="2.11566">
        <ele>2778.1</ele>
        <time>2019-01-07T17:19:28Z</time>
      </trkpt>
      <trkpt lat="42.39474" lon="2.11543">
        <ele>2787.9</ele>
        <time>2019-01-07T17:19:34Z</time>
      </trkpt>
      <trkpt lat="42.39449" lon="2.1151">
        <ele>2800.7</ele>
        <time>2019-01-07T17:19:43Z</time>
      </trkpt>
      <trkpt lat="42.39413" lon="2.11486">
        <ele>2803.7</ele>
        <time>2019-01-07T17:19:54Z</time>
      </trkpt>
      <trkpt lat="42.39405" lon="2.11481">
        <ele>2803.9</ele>
        <time>2019-01-07T17:19:56Z</time>
      </trkpt>
      <trkpt lat="42.39388" lon="2.1149">
        <ele>2805.5</ele>
        <time>2019-01-07T17:20:01Z</time>
      </trkpt>
      <trkpt lat="42.39384" lon="2.11492">
        <ele>2805.2</ele>
        <time>2019-01-07T17:20:02Z</time>
      </trkpt>
      <trkpt lat="42.39368" lon="2.11495">
        <ele>2803.3</ele>
        <time>2019-01-07T17:20:06Z</time>
      </trkpt>
      <trkpt lat="42.39355" lon="2.11491">
        <ele>2800.5</ele>
        <time>2019-01-07T17:20:10Z</time>
      </trkpt>
      <trkpt lat="42.39275" lon="2.11466">
        <ele>2791.8</ele>
        <time>2019-01-07T17:20:32Z</time>
      </trkpt>
      <trkpt lat="42.39255" lon="2.11472">
        <ele>2790.9</ele>
        <time>2019-01-07T17:20:37Z</time>
      </trkpt>
      <trkpt lat="42.3924" lon="2.11473">
        <ele>2790</ele>
        <time>2019-01-07T17:20:41Z</time>
      </trkpt>
      <trkpt lat="42.39186" lon="2.11458">
        <ele>2784.7</ele>
        <time>2019-01-07T17:20:56Z</time>
      </trkpt>
      <trkpt lat="42.39129" lon="2.11443">
        <ele>2783.2</ele>
        <time>2019-01-07T17:21:11Z</time>
      </trkpt>
      <trkpt lat="42.39093" lon="2.11438">
        <ele>2784.8</ele>
        <time>2019-01-07T17:21:21Z</time>
      </trkpt>
      <trkpt lat="42.39045" lon="2.11446">
        <ele>2785.1</ele>
        <time>2019-01-07T17:21:34Z</time>
      </trkpt>
      <trkpt lat="42.38989" lon="2.11445">
        <ele>2776.1</ele>
        <time>2019-01-07T17:21:49Z</time>
      </trkpt>
      <trkpt lat="42.38942" lon="2.11455">
        <ele>2767.7</ele>
        <time>2019-01-07T17:22:02Z</time>
      </trkpt>
      <trkpt lat="42.3893" lon="2.11457">
        <ele>2765.7</ele>
        <time>2019-01-07T17:22:05Z</time>
      </trkpt>
      <trkpt lat="42.38906" lon="2.11454">
        <ele>2763.2</ele>
        <time>2019-01-07T17:22:12Z</time>
      </trkpt>
      <trkpt lat="42.38875" lon="2.11459">
        <ele>2762.7</ele>
        <time>2019-01-07T17:22:20Z</time>
      </trkpt>
      <trkpt lat="42.38852" lon="2.11474">
        <ele>2766.3</ele>
        <time>2019-01-07T17:22:27Z</time>
      </trkpt>
      <trkpt lat="42.3883" lon="2.11482">
        <ele>2769.9</ele>
        <time>2019-01-07T17:22:33Z</time>
      </trkpt>
      <trkpt lat="42.38815" lon="2.11488">
        <ele>2774.2</ele>
        <time>2019-01-07T17:22:37Z</time>
      </trkpt>
      <trkpt lat="42.38787" lon="2.11496">
        <ele>2782.3</ele>
        <time>2019-01-07T17:22:45Z</time>
      </trkpt>
      <trkpt lat="42.38779" lon="2.11495">
        <ele>2783.9</ele>
        <time>2019-01-07T17:22:47Z</time>
      </trkpt>
      <trkpt lat="42.38772" lon="2.11497">
        <ele>2785.5</ele>
        <time>2019-01-07T17:22:48Z</time>
      </trkpt>
      <trkpt lat="42.38755" lon="2.11493">
        <ele>2788.3</ele>
        <time>2019-01-07T17:22:53Z</time>
      </trkpt>
      <trkpt lat="42.38741" lon="2.11489">
        <ele>2790.1</ele>
        <time>2019-01-07T17:22:57Z</time>
      </trkpt>
      <trkpt lat="42.38733" lon="2.11491">
        <ele>2792.1</ele>
        <time>2019-01-07T17:22:59Z</time>
      </trkpt>
      <trkpt lat="42.38723" lon="2.11502">
        <ele>2796.8</ele>
        <time>2019-01-07T17:23:03Z</time>
      </trkpt>
      <trkpt lat="42.38713" lon="2.115">
        <ele>2799.2</ele>
        <time>2019-01-07T17:23:05Z</time>
      </trkpt>
      <trkpt lat="42.38703" lon="2.115">
        <ele>2801.3</ele>
        <time>2019-01-07T17:23:08Z</time>
      </trkpt>
      <trkpt lat="42.38699" lon="2.115">
        <ele>2801.9</ele>
        <time>2019-01-07T17:23:09Z</time>
      </trkpt>
      <trkpt lat="42.38696" lon="2.11501">
        <ele>2802.7</ele>
        <time>2019-01-07T17:23:10Z</time>
      </trkpt>
      <trkpt lat="42.38691" lon="2.11502">
        <ele>2803.7</ele>
        <time>2019-01-07T17:23:11Z</time>
      </trkpt>
      <trkpt lat="42.38681" lon="2.11504">
        <ele>2805.9</ele>
        <time>2019-01-07T17:23:14Z</time>
      </trkpt>
      <trkpt lat="42.38658" lon="2.11504">
        <ele>2809.9</ele>
        <time>2019-01-07T17:23:20Z</time>
      </trkpt>
      <trkpt lat="42.38654" lon="2.11506">
        <ele>2810.5</ele>
        <time>2019-01-07T17:23:21Z</time>
      </trkpt>
      <trkpt lat="42.38652" lon="2.11505">
        <ele>2810.6</ele>
        <time>2019-01-07T17:23:21Z</time>
      </trkpt>
      <trkpt lat="42.38642" lon="2.11508">
        <ele>2812.1</ele>
        <time>2019-01-07T17:23:24Z</time>
      </trkpt>
      <trkpt lat="42.3862" lon="2.11518">
        <ele>2816.2</ele>
        <time>2019-01-07T17:23:31Z</time>
      </trkpt>
      <trkpt lat="42.3861" lon="2.11523">
        <ele>2818</ele>
        <time>2019-01-07T17:23:33Z</time>
      </trkpt>
      <trkpt lat="42.38606" lon="2.11528">
        <ele>2818.7</ele>
        <time>2019-01-07T17:23:35Z</time>
      </trkpt>
      <trkpt lat="42.38594" lon="2.11536">
        <ele>2820.3</ele>
        <time>2019-01-07T17:23:38Z</time>
      </trkpt>
      <trkpt lat="42.38591" lon="2.11535">
        <ele>2820.9</ele>
        <time>2019-01-07T17:23:39Z</time>
      </trkpt>
      <trkpt lat="42.38575" lon="2.11539">
        <ele>2825</ele>
        <time>2019-01-07T17:23:43Z</time>
      </trkpt>
      <trkpt lat="42.38555" lon="2.11541">
        <ele>2831.4</ele>
        <time>2019-01-07T17:23:49Z</time>
      </trkpt>
      <trkpt lat="42.38552" lon="2.11537">
        <ele>2832.6</ele>
        <time>2019-01-07T17:23:50Z</time>
      </trkpt>
      <trkpt lat="42.38548" lon="2.11534">
        <ele>2833.8</ele>
        <time>2019-01-07T17:23:51Z</time>
      </trkpt>
      <trkpt lat="42.38547" lon="2.11533">
        <ele>2834</ele>
        <time>2019-01-07T17:23:51Z</time>
      </trkpt>
      <trkpt lat="42.38523" lon="2.11551">
        <ele>2843.7</ele>
        <time>2019-01-07T17:23:59Z</time>
      </trkpt>
      <trkpt lat="42.38503" lon="2.11565">
        <ele>2852.2</ele>
        <time>2019-01-07T17:24:05Z</time>
      </trkpt>
      <trkpt lat="42.38475" lon="2.1156">
        <ele>2860.3</ele>
        <time>2019-01-07T17:24:12Z</time>
      </trkpt>
      <trkpt lat="42.38471" lon="2.11563">
        <ele>2861.3</ele>
        <time>2019-01-07T17:24:14Z</time>
      </trkpt>
      <trkpt lat="42.38439" lon="2.11573">
        <ele>2872</ele>
        <time>2019-01-07T17:24:22Z</time>
      </trkpt>
      <trkpt lat="42.38436" lon="2.11572">
        <ele>2873</ele>
        <time>2019-01-07T17:24:23Z</time>
      </trkpt>
      <trkpt lat="42.38433" lon="2.1157">
        <ele>2874</ele>
        <time>2019-01-07T17:24:24Z</time>
      </trkpt>
      <trkpt lat="42.38406" lon="2.11563">
        <ele>2879.4</ele>
        <time>2019-01-07T17:24:31Z</time>
      </trkpt>
      <trkpt lat="42.38406" lon="2.11566">
        <ele>2880.4</ele>
        <time>2019-01-07T17:24:32Z</time>
      </trkpt>
      <trkpt lat="42.38392" lon="2.11601">
        <ele>2890.2</ele>
        <time>2019-01-07T17:24:40Z</time>
      </trkpt>
      <trkpt lat="42.38391" lon="2.11609">
        <ele>2892</ele>
        <time>2019-01-07T17:24:41Z</time>
      </trkpt>
      <trkpt lat="42.3839" lon="2.11609">
        <ele>2892.3</ele>
        <time>2019-01-07T17:24:42Z</time>
      </trkpt>
      <trkpt lat="42.38347" lon="2.11652">
        <ele>2901.2</ele>
        <time>2019-01-07T17:24:56Z</time>
      </trkpt>
      <trkpt lat="42.38333" lon="2.1168">
        <ele>2905.4</ele>
        <time>2019-01-07T17:25:03Z</time>
      </trkpt>
      <trkpt lat="42.38332" lon="2.11699">
        <ele>2905.5</ele>
        <time>2019-01-07T17:25:06Z</time>
      </trkpt>
      <trkpt lat="42.3833" lon="2.11701">
        <ele>2905.2</ele>
        <time>2019-01-07T17:25:07Z</time>
      </trkpt>
      <trkpt lat="42.3833" lon="2.11703">
        <ele>2904.9</ele>
        <time>2019-01-07T17:25:07Z</time>
      </trkpt>
      <trkpt lat="42.38331" lon="2.11713">
        <ele>2904.3</ele>
        <time>2019-01-07T17:25:09Z</time>
      </trkpt>
      <trkpt lat="42.38332" lon="2.11714">
        <ele>2904.4</ele>
        <time>2019-01-07T17:25:10Z</time>
      </trkpt>
      <trkpt lat="42.38334" lon="2.11728">
        <ele>2903.2</ele>
        <time>2019-01-07T17:25:12Z</time>
      </trkpt>
      <trkpt lat="42.38336" lon="2.11736">
        <ele>2901.9</ele>
        <time>2019-01-07T17:25:14Z</time>
      </trkpt>
      <trkpt lat="42.38341" lon="2.11743">
        <ele>2900.4</ele>
        <time>2019-01-07T17:25:16Z</time>
      </trkpt>
      <trkpt lat="42.38344" lon="2.11745">
        <ele>2899.7</ele>
        <time>2019-01-07T17:25:17Z</time>
      </trkpt>
      <trkpt lat="42.38349" lon="2.11749">
        <ele>2898.4</ele>
        <time>2019-01-07T17:25:19Z</time>
      </trkpt>
      <trkpt lat="42.38349" lon="2.11751">
        <ele>2898</ele>
        <time>2019-01-07T17:25:19Z</time>
      </trkpt>
      <trkpt lat="42.38348" lon="2.11759">
        <ele>2896.1</ele>
        <time>2019-01-07T17:25:21Z</time>
      </trkpt>
      <trkpt lat="42.38347" lon="2.11776">
        <ele>2892</ele>
        <time>2019-01-07T17:25:24Z</time>
      </trkpt>
      <trkpt lat="42.38395" lon="2.11872">
        <ele>2887.1</ele>
        <time>2019-01-07T17:25:47Z</time>
      </trkpt>
      <trkpt lat="42.38411" lon="2.11894">
        <ele>2881.1</ele>
        <time>2019-01-07T17:25:53Z</time>
      </trkpt>
      <trkpt lat="42.38414" lon="2.11895">
        <ele>2879.6</ele>
        <time>2019-01-07T17:25:54Z</time>
      </trkpt>
      <trkpt lat="42.38418" lon="2.119">
        <ele>2877.7</ele>
        <time>2019-01-07T17:25:55Z</time>
      </trkpt>
      <trkpt lat="42.38418" lon="2.11901">
        <ele>2877.1</ele>
        <time>2019-01-07T17:25:55Z</time>
      </trkpt>
      <trkpt lat="42.3842" lon="2.11903">
        <ele>2875.5</ele>
        <time>2019-01-07T17:25:56Z</time>
      </trkpt>
      <trkpt lat="42.38424" lon="2.11906">
        <ele>2872.6</ele>
        <time>2019-01-07T17:25:57Z</time>
      </trkpt>
      <trkpt lat="42.38431" lon="2.11906">
        <ele>2869</ele>
        <time>2019-01-07T17:25:59Z</time>
      </trkpt>
      <trkpt lat="42.38431" lon="2.11912">
        <ele>2868.1</ele>
        <time>2019-01-07T17:26:00Z</time>
      </trkpt>
      <trkpt lat="42.38433" lon="2.11925">
        <ele>2865.2</ele>
        <time>2019-01-07T17:26:03Z</time>
      </trkpt>
      <trkpt lat="42.38436" lon="2.11928">
        <ele>2862.8</ele>
        <time>2019-01-07T17:26:04Z</time>
      </trkpt>
      <trkpt lat="42.38439" lon="2.1193">
        <ele>2861</ele>
        <time>2019-01-07T17:26:05Z</time>
      </trkpt>
      <trkpt lat="42.38441" lon="2.11934">
        <ele>2859.2</ele>
        <time>2019-01-07T17:26:06Z</time>
      </trkpt>
      <trkpt lat="42.38443" lon="2.11937">
        <ele>2858</ele>
        <time>2019-01-07T17:26:07Z</time>
      </trkpt>
      <trkpt lat="42.3845" lon="2.11933">
        <ele>2855</ele>
        <time>2019-01-07T17:26:08Z</time>
      </trkpt>
      <trkpt lat="42.38454" lon="2.11934">
        <ele>2852.7</ele>
        <time>2019-01-07T17:26:10Z</time>
      </trkpt>
      <trkpt lat="42.38457" lon="2.1194">
        <ele>2850.6</ele>
        <time>2019-01-07T17:26:11Z</time>
      </trkpt>
      <trkpt lat="42.38466" lon="2.11956">
        <ele>2844.1</ele>
        <time>2019-01-07T17:26:15Z</time>
      </trkpt>
      <trkpt lat="42.38464" lon="2.11958">
        <ele>2844.5</ele>
        <time>2019-01-07T17:26:16Z</time>
      </trkpt>
      <trkpt lat="42.38464" lon="2.1197">
        <ele>2842.8</ele>
        <time>2019-01-07T17:26:18Z</time>
      </trkpt>
      <trkpt lat="42.38468" lon="2.11968">
        <ele>2841.3</ele>
        <time>2019-01-07T17:26:19Z</time>
      </trkpt>
      <trkpt lat="42.3847" lon="2.11972">
        <ele>2840</ele>
        <time>2019-01-07T17:26:20Z</time>
      </trkpt>
      <trkpt lat="42.38473" lon="2.11979">
        <ele>2837</ele>
        <time>2019-01-07T17:26:22Z</time>
      </trkpt>
      <trkpt lat="42.38505" lon="2.12008">
        <ele>2824</ele>
        <time>2019-01-07T17:26:32Z</time>
      </trkpt>
      <trkpt lat="42.38524" lon="2.12017">
        <ele>2815.9</ele>
        <time>2019-01-07T17:26:37Z</time>
      </trkpt>
      <trkpt lat="42.38525" lon="2.12018">
        <ele>2815.5</ele>
        <time>2019-01-07T17:26:38Z</time>
      </trkpt>
      <trkpt lat="42.3853" lon="2.12027">
        <ele>2813.4</ele>
        <time>2019-01-07T17:26:40Z</time>
      </trkpt>
      <trkpt lat="42.38536" lon="2.12027">
        <ele>2810.9</ele>
        <time>2019-01-07T17:26:41Z</time>
      </trkpt>
      <trkpt lat="42.38541" lon="2.12022">
        <ele>2808.9</ele>
        <time>2019-01-07T17:26:43Z</time>
      </trkpt>
      <trkpt lat="42.38553" lon="2.12026">
        <ele>2804.2</ele>
        <time>2019-01-07T17:26:46Z</time>
      </trkpt>
      <trkpt lat="42.38555" lon="2.12026">
        <ele>2803.4</ele>
        <time>2019-01-07T17:26:47Z</time>
      </trkpt>
      <trkpt lat="42.38564" lon="2.12007">
        <ele>2800.3</ele>
        <time>2019-01-07T17:26:51Z</time>
      </trkpt>
      <trkpt lat="42.38566" lon="2.12004">
        <ele>2799.8</ele>
        <time>2019-01-07T17:26:52Z</time>
      </trkpt>
      <trkpt lat="42.38574" lon="2.12002">
        <ele>2797.6</ele>
        <time>2019-01-07T17:26:54Z</time>
      </trkpt>
      <trkpt lat="42.3859" lon="2.1201">
        <ele>2792</ele>
        <time>2019-01-07T17:26:59Z</time>
      </trkpt>
      <trkpt lat="42.38592" lon="2.12012">
        <ele>2791.6</ele>
        <time>2019-01-07T17:26:59Z</time>
      </trkpt>
      <trkpt lat="42.38601" lon="2.12019">
        <ele>2787.8</ele>
        <time>2019-01-07T17:27:02Z</time>
      </trkpt>
      <trkpt lat="42.38602" lon="2.12021">
        <ele>2787.2</ele>
        <time>2019-01-07T17:27:03Z</time>
      </trkpt>
      <trkpt lat="42.38605" lon="2.12024">
        <ele>2785.5</ele>
        <time>2019-01-07T17:27:04Z</time>
      </trkpt>
      <trkpt lat="42.3861" lon="2.12025">
        <ele>2783.9</ele>
        <time>2019-01-07T17:27:05Z</time>
      </trkpt>
      <trkpt lat="42.3862" lon="2.12023">
        <ele>2781.1</ele>
        <time>2019-01-07T17:27:08Z</time>
      </trkpt>
      <trkpt lat="42.38623" lon="2.12024">
        <ele>2780.1</ele>
        <time>2019-01-07T17:27:09Z</time>
      </trkpt>
      <trkpt lat="42.38628" lon="2.12027">
        <ele>2777.6</ele>
        <time>2019-01-07T17:27:10Z</time>
      </trkpt>
      <trkpt lat="42.38634" lon="2.12028">
        <ele>2775.5</ele>
        <time>2019-01-07T17:27:12Z</time>
      </trkpt>
      <trkpt lat="42.38635" lon="2.1203">
        <ele>2774.5</ele>
        <time>2019-01-07T17:27:12Z</time>
      </trkpt>
      <trkpt lat="42.38636" lon="2.12034">
        <ele>2772.9</ele>
        <time>2019-01-07T17:27:13Z</time>
      </trkpt>
      <trkpt lat="42.38637" lon="2.12039">
        <ele>2771.2</ele>
        <time>2019-01-07T17:27:14Z</time>
      </trkpt>
      <trkpt lat="42.38638" lon="2.12043">
        <ele>2769.4</ele>
        <time>2019-01-07T17:27:15Z</time>
      </trkpt>
      <trkpt lat="42.38641" lon="2.12044">
        <ele>2767.8</ele>
        <time>2019-01-07T17:27:16Z</time>
      </trkpt>
      <trkpt lat="42.38644" lon="2.12047">
        <ele>2765.8</ele>
        <time>2019-01-07T17:27:17Z</time>
      </trkpt>
      <trkpt lat="42.38645" lon="2.12051">
        <ele>2764.4</ele>
        <time>2019-01-07T17:27:17Z</time>
      </trkpt>
      <trkpt lat="42.38655" lon="2.1206">
        <ele>2757.9</ele>
        <time>2019-01-07T17:27:21Z</time>
      </trkpt>
      <trkpt lat="42.38655" lon="2.12062">
        <ele>2757.2</ele>
        <time>2019-01-07T17:27:21Z</time>
      </trkpt>
      <trkpt lat="42.38655" lon="2.12072">
        <ele>2754.9</ele>
        <time>2019-01-07T17:27:23Z</time>
      </trkpt>
      <trkpt lat="42.3866" lon="2.12082">
        <ele>2750.9</ele>
        <time>2019-01-07T17:27:25Z</time>
      </trkpt>
      <trkpt lat="42.38664" lon="2.12083">
        <ele>2749.1</ele>
        <time>2019-01-07T17:27:27Z</time>
      </trkpt>
      <trkpt lat="42.38664" lon="2.12085">
        <ele>2748.8</ele>
        <time>2019-01-07T17:27:27Z</time>
      </trkpt>
      <trkpt lat="42.38691" lon="2.1214">
        <ele>2726.6</ele>
        <time>2019-01-07T17:27:40Z</time>
      </trkpt>
      <trkpt lat="42.38694" lon="2.12152">
        <ele>2723</ele>
        <time>2019-01-07T17:27:43Z</time>
      </trkpt>
      <trkpt lat="42.38705" lon="2.12188">
        <ele>2709.8</ele>
        <time>2019-01-07T17:27:50Z</time>
      </trkpt>
      <trkpt lat="42.38712" lon="2.12196">
        <ele>2703.2</ele>
        <time>2019-01-07T17:27:53Z</time>
      </trkpt>
      <trkpt lat="42.38713" lon="2.12199">
        <ele>2701.7</ele>
        <time>2019-01-07T17:27:53Z</time>
      </trkpt>
      <trkpt lat="42.38715" lon="2.12204">
        <ele>2698.6</ele>
        <time>2019-01-07T17:27:55Z</time>
      </trkpt>
      <trkpt lat="42.38719" lon="2.12224">
        <ele>2690.5</ele>
        <time>2019-01-07T17:27:59Z</time>
      </trkpt>
      <trkpt lat="42.38724" lon="2.12231">
        <ele>2686.2</ele>
        <time>2019-01-07T17:28:01Z</time>
      </trkpt>
      <trkpt lat="42.38742" lon="2.12256">
        <ele>2675.6</ele>
        <time>2019-01-07T17:28:07Z</time>
      </trkpt>
      <trkpt lat="42.38748" lon="2.12261">
        <ele>2673.1</ele>
        <time>2019-01-07T17:28:09Z</time>
      </trkpt>
      <trkpt lat="42.38759" lon="2.12263">
        <ele>2667.8</ele>
        <time>2019-01-07T17:28:12Z</time>
      </trkpt>
      <trkpt lat="42.38773" lon="2.12268">
        <ele>2661.7</ele>
        <time>2019-01-07T17:28:16Z</time>
      </trkpt>
      <trkpt lat="42.38777" lon="2.12266">
        <ele>2659.8</ele>
        <time>2019-01-07T17:28:17Z</time>
      </trkpt>
      <trkpt lat="42.38784" lon="2.12269">
        <ele>2657.3</ele>
        <time>2019-01-07T17:28:19Z</time>
      </trkpt>
      <trkpt lat="42.38785" lon="2.1227">
        <ele>2657.3</ele>
        <time>2019-01-07T17:28:20Z</time>
      </trkpt>
      <trkpt lat="42.38795" lon="2.12287">
        <ele>2653.7</ele>
        <time>2019-01-07T17:28:24Z</time>
      </trkpt>
      <trkpt lat="42.38806" lon="2.12297">
        <ele>2648.4</ele>
        <time>2019-01-07T17:28:27Z</time>
      </trkpt>
      <trkpt lat="42.38818" lon="2.12301">
        <ele>2643.4</ele>
        <time>2019-01-07T17:28:31Z</time>
      </trkpt>
      <trkpt lat="42.38831" lon="2.12322">
        <ele>2637.4</ele>
        <time>2019-01-07T17:28:36Z</time>
      </trkpt>
      <trkpt lat="42.38833" lon="2.12326">
        <ele>2636.4</ele>
        <time>2019-01-07T17:28:37Z</time>
      </trkpt>
      <trkpt lat="42.38837" lon="2.12333">
        <ele>2635</ele>
        <time>2019-01-07T17:28:39Z</time>
      </trkpt>
      <trkpt lat="42.38849" lon="2.12357">
        <ele>2629.4</ele>
        <time>2019-01-07T17:28:45Z</time>
      </trkpt>
      <trkpt lat="42.38856" lon="2.12358">
        <ele>2626.9</ele>
        <time>2019-01-07T17:28:46Z</time>
      </trkpt>
      <trkpt lat="42.38865" lon="2.12377">
        <ele>2621.2</ele>
        <time>2019-01-07T17:28:51Z</time>
      </trkpt>
      <trkpt lat="42.38867" lon="2.12378">
        <ele>2620.2</ele>
        <time>2019-01-07T17:28:51Z</time>
      </trkpt>
      <trkpt lat="42.38877" lon="2.12402">
        <ele>2612</ele>
        <time>2019-01-07T17:28:57Z</time>
      </trkpt>
      <trkpt lat="42.38881" lon="2.12408">
        <ele>2609.7</ele>
        <time>2019-01-07T17:28:58Z</time>
      </trkpt>
      <trkpt lat="42.38884" lon="2.1241">
        <ele>2608.2</ele>
        <time>2019-01-07T17:28:59Z</time>
      </trkpt>
      <trkpt lat="42.38894" lon="2.12424">
        <ele>2602</ele>
        <time>2019-01-07T17:29:03Z</time>
      </trkpt>
      <trkpt lat="42.38898" lon="2.12432">
        <ele>2599.1</ele>
        <time>2019-01-07T17:29:05Z</time>
      </trkpt>
      <trkpt lat="42.38905" lon="2.12431">
        <ele>2596.2</ele>
        <time>2019-01-07T17:29:07Z</time>
      </trkpt>
      <trkpt lat="42.38916" lon="2.12447">
        <ele>2590.1</ele>
        <time>2019-01-07T17:29:11Z</time>
      </trkpt>
      <trkpt lat="42.38922" lon="2.12448">
        <ele>2587.1</ele>
        <time>2019-01-07T17:29:13Z</time>
      </trkpt>
      <trkpt lat="42.38924" lon="2.12449">
        <ele>2586.3</ele>
        <time>2019-01-07T17:29:13Z</time>
      </trkpt>
      <trkpt lat="42.38934" lon="2.12447">
        <ele>2582.1</ele>
        <time>2019-01-07T17:29:16Z</time>
      </trkpt>
      <trkpt lat="42.38938" lon="2.12446">
        <ele>2580.7</ele>
        <time>2019-01-07T17:29:17Z</time>
      </trkpt>
      <trkpt lat="42.38955" lon="2.12447">
        <ele>2573.5</ele>
        <time>2019-01-07T17:29:22Z</time>
      </trkpt>
      <trkpt lat="42.38957" lon="2.12447">
        <ele>2572.9</ele>
        <time>2019-01-07T17:29:22Z</time>
      </trkpt>
      <trkpt lat="42.38962" lon="2.12446">
        <ele>2570.7</ele>
        <time>2019-01-07T17:29:24Z</time>
      </trkpt>
      <trkpt lat="42.38968" lon="2.12442">
        <ele>2569.3</ele>
        <time>2019-01-07T17:29:25Z</time>
      </trkpt>
      <trkpt lat="42.38971" lon="2.12451">
        <ele>2566.5</ele>
        <time>2019-01-07T17:29:27Z</time>
      </trkpt>
      <trkpt lat="42.38972" lon="2.12451">
        <ele>2565.9</ele>
        <time>2019-01-07T17:29:28Z</time>
      </trkpt>
      <trkpt lat="42.38975" lon="2.12458">
        <ele>2563.9</ele>
        <time>2019-01-07T17:29:29Z</time>
      </trkpt>
      <trkpt lat="42.38976" lon="2.12461">
        <ele>2563.2</ele>
        <time>2019-01-07T17:29:30Z</time>
      </trkpt>
      <trkpt lat="42.38978" lon="2.12467">
        <ele>2561.8</ele>
        <time>2019-01-07T17:29:31Z</time>
      </trkpt>
      <trkpt lat="42.38991" lon="2.12477">
        <ele>2556.9</ele>
        <time>2019-01-07T17:29:35Z</time>
      </trkpt>
      <trkpt lat="42.39037" lon="2.12507">
        <ele>2543.6</ele>
        <time>2019-01-07T17:29:49Z</time>
      </trkpt>
      <trkpt lat="42.39046" lon="2.12515">
        <ele>2539.1</ele>
        <time>2019-01-07T17:29:52Z</time>
      </trkpt>
      <trkpt lat="42.39054" lon="2.12515">
        <ele>2535.8</ele>
        <time>2019-01-07T17:29:54Z</time>
      </trkpt>
      <trkpt lat="42.39055" lon="2.12516">
        <ele>2535</ele>
        <time>2019-01-07T17:29:54Z</time>
      </trkpt>
      <trkpt lat="42.39065" lon="2.12514">
        <ele>2533.2</ele>
        <time>2019-01-07T17:29:57Z</time>
      </trkpt>
      <trkpt lat="42.3908" lon="2.12519">
        <ele>2529.7</ele>
        <time>2019-01-07T17:30:01Z</time>
      </trkpt>
      <trkpt lat="42.39083" lon="2.12524">
        <ele>2528.6</ele>
        <time>2019-01-07T17:30:02Z</time>
      </trkpt>
      <trkpt lat="42.39096" lon="2.12528">
        <ele>2528</ele>
        <time>2019-01-07T17:30:06Z</time>
      </trkpt>
      <trkpt lat="42.391" lon="2.12532">
        <ele>2527.4</ele>
        <time>2019-01-07T17:30:07Z</time>
      </trkpt>
      <trkpt lat="42.39104" lon="2.12543">
        <ele>2525.9</ele>
        <time>2019-01-07T17:30:10Z</time>
      </trkpt>
      <trkpt lat="42.39109" lon="2.12541">
        <ele>2526.3</ele>
        <time>2019-01-07T17:30:11Z</time>
      </trkpt>
      <trkpt lat="42.3911" lon="2.12579">
        <ele>2522.3</ele>
        <time>2019-01-07T17:30:19Z</time>
      </trkpt>
      <trkpt lat="42.39114" lon="2.12591">
        <ele>2520.6</ele>
        <time>2019-01-07T17:30:21Z</time>
      </trkpt>
      <trkpt lat="42.39123" lon="2.12609">
        <ele>2516.9</ele>
        <time>2019-01-07T17:30:26Z</time>
      </trkpt>
      <trkpt lat="42.39159" lon="2.12665">
        <ele>2505.3</ele>
        <time>2019-01-07T17:30:40Z</time>
      </trkpt>
      <trkpt lat="42.3917" lon="2.12688">
        <ele>2501</ele>
        <time>2019-01-07T17:30:46Z</time>
      </trkpt>
      <trkpt lat="42.39209" lon="2.1275">
        <ele>2487.1</ele>
        <time>2019-01-07T17:31:02Z</time>
      </trkpt>
      <trkpt lat="42.39248" lon="2.12808">
        <ele>2475.7</ele>
        <time>2019-01-07T17:31:17Z</time>
      </trkpt>
      <trkpt lat="42.3925" lon="2.12815">
        <ele>2474.4</ele>
        <time>2019-01-07T17:31:19Z</time>
      </trkpt>
      <trkpt lat="42.3927" lon="2.12879">
        <ele>2461.5</ele>
        <time>2019-01-07T17:31:32Z</time>
      </trkpt>
      <trkpt lat="42.39287" lon="2.12934">
        <ele>2453.4</ele>
        <time>2019-01-07T17:31:44Z</time>
      </trkpt>
      <trkpt lat="42.39304" lon="2.12987">
        <ele>2443.2</ele>
        <time>2019-01-07T17:31:55Z</time>
      </trkpt>
      <trkpt lat="42.39314" lon="2.13015">
        <ele>2438</ele>
        <time>2019-01-07T17:32:02Z</time>
      </trkpt>
      <trkpt lat="42.39358" lon="2.13044">
        <ele>2428.3</ele>
        <time>2019-01-07T17:32:15Z</time>
      </trkpt>
      <trkpt lat="42.39386" lon="2.13061">
        <ele>2422.1</ele>
        <time>2019-01-07T17:32:23Z</time>
      </trkpt>
      <trkpt lat="42.39394" lon="2.13069">
        <ele>2419.1</ele>
        <time>2019-01-07T17:32:26Z</time>
      </trkpt>
      <trkpt lat="42.3942" lon="2.131">
        <ele>2408.8</ele>
        <time>2019-01-07T17:32:35Z</time>
      </trkpt>
      <trkpt lat="42.39427" lon="2.13125">
        <ele>2403.7</ele>
        <time>2019-01-07T17:32:40Z</time>
      </trkpt>
      <trkpt lat="42.39442" lon="2.13146">
        <ele>2400</ele>
        <time>2019-01-07T17:32:46Z</time>
      </trkpt>
      <trkpt lat="42.395" lon="2.13175">
        <ele>2384.8</ele>
        <time>2019-01-07T17:33:02Z</time>
      </trkpt>
      <trkpt lat="42.3952" lon="2.13172">
        <ele>2379.3</ele>
        <time>2019-01-07T17:33:08Z</time>
      </trkpt>
      <trkpt lat="42.3952" lon="2.13174">
        <ele>2378.5</ele>
        <time>2019-01-07T17:33:08Z</time>
      </trkpt>
      <trkpt lat="42.39532" lon="2.13217">
        <ele>2365.8</ele>
        <time>2019-01-07T17:33:17Z</time>
      </trkpt>
      <trkpt lat="42.39523" lon="2.13229">
        <ele>2364.7</ele>
        <time>2019-01-07T17:33:21Z</time>
      </trkpt>
      <trkpt lat="42.39518" lon="2.13232">
        <ele>2365.3</ele>
        <time>2019-01-07T17:33:22Z</time>
      </trkpt>
      <trkpt lat="42.39518" lon="2.13234">
        <ele>2365.3</ele>
        <time>2019-01-07T17:33:22Z</time>
      </trkpt>
      <trkpt lat="42.39517" lon="2.13245">
        <ele>2364.6</ele>
        <time>2019-01-07T17:33:25Z</time>
      </trkpt>
      <trkpt lat="42.39519" lon="2.13248">
        <ele>2363.9</ele>
        <time>2019-01-07T17:33:25Z</time>
      </trkpt>
      <trkpt lat="42.39522" lon="2.13251">
        <ele>2362.6</ele>
        <time>2019-01-07T17:33:26Z</time>
      </trkpt>
      <trkpt lat="42.39526" lon="2.13256">
        <ele>2362</ele>
        <time>2019-01-07T17:33:28Z</time>
      </trkpt>
      <trkpt lat="42.39529" lon="2.13259">
        <ele>2362</ele>
        <time>2019-01-07T17:33:29Z</time>
      </trkpt>
      <trkpt lat="42.39537" lon="2.13262">
        <ele>2360.9</ele>
        <time>2019-01-07T17:33:31Z</time>
      </trkpt>
      <trkpt lat="42.39604" lon="2.13291">
        <ele>2350.8</ele>
        <time>2019-01-07T17:33:50Z</time>
      </trkpt>
      <trkpt lat="42.39607" lon="2.13296">
        <ele>2350.6</ele>
        <time>2019-01-07T17:33:51Z</time>
      </trkpt>
      <trkpt lat="42.39614" lon="2.13307">
        <ele>2350.4</ele>
        <time>2019-01-07T17:33:54Z</time>
      </trkpt>
      <trkpt lat="42.3962" lon="2.13315">
        <ele>2348.6</ele>
        <time>2019-01-07T17:33:56Z</time>
      </trkpt>
      <trkpt lat="42.39629" lon="2.13327">
        <ele>2345.8</ele>
        <time>2019-01-07T17:34:00Z</time>
      </trkpt>
      <trkpt lat="42.39638" lon="2.13329">
        <ele>2342.4</ele>
        <time>2019-01-07T17:34:02Z</time>
      </trkpt>
      <trkpt lat="42.39651" lon="2.13334">
        <ele>2338.3</ele>
        <time>2019-01-07T17:34:06Z</time>
      </trkpt>
      <trkpt lat="42.39657" lon="2.13333">
        <ele>2336.3</ele>
        <time>2019-01-07T17:34:07Z</time>
      </trkpt>
      <trkpt lat="42.39666" lon="2.13337">
        <ele>2333.8</ele>
        <time>2019-01-07T17:34:10Z</time>
      </trkpt>
      <trkpt lat="42.39668" lon="2.13338">
        <ele>2332.9</ele>
        <time>2019-01-07T17:34:10Z</time>
      </trkpt>
      <trkpt lat="42.39676" lon="2.13337">
        <ele>2330</ele>
        <time>2019-01-07T17:34:12Z</time>
      </trkpt>
      <trkpt lat="42.39707" lon="2.13381">
        <ele>2319.2</ele>
        <time>2019-01-07T17:34:24Z</time>
      </trkpt>
      <trkpt lat="42.39718" lon="2.13426">
        <ele>2308.9</ele>
        <time>2019-01-07T17:34:34Z</time>
      </trkpt>
      <trkpt lat="42.39717" lon="2.1345">
        <ele>2302.9</ele>
        <time>2019-01-07T17:34:38Z</time>
      </trkpt>
      <trkpt lat="42.39715" lon="2.13455">
        <ele>2302.2</ele>
        <time>2019-01-07T17:34:39Z</time>
      </trkpt>
      <trkpt lat="42.39717" lon="2.1346">
        <ele>2300.6</ele>
        <time>2019-01-07T17:34:40Z</time>
      </trkpt>
      <trkpt lat="42.39725" lon="2.13471">
        <ele>2295.7</ele>
        <time>2019-01-07T17:34:44Z</time>
      </trkpt>
      <trkpt lat="42.39729" lon="2.13472">
        <ele>2294.1</ele>
        <time>2019-01-07T17:34:45Z</time>
      </trkpt>
      <trkpt lat="42.39735" lon="2.13506">
        <ele>2284.6</ele>
        <time>2019-01-07T17:34:52Z</time>
      </trkpt>
      <trkpt lat="42.39733" lon="2.13526">
        <ele>2281.9</ele>
        <time>2019-01-07T17:34:56Z</time>
      </trkpt>
      <trkpt lat="42.39733" lon="2.13561">
        <ele>2276.4</ele>
        <time>2019-01-07T17:35:03Z</time>
      </trkpt>
      <trkpt lat="42.39734" lon="2.13593">
        <ele>2272.2</ele>
        <time>2019-01-07T17:35:09Z</time>
      </trkpt>
      <trkpt lat="42.39733" lon="2.13602">
        <ele>2271.8</ele>
        <time>2019-01-07T17:35:11Z</time>
      </trkpt>
      <trkpt lat="42.39735" lon="2.13618">
        <ele>2270.4</ele>
        <time>2019-01-07T17:35:14Z</time>
      </trkpt>
      <trkpt lat="42.39738" lon="2.1363">
        <ele>2268.6</ele>
        <time>2019-01-07T17:35:16Z</time>
      </trkpt>
      <trkpt lat="42.39754" lon="2.13633">
        <ele>2266.1</ele>
        <time>2019-01-07T17:35:21Z</time>
      </trkpt>
      <trkpt lat="42.39765" lon="2.13651">
        <ele>2265.5</ele>
        <time>2019-01-07T17:35:25Z</time>
      </trkpt>
      <trkpt lat="42.39785" lon="2.13686">
        <ele>2258.5</ele>
        <time>2019-01-07T17:35:34Z</time>
      </trkpt>
      <trkpt lat="42.39786" lon="2.13717">
        <ele>2252.3</ele>
        <time>2019-01-07T17:35:40Z</time>
      </trkpt>
      <trkpt lat="42.39787" lon="2.13719">
        <ele>2252.1</ele>
        <time>2019-01-07T17:35:40Z</time>
      </trkpt>
      <trkpt lat="42.39786" lon="2.13743">
        <ele>2246.8</ele>
        <time>2019-01-07T17:35:45Z</time>
      </trkpt>
      <trkpt lat="42.39786" lon="2.13747">
        <ele>2246</ele>
        <time>2019-01-07T17:35:46Z</time>
      </trkpt>
      <trkpt lat="42.39782" lon="2.13758">
        <ele>2241.5</ele>
        <time>2019-01-07T17:35:48Z</time>
      </trkpt>
      <trkpt lat="42.39773" lon="2.13761">
        <ele>2239.9</ele>
        <time>2019-01-07T17:35:51Z</time>
      </trkpt>
      <trkpt lat="42.39768" lon="2.13764">
        <ele>2240.3</ele>
        <time>2019-01-07T17:35:52Z</time>
      </trkpt>
      <trkpt lat="42.39767" lon="2.13766">
        <ele>2240.2</ele>
        <time>2019-01-07T17:35:52Z</time>
      </trkpt>
      <trkpt lat="42.39763" lon="2.13781">
        <ele>2238.4</ele>
        <time>2019-01-07T17:35:56Z</time>
      </trkpt>
      <trkpt lat="42.39764" lon="2.13791">
        <ele>2237</ele>
        <time>2019-01-07T17:35:58Z</time>
      </trkpt>
      <trkpt lat="42.39768" lon="2.13806">
        <ele>2232.9</ele>
        <time>2019-01-07T17:36:01Z</time>
      </trkpt>
      <trkpt lat="42.39775" lon="2.13823">
        <ele>2229.3</ele>
        <time>2019-01-07T17:36:05Z</time>
      </trkpt>
      <trkpt lat="42.39779" lon="2.13826">
        <ele>2227.7</ele>
        <time>2019-01-07T17:36:06Z</time>
      </trkpt>
      <trkpt lat="42.39786" lon="2.13833">
        <ele>2226.9</ele>
        <time>2019-01-07T17:36:08Z</time>
      </trkpt>
      <trkpt lat="42.39799" lon="2.1387">
        <ele>2218.9</ele>
        <time>2019-01-07T17:36:16Z</time>
      </trkpt>
      <trkpt lat="42.39804" lon="2.13883">
        <ele>2214.8</ele>
        <time>2019-01-07T17:36:19Z</time>
      </trkpt>
      <trkpt lat="42.39805" lon="2.13899">
        <ele>2212.8</ele>
        <time>2019-01-07T17:36:22Z</time>
      </trkpt>
      <trkpt lat="42.39818" lon="2.13949">
        <ele>2209.6</ele>
        <time>2019-01-07T17:36:33Z</time>
      </trkpt>
      <trkpt lat="42.39835" lon="2.14006">
        <ele>2206.9</ele>
        <time>2019-01-07T17:36:45Z</time>
      </trkpt>
      <trkpt lat="42.39841" lon="2.1406">
        <ele>2207</ele>
        <time>2019-01-07T17:36:56Z</time>
      </trkpt>
      <trkpt lat="42.39852" lon="2.14127">
        <ele>2206.9</ele>
        <time>2019-01-07T17:37:09Z</time>
      </trkpt>
      <trkpt lat="42.39849" lon="2.14193">
        <ele>2205.8</ele>
        <time>2019-01-07T17:37:22Z</time>
      </trkpt>
      <trkpt lat="42.39838" lon="2.14253">
        <ele>2204.2</ele>
        <time>2019-01-07T17:37:35Z</time>
      </trkpt>
      <trkpt lat="42.39818" lon="2.14301">
        <ele>2201.9</ele>
        <time>2019-01-07T17:37:45Z</time>
      </trkpt>
      <trkpt lat="42.39799" lon="2.14353">
        <ele>2191.2</ele>
        <time>2019-01-07T17:37:57Z</time>
      </trkpt>
      <trkpt lat="42.39797" lon="2.14366">
        <ele>2187.4</ele>
        <time>2019-01-07T17:37:59Z</time>
      </trkpt>
      <trkpt lat="42.39791" lon="2.14381">
        <ele>2182</ele>
        <time>2019-01-07T17:38:03Z</time>
      </trkpt>
      <trkpt lat="42.39777" lon="2.14419">
        <ele>2164.1</ele>
        <time>2019-01-07T17:38:11Z</time>
      </trkpt>
      <trkpt lat="42.39771" lon="2.14426">
        <ele>2162.2</ele>
        <time>2019-01-07T17:38:13Z</time>
      </trkpt>
      <trkpt lat="42.3977" lon="2.1443">
        <ele>2160.9</ele>
        <time>2019-01-07T17:38:14Z</time>
      </trkpt>
      <trkpt lat="42.39769" lon="2.14442">
        <ele>2157</ele>
        <time>2019-01-07T17:38:17Z</time>
      </trkpt>
      <trkpt lat="42.3977" lon="2.14444">
        <ele>2156.5</ele>
        <time>2019-01-07T17:38:17Z</time>
      </trkpt>
      <trkpt lat="42.39767" lon="2.14451">
        <ele>2154.1</ele>
        <time>2019-01-07T17:38:18Z</time>
      </trkpt>
      <trkpt lat="42.39767" lon="2.14452">
        <ele>2153.8</ele>
        <time>2019-01-07T17:38:19Z</time>
      </trkpt>
      <trkpt lat="42.39762" lon="2.14479">
        <ele>2143.8</ele>
        <time>2019-01-07T17:38:24Z</time>
      </trkpt>
      <trkpt lat="42.39762" lon="2.14488">
        <ele>2140.5</ele>
        <time>2019-01-07T17:38:26Z</time>
      </trkpt>
      <trkpt lat="42.39763" lon="2.14489">
        <ele>2139.9</ele>
        <time>2019-01-07T17:38:26Z</time>
      </trkpt>
      <trkpt lat="42.39764" lon="2.14494">
        <ele>2137.7</ele>
        <time>2019-01-07T17:38:27Z</time>
      </trkpt>
      <trkpt lat="42.39764" lon="2.14495">
        <ele>2137.4</ele>
        <time>2019-01-07T17:38:27Z</time>
      </trkpt>
      <trkpt lat="42.39757" lon="2.14519">
        <ele>2129.1</ele>
        <time>2019-01-07T17:38:32Z</time>
      </trkpt>
      <trkpt lat="42.39754" lon="2.1453">
        <ele>2125.4</ele>
        <time>2019-01-07T17:38:35Z</time>
      </trkpt>
      <trkpt lat="42.3975" lon="2.14538">
        <ele>2122.7</ele>
        <time>2019-01-07T17:38:37Z</time>
      </trkpt>
      <trkpt lat="42.39742" lon="2.1454">
        <ele>2122.8</ele>
        <time>2019-01-07T17:38:39Z</time>
      </trkpt>
      <trkpt lat="42.39737" lon="2.14544">
        <ele>2121.8</ele>
        <time>2019-01-07T17:38:40Z</time>
      </trkpt>
      <trkpt lat="42.39735" lon="2.14547">
        <ele>2121.1</ele>
        <time>2019-01-07T17:38:41Z</time>
      </trkpt>
      <trkpt lat="42.39731" lon="2.14578">
        <ele>2110.1</ele>
        <time>2019-01-07T17:38:47Z</time>
      </trkpt>
      <trkpt lat="42.39731" lon="2.1458">
        <ele>2109.4</ele>
        <time>2019-01-07T17:38:48Z</time>
      </trkpt>
      <trkpt lat="42.39731" lon="2.14594">
        <ele>2104.8</ele>
        <time>2019-01-07T17:38:50Z</time>
      </trkpt>
      <trkpt lat="42.39731" lon="2.14629">
        <ele>2096.2</ele>
        <time>2019-01-07T17:38:57Z</time>
      </trkpt>
      <trkpt lat="42.39738" lon="2.14646">
        <ele>2091.4</ele>
        <time>2019-01-07T17:39:01Z</time>
      </trkpt>
      <trkpt lat="42.39752" lon="2.14704">
        <ele>2084.1</ele>
        <time>2019-01-07T17:39:13Z</time>
      </trkpt>
      <trkpt lat="42.39762" lon="2.14712">
        <ele>2079.4</ele>
        <time>2019-01-07T17:39:16Z</time>
      </trkpt>
      <trkpt lat="42.39764" lon="2.14727">
        <ele>2076.6</ele>
        <time>2019-01-07T17:39:19Z</time>
      </trkpt>
      <trkpt lat="42.39765" lon="2.14744">
        <ele>2072.6</ele>
        <time>2019-01-07T17:39:22Z</time>
      </trkpt>
      <trkpt lat="42.39765" lon="2.1475">
        <ele>2071.1</ele>
        <time>2019-01-07T17:39:24Z</time>
      </trkpt>
      <trkpt lat="42.39766" lon="2.14753">
        <ele>2069.9</ele>
        <time>2019-01-07T17:39:24Z</time>
      </trkpt>
      <trkpt lat="42.39778" lon="2.14786">
        <ele>2057.1</ele>
        <time>2019-01-07T17:39:32Z</time>
      </trkpt>
      <trkpt lat="42.3978" lon="2.14791">
        <ele>2055.7</ele>
        <time>2019-01-07T17:39:33Z</time>
      </trkpt>
      <trkpt lat="42.39784" lon="2.14812">
        <ele>2050.3</ele>
        <time>2019-01-07T17:39:37Z</time>
      </trkpt>
      <trkpt lat="42.3978" lon="2.1483">
        <ele>2050.2</ele>
        <time>2019-01-07T17:39:41Z</time>
      </trkpt>
      <trkpt lat="42.39792" lon="2.14851">
        <ele>2041.9</ele>
        <time>2019-01-07T17:39:46Z</time>
      </trkpt>
      <trkpt lat="42.39795" lon="2.14862">
        <ele>2039</ele>
        <time>2019-01-07T17:39:48Z</time>
      </trkpt>
      <trkpt lat="42.39797" lon="2.14866">
        <ele>2037.4</ele>
        <time>2019-01-07T17:39:49Z</time>
      </trkpt>
      <trkpt lat="42.39797" lon="2.1488">
        <ele>2034.7</ele>
        <time>2019-01-07T17:39:52Z</time>
      </trkpt>
      <trkpt lat="42.39792" lon="2.14913">
        <ele>2028.8</ele>
        <time>2019-01-07T17:39:59Z</time>
      </trkpt>
      <trkpt lat="42.39791" lon="2.14927">
        <ele>2026.1</ele>
        <time>2019-01-07T17:40:01Z</time>
      </trkpt>
      <trkpt lat="42.39793" lon="2.14952">
        <ele>2019.4</ele>
        <time>2019-01-07T17:40:06Z</time>
      </trkpt>
      <trkpt lat="42.39789" lon="2.14968">
        <ele>2017.5</ele>
        <time>2019-01-07T17:40:10Z</time>
      </trkpt>
      <trkpt lat="42.39789" lon="2.14994">
        <ele>2011.7</ele>
        <time>2019-01-07T17:40:15Z</time>
      </trkpt>
      <trkpt lat="42.39777" lon="2.15024">
        <ele>2009.3</ele>
        <time>2019-01-07T17:40:21Z</time>
      </trkpt>
      <trkpt lat="42.39768" lon="2.15047">
        <ele>2005.8</ele>
        <time>2019-01-07T17:40:27Z</time>
      </trkpt>
      <trkpt lat="42.39768" lon="2.15049">
        <ele>2005.3</ele>
        <time>2019-01-07T17:40:27Z</time>
      </trkpt>
      <trkpt lat="42.39769" lon="2.15053">
        <ele>2003.7</ele>
        <time>2019-01-07T17:40:28Z</time>
      </trkpt>
      <trkpt lat="42.39768" lon="2.15064">
        <ele>2001.3</ele>
        <time>2019-01-07T17:40:30Z</time>
      </trkpt>
      <trkpt lat="42.39766" lon="2.15072">
        <ele>1999.3</ele>
        <time>2019-01-07T17:40:32Z</time>
      </trkpt>
      <trkpt lat="42.39765" lon="2.1508">
        <ele>1997.6</ele>
        <time>2019-01-07T17:40:33Z</time>
      </trkpt>
      <trkpt lat="42.39761" lon="2.151">
        <ele>1993.3</ele>
        <time>2019-01-07T17:40:37Z</time>
      </trkpt>
      <trkpt lat="42.39752" lon="2.15145">
        <ele>1986.2</ele>
        <time>2019-01-07T17:40:47Z</time>
      </trkpt>
      <trkpt lat="42.39749" lon="2.15166">
        <ele>1984.1</ele>
        <time>2019-01-07T17:40:51Z</time>
      </trkpt>
      <trkpt lat="42.39739" lon="2.15188">
        <ele>1978.7</ele>
        <time>2019-01-07T17:40:56Z</time>
      </trkpt>
      <trkpt lat="42.39749" lon="2.15198">
        <ele>1977</ele>
        <time>2019-01-07T17:40:59Z</time>
      </trkpt>
      <trkpt lat="42.39759" lon="2.15201">
        <ele>1974.8</ele>
        <time>2019-01-07T17:41:02Z</time>
      </trkpt>
      <trkpt lat="42.39752" lon="2.15208">
        <ele>1973.6</ele>
        <time>2019-01-07T17:41:04Z</time>
      </trkpt>
      <trkpt lat="42.39732" lon="2.1522">
        <ele>1969.7</ele>
        <time>2019-01-07T17:41:10Z</time>
      </trkpt>
      <trkpt lat="42.39709" lon="2.15219">
        <ele>1967.5</ele>
        <time>2019-01-07T17:41:16Z</time>
      </trkpt>
      <trkpt lat="42.39681" lon="2.15236">
        <ele>1961.3</ele>
        <time>2019-01-07T17:41:25Z</time>
      </trkpt>
      <trkpt lat="42.39637" lon="2.15248">
        <ele>1959.2</ele>
        <time>2019-01-07T17:41:36Z</time>
      </trkpt>
      <trkpt lat="42.39578" lon="2.15236">
        <ele>1959.1</ele>
        <time>2019-01-07T17:41:52Z</time>
      </trkpt>
      <trkpt lat="42.39535" lon="2.15234">
        <ele>1960.6</ele>
        <time>2019-01-07T17:42:04Z</time>
      </trkpt>
      <trkpt lat="42.39535" lon="2.15233">
        <ele>1960.9</ele>
        <time>2019-01-07T17:42:04Z</time>
      </trkpt>
      <trkpt lat="42.39539" lon="2.15231">
        <ele>1961.2</ele>
        <time>2019-01-07T17:42:05Z</time>
      </trkpt>
      <trkpt lat="42.39539" lon="2.15232">
        <ele>1960.8</ele>
        <time>2019-01-07T17:42:06Z</time>
      </trkpt>
      <trkpt lat="42.39538" lon="2.15222">
        <ele>1963.5</ele>
        <time>2019-01-07T17:42:08Z</time>
      </trkpt>
      <trkpt lat="42.39533" lon="2.1523">
        <ele>1961.9</ele>
        <time>2019-01-07T17:42:10Z</time>
      </trkpt>
      <trkpt lat="42.3953" lon="2.15236">
        <ele>1960.5</ele>
        <time>2019-01-07T17:42:11Z</time>
      </trkpt>
      <trkpt lat="42.39542" lon="2.15242">
        <ele>1958.4</ele>
        <time>2019-01-07T17:42:15Z</time>
      </trkpt>
      <trkpt lat="42.39644" lon="2.15273">
        <ele>1959.3</ele>
        <time>2019-01-07T17:42:43Z</time>
      </trkpt>
      <trkpt lat="42.39461" lon="2.15216">
        <ele>2025</ele>
        <time>2019-01-07T18:53:06Z</time>
      </trkpt>
      <trkpt lat="42.39471" lon="2.1522">
        <ele>2021</ele>
        <time>2019-01-07T18:53:08Z</time>
      </trkpt>
      <trkpt lat="42.39481" lon="2.15228">
        <ele>2021.1</ele>
        <time>2019-01-07T18:53:11Z</time>
      </trkpt>
      <trkpt lat="42.3949" lon="2.15233">
        <ele>2016.1</ele>
        <time>2019-01-07T18:53:14Z</time>
      </trkpt>
      <trkpt lat="42.39501" lon="2.15236">
        <ele>2016.1</ele>
        <time>2019-01-07T18:53:17Z</time>
      </trkpt>
      <trkpt lat="42.39511" lon="2.15235">
        <ele>2017</ele>
        <time>2019-01-07T18:53:20Z</time>
      </trkpt>
      <trkpt lat="42.3952" lon="2.15237">
        <ele>2015.1</ele>
        <time>2019-01-07T18:53:22Z</time>
      </trkpt>
      <trkpt lat="42.39527" lon="2.15245">
        <ele>2016.1</ele>
        <time>2019-01-07T18:53:25Z</time>
      </trkpt>
      <trkpt lat="42.39528" lon="2.15259">
        <ele>2013.1</ele>
        <time>2019-01-07T18:53:27Z</time>
      </trkpt>
      <trkpt lat="42.39532" lon="2.1527">
        <ele>2009.1</ele>
        <time>2019-01-07T18:53:30Z</time>
      </trkpt>
      <trkpt lat="42.39538" lon="2.15281">
        <ele>2009</ele>
        <time>2019-01-07T18:53:32Z</time>
      </trkpt>
      <trkpt lat="42.39542" lon="2.15292">
        <ele>2010.1</ele>
        <time>2019-01-07T18:53:35Z</time>
      </trkpt>
      <trkpt lat="42.39548" lon="2.15302">
        <ele>2011</ele>
        <time>2019-01-07T18:53:37Z</time>
      </trkpt>
      <trkpt lat="42.39558" lon="2.15308">
        <ele>2010</ele>
        <time>2019-01-07T18:53:40Z</time>
      </trkpt>
      <trkpt lat="42.39565" lon="2.15318">
        <ele>2012.1</ele>
        <time>2019-01-07T18:53:43Z</time>
      </trkpt>
      <trkpt lat="42.39569" lon="2.15331">
        <ele>2011</ele>
        <time>2019-01-07T18:53:46Z</time>
      </trkpt>
      <trkpt lat="42.39576" lon="2.15343">
        <ele>2013</ele>
        <time>2019-01-07T18:53:49Z</time>
      </trkpt>
      <trkpt lat="42.39585" lon="2.15351">
        <ele>2010.1</ele>
        <time>2019-01-07T18:53:52Z</time>
      </trkpt>
      <trkpt lat="42.39595" lon="2.15358">
        <ele>2010</ele>
        <time>2019-01-07T18:53:55Z</time>
      </trkpt>
      <trkpt lat="42.39604" lon="2.15364">
        <ele>2010</ele>
        <time>2019-01-07T18:53:57Z</time>
      </trkpt>
      <trkpt lat="42.39614" lon="2.15369">
        <ele>2010</ele>
        <time>2019-01-07T18:54:00Z</time>
      </trkpt>
      <trkpt lat="42.39624" lon="2.15374">
        <ele>2009.1</ele>
        <time>2019-01-07T18:54:03Z</time>
      </trkpt>
      <trkpt lat="42.39634" lon="2.1538">
        <ele>2010</ele>
        <time>2019-01-07T18:54:06Z</time>
      </trkpt>
      <trkpt lat="42.39644" lon="2.15386">
        <ele>2010.1</ele>
        <time>2019-01-07T18:54:09Z</time>
      </trkpt>
      <trkpt lat="42.39654" lon="2.15389">
        <ele>2011</ele>
        <time>2019-01-07T18:54:12Z</time>
      </trkpt>
      <trkpt lat="42.39664" lon="2.15392">
        <ele>2012</ele>
        <time>2019-01-07T18:54:14Z</time>
      </trkpt>
      <trkpt lat="42.39673" lon="2.15394">
        <ele>2009</ele>
        <time>2019-01-07T18:54:17Z</time>
      </trkpt>
      <trkpt lat="42.39679" lon="2.15404">
        <ele>2008.1</ele>
        <time>2019-01-07T18:54:19Z</time>
      </trkpt>
      <trkpt lat="42.39687" lon="2.15412">
        <ele>2012.1</ele>
        <time>2019-01-07T18:54:22Z</time>
      </trkpt>
      <trkpt lat="42.39695" lon="2.15419">
        <ele>2011</ele>
        <time>2019-01-07T18:54:25Z</time>
      </trkpt>
      <trkpt lat="42.39702" lon="2.15427">
        <ele>2010</ele>
        <time>2019-01-07T18:54:27Z</time>
      </trkpt>
      <trkpt lat="42.39709" lon="2.15438">
        <ele>2009.1</ele>
        <time>2019-01-07T18:54:30Z</time>
      </trkpt>
      <trkpt lat="42.39703" lon="2.15426">
        <ele>2024</ele>
        <time>2019-01-07T18:54:33Z</time>
      </trkpt>
      <trkpt lat="42.39695" lon="2.15419">
        <ele>2030</ele>
        <time>2019-01-07T18:54:35Z</time>
      </trkpt>
      <trkpt lat="42.39688" lon="2.15428">
        <ele>2025.1</ele>
        <time>2019-01-07T18:54:38Z</time>
      </trkpt>
      <trkpt lat="42.39688" lon="2.15441">
        <ele>2019</ele>
        <time>2019-01-07T18:54:40Z</time>
      </trkpt>
      <trkpt lat="42.3969" lon="2.15454">
        <ele>2014</ele>
        <time>2019-01-07T18:54:43Z</time>
      </trkpt>
      <trkpt lat="42.39695" lon="2.15466">
        <ele>2016</ele>
        <time>2019-01-07T18:54:46Z</time>
      </trkpt>
      <trkpt lat="42.39706" lon="2.15464">
        <ele>2015.1</ele>
        <time>2019-01-07T18:54:49Z</time>
      </trkpt>
      <trkpt lat="42.39715" lon="2.15459">
        <ele>2016</ele>
        <time>2019-01-07T18:54:51Z</time>
      </trkpt>
      <trkpt lat="42.39725" lon="2.15455">
        <ele>2015.1</ele>
        <time>2019-01-07T18:54:54Z</time>
      </trkpt>
      <trkpt lat="42.39732" lon="2.15449">
        <ele>2011</ele>
        <time>2019-01-07T18:54:56Z</time>
      </trkpt>
      <trkpt lat="42.39741" lon="2.15444">
        <ele>2014.1</ele>
        <time>2019-01-07T18:54:59Z</time>
      </trkpt>
      <trkpt lat="42.39751" lon="2.15437">
        <ele>2015.1</ele>
        <time>2019-01-07T18:55:02Z</time>
      </trkpt>
      <trkpt lat="42.39751" lon="2.15437">
        <ele>2015</ele>
        <time>2019-01-07T18:55:02Z</time>
      </trkpt>
      <trkpt lat="42.3976" lon="2.15438">
        <ele>2019.1</ele>
        <time>2019-01-07T18:55:04Z</time>
      </trkpt>
      <trkpt lat="42.3977" lon="2.1544">
        <ele>2020</ele>
        <time>2019-01-07T18:55:07Z</time>
      </trkpt>
      <trkpt lat="42.39779" lon="2.1544">
        <ele>2020.1</ele>
        <time>2019-01-07T18:55:09Z</time>
      </trkpt>
      <trkpt lat="42.39789" lon="2.1544">
        <ele>2019</ele>
        <time>2019-01-07T18:55:12Z</time>
      </trkpt>
      <trkpt lat="42.39799" lon="2.15438">
        <ele>2016</ele>
        <time>2019-01-07T18:55:15Z</time>
      </trkpt>
      <trkpt lat="42.39809" lon="2.15438">
        <ele>2021.1</ele>
        <time>2019-01-07T18:55:17Z</time>
      </trkpt>
      <trkpt lat="42.39818" lon="2.15442">
        <ele>2023.1</ele>
        <time>2019-01-07T18:55:20Z</time>
      </trkpt>
      <trkpt lat="42.39822" lon="2.15455">
        <ele>2025</ele>
        <time>2019-01-07T18:55:23Z</time>
      </trkpt>
      <trkpt lat="42.39818" lon="2.15467">
        <ele>2022.1</ele>
        <time>2019-01-07T18:55:25Z</time>
      </trkpt>
      <trkpt lat="42.39808" lon="2.15478">
        <ele>2020.1</ele>
        <time>2019-01-07T18:55:29Z</time>
      </trkpt>
      <trkpt lat="42.39801" lon="2.15486">
        <ele>2020.1</ele>
        <time>2019-01-07T18:55:31Z</time>
      </trkpt>
      <trkpt lat="42.39791" lon="2.15486">
        <ele>2022.1</ele>
        <time>2019-01-07T18:55:34Z</time>
      </trkpt>
      <trkpt lat="42.39782" lon="2.15489">
        <ele>2021</ele>
        <time>2019-01-07T18:55:36Z</time>
      </trkpt>
      <trkpt lat="42.39773" lon="2.15493">
        <ele>2022</ele>
        <time>2019-01-07T18:55:39Z</time>
      </trkpt>
      <trkpt lat="42.39764" lon="2.15497">
        <ele>2024.1</ele>
        <time>2019-01-07T18:55:41Z</time>
      </trkpt>
      <trkpt lat="42.39753" lon="2.155">
        <ele>2027</ele>
        <time>2019-01-07T18:55:44Z</time>
      </trkpt>
      <trkpt lat="42.39744" lon="2.15507">
        <ele>2027</ele>
        <time>2019-01-07T18:55:47Z</time>
      </trkpt>
      <trkpt lat="42.39738" lon="2.15515">
        <ele>2026</ele>
        <time>2019-01-07T18:55:49Z</time>
      </trkpt>
      <trkpt lat="42.39731" lon="2.15524">
        <ele>2026</ele>
        <time>2019-01-07T18:55:52Z</time>
      </trkpt>
      <trkpt lat="42.39722" lon="2.15533">
        <ele>2028</ele>
        <time>2019-01-07T18:55:55Z</time>
      </trkpt>
      <trkpt lat="42.39715" lon="2.1554">
        <ele>2029.1</ele>
        <time>2019-01-07T18:55:57Z</time>
      </trkpt>
      <trkpt lat="42.39707" lon="2.15546">
        <ele>2027</ele>
        <time>2019-01-07T18:56:00Z</time>
      </trkpt>
      <trkpt lat="42.39697" lon="2.15549">
        <ele>2028.1</ele>
        <time>2019-01-07T18:56:02Z</time>
      </trkpt>
      <trkpt lat="42.39687" lon="2.15552">
        <ele>2032.1</ele>
        <time>2019-01-07T18:56:05Z</time>
      </trkpt>
      <trkpt lat="42.39678" lon="2.15553">
        <ele>2032.1</ele>
        <time>2019-01-07T18:56:08Z</time>
      </trkpt>
      <trkpt lat="42.39668" lon="2.15552">
        <ele>2036</ele>
        <time>2019-01-07T18:56:10Z</time>
      </trkpt>
      <trkpt lat="42.39658" lon="2.15551">
        <ele>2037</ele>
        <time>2019-01-07T18:56:13Z</time>
      </trkpt>
      <trkpt lat="42.39649" lon="2.15552">
        <ele>2038</ele>
        <time>2019-01-07T18:56:15Z</time>
      </trkpt>
      <trkpt lat="42.39639" lon="2.15553">
        <ele>2042</ele>
        <time>2019-01-07T18:56:18Z</time>
      </trkpt>
      <trkpt lat="42.39628" lon="2.15556">
        <ele>2043.1</ele>
        <time>2019-01-07T18:56:21Z</time>
      </trkpt>
      <trkpt lat="42.3962" lon="2.1556">
        <ele>2045.1</ele>
        <time>2019-01-07T18:56:23Z</time>
      </trkpt>
      <trkpt lat="42.39611" lon="2.15562">
        <ele>2045</ele>
        <time>2019-01-07T18:56:26Z</time>
      </trkpt>
      <trkpt lat="42.39601" lon="2.15561">
        <ele>2047</ele>
        <time>2019-01-07T18:56:28Z</time>
      </trkpt>
      <trkpt lat="42.39592" lon="2.15562">
        <ele>2046</ele>
        <time>2019-01-07T18:56:31Z</time>
      </trkpt>
      <trkpt lat="42.39582" lon="2.15562">
        <ele>2048.1</ele>
        <time>2019-01-07T18:56:33Z</time>
      </trkpt>
      <trkpt lat="42.39572" lon="2.15561">
        <ele>2046.1</ele>
        <time>2019-01-07T18:56:36Z</time>
      </trkpt>
      <trkpt lat="42.39562" lon="2.15559">
        <ele>2047.1</ele>
        <time>2019-01-07T18:56:39Z</time>
      </trkpt>
      <trkpt lat="42.39553" lon="2.15559">
        <ele>2047</ele>
        <time>2019-01-07T18:56:41Z</time>
      </trkpt>
      <trkpt lat="42.39543" lon="2.15561">
        <ele>2051</ele>
        <time>2019-01-07T18:56:44Z</time>
      </trkpt>
      <trkpt lat="42.39534" lon="2.15561">
        <ele>2050</ele>
        <time>2019-01-07T18:56:46Z</time>
      </trkpt>
      <trkpt lat="42.39525" lon="2.15561">
        <ele>2051</ele>
        <time>2019-01-07T18:56:49Z</time>
      </trkpt>
      <trkpt lat="42.39515" lon="2.15561">
        <ele>2055.1</ele>
        <time>2019-01-07T18:56:51Z</time>
      </trkpt>
      <trkpt lat="42.39505" lon="2.15559">
        <ele>2055</ele>
        <time>2019-01-07T18:56:54Z</time>
      </trkpt>
      <trkpt lat="42.39495" lon="2.15556">
        <ele>2057</ele>
        <time>2019-01-07T18:56:57Z</time>
      </trkpt>
      <trkpt lat="42.39486" lon="2.15554">
        <ele>2053</ele>
        <time>2019-01-07T18:56:59Z</time>
      </trkpt>
      <trkpt lat="42.39477" lon="2.15552">
        <ele>2055</ele>
        <time>2019-01-07T18:57:02Z</time>
      </trkpt>
      <trkpt lat="42.39468" lon="2.15549">
        <ele>2053.1</ele>
        <time>2019-01-07T18:57:04Z</time>
      </trkpt>
      <trkpt lat="42.39459" lon="2.15544">
        <ele>2058.1</ele>
        <time>2019-01-07T18:57:07Z</time>
      </trkpt>
      <trkpt lat="42.39451" lon="2.15538">
        <ele>2061.1</ele>
        <time>2019-01-07T18:57:09Z</time>
      </trkpt>
      <trkpt lat="42.39442" lon="2.15534">
        <ele>2059</ele>
        <time>2019-01-07T18:57:12Z</time>
      </trkpt>
      <trkpt lat="42.39434" lon="2.15526">
        <ele>2059.1</ele>
        <time>2019-01-07T18:57:14Z</time>
      </trkpt>
      <trkpt lat="42.39426" lon="2.15518">
        <ele>2056</ele>
        <time>2019-01-07T18:57:17Z</time>
      </trkpt>
      <trkpt lat="42.39419" lon="2.15506">
        <ele>2057</ele>
        <time>2019-01-07T18:57:20Z</time>
      </trkpt>
      <trkpt lat="42.39411" lon="2.15499">
        <ele>2056</ele>
        <time>2019-01-07T18:57:23Z</time>
      </trkpt>
      <trkpt lat="42.39403" lon="2.15491">
        <ele>2058.1</ele>
        <time>2019-01-07T18:57:25Z</time>
      </trkpt>
      <trkpt lat="42.39395" lon="2.15481">
        <ele>2056.1</ele>
        <time>2019-01-07T18:57:28Z</time>
      </trkpt>
      <trkpt lat="42.39388" lon="2.15472">
        <ele>2059</ele>
        <time>2019-01-07T18:57:31Z</time>
      </trkpt>
      <trkpt lat="42.39382" lon="2.15461">
        <ele>2060.1</ele>
        <time>2019-01-07T18:57:33Z</time>
      </trkpt>
      <trkpt lat="42.39373" lon="2.15456">
        <ele>2061.1</ele>
        <time>2019-01-07T18:57:36Z</time>
      </trkpt>
      <trkpt lat="42.39366" lon="2.15465">
        <ele>2064</ele>
        <time>2019-01-07T18:57:39Z</time>
      </trkpt>
      <trkpt lat="42.3936" lon="2.15474">
        <ele>2065</ele>
        <time>2019-01-07T18:57:41Z</time>
      </trkpt>
      <trkpt lat="42.39354" lon="2.15488">
        <ele>2064</ele>
        <time>2019-01-07T18:57:44Z</time>
      </trkpt>
      <trkpt lat="42.39352" lon="2.15502">
        <ele>2063.1</ele>
        <time>2019-01-07T18:57:47Z</time>
      </trkpt>
      <trkpt lat="42.39356" lon="2.15515">
        <ele>2069</ele>
        <time>2019-01-07T18:57:50Z</time>
      </trkpt>
      <trkpt lat="42.3936" lon="2.15527">
        <ele>2075</ele>
        <time>2019-01-07T18:57:52Z</time>
      </trkpt>
      <trkpt lat="42.3936" lon="2.15527">
        <ele>2075.1</ele>
        <time>2019-01-07T18:57:52Z</time>
      </trkpt>
      <trkpt lat="42.39364" lon="2.15539">
        <ele>2081.1</ele>
        <time>2019-01-07T18:57:55Z</time>
      </trkpt>
      <trkpt lat="42.39368" lon="2.15552">
        <ele>2082</ele>
        <time>2019-01-07T18:57:58Z</time>
      </trkpt>
      <trkpt lat="42.39372" lon="2.15563">
        <ele>2081</ele>
        <time>2019-01-07T18:58:00Z</time>
      </trkpt>
      <trkpt lat="42.39374" lon="2.15576">
        <ele>2082</ele>
        <time>2019-01-07T18:58:03Z</time>
      </trkpt>
      <trkpt lat="42.3937" lon="2.1559">
        <ele>2080</ele>
        <time>2019-01-07T18:58:06Z</time>
      </trkpt>
      <trkpt lat="42.39363" lon="2.15599">
        <ele>2081.1</ele>
        <time>2019-01-07T18:58:08Z</time>
      </trkpt>
      <trkpt lat="42.39354" lon="2.15595">
        <ele>2082</ele>
        <time>2019-01-07T18:58:11Z</time>
      </trkpt>
      <trkpt lat="42.39345" lon="2.15589">
        <ele>2083.1</ele>
        <time>2019-01-07T18:58:14Z</time>
      </trkpt>
      <trkpt lat="42.39336" lon="2.15587">
        <ele>2085</ele>
        <time>2019-01-07T18:58:16Z</time>
      </trkpt>
      <trkpt lat="42.39327" lon="2.15589">
        <ele>2091</ele>
        <time>2019-01-07T18:58:18Z</time>
      </trkpt>
      <trkpt lat="42.39315" lon="2.1559">
        <ele>2094</ele>
        <time>2019-01-07T18:58:21Z</time>
      </trkpt>
      <trkpt lat="42.39306" lon="2.15591">
        <ele>2096</ele>
        <time>2019-01-07T18:58:24Z</time>
      </trkpt>
      <trkpt lat="42.39297" lon="2.15596">
        <ele>2095</ele>
        <time>2019-01-07T18:58:27Z</time>
      </trkpt>
      <trkpt lat="42.39287" lon="2.15603">
        <ele>2095.1</ele>
        <time>2019-01-07T18:58:29Z</time>
      </trkpt>
      <trkpt lat="42.39279" lon="2.15609">
        <ele>2095</ele>
        <time>2019-01-07T18:58:32Z</time>
      </trkpt>
      <trkpt lat="42.3927" lon="2.15611">
        <ele>2096</ele>
        <time>2019-01-07T18:58:35Z</time>
      </trkpt>
      <trkpt lat="42.39261" lon="2.15618">
        <ele>2098.1</ele>
        <time>2019-01-07T18:58:37Z</time>
      </trkpt>
      <trkpt lat="42.39253" lon="2.15626">
        <ele>2101.1</ele>
        <time>2019-01-07T18:58:40Z</time>
      </trkpt>
      <trkpt lat="42.39247" lon="2.15636">
        <ele>2102.1</ele>
        <time>2019-01-07T18:58:43Z</time>
      </trkpt>
      <trkpt lat="42.39245" lon="2.15649">
        <ele>2103.1</ele>
        <time>2019-01-07T18:58:45Z</time>
      </trkpt>
      <trkpt lat="42.39246" lon="2.15664">
        <ele>2101</ele>
        <time>2019-01-07T18:58:48Z</time>
      </trkpt>
      <trkpt lat="42.39247" lon="2.15677">
        <ele>2101</ele>
        <time>2019-01-07T18:58:51Z</time>
      </trkpt>
      <trkpt lat="42.39257" lon="2.1568">
        <ele>2104</ele>
        <time>2019-01-07T18:58:53Z</time>
      </trkpt>
      <trkpt lat="42.39267" lon="2.15681">
        <ele>2106</ele>
        <time>2019-01-07T18:58:56Z</time>
      </trkpt>
      <trkpt lat="42.39276" lon="2.15681">
        <ele>2105</ele>
        <time>2019-01-07T18:58:58Z</time>
      </trkpt>
      <trkpt lat="42.39286" lon="2.15684">
        <ele>2110.1</ele>
        <time>2019-01-07T18:59:01Z</time>
      </trkpt>
      <trkpt lat="42.39294" lon="2.1569">
        <ele>2111.1</ele>
        <time>2019-01-07T18:59:04Z</time>
      </trkpt>
      <trkpt lat="42.39302" lon="2.15697">
        <ele>2110</ele>
        <time>2019-01-07T18:59:06Z</time>
      </trkpt>
      <trkpt lat="42.3931" lon="2.15703">
        <ele>2112.1</ele>
        <time>2019-01-07T18:59:09Z</time>
      </trkpt>
      <trkpt lat="42.39318" lon="2.15709">
        <ele>2114</ele>
        <time>2019-01-07T18:59:11Z</time>
      </trkpt>
      <trkpt lat="42.39328" lon="2.15714">
        <ele>2115.1</ele>
        <time>2019-01-07T18:59:14Z</time>
      </trkpt>
      <trkpt lat="42.39338" lon="2.15718">
        <ele>2113.1</ele>
        <time>2019-01-07T18:59:17Z</time>
      </trkpt>
      <trkpt lat="42.39348" lon="2.15721">
        <ele>2116.1</ele>
        <time>2019-01-07T18:59:19Z</time>
      </trkpt>
      <trkpt lat="42.39351" lon="2.15733">
        <ele>2121</ele>
        <time>2019-01-07T18:59:22Z</time>
      </trkpt>
      <trkpt lat="42.39345" lon="2.15743">
        <ele>2120</ele>
        <time>2019-01-07T18:59:24Z</time>
      </trkpt>
      <trkpt lat="42.39339" lon="2.15754">
        <ele>2121</ele>
        <time>2019-01-07T18:59:27Z</time>
      </trkpt>
      <trkpt lat="42.39333" lon="2.15764">
        <ele>2124.1</ele>
        <time>2019-01-07T18:59:30Z</time>
      </trkpt>
      <trkpt lat="42.39327" lon="2.15774">
        <ele>2126.1</ele>
        <time>2019-01-07T18:59:32Z</time>
      </trkpt>
      <trkpt lat="42.39322" lon="2.15785">
        <ele>2128</ele>
        <time>2019-01-07T18:59:35Z</time>
      </trkpt>
      <trkpt lat="42.39316" lon="2.15796">
        <ele>2130.1</ele>
        <time>2019-01-07T18:59:37Z</time>
      </trkpt>
      <trkpt lat="42.3931" lon="2.15806">
        <ele>2132.1</ele>
        <time>2019-01-07T18:59:40Z</time>
      </trkpt>
      <trkpt lat="42.39305" lon="2.15817">
        <ele>2134.1</ele>
        <time>2019-01-07T18:59:43Z</time>
      </trkpt>
      <trkpt lat="42.393" lon="2.15827">
        <ele>2136.1</ele>
        <time>2019-01-07T18:59:45Z</time>
      </trkpt>
      <trkpt lat="42.39294" lon="2.15837">
        <ele>2136</ele>
        <time>2019-01-07T18:59:47Z</time>
      </trkpt>
      <trkpt lat="42.39288" lon="2.15847">
        <ele>2136</ele>
        <time>2019-01-07T18:59:50Z</time>
      </trkpt>
      <trkpt lat="42.39282" lon="2.15859">
        <ele>2137</ele>
        <time>2019-01-07T18:59:53Z</time>
      </trkpt>
      <trkpt lat="42.39276" lon="2.15868">
        <ele>2144</ele>
        <time>2019-01-07T18:59:55Z</time>
      </trkpt>
      <trkpt lat="42.39269" lon="2.15877">
        <ele>2147.1</ele>
        <time>2019-01-07T18:59:58Z</time>
      </trkpt>
      <trkpt lat="42.3926" lon="2.15883">
        <ele>2148.1</ele>
        <time>2019-01-07T19:00:00Z</time>
      </trkpt>
      <trkpt lat="42.39252" lon="2.15891">
        <ele>2152</ele>
        <time>2019-01-07T19:00:03Z</time>
      </trkpt>
      <trkpt lat="42.39244" lon="2.15899">
        <ele>2152</ele>
        <time>2019-01-07T19:00:06Z</time>
      </trkpt>
      <trkpt lat="42.39238" lon="2.15908">
        <ele>2155.1</ele>
        <time>2019-01-07T19:00:08Z</time>
      </trkpt>
      <trkpt lat="42.39231" lon="2.15917">
        <ele>2154.1</ele>
        <time>2019-01-07T19:00:11Z</time>
      </trkpt>
      <trkpt lat="42.39224" lon="2.15926">
        <ele>2157.1</ele>
        <time>2019-01-07T19:00:13Z</time>
      </trkpt>
      <trkpt lat="42.39217" lon="2.15935">
        <ele>2161.1</ele>
        <time>2019-01-07T19:00:16Z</time>
      </trkpt>
      <trkpt lat="42.39211" lon="2.15944">
        <ele>2162.1</ele>
        <time>2019-01-07T19:00:18Z</time>
      </trkpt>
      <trkpt lat="42.39203" lon="2.15956">
        <ele>2163.1</ele>
        <time>2019-01-07T19:00:21Z</time>
      </trkpt>
      <trkpt lat="42.39197" lon="2.15968">
        <ele>2163</ele>
        <time>2019-01-07T19:00:24Z</time>
      </trkpt>
      <trkpt lat="42.3919" lon="2.15977">
        <ele>2164</ele>
        <time>2019-01-07T19:00:27Z</time>
      </trkpt>
      <trkpt lat="42.39185" lon="2.15987">
        <ele>2168</ele>
        <time>2019-01-07T19:00:29Z</time>
      </trkpt>
      <trkpt lat="42.3919" lon="2.15998">
        <ele>2172.1</ele>
        <time>2019-01-07T19:00:32Z</time>
      </trkpt>
      <trkpt lat="42.3919" lon="2.16011">
        <ele>2171</ele>
        <time>2019-01-07T19:00:34Z</time>
      </trkpt>
      <trkpt lat="42.39192" lon="2.16023">
        <ele>2173</ele>
        <time>2019-01-07T19:00:37Z</time>
      </trkpt>
      <trkpt lat="42.39192" lon="2.16037">
        <ele>2173.1</ele>
        <time>2019-01-07T19:00:40Z</time>
      </trkpt>
      <trkpt lat="42.39192" lon="2.1605">
        <ele>2171.1</ele>
        <time>2019-01-07T19:00:42Z</time>
      </trkpt>
      <trkpt lat="42.39191" lon="2.16062">
        <ele>2172.1</ele>
        <time>2019-01-07T19:00:45Z</time>
      </trkpt>
      <trkpt lat="42.3919" lon="2.16075">
        <ele>2175.1</ele>
        <time>2019-01-07T19:00:47Z</time>
      </trkpt>
      <trkpt lat="42.39193" lon="2.16088">
        <ele>2171</ele>
        <time>2019-01-07T19:00:50Z</time>
      </trkpt>
      <trkpt lat="42.39196" lon="2.16101">
        <ele>2170</ele>
        <time>2019-01-07T19:00:52Z</time>
      </trkpt>
      <trkpt lat="42.39196" lon="2.16116">
        <ele>2169</ele>
        <time>2019-01-07T19:00:55Z</time>
      </trkpt>
      <trkpt lat="42.39197" lon="2.16128">
        <ele>2170</ele>
        <time>2019-01-07T19:00:58Z</time>
      </trkpt>
      <trkpt lat="42.39197" lon="2.16141">
        <ele>2171.1</ele>
        <time>2019-01-07T19:01:00Z</time>
      </trkpt>
      <trkpt lat="42.39197" lon="2.16155">
        <ele>2170</ele>
        <time>2019-01-07T19:01:03Z</time>
      </trkpt>
      <trkpt lat="42.39195" lon="2.16168">
        <ele>2167.1</ele>
        <time>2019-01-07T19:01:06Z</time>
      </trkpt>
      <trkpt lat="42.39191" lon="2.1618">
        <ele>2168</ele>
        <time>2019-01-07T19:01:08Z</time>
      </trkpt>
      <trkpt lat="42.39189" lon="2.16192">
        <ele>2168</ele>
        <time>2019-01-07T19:01:11Z</time>
      </trkpt>
      <trkpt lat="42.39185" lon="2.16205">
        <ele>2170.1</ele>
        <time>2019-01-07T19:01:14Z</time>
      </trkpt>
      <trkpt lat="42.39184" lon="2.16219">
        <ele>2169</ele>
        <time>2019-01-07T19:01:16Z</time>
      </trkpt>
      <trkpt lat="42.39183" lon="2.16234">
        <ele>2168</ele>
        <time>2019-01-07T19:01:19Z</time>
      </trkpt>
      <trkpt lat="42.39184" lon="2.16248">
        <ele>2170</ele>
        <time>2019-01-07T19:01:22Z</time>
      </trkpt>
      <trkpt lat="42.39182" lon="2.1626">
        <ele>2173</ele>
        <time>2019-01-07T19:01:24Z</time>
      </trkpt>
      <trkpt lat="42.39178" lon="2.16271">
        <ele>2171</ele>
        <time>2019-01-07T19:01:27Z</time>
      </trkpt>
      <trkpt lat="42.39175" lon="2.16283">
        <ele>2170</ele>
        <time>2019-01-07T19:01:29Z</time>
      </trkpt>
      <trkpt lat="42.39173" lon="2.16296">
        <ele>2172.1</ele>
        <time>2019-01-07T19:01:32Z</time>
      </trkpt>
      <trkpt lat="42.39171" lon="2.16308">
        <ele>2169</ele>
        <time>2019-01-07T19:01:35Z</time>
      </trkpt>
      <trkpt lat="42.39163" lon="2.16319">
        <ele>2170.1</ele>
        <time>2019-01-07T19:01:38Z</time>
      </trkpt>
      <trkpt lat="42.39155" lon="2.1633">
        <ele>2167</ele>
        <time>2019-01-07T19:01:41Z</time>
      </trkpt>
      <trkpt lat="42.39149" lon="2.1634">
        <ele>2164.1</ele>
        <time>2019-01-07T19:01:43Z</time>
      </trkpt>
      <trkpt lat="42.39143" lon="2.16349">
        <ele>2169</ele>
        <time>2019-01-07T19:01:45Z</time>
      </trkpt>
      <trkpt lat="42.39139" lon="2.16361">
        <ele>2168.1</ele>
        <time>2019-01-07T19:01:48Z</time>
      </trkpt>
      <trkpt lat="42.3914" lon="2.16374">
        <ele>2169.1</ele>
        <time>2019-01-07T19:01:51Z</time>
      </trkpt>
      <trkpt lat="42.39142" lon="2.16386">
        <ele>2170.1</ele>
        <time>2019-01-07T19:01:53Z</time>
      </trkpt>
      <trkpt lat="42.39142" lon="2.164">
        <ele>2168</ele>
        <time>2019-01-07T19:01:56Z</time>
      </trkpt>
      <trkpt lat="42.39141" lon="2.16413">
        <ele>2171</ele>
        <time>2019-01-07T19:01:58Z</time>
      </trkpt>
      <trkpt lat="42.39143" lon="2.16425">
        <ele>2173</ele>
        <time>2019-01-07T19:02:01Z</time>
      </trkpt>
      <trkpt lat="42.39147" lon="2.16438">
        <ele>2174.1</ele>
        <time>2019-01-07T19:02:04Z</time>
      </trkpt>
      <trkpt lat="42.39151" lon="2.16451">
        <ele>2175.1</ele>
        <time>2019-01-07T19:02:06Z</time>
      </trkpt>
      <trkpt lat="42.39151" lon="2.16464">
        <ele>2174</ele>
        <time>2019-01-07T19:02:09Z</time>
      </trkpt>
      <trkpt lat="42.39157" lon="2.16477">
        <ele>2174.1</ele>
        <time>2019-01-07T19:02:12Z</time>
      </trkpt>
      <trkpt lat="42.3916" lon="2.16489">
        <ele>2173</ele>
        <time>2019-01-07T19:02:14Z</time>
      </trkpt>
      <trkpt lat="42.39158" lon="2.16504">
        <ele>2169.1</ele>
        <time>2019-01-07T19:02:17Z</time>
      </trkpt>
      <trkpt lat="42.39157" lon="2.16517">
        <ele>2168</ele>
        <time>2019-01-07T19:02:20Z</time>
      </trkpt>
      <trkpt lat="42.39156" lon="2.1653">
        <ele>2171</ele>
        <time>2019-01-07T19:02:23Z</time>
      </trkpt>
      <trkpt lat="42.39156" lon="2.16544">
        <ele>2170</ele>
        <time>2019-01-07T19:02:25Z</time>
      </trkpt>
      <trkpt lat="42.39153" lon="2.16556">
        <ele>2168</ele>
        <time>2019-01-07T19:02:28Z</time>
      </trkpt>
      <trkpt lat="42.39154" lon="2.16569">
        <ele>2170</ele>
        <time>2019-01-07T19:02:30Z</time>
      </trkpt>
      <trkpt lat="42.3915" lon="2.16584">
        <ele>2169</ele>
        <time>2019-01-07T19:02:33Z</time>
      </trkpt>
      <trkpt lat="42.3915" lon="2.16599">
        <ele>2169.1</ele>
        <time>2019-01-07T19:02:36Z</time>
      </trkpt>
      <trkpt lat="42.3915" lon="2.16612">
        <ele>2169.1</ele>
        <time>2019-01-07T19:02:39Z</time>
      </trkpt>
      <trkpt lat="42.39154" lon="2.16626">
        <ele>2169.1</ele>
        <time>2019-01-07T19:02:42Z</time>
      </trkpt>
      <trkpt lat="42.39157" lon="2.16638">
        <ele>2168.1</ele>
        <time>2019-01-07T19:02:44Z</time>
      </trkpt>
      <trkpt lat="42.39156" lon="2.16652">
        <ele>2169</ele>
        <time>2019-01-07T19:02:47Z</time>
      </trkpt>
      <trkpt lat="42.39158" lon="2.16666">
        <ele>2168</ele>
        <time>2019-01-07T19:02:50Z</time>
      </trkpt>
      <trkpt lat="42.39161" lon="2.16681">
        <ele>2168.1</ele>
        <time>2019-01-07T19:02:53Z</time>
      </trkpt>
      <trkpt lat="42.39163" lon="2.16693">
        <ele>2167</ele>
        <time>2019-01-07T19:02:55Z</time>
      </trkpt>
      <trkpt lat="42.39165" lon="2.16706">
        <ele>2168</ele>
        <time>2019-01-07T19:02:58Z</time>
      </trkpt>
      <trkpt lat="42.39168" lon="2.16721">
        <ele>2166.1</ele>
        <time>2019-01-07T19:03:01Z</time>
      </trkpt>
      <trkpt lat="42.3917" lon="2.16735">
        <ele>2164</ele>
        <time>2019-01-07T19:03:04Z</time>
      </trkpt>
      <trkpt lat="42.39169" lon="2.1675">
        <ele>2162</ele>
        <time>2019-01-07T19:03:07Z</time>
      </trkpt>
      <trkpt lat="42.3917" lon="2.16764">
        <ele>2161.1</ele>
        <time>2019-01-07T19:03:10Z</time>
      </trkpt>
      <trkpt lat="42.39171" lon="2.16776">
        <ele>2159</ele>
        <time>2019-01-07T19:03:12Z</time>
      </trkpt>
      <trkpt lat="42.39176" lon="2.16788">
        <ele>2160.1</ele>
        <time>2019-01-07T19:03:15Z</time>
      </trkpt>
      <trkpt lat="42.39181" lon="2.168">
        <ele>2164</ele>
        <time>2019-01-07T19:03:17Z</time>
      </trkpt>
      <trkpt lat="42.39187" lon="2.1681">
        <ele>2163.1</ele>
        <time>2019-01-07T19:03:20Z</time>
      </trkpt>
      <trkpt lat="42.39191" lon="2.16822">
        <ele>2165</ele>
        <time>2019-01-07T19:03:23Z</time>
      </trkpt>
      <trkpt lat="42.39194" lon="2.16834">
        <ele>2165.1</ele>
        <time>2019-01-07T19:03:25Z</time>
      </trkpt>
      <trkpt lat="42.39197" lon="2.16845">
        <ele>2168</ele>
        <time>2019-01-07T19:03:27Z</time>
      </trkpt>
      <trkpt lat="42.39196" lon="2.16858">
        <ele>2168</ele>
        <time>2019-01-07T19:03:30Z</time>
      </trkpt>
      <trkpt lat="42.39198" lon="2.1687">
        <ele>2173.1</ele>
        <time>2019-01-07T19:03:32Z</time>
      </trkpt>
      <trkpt lat="42.39203" lon="2.16882">
        <ele>2175</ele>
        <time>2019-01-07T19:03:35Z</time>
      </trkpt>
      <trkpt lat="42.3921" lon="2.1689">
        <ele>2176</ele>
        <time>2019-01-07T19:03:37Z</time>
      </trkpt>
      <trkpt lat="42.39218" lon="2.16894">
        <ele>2175</ele>
        <time>2019-01-07T19:03:40Z</time>
      </trkpt>
      <trkpt lat="42.39224" lon="2.16904">
        <ele>2178.1</ele>
        <time>2019-01-07T19:03:42Z</time>
      </trkpt>
      <trkpt lat="42.39231" lon="2.16913">
        <ele>2181</ele>
        <time>2019-01-07T19:03:45Z</time>
      </trkpt>
      <trkpt lat="42.39234" lon="2.16924">
        <ele>2184</ele>
        <time>2019-01-07T19:03:47Z</time>
      </trkpt>
      <trkpt lat="42.39242" lon="2.16933">
        <ele>2190.1</ele>
        <time>2019-01-07T19:03:50Z</time>
      </trkpt>
      <trkpt lat="42.39248" lon="2.16942">
        <ele>2190</ele>
        <time>2019-01-07T19:03:52Z</time>
      </trkpt>
      <trkpt lat="42.39255" lon="2.1695">
        <ele>2195.1</ele>
        <time>2019-01-07T19:03:55Z</time>
      </trkpt>
      <trkpt lat="42.39263" lon="2.16956">
        <ele>2195.1</ele>
        <time>2019-01-07T19:03:57Z</time>
      </trkpt>
      <trkpt lat="42.39271" lon="2.16964">
        <ele>2196</ele>
        <time>2019-01-07T19:04:00Z</time>
      </trkpt>
      <trkpt lat="42.39278" lon="2.16973">
        <ele>2200.1</ele>
        <time>2019-01-07T19:04:02Z</time>
      </trkpt>
      <trkpt lat="42.39286" lon="2.16979">
        <ele>2204</ele>
        <time>2019-01-07T19:04:05Z</time>
      </trkpt>
      <trkpt lat="42.39293" lon="2.16987">
        <ele>2210</ele>
        <time>2019-01-07T19:04:07Z</time>
      </trkpt>
      <trkpt lat="42.393" lon="2.16995">
        <ele>2211.1</ele>
        <time>2019-01-07T19:04:10Z</time>
      </trkpt>
      <trkpt lat="42.39308" lon="2.17003">
        <ele>2216.1</ele>
        <time>2019-01-07T19:04:12Z</time>
      </trkpt>
      <trkpt lat="42.39317" lon="2.17006">
        <ele>2217.1</ele>
        <time>2019-01-07T19:04:15Z</time>
      </trkpt>
      <trkpt lat="42.39326" lon="2.17007">
        <ele>2220.1</ele>
        <time>2019-01-07T19:04:17Z</time>
      </trkpt>
      <trkpt lat="42.39333" lon="2.17014">
        <ele>2221.1</ele>
        <time>2019-01-07T19:04:20Z</time>
      </trkpt>
      <trkpt lat="42.39339" lon="2.17024">
        <ele>2225</ele>
        <time>2019-01-07T19:04:22Z</time>
      </trkpt>
      <trkpt lat="42.39346" lon="2.17033">
        <ele>2225.1</ele>
        <time>2019-01-07T19:04:25Z</time>
      </trkpt>
      <trkpt lat="42.39355" lon="2.17042">
        <ele>2229</ele>
        <time>2019-01-07T19:04:28Z</time>
      </trkpt>
      <trkpt lat="42.39363" lon="2.1705">
        <ele>2233.1</ele>
        <time>2019-01-07T19:04:30Z</time>
      </trkpt>
      <trkpt lat="42.39371" lon="2.17058">
        <ele>2231.1</ele>
        <time>2019-01-07T19:04:33Z</time>
      </trkpt>
      <trkpt lat="42.3938" lon="2.17064">
        <ele>2232</ele>
        <time>2019-01-07T19:04:36Z</time>
      </trkpt>
      <trkpt lat="42.3939" lon="2.17066">
        <ele>2235</ele>
        <time>2019-01-07T19:04:39Z</time>
      </trkpt>
      <trkpt lat="42.39399" lon="2.17073">
        <ele>2239.1</ele>
        <time>2019-01-07T19:04:41Z</time>
      </trkpt>
      <trkpt lat="42.39406" lon="2.17081">
        <ele>2238</ele>
        <time>2019-01-07T19:04:44Z</time>
      </trkpt>
      <trkpt lat="42.39411" lon="2.17092">
        <ele>2242</ele>
        <time>2019-01-07T19:04:46Z</time>
      </trkpt>
      <trkpt lat="42.39407" lon="2.17103">
        <ele>2245</ele>
        <time>2019-01-07T19:04:49Z</time>
      </trkpt>
      <trkpt lat="42.39411" lon="2.17115">
        <ele>2245</ele>
        <time>2019-01-07T19:04:51Z</time>
      </trkpt>
      <trkpt lat="42.39417" lon="2.17123">
        <ele>2248.1</ele>
        <time>2019-01-07T19:04:54Z</time>
      </trkpt>
      <trkpt lat="42.39422" lon="2.17134">
        <ele>2254.1</ele>
        <time>2019-01-07T19:04:56Z</time>
      </trkpt>
      <trkpt lat="42.39423" lon="2.17146">
        <ele>2259.1</ele>
        <time>2019-01-07T19:04:59Z</time>
      </trkpt>
      <trkpt lat="42.39427" lon="2.17159">
        <ele>2261.1</ele>
        <time>2019-01-07T19:05:01Z</time>
      </trkpt>
      <trkpt lat="42.39426" lon="2.17171">
        <ele>2261</ele>
        <time>2019-01-07T19:05:04Z</time>
      </trkpt>
      <trkpt lat="42.39429" lon="2.17184">
        <ele>2260</ele>
        <time>2019-01-07T19:05:06Z</time>
      </trkpt>
      <trkpt lat="42.39426" lon="2.17196">
        <ele>2264</ele>
        <time>2019-01-07T19:05:09Z</time>
      </trkpt>
      <trkpt lat="42.39427" lon="2.17208">
        <ele>2269.1</ele>
        <time>2019-01-07T19:05:11Z</time>
      </trkpt>
      <trkpt lat="42.39428" lon="2.17221">
        <ele>2270.1</ele>
        <time>2019-01-07T19:05:14Z</time>
      </trkpt>
      <trkpt lat="42.39429" lon="2.17234">
        <ele>2272</ele>
        <time>2019-01-07T19:05:16Z</time>
      </trkpt>
      <trkpt lat="42.39432" lon="2.17246">
        <ele>2273.1</ele>
        <time>2019-01-07T19:05:19Z</time>
      </trkpt>
      <trkpt lat="42.39431" lon="2.17258">
        <ele>2276</ele>
        <time>2019-01-07T19:05:21Z</time>
      </trkpt>
      <trkpt lat="42.39426" lon="2.17269">
        <ele>2280</ele>
        <time>2019-01-07T19:05:24Z</time>
      </trkpt>
      <trkpt lat="42.39419" lon="2.17262">
        <ele>2283.1</ele>
        <time>2019-01-07T19:05:26Z</time>
      </trkpt>
      <trkpt lat="42.39411" lon="2.1727">
        <ele>2286.1</ele>
        <time>2019-01-07T19:05:29Z</time>
      </trkpt>
      <trkpt lat="42.39402" lon="2.17272">
        <ele>2286.1</ele>
        <time>2019-01-07T19:05:31Z</time>
      </trkpt>
      <trkpt lat="42.39393" lon="2.17271">
        <ele>2289.1</ele>
        <time>2019-01-07T19:05:34Z</time>
      </trkpt>
      <trkpt lat="42.39384" lon="2.17275">
        <ele>2292</ele>
        <time>2019-01-07T19:05:36Z</time>
      </trkpt>
      <trkpt lat="42.39374" lon="2.17279">
        <ele>2294</ele>
        <time>2019-01-07T19:05:39Z</time>
      </trkpt>
      <trkpt lat="42.39365" lon="2.17282">
        <ele>2296.1</ele>
        <time>2019-01-07T19:05:41Z</time>
      </trkpt>
      <trkpt lat="42.39355" lon="2.17283">
        <ele>2297</ele>
        <time>2019-01-07T19:05:44Z</time>
      </trkpt>
      <trkpt lat="42.39345" lon="2.17283">
        <ele>2298</ele>
        <time>2019-01-07T19:05:46Z</time>
      </trkpt>
      <trkpt lat="42.39336" lon="2.17285">
        <ele>2302</ele>
        <time>2019-01-07T19:05:49Z</time>
      </trkpt>
      <trkpt lat="42.39327" lon="2.17285">
        <ele>2298</ele>
        <time>2019-01-07T19:05:51Z</time>
      </trkpt>
      <trkpt lat="42.39318" lon="2.17287">
        <ele>2303</ele>
        <time>2019-01-07T19:05:54Z</time>
      </trkpt>
      <trkpt lat="42.39309" lon="2.17292">
        <ele>2305.1</ele>
        <time>2019-01-07T19:05:56Z</time>
      </trkpt>
      <trkpt lat="42.39299" lon="2.17292">
        <ele>2313</ele>
        <time>2019-01-07T19:05:59Z</time>
      </trkpt>
      <trkpt lat="42.3929" lon="2.17296">
        <ele>2317</ele>
        <time>2019-01-07T19:06:02Z</time>
      </trkpt>
      <trkpt lat="42.39283" lon="2.17303">
        <ele>2321.1</ele>
        <time>2019-01-07T19:06:04Z</time>
      </trkpt>
      <trkpt lat="42.39274" lon="2.17306">
        <ele>2326</ele>
        <time>2019-01-07T19:06:06Z</time>
      </trkpt>
      <trkpt lat="42.39265" lon="2.17307">
        <ele>2329</ele>
        <time>2019-01-07T19:06:09Z</time>
      </trkpt>
      <trkpt lat="42.39256" lon="2.17309">
        <ele>2330.1</ele>
        <time>2019-01-07T19:06:11Z</time>
      </trkpt>
      <trkpt lat="42.39247" lon="2.17313">
        <ele>2332.1</ele>
        <time>2019-01-07T19:06:14Z</time>
      </trkpt>
      <trkpt lat="42.39238" lon="2.17316">
        <ele>2333.1</ele>
        <time>2019-01-07T19:06:16Z</time>
      </trkpt>
      <trkpt lat="42.39228" lon="2.17318">
        <ele>2338.1</ele>
        <time>2019-01-07T19:06:19Z</time>
      </trkpt>
      <trkpt lat="42.39219" lon="2.1732">
        <ele>2340.1</ele>
        <time>2019-01-07T19:06:21Z</time>
      </trkpt>
      <trkpt lat="42.3921" lon="2.17322">
        <ele>2344.1</ele>
        <time>2019-01-07T19:06:24Z</time>
      </trkpt>
      <trkpt lat="42.392" lon="2.17322">
        <ele>2346</ele>
        <time>2019-01-07T19:06:27Z</time>
      </trkpt>
      <trkpt lat="42.3919" lon="2.17324">
        <ele>2347.1</ele>
        <time>2019-01-07T19:06:29Z</time>
      </trkpt>
      <trkpt lat="42.39181" lon="2.17327">
        <ele>2351</ele>
        <time>2019-01-07T19:06:32Z</time>
      </trkpt>
      <trkpt lat="42.39172" lon="2.17331">
        <ele>2358</ele>
        <time>2019-01-07T19:06:34Z</time>
      </trkpt>
      <trkpt lat="42.39163" lon="2.17336">
        <ele>2361</ele>
        <time>2019-01-07T19:06:37Z</time>
      </trkpt>
      <trkpt lat="42.39154" lon="2.17338">
        <ele>2360</ele>
        <time>2019-01-07T19:06:39Z</time>
      </trkpt>
      <trkpt lat="42.39145" lon="2.17342">
        <ele>2363</ele>
        <time>2019-01-07T19:06:42Z</time>
      </trkpt>
      <trkpt lat="42.39136" lon="2.17346">
        <ele>2368</ele>
        <time>2019-01-07T19:06:44Z</time>
      </trkpt>
      <trkpt lat="42.39126" lon="2.17347">
        <ele>2366</ele>
        <time>2019-01-07T19:06:47Z</time>
      </trkpt>
      <trkpt lat="42.39118" lon="2.17354">
        <ele>2370</ele>
        <time>2019-01-07T19:06:49Z</time>
      </trkpt>
      <trkpt lat="42.3911" lon="2.17359">
        <ele>2377.1</ele>
        <time>2019-01-07T19:06:52Z</time>
      </trkpt>
      <trkpt lat="42.391" lon="2.1736">
        <ele>2380</ele>
        <time>2019-01-07T19:06:54Z</time>
      </trkpt>
      <trkpt lat="42.39091" lon="2.17363">
        <ele>2379.1</ele>
        <time>2019-01-07T19:06:57Z</time>
      </trkpt>
      <trkpt lat="42.39085" lon="2.17373">
        <ele>2388.1</ele>
        <time>2019-01-07T19:07:00Z</time>
      </trkpt>
      <trkpt lat="42.39079" lon="2.17382">
        <ele>2392.1</ele>
        <time>2019-01-07T19:07:02Z</time>
      </trkpt>
      <trkpt lat="42.39071" lon="2.17388">
        <ele>2394</ele>
        <time>2019-01-07T19:07:04Z</time>
      </trkpt>
      <trkpt lat="42.39064" lon="2.17396">
        <ele>2398</ele>
        <time>2019-01-07T19:07:07Z</time>
      </trkpt>
      <trkpt lat="42.39055" lon="2.17399">
        <ele>2404</ele>
        <time>2019-01-07T19:07:09Z</time>
      </trkpt>
      <trkpt lat="42.39046" lon="2.17406">
        <ele>2408.1</ele>
        <time>2019-01-07T19:07:12Z</time>
      </trkpt>
      <trkpt lat="42.39038" lon="2.1741">
        <ele>2407</ele>
        <time>2019-01-07T19:07:14Z</time>
      </trkpt>
      <trkpt lat="42.39029" lon="2.17415">
        <ele>2408</ele>
        <time>2019-01-07T19:07:17Z</time>
      </trkpt>
      <trkpt lat="42.3902" lon="2.17418">
        <ele>2409.1</ele>
        <time>2019-01-07T19:07:19Z</time>
      </trkpt>
      <trkpt lat="42.39012" lon="2.17424">
        <ele>2411</ele>
        <time>2019-01-07T19:07:22Z</time>
      </trkpt>
      <trkpt lat="42.39003" lon="2.17429">
        <ele>2415.1</ele>
        <time>2019-01-07T19:07:24Z</time>
      </trkpt>
      <trkpt lat="42.38994" lon="2.1743">
        <ele>2417.1</ele>
        <time>2019-01-07T19:07:27Z</time>
      </trkpt>
      <trkpt lat="42.38984" lon="2.17429">
        <ele>2416</ele>
        <time>2019-01-07T19:07:29Z</time>
      </trkpt>
      <trkpt lat="42.38975" lon="2.17428">
        <ele>2422.1</ele>
        <time>2019-01-07T19:07:32Z</time>
      </trkpt>
      <trkpt lat="42.38966" lon="2.17426">
        <ele>2427.1</ele>
        <time>2019-01-07T19:07:34Z</time>
      </trkpt>
      <trkpt lat="42.38957" lon="2.17427">
        <ele>2431</ele>
        <time>2019-01-07T19:07:37Z</time>
      </trkpt>
      <trkpt lat="42.38947" lon="2.17426">
        <ele>2433</ele>
        <time>2019-01-07T19:07:39Z</time>
      </trkpt>
      <trkpt lat="42.38937" lon="2.17429">
        <ele>2433</ele>
        <time>2019-01-07T19:07:42Z</time>
      </trkpt>
      <trkpt lat="42.38928" lon="2.17433">
        <ele>2433</ele>
        <time>2019-01-07T19:07:45Z</time>
      </trkpt>
      <trkpt lat="42.38919" lon="2.17436">
        <ele>2437</ele>
        <time>2019-01-07T19:07:47Z</time>
      </trkpt>
      <trkpt lat="42.38911" lon="2.17443">
        <ele>2440</ele>
        <time>2019-01-07T19:07:50Z</time>
      </trkpt>
      <trkpt lat="42.38902" lon="2.17446">
        <ele>2445</ele>
        <time>2019-01-07T19:07:52Z</time>
      </trkpt>
      <trkpt lat="42.38894" lon="2.1745">
        <ele>2450</ele>
        <time>2019-01-07T19:07:54Z</time>
      </trkpt>
      <trkpt lat="42.38885" lon="2.17454">
        <ele>2451</ele>
        <time>2019-01-07T19:07:57Z</time>
      </trkpt>
      <trkpt lat="42.38876" lon="2.17457">
        <ele>2457</ele>
        <time>2019-01-07T19:07:59Z</time>
      </trkpt>
      <trkpt lat="42.38867" lon="2.17461">
        <ele>2461</ele>
        <time>2019-01-07T19:08:02Z</time>
      </trkpt>
      <trkpt lat="42.38859" lon="2.17467">
        <ele>2464.1</ele>
        <time>2019-01-07T19:08:04Z</time>
      </trkpt>
      <trkpt lat="42.38852" lon="2.17476">
        <ele>2465</ele>
        <time>2019-01-07T19:08:07Z</time>
      </trkpt>
      <trkpt lat="42.38845" lon="2.17484">
        <ele>2469</ele>
        <time>2019-01-07T19:08:09Z</time>
      </trkpt>
      <trkpt lat="42.38837" lon="2.17492">
        <ele>2470</ele>
        <time>2019-01-07T19:08:12Z</time>
      </trkpt>
      <trkpt lat="42.38831" lon="2.17501">
        <ele>2475</ele>
        <time>2019-01-07T19:08:14Z</time>
      </trkpt>
      <trkpt lat="42.38826" lon="2.17512">
        <ele>2478.1</ele>
        <time>2019-01-07T19:08:17Z</time>
      </trkpt>
      <trkpt lat="42.38826" lon="2.17524">
        <ele>2485.1</ele>
        <time>2019-01-07T19:08:20Z</time>
      </trkpt>
      <trkpt lat="42.38831" lon="2.17536">
        <ele>2485.1</ele>
        <time>2019-01-07T19:08:22Z</time>
      </trkpt>
      <trkpt lat="42.38834" lon="2.17548">
        <ele>2486</ele>
        <time>2019-01-07T19:08:25Z</time>
      </trkpt>
      <trkpt lat="42.38834" lon="2.1756">
        <ele>2486.1</ele>
        <time>2019-01-07T19:08:27Z</time>
      </trkpt>
      <trkpt lat="42.38837" lon="2.17573">
        <ele>2488</ele>
        <time>2019-01-07T19:08:30Z</time>
      </trkpt>
      <trkpt lat="42.38841" lon="2.17585">
        <ele>2487.1</ele>
        <time>2019-01-07T19:08:32Z</time>
      </trkpt>
      <trkpt lat="42.38844" lon="2.17598">
        <ele>2487</ele>
        <time>2019-01-07T19:08:35Z</time>
      </trkpt>
      <trkpt lat="42.38846" lon="2.17609">
        <ele>2492</ele>
        <time>2019-01-07T19:08:37Z</time>
      </trkpt>
      <trkpt lat="42.38851" lon="2.17619">
        <ele>2498</ele>
        <time>2019-01-07T19:08:40Z</time>
      </trkpt>
      <trkpt lat="42.38857" lon="2.17629">
        <ele>2502.1</ele>
        <time>2019-01-07T19:08:42Z</time>
      </trkpt>
      <trkpt lat="42.38858" lon="2.17641">
        <ele>2503.1</ele>
        <time>2019-01-07T19:08:45Z</time>
      </trkpt>
      <trkpt lat="42.38862" lon="2.17654">
        <ele>2505</ele>
        <time>2019-01-07T19:08:47Z</time>
      </trkpt>
      <trkpt lat="42.38863" lon="2.17667">
        <ele>2507</ele>
        <time>2019-01-07T19:08:50Z</time>
      </trkpt>
      <trkpt lat="42.38868" lon="2.17677">
        <ele>2514.1</ele>
        <time>2019-01-07T19:08:52Z</time>
      </trkpt>
      <trkpt lat="42.38874" lon="2.17688">
        <ele>2514.1</ele>
        <time>2019-01-07T19:08:55Z</time>
      </trkpt>
      <trkpt lat="42.38881" lon="2.17695">
        <ele>2518</ele>
        <time>2019-01-07T19:08:57Z</time>
      </trkpt>
      <trkpt lat="42.3889" lon="2.17701">
        <ele>2528.1</ele>
        <time>2019-01-07T19:09:00Z</time>
      </trkpt>
      <trkpt lat="42.38897" lon="2.17709">
        <ele>2531.1</ele>
        <time>2019-01-07T19:09:02Z</time>
      </trkpt>
      <trkpt lat="42.38901" lon="2.1772">
        <ele>2533.1</ele>
        <time>2019-01-07T19:09:05Z</time>
      </trkpt>
      <trkpt lat="42.38902" lon="2.17733">
        <ele>2538</ele>
        <time>2019-01-07T19:09:07Z</time>
      </trkpt>
      <trkpt lat="42.38911" lon="2.17733">
        <ele>2541</ele>
        <time>2019-01-07T19:09:10Z</time>
      </trkpt>
      <trkpt lat="42.38921" lon="2.17733">
        <ele>2544</ele>
        <time>2019-01-07T19:09:12Z</time>
      </trkpt>
      <trkpt lat="42.3893" lon="2.17734">
        <ele>2551</ele>
        <time>2019-01-07T19:09:15Z</time>
      </trkpt>
      <trkpt lat="42.38939" lon="2.17738">
        <ele>2553.1</ele>
        <time>2019-01-07T19:09:17Z</time>
      </trkpt>
      <trkpt lat="42.38947" lon="2.17744">
        <ele>2553.1</ele>
        <time>2019-01-07T19:09:20Z</time>
      </trkpt>
      <trkpt lat="42.38955" lon="2.17752">
        <ele>2553</ele>
        <time>2019-01-07T19:09:22Z</time>
      </trkpt>
      <trkpt lat="42.38962" lon="2.17761">
        <ele>2554.1</ele>
        <time>2019-01-07T19:09:25Z</time>
      </trkpt>
      <trkpt lat="42.38972" lon="2.17767">
        <ele>2555</ele>
        <time>2019-01-07T19:09:28Z</time>
      </trkpt>
      <trkpt lat="42.38977" lon="2.17779">
        <ele>2558</ele>
        <time>2019-01-07T19:09:31Z</time>
      </trkpt>
      <trkpt lat="42.38982" lon="2.17789">
        <ele>2558</ele>
        <time>2019-01-07T19:09:33Z</time>
      </trkpt>
      <trkpt lat="42.38989" lon="2.17799">
        <ele>2560.1</ele>
        <time>2019-01-07T19:09:36Z</time>
      </trkpt>
      <trkpt lat="42.38998" lon="2.17807">
        <ele>2559</ele>
        <time>2019-01-07T19:09:38Z</time>
      </trkpt>
      <trkpt lat="42.39006" lon="2.17811">
        <ele>2562</ele>
        <time>2019-01-07T19:09:41Z</time>
      </trkpt>
      <trkpt lat="42.39015" lon="2.17816">
        <ele>2566</ele>
        <time>2019-01-07T19:09:43Z</time>
      </trkpt>
      <trkpt lat="42.39023" lon="2.17822">
        <ele>2570</ele>
        <time>2019-01-07T19:09:46Z</time>
      </trkpt>
      <trkpt lat="42.39031" lon="2.1783">
        <ele>2569.1</ele>
        <time>2019-01-07T19:09:49Z</time>
      </trkpt>
      <trkpt lat="42.39038" lon="2.17839">
        <ele>2572.1</ele>
        <time>2019-01-07T19:09:51Z</time>
      </trkpt>
      <trkpt lat="42.39046" lon="2.17848">
        <ele>2572.1</ele>
        <time>2019-01-07T19:09:54Z</time>
      </trkpt>
      <trkpt lat="42.39055" lon="2.17853">
        <ele>2575.1</ele>
        <time>2019-01-07T19:09:56Z</time>
      </trkpt>
      <trkpt lat="42.39063" lon="2.1786">
        <ele>2576.1</ele>
        <time>2019-01-07T19:09:59Z</time>
      </trkpt>
      <trkpt lat="42.39071" lon="2.17866">
        <ele>2578</ele>
        <time>2019-01-07T19:10:02Z</time>
      </trkpt>
      <trkpt lat="42.39081" lon="2.17869">
        <ele>2579.1</ele>
        <time>2019-01-07T19:10:04Z</time>
      </trkpt>
      <trkpt lat="42.39091" lon="2.17872">
        <ele>2580</ele>
        <time>2019-01-07T19:10:07Z</time>
      </trkpt>
      <trkpt lat="42.39099" lon="2.17879">
        <ele>2580</ele>
        <time>2019-01-07T19:10:10Z</time>
      </trkpt>
      <trkpt lat="42.39106" lon="2.17888">
        <ele>2581</ele>
        <time>2019-01-07T19:10:12Z</time>
      </trkpt>
      <trkpt lat="42.39114" lon="2.17893">
        <ele>2583.1</ele>
        <time>2019-01-07T19:10:14Z</time>
      </trkpt>
      <trkpt lat="42.39121" lon="2.17902">
        <ele>2584.1</ele>
        <time>2019-01-07T19:10:17Z</time>
      </trkpt>
      <trkpt lat="42.39126" lon="2.17913">
        <ele>2584.1</ele>
        <time>2019-01-07T19:10:19Z</time>
      </trkpt>
      <trkpt lat="42.39133" lon="2.17921">
        <ele>2587</ele>
        <time>2019-01-07T19:10:22Z</time>
      </trkpt>
      <trkpt lat="42.3914" lon="2.1793">
        <ele>2590.1</ele>
        <time>2019-01-07T19:10:25Z</time>
      </trkpt>
      <trkpt lat="42.39144" lon="2.17943">
        <ele>2588.1</ele>
        <time>2019-01-07T19:10:27Z</time>
      </trkpt>
      <trkpt lat="42.3915" lon="2.17952">
        <ele>2590.1</ele>
        <time>2019-01-07T19:10:30Z</time>
      </trkpt>
      <trkpt lat="42.39158" lon="2.17962">
        <ele>2588</ele>
        <time>2019-01-07T19:10:33Z</time>
      </trkpt>
      <trkpt lat="42.39164" lon="2.17972">
        <ele>2592</ele>
        <time>2019-01-07T19:10:35Z</time>
      </trkpt>
      <trkpt lat="42.3917" lon="2.17982">
        <ele>2594.1</ele>
        <time>2019-01-07T19:10:38Z</time>
      </trkpt>
      <trkpt lat="42.39176" lon="2.17992">
        <ele>2595</ele>
        <time>2019-01-07T19:10:40Z</time>
      </trkpt>
      <trkpt lat="42.39182" lon="2.18004">
        <ele>2598</ele>
        <time>2019-01-07T19:10:43Z</time>
      </trkpt>
      <trkpt lat="42.39185" lon="2.18016">
        <ele>2602</ele>
        <time>2019-01-07T19:10:46Z</time>
      </trkpt>
      <trkpt lat="42.39185" lon="2.18029">
        <ele>2605.1</ele>
        <time>2019-01-07T19:10:48Z</time>
      </trkpt>
      <trkpt lat="42.39187" lon="2.18041">
        <ele>2606</ele>
        <time>2019-01-07T19:10:51Z</time>
      </trkpt>
      <trkpt lat="42.39186" lon="2.18055">
        <ele>2607.1</ele>
        <time>2019-01-07T19:10:53Z</time>
      </trkpt>
      <trkpt lat="42.39188" lon="2.18068">
        <ele>2606.1</ele>
        <time>2019-01-07T19:10:56Z</time>
      </trkpt>
      <trkpt lat="42.39193" lon="2.18079">
        <ele>2606</ele>
        <time>2019-01-07T19:10:59Z</time>
      </trkpt>
      <trkpt lat="42.39198" lon="2.1809">
        <ele>2606.1</ele>
        <time>2019-01-07T19:11:01Z</time>
      </trkpt>
      <trkpt lat="42.39203" lon="2.181">
        <ele>2604</ele>
        <time>2019-01-07T19:11:04Z</time>
      </trkpt>
      <trkpt lat="42.39209" lon="2.18111">
        <ele>2604</ele>
        <time>2019-01-07T19:11:06Z</time>
      </trkpt>
      <trkpt lat="42.39213" lon="2.18124">
        <ele>2605.1</ele>
        <time>2019-01-07T19:11:09Z</time>
      </trkpt>
      <trkpt lat="42.39216" lon="2.18137">
        <ele>2607</ele>
        <time>2019-01-07T19:11:12Z</time>
      </trkpt>
      <trkpt lat="42.39221" lon="2.18151">
        <ele>2608</ele>
        <time>2019-01-07T19:11:15Z</time>
      </trkpt>
      <trkpt lat="42.39225" lon="2.18164">
        <ele>2609.1</ele>
        <time>2019-01-07T19:11:18Z</time>
      </trkpt>
      <trkpt lat="42.3923" lon="2.18176">
        <ele>2610</ele>
        <time>2019-01-07T19:11:20Z</time>
      </trkpt>
      <trkpt lat="42.39232" lon="2.1819">
        <ele>2613</ele>
        <time>2019-01-07T19:11:23Z</time>
      </trkpt>
      <trkpt lat="42.39234" lon="2.18203">
        <ele>2615</ele>
        <time>2019-01-07T19:11:26Z</time>
      </trkpt>
      <trkpt lat="42.39241" lon="2.18214">
        <ele>2616.1</ele>
        <time>2019-01-07T19:11:29Z</time>
      </trkpt>
      <trkpt lat="42.39251" lon="2.18221">
        <ele>2617</ele>
        <time>2019-01-07T19:11:31Z</time>
      </trkpt>
      <trkpt lat="42.39259" lon="2.18231">
        <ele>2615</ele>
        <time>2019-01-07T19:11:34Z</time>
      </trkpt>
      <trkpt lat="42.39267" lon="2.18242">
        <ele>2616.1</ele>
        <time>2019-01-07T19:11:37Z</time>
      </trkpt>
      <trkpt lat="42.39274" lon="2.18251">
        <ele>2616.1</ele>
        <time>2019-01-07T19:11:40Z</time>
      </trkpt>
      <trkpt lat="42.39279" lon="2.18261">
        <ele>2617.1</ele>
        <time>2019-01-07T19:11:42Z</time>
      </trkpt>
      <trkpt lat="42.39287" lon="2.18271">
        <ele>2616</ele>
        <time>2019-01-07T19:11:45Z</time>
      </trkpt>
      <trkpt lat="42.39292" lon="2.18281">
        <ele>2615</ele>
        <time>2019-01-07T19:11:48Z</time>
      </trkpt>
      <trkpt lat="42.39298" lon="2.18292">
        <ele>2617</ele>
        <time>2019-01-07T19:11:50Z</time>
      </trkpt>
      <trkpt lat="42.39303" lon="2.18305">
        <ele>2617.1</ele>
        <time>2019-01-07T19:11:53Z</time>
      </trkpt>
      <trkpt lat="42.39308" lon="2.18317">
        <ele>2617.1</ele>
        <time>2019-01-07T19:11:56Z</time>
      </trkpt>
      <trkpt lat="42.39311" lon="2.18329">
        <ele>2618.1</ele>
        <time>2019-01-07T19:11:58Z</time>
      </trkpt>
      <trkpt lat="42.39314" lon="2.18341">
        <ele>2616.1</ele>
        <time>2019-01-07T19:12:01Z</time>
      </trkpt>
      <trkpt lat="42.39319" lon="2.18353">
        <ele>2617</ele>
        <time>2019-01-07T19:12:04Z</time>
      </trkpt>
      <trkpt lat="42.39322" lon="2.18365">
        <ele>2618</ele>
        <time>2019-01-07T19:12:06Z</time>
      </trkpt>
      <trkpt lat="42.39325" lon="2.18379">
        <ele>2617</ele>
        <time>2019-01-07T19:12:09Z</time>
      </trkpt>
      <trkpt lat="42.39327" lon="2.18391">
        <ele>2616</ele>
        <time>2019-01-07T19:12:11Z</time>
      </trkpt>
      <trkpt lat="42.39327" lon="2.18405">
        <ele>2617</ele>
        <time>2019-01-07T19:12:14Z</time>
      </trkpt>
      <trkpt lat="42.39328" lon="2.18417">
        <ele>2617</ele>
        <time>2019-01-07T19:12:17Z</time>
      </trkpt>
      <trkpt lat="42.39328" lon="2.18433">
        <ele>2617</ele>
        <time>2019-01-07T19:12:20Z</time>
      </trkpt>
      <trkpt lat="42.3933" lon="2.18446">
        <ele>2617.1</ele>
        <time>2019-01-07T19:12:22Z</time>
      </trkpt>
      <trkpt lat="42.39332" lon="2.1846">
        <ele>2616</ele>
        <time>2019-01-07T19:12:25Z</time>
      </trkpt>
      <trkpt lat="42.39333" lon="2.18473">
        <ele>2616</ele>
        <time>2019-01-07T19:12:28Z</time>
      </trkpt>
      <trkpt lat="42.39332" lon="2.18487">
        <ele>2613.1</ele>
        <time>2019-01-07T19:12:30Z</time>
      </trkpt>
      <trkpt lat="42.39337" lon="2.18498">
        <ele>2613</ele>
        <time>2019-01-07T19:12:33Z</time>
      </trkpt>
      <trkpt lat="42.39339" lon="2.18512">
        <ele>2613.1</ele>
        <time>2019-01-07T19:12:36Z</time>
      </trkpt>
      <trkpt lat="42.3934" lon="2.18524">
        <ele>2613.1</ele>
        <time>2019-01-07T19:12:38Z</time>
      </trkpt>
      <trkpt lat="42.39343" lon="2.18537">
        <ele>2612</ele>
        <time>2019-01-07T19:12:41Z</time>
      </trkpt>
      <trkpt lat="42.39342" lon="2.18549">
        <ele>2614.1</ele>
        <time>2019-01-07T19:12:43Z</time>
      </trkpt>
      <trkpt lat="42.39341" lon="2.18562">
        <ele>2613</ele>
        <time>2019-01-07T19:12:46Z</time>
      </trkpt>
      <trkpt lat="42.39342" lon="2.18577">
        <ele>2612</ele>
        <time>2019-01-07T19:12:49Z</time>
      </trkpt>
      <trkpt lat="42.39344" lon="2.1859">
        <ele>2609</ele>
        <time>2019-01-07T19:12:51Z</time>
      </trkpt>
      <trkpt lat="42.39346" lon="2.18603">
        <ele>2607.1</ele>
        <time>2019-01-07T19:12:54Z</time>
      </trkpt>
      <trkpt lat="42.39348" lon="2.18617">
        <ele>2608</ele>
        <time>2019-01-07T19:12:57Z</time>
      </trkpt>
      <trkpt lat="42.39352" lon="2.18629">
        <ele>2609</ele>
        <time>2019-01-07T19:12:59Z</time>
      </trkpt>
      <trkpt lat="42.39352" lon="2.18642">
        <ele>2611.1</ele>
        <time>2019-01-07T19:13:02Z</time>
      </trkpt>
      <trkpt lat="42.39354" lon="2.18654">
        <ele>2613.1</ele>
        <time>2019-01-07T19:13:05Z</time>
      </trkpt>
      <trkpt lat="42.39358" lon="2.18667">
        <ele>2610.1</ele>
        <time>2019-01-07T19:13:07Z</time>
      </trkpt>
      <trkpt lat="42.39361" lon="2.18678">
        <ele>2610.1</ele>
        <time>2019-01-07T19:13:10Z</time>
      </trkpt>
      <trkpt lat="42.39364" lon="2.1869">
        <ele>2611</ele>
        <time>2019-01-07T19:13:12Z</time>
      </trkpt>
      <trkpt lat="42.39364" lon="2.18703">
        <ele>2608</ele>
        <time>2019-01-07T19:13:15Z</time>
      </trkpt>
      <trkpt lat="42.39366" lon="2.18717">
        <ele>2608.1</ele>
        <time>2019-01-07T19:13:17Z</time>
      </trkpt>
      <trkpt lat="42.39368" lon="2.1873">
        <ele>2607</ele>
        <time>2019-01-07T19:13:20Z</time>
      </trkpt>
      <trkpt lat="42.39368" lon="2.18744">
        <ele>2608</ele>
        <time>2019-01-07T19:13:23Z</time>
      </trkpt>
      <trkpt lat="42.39367" lon="2.18758">
        <ele>2609.1</ele>
        <time>2019-01-07T19:13:26Z</time>
      </trkpt>
      <trkpt lat="42.39369" lon="2.1877">
        <ele>2612.1</ele>
        <time>2019-01-07T19:13:28Z</time>
      </trkpt>
      <trkpt lat="42.39371" lon="2.18785">
        <ele>2612</ele>
        <time>2019-01-07T19:13:31Z</time>
      </trkpt>
      <trkpt lat="42.39371" lon="2.188">
        <ele>2611.1</ele>
        <time>2019-01-07T19:13:34Z</time>
      </trkpt>
      <trkpt lat="42.3937" lon="2.18812">
        <ele>2610</ele>
        <time>2019-01-07T19:13:36Z</time>
      </trkpt>
      <trkpt lat="42.39366" lon="2.18828">
        <ele>2608.1</ele>
        <time>2019-01-07T19:13:39Z</time>
      </trkpt>
      <trkpt lat="42.39367" lon="2.18842">
        <ele>2608.1</ele>
        <time>2019-01-07T19:13:42Z</time>
      </trkpt>
      <trkpt lat="42.39373" lon="2.18851">
        <ele>2609</ele>
        <time>2019-01-07T19:13:45Z</time>
      </trkpt>
      <trkpt lat="42.39373" lon="2.18863">
        <ele>2611.1</ele>
        <time>2019-01-07T19:13:47Z</time>
      </trkpt>
      <trkpt lat="42.39376" lon="2.18875">
        <ele>2611</ele>
        <time>2019-01-07T19:13:50Z</time>
      </trkpt>
      <trkpt lat="42.39382" lon="2.18887">
        <ele>2610</ele>
        <time>2019-01-07T19:13:52Z</time>
      </trkpt>
      <trkpt lat="42.39384" lon="2.18899">
        <ele>2609</ele>
        <time>2019-01-07T19:13:55Z</time>
      </trkpt>
      <trkpt lat="42.39387" lon="2.18912">
        <ele>2612.1</ele>
        <time>2019-01-07T19:13:58Z</time>
      </trkpt>
      <trkpt lat="42.39391" lon="2.18925">
        <ele>2614</ele>
        <time>2019-01-07T19:14:00Z</time>
      </trkpt>
      <trkpt lat="42.39393" lon="2.18937">
        <ele>2611.1</ele>
        <time>2019-01-07T19:14:03Z</time>
      </trkpt>
      <trkpt lat="42.39394" lon="2.18951">
        <ele>2611.1</ele>
        <time>2019-01-07T19:14:06Z</time>
      </trkpt>
      <trkpt lat="42.39394" lon="2.18964">
        <ele>2610.1</ele>
        <time>2019-01-07T19:14:08Z</time>
      </trkpt>
      <trkpt lat="42.39396" lon="2.18978">
        <ele>2610</ele>
        <time>2019-01-07T19:14:11Z</time>
      </trkpt>
      <trkpt lat="42.39399" lon="2.1899">
        <ele>2609</ele>
        <time>2019-01-07T19:14:13Z</time>
      </trkpt>
      <trkpt lat="42.39403" lon="2.19003">
        <ele>2613.1</ele>
        <time>2019-01-07T19:14:16Z</time>
      </trkpt>
      <trkpt lat="42.39406" lon="2.19015">
        <ele>2610.1</ele>
        <time>2019-01-07T19:14:19Z</time>
      </trkpt>
      <trkpt lat="42.3941" lon="2.19026">
        <ele>2610</ele>
        <time>2019-01-07T19:14:21Z</time>
      </trkpt>
      <trkpt lat="42.39412" lon="2.19038">
        <ele>2608</ele>
        <time>2019-01-07T19:14:24Z</time>
      </trkpt>
      <trkpt lat="42.39414" lon="2.1905">
        <ele>2608</ele>
        <time>2019-01-07T19:14:26Z</time>
      </trkpt>
      <trkpt lat="42.39414" lon="2.19065">
        <ele>2613</ele>
        <time>2019-01-07T19:14:29Z</time>
      </trkpt>
      <trkpt lat="42.39419" lon="2.19074">
        <ele>2616.1</ele>
        <time>2019-01-07T19:14:31Z</time>
      </trkpt>
      <trkpt lat="42.39417" lon="2.19089">
        <ele>2619.1</ele>
        <time>2019-01-07T19:14:34Z</time>
      </trkpt>
      <trkpt lat="42.39419" lon="2.19101">
        <ele>2617</ele>
        <time>2019-01-07T19:14:37Z</time>
      </trkpt>
      <trkpt lat="42.39426" lon="2.1911">
        <ele>2618.1</ele>
        <time>2019-01-07T19:14:39Z</time>
      </trkpt>
      <trkpt lat="42.39434" lon="2.1912">
        <ele>2619</ele>
        <time>2019-01-07T19:14:42Z</time>
      </trkpt>
      <trkpt lat="42.39442" lon="2.19131">
        <ele>2620</ele>
        <time>2019-01-07T19:14:45Z</time>
      </trkpt>
      <trkpt lat="42.3945" lon="2.1914">
        <ele>2616.1</ele>
        <time>2019-01-07T19:14:48Z</time>
      </trkpt>
      <trkpt lat="42.39458" lon="2.19147">
        <ele>2615.1</ele>
        <time>2019-01-07T19:14:50Z</time>
      </trkpt>
      <trkpt lat="42.39467" lon="2.19152">
        <ele>2611</ele>
        <time>2019-01-07T19:14:53Z</time>
      </trkpt>
      <trkpt lat="42.39476" lon="2.19155">
        <ele>2608</ele>
        <time>2019-01-07T19:14:56Z</time>
      </trkpt>
      <trkpt lat="42.39486" lon="2.19156">
        <ele>2603</ele>
        <time>2019-01-07T19:14:58Z</time>
      </trkpt>
      <trkpt lat="42.39493" lon="2.19165">
        <ele>2600.1</ele>
        <time>2019-01-07T19:15:01Z</time>
      </trkpt>
      <trkpt lat="42.39501" lon="2.19175">
        <ele>2596.1</ele>
        <time>2019-01-07T19:15:04Z</time>
      </trkpt>
      <trkpt lat="42.39509" lon="2.19183">
        <ele>2594</ele>
        <time>2019-01-07T19:15:06Z</time>
      </trkpt>
      <trkpt lat="42.39519" lon="2.19186">
        <ele>2590</ele>
        <time>2019-01-07T19:15:09Z</time>
      </trkpt>
      <trkpt lat="42.39527" lon="2.19181">
        <ele>2588.1</ele>
        <time>2019-01-07T19:15:12Z</time>
      </trkpt>
      <trkpt lat="42.39537" lon="2.19175">
        <ele>2589</ele>
        <time>2019-01-07T19:15:14Z</time>
      </trkpt>
      <trkpt lat="42.39549" lon="2.19172">
        <ele>2588.1</ele>
        <time>2019-01-07T19:15:18Z</time>
      </trkpt>
      <trkpt lat="42.39559" lon="2.19168">
        <ele>2584</ele>
        <time>2019-01-07T19:15:20Z</time>
      </trkpt>
      <trkpt lat="42.3957" lon="2.19165">
        <ele>2577.1</ele>
        <time>2019-01-07T19:15:23Z</time>
      </trkpt>
      <trkpt lat="42.39579" lon="2.19163">
        <ele>2574</ele>
        <time>2019-01-07T19:15:26Z</time>
      </trkpt>
      <trkpt lat="42.39588" lon="2.19158">
        <ele>2571</ele>
        <time>2019-01-07T19:15:28Z</time>
      </trkpt>
      <trkpt lat="42.39596" lon="2.19169">
        <ele>2566</ele>
        <time>2019-01-07T19:15:31Z</time>
      </trkpt>
      <trkpt lat="42.39605" lon="2.19167">
        <ele>2563</ele>
        <time>2019-01-07T19:15:34Z</time>
      </trkpt>
      <trkpt lat="42.39614" lon="2.19159">
        <ele>2562.1</ele>
        <time>2019-01-07T19:15:37Z</time>
      </trkpt>
      <trkpt lat="42.39623" lon="2.19157">
        <ele>2559.1</ele>
        <time>2019-01-07T19:15:39Z</time>
      </trkpt>
      <trkpt lat="42.39625" lon="2.19169">
        <ele>2558.1</ele>
        <time>2019-01-07T19:15:41Z</time>
      </trkpt>
      <trkpt lat="42.39624" lon="2.19184">
        <ele>2551</ele>
        <time>2019-01-07T19:15:44Z</time>
      </trkpt>
      <trkpt lat="42.39621" lon="2.19197">
        <ele>2548</ele>
        <time>2019-01-07T19:15:47Z</time>
      </trkpt>
      <trkpt lat="42.39616" lon="2.19209">
        <ele>2542</ele>
        <time>2019-01-07T19:15:50Z</time>
      </trkpt>
      <trkpt lat="42.39617" lon="2.19224">
        <ele>2536.1</ele>
        <time>2019-01-07T19:15:53Z</time>
      </trkpt>
      <trkpt lat="42.39619" lon="2.19237">
        <ele>2532</ele>
        <time>2019-01-07T19:15:55Z</time>
      </trkpt>
      <trkpt lat="42.39619" lon="2.19252">
        <ele>2531</ele>
        <time>2019-01-07T19:15:58Z</time>
      </trkpt>
      <trkpt lat="42.39621" lon="2.19265">
        <ele>2522</ele>
        <time>2019-01-07T19:16:01Z</time>
      </trkpt>
      <trkpt lat="42.3963" lon="2.19263">
        <ele>2522</ele>
        <time>2019-01-07T19:16:04Z</time>
      </trkpt>
      <trkpt lat="42.39639" lon="2.19268">
        <ele>2518</ele>
        <time>2019-01-07T19:16:06Z</time>
      </trkpt>
      <trkpt lat="42.39647" lon="2.19274">
        <ele>2513</ele>
        <time>2019-01-07T19:16:09Z</time>
      </trkpt>
      <trkpt lat="42.39653" lon="2.19283">
        <ele>2508</ele>
        <time>2019-01-07T19:16:11Z</time>
      </trkpt>
      <trkpt lat="42.39663" lon="2.19291">
        <ele>2506.1</ele>
        <time>2019-01-07T19:16:14Z</time>
      </trkpt>
      <trkpt lat="42.39672" lon="2.19298">
        <ele>2501.1</ele>
        <time>2019-01-07T19:16:17Z</time>
      </trkpt>
      <trkpt lat="42.39678" lon="2.19309">
        <ele>2493.1</ele>
        <time>2019-01-07T19:16:20Z</time>
      </trkpt>
      <trkpt lat="42.39687" lon="2.19312">
        <ele>2488.1</ele>
        <time>2019-01-07T19:16:22Z</time>
      </trkpt>
      <trkpt lat="42.39697" lon="2.19314">
        <ele>2486</ele>
        <time>2019-01-07T19:16:25Z</time>
      </trkpt>
      <trkpt lat="42.39706" lon="2.19317">
        <ele>2480.1</ele>
        <time>2019-01-07T19:16:27Z</time>
      </trkpt>
      <trkpt lat="42.39716" lon="2.19323">
        <ele>2472.1</ele>
        <time>2019-01-07T19:16:30Z</time>
      </trkpt>
      <trkpt lat="42.39724" lon="2.1933">
        <ele>2470</ele>
        <time>2019-01-07T19:16:33Z</time>
      </trkpt>
      <trkpt lat="42.3973" lon="2.19339">
        <ele>2464</ele>
        <time>2019-01-07T19:16:35Z</time>
      </trkpt>
      <trkpt lat="42.3974" lon="2.19341">
        <ele>2457</ele>
        <time>2019-01-07T19:16:38Z</time>
      </trkpt>
      <trkpt lat="42.39749" lon="2.19344">
        <ele>2450</ele>
        <time>2019-01-07T19:16:40Z</time>
      </trkpt>
      <trkpt lat="42.39758" lon="2.19348">
        <ele>2448</ele>
        <time>2019-01-07T19:16:43Z</time>
      </trkpt>
      <trkpt lat="42.39767" lon="2.19351">
        <ele>2442</ele>
        <time>2019-01-07T19:16:45Z</time>
      </trkpt>
      <trkpt lat="42.39777" lon="2.19354">
        <ele>2439.1</ele>
        <time>2019-01-07T19:16:48Z</time>
      </trkpt>
      <trkpt lat="42.39787" lon="2.19357">
        <ele>2437.1</ele>
        <time>2019-01-07T19:16:51Z</time>
      </trkpt>
      <trkpt lat="42.39797" lon="2.19354">
        <ele>2436.1</ele>
        <time>2019-01-07T19:16:53Z</time>
      </trkpt>
      <trkpt lat="42.39804" lon="2.19344">
        <ele>2428.1</ele>
        <time>2019-01-07T19:16:56Z</time>
      </trkpt>
      <trkpt lat="42.39804" lon="2.19332">
        <ele>2430.1</ele>
        <time>2019-01-07T19:16:59Z</time>
      </trkpt>
      <trkpt lat="42.39811" lon="2.19324">
        <ele>2430.1</ele>
        <time>2019-01-07T19:17:01Z</time>
      </trkpt>
      <trkpt lat="42.39821" lon="2.19325">
        <ele>2429</ele>
        <time>2019-01-07T19:17:03Z</time>
      </trkpt>
      <trkpt lat="42.39828" lon="2.19333">
        <ele>2425</ele>
        <time>2019-01-07T19:17:06Z</time>
      </trkpt>
      <trkpt lat="42.39836" lon="2.19338">
        <ele>2425.1</ele>
        <time>2019-01-07T19:17:08Z</time>
      </trkpt>
      <trkpt lat="42.39841" lon="2.19349">
        <ele>2421</ele>
        <time>2019-01-07T19:17:11Z</time>
      </trkpt>
      <trkpt lat="42.39842" lon="2.19363">
        <ele>2420.1</ele>
        <time>2019-01-07T19:17:14Z</time>
      </trkpt>
      <trkpt lat="42.39848" lon="2.19372">
        <ele>2414</ele>
        <time>2019-01-07T19:17:16Z</time>
      </trkpt>
      <trkpt lat="42.39855" lon="2.19382">
        <ele>2406.1</ele>
        <time>2019-01-07T19:17:19Z</time>
      </trkpt>
      <trkpt lat="42.3986" lon="2.19393">
        <ele>2402</ele>
        <time>2019-01-07T19:17:21Z</time>
      </trkpt>
      <trkpt lat="42.39867" lon="2.19403">
        <ele>2402.1</ele>
        <time>2019-01-07T19:17:24Z</time>
      </trkpt>
      <trkpt lat="42.39877" lon="2.19409">
        <ele>2399</ele>
        <time>2019-01-07T19:17:27Z</time>
      </trkpt>
      <trkpt lat="42.39885" lon="2.19419">
        <ele>2392</ele>
        <time>2019-01-07T19:17:30Z</time>
      </trkpt>
      <trkpt lat="42.39894" lon="2.19425">
        <ele>2389</ele>
        <time>2019-01-07T19:17:33Z</time>
      </trkpt>
      <trkpt lat="42.39905" lon="2.19425">
        <ele>2384</ele>
        <time>2019-01-07T19:17:35Z</time>
      </trkpt>
      <trkpt lat="42.39915" lon="2.19424">
        <ele>2379</ele>
        <time>2019-01-07T19:17:38Z</time>
      </trkpt>
      <trkpt lat="42.39924" lon="2.19417">
        <ele>2377.1</ele>
        <time>2019-01-07T19:17:41Z</time>
      </trkpt>
      <trkpt lat="42.39933" lon="2.19409">
        <ele>2374</ele>
        <time>2019-01-07T19:17:44Z</time>
      </trkpt>
      <trkpt lat="42.39944" lon="2.19407">
        <ele>2374.1</ele>
        <time>2019-01-07T19:17:47Z</time>
      </trkpt>
      <trkpt lat="42.39953" lon="2.1941">
        <ele>2373</ele>
        <time>2019-01-07T19:17:49Z</time>
      </trkpt>
      <trkpt lat="42.39962" lon="2.19413">
        <ele>2376.1</ele>
        <time>2019-01-07T19:17:52Z</time>
      </trkpt>
      <trkpt lat="42.39969" lon="2.19422">
        <ele>2374</ele>
        <time>2019-01-07T19:17:54Z</time>
      </trkpt>
      <trkpt lat="42.39973" lon="2.19435">
        <ele>2371</ele>
        <time>2019-01-07T19:17:57Z</time>
      </trkpt>
      <trkpt lat="42.39978" lon="2.19445">
        <ele>2364.1</ele>
        <time>2019-01-07T19:17:59Z</time>
      </trkpt>
      <trkpt lat="42.39983" lon="2.19458">
        <ele>2365</ele>
        <time>2019-01-07T19:18:02Z</time>
      </trkpt>
      <trkpt lat="42.39987" lon="2.1947">
        <ele>2362</ele>
        <time>2019-01-07T19:18:05Z</time>
      </trkpt>
      <trkpt lat="42.39989" lon="2.19484">
        <ele>2363</ele>
        <time>2019-01-07T19:18:08Z</time>
      </trkpt>
      <trkpt lat="42.39991" lon="2.19498">
        <ele>2360</ele>
        <time>2019-01-07T19:18:10Z</time>
      </trkpt>
      <trkpt lat="42.39995" lon="2.1951">
        <ele>2355.1</ele>
        <time>2019-01-07T19:18:13Z</time>
      </trkpt>
      <trkpt lat="42.4" lon="2.19523">
        <ele>2352</ele>
        <time>2019-01-07T19:18:16Z</time>
      </trkpt>
      <trkpt lat="42.40007" lon="2.19533">
        <ele>2347.1</ele>
        <time>2019-01-07T19:18:18Z</time>
      </trkpt>
      <trkpt lat="42.40011" lon="2.19547">
        <ele>2342.1</ele>
        <time>2019-01-07T19:18:21Z</time>
      </trkpt>
      <trkpt lat="42.40013" lon="2.19559">
        <ele>2341.1</ele>
        <time>2019-01-07T19:18:24Z</time>
      </trkpt>
      <trkpt lat="42.40017" lon="2.19572">
        <ele>2341</ele>
        <time>2019-01-07T19:18:27Z</time>
      </trkpt>
      <trkpt lat="42.40016" lon="2.19586">
        <ele>2336.1</ele>
        <time>2019-01-07T19:18:29Z</time>
      </trkpt>
      <trkpt lat="42.40021" lon="2.19596">
        <ele>2333.1</ele>
        <time>2019-01-07T19:18:32Z</time>
      </trkpt>
      <trkpt lat="42.40019" lon="2.19608">
        <ele>2327</ele>
        <time>2019-01-07T19:18:34Z</time>
      </trkpt>
      <trkpt lat="42.40017" lon="2.19621">
        <ele>2328</ele>
        <time>2019-01-07T19:18:37Z</time>
      </trkpt>
      <trkpt lat="42.4002" lon="2.19633">
        <ele>2327</ele>
        <time>2019-01-07T19:18:39Z</time>
      </trkpt>
      <trkpt lat="42.40021" lon="2.19646">
        <ele>2321</ele>
        <time>2019-01-07T19:18:42Z</time>
      </trkpt>
      <trkpt lat="42.40026" lon="2.19658">
        <ele>2310.1</ele>
        <time>2019-01-07T19:18:45Z</time>
      </trkpt>
      <trkpt lat="42.40029" lon="2.19671">
        <ele>2305</ele>
        <time>2019-01-07T19:18:47Z</time>
      </trkpt>
      <trkpt lat="42.40029" lon="2.19684">
        <ele>2301</ele>
        <time>2019-01-07T19:18:50Z</time>
      </trkpt>
      <trkpt lat="42.40029" lon="2.19698">
        <ele>2297</ele>
        <time>2019-01-07T19:18:53Z</time>
      </trkpt>
      <trkpt lat="42.40031" lon="2.19711">
        <ele>2299</ele>
        <time>2019-01-07T19:18:55Z</time>
      </trkpt>
      <trkpt lat="42.40034" lon="2.19724">
        <ele>2299.1</ele>
        <time>2019-01-07T19:18:58Z</time>
      </trkpt>
      <trkpt lat="42.40036" lon="2.19737">
        <ele>2294</ele>
        <time>2019-01-07T19:19:00Z</time>
      </trkpt>
      <trkpt lat="42.40036" lon="2.19749">
        <ele>2291.1</ele>
        <time>2019-01-07T19:19:03Z</time>
      </trkpt>
      <trkpt lat="42.40036" lon="2.19763">
        <ele>2285.1</ele>
        <time>2019-01-07T19:19:06Z</time>
      </trkpt>
      <trkpt lat="42.40032" lon="2.19775">
        <ele>2281</ele>
        <time>2019-01-07T19:19:08Z</time>
      </trkpt>
      <trkpt lat="42.40042" lon="2.19777">
        <ele>2273</ele>
        <time>2019-01-07T19:19:11Z</time>
      </trkpt>
      <trkpt lat="42.40052" lon="2.19776">
        <ele>2270</ele>
        <time>2019-01-07T19:19:13Z</time>
      </trkpt>
      <trkpt lat="42.40056" lon="2.19788">
        <ele>2267.1</ele>
        <time>2019-01-07T19:19:16Z</time>
      </trkpt>
      <trkpt lat="42.40052" lon="2.19802">
        <ele>2269.1</ele>
        <time>2019-01-07T19:19:19Z</time>
      </trkpt>
      <trkpt lat="42.40055" lon="2.19814">
        <ele>2266</ele>
        <time>2019-01-07T19:19:21Z</time>
      </trkpt>
      <trkpt lat="42.40056" lon="2.19826">
        <ele>2266</ele>
        <time>2019-01-07T19:19:24Z</time>
      </trkpt>
      <trkpt lat="42.40052" lon="2.1984">
        <ele>2266</ele>
        <time>2019-01-07T19:19:26Z</time>
      </trkpt>
      <trkpt lat="42.4005" lon="2.19853">
        <ele>2261.1</ele>
        <time>2019-01-07T19:19:29Z</time>
      </trkpt>
      <trkpt lat="42.40059" lon="2.19854">
        <ele>2263.1</ele>
        <time>2019-01-07T19:19:31Z</time>
      </trkpt>
      <trkpt lat="42.40061" lon="2.19867">
        <ele>2255.1</ele>
        <time>2019-01-07T19:19:34Z</time>
      </trkpt>
      <trkpt lat="42.40059" lon="2.19879">
        <ele>2261.1</ele>
        <time>2019-01-07T19:19:37Z</time>
      </trkpt>
      <trkpt lat="42.40053" lon="2.19889">
        <ele>2259</ele>
        <time>2019-01-07T19:19:39Z</time>
      </trkpt>
      <trkpt lat="42.40048" lon="2.19899">
        <ele>2262</ele>
        <time>2019-01-07T19:19:41Z</time>
      </trkpt>
      <trkpt lat="42.40043" lon="2.19913">
        <ele>2255</ele>
        <time>2019-01-07T19:19:44Z</time>
      </trkpt>
      <trkpt lat="42.40036" lon="2.19925">
        <ele>2249</ele>
        <time>2019-01-07T19:19:48Z</time>
      </trkpt>
      <trkpt lat="42.40032" lon="2.19939">
        <ele>2251</ele>
        <time>2019-01-07T19:19:50Z</time>
      </trkpt>
      <trkpt lat="42.40031" lon="2.19951">
        <ele>2251</ele>
        <time>2019-01-07T19:19:53Z</time>
      </trkpt>
      <trkpt lat="42.40028" lon="2.19965">
        <ele>2250</ele>
        <time>2019-01-07T19:19:56Z</time>
      </trkpt>
      <trkpt lat="42.40021" lon="2.19976">
        <ele>2250.1</ele>
        <time>2019-01-07T19:19:59Z</time>
      </trkpt>
      <trkpt lat="42.40013" lon="2.19985">
        <ele>2248.1</ele>
        <time>2019-01-07T19:20:02Z</time>
      </trkpt>
      <trkpt lat="42.40007" lon="2.19995">
        <ele>2249</ele>
        <time>2019-01-07T19:20:04Z</time>
      </trkpt>
      <trkpt lat="42.40001" lon="2.20008">
        <ele>2249</ele>
        <time>2019-01-07T19:20:07Z</time>
      </trkpt>
      <trkpt lat="42.39995" lon="2.20019">
        <ele>2246.1</ele>
        <time>2019-01-07T19:20:10Z</time>
      </trkpt>
      <trkpt lat="42.39991" lon="2.20031">
        <ele>2245</ele>
        <time>2019-01-07T19:20:12Z</time>
      </trkpt>
      <trkpt lat="42.39988" lon="2.20045">
        <ele>2246</ele>
        <time>2019-01-07T19:20:15Z</time>
      </trkpt>
      <trkpt lat="42.39984" lon="2.2006">
        <ele>2241</ele>
        <time>2019-01-07T19:20:18Z</time>
      </trkpt>
      <trkpt lat="42.39981" lon="2.20072">
        <ele>2240.1</ele>
        <time>2019-01-07T19:20:21Z</time>
      </trkpt>
      <trkpt lat="42.39981" lon="2.20085">
        <ele>2239.1</ele>
        <time>2019-01-07T19:20:23Z</time>
      </trkpt>
      <trkpt lat="42.3998" lon="2.20101">
        <ele>2235.1</ele>
        <time>2019-01-07T19:20:26Z</time>
      </trkpt>
      <trkpt lat="42.39977" lon="2.20114">
        <ele>2236</ele>
        <time>2019-01-07T19:20:29Z</time>
      </trkpt>
      <trkpt lat="42.39975" lon="2.20127">
        <ele>2241.1</ele>
        <time>2019-01-07T19:20:32Z</time>
      </trkpt>
      <trkpt lat="42.39969" lon="2.20137">
        <ele>2242.1</ele>
        <time>2019-01-07T19:20:34Z</time>
      </trkpt>
      <trkpt lat="42.39963" lon="2.20147">
        <ele>2242</ele>
        <time>2019-01-07T19:20:37Z</time>
      </trkpt>
      <trkpt lat="42.39957" lon="2.20161">
        <ele>2243.1</ele>
        <time>2019-01-07T19:20:40Z</time>
      </trkpt>
      <trkpt lat="42.39952" lon="2.20171">
        <ele>2243</ele>
        <time>2019-01-07T19:20:42Z</time>
      </trkpt>
      <trkpt lat="42.39947" lon="2.20183">
        <ele>2244.1</ele>
        <time>2019-01-07T19:20:45Z</time>
      </trkpt>
      <trkpt lat="42.39942" lon="2.20193">
        <ele>2244</ele>
        <time>2019-01-07T19:20:48Z</time>
      </trkpt>
      <trkpt lat="42.39935" lon="2.20202">
        <ele>2243</ele>
        <time>2019-01-07T19:20:50Z</time>
      </trkpt>
      <trkpt lat="42.39927" lon="2.20211">
        <ele>2243</ele>
        <time>2019-01-07T19:20:53Z</time>
      </trkpt>
      <trkpt lat="42.39917" lon="2.20216">
        <ele>2247</ele>
        <time>2019-01-07T19:20:56Z</time>
      </trkpt>
      <trkpt lat="42.39907" lon="2.20218">
        <ele>2246</ele>
        <time>2019-01-07T19:20:59Z</time>
      </trkpt>
      <trkpt lat="42.39899" lon="2.20226">
        <ele>2244</ele>
        <time>2019-01-07T19:21:01Z</time>
      </trkpt>
      <trkpt lat="42.39892" lon="2.20233">
        <ele>2244.1</ele>
        <time>2019-01-07T19:21:04Z</time>
      </trkpt>
      <trkpt lat="42.39885" lon="2.20246">
        <ele>2244.1</ele>
        <time>2019-01-07T19:21:07Z</time>
      </trkpt>
      <trkpt lat="42.3988" lon="2.2026">
        <ele>2242</ele>
        <time>2019-01-07T19:21:10Z</time>
      </trkpt>
      <trkpt lat="42.39877" lon="2.20275">
        <ele>2239.1</ele>
        <time>2019-01-07T19:21:13Z</time>
      </trkpt>
      <trkpt lat="42.39871" lon="2.20284">
        <ele>2237</ele>
        <time>2019-01-07T19:21:15Z</time>
      </trkpt>
      <trkpt lat="42.39863" lon="2.20293">
        <ele>2233.1</ele>
        <time>2019-01-07T19:21:18Z</time>
      </trkpt>
      <trkpt lat="42.39857" lon="2.20303">
        <ele>2226</ele>
        <time>2019-01-07T19:21:20Z</time>
      </trkpt>
      <trkpt lat="42.39853" lon="2.20318">
        <ele>2221</ele>
        <time>2019-01-07T19:21:24Z</time>
      </trkpt>
      <trkpt lat="42.39847" lon="2.2033">
        <ele>2220</ele>
        <time>2019-01-07T19:21:26Z</time>
      </trkpt>
      <trkpt lat="42.39842" lon="2.20341">
        <ele>2223</ele>
        <time>2019-01-07T19:21:29Z</time>
      </trkpt>
      <trkpt lat="42.39838" lon="2.20353">
        <ele>2218</ele>
        <time>2019-01-07T19:21:32Z</time>
      </trkpt>
      <trkpt lat="42.39833" lon="2.20364">
        <ele>2219.1</ele>
        <time>2019-01-07T19:21:34Z</time>
      </trkpt>
      <trkpt lat="42.39829" lon="2.20378">
        <ele>2216.1</ele>
        <time>2019-01-07T19:21:37Z</time>
      </trkpt>
      <trkpt lat="42.39824" lon="2.2039">
        <ele>2216.1</ele>
        <time>2019-01-07T19:21:40Z</time>
      </trkpt>
      <trkpt lat="42.39819" lon="2.20403">
        <ele>2219</ele>
        <time>2019-01-07T19:21:43Z</time>
      </trkpt>
      <trkpt lat="42.39814" lon="2.20415">
        <ele>2220</ele>
        <time>2019-01-07T19:21:46Z</time>
      </trkpt>
      <trkpt lat="42.39805" lon="2.20427">
        <ele>2221.1</ele>
        <time>2019-01-07T19:21:49Z</time>
      </trkpt>
      <trkpt lat="42.39799" lon="2.20435">
        <ele>2223</ele>
        <time>2019-01-07T19:21:51Z</time>
      </trkpt>
      <trkpt lat="42.39795" lon="2.20449">
        <ele>2220</ele>
        <time>2019-01-07T19:21:54Z</time>
      </trkpt>
      <trkpt lat="42.3979" lon="2.20462">
        <ele>2219</ele>
        <time>2019-01-07T19:21:57Z</time>
      </trkpt>
      <trkpt lat="42.39785" lon="2.20473">
        <ele>2217</ele>
        <time>2019-01-07T19:21:59Z</time>
      </trkpt>
      <trkpt lat="42.39778" lon="2.20483">
        <ele>2213</ele>
        <time>2019-01-07T19:22:02Z</time>
      </trkpt>
      <trkpt lat="42.39769" lon="2.2049">
        <ele>2216.1</ele>
        <time>2019-01-07T19:22:05Z</time>
      </trkpt>
      <trkpt lat="42.39766" lon="2.20505">
        <ele>2215.1</ele>
        <time>2019-01-07T19:22:08Z</time>
      </trkpt>
      <trkpt lat="42.39769" lon="2.20519">
        <ele>2215.1</ele>
        <time>2019-01-07T19:22:11Z</time>
      </trkpt>
      <trkpt lat="42.39771" lon="2.20531">
        <ele>2215.1</ele>
        <time>2019-01-07T19:22:13Z</time>
      </trkpt>
      <trkpt lat="42.39761" lon="2.20534">
        <ele>2207.1</ele>
        <time>2019-01-07T19:22:16Z</time>
      </trkpt>
      <trkpt lat="42.39752" lon="2.20539">
        <ele>2207</ele>
        <time>2019-01-07T19:22:19Z</time>
      </trkpt>
      <trkpt lat="42.39742" lon="2.2054">
        <ele>2204.1</ele>
        <time>2019-01-07T19:22:21Z</time>
      </trkpt>
      <trkpt lat="42.39732" lon="2.20541">
        <ele>2208</ele>
        <time>2019-01-07T19:22:24Z</time>
      </trkpt>
      <trkpt lat="42.39725" lon="2.20554">
        <ele>2210</ele>
        <time>2019-01-07T19:22:27Z</time>
      </trkpt>
      <trkpt lat="42.39726" lon="2.20568">
        <ele>2209</ele>
        <time>2019-01-07T19:22:30Z</time>
      </trkpt>
      <trkpt lat="42.39723" lon="2.20581">
        <ele>2209.1</ele>
        <time>2019-01-07T19:22:33Z</time>
      </trkpt>
      <trkpt lat="42.39714" lon="2.20584">
        <ele>2211</ele>
        <time>2019-01-07T19:22:35Z</time>
      </trkpt>
      <trkpt lat="42.39709" lon="2.20593">
        <ele>2212.1</ele>
        <time>2019-01-07T19:22:38Z</time>
      </trkpt>
      <trkpt lat="42.39704" lon="2.20605">
        <ele>2213.1</ele>
        <time>2019-01-07T19:22:40Z</time>
      </trkpt>
      <trkpt lat="42.39699" lon="2.20616">
        <ele>2218</ele>
        <time>2019-01-07T19:22:43Z</time>
      </trkpt>
      <trkpt lat="42.39694" lon="2.20628">
        <ele>2217.1</ele>
        <time>2019-01-07T19:22:45Z</time>
      </trkpt>
      <trkpt lat="42.39691" lon="2.20641">
        <ele>2219</ele>
        <time>2019-01-07T19:22:48Z</time>
      </trkpt>
      <trkpt lat="42.39686" lon="2.20651">
        <ele>2220</ele>
        <time>2019-01-07T19:22:51Z</time>
      </trkpt>
      <trkpt lat="42.39679" lon="2.20663">
        <ele>2223.1</ele>
        <time>2019-01-07T19:22:54Z</time>
      </trkpt>
      <trkpt lat="42.39675" lon="2.20676">
        <ele>2220.1</ele>
        <time>2019-01-07T19:22:56Z</time>
      </trkpt>
      <trkpt lat="42.3967" lon="2.2069">
        <ele>2218</ele>
        <time>2019-01-07T19:22:59Z</time>
      </trkpt>
      <trkpt lat="42.39665" lon="2.20702">
        <ele>2217</ele>
        <time>2019-01-07T19:23:02Z</time>
      </trkpt>
      <trkpt lat="42.3966" lon="2.20717">
        <ele>2217.1</ele>
        <time>2019-01-07T19:23:05Z</time>
      </trkpt>
      <trkpt lat="42.39655" lon="2.20728">
        <ele>2216</ele>
        <time>2019-01-07T19:23:08Z</time>
      </trkpt>
      <trkpt lat="42.39647" lon="2.20738">
        <ele>2214</ele>
        <time>2019-01-07T19:23:11Z</time>
      </trkpt>
      <trkpt lat="42.39638" lon="2.20753">
        <ele>2219.1</ele>
        <time>2019-01-07T19:23:15Z</time>
      </trkpt>
      <trkpt lat="42.39633" lon="2.20768">
        <ele>2219.1</ele>
        <time>2019-01-07T19:23:18Z</time>
      </trkpt>
      <trkpt lat="42.39629" lon="2.20779">
        <ele>2218.1</ele>
        <time>2019-01-07T19:23:20Z</time>
      </trkpt>
      <trkpt lat="42.39621" lon="2.20793">
        <ele>2217.1</ele>
        <time>2019-01-07T19:23:24Z</time>
      </trkpt>
      <trkpt lat="42.39612" lon="2.20803">
        <ele>2216</ele>
        <time>2019-01-07T19:23:27Z</time>
      </trkpt>
      <trkpt lat="42.39602" lon="2.20817">
        <ele>2209</ele>
        <time>2019-01-07T19:23:31Z</time>
      </trkpt>
      <trkpt lat="42.39593" lon="2.20825">
        <ele>2207</ele>
        <time>2019-01-07T19:23:33Z</time>
      </trkpt>
      <trkpt lat="42.39588" lon="2.20836">
        <ele>2209</ele>
        <time>2019-01-07T19:23:36Z</time>
      </trkpt>
      <trkpt lat="42.39581" lon="2.20847">
        <ele>2208</ele>
        <time>2019-01-07T19:23:39Z</time>
      </trkpt>
      <trkpt lat="42.39575" lon="2.20856">
        <ele>2209.1</ele>
        <time>2019-01-07T19:23:41Z</time>
      </trkpt>
      <trkpt lat="42.39567" lon="2.20864">
        <ele>2209</ele>
        <time>2019-01-07T19:23:44Z</time>
      </trkpt>
      <trkpt lat="42.39559" lon="2.20874">
        <ele>2208</ele>
        <time>2019-01-07T19:23:47Z</time>
      </trkpt>
      <trkpt lat="42.39559" lon="2.20874">
        <ele>2208</ele>
        <time>2019-01-07T19:23:47Z</time>
      </trkpt>
      <trkpt lat="42.39551" lon="2.20885">
        <ele>2205</ele>
        <time>2019-01-07T19:23:50Z</time>
      </trkpt>
      <trkpt lat="42.39543" lon="2.20893">
        <ele>2204.1</ele>
        <time>2019-01-07T19:23:53Z</time>
      </trkpt>
      <trkpt lat="42.39535" lon="2.20901">
        <ele>2201</ele>
        <time>2019-01-07T19:23:55Z</time>
      </trkpt>
      <trkpt lat="42.39528" lon="2.20908">
        <ele>2200.1</ele>
        <time>2019-01-07T19:23:58Z</time>
      </trkpt>
      <trkpt lat="42.39521" lon="2.20917">
        <ele>2199</ele>
        <time>2019-01-07T19:24:00Z</time>
      </trkpt>
      <trkpt lat="42.39514" lon="2.20927">
        <ele>2200</ele>
        <time>2019-01-07T19:24:03Z</time>
      </trkpt>
      <trkpt lat="42.39503" lon="2.20939">
        <ele>2195</ele>
        <time>2019-01-07T19:24:07Z</time>
      </trkpt>
      <trkpt lat="42.39493" lon="2.20947">
        <ele>2194</ele>
        <time>2019-01-07T19:24:10Z</time>
      </trkpt>
      <trkpt lat="42.39484" lon="2.20954">
        <ele>2191</ele>
        <time>2019-01-07T19:24:13Z</time>
      </trkpt>
      <trkpt lat="42.39476" lon="2.20962">
        <ele>2197</ele>
        <time>2019-01-07T19:24:15Z</time>
      </trkpt>
      <trkpt lat="42.39475" lon="2.20974">
        <ele>2195.1</ele>
        <time>2019-01-07T19:24:18Z</time>
      </trkpt>
      <trkpt lat="42.39482" lon="2.20986">
        <ele>2191</ele>
        <time>2019-01-07T19:24:21Z</time>
      </trkpt>
      <trkpt lat="42.39486" lon="2.20997">
        <ele>2188</ele>
        <time>2019-01-07T19:24:23Z</time>
      </trkpt>
      <trkpt lat="42.39477" lon="2.21001">
        <ele>2189</ele>
        <time>2019-01-07T19:24:26Z</time>
      </trkpt>
      <trkpt lat="42.39465" lon="2.21009">
        <ele>2188</ele>
        <time>2019-01-07T19:24:29Z</time>
      </trkpt>
      <trkpt lat="42.39454" lon="2.21013">
        <ele>2186.1</ele>
        <time>2019-01-07T19:24:32Z</time>
      </trkpt>
      <trkpt lat="42.39446" lon="2.2102">
        <ele>2183</ele>
        <time>2019-01-07T19:24:35Z</time>
      </trkpt>
      <trkpt lat="42.39437" lon="2.21029">
        <ele>2181</ele>
        <time>2019-01-07T19:24:38Z</time>
      </trkpt>
      <trkpt lat="42.3943" lon="2.21042">
        <ele>2179</ele>
        <time>2019-01-07T19:24:41Z</time>
      </trkpt>
      <trkpt lat="42.39422" lon="2.21056">
        <ele>2181</ele>
        <time>2019-01-07T19:24:44Z</time>
      </trkpt>
      <trkpt lat="42.39415" lon="2.21067">
        <ele>2181.1</ele>
        <time>2019-01-07T19:24:47Z</time>
      </trkpt>
      <trkpt lat="42.39406" lon="2.21079">
        <ele>2182.1</ele>
        <time>2019-01-07T19:24:51Z</time>
      </trkpt>
      <trkpt lat="42.39399" lon="2.21088">
        <ele>2183.1</ele>
        <time>2019-01-07T19:24:53Z</time>
      </trkpt>
      <trkpt lat="42.39392" lon="2.21102">
        <ele>2183.1</ele>
        <time>2019-01-07T19:24:57Z</time>
      </trkpt>
      <trkpt lat="42.39388" lon="2.21114">
        <ele>2189</ele>
        <time>2019-01-07T19:24:59Z</time>
      </trkpt>
      <trkpt lat="42.39381" lon="2.21125">
        <ele>2189.1</ele>
        <time>2019-01-07T19:25:02Z</time>
      </trkpt>
      <trkpt lat="42.39376" lon="2.21137">
        <ele>2186.1</ele>
        <time>2019-01-07T19:25:05Z</time>
      </trkpt>
      <trkpt lat="42.39376" lon="2.21137">
        <ele>2186</ele>
        <time>2019-01-07T19:25:05Z</time>
      </trkpt>
      <trkpt lat="42.39373" lon="2.21151">
        <ele>2186.1</ele>
        <time>2019-01-07T19:25:08Z</time>
      </trkpt>
      <trkpt lat="42.39367" lon="2.21165">
        <ele>2186.1</ele>
        <time>2019-01-07T19:25:11Z</time>
      </trkpt>
      <trkpt lat="42.39359" lon="2.21171">
        <ele>2181</ele>
        <time>2019-01-07T19:25:13Z</time>
      </trkpt>
      <trkpt lat="42.39352" lon="2.2118">
        <ele>2181</ele>
        <time>2019-01-07T19:25:16Z</time>
      </trkpt>
      <trkpt lat="42.39346" lon="2.21189">
        <ele>2179.1</ele>
        <time>2019-01-07T19:25:18Z</time>
      </trkpt>
      <trkpt lat="42.39339" lon="2.21199">
        <ele>2176.1</ele>
        <time>2019-01-07T19:25:21Z</time>
      </trkpt>
      <trkpt lat="42.39333" lon="2.2121">
        <ele>2177.1</ele>
        <time>2019-01-07T19:25:24Z</time>
      </trkpt>
      <trkpt lat="42.39326" lon="2.2122">
        <ele>2177</ele>
        <time>2019-01-07T19:25:26Z</time>
      </trkpt>
      <trkpt lat="42.39318" lon="2.21228">
        <ele>2177</ele>
        <time>2019-01-07T19:25:29Z</time>
      </trkpt>
      <trkpt lat="42.39309" lon="2.21235">
        <ele>2174.1</ele>
        <time>2019-01-07T19:25:32Z</time>
      </trkpt>
      <trkpt lat="42.39301" lon="2.21244">
        <ele>2171.1</ele>
        <time>2019-01-07T19:25:35Z</time>
      </trkpt>
      <trkpt lat="42.39295" lon="2.21255">
        <ele>2169.1</ele>
        <time>2019-01-07T19:25:37Z</time>
      </trkpt>
      <trkpt lat="42.39286" lon="2.21264">
        <ele>2172.1</ele>
        <time>2019-01-07T19:25:40Z</time>
      </trkpt>
      <trkpt lat="42.39278" lon="2.21273">
        <ele>2167.1</ele>
        <time>2019-01-07T19:25:43Z</time>
      </trkpt>
      <trkpt lat="42.3927" lon="2.2128">
        <ele>2166</ele>
        <time>2019-01-07T19:25:46Z</time>
      </trkpt>
      <trkpt lat="42.39262" lon="2.2129">
        <ele>2166</ele>
        <time>2019-01-07T19:25:49Z</time>
      </trkpt>
      <trkpt lat="42.39255" lon="2.213">
        <ele>2165</ele>
        <time>2019-01-07T19:25:51Z</time>
      </trkpt>
      <trkpt lat="42.3925" lon="2.21313">
        <ele>2163.1</ele>
        <time>2019-01-07T19:25:54Z</time>
      </trkpt>
      <trkpt lat="42.39245" lon="2.21326">
        <ele>2167</ele>
        <time>2019-01-07T19:25:57Z</time>
      </trkpt>
      <trkpt lat="42.3924" lon="2.21338">
        <ele>2166.1</ele>
        <time>2019-01-07T19:26:00Z</time>
      </trkpt>
      <trkpt lat="42.39234" lon="2.21349">
        <ele>2167</ele>
        <time>2019-01-07T19:26:02Z</time>
      </trkpt>
      <trkpt lat="42.39228" lon="2.21359">
        <ele>2166.1</ele>
        <time>2019-01-07T19:26:05Z</time>
      </trkpt>
      <trkpt lat="42.39222" lon="2.21367">
        <ele>2168.1</ele>
        <time>2019-01-07T19:26:07Z</time>
      </trkpt>
      <trkpt lat="42.39214" lon="2.21378">
        <ele>2166</ele>
        <time>2019-01-07T19:26:10Z</time>
      </trkpt>
      <trkpt lat="42.39209" lon="2.21391">
        <ele>2171.1</ele>
        <time>2019-01-07T19:26:13Z</time>
      </trkpt>
      <trkpt lat="42.39202" lon="2.21399">
        <ele>2170</ele>
        <time>2019-01-07T19:26:16Z</time>
      </trkpt>
      <trkpt lat="42.39194" lon="2.21409">
        <ele>2165</ele>
        <time>2019-01-07T19:26:19Z</time>
      </trkpt>
      <trkpt lat="42.39186" lon="2.21419">
        <ele>2166</ele>
        <time>2019-01-07T19:26:22Z</time>
      </trkpt>
      <trkpt lat="42.39179" lon="2.21429">
        <ele>2161</ele>
        <time>2019-01-07T19:26:24Z</time>
      </trkpt>
      <trkpt lat="42.39171" lon="2.21439">
        <ele>2163.1</ele>
        <time>2019-01-07T19:26:27Z</time>
      </trkpt>
      <trkpt lat="42.39164" lon="2.21449">
        <ele>2158</ele>
        <time>2019-01-07T19:26:30Z</time>
      </trkpt>
      <trkpt lat="42.39154" lon="2.21456">
        <ele>2157.1</ele>
        <time>2019-01-07T19:26:33Z</time>
      </trkpt>
      <trkpt lat="42.39146" lon="2.21462">
        <ele>2160</ele>
        <time>2019-01-07T19:26:35Z</time>
      </trkpt>
      <trkpt lat="42.39137" lon="2.21468">
        <ele>2155</ele>
        <time>2019-01-07T19:26:38Z</time>
      </trkpt>
      <trkpt lat="42.39129" lon="2.21476">
        <ele>2154</ele>
        <time>2019-01-07T19:26:41Z</time>
      </trkpt>
      <trkpt lat="42.39124" lon="2.21487">
        <ele>2149.1</ele>
        <time>2019-01-07T19:26:43Z</time>
      </trkpt>
      <trkpt lat="42.3912" lon="2.21499">
        <ele>2158</ele>
        <time>2019-01-07T19:26:46Z</time>
      </trkpt>
      <trkpt lat="42.39111" lon="2.21507">
        <ele>2146.1</ele>
        <time>2019-01-07T19:26:49Z</time>
      </trkpt>
      <trkpt lat="42.391" lon="2.2151">
        <ele>2144</ele>
        <time>2019-01-07T19:26:51Z</time>
      </trkpt>
      <trkpt lat="42.39092" lon="2.21521">
        <ele>2141</ele>
        <time>2019-01-07T19:26:54Z</time>
      </trkpt>
      <trkpt lat="42.39084" lon="2.21528">
        <ele>2142.1</ele>
        <time>2019-01-07T19:26:57Z</time>
      </trkpt>
      <trkpt lat="42.39074" lon="2.21536">
        <ele>2141</ele>
        <time>2019-01-07T19:27:00Z</time>
      </trkpt>
      <trkpt lat="42.39066" lon="2.21541">
        <ele>2141</ele>
        <time>2019-01-07T19:27:03Z</time>
      </trkpt>
      <trkpt lat="42.39057" lon="2.21549">
        <ele>2139.1</ele>
        <time>2019-01-07T19:27:05Z</time>
      </trkpt>
      <trkpt lat="42.39047" lon="2.21557">
        <ele>2137.1</ele>
        <time>2019-01-07T19:27:08Z</time>
      </trkpt>
      <trkpt lat="42.39039" lon="2.21565">
        <ele>2135</ele>
        <time>2019-01-07T19:27:11Z</time>
      </trkpt>
      <trkpt lat="42.39031" lon="2.21574">
        <ele>2137</ele>
        <time>2019-01-07T19:27:14Z</time>
      </trkpt>
      <trkpt lat="42.39026" lon="2.21584">
        <ele>2138.1</ele>
        <time>2019-01-07T19:27:16Z</time>
      </trkpt>
      <trkpt lat="42.39017" lon="2.21594">
        <ele>2137.1</ele>
        <time>2019-01-07T19:27:20Z</time>
      </trkpt>
      <trkpt lat="42.39009" lon="2.21602">
        <ele>2134</ele>
        <time>2019-01-07T19:27:22Z</time>
      </trkpt>
      <trkpt lat="42.39002" lon="2.21611">
        <ele>2134</ele>
        <time>2019-01-07T19:27:25Z</time>
      </trkpt>
      <trkpt lat="42.38994" lon="2.21623">
        <ele>2134</ele>
        <time>2019-01-07T19:27:28Z</time>
      </trkpt>
      <trkpt lat="42.38989" lon="2.21635">
        <ele>2136.1</ele>
        <time>2019-01-07T19:27:31Z</time>
      </trkpt>
      <trkpt lat="42.38982" lon="2.21643">
        <ele>2134.1</ele>
        <time>2019-01-07T19:27:33Z</time>
      </trkpt>
      <trkpt lat="42.38975" lon="2.21651">
        <ele>2135</ele>
        <time>2019-01-07T19:27:36Z</time>
      </trkpt>
      <trkpt lat="42.38966" lon="2.21661">
        <ele>2137.1</ele>
        <time>2019-01-07T19:27:39Z</time>
      </trkpt>
      <trkpt lat="42.38957" lon="2.21671">
        <ele>2132.1</ele>
        <time>2019-01-07T19:27:42Z</time>
      </trkpt>
      <trkpt lat="42.38948" lon="2.21682">
        <ele>2131.1</ele>
        <time>2019-01-07T19:27:45Z</time>
      </trkpt>
      <trkpt lat="42.3894" lon="2.2169">
        <ele>2129.1</ele>
        <time>2019-01-07T19:27:48Z</time>
      </trkpt>
      <trkpt lat="42.38931" lon="2.21699">
        <ele>2127.1</ele>
        <time>2019-01-07T19:27:51Z</time>
      </trkpt>
      <trkpt lat="42.38924" lon="2.21706">
        <ele>2125</ele>
        <time>2019-01-07T19:27:53Z</time>
      </trkpt>
      <trkpt lat="42.38915" lon="2.21716">
        <ele>2125</ele>
        <time>2019-01-07T19:27:56Z</time>
      </trkpt>
      <trkpt lat="42.38908" lon="2.21726">
        <ele>2122</ele>
        <time>2019-01-07T19:27:59Z</time>
      </trkpt>
      <trkpt lat="42.38903" lon="2.21738">
        <ele>2120</ele>
        <time>2019-01-07T19:28:02Z</time>
      </trkpt>
      <trkpt lat="42.389" lon="2.2175">
        <ele>2118.1</ele>
        <time>2019-01-07T19:28:04Z</time>
      </trkpt>
      <trkpt lat="42.38896" lon="2.21761">
        <ele>2116.1</ele>
        <time>2019-01-07T19:28:06Z</time>
      </trkpt>
      <trkpt lat="42.38886" lon="2.2177">
        <ele>2116</ele>
        <time>2019-01-07T19:28:10Z</time>
      </trkpt>
      <trkpt lat="42.38878" lon="2.21779">
        <ele>2112.1</ele>
        <time>2019-01-07T19:28:12Z</time>
      </trkpt>
      <trkpt lat="42.38872" lon="2.21788">
        <ele>2113</ele>
        <time>2019-01-07T19:28:15Z</time>
      </trkpt>
      <trkpt lat="42.38868" lon="2.21799">
        <ele>2112.1</ele>
        <time>2019-01-07T19:28:17Z</time>
      </trkpt>
      <trkpt lat="42.38862" lon="2.2181">
        <ele>2109.1</ele>
        <time>2019-01-07T19:28:20Z</time>
      </trkpt>
      <trkpt lat="42.38854" lon="2.21819">
        <ele>2106</ele>
        <time>2019-01-07T19:28:23Z</time>
      </trkpt>
      <trkpt lat="42.38841" lon="2.21824">
        <ele>2106</ele>
        <time>2019-01-07T19:28:26Z</time>
      </trkpt>
      <trkpt lat="42.3883" lon="2.21831">
        <ele>2103.1</ele>
        <time>2019-01-07T19:28:30Z</time>
      </trkpt>
      <trkpt lat="42.38821" lon="2.21836">
        <ele>2099</ele>
        <time>2019-01-07T19:28:32Z</time>
      </trkpt>
      <trkpt lat="42.3881" lon="2.21839">
        <ele>2095</ele>
        <time>2019-01-07T19:28:35Z</time>
      </trkpt>
      <trkpt lat="42.38802" lon="2.21844">
        <ele>2090</ele>
        <time>2019-01-07T19:28:37Z</time>
      </trkpt>
      <trkpt lat="42.38793" lon="2.21851">
        <ele>2086.1</ele>
        <time>2019-01-07T19:28:40Z</time>
      </trkpt>
      <trkpt lat="42.38783" lon="2.21858">
        <ele>2084</ele>
        <time>2019-01-07T19:28:43Z</time>
      </trkpt>
      <trkpt lat="42.38772" lon="2.21863">
        <ele>2081</ele>
        <time>2019-01-07T19:28:46Z</time>
      </trkpt>
      <trkpt lat="42.38772" lon="2.21863">
        <ele>2081.1</ele>
        <time>2019-01-07T19:28:46Z</time>
      </trkpt>
      <trkpt lat="42.38767" lon="2.21875">
        <ele>2078.1</ele>
        <time>2019-01-07T19:28:49Z</time>
      </trkpt>
      <trkpt lat="42.38761" lon="2.21884">
        <ele>2076.1</ele>
        <time>2019-01-07T19:28:51Z</time>
      </trkpt>
      <trkpt lat="42.38751" lon="2.21881">
        <ele>2070.1</ele>
        <time>2019-01-07T19:28:54Z</time>
      </trkpt>
      <trkpt lat="42.38741" lon="2.21877">
        <ele>2071.1</ele>
        <time>2019-01-07T19:28:57Z</time>
      </trkpt>
      <trkpt lat="42.38732" lon="2.21873">
        <ele>2067</ele>
        <time>2019-01-07T19:29:00Z</time>
      </trkpt>
      <trkpt lat="42.38724" lon="2.21879">
        <ele>2062</ele>
        <time>2019-01-07T19:29:02Z</time>
      </trkpt>
      <trkpt lat="42.38725" lon="2.21894">
        <ele>2063</ele>
        <time>2019-01-07T19:29:05Z</time>
      </trkpt>
      <trkpt lat="42.38727" lon="2.2191">
        <ele>2058</ele>
        <time>2019-01-07T19:29:08Z</time>
      </trkpt>
      <trkpt lat="42.3873" lon="2.21923">
        <ele>2056</ele>
        <time>2019-01-07T19:29:11Z</time>
      </trkpt>
      <trkpt lat="42.38734" lon="2.21935">
        <ele>2058.1</ele>
        <time>2019-01-07T19:29:13Z</time>
      </trkpt>
      <trkpt lat="42.38738" lon="2.21951">
        <ele>2060</ele>
        <time>2019-01-07T19:29:17Z</time>
      </trkpt>
      <trkpt lat="42.38742" lon="2.21963">
        <ele>2060.1</ele>
        <time>2019-01-07T19:29:19Z</time>
      </trkpt>
      <trkpt lat="42.38748" lon="2.21973">
        <ele>2060</ele>
        <time>2019-01-07T19:29:22Z</time>
      </trkpt>
      <trkpt lat="42.38755" lon="2.21982">
        <ele>2059</ele>
        <time>2019-01-07T19:29:24Z</time>
      </trkpt>
      <trkpt lat="42.38762" lon="2.21992">
        <ele>2055.1</ele>
        <time>2019-01-07T19:29:27Z</time>
      </trkpt>
      <trkpt lat="42.38769" lon="2.22002">
        <ele>2051.1</ele>
        <time>2019-01-07T19:29:30Z</time>
      </trkpt>
      <trkpt lat="42.38776" lon="2.22014">
        <ele>2053</ele>
        <time>2019-01-07T19:29:33Z</time>
      </trkpt>
      <trkpt lat="42.38783" lon="2.22027">
        <ele>2053</ele>
        <time>2019-01-07T19:29:36Z</time>
      </trkpt>
      <trkpt lat="42.38789" lon="2.22038">
        <ele>2055</ele>
        <time>2019-01-07T19:29:39Z</time>
      </trkpt>
      <trkpt lat="42.38795" lon="2.22047">
        <ele>2058</ele>
        <time>2019-01-07T19:29:41Z</time>
      </trkpt>
      <trkpt lat="42.38802" lon="2.22057">
        <ele>2052.1</ele>
        <time>2019-01-07T19:29:44Z</time>
      </trkpt>
      <trkpt lat="42.38808" lon="2.2207">
        <ele>2056.1</ele>
        <time>2019-01-07T19:29:47Z</time>
      </trkpt>
      <trkpt lat="42.38815" lon="2.22081">
        <ele>2056</ele>
        <time>2019-01-07T19:29:50Z</time>
      </trkpt>
      <trkpt lat="42.38823" lon="2.2209">
        <ele>2053.1</ele>
        <time>2019-01-07T19:29:52Z</time>
      </trkpt>
      <trkpt lat="42.38832" lon="2.22098">
        <ele>2048</ele>
        <time>2019-01-07T19:29:55Z</time>
      </trkpt>
      <trkpt lat="42.38837" lon="2.22108">
        <ele>2049.1</ele>
        <time>2019-01-07T19:29:58Z</time>
      </trkpt>
      <trkpt lat="42.38844" lon="2.22117">
        <ele>2049</ele>
        <time>2019-01-07T19:30:00Z</time>
      </trkpt>
      <trkpt lat="42.38853" lon="2.22126">
        <ele>2047</ele>
        <time>2019-01-07T19:30:03Z</time>
      </trkpt>
      <trkpt lat="42.38861" lon="2.22132">
        <ele>2045</ele>
        <time>2019-01-07T19:30:06Z</time>
      </trkpt>
      <trkpt lat="42.38872" lon="2.22138">
        <ele>2043</ele>
        <time>2019-01-07T19:30:09Z</time>
      </trkpt>
      <trkpt lat="42.38879" lon="2.22147">
        <ele>2043</ele>
        <time>2019-01-07T19:30:12Z</time>
      </trkpt>
      <trkpt lat="42.38884" lon="2.22159">
        <ele>2043</ele>
        <time>2019-01-07T19:30:14Z</time>
      </trkpt>
      <trkpt lat="42.38885" lon="2.22174">
        <ele>2044.1</ele>
        <time>2019-01-07T19:30:17Z</time>
      </trkpt>
      <trkpt lat="42.38885" lon="2.22189">
        <ele>2043.1</ele>
        <time>2019-01-07T19:30:20Z</time>
      </trkpt>
      <trkpt lat="42.38884" lon="2.22202">
        <ele>2043.1</ele>
        <time>2019-01-07T19:30:23Z</time>
      </trkpt>
      <trkpt lat="42.38885" lon="2.22216">
        <ele>2039.1</ele>
        <time>2019-01-07T19:30:25Z</time>
      </trkpt>
      <trkpt lat="42.38888" lon="2.22229">
        <ele>2037</ele>
        <time>2019-01-07T19:30:28Z</time>
      </trkpt>
      <trkpt lat="42.38895" lon="2.22239">
        <ele>2041.1</ele>
        <time>2019-01-07T19:30:31Z</time>
      </trkpt>
      <trkpt lat="42.38901" lon="2.22249">
        <ele>2040.1</ele>
        <time>2019-01-07T19:30:33Z</time>
      </trkpt>
      <trkpt lat="42.38908" lon="2.2226">
        <ele>2037.1</ele>
        <time>2019-01-07T19:30:36Z</time>
      </trkpt>
      <trkpt lat="42.38913" lon="2.2227">
        <ele>2041</ele>
        <time>2019-01-07T19:30:39Z</time>
      </trkpt>
      <trkpt lat="42.38921" lon="2.22279">
        <ele>2044</ele>
        <time>2019-01-07T19:30:42Z</time>
      </trkpt>
      <trkpt lat="42.38929" lon="2.22288">
        <ele>2049</ele>
        <time>2019-01-07T19:30:44Z</time>
      </trkpt>
      <trkpt lat="42.38936" lon="2.22296">
        <ele>2053</ele>
        <time>2019-01-07T19:30:47Z</time>
      </trkpt>
      <trkpt lat="42.38942" lon="2.22307">
        <ele>2057</ele>
        <time>2019-01-07T19:30:49Z</time>
      </trkpt>
      <trkpt lat="42.38948" lon="2.22318">
        <ele>2061</ele>
        <time>2019-01-07T19:30:52Z</time>
      </trkpt>
      <trkpt lat="42.38956" lon="2.22328">
        <ele>2058</ele>
        <time>2019-01-07T19:30:55Z</time>
      </trkpt>
      <trkpt lat="42.38966" lon="2.22336">
        <ele>2057.1</ele>
        <time>2019-01-07T19:30:58Z</time>
      </trkpt>
      <trkpt lat="42.38975" lon="2.22343">
        <ele>2061</ele>
        <time>2019-01-07T19:31:01Z</time>
      </trkpt>
      <trkpt lat="42.38983" lon="2.22353">
        <ele>2060.1</ele>
        <time>2019-01-07T19:31:04Z</time>
      </trkpt>
      <trkpt lat="42.38991" lon="2.22361">
        <ele>2061</ele>
        <time>2019-01-07T19:31:06Z</time>
      </trkpt>
      <trkpt lat="42.38997" lon="2.22371">
        <ele>2062.1</ele>
        <time>2019-01-07T19:31:09Z</time>
      </trkpt>
      <trkpt lat="42.39005" lon="2.22379">
        <ele>2060</ele>
        <time>2019-01-07T19:31:11Z</time>
      </trkpt>
      <trkpt lat="42.39011" lon="2.22388">
        <ele>2059</ele>
        <time>2019-01-07T19:31:14Z</time>
      </trkpt>
      <trkpt lat="42.39017" lon="2.22398">
        <ele>2057</ele>
        <time>2019-01-07T19:31:16Z</time>
      </trkpt>
      <trkpt lat="42.39023" lon="2.22407">
        <ele>2056</ele>
        <time>2019-01-07T19:31:19Z</time>
      </trkpt>
      <trkpt lat="42.3903" lon="2.22417">
        <ele>2056.1</ele>
        <time>2019-01-07T19:31:22Z</time>
      </trkpt>
      <trkpt lat="42.39022" lon="2.22425">
        <ele>2051.1</ele>
        <time>2019-01-07T19:31:24Z</time>
      </trkpt>
      <trkpt lat="42.39012" lon="2.22427">
        <ele>2052</ele>
        <time>2019-01-07T19:31:27Z</time>
      </trkpt>
      <trkpt lat="42.39001" lon="2.22431">
        <ele>2051</ele>
        <time>2019-01-07T19:31:30Z</time>
      </trkpt>
      <trkpt lat="42.3899" lon="2.22431">
        <ele>2049</ele>
        <time>2019-01-07T19:31:33Z</time>
      </trkpt>
      <trkpt lat="42.3898" lon="2.22433">
        <ele>2047.1</ele>
        <time>2019-01-07T19:31:36Z</time>
      </trkpt>
      <trkpt lat="42.38968" lon="2.22431">
        <ele>2044.1</ele>
        <time>2019-01-07T19:31:39Z</time>
      </trkpt>
      <trkpt lat="42.38959" lon="2.22429">
        <ele>2045</ele>
        <time>2019-01-07T19:31:41Z</time>
      </trkpt>
      <trkpt lat="42.3895" lon="2.22427">
        <ele>2043</ele>
        <time>2019-01-07T19:31:44Z</time>
      </trkpt>
      <trkpt lat="42.38936" lon="2.22418">
        <ele>2044</ele>
        <time>2019-01-07T19:31:48Z</time>
      </trkpt>
      <trkpt lat="42.38926" lon="2.22411">
        <ele>2044</ele>
        <time>2019-01-07T19:31:51Z</time>
      </trkpt>
      <trkpt lat="42.38918" lon="2.22403">
        <ele>2047.1</ele>
        <time>2019-01-07T19:31:54Z</time>
      </trkpt>
      <trkpt lat="42.38909" lon="2.22393">
        <ele>2043</ele>
        <time>2019-01-07T19:31:57Z</time>
      </trkpt>
      <trkpt lat="42.38901" lon="2.22385">
        <ele>2045.1</ele>
        <time>2019-01-07T19:32:00Z</time>
      </trkpt>
      <trkpt lat="42.38892" lon="2.22378">
        <ele>2045</ele>
        <time>2019-01-07T19:32:02Z</time>
      </trkpt>
      <trkpt lat="42.38884" lon="2.22371">
        <ele>2046.1</ele>
        <time>2019-01-07T19:32:05Z</time>
      </trkpt>
      <trkpt lat="42.38877" lon="2.22361">
        <ele>2046.1</ele>
        <time>2019-01-07T19:32:08Z</time>
      </trkpt>
      <trkpt lat="42.38868" lon="2.22352">
        <ele>2048</ele>
        <time>2019-01-07T19:32:10Z</time>
      </trkpt>
      <trkpt lat="42.3886" lon="2.22342">
        <ele>2050.1</ele>
        <time>2019-01-07T19:32:13Z</time>
      </trkpt>
      <trkpt lat="42.38852" lon="2.22335">
        <ele>2048.1</ele>
        <time>2019-01-07T19:32:16Z</time>
      </trkpt>
      <trkpt lat="42.38843" lon="2.22338">
        <ele>2044.1</ele>
        <time>2019-01-07T19:32:18Z</time>
      </trkpt>
      <trkpt lat="42.38834" lon="2.22343">
        <ele>2038</ele>
        <time>2019-01-07T19:32:21Z</time>
      </trkpt>
      <trkpt lat="42.38825" lon="2.22346">
        <ele>2042</ele>
        <time>2019-01-07T19:32:23Z</time>
      </trkpt>
      <trkpt lat="42.38817" lon="2.22352">
        <ele>2043.1</ele>
        <time>2019-01-07T19:32:26Z</time>
      </trkpt>
      <trkpt lat="42.3881" lon="2.22361">
        <ele>2059.1</ele>
        <time>2019-01-07T19:32:28Z</time>
      </trkpt>
      <trkpt lat="42.38802" lon="2.22368">
        <ele>2071</ele>
        <time>2019-01-07T19:32:31Z</time>
      </trkpt>
      <trkpt lat="42.38795" lon="2.22376">
        <ele>2062.1</ele>
        <time>2019-01-07T19:32:33Z</time>
      </trkpt>
      <trkpt lat="42.38794" lon="2.22389">
        <ele>2073.1</ele>
        <time>2019-01-07T19:32:36Z</time>
      </trkpt>
      <trkpt lat="42.38788" lon="2.22398">
        <ele>2073.1</ele>
        <time>2019-01-07T19:32:38Z</time>
      </trkpt>
      <trkpt lat="42.38778" lon="2.22402">
        <ele>2083</ele>
        <time>2019-01-07T19:32:41Z</time>
      </trkpt>
      <trkpt lat="42.38772" lon="2.22413">
        <ele>2084</ele>
        <time>2019-01-07T19:32:44Z</time>
      </trkpt>
      <trkpt lat="42.38764" lon="2.22417">
        <ele>2079</ele>
        <time>2019-01-07T19:32:46Z</time>
      </trkpt>
      <trkpt lat="42.38755" lon="2.22423">
        <ele>2077</ele>
        <time>2019-01-07T19:32:49Z</time>
      </trkpt>
      <trkpt lat="42.38748" lon="2.2243">
        <ele>2080</ele>
        <time>2019-01-07T19:32:51Z</time>
      </trkpt>
      <trkpt lat="42.38742" lon="2.22439">
        <ele>2078</ele>
        <time>2019-01-07T19:32:54Z</time>
      </trkpt>
      <trkpt lat="42.38734" lon="2.22447">
        <ele>2084.1</ele>
        <time>2019-01-07T19:32:56Z</time>
      </trkpt>
      <trkpt lat="42.38729" lon="2.22457">
        <ele>2091.1</ele>
        <time>2019-01-07T19:32:58Z</time>
      </trkpt>
      <trkpt lat="42.3872" lon="2.22449">
        <ele>2093.1</ele>
        <time>2019-01-07T19:33:01Z</time>
      </trkpt>
      <trkpt lat="42.38711" lon="2.22443">
        <ele>2100</ele>
        <time>2019-01-07T19:33:04Z</time>
      </trkpt>
      <trkpt lat="42.38701" lon="2.22441">
        <ele>2098</ele>
        <time>2019-01-07T19:33:07Z</time>
      </trkpt>
      <trkpt lat="42.38691" lon="2.22442">
        <ele>2096.1</ele>
        <time>2019-01-07T19:33:09Z</time>
      </trkpt>
      <trkpt lat="42.38681" lon="2.22437">
        <ele>2097</ele>
        <time>2019-01-07T19:33:12Z</time>
      </trkpt>
      <trkpt lat="42.38672" lon="2.2244">
        <ele>2092</ele>
        <time>2019-01-07T19:33:15Z</time>
      </trkpt>
      <trkpt lat="42.38662" lon="2.22434">
        <ele>2096.1</ele>
        <time>2019-01-07T19:33:18Z</time>
      </trkpt>
      <trkpt lat="42.38652" lon="2.22431">
        <ele>2104</ele>
        <time>2019-01-07T19:33:20Z</time>
      </trkpt>
      <trkpt lat="42.38643" lon="2.2243">
        <ele>2108</ele>
        <time>2019-01-07T19:33:23Z</time>
      </trkpt>
      <trkpt lat="42.38639" lon="2.22441">
        <ele>2107</ele>
        <time>2019-01-07T19:33:25Z</time>
      </trkpt>
      <trkpt lat="42.38629" lon="2.22446">
        <ele>2109</ele>
        <time>2019-01-07T19:33:28Z</time>
      </trkpt>
      <trkpt lat="42.3862" lon="2.2245">
        <ele>2111.1</ele>
        <time>2019-01-07T19:33:30Z</time>
      </trkpt>
      <trkpt lat="42.38611" lon="2.22454">
        <ele>2114.1</ele>
        <time>2019-01-07T19:33:33Z</time>
      </trkpt>
      <trkpt lat="42.38617" lon="2.22464">
        <ele>2118.1</ele>
        <time>2019-01-07T19:33:36Z</time>
      </trkpt>
      <trkpt lat="42.38624" lon="2.22473">
        <ele>2126</ele>
        <time>2019-01-07T19:33:38Z</time>
      </trkpt>
      <trkpt lat="42.38617" lon="2.22482">
        <ele>2129.1</ele>
        <time>2019-01-07T19:33:41Z</time>
      </trkpt>
      <trkpt lat="42.38609" lon="2.22488">
        <ele>2133.1</ele>
        <time>2019-01-07T19:33:43Z</time>
      </trkpt>
      <trkpt lat="42.386" lon="2.2249">
        <ele>2133.1</ele>
        <time>2019-01-07T19:33:45Z</time>
      </trkpt>
      <trkpt lat="42.38592" lon="2.22497">
        <ele>2137.1</ele>
        <time>2019-01-07T19:33:48Z</time>
      </trkpt>
      <trkpt lat="42.38591" lon="2.2251">
        <ele>2132.1</ele>
        <time>2019-01-07T19:33:51Z</time>
      </trkpt>
      <trkpt lat="42.38596" lon="2.2252">
        <ele>2132</ele>
        <time>2019-01-07T19:33:53Z</time>
      </trkpt>
      <trkpt lat="42.386" lon="2.22531">
        <ele>2134</ele>
        <time>2019-01-07T19:33:55Z</time>
      </trkpt>
      <trkpt lat="42.38596" lon="2.22543">
        <ele>2148.1</ele>
        <time>2019-01-07T19:33:58Z</time>
      </trkpt>
      <trkpt lat="42.38594" lon="2.22556">
        <ele>2129</ele>
        <time>2019-01-07T19:34:00Z</time>
      </trkpt>
      <trkpt lat="42.38587" lon="2.22564">
        <ele>2151.1</ele>
        <time>2019-01-07T19:34:03Z</time>
      </trkpt>
      <trkpt lat="42.38577" lon="2.22563">
        <ele>2164</ele>
        <time>2019-01-07T19:34:06Z</time>
      </trkpt>
      <trkpt lat="42.38568" lon="2.22565">
        <ele>2167.1</ele>
        <time>2019-01-07T19:34:08Z</time>
      </trkpt>
      <trkpt lat="42.38559" lon="2.22566">
        <ele>2172</ele>
        <time>2019-01-07T19:34:11Z</time>
      </trkpt>
      <trkpt lat="42.3855" lon="2.2257">
        <ele>2157.1</ele>
        <time>2019-01-07T19:34:13Z</time>
      </trkpt>
      <trkpt lat="42.3854" lon="2.22571">
        <ele>2174.1</ele>
        <time>2019-01-07T19:34:16Z</time>
      </trkpt>
      <trkpt lat="42.38531" lon="2.22575">
        <ele>2179.1</ele>
        <time>2019-01-07T19:34:18Z</time>
      </trkpt>
      <trkpt lat="42.38522" lon="2.22575">
        <ele>2175.1</ele>
        <time>2019-01-07T19:34:21Z</time>
      </trkpt>
      <trkpt lat="42.38513" lon="2.22574">
        <ele>2180</ele>
        <time>2019-01-07T19:34:23Z</time>
      </trkpt>
      <trkpt lat="42.38506" lon="2.22582">
        <ele>2187</ele>
        <time>2019-01-07T19:34:26Z</time>
      </trkpt>
      <trkpt lat="42.38497" lon="2.22586">
        <ele>2195</ele>
        <time>2019-01-07T19:34:28Z</time>
      </trkpt>
      <trkpt lat="42.3849" lon="2.22594">
        <ele>2168.1</ele>
        <time>2019-01-07T19:34:31Z</time>
      </trkpt>
      <trkpt lat="42.38485" lon="2.22606">
        <ele>2200</ele>
        <time>2019-01-07T19:34:33Z</time>
      </trkpt>
      <trkpt lat="42.3848" lon="2.22616">
        <ele>2210.1</ele>
        <time>2019-01-07T19:34:36Z</time>
      </trkpt>
      <trkpt lat="42.38474" lon="2.22625">
        <ele>2209</ele>
        <time>2019-01-07T19:34:38Z</time>
      </trkpt>
      <trkpt lat="42.38469" lon="2.22636">
        <ele>2217.1</ele>
        <time>2019-01-07T19:34:41Z</time>
      </trkpt>
      <trkpt lat="42.38464" lon="2.22648">
        <ele>2220.1</ele>
        <time>2019-01-07T19:34:43Z</time>
      </trkpt>
      <trkpt lat="42.38458" lon="2.22657">
        <ele>2221</ele>
        <time>2019-01-07T19:34:46Z</time>
      </trkpt>
      <trkpt lat="42.38456" lon="2.22669">
        <ele>2225</ele>
        <time>2019-01-07T19:34:48Z</time>
      </trkpt>
      <trkpt lat="42.38454" lon="2.22681">
        <ele>2231.1</ele>
        <time>2019-01-07T19:34:51Z</time>
      </trkpt>
      <trkpt lat="42.38454" lon="2.22694">
        <ele>2237</ele>
        <time>2019-01-07T19:34:53Z</time>
      </trkpt>
      <trkpt lat="42.3846" lon="2.22704">
        <ele>2243</ele>
        <time>2019-01-07T19:34:56Z</time>
      </trkpt>
      <trkpt lat="42.38455" lon="2.22717">
        <ele>2246</ele>
        <time>2019-01-07T19:34:58Z</time>
      </trkpt>
      <trkpt lat="42.3845" lon="2.22728">
        <ele>2249.1</ele>
        <time>2019-01-07T19:35:01Z</time>
      </trkpt>
      <trkpt lat="42.38446" lon="2.22739">
        <ele>2250.1</ele>
        <time>2019-01-07T19:35:03Z</time>
      </trkpt>
      <trkpt lat="42.38448" lon="2.22752">
        <ele>2254.1</ele>
        <time>2019-01-07T19:35:06Z</time>
      </trkpt>
      <trkpt lat="42.38449" lon="2.22765">
        <ele>2254.1</ele>
        <time>2019-01-07T19:35:08Z</time>
      </trkpt>
      <trkpt lat="42.3845" lon="2.22778">
        <ele>2258.1</ele>
        <time>2019-01-07T19:35:11Z</time>
      </trkpt>
      <trkpt lat="42.38448" lon="2.2279">
        <ele>2260.1</ele>
        <time>2019-01-07T19:35:13Z</time>
      </trkpt>
      <trkpt lat="42.38443" lon="2.228">
        <ele>2262</ele>
        <time>2019-01-07T19:35:16Z</time>
      </trkpt>
      <trkpt lat="42.38437" lon="2.2281">
        <ele>2263.1</ele>
        <time>2019-01-07T19:35:18Z</time>
      </trkpt>
      <trkpt lat="42.38432" lon="2.22821">
        <ele>2262</ele>
        <time>2019-01-07T19:35:21Z</time>
      </trkpt>
      <trkpt lat="42.38426" lon="2.22831">
        <ele>2263</ele>
        <time>2019-01-07T19:35:24Z</time>
      </trkpt>
      <trkpt lat="42.38419" lon="2.2284">
        <ele>2262</ele>
        <time>2019-01-07T19:35:26Z</time>
      </trkpt>
      <trkpt lat="42.38416" lon="2.22851">
        <ele>2266.1</ele>
        <time>2019-01-07T19:35:28Z</time>
      </trkpt>
      <trkpt lat="42.38413" lon="2.22863">
        <ele>2271</ele>
        <time>2019-01-07T19:35:31Z</time>
      </trkpt>
      <trkpt lat="42.3841" lon="2.22875">
        <ele>2272</ele>
        <time>2019-01-07T19:35:33Z</time>
      </trkpt>
      <trkpt lat="42.38406" lon="2.22888">
        <ele>2275.1</ele>
        <time>2019-01-07T19:35:36Z</time>
      </trkpt>
      <trkpt lat="42.38403" lon="2.229">
        <ele>2277.1</ele>
        <time>2019-01-07T19:35:39Z</time>
      </trkpt>
      <trkpt lat="42.38398" lon="2.22912">
        <ele>2279</ele>
        <time>2019-01-07T19:35:41Z</time>
      </trkpt>
      <trkpt lat="42.38396" lon="2.22925">
        <ele>2280.1</ele>
        <time>2019-01-07T19:35:44Z</time>
      </trkpt>
      <trkpt lat="42.38391" lon="2.22935">
        <ele>2283.1</ele>
        <time>2019-01-07T19:35:46Z</time>
      </trkpt>
      <trkpt lat="42.38383" lon="2.22943">
        <ele>2284.1</ele>
        <time>2019-01-07T19:35:49Z</time>
      </trkpt>
      <trkpt lat="42.38376" lon="2.22951">
        <ele>2281</ele>
        <time>2019-01-07T19:35:51Z</time>
      </trkpt>
      <trkpt lat="42.38368" lon="2.22959">
        <ele>2285</ele>
        <time>2019-01-07T19:35:54Z</time>
      </trkpt>
      <trkpt lat="42.38361" lon="2.22969">
        <ele>2286</ele>
        <time>2019-01-07T19:35:57Z</time>
      </trkpt>
      <trkpt lat="42.38353" lon="2.22977">
        <ele>2289.1</ele>
        <time>2019-01-07T19:36:00Z</time>
      </trkpt>
      <trkpt lat="42.38346" lon="2.22986">
        <ele>2291.1</ele>
        <time>2019-01-07T19:36:02Z</time>
      </trkpt>
      <trkpt lat="42.38337" lon="2.22992">
        <ele>2295.1</ele>
        <time>2019-01-07T19:36:05Z</time>
      </trkpt>
      <trkpt lat="42.38329" lon="2.22998">
        <ele>2299.1</ele>
        <time>2019-01-07T19:36:07Z</time>
      </trkpt>
      <trkpt lat="42.3832" lon="2.23007">
        <ele>2302</ele>
        <time>2019-01-07T19:36:10Z</time>
      </trkpt>
      <trkpt lat="42.38311" lon="2.23013">
        <ele>2302.1</ele>
        <time>2019-01-07T19:36:13Z</time>
      </trkpt>
      <trkpt lat="42.38304" lon="2.23022">
        <ele>2302.1</ele>
        <time>2019-01-07T19:36:16Z</time>
      </trkpt>
      <trkpt lat="42.38296" lon="2.23028">
        <ele>2302.1</ele>
        <time>2019-01-07T19:36:18Z</time>
      </trkpt>
      <trkpt lat="42.38288" lon="2.23036">
        <ele>2302.1</ele>
        <time>2019-01-07T19:36:21Z</time>
      </trkpt>
      <trkpt lat="42.38283" lon="2.23046">
        <ele>2303.1</ele>
        <time>2019-01-07T19:36:23Z</time>
      </trkpt>
      <trkpt lat="42.38275" lon="2.23053">
        <ele>2305</ele>
        <time>2019-01-07T19:36:26Z</time>
      </trkpt>
      <trkpt lat="42.38265" lon="2.23055">
        <ele>2305</ele>
        <time>2019-01-07T19:36:28Z</time>
      </trkpt>
      <trkpt lat="42.38255" lon="2.2306">
        <ele>2306.1</ele>
        <time>2019-01-07T19:36:31Z</time>
      </trkpt>
      <trkpt lat="42.38246" lon="2.2306">
        <ele>2308</ele>
        <time>2019-01-07T19:36:33Z</time>
      </trkpt>
      <trkpt lat="42.38238" lon="2.23068">
        <ele>2310.1</ele>
        <time>2019-01-07T19:36:36Z</time>
      </trkpt>
      <trkpt lat="42.3823" lon="2.23074">
        <ele>2307</ele>
        <time>2019-01-07T19:36:39Z</time>
      </trkpt>
      <trkpt lat="42.38223" lon="2.23084">
        <ele>2310</ele>
        <time>2019-01-07T19:36:41Z</time>
      </trkpt>
      <trkpt lat="42.38217" lon="2.23093">
        <ele>2317</ele>
        <time>2019-01-07T19:36:44Z</time>
      </trkpt>
      <trkpt lat="42.38212" lon="2.23104">
        <ele>2320.1</ele>
        <time>2019-01-07T19:36:46Z</time>
      </trkpt>
      <trkpt lat="42.38206" lon="2.23115">
        <ele>2320.1</ele>
        <time>2019-01-07T19:36:49Z</time>
      </trkpt>
      <trkpt lat="42.38201" lon="2.23125">
        <ele>2317.1</ele>
        <time>2019-01-07T19:36:51Z</time>
      </trkpt>
      <trkpt lat="42.38194" lon="2.23134">
        <ele>2304</ele>
        <time>2019-01-07T19:36:54Z</time>
      </trkpt>
      <trkpt lat="42.38186" lon="2.23141">
        <ele>2332</ele>
        <time>2019-01-07T19:36:56Z</time>
      </trkpt>
      <trkpt lat="42.38178" lon="2.23145">
        <ele>2337</ele>
        <time>2019-01-07T19:36:59Z</time>
      </trkpt>
      <trkpt lat="42.38169" lon="2.23142">
        <ele>2340.1</ele>
        <time>2019-01-07T19:37:01Z</time>
      </trkpt>
      <trkpt lat="42.38163" lon="2.23131">
        <ele>2341</ele>
        <time>2019-01-07T19:37:04Z</time>
      </trkpt>
      <trkpt lat="42.38157" lon="2.23122">
        <ele>2343</ele>
        <time>2019-01-07T19:37:06Z</time>
      </trkpt>
      <trkpt lat="42.38157" lon="2.23122">
        <ele>2343</ele>
        <time>2019-01-07T19:37:06Z</time>
      </trkpt>
      <trkpt lat="42.38149" lon="2.23116">
        <ele>2344</ele>
        <time>2019-01-07T19:37:09Z</time>
      </trkpt>
      <trkpt lat="42.38141" lon="2.23107">
        <ele>2246.1</ele>
        <time>2019-01-07T19:37:12Z</time>
      </trkpt>
      <trkpt lat="42.38134" lon="2.23098">
        <ele>2312.1</ele>
        <time>2019-01-07T19:37:14Z</time>
      </trkpt>
      <trkpt lat="42.38126" lon="2.23092">
        <ele>2317</ele>
        <time>2019-01-07T19:37:16Z</time>
      </trkpt>
      <trkpt lat="42.38121" lon="2.23081">
        <ele>2332.1</ele>
        <time>2019-01-07T19:37:19Z</time>
      </trkpt>
      <trkpt lat="42.38116" lon="2.2307">
        <ele>2338.1</ele>
        <time>2019-01-07T19:37:22Z</time>
      </trkpt>
      <trkpt lat="42.38111" lon="2.23058">
        <ele>2341</ele>
        <time>2019-01-07T19:37:24Z</time>
      </trkpt>
      <trkpt lat="42.38104" lon="2.23049">
        <ele>2345</ele>
        <time>2019-01-07T19:37:27Z</time>
      </trkpt>
      <trkpt lat="42.38099" lon="2.23038">
        <ele>2351</ele>
        <time>2019-01-07T19:37:29Z</time>
      </trkpt>
      <trkpt lat="42.38093" lon="2.23026">
        <ele>2353.1</ele>
        <time>2019-01-07T19:37:32Z</time>
      </trkpt>
      <trkpt lat="42.38086" lon="2.23015">
        <ele>2353.1</ele>
        <time>2019-01-07T19:37:35Z</time>
      </trkpt>
      <trkpt lat="42.3808" lon="2.23007">
        <ele>2355</ele>
        <time>2019-01-07T19:37:37Z</time>
      </trkpt>
      <trkpt lat="42.38071" lon="2.23">
        <ele>2358.1</ele>
        <time>2019-01-07T19:37:40Z</time>
      </trkpt>
      <trkpt lat="42.38062" lon="2.22993">
        <ele>2362.1</ele>
        <time>2019-01-07T19:37:43Z</time>
      </trkpt>
      <trkpt lat="42.38057" lon="2.22982">
        <ele>2363.1</ele>
        <time>2019-01-07T19:37:45Z</time>
      </trkpt>
      <trkpt lat="42.3805" lon="2.22974">
        <ele>2364</ele>
        <time>2019-01-07T19:37:48Z</time>
      </trkpt>
      <trkpt lat="42.3804" lon="2.2297">
        <ele>2358.1</ele>
        <time>2019-01-07T19:37:51Z</time>
      </trkpt>
      <trkpt lat="42.3803" lon="2.22968">
        <ele>2356</ele>
        <time>2019-01-07T19:37:53Z</time>
      </trkpt>
      <trkpt lat="42.38021" lon="2.22969">
        <ele>2360</ele>
        <time>2019-01-07T19:37:56Z</time>
      </trkpt>
      <trkpt lat="42.38011" lon="2.22968">
        <ele>2359</ele>
        <time>2019-01-07T19:37:59Z</time>
      </trkpt>
      <trkpt lat="42.38001" lon="2.22968">
        <ele>2361</ele>
        <time>2019-01-07T19:38:01Z</time>
      </trkpt>
      <trkpt lat="42.37991" lon="2.22969">
        <ele>2363.1</ele>
        <time>2019-01-07T19:38:04Z</time>
      </trkpt>
      <trkpt lat="42.37982" lon="2.22967">
        <ele>2365</ele>
        <time>2019-01-07T19:38:06Z</time>
      </trkpt>
      <trkpt lat="42.37972" lon="2.22963">
        <ele>2367.1</ele>
        <time>2019-01-07T19:38:09Z</time>
      </trkpt>
      <trkpt lat="42.37961" lon="2.22962">
        <ele>2369</ele>
        <time>2019-01-07T19:38:12Z</time>
      </trkpt>
      <trkpt lat="42.37952" lon="2.22963">
        <ele>2370.1</ele>
        <time>2019-01-07T19:38:14Z</time>
      </trkpt>
      <trkpt lat="42.37941" lon="2.22963">
        <ele>2372</ele>
        <time>2019-01-07T19:38:17Z</time>
      </trkpt>
      <trkpt lat="42.37929" lon="2.22964">
        <ele>2367.1</ele>
        <time>2019-01-07T19:38:21Z</time>
      </trkpt>
      <trkpt lat="42.37919" lon="2.22967">
        <ele>2366.1</ele>
        <time>2019-01-07T19:38:23Z</time>
      </trkpt>
      <trkpt lat="42.37909" lon="2.22969">
        <ele>2368.1</ele>
        <time>2019-01-07T19:38:26Z</time>
      </trkpt>
      <trkpt lat="42.379" lon="2.2297">
        <ele>2366</ele>
        <time>2019-01-07T19:38:28Z</time>
      </trkpt>
      <trkpt lat="42.3789" lon="2.22971">
        <ele>2364</ele>
        <time>2019-01-07T19:38:31Z</time>
      </trkpt>
      <trkpt lat="42.37881" lon="2.22973">
        <ele>2367</ele>
        <time>2019-01-07T19:38:33Z</time>
      </trkpt>
      <trkpt lat="42.37872" lon="2.2298">
        <ele>2368</ele>
        <time>2019-01-07T19:38:36Z</time>
      </trkpt>
      <trkpt lat="42.37862" lon="2.22981">
        <ele>2375.1</ele>
        <time>2019-01-07T19:38:39Z</time>
      </trkpt>
      <trkpt lat="42.37854" lon="2.22988">
        <ele>2384</ele>
        <time>2019-01-07T19:38:41Z</time>
      </trkpt>
      <trkpt lat="42.37844" lon="2.22992">
        <ele>2381.1</ele>
        <time>2019-01-07T19:38:44Z</time>
      </trkpt>
      <trkpt lat="42.37836" lon="2.22998">
        <ele>2386</ele>
        <time>2019-01-07T19:38:47Z</time>
      </trkpt>
      <trkpt lat="42.37827" lon="2.23002">
        <ele>2387</ele>
        <time>2019-01-07T19:38:49Z</time>
      </trkpt>
      <trkpt lat="42.37817" lon="2.23006">
        <ele>2388.1</ele>
        <time>2019-01-07T19:38:52Z</time>
      </trkpt>
      <trkpt lat="42.37808" lon="2.23008">
        <ele>2391.1</ele>
        <time>2019-01-07T19:38:54Z</time>
      </trkpt>
      <trkpt lat="42.37798" lon="2.2301">
        <ele>2388</ele>
        <time>2019-01-07T19:38:57Z</time>
      </trkpt>
      <trkpt lat="42.37789" lon="2.23012">
        <ele>2400</ele>
        <time>2019-01-07T19:39:00Z</time>
      </trkpt>
      <trkpt lat="42.3778" lon="2.23017">
        <ele>2398</ele>
        <time>2019-01-07T19:39:02Z</time>
      </trkpt>
      <trkpt lat="42.37771" lon="2.23021">
        <ele>2396.1</ele>
        <time>2019-01-07T19:39:05Z</time>
      </trkpt>
      <trkpt lat="42.37762" lon="2.23024">
        <ele>2397</ele>
        <time>2019-01-07T19:39:07Z</time>
      </trkpt>
      <trkpt lat="42.37752" lon="2.23025">
        <ele>2385.1</ele>
        <time>2019-01-07T19:39:10Z</time>
      </trkpt>
      <trkpt lat="42.37742" lon="2.23028">
        <ele>2391.1</ele>
        <time>2019-01-07T19:39:12Z</time>
      </trkpt>
      <trkpt lat="42.37734" lon="2.23023">
        <ele>2402</ele>
        <time>2019-01-07T19:39:15Z</time>
      </trkpt>
      <trkpt lat="42.37725" lon="2.2302">
        <ele>2406.1</ele>
        <time>2019-01-07T19:39:17Z</time>
      </trkpt>
      <trkpt lat="42.37715" lon="2.23018">
        <ele>2406</ele>
        <time>2019-01-07T19:39:20Z</time>
      </trkpt>
      <trkpt lat="42.37705" lon="2.2302">
        <ele>2410.1</ele>
        <time>2019-01-07T19:39:23Z</time>
      </trkpt>
      <trkpt lat="42.37695" lon="2.23019">
        <ele>2409</ele>
        <time>2019-01-07T19:39:25Z</time>
      </trkpt>
      <trkpt lat="42.37686" lon="2.23016">
        <ele>2414.1</ele>
        <time>2019-01-07T19:39:28Z</time>
      </trkpt>
      <trkpt lat="42.37677" lon="2.23015">
        <ele>2414</ele>
        <time>2019-01-07T19:39:30Z</time>
      </trkpt>
      <trkpt lat="42.37667" lon="2.23013">
        <ele>2416</ele>
        <time>2019-01-07T19:39:33Z</time>
      </trkpt>
      <trkpt lat="42.37657" lon="2.23015">
        <ele>2419</ele>
        <time>2019-01-07T19:39:36Z</time>
      </trkpt>
      <trkpt lat="42.37648" lon="2.23015">
        <ele>2420.1</ele>
        <time>2019-01-07T19:39:38Z</time>
      </trkpt>
      <trkpt lat="42.37639" lon="2.23012">
        <ele>2419.1</ele>
        <time>2019-01-07T19:39:41Z</time>
      </trkpt>
      <trkpt lat="42.37631" lon="2.23006">
        <ele>2421</ele>
        <time>2019-01-07T19:39:43Z</time>
      </trkpt>
      <trkpt lat="42.37621" lon="2.23006">
        <ele>2425.1</ele>
        <time>2019-01-07T19:39:46Z</time>
      </trkpt>
      <trkpt lat="42.37612" lon="2.23003">
        <ele>2427.1</ele>
        <time>2019-01-07T19:39:48Z</time>
      </trkpt>
      <trkpt lat="42.37603" lon="2.22999">
        <ele>2431.1</ele>
        <time>2019-01-07T19:39:51Z</time>
      </trkpt>
      <trkpt lat="42.37593" lon="2.22995">
        <ele>2425.1</ele>
        <time>2019-01-07T19:39:53Z</time>
      </trkpt>
      <trkpt lat="42.37586" lon="2.22988">
        <ele>2427</ele>
        <time>2019-01-07T19:39:56Z</time>
      </trkpt>
      <trkpt lat="42.37577" lon="2.22982">
        <ele>2431</ele>
        <time>2019-01-07T19:39:58Z</time>
      </trkpt>
      <trkpt lat="42.37569" lon="2.22973">
        <ele>2431</ele>
        <time>2019-01-07T19:40:01Z</time>
      </trkpt>
      <trkpt lat="42.37559" lon="2.22973">
        <ele>2426</ele>
        <time>2019-01-07T19:40:04Z</time>
      </trkpt>
      <trkpt lat="42.37549" lon="2.22968">
        <ele>2433.1</ele>
        <time>2019-01-07T19:40:07Z</time>
      </trkpt>
      <trkpt lat="42.37539" lon="2.22967">
        <ele>2434.1</ele>
        <time>2019-01-07T19:40:09Z</time>
      </trkpt>
      <trkpt lat="42.37529" lon="2.22963">
        <ele>2436</ele>
        <time>2019-01-07T19:40:12Z</time>
      </trkpt>
      <trkpt lat="42.3752" lon="2.22963">
        <ele>2440.1</ele>
        <time>2019-01-07T19:40:14Z</time>
      </trkpt>
      <trkpt lat="42.3751" lon="2.2296">
        <ele>2440.1</ele>
        <time>2019-01-07T19:40:17Z</time>
      </trkpt>
      <trkpt lat="42.37501" lon="2.22957">
        <ele>2441</ele>
        <time>2019-01-07T19:40:20Z</time>
      </trkpt>
      <trkpt lat="42.37491" lon="2.22955">
        <ele>2443.1</ele>
        <time>2019-01-07T19:40:22Z</time>
      </trkpt>
      <trkpt lat="42.37482" lon="2.22951">
        <ele>2452</ele>
        <time>2019-01-07T19:40:25Z</time>
      </trkpt>
      <trkpt lat="42.37475" lon="2.22942">
        <ele>2451.1</ele>
        <time>2019-01-07T19:40:27Z</time>
      </trkpt>
      <trkpt lat="42.37467" lon="2.22933">
        <ele>2451</ele>
        <time>2019-01-07T19:40:30Z</time>
      </trkpt>
      <trkpt lat="42.37459" lon="2.22926">
        <ele>2453</ele>
        <time>2019-01-07T19:40:33Z</time>
      </trkpt>
      <trkpt lat="42.37451" lon="2.22916">
        <ele>2452</ele>
        <time>2019-01-07T19:40:36Z</time>
      </trkpt>
      <trkpt lat="42.37448" lon="2.22904">
        <ele>2455</ele>
        <time>2019-01-07T19:40:38Z</time>
      </trkpt>
      <trkpt lat="42.37477" lon="2.22985">
        <ele>2400.8</ele>
        <time>2019-01-07T20:00:33Z</time>
      </trkpt>
      <trkpt lat="42.37479" lon="2.22996">
        <ele>2401.1</ele>
        <time>2019-01-07T20:00:35Z</time>
      </trkpt>
      <trkpt lat="42.37484" lon="2.23008">
        <ele>2402.3</ele>
        <time>2019-01-07T20:00:38Z</time>
      </trkpt>
      <trkpt lat="42.37485" lon="2.23021">
        <ele>2403.6</ele>
        <time>2019-01-07T20:00:40Z</time>
      </trkpt>
      <trkpt lat="42.37485" lon="2.23033">
        <ele>2404.2</ele>
        <time>2019-01-07T20:00:42Z</time>
      </trkpt>
      <trkpt lat="42.37489" lon="2.23045">
        <ele>2404.1</ele>
        <time>2019-01-07T20:00:45Z</time>
      </trkpt>
      <trkpt lat="42.37493" lon="2.23056">
        <ele>2404</ele>
        <time>2019-01-07T20:00:47Z</time>
      </trkpt>
      <trkpt lat="42.37498" lon="2.23068">
        <ele>2403</ele>
        <time>2019-01-07T20:00:50Z</time>
      </trkpt>
      <trkpt lat="42.37503" lon="2.2308">
        <ele>2401.6</ele>
        <time>2019-01-07T20:00:53Z</time>
      </trkpt>
      <trkpt lat="42.37507" lon="2.2309">
        <ele>2401.2</ele>
        <time>2019-01-07T20:00:55Z</time>
      </trkpt>
      <trkpt lat="42.37514" lon="2.231">
        <ele>2401.6</ele>
        <time>2019-01-07T20:00:58Z</time>
      </trkpt>
      <trkpt lat="42.37521" lon="2.23109">
        <ele>2402.4</ele>
        <time>2019-01-07T20:01:01Z</time>
      </trkpt>
      <trkpt lat="42.3753" lon="2.23114">
        <ele>2404</ele>
        <time>2019-01-07T20:01:03Z</time>
      </trkpt>
      <trkpt lat="42.37536" lon="2.23124">
        <ele>2407.1</ele>
        <time>2019-01-07T20:01:06Z</time>
      </trkpt>
      <trkpt lat="42.37534" lon="2.23136">
        <ele>2410</ele>
        <time>2019-01-07T20:01:08Z</time>
      </trkpt>
      <trkpt lat="42.37537" lon="2.23149">
        <ele>2414.5</ele>
        <time>2019-01-07T20:01:11Z</time>
      </trkpt>
      <trkpt lat="42.3754" lon="2.2316">
        <ele>2419</ele>
        <time>2019-01-07T20:01:13Z</time>
      </trkpt>
      <trkpt lat="42.37539" lon="2.23173">
        <ele>2423.3</ele>
        <time>2019-01-07T20:01:16Z</time>
      </trkpt>
      <trkpt lat="42.37532" lon="2.23183">
        <ele>2425.7</ele>
        <time>2019-01-07T20:01:18Z</time>
      </trkpt>
      <trkpt lat="42.37532" lon="2.23196">
        <ele>2430.3</ele>
        <time>2019-01-07T20:01:21Z</time>
      </trkpt>
      <trkpt lat="42.37533" lon="2.23209">
        <ele>2434.8</ele>
        <time>2019-01-07T20:01:23Z</time>
      </trkpt>
      <trkpt lat="42.37535" lon="2.23221">
        <ele>2439.1</ele>
        <time>2019-01-07T20:01:26Z</time>
      </trkpt>
      <trkpt lat="42.37535" lon="2.23234">
        <ele>2443.4</ele>
        <time>2019-01-07T20:01:28Z</time>
      </trkpt>
      <trkpt lat="42.37534" lon="2.23246">
        <ele>2447.2</ele>
        <time>2019-01-07T20:01:31Z</time>
      </trkpt>
      <trkpt lat="42.37538" lon="2.23257">
        <ele>2451.1</ele>
        <time>2019-01-07T20:01:33Z</time>
      </trkpt>
      <trkpt lat="42.37542" lon="2.23269">
        <ele>2454.2</ele>
        <time>2019-01-07T20:01:36Z</time>
      </trkpt>
      <trkpt lat="42.37541" lon="2.23282">
        <ele>2457</ele>
        <time>2019-01-07T20:01:38Z</time>
      </trkpt>
      <trkpt lat="42.37545" lon="2.23294">
        <ele>2460.2</ele>
        <time>2019-01-07T20:01:41Z</time>
      </trkpt>
      <trkpt lat="42.37546" lon="2.23306">
        <ele>2463.4</ele>
        <time>2019-01-07T20:01:43Z</time>
      </trkpt>
      <trkpt lat="42.37555" lon="2.2331">
        <ele>2467.7</ele>
        <time>2019-01-07T20:01:46Z</time>
      </trkpt>
      <trkpt lat="42.37556" lon="2.23323">
        <ele>2472.3</ele>
        <time>2019-01-07T20:01:48Z</time>
      </trkpt>
      <trkpt lat="42.37564" lon="2.2333">
        <ele>2477</ele>
        <time>2019-01-07T20:01:51Z</time>
      </trkpt>
      <trkpt lat="42.37569" lon="2.2334">
        <ele>2482.3</ele>
        <time>2019-01-07T20:01:53Z</time>
      </trkpt>
      <trkpt lat="42.37567" lon="2.23353">
        <ele>2486.4</ele>
        <time>2019-01-07T20:01:56Z</time>
      </trkpt>
      <trkpt lat="42.37569" lon="2.23365">
        <ele>2491.2</ele>
        <time>2019-01-07T20:01:58Z</time>
      </trkpt>
      <trkpt lat="42.37576" lon="2.23374">
        <ele>2497.2</ele>
        <time>2019-01-07T20:02:01Z</time>
      </trkpt>
      <trkpt lat="42.37585" lon="2.23376">
        <ele>2501.4</ele>
        <time>2019-01-07T20:02:03Z</time>
      </trkpt>
      <trkpt lat="42.37591" lon="2.23385">
        <ele>2506.6</ele>
        <time>2019-01-07T20:02:06Z</time>
      </trkpt>
      <trkpt lat="42.37599" lon="2.23392">
        <ele>2511.1</ele>
        <time>2019-01-07T20:02:08Z</time>
      </trkpt>
      <trkpt lat="42.37605" lon="2.23402">
        <ele>2516.8</ele>
        <time>2019-01-07T20:02:11Z</time>
      </trkpt>
      <trkpt lat="42.37606" lon="2.23415">
        <ele>2522.4</ele>
        <time>2019-01-07T20:02:13Z</time>
      </trkpt>
      <trkpt lat="42.37607" lon="2.23428">
        <ele>2527.1</ele>
        <time>2019-01-07T20:02:16Z</time>
      </trkpt>
      <trkpt lat="42.37604" lon="2.23439">
        <ele>2529.7</ele>
        <time>2019-01-07T20:02:18Z</time>
      </trkpt>
      <trkpt lat="42.37611" lon="2.23447">
        <ele>2535.6</ele>
        <time>2019-01-07T20:02:21Z</time>
      </trkpt>
      <trkpt lat="42.37613" lon="2.23459">
        <ele>2539.2</ele>
        <time>2019-01-07T20:02:23Z</time>
      </trkpt>
      <trkpt lat="42.37612" lon="2.23471">
        <ele>2542.7</ele>
        <time>2019-01-07T20:02:26Z</time>
      </trkpt>
      <trkpt lat="42.37615" lon="2.23484">
        <ele>2545</ele>
        <time>2019-01-07T20:02:28Z</time>
      </trkpt>
      <trkpt lat="42.37619" lon="2.23496">
        <ele>2547.6</ele>
        <time>2019-01-07T20:02:31Z</time>
      </trkpt>
      <trkpt lat="42.37622" lon="2.23509">
        <ele>2550.3</ele>
        <time>2019-01-07T20:02:34Z</time>
      </trkpt>
      <trkpt lat="42.37627" lon="2.23519">
        <ele>2554.2</ele>
        <time>2019-01-07T20:02:36Z</time>
      </trkpt>
      <trkpt lat="42.37635" lon="2.23526">
        <ele>2560.2</ele>
        <time>2019-01-07T20:02:39Z</time>
      </trkpt>
      <trkpt lat="42.3764" lon="2.23536">
        <ele>2564.9</ele>
        <time>2019-01-07T20:02:41Z</time>
      </trkpt>
      <trkpt lat="42.37648" lon="2.23541">
        <ele>2567.5</ele>
        <time>2019-01-07T20:02:43Z</time>
      </trkpt>
      <trkpt lat="42.37653" lon="2.23553">
        <ele>2572.4</ele>
        <time>2019-01-07T20:02:46Z</time>
      </trkpt>
      <trkpt lat="42.3766" lon="2.23562">
        <ele>2574.9</ele>
        <time>2019-01-07T20:02:49Z</time>
      </trkpt>
      <trkpt lat="42.37667" lon="2.23569">
        <ele>2577</ele>
        <time>2019-01-07T20:02:51Z</time>
      </trkpt>
      <trkpt lat="42.37677" lon="2.23571">
        <ele>2577.4</ele>
        <time>2019-01-07T20:02:53Z</time>
      </trkpt>
      <trkpt lat="42.37685" lon="2.23576">
        <ele>2578.1</ele>
        <time>2019-01-07T20:02:56Z</time>
      </trkpt>
      <trkpt lat="42.37694" lon="2.23581">
        <ele>2579.4</ele>
        <time>2019-01-07T20:02:58Z</time>
      </trkpt>
      <trkpt lat="42.37703" lon="2.23586">
        <ele>2578.9</ele>
        <time>2019-01-07T20:03:01Z</time>
      </trkpt>
      <trkpt lat="42.37711" lon="2.23587">
        <ele>2578.2</ele>
        <time>2019-01-07T20:03:03Z</time>
      </trkpt>
      <trkpt lat="42.37722" lon="2.23588">
        <ele>2577.7</ele>
        <time>2019-01-07T20:03:06Z</time>
      </trkpt>
      <trkpt lat="42.37731" lon="2.23586">
        <ele>2577.9</ele>
        <time>2019-01-07T20:03:09Z</time>
      </trkpt>
      <trkpt lat="42.3774" lon="2.23584">
        <ele>2578</ele>
        <time>2019-01-07T20:03:11Z</time>
      </trkpt>
      <trkpt lat="42.3775" lon="2.23583">
        <ele>2578</ele>
        <time>2019-01-07T20:03:14Z</time>
      </trkpt>
      <trkpt lat="42.3776" lon="2.23585">
        <ele>2576.4</ele>
        <time>2019-01-07T20:03:16Z</time>
      </trkpt>
      <trkpt lat="42.37769" lon="2.23586">
        <ele>2574.5</ele>
        <time>2019-01-07T20:03:19Z</time>
      </trkpt>
      <trkpt lat="42.37779" lon="2.23588">
        <ele>2572.4</ele>
        <time>2019-01-07T20:03:22Z</time>
      </trkpt>
      <trkpt lat="42.37788" lon="2.2359">
        <ele>2570.8</ele>
        <time>2019-01-07T20:03:24Z</time>
      </trkpt>
      <trkpt lat="42.37797" lon="2.23587">
        <ele>2571.3</ele>
        <time>2019-01-07T20:03:27Z</time>
      </trkpt>
      <trkpt lat="42.37806" lon="2.23587">
        <ele>2570.5</ele>
        <time>2019-01-07T20:03:29Z</time>
      </trkpt>
      <trkpt lat="42.37816" lon="2.23589">
        <ele>2569.3</ele>
        <time>2019-01-07T20:03:32Z</time>
      </trkpt>
      <trkpt lat="42.37826" lon="2.23591">
        <ele>2568.2</ele>
        <time>2019-01-07T20:03:34Z</time>
      </trkpt>
      <trkpt lat="42.37835" lon="2.2359">
        <ele>2567.9</ele>
        <time>2019-01-07T20:03:37Z</time>
      </trkpt>
      <trkpt lat="42.37845" lon="2.2359">
        <ele>2567.2</ele>
        <time>2019-01-07T20:03:39Z</time>
      </trkpt>
      <trkpt lat="42.37854" lon="2.23592">
        <ele>2566.5</ele>
        <time>2019-01-07T20:03:42Z</time>
      </trkpt>
      <trkpt lat="42.37863" lon="2.2359">
        <ele>2565.4</ele>
        <time>2019-01-07T20:03:44Z</time>
      </trkpt>
      <trkpt lat="42.37873" lon="2.23591">
        <ele>2564.1</ele>
        <time>2019-01-07T20:03:47Z</time>
      </trkpt>
      <trkpt lat="42.37882" lon="2.23592">
        <ele>2562.7</ele>
        <time>2019-01-07T20:03:49Z</time>
      </trkpt>
      <trkpt lat="42.3789" lon="2.23599">
        <ele>2562.4</ele>
        <time>2019-01-07T20:03:52Z</time>
      </trkpt>
      <trkpt lat="42.37898" lon="2.23606">
        <ele>2561.5</ele>
        <time>2019-01-07T20:03:54Z</time>
      </trkpt>
      <trkpt lat="42.37906" lon="2.23613">
        <ele>2560</ele>
        <time>2019-01-07T20:03:57Z</time>
      </trkpt>
      <trkpt lat="42.37915" lon="2.23618">
        <ele>2557.8</ele>
        <time>2019-01-07T20:03:59Z</time>
      </trkpt>
      <trkpt lat="42.37923" lon="2.23625">
        <ele>2556.4</ele>
        <time>2019-01-07T20:04:02Z</time>
      </trkpt>
      <trkpt lat="42.37931" lon="2.23634">
        <ele>2556</ele>
        <time>2019-01-07T20:04:05Z</time>
      </trkpt>
      <trkpt lat="42.37938" lon="2.23642">
        <ele>2554.7</ele>
        <time>2019-01-07T20:04:07Z</time>
      </trkpt>
      <trkpt lat="42.37946" lon="2.2365">
        <ele>2552.8</ele>
        <time>2019-01-07T20:04:10Z</time>
      </trkpt>
      <trkpt lat="42.37953" lon="2.23656">
        <ele>2552.3</ele>
        <time>2019-01-07T20:04:12Z</time>
      </trkpt>
      <trkpt lat="42.37962" lon="2.23662">
        <ele>2553.1</ele>
        <time>2019-01-07T20:04:15Z</time>
      </trkpt>
      <trkpt lat="42.3797" lon="2.23669">
        <ele>2554.4</ele>
        <time>2019-01-07T20:04:17Z</time>
      </trkpt>
      <trkpt lat="42.37979" lon="2.23676">
        <ele>2553.9</ele>
        <time>2019-01-07T20:04:20Z</time>
      </trkpt>
      <trkpt lat="42.37987" lon="2.23682">
        <ele>2554.2</ele>
        <time>2019-01-07T20:04:23Z</time>
      </trkpt>
      <trkpt lat="42.37994" lon="2.2369">
        <ele>2555.4</ele>
        <time>2019-01-07T20:04:25Z</time>
      </trkpt>
      <trkpt lat="42.38003" lon="2.23696">
        <ele>2556.4</ele>
        <time>2019-01-07T20:04:28Z</time>
      </trkpt>
      <trkpt lat="42.38012" lon="2.23701">
        <ele>2555</ele>
        <time>2019-01-07T20:04:30Z</time>
      </trkpt>
      <trkpt lat="42.38021" lon="2.23705">
        <ele>2554.5</ele>
        <time>2019-01-07T20:04:33Z</time>
      </trkpt>
      <trkpt lat="42.3803" lon="2.2371">
        <ele>2554.6</ele>
        <time>2019-01-07T20:04:35Z</time>
      </trkpt>
      <trkpt lat="42.38038" lon="2.23714">
        <ele>2556</ele>
        <time>2019-01-07T20:04:38Z</time>
      </trkpt>
      <trkpt lat="42.38047" lon="2.23716">
        <ele>2557.9</ele>
        <time>2019-01-07T20:04:40Z</time>
      </trkpt>
      <trkpt lat="42.38057" lon="2.2372">
        <ele>2560.7</ele>
        <time>2019-01-07T20:04:43Z</time>
      </trkpt>
      <trkpt lat="42.38067" lon="2.23724">
        <ele>2562.1</ele>
        <time>2019-01-07T20:04:46Z</time>
      </trkpt>
      <trkpt lat="42.38073" lon="2.23733">
        <ele>2562.9</ele>
        <time>2019-01-07T20:04:48Z</time>
      </trkpt>
      <trkpt lat="42.38083" lon="2.23738">
        <ele>2565.2</ele>
        <time>2019-01-07T20:04:51Z</time>
      </trkpt>
      <trkpt lat="42.38092" lon="2.23746">
        <ele>2568.1</ele>
        <time>2019-01-07T20:04:54Z</time>
      </trkpt>
      <trkpt lat="42.38101" lon="2.23747">
        <ele>2571.2</ele>
        <time>2019-01-07T20:04:56Z</time>
      </trkpt>
      <trkpt lat="42.3811" lon="2.23752">
        <ele>2574.4</ele>
        <time>2019-01-07T20:04:59Z</time>
      </trkpt>
      <trkpt lat="42.38119" lon="2.23755">
        <ele>2576.9</ele>
        <time>2019-01-07T20:05:01Z</time>
      </trkpt>
      <trkpt lat="42.38126" lon="2.23762">
        <ele>2578.9</ele>
        <time>2019-01-07T20:05:04Z</time>
      </trkpt>
      <trkpt lat="42.38136" lon="2.23765">
        <ele>2582.3</ele>
        <time>2019-01-07T20:05:06Z</time>
      </trkpt>
      <trkpt lat="42.38145" lon="2.23767">
        <ele>2585.5</ele>
        <time>2019-01-07T20:05:09Z</time>
      </trkpt>
      <trkpt lat="42.38155" lon="2.23769">
        <ele>2589.1</ele>
        <time>2019-01-07T20:05:12Z</time>
      </trkpt>
      <trkpt lat="42.38165" lon="2.23769">
        <ele>2592.3</ele>
        <time>2019-01-07T20:05:14Z</time>
      </trkpt>
      <trkpt lat="42.38175" lon="2.2377">
        <ele>2593.4</ele>
        <time>2019-01-07T20:05:17Z</time>
      </trkpt>
      <trkpt lat="42.38184" lon="2.23771">
        <ele>2594.4</ele>
        <time>2019-01-07T20:05:19Z</time>
      </trkpt>
      <trkpt lat="42.38193" lon="2.23771">
        <ele>2595.1</ele>
        <time>2019-01-07T20:05:22Z</time>
      </trkpt>
      <trkpt lat="42.38203" lon="2.23771">
        <ele>2595.6</ele>
        <time>2019-01-07T20:05:24Z</time>
      </trkpt>
      <trkpt lat="42.38213" lon="2.23773">
        <ele>2596.3</ele>
        <time>2019-01-07T20:05:27Z</time>
      </trkpt>
      <trkpt lat="42.38223" lon="2.23776">
        <ele>2596.9</ele>
        <time>2019-01-07T20:05:30Z</time>
      </trkpt>
      <trkpt lat="42.38233" lon="2.23779">
        <ele>2598</ele>
        <time>2019-01-07T20:05:32Z</time>
      </trkpt>
      <trkpt lat="42.38243" lon="2.23781">
        <ele>2598.7</ele>
        <time>2019-01-07T20:05:35Z</time>
      </trkpt>
      <trkpt lat="42.38252" lon="2.23783">
        <ele>2599.1</ele>
        <time>2019-01-07T20:05:38Z</time>
      </trkpt>
      <trkpt lat="42.38262" lon="2.23786">
        <ele>2598.4</ele>
        <time>2019-01-07T20:05:40Z</time>
      </trkpt>
      <trkpt lat="42.38271" lon="2.23789">
        <ele>2598.1</ele>
        <time>2019-01-07T20:05:43Z</time>
      </trkpt>
      <trkpt lat="42.38279" lon="2.23796">
        <ele>2597.8</ele>
        <time>2019-01-07T20:05:45Z</time>
      </trkpt>
      <trkpt lat="42.38287" lon="2.23803">
        <ele>2596.1</ele>
        <time>2019-01-07T20:05:48Z</time>
      </trkpt>
      <trkpt lat="42.38296" lon="2.23805">
        <ele>2594</ele>
        <time>2019-01-07T20:05:50Z</time>
      </trkpt>
      <trkpt lat="42.38305" lon="2.23808">
        <ele>2591.6</ele>
        <time>2019-01-07T20:05:53Z</time>
      </trkpt>
      <trkpt lat="42.38315" lon="2.2381">
        <ele>2590.8</ele>
        <time>2019-01-07T20:05:55Z</time>
      </trkpt>
      <trkpt lat="42.38325" lon="2.23812">
        <ele>2590.5</ele>
        <time>2019-01-07T20:05:58Z</time>
      </trkpt>
      <trkpt lat="42.38335" lon="2.23817">
        <ele>2590.6</ele>
        <time>2019-01-07T20:06:01Z</time>
      </trkpt>
      <trkpt lat="42.38344" lon="2.2382">
        <ele>2591.3</ele>
        <time>2019-01-07T20:06:03Z</time>
      </trkpt>
      <trkpt lat="42.38354" lon="2.23819">
        <ele>2591.9</ele>
        <time>2019-01-07T20:06:06Z</time>
      </trkpt>
      <trkpt lat="42.38363" lon="2.23819">
        <ele>2592.5</ele>
        <time>2019-01-07T20:06:09Z</time>
      </trkpt>
      <trkpt lat="42.38373" lon="2.23823">
        <ele>2593.4</ele>
        <time>2019-01-07T20:06:11Z</time>
      </trkpt>
      <trkpt lat="42.38383" lon="2.23822">
        <ele>2594</ele>
        <time>2019-01-07T20:06:14Z</time>
      </trkpt>
      <trkpt lat="42.38392" lon="2.23822">
        <ele>2594.9</ele>
        <time>2019-01-07T20:06:16Z</time>
      </trkpt>
      <trkpt lat="42.38401" lon="2.23818">
        <ele>2596.2</ele>
        <time>2019-01-07T20:06:19Z</time>
      </trkpt>
      <trkpt lat="42.3841" lon="2.23814">
        <ele>2597.5</ele>
        <time>2019-01-07T20:06:22Z</time>
      </trkpt>
      <trkpt lat="42.38419" lon="2.23808">
        <ele>2598.3</ele>
        <time>2019-01-07T20:06:24Z</time>
      </trkpt>
      <trkpt lat="42.38428" lon="2.23804">
        <ele>2598.1</ele>
        <time>2019-01-07T20:06:27Z</time>
      </trkpt>
      <trkpt lat="42.38438" lon="2.23803">
        <ele>2598</ele>
        <time>2019-01-07T20:06:29Z</time>
      </trkpt>
      <trkpt lat="42.38447" lon="2.23799">
        <ele>2597.1</ele>
        <time>2019-01-07T20:06:32Z</time>
      </trkpt>
      <trkpt lat="42.38456" lon="2.23799">
        <ele>2597.3</ele>
        <time>2019-01-07T20:06:34Z</time>
      </trkpt>
      <trkpt lat="42.38465" lon="2.23795">
        <ele>2596.3</ele>
        <time>2019-01-07T20:06:37Z</time>
      </trkpt>
      <trkpt lat="42.38474" lon="2.23793">
        <ele>2595.9</ele>
        <time>2019-01-07T20:06:39Z</time>
      </trkpt>
      <trkpt lat="42.38484" lon="2.23789">
        <ele>2595.1</ele>
        <time>2019-01-07T20:06:42Z</time>
      </trkpt>
      <trkpt lat="42.38493" lon="2.23787">
        <ele>2594.3</ele>
        <time>2019-01-07T20:06:44Z</time>
      </trkpt>
      <trkpt lat="42.38502" lon="2.23784">
        <ele>2593.3</ele>
        <time>2019-01-07T20:06:47Z</time>
      </trkpt>
      <trkpt lat="42.38511" lon="2.23781">
        <ele>2592.5</ele>
        <time>2019-01-07T20:06:49Z</time>
      </trkpt>
      <trkpt lat="42.3852" lon="2.23776">
        <ele>2591.2</ele>
        <time>2019-01-07T20:06:52Z</time>
      </trkpt>
      <trkpt lat="42.3853" lon="2.23775">
        <ele>2591.1</ele>
        <time>2019-01-07T20:06:55Z</time>
      </trkpt>
      <trkpt lat="42.38539" lon="2.23771">
        <ele>2589.2</ele>
        <time>2019-01-07T20:06:57Z</time>
      </trkpt>
      <trkpt lat="42.38548" lon="2.23771">
        <ele>2589.7</ele>
        <time>2019-01-07T20:07:00Z</time>
      </trkpt>
      <trkpt lat="42.38558" lon="2.23775">
        <ele>2590.8</ele>
        <time>2019-01-07T20:07:02Z</time>
      </trkpt>
      <trkpt lat="42.38568" lon="2.23777">
        <ele>2591.3</ele>
        <time>2019-01-07T20:07:05Z</time>
      </trkpt>
      <trkpt lat="42.38577" lon="2.23777">
        <ele>2591</ele>
        <time>2019-01-07T20:07:08Z</time>
      </trkpt>
      <trkpt lat="42.38587" lon="2.23777">
        <ele>2590.6</ele>
        <time>2019-01-07T20:07:10Z</time>
      </trkpt>
      <trkpt lat="42.38597" lon="2.23778">
        <ele>2590.1</ele>
        <time>2019-01-07T20:07:13Z</time>
      </trkpt>
      <trkpt lat="42.38606" lon="2.2378">
        <ele>2589.1</ele>
        <time>2019-01-07T20:07:15Z</time>
      </trkpt>
      <trkpt lat="42.38616" lon="2.23781">
        <ele>2588.9</ele>
        <time>2019-01-07T20:07:18Z</time>
      </trkpt>
      <trkpt lat="42.38625" lon="2.23782">
        <ele>2589.4</ele>
        <time>2019-01-07T20:07:20Z</time>
      </trkpt>
      <trkpt lat="42.38634" lon="2.23783">
        <ele>2589.9</ele>
        <time>2019-01-07T20:07:23Z</time>
      </trkpt>
      <trkpt lat="42.38645" lon="2.23784">
        <ele>2589.8</ele>
        <time>2019-01-07T20:07:26Z</time>
      </trkpt>
      <trkpt lat="42.38654" lon="2.23785">
        <ele>2589.5</ele>
        <time>2019-01-07T20:07:28Z</time>
      </trkpt>
      <trkpt lat="42.38664" lon="2.23787">
        <ele>2589.2</ele>
        <time>2019-01-07T20:07:31Z</time>
      </trkpt>
      <trkpt lat="42.38673" lon="2.23789">
        <ele>2587.6</ele>
        <time>2019-01-07T20:07:33Z</time>
      </trkpt>
      <trkpt lat="42.38682" lon="2.23787">
        <ele>2586</ele>
        <time>2019-01-07T20:07:36Z</time>
      </trkpt>
      <trkpt lat="42.38692" lon="2.23784">
        <ele>2584.3</ele>
        <time>2019-01-07T20:07:38Z</time>
      </trkpt>
      <trkpt lat="42.38698" lon="2.23776">
        <ele>2583.2</ele>
        <time>2019-01-07T20:07:41Z</time>
      </trkpt>
      <trkpt lat="42.38704" lon="2.23765">
        <ele>2581.5</ele>
        <time>2019-01-07T20:07:43Z</time>
      </trkpt>
      <trkpt lat="42.3871" lon="2.23756">
        <ele>2579.9</ele>
        <time>2019-01-07T20:07:46Z</time>
      </trkpt>
      <trkpt lat="42.3872" lon="2.23751">
        <ele>2578.4</ele>
        <time>2019-01-07T20:07:49Z</time>
      </trkpt>
      <trkpt lat="42.38729" lon="2.23746">
        <ele>2576.6</ele>
        <time>2019-01-07T20:07:51Z</time>
      </trkpt>
      <trkpt lat="42.38737" lon="2.23739">
        <ele>2574.8</ele>
        <time>2019-01-07T20:07:54Z</time>
      </trkpt>
      <trkpt lat="42.38744" lon="2.2373">
        <ele>2573.2</ele>
        <time>2019-01-07T20:07:56Z</time>
      </trkpt>
      <trkpt lat="42.38752" lon="2.23736">
        <ele>2572.8</ele>
        <time>2019-01-07T20:07:59Z</time>
      </trkpt>
      <trkpt lat="42.38758" lon="2.23747">
        <ele>2572</ele>
        <time>2019-01-07T20:08:01Z</time>
      </trkpt>
      <trkpt lat="42.38759" lon="2.23759">
        <ele>2570.9</ele>
        <time>2019-01-07T20:08:04Z</time>
      </trkpt>
      <trkpt lat="42.38759" lon="2.23772">
        <ele>2570</ele>
        <time>2019-01-07T20:08:06Z</time>
      </trkpt>
      <trkpt lat="42.3876" lon="2.23784">
        <ele>2568.2</ele>
        <time>2019-01-07T20:08:09Z</time>
      </trkpt>
      <trkpt lat="42.38758" lon="2.23798">
        <ele>2566.9</ele>
        <time>2019-01-07T20:08:11Z</time>
      </trkpt>
      <trkpt lat="42.38757" lon="2.2381">
        <ele>2565.6</ele>
        <time>2019-01-07T20:08:14Z</time>
      </trkpt>
      <trkpt lat="42.38756" lon="2.23822">
        <ele>2563.9</ele>
        <time>2019-01-07T20:08:16Z</time>
      </trkpt>
      <trkpt lat="42.38757" lon="2.23835">
        <ele>2561.1</ele>
        <time>2019-01-07T20:08:19Z</time>
      </trkpt>
      <trkpt lat="42.38759" lon="2.23848">
        <ele>2557.5</ele>
        <time>2019-01-07T20:08:22Z</time>
      </trkpt>
      <trkpt lat="42.38759" lon="2.23862">
        <ele>2554.9</ele>
        <time>2019-01-07T20:08:24Z</time>
      </trkpt>
      <trkpt lat="42.3876" lon="2.23875">
        <ele>2551.8</ele>
        <time>2019-01-07T20:08:27Z</time>
      </trkpt>
      <trkpt lat="42.3876" lon="2.23887">
        <ele>2549.4</ele>
        <time>2019-01-07T20:08:29Z</time>
      </trkpt>
      <trkpt lat="42.38765" lon="2.23898">
        <ele>2547.9</ele>
        <time>2019-01-07T20:08:32Z</time>
      </trkpt>
      <trkpt lat="42.38771" lon="2.23906">
        <ele>2547.9</ele>
        <time>2019-01-07T20:08:34Z</time>
      </trkpt>
      <trkpt lat="42.38771" lon="2.23906">
        <ele>2547.8</ele>
        <time>2019-01-07T20:08:34Z</time>
      </trkpt>
      <trkpt lat="42.38777" lon="2.23917">
        <ele>2548.8</ele>
        <time>2019-01-07T20:08:37Z</time>
      </trkpt>
      <trkpt lat="42.38783" lon="2.23927">
        <ele>2547.4</ele>
        <time>2019-01-07T20:08:39Z</time>
      </trkpt>
      <trkpt lat="42.3879" lon="2.23936">
        <ele>2545.8</ele>
        <time>2019-01-07T20:08:42Z</time>
      </trkpt>
      <trkpt lat="42.38794" lon="2.23947">
        <ele>2544.6</ele>
        <time>2019-01-07T20:08:44Z</time>
      </trkpt>
      <trkpt lat="42.38798" lon="2.23958">
        <ele>2543.8</ele>
        <time>2019-01-07T20:08:47Z</time>
      </trkpt>
      <trkpt lat="42.388" lon="2.23971">
        <ele>2543.7</ele>
        <time>2019-01-07T20:08:49Z</time>
      </trkpt>
      <trkpt lat="42.38805" lon="2.23982">
        <ele>2543.1</ele>
        <time>2019-01-07T20:08:52Z</time>
      </trkpt>
      <trkpt lat="42.38813" lon="2.23989">
        <ele>2541.1</ele>
        <time>2019-01-07T20:08:54Z</time>
      </trkpt>
      <trkpt lat="42.38819" lon="2.23999">
        <ele>2540.1</ele>
        <time>2019-01-07T20:08:57Z</time>
      </trkpt>
      <trkpt lat="42.38822" lon="2.24012">
        <ele>2539.1</ele>
        <time>2019-01-07T20:09:00Z</time>
      </trkpt>
      <trkpt lat="42.38824" lon="2.24025">
        <ele>2538.6</ele>
        <time>2019-01-07T20:09:02Z</time>
      </trkpt>
      <trkpt lat="42.38826" lon="2.24038">
        <ele>2537.9</ele>
        <time>2019-01-07T20:09:05Z</time>
      </trkpt>
      <trkpt lat="42.38833" lon="2.24047">
        <ele>2538.3</ele>
        <time>2019-01-07T20:09:07Z</time>
      </trkpt>
      <trkpt lat="42.38839" lon="2.24055">
        <ele>2537.5</ele>
        <time>2019-01-07T20:09:10Z</time>
      </trkpt>
      <trkpt lat="42.38847" lon="2.24063">
        <ele>2536.2</ele>
        <time>2019-01-07T20:09:12Z</time>
      </trkpt>
      <trkpt lat="42.38855" lon="2.24072">
        <ele>2535.7</ele>
        <time>2019-01-07T20:09:15Z</time>
      </trkpt>
      <trkpt lat="42.38863" lon="2.24081">
        <ele>2535.5</ele>
        <time>2019-01-07T20:09:18Z</time>
      </trkpt>
      <trkpt lat="42.38869" lon="2.24092">
        <ele>2536.4</ele>
        <time>2019-01-07T20:09:21Z</time>
      </trkpt>
      <trkpt lat="42.38874" lon="2.24102">
        <ele>2537.9</ele>
        <time>2019-01-07T20:09:23Z</time>
      </trkpt>
      <trkpt lat="42.38882" lon="2.24111">
        <ele>2539.2</ele>
        <time>2019-01-07T20:09:26Z</time>
      </trkpt>
      <trkpt lat="42.38891" lon="2.24116">
        <ele>2540.5</ele>
        <time>2019-01-07T20:09:28Z</time>
      </trkpt>
      <trkpt lat="42.38901" lon="2.24118">
        <ele>2540.6</ele>
        <time>2019-01-07T20:09:31Z</time>
      </trkpt>
      <trkpt lat="42.3891" lon="2.2412">
        <ele>2540.6</ele>
        <time>2019-01-07T20:09:33Z</time>
      </trkpt>
      <trkpt lat="42.38917" lon="2.24127">
        <ele>2542.7</ele>
        <time>2019-01-07T20:09:36Z</time>
      </trkpt>
      <trkpt lat="42.38926" lon="2.24134">
        <ele>2543.9</ele>
        <time>2019-01-07T20:09:38Z</time>
      </trkpt>
      <trkpt lat="42.38934" lon="2.2414">
        <ele>2545</ele>
        <time>2019-01-07T20:09:41Z</time>
      </trkpt>
      <trkpt lat="42.38942" lon="2.24146">
        <ele>2545.4</ele>
        <time>2019-01-07T20:09:43Z</time>
      </trkpt>
      <trkpt lat="42.38947" lon="2.24156">
        <ele>2547</ele>
        <time>2019-01-07T20:09:46Z</time>
      </trkpt>
      <trkpt lat="42.38955" lon="2.24162">
        <ele>2547.9</ele>
        <time>2019-01-07T20:09:48Z</time>
      </trkpt>
      <trkpt lat="42.38962" lon="2.2417">
        <ele>2549.4</ele>
        <time>2019-01-07T20:09:51Z</time>
      </trkpt>
      <trkpt lat="42.3897" lon="2.24176">
        <ele>2550.2</ele>
        <time>2019-01-07T20:09:53Z</time>
      </trkpt>
      <trkpt lat="42.38979" lon="2.24181">
        <ele>2550.4</ele>
        <time>2019-01-07T20:09:56Z</time>
      </trkpt>
      <trkpt lat="42.38987" lon="2.24186">
        <ele>2550.6</ele>
        <time>2019-01-07T20:09:58Z</time>
      </trkpt>
      <trkpt lat="42.38996" lon="2.2419">
        <ele>2550.5</ele>
        <time>2019-01-07T20:10:01Z</time>
      </trkpt>
      <trkpt lat="42.39004" lon="2.24197">
        <ele>2551.2</ele>
        <time>2019-01-07T20:10:03Z</time>
      </trkpt>
      <trkpt lat="42.39013" lon="2.24201">
        <ele>2550.6</ele>
        <time>2019-01-07T20:10:06Z</time>
      </trkpt>
      <trkpt lat="42.39022" lon="2.24206">
        <ele>2550.4</ele>
        <time>2019-01-07T20:10:08Z</time>
      </trkpt>
      <trkpt lat="42.39029" lon="2.24214">
        <ele>2551</ele>
        <time>2019-01-07T20:10:11Z</time>
      </trkpt>
      <trkpt lat="42.39037" lon="2.2422">
        <ele>2550.6</ele>
        <time>2019-01-07T20:10:13Z</time>
      </trkpt>
      <trkpt lat="42.39046" lon="2.24227">
        <ele>2549.5</ele>
        <time>2019-01-07T20:10:16Z</time>
      </trkpt>
      <trkpt lat="42.39054" lon="2.24235">
        <ele>2548.8</ele>
        <time>2019-01-07T20:10:18Z</time>
      </trkpt>
      <trkpt lat="42.39062" lon="2.2424">
        <ele>2547.6</ele>
        <time>2019-01-07T20:10:21Z</time>
      </trkpt>
      <trkpt lat="42.39072" lon="2.24243">
        <ele>2545.9</ele>
        <time>2019-01-07T20:10:24Z</time>
      </trkpt>
      <trkpt lat="42.3908" lon="2.2425">
        <ele>2544.7</ele>
        <time>2019-01-07T20:10:26Z</time>
      </trkpt>
      <trkpt lat="42.39086" lon="2.24261">
        <ele>2544.2</ele>
        <time>2019-01-07T20:10:29Z</time>
      </trkpt>
      <trkpt lat="42.39091" lon="2.24272">
        <ele>2543.8</ele>
        <time>2019-01-07T20:10:31Z</time>
      </trkpt>
      <trkpt lat="42.39098" lon="2.24282">
        <ele>2543.4</ele>
        <time>2019-01-07T20:10:34Z</time>
      </trkpt>
      <trkpt lat="42.39103" lon="2.24293">
        <ele>2543.4</ele>
        <time>2019-01-07T20:10:37Z</time>
      </trkpt>
      <trkpt lat="42.39108" lon="2.24304">
        <ele>2543.4</ele>
        <time>2019-01-07T20:10:39Z</time>
      </trkpt>
      <trkpt lat="42.39113" lon="2.24314">
        <ele>2543.5</ele>
        <time>2019-01-07T20:10:42Z</time>
      </trkpt>
      <trkpt lat="42.39118" lon="2.24326">
        <ele>2544</ele>
        <time>2019-01-07T20:10:44Z</time>
      </trkpt>
      <trkpt lat="42.39124" lon="2.24337">
        <ele>2544.4</ele>
        <time>2019-01-07T20:10:47Z</time>
      </trkpt>
      <trkpt lat="42.39129" lon="2.24348">
        <ele>2544.9</ele>
        <time>2019-01-07T20:10:50Z</time>
      </trkpt>
      <trkpt lat="42.39134" lon="2.24359">
        <ele>2545.8</ele>
        <time>2019-01-07T20:10:52Z</time>
      </trkpt>
      <trkpt lat="42.39143" lon="2.24366">
        <ele>2547.1</ele>
        <time>2019-01-07T20:10:55Z</time>
      </trkpt>
      <trkpt lat="42.39153" lon="2.2437">
        <ele>2549.2</ele>
        <time>2019-01-07T20:10:57Z</time>
      </trkpt>
      <trkpt lat="42.39162" lon="2.24371">
        <ele>2551.1</ele>
        <time>2019-01-07T20:11:00Z</time>
      </trkpt>
      <trkpt lat="42.39172" lon="2.2437">
        <ele>2553.4</ele>
        <time>2019-01-07T20:11:03Z</time>
      </trkpt>
      <trkpt lat="42.39181" lon="2.24373">
        <ele>2556</ele>
        <time>2019-01-07T20:11:05Z</time>
      </trkpt>
      <trkpt lat="42.39191" lon="2.24372">
        <ele>2558.6</ele>
        <time>2019-01-07T20:11:08Z</time>
      </trkpt>
      <trkpt lat="42.392" lon="2.24373">
        <ele>2560.3</ele>
        <time>2019-01-07T20:11:10Z</time>
      </trkpt>
      <trkpt lat="42.3921" lon="2.24376">
        <ele>2562</ele>
        <time>2019-01-07T20:11:13Z</time>
      </trkpt>
      <trkpt lat="42.39219" lon="2.2438">
        <ele>2563.8</ele>
        <time>2019-01-07T20:11:16Z</time>
      </trkpt>
      <trkpt lat="42.39227" lon="2.24388">
        <ele>2565.9</ele>
        <time>2019-01-07T20:11:18Z</time>
      </trkpt>
      <trkpt lat="42.39231" lon="2.24399">
        <ele>2566.4</ele>
        <time>2019-01-07T20:11:21Z</time>
      </trkpt>
      <trkpt lat="42.39237" lon="2.2441">
        <ele>2567.5</ele>
        <time>2019-01-07T20:11:23Z</time>
      </trkpt>
      <trkpt lat="42.39245" lon="2.24418">
        <ele>2569.5</ele>
        <time>2019-01-07T20:11:26Z</time>
      </trkpt>
      <trkpt lat="42.39253" lon="2.24424">
        <ele>2569.3</ele>
        <time>2019-01-07T20:11:28Z</time>
      </trkpt>
      <trkpt lat="42.39262" lon="2.24428">
        <ele>2569.5</ele>
        <time>2019-01-07T20:11:31Z</time>
      </trkpt>
      <trkpt lat="42.3927" lon="2.24434">
        <ele>2570.7</ele>
        <time>2019-01-07T20:11:33Z</time>
      </trkpt>
      <trkpt lat="42.3928" lon="2.24439">
        <ele>2572.5</ele>
        <time>2019-01-07T20:11:36Z</time>
      </trkpt>
      <trkpt lat="42.39289" lon="2.24444">
        <ele>2572.5</ele>
        <time>2019-01-07T20:11:39Z</time>
      </trkpt>
      <trkpt lat="42.39298" lon="2.24449">
        <ele>2571.9</ele>
        <time>2019-01-07T20:11:41Z</time>
      </trkpt>
      <trkpt lat="42.39307" lon="2.24453">
        <ele>2572.1</ele>
        <time>2019-01-07T20:11:44Z</time>
      </trkpt>
      <trkpt lat="42.39316" lon="2.24457">
        <ele>2572.7</ele>
        <time>2019-01-07T20:11:46Z</time>
      </trkpt>
      <trkpt lat="42.39325" lon="2.24461">
        <ele>2573.5</ele>
        <time>2019-01-07T20:11:49Z</time>
      </trkpt>
      <trkpt lat="42.39334" lon="2.24466">
        <ele>2574.6</ele>
        <time>2019-01-07T20:11:52Z</time>
      </trkpt>
      <trkpt lat="42.39342" lon="2.24473">
        <ele>2576.3</ele>
        <time>2019-01-07T20:11:54Z</time>
      </trkpt>
      <trkpt lat="42.3935" lon="2.2448">
        <ele>2578.1</ele>
        <time>2019-01-07T20:11:57Z</time>
      </trkpt>
      <trkpt lat="42.39358" lon="2.24486">
        <ele>2579.9</ele>
        <time>2019-01-07T20:11:59Z</time>
      </trkpt>
      <trkpt lat="42.39366" lon="2.24492">
        <ele>2581.9</ele>
        <time>2019-01-07T20:12:02Z</time>
      </trkpt>
      <trkpt lat="42.39374" lon="2.24499">
        <ele>2583.7</ele>
        <time>2019-01-07T20:12:04Z</time>
      </trkpt>
      <trkpt lat="42.39382" lon="2.24504">
        <ele>2585.7</ele>
        <time>2019-01-07T20:12:06Z</time>
      </trkpt>
      <trkpt lat="42.39391" lon="2.24509">
        <ele>2587.9</ele>
        <time>2019-01-07T20:12:09Z</time>
      </trkpt>
      <trkpt lat="42.39399" lon="2.24518">
        <ele>2590.6</ele>
        <time>2019-01-07T20:12:12Z</time>
      </trkpt>
      <trkpt lat="42.39406" lon="2.24526">
        <ele>2593.2</ele>
        <time>2019-01-07T20:12:14Z</time>
      </trkpt>
      <trkpt lat="42.39415" lon="2.2453">
        <ele>2595.3</ele>
        <time>2019-01-07T20:12:17Z</time>
      </trkpt>
      <trkpt lat="42.39425" lon="2.24535">
        <ele>2598.6</ele>
        <time>2019-01-07T20:12:20Z</time>
      </trkpt>
      <trkpt lat="42.39427" lon="2.24548">
        <ele>2602.4</ele>
        <time>2019-01-07T20:12:22Z</time>
      </trkpt>
      <trkpt lat="42.39436" lon="2.24551">
        <ele>2605</ele>
        <time>2019-01-07T20:12:25Z</time>
      </trkpt>
      <trkpt lat="42.39443" lon="2.24559">
        <ele>2608.6</ele>
        <time>2019-01-07T20:12:27Z</time>
      </trkpt>
      <trkpt lat="42.39439" lon="2.24571">
        <ele>2611.2</ele>
        <time>2019-01-07T20:12:30Z</time>
      </trkpt>
      <trkpt lat="42.39445" lon="2.2458">
        <ele>2615.2</ele>
        <time>2019-01-07T20:12:32Z</time>
      </trkpt>
      <trkpt lat="42.39448" lon="2.24592">
        <ele>2619.4</ele>
        <time>2019-01-07T20:12:35Z</time>
      </trkpt>
      <trkpt lat="42.39446" lon="2.24604">
        <ele>2622.4</ele>
        <time>2019-01-07T20:12:37Z</time>
      </trkpt>
      <trkpt lat="42.39452" lon="2.24614">
        <ele>2626.4</ele>
        <time>2019-01-07T20:12:40Z</time>
      </trkpt>
      <trkpt lat="42.39452" lon="2.24627">
        <ele>2630.2</ele>
        <time>2019-01-07T20:12:42Z</time>
      </trkpt>
      <trkpt lat="42.3945" lon="2.2464">
        <ele>2633.4</ele>
        <time>2019-01-07T20:12:45Z</time>
      </trkpt>
      <trkpt lat="42.39448" lon="2.24652">
        <ele>2635.9</ele>
        <time>2019-01-07T20:12:47Z</time>
      </trkpt>
      <trkpt lat="42.39443" lon="2.24663">
        <ele>2637.8</ele>
        <time>2019-01-07T20:12:50Z</time>
      </trkpt>
      <trkpt lat="42.3945" lon="2.24671">
        <ele>2640.4</ele>
        <time>2019-01-07T20:12:52Z</time>
      </trkpt>
      <trkpt lat="42.39457" lon="2.24679">
        <ele>2642.7</ele>
        <time>2019-01-07T20:12:55Z</time>
      </trkpt>
      <trkpt lat="42.39463" lon="2.24689">
        <ele>2645.8</ele>
        <time>2019-01-07T20:12:57Z</time>
      </trkpt>
      <trkpt lat="42.39471" lon="2.24696">
        <ele>2649.2</ele>
        <time>2019-01-07T20:13:00Z</time>
      </trkpt>
      <trkpt lat="42.3948" lon="2.247">
        <ele>2650.8</ele>
        <time>2019-01-07T20:13:02Z</time>
      </trkpt>
      <trkpt lat="42.39488" lon="2.24696">
        <ele>2653.4</ele>
        <time>2019-01-07T20:13:04Z</time>
      </trkpt>
      <trkpt lat="42.39497" lon="2.24698">
        <ele>2655.5</ele>
        <time>2019-01-07T20:13:07Z</time>
      </trkpt>
      <trkpt lat="42.39507" lon="2.24702">
        <ele>2658.1</ele>
        <time>2019-01-07T20:13:10Z</time>
      </trkpt>
      <trkpt lat="42.39516" lon="2.24707">
        <ele>2660.5</ele>
        <time>2019-01-07T20:13:12Z</time>
      </trkpt>
      <trkpt lat="42.39525" lon="2.24706">
        <ele>2662.8</ele>
        <time>2019-01-07T20:13:15Z</time>
      </trkpt>
      <trkpt lat="42.39535" lon="2.24706">
        <ele>2665</ele>
        <time>2019-01-07T20:13:17Z</time>
      </trkpt>
      <trkpt lat="42.39545" lon="2.24709">
        <ele>2667.4</ele>
        <time>2019-01-07T20:13:20Z</time>
      </trkpt>
      <trkpt lat="42.39552" lon="2.24716">
        <ele>2669.6</ele>
        <time>2019-01-07T20:13:22Z</time>
      </trkpt>
      <trkpt lat="42.39561" lon="2.24721">
        <ele>2672.1</ele>
        <time>2019-01-07T20:13:25Z</time>
      </trkpt>
      <trkpt lat="42.39571" lon="2.24725">
        <ele>2674.6</ele>
        <time>2019-01-07T20:13:28Z</time>
      </trkpt>
      <trkpt lat="42.39577" lon="2.24734">
        <ele>2676.7</ele>
        <time>2019-01-07T20:13:30Z</time>
      </trkpt>
      <trkpt lat="42.39585" lon="2.24743">
        <ele>2678.8</ele>
        <time>2019-01-07T20:13:33Z</time>
      </trkpt>
      <trkpt lat="42.39593" lon="2.2475">
        <ele>2681.1</ele>
        <time>2019-01-07T20:13:35Z</time>
      </trkpt>
      <trkpt lat="42.39604" lon="2.24754">
        <ele>2683.8</ele>
        <time>2019-01-07T20:13:38Z</time>
      </trkpt>
      <trkpt lat="42.39612" lon="2.24759">
        <ele>2686</ele>
        <time>2019-01-07T20:13:41Z</time>
      </trkpt>
      <trkpt lat="42.39621" lon="2.24764">
        <ele>2686.3</ele>
        <time>2019-01-07T20:13:43Z</time>
      </trkpt>
      <trkpt lat="42.3963" lon="2.24772">
        <ele>2686.1</ele>
        <time>2019-01-07T20:13:46Z</time>
      </trkpt>
      <trkpt lat="42.39622" lon="2.24765">
        <ele>2686.3</ele>
        <time>2019-01-07T20:13:49Z</time>
      </trkpt>
      <trkpt lat="42.39631" lon="2.24769">
        <ele>2686.1</ele>
        <time>2019-01-07T20:13:51Z</time>
      </trkpt>
      <trkpt lat="42.39633" lon="2.24755">
        <ele>2686.5</ele>
        <time>2019-01-07T20:13:54Z</time>
      </trkpt>
      <trkpt lat="42.39634" lon="2.24743">
        <ele>2686.5</ele>
        <time>2019-01-07T20:13:56Z</time>
      </trkpt>
      <trkpt lat="42.39637" lon="2.2473">
        <ele>2686.8</ele>
        <time>2019-01-07T20:13:59Z</time>
      </trkpt>
      <trkpt lat="42.39641" lon="2.24718">
        <ele>2685.5</ele>
        <time>2019-01-07T20:14:02Z</time>
      </trkpt>
      <trkpt lat="42.39611" lon="2.24803">
        <ele>2693</ele>
        <time>2019-01-07T20:54:08Z</time>
      </trkpt>
      <trkpt lat="42.39615" lon="2.24814">
        <ele>2688.5</ele>
        <time>2019-01-07T20:54:10Z</time>
      </trkpt>
      <trkpt lat="42.3961" lon="2.24824">
        <ele>2685</ele>
        <time>2019-01-07T20:54:12Z</time>
      </trkpt>
      <trkpt lat="42.39604" lon="2.24834">
        <ele>2682.1</ele>
        <time>2019-01-07T20:54:15Z</time>
      </trkpt>
      <trkpt lat="42.3961" lon="2.24844">
        <ele>2676.7</ele>
        <time>2019-01-07T20:54:17Z</time>
      </trkpt>
      <trkpt lat="42.39608" lon="2.24855">
        <ele>2673.2</ele>
        <time>2019-01-07T20:54:20Z</time>
      </trkpt>
      <trkpt lat="42.39617" lon="2.24863">
        <ele>2669.3</ele>
        <time>2019-01-07T20:54:22Z</time>
      </trkpt>
      <trkpt lat="42.39617" lon="2.24876">
        <ele>2665.8</ele>
        <time>2019-01-07T20:54:25Z</time>
      </trkpt>
      <trkpt lat="42.3961" lon="2.24884">
        <ele>2663.3</ele>
        <time>2019-01-07T20:54:27Z</time>
      </trkpt>
      <trkpt lat="42.39614" lon="2.24896">
        <ele>2660.3</ele>
        <time>2019-01-07T20:54:30Z</time>
      </trkpt>
      <trkpt lat="42.39613" lon="2.24908">
        <ele>2655.8</ele>
        <time>2019-01-07T20:54:32Z</time>
      </trkpt>
      <trkpt lat="42.39613" lon="2.24921">
        <ele>2652.2</ele>
        <time>2019-01-07T20:54:35Z</time>
      </trkpt>
      <trkpt lat="42.3961" lon="2.24934">
        <ele>2649</ele>
        <time>2019-01-07T20:54:37Z</time>
      </trkpt>
      <trkpt lat="42.39606" lon="2.24947">
        <ele>2645.7</ele>
        <time>2019-01-07T20:54:40Z</time>
      </trkpt>
      <trkpt lat="42.396" lon="2.24958">
        <ele>2642.3</ele>
        <time>2019-01-07T20:54:43Z</time>
      </trkpt>
      <trkpt lat="42.39597" lon="2.24971">
        <ele>2639.6</ele>
        <time>2019-01-07T20:54:46Z</time>
      </trkpt>
      <trkpt lat="42.39592" lon="2.24982">
        <ele>2637.3</ele>
        <time>2019-01-07T20:54:48Z</time>
      </trkpt>
      <trkpt lat="42.39589" lon="2.24995">
        <ele>2635</ele>
        <time>2019-01-07T20:54:51Z</time>
      </trkpt>
      <trkpt lat="42.3959" lon="2.25007">
        <ele>2632.8</ele>
        <time>2019-01-07T20:54:53Z</time>
      </trkpt>
      <trkpt lat="42.39591" lon="2.25021">
        <ele>2630.2</ele>
        <time>2019-01-07T20:54:56Z</time>
      </trkpt>
      <trkpt lat="42.39591" lon="2.25035">
        <ele>2628.6</ele>
        <time>2019-01-07T20:54:59Z</time>
      </trkpt>
      <trkpt lat="42.3959" lon="2.25048">
        <ele>2626.5</ele>
        <time>2019-01-07T20:55:01Z</time>
      </trkpt>
      <trkpt lat="42.39591" lon="2.2506">
        <ele>2623.9</ele>
        <time>2019-01-07T20:55:04Z</time>
      </trkpt>
      <trkpt lat="42.39597" lon="2.2507">
        <ele>2621.2</ele>
        <time>2019-01-07T20:55:06Z</time>
      </trkpt>
      <trkpt lat="42.39602" lon="2.25081">
        <ele>2619.2</ele>
        <time>2019-01-07T20:55:09Z</time>
      </trkpt>
      <trkpt lat="42.39604" lon="2.25094">
        <ele>2617.3</ele>
        <time>2019-01-07T20:55:11Z</time>
      </trkpt>
      <trkpt lat="42.39601" lon="2.25106">
        <ele>2616.1</ele>
        <time>2019-01-07T20:55:14Z</time>
      </trkpt>
      <trkpt lat="42.39599" lon="2.25119">
        <ele>2614.9</ele>
        <time>2019-01-07T20:55:17Z</time>
      </trkpt>
      <trkpt lat="42.39605" lon="2.2513">
        <ele>2614.1</ele>
        <time>2019-01-07T20:55:19Z</time>
      </trkpt>
      <trkpt lat="42.39606" lon="2.25144">
        <ele>2609.7</ele>
        <time>2019-01-07T20:55:22Z</time>
      </trkpt>
      <trkpt lat="42.39604" lon="2.25157">
        <ele>2605.9</ele>
        <time>2019-01-07T20:55:25Z</time>
      </trkpt>
      <trkpt lat="42.39602" lon="2.25172">
        <ele>2604.7</ele>
        <time>2019-01-07T20:55:28Z</time>
      </trkpt>
      <trkpt lat="42.396" lon="2.25184">
        <ele>2603.4</ele>
        <time>2019-01-07T20:55:30Z</time>
      </trkpt>
      <trkpt lat="42.39599" lon="2.25198">
        <ele>2601.6</ele>
        <time>2019-01-07T20:55:33Z</time>
      </trkpt>
      <trkpt lat="42.39598" lon="2.25212">
        <ele>2600</ele>
        <time>2019-01-07T20:55:36Z</time>
      </trkpt>
      <trkpt lat="42.39597" lon="2.25227">
        <ele>2598.1</ele>
        <time>2019-01-07T20:55:38Z</time>
      </trkpt>
      <trkpt lat="42.39595" lon="2.25239">
        <ele>2595.7</ele>
        <time>2019-01-07T20:55:41Z</time>
      </trkpt>
      <trkpt lat="42.39593" lon="2.25253">
        <ele>2592.9</ele>
        <time>2019-01-07T20:55:44Z</time>
      </trkpt>
      <trkpt lat="42.39591" lon="2.25267">
        <ele>2591.3</ele>
        <time>2019-01-07T20:55:46Z</time>
      </trkpt>
      <trkpt lat="42.39589" lon="2.2528">
        <ele>2589.7</ele>
        <time>2019-01-07T20:55:49Z</time>
      </trkpt>
      <trkpt lat="42.39588" lon="2.25295">
        <ele>2587.6</ele>
        <time>2019-01-07T20:55:52Z</time>
      </trkpt>
      <trkpt lat="42.39586" lon="2.25307">
        <ele>2586.2</ele>
        <time>2019-01-07T20:55:55Z</time>
      </trkpt>
      <trkpt lat="42.39583" lon="2.25321">
        <ele>2584.2</ele>
        <time>2019-01-07T20:55:57Z</time>
      </trkpt>
      <trkpt lat="42.3958" lon="2.25335">
        <ele>2582.1</ele>
        <time>2019-01-07T20:56:00Z</time>
      </trkpt>
      <trkpt lat="42.39576" lon="2.2535">
        <ele>2581.4</ele>
        <time>2019-01-07T20:56:03Z</time>
      </trkpt>
      <trkpt lat="42.39575" lon="2.25362">
        <ele>2580.5</ele>
        <time>2019-01-07T20:56:06Z</time>
      </trkpt>
      <trkpt lat="42.39573" lon="2.25374">
        <ele>2580.1</ele>
        <time>2019-01-07T20:56:08Z</time>
      </trkpt>
      <trkpt lat="42.39571" lon="2.25388">
        <ele>2580.1</ele>
        <time>2019-01-07T20:56:11Z</time>
      </trkpt>
      <trkpt lat="42.3957" lon="2.254">
        <ele>2580.8</ele>
        <time>2019-01-07T20:56:13Z</time>
      </trkpt>
      <trkpt lat="42.39566" lon="2.25413">
        <ele>2583.5</ele>
        <time>2019-01-07T20:56:16Z</time>
      </trkpt>
      <trkpt lat="42.39565" lon="2.25425">
        <ele>2584.1</ele>
        <time>2019-01-07T20:56:19Z</time>
      </trkpt>
      <trkpt lat="42.39562" lon="2.25438">
        <ele>2584.1</ele>
        <time>2019-01-07T20:56:21Z</time>
      </trkpt>
      <trkpt lat="42.39555" lon="2.25449">
        <ele>2584.9</ele>
        <time>2019-01-07T20:56:24Z</time>
      </trkpt>
      <trkpt lat="42.39551" lon="2.2546">
        <ele>2586</ele>
        <time>2019-01-07T20:56:27Z</time>
      </trkpt>
      <trkpt lat="42.39547" lon="2.25472">
        <ele>2583.7</ele>
        <time>2019-01-07T20:56:29Z</time>
      </trkpt>
      <trkpt lat="42.39539" lon="2.25478">
        <ele>2583</ele>
        <time>2019-01-07T20:56:31Z</time>
      </trkpt>
      <trkpt lat="42.39537" lon="2.25491">
        <ele>2579.3</ele>
        <time>2019-01-07T20:56:34Z</time>
      </trkpt>
      <trkpt lat="42.39543" lon="2.25502">
        <ele>2575.2</ele>
        <time>2019-01-07T20:56:36Z</time>
      </trkpt>
      <trkpt lat="42.39541" lon="2.25515">
        <ele>2571.8</ele>
        <time>2019-01-07T20:56:39Z</time>
      </trkpt>
      <trkpt lat="42.39536" lon="2.25526">
        <ele>2567.8</ele>
        <time>2019-01-07T20:56:42Z</time>
      </trkpt>
      <trkpt lat="42.39534" lon="2.25538">
        <ele>2564.5</ele>
        <time>2019-01-07T20:56:44Z</time>
      </trkpt>
      <trkpt lat="42.39532" lon="2.2555">
        <ele>2561</ele>
        <time>2019-01-07T20:56:47Z</time>
      </trkpt>
      <trkpt lat="42.39524" lon="2.25557">
        <ele>2558.1</ele>
        <time>2019-01-07T20:56:49Z</time>
      </trkpt>
      <trkpt lat="42.39515" lon="2.25562">
        <ele>2554.3</ele>
        <time>2019-01-07T20:56:52Z</time>
      </trkpt>
      <trkpt lat="42.39507" lon="2.25567">
        <ele>2551.8</ele>
        <time>2019-01-07T20:56:54Z</time>
      </trkpt>
      <trkpt lat="42.39503" lon="2.25579">
        <ele>2549.1</ele>
        <time>2019-01-07T20:56:57Z</time>
      </trkpt>
      <trkpt lat="42.39501" lon="2.25591">
        <ele>2542.9</ele>
        <time>2019-01-07T20:56:59Z</time>
      </trkpt>
      <trkpt lat="42.39496" lon="2.25601">
        <ele>2539.5</ele>
        <time>2019-01-07T20:57:02Z</time>
      </trkpt>
      <trkpt lat="42.39493" lon="2.25613">
        <ele>2532.7</ele>
        <time>2019-01-07T20:57:04Z</time>
      </trkpt>
      <trkpt lat="42.3949" lon="2.25625">
        <ele>2530.6</ele>
        <time>2019-01-07T20:57:07Z</time>
      </trkpt>
      <trkpt lat="42.39484" lon="2.25634">
        <ele>2523.4</ele>
        <time>2019-01-07T20:57:09Z</time>
      </trkpt>
      <trkpt lat="42.39481" lon="2.25646">
        <ele>2521.1</ele>
        <time>2019-01-07T20:57:11Z</time>
      </trkpt>
      <trkpt lat="42.39476" lon="2.25658">
        <ele>2518.3</ele>
        <time>2019-01-07T20:57:14Z</time>
      </trkpt>
      <trkpt lat="42.39472" lon="2.25669">
        <ele>2514.8</ele>
        <time>2019-01-07T20:57:17Z</time>
      </trkpt>
      <trkpt lat="42.39463" lon="2.25675">
        <ele>2511.4</ele>
        <time>2019-01-07T20:57:19Z</time>
      </trkpt>
      <trkpt lat="42.39456" lon="2.25686">
        <ele>2508.6</ele>
        <time>2019-01-07T20:57:22Z</time>
      </trkpt>
      <trkpt lat="42.3945" lon="2.25695">
        <ele>2507.1</ele>
        <time>2019-01-07T20:57:25Z</time>
      </trkpt>
      <trkpt lat="42.39442" lon="2.25703">
        <ele>2505.7</ele>
        <time>2019-01-07T20:57:27Z</time>
      </trkpt>
      <trkpt lat="42.39433" lon="2.25709">
        <ele>2504.8</ele>
        <time>2019-01-07T20:57:30Z</time>
      </trkpt>
      <trkpt lat="42.39426" lon="2.25716">
        <ele>2504.1</ele>
        <time>2019-01-07T20:57:32Z</time>
      </trkpt>
      <trkpt lat="42.39419" lon="2.25727">
        <ele>2502.4</ele>
        <time>2019-01-07T20:57:35Z</time>
      </trkpt>
      <trkpt lat="42.39414" lon="2.25739">
        <ele>2500.9</ele>
        <time>2019-01-07T20:57:38Z</time>
      </trkpt>
      <trkpt lat="42.39409" lon="2.2575">
        <ele>2500.5</ele>
        <time>2019-01-07T20:57:40Z</time>
      </trkpt>
      <trkpt lat="42.39404" lon="2.25762">
        <ele>2500</ele>
        <time>2019-01-07T20:57:43Z</time>
      </trkpt>
      <trkpt lat="42.39397" lon="2.25772">
        <ele>2500.1</ele>
        <time>2019-01-07T20:57:46Z</time>
      </trkpt>
      <trkpt lat="42.39391" lon="2.25782">
        <ele>2498.4</ele>
        <time>2019-01-07T20:57:48Z</time>
      </trkpt>
      <trkpt lat="42.39384" lon="2.25793">
        <ele>2496</ele>
        <time>2019-01-07T20:57:51Z</time>
      </trkpt>
      <trkpt lat="42.39377" lon="2.25803">
        <ele>2493.5</ele>
        <time>2019-01-07T20:57:54Z</time>
      </trkpt>
      <trkpt lat="42.39371" lon="2.25813">
        <ele>2492.4</ele>
        <time>2019-01-07T20:57:56Z</time>
      </trkpt>
      <trkpt lat="42.39364" lon="2.25821">
        <ele>2490.7</ele>
        <time>2019-01-07T20:57:59Z</time>
      </trkpt>
      <trkpt lat="42.39357" lon="2.25831">
        <ele>2489.3</ele>
        <time>2019-01-07T20:58:02Z</time>
      </trkpt>
      <trkpt lat="42.39349" lon="2.25838">
        <ele>2487.3</ele>
        <time>2019-01-07T20:58:04Z</time>
      </trkpt>
      <trkpt lat="42.39343" lon="2.25848">
        <ele>2484.7</ele>
        <time>2019-01-07T20:58:07Z</time>
      </trkpt>
      <trkpt lat="42.39337" lon="2.25859">
        <ele>2482.3</ele>
        <time>2019-01-07T20:58:09Z</time>
      </trkpt>
      <trkpt lat="42.39331" lon="2.2587">
        <ele>2480.8</ele>
        <time>2019-01-07T20:58:12Z</time>
      </trkpt>
      <trkpt lat="42.39326" lon="2.25881">
        <ele>2479</ele>
        <time>2019-01-07T20:58:15Z</time>
      </trkpt>
      <trkpt lat="42.39319" lon="2.25891">
        <ele>2476.9</ele>
        <time>2019-01-07T20:58:17Z</time>
      </trkpt>
      <trkpt lat="42.39311" lon="2.25901">
        <ele>2476.1</ele>
        <time>2019-01-07T20:58:20Z</time>
      </trkpt>
      <trkpt lat="42.39304" lon="2.2591">
        <ele>2476.1</ele>
        <time>2019-01-07T20:58:23Z</time>
      </trkpt>
      <trkpt lat="42.39296" lon="2.25917">
        <ele>2476.1</ele>
        <time>2019-01-07T20:58:25Z</time>
      </trkpt>
      <trkpt lat="42.39288" lon="2.25924">
        <ele>2474.9</ele>
        <time>2019-01-07T20:58:28Z</time>
      </trkpt>
      <trkpt lat="42.3928" lon="2.2593">
        <ele>2471.5</ele>
        <time>2019-01-07T20:58:30Z</time>
      </trkpt>
      <trkpt lat="42.39272" lon="2.25938">
        <ele>2469.6</ele>
        <time>2019-01-07T20:58:33Z</time>
      </trkpt>
      <trkpt lat="42.39265" lon="2.25947">
        <ele>2467.5</ele>
        <time>2019-01-07T20:58:35Z</time>
      </trkpt>
      <trkpt lat="42.39257" lon="2.25954">
        <ele>2465.5</ele>
        <time>2019-01-07T20:58:38Z</time>
      </trkpt>
      <trkpt lat="42.39251" lon="2.25963">
        <ele>2463.6</ele>
        <time>2019-01-07T20:58:40Z</time>
      </trkpt>
      <trkpt lat="42.39248" lon="2.25975">
        <ele>2462.1</ele>
        <time>2019-01-07T20:58:43Z</time>
      </trkpt>
      <trkpt lat="42.39244" lon="2.25988">
        <ele>2459.5</ele>
        <time>2019-01-07T20:58:46Z</time>
      </trkpt>
      <trkpt lat="42.3924" lon="2.25999">
        <ele>2457.9</ele>
        <time>2019-01-07T20:58:48Z</time>
      </trkpt>
      <trkpt lat="42.3923" lon="2.26003">
        <ele>2455.8</ele>
        <time>2019-01-07T20:58:51Z</time>
      </trkpt>
      <trkpt lat="42.39222" lon="2.26011">
        <ele>2454.2</ele>
        <time>2019-01-07T20:58:53Z</time>
      </trkpt>
      <trkpt lat="42.39215" lon="2.26018">
        <ele>2453.2</ele>
        <time>2019-01-07T20:58:56Z</time>
      </trkpt>
      <trkpt lat="42.39208" lon="2.2603">
        <ele>2450.3</ele>
        <time>2019-01-07T20:58:59Z</time>
      </trkpt>
      <trkpt lat="42.39203" lon="2.26041">
        <ele>2447.8</ele>
        <time>2019-01-07T20:59:01Z</time>
      </trkpt>
      <trkpt lat="42.39199" lon="2.26051">
        <ele>2445.9</ele>
        <time>2019-01-07T20:59:04Z</time>
      </trkpt>
      <trkpt lat="42.3919" lon="2.26057">
        <ele>2444</ele>
        <time>2019-01-07T20:59:06Z</time>
      </trkpt>
      <trkpt lat="42.3918" lon="2.26058">
        <ele>2439.9</ele>
        <time>2019-01-07T20:59:09Z</time>
      </trkpt>
      <trkpt lat="42.39171" lon="2.26064">
        <ele>2438.4</ele>
        <time>2019-01-07T20:59:12Z</time>
      </trkpt>
      <trkpt lat="42.39164" lon="2.26073">
        <ele>2437.3</ele>
        <time>2019-01-07T20:59:14Z</time>
      </trkpt>
      <trkpt lat="42.39158" lon="2.26083">
        <ele>2436</ele>
        <time>2019-01-07T20:59:17Z</time>
      </trkpt>
      <trkpt lat="42.39154" lon="2.26094">
        <ele>2435.1</ele>
        <time>2019-01-07T20:59:19Z</time>
      </trkpt>
      <trkpt lat="42.39157" lon="2.26106">
        <ele>2435</ele>
        <time>2019-01-07T20:59:22Z</time>
      </trkpt>
      <trkpt lat="42.39167" lon="2.26105">
        <ele>2434.1</ele>
        <time>2019-01-07T20:59:24Z</time>
      </trkpt>
      <trkpt lat="42.39158" lon="2.26109">
        <ele>2433.2</ele>
        <time>2019-01-07T20:59:27Z</time>
      </trkpt>
      <trkpt lat="42.39149" lon="2.26114">
        <ele>2433.1</ele>
        <time>2019-01-07T20:59:29Z</time>
      </trkpt>
      <trkpt lat="42.39145" lon="2.26126">
        <ele>2434</ele>
        <time>2019-01-07T20:59:32Z</time>
      </trkpt>
      <trkpt lat="42.39141" lon="2.26137">
        <ele>2435.1</ele>
        <time>2019-01-07T20:59:34Z</time>
      </trkpt>
      <trkpt lat="42.39135" lon="2.26146">
        <ele>2439.1</ele>
        <time>2019-01-07T20:59:37Z</time>
      </trkpt>
      <trkpt lat="42.39128" lon="2.26155">
        <ele>2443.2</ele>
        <time>2019-01-07T20:59:39Z</time>
      </trkpt>
      <trkpt lat="42.39122" lon="2.26164">
        <ele>2442.8</ele>
        <time>2019-01-07T20:59:42Z</time>
      </trkpt>
      <trkpt lat="42.39115" lon="2.26174">
        <ele>2441.2</ele>
        <time>2019-01-07T20:59:44Z</time>
      </trkpt>
      <trkpt lat="42.39109" lon="2.26184">
        <ele>2440</ele>
        <time>2019-01-07T20:59:47Z</time>
      </trkpt>
      <trkpt lat="42.39104" lon="2.26196">
        <ele>2439.1</ele>
        <time>2019-01-07T20:59:50Z</time>
      </trkpt>
      <trkpt lat="42.391" lon="2.26207">
        <ele>2439.1</ele>
        <time>2019-01-07T20:59:52Z</time>
      </trkpt>
      <trkpt lat="42.39094" lon="2.26216">
        <ele>2436.5</ele>
        <time>2019-01-07T20:59:54Z</time>
      </trkpt>
      <trkpt lat="42.39088" lon="2.26225">
        <ele>2434.4</ele>
        <time>2019-01-07T20:59:57Z</time>
      </trkpt>
      <trkpt lat="42.3908" lon="2.26234">
        <ele>2433</ele>
        <time>2019-01-07T21:00:00Z</time>
      </trkpt>
      <trkpt lat="42.39075" lon="2.26246">
        <ele>2431.6</ele>
        <time>2019-01-07T21:00:02Z</time>
      </trkpt>
      <trkpt lat="42.39071" lon="2.26257">
        <ele>2431</ele>
        <time>2019-01-07T21:00:05Z</time>
      </trkpt>
      <trkpt lat="42.3907" lon="2.2627">
        <ele>2431.4</ele>
        <time>2019-01-07T21:00:07Z</time>
      </trkpt>
      <trkpt lat="42.39067" lon="2.26282">
        <ele>2432.6</ele>
        <time>2019-01-07T21:00:10Z</time>
      </trkpt>
      <trkpt lat="42.39067" lon="2.26294">
        <ele>2434.1</ele>
        <time>2019-01-07T21:00:12Z</time>
      </trkpt>
      <trkpt lat="42.39059" lon="2.26302">
        <ele>2434.7</ele>
        <time>2019-01-07T21:00:15Z</time>
      </trkpt>
      <trkpt lat="42.39052" lon="2.26309">
        <ele>2434.8</ele>
        <time>2019-01-07T21:00:17Z</time>
      </trkpt>
      <trkpt lat="42.39045" lon="2.26319">
        <ele>2436.7</ele>
        <time>2019-01-07T21:00:20Z</time>
      </trkpt>
      <trkpt lat="42.3904" lon="2.2633">
        <ele>2437.7</ele>
        <time>2019-01-07T21:00:22Z</time>
      </trkpt>
      <trkpt lat="42.39034" lon="2.26339">
        <ele>2437.2</ele>
        <time>2019-01-07T21:00:25Z</time>
      </trkpt>
      <trkpt lat="42.39029" lon="2.2635">
        <ele>2437.3</ele>
        <time>2019-01-07T21:00:27Z</time>
      </trkpt>
      <trkpt lat="42.39023" lon="2.26359">
        <ele>2438.2</ele>
        <time>2019-01-07T21:00:30Z</time>
      </trkpt>
      <trkpt lat="42.39016" lon="2.26367">
        <ele>2438</ele>
        <time>2019-01-07T21:00:32Z</time>
      </trkpt>
      <trkpt lat="42.39009" lon="2.26377">
        <ele>2438.1</ele>
        <time>2019-01-07T21:00:35Z</time>
      </trkpt>
      <trkpt lat="42.39007" lon="2.2639">
        <ele>2440</ele>
        <time>2019-01-07T21:00:37Z</time>
      </trkpt>
      <trkpt lat="42.39009" lon="2.26403">
        <ele>2441.8</ele>
        <time>2019-01-07T21:00:40Z</time>
      </trkpt>
      <trkpt lat="42.39004" lon="2.26413">
        <ele>2444.1</ele>
        <time>2019-01-07T21:00:42Z</time>
      </trkpt>
      <trkpt lat="42.38995" lon="2.2642">
        <ele>2444.1</ele>
        <time>2019-01-07T21:00:45Z</time>
      </trkpt>
      <trkpt lat="42.38986" lon="2.26424">
        <ele>2444.4</ele>
        <time>2019-01-07T21:00:48Z</time>
      </trkpt>
      <trkpt lat="42.38979" lon="2.26432">
        <ele>2445.9</ele>
        <time>2019-01-07T21:00:50Z</time>
      </trkpt>
      <trkpt lat="42.38972" lon="2.26439">
        <ele>2445.1</ele>
        <time>2019-01-07T21:00:52Z</time>
      </trkpt>
      <trkpt lat="42.38965" lon="2.26448">
        <ele>2443.4</ele>
        <time>2019-01-07T21:00:55Z</time>
      </trkpt>
      <trkpt lat="42.38958" lon="2.26457">
        <ele>2438.3</ele>
        <time>2019-01-07T21:00:58Z</time>
      </trkpt>
      <trkpt lat="42.38951" lon="2.26465">
        <ele>2436.3</ele>
        <time>2019-01-07T21:01:00Z</time>
      </trkpt>
      <trkpt lat="42.38944" lon="2.26473">
        <ele>2435.1</ele>
        <time>2019-01-07T21:01:03Z</time>
      </trkpt>
      <trkpt lat="42.38938" lon="2.26483">
        <ele>2433.1</ele>
        <time>2019-01-07T21:01:05Z</time>
      </trkpt>
      <trkpt lat="42.3893" lon="2.2649">
        <ele>2430.4</ele>
        <time>2019-01-07T21:01:08Z</time>
      </trkpt>
      <trkpt lat="42.38922" lon="2.26498">
        <ele>2428.1</ele>
        <time>2019-01-07T21:01:10Z</time>
      </trkpt>
      <trkpt lat="42.38916" lon="2.26507">
        <ele>2427.1</ele>
        <time>2019-01-07T21:01:13Z</time>
      </trkpt>
      <trkpt lat="42.38909" lon="2.26516">
        <ele>2426</ele>
        <time>2019-01-07T21:01:15Z</time>
      </trkpt>
      <trkpt lat="42.38902" lon="2.26524">
        <ele>2423</ele>
        <time>2019-01-07T21:01:18Z</time>
      </trkpt>
      <trkpt lat="42.38895" lon="2.26534">
        <ele>2422.2</ele>
        <time>2019-01-07T21:01:20Z</time>
      </trkpt>
      <trkpt lat="42.38889" lon="2.26544">
        <ele>2421.4</ele>
        <time>2019-01-07T21:01:23Z</time>
      </trkpt>
      <trkpt lat="42.38882" lon="2.26555">
        <ele>2421</ele>
        <time>2019-01-07T21:01:26Z</time>
      </trkpt>
      <trkpt lat="42.38877" lon="2.26565">
        <ele>2420.3</ele>
        <time>2019-01-07T21:01:28Z</time>
      </trkpt>
      <trkpt lat="42.3887" lon="2.26574">
        <ele>2420.2</ele>
        <time>2019-01-07T21:01:31Z</time>
      </trkpt>
      <trkpt lat="42.38863" lon="2.26584">
        <ele>2420.3</ele>
        <time>2019-01-07T21:01:33Z</time>
      </trkpt>
      <trkpt lat="42.38857" lon="2.26594">
        <ele>2420.9</ele>
        <time>2019-01-07T21:01:36Z</time>
      </trkpt>
      <trkpt lat="42.38849" lon="2.26601">
        <ele>2422.5</ele>
        <time>2019-01-07T21:01:38Z</time>
      </trkpt>
      <trkpt lat="42.38842" lon="2.2661">
        <ele>2423.1</ele>
        <time>2019-01-07T21:01:41Z</time>
      </trkpt>
      <trkpt lat="42.38834" lon="2.26619">
        <ele>2423.4</ele>
        <time>2019-01-07T21:01:44Z</time>
      </trkpt>
      <trkpt lat="42.38828" lon="2.26629">
        <ele>2424</ele>
        <time>2019-01-07T21:01:46Z</time>
      </trkpt>
      <trkpt lat="42.38821" lon="2.26639">
        <ele>2424.9</ele>
        <time>2019-01-07T21:01:49Z</time>
      </trkpt>
      <trkpt lat="42.38817" lon="2.26651">
        <ele>2425.1</ele>
        <time>2019-01-07T21:01:52Z</time>
      </trkpt>
      <trkpt lat="42.38813" lon="2.26662">
        <ele>2425.4</ele>
        <time>2019-01-07T21:01:54Z</time>
      </trkpt>
      <trkpt lat="42.3881" lon="2.26675">
        <ele>2426</ele>
        <time>2019-01-07T21:01:57Z</time>
      </trkpt>
      <trkpt lat="42.38803" lon="2.26684">
        <ele>2426.2</ele>
        <time>2019-01-07T21:01:59Z</time>
      </trkpt>
      <trkpt lat="42.388" lon="2.26696">
        <ele>2426.6</ele>
        <time>2019-01-07T21:02:02Z</time>
      </trkpt>
      <trkpt lat="42.38795" lon="2.26707">
        <ele>2427.1</ele>
        <time>2019-01-07T21:02:04Z</time>
      </trkpt>
      <trkpt lat="42.3879" lon="2.26719">
        <ele>2426</ele>
        <time>2019-01-07T21:02:07Z</time>
      </trkpt>
      <trkpt lat="42.38786" lon="2.2673">
        <ele>2426.1</ele>
        <time>2019-01-07T21:02:09Z</time>
      </trkpt>
      <trkpt lat="42.38781" lon="2.2674">
        <ele>2426.2</ele>
        <time>2019-01-07T21:02:12Z</time>
      </trkpt>
      <trkpt lat="42.38774" lon="2.26749">
        <ele>2425.3</ele>
        <time>2019-01-07T21:02:14Z</time>
      </trkpt>
      <trkpt lat="42.38767" lon="2.2676">
        <ele>2423.8</ele>
        <time>2019-01-07T21:02:17Z</time>
      </trkpt>
      <trkpt lat="42.38758" lon="2.26768">
        <ele>2423.2</ele>
        <time>2019-01-07T21:02:20Z</time>
      </trkpt>
      <trkpt lat="42.38751" lon="2.26777">
        <ele>2419.1</ele>
        <time>2019-01-07T21:02:23Z</time>
      </trkpt>
      <trkpt lat="42.38749" lon="2.2679">
        <ele>2416</ele>
        <time>2019-01-07T21:02:25Z</time>
      </trkpt>
      <trkpt lat="42.38751" lon="2.26803">
        <ele>2414.7</ele>
        <time>2019-01-07T21:02:28Z</time>
      </trkpt>
      <trkpt lat="42.38753" lon="2.26815">
        <ele>2412.7</ele>
        <time>2019-01-07T21:02:30Z</time>
      </trkpt>
      <trkpt lat="42.3875" lon="2.26828">
        <ele>2410</ele>
        <time>2019-01-07T21:02:33Z</time>
      </trkpt>
      <trkpt lat="42.38749" lon="2.26841">
        <ele>2406.5</ele>
        <time>2019-01-07T21:02:36Z</time>
      </trkpt>
      <trkpt lat="42.38753" lon="2.26855">
        <ele>2402.4</ele>
        <time>2019-01-07T21:02:39Z</time>
      </trkpt>
      <trkpt lat="42.38756" lon="2.26869">
        <ele>2399.5</ele>
        <time>2019-01-07T21:02:41Z</time>
      </trkpt>
      <trkpt lat="42.38753" lon="2.26882">
        <ele>2397.6</ele>
        <time>2019-01-07T21:02:44Z</time>
      </trkpt>
      <trkpt lat="42.3875" lon="2.26897">
        <ele>2396.7</ele>
        <time>2019-01-07T21:02:47Z</time>
      </trkpt>
      <trkpt lat="42.38748" lon="2.26911">
        <ele>2395.2</ele>
        <time>2019-01-07T21:02:50Z</time>
      </trkpt>
      <trkpt lat="42.38752" lon="2.26923">
        <ele>2391</ele>
        <time>2019-01-07T21:02:53Z</time>
      </trkpt>
      <trkpt lat="42.38756" lon="2.26936">
        <ele>2389.7</ele>
        <time>2019-01-07T21:02:55Z</time>
      </trkpt>
      <trkpt lat="42.38757" lon="2.26951">
        <ele>2385.9</ele>
        <time>2019-01-07T21:02:58Z</time>
      </trkpt>
      <trkpt lat="42.38755" lon="2.26965">
        <ele>2383</ele>
        <time>2019-01-07T21:03:01Z</time>
      </trkpt>
      <trkpt lat="42.38755" lon="2.26978">
        <ele>2381.8</ele>
        <time>2019-01-07T21:03:04Z</time>
      </trkpt>
      <trkpt lat="42.3875" lon="2.26991">
        <ele>2381.3</ele>
        <time>2019-01-07T21:03:07Z</time>
      </trkpt>
      <trkpt lat="42.38747" lon="2.27004">
        <ele>2379.6</ele>
        <time>2019-01-07T21:03:09Z</time>
      </trkpt>
      <trkpt lat="42.38748" lon="2.27019">
        <ele>2376.4</ele>
        <time>2019-01-07T21:03:12Z</time>
      </trkpt>
      <trkpt lat="42.38744" lon="2.2703">
        <ele>2375.1</ele>
        <time>2019-01-07T21:03:15Z</time>
      </trkpt>
      <trkpt lat="42.38742" lon="2.27044">
        <ele>2375.1</ele>
        <time>2019-01-07T21:03:18Z</time>
      </trkpt>
      <trkpt lat="42.38735" lon="2.27053">
        <ele>2371.2</ele>
        <time>2019-01-07T21:03:20Z</time>
      </trkpt>
      <trkpt lat="42.38727" lon="2.27058">
        <ele>2367.4</ele>
        <time>2019-01-07T21:03:22Z</time>
      </trkpt>
      <trkpt lat="42.38724" lon="2.2707">
        <ele>2364.9</ele>
        <time>2019-01-07T21:03:25Z</time>
      </trkpt>
      <trkpt lat="42.38723" lon="2.27082">
        <ele>2362</ele>
        <time>2019-01-07T21:03:27Z</time>
      </trkpt>
      <trkpt lat="42.38723" lon="2.27096">
        <ele>2359.7</ele>
        <time>2019-01-07T21:03:30Z</time>
      </trkpt>
      <trkpt lat="42.38722" lon="2.27109">
        <ele>2358.5</ele>
        <time>2019-01-07T21:03:33Z</time>
      </trkpt>
      <trkpt lat="42.38721" lon="2.27121">
        <ele>2358</ele>
        <time>2019-01-07T21:03:35Z</time>
      </trkpt>
      <trkpt lat="42.38722" lon="2.27136">
        <ele>2357.5</ele>
        <time>2019-01-07T21:03:38Z</time>
      </trkpt>
      <trkpt lat="42.38721" lon="2.2715">
        <ele>2357.1</ele>
        <time>2019-01-07T21:03:41Z</time>
      </trkpt>
      <trkpt lat="42.38718" lon="2.27162">
        <ele>2356.7</ele>
        <time>2019-01-07T21:03:43Z</time>
      </trkpt>
      <trkpt lat="42.38714" lon="2.27174">
        <ele>2355.9</ele>
        <time>2019-01-07T21:03:46Z</time>
      </trkpt>
      <trkpt lat="42.3871" lon="2.27186">
        <ele>2355.4</ele>
        <time>2019-01-07T21:03:48Z</time>
      </trkpt>
      <trkpt lat="42.3871" lon="2.272">
        <ele>2356.2</ele>
        <time>2019-01-07T21:03:51Z</time>
      </trkpt>
      <trkpt lat="42.38709" lon="2.27213">
        <ele>2356</ele>
        <time>2019-01-07T21:03:54Z</time>
      </trkpt>
      <trkpt lat="42.38707" lon="2.27227">
        <ele>2356.1</ele>
        <time>2019-01-07T21:03:57Z</time>
      </trkpt>
      <trkpt lat="42.38701" lon="2.27237">
        <ele>2353.4</ele>
        <time>2019-01-07T21:03:59Z</time>
      </trkpt>
      <trkpt lat="42.38693" lon="2.27246">
        <ele>2348.2</ele>
        <time>2019-01-07T21:04:02Z</time>
      </trkpt>
      <trkpt lat="42.38689" lon="2.27257">
        <ele>2344.9</ele>
        <time>2019-01-07T21:04:04Z</time>
      </trkpt>
      <trkpt lat="42.38684" lon="2.27268">
        <ele>2339.5</ele>
        <time>2019-01-07T21:04:07Z</time>
      </trkpt>
      <trkpt lat="42.38677" lon="2.27277">
        <ele>2337.1</ele>
        <time>2019-01-07T21:04:09Z</time>
      </trkpt>
      <trkpt lat="42.38675" lon="2.27289">
        <ele>2333.4</ele>
        <time>2019-01-07T21:04:12Z</time>
      </trkpt>
      <trkpt lat="42.38669" lon="2.27299">
        <ele>2327.7</ele>
        <time>2019-01-07T21:04:14Z</time>
      </trkpt>
      <trkpt lat="42.38668" lon="2.27312">
        <ele>2324.7</ele>
        <time>2019-01-07T21:04:17Z</time>
      </trkpt>
      <trkpt lat="42.3866" lon="2.27319">
        <ele>2322.1</ele>
        <time>2019-01-07T21:04:19Z</time>
      </trkpt>
      <trkpt lat="42.38666" lon="2.2733">
        <ele>2319.5</ele>
        <time>2019-01-07T21:04:22Z</time>
      </trkpt>
      <trkpt lat="42.38664" lon="2.27342">
        <ele>2317.4</ele>
        <time>2019-01-07T21:04:25Z</time>
      </trkpt>
      <trkpt lat="42.38663" lon="2.27354">
        <ele>2312.7</ele>
        <time>2019-01-07T21:04:27Z</time>
      </trkpt>
      <trkpt lat="42.38658" lon="2.27366">
        <ele>2311</ele>
        <time>2019-01-07T21:04:30Z</time>
      </trkpt>
      <trkpt lat="42.3865" lon="2.27372">
        <ele>2307.8</ele>
        <time>2019-01-07T21:04:32Z</time>
      </trkpt>
      <trkpt lat="42.38641" lon="2.27375">
        <ele>2302.3</ele>
        <time>2019-01-07T21:04:35Z</time>
      </trkpt>
      <trkpt lat="42.3864" lon="2.27387">
        <ele>2298.6</ele>
        <time>2019-01-07T21:04:37Z</time>
      </trkpt>
      <trkpt lat="42.38633" lon="2.27396">
        <ele>2294.2</ele>
        <time>2019-01-07T21:04:39Z</time>
      </trkpt>
      <trkpt lat="42.38628" lon="2.27406">
        <ele>2288.7</ele>
        <time>2019-01-07T21:04:42Z</time>
      </trkpt>
      <trkpt lat="42.38619" lon="2.27412">
        <ele>2283.2</ele>
        <time>2019-01-07T21:04:44Z</time>
      </trkpt>
      <trkpt lat="42.38615" lon="2.27424">
        <ele>2276.4</ele>
        <time>2019-01-07T21:04:47Z</time>
      </trkpt>
      <trkpt lat="42.38611" lon="2.27435">
        <ele>2272.2</ele>
        <time>2019-01-07T21:04:50Z</time>
      </trkpt>
      <trkpt lat="42.38602" lon="2.2744">
        <ele>2267.6</ele>
        <time>2019-01-07T21:04:52Z</time>
      </trkpt>
      <trkpt lat="42.38594" lon="2.27444">
        <ele>2262</ele>
        <time>2019-01-07T21:04:54Z</time>
      </trkpt>
      <trkpt lat="42.38592" lon="2.27457">
        <ele>2259.3</ele>
        <time>2019-01-07T21:04:57Z</time>
      </trkpt>
      <trkpt lat="42.38588" lon="2.27468">
        <ele>2255.3</ele>
        <time>2019-01-07T21:04:59Z</time>
      </trkpt>
      <trkpt lat="42.38586" lon="2.2748">
        <ele>2248.4</ele>
        <time>2019-01-07T21:05:02Z</time>
      </trkpt>
      <trkpt lat="42.38584" lon="2.27492">
        <ele>2243.3</ele>
        <time>2019-01-07T21:05:04Z</time>
      </trkpt>
      <trkpt lat="42.38578" lon="2.27501">
        <ele>2237.4</ele>
        <time>2019-01-07T21:05:07Z</time>
      </trkpt>
      <trkpt lat="42.38576" lon="2.27513">
        <ele>2232.1</ele>
        <time>2019-01-07T21:05:09Z</time>
      </trkpt>
      <trkpt lat="42.38567" lon="2.27521">
        <ele>2227.1</ele>
        <time>2019-01-07T21:05:12Z</time>
      </trkpt>
      <trkpt lat="42.3856" lon="2.27529">
        <ele>2223</ele>
        <time>2019-01-07T21:05:15Z</time>
      </trkpt>
      <trkpt lat="42.38558" lon="2.27541">
        <ele>2217.3</ele>
        <time>2019-01-07T21:05:17Z</time>
      </trkpt>
      <trkpt lat="42.38556" lon="2.27553">
        <ele>2214</ele>
        <time>2019-01-07T21:05:19Z</time>
      </trkpt>
      <trkpt lat="42.38551" lon="2.27563">
        <ele>2207.6</ele>
        <time>2019-01-07T21:05:22Z</time>
      </trkpt>
      <trkpt lat="42.38542" lon="2.27567">
        <ele>2204.3</ele>
        <time>2019-01-07T21:05:24Z</time>
      </trkpt>
      <trkpt lat="42.38535" lon="2.27577">
        <ele>2199.7</ele>
        <time>2019-01-07T21:05:27Z</time>
      </trkpt>
      <trkpt lat="42.38526" lon="2.27579">
        <ele>2193.9</ele>
        <time>2019-01-07T21:05:29Z</time>
      </trkpt>
      <trkpt lat="42.38518" lon="2.27586">
        <ele>2190</ele>
        <time>2019-01-07T21:05:32Z</time>
      </trkpt>
      <trkpt lat="42.38512" lon="2.27595">
        <ele>2185.8</ele>
        <time>2019-01-07T21:05:34Z</time>
      </trkpt>
      <trkpt lat="42.38506" lon="2.27604">
        <ele>2180.9</ele>
        <time>2019-01-07T21:05:37Z</time>
      </trkpt>
      <trkpt lat="42.38499" lon="2.27614">
        <ele>2176.5</ele>
        <time>2019-01-07T21:05:40Z</time>
      </trkpt>
      <trkpt lat="42.38492" lon="2.27624">
        <ele>2171.7</ele>
        <time>2019-01-07T21:05:42Z</time>
      </trkpt>
      <trkpt lat="42.38486" lon="2.27633">
        <ele>2170</ele>
        <time>2019-01-07T21:05:45Z</time>
      </trkpt>
      <trkpt lat="42.38481" lon="2.27644">
        <ele>2164.8</ele>
        <time>2019-01-07T21:05:47Z</time>
      </trkpt>
      <trkpt lat="42.38476" lon="2.27656">
        <ele>2157.1</ele>
        <time>2019-01-07T21:05:50Z</time>
      </trkpt>
      <trkpt lat="42.38475" lon="2.27668">
        <ele>2153.8</ele>
        <time>2019-01-07T21:05:52Z</time>
      </trkpt>
      <trkpt lat="42.38471" lon="2.27679">
        <ele>2150.7</ele>
        <time>2019-01-07T21:05:55Z</time>
      </trkpt>
      <trkpt lat="42.38466" lon="2.2769">
        <ele>2147.7</ele>
        <time>2019-01-07T21:05:57Z</time>
      </trkpt>
      <trkpt lat="42.38463" lon="2.27703">
        <ele>2144.4</ele>
        <time>2019-01-07T21:06:00Z</time>
      </trkpt>
      <trkpt lat="42.38459" lon="2.27715">
        <ele>2140.9</ele>
        <time>2019-01-07T21:06:03Z</time>
      </trkpt>
      <trkpt lat="42.38459" lon="2.27727">
        <ele>2139.1</ele>
        <time>2019-01-07T21:06:05Z</time>
      </trkpt>
      <trkpt lat="42.38458" lon="2.27741">
        <ele>2135.7</ele>
        <time>2019-01-07T21:06:08Z</time>
      </trkpt>
      <trkpt lat="42.38449" lon="2.27742">
        <ele>2129.4</ele>
        <time>2019-01-07T21:06:10Z</time>
      </trkpt>
      <trkpt lat="42.38442" lon="2.27751">
        <ele>2124.9</ele>
        <time>2019-01-07T21:06:13Z</time>
      </trkpt>
      <trkpt lat="42.3844" lon="2.27764">
        <ele>2122.2</ele>
        <time>2019-01-07T21:06:15Z</time>
      </trkpt>
      <trkpt lat="42.38433" lon="2.27773">
        <ele>2120.1</ele>
        <time>2019-01-07T21:06:18Z</time>
      </trkpt>
      <trkpt lat="42.38431" lon="2.27785">
        <ele>2116.7</ele>
        <time>2019-01-07T21:06:20Z</time>
      </trkpt>
      <trkpt lat="42.38427" lon="2.27797">
        <ele>2112.4</ele>
        <time>2019-01-07T21:06:23Z</time>
      </trkpt>
      <trkpt lat="42.38424" lon="2.27809">
        <ele>2108.5</ele>
        <time>2019-01-07T21:06:25Z</time>
      </trkpt>
      <trkpt lat="42.38422" lon="2.27823">
        <ele>2105.6</ele>
        <time>2019-01-07T21:06:28Z</time>
      </trkpt>
      <trkpt lat="42.38421" lon="2.27836">
        <ele>2101.8</ele>
        <time>2019-01-07T21:06:31Z</time>
      </trkpt>
      <trkpt lat="42.38416" lon="2.27848">
        <ele>2098.1</ele>
        <time>2019-01-07T21:06:33Z</time>
      </trkpt>
      <trkpt lat="42.38407" lon="2.27853">
        <ele>2095.2</ele>
        <time>2019-01-07T21:06:36Z</time>
      </trkpt>
      <trkpt lat="42.38405" lon="2.27864">
        <ele>2091.9</ele>
        <time>2019-01-07T21:06:38Z</time>
      </trkpt>
      <trkpt lat="42.38402" lon="2.27876">
        <ele>2090.3</ele>
        <time>2019-01-07T21:06:41Z</time>
      </trkpt>
      <trkpt lat="42.38396" lon="2.27885">
        <ele>2086.6</ele>
        <time>2019-01-07T21:06:43Z</time>
      </trkpt>
      <trkpt lat="42.38389" lon="2.27894">
        <ele>2083</ele>
        <time>2019-01-07T21:06:46Z</time>
      </trkpt>
      <trkpt lat="42.38385" lon="2.27905">
        <ele>2079.8</ele>
        <time>2019-01-07T21:06:48Z</time>
      </trkpt>
      <trkpt lat="42.38377" lon="2.27911">
        <ele>2077.1</ele>
        <time>2019-01-07T21:06:51Z</time>
      </trkpt>
      <trkpt lat="42.38368" lon="2.27911">
        <ele>2073.1</ele>
        <time>2019-01-07T21:06:53Z</time>
      </trkpt>
      <trkpt lat="42.38358" lon="2.27912">
        <ele>2068.8</ele>
        <time>2019-01-07T21:06:56Z</time>
      </trkpt>
      <trkpt lat="42.38353" lon="2.27923">
        <ele>2063.7</ele>
        <time>2019-01-07T21:06:58Z</time>
      </trkpt>
      <trkpt lat="42.38345" lon="2.27929">
        <ele>2056.2</ele>
        <time>2019-01-07T21:07:01Z</time>
      </trkpt>
      <trkpt lat="42.38337" lon="2.27935">
        <ele>2052.9</ele>
        <time>2019-01-07T21:07:03Z</time>
      </trkpt>
      <trkpt lat="42.38331" lon="2.27945">
        <ele>2049.3</ele>
        <time>2019-01-07T21:07:05Z</time>
      </trkpt>
      <trkpt lat="42.38323" lon="2.27952">
        <ele>2044.3</ele>
        <time>2019-01-07T21:07:08Z</time>
      </trkpt>
      <trkpt lat="42.38315" lon="2.27958">
        <ele>2039.1</ele>
        <time>2019-01-07T21:07:10Z</time>
      </trkpt>
      <trkpt lat="42.38308" lon="2.27967">
        <ele>2033.4</ele>
        <time>2019-01-07T21:07:13Z</time>
      </trkpt>
      <trkpt lat="42.38302" lon="2.27977">
        <ele>2031.2</ele>
        <time>2019-01-07T21:07:15Z</time>
      </trkpt>
      <trkpt lat="42.38296" lon="2.27986">
        <ele>2028.5</ele>
        <time>2019-01-07T21:07:18Z</time>
      </trkpt>
      <trkpt lat="42.38288" lon="2.27992">
        <ele>2023.9</ele>
        <time>2019-01-07T21:07:20Z</time>
      </trkpt>
      <trkpt lat="42.38282" lon="2.28002">
        <ele>2017</ele>
        <time>2019-01-07T21:07:23Z</time>
      </trkpt>
      <trkpt lat="42.38278" lon="2.28014">
        <ele>2013.3</ele>
        <time>2019-01-07T21:07:26Z</time>
      </trkpt>
      <trkpt lat="42.38272" lon="2.28026">
        <ele>2009.3</ele>
        <time>2019-01-07T21:07:28Z</time>
      </trkpt>
      <trkpt lat="42.38266" lon="2.28037">
        <ele>2006.8</ele>
        <time>2019-01-07T21:07:31Z</time>
      </trkpt>
      <trkpt lat="42.38259" lon="2.28045">
        <ele>2004.4</ele>
        <time>2019-01-07T21:07:33Z</time>
      </trkpt>
      <trkpt lat="42.3825" lon="2.28046">
        <ele>2002</ele>
        <time>2019-01-07T21:07:36Z</time>
      </trkpt>
      <trkpt lat="42.38241" lon="2.28052">
        <ele>1998.9</ele>
        <time>2019-01-07T21:07:39Z</time>
      </trkpt>
      <trkpt lat="42.3824" lon="2.28065">
        <ele>1996</ele>
        <time>2019-01-07T21:07:41Z</time>
      </trkpt>
      <trkpt lat="42.38235" lon="2.28075">
        <ele>1992.2</ele>
        <time>2019-01-07T21:07:44Z</time>
      </trkpt>
      <trkpt lat="42.38231" lon="2.28086">
        <ele>1988.7</ele>
        <time>2019-01-07T21:07:46Z</time>
      </trkpt>
      <trkpt lat="42.38222" lon="2.28091">
        <ele>1983.7</ele>
        <time>2019-01-07T21:07:49Z</time>
      </trkpt>
      <trkpt lat="42.38214" lon="2.28098">
        <ele>1980</ele>
        <time>2019-01-07T21:07:51Z</time>
      </trkpt>
      <trkpt lat="42.38206" lon="2.28104">
        <ele>1979.1</ele>
        <time>2019-01-07T21:07:54Z</time>
      </trkpt>
      <trkpt lat="42.38198" lon="2.28112">
        <ele>1976.9</ele>
        <time>2019-01-07T21:07:56Z</time>
      </trkpt>
      <trkpt lat="42.38192" lon="2.28122">
        <ele>1970.2</ele>
        <time>2019-01-07T21:07:59Z</time>
      </trkpt>
      <trkpt lat="42.38191" lon="2.28134">
        <ele>1968.7</ele>
        <time>2019-01-07T21:08:01Z</time>
      </trkpt>
      <trkpt lat="42.38188" lon="2.28148">
        <ele>1967</ele>
        <time>2019-01-07T21:08:04Z</time>
      </trkpt>
      <trkpt lat="42.38189" lon="2.2816">
        <ele>1963.1</ele>
        <time>2019-01-07T21:08:07Z</time>
      </trkpt>
      <trkpt lat="42.3818" lon="2.28164">
        <ele>1958.2</ele>
        <time>2019-01-07T21:08:09Z</time>
      </trkpt>
      <trkpt lat="42.38178" lon="2.28177">
        <ele>1955.7</ele>
        <time>2019-01-07T21:08:12Z</time>
      </trkpt>
      <trkpt lat="42.38175" lon="2.28189">
        <ele>1948.1</ele>
        <time>2019-01-07T21:08:14Z</time>
      </trkpt>
      <trkpt lat="42.3817" lon="2.28199">
        <ele>1947</ele>
        <time>2019-01-07T21:08:17Z</time>
      </trkpt>
      <trkpt lat="42.38165" lon="2.2821">
        <ele>1945.6</ele>
        <time>2019-01-07T21:08:19Z</time>
      </trkpt>
      <trkpt lat="42.38162" lon="2.28221">
        <ele>1943.9</ele>
        <time>2019-01-07T21:08:21Z</time>
      </trkpt>
      <trkpt lat="42.38156" lon="2.28231">
        <ele>1936.4</ele>
        <time>2019-01-07T21:08:24Z</time>
      </trkpt>
      <trkpt lat="42.38153" lon="2.28243">
        <ele>1932.7</ele>
        <time>2019-01-07T21:08:26Z</time>
      </trkpt>
      <trkpt lat="42.38158" lon="2.28253">
        <ele>1930.4</ele>
        <time>2019-01-07T21:08:29Z</time>
      </trkpt>
      <trkpt lat="42.38164" lon="2.28263">
        <ele>1928.1</ele>
        <time>2019-01-07T21:08:32Z</time>
      </trkpt>
      <trkpt lat="42.38171" lon="2.28273">
        <ele>1926.2</ele>
        <time>2019-01-07T21:08:34Z</time>
      </trkpt>
      <trkpt lat="42.38176" lon="2.28285">
        <ele>1924.9</ele>
        <time>2019-01-07T21:08:37Z</time>
      </trkpt>
      <trkpt lat="42.38182" lon="2.28295">
        <ele>1924.3</ele>
        <time>2019-01-07T21:08:39Z</time>
      </trkpt>
      <trkpt lat="42.38188" lon="2.28305">
        <ele>1922.8</ele>
        <time>2019-01-07T21:08:42Z</time>
      </trkpt>
      <trkpt lat="42.38195" lon="2.28314">
        <ele>1921.8</ele>
        <time>2019-01-07T21:08:45Z</time>
      </trkpt>
      <trkpt lat="42.38203" lon="2.28322">
        <ele>1921</ele>
        <time>2019-01-07T21:08:47Z</time>
      </trkpt>
      <trkpt lat="42.38209" lon="2.28332">
        <ele>1918.2</ele>
        <time>2019-01-07T21:08:50Z</time>
      </trkpt>
      <trkpt lat="42.38217" lon="2.28342">
        <ele>1916.4</ele>
        <time>2019-01-07T21:08:53Z</time>
      </trkpt>
      <trkpt lat="42.38223" lon="2.28354">
        <ele>1915</ele>
        <time>2019-01-07T21:08:55Z</time>
      </trkpt>
      <trkpt lat="42.38227" lon="2.28365">
        <ele>1913</ele>
        <time>2019-01-07T21:08:58Z</time>
      </trkpt>
      <trkpt lat="42.38228" lon="2.28378">
        <ele>1910.2</ele>
        <time>2019-01-07T21:09:00Z</time>
      </trkpt>
      <trkpt lat="42.3823" lon="2.2839">
        <ele>1908</ele>
        <time>2019-01-07T21:09:03Z</time>
      </trkpt>
      <trkpt lat="42.38232" lon="2.28403">
        <ele>1906</ele>
        <time>2019-01-07T21:09:05Z</time>
      </trkpt>
      <trkpt lat="42.38235" lon="2.28416">
        <ele>1904.1</ele>
        <time>2019-01-07T21:09:08Z</time>
      </trkpt>
      <trkpt lat="42.38236" lon="2.28429">
        <ele>1902.3</ele>
        <time>2019-01-07T21:09:11Z</time>
      </trkpt>
      <trkpt lat="42.38237" lon="2.28441">
        <ele>1898.2</ele>
        <time>2019-01-07T21:09:13Z</time>
      </trkpt>
      <trkpt lat="42.38239" lon="2.28453">
        <ele>1895</ele>
        <time>2019-01-07T21:09:16Z</time>
      </trkpt>
      <trkpt lat="42.38242" lon="2.28465">
        <ele>1891.8</ele>
        <time>2019-01-07T21:09:18Z</time>
      </trkpt>
      <trkpt lat="42.38246" lon="2.28477">
        <ele>1889.8</ele>
        <time>2019-01-07T21:09:21Z</time>
      </trkpt>
      <trkpt lat="42.38249" lon="2.28489">
        <ele>1887.5</ele>
        <time>2019-01-07T21:09:23Z</time>
      </trkpt>
      <trkpt lat="42.38247" lon="2.28501">
        <ele>1883.9</ele>
        <time>2019-01-07T21:09:26Z</time>
      </trkpt>
      <trkpt lat="42.38246" lon="2.28514">
        <ele>1881.3</ele>
        <time>2019-01-07T21:09:28Z</time>
      </trkpt>
      <trkpt lat="42.38242" lon="2.28525">
        <ele>1877.2</ele>
        <time>2019-01-07T21:09:31Z</time>
      </trkpt>
      <trkpt lat="42.38232" lon="2.28528">
        <ele>1872.7</ele>
        <time>2019-01-07T21:09:33Z</time>
      </trkpt>
      <trkpt lat="42.38225" lon="2.28538">
        <ele>1869.8</ele>
        <time>2019-01-07T21:09:36Z</time>
      </trkpt>
      <trkpt lat="42.38223" lon="2.2855">
        <ele>1864.5</ele>
        <time>2019-01-07T21:09:39Z</time>
      </trkpt>
      <trkpt lat="42.38221" lon="2.28562">
        <ele>1862.5</ele>
        <time>2019-01-07T21:09:41Z</time>
      </trkpt>
      <trkpt lat="42.38216" lon="2.28573">
        <ele>1859.2</ele>
        <time>2019-01-07T21:09:43Z</time>
      </trkpt>
      <trkpt lat="42.38218" lon="2.28585">
        <ele>1855.1</ele>
        <time>2019-01-07T21:09:46Z</time>
      </trkpt>
      <trkpt lat="42.3821" lon="2.28593">
        <ele>1853.4</ele>
        <time>2019-01-07T21:09:49Z</time>
      </trkpt>
      <trkpt lat="42.38205" lon="2.28605">
        <ele>1849.8</ele>
        <time>2019-01-07T21:09:51Z</time>
      </trkpt>
      <trkpt lat="42.382" lon="2.28617">
        <ele>1845</ele>
        <time>2019-01-07T21:09:54Z</time>
      </trkpt>
      <trkpt lat="42.38198" lon="2.28629">
        <ele>1842.4</ele>
        <time>2019-01-07T21:09:56Z</time>
      </trkpt>
      <trkpt lat="42.38194" lon="2.28642">
        <ele>1839.1</ele>
        <time>2019-01-07T21:09:59Z</time>
      </trkpt>
      <trkpt lat="42.38193" lon="2.28656">
        <ele>1835.8</ele>
        <time>2019-01-07T21:10:02Z</time>
      </trkpt>
      <trkpt lat="42.38188" lon="2.28668">
        <ele>1832.3</ele>
        <time>2019-01-07T21:10:05Z</time>
      </trkpt>
      <trkpt lat="42.38184" lon="2.28679">
        <ele>1829.8</ele>
        <time>2019-01-07T21:10:07Z</time>
      </trkpt>
      <trkpt lat="42.38175" lon="2.2868">
        <ele>1827.2</ele>
        <time>2019-01-07T21:10:10Z</time>
      </trkpt>
      <trkpt lat="42.38165" lon="2.28678">
        <ele>1827.1</ele>
        <time>2019-01-07T21:10:12Z</time>
      </trkpt>
      <trkpt lat="42.3816" lon="2.28689">
        <ele>1824.4</ele>
        <time>2019-01-07T21:10:15Z</time>
      </trkpt>
      <trkpt lat="42.3816" lon="2.28701">
        <ele>1821</ele>
        <time>2019-01-07T21:10:17Z</time>
      </trkpt>
      <trkpt lat="42.38157" lon="2.28714">
        <ele>1819.2</ele>
        <time>2019-01-07T21:10:20Z</time>
      </trkpt>
      <trkpt lat="42.38147" lon="2.28716">
        <ele>1815</ele>
        <time>2019-01-07T21:10:22Z</time>
      </trkpt>
      <trkpt lat="42.38138" lon="2.28719">
        <ele>1812.4</ele>
        <time>2019-01-07T21:10:25Z</time>
      </trkpt>
      <trkpt lat="42.38128" lon="2.28719">
        <ele>1809.3</ele>
        <time>2019-01-07T21:10:28Z</time>
      </trkpt>
      <trkpt lat="42.38118" lon="2.28715">
        <ele>1808.4</ele>
        <time>2019-01-07T21:10:30Z</time>
      </trkpt>
      <trkpt lat="42.38109" lon="2.28716">
        <ele>1807.2</ele>
        <time>2019-01-07T21:10:33Z</time>
      </trkpt>
      <trkpt lat="42.38101" lon="2.28722">
        <ele>1804.7</ele>
        <time>2019-01-07T21:10:35Z</time>
      </trkpt>
      <trkpt lat="42.38092" lon="2.28725">
        <ele>1803.1</ele>
        <time>2019-01-07T21:10:38Z</time>
      </trkpt>
      <trkpt lat="42.38083" lon="2.28723">
        <ele>1801.6</ele>
        <time>2019-01-07T21:10:40Z</time>
      </trkpt>
      <trkpt lat="42.38074" lon="2.28718">
        <ele>1800.1</ele>
        <time>2019-01-07T21:10:43Z</time>
      </trkpt>
      <trkpt lat="42.38064" lon="2.28718">
        <ele>1798.5</ele>
        <time>2019-01-07T21:10:45Z</time>
      </trkpt>
      <trkpt lat="42.38054" lon="2.28721">
        <ele>1794.5</ele>
        <time>2019-01-07T21:10:48Z</time>
      </trkpt>
      <trkpt lat="42.38043" lon="2.28716">
        <ele>1792</ele>
        <time>2019-01-07T21:10:51Z</time>
      </trkpt>
      <trkpt lat="42.38035" lon="2.28709">
        <ele>1787.8</ele>
        <time>2019-01-07T21:10:54Z</time>
      </trkpt>
      <trkpt lat="42.38025" lon="2.28709">
        <ele>1784.2</ele>
        <time>2019-01-07T21:10:56Z</time>
      </trkpt>
      <trkpt lat="42.38016" lon="2.28708">
        <ele>1784.1</ele>
        <time>2019-01-07T21:10:59Z</time>
      </trkpt>
      <trkpt lat="42.38007" lon="2.28704">
        <ele>1781.4</ele>
        <time>2019-01-07T21:11:01Z</time>
      </trkpt>
      <trkpt lat="42.38" lon="2.28695">
        <ele>1775.5</ele>
        <time>2019-01-07T21:11:04Z</time>
      </trkpt>
      <trkpt lat="42.37991" lon="2.28691">
        <ele>1774.3</ele>
        <time>2019-01-07T21:11:06Z</time>
      </trkpt>
      <trkpt lat="42.37982" lon="2.28689">
        <ele>1769.1</ele>
        <time>2019-01-07T21:11:09Z</time>
      </trkpt>
      <trkpt lat="42.37972" lon="2.2869">
        <ele>1766</ele>
        <time>2019-01-07T21:11:12Z</time>
      </trkpt>
      <trkpt lat="42.37963" lon="2.28687">
        <ele>1766.1</ele>
        <time>2019-01-07T21:11:14Z</time>
      </trkpt>
      <trkpt lat="42.37956" lon="2.28696">
        <ele>1763.8</ele>
        <time>2019-01-07T21:11:17Z</time>
      </trkpt>
      <trkpt lat="42.3795" lon="2.28707">
        <ele>1760.2</ele>
        <time>2019-01-07T21:11:19Z</time>
      </trkpt>
      <trkpt lat="42.37944" lon="2.28715">
        <ele>1757.8</ele>
        <time>2019-01-07T21:11:22Z</time>
      </trkpt>
      <trkpt lat="42.37937" lon="2.28724">
        <ele>1754.8</ele>
        <time>2019-01-07T21:11:24Z</time>
      </trkpt>
      <trkpt lat="42.37932" lon="2.28735">
        <ele>1751.3</ele>
        <time>2019-01-07T21:11:27Z</time>
      </trkpt>
      <trkpt lat="42.37926" lon="2.28744">
        <ele>1749.2</ele>
        <time>2019-01-07T21:11:29Z</time>
      </trkpt>
      <trkpt lat="42.37923" lon="2.28757">
        <ele>1747.7</ele>
        <time>2019-01-07T21:11:32Z</time>
      </trkpt>
      <trkpt lat="42.37918" lon="2.28768">
        <ele>1746.2</ele>
        <time>2019-01-07T21:11:34Z</time>
      </trkpt>
      <trkpt lat="42.37912" lon="2.28778">
        <ele>1744.4</ele>
        <time>2019-01-07T21:11:37Z</time>
      </trkpt>
      <trkpt lat="42.37906" lon="2.28787">
        <ele>1742.4</ele>
        <time>2019-01-07T21:11:39Z</time>
      </trkpt>
      <trkpt lat="42.37899" lon="2.28797">
        <ele>1739.6</ele>
        <time>2019-01-07T21:11:42Z</time>
      </trkpt>
      <trkpt lat="42.37894" lon="2.28808">
        <ele>1737.1</ele>
        <time>2019-01-07T21:11:44Z</time>
      </trkpt>
      <trkpt lat="42.37885" lon="2.28815">
        <ele>1734</ele>
        <time>2019-01-07T21:11:47Z</time>
      </trkpt>
      <trkpt lat="42.37876" lon="2.28822">
        <ele>1731.7</ele>
        <time>2019-01-07T21:11:50Z</time>
      </trkpt>
      <trkpt lat="42.37868" lon="2.2883">
        <ele>1730</ele>
        <time>2019-01-07T21:11:53Z</time>
      </trkpt>
      <trkpt lat="42.3786" lon="2.2884">
        <ele>1728.5</ele>
        <time>2019-01-07T21:11:56Z</time>
      </trkpt>
      <trkpt lat="42.37854" lon="2.28852">
        <ele>1727.1</ele>
        <time>2019-01-07T21:11:58Z</time>
      </trkpt>
      <trkpt lat="42.37847" lon="2.28861">
        <ele>1726.2</ele>
        <time>2019-01-07T21:12:01Z</time>
      </trkpt>
      <trkpt lat="42.3784" lon="2.2887">
        <ele>1726.1</ele>
        <time>2019-01-07T21:12:03Z</time>
      </trkpt>
      <trkpt lat="42.37836" lon="2.28882">
        <ele>1723.9</ele>
        <time>2019-01-07T21:12:06Z</time>
      </trkpt>
      <trkpt lat="42.37833" lon="2.28895">
        <ele>1719.8</ele>
        <time>2019-01-07T21:12:09Z</time>
      </trkpt>
      <trkpt lat="42.37829" lon="2.28907">
        <ele>1719.1</ele>
        <time>2019-01-07T21:12:12Z</time>
      </trkpt>
      <trkpt lat="42.37824" lon="2.28919">
        <ele>1717</ele>
        <time>2019-01-07T21:12:14Z</time>
      </trkpt>
      <trkpt lat="42.37823" lon="2.28932">
        <ele>1713.8</ele>
        <time>2019-01-07T21:12:17Z</time>
      </trkpt>
      <trkpt lat="42.37816" lon="2.28941">
        <ele>1711.6</ele>
        <time>2019-01-07T21:12:19Z</time>
      </trkpt>
      <trkpt lat="42.3781" lon="2.28951">
        <ele>1709.4</ele>
        <time>2019-01-07T21:12:22Z</time>
      </trkpt>
      <trkpt lat="42.37805" lon="2.28961">
        <ele>1705.4</ele>
        <time>2019-01-07T21:12:24Z</time>
      </trkpt>
      <trkpt lat="42.37802" lon="2.28973">
        <ele>1702.2</ele>
        <time>2019-01-07T21:12:27Z</time>
      </trkpt>
      <trkpt lat="42.37798" lon="2.28985">
        <ele>1700.2</ele>
        <time>2019-01-07T21:12:29Z</time>
      </trkpt>
      <trkpt lat="42.37794" lon="2.28997">
        <ele>1696.2</ele>
        <time>2019-01-07T21:12:32Z</time>
      </trkpt>
      <trkpt lat="42.37788" lon="2.29008">
        <ele>1693.7</ele>
        <time>2019-01-07T21:12:34Z</time>
      </trkpt>
      <trkpt lat="42.37785" lon="2.2902">
        <ele>1690.9</ele>
        <time>2019-01-07T21:12:37Z</time>
      </trkpt>
      <trkpt lat="42.37781" lon="2.29031">
        <ele>1687.7</ele>
        <time>2019-01-07T21:12:39Z</time>
      </trkpt>
      <trkpt lat="42.37776" lon="2.29043">
        <ele>1685.6</ele>
        <time>2019-01-07T21:12:42Z</time>
      </trkpt>
      <trkpt lat="42.37771" lon="2.29055">
        <ele>1683</ele>
        <time>2019-01-07T21:12:45Z</time>
      </trkpt>
      <trkpt lat="42.37765" lon="2.29066">
        <ele>1682.2</ele>
        <time>2019-01-07T21:12:48Z</time>
      </trkpt>
      <trkpt lat="42.37758" lon="2.29074">
        <ele>1679.9</ele>
        <time>2019-01-07T21:12:50Z</time>
      </trkpt>
      <trkpt lat="42.37756" lon="2.29086">
        <ele>1676</ele>
        <time>2019-01-07T21:12:52Z</time>
      </trkpt>
      <trkpt lat="42.37753" lon="2.29098">
        <ele>1672.4</ele>
        <time>2019-01-07T21:12:55Z</time>
      </trkpt>
      <trkpt lat="42.37749" lon="2.2911">
        <ele>1668.9</ele>
        <time>2019-01-07T21:12:58Z</time>
      </trkpt>
      <trkpt lat="42.37748" lon="2.29123">
        <ele>1666.5</ele>
        <time>2019-01-07T21:13:00Z</time>
      </trkpt>
      <trkpt lat="42.37748" lon="2.29137">
        <ele>1662.6</ele>
        <time>2019-01-07T21:13:03Z</time>
      </trkpt>
      <trkpt lat="42.37748" lon="2.2915">
        <ele>1659.6</ele>
        <time>2019-01-07T21:13:05Z</time>
      </trkpt>
      <trkpt lat="42.37746" lon="2.29162">
        <ele>1657.1</ele>
        <time>2019-01-07T21:13:08Z</time>
      </trkpt>
      <trkpt lat="42.37742" lon="2.29174">
        <ele>1653.7</ele>
        <time>2019-01-07T21:13:10Z</time>
      </trkpt>
      <trkpt lat="42.37738" lon="2.29185">
        <ele>1651.1</ele>
        <time>2019-01-07T21:13:13Z</time>
      </trkpt>
      <trkpt lat="42.37741" lon="2.29198">
        <ele>1648.2</ele>
        <time>2019-01-07T21:13:15Z</time>
      </trkpt>
      <trkpt lat="42.37741" lon="2.2921">
        <ele>1645.2</ele>
        <time>2019-01-07T21:13:18Z</time>
      </trkpt>
      <trkpt lat="42.3774" lon="2.29223">
        <ele>1643</ele>
        <time>2019-01-07T21:13:20Z</time>
      </trkpt>
      <trkpt lat="42.37739" lon="2.29235">
        <ele>1639.2</ele>
        <time>2019-01-07T21:13:23Z</time>
      </trkpt>
      <trkpt lat="42.3774" lon="2.29248">
        <ele>1635.1</ele>
        <time>2019-01-07T21:13:25Z</time>
      </trkpt>
      <trkpt lat="42.37744" lon="2.2926">
        <ele>1634</ele>
        <time>2019-01-07T21:13:28Z</time>
      </trkpt>
      <trkpt lat="42.37742" lon="2.29272">
        <ele>1629.8</ele>
        <time>2019-01-07T21:13:30Z</time>
      </trkpt>
      <trkpt lat="42.37745" lon="2.29285">
        <ele>1627.3</ele>
        <time>2019-01-07T21:13:33Z</time>
      </trkpt>
      <trkpt lat="42.37746" lon="2.29297">
        <ele>1625.1</ele>
        <time>2019-01-07T21:13:36Z</time>
      </trkpt>
      <trkpt lat="42.37753" lon="2.29307">
        <ele>1623</ele>
        <time>2019-01-07T21:13:38Z</time>
      </trkpt>
      <trkpt lat="42.3775" lon="2.29318">
        <ele>1619.7</ele>
        <time>2019-01-07T21:13:41Z</time>
      </trkpt>
      <trkpt lat="42.37742" lon="2.29326">
        <ele>1616.9</ele>
        <time>2019-01-07T21:13:43Z</time>
      </trkpt>
      <trkpt lat="42.37734" lon="2.29335">
        <ele>1615.2</ele>
        <time>2019-01-07T21:13:46Z</time>
      </trkpt>
      <trkpt lat="42.37733" lon="2.29348">
        <ele>1613.1</ele>
        <time>2019-01-07T21:13:48Z</time>
      </trkpt>
      <trkpt lat="42.37736" lon="2.29362">
        <ele>1611.6</ele>
        <time>2019-01-07T21:13:51Z</time>
      </trkpt>
      <trkpt lat="42.37737" lon="2.29375">
        <ele>1610.3</ele>
        <time>2019-01-07T21:13:54Z</time>
      </trkpt>
      <trkpt lat="42.37741" lon="2.29387">
        <ele>1606.1</ele>
        <time>2019-01-07T21:13:56Z</time>
      </trkpt>
      <trkpt lat="42.37742" lon="2.29399">
        <ele>1601.9</ele>
        <time>2019-01-07T21:13:59Z</time>
      </trkpt>
      <trkpt lat="42.37742" lon="2.29413">
        <ele>1599.4</ele>
        <time>2019-01-07T21:14:02Z</time>
      </trkpt>
      <trkpt lat="42.37743" lon="2.29426">
        <ele>1596.1</ele>
        <time>2019-01-07T21:14:04Z</time>
      </trkpt>
      <trkpt lat="42.37751" lon="2.29434">
        <ele>1592.6</ele>
        <time>2019-01-07T21:14:07Z</time>
      </trkpt>
      <trkpt lat="42.37761" lon="2.29435">
        <ele>1591.2</ele>
        <time>2019-01-07T21:14:10Z</time>
      </trkpt>
      <trkpt lat="42.3777" lon="2.2943">
        <ele>1590.2</ele>
        <time>2019-01-07T21:14:12Z</time>
      </trkpt>
      <trkpt lat="42.37774" lon="2.29442">
        <ele>1589.1</ele>
        <time>2019-01-07T21:14:15Z</time>
      </trkpt>
      <trkpt lat="42.37769" lon="2.29455">
        <ele>1588.6</ele>
        <time>2019-01-07T21:14:18Z</time>
      </trkpt>
      <trkpt lat="42.37764" lon="2.29466">
        <ele>1587.9</ele>
        <time>2019-01-07T21:14:20Z</time>
      </trkpt>
      <trkpt lat="42.37756" lon="2.29471">
        <ele>1583.1</ele>
        <time>2019-01-07T21:14:23Z</time>
      </trkpt>
      <trkpt lat="42.37748" lon="2.29478">
        <ele>1582.2</ele>
        <time>2019-01-07T21:14:25Z</time>
      </trkpt>
      <trkpt lat="42.37739" lon="2.29483">
        <ele>1581.3</ele>
        <time>2019-01-07T21:14:28Z</time>
      </trkpt>
      <trkpt lat="42.3773" lon="2.29488">
        <ele>1579.8</ele>
        <time>2019-01-07T21:14:30Z</time>
      </trkpt>
      <trkpt lat="42.37721" lon="2.2949">
        <ele>1578.7</ele>
        <time>2019-01-07T21:14:33Z</time>
      </trkpt>
      <trkpt lat="42.37712" lon="2.29485">
        <ele>1577.6</ele>
        <time>2019-01-07T21:14:35Z</time>
      </trkpt>
      <trkpt lat="42.37703" lon="2.29481">
        <ele>1575.9</ele>
        <time>2019-01-07T21:14:38Z</time>
      </trkpt>
      <trkpt lat="42.37694" lon="2.29476">
        <ele>1574.5</ele>
        <time>2019-01-07T21:14:41Z</time>
      </trkpt>
      <trkpt lat="42.37685" lon="2.29471">
        <ele>1572.7</ele>
        <time>2019-01-07T21:14:43Z</time>
      </trkpt>
      <trkpt lat="42.37677" lon="2.29466">
        <ele>1571</ele>
        <time>2019-01-07T21:14:45Z</time>
      </trkpt>
      <trkpt lat="42.37668" lon="2.29462">
        <ele>1569.2</ele>
        <time>2019-01-07T21:14:48Z</time>
      </trkpt>
      <trkpt lat="42.3766" lon="2.29456">
        <ele>1567.5</ele>
        <time>2019-01-07T21:14:50Z</time>
      </trkpt>
      <trkpt lat="42.37653" lon="2.29447">
        <ele>1564.7</ele>
        <time>2019-01-07T21:14:53Z</time>
      </trkpt>
      <trkpt lat="42.37644" lon="2.29443">
        <ele>1562.7</ele>
        <time>2019-01-07T21:14:55Z</time>
      </trkpt>
      <trkpt lat="42.37636" lon="2.29435">
        <ele>1561.2</ele>
        <time>2019-01-07T21:14:58Z</time>
      </trkpt>
      <trkpt lat="42.37632" lon="2.29423">
        <ele>1558.7</ele>
        <time>2019-01-07T21:15:01Z</time>
      </trkpt>
      <trkpt lat="42.37627" lon="2.29412">
        <ele>1556.7</ele>
        <time>2019-01-07T21:15:03Z</time>
      </trkpt>
      <trkpt lat="42.37624" lon="2.29399">
        <ele>1555.6</ele>
        <time>2019-01-07T21:15:06Z</time>
      </trkpt>
      <trkpt lat="42.3762" lon="2.29388">
        <ele>1554.3</ele>
        <time>2019-01-07T21:15:08Z</time>
      </trkpt>
      <trkpt lat="42.37611" lon="2.29391">
        <ele>1550.6</ele>
        <time>2019-01-07T21:15:11Z</time>
      </trkpt>
      <trkpt lat="42.37606" lon="2.29402">
        <ele>1549</ele>
        <time>2019-01-07T21:15:13Z</time>
      </trkpt>
      <trkpt lat="42.37602" lon="2.29412">
        <ele>1547.6</ele>
        <time>2019-01-07T21:15:16Z</time>
      </trkpt>
      <trkpt lat="42.37602" lon="2.29425">
        <ele>1547.2</ele>
        <time>2019-01-07T21:15:18Z</time>
      </trkpt>
      <trkpt lat="42.37603" lon="2.29438">
        <ele>1545.4</ele>
        <time>2019-01-07T21:15:21Z</time>
      </trkpt>
      <trkpt lat="42.37603" lon="2.29451">
        <ele>1543.8</ele>
        <time>2019-01-07T21:15:23Z</time>
      </trkpt>
      <trkpt lat="42.37602" lon="2.29464">
        <ele>1543</ele>
        <time>2019-01-07T21:15:26Z</time>
      </trkpt>
      <trkpt lat="42.37603" lon="2.29477">
        <ele>1540.4</ele>
        <time>2019-01-07T21:15:28Z</time>
      </trkpt>
      <trkpt lat="42.37604" lon="2.2949">
        <ele>1537.6</ele>
        <time>2019-01-07T21:15:31Z</time>
      </trkpt>
      <trkpt lat="42.37605" lon="2.29503">
        <ele>1535.1</ele>
        <time>2019-01-07T21:15:34Z</time>
      </trkpt>
      <trkpt lat="42.37607" lon="2.29516">
        <ele>1533</ele>
        <time>2019-01-07T21:15:36Z</time>
      </trkpt>
      <trkpt lat="42.37608" lon="2.29529">
        <ele>1531.9</ele>
        <time>2019-01-07T21:15:39Z</time>
      </trkpt>
      <trkpt lat="42.37611" lon="2.29542">
        <ele>1529</ele>
        <time>2019-01-07T21:15:42Z</time>
      </trkpt>
      <trkpt lat="42.37616" lon="2.29554">
        <ele>1528.1</ele>
        <time>2019-01-07T21:15:44Z</time>
      </trkpt>
      <trkpt lat="42.37623" lon="2.29563">
        <ele>1525.4</ele>
        <time>2019-01-07T21:15:47Z</time>
      </trkpt>
      <trkpt lat="42.37623" lon="2.29575">
        <ele>1523.1</ele>
        <time>2019-01-07T21:15:49Z</time>
      </trkpt>
      <trkpt lat="42.37614" lon="2.2957">
        <ele>1521.7</ele>
        <time>2019-01-07T21:15:52Z</time>
      </trkpt>
      <trkpt lat="42.37606" lon="2.29563">
        <ele>1520.4</ele>
        <time>2019-01-07T21:15:54Z</time>
      </trkpt>
      <trkpt lat="42.37599" lon="2.29555">
        <ele>1520.2</ele>
        <time>2019-01-07T21:15:57Z</time>
      </trkpt>
      <trkpt lat="42.37591" lon="2.29547">
        <ele>1520.1</ele>
        <time>2019-01-07T21:15:59Z</time>
      </trkpt>
      <trkpt lat="42.37585" lon="2.29536">
        <ele>1519.6</ele>
        <time>2019-01-07T21:16:02Z</time>
      </trkpt>
      <trkpt lat="42.37578" lon="2.29526">
        <ele>1518.8</ele>
        <time>2019-01-07T21:16:05Z</time>
      </trkpt>
      <trkpt lat="42.37571" lon="2.29517">
        <ele>1518</ele>
        <time>2019-01-07T21:16:07Z</time>
      </trkpt>
      <trkpt lat="42.37564" lon="2.2951">
        <ele>1518.2</ele>
        <time>2019-01-07T21:16:10Z</time>
      </trkpt>
      <trkpt lat="42.37572" lon="2.29516">
        <ele>1517.2</ele>
        <time>2019-01-07T21:16:12Z</time>
      </trkpt>
      <trkpt lat="42.3758" lon="2.29523">
        <ele>1517.9</ele>
        <time>2019-01-07T21:16:15Z</time>
      </trkpt>
      <trkpt lat="42.37581" lon="2.29535">
        <ele>1516.8</ele>
        <time>2019-01-07T21:16:17Z</time>
      </trkpt>
      <trkpt lat="42.37577" lon="2.29547">
        <ele>1514.1</ele>
        <time>2019-01-07T21:16:20Z</time>
      </trkpt>
      <trkpt lat="42.3758" lon="2.29559">
        <ele>1512.2</ele>
        <time>2019-01-07T21:16:22Z</time>
      </trkpt>
      <trkpt lat="42.37575" lon="2.2957">
        <ele>1510.1</ele>
        <time>2019-01-07T21:16:25Z</time>
      </trkpt>
      <trkpt lat="42.37581" lon="2.29581">
        <ele>1505.2</ele>
        <time>2019-01-07T21:16:28Z</time>
      </trkpt>
      <trkpt lat="42.37588" lon="2.2959">
        <ele>1504.4</ele>
        <time>2019-01-07T21:16:30Z</time>
      </trkpt>
      <trkpt lat="42.37596" lon="2.29596">
        <ele>1503.6</ele>
        <time>2019-01-07T21:16:33Z</time>
      </trkpt>
      <trkpt lat="42.37603" lon="2.29604">
        <ele>1503.2</ele>
        <time>2019-01-07T21:16:35Z</time>
      </trkpt>
      <trkpt lat="42.37613" lon="2.29605">
        <ele>1504.2</ele>
        <time>2019-01-07T21:16:38Z</time>
      </trkpt>
      <trkpt lat="42.37622" lon="2.29606">
        <ele>1505.1</ele>
        <time>2019-01-07T21:16:40Z</time>
      </trkpt>
      <trkpt lat="42.37631" lon="2.2961">
        <ele>1504.4</ele>
        <time>2019-01-07T21:16:43Z</time>
      </trkpt>
      <trkpt lat="42.37641" lon="2.29611">
        <ele>1504.3</ele>
        <time>2019-01-07T21:16:45Z</time>
      </trkpt>
      <trkpt lat="42.37651" lon="2.29616">
        <ele>1505.1</ele>
        <time>2019-01-07T21:16:48Z</time>
      </trkpt>
      <trkpt lat="42.37661" lon="2.29616">
        <ele>1505.1</ele>
        <time>2019-01-07T21:16:51Z</time>
      </trkpt>
      <trkpt lat="42.37669" lon="2.29621">
        <ele>1504.7</ele>
        <time>2019-01-07T21:16:53Z</time>
      </trkpt>
      <trkpt lat="42.37678" lon="2.29626">
        <ele>1504.1</ele>
        <time>2019-01-07T21:16:56Z</time>
      </trkpt>
      <trkpt lat="42.37686" lon="2.29631">
        <ele>1504.1</ele>
        <time>2019-01-07T21:16:58Z</time>
      </trkpt>
      <trkpt lat="42.37695" lon="2.29633">
        <ele>1504.1</ele>
        <time>2019-01-07T21:17:01Z</time>
      </trkpt>
      <trkpt lat="42.37704" lon="2.29632">
        <ele>1503.7</ele>
        <time>2019-01-07T21:17:03Z</time>
      </trkpt>
      <trkpt lat="42.37713" lon="2.29635">
        <ele>1503.3</ele>
        <time>2019-01-07T21:17:05Z</time>
      </trkpt>
      <trkpt lat="42.37723" lon="2.29637">
        <ele>1503.2</ele>
        <time>2019-01-07T21:17:08Z</time>
      </trkpt>
      <trkpt lat="42.37733" lon="2.2964">
        <ele>1502.6</ele>
        <time>2019-01-07T21:17:11Z</time>
      </trkpt>
      <trkpt lat="42.37743" lon="2.29641">
        <ele>1500.8</ele>
        <time>2019-01-07T21:17:14Z</time>
      </trkpt>
      <trkpt lat="42.37752" lon="2.29646">
        <ele>1498.3</ele>
        <time>2019-01-07T21:17:16Z</time>
      </trkpt>
      <trkpt lat="42.37762" lon="2.29648">
        <ele>1496</ele>
        <time>2019-01-07T21:17:19Z</time>
      </trkpt>
      <trkpt lat="42.37771" lon="2.29652">
        <ele>1494.9</ele>
        <time>2019-01-07T21:17:21Z</time>
      </trkpt>
      <trkpt lat="42.37778" lon="2.2966">
        <ele>1494.3</ele>
        <time>2019-01-07T21:17:24Z</time>
      </trkpt>
      <trkpt lat="42.37771" lon="2.29669">
        <ele>1492.2</ele>
        <time>2019-01-07T21:17:26Z</time>
      </trkpt>
      <trkpt lat="42.37762" lon="2.29674">
        <ele>1489.5</ele>
        <time>2019-01-07T21:17:29Z</time>
      </trkpt>
      <trkpt lat="42.37756" lon="2.29665">
        <ele>1487</ele>
        <time>2019-01-07T21:17:31Z</time>
      </trkpt>
      <trkpt lat="42.37747" lon="2.29668">
        <ele>1486</ele>
        <time>2019-01-07T21:17:34Z</time>
      </trkpt>
      <trkpt lat="42.37737" lon="2.2967">
        <ele>1485.3</ele>
        <time>2019-01-07T21:17:37Z</time>
      </trkpt>
      <trkpt lat="42.37727" lon="2.29675">
        <ele>1481.4</ele>
        <time>2019-01-07T21:17:39Z</time>
      </trkpt>
      <trkpt lat="42.37718" lon="2.29681">
        <ele>1478.8</ele>
        <time>2019-01-07T21:17:42Z</time>
      </trkpt>
      <trkpt lat="42.37712" lon="2.2969">
        <ele>1476.9</ele>
        <time>2019-01-07T21:17:44Z</time>
      </trkpt>
      <trkpt lat="42.37705" lon="2.29698">
        <ele>1476.2</ele>
        <time>2019-01-07T21:17:47Z</time>
      </trkpt>
      <trkpt lat="42.37696" lon="2.29704">
        <ele>1472.8</ele>
        <time>2019-01-07T21:17:49Z</time>
      </trkpt>
      <trkpt lat="42.37686" lon="2.29708">
        <ele>1470.3</ele>
        <time>2019-01-07T21:17:52Z</time>
      </trkpt>
      <trkpt lat="42.37676" lon="2.29711">
        <ele>1468.3</ele>
        <time>2019-01-07T21:17:55Z</time>
      </trkpt>
      <trkpt lat="42.37667" lon="2.29716">
        <ele>1466.6</ele>
        <time>2019-01-07T21:17:58Z</time>
      </trkpt>
      <trkpt lat="42.37658" lon="2.29719">
        <ele>1464.6</ele>
        <time>2019-01-07T21:18:00Z</time>
      </trkpt>
      <trkpt lat="42.37648" lon="2.29718">
        <ele>1462.2</ele>
        <time>2019-01-07T21:18:03Z</time>
      </trkpt>
      <trkpt lat="42.37639" lon="2.29716">
        <ele>1461.3</ele>
        <time>2019-01-07T21:18:05Z</time>
      </trkpt>
      <trkpt lat="42.3763" lon="2.29713">
        <ele>1460</ele>
        <time>2019-01-07T21:18:08Z</time>
      </trkpt>
      <trkpt lat="42.37621" lon="2.29708">
        <ele>1459</ele>
        <time>2019-01-07T21:18:10Z</time>
      </trkpt>
      <trkpt lat="42.37611" lon="2.29704">
        <ele>1458.2</ele>
        <time>2019-01-07T21:18:13Z</time>
      </trkpt>
      <trkpt lat="42.37602" lon="2.29701">
        <ele>1457.6</ele>
        <time>2019-01-07T21:18:16Z</time>
      </trkpt>
      <trkpt lat="42.37592" lon="2.29695">
        <ele>1456.6</ele>
        <time>2019-01-07T21:18:18Z</time>
      </trkpt>
      <trkpt lat="42.37583" lon="2.29693">
        <ele>1455.6</ele>
        <time>2019-01-07T21:18:21Z</time>
      </trkpt>
      <trkpt lat="42.37574" lon="2.2969">
        <ele>1454.1</ele>
        <time>2019-01-07T21:18:23Z</time>
      </trkpt>
      <trkpt lat="42.37564" lon="2.29686">
        <ele>1452.6</ele>
        <time>2019-01-07T21:18:26Z</time>
      </trkpt>
      <trkpt lat="42.37556" lon="2.29679">
        <ele>1451.6</ele>
        <time>2019-01-07T21:18:29Z</time>
      </trkpt>
      <trkpt lat="42.37548" lon="2.29672">
        <ele>1451</ele>
        <time>2019-01-07T21:18:31Z</time>
      </trkpt>
      <trkpt lat="42.37539" lon="2.29668">
        <ele>1450.4</ele>
        <time>2019-01-07T21:18:34Z</time>
      </trkpt>
      <trkpt lat="42.37528" lon="2.29665">
        <ele>1449.4</ele>
        <time>2019-01-07T21:18:37Z</time>
      </trkpt>
      <trkpt lat="42.37521" lon="2.29657">
        <ele>1448</ele>
        <time>2019-01-07T21:18:39Z</time>
      </trkpt>
      <trkpt lat="42.37513" lon="2.29652">
        <ele>1448</ele>
        <time>2019-01-07T21:18:41Z</time>
      </trkpt>
      <trkpt lat="42.37505" lon="2.29645">
        <ele>1447.6</ele>
        <time>2019-01-07T21:18:44Z</time>
      </trkpt>
      <trkpt lat="42.37497" lon="2.29638">
        <ele>1446.4</ele>
        <time>2019-01-07T21:18:46Z</time>
      </trkpt>
      <trkpt lat="42.37489" lon="2.29633">
        <ele>1443.9</ele>
        <time>2019-01-07T21:18:49Z</time>
      </trkpt>
      <trkpt lat="42.37479" lon="2.29628">
        <ele>1442.5</ele>
        <time>2019-01-07T21:18:52Z</time>
      </trkpt>
      <trkpt lat="42.3747" lon="2.29626">
        <ele>1441.5</ele>
        <time>2019-01-07T21:18:54Z</time>
      </trkpt>
      <trkpt lat="42.37461" lon="2.29623">
        <ele>1440.5</ele>
        <time>2019-01-07T21:18:57Z</time>
      </trkpt>
      <trkpt lat="42.37451" lon="2.29622">
        <ele>1438.1</ele>
        <time>2019-01-07T21:18:59Z</time>
      </trkpt>
      <trkpt lat="42.37441" lon="2.29621">
        <ele>1436.6</ele>
        <time>2019-01-07T21:19:02Z</time>
      </trkpt>
      <trkpt lat="42.37432" lon="2.29619">
        <ele>1436</ele>
        <time>2019-01-07T21:19:04Z</time>
      </trkpt>
      <trkpt lat="42.37422" lon="2.29621">
        <ele>1433.3</ele>
        <time>2019-01-07T21:19:07Z</time>
      </trkpt>
      <trkpt lat="42.37413" lon="2.29625">
        <ele>1430.4</ele>
        <time>2019-01-07T21:19:10Z</time>
      </trkpt>
      <trkpt lat="42.37403" lon="2.29623">
        <ele>1427.7</ele>
        <time>2019-01-07T21:19:12Z</time>
      </trkpt>
      <trkpt lat="42.37395" lon="2.2963">
        <ele>1425.2</ele>
        <time>2019-01-07T21:19:15Z</time>
      </trkpt>
      <trkpt lat="42.37389" lon="2.29641">
        <ele>1422.2</ele>
        <time>2019-01-07T21:19:18Z</time>
      </trkpt>
      <trkpt lat="42.37381" lon="2.29633">
        <ele>1418</ele>
        <time>2019-01-07T21:19:20Z</time>
      </trkpt>
      <trkpt lat="42.37381" lon="2.29619">
        <ele>1417.1</ele>
        <time>2019-01-07T21:19:23Z</time>
      </trkpt>
      <trkpt lat="42.37373" lon="2.29626">
        <ele>1411.8</ele>
        <time>2019-01-07T21:19:25Z</time>
      </trkpt>
      <trkpt lat="42.37369" lon="2.29638">
        <ele>1411.1</ele>
        <time>2019-01-07T21:19:28Z</time>
      </trkpt>
      <trkpt lat="42.37369" lon="2.29651">
        <ele>1410.5</ele>
        <time>2019-01-07T21:19:30Z</time>
      </trkpt>
      <trkpt lat="42.37371" lon="2.29663">
        <ele>1409.1</ele>
        <time>2019-01-07T21:19:33Z</time>
      </trkpt>
      <trkpt lat="42.37374" lon="2.29675">
        <ele>1407.6</ele>
        <time>2019-01-07T21:19:35Z</time>
      </trkpt>
      <trkpt lat="42.37377" lon="2.29688">
        <ele>1405.2</ele>
        <time>2019-01-07T21:19:38Z</time>
      </trkpt>
      <trkpt lat="42.37382" lon="2.297">
        <ele>1404.3</ele>
        <time>2019-01-07T21:19:41Z</time>
      </trkpt>
      <trkpt lat="42.37385" lon="2.29712">
        <ele>1402.2</ele>
        <time>2019-01-07T21:19:43Z</time>
      </trkpt>
      <trkpt lat="42.37393" lon="2.2972">
        <ele>1399.9</ele>
        <time>2019-01-07T21:19:46Z</time>
      </trkpt>
      <trkpt lat="42.37383" lon="2.29719">
        <ele>1395.4</ele>
        <time>2019-01-07T21:19:48Z</time>
      </trkpt>
      <trkpt lat="42.37376" lon="2.29711">
        <ele>1394.2</ele>
        <time>2019-01-07T21:19:51Z</time>
      </trkpt>
      <trkpt lat="42.37368" lon="2.29705">
        <ele>1393</ele>
        <time>2019-01-07T21:19:53Z</time>
      </trkpt>
      <trkpt lat="42.37361" lon="2.29697">
        <ele>1393</ele>
        <time>2019-01-07T21:19:56Z</time>
      </trkpt>
      <trkpt lat="42.37353" lon="2.2969">
        <ele>1392.7</ele>
        <time>2019-01-07T21:19:58Z</time>
      </trkpt>
      <trkpt lat="42.37345" lon="2.29682">
        <ele>1392.1</ele>
        <time>2019-01-07T21:20:01Z</time>
      </trkpt>
      <trkpt lat="42.37338" lon="2.29673">
        <ele>1391.5</ele>
        <time>2019-01-07T21:20:03Z</time>
      </trkpt>
      <trkpt lat="42.37332" lon="2.29664">
        <ele>1389.2</ele>
        <time>2019-01-07T21:20:06Z</time>
      </trkpt>
      <trkpt lat="42.3733" lon="2.29652">
        <ele>1386.9</ele>
        <time>2019-01-07T21:20:08Z</time>
      </trkpt>
      <trkpt lat="42.37332" lon="2.29638">
        <ele>1386.2</ele>
        <time>2019-01-07T21:20:11Z</time>
      </trkpt>
      <trkpt lat="42.37333" lon="2.29625">
        <ele>1385.4</ele>
        <time>2019-01-07T21:20:14Z</time>
      </trkpt>
      <trkpt lat="42.3733" lon="2.29612">
        <ele>1384.1</ele>
        <time>2019-01-07T21:20:16Z</time>
      </trkpt>
      <trkpt lat="42.37326" lon="2.29599">
        <ele>1382.4</ele>
        <time>2019-01-07T21:20:19Z</time>
      </trkpt>
      <trkpt lat="42.37318" lon="2.29605">
        <ele>1378.7</ele>
        <time>2019-01-07T21:20:21Z</time>
      </trkpt>
      <trkpt lat="42.37316" lon="2.29617">
        <ele>1377.9</ele>
        <time>2019-01-07T21:20:24Z</time>
      </trkpt>
      <trkpt lat="42.37313" lon="2.29631">
        <ele>1376.4</ele>
        <time>2019-01-07T21:20:27Z</time>
      </trkpt>
      <trkpt lat="42.3731" lon="2.29643">
        <ele>1375.5</ele>
        <time>2019-01-07T21:20:29Z</time>
      </trkpt>
      <trkpt lat="42.37306" lon="2.29654">
        <ele>1373.9</ele>
        <time>2019-01-07T21:20:32Z</time>
      </trkpt>
      <trkpt lat="42.37301" lon="2.29665">
        <ele>1369.4</ele>
        <time>2019-01-07T21:20:34Z</time>
      </trkpt>
      <trkpt lat="42.37294" lon="2.29675">
        <ele>1368.3</ele>
        <time>2019-01-07T21:20:37Z</time>
      </trkpt>
      <trkpt lat="42.37288" lon="2.29686">
        <ele>1367.4</ele>
        <time>2019-01-07T21:20:40Z</time>
      </trkpt>
      <trkpt lat="42.3728" lon="2.29694">
        <ele>1365.3</ele>
        <time>2019-01-07T21:20:42Z</time>
      </trkpt>
      <trkpt lat="42.37276" lon="2.29704">
        <ele>1362.3</ele>
        <time>2019-01-07T21:20:45Z</time>
      </trkpt>
      <trkpt lat="42.37271" lon="2.29715">
        <ele>1359.3</ele>
        <time>2019-01-07T21:20:47Z</time>
      </trkpt>
      <trkpt lat="42.37278" lon="2.29724">
        <ele>1356</ele>
        <time>2019-01-07T21:20:50Z</time>
      </trkpt>
      <trkpt lat="42.37284" lon="2.29734">
        <ele>1354.7</ele>
        <time>2019-01-07T21:20:52Z</time>
      </trkpt>
      <trkpt lat="42.3729" lon="2.29744">
        <ele>1354.1</ele>
        <time>2019-01-07T21:20:55Z</time>
      </trkpt>
      <trkpt lat="42.37298" lon="2.29751">
        <ele>1352.9</ele>
        <time>2019-01-07T21:20:57Z</time>
      </trkpt>
      <trkpt lat="42.37306" lon="2.29758">
        <ele>1350.5</ele>
        <time>2019-01-07T21:21:00Z</time>
      </trkpt>
      <trkpt lat="42.37314" lon="2.29766">
        <ele>1348.1</ele>
        <time>2019-01-07T21:21:02Z</time>
      </trkpt>
      <trkpt lat="42.37323" lon="2.29768">
        <ele>1348.2</ele>
        <time>2019-01-07T21:21:05Z</time>
      </trkpt>
      <trkpt lat="42.37333" lon="2.29773">
        <ele>1347.8</ele>
        <time>2019-01-07T21:21:08Z</time>
      </trkpt>
      <trkpt lat="42.37341" lon="2.29782">
        <ele>1347.2</ele>
        <time>2019-01-07T21:21:10Z</time>
      </trkpt>
      <trkpt lat="42.37349" lon="2.2979">
        <ele>1345.6</ele>
        <time>2019-01-07T21:21:13Z</time>
      </trkpt>
      <trkpt lat="42.37356" lon="2.29799">
        <ele>1343.6</ele>
        <time>2019-01-07T21:21:16Z</time>
      </trkpt>
      <trkpt lat="42.37358" lon="2.29811">
        <ele>1342.9</ele>
        <time>2019-01-07T21:21:18Z</time>
      </trkpt>
      <trkpt lat="42.37367" lon="2.29823">
        <ele>1342.1</ele>
        <time>2019-01-07T21:21:21Z</time>
      </trkpt>
      <trkpt lat="42.37375" lon="2.29828">
        <ele>1342.1</ele>
        <time>2019-01-07T21:21:24Z</time>
      </trkpt>
      <trkpt lat="42.37383" lon="2.29836">
        <ele>1340.2</ele>
        <time>2019-01-07T21:21:27Z</time>
      </trkpt>
      <trkpt lat="42.37391" lon="2.29842">
        <ele>1338</ele>
        <time>2019-01-07T21:21:29Z</time>
      </trkpt>
      <trkpt lat="42.37402" lon="2.2984">
        <ele>1337.4</ele>
        <time>2019-01-07T21:21:32Z</time>
      </trkpt>
      <trkpt lat="42.37413" lon="2.29843">
        <ele>1336.1</ele>
        <time>2019-01-07T21:21:35Z</time>
      </trkpt>
      <trkpt lat="42.37422" lon="2.29846">
        <ele>1335.1</ele>
        <time>2019-01-07T21:21:37Z</time>
      </trkpt>
      <trkpt lat="42.37431" lon="2.2985">
        <ele>1335.1</ele>
        <time>2019-01-07T21:21:40Z</time>
      </trkpt>
      <trkpt lat="42.37434" lon="2.29864">
        <ele>1335.1</ele>
        <time>2019-01-07T21:21:43Z</time>
      </trkpt>
      <trkpt lat="42.37438" lon="2.29876">
        <ele>1334.9</ele>
        <time>2019-01-07T21:21:45Z</time>
      </trkpt>
      <trkpt lat="42.37439" lon="2.2989">
        <ele>1333.7</ele>
        <time>2019-01-07T21:21:48Z</time>
      </trkpt>
      <trkpt lat="42.37441" lon="2.29904">
        <ele>1332.6</ele>
        <time>2019-01-07T21:21:51Z</time>
      </trkpt>
      <trkpt lat="42.37446" lon="2.29914">
        <ele>1331.2</ele>
        <time>2019-01-07T21:21:53Z</time>
      </trkpt>
      <trkpt lat="42.37455" lon="2.29921">
        <ele>1330</ele>
        <time>2019-01-07T21:21:56Z</time>
      </trkpt>
      <trkpt lat="42.37464" lon="2.29926">
        <ele>1328.9</ele>
        <time>2019-01-07T21:21:59Z</time>
      </trkpt>
      <trkpt lat="42.37472" lon="2.29931">
        <ele>1328.3</ele>
        <time>2019-01-07T21:22:01Z</time>
      </trkpt>
      <trkpt lat="42.37479" lon="2.29941">
        <ele>1327.2</ele>
        <time>2019-01-07T21:22:04Z</time>
      </trkpt>
      <trkpt lat="42.37486" lon="2.2995">
        <ele>1325.9</ele>
        <time>2019-01-07T21:22:06Z</time>
      </trkpt>
      <trkpt lat="42.3749" lon="2.29963">
        <ele>1323.3</ele>
        <time>2019-01-07T21:22:09Z</time>
      </trkpt>
      <trkpt lat="42.37496" lon="2.29973">
        <ele>1319.6</ele>
        <time>2019-01-07T21:22:12Z</time>
      </trkpt>
      <trkpt lat="42.37503" lon="2.29983">
        <ele>1318.5</ele>
        <time>2019-01-07T21:22:14Z</time>
      </trkpt>
      <trkpt lat="42.3751" lon="2.2999">
        <ele>1317.6</ele>
        <time>2019-01-07T21:22:17Z</time>
      </trkpt>
      <trkpt lat="42.37515" lon="2.30002">
        <ele>1315.8</ele>
        <time>2019-01-07T21:22:19Z</time>
      </trkpt>
      <trkpt lat="42.37515" lon="2.30015">
        <ele>1312.7</ele>
        <time>2019-01-07T21:22:22Z</time>
      </trkpt>
      <trkpt lat="42.37513" lon="2.30028">
        <ele>1308.7</ele>
        <time>2019-01-07T21:22:25Z</time>
      </trkpt>
      <trkpt lat="42.37511" lon="2.30042">
        <ele>1305.9</ele>
        <time>2019-01-07T21:22:27Z</time>
      </trkpt>
      <trkpt lat="42.37514" lon="2.30054">
        <ele>1303.8</ele>
        <time>2019-01-07T21:22:30Z</time>
      </trkpt>
      <trkpt lat="42.37514" lon="2.30067">
        <ele>1300.5</ele>
        <time>2019-01-07T21:22:32Z</time>
      </trkpt>
      <trkpt lat="42.37516" lon="2.30079">
        <ele>1298.7</ele>
        <time>2019-01-07T21:22:35Z</time>
      </trkpt>
      <trkpt lat="42.37521" lon="2.3009">
        <ele>1295.1</ele>
        <time>2019-01-07T21:22:37Z</time>
      </trkpt>
      <trkpt lat="42.37528" lon="2.30099">
        <ele>1295</ele>
        <time>2019-01-07T21:22:40Z</time>
      </trkpt>
      <trkpt lat="42.37535" lon="2.30109">
        <ele>1295.1</ele>
        <time>2019-01-07T21:22:43Z</time>
      </trkpt>
      <trkpt lat="42.3754" lon="2.30119">
        <ele>1295.1</ele>
        <time>2019-01-07T21:22:45Z</time>
      </trkpt>
      <trkpt lat="42.37531" lon="2.30123">
        <ele>1294</ele>
        <time>2019-01-07T21:22:47Z</time>
      </trkpt>
      <trkpt lat="42.37522" lon="2.30129">
        <ele>1292.2</ele>
        <time>2019-01-07T21:22:50Z</time>
      </trkpt>
      <trkpt lat="42.37514" lon="2.30135">
        <ele>1289.6</ele>
        <time>2019-01-07T21:22:53Z</time>
      </trkpt>
      <trkpt lat="42.37459" lon="2.30141">
        <ele>1263.6</ele>
        <time>2019-01-07T21:23:07Z</time>
      </trkpt>
      <trkpt lat="42.37463" lon="2.30127">
        <ele>1264.3</ele>
        <time>2019-01-07T21:23:10Z</time>
      </trkpt>
      <trkpt lat="42.37464" lon="2.30139">
        <ele>1264.2</ele>
        <time>2019-01-07T21:23:13Z</time>
      </trkpt>
      <trkpt lat="42.37466" lon="2.30142">
        <ele>1264.3</ele>
        <time>2019-01-07T21:23:13Z</time>
      </trkpt>
      <trkpt lat="42.37469" lon="2.30145">
        <ele>1264.7</ele>
        <time>2019-01-07T21:23:14Z</time>
      </trkpt>
      <trkpt lat="42.3747" lon="2.30148">
        <ele>1264.8</ele>
        <time>2019-01-07T21:23:15Z</time>
      </trkpt>
      <trkpt lat="42.37471" lon="2.30152">
        <ele>1264.9</ele>
        <time>2019-01-07T21:23:16Z</time>
      </trkpt>
      <trkpt lat="42.37473" lon="2.30155">
        <ele>1265.2</ele>
        <time>2019-01-07T21:23:17Z</time>
      </trkpt>
      <trkpt lat="42.37475" lon="2.30158">
        <ele>1265.3</ele>
        <time>2019-01-07T21:23:17Z</time>
      </trkpt>
      <trkpt lat="42.37477" lon="2.30161">
        <ele>1265.4</ele>
        <time>2019-01-07T21:23:18Z</time>
      </trkpt>
      <trkpt lat="42.37479" lon="2.30163">
        <ele>1265.5</ele>
        <time>2019-01-07T21:23:19Z</time>
      </trkpt>
      <trkpt lat="42.3748" lon="2.30165">
        <ele>1265.5</ele>
        <time>2019-01-07T21:23:19Z</time>
      </trkpt>
      <trkpt lat="42.37482" lon="2.30168">
        <ele>1265.5</ele>
        <time>2019-01-07T21:23:20Z</time>
      </trkpt>
      <trkpt lat="42.37485" lon="2.30171">
        <ele>1265.3</ele>
        <time>2019-01-07T21:23:21Z</time>
      </trkpt>
      <trkpt lat="42.37488" lon="2.30171">
        <ele>1265.3</ele>
        <time>2019-01-07T21:23:22Z</time>
      </trkpt>
      <trkpt lat="42.37491" lon="2.30173">
        <ele>1265.5</ele>
        <time>2019-01-07T21:23:23Z</time>
      </trkpt>
      <trkpt lat="42.37493" lon="2.30174">
        <ele>1265.6</ele>
        <time>2019-01-07T21:23:23Z</time>
      </trkpt>
      <trkpt lat="42.37496" lon="2.30176">
        <ele>1265.4</ele>
        <time>2019-01-07T21:23:24Z</time>
      </trkpt>
      <trkpt lat="42.37498" lon="2.30178">
        <ele>1265.6</ele>
        <time>2019-01-07T21:23:25Z</time>
      </trkpt>
      <trkpt lat="42.375" lon="2.3018">
        <ele>1265.6</ele>
        <time>2019-01-07T21:23:26Z</time>
      </trkpt>
      <trkpt lat="42.37502" lon="2.30182">
        <ele>1265.6</ele>
        <time>2019-01-07T21:23:26Z</time>
      </trkpt>
      <trkpt lat="42.37505" lon="2.30185">
        <ele>1265.9</ele>
        <time>2019-01-07T21:23:27Z</time>
      </trkpt>
      <trkpt lat="42.37508" lon="2.30185">
        <ele>1265.9</ele>
        <time>2019-01-07T21:23:28Z</time>
      </trkpt>
      <trkpt lat="42.3751" lon="2.30187">
        <ele>1266.1</ele>
        <time>2019-01-07T21:23:29Z</time>
      </trkpt>
      <trkpt lat="42.37513" lon="2.30189">
        <ele>1266.2</ele>
        <time>2019-01-07T21:23:29Z</time>
      </trkpt>
      <trkpt lat="42.37515" lon="2.30191">
        <ele>1265.9</ele>
        <time>2019-01-07T21:23:30Z</time>
      </trkpt>
      <trkpt lat="42.37517" lon="2.30193">
        <ele>1265.8</ele>
        <time>2019-01-07T21:23:31Z</time>
      </trkpt>
      <trkpt lat="42.3752" lon="2.30196">
        <ele>1265.7</ele>
        <time>2019-01-07T21:23:32Z</time>
      </trkpt>
      <trkpt lat="42.37522" lon="2.30198">
        <ele>1265.8</ele>
        <time>2019-01-07T21:23:32Z</time>
      </trkpt>
      <trkpt lat="42.37524" lon="2.30201">
        <ele>1265.8</ele>
        <time>2019-01-07T21:23:33Z</time>
      </trkpt>
      <trkpt lat="42.37526" lon="2.30203">
        <ele>1265.7</ele>
        <time>2019-01-07T21:23:34Z</time>
      </trkpt>
      <trkpt lat="42.37528" lon="2.30206">
        <ele>1265.8</ele>
        <time>2019-01-07T21:23:35Z</time>
      </trkpt>
      <trkpt lat="42.37531" lon="2.30208">
        <ele>1265.8</ele>
        <time>2019-01-07T21:23:35Z</time>
      </trkpt>
      <trkpt lat="42.37533" lon="2.3021">
        <ele>1266</ele>
        <time>2019-01-07T21:23:36Z</time>
      </trkpt>
      <trkpt lat="42.37535" lon="2.30212">
        <ele>1266.3</ele>
        <time>2019-01-07T21:23:37Z</time>
      </trkpt>
      <trkpt lat="42.37538" lon="2.30214">
        <ele>1266.4</ele>
        <time>2019-01-07T21:23:38Z</time>
      </trkpt>
      <trkpt lat="42.37541" lon="2.30216">
        <ele>1266.6</ele>
        <time>2019-01-07T21:23:39Z</time>
      </trkpt>
      <trkpt lat="42.37543" lon="2.30218">
        <ele>1266.5</ele>
        <time>2019-01-07T21:23:39Z</time>
      </trkpt>
      <trkpt lat="42.37545" lon="2.3022">
        <ele>1266.6</ele>
        <time>2019-01-07T21:23:40Z</time>
      </trkpt>
      <trkpt lat="42.37553" lon="2.30229">
        <ele>1266.9</ele>
        <time>2019-01-07T21:23:43Z</time>
      </trkpt>
      <trkpt lat="42.37562" lon="2.30235">
        <ele>1267.8</ele>
        <time>2019-01-07T21:23:45Z</time>
      </trkpt>
      <trkpt lat="42.37568" lon="2.30244">
        <ele>1268</ele>
        <time>2019-01-07T21:23:48Z</time>
      </trkpt>
      <trkpt lat="42.37571" lon="2.30249">
        <ele>1267.8</ele>
        <time>2019-01-07T21:23:49Z</time>
      </trkpt>
      <trkpt lat="42.37571" lon="2.30253">
        <ele>1267.4</ele>
        <time>2019-01-07T21:23:50Z</time>
      </trkpt>
      <trkpt lat="42.37573" lon="2.30261">
        <ele>1266.7</ele>
        <time>2019-01-07T21:23:52Z</time>
      </trkpt>
      <trkpt lat="42.37573" lon="2.30265">
        <ele>1266.3</ele>
        <time>2019-01-07T21:23:52Z</time>
      </trkpt>
      <trkpt lat="42.37573" lon="2.30269">
        <ele>1265.9</ele>
        <time>2019-01-07T21:23:53Z</time>
      </trkpt>
      <trkpt lat="42.37573" lon="2.30273">
        <ele>1265.5</ele>
        <time>2019-01-07T21:23:54Z</time>
      </trkpt>
      <trkpt lat="42.37573" lon="2.30277">
        <ele>1265.3</ele>
        <time>2019-01-07T21:23:55Z</time>
      </trkpt>
      <trkpt lat="42.37574" lon="2.3028">
        <ele>1265.4</ele>
        <time>2019-01-07T21:23:55Z</time>
      </trkpt>
      <trkpt lat="42.37574" lon="2.30283">
        <ele>1265.9</ele>
        <time>2019-01-07T21:23:56Z</time>
      </trkpt>
      <trkpt lat="42.37574" lon="2.30287">
        <ele>1266.5</ele>
        <time>2019-01-07T21:23:57Z</time>
      </trkpt>
      <trkpt lat="42.37574" lon="2.30291">
        <ele>1267.2</ele>
        <time>2019-01-07T21:23:57Z</time>
      </trkpt>
      <trkpt lat="42.37574" lon="2.30295">
        <ele>1267.8</ele>
        <time>2019-01-07T21:23:58Z</time>
      </trkpt>
      <trkpt lat="42.37574" lon="2.30299">
        <ele>1268.5</ele>
        <time>2019-01-07T21:23:59Z</time>
      </trkpt>
      <trkpt lat="42.37573" lon="2.30303">
        <ele>1268.8</ele>
        <time>2019-01-07T21:24:00Z</time>
      </trkpt>
      <trkpt lat="42.37571" lon="2.30305">
        <ele>1269</ele>
        <time>2019-01-07T21:24:01Z</time>
      </trkpt>
      <trkpt lat="42.37569" lon="2.30306">
        <ele>1269.2</ele>
        <time>2019-01-07T21:24:01Z</time>
      </trkpt>
      <trkpt lat="42.37566" lon="2.30306">
        <ele>1268.9</ele>
        <time>2019-01-07T21:24:02Z</time>
      </trkpt>
      <trkpt lat="42.37563" lon="2.30307">
        <ele>1268.8</ele>
        <time>2019-01-07T21:24:03Z</time>
      </trkpt>
      <trkpt lat="42.37559" lon="2.30307">
        <ele>1268.6</ele>
        <time>2019-01-07T21:24:04Z</time>
      </trkpt>
      <trkpt lat="42.37556" lon="2.30308">
        <ele>1268.4</ele>
        <time>2019-01-07T21:24:05Z</time>
      </trkpt>
      <trkpt lat="42.37554" lon="2.30309">
        <ele>1268.3</ele>
        <time>2019-01-07T21:24:05Z</time>
      </trkpt>
      <trkpt lat="42.37552" lon="2.3031">
        <ele>1268.4</ele>
        <time>2019-01-07T21:24:06Z</time>
      </trkpt>
      <trkpt lat="42.37549" lon="2.30312">
        <ele>1268.6</ele>
        <time>2019-01-07T21:24:07Z</time>
      </trkpt>
      <trkpt lat="42.37546" lon="2.30316">
        <ele>1269.1</ele>
        <time>2019-01-07T21:24:08Z</time>
      </trkpt>
      <trkpt lat="42.37543" lon="2.3032">
        <ele>1269.6</ele>
        <time>2019-01-07T21:24:09Z</time>
      </trkpt>
      <trkpt lat="42.37542" lon="2.30323">
        <ele>1270</ele>
        <time>2019-01-07T21:24:10Z</time>
      </trkpt>
      <trkpt lat="42.37542" lon="2.30327">
        <ele>1270.5</ele>
        <time>2019-01-07T21:24:10Z</time>
      </trkpt>
      <trkpt lat="42.37542" lon="2.3033">
        <ele>1271.1</ele>
        <time>2019-01-07T21:24:11Z</time>
      </trkpt>
      <trkpt lat="42.37542" lon="2.30333">
        <ele>1271.7</ele>
        <time>2019-01-07T21:24:12Z</time>
      </trkpt>
      <trkpt lat="42.37543" lon="2.30337">
        <ele>1271.9</ele>
        <time>2019-01-07T21:24:12Z</time>
      </trkpt>
      <trkpt lat="42.37543" lon="2.3034">
        <ele>1272.3</ele>
        <time>2019-01-07T21:24:13Z</time>
      </trkpt>
      <trkpt lat="42.37543" lon="2.30344">
        <ele>1272.4</ele>
        <time>2019-01-07T21:24:14Z</time>
      </trkpt>
      <trkpt lat="42.37544" lon="2.30348">
        <ele>1272.8</ele>
        <time>2019-01-07T21:24:14Z</time>
      </trkpt>
      <trkpt lat="42.37545" lon="2.30351">
        <ele>1272.9</ele>
        <time>2019-01-07T21:24:15Z</time>
      </trkpt>
      <trkpt lat="42.37546" lon="2.30355">
        <ele>1273</ele>
        <time>2019-01-07T21:24:16Z</time>
      </trkpt>
      <trkpt lat="42.37547" lon="2.30358">
        <ele>1273.2</ele>
        <time>2019-01-07T21:24:17Z</time>
      </trkpt>
      <trkpt lat="42.37548" lon="2.30361">
        <ele>1273</ele>
        <time>2019-01-07T21:24:17Z</time>
      </trkpt>
      <trkpt lat="42.37549" lon="2.30364">
        <ele>1273</ele>
        <time>2019-01-07T21:24:18Z</time>
      </trkpt>
      <trkpt lat="42.3755" lon="2.30367">
        <ele>1272.9</ele>
        <time>2019-01-07T21:24:19Z</time>
      </trkpt>
      <trkpt lat="42.37551" lon="2.3037">
        <ele>1272.9</ele>
        <time>2019-01-07T21:24:19Z</time>
      </trkpt>
      <trkpt lat="42.37552" lon="2.30373">
        <ele>1272.4</ele>
        <time>2019-01-07T21:24:20Z</time>
      </trkpt>
      <trkpt lat="42.37554" lon="2.30376">
        <ele>1272.3</ele>
        <time>2019-01-07T21:24:21Z</time>
      </trkpt>
      <trkpt lat="42.37554" lon="2.3038">
        <ele>1272.2</ele>
        <time>2019-01-07T21:24:21Z</time>
      </trkpt>
      <trkpt lat="42.37556" lon="2.30382">
        <ele>1271.9</ele>
        <time>2019-01-07T21:24:22Z</time>
      </trkpt>
      <trkpt lat="42.37557" lon="2.30384">
        <ele>1272.5</ele>
        <time>2019-01-07T21:24:23Z</time>
      </trkpt>
      <trkpt lat="42.37555" lon="2.30385">
        <ele>1272</ele>
        <time>2019-01-07T21:24:23Z</time>
      </trkpt>
      <trkpt lat="42.37553" lon="2.30386">
        <ele>1272.9</ele>
        <time>2019-01-07T21:24:24Z</time>
      </trkpt>
      <trkpt lat="42.37551" lon="2.30387">
        <ele>1273.9</ele>
        <time>2019-01-07T21:24:24Z</time>
      </trkpt>
      <trkpt lat="42.37548" lon="2.30387">
        <ele>1275</ele>
        <time>2019-01-07T21:24:25Z</time>
      </trkpt>
      <trkpt lat="42.37546" lon="2.30389">
        <ele>1275.7</ele>
        <time>2019-01-07T21:24:26Z</time>
      </trkpt>
      <trkpt lat="42.37543" lon="2.30395">
        <ele>1278.3</ele>
        <time>2019-01-07T21:24:27Z</time>
      </trkpt>
      <trkpt lat="42.37541" lon="2.30396">
        <ele>1279.2</ele>
        <time>2019-01-07T21:24:27Z</time>
      </trkpt>
      <trkpt lat="42.37539" lon="2.30393">
        <ele>1279.7</ele>
        <time>2019-01-07T21:24:28Z</time>
      </trkpt>
      <trkpt lat="42.37529" lon="2.30391">
        <ele>1283.2</ele>
        <time>2019-01-07T21:24:31Z</time>
      </trkpt>
      <trkpt lat="42.37529" lon="2.30404">
        <ele>1285.7</ele>
        <time>2019-01-07T21:24:34Z</time>
      </trkpt>
      <trkpt lat="42.37529" lon="2.30414">
        <ele>1288</ele>
        <time>2019-01-07T21:24:35Z</time>
      </trkpt>
      <trkpt lat="42.37532" lon="2.30424">
        <ele>1289.6</ele>
        <time>2019-01-07T21:24:38Z</time>
      </trkpt>
      <trkpt lat="42.37525" lon="2.30428">
        <ele>1293.9</ele>
        <time>2019-01-07T21:24:40Z</time>
      </trkpt>
      <trkpt lat="42.37524" lon="2.30427">
        <ele>1294.8</ele>
        <time>2019-01-07T21:24:40Z</time>
      </trkpt>
      <trkpt lat="42.37523" lon="2.30424">
        <ele>1294.7</ele>
        <time>2019-01-07T21:24:41Z</time>
      </trkpt>
      <trkpt lat="42.37521" lon="2.30422">
        <ele>1295</ele>
        <time>2019-01-07T21:24:41Z</time>
      </trkpt>
      <trkpt lat="42.3752" lon="2.3042">
        <ele>1295.4</ele>
        <time>2019-01-07T21:24:42Z</time>
      </trkpt>
      <trkpt lat="42.37518" lon="2.30419">
        <ele>1295.9</ele>
        <time>2019-01-07T21:24:43Z</time>
      </trkpt>
      <trkpt lat="42.37516" lon="2.30417">
        <ele>1296.6</ele>
        <time>2019-01-07T21:24:43Z</time>
      </trkpt>
      <trkpt lat="42.37515" lon="2.30414">
        <ele>1297.2</ele>
        <time>2019-01-07T21:24:44Z</time>
      </trkpt>
      <trkpt lat="42.37513" lon="2.30413">
        <ele>1298.4</ele>
        <time>2019-01-07T21:24:44Z</time>
      </trkpt>
      <trkpt lat="42.37511" lon="2.30411">
        <ele>1299.3</ele>
        <time>2019-01-07T21:24:45Z</time>
      </trkpt>
      <trkpt lat="42.37508" lon="2.30408">
        <ele>1300.3</ele>
        <time>2019-01-07T21:24:46Z</time>
      </trkpt>
      <trkpt lat="42.37507" lon="2.30405">
        <ele>1300.8</ele>
        <time>2019-01-07T21:24:47Z</time>
      </trkpt>
      <trkpt lat="42.37506" lon="2.30403">
        <ele>1300.7</ele>
        <time>2019-01-07T21:24:47Z</time>
      </trkpt>
      <trkpt lat="42.37505" lon="2.304">
        <ele>1301.2</ele>
        <time>2019-01-07T21:24:48Z</time>
      </trkpt>
      <trkpt lat="42.37503" lon="2.30399">
        <ele>1302.5</ele>
        <time>2019-01-07T21:24:48Z</time>
      </trkpt>
      <trkpt lat="42.37502" lon="2.30397">
        <ele>1302.5</ele>
        <time>2019-01-07T21:24:49Z</time>
      </trkpt>
      <trkpt lat="42.37502" lon="2.30394">
        <ele>1302.4</ele>
        <time>2019-01-07T21:24:49Z</time>
      </trkpt>
      <trkpt lat="42.375" lon="2.30392">
        <ele>1303.4</ele>
        <time>2019-01-07T21:24:50Z</time>
      </trkpt>
      <trkpt lat="42.37499" lon="2.3039">
        <ele>1304</ele>
        <time>2019-01-07T21:24:51Z</time>
      </trkpt>
      <trkpt lat="42.37498" lon="2.30387">
        <ele>1304</ele>
        <time>2019-01-07T21:24:51Z</time>
      </trkpt>
      <trkpt lat="42.37497" lon="2.30385">
        <ele>1304</ele>
        <time>2019-01-07T21:24:52Z</time>
      </trkpt>
      <trkpt lat="42.37495" lon="2.30383">
        <ele>1304.2</ele>
        <time>2019-01-07T21:24:52Z</time>
      </trkpt>
      <trkpt lat="42.37493" lon="2.30381">
        <ele>1304.7</ele>
        <time>2019-01-07T21:24:53Z</time>
      </trkpt>
      <trkpt lat="42.37491" lon="2.30381">
        <ele>1305.2</ele>
        <time>2019-01-07T21:24:53Z</time>
      </trkpt>
      <trkpt lat="42.37489" lon="2.3038">
        <ele>1305.7</ele>
        <time>2019-01-07T21:24:54Z</time>
      </trkpt>
      <trkpt lat="42.37487" lon="2.30379">
        <ele>1306.4</ele>
        <time>2019-01-07T21:24:55Z</time>
      </trkpt>
      <trkpt lat="42.37485" lon="2.30379">
        <ele>1306.9</ele>
        <time>2019-01-07T21:24:55Z</time>
      </trkpt>
      <trkpt lat="42.37482" lon="2.30379">
        <ele>1307.7</ele>
        <time>2019-01-07T21:24:56Z</time>
      </trkpt>
      <trkpt lat="42.3748" lon="2.30378">
        <ele>1308.2</ele>
        <time>2019-01-07T21:24:56Z</time>
      </trkpt>
      <trkpt lat="42.37478" lon="2.30378">
        <ele>1309</ele>
        <time>2019-01-07T21:24:57Z</time>
      </trkpt>
      <trkpt lat="42.37475" lon="2.30377">
        <ele>1309.6</ele>
        <time>2019-01-07T21:24:58Z</time>
      </trkpt>
      <trkpt lat="42.37473" lon="2.30377">
        <ele>1310.3</ele>
        <time>2019-01-07T21:24:58Z</time>
      </trkpt>
      <trkpt lat="42.37471" lon="2.30377">
        <ele>1310.8</ele>
        <time>2019-01-07T21:24:59Z</time>
      </trkpt>
      <trkpt lat="42.37468" lon="2.30378">
        <ele>1312.5</ele>
        <time>2019-01-07T21:25:00Z</time>
      </trkpt>
      <trkpt lat="42.37461" lon="2.30381">
        <ele>1316.1</ele>
        <time>2019-01-07T21:25:02Z</time>
      </trkpt>
      <trkpt lat="42.37459" lon="2.30379">
        <ele>1315.7</ele>
        <time>2019-01-07T21:25:02Z</time>
      </trkpt>
      <trkpt lat="42.37457" lon="2.30379">
        <ele>1316.2</ele>
        <time>2019-01-07T21:25:03Z</time>
      </trkpt>
      <trkpt lat="42.37455" lon="2.30378">
        <ele>1316.5</ele>
        <time>2019-01-07T21:25:03Z</time>
      </trkpt>
      <trkpt lat="42.37453" lon="2.30378">
        <ele>1316.8</ele>
        <time>2019-01-07T21:25:04Z</time>
      </trkpt>
      <trkpt lat="42.37443" lon="2.3038">
        <ele>1320.9</ele>
        <time>2019-01-07T21:25:07Z</time>
      </trkpt>
      <trkpt lat="42.37435" lon="2.30378">
        <ele>1321.8</ele>
        <time>2019-01-07T21:25:09Z</time>
      </trkpt>
      <trkpt lat="42.37433" lon="2.30378">
        <ele>1322.8</ele>
        <time>2019-01-07T21:25:09Z</time>
      </trkpt>
      <trkpt lat="42.37424" lon="2.3038">
        <ele>1325.9</ele>
        <time>2019-01-07T21:25:12Z</time>
      </trkpt>
      <trkpt lat="42.37413" lon="2.30378">
        <ele>1326.8</ele>
        <time>2019-01-07T21:25:15Z</time>
      </trkpt>
      <trkpt lat="42.37404" lon="2.30381">
        <ele>1328.3</ele>
        <time>2019-01-07T21:25:17Z</time>
      </trkpt>
      <trkpt lat="42.37397" lon="2.30387">
        <ele>1331.9</ele>
        <time>2019-01-07T21:25:20Z</time>
      </trkpt>
      <trkpt lat="42.37391" lon="2.30397">
        <ele>1338</ele>
        <time>2019-01-07T21:25:22Z</time>
      </trkpt>
      <trkpt lat="42.37382" lon="2.304">
        <ele>1341</ele>
        <time>2019-01-07T21:25:24Z</time>
      </trkpt>
      <trkpt lat="42.37374" lon="2.30392">
        <ele>1339.5</ele>
        <time>2019-01-07T21:25:27Z</time>
      </trkpt>
      <trkpt lat="42.37369" lon="2.30382">
        <ele>1337.9</ele>
        <time>2019-01-07T21:25:29Z</time>
      </trkpt>
      <trkpt lat="42.37365" lon="2.3037">
        <ele>1336.1</ele>
        <time>2019-01-07T21:25:32Z</time>
      </trkpt>
      <trkpt lat="42.37361" lon="2.30367">
        <ele>1337.6</ele>
        <time>2019-01-07T21:25:33Z</time>
      </trkpt>
      <trkpt lat="42.3736" lon="2.30365">
        <ele>1338.1</ele>
        <time>2019-01-07T21:25:34Z</time>
      </trkpt>
      <trkpt lat="42.37358" lon="2.30363">
        <ele>1338.3</ele>
        <time>2019-01-07T21:25:34Z</time>
      </trkpt>
      <trkpt lat="42.37356" lon="2.3036">
        <ele>1338.7</ele>
        <time>2019-01-07T21:25:35Z</time>
      </trkpt>
      <trkpt lat="42.37354" lon="2.30359">
        <ele>1338.9</ele>
        <time>2019-01-07T21:25:36Z</time>
      </trkpt>
      <trkpt lat="42.37352" lon="2.30358">
        <ele>1339.8</ele>
        <time>2019-01-07T21:25:36Z</time>
      </trkpt>
      <trkpt lat="42.3735" lon="2.30357">
        <ele>1340.4</ele>
        <time>2019-01-07T21:25:37Z</time>
      </trkpt>
      <trkpt lat="42.37348" lon="2.30356">
        <ele>1341.1</ele>
        <time>2019-01-07T21:25:37Z</time>
      </trkpt>
      <trkpt lat="42.37346" lon="2.30355">
        <ele>1341.8</ele>
        <time>2019-01-07T21:25:38Z</time>
      </trkpt>
      <trkpt lat="42.37344" lon="2.30354">
        <ele>1342.4</ele>
        <time>2019-01-07T21:25:39Z</time>
      </trkpt>
      <trkpt lat="42.37342" lon="2.30353">
        <ele>1343.1</ele>
        <time>2019-01-07T21:25:39Z</time>
      </trkpt>
      <trkpt lat="42.3734" lon="2.30353">
        <ele>1344.2</ele>
        <time>2019-01-07T21:25:40Z</time>
      </trkpt>
      <trkpt lat="42.37338" lon="2.30354">
        <ele>1345.3</ele>
        <time>2019-01-07T21:25:40Z</time>
      </trkpt>
      <trkpt lat="42.37336" lon="2.30353">
        <ele>1346.2</ele>
        <time>2019-01-07T21:25:41Z</time>
      </trkpt>
      <trkpt lat="42.37333" lon="2.30353">
        <ele>1347.2</ele>
        <time>2019-01-07T21:25:41Z</time>
      </trkpt>
      <trkpt lat="42.37332" lon="2.30352">
        <ele>1347.8</ele>
        <time>2019-01-07T21:25:42Z</time>
      </trkpt>
      <trkpt lat="42.3733" lon="2.30352">
        <ele>1348.2</ele>
        <time>2019-01-07T21:25:42Z</time>
      </trkpt>
      <trkpt lat="42.37327" lon="2.30351">
        <ele>1349</ele>
        <time>2019-01-07T21:25:43Z</time>
      </trkpt>
      <trkpt lat="42.37326" lon="2.3035">
        <ele>1349.4</ele>
        <time>2019-01-07T21:25:44Z</time>
      </trkpt>
      <trkpt lat="42.37323" lon="2.3035">
        <ele>1350</ele>
        <time>2019-01-07T21:25:44Z</time>
      </trkpt>
      <trkpt lat="42.37321" lon="2.30351">
        <ele>1351.2</ele>
        <time>2019-01-07T21:25:45Z</time>
      </trkpt>
      <trkpt lat="42.37319" lon="2.3035">
        <ele>1351.8</ele>
        <time>2019-01-07T21:25:45Z</time>
      </trkpt>
      <trkpt lat="42.37317" lon="2.3035">
        <ele>1352.7</ele>
        <time>2019-01-07T21:25:46Z</time>
      </trkpt>
      <trkpt lat="42.37315" lon="2.30351">
        <ele>1354</ele>
        <time>2019-01-07T21:25:46Z</time>
      </trkpt>
      <trkpt lat="42.37313" lon="2.30349">
        <ele>1354.2</ele>
        <time>2019-01-07T21:25:47Z</time>
      </trkpt>
      <trkpt lat="42.37311" lon="2.30348">
        <ele>1354.3</ele>
        <time>2019-01-07T21:25:48Z</time>
      </trkpt>
      <trkpt lat="42.37309" lon="2.30347">
        <ele>1354.8</ele>
        <time>2019-01-07T21:25:48Z</time>
      </trkpt>
      <trkpt lat="42.37306" lon="2.30347">
        <ele>1355.4</ele>
        <time>2019-01-07T21:25:49Z</time>
      </trkpt>
      <trkpt lat="42.37304" lon="2.30346">
        <ele>1355.9</ele>
        <time>2019-01-07T21:25:50Z</time>
      </trkpt>
      <trkpt lat="42.37302" lon="2.30346">
        <ele>1356.7</ele>
        <time>2019-01-07T21:25:50Z</time>
      </trkpt>
      <trkpt lat="42.373" lon="2.30345">
        <ele>1357</ele>
        <time>2019-01-07T21:25:51Z</time>
      </trkpt>
      <trkpt lat="42.37298" lon="2.30345">
        <ele>1357.7</ele>
        <time>2019-01-07T21:25:51Z</time>
      </trkpt>
      <trkpt lat="42.37295" lon="2.30345">
        <ele>1358.5</ele>
        <time>2019-01-07T21:25:52Z</time>
      </trkpt>
      <trkpt lat="42.37293" lon="2.30346">
        <ele>1359.9</ele>
        <time>2019-01-07T21:25:53Z</time>
      </trkpt>
      <trkpt lat="42.37291" lon="2.30347">
        <ele>1361.1</ele>
        <time>2019-01-07T21:25:53Z</time>
      </trkpt>
      <trkpt lat="42.37285" lon="2.30346">
        <ele>1362.6</ele>
        <time>2019-01-07T21:25:55Z</time>
      </trkpt>
      <trkpt lat="42.37281" lon="2.30346">
        <ele>1363.7</ele>
        <time>2019-01-07T21:25:56Z</time>
      </trkpt>
      <trkpt lat="42.37279" lon="2.30346">
        <ele>1364.3</ele>
        <time>2019-01-07T21:25:56Z</time>
      </trkpt>
      <trkpt lat="42.37277" lon="2.30346">
        <ele>1365.3</ele>
        <time>2019-01-07T21:25:57Z</time>
      </trkpt>
      <trkpt lat="42.37275" lon="2.30345">
        <ele>1365.5</ele>
        <time>2019-01-07T21:25:58Z</time>
      </trkpt>
      <trkpt lat="42.37273" lon="2.30345">
        <ele>1366.1</ele>
        <time>2019-01-07T21:25:58Z</time>
      </trkpt>
      <trkpt lat="42.3727" lon="2.30345">
        <ele>1366.6</ele>
        <time>2019-01-07T21:25:59Z</time>
      </trkpt>
      <trkpt lat="42.37268" lon="2.30345">
        <ele>1367.2</ele>
        <time>2019-01-07T21:25:59Z</time>
      </trkpt>
      <trkpt lat="42.37266" lon="2.30345">
        <ele>1368</ele>
        <time>2019-01-07T21:26:00Z</time>
      </trkpt>
      <trkpt lat="42.37264" lon="2.30346">
        <ele>1369.1</ele>
        <time>2019-01-07T21:26:01Z</time>
      </trkpt>
      <trkpt lat="42.37262" lon="2.30347">
        <ele>1370</ele>
        <time>2019-01-07T21:26:01Z</time>
      </trkpt>
      <trkpt lat="42.3726" lon="2.30348">
        <ele>1371.1</ele>
        <time>2019-01-07T21:26:02Z</time>
      </trkpt>
      <trkpt lat="42.37258" lon="2.30347">
        <ele>1371</ele>
        <time>2019-01-07T21:26:02Z</time>
      </trkpt>
      <trkpt lat="42.37256" lon="2.30346">
        <ele>1371.4</ele>
        <time>2019-01-07T21:26:03Z</time>
      </trkpt>
      <trkpt lat="42.37254" lon="2.30346">
        <ele>1371.6</ele>
        <time>2019-01-07T21:26:03Z</time>
      </trkpt>
      <trkpt lat="42.37252" lon="2.30346">
        <ele>1372.7</ele>
        <time>2019-01-07T21:26:04Z</time>
      </trkpt>
      <trkpt lat="42.37251" lon="2.30349">
        <ele>1374</ele>
        <time>2019-01-07T21:26:04Z</time>
      </trkpt>
      <trkpt lat="42.37252" lon="2.30352">
        <ele>1375.7</ele>
        <time>2019-01-07T21:26:05Z</time>
      </trkpt>
      <trkpt lat="42.37253" lon="2.30354">
        <ele>1376.4</ele>
        <time>2019-01-07T21:26:05Z</time>
      </trkpt>
      <trkpt lat="42.37255" lon="2.30356">
        <ele>1376.8</ele>
        <time>2019-01-07T21:26:06Z</time>
      </trkpt>
      <trkpt lat="42.37256" lon="2.30357">
        <ele>1376.8</ele>
        <time>2019-01-07T21:26:07Z</time>
      </trkpt>
      <trkpt lat="42.37258" lon="2.30358">
        <ele>1376.9</ele>
        <time>2019-01-07T21:26:07Z</time>
      </trkpt>
      <trkpt lat="42.3726" lon="2.30359">
        <ele>1376.9</ele>
        <time>2019-01-07T21:26:08Z</time>
      </trkpt>
      <trkpt lat="42.37263" lon="2.3036">
        <ele>1376.9</ele>
        <time>2019-01-07T21:26:08Z</time>
      </trkpt>
      <trkpt lat="42.37264" lon="2.30363">
        <ele>1377.9</ele>
        <time>2019-01-07T21:26:09Z</time>
      </trkpt>
      <trkpt lat="42.37263" lon="2.30365">
        <ele>1379.3</ele>
        <time>2019-01-07T21:26:10Z</time>
      </trkpt>
      <trkpt lat="42.37261" lon="2.30365">
        <ele>1379.9</ele>
        <time>2019-01-07T21:26:10Z</time>
      </trkpt>
      <trkpt lat="42.37259" lon="2.30365">
        <ele>1380.7</ele>
        <time>2019-01-07T21:26:11Z</time>
      </trkpt>
      <trkpt lat="42.37256" lon="2.30365">
        <ele>1381.3</ele>
        <time>2019-01-07T21:26:11Z</time>
      </trkpt>
      <trkpt lat="42.37254" lon="2.30365">
        <ele>1381.8</ele>
        <time>2019-01-07T21:26:12Z</time>
      </trkpt>
      <trkpt lat="42.37252" lon="2.30364">
        <ele>1382.1</ele>
        <time>2019-01-07T21:26:12Z</time>
      </trkpt>
      <trkpt lat="42.37251" lon="2.30363">
        <ele>1382.1</ele>
        <time>2019-01-07T21:26:13Z</time>
      </trkpt>
      <trkpt lat="42.37248" lon="2.30364">
        <ele>1383.1</ele>
        <time>2019-01-07T21:26:14Z</time>
      </trkpt>
      <trkpt lat="42.37246" lon="2.30363">
        <ele>1383.1</ele>
        <time>2019-01-07T21:26:14Z</time>
      </trkpt>
      <trkpt lat="42.37244" lon="2.30362">
        <ele>1383.2</ele>
        <time>2019-01-07T21:26:15Z</time>
      </trkpt>
      <trkpt lat="42.37242" lon="2.30361">
        <ele>1383</ele>
        <time>2019-01-07T21:26:15Z</time>
      </trkpt>
      <trkpt lat="42.3724" lon="2.30359">
        <ele>1382.5</ele>
        <time>2019-01-07T21:26:16Z</time>
      </trkpt>
      <trkpt lat="42.37238" lon="2.30358">
        <ele>1382.4</ele>
        <time>2019-01-07T21:26:16Z</time>
      </trkpt>
      <trkpt lat="42.37236" lon="2.30358">
        <ele>1382.5</ele>
        <time>2019-01-07T21:26:17Z</time>
      </trkpt>
      <trkpt lat="42.37234" lon="2.30359">
        <ele>1383.7</ele>
        <time>2019-01-07T21:26:18Z</time>
      </trkpt>
      <trkpt lat="42.37233" lon="2.3036">
        <ele>1384.8</ele>
        <time>2019-01-07T21:26:18Z</time>
      </trkpt>
      <trkpt lat="42.37229" lon="2.30361">
        <ele>1386.2</ele>
        <time>2019-01-07T21:26:19Z</time>
      </trkpt>
      <trkpt lat="42.37227" lon="2.30361">
        <ele>1387.1</ele>
        <time>2019-01-07T21:26:20Z</time>
      </trkpt>
      <trkpt lat="42.37225" lon="2.30362">
        <ele>1388</ele>
        <time>2019-01-07T21:26:20Z</time>
      </trkpt>
      <trkpt lat="42.37222" lon="2.30362">
        <ele>1388.7</ele>
        <time>2019-01-07T21:26:21Z</time>
      </trkpt>
      <trkpt lat="42.37219" lon="2.30363">
        <ele>1389.3</ele>
        <time>2019-01-07T21:26:22Z</time>
      </trkpt>
      <trkpt lat="42.37217" lon="2.30363">
        <ele>1389.5</ele>
        <time>2019-01-07T21:26:22Z</time>
      </trkpt>
      <trkpt lat="42.37215" lon="2.30363">
        <ele>1389.5</ele>
        <time>2019-01-07T21:26:23Z</time>
      </trkpt>
      <trkpt lat="42.37212" lon="2.30363">
        <ele>1389.9</ele>
        <time>2019-01-07T21:26:24Z</time>
      </trkpt>
      <trkpt lat="42.3721" lon="2.30364">
        <ele>1390.5</ele>
        <time>2019-01-07T21:26:24Z</time>
      </trkpt>
      <trkpt lat="42.37208" lon="2.30365">
        <ele>1391.1</ele>
        <time>2019-01-07T21:26:25Z</time>
      </trkpt>
      <trkpt lat="42.37205" lon="2.30365">
        <ele>1391.5</ele>
        <time>2019-01-07T21:26:25Z</time>
      </trkpt>
      <trkpt lat="42.37203" lon="2.30366">
        <ele>1392</ele>
        <time>2019-01-07T21:26:26Z</time>
      </trkpt>
      <trkpt lat="42.37201" lon="2.30366">
        <ele>1392.3</ele>
        <time>2019-01-07T21:26:27Z</time>
      </trkpt>
      <trkpt lat="42.37199" lon="2.30366">
        <ele>1392.8</ele>
        <time>2019-01-07T21:26:27Z</time>
      </trkpt>
      <trkpt lat="42.37197" lon="2.30367">
        <ele>1393.3</ele>
        <time>2019-01-07T21:26:28Z</time>
      </trkpt>
      <trkpt lat="42.37195" lon="2.30367">
        <ele>1393.3</ele>
        <time>2019-01-07T21:26:28Z</time>
      </trkpt>
      <trkpt lat="42.37193" lon="2.30367">
        <ele>1394</ele>
        <time>2019-01-07T21:26:29Z</time>
      </trkpt>
      <trkpt lat="42.37191" lon="2.30365">
        <ele>1393.8</ele>
        <time>2019-01-07T21:26:29Z</time>
      </trkpt>
      <trkpt lat="42.37189" lon="2.30363">
        <ele>1393.3</ele>
        <time>2019-01-07T21:26:30Z</time>
      </trkpt>
      <trkpt lat="42.37188" lon="2.30361">
        <ele>1393</ele>
        <time>2019-01-07T21:26:31Z</time>
      </trkpt>
      <trkpt lat="42.37186" lon="2.30359">
        <ele>1393</ele>
        <time>2019-01-07T21:26:31Z</time>
      </trkpt>
      <trkpt lat="42.37184" lon="2.30357">
        <ele>1392.8</ele>
        <time>2019-01-07T21:26:32Z</time>
      </trkpt>
      <trkpt lat="42.37182" lon="2.30355">
        <ele>1392.8</ele>
        <time>2019-01-07T21:26:32Z</time>
      </trkpt>
      <trkpt lat="42.3718" lon="2.30353">
        <ele>1393.3</ele>
        <time>2019-01-07T21:26:33Z</time>
      </trkpt>
      <trkpt lat="42.37178" lon="2.30353">
        <ele>1393.8</ele>
        <time>2019-01-07T21:26:34Z</time>
      </trkpt>
      <trkpt lat="42.37176" lon="2.30353">
        <ele>1394.8</ele>
        <time>2019-01-07T21:26:34Z</time>
      </trkpt>
      <trkpt lat="42.37174" lon="2.30352">
        <ele>1395.5</ele>
        <time>2019-01-07T21:26:35Z</time>
      </trkpt>
      <trkpt lat="42.37173" lon="2.30351">
        <ele>1395.9</ele>
        <time>2019-01-07T21:26:35Z</time>
      </trkpt>
      <trkpt lat="42.37171" lon="2.3035">
        <ele>1396.3</ele>
        <time>2019-01-07T21:26:36Z</time>
      </trkpt>
      <trkpt lat="42.37169" lon="2.3035">
        <ele>1397.3</ele>
        <time>2019-01-07T21:26:36Z</time>
      </trkpt>
      <trkpt lat="42.37167" lon="2.30351">
        <ele>1398.8</ele>
        <time>2019-01-07T21:26:37Z</time>
      </trkpt>
      <trkpt lat="42.37165" lon="2.30351">
        <ele>1399.7</ele>
        <time>2019-01-07T21:26:37Z</time>
      </trkpt>
      <trkpt lat="42.37162" lon="2.30351">
        <ele>1400.6</ele>
        <time>2019-01-07T21:26:38Z</time>
      </trkpt>
      <trkpt lat="42.3716" lon="2.30349">
        <ele>1401.2</ele>
        <time>2019-01-07T21:26:39Z</time>
      </trkpt>
      <trkpt lat="42.37158" lon="2.30348">
        <ele>1401.5</ele>
        <time>2019-01-07T21:26:39Z</time>
      </trkpt>
      <trkpt lat="42.37157" lon="2.30346">
        <ele>1401.2</ele>
        <time>2019-01-07T21:26:40Z</time>
      </trkpt>
      <trkpt lat="42.37155" lon="2.30344">
        <ele>1401.7</ele>
        <time>2019-01-07T21:26:40Z</time>
      </trkpt>
      <trkpt lat="42.37154" lon="2.30342">
        <ele>1401.7</ele>
        <time>2019-01-07T21:26:41Z</time>
      </trkpt>
      <trkpt lat="42.37152" lon="2.30341">
        <ele>1402.1</ele>
        <time>2019-01-07T21:26:41Z</time>
      </trkpt>
      <trkpt lat="42.3715" lon="2.3034">
        <ele>1402.9</ele>
        <time>2019-01-07T21:26:42Z</time>
      </trkpt>
      <trkpt lat="42.37148" lon="2.30339">
        <ele>1403.4</ele>
        <time>2019-01-07T21:26:43Z</time>
      </trkpt>
      <trkpt lat="42.37146" lon="2.30337">
        <ele>1403.9</ele>
        <time>2019-01-07T21:26:43Z</time>
      </trkpt>
      <trkpt lat="42.37144" lon="2.30335">
        <ele>1404.3</ele>
        <time>2019-01-07T21:26:44Z</time>
      </trkpt>
      <trkpt lat="42.37142" lon="2.30333">
        <ele>1404.5</ele>
        <time>2019-01-07T21:26:45Z</time>
      </trkpt>
      <trkpt lat="42.3714" lon="2.30332">
        <ele>1405.4</ele>
        <time>2019-01-07T21:26:45Z</time>
      </trkpt>
      <trkpt lat="42.37138" lon="2.30333">
        <ele>1406.1</ele>
        <time>2019-01-07T21:26:46Z</time>
      </trkpt>
      <trkpt lat="42.37136" lon="2.30333">
        <ele>1406.4</ele>
        <time>2019-01-07T21:26:46Z</time>
      </trkpt>
      <trkpt lat="42.37133" lon="2.30333">
        <ele>1406.6</ele>
        <time>2019-01-07T21:26:47Z</time>
      </trkpt>
      <trkpt lat="42.37131" lon="2.30334">
        <ele>1407.1</ele>
        <time>2019-01-07T21:26:48Z</time>
      </trkpt>
      <trkpt lat="42.3713" lon="2.30336">
        <ele>1407.6</ele>
        <time>2019-01-07T21:26:48Z</time>
      </trkpt>
      <trkpt lat="42.37128" lon="2.30338">
        <ele>1408.5</ele>
        <time>2019-01-07T21:26:49Z</time>
      </trkpt>
      <trkpt lat="42.37127" lon="2.3034">
        <ele>1409.2</ele>
        <time>2019-01-07T21:26:49Z</time>
      </trkpt>
      <trkpt lat="42.37125" lon="2.30342">
        <ele>1409.7</ele>
        <time>2019-01-07T21:26:50Z</time>
      </trkpt>
      <trkpt lat="42.37124" lon="2.30344">
        <ele>1410.5</ele>
        <time>2019-01-07T21:26:50Z</time>
      </trkpt>
      <trkpt lat="42.37122" lon="2.30347">
        <ele>1411.4</ele>
        <time>2019-01-07T21:26:51Z</time>
      </trkpt>
      <trkpt lat="42.37121" lon="2.30349">
        <ele>1411.9</ele>
        <time>2019-01-07T21:26:52Z</time>
      </trkpt>
      <trkpt lat="42.37119" lon="2.30351">
        <ele>1412.7</ele>
        <time>2019-01-07T21:26:52Z</time>
      </trkpt>
      <trkpt lat="42.37117" lon="2.30353">
        <ele>1413.4</ele>
        <time>2019-01-07T21:26:53Z</time>
      </trkpt>
      <trkpt lat="42.37115" lon="2.30355">
        <ele>1414</ele>
        <time>2019-01-07T21:26:54Z</time>
      </trkpt>
      <trkpt lat="42.37113" lon="2.30353">
        <ele>1413.8</ele>
        <time>2019-01-07T21:26:54Z</time>
      </trkpt>
      <trkpt lat="42.37111" lon="2.30351">
        <ele>1413.6</ele>
        <time>2019-01-07T21:26:55Z</time>
      </trkpt>
      <trkpt lat="42.37109" lon="2.30349">
        <ele>1413.9</ele>
        <time>2019-01-07T21:26:55Z</time>
      </trkpt>
      <trkpt lat="42.37108" lon="2.30347">
        <ele>1413.9</ele>
        <time>2019-01-07T21:26:56Z</time>
      </trkpt>
      <trkpt lat="42.37107" lon="2.30345">
        <ele>1413.8</ele>
        <time>2019-01-07T21:26:57Z</time>
      </trkpt>
      <trkpt lat="42.37106" lon="2.30342">
        <ele>1413.5</ele>
        <time>2019-01-07T21:26:57Z</time>
      </trkpt>
      <trkpt lat="42.37105" lon="2.30339">
        <ele>1413.1</ele>
        <time>2019-01-07T21:26:58Z</time>
      </trkpt>
      <trkpt lat="42.37104" lon="2.30337">
        <ele>1412.9</ele>
        <time>2019-01-07T21:26:58Z</time>
      </trkpt>
      <trkpt lat="42.37102" lon="2.30334">
        <ele>1412.8</ele>
        <time>2019-01-07T21:26:59Z</time>
      </trkpt>
      <trkpt lat="42.371" lon="2.30333">
        <ele>1412.8</ele>
        <time>2019-01-07T21:27:00Z</time>
      </trkpt>
      <trkpt lat="42.37098" lon="2.30332">
        <ele>1413.2</ele>
        <time>2019-01-07T21:27:00Z</time>
      </trkpt>
      <trkpt lat="42.37096" lon="2.30331">
        <ele>1413.6</ele>
        <time>2019-01-07T21:27:01Z</time>
      </trkpt>
      <trkpt lat="42.37094" lon="2.3033">
        <ele>1414.4</ele>
        <time>2019-01-07T21:27:01Z</time>
      </trkpt>
      <trkpt lat="42.37092" lon="2.3033">
        <ele>1415.1</ele>
        <time>2019-01-07T21:27:02Z</time>
      </trkpt>
      <trkpt lat="42.37089" lon="2.3033">
        <ele>1415.8</ele>
        <time>2019-01-07T21:27:03Z</time>
      </trkpt>
      <trkpt lat="42.37087" lon="2.3033">
        <ele>1416.6</ele>
        <time>2019-01-07T21:27:03Z</time>
      </trkpt>
      <trkpt lat="42.37085" lon="2.3033">
        <ele>1417.3</ele>
        <time>2019-01-07T21:27:04Z</time>
      </trkpt>
      <trkpt lat="42.37082" lon="2.3033">
        <ele>1417.9</ele>
        <time>2019-01-07T21:27:04Z</time>
      </trkpt>
      <trkpt lat="42.3708" lon="2.30329">
        <ele>1418.2</ele>
        <time>2019-01-07T21:27:05Z</time>
      </trkpt>
      <trkpt lat="42.37078" lon="2.30329">
        <ele>1418.2</ele>
        <time>2019-01-07T21:27:06Z</time>
      </trkpt>
      <trkpt lat="42.37076" lon="2.30329">
        <ele>1418.7</ele>
        <time>2019-01-07T21:27:06Z</time>
      </trkpt>
      <trkpt lat="42.37074" lon="2.30328">
        <ele>1419</ele>
        <time>2019-01-07T21:27:07Z</time>
      </trkpt>
      <trkpt lat="42.37072" lon="2.30328">
        <ele>1419.2</ele>
        <time>2019-01-07T21:27:07Z</time>
      </trkpt>
      <trkpt lat="42.3707" lon="2.30328">
        <ele>1419.4</ele>
        <time>2019-01-07T21:27:08Z</time>
      </trkpt>
      <trkpt lat="42.37068" lon="2.30329">
        <ele>1420.1</ele>
        <time>2019-01-07T21:27:08Z</time>
      </trkpt>
      <trkpt lat="42.37066" lon="2.30328">
        <ele>1420.3</ele>
        <time>2019-01-07T21:27:09Z</time>
      </trkpt>
      <trkpt lat="42.37064" lon="2.30327">
        <ele>1420</ele>
        <time>2019-01-07T21:27:10Z</time>
      </trkpt>
      <trkpt lat="42.37062" lon="2.30327">
        <ele>1420.5</ele>
        <time>2019-01-07T21:27:10Z</time>
      </trkpt>
      <trkpt lat="42.37053" lon="2.30332">
        <ele>1424.1</ele>
        <time>2019-01-07T21:27:12Z</time>
      </trkpt>
      <trkpt lat="42.37051" lon="2.30336">
        <ele>1426.6</ele>
        <time>2019-01-07T21:27:13Z</time>
      </trkpt>
      <trkpt lat="42.37044" lon="2.30343">
        <ele>1430</ele>
        <time>2019-01-07T21:27:16Z</time>
      </trkpt>
      <trkpt lat="42.37035" lon="2.30347">
        <ele>1431.6</ele>
        <time>2019-01-07T21:27:18Z</time>
      </trkpt>
      <trkpt lat="42.37026" lon="2.30349">
        <ele>1433</ele>
        <time>2019-01-07T21:27:21Z</time>
      </trkpt>
      <trkpt lat="42.37019" lon="2.30341">
        <ele>1434.4</ele>
        <time>2019-01-07T21:27:23Z</time>
      </trkpt>
      <trkpt lat="42.37017" lon="2.30329">
        <ele>1431.1</ele>
        <time>2019-01-07T21:27:26Z</time>
      </trkpt>
      <trkpt lat="42.37014" lon="2.30316">
        <ele>1429.5</ele>
        <time>2019-01-07T21:27:28Z</time>
      </trkpt>
      <trkpt lat="42.37008" lon="2.30309">
        <ele>1432</ele>
        <time>2019-01-07T21:27:30Z</time>
      </trkpt>
      <trkpt lat="42.37006" lon="2.30307">
        <ele>1433</ele>
        <time>2019-01-07T21:27:31Z</time>
      </trkpt>
      <trkpt lat="42.37004" lon="2.30306">
        <ele>1434</ele>
        <time>2019-01-07T21:27:32Z</time>
      </trkpt>
      <trkpt lat="42.37001" lon="2.30304">
        <ele>1435.9</ele>
        <time>2019-01-07T21:27:33Z</time>
      </trkpt>
      <trkpt lat="42.36998" lon="2.30303">
        <ele>1437.1</ele>
        <time>2019-01-07T21:27:33Z</time>
      </trkpt>
      <trkpt lat="42.3699" lon="2.30297">
        <ele>1438.7</ele>
        <time>2019-01-07T21:27:36Z</time>
      </trkpt>
      <trkpt lat="42.36983" lon="2.30296">
        <ele>1440.9</ele>
        <time>2019-01-07T21:27:38Z</time>
      </trkpt>
      <trkpt lat="42.36981" lon="2.30296">
        <ele>1441.8</ele>
        <time>2019-01-07T21:27:38Z</time>
      </trkpt>
      <trkpt lat="42.36979" lon="2.30295">
        <ele>1442.5</ele>
        <time>2019-01-07T21:27:39Z</time>
      </trkpt>
      <trkpt lat="42.36977" lon="2.30295">
        <ele>1443</ele>
        <time>2019-01-07T21:27:39Z</time>
      </trkpt>
      <trkpt lat="42.36974" lon="2.30294">
        <ele>1443.5</ele>
        <time>2019-01-07T21:27:40Z</time>
      </trkpt>
      <trkpt lat="42.36972" lon="2.30292">
        <ele>1443.8</ele>
        <time>2019-01-07T21:27:41Z</time>
      </trkpt>
      <trkpt lat="42.36969" lon="2.30291">
        <ele>1443.8</ele>
        <time>2019-01-07T21:27:42Z</time>
      </trkpt>
      <trkpt lat="42.36966" lon="2.30291">
        <ele>1443.8</ele>
        <time>2019-01-07T21:27:42Z</time>
      </trkpt>
      <trkpt lat="42.36962" lon="2.30292">
        <ele>1444.4</ele>
        <time>2019-01-07T21:27:44Z</time>
      </trkpt>
      <trkpt lat="42.36959" lon="2.30293">
        <ele>1445.1</ele>
        <time>2019-01-07T21:27:44Z</time>
      </trkpt>
      <trkpt lat="42.36957" lon="2.30294">
        <ele>1445.7</ele>
        <time>2019-01-07T21:27:45Z</time>
      </trkpt>
      <trkpt lat="42.36958" lon="2.30292">
        <ele>1444.9</ele>
        <time>2019-01-07T21:27:45Z</time>
      </trkpt>
      <trkpt lat="42.3696" lon="2.30291">
        <ele>1444.2</ele>
        <time>2019-01-07T21:27:46Z</time>
      </trkpt>
      <trkpt lat="42.36962" lon="2.30293">
        <ele>1444.8</ele>
        <time>2019-01-07T21:27:46Z</time>
      </trkpt>
      <trkpt lat="42.36963" lon="2.30295">
        <ele>1445.5</ele>
        <time>2019-01-07T21:27:47Z</time>
      </trkpt>
      <trkpt lat="42.36965" lon="2.30297">
        <ele>1446.2</ele>
        <time>2019-01-07T21:27:48Z</time>
      </trkpt>
      <trkpt lat="42.36967" lon="2.30299">
        <ele>1446.5</ele>
        <time>2019-01-07T21:27:48Z</time>
      </trkpt>
      <trkpt lat="42.36968" lon="2.30301">
        <ele>1446.9</ele>
        <time>2019-01-07T21:27:49Z</time>
      </trkpt>
      <trkpt lat="42.3697" lon="2.30303">
        <ele>1447.4</ele>
        <time>2019-01-07T21:27:49Z</time>
      </trkpt>
      <trkpt lat="42.36971" lon="2.30305">
        <ele>1447.8</ele>
        <time>2019-01-07T21:27:50Z</time>
      </trkpt>
      <trkpt lat="42.36972" lon="2.30307">
        <ele>1448.5</ele>
        <time>2019-01-07T21:27:50Z</time>
      </trkpt>
      <trkpt lat="42.36973" lon="2.30309">
        <ele>1448.9</ele>
        <time>2019-01-07T21:27:51Z</time>
      </trkpt>
      <trkpt lat="42.36974" lon="2.30312">
        <ele>1449.4</ele>
        <time>2019-01-07T21:27:52Z</time>
      </trkpt>
      <trkpt lat="42.36975" lon="2.30315">
        <ele>1449.8</ele>
        <time>2019-01-07T21:27:52Z</time>
      </trkpt>
      <trkpt lat="42.36975" lon="2.30319">
        <ele>1450.5</ele>
        <time>2019-01-07T21:27:53Z</time>
      </trkpt>
      <trkpt lat="42.36976" lon="2.30322">
        <ele>1451.2</ele>
        <time>2019-01-07T21:27:54Z</time>
      </trkpt>
      <trkpt lat="42.36976" lon="2.30325">
        <ele>1452</ele>
        <time>2019-01-07T21:27:54Z</time>
      </trkpt>
      <trkpt lat="42.36975" lon="2.30328">
        <ele>1453.2</ele>
        <time>2019-01-07T21:27:55Z</time>
      </trkpt>
      <trkpt lat="42.36977" lon="2.3033">
        <ele>1453.3</ele>
        <time>2019-01-07T21:27:55Z</time>
      </trkpt>
      <trkpt lat="42.36977" lon="2.30333">
        <ele>1453.7</ele>
        <time>2019-01-07T21:27:56Z</time>
      </trkpt>
      <trkpt lat="42.36977" lon="2.30335">
        <ele>1454.6</ele>
        <time>2019-01-07T21:27:56Z</time>
      </trkpt>
      <trkpt lat="42.36979" lon="2.30347">
        <ele>1457.3</ele>
        <time>2019-01-07T21:27:59Z</time>
      </trkpt>
      <trkpt lat="42.36977" lon="2.30352">
        <ele>1459</ele>
        <time>2019-01-07T21:28:00Z</time>
      </trkpt>
      <trkpt lat="42.36978" lon="2.30356">
        <ele>1459.9</ele>
        <time>2019-01-07T21:28:01Z</time>
      </trkpt>
      <trkpt lat="42.36983" lon="2.30367">
        <ele>1460.5</ele>
        <time>2019-01-07T21:28:03Z</time>
      </trkpt>
      <trkpt lat="42.36983" lon="2.3037">
        <ele>1461.1</ele>
        <time>2019-01-07T21:28:04Z</time>
      </trkpt>
      <trkpt lat="42.36983" lon="2.30373">
        <ele>1461.8</ele>
        <time>2019-01-07T21:28:04Z</time>
      </trkpt>
      <trkpt lat="42.36974" lon="2.30374">
        <ele>1467.1</ele>
        <time>2019-01-07T21:28:07Z</time>
      </trkpt>
      <trkpt lat="42.36964" lon="2.30373">
        <ele>1469.6</ele>
        <time>2019-01-07T21:28:09Z</time>
      </trkpt>
      <trkpt lat="42.36962" lon="2.30372">
        <ele>1469.9</ele>
        <time>2019-01-07T21:28:10Z</time>
      </trkpt>
      <trkpt lat="42.3696" lon="2.30373">
        <ele>1470.3</ele>
        <time>2019-01-07T21:28:10Z</time>
      </trkpt>
      <trkpt lat="42.36958" lon="2.30372">
        <ele>1470.9</ele>
        <time>2019-01-07T21:28:11Z</time>
      </trkpt>
      <trkpt lat="42.36956" lon="2.30371">
        <ele>1471.2</ele>
        <time>2019-01-07T21:28:12Z</time>
      </trkpt>
      <trkpt lat="42.36953" lon="2.3037">
        <ele>1471.5</ele>
        <time>2019-01-07T21:28:12Z</time>
      </trkpt>
      <trkpt lat="42.36951" lon="2.3037">
        <ele>1472.3</ele>
        <time>2019-01-07T21:28:13Z</time>
      </trkpt>
      <trkpt lat="42.36949" lon="2.3037">
        <ele>1472.7</ele>
        <time>2019-01-07T21:28:13Z</time>
      </trkpt>
      <trkpt lat="42.36947" lon="2.3037">
        <ele>1473.1</ele>
        <time>2019-01-07T21:28:14Z</time>
      </trkpt>
      <trkpt lat="42.36945" lon="2.30369">
        <ele>1473.3</ele>
        <time>2019-01-07T21:28:15Z</time>
      </trkpt>
      <trkpt lat="42.36942" lon="2.30369">
        <ele>1473.5</ele>
        <time>2019-01-07T21:28:15Z</time>
      </trkpt>
      <trkpt lat="42.3694" lon="2.3037">
        <ele>1474</ele>
        <time>2019-01-07T21:28:16Z</time>
      </trkpt>
      <trkpt lat="42.36938" lon="2.3037">
        <ele>1474.3</ele>
        <time>2019-01-07T21:28:16Z</time>
      </trkpt>
      <trkpt lat="42.36936" lon="2.3037">
        <ele>1474.4</ele>
        <time>2019-01-07T21:28:17Z</time>
      </trkpt>
      <trkpt lat="42.36934" lon="2.30371">
        <ele>1474.8</ele>
        <time>2019-01-07T21:28:17Z</time>
      </trkpt>
      <trkpt lat="42.36929" lon="2.30374">
        <ele>1476.3</ele>
        <time>2019-01-07T21:28:19Z</time>
      </trkpt>
      <trkpt lat="42.36927" lon="2.30375">
        <ele>1476.8</ele>
        <time>2019-01-07T21:28:20Z</time>
      </trkpt>
      <trkpt lat="42.36925" lon="2.30377">
        <ele>1477.6</ele>
        <time>2019-01-07T21:28:20Z</time>
      </trkpt>
      <trkpt lat="42.36923" lon="2.30379">
        <ele>1478.4</ele>
        <time>2019-01-07T21:28:21Z</time>
      </trkpt>
      <trkpt lat="42.36921" lon="2.30381">
        <ele>1479</ele>
        <time>2019-01-07T21:28:21Z</time>
      </trkpt>
      <trkpt lat="42.3692" lon="2.30383">
        <ele>1479.7</ele>
        <time>2019-01-07T21:28:22Z</time>
      </trkpt>
      <trkpt lat="42.36918" lon="2.30385">
        <ele>1480.6</ele>
        <time>2019-01-07T21:28:22Z</time>
      </trkpt>
      <trkpt lat="42.36917" lon="2.30387">
        <ele>1481.4</ele>
        <time>2019-01-07T21:28:23Z</time>
      </trkpt>
      <trkpt lat="42.36915" lon="2.30389">
        <ele>1481.9</ele>
        <time>2019-01-07T21:28:24Z</time>
      </trkpt>
      <trkpt lat="42.36913" lon="2.3039">
        <ele>1482.3</ele>
        <time>2019-01-07T21:28:24Z</time>
      </trkpt>
      <trkpt lat="42.3691" lon="2.30392">
        <ele>1483</ele>
        <time>2019-01-07T21:28:25Z</time>
      </trkpt>
      <trkpt lat="42.36909" lon="2.30394">
        <ele>1483.7</ele>
        <time>2019-01-07T21:28:26Z</time>
      </trkpt>
      <trkpt lat="42.36908" lon="2.30396">
        <ele>1484.6</ele>
        <time>2019-01-07T21:28:26Z</time>
      </trkpt>
      <trkpt lat="42.36907" lon="2.30399">
        <ele>1485.5</ele>
        <time>2019-01-07T21:28:27Z</time>
      </trkpt>
      <trkpt lat="42.36906" lon="2.30401">
        <ele>1486.2</ele>
        <time>2019-01-07T21:28:27Z</time>
      </trkpt>
      <trkpt lat="42.36906" lon="2.30404">
        <ele>1487.3</ele>
        <time>2019-01-07T21:28:28Z</time>
      </trkpt>
      <trkpt lat="42.36906" lon="2.30407">
        <ele>1488.3</ele>
        <time>2019-01-07T21:28:28Z</time>
      </trkpt>
      <trkpt lat="42.36906" lon="2.3041">
        <ele>1489.1</ele>
        <time>2019-01-07T21:28:29Z</time>
      </trkpt>
      <trkpt lat="42.36906" lon="2.30413">
        <ele>1490.1</ele>
        <time>2019-01-07T21:28:30Z</time>
      </trkpt>
      <trkpt lat="42.36905" lon="2.30416">
        <ele>1491.1</ele>
        <time>2019-01-07T21:28:30Z</time>
      </trkpt>
      <trkpt lat="42.36904" lon="2.30418">
        <ele>1491.7</ele>
        <time>2019-01-07T21:28:31Z</time>
      </trkpt>
      <trkpt lat="42.36903" lon="2.30421">
        <ele>1492.5</ele>
        <time>2019-01-07T21:28:31Z</time>
      </trkpt>
      <trkpt lat="42.36904" lon="2.30423">
        <ele>1493.3</ele>
        <time>2019-01-07T21:28:32Z</time>
      </trkpt>
      <trkpt lat="42.36905" lon="2.30425">
        <ele>1494.3</ele>
        <time>2019-01-07T21:28:32Z</time>
      </trkpt>
      <trkpt lat="42.36906" lon="2.30427">
        <ele>1495</ele>
        <time>2019-01-07T21:28:33Z</time>
      </trkpt>
      <trkpt lat="42.36908" lon="2.30428">
        <ele>1495.8</ele>
        <time>2019-01-07T21:28:33Z</time>
      </trkpt>
      <trkpt lat="42.36909" lon="2.30431">
        <ele>1496.7</ele>
        <time>2019-01-07T21:28:34Z</time>
      </trkpt>
      <trkpt lat="42.3691" lon="2.30433">
        <ele>1497.4</ele>
        <time>2019-01-07T21:28:34Z</time>
      </trkpt>
      <trkpt lat="42.36913" lon="2.30433">
        <ele>1497.6</ele>
        <time>2019-01-07T21:28:35Z</time>
      </trkpt>
      <trkpt lat="42.36915" lon="2.30433">
        <ele>1497.8</ele>
        <time>2019-01-07T21:28:36Z</time>
      </trkpt>
      <trkpt lat="42.36918" lon="2.30432">
        <ele>1497.5</ele>
        <time>2019-01-07T21:28:36Z</time>
      </trkpt>
      <trkpt lat="42.3692" lon="2.30431">
        <ele>1497.3</ele>
        <time>2019-01-07T21:28:37Z</time>
      </trkpt>
      <trkpt lat="42.36922" lon="2.30432">
        <ele>1497.5</ele>
        <time>2019-01-07T21:28:38Z</time>
      </trkpt>
      <trkpt lat="42.36924" lon="2.30434">
        <ele>1498.2</ele>
        <time>2019-01-07T21:28:38Z</time>
      </trkpt>
      <trkpt lat="42.36925" lon="2.30436">
        <ele>1498.8</ele>
        <time>2019-01-07T21:28:39Z</time>
      </trkpt>
      <trkpt lat="42.36926" lon="2.30438">
        <ele>1499.7</ele>
        <time>2019-01-07T21:28:39Z</time>
      </trkpt>
      <trkpt lat="42.36924" lon="2.3044">
        <ele>1500.5</ele>
        <time>2019-01-07T21:28:40Z</time>
      </trkpt>
      <trkpt lat="42.36923" lon="2.30443">
        <ele>1501.4</ele>
        <time>2019-01-07T21:28:40Z</time>
      </trkpt>
      <trkpt lat="42.36925" lon="2.30443">
        <ele>1501.6</ele>
        <time>2019-01-07T21:28:41Z</time>
      </trkpt>
      <trkpt lat="42.36927" lon="2.30444">
        <ele>1501.7</ele>
        <time>2019-01-07T21:28:41Z</time>
      </trkpt>
      <trkpt lat="42.36928" lon="2.30444">
        <ele>1502.1</ele>
        <time>2019-01-07T21:28:42Z</time>
      </trkpt>
      <trkpt lat="42.3693" lon="2.30445">
        <ele>1502.2</ele>
        <time>2019-01-07T21:28:43Z</time>
      </trkpt>
      <trkpt lat="42.36932" lon="2.30446">
        <ele>1502.5</ele>
        <time>2019-01-07T21:28:43Z</time>
      </trkpt>
      <trkpt lat="42.36934" lon="2.30448">
        <ele>1503.1</ele>
        <time>2019-01-07T21:28:44Z</time>
      </trkpt>
      <trkpt lat="42.36936" lon="2.3045">
        <ele>1504</ele>
        <time>2019-01-07T21:28:44Z</time>
      </trkpt>
      <trkpt lat="42.36938" lon="2.30453">
        <ele>1505</ele>
        <time>2019-01-07T21:28:45Z</time>
      </trkpt>
      <trkpt lat="42.3694" lon="2.30454">
        <ele>1505.3</ele>
        <time>2019-01-07T21:28:46Z</time>
      </trkpt>
      <trkpt lat="42.36942" lon="2.30456">
        <ele>1506.1</ele>
        <time>2019-01-07T21:28:46Z</time>
      </trkpt>
      <trkpt lat="42.36944" lon="2.30458">
        <ele>1506.7</ele>
        <time>2019-01-07T21:28:47Z</time>
      </trkpt>
      <trkpt lat="42.36945" lon="2.30459">
        <ele>1507.3</ele>
        <time>2019-01-07T21:28:47Z</time>
      </trkpt>
      <trkpt lat="42.36947" lon="2.30461">
        <ele>1507.6</ele>
        <time>2019-01-07T21:28:48Z</time>
      </trkpt>
      <trkpt lat="42.36948" lon="2.30464">
        <ele>1508.1</ele>
        <time>2019-01-07T21:28:48Z</time>
      </trkpt>
      <trkpt lat="42.36949" lon="2.30466">
        <ele>1508.6</ele>
        <time>2019-01-07T21:28:49Z</time>
      </trkpt>
      <trkpt lat="42.3695" lon="2.30468">
        <ele>1508.9</ele>
        <time>2019-01-07T21:28:50Z</time>
      </trkpt>
      <trkpt lat="42.36951" lon="2.3047">
        <ele>1509.1</ele>
        <time>2019-01-07T21:28:50Z</time>
      </trkpt>
      <trkpt lat="42.36953" lon="2.30471">
        <ele>1509.2</ele>
        <time>2019-01-07T21:28:51Z</time>
      </trkpt>
      <trkpt lat="42.36954" lon="2.30473">
        <ele>1509.8</ele>
        <time>2019-01-07T21:28:51Z</time>
      </trkpt>
      <trkpt lat="42.36955" lon="2.30475">
        <ele>1510</ele>
        <time>2019-01-07T21:28:52Z</time>
      </trkpt>
      <trkpt lat="42.36957" lon="2.30478">
        <ele>1510</ele>
        <time>2019-01-07T21:28:52Z</time>
      </trkpt>
      <trkpt lat="42.36958" lon="2.3048">
        <ele>1510.4</ele>
        <time>2019-01-07T21:28:53Z</time>
      </trkpt>
      <trkpt lat="42.36959" lon="2.30482">
        <ele>1510.8</ele>
        <time>2019-01-07T21:28:53Z</time>
      </trkpt>
      <trkpt lat="42.3696" lon="2.30484">
        <ele>1511.5</ele>
        <time>2019-01-07T21:28:54Z</time>
      </trkpt>
      <trkpt lat="42.36961" lon="2.30487">
        <ele>1511.9</ele>
        <time>2019-01-07T21:28:54Z</time>
      </trkpt>
      <trkpt lat="42.36962" lon="2.3049">
        <ele>1513</ele>
        <time>2019-01-07T21:28:55Z</time>
      </trkpt>
      <trkpt lat="42.36963" lon="2.30494">
        <ele>1513.7</ele>
        <time>2019-01-07T21:28:56Z</time>
      </trkpt>
      <trkpt lat="42.36965" lon="2.30497">
        <ele>1514.5</ele>
        <time>2019-01-07T21:28:57Z</time>
      </trkpt>
      <trkpt lat="42.36966" lon="2.305">
        <ele>1515</ele>
        <time>2019-01-07T21:28:57Z</time>
      </trkpt>
      <trkpt lat="42.36967" lon="2.30502">
        <ele>1515.6</ele>
        <time>2019-01-07T21:28:58Z</time>
      </trkpt>
      <trkpt lat="42.36966" lon="2.30504">
        <ele>1516.5</ele>
        <time>2019-01-07T21:28:58Z</time>
      </trkpt>
      <trkpt lat="42.36965" lon="2.30506">
        <ele>1517.2</ele>
        <time>2019-01-07T21:28:59Z</time>
      </trkpt>
      <trkpt lat="42.36964" lon="2.30508">
        <ele>1517.9</ele>
        <time>2019-01-07T21:28:59Z</time>
      </trkpt>
      <trkpt lat="42.36964" lon="2.30511">
        <ele>1518.7</ele>
        <time>2019-01-07T21:29:00Z</time>
      </trkpt>
      <trkpt lat="42.36964" lon="2.30514">
        <ele>1519.6</ele>
        <time>2019-01-07T21:29:00Z</time>
      </trkpt>
      <trkpt lat="42.36964" lon="2.30517">
        <ele>1520.5</ele>
        <time>2019-01-07T21:29:01Z</time>
      </trkpt>
      <trkpt lat="42.36964" lon="2.3052">
        <ele>1521.6</ele>
        <time>2019-01-07T21:29:02Z</time>
      </trkpt>
      <trkpt lat="42.36964" lon="2.30523">
        <ele>1522.2</ele>
        <time>2019-01-07T21:29:02Z</time>
      </trkpt>
      <trkpt lat="42.36965" lon="2.30525">
        <ele>1522.8</ele>
        <time>2019-01-07T21:29:03Z</time>
      </trkpt>
      <trkpt lat="42.36967" lon="2.30527">
        <ele>1523</ele>
        <time>2019-01-07T21:29:03Z</time>
      </trkpt>
      <trkpt lat="42.36968" lon="2.3053">
        <ele>1523.6</ele>
        <time>2019-01-07T21:29:04Z</time>
      </trkpt>
      <trkpt lat="42.36968" lon="2.30534">
        <ele>1524.8</ele>
        <time>2019-01-07T21:29:05Z</time>
      </trkpt>
      <trkpt lat="42.36968" lon="2.30537">
        <ele>1525.8</ele>
        <time>2019-01-07T21:29:05Z</time>
      </trkpt>
      <trkpt lat="42.36968" lon="2.3054">
        <ele>1526.9</ele>
        <time>2019-01-07T21:29:06Z</time>
      </trkpt>
      <trkpt lat="42.36967" lon="2.30542">
        <ele>1527.9</ele>
        <time>2019-01-07T21:29:07Z</time>
      </trkpt>
      <trkpt lat="42.36968" lon="2.30545">
        <ele>1528.3</ele>
        <time>2019-01-07T21:29:07Z</time>
      </trkpt>
      <trkpt lat="42.36967" lon="2.30547">
        <ele>1529.3</ele>
        <time>2019-01-07T21:29:08Z</time>
      </trkpt>
      <trkpt lat="42.36965" lon="2.30548">
        <ele>1530.2</ele>
        <time>2019-01-07T21:29:08Z</time>
      </trkpt>
      <trkpt lat="42.36964" lon="2.30549">
        <ele>1530.7</ele>
        <time>2019-01-07T21:29:09Z</time>
      </trkpt>
      <trkpt lat="42.36963" lon="2.30552">
        <ele>1531.5</ele>
        <time>2019-01-07T21:29:09Z</time>
      </trkpt>
      <trkpt lat="42.36961" lon="2.30553">
        <ele>1532.4</ele>
        <time>2019-01-07T21:29:10Z</time>
      </trkpt>
      <trkpt lat="42.36959" lon="2.30555">
        <ele>1533.3</ele>
        <time>2019-01-07T21:29:10Z</time>
      </trkpt>
      <trkpt lat="42.36958" lon="2.30558">
        <ele>1534</ele>
        <time>2019-01-07T21:29:11Z</time>
      </trkpt>
      <trkpt lat="42.36958" lon="2.30561">
        <ele>1534.7</ele>
        <time>2019-01-07T21:29:12Z</time>
      </trkpt>
      <trkpt lat="42.36956" lon="2.30563">
        <ele>1535.4</ele>
        <time>2019-01-07T21:29:12Z</time>
      </trkpt>
      <trkpt lat="42.36955" lon="2.30565">
        <ele>1536.3</ele>
        <time>2019-01-07T21:29:13Z</time>
      </trkpt>
      <trkpt lat="42.36954" lon="2.30568">
        <ele>1536.8</ele>
        <time>2019-01-07T21:29:13Z</time>
      </trkpt>
      <trkpt lat="42.36954" lon="2.30571">
        <ele>1537.4</ele>
        <time>2019-01-07T21:29:14Z</time>
      </trkpt>
      <trkpt lat="42.36955" lon="2.30574">
        <ele>1537.9</ele>
        <time>2019-01-07T21:29:15Z</time>
      </trkpt>
      <trkpt lat="42.36955" lon="2.30577">
        <ele>1538.4</ele>
        <time>2019-01-07T21:29:15Z</time>
      </trkpt>
      <trkpt lat="42.36954" lon="2.30579">
        <ele>1539.1</ele>
        <time>2019-01-07T21:29:16Z</time>
      </trkpt>
      <trkpt lat="42.36955" lon="2.30582">
        <ele>1539.6</ele>
        <time>2019-01-07T21:29:16Z</time>
      </trkpt>
      <trkpt lat="42.36954" lon="2.30585">
        <ele>1540.3</ele>
        <time>2019-01-07T21:29:17Z</time>
      </trkpt>
      <trkpt lat="42.36954" lon="2.30588">
        <ele>1540.9</ele>
        <time>2019-01-07T21:29:17Z</time>
      </trkpt>
      <trkpt lat="42.36954" lon="2.30591">
        <ele>1541.7</ele>
        <time>2019-01-07T21:29:18Z</time>
      </trkpt>
      <trkpt lat="42.36954" lon="2.30594">
        <ele>1542.3</ele>
        <time>2019-01-07T21:29:19Z</time>
      </trkpt>
      <trkpt lat="42.36954" lon="2.30597">
        <ele>1542.9</ele>
        <time>2019-01-07T21:29:19Z</time>
      </trkpt>
      <trkpt lat="42.36954" lon="2.30599">
        <ele>1543.6</ele>
        <time>2019-01-07T21:29:20Z</time>
      </trkpt>
      <trkpt lat="42.36954" lon="2.30602">
        <ele>1544.2</ele>
        <time>2019-01-07T21:29:20Z</time>
      </trkpt>
      <trkpt lat="42.36953" lon="2.30606">
        <ele>1544.9</ele>
        <time>2019-01-07T21:29:21Z</time>
      </trkpt>
      <trkpt lat="42.36953" lon="2.30608">
        <ele>1545.6</ele>
        <time>2019-01-07T21:29:21Z</time>
      </trkpt>
      <trkpt lat="42.36953" lon="2.30611">
        <ele>1546.3</ele>
        <time>2019-01-07T21:29:22Z</time>
      </trkpt>
      <trkpt lat="42.36954" lon="2.30614">
        <ele>1546.7</ele>
        <time>2019-01-07T21:29:23Z</time>
      </trkpt>
      <trkpt lat="42.36955" lon="2.30616">
        <ele>1546.9</ele>
        <time>2019-01-07T21:29:23Z</time>
      </trkpt>
      <trkpt lat="42.36955" lon="2.30618">
        <ele>1547.5</ele>
        <time>2019-01-07T21:29:24Z</time>
      </trkpt>
      <trkpt lat="42.36955" lon="2.30621">
        <ele>1548.4</ele>
        <time>2019-01-07T21:29:24Z</time>
      </trkpt>
      <trkpt lat="42.36955" lon="2.30624">
        <ele>1549</ele>
        <time>2019-01-07T21:29:25Z</time>
      </trkpt>
      <trkpt lat="42.36954" lon="2.30627">
        <ele>1549.9</ele>
        <time>2019-01-07T21:29:25Z</time>
      </trkpt>
      <trkpt lat="42.36953" lon="2.30628">
        <ele>1550.5</ele>
        <time>2019-01-07T21:29:26Z</time>
      </trkpt>
      <trkpt lat="42.3695" lon="2.30628">
        <ele>1550.8</ele>
        <time>2019-01-07T21:29:27Z</time>
      </trkpt>
      <trkpt lat="42.36948" lon="2.30629">
        <ele>1551.4</ele>
        <time>2019-01-07T21:29:27Z</time>
      </trkpt>
      <trkpt lat="42.36947" lon="2.30631">
        <ele>1551.9</ele>
        <time>2019-01-07T21:29:28Z</time>
      </trkpt>
      <trkpt lat="42.36946" lon="2.30634">
        <ele>1552.6</ele>
        <time>2019-01-07T21:29:28Z</time>
      </trkpt>
      <trkpt lat="42.36946" lon="2.30639">
        <ele>1553.9</ele>
        <time>2019-01-07T21:29:29Z</time>
      </trkpt>
      <trkpt lat="42.36942" lon="2.30642">
        <ele>1555.2</ele>
        <time>2019-01-07T21:29:30Z</time>
      </trkpt>
      <trkpt lat="42.3694" lon="2.30643">
        <ele>1556.1</ele>
        <time>2019-01-07T21:29:31Z</time>
      </trkpt>
      <trkpt lat="42.36935" lon="2.30647">
        <ele>1558.1</ele>
        <time>2019-01-07T21:29:32Z</time>
      </trkpt>
      <trkpt lat="42.36935" lon="2.3065">
        <ele>1558.8</ele>
        <time>2019-01-07T21:29:33Z</time>
      </trkpt>
      <trkpt lat="42.36936" lon="2.30656">
        <ele>1559.9</ele>
        <time>2019-01-07T21:29:34Z</time>
      </trkpt>
      <trkpt lat="42.36935" lon="2.30659">
        <ele>1560.7</ele>
        <time>2019-01-07T21:29:35Z</time>
      </trkpt>
      <trkpt lat="42.36935" lon="2.30662">
        <ele>1561.2</ele>
        <time>2019-01-07T21:29:35Z</time>
      </trkpt>
      <trkpt lat="42.36937" lon="2.30663">
        <ele>1561.3</ele>
        <time>2019-01-07T21:29:36Z</time>
      </trkpt>
      <trkpt lat="42.36937" lon="2.30665">
        <ele>1561.5</ele>
        <time>2019-01-07T21:29:36Z</time>
      </trkpt>
      <trkpt lat="42.36937" lon="2.30668">
        <ele>1562.1</ele>
        <time>2019-01-07T21:29:37Z</time>
      </trkpt>
      <trkpt lat="42.36937" lon="2.30665">
        <ele>1561.6</ele>
        <time>2019-01-07T21:29:37Z</time>
      </trkpt>
      <trkpt lat="42.36935" lon="2.30663">
        <ele>1561.6</ele>
        <time>2019-01-07T21:29:38Z</time>
      </trkpt>
      <trkpt lat="42.36934" lon="2.30666">
        <ele>1562.5</ele>
        <time>2019-01-07T21:29:38Z</time>
      </trkpt>
      <trkpt lat="42.36933" lon="2.30668">
        <ele>1563.3</ele>
        <time>2019-01-07T21:29:39Z</time>
      </trkpt>
      <trkpt lat="42.36932" lon="2.3067">
        <ele>1564.1</ele>
        <time>2019-01-07T21:29:39Z</time>
      </trkpt>
      <trkpt lat="42.3693" lon="2.30672">
        <ele>1564.9</ele>
        <time>2019-01-07T21:29:40Z</time>
      </trkpt>
      <trkpt lat="42.36929" lon="2.30675">
        <ele>1565.7</ele>
        <time>2019-01-07T21:29:41Z</time>
      </trkpt>
      <trkpt lat="42.36928" lon="2.30677">
        <ele>1566.5</ele>
        <time>2019-01-07T21:29:41Z</time>
      </trkpt>
      <trkpt lat="42.36926" lon="2.30679">
        <ele>1567.2</ele>
        <time>2019-01-07T21:29:42Z</time>
      </trkpt>
      <trkpt lat="42.36925" lon="2.30681">
        <ele>1567.9</ele>
        <time>2019-01-07T21:29:42Z</time>
      </trkpt>
      <trkpt lat="42.36923" lon="2.30683">
        <ele>1568.8</ele>
        <time>2019-01-07T21:29:43Z</time>
      </trkpt>
      <trkpt lat="42.36923" lon="2.30686">
        <ele>1569.4</ele>
        <time>2019-01-07T21:29:44Z</time>
      </trkpt>
      <trkpt lat="42.36923" lon="2.30689">
        <ele>1569.8</ele>
        <time>2019-01-07T21:29:44Z</time>
      </trkpt>
      <trkpt lat="42.36924" lon="2.30691">
        <ele>1570.3</ele>
        <time>2019-01-07T21:29:45Z</time>
      </trkpt>
      <trkpt lat="42.36923" lon="2.30694">
        <ele>1571</ele>
        <time>2019-01-07T21:29:45Z</time>
      </trkpt>
      <trkpt lat="42.36921" lon="2.30694">
        <ele>1571.4</ele>
        <time>2019-01-07T21:29:46Z</time>
      </trkpt>
      <trkpt lat="42.3692" lon="2.30696">
        <ele>1571.9</ele>
        <time>2019-01-07T21:29:46Z</time>
      </trkpt>
      <trkpt lat="42.36918" lon="2.30698">
        <ele>1572.3</ele>
        <time>2019-01-07T21:29:47Z</time>
      </trkpt>
      <trkpt lat="42.36917" lon="2.307">
        <ele>1572.8</ele>
        <time>2019-01-07T21:29:47Z</time>
      </trkpt>
      <trkpt lat="42.36916" lon="2.30703">
        <ele>1573.7</ele>
        <time>2019-01-07T21:29:48Z</time>
      </trkpt>
      <trkpt lat="42.36915" lon="2.30705">
        <ele>1574.3</ele>
        <time>2019-01-07T21:29:48Z</time>
      </trkpt>
      <trkpt lat="42.36914" lon="2.30707">
        <ele>1574.8</ele>
        <time>2019-01-07T21:29:49Z</time>
      </trkpt>
      <trkpt lat="42.36913" lon="2.3071">
        <ele>1575.4</ele>
        <time>2019-01-07T21:29:49Z</time>
      </trkpt>
      <trkpt lat="42.36912" lon="2.30713">
        <ele>1576</ele>
        <time>2019-01-07T21:29:50Z</time>
      </trkpt>
      <trkpt lat="42.36912" lon="2.30716">
        <ele>1576.6</ele>
        <time>2019-01-07T21:29:51Z</time>
      </trkpt>
      <trkpt lat="42.3691" lon="2.30718">
        <ele>1577.4</ele>
        <time>2019-01-07T21:29:51Z</time>
      </trkpt>
      <trkpt lat="42.36908" lon="2.3072">
        <ele>1578.2</ele>
        <time>2019-01-07T21:29:52Z</time>
      </trkpt>
      <trkpt lat="42.36906" lon="2.30721">
        <ele>1578.9</ele>
        <time>2019-01-07T21:29:52Z</time>
      </trkpt>
      <trkpt lat="42.36904" lon="2.3072">
        <ele>1579.4</ele>
        <time>2019-01-07T21:29:53Z</time>
      </trkpt>
      <trkpt lat="42.36902" lon="2.3072">
        <ele>1580</ele>
        <time>2019-01-07T21:29:53Z</time>
      </trkpt>
      <trkpt lat="42.369" lon="2.30721">
        <ele>1580.6</ele>
        <time>2019-01-07T21:29:54Z</time>
      </trkpt>
      <trkpt lat="42.36898" lon="2.30723">
        <ele>1581.4</ele>
        <time>2019-01-07T21:29:55Z</time>
      </trkpt>
      <trkpt lat="42.36897" lon="2.30725">
        <ele>1582</ele>
        <time>2019-01-07T21:29:55Z</time>
      </trkpt>
      <trkpt lat="42.36895" lon="2.30727">
        <ele>1582.8</ele>
        <time>2019-01-07T21:29:56Z</time>
      </trkpt>
      <trkpt lat="42.36893" lon="2.30729">
        <ele>1583.6</ele>
        <time>2019-01-07T21:29:57Z</time>
      </trkpt>
      <trkpt lat="42.36891" lon="2.30731">
        <ele>1584.1</ele>
        <time>2019-01-07T21:29:57Z</time>
      </trkpt>
      <trkpt lat="42.36889" lon="2.30732">
        <ele>1584.7</ele>
        <time>2019-01-07T21:29:58Z</time>
      </trkpt>
      <trkpt lat="42.36886" lon="2.30733">
        <ele>1585.6</ele>
        <time>2019-01-07T21:29:59Z</time>
      </trkpt>
      <trkpt lat="42.36885" lon="2.30734">
        <ele>1585.9</ele>
        <time>2019-01-07T21:29:59Z</time>
      </trkpt>
      <trkpt lat="42.36883" lon="2.30736">
        <ele>1586.5</ele>
        <time>2019-01-07T21:30:00Z</time>
      </trkpt>
      <trkpt lat="42.36881" lon="2.30737">
        <ele>1586.9</ele>
        <time>2019-01-07T21:30:00Z</time>
      </trkpt>
      <trkpt lat="42.3688" lon="2.30739">
        <ele>1587.5</ele>
        <time>2019-01-07T21:30:01Z</time>
      </trkpt>
      <trkpt lat="42.36879" lon="2.30741">
        <ele>1587.9</ele>
        <time>2019-01-07T21:30:01Z</time>
      </trkpt>
      <trkpt lat="42.36877" lon="2.30743">
        <ele>1588.4</ele>
        <time>2019-01-07T21:30:02Z</time>
      </trkpt>
      <trkpt lat="42.36876" lon="2.30746">
        <ele>1588.9</ele>
        <time>2019-01-07T21:30:02Z</time>
      </trkpt>
      <trkpt lat="42.36874" lon="2.30748">
        <ele>1589.7</ele>
        <time>2019-01-07T21:30:03Z</time>
      </trkpt>
      <trkpt lat="42.36873" lon="2.3075">
        <ele>1590.2</ele>
        <time>2019-01-07T21:30:04Z</time>
      </trkpt>
      <trkpt lat="42.36872" lon="2.30752">
        <ele>1590.6</ele>
        <time>2019-01-07T21:30:04Z</time>
      </trkpt>
      <trkpt lat="42.36871" lon="2.30755">
        <ele>1591.4</ele>
        <time>2019-01-07T21:30:05Z</time>
      </trkpt>
      <trkpt lat="42.3687" lon="2.30758">
        <ele>1592</ele>
        <time>2019-01-07T21:30:05Z</time>
      </trkpt>
      <trkpt lat="42.36868" lon="2.3076">
        <ele>1592.8</ele>
        <time>2019-01-07T21:30:06Z</time>
      </trkpt>
      <trkpt lat="42.36866" lon="2.30762">
        <ele>1593.4</ele>
        <time>2019-01-07T21:30:07Z</time>
      </trkpt>
      <trkpt lat="42.36864" lon="2.30761">
        <ele>1593.7</ele>
        <time>2019-01-07T21:30:07Z</time>
      </trkpt>
      <trkpt lat="42.36862" lon="2.30761">
        <ele>1594.2</ele>
        <time>2019-01-07T21:30:08Z</time>
      </trkpt>
      <trkpt lat="42.3686" lon="2.30762">
        <ele>1594.5</ele>
        <time>2019-01-07T21:30:08Z</time>
      </trkpt>
      <trkpt lat="42.36858" lon="2.30764">
        <ele>1595</ele>
        <time>2019-01-07T21:30:09Z</time>
      </trkpt>
      <trkpt lat="42.36856" lon="2.30766">
        <ele>1595.5</ele>
        <time>2019-01-07T21:30:10Z</time>
      </trkpt>
      <trkpt lat="42.36856" lon="2.30769">
        <ele>1595.9</ele>
        <time>2019-01-07T21:30:10Z</time>
      </trkpt>
      <trkpt lat="42.36856" lon="2.30772">
        <ele>1596.3</ele>
        <time>2019-01-07T21:30:11Z</time>
      </trkpt>
      <trkpt lat="42.36855" lon="2.30775">
        <ele>1596.8</ele>
        <time>2019-01-07T21:30:11Z</time>
      </trkpt>
      <trkpt lat="42.36854" lon="2.30777">
        <ele>1597.2</ele>
        <time>2019-01-07T21:30:12Z</time>
      </trkpt>
      <trkpt lat="42.36853" lon="2.3078">
        <ele>1598.1</ele>
        <time>2019-01-07T21:30:13Z</time>
      </trkpt>
      <trkpt lat="42.36852" lon="2.30782">
        <ele>1598.7</ele>
        <time>2019-01-07T21:30:13Z</time>
      </trkpt>
      <trkpt lat="42.36851" lon="2.30785">
        <ele>1599.5</ele>
        <time>2019-01-07T21:30:14Z</time>
      </trkpt>
      <trkpt lat="42.36851" lon="2.30787">
        <ele>1600.3</ele>
        <time>2019-01-07T21:30:14Z</time>
      </trkpt>
      <trkpt lat="42.3685" lon="2.3079">
        <ele>1600.9</ele>
        <time>2019-01-07T21:30:15Z</time>
      </trkpt>
      <trkpt lat="42.36848" lon="2.30792">
        <ele>1601.5</ele>
        <time>2019-01-07T21:30:15Z</time>
      </trkpt>
      <trkpt lat="42.36847" lon="2.30795">
        <ele>1602.3</ele>
        <time>2019-01-07T21:30:16Z</time>
      </trkpt>
      <trkpt lat="42.36845" lon="2.30797">
        <ele>1603</ele>
        <time>2019-01-07T21:30:17Z</time>
      </trkpt>
      <trkpt lat="42.36844" lon="2.30799">
        <ele>1603.6</ele>
        <time>2019-01-07T21:30:17Z</time>
      </trkpt>
      <trkpt lat="42.36843" lon="2.30802">
        <ele>1604.2</ele>
        <time>2019-01-07T21:30:18Z</time>
      </trkpt>
      <trkpt lat="42.36842" lon="2.30805">
        <ele>1605</ele>
        <time>2019-01-07T21:30:18Z</time>
      </trkpt>
      <trkpt lat="42.36841" lon="2.30807">
        <ele>1605.6</ele>
        <time>2019-01-07T21:30:19Z</time>
      </trkpt>
      <trkpt lat="42.3684" lon="2.3081">
        <ele>1606.2</ele>
        <time>2019-01-07T21:30:19Z</time>
      </trkpt>
      <trkpt lat="42.3684" lon="2.30813">
        <ele>1607</ele>
        <time>2019-01-07T21:30:20Z</time>
      </trkpt>
      <trkpt lat="42.3684" lon="2.30816">
        <ele>1607.5</ele>
        <time>2019-01-07T21:30:21Z</time>
      </trkpt>
      <trkpt lat="42.36839" lon="2.30819">
        <ele>1608.1</ele>
        <time>2019-01-07T21:30:21Z</time>
      </trkpt>
      <trkpt lat="42.36838" lon="2.30821">
        <ele>1608.4</ele>
        <time>2019-01-07T21:30:22Z</time>
      </trkpt>
      <trkpt lat="42.36837" lon="2.30823">
        <ele>1609.1</ele>
        <time>2019-01-07T21:30:22Z</time>
      </trkpt>
      <trkpt lat="42.36837" lon="2.30826">
        <ele>1609.6</ele>
        <time>2019-01-07T21:30:23Z</time>
      </trkpt>
      <trkpt lat="42.36837" lon="2.30829">
        <ele>1610.1</ele>
        <time>2019-01-07T21:30:23Z</time>
      </trkpt>
      <trkpt lat="42.36836" lon="2.30831">
        <ele>1610.6</ele>
        <time>2019-01-07T21:30:24Z</time>
      </trkpt>
      <trkpt lat="42.36836" lon="2.30834">
        <ele>1611</ele>
        <time>2019-01-07T21:30:24Z</time>
      </trkpt>
      <trkpt lat="42.36836" lon="2.30836">
        <ele>1611.7</ele>
        <time>2019-01-07T21:30:25Z</time>
      </trkpt>
      <trkpt lat="42.36836" lon="2.30839">
        <ele>1612.3</ele>
        <time>2019-01-07T21:30:25Z</time>
      </trkpt>
      <trkpt lat="42.36837" lon="2.30841">
        <ele>1613</ele>
        <time>2019-01-07T21:30:26Z</time>
      </trkpt>
      <trkpt lat="42.36836" lon="2.30844">
        <ele>1613.6</ele>
        <time>2019-01-07T21:30:26Z</time>
      </trkpt>
      <trkpt lat="42.36835" lon="2.30847">
        <ele>1614.6</ele>
        <time>2019-01-07T21:30:27Z</time>
      </trkpt>
      <trkpt lat="42.36835" lon="2.3085">
        <ele>1615.2</ele>
        <time>2019-01-07T21:30:28Z</time>
      </trkpt>
      <trkpt lat="42.36834" lon="2.30852">
        <ele>1615.8</ele>
        <time>2019-01-07T21:30:28Z</time>
      </trkpt>
      <trkpt lat="42.36834" lon="2.30855">
        <ele>1616.5</ele>
        <time>2019-01-07T21:30:29Z</time>
      </trkpt>
      <trkpt lat="42.36834" lon="2.30858">
        <ele>1617.2</ele>
        <time>2019-01-07T21:30:29Z</time>
      </trkpt>
      <trkpt lat="42.36832" lon="2.30859">
        <ele>1617.8</ele>
        <time>2019-01-07T21:30:30Z</time>
      </trkpt>
      <trkpt lat="42.3683" lon="2.30861">
        <ele>1618.7</ele>
        <time>2019-01-07T21:30:30Z</time>
      </trkpt>
      <trkpt lat="42.36829" lon="2.30863">
        <ele>1619.5</ele>
        <time>2019-01-07T21:30:31Z</time>
      </trkpt>
      <trkpt lat="42.36828" lon="2.30866">
        <ele>1620.4</ele>
        <time>2019-01-07T21:30:31Z</time>
      </trkpt>
      <trkpt lat="42.36827" lon="2.30868">
        <ele>1621.2</ele>
        <time>2019-01-07T21:30:32Z</time>
      </trkpt>
      <trkpt lat="42.36826" lon="2.3087">
        <ele>1622.3</ele>
        <time>2019-01-07T21:30:33Z</time>
      </trkpt>
      <trkpt lat="42.36824" lon="2.30872">
        <ele>1623</ele>
        <time>2019-01-07T21:30:33Z</time>
      </trkpt>
      <trkpt lat="42.36823" lon="2.30874">
        <ele>1623.7</ele>
        <time>2019-01-07T21:30:34Z</time>
      </trkpt>
      <trkpt lat="42.36822" lon="2.30876">
        <ele>1624.5</ele>
        <time>2019-01-07T21:30:34Z</time>
      </trkpt>
      <trkpt lat="42.36823" lon="2.30879">
        <ele>1625.2</ele>
        <time>2019-01-07T21:30:35Z</time>
      </trkpt>
      <trkpt lat="42.36823" lon="2.30881">
        <ele>1625.8</ele>
        <time>2019-01-07T21:30:35Z</time>
      </trkpt>
      <trkpt lat="42.36824" lon="2.30884">
        <ele>1626.4</ele>
        <time>2019-01-07T21:30:36Z</time>
      </trkpt>
      <trkpt lat="42.36825" lon="2.30886">
        <ele>1627.2</ele>
        <time>2019-01-07T21:30:36Z</time>
      </trkpt>
      <trkpt lat="42.36826" lon="2.30889">
        <ele>1628</ele>
        <time>2019-01-07T21:30:37Z</time>
      </trkpt>
      <trkpt lat="42.36826" lon="2.30892">
        <ele>1628.9</ele>
        <time>2019-01-07T21:30:37Z</time>
      </trkpt>
      <trkpt lat="42.36825" lon="2.30894">
        <ele>1629.7</ele>
        <time>2019-01-07T21:30:38Z</time>
      </trkpt>
      <trkpt lat="42.36825" lon="2.30897">
        <ele>1630.7</ele>
        <time>2019-01-07T21:30:38Z</time>
      </trkpt>
      <trkpt lat="42.36825" lon="2.309">
        <ele>1631.6</ele>
        <time>2019-01-07T21:30:39Z</time>
      </trkpt>
      <trkpt lat="42.36825" lon="2.30903">
        <ele>1632.6</ele>
        <time>2019-01-07T21:30:40Z</time>
      </trkpt>
      <trkpt lat="42.36825" lon="2.30906">
        <ele>1633.6</ele>
        <time>2019-01-07T21:30:40Z</time>
      </trkpt>
      <trkpt lat="42.36825" lon="2.30908">
        <ele>1634.5</ele>
        <time>2019-01-07T21:30:41Z</time>
      </trkpt>
      <trkpt lat="42.36825" lon="2.30911">
        <ele>1635.5</ele>
        <time>2019-01-07T21:30:41Z</time>
      </trkpt>
      <trkpt lat="42.36823" lon="2.30913">
        <ele>1636.2</ele>
        <time>2019-01-07T21:30:42Z</time>
      </trkpt>
      <trkpt lat="42.36822" lon="2.30916">
        <ele>1637.2</ele>
        <time>2019-01-07T21:30:43Z</time>
      </trkpt>
      <trkpt lat="42.36822" lon="2.30919">
        <ele>1637.9</ele>
        <time>2019-01-07T21:30:43Z</time>
      </trkpt>
      <trkpt lat="42.36822" lon="2.30922">
        <ele>1638.6</ele>
        <time>2019-01-07T21:30:44Z</time>
      </trkpt>
      <trkpt lat="42.36822" lon="2.30924">
        <ele>1639.4</ele>
        <time>2019-01-07T21:30:44Z</time>
      </trkpt>
      <trkpt lat="42.36822" lon="2.30927">
        <ele>1640.1</ele>
        <time>2019-01-07T21:30:45Z</time>
      </trkpt>
      <trkpt lat="42.36822" lon="2.30929">
        <ele>1640.6</ele>
        <time>2019-01-07T21:30:45Z</time>
      </trkpt>
      <trkpt lat="42.36823" lon="2.30931">
        <ele>1641.2</ele>
        <time>2019-01-07T21:30:46Z</time>
      </trkpt>
      <trkpt lat="42.36823" lon="2.30934">
        <ele>1641.9</ele>
        <time>2019-01-07T21:30:46Z</time>
      </trkpt>
      <trkpt lat="42.36823" lon="2.30937">
        <ele>1642.6</ele>
        <time>2019-01-07T21:30:47Z</time>
      </trkpt>
      <trkpt lat="42.36824" lon="2.3094">
        <ele>1643.3</ele>
        <time>2019-01-07T21:30:47Z</time>
      </trkpt>
      <trkpt lat="42.36825" lon="2.30942">
        <ele>1643.8</ele>
        <time>2019-01-07T21:30:48Z</time>
      </trkpt>
      <trkpt lat="42.36825" lon="2.30945">
        <ele>1644.5</ele>
        <time>2019-01-07T21:30:49Z</time>
      </trkpt>
      <trkpt lat="42.36825" lon="2.30948">
        <ele>1644.9</ele>
        <time>2019-01-07T21:30:49Z</time>
      </trkpt>
      <trkpt lat="42.36826" lon="2.30952">
        <ele>1645.4</ele>
        <time>2019-01-07T21:30:50Z</time>
      </trkpt>
      <trkpt lat="42.36827" lon="2.30954">
        <ele>1645.8</ele>
        <time>2019-01-07T21:30:50Z</time>
      </trkpt>
      <trkpt lat="42.36828" lon="2.30957">
        <ele>1646.2</ele>
        <time>2019-01-07T21:30:51Z</time>
      </trkpt>
      <trkpt lat="42.36828" lon="2.30961">
        <ele>1646.8</ele>
        <time>2019-01-07T21:30:52Z</time>
      </trkpt>
      <trkpt lat="42.36827" lon="2.30964">
        <ele>1647.2</ele>
        <time>2019-01-07T21:30:52Z</time>
      </trkpt>
      <trkpt lat="42.36827" lon="2.30968">
        <ele>1647.7</ele>
        <time>2019-01-07T21:30:53Z</time>
      </trkpt>
      <trkpt lat="42.36827" lon="2.3097">
        <ele>1648.3</ele>
        <time>2019-01-07T21:30:54Z</time>
      </trkpt>
      <trkpt lat="42.36828" lon="2.30973">
        <ele>1648.7</ele>
        <time>2019-01-07T21:30:54Z</time>
      </trkpt>
      <trkpt lat="42.36828" lon="2.30976">
        <ele>1649.2</ele>
        <time>2019-01-07T21:30:55Z</time>
      </trkpt>
      <trkpt lat="42.36828" lon="2.3098">
        <ele>1649.7</ele>
        <time>2019-01-07T21:30:55Z</time>
      </trkpt>
      <trkpt lat="42.36828" lon="2.30982">
        <ele>1650.1</ele>
        <time>2019-01-07T21:30:56Z</time>
      </trkpt>
      <trkpt lat="42.36828" lon="2.30986">
        <ele>1650.6</ele>
        <time>2019-01-07T21:30:57Z</time>
      </trkpt>
      <trkpt lat="42.36829" lon="2.30989">
        <ele>1651</ele>
        <time>2019-01-07T21:30:57Z</time>
      </trkpt>
      <trkpt lat="42.36829" lon="2.30992">
        <ele>1651.7</ele>
        <time>2019-01-07T21:30:58Z</time>
      </trkpt>
      <trkpt lat="42.36829" lon="2.30996">
        <ele>1652.3</ele>
        <time>2019-01-07T21:30:59Z</time>
      </trkpt>
      <trkpt lat="42.36829" lon="2.30999">
        <ele>1652.7</ele>
        <time>2019-01-07T21:30:59Z</time>
      </trkpt>
      <trkpt lat="42.36829" lon="2.31002">
        <ele>1653.2</ele>
        <time>2019-01-07T21:31:00Z</time>
      </trkpt>
      <trkpt lat="42.36828" lon="2.31005">
        <ele>1654</ele>
        <time>2019-01-07T21:31:00Z</time>
      </trkpt>
      <trkpt lat="42.36828" lon="2.31008">
        <ele>1654.7</ele>
        <time>2019-01-07T21:31:01Z</time>
      </trkpt>
      <trkpt lat="42.36828" lon="2.31011">
        <ele>1655.6</ele>
        <time>2019-01-07T21:31:02Z</time>
      </trkpt>
      <trkpt lat="42.36828" lon="2.31014">
        <ele>1656.1</ele>
        <time>2019-01-07T21:31:02Z</time>
      </trkpt>
      <trkpt lat="42.36827" lon="2.31016">
        <ele>1656.8</ele>
        <time>2019-01-07T21:31:03Z</time>
      </trkpt>
      <trkpt lat="42.36825" lon="2.31018">
        <ele>1657.7</ele>
        <time>2019-01-07T21:31:03Z</time>
      </trkpt>
      <trkpt lat="42.36824" lon="2.31021">
        <ele>1658.4</ele>
        <time>2019-01-07T21:31:04Z</time>
      </trkpt>
      <trkpt lat="42.36822" lon="2.31023">
        <ele>1659.3</ele>
        <time>2019-01-07T21:31:05Z</time>
      </trkpt>
      <trkpt lat="42.36821" lon="2.31024">
        <ele>1660</ele>
        <time>2019-01-07T21:31:05Z</time>
      </trkpt>
      <trkpt lat="42.36819" lon="2.31026">
        <ele>1660.5</ele>
        <time>2019-01-07T21:31:06Z</time>
      </trkpt>
      <trkpt lat="42.36818" lon="2.31027">
        <ele>1661.4</ele>
        <time>2019-01-07T21:31:06Z</time>
      </trkpt>
      <trkpt lat="42.36816" lon="2.31029">
        <ele>1662.2</ele>
        <time>2019-01-07T21:31:07Z</time>
      </trkpt>
      <trkpt lat="42.36814" lon="2.3103">
        <ele>1662.8</ele>
        <time>2019-01-07T21:31:07Z</time>
      </trkpt>
      <trkpt lat="42.36812" lon="2.3103">
        <ele>1663</ele>
        <time>2019-01-07T21:31:08Z</time>
      </trkpt>
      <trkpt lat="42.3681" lon="2.3103">
        <ele>1663.7</ele>
        <time>2019-01-07T21:31:08Z</time>
      </trkpt>
      <trkpt lat="42.36808" lon="2.31031">
        <ele>1664.3</ele>
        <time>2019-01-07T21:31:09Z</time>
      </trkpt>
      <trkpt lat="42.36806" lon="2.31031">
        <ele>1664.7</ele>
        <time>2019-01-07T21:31:09Z</time>
      </trkpt>
      <trkpt lat="42.36805" lon="2.31033">
        <ele>1665.3</ele>
        <time>2019-01-07T21:31:10Z</time>
      </trkpt>
      <trkpt lat="42.36804" lon="2.31036">
        <ele>1666</ele>
        <time>2019-01-07T21:31:11Z</time>
      </trkpt>
      <trkpt lat="42.36803" lon="2.31038">
        <ele>1666.7</ele>
        <time>2019-01-07T21:31:11Z</time>
      </trkpt>
      <trkpt lat="42.36802" lon="2.31041">
        <ele>1667.3</ele>
        <time>2019-01-07T21:31:12Z</time>
      </trkpt>
      <trkpt lat="42.36802" lon="2.31043">
        <ele>1667.9</ele>
        <time>2019-01-07T21:31:12Z</time>
      </trkpt>
      <trkpt lat="42.36801" lon="2.31046">
        <ele>1668.5</ele>
        <time>2019-01-07T21:31:13Z</time>
      </trkpt>
      <trkpt lat="42.36801" lon="2.31049">
        <ele>1669.1</ele>
        <time>2019-01-07T21:31:13Z</time>
      </trkpt>
      <trkpt lat="42.368" lon="2.31052">
        <ele>1669.8</ele>
        <time>2019-01-07T21:31:14Z</time>
      </trkpt>
      <trkpt lat="42.36799" lon="2.31055">
        <ele>1670.6</ele>
        <time>2019-01-07T21:31:15Z</time>
      </trkpt>
      <trkpt lat="42.36799" lon="2.31058">
        <ele>1671.2</ele>
        <time>2019-01-07T21:31:15Z</time>
      </trkpt>
      <trkpt lat="42.36798" lon="2.31061">
        <ele>1672.1</ele>
        <time>2019-01-07T21:31:16Z</time>
      </trkpt>
      <trkpt lat="42.36796" lon="2.31063">
        <ele>1672.9</ele>
        <time>2019-01-07T21:31:16Z</time>
      </trkpt>
      <trkpt lat="42.36796" lon="2.31066">
        <ele>1673.7</ele>
        <time>2019-01-07T21:31:17Z</time>
      </trkpt>
      <trkpt lat="42.36794" lon="2.31069">
        <ele>1674.5</ele>
        <time>2019-01-07T21:31:18Z</time>
      </trkpt>
      <trkpt lat="42.36794" lon="2.31071">
        <ele>1675.3</ele>
        <time>2019-01-07T21:31:18Z</time>
      </trkpt>
      <trkpt lat="42.36795" lon="2.31074">
        <ele>1675.9</ele>
        <time>2019-01-07T21:31:19Z</time>
      </trkpt>
      <trkpt lat="42.36795" lon="2.31077">
        <ele>1676.6</ele>
        <time>2019-01-07T21:31:19Z</time>
      </trkpt>
      <trkpt lat="42.36795" lon="2.31079">
        <ele>1677.5</ele>
        <time>2019-01-07T21:31:20Z</time>
      </trkpt>
      <trkpt lat="42.36794" lon="2.31082">
        <ele>1678.2</ele>
        <time>2019-01-07T21:31:20Z</time>
      </trkpt>
      <trkpt lat="42.36793" lon="2.31085">
        <ele>1679.2</ele>
        <time>2019-01-07T21:31:21Z</time>
      </trkpt>
      <trkpt lat="42.36792" lon="2.31087">
        <ele>1680.3</ele>
        <time>2019-01-07T21:31:22Z</time>
      </trkpt>
      <trkpt lat="42.36791" lon="2.31089">
        <ele>1680.9</ele>
        <time>2019-01-07T21:31:22Z</time>
      </trkpt>
      <trkpt lat="42.36789" lon="2.31092">
        <ele>1681.8</ele>
        <time>2019-01-07T21:31:23Z</time>
      </trkpt>
      <trkpt lat="42.36789" lon="2.31095">
        <ele>1682.5</ele>
        <time>2019-01-07T21:31:23Z</time>
      </trkpt>
      <trkpt lat="42.36788" lon="2.31097">
        <ele>1683.2</ele>
        <time>2019-01-07T21:31:24Z</time>
      </trkpt>
      <trkpt lat="42.36788" lon="2.311">
        <ele>1684</ele>
        <time>2019-01-07T21:31:24Z</time>
      </trkpt>
      <trkpt lat="42.36789" lon="2.31103">
        <ele>1684.7</ele>
        <time>2019-01-07T21:31:25Z</time>
      </trkpt>
      <trkpt lat="42.36784" lon="2.31113">
        <ele>1687.8</ele>
        <time>2019-01-07T21:31:27Z</time>
      </trkpt>
      <trkpt lat="42.36784" lon="2.31118">
        <ele>1689.2</ele>
        <time>2019-01-07T21:31:28Z</time>
      </trkpt>
      <trkpt lat="42.3678" lon="2.31122">
        <ele>1690.4</ele>
        <time>2019-01-07T21:31:29Z</time>
      </trkpt>
      <trkpt lat="42.36779" lon="2.31124">
        <ele>1691.3</ele>
        <time>2019-01-07T21:31:30Z</time>
      </trkpt>
      <trkpt lat="42.36777" lon="2.31127">
        <ele>1692.1</ele>
        <time>2019-01-07T21:31:31Z</time>
      </trkpt>
      <trkpt lat="42.36774" lon="2.31138">
        <ele>1695.3</ele>
        <time>2019-01-07T21:31:33Z</time>
      </trkpt>
      <trkpt lat="42.36774" lon="2.31151">
        <ele>1698.1</ele>
        <time>2019-01-07T21:31:36Z</time>
      </trkpt>
      <trkpt lat="42.36768" lon="2.31161">
        <ele>1700.8</ele>
        <time>2019-01-07T21:31:38Z</time>
      </trkpt>
      <trkpt lat="42.3676" lon="2.31168">
        <ele>1702.6</ele>
        <time>2019-01-07T21:31:41Z</time>
      </trkpt>
      <trkpt lat="42.3676" lon="2.3118">
        <ele>1705</ele>
        <time>2019-01-07T21:31:43Z</time>
      </trkpt>
      <trkpt lat="42.36755" lon="2.31191">
        <ele>1707.7</ele>
        <time>2019-01-07T21:31:46Z</time>
      </trkpt>
      <trkpt lat="42.36747" lon="2.31184">
        <ele>1707.3</ele>
        <time>2019-01-07T21:31:48Z</time>
      </trkpt>
      <trkpt lat="42.36745" lon="2.31185">
        <ele>1707.8</ele>
        <time>2019-01-07T21:31:49Z</time>
      </trkpt>
      <trkpt lat="42.36736" lon="2.31185">
        <ele>1709.6</ele>
        <time>2019-01-07T21:31:51Z</time>
      </trkpt>
      <trkpt lat="42.36728" lon="2.31185">
        <ele>1710.6</ele>
        <time>2019-01-07T21:31:53Z</time>
      </trkpt>
      <trkpt lat="42.3673" lon="2.31184">
        <ele>1710.1</ele>
        <time>2019-01-07T21:31:54Z</time>
      </trkpt>
      <trkpt lat="42.36722" lon="2.31188">
        <ele>1712.7</ele>
        <time>2019-01-07T21:31:56Z</time>
      </trkpt>
      <trkpt lat="42.36715" lon="2.31183">
        <ele>1713.2</ele>
        <time>2019-01-07T21:31:58Z</time>
      </trkpt>
      <trkpt lat="42.36713" lon="2.31183">
        <ele>1713.5</ele>
        <time>2019-01-07T21:31:59Z</time>
      </trkpt>
      <trkpt lat="42.36704" lon="2.31182">
        <ele>1715.9</ele>
        <time>2019-01-07T21:32:01Z</time>
      </trkpt>
      <trkpt lat="42.36695" lon="2.3118">
        <ele>1717.9</ele>
        <time>2019-01-07T21:32:04Z</time>
      </trkpt>
      <trkpt lat="42.36687" lon="2.31174">
        <ele>1718.4</ele>
        <time>2019-01-07T21:32:06Z</time>
      </trkpt>
      <trkpt lat="42.36678" lon="2.31175">
        <ele>1721.4</ele>
        <time>2019-01-07T21:32:08Z</time>
      </trkpt>
      <trkpt lat="42.36675" lon="2.31174">
        <ele>1722</ele>
        <time>2019-01-07T21:32:09Z</time>
      </trkpt>
      <trkpt lat="42.36673" lon="2.31175">
        <ele>1722.9</ele>
        <time>2019-01-07T21:32:10Z</time>
      </trkpt>
      <trkpt lat="42.36671" lon="2.31175">
        <ele>1723.7</ele>
        <time>2019-01-07T21:32:10Z</time>
      </trkpt>
      <trkpt lat="42.36669" lon="2.31174">
        <ele>1723.5</ele>
        <time>2019-01-07T21:32:11Z</time>
      </trkpt>
      <trkpt lat="42.36668" lon="2.31172">
        <ele>1723.7</ele>
        <time>2019-01-07T21:32:11Z</time>
      </trkpt>
      <trkpt lat="42.36666" lon="2.31172">
        <ele>1724.1</ele>
        <time>2019-01-07T21:32:12Z</time>
      </trkpt>
      <trkpt lat="42.36656" lon="2.31172">
        <ele>1726.5</ele>
        <time>2019-01-07T21:32:14Z</time>
      </trkpt>
      <trkpt lat="42.36648" lon="2.31169">
        <ele>1727.6</ele>
        <time>2019-01-07T21:32:17Z</time>
      </trkpt>
      <trkpt lat="42.36646" lon="2.31169">
        <ele>1727.9</ele>
        <time>2019-01-07T21:32:17Z</time>
      </trkpt>
      <trkpt lat="42.36643" lon="2.31168">
        <ele>1728.5</ele>
        <time>2019-01-07T21:32:18Z</time>
      </trkpt>
      <trkpt lat="42.36637" lon="2.31168">
        <ele>1729.9</ele>
        <time>2019-01-07T21:32:20Z</time>
      </trkpt>
      <trkpt lat="42.36635" lon="2.31169">
        <ele>1730.7</ele>
        <time>2019-01-07T21:32:20Z</time>
      </trkpt>
      <trkpt lat="42.36633" lon="2.3117">
        <ele>1731.5</ele>
        <time>2019-01-07T21:32:21Z</time>
      </trkpt>
      <trkpt lat="42.36632" lon="2.31173">
        <ele>1732.6</ele>
        <time>2019-01-07T21:32:21Z</time>
      </trkpt>
      <trkpt lat="42.36632" lon="2.31176">
        <ele>1733.7</ele>
        <time>2019-01-07T21:32:22Z</time>
      </trkpt>
      <trkpt lat="42.3663" lon="2.31179">
        <ele>1734.9</ele>
        <time>2019-01-07T21:32:23Z</time>
      </trkpt>
      <trkpt lat="42.36627" lon="2.31182">
        <ele>1736.7</ele>
        <time>2019-01-07T21:32:24Z</time>
      </trkpt>
      <trkpt lat="42.36625" lon="2.31184">
        <ele>1737.5</ele>
        <time>2019-01-07T21:32:24Z</time>
      </trkpt>
      <trkpt lat="42.36624" lon="2.31185">
        <ele>1738.3</ele>
        <time>2019-01-07T21:32:25Z</time>
      </trkpt>
      <trkpt lat="42.36622" lon="2.31187">
        <ele>1739</ele>
        <time>2019-01-07T21:32:25Z</time>
      </trkpt>
      <trkpt lat="42.36621" lon="2.31189">
        <ele>1739.8</ele>
        <time>2019-01-07T21:32:26Z</time>
      </trkpt>
      <trkpt lat="42.3662" lon="2.31191">
        <ele>1740.6</ele>
        <time>2019-01-07T21:32:26Z</time>
      </trkpt>
      <trkpt lat="42.36618" lon="2.31192">
        <ele>1741.1</ele>
        <time>2019-01-07T21:32:27Z</time>
      </trkpt>
      <trkpt lat="42.36615" lon="2.31192">
        <ele>1741.6</ele>
        <time>2019-01-07T21:32:28Z</time>
      </trkpt>
      <trkpt lat="42.36613" lon="2.31194">
        <ele>1742.5</ele>
        <time>2019-01-07T21:32:28Z</time>
      </trkpt>
      <trkpt lat="42.36612" lon="2.31195">
        <ele>1743.2</ele>
        <time>2019-01-07T21:32:29Z</time>
      </trkpt>
      <trkpt lat="42.3661" lon="2.31197">
        <ele>1744.1</ele>
        <time>2019-01-07T21:32:29Z</time>
      </trkpt>
      <trkpt lat="42.36608" lon="2.312">
        <ele>1745.3</ele>
        <time>2019-01-07T21:32:30Z</time>
      </trkpt>
      <trkpt lat="42.36607" lon="2.31205">
        <ele>1747</ele>
        <time>2019-01-07T21:32:31Z</time>
      </trkpt>
      <trkpt lat="42.36606" lon="2.31212">
        <ele>1749.1</ele>
        <time>2019-01-07T21:32:32Z</time>
      </trkpt>
      <trkpt lat="42.36602" lon="2.3122">
        <ele>1752.1</ele>
        <time>2019-01-07T21:32:34Z</time>
      </trkpt>
      <trkpt lat="42.36597" lon="2.31231">
        <ele>1756.2</ele>
        <time>2019-01-07T21:32:37Z</time>
      </trkpt>
      <trkpt lat="42.36598" lon="2.31233">
        <ele>1756.9</ele>
        <time>2019-01-07T21:32:37Z</time>
      </trkpt>
      <trkpt lat="42.36597" lon="2.31236">
        <ele>1757.9</ele>
        <time>2019-01-07T21:32:38Z</time>
      </trkpt>
      <trkpt lat="42.36596" lon="2.31238">
        <ele>1758.7</ele>
        <time>2019-01-07T21:32:39Z</time>
      </trkpt>
      <trkpt lat="42.36594" lon="2.31242">
        <ele>1760.2</ele>
        <time>2019-01-07T21:32:39Z</time>
      </trkpt>
      <trkpt lat="42.36589" lon="2.31247">
        <ele>1763</ele>
        <time>2019-01-07T21:32:41Z</time>
      </trkpt>
      <trkpt lat="42.36587" lon="2.31248">
        <ele>1763.8</ele>
        <time>2019-01-07T21:32:42Z</time>
      </trkpt>
      <trkpt lat="42.36587" lon="2.31251">
        <ele>1764.6</ele>
        <time>2019-01-07T21:32:42Z</time>
      </trkpt>
      <trkpt lat="42.36586" lon="2.31254">
        <ele>1765.5</ele>
        <time>2019-01-07T21:32:43Z</time>
      </trkpt>
      <trkpt lat="42.36587" lon="2.31257">
        <ele>1766.4</ele>
        <time>2019-01-07T21:32:43Z</time>
      </trkpt>
      <trkpt lat="42.36585" lon="2.31258">
        <ele>1767.2</ele>
        <time>2019-01-07T21:32:44Z</time>
      </trkpt>
      <trkpt lat="42.36583" lon="2.31259">
        <ele>1768</ele>
        <time>2019-01-07T21:32:45Z</time>
      </trkpt>
      <trkpt lat="42.36585" lon="2.31258">
        <ele>1767.1</ele>
        <time>2019-01-07T21:32:45Z</time>
      </trkpt>
      <trkpt lat="42.36582" lon="2.31258">
        <ele>1767.5</ele>
        <time>2019-01-07T21:32:46Z</time>
      </trkpt>
      <trkpt lat="42.3658" lon="2.31257">
        <ele>1767.7</ele>
        <time>2019-01-07T21:32:46Z</time>
      </trkpt>
      <trkpt lat="42.36578" lon="2.31255">
        <ele>1767.7</ele>
        <time>2019-01-07T21:32:47Z</time>
      </trkpt>
      <trkpt lat="42.36576" lon="2.31254">
        <ele>1767.8</ele>
        <time>2019-01-07T21:32:48Z</time>
      </trkpt>
      <trkpt lat="42.36574" lon="2.31255">
        <ele>1768.5</ele>
        <time>2019-01-07T21:32:48Z</time>
      </trkpt>
      <trkpt lat="42.36573" lon="2.31257">
        <ele>1769.4</ele>
        <time>2019-01-07T21:32:49Z</time>
      </trkpt>
      <trkpt lat="42.36571" lon="2.31259">
        <ele>1770.3</ele>
        <time>2019-01-07T21:32:49Z</time>
      </trkpt>
      <trkpt lat="42.36567" lon="2.31264">
        <ele>1772.6</ele>
        <time>2019-01-07T21:32:51Z</time>
      </trkpt>
      <trkpt lat="42.36565" lon="2.31264">
        <ele>1773.2</ele>
        <time>2019-01-07T21:32:51Z</time>
      </trkpt>
      <trkpt lat="42.36563" lon="2.31264">
        <ele>1773.7</ele>
        <time>2019-01-07T21:32:52Z</time>
      </trkpt>
      <trkpt lat="42.3656" lon="2.31265">
        <ele>1774.4</ele>
        <time>2019-01-07T21:32:53Z</time>
      </trkpt>
      <trkpt lat="42.36558" lon="2.31266">
        <ele>1775</ele>
        <time>2019-01-07T21:32:53Z</time>
      </trkpt>
      <trkpt lat="42.36556" lon="2.31266">
        <ele>1775.7</ele>
        <time>2019-01-07T21:32:54Z</time>
      </trkpt>
      <trkpt lat="42.36552" lon="2.31266">
        <ele>1776.7</ele>
        <time>2019-01-07T21:32:55Z</time>
      </trkpt>
      <trkpt lat="42.3655" lon="2.31266">
        <ele>1777.3</ele>
        <time>2019-01-07T21:32:55Z</time>
      </trkpt>
      <trkpt lat="42.36547" lon="2.31266">
        <ele>1778</ele>
        <time>2019-01-07T21:32:56Z</time>
      </trkpt>
      <trkpt lat="42.36545" lon="2.31268">
        <ele>1779.1</ele>
        <time>2019-01-07T21:32:57Z</time>
      </trkpt>
      <trkpt lat="42.36544" lon="2.3127">
        <ele>1780</ele>
        <time>2019-01-07T21:32:57Z</time>
      </trkpt>
      <trkpt lat="42.36542" lon="2.31271">
        <ele>1780.8</ele>
        <time>2019-01-07T21:32:58Z</time>
      </trkpt>
      <trkpt lat="42.36539" lon="2.31271">
        <ele>1781.6</ele>
        <time>2019-01-07T21:32:58Z</time>
      </trkpt>
      <trkpt lat="42.36537" lon="2.31272">
        <ele>1782.5</ele>
        <time>2019-01-07T21:32:59Z</time>
      </trkpt>
      <trkpt lat="42.36536" lon="2.31273">
        <ele>1783.2</ele>
        <time>2019-01-07T21:33:00Z</time>
      </trkpt>
      <trkpt lat="42.36534" lon="2.31276">
        <ele>1784.6</ele>
        <time>2019-01-07T21:33:00Z</time>
      </trkpt>
      <trkpt lat="42.36533" lon="2.31279">
        <ele>1785.8</ele>
        <time>2019-01-07T21:33:01Z</time>
      </trkpt>
      <trkpt lat="42.36532" lon="2.31281">
        <ele>1786.8</ele>
        <time>2019-01-07T21:33:01Z</time>
      </trkpt>
      <trkpt lat="42.36531" lon="2.31283">
        <ele>1787.6</ele>
        <time>2019-01-07T21:33:02Z</time>
      </trkpt>
      <trkpt lat="42.36529" lon="2.31285">
        <ele>1788.6</ele>
        <time>2019-01-07T21:33:03Z</time>
      </trkpt>
      <trkpt lat="42.36528" lon="2.31287">
        <ele>1789.4</ele>
        <time>2019-01-07T21:33:03Z</time>
      </trkpt>
      <trkpt lat="42.36526" lon="2.3129">
        <ele>1790.5</ele>
        <time>2019-01-07T21:33:04Z</time>
      </trkpt>
      <trkpt lat="42.36525" lon="2.3129">
        <ele>1791</ele>
        <time>2019-01-07T21:33:04Z</time>
      </trkpt>
      <trkpt lat="42.36523" lon="2.31291">
        <ele>1791.3</ele>
        <time>2019-01-07T21:33:05Z</time>
      </trkpt>
      <trkpt lat="42.36521" lon="2.31293">
        <ele>1792.1</ele>
        <time>2019-01-07T21:33:05Z</time>
      </trkpt>
      <trkpt lat="42.3652" lon="2.31294">
        <ele>1792.7</ele>
        <time>2019-01-07T21:33:06Z</time>
      </trkpt>
      <trkpt lat="42.36518" lon="2.31296">
        <ele>1793.8</ele>
        <time>2019-01-07T21:33:06Z</time>
      </trkpt>
      <trkpt lat="42.36517" lon="2.31298">
        <ele>1794.4</ele>
        <time>2019-01-07T21:33:07Z</time>
      </trkpt>
      <trkpt lat="42.36516" lon="2.313">
        <ele>1795.1</ele>
        <time>2019-01-07T21:33:07Z</time>
      </trkpt>
      <trkpt lat="42.36514" lon="2.31301">
        <ele>1795.8</ele>
        <time>2019-01-07T21:33:08Z</time>
      </trkpt>
      <trkpt lat="42.36512" lon="2.31303">
        <ele>1796.8</ele>
        <time>2019-01-07T21:33:08Z</time>
      </trkpt>
      <trkpt lat="42.36511" lon="2.31305">
        <ele>1797.6</ele>
        <time>2019-01-07T21:33:09Z</time>
      </trkpt>
      <trkpt lat="42.3651" lon="2.31307">
        <ele>1798.3</ele>
        <time>2019-01-07T21:33:09Z</time>
      </trkpt>
      <trkpt lat="42.36508" lon="2.31308">
        <ele>1799.1</ele>
        <time>2019-01-07T21:33:10Z</time>
      </trkpt>
      <trkpt lat="42.36506" lon="2.31309">
        <ele>1799.9</ele>
        <time>2019-01-07T21:33:11Z</time>
      </trkpt>
      <trkpt lat="42.36504" lon="2.31312">
        <ele>1800.6</ele>
        <time>2019-01-07T21:33:11Z</time>
      </trkpt>
      <trkpt lat="42.36503" lon="2.31314">
        <ele>1801.5</ele>
        <time>2019-01-07T21:33:12Z</time>
      </trkpt>
      <trkpt lat="42.36502" lon="2.31317">
        <ele>1802.5</ele>
        <time>2019-01-07T21:33:12Z</time>
      </trkpt>
      <trkpt lat="42.365" lon="2.31319">
        <ele>1803.4</ele>
        <time>2019-01-07T21:33:13Z</time>
      </trkpt>
      <trkpt lat="42.36499" lon="2.31321">
        <ele>1804.2</ele>
        <time>2019-01-07T21:33:14Z</time>
      </trkpt>
      <trkpt lat="42.36497" lon="2.31323">
        <ele>1805</ele>
        <time>2019-01-07T21:33:14Z</time>
      </trkpt>
      <trkpt lat="42.36496" lon="2.31325">
        <ele>1805.7</ele>
        <time>2019-01-07T21:33:15Z</time>
      </trkpt>
      <trkpt lat="42.36495" lon="2.31328">
        <ele>1806.5</ele>
        <time>2019-01-07T21:33:15Z</time>
      </trkpt>
      <trkpt lat="42.36494" lon="2.3133">
        <ele>1807.1</ele>
        <time>2019-01-07T21:33:16Z</time>
      </trkpt>
      <trkpt lat="42.36492" lon="2.31332">
        <ele>1808</ele>
        <time>2019-01-07T21:33:16Z</time>
      </trkpt>
      <trkpt lat="42.36491" lon="2.31334">
        <ele>1808.7</ele>
        <time>2019-01-07T21:33:17Z</time>
      </trkpt>
      <trkpt lat="42.36489" lon="2.31336">
        <ele>1809.4</ele>
        <time>2019-01-07T21:33:18Z</time>
      </trkpt>
      <trkpt lat="42.36488" lon="2.31338">
        <ele>1810.2</ele>
        <time>2019-01-07T21:33:18Z</time>
      </trkpt>
      <trkpt lat="42.36486" lon="2.3134">
        <ele>1810.8</ele>
        <time>2019-01-07T21:33:19Z</time>
      </trkpt>
      <trkpt lat="42.36485" lon="2.31341">
        <ele>1811.5</ele>
        <time>2019-01-07T21:33:19Z</time>
      </trkpt>
      <trkpt lat="42.36483" lon="2.31343">
        <ele>1812.2</ele>
        <time>2019-01-07T21:33:20Z</time>
      </trkpt>
      <trkpt lat="42.36482" lon="2.31345">
        <ele>1813</ele>
        <time>2019-01-07T21:33:20Z</time>
      </trkpt>
      <trkpt lat="42.36482" lon="2.31348">
        <ele>1813.9</ele>
        <time>2019-01-07T21:33:21Z</time>
      </trkpt>
      <trkpt lat="42.36481" lon="2.3135">
        <ele>1814.5</ele>
        <time>2019-01-07T21:33:21Z</time>
      </trkpt>
      <trkpt lat="42.36479" lon="2.31352">
        <ele>1815.5</ele>
        <time>2019-01-07T21:33:22Z</time>
      </trkpt>
      <trkpt lat="42.36478" lon="2.31355">
        <ele>1816.1</ele>
        <time>2019-01-07T21:33:22Z</time>
      </trkpt>
      <trkpt lat="42.36477" lon="2.31357">
        <ele>1817</ele>
        <time>2019-01-07T21:33:23Z</time>
      </trkpt>
      <trkpt lat="42.36475" lon="2.31359">
        <ele>1818</ele>
        <time>2019-01-07T21:33:24Z</time>
      </trkpt>
      <trkpt lat="42.36473" lon="2.3136">
        <ele>1818.5</ele>
        <time>2019-01-07T21:33:24Z</time>
      </trkpt>
      <trkpt lat="42.36472" lon="2.31362">
        <ele>1819.4</ele>
        <time>2019-01-07T21:33:25Z</time>
      </trkpt>
      <trkpt lat="42.36471" lon="2.31364">
        <ele>1820.2</ele>
        <time>2019-01-07T21:33:25Z</time>
      </trkpt>
      <trkpt lat="42.36469" lon="2.31366">
        <ele>1821.3</ele>
        <time>2019-01-07T21:33:26Z</time>
      </trkpt>
      <trkpt lat="42.36468" lon="2.31368">
        <ele>1822.2</ele>
        <time>2019-01-07T21:33:26Z</time>
      </trkpt>
      <trkpt lat="42.36467" lon="2.31371">
        <ele>1823.3</ele>
        <time>2019-01-07T21:33:27Z</time>
      </trkpt>
      <trkpt lat="42.36467" lon="2.31374">
        <ele>1824.2</ele>
        <time>2019-01-07T21:33:27Z</time>
      </trkpt>
      <trkpt lat="42.36466" lon="2.31376">
        <ele>1825.1</ele>
        <time>2019-01-07T21:33:28Z</time>
      </trkpt>
      <trkpt lat="42.36465" lon="2.31378">
        <ele>1826.1</ele>
        <time>2019-01-07T21:33:28Z</time>
      </trkpt>
      <trkpt lat="42.36464" lon="2.31381">
        <ele>1827.1</ele>
        <time>2019-01-07T21:33:29Z</time>
      </trkpt>
      <trkpt lat="42.36463" lon="2.31383">
        <ele>1828</ele>
        <time>2019-01-07T21:33:29Z</time>
      </trkpt>
      <trkpt lat="42.36462" lon="2.31386">
        <ele>1829</ele>
        <time>2019-01-07T21:33:30Z</time>
      </trkpt>
      <trkpt lat="42.36461" lon="2.31388">
        <ele>1829.9</ele>
        <time>2019-01-07T21:33:31Z</time>
      </trkpt>
      <trkpt lat="42.36461" lon="2.31391">
        <ele>1830.6</ele>
        <time>2019-01-07T21:33:31Z</time>
      </trkpt>
      <trkpt lat="42.3646" lon="2.31393">
        <ele>1831.6</ele>
        <time>2019-01-07T21:33:32Z</time>
      </trkpt>
      <trkpt lat="42.36459" lon="2.31395">
        <ele>1832.3</ele>
        <time>2019-01-07T21:33:32Z</time>
      </trkpt>
      <trkpt lat="42.36457" lon="2.31396">
        <ele>1833</ele>
        <time>2019-01-07T21:33:33Z</time>
      </trkpt>
      <trkpt lat="42.36457" lon="2.31399">
        <ele>1833.9</ele>
        <time>2019-01-07T21:33:33Z</time>
      </trkpt>
      <trkpt lat="42.36456" lon="2.31401">
        <ele>1835</ele>
        <time>2019-01-07T21:33:34Z</time>
      </trkpt>
      <trkpt lat="42.36454" lon="2.31403">
        <ele>1835.7</ele>
        <time>2019-01-07T21:33:34Z</time>
      </trkpt>
      <trkpt lat="42.36453" lon="2.31405">
        <ele>1836.6</ele>
        <time>2019-01-07T21:33:35Z</time>
      </trkpt>
      <trkpt lat="42.36452" lon="2.31408">
        <ele>1837.8</ele>
        <time>2019-01-07T21:33:36Z</time>
      </trkpt>
      <trkpt lat="42.36451" lon="2.31411">
        <ele>1838.8</ele>
        <time>2019-01-07T21:33:36Z</time>
      </trkpt>
      <trkpt lat="42.36451" lon="2.31414">
        <ele>1839.5</ele>
        <time>2019-01-07T21:33:37Z</time>
      </trkpt>
      <trkpt lat="42.36451" lon="2.31416">
        <ele>1840.6</ele>
        <time>2019-01-07T21:33:37Z</time>
      </trkpt>
      <trkpt lat="42.36451" lon="2.31419">
        <ele>1841.3</ele>
        <time>2019-01-07T21:33:38Z</time>
      </trkpt>
      <trkpt lat="42.36451" lon="2.31421">
        <ele>1841.9</ele>
        <time>2019-01-07T21:33:38Z</time>
      </trkpt>
      <trkpt lat="42.3645" lon="2.31423">
        <ele>1842.5</ele>
        <time>2019-01-07T21:33:39Z</time>
      </trkpt>
      <trkpt lat="42.36448" lon="2.31424">
        <ele>1843.1</ele>
        <time>2019-01-07T21:33:39Z</time>
      </trkpt>
      <trkpt lat="42.36446" lon="2.31426">
        <ele>1843.9</ele>
        <time>2019-01-07T21:33:40Z</time>
      </trkpt>
      <trkpt lat="42.36444" lon="2.31428">
        <ele>1844.9</ele>
        <time>2019-01-07T21:33:41Z</time>
      </trkpt>
      <trkpt lat="42.36443" lon="2.3143">
        <ele>1845.6</ele>
        <time>2019-01-07T21:33:41Z</time>
      </trkpt>
      <trkpt lat="42.36442" lon="2.31433">
        <ele>1846.5</ele>
        <time>2019-01-07T21:33:42Z</time>
      </trkpt>
      <trkpt lat="42.36441" lon="2.31435">
        <ele>1847.2</ele>
        <time>2019-01-07T21:33:42Z</time>
      </trkpt>
      <trkpt lat="42.3644" lon="2.31438">
        <ele>1847.9</ele>
        <time>2019-01-07T21:33:43Z</time>
      </trkpt>
      <trkpt lat="42.3644" lon="2.3144">
        <ele>1848.6</ele>
        <time>2019-01-07T21:33:43Z</time>
      </trkpt>
      <trkpt lat="42.36439" lon="2.31443">
        <ele>1849.4</ele>
        <time>2019-01-07T21:33:44Z</time>
      </trkpt>
      <trkpt lat="42.36438" lon="2.31445">
        <ele>1850</ele>
        <time>2019-01-07T21:33:44Z</time>
      </trkpt>
      <trkpt lat="42.36437" lon="2.31448">
        <ele>1850.8</ele>
        <time>2019-01-07T21:33:45Z</time>
      </trkpt>
      <trkpt lat="42.36437" lon="2.31452">
        <ele>1852.2</ele>
        <time>2019-01-07T21:33:46Z</time>
      </trkpt>
      <trkpt lat="42.36436" lon="2.31455">
        <ele>1852.9</ele>
        <time>2019-01-07T21:33:46Z</time>
      </trkpt>
      <trkpt lat="42.36436" lon="2.31457">
        <ele>1853.7</ele>
        <time>2019-01-07T21:33:47Z</time>
      </trkpt>
      <trkpt lat="42.36436" lon="2.3146">
        <ele>1854.5</ele>
        <time>2019-01-07T21:33:47Z</time>
      </trkpt>
      <trkpt lat="42.36436" lon="2.31462">
        <ele>1854.8</ele>
        <time>2019-01-07T21:33:48Z</time>
      </trkpt>
      <trkpt lat="42.36436" lon="2.31462">
        <ele>1854.7</ele>
        <time>2019-01-07T21:33:48Z</time>
      </trkpt>
      <trkpt lat="42.36436" lon="2.31463">
        <ele>1855.1</ele>
        <time>2019-01-07T21:33:48Z</time>
      </trkpt>
      <trkpt lat="42.36436" lon="2.31466">
        <ele>1856</ele>
        <time>2019-01-07T21:33:49Z</time>
      </trkpt>
      <trkpt lat="42.36435" lon="2.31469">
        <ele>1856.9</ele>
        <time>2019-01-07T21:33:49Z</time>
      </trkpt>
      <trkpt lat="42.36435" lon="2.31471">
        <ele>1857.5</ele>
        <time>2019-01-07T21:33:50Z</time>
      </trkpt>
      <trkpt lat="42.36434" lon="2.31474">
        <ele>1858.3</ele>
        <time>2019-01-07T21:33:50Z</time>
      </trkpt>
      <trkpt lat="42.36434" lon="2.31477">
        <ele>1859</ele>
        <time>2019-01-07T21:33:51Z</time>
      </trkpt>
      <trkpt lat="42.36434" lon="2.3148">
        <ele>1859.9</ele>
        <time>2019-01-07T21:33:51Z</time>
      </trkpt>
      <trkpt lat="42.36434" lon="2.31482">
        <ele>1860.5</ele>
        <time>2019-01-07T21:33:52Z</time>
      </trkpt>
      <trkpt lat="42.36433" lon="2.31485">
        <ele>1861.5</ele>
        <time>2019-01-07T21:33:52Z</time>
      </trkpt>
      <trkpt lat="42.36433" lon="2.31489">
        <ele>1862.3</ele>
        <time>2019-01-07T21:33:53Z</time>
      </trkpt>
      <trkpt lat="42.36433" lon="2.31492">
        <ele>1863.2</ele>
        <time>2019-01-07T21:33:54Z</time>
      </trkpt>
      <trkpt lat="42.36432" lon="2.31494">
        <ele>1863.9</ele>
        <time>2019-01-07T21:33:54Z</time>
      </trkpt>
      <trkpt lat="42.3643" lon="2.31496">
        <ele>1864.7</ele>
        <time>2019-01-07T21:33:55Z</time>
      </trkpt>
      <trkpt lat="42.36429" lon="2.31499">
        <ele>1865.5</ele>
        <time>2019-01-07T21:33:55Z</time>
      </trkpt>
      <trkpt lat="42.36428" lon="2.31502">
        <ele>1866.4</ele>
        <time>2019-01-07T21:33:56Z</time>
      </trkpt>
      <trkpt lat="42.36427" lon="2.31504">
        <ele>1867.1</ele>
        <time>2019-01-07T21:33:57Z</time>
      </trkpt>
      <trkpt lat="42.36426" lon="2.31507">
        <ele>1867.7</ele>
        <time>2019-01-07T21:33:57Z</time>
      </trkpt>
      <trkpt lat="42.36426" lon="2.3151">
        <ele>1868.5</ele>
        <time>2019-01-07T21:33:58Z</time>
      </trkpt>
      <trkpt lat="42.36424" lon="2.31513">
        <ele>1869.2</ele>
        <time>2019-01-07T21:33:59Z</time>
      </trkpt>
      <trkpt lat="42.36424" lon="2.31516">
        <ele>1869.8</ele>
        <time>2019-01-07T21:33:59Z</time>
      </trkpt>
      <trkpt lat="42.36424" lon="2.31518">
        <ele>1870.2</ele>
        <time>2019-01-07T21:34:00Z</time>
      </trkpt>
      <trkpt lat="42.36423" lon="2.31521">
        <ele>1871</ele>
        <time>2019-01-07T21:34:00Z</time>
      </trkpt>
      <trkpt lat="42.36422" lon="2.31524">
        <ele>1871.5</ele>
        <time>2019-01-07T21:34:01Z</time>
      </trkpt>
      <trkpt lat="42.36422" lon="2.31526">
        <ele>1872.2</ele>
        <time>2019-01-07T21:34:01Z</time>
      </trkpt>
      <trkpt lat="42.3642" lon="2.31529">
        <ele>1872.7</ele>
        <time>2019-01-07T21:34:02Z</time>
      </trkpt>
      <trkpt lat="42.36419" lon="2.31531">
        <ele>1873.3</ele>
        <time>2019-01-07T21:34:02Z</time>
      </trkpt>
      <trkpt lat="42.36418" lon="2.31534">
        <ele>1873.9</ele>
        <time>2019-01-07T21:34:03Z</time>
      </trkpt>
      <trkpt lat="42.36417" lon="2.31537">
        <ele>1874.5</ele>
        <time>2019-01-07T21:34:04Z</time>
      </trkpt>
      <trkpt lat="42.36417" lon="2.31539">
        <ele>1875</ele>
        <time>2019-01-07T21:34:04Z</time>
      </trkpt>
      <trkpt lat="42.36418" lon="2.31542">
        <ele>1875.5</ele>
        <time>2019-01-07T21:34:05Z</time>
      </trkpt>
      <trkpt lat="42.36418" lon="2.31545">
        <ele>1875.9</ele>
        <time>2019-01-07T21:34:05Z</time>
      </trkpt>
      <trkpt lat="42.36418" lon="2.31548">
        <ele>1876.5</ele>
        <time>2019-01-07T21:34:06Z</time>
      </trkpt>
      <trkpt lat="42.36418" lon="2.31552">
        <ele>1877.2</ele>
        <time>2019-01-07T21:34:07Z</time>
      </trkpt>
      <trkpt lat="42.36419" lon="2.31555">
        <ele>1877.5</ele>
        <time>2019-01-07T21:34:07Z</time>
      </trkpt>
      <trkpt lat="42.3642" lon="2.31557">
        <ele>1877.9</ele>
        <time>2019-01-07T21:34:08Z</time>
      </trkpt>
      <trkpt lat="42.36419" lon="2.3156">
        <ele>1878.9</ele>
        <time>2019-01-07T21:34:08Z</time>
      </trkpt>
      <trkpt lat="42.36419" lon="2.31563">
        <ele>1879.5</ele>
        <time>2019-01-07T21:34:09Z</time>
      </trkpt>
      <trkpt lat="42.36418" lon="2.31565">
        <ele>1880.1</ele>
        <time>2019-01-07T21:34:09Z</time>
      </trkpt>
      <trkpt lat="42.36417" lon="2.31567">
        <ele>1881.2</ele>
        <time>2019-01-07T21:34:10Z</time>
      </trkpt>
      <trkpt lat="42.36415" lon="2.31569">
        <ele>1882.3</ele>
        <time>2019-01-07T21:34:11Z</time>
      </trkpt>
      <trkpt lat="42.36413" lon="2.31571">
        <ele>1883.2</ele>
        <time>2019-01-07T21:34:11Z</time>
      </trkpt>
      <trkpt lat="42.36411" lon="2.31572">
        <ele>1884.1</ele>
        <time>2019-01-07T21:34:12Z</time>
      </trkpt>
      <trkpt lat="42.36409" lon="2.31572">
        <ele>1884.8</ele>
        <time>2019-01-07T21:34:12Z</time>
      </trkpt>
      <trkpt lat="42.36408" lon="2.31574">
        <ele>1885.8</ele>
        <time>2019-01-07T21:34:13Z</time>
      </trkpt>
      <trkpt lat="42.36406" lon="2.31575">
        <ele>1886.5</ele>
        <time>2019-01-07T21:34:13Z</time>
      </trkpt>
      <trkpt lat="42.36405" lon="2.31577">
        <ele>1887.4</ele>
        <time>2019-01-07T21:34:14Z</time>
      </trkpt>
      <trkpt lat="42.36404" lon="2.31578">
        <ele>1888.2</ele>
        <time>2019-01-07T21:34:14Z</time>
      </trkpt>
      <trkpt lat="42.36403" lon="2.31581">
        <ele>1888.8</ele>
        <time>2019-01-07T21:34:15Z</time>
      </trkpt>
      <trkpt lat="42.36403" lon="2.31583">
        <ele>1889.7</ele>
        <time>2019-01-07T21:34:15Z</time>
      </trkpt>
      <trkpt lat="42.36401" lon="2.31583">
        <ele>1890.3</ele>
        <time>2019-01-07T21:34:16Z</time>
      </trkpt>
      <trkpt lat="42.36399" lon="2.31583">
        <ele>1890.8</ele>
        <time>2019-01-07T21:34:16Z</time>
      </trkpt>
      <trkpt lat="42.36397" lon="2.31581">
        <ele>1891</ele>
        <time>2019-01-07T21:34:17Z</time>
      </trkpt>
      <trkpt lat="42.36395" lon="2.31579">
        <ele>1891.1</ele>
        <time>2019-01-07T21:34:17Z</time>
      </trkpt>
      <trkpt lat="42.36394" lon="2.31577">
        <ele>1891</ele>
        <time>2019-01-07T21:34:18Z</time>
      </trkpt>
      <trkpt lat="42.36392" lon="2.31574">
        <ele>1890.9</ele>
        <time>2019-01-07T21:34:19Z</time>
      </trkpt>
      <trkpt lat="42.36391" lon="2.31571">
        <ele>1890.6</ele>
        <time>2019-01-07T21:34:19Z</time>
      </trkpt>
      <trkpt lat="42.36389" lon="2.31573">
        <ele>1891.6</ele>
        <time>2019-01-07T21:34:20Z</time>
      </trkpt>
      <trkpt lat="42.36388" lon="2.31575">
        <ele>1892.5</ele>
        <time>2019-01-07T21:34:20Z</time>
      </trkpt>
      <trkpt lat="42.36387" lon="2.31578">
        <ele>1893.5</ele>
        <time>2019-01-07T21:34:21Z</time>
      </trkpt>
      <trkpt lat="42.36386" lon="2.3158">
        <ele>1894.2</ele>
        <time>2019-01-07T21:34:22Z</time>
      </trkpt>
      <trkpt lat="42.36384" lon="2.31581">
        <ele>1895</ele>
        <time>2019-01-07T21:34:22Z</time>
      </trkpt>
      <trkpt lat="42.36382" lon="2.31582">
        <ele>1895.7</ele>
        <time>2019-01-07T21:34:23Z</time>
      </trkpt>
      <trkpt lat="42.3638" lon="2.31583">
        <ele>1896.5</ele>
        <time>2019-01-07T21:34:23Z</time>
      </trkpt>
      <trkpt lat="42.36379" lon="2.31584">
        <ele>1897.1</ele>
        <time>2019-01-07T21:34:24Z</time>
      </trkpt>
      <trkpt lat="42.36377" lon="2.31585">
        <ele>1898</ele>
        <time>2019-01-07T21:34:24Z</time>
      </trkpt>
      <trkpt lat="42.36376" lon="2.31587">
        <ele>1898.8</ele>
        <time>2019-01-07T21:34:25Z</time>
      </trkpt>
      <trkpt lat="42.36375" lon="2.3159">
        <ele>1899.7</ele>
        <time>2019-01-07T21:34:25Z</time>
      </trkpt>
      <trkpt lat="42.36374" lon="2.31592">
        <ele>1900.6</ele>
        <time>2019-01-07T21:34:26Z</time>
      </trkpt>
      <trkpt lat="42.36373" lon="2.31595">
        <ele>1901.4</ele>
        <time>2019-01-07T21:34:26Z</time>
      </trkpt>
      <trkpt lat="42.36372" lon="2.31597">
        <ele>1902.1</ele>
        <time>2019-01-07T21:34:27Z</time>
      </trkpt>
      <trkpt lat="42.36371" lon="2.316">
        <ele>1902.9</ele>
        <time>2019-01-07T21:34:27Z</time>
      </trkpt>
      <trkpt lat="42.3637" lon="2.31602">
        <ele>1903.8</ele>
        <time>2019-01-07T21:34:28Z</time>
      </trkpt>
      <trkpt lat="42.36369" lon="2.31604">
        <ele>1904.6</ele>
        <time>2019-01-07T21:34:29Z</time>
      </trkpt>
      <trkpt lat="42.36367" lon="2.31605">
        <ele>1905.3</ele>
        <time>2019-01-07T21:34:29Z</time>
      </trkpt>
      <trkpt lat="42.36366" lon="2.31607">
        <ele>1906.1</ele>
        <time>2019-01-07T21:34:29Z</time>
      </trkpt>
      <trkpt lat="42.36364" lon="2.31608">
        <ele>1906.8</ele>
        <time>2019-01-07T21:34:30Z</time>
      </trkpt>
      <trkpt lat="42.36362" lon="2.3161">
        <ele>1907.4</ele>
        <time>2019-01-07T21:34:31Z</time>
      </trkpt>
      <trkpt lat="42.36361" lon="2.31612">
        <ele>1908.3</ele>
        <time>2019-01-07T21:34:31Z</time>
      </trkpt>
      <trkpt lat="42.36359" lon="2.31613">
        <ele>1909.2</ele>
        <time>2019-01-07T21:34:32Z</time>
      </trkpt>
      <trkpt lat="42.36358" lon="2.31616">
        <ele>1910.3</ele>
        <time>2019-01-07T21:34:32Z</time>
      </trkpt>
      <trkpt lat="42.36357" lon="2.31618">
        <ele>1911.2</ele>
        <time>2019-01-07T21:34:33Z</time>
      </trkpt>
      <trkpt lat="42.36355" lon="2.31619">
        <ele>1912.1</ele>
        <time>2019-01-07T21:34:33Z</time>
      </trkpt>
      <trkpt lat="42.36354" lon="2.31622">
        <ele>1913</ele>
        <time>2019-01-07T21:34:34Z</time>
      </trkpt>
      <trkpt lat="42.36353" lon="2.31624">
        <ele>1913.7</ele>
        <time>2019-01-07T21:34:34Z</time>
      </trkpt>
      <trkpt lat="42.36352" lon="2.31626">
        <ele>1914.7</ele>
        <time>2019-01-07T21:34:35Z</time>
      </trkpt>
      <trkpt lat="42.3635" lon="2.31628">
        <ele>1915.6</ele>
        <time>2019-01-07T21:34:36Z</time>
      </trkpt>
      <trkpt lat="42.36348" lon="2.31629">
        <ele>1916.8</ele>
        <time>2019-01-07T21:34:36Z</time>
      </trkpt>
      <trkpt lat="42.36346" lon="2.31631">
        <ele>1917.7</ele>
        <time>2019-01-07T21:34:37Z</time>
      </trkpt>
      <trkpt lat="42.36344" lon="2.31632">
        <ele>1918.5</ele>
        <time>2019-01-07T21:34:37Z</time>
      </trkpt>
      <trkpt lat="42.36343" lon="2.31635">
        <ele>1919.5</ele>
        <time>2019-01-07T21:34:38Z</time>
      </trkpt>
      <trkpt lat="42.36342" lon="2.31637">
        <ele>1920.3</ele>
        <time>2019-01-07T21:34:38Z</time>
      </trkpt>
      <trkpt lat="42.3634" lon="2.31639">
        <ele>1921.3</ele>
        <time>2019-01-07T21:34:39Z</time>
      </trkpt>
      <trkpt lat="42.36339" lon="2.31641">
        <ele>1922.5</ele>
        <time>2019-01-07T21:34:40Z</time>
      </trkpt>
      <trkpt lat="42.36337" lon="2.31643">
        <ele>1923.4</ele>
        <time>2019-01-07T21:34:40Z</time>
      </trkpt>
      <trkpt lat="42.36335" lon="2.31644">
        <ele>1924.3</ele>
        <time>2019-01-07T21:34:41Z</time>
      </trkpt>
      <trkpt lat="42.36334" lon="2.31646">
        <ele>1925.1</ele>
        <time>2019-01-07T21:34:41Z</time>
      </trkpt>
      <trkpt lat="42.36333" lon="2.31648">
        <ele>1926</ele>
        <time>2019-01-07T21:34:42Z</time>
      </trkpt>
      <trkpt lat="42.36334" lon="2.31651">
        <ele>1927</ele>
        <time>2019-01-07T21:34:42Z</time>
      </trkpt>
      <trkpt lat="42.36332" lon="2.31652">
        <ele>1927.8</ele>
        <time>2019-01-07T21:34:43Z</time>
      </trkpt>
      <trkpt lat="42.3633" lon="2.31653">
        <ele>1928.7</ele>
        <time>2019-01-07T21:34:43Z</time>
      </trkpt>
      <trkpt lat="42.36329" lon="2.31656">
        <ele>1929.5</ele>
        <time>2019-01-07T21:34:44Z</time>
      </trkpt>
      <trkpt lat="42.36329" lon="2.31658">
        <ele>1930.4</ele>
        <time>2019-01-07T21:34:44Z</time>
      </trkpt>
      <trkpt lat="42.3633" lon="2.3166">
        <ele>1931.1</ele>
        <time>2019-01-07T21:34:45Z</time>
      </trkpt>
      <trkpt lat="42.36328" lon="2.31661">
        <ele>1932</ele>
        <time>2019-01-07T21:34:45Z</time>
      </trkpt>
      <trkpt lat="42.36326" lon="2.31663">
        <ele>1933</ele>
        <time>2019-01-07T21:34:46Z</time>
      </trkpt>
      <trkpt lat="42.36324" lon="2.31664">
        <ele>1933.9</ele>
        <time>2019-01-07T21:34:46Z</time>
      </trkpt>
      <trkpt lat="42.36325" lon="2.31667">
        <ele>1934.6</ele>
        <time>2019-01-07T21:34:47Z</time>
      </trkpt>
      <trkpt lat="42.36325" lon="2.3167">
        <ele>1935.3</ele>
        <time>2019-01-07T21:34:47Z</time>
      </trkpt>
      <trkpt lat="42.36326" lon="2.31672">
        <ele>1936.1</ele>
        <time>2019-01-07T21:34:48Z</time>
      </trkpt>
      <trkpt lat="42.36326" lon="2.31675">
        <ele>1936.7</ele>
        <time>2019-01-07T21:34:49Z</time>
      </trkpt>
      <trkpt lat="42.36327" lon="2.31678">
        <ele>1937.7</ele>
        <time>2019-01-07T21:34:49Z</time>
      </trkpt>
      <trkpt lat="42.36327" lon="2.31681">
        <ele>1938.4</ele>
        <time>2019-01-07T21:34:50Z</time>
      </trkpt>
      <trkpt lat="42.36326" lon="2.31683">
        <ele>1939.5</ele>
        <time>2019-01-07T21:34:50Z</time>
      </trkpt>
      <trkpt lat="42.36324" lon="2.31684">
        <ele>1940.6</ele>
        <time>2019-01-07T21:34:51Z</time>
      </trkpt>
      <trkpt lat="42.36322" lon="2.31685">
        <ele>1941.4</ele>
        <time>2019-01-07T21:34:51Z</time>
      </trkpt>
      <trkpt lat="42.3632" lon="2.31684">
        <ele>1941.8</ele>
        <time>2019-01-07T21:34:52Z</time>
      </trkpt>
      <trkpt lat="42.36318" lon="2.31685">
        <ele>1942.6</ele>
        <time>2019-01-07T21:34:52Z</time>
      </trkpt>
      <trkpt lat="42.36316" lon="2.31688">
        <ele>1943.8</ele>
        <time>2019-01-07T21:34:53Z</time>
      </trkpt>
      <trkpt lat="42.36315" lon="2.3169">
        <ele>1944.8</ele>
        <time>2019-01-07T21:34:54Z</time>
      </trkpt>
      <trkpt lat="42.36314" lon="2.31692">
        <ele>1945.9</ele>
        <time>2019-01-07T21:34:54Z</time>
      </trkpt>
      <trkpt lat="42.36312" lon="2.31693">
        <ele>1946.9</ele>
        <time>2019-01-07T21:34:55Z</time>
      </trkpt>
      <trkpt lat="42.3631" lon="2.31694">
        <ele>1947.9</ele>
        <time>2019-01-07T21:34:55Z</time>
      </trkpt>
      <trkpt lat="42.36308" lon="2.31696">
        <ele>1948.6</ele>
        <time>2019-01-07T21:34:56Z</time>
      </trkpt>
      <trkpt lat="42.36307" lon="2.31698">
        <ele>1949.5</ele>
        <time>2019-01-07T21:34:56Z</time>
      </trkpt>
      <trkpt lat="42.36304" lon="2.31699">
        <ele>1950.2</ele>
        <time>2019-01-07T21:34:57Z</time>
      </trkpt>
      <trkpt lat="42.36303" lon="2.31701">
        <ele>1950.9</ele>
        <time>2019-01-07T21:34:58Z</time>
      </trkpt>
      <trkpt lat="42.36302" lon="2.31703">
        <ele>1951.7</ele>
        <time>2019-01-07T21:34:58Z</time>
      </trkpt>
      <trkpt lat="42.36301" lon="2.31706">
        <ele>1952.4</ele>
        <time>2019-01-07T21:34:59Z</time>
      </trkpt>
      <trkpt lat="42.36299" lon="2.31708">
        <ele>1953</ele>
        <time>2019-01-07T21:34:59Z</time>
      </trkpt>
      <trkpt lat="42.36298" lon="2.3171">
        <ele>1953.7</ele>
        <time>2019-01-07T21:35:00Z</time>
      </trkpt>
      <trkpt lat="42.36298" lon="2.31713">
        <ele>1954.5</ele>
        <time>2019-01-07T21:35:00Z</time>
      </trkpt>
      <trkpt lat="42.36298" lon="2.31716">
        <ele>1955.1</ele>
        <time>2019-01-07T21:35:01Z</time>
      </trkpt>
      <trkpt lat="42.36297" lon="2.31719">
        <ele>1955.9</ele>
        <time>2019-01-07T21:35:02Z</time>
      </trkpt>
      <trkpt lat="42.36296" lon="2.31721">
        <ele>1956.4</ele>
        <time>2019-01-07T21:35:02Z</time>
      </trkpt>
      <trkpt lat="42.36294" lon="2.31722">
        <ele>1957</ele>
        <time>2019-01-07T21:35:03Z</time>
      </trkpt>
      <trkpt lat="42.36292" lon="2.31725">
        <ele>1957.8</ele>
        <time>2019-01-07T21:35:04Z</time>
      </trkpt>
      <trkpt lat="42.36293" lon="2.31728">
        <ele>1958.5</ele>
        <time>2019-01-07T21:35:04Z</time>
      </trkpt>
      <trkpt lat="42.36293" lon="2.31731">
        <ele>1959.1</ele>
        <time>2019-01-07T21:35:05Z</time>
      </trkpt>
      <trkpt lat="42.36294" lon="2.31734">
        <ele>1959.9</ele>
        <time>2019-01-07T21:35:05Z</time>
      </trkpt>
      <trkpt lat="42.36294" lon="2.31737">
        <ele>1960.5</ele>
        <time>2019-01-07T21:35:06Z</time>
      </trkpt>
      <trkpt lat="42.36294" lon="2.31739">
        <ele>1961.1</ele>
        <time>2019-01-07T21:35:06Z</time>
      </trkpt>
      <trkpt lat="42.36294" lon="2.31742">
        <ele>1962</ele>
        <time>2019-01-07T21:35:07Z</time>
      </trkpt>
      <trkpt lat="42.36293" lon="2.31745">
        <ele>1962.7</ele>
        <time>2019-01-07T21:35:07Z</time>
      </trkpt>
      <trkpt lat="42.36292" lon="2.31747">
        <ele>1963.3</ele>
        <time>2019-01-07T21:35:08Z</time>
      </trkpt>
      <trkpt lat="42.36292" lon="2.31749">
        <ele>1963.8</ele>
        <time>2019-01-07T21:35:08Z</time>
      </trkpt>
      <trkpt lat="42.36293" lon="2.31751">
        <ele>1964.2</ele>
        <time>2019-01-07T21:35:09Z</time>
      </trkpt>
      <trkpt lat="42.36295" lon="2.31753">
        <ele>1964.9</ele>
        <time>2019-01-07T21:35:10Z</time>
      </trkpt>
      <trkpt lat="42.36296" lon="2.31755">
        <ele>1965.2</ele>
        <time>2019-01-07T21:35:10Z</time>
      </trkpt>
      <trkpt lat="42.36296" lon="2.31758">
        <ele>1965.9</ele>
        <time>2019-01-07T21:35:11Z</time>
      </trkpt>
      <trkpt lat="42.36296" lon="2.3176">
        <ele>1966.6</ele>
        <time>2019-01-07T21:35:11Z</time>
      </trkpt>
      <trkpt lat="42.36297" lon="2.31763">
        <ele>1967.2</ele>
        <time>2019-01-07T21:35:12Z</time>
      </trkpt>
      <trkpt lat="42.36298" lon="2.31765">
        <ele>1967.8</ele>
        <time>2019-01-07T21:35:12Z</time>
      </trkpt>
      <trkpt lat="42.36299" lon="2.31767">
        <ele>1968.2</ele>
        <time>2019-01-07T21:35:13Z</time>
      </trkpt>
      <trkpt lat="42.36301" lon="2.31769">
        <ele>1968.7</ele>
        <time>2019-01-07T21:35:13Z</time>
      </trkpt>
      <trkpt lat="42.36301" lon="2.31772">
        <ele>1969.4</ele>
        <time>2019-01-07T21:35:14Z</time>
      </trkpt>
      <trkpt lat="42.36302" lon="2.31774">
        <ele>1970.1</ele>
        <time>2019-01-07T21:35:14Z</time>
      </trkpt>
      <trkpt lat="42.36303" lon="2.31776">
        <ele>1970.7</ele>
        <time>2019-01-07T21:35:15Z</time>
      </trkpt>
      <trkpt lat="42.36304" lon="2.31779">
        <ele>1971.2</ele>
        <time>2019-01-07T21:35:15Z</time>
      </trkpt>
      <trkpt lat="42.36305" lon="2.3178">
        <ele>1971.3</ele>
        <time>2019-01-07T21:35:16Z</time>
      </trkpt>
      <trkpt lat="42.36307" lon="2.31782">
        <ele>1970.9</ele>
        <time>2019-01-07T21:35:16Z</time>
      </trkpt>
      <trkpt lat="42.36309" lon="2.31784">
        <ele>1970.3</ele>
        <time>2019-01-07T21:35:17Z</time>
      </trkpt>
      <trkpt lat="42.36311" lon="2.31787">
        <ele>1969.8</ele>
        <time>2019-01-07T21:35:18Z</time>
      </trkpt>
      <trkpt lat="42.36312" lon="2.31789">
        <ele>1969.6</ele>
        <time>2019-01-07T21:35:18Z</time>
      </trkpt>
      <trkpt lat="42.36314" lon="2.31791">
        <ele>1969.3</ele>
        <time>2019-01-07T21:35:19Z</time>
      </trkpt>
      <trkpt lat="42.36315" lon="2.31792">
        <ele>1968.9</ele>
        <time>2019-01-07T21:35:19Z</time>
      </trkpt>
      <trkpt lat="42.36317" lon="2.31793">
        <ele>1968.5</ele>
        <time>2019-01-07T21:35:20Z</time>
      </trkpt>
      <trkpt lat="42.36317" lon="2.31796">
        <ele>1968.5</ele>
        <time>2019-01-07T21:35:20Z</time>
      </trkpt>
      <trkpt lat="42.36319" lon="2.31798">
        <ele>1968.3</ele>
        <time>2019-01-07T21:35:21Z</time>
      </trkpt>
      <trkpt lat="42.36321" lon="2.318">
        <ele>1967.8</ele>
        <time>2019-01-07T21:35:22Z</time>
      </trkpt>
      <trkpt lat="42.36322" lon="2.31802">
        <ele>1967.6</ele>
        <time>2019-01-07T21:35:22Z</time>
      </trkpt>
      <trkpt lat="42.36323" lon="2.31803">
        <ele>1967.4</ele>
        <time>2019-01-07T21:35:23Z</time>
      </trkpt>
      <trkpt lat="42.36325" lon="2.31806">
        <ele>1967.2</ele>
        <time>2019-01-07T21:35:23Z</time>
      </trkpt>
      <trkpt lat="42.36327" lon="2.31808">
        <ele>1966.8</ele>
        <time>2019-01-07T21:35:24Z</time>
      </trkpt>
      <trkpt lat="42.36329" lon="2.3181">
        <ele>1966.4</ele>
        <time>2019-01-07T21:35:25Z</time>
      </trkpt>
      <trkpt lat="42.36331" lon="2.31811">
        <ele>1966.2</ele>
        <time>2019-01-07T21:35:25Z</time>
      </trkpt>
      <trkpt lat="42.36332" lon="2.31814">
        <ele>1966.3</ele>
        <time>2019-01-07T21:35:26Z</time>
      </trkpt>
      <trkpt lat="42.36331" lon="2.31815">
        <ele>1966.6</ele>
        <time>2019-01-07T21:35:26Z</time>
      </trkpt>
      <trkpt lat="42.36329" lon="2.31817">
        <ele>1967.2</ele>
        <time>2019-01-07T21:35:27Z</time>
      </trkpt>
      <trkpt lat="42.36327" lon="2.31816">
        <ele>1967.5</ele>
        <time>2019-01-07T21:35:28Z</time>
      </trkpt>
      <trkpt lat="42.36325" lon="2.31815">
        <ele>1968</ele>
        <time>2019-01-07T21:35:28Z</time>
      </trkpt>
      <trkpt lat="42.36323" lon="2.31814">
        <ele>1968.2</ele>
        <time>2019-01-07T21:35:29Z</time>
      </trkpt>
      <trkpt lat="42.36321" lon="2.31812">
        <ele>1968.4</ele>
        <time>2019-01-07T21:35:29Z</time>
      </trkpt>
      <trkpt lat="42.36319" lon="2.3181">
        <ele>1968.8</ele>
        <time>2019-01-07T21:35:30Z</time>
      </trkpt>
      <trkpt lat="42.36317" lon="2.31809">
        <ele>1969.4</ele>
        <time>2019-01-07T21:35:31Z</time>
      </trkpt>
      <trkpt lat="42.36315" lon="2.3181">
        <ele>1969.8</ele>
        <time>2019-01-07T21:35:31Z</time>
      </trkpt>
      <trkpt lat="42.36313" lon="2.3181">
        <ele>1970.3</ele>
        <time>2019-01-07T21:35:32Z</time>
      </trkpt>
      <trkpt lat="42.3631" lon="2.3181">
        <ele>1970.8</ele>
        <time>2019-01-07T21:35:32Z</time>
      </trkpt>
      <trkpt lat="42.36308" lon="2.3181">
        <ele>1971.4</ele>
        <time>2019-01-07T21:35:33Z</time>
      </trkpt>
      <trkpt lat="42.36307" lon="2.31809">
        <ele>1971.7</ele>
        <time>2019-01-07T21:35:33Z</time>
      </trkpt>
      <trkpt lat="42.36305" lon="2.31809">
        <ele>1971.9</ele>
        <time>2019-01-07T21:35:34Z</time>
      </trkpt>
      <trkpt lat="42.36303" lon="2.31807">
        <ele>1972.1</ele>
        <time>2019-01-07T21:35:35Z</time>
      </trkpt>
      <trkpt lat="42.36301" lon="2.31806">
        <ele>1972.3</ele>
        <time>2019-01-07T21:35:35Z</time>
      </trkpt>
      <trkpt lat="42.36299" lon="2.31804">
        <ele>1972.2</ele>
        <time>2019-01-07T21:35:36Z</time>
      </trkpt>
      <trkpt lat="42.36297" lon="2.31803">
        <ele>1972.2</ele>
        <time>2019-01-07T21:35:36Z</time>
      </trkpt>
      <trkpt lat="42.36296" lon="2.31801">
        <ele>1972.3</ele>
        <time>2019-01-07T21:35:37Z</time>
      </trkpt>
      <trkpt lat="42.36294" lon="2.318">
        <ele>1972.3</ele>
        <time>2019-01-07T21:35:37Z</time>
      </trkpt>
      <trkpt lat="42.36293" lon="2.31796">
        <ele>1972.2</ele>
        <time>2019-01-07T21:35:38Z</time>
      </trkpt>
      <trkpt lat="42.36291" lon="2.31795">
        <ele>1972.3</ele>
        <time>2019-01-07T21:35:39Z</time>
      </trkpt>
      <trkpt lat="42.36289" lon="2.31795">
        <ele>1972.2</ele>
        <time>2019-01-07T21:35:39Z</time>
      </trkpt>
      <trkpt lat="42.36287" lon="2.31796">
        <ele>1972.4</ele>
        <time>2019-01-07T21:35:40Z</time>
      </trkpt>
      <trkpt lat="42.36286" lon="2.31798">
        <ele>1972.4</ele>
        <time>2019-01-07T21:35:40Z</time>
      </trkpt>
      <trkpt lat="42.36289" lon="2.31797">
        <ele>1972.4</ele>
        <time>2019-01-07T21:35:41Z</time>
      </trkpt>
      <trkpt lat="42.36291" lon="2.31795">
        <ele>1972.3</ele>
        <time>2019-01-07T21:35:41Z</time>
      </trkpt>
      <trkpt lat="42.36291" lon="2.31792">
        <ele>1972.1</ele>
        <time>2019-01-07T21:35:42Z</time>
      </trkpt>
      <trkpt lat="42.36292" lon="2.3179">
        <ele>1971.9</ele>
        <time>2019-01-07T21:35:43Z</time>
      </trkpt>
      <trkpt lat="42.36292" lon="2.31787">
        <ele>1971.8</ele>
        <time>2019-01-07T21:35:43Z</time>
      </trkpt>
      <trkpt lat="42.3629" lon="2.3179">
        <ele>1972</ele>
        <time>2019-01-07T21:35:44Z</time>
      </trkpt>
      <trkpt lat="42.36287" lon="2.31792">
        <ele>1972.3</ele>
        <time>2019-01-07T21:35:45Z</time>
      </trkpt>
      <trkpt lat="42.36284" lon="2.31792">
        <ele>1972.4</ele>
        <time>2019-01-07T21:35:46Z</time>
      </trkpt>
      <trkpt lat="42.36287" lon="2.31792">
        <ele>1972.3</ele>
        <time>2019-01-07T21:35:46Z</time>
      </trkpt>
      <trkpt lat="42.36288" lon="2.31791">
        <ele>1972.2</ele>
        <time>2019-01-07T21:35:47Z</time>
      </trkpt>
      <trkpt lat="42.3629" lon="2.31789">
        <ele>1972</ele>
        <time>2019-01-07T21:35:47Z</time>
      </trkpt>
      <trkpt lat="42.36289" lon="2.31793">
        <ele>1972.2</ele>
        <time>2019-01-07T21:35:48Z</time>
      </trkpt>
      <trkpt lat="42.36287" lon="2.31796">
        <ele>1972.5</ele>
        <time>2019-01-07T21:35:49Z</time>
      </trkpt>
      <trkpt lat="42.36285" lon="2.31799">
        <ele>1972.6</ele>
        <time>2019-01-07T21:35:50Z</time>
      </trkpt>
      <trkpt lat="42.36283" lon="2.31802">
        <ele>1972.8</ele>
        <time>2019-01-07T21:35:51Z</time>
      </trkpt>
      <trkpt lat="42.36281" lon="2.31804">
        <ele>1973</ele>
        <time>2019-01-07T21:35:51Z</time>
      </trkpt>
      <trkpt lat="42.36279" lon="2.31807">
        <ele>1972.9</ele>
        <time>2019-01-07T21:35:52Z</time>
      </trkpt>
      <trkpt lat="42.36276" lon="2.31811">
        <ele>1972.3</ele>
        <time>2019-01-07T21:35:53Z</time>
      </trkpt>
      <trkpt lat="42.36275" lon="2.31815">
        <ele>1972.1</ele>
        <time>2019-01-07T21:35:54Z</time>
      </trkpt>
      <trkpt lat="42.36274" lon="2.31819">
        <ele>1971.6</ele>
        <time>2019-01-07T21:35:55Z</time>
      </trkpt>
      <trkpt lat="42.36272" lon="2.31823">
        <ele>1971.1</ele>
        <time>2019-01-07T21:35:56Z</time>
      </trkpt>
      <trkpt lat="42.3627" lon="2.31825">
        <ele>1970.7</ele>
        <time>2019-01-07T21:35:56Z</time>
      </trkpt>
      <trkpt lat="42.36268" lon="2.31824">
        <ele>1970.4</ele>
        <time>2019-01-07T21:35:57Z</time>
      </trkpt>
      <trkpt lat="42.36267" lon="2.31826">
        <ele>1970.3</ele>
        <time>2019-01-07T21:35:58Z</time>
      </trkpt>
      <trkpt lat="42.36266" lon="2.31829">
        <ele>1970.1</ele>
        <time>2019-01-07T21:35:58Z</time>
      </trkpt>
      <trkpt lat="42.36266" lon="2.31833">
        <ele>1969.8</ele>
        <time>2019-01-07T21:35:59Z</time>
      </trkpt>
      <trkpt lat="42.36264" lon="2.31837">
        <ele>1969.5</ele>
        <time>2019-01-07T21:36:00Z</time>
      </trkpt>
      <trkpt lat="42.36263" lon="2.3184">
        <ele>1969.1</ele>
        <time>2019-01-07T21:36:00Z</time>
      </trkpt>
      <trkpt lat="42.36262" lon="2.31843">
        <ele>1968.8</ele>
        <time>2019-01-07T21:36:01Z</time>
      </trkpt>
      <trkpt lat="42.36262" lon="2.31847">
        <ele>1968.7</ele>
        <time>2019-01-07T21:36:02Z</time>
      </trkpt>
      <trkpt lat="42.3626" lon="2.31853">
        <ele>1968.2</ele>
        <time>2019-01-07T21:36:03Z</time>
      </trkpt>
      <trkpt lat="42.36258" lon="2.31856">
        <ele>1967.9</ele>
        <time>2019-01-07T21:36:04Z</time>
      </trkpt>
      <trkpt lat="42.36257" lon="2.31859">
        <ele>1967.6</ele>
        <time>2019-01-07T21:36:05Z</time>
      </trkpt>
      <trkpt lat="42.36256" lon="2.31862">
        <ele>1967.3</ele>
        <time>2019-01-07T21:36:05Z</time>
      </trkpt>
      <trkpt lat="42.36254" lon="2.31865">
        <ele>1967.1</ele>
        <time>2019-01-07T21:36:06Z</time>
      </trkpt>
      <trkpt lat="42.36253" lon="2.31867">
        <ele>1966.8</ele>
        <time>2019-01-07T21:36:07Z</time>
      </trkpt>
      <trkpt lat="42.36251" lon="2.3187">
        <ele>1966.5</ele>
        <time>2019-01-07T21:36:07Z</time>
      </trkpt>
      <trkpt lat="42.3625" lon="2.31873">
        <ele>1966.2</ele>
        <time>2019-01-07T21:36:08Z</time>
      </trkpt>
      <trkpt lat="42.36248" lon="2.31875">
        <ele>1965.8</ele>
        <time>2019-01-07T21:36:09Z</time>
      </trkpt>
      <trkpt lat="42.36247" lon="2.31878">
        <ele>1965.3</ele>
        <time>2019-01-07T21:36:09Z</time>
      </trkpt>
      <trkpt lat="42.36245" lon="2.3188">
        <ele>1965</ele>
        <time>2019-01-07T21:36:10Z</time>
      </trkpt>
      <trkpt lat="42.36242" lon="2.31881">
        <ele>1964.4</ele>
        <time>2019-01-07T21:36:11Z</time>
      </trkpt>
      <trkpt lat="42.3624" lon="2.31883">
        <ele>1964.2</ele>
        <time>2019-01-07T21:36:11Z</time>
      </trkpt>
      <trkpt lat="42.36238" lon="2.31884">
        <ele>1963.6</ele>
        <time>2019-01-07T21:36:12Z</time>
      </trkpt>
      <trkpt lat="42.36236" lon="2.31886">
        <ele>1963.2</ele>
        <time>2019-01-07T21:36:13Z</time>
      </trkpt>
      <trkpt lat="42.36233" lon="2.31888">
        <ele>1962.8</ele>
        <time>2019-01-07T21:36:13Z</time>
      </trkpt>
      <trkpt lat="42.36231" lon="2.31888">
        <ele>1962.3</ele>
        <time>2019-01-07T21:36:14Z</time>
      </trkpt>
      <trkpt lat="42.36229" lon="2.31889">
        <ele>1962.1</ele>
        <time>2019-01-07T21:36:15Z</time>
      </trkpt>
      <trkpt lat="42.36227" lon="2.3189">
        <ele>1961.7</ele>
        <time>2019-01-07T21:36:15Z</time>
      </trkpt>
      <trkpt lat="42.36225" lon="2.31891">
        <ele>1961</ele>
        <time>2019-01-07T21:36:16Z</time>
      </trkpt>
      <trkpt lat="42.36223" lon="2.31892">
        <ele>1960.8</ele>
        <time>2019-01-07T21:36:16Z</time>
      </trkpt>
      <trkpt lat="42.36221" lon="2.31894">
        <ele>1959.9</ele>
        <time>2019-01-07T21:36:17Z</time>
      </trkpt>
      <trkpt lat="42.36218" lon="2.31896">
        <ele>1958.8</ele>
        <time>2019-01-07T21:36:18Z</time>
      </trkpt>
      <trkpt lat="42.36217" lon="2.31898">
        <ele>1958.2</ele>
        <time>2019-01-07T21:36:18Z</time>
      </trkpt>
      <trkpt lat="42.36215" lon="2.319">
        <ele>1957.6</ele>
        <time>2019-01-07T21:36:19Z</time>
      </trkpt>
      <trkpt lat="42.36213" lon="2.31902">
        <ele>1956.9</ele>
        <time>2019-01-07T21:36:19Z</time>
      </trkpt>
      <trkpt lat="42.36212" lon="2.31904">
        <ele>1955.9</ele>
        <time>2019-01-07T21:36:20Z</time>
      </trkpt>
      <trkpt lat="42.36209" lon="2.31905">
        <ele>1955.3</ele>
        <time>2019-01-07T21:36:21Z</time>
      </trkpt>
      <trkpt lat="42.36207" lon="2.31905">
        <ele>1954.6</ele>
        <time>2019-01-07T21:36:21Z</time>
      </trkpt>
      <trkpt lat="42.36205" lon="2.31906">
        <ele>1954.1</ele>
        <time>2019-01-07T21:36:22Z</time>
      </trkpt>
      <trkpt lat="42.36203" lon="2.31906">
        <ele>1953.6</ele>
        <time>2019-01-07T21:36:22Z</time>
      </trkpt>
      <trkpt lat="42.36201" lon="2.31907">
        <ele>1952.9</ele>
        <time>2019-01-07T21:36:23Z</time>
      </trkpt>
      <trkpt lat="42.36199" lon="2.31907">
        <ele>1952.2</ele>
        <time>2019-01-07T21:36:24Z</time>
      </trkpt>
      <trkpt lat="42.36196" lon="2.31908">
        <ele>1951.5</ele>
        <time>2019-01-07T21:36:24Z</time>
      </trkpt>
      <trkpt lat="42.36194" lon="2.31909">
        <ele>1950.8</ele>
        <time>2019-01-07T21:36:25Z</time>
      </trkpt>
      <trkpt lat="42.36192" lon="2.31911">
        <ele>1950.1</ele>
        <time>2019-01-07T21:36:26Z</time>
      </trkpt>
      <trkpt lat="42.36189" lon="2.31912">
        <ele>1949.5</ele>
        <time>2019-01-07T21:36:26Z</time>
      </trkpt>
      <trkpt lat="42.36187" lon="2.31914">
        <ele>1949.2</ele>
        <time>2019-01-07T21:36:27Z</time>
      </trkpt>
      <trkpt lat="42.36185" lon="2.31914">
        <ele>1948.6</ele>
        <time>2019-01-07T21:36:27Z</time>
      </trkpt>
      <trkpt lat="42.36183" lon="2.31915">
        <ele>1948.1</ele>
        <time>2019-01-07T21:36:28Z</time>
      </trkpt>
      <trkpt lat="42.3618" lon="2.31916">
        <ele>1947.5</ele>
        <time>2019-01-07T21:36:29Z</time>
      </trkpt>
      <trkpt lat="42.36178" lon="2.31917">
        <ele>1947.2</ele>
        <time>2019-01-07T21:36:29Z</time>
      </trkpt>
      <trkpt lat="42.36176" lon="2.31917">
        <ele>1946.8</ele>
        <time>2019-01-07T21:36:30Z</time>
      </trkpt>
      <trkpt lat="42.36173" lon="2.31918">
        <ele>1946.1</ele>
        <time>2019-01-07T21:36:31Z</time>
      </trkpt>
      <trkpt lat="42.36171" lon="2.31919">
        <ele>1945.6</ele>
        <time>2019-01-07T21:36:31Z</time>
      </trkpt>
      <trkpt lat="42.36168" lon="2.31919">
        <ele>1945.1</ele>
        <time>2019-01-07T21:36:32Z</time>
      </trkpt>
      <trkpt lat="42.36166" lon="2.3192">
        <ele>1944.5</ele>
        <time>2019-01-07T21:36:33Z</time>
      </trkpt>
      <trkpt lat="42.36163" lon="2.31921">
        <ele>1944.1</ele>
        <time>2019-01-07T21:36:34Z</time>
      </trkpt>
      <trkpt lat="42.3616" lon="2.31922">
        <ele>1943.7</ele>
        <time>2019-01-07T21:36:34Z</time>
      </trkpt>
      <trkpt lat="42.36158" lon="2.31923">
        <ele>1943.1</ele>
        <time>2019-01-07T21:36:35Z</time>
      </trkpt>
      <trkpt lat="42.36155" lon="2.31924">
        <ele>1942.7</ele>
        <time>2019-01-07T21:36:36Z</time>
      </trkpt>
      <trkpt lat="42.36152" lon="2.31925">
        <ele>1942.2</ele>
        <time>2019-01-07T21:36:36Z</time>
      </trkpt>
      <trkpt lat="42.3615" lon="2.31926">
        <ele>1942.1</ele>
        <time>2019-01-07T21:36:37Z</time>
      </trkpt>
      <trkpt lat="42.36148" lon="2.31927">
        <ele>1941.6</ele>
        <time>2019-01-07T21:36:38Z</time>
      </trkpt>
      <trkpt lat="42.36145" lon="2.31928">
        <ele>1941.2</ele>
        <time>2019-01-07T21:36:38Z</time>
      </trkpt>
      <trkpt lat="42.36143" lon="2.31929">
        <ele>1940.8</ele>
        <time>2019-01-07T21:36:39Z</time>
      </trkpt>
      <trkpt lat="42.3614" lon="2.3193">
        <ele>1940.3</ele>
        <time>2019-01-07T21:36:40Z</time>
      </trkpt>
      <trkpt lat="42.36138" lon="2.3193">
        <ele>1940</ele>
        <time>2019-01-07T21:36:41Z</time>
      </trkpt>
      <trkpt lat="42.36135" lon="2.31931">
        <ele>1939.9</ele>
        <time>2019-01-07T21:36:41Z</time>
      </trkpt>
      <trkpt lat="42.36133" lon="2.31932">
        <ele>1939.8</ele>
        <time>2019-01-07T21:36:42Z</time>
      </trkpt>
      <trkpt lat="42.3613" lon="2.31932">
        <ele>1939.5</ele>
        <time>2019-01-07T21:36:43Z</time>
      </trkpt>
      <trkpt lat="42.36128" lon="2.31933">
        <ele>1939.3</ele>
        <time>2019-01-07T21:36:43Z</time>
      </trkpt>
      <trkpt lat="42.36125" lon="2.31934">
        <ele>1939.1</ele>
        <time>2019-01-07T21:36:44Z</time>
      </trkpt>
      <trkpt lat="42.36123" lon="2.31935">
        <ele>1939</ele>
        <time>2019-01-07T21:36:45Z</time>
      </trkpt>
      <trkpt lat="42.3612" lon="2.31936">
        <ele>1938.8</ele>
        <time>2019-01-07T21:36:45Z</time>
      </trkpt>
      <trkpt lat="42.36118" lon="2.31937">
        <ele>1938.7</ele>
        <time>2019-01-07T21:36:46Z</time>
      </trkpt>
      <trkpt lat="42.36115" lon="2.31938">
        <ele>1938.5</ele>
        <time>2019-01-07T21:36:47Z</time>
      </trkpt>
      <trkpt lat="42.36113" lon="2.31939">
        <ele>1938.5</ele>
        <time>2019-01-07T21:36:47Z</time>
      </trkpt>
      <trkpt lat="42.3611" lon="2.31939">
        <ele>1938.2</ele>
        <time>2019-01-07T21:36:48Z</time>
      </trkpt>
      <trkpt lat="42.36108" lon="2.3194">
        <ele>1938.1</ele>
        <time>2019-01-07T21:36:49Z</time>
      </trkpt>
      <trkpt lat="42.36105" lon="2.31941">
        <ele>1937.9</ele>
        <time>2019-01-07T21:36:50Z</time>
      </trkpt>
      <trkpt lat="42.36103" lon="2.31942">
        <ele>1938</ele>
        <time>2019-01-07T21:36:50Z</time>
      </trkpt>
      <trkpt lat="42.361" lon="2.31943">
        <ele>1937.7</ele>
        <time>2019-01-07T21:36:51Z</time>
      </trkpt>
      <trkpt lat="42.36098" lon="2.31944">
        <ele>1937.6</ele>
        <time>2019-01-07T21:36:52Z</time>
      </trkpt>
      <trkpt lat="42.36096" lon="2.31944">
        <ele>1937.5</ele>
        <time>2019-01-07T21:36:52Z</time>
      </trkpt>
      <trkpt lat="42.36094" lon="2.31945">
        <ele>1937.5</ele>
        <time>2019-01-07T21:36:53Z</time>
      </trkpt>
      <trkpt lat="42.36091" lon="2.31945">
        <ele>1937.3</ele>
        <time>2019-01-07T21:36:53Z</time>
      </trkpt>
      <trkpt lat="42.36089" lon="2.31947">
        <ele>1936.9</ele>
        <time>2019-01-07T21:36:54Z</time>
      </trkpt>
      <trkpt lat="42.36086" lon="2.31948">
        <ele>1936.8</ele>
        <time>2019-01-07T21:36:55Z</time>
      </trkpt>
      <trkpt lat="42.36084" lon="2.31948">
        <ele>1936.6</ele>
        <time>2019-01-07T21:36:55Z</time>
      </trkpt>
      <trkpt lat="42.36082" lon="2.31948">
        <ele>1936.3</ele>
        <time>2019-01-07T21:36:56Z</time>
      </trkpt>
      <trkpt lat="42.3608" lon="2.31949">
        <ele>1935.7</ele>
        <time>2019-01-07T21:36:56Z</time>
      </trkpt>
      <trkpt lat="42.36078" lon="2.3195">
        <ele>1934.9</ele>
        <time>2019-01-07T21:36:57Z</time>
      </trkpt>
      <trkpt lat="42.36076" lon="2.31952">
        <ele>1934.2</ele>
        <time>2019-01-07T21:36:58Z</time>
      </trkpt>
      <trkpt lat="42.36072" lon="2.31953">
        <ele>1933</ele>
        <time>2019-01-07T21:36:59Z</time>
      </trkpt>
      <trkpt lat="42.36069" lon="2.31955">
        <ele>1932.4</ele>
        <time>2019-01-07T21:37:00Z</time>
      </trkpt>
      <trkpt lat="42.36067" lon="2.31956">
        <ele>1931.5</ele>
        <time>2019-01-07T21:37:00Z</time>
      </trkpt>
      <trkpt lat="42.36064" lon="2.31956">
        <ele>1930.8</ele>
        <time>2019-01-07T21:37:01Z</time>
      </trkpt>
      <trkpt lat="42.36061" lon="2.31957">
        <ele>1930</ele>
        <time>2019-01-07T21:37:02Z</time>
      </trkpt>
      <trkpt lat="42.36058" lon="2.31958">
        <ele>1929.1</ele>
        <time>2019-01-07T21:37:03Z</time>
      </trkpt>
      <trkpt lat="42.36055" lon="2.3196">
        <ele>1928.3</ele>
        <time>2019-01-07T21:37:04Z</time>
      </trkpt>
      <trkpt lat="42.36053" lon="2.31962">
        <ele>1927.4</ele>
        <time>2019-01-07T21:37:04Z</time>
      </trkpt>
      <trkpt lat="42.3605" lon="2.31961">
        <ele>1926.4</ele>
        <time>2019-01-07T21:37:05Z</time>
      </trkpt>
      <trkpt lat="42.36047" lon="2.31961">
        <ele>1925.6</ele>
        <time>2019-01-07T21:37:06Z</time>
      </trkpt>
      <trkpt lat="42.36045" lon="2.31962">
        <ele>1924.8</ele>
        <time>2019-01-07T21:37:06Z</time>
      </trkpt>
      <trkpt lat="42.36042" lon="2.31962">
        <ele>1923.8</ele>
        <time>2019-01-07T21:37:07Z</time>
      </trkpt>
      <trkpt lat="42.36039" lon="2.31962">
        <ele>1922.9</ele>
        <time>2019-01-07T21:37:08Z</time>
      </trkpt>
      <trkpt lat="42.36036" lon="2.31963">
        <ele>1921.8</ele>
        <time>2019-01-07T21:37:09Z</time>
      </trkpt>
      <trkpt lat="42.36035" lon="2.3196">
        <ele>1921.8</ele>
        <time>2019-01-07T21:37:09Z</time>
      </trkpt>
      <trkpt lat="42.36032" lon="2.31962">
        <ele>1920.6</ele>
        <time>2019-01-07T21:37:10Z</time>
      </trkpt>
      <trkpt lat="42.36029" lon="2.31962">
        <ele>1919.4</ele>
        <time>2019-01-07T21:37:11Z</time>
      </trkpt>
      <trkpt lat="42.36027" lon="2.31963">
        <ele>1918.9</ele>
        <time>2019-01-07T21:37:12Z</time>
      </trkpt>
      <trkpt lat="42.36025" lon="2.31963">
        <ele>1918.4</ele>
        <time>2019-01-07T21:37:12Z</time>
      </trkpt>
      <trkpt lat="42.36023" lon="2.31964">
        <ele>1917.7</ele>
        <time>2019-01-07T21:37:13Z</time>
      </trkpt>
      <trkpt lat="42.36021" lon="2.31964">
        <ele>1917.2</ele>
        <time>2019-01-07T21:37:13Z</time>
      </trkpt>
      <trkpt lat="42.36018" lon="2.31964">
        <ele>1916.5</ele>
        <time>2019-01-07T21:37:14Z</time>
      </trkpt>
      <trkpt lat="42.36015" lon="2.31965">
        <ele>1915.5</ele>
        <time>2019-01-07T21:37:15Z</time>
      </trkpt>
      <trkpt lat="42.36013" lon="2.31966">
        <ele>1915.2</ele>
        <time>2019-01-07T21:37:15Z</time>
      </trkpt>
      <trkpt lat="42.36011" lon="2.31966">
        <ele>1914.5</ele>
        <time>2019-01-07T21:37:16Z</time>
      </trkpt>
      <trkpt lat="42.36008" lon="2.31967">
        <ele>1913.6</ele>
        <time>2019-01-07T21:37:17Z</time>
      </trkpt>
      <trkpt lat="42.36005" lon="2.31967">
        <ele>1912.7</ele>
        <time>2019-01-07T21:37:18Z</time>
      </trkpt>
      <trkpt lat="42.36002" lon="2.31967">
        <ele>1912.1</ele>
        <time>2019-01-07T21:37:18Z</time>
      </trkpt>
      <trkpt lat="42.35999" lon="2.31968">
        <ele>1911.4</ele>
        <time>2019-01-07T21:37:19Z</time>
      </trkpt>
      <trkpt lat="42.35996" lon="2.31969">
        <ele>1910.4</ele>
        <time>2019-01-07T21:37:20Z</time>
      </trkpt>
      <trkpt lat="42.35994" lon="2.31971">
        <ele>1909.9</ele>
        <time>2019-01-07T21:37:21Z</time>
      </trkpt>
      <trkpt lat="42.35991" lon="2.31973">
        <ele>1908.9</ele>
        <time>2019-01-07T21:37:22Z</time>
      </trkpt>
      <trkpt lat="42.35987" lon="2.31974">
        <ele>1908.3</ele>
        <time>2019-01-07T21:37:22Z</time>
      </trkpt>
      <trkpt lat="42.35984" lon="2.31975">
        <ele>1907.2</ele>
        <time>2019-01-07T21:37:23Z</time>
      </trkpt>
      <trkpt lat="42.35981" lon="2.31976">
        <ele>1906.5</ele>
        <time>2019-01-07T21:37:24Z</time>
      </trkpt>
      <trkpt lat="42.35978" lon="2.31977">
        <ele>1905.8</ele>
        <time>2019-01-07T21:37:25Z</time>
      </trkpt>
      <trkpt lat="42.35975" lon="2.31978">
        <ele>1905</ele>
        <time>2019-01-07T21:37:26Z</time>
      </trkpt>
      <trkpt lat="42.35971" lon="2.31979">
        <ele>1904.2</ele>
        <time>2019-01-07T21:37:27Z</time>
      </trkpt>
      <trkpt lat="42.3597" lon="2.3198">
        <ele>1903.9</ele>
        <time>2019-01-07T21:37:27Z</time>
      </trkpt>
      <trkpt lat="42.35968" lon="2.31981">
        <ele>1903.7</ele>
        <time>2019-01-07T21:37:28Z</time>
      </trkpt>
      <trkpt lat="42.35966" lon="2.31982">
        <ele>1903.3</ele>
        <time>2019-01-07T21:37:29Z</time>
      </trkpt>
      <trkpt lat="42.35963" lon="2.31982">
        <ele>1903.1</ele>
        <time>2019-01-07T21:37:29Z</time>
      </trkpt>
      <trkpt lat="42.35961" lon="2.31982">
        <ele>1902.5</ele>
        <time>2019-01-07T21:37:30Z</time>
      </trkpt>
      <trkpt lat="42.35959" lon="2.31984">
        <ele>1902.2</ele>
        <time>2019-01-07T21:37:30Z</time>
      </trkpt>
      <trkpt lat="42.35956" lon="2.31985">
        <ele>1901.7</ele>
        <time>2019-01-07T21:37:31Z</time>
      </trkpt>
      <trkpt lat="42.35954" lon="2.31986">
        <ele>1901.3</ele>
        <time>2019-01-07T21:37:32Z</time>
      </trkpt>
      <trkpt lat="42.35952" lon="2.31987">
        <ele>1900.8</ele>
        <time>2019-01-07T21:37:32Z</time>
      </trkpt>
      <trkpt lat="42.35949" lon="2.31987">
        <ele>1900.6</ele>
        <time>2019-01-07T21:37:33Z</time>
      </trkpt>
      <trkpt lat="42.35947" lon="2.31987">
        <ele>1900.3</ele>
        <time>2019-01-07T21:37:34Z</time>
      </trkpt>
      <trkpt lat="42.35944" lon="2.31987">
        <ele>1899.9</ele>
        <time>2019-01-07T21:37:34Z</time>
      </trkpt>
      <trkpt lat="42.35942" lon="2.31987">
        <ele>1899.7</ele>
        <time>2019-01-07T21:37:35Z</time>
      </trkpt>
      <trkpt lat="42.3594" lon="2.31988">
        <ele>1899.4</ele>
        <time>2019-01-07T21:37:35Z</time>
      </trkpt>
      <trkpt lat="42.35938" lon="2.31988">
        <ele>1899.1</ele>
        <time>2019-01-07T21:37:36Z</time>
      </trkpt>
      <trkpt lat="42.35936" lon="2.31988">
        <ele>1898.7</ele>
        <time>2019-01-07T21:37:37Z</time>
      </trkpt>
      <trkpt lat="42.35933" lon="2.31988">
        <ele>1898.5</ele>
        <time>2019-01-07T21:37:37Z</time>
      </trkpt>
      <trkpt lat="42.35931" lon="2.31988">
        <ele>1898.3</ele>
        <time>2019-01-07T21:37:38Z</time>
      </trkpt>
      <trkpt lat="42.35929" lon="2.31988">
        <ele>1897.8</ele>
        <time>2019-01-07T21:37:39Z</time>
      </trkpt>
      <trkpt lat="42.35926" lon="2.31988">
        <ele>1897.4</ele>
        <time>2019-01-07T21:37:39Z</time>
      </trkpt>
      <trkpt lat="42.35924" lon="2.31989">
        <ele>1897.2</ele>
        <time>2019-01-07T21:37:40Z</time>
      </trkpt>
      <trkpt lat="42.35922" lon="2.3199">
        <ele>1896.9</ele>
        <time>2019-01-07T21:37:40Z</time>
      </trkpt>
      <trkpt lat="42.3592" lon="2.31991">
        <ele>1896.6</ele>
        <time>2019-01-07T21:37:41Z</time>
      </trkpt>
      <trkpt lat="42.35918" lon="2.31991">
        <ele>1896.3</ele>
        <time>2019-01-07T21:37:41Z</time>
      </trkpt>
      <trkpt lat="42.35916" lon="2.31991">
        <ele>1895.9</ele>
        <time>2019-01-07T21:37:42Z</time>
      </trkpt>
      <trkpt lat="42.35913" lon="2.31992">
        <ele>1895.6</ele>
        <time>2019-01-07T21:37:43Z</time>
      </trkpt>
      <trkpt lat="42.35911" lon="2.31992">
        <ele>1895.3</ele>
        <time>2019-01-07T21:37:43Z</time>
      </trkpt>
      <trkpt lat="42.35909" lon="2.31993">
        <ele>1895</ele>
        <time>2019-01-07T21:37:44Z</time>
      </trkpt>
      <trkpt lat="42.35907" lon="2.31994">
        <ele>1894.8</ele>
        <time>2019-01-07T21:37:45Z</time>
      </trkpt>
      <trkpt lat="42.35904" lon="2.31995">
        <ele>1894.4</ele>
        <time>2019-01-07T21:37:45Z</time>
      </trkpt>
      <trkpt lat="42.35902" lon="2.31996">
        <ele>1894.1</ele>
        <time>2019-01-07T21:37:46Z</time>
      </trkpt>
      <trkpt lat="42.359" lon="2.31997">
        <ele>1893.6</ele>
        <time>2019-01-07T21:37:46Z</time>
      </trkpt>
      <trkpt lat="42.35898" lon="2.31999">
        <ele>1893.2</ele>
        <time>2019-01-07T21:37:47Z</time>
      </trkpt>
      <trkpt lat="42.35895" lon="2.32">
        <ele>1892.9</ele>
        <time>2019-01-07T21:37:48Z</time>
      </trkpt>
      <trkpt lat="42.35893" lon="2.32001">
        <ele>1892.3</ele>
        <time>2019-01-07T21:37:48Z</time>
      </trkpt>
      <trkpt lat="42.35891" lon="2.32003">
        <ele>1891.9</ele>
        <time>2019-01-07T21:37:49Z</time>
      </trkpt>
      <trkpt lat="42.35889" lon="2.32004">
        <ele>1891.5</ele>
        <time>2019-01-07T21:37:50Z</time>
      </trkpt>
      <trkpt lat="42.35887" lon="2.32006">
        <ele>1891.1</ele>
        <time>2019-01-07T21:37:50Z</time>
      </trkpt>
      <trkpt lat="42.35885" lon="2.32007">
        <ele>1890.7</ele>
        <time>2019-01-07T21:37:51Z</time>
      </trkpt>
      <trkpt lat="42.35884" lon="2.32009">
        <ele>1890.3</ele>
        <time>2019-01-07T21:37:51Z</time>
      </trkpt>
      <trkpt lat="42.35882" lon="2.3201">
        <ele>1889.8</ele>
        <time>2019-01-07T21:37:52Z</time>
      </trkpt>
      <trkpt lat="42.3588" lon="2.32012">
        <ele>1889.5</ele>
        <time>2019-01-07T21:37:53Z</time>
      </trkpt>
      <trkpt lat="42.35878" lon="2.32013">
        <ele>1889.2</ele>
        <time>2019-01-07T21:37:53Z</time>
      </trkpt>
      <trkpt lat="42.35875" lon="2.32014">
        <ele>1888.5</ele>
        <time>2019-01-07T21:37:54Z</time>
      </trkpt>
      <trkpt lat="42.35874" lon="2.32015">
        <ele>1888.3</ele>
        <time>2019-01-07T21:37:54Z</time>
      </trkpt>
      <trkpt lat="42.35871" lon="2.32016">
        <ele>1887.9</ele>
        <time>2019-01-07T21:37:55Z</time>
      </trkpt>
      <trkpt lat="42.35869" lon="2.32017">
        <ele>1887.4</ele>
        <time>2019-01-07T21:37:56Z</time>
      </trkpt>
      <trkpt lat="42.35867" lon="2.32018">
        <ele>1887</ele>
        <time>2019-01-07T21:37:56Z</time>
      </trkpt>
      <trkpt lat="42.35865" lon="2.32019">
        <ele>1886.7</ele>
        <time>2019-01-07T21:37:57Z</time>
      </trkpt>
      <trkpt lat="42.35863" lon="2.3202">
        <ele>1886.4</ele>
        <time>2019-01-07T21:37:57Z</time>
      </trkpt>
      <trkpt lat="42.3586" lon="2.32021">
        <ele>1886.1</ele>
        <time>2019-01-07T21:37:58Z</time>
      </trkpt>
      <trkpt lat="42.35858" lon="2.32023">
        <ele>1885.7</ele>
        <time>2019-01-07T21:37:59Z</time>
      </trkpt>
      <trkpt lat="42.35856" lon="2.32025">
        <ele>1885.1</ele>
        <time>2019-01-07T21:38:00Z</time>
      </trkpt>
      <trkpt lat="42.35853" lon="2.32025">
        <ele>1885</ele>
        <time>2019-01-07T21:38:00Z</time>
      </trkpt>
      <trkpt lat="42.3585" lon="2.32025">
        <ele>1884.5</ele>
        <time>2019-01-07T21:38:01Z</time>
      </trkpt>
      <trkpt lat="42.35847" lon="2.32026">
        <ele>1884.2</ele>
        <time>2019-01-07T21:38:02Z</time>
      </trkpt>
      <trkpt lat="42.35844" lon="2.32027">
        <ele>1883.9</ele>
        <time>2019-01-07T21:38:03Z</time>
      </trkpt>
      <trkpt lat="42.35842" lon="2.32027">
        <ele>1883.7</ele>
        <time>2019-01-07T21:38:03Z</time>
      </trkpt>
      <trkpt lat="42.35839" lon="2.32028">
        <ele>1883.5</ele>
        <time>2019-01-07T21:38:04Z</time>
      </trkpt>
      <trkpt lat="42.35837" lon="2.32029">
        <ele>1883.2</ele>
        <time>2019-01-07T21:38:05Z</time>
      </trkpt>
      <trkpt lat="42.35835" lon="2.3203">
        <ele>1882.9</ele>
        <time>2019-01-07T21:38:05Z</time>
      </trkpt>
      <trkpt lat="42.35833" lon="2.32032">
        <ele>1882.4</ele>
        <time>2019-01-07T21:38:06Z</time>
      </trkpt>
      <trkpt lat="42.35831" lon="2.32035">
        <ele>1881.8</ele>
        <time>2019-01-07T21:38:07Z</time>
      </trkpt>
      <trkpt lat="42.35828" lon="2.32036">
        <ele>1881.1</ele>
        <time>2019-01-07T21:38:07Z</time>
      </trkpt>
      <trkpt lat="42.35826" lon="2.32039">
        <ele>1880.5</ele>
        <time>2019-01-07T21:38:08Z</time>
      </trkpt>
      <trkpt lat="42.35824" lon="2.32041">
        <ele>1879.7</ele>
        <time>2019-01-07T21:38:09Z</time>
      </trkpt>
      <trkpt lat="42.35822" lon="2.32043">
        <ele>1879.1</ele>
        <time>2019-01-07T21:38:10Z</time>
      </trkpt>
      <trkpt lat="42.3582" lon="2.32046">
        <ele>1878.1</ele>
        <time>2019-01-07T21:38:10Z</time>
      </trkpt>
      <trkpt lat="42.35817" lon="2.32049">
        <ele>1877.1</ele>
        <time>2019-01-07T21:38:11Z</time>
      </trkpt>
      <trkpt lat="42.35815" lon="2.32051">
        <ele>1876.2</ele>
        <time>2019-01-07T21:38:12Z</time>
      </trkpt>
      <trkpt lat="42.35813" lon="2.32053">
        <ele>1875.4</ele>
        <time>2019-01-07T21:38:13Z</time>
      </trkpt>
      <trkpt lat="42.35811" lon="2.32055">
        <ele>1874.7</ele>
        <time>2019-01-07T21:38:13Z</time>
      </trkpt>
      <trkpt lat="42.35808" lon="2.32057">
        <ele>1873.6</ele>
        <time>2019-01-07T21:38:14Z</time>
      </trkpt>
      <trkpt lat="42.35806" lon="2.32058">
        <ele>1872.8</ele>
        <time>2019-01-07T21:38:15Z</time>
      </trkpt>
      <trkpt lat="42.35804" lon="2.32057">
        <ele>1872.6</ele>
        <time>2019-01-07T21:38:15Z</time>
      </trkpt>
      <trkpt lat="42.35802" lon="2.32056">
        <ele>1872.5</ele>
        <time>2019-01-07T21:38:16Z</time>
      </trkpt>
      <trkpt lat="42.35799" lon="2.32058">
        <ele>1871.6</ele>
        <time>2019-01-07T21:38:17Z</time>
      </trkpt>
      <trkpt lat="42.35797" lon="2.32061">
        <ele>1870.8</ele>
        <time>2019-01-07T21:38:18Z</time>
      </trkpt>
      <trkpt lat="42.35795" lon="2.32063">
        <ele>1870</ele>
        <time>2019-01-07T21:38:18Z</time>
      </trkpt>
      <trkpt lat="42.35793" lon="2.32065">
        <ele>1869.1</ele>
        <time>2019-01-07T21:38:19Z</time>
      </trkpt>
      <trkpt lat="42.35791" lon="2.32069">
        <ele>1868.3</ele>
        <time>2019-01-07T21:38:20Z</time>
      </trkpt>
      <trkpt lat="42.35789" lon="2.32071">
        <ele>1867.5</ele>
        <time>2019-01-07T21:38:21Z</time>
      </trkpt>
      <trkpt lat="42.35787" lon="2.32074">
        <ele>1866.8</ele>
        <time>2019-01-07T21:38:21Z</time>
      </trkpt>
      <trkpt lat="42.35785" lon="2.32076">
        <ele>1866</ele>
        <time>2019-01-07T21:38:22Z</time>
      </trkpt>
      <trkpt lat="42.35783" lon="2.32078">
        <ele>1865</ele>
        <time>2019-01-07T21:38:23Z</time>
      </trkpt>
      <trkpt lat="42.35781" lon="2.3208">
        <ele>1864.4</ele>
        <time>2019-01-07T21:38:23Z</time>
      </trkpt>
      <trkpt lat="42.35779" lon="2.32083">
        <ele>1863.3</ele>
        <time>2019-01-07T21:38:24Z</time>
      </trkpt>
      <trkpt lat="42.35776" lon="2.32085">
        <ele>1862.6</ele>
        <time>2019-01-07T21:38:25Z</time>
      </trkpt>
      <trkpt lat="42.35773" lon="2.32086">
        <ele>1862.1</ele>
        <time>2019-01-07T21:38:26Z</time>
      </trkpt>
      <trkpt lat="42.35771" lon="2.32089">
        <ele>1861.4</ele>
        <time>2019-01-07T21:38:27Z</time>
      </trkpt>
      <trkpt lat="42.35769" lon="2.32091">
        <ele>1860.8</ele>
        <time>2019-01-07T21:38:27Z</time>
      </trkpt>
      <trkpt lat="42.35766" lon="2.32093">
        <ele>1860</ele>
        <time>2019-01-07T21:38:28Z</time>
      </trkpt>
      <trkpt lat="42.35764" lon="2.32096">
        <ele>1859</ele>
        <time>2019-01-07T21:38:29Z</time>
      </trkpt>
      <trkpt lat="42.35762" lon="2.32099">
        <ele>1858.3</ele>
        <time>2019-01-07T21:38:30Z</time>
      </trkpt>
      <trkpt lat="42.35759" lon="2.32101">
        <ele>1857.5</ele>
        <time>2019-01-07T21:38:30Z</time>
      </trkpt>
      <trkpt lat="42.35758" lon="2.32103">
        <ele>1856.9</ele>
        <time>2019-01-07T21:38:31Z</time>
      </trkpt>
      <trkpt lat="42.35759" lon="2.32099">
        <ele>1857.9</ele>
        <time>2019-01-07T21:38:32Z</time>
      </trkpt>
      <trkpt lat="42.35761" lon="2.32097">
        <ele>1858.5</ele>
        <time>2019-01-07T21:38:33Z</time>
      </trkpt>
      <trkpt lat="42.35758" lon="2.32099">
        <ele>1857.7</ele>
        <time>2019-01-07T21:38:33Z</time>
      </trkpt>
      <trkpt lat="42.35756" lon="2.32102">
        <ele>1856.8</ele>
        <time>2019-01-07T21:38:34Z</time>
      </trkpt>
      <trkpt lat="42.35754" lon="2.32105">
        <ele>1856.1</ele>
        <time>2019-01-07T21:38:35Z</time>
      </trkpt>
      <trkpt lat="42.35752" lon="2.32106">
        <ele>1855.3</ele>
        <time>2019-01-07T21:38:36Z</time>
      </trkpt>
      <trkpt lat="42.3575" lon="2.32109">
        <ele>1854.8</ele>
        <time>2019-01-07T21:38:36Z</time>
      </trkpt>
      <trkpt lat="42.35748" lon="2.32111">
        <ele>1853.8</ele>
        <time>2019-01-07T21:38:37Z</time>
      </trkpt>
      <trkpt lat="42.35746" lon="2.32113">
        <ele>1853.2</ele>
        <time>2019-01-07T21:38:38Z</time>
      </trkpt>
      <trkpt lat="42.35744" lon="2.32115">
        <ele>1852.9</ele>
        <time>2019-01-07T21:38:38Z</time>
      </trkpt>
      <trkpt lat="42.35742" lon="2.32116">
        <ele>1852.4</ele>
        <time>2019-01-07T21:38:39Z</time>
      </trkpt>
      <trkpt lat="42.3574" lon="2.32119">
        <ele>1851.5</ele>
        <time>2019-01-07T21:38:40Z</time>
      </trkpt>
      <trkpt lat="42.35737" lon="2.32121">
        <ele>1850.8</ele>
        <time>2019-01-07T21:38:41Z</time>
      </trkpt>
      <trkpt lat="42.35735" lon="2.32122">
        <ele>1850.5</ele>
        <time>2019-01-07T21:38:41Z</time>
      </trkpt>
      <trkpt lat="42.35733" lon="2.32124">
        <ele>1849.9</ele>
        <time>2019-01-07T21:38:42Z</time>
      </trkpt>
      <trkpt lat="42.35732" lon="2.32126">
        <ele>1849.4</ele>
        <time>2019-01-07T21:38:42Z</time>
      </trkpt>
      <trkpt lat="42.3573" lon="2.32128">
        <ele>1848.8</ele>
        <time>2019-01-07T21:38:43Z</time>
      </trkpt>
      <trkpt lat="42.35728" lon="2.3213">
        <ele>1848.4</ele>
        <time>2019-01-07T21:38:43Z</time>
      </trkpt>
      <trkpt lat="42.35727" lon="2.32131">
        <ele>1848.2</ele>
        <time>2019-01-07T21:38:44Z</time>
      </trkpt>
      <trkpt lat="42.35724" lon="2.32133">
        <ele>1847.2</ele>
        <time>2019-01-07T21:38:45Z</time>
      </trkpt>
      <trkpt lat="42.35722" lon="2.32135">
        <ele>1846.6</ele>
        <time>2019-01-07T21:38:45Z</time>
      </trkpt>
      <trkpt lat="42.35721" lon="2.32137">
        <ele>1846.1</ele>
        <time>2019-01-07T21:38:46Z</time>
      </trkpt>
      <trkpt lat="42.35718" lon="2.32139">
        <ele>1845.3</ele>
        <time>2019-01-07T21:38:47Z</time>
      </trkpt>
      <trkpt lat="42.35716" lon="2.32141">
        <ele>1844.4</ele>
        <time>2019-01-07T21:38:47Z</time>
      </trkpt>
      <trkpt lat="42.35714" lon="2.32143">
        <ele>1843.7</ele>
        <time>2019-01-07T21:38:48Z</time>
      </trkpt>
      <trkpt lat="42.35712" lon="2.32145">
        <ele>1843</ele>
        <time>2019-01-07T21:38:49Z</time>
      </trkpt>
      <trkpt lat="42.35711" lon="2.32147">
        <ele>1842.5</ele>
        <time>2019-01-07T21:38:49Z</time>
      </trkpt>
      <trkpt lat="42.35709" lon="2.32148">
        <ele>1841.9</ele>
        <time>2019-01-07T21:38:50Z</time>
      </trkpt>
      <trkpt lat="42.35708" lon="2.3215">
        <ele>1841.3</ele>
        <time>2019-01-07T21:38:50Z</time>
      </trkpt>
      <trkpt lat="42.35706" lon="2.32152">
        <ele>1840.8</ele>
        <time>2019-01-07T21:38:51Z</time>
      </trkpt>
      <trkpt lat="42.35704" lon="2.32155">
        <ele>1839.7</ele>
        <time>2019-01-07T21:38:52Z</time>
      </trkpt>
      <trkpt lat="42.35702" lon="2.32158">
        <ele>1838.8</ele>
        <time>2019-01-07T21:38:53Z</time>
      </trkpt>
      <trkpt lat="42.357" lon="2.32159">
        <ele>1838.3</ele>
        <time>2019-01-07T21:38:53Z</time>
      </trkpt>
      <trkpt lat="42.35698" lon="2.32161">
        <ele>1837.8</ele>
        <time>2019-01-07T21:38:54Z</time>
      </trkpt>
      <trkpt lat="42.35696" lon="2.32163">
        <ele>1837.1</ele>
        <time>2019-01-07T21:38:54Z</time>
      </trkpt>
      <trkpt lat="42.35695" lon="2.32165">
        <ele>1836.5</ele>
        <time>2019-01-07T21:38:55Z</time>
      </trkpt>
      <trkpt lat="42.35694" lon="2.32167">
        <ele>1835.8</ele>
        <time>2019-01-07T21:38:55Z</time>
      </trkpt>
      <trkpt lat="42.35692" lon="2.32169">
        <ele>1835.3</ele>
        <time>2019-01-07T21:38:56Z</time>
      </trkpt>
      <trkpt lat="42.35689" lon="2.3217">
        <ele>1834.8</ele>
        <time>2019-01-07T21:38:57Z</time>
      </trkpt>
      <trkpt lat="42.35687" lon="2.32171">
        <ele>1834.3</ele>
        <time>2019-01-07T21:38:57Z</time>
      </trkpt>
      <trkpt lat="42.35685" lon="2.32172">
        <ele>1833.8</ele>
        <time>2019-01-07T21:38:58Z</time>
      </trkpt>
      <trkpt lat="42.35683" lon="2.32174">
        <ele>1833.3</ele>
        <time>2019-01-07T21:38:58Z</time>
      </trkpt>
      <trkpt lat="42.35681" lon="2.32176">
        <ele>1832.4</ele>
        <time>2019-01-07T21:38:59Z</time>
      </trkpt>
      <trkpt lat="42.35679" lon="2.32178">
        <ele>1831.7</ele>
        <time>2019-01-07T21:39:00Z</time>
      </trkpt>
      <trkpt lat="42.35677" lon="2.3218">
        <ele>1831.1</ele>
        <time>2019-01-07T21:39:01Z</time>
      </trkpt>
      <trkpt lat="42.35674" lon="2.32182">
        <ele>1830.5</ele>
        <time>2019-01-07T21:39:01Z</time>
      </trkpt>
      <trkpt lat="42.35672" lon="2.32183">
        <ele>1830</ele>
        <time>2019-01-07T21:39:02Z</time>
      </trkpt>
      <trkpt lat="42.35671" lon="2.32185">
        <ele>1829.5</ele>
        <time>2019-01-07T21:39:02Z</time>
      </trkpt>
      <trkpt lat="42.35669" lon="2.32187">
        <ele>1828.5</ele>
        <time>2019-01-07T21:39:03Z</time>
      </trkpt>
      <trkpt lat="42.35667" lon="2.32189">
        <ele>1828.1</ele>
        <time>2019-01-07T21:39:04Z</time>
      </trkpt>
      <trkpt lat="42.35665" lon="2.32191">
        <ele>1827.5</ele>
        <time>2019-01-07T21:39:04Z</time>
      </trkpt>
      <trkpt lat="42.35664" lon="2.32192">
        <ele>1826.8</ele>
        <time>2019-01-07T21:39:05Z</time>
      </trkpt>
      <trkpt lat="42.35661" lon="2.32195">
        <ele>1825.6</ele>
        <time>2019-01-07T21:39:06Z</time>
      </trkpt>
      <trkpt lat="42.35659" lon="2.32197">
        <ele>1824.4</ele>
        <time>2019-01-07T21:39:06Z</time>
      </trkpt>
      <trkpt lat="42.35657" lon="2.322">
        <ele>1823.2</ele>
        <time>2019-01-07T21:39:07Z</time>
      </trkpt>
      <trkpt lat="42.35655" lon="2.32203">
        <ele>1821.9</ele>
        <time>2019-01-07T21:39:08Z</time>
      </trkpt>
      <trkpt lat="42.35653" lon="2.32205">
        <ele>1820.7</ele>
        <time>2019-01-07T21:39:09Z</time>
      </trkpt>
      <trkpt lat="42.35651" lon="2.32208">
        <ele>1819.6</ele>
        <time>2019-01-07T21:39:10Z</time>
      </trkpt>
      <trkpt lat="42.35649" lon="2.32211">
        <ele>1818.7</ele>
        <time>2019-01-07T21:39:10Z</time>
      </trkpt>
      <trkpt lat="42.35648" lon="2.32213">
        <ele>1818</ele>
        <time>2019-01-07T21:39:11Z</time>
      </trkpt>
      <trkpt lat="42.35647" lon="2.32215">
        <ele>1817.2</ele>
        <time>2019-01-07T21:39:11Z</time>
      </trkpt>
      <trkpt lat="42.35645" lon="2.32218">
        <ele>1816</ele>
        <time>2019-01-07T21:39:12Z</time>
      </trkpt>
      <trkpt lat="42.35643" lon="2.3222">
        <ele>1815.4</ele>
        <time>2019-01-07T21:39:13Z</time>
      </trkpt>
      <trkpt lat="42.35641" lon="2.32221">
        <ele>1814.6</ele>
        <time>2019-01-07T21:39:13Z</time>
      </trkpt>
      <trkpt lat="42.35639" lon="2.32223">
        <ele>1813.9</ele>
        <time>2019-01-07T21:39:14Z</time>
      </trkpt>
      <trkpt lat="42.35637" lon="2.32225">
        <ele>1812.8</ele>
        <time>2019-01-07T21:39:15Z</time>
      </trkpt>
      <trkpt lat="42.35635" lon="2.32227">
        <ele>1811.9</ele>
        <time>2019-01-07T21:39:15Z</time>
      </trkpt>
      <trkpt lat="42.35633" lon="2.3223">
        <ele>1810.9</ele>
        <time>2019-01-07T21:39:16Z</time>
      </trkpt>
      <trkpt lat="42.35632" lon="2.32231">
        <ele>1810</ele>
        <time>2019-01-07T21:39:16Z</time>
      </trkpt>
      <trkpt lat="42.3563" lon="2.32233">
        <ele>1809.2</ele>
        <time>2019-01-07T21:39:17Z</time>
      </trkpt>
      <trkpt lat="42.35629" lon="2.32235">
        <ele>1808.5</ele>
        <time>2019-01-07T21:39:18Z</time>
      </trkpt>
      <trkpt lat="42.35628" lon="2.32237">
        <ele>1808</ele>
        <time>2019-01-07T21:39:18Z</time>
      </trkpt>
      <trkpt lat="42.35626" lon="2.32239">
        <ele>1807.1</ele>
        <time>2019-01-07T21:39:19Z</time>
      </trkpt>
      <trkpt lat="42.35625" lon="2.32242">
        <ele>1806.5</ele>
        <time>2019-01-07T21:39:19Z</time>
      </trkpt>
      <trkpt lat="42.35624" lon="2.32244">
        <ele>1805.7</ele>
        <time>2019-01-07T21:39:20Z</time>
      </trkpt>
      <trkpt lat="42.35622" lon="2.32245">
        <ele>1805.2</ele>
        <time>2019-01-07T21:39:20Z</time>
      </trkpt>
      <trkpt lat="42.35621" lon="2.32247">
        <ele>1804.5</ele>
        <time>2019-01-07T21:39:21Z</time>
      </trkpt>
      <trkpt lat="42.35619" lon="2.32248">
        <ele>1804</ele>
        <time>2019-01-07T21:39:21Z</time>
      </trkpt>
      <trkpt lat="42.35617" lon="2.3225">
        <ele>1803</ele>
        <time>2019-01-07T21:39:22Z</time>
      </trkpt>
      <trkpt lat="42.35615" lon="2.32251">
        <ele>1802.6</ele>
        <time>2019-01-07T21:39:23Z</time>
      </trkpt>
      <trkpt lat="42.35613" lon="2.32253">
        <ele>1801.7</ele>
        <time>2019-01-07T21:39:23Z</time>
      </trkpt>
      <trkpt lat="42.35611" lon="2.32255">
        <ele>1801.1</ele>
        <time>2019-01-07T21:39:24Z</time>
      </trkpt>
      <trkpt lat="42.35609" lon="2.32258">
        <ele>1800</ele>
        <time>2019-01-07T21:39:25Z</time>
      </trkpt>
      <trkpt lat="42.35608" lon="2.32261">
        <ele>1799</ele>
        <time>2019-01-07T21:39:25Z</time>
      </trkpt>
      <trkpt lat="42.35605" lon="2.32262">
        <ele>1798.2</ele>
        <time>2019-01-07T21:39:26Z</time>
      </trkpt>
      <trkpt lat="42.35604" lon="2.32264">
        <ele>1797.4</ele>
        <time>2019-01-07T21:39:27Z</time>
      </trkpt>
      <trkpt lat="42.35602" lon="2.32268">
        <ele>1796.4</ele>
        <time>2019-01-07T21:39:27Z</time>
      </trkpt>
      <trkpt lat="42.356" lon="2.3227">
        <ele>1795.7</ele>
        <time>2019-01-07T21:39:28Z</time>
      </trkpt>
      <trkpt lat="42.35599" lon="2.32273">
        <ele>1794.9</ele>
        <time>2019-01-07T21:39:29Z</time>
      </trkpt>
      <trkpt lat="42.35597" lon="2.32275">
        <ele>1794.2</ele>
        <time>2019-01-07T21:39:29Z</time>
      </trkpt>
      <trkpt lat="42.35596" lon="2.32278">
        <ele>1793.3</ele>
        <time>2019-01-07T21:39:30Z</time>
      </trkpt>
      <trkpt lat="42.35594" lon="2.3228">
        <ele>1792.4</ele>
        <time>2019-01-07T21:39:31Z</time>
      </trkpt>
      <trkpt lat="42.35592" lon="2.32283">
        <ele>1791.5</ele>
        <time>2019-01-07T21:39:32Z</time>
      </trkpt>
      <trkpt lat="42.3559" lon="2.32285">
        <ele>1791</ele>
        <time>2019-01-07T21:39:32Z</time>
      </trkpt>
      <trkpt lat="42.35589" lon="2.32287">
        <ele>1790.5</ele>
        <time>2019-01-07T21:39:33Z</time>
      </trkpt>
      <trkpt lat="42.35587" lon="2.32289">
        <ele>1789.9</ele>
        <time>2019-01-07T21:39:33Z</time>
      </trkpt>
      <trkpt lat="42.35586" lon="2.32292">
        <ele>1789.3</ele>
        <time>2019-01-07T21:39:34Z</time>
      </trkpt>
      <trkpt lat="42.35584" lon="2.32294">
        <ele>1788.8</ele>
        <time>2019-01-07T21:39:34Z</time>
      </trkpt>
      <trkpt lat="42.35583" lon="2.32296">
        <ele>1788.4</ele>
        <time>2019-01-07T21:39:35Z</time>
      </trkpt>
      <trkpt lat="42.35582" lon="2.32298">
        <ele>1787.9</ele>
        <time>2019-01-07T21:39:35Z</time>
      </trkpt>
      <trkpt lat="42.3558" lon="2.323">
        <ele>1787.4</ele>
        <time>2019-01-07T21:39:36Z</time>
      </trkpt>
      <trkpt lat="42.35579" lon="2.32303">
        <ele>1786.8</ele>
        <time>2019-01-07T21:39:37Z</time>
      </trkpt>
      <trkpt lat="42.35578" lon="2.32305">
        <ele>1786.3</ele>
        <time>2019-01-07T21:39:37Z</time>
      </trkpt>
      <trkpt lat="42.35576" lon="2.32307">
        <ele>1785.7</ele>
        <time>2019-01-07T21:39:38Z</time>
      </trkpt>
      <trkpt lat="42.35575" lon="2.32309">
        <ele>1785.1</ele>
        <time>2019-01-07T21:39:38Z</time>
      </trkpt>
      <trkpt lat="42.35573" lon="2.32311">
        <ele>1784.7</ele>
        <time>2019-01-07T21:39:39Z</time>
      </trkpt>
      <trkpt lat="42.35572" lon="2.32314">
        <ele>1784.1</ele>
        <time>2019-01-07T21:39:39Z</time>
      </trkpt>
      <trkpt lat="42.35571" lon="2.32316">
        <ele>1783.4</ele>
        <time>2019-01-07T21:39:40Z</time>
      </trkpt>
      <trkpt lat="42.35569" lon="2.32318">
        <ele>1782.7</ele>
        <time>2019-01-07T21:39:41Z</time>
      </trkpt>
      <trkpt lat="42.35567" lon="2.3232">
        <ele>1782.2</ele>
        <time>2019-01-07T21:39:41Z</time>
      </trkpt>
      <trkpt lat="42.35566" lon="2.32322">
        <ele>1781.9</ele>
        <time>2019-01-07T21:39:42Z</time>
      </trkpt>
      <trkpt lat="42.35565" lon="2.32324">
        <ele>1781.2</ele>
        <time>2019-01-07T21:39:42Z</time>
      </trkpt>
      <trkpt lat="42.35563" lon="2.32326">
        <ele>1780.9</ele>
        <time>2019-01-07T21:39:43Z</time>
      </trkpt>
      <trkpt lat="42.35562" lon="2.32329">
        <ele>1780.2</ele>
        <time>2019-01-07T21:39:44Z</time>
      </trkpt>
      <trkpt lat="42.35561" lon="2.32331">
        <ele>1779.8</ele>
        <time>2019-01-07T21:39:44Z</time>
      </trkpt>
      <trkpt lat="42.35559" lon="2.32333">
        <ele>1779.3</ele>
        <time>2019-01-07T21:39:45Z</time>
      </trkpt>
      <trkpt lat="42.35558" lon="2.32335">
        <ele>1778.9</ele>
        <time>2019-01-07T21:39:45Z</time>
      </trkpt>
      <trkpt lat="42.35557" lon="2.32337">
        <ele>1778.5</ele>
        <time>2019-01-07T21:39:46Z</time>
      </trkpt>
      <trkpt lat="42.35555" lon="2.32339">
        <ele>1778.3</ele>
        <time>2019-01-07T21:39:46Z</time>
      </trkpt>
      <trkpt lat="42.35554" lon="2.32342">
        <ele>1777.6</ele>
        <time>2019-01-07T21:39:47Z</time>
      </trkpt>
      <trkpt lat="42.35553" lon="2.32344">
        <ele>1777.1</ele>
        <time>2019-01-07T21:39:47Z</time>
      </trkpt>
      <trkpt lat="42.35551" lon="2.32347">
        <ele>1776.5</ele>
        <time>2019-01-07T21:39:48Z</time>
      </trkpt>
      <trkpt lat="42.3555" lon="2.32349">
        <ele>1776</ele>
        <time>2019-01-07T21:39:49Z</time>
      </trkpt>
      <trkpt lat="42.35548" lon="2.32352">
        <ele>1775.5</ele>
        <time>2019-01-07T21:39:49Z</time>
      </trkpt>
      <trkpt lat="42.35546" lon="2.32354">
        <ele>1775</ele>
        <time>2019-01-07T21:39:50Z</time>
      </trkpt>
      <trkpt lat="42.35545" lon="2.32356">
        <ele>1774.5</ele>
        <time>2019-01-07T21:39:51Z</time>
      </trkpt>
      <trkpt lat="42.35543" lon="2.32358">
        <ele>1774.1</ele>
        <time>2019-01-07T21:39:51Z</time>
      </trkpt>
      <trkpt lat="42.35542" lon="2.32361">
        <ele>1773.6</ele>
        <time>2019-01-07T21:39:52Z</time>
      </trkpt>
      <trkpt lat="42.3554" lon="2.32363">
        <ele>1773.2</ele>
        <time>2019-01-07T21:39:52Z</time>
      </trkpt>
      <trkpt lat="42.35538" lon="2.32365">
        <ele>1772.9</ele>
        <time>2019-01-07T21:39:53Z</time>
      </trkpt>
      <trkpt lat="42.35537" lon="2.32367">
        <ele>1772.3</ele>
        <time>2019-01-07T21:39:54Z</time>
      </trkpt>
      <trkpt lat="42.35535" lon="2.32369">
        <ele>1772.1</ele>
        <time>2019-01-07T21:39:54Z</time>
      </trkpt>
      <trkpt lat="42.35534" lon="2.32371">
        <ele>1771.6</ele>
        <time>2019-01-07T21:39:55Z</time>
      </trkpt>
      <trkpt lat="42.35532" lon="2.32373">
        <ele>1771.3</ele>
        <time>2019-01-07T21:39:55Z</time>
      </trkpt>
      <trkpt lat="42.3553" lon="2.32375">
        <ele>1771.2</ele>
        <time>2019-01-07T21:39:56Z</time>
      </trkpt>
      <trkpt lat="42.35528" lon="2.32377">
        <ele>1771</ele>
        <time>2019-01-07T21:39:57Z</time>
      </trkpt>
      <trkpt lat="42.35527" lon="2.32379">
        <ele>1770.6</ele>
        <time>2019-01-07T21:39:57Z</time>
      </trkpt>
      <trkpt lat="42.35525" lon="2.32381">
        <ele>1770.3</ele>
        <time>2019-01-07T21:39:58Z</time>
      </trkpt>
      <trkpt lat="42.35523" lon="2.32383">
        <ele>1769.9</ele>
        <time>2019-01-07T21:39:59Z</time>
      </trkpt>
      <trkpt lat="42.35521" lon="2.32385">
        <ele>1769.5</ele>
        <time>2019-01-07T21:39:59Z</time>
      </trkpt>
      <trkpt lat="42.3552" lon="2.32387">
        <ele>1769.2</ele>
        <time>2019-01-07T21:40:00Z</time>
      </trkpt>
      <trkpt lat="42.35517" lon="2.32389">
        <ele>1769.1</ele>
        <time>2019-01-07T21:40:00Z</time>
      </trkpt>
      <trkpt lat="42.35515" lon="2.32391">
        <ele>1768.4</ele>
        <time>2019-01-07T21:40:01Z</time>
      </trkpt>
      <trkpt lat="42.35513" lon="2.32393">
        <ele>1768</ele>
        <time>2019-01-07T21:40:02Z</time>
      </trkpt>
      <trkpt lat="42.35512" lon="2.32395">
        <ele>1767.5</ele>
        <time>2019-01-07T21:40:02Z</time>
      </trkpt>
      <trkpt lat="42.3551" lon="2.32397">
        <ele>1767.2</ele>
        <time>2019-01-07T21:40:03Z</time>
      </trkpt>
      <trkpt lat="42.35508" lon="2.32399">
        <ele>1766.7</ele>
        <time>2019-01-07T21:40:04Z</time>
      </trkpt>
      <trkpt lat="42.35506" lon="2.32401">
        <ele>1766.5</ele>
        <time>2019-01-07T21:40:04Z</time>
      </trkpt>
      <trkpt lat="42.35504" lon="2.32403">
        <ele>1766.1</ele>
        <time>2019-01-07T21:40:05Z</time>
      </trkpt>
      <trkpt lat="42.35503" lon="2.32406">
        <ele>1766</ele>
        <time>2019-01-07T21:40:06Z</time>
      </trkpt>
      <trkpt lat="42.35501" lon="2.32408">
        <ele>1765.6</ele>
        <time>2019-01-07T21:40:06Z</time>
      </trkpt>
      <trkpt lat="42.35499" lon="2.3241">
        <ele>1765.5</ele>
        <time>2019-01-07T21:40:07Z</time>
      </trkpt>
      <trkpt lat="42.35497" lon="2.32412">
        <ele>1765.2</ele>
        <time>2019-01-07T21:40:08Z</time>
      </trkpt>
      <trkpt lat="42.35495" lon="2.32414">
        <ele>1764.9</ele>
        <time>2019-01-07T21:40:08Z</time>
      </trkpt>
      <trkpt lat="42.35493" lon="2.32416">
        <ele>1764.7</ele>
        <time>2019-01-07T21:40:09Z</time>
      </trkpt>
      <trkpt lat="42.35491" lon="2.32418">
        <ele>1764.2</ele>
        <time>2019-01-07T21:40:10Z</time>
      </trkpt>
      <trkpt lat="42.35489" lon="2.3242">
        <ele>1763.9</ele>
        <time>2019-01-07T21:40:10Z</time>
      </trkpt>
      <trkpt lat="42.35487" lon="2.32423">
        <ele>1763.5</ele>
        <time>2019-01-07T21:40:11Z</time>
      </trkpt>
      <trkpt lat="42.35485" lon="2.32425">
        <ele>1763</ele>
        <time>2019-01-07T21:40:12Z</time>
      </trkpt>
      <trkpt lat="42.35482" lon="2.32427">
        <ele>1762.8</ele>
        <time>2019-01-07T21:40:12Z</time>
      </trkpt>
      <trkpt lat="42.35481" lon="2.32429">
        <ele>1762.4</ele>
        <time>2019-01-07T21:40:13Z</time>
      </trkpt>
      <trkpt lat="42.35479" lon="2.32431">
        <ele>1762.4</ele>
        <time>2019-01-07T21:40:14Z</time>
      </trkpt>
      <trkpt lat="42.35477" lon="2.32433">
        <ele>1762.1</ele>
        <time>2019-01-07T21:40:14Z</time>
      </trkpt>
      <trkpt lat="42.35475" lon="2.32435">
        <ele>1761.9</ele>
        <time>2019-01-07T21:40:15Z</time>
      </trkpt>
      <trkpt lat="42.35473" lon="2.32436">
        <ele>1761.6</ele>
        <time>2019-01-07T21:40:16Z</time>
      </trkpt>
      <trkpt lat="42.35471" lon="2.32439">
        <ele>1761.4</ele>
        <time>2019-01-07T21:40:16Z</time>
      </trkpt>
      <trkpt lat="42.3547" lon="2.3244">
        <ele>1761.1</ele>
        <time>2019-01-07T21:40:17Z</time>
      </trkpt>
      <trkpt lat="42.35468" lon="2.32442">
        <ele>1760.8</ele>
        <time>2019-01-07T21:40:17Z</time>
      </trkpt>
      <trkpt lat="42.35466" lon="2.32444">
        <ele>1760.6</ele>
        <time>2019-01-07T21:40:18Z</time>
      </trkpt>
      <trkpt lat="42.35464" lon="2.32446">
        <ele>1760.1</ele>
        <time>2019-01-07T21:40:19Z</time>
      </trkpt>
      <trkpt lat="42.35462" lon="2.32447">
        <ele>1760</ele>
        <time>2019-01-07T21:40:19Z</time>
      </trkpt>
      <trkpt lat="42.3546" lon="2.32449">
        <ele>1759.6</ele>
        <time>2019-01-07T21:40:20Z</time>
      </trkpt>
      <trkpt lat="42.35458" lon="2.3245">
        <ele>1759.2</ele>
        <time>2019-01-07T21:40:21Z</time>
      </trkpt>
      <trkpt lat="42.35455" lon="2.32452">
        <ele>1758.7</ele>
        <time>2019-01-07T21:40:21Z</time>
      </trkpt>
      <trkpt lat="42.35454" lon="2.32453">
        <ele>1758.3</ele>
        <time>2019-01-07T21:40:22Z</time>
      </trkpt>
      <trkpt lat="42.35452" lon="2.32455">
        <ele>1758.1</ele>
        <time>2019-01-07T21:40:22Z</time>
      </trkpt>
      <trkpt lat="42.3545" lon="2.32456">
        <ele>1757.7</ele>
        <time>2019-01-07T21:40:23Z</time>
      </trkpt>
      <trkpt lat="42.35448" lon="2.32458">
        <ele>1757.4</ele>
        <time>2019-01-07T21:40:23Z</time>
      </trkpt>
      <trkpt lat="42.35447" lon="2.32459">
        <ele>1757.1</ele>
        <time>2019-01-07T21:40:24Z</time>
      </trkpt>
      <trkpt lat="42.35444" lon="2.32461">
        <ele>1756.7</ele>
        <time>2019-01-07T21:40:25Z</time>
      </trkpt>
      <trkpt lat="42.35442" lon="2.32462">
        <ele>1756.3</ele>
        <time>2019-01-07T21:40:25Z</time>
      </trkpt>
      <trkpt lat="42.3544" lon="2.32463">
        <ele>1756</ele>
        <time>2019-01-07T21:40:26Z</time>
      </trkpt>
      <trkpt lat="42.35438" lon="2.32465">
        <ele>1755.8</ele>
        <time>2019-01-07T21:40:26Z</time>
      </trkpt>
      <trkpt lat="42.35436" lon="2.32467">
        <ele>1755.6</ele>
        <time>2019-01-07T21:40:27Z</time>
      </trkpt>
      <trkpt lat="42.35434" lon="2.32468">
        <ele>1755.3</ele>
        <time>2019-01-07T21:40:28Z</time>
      </trkpt>
      <trkpt lat="42.35432" lon="2.3247">
        <ele>1754.9</ele>
        <time>2019-01-07T21:40:28Z</time>
      </trkpt>
      <trkpt lat="42.3543" lon="2.32472">
        <ele>1754.7</ele>
        <time>2019-01-07T21:40:29Z</time>
      </trkpt>
      <trkpt lat="42.35428" lon="2.32473">
        <ele>1754.3</ele>
        <time>2019-01-07T21:40:30Z</time>
      </trkpt>
      <trkpt lat="42.35425" lon="2.32475">
        <ele>1753.9</ele>
        <time>2019-01-07T21:40:30Z</time>
      </trkpt>
      <trkpt lat="42.35423" lon="2.32477">
        <ele>1753.6</ele>
        <time>2019-01-07T21:40:31Z</time>
      </trkpt>
      <trkpt lat="42.35421" lon="2.32479">
        <ele>1753.3</ele>
        <time>2019-01-07T21:40:32Z</time>
      </trkpt>
      <trkpt lat="42.35418" lon="2.32481">
        <ele>1753</ele>
        <time>2019-01-07T21:40:33Z</time>
      </trkpt>
      <trkpt lat="42.35416" lon="2.32482">
        <ele>1752.6</ele>
        <time>2019-01-07T21:40:33Z</time>
      </trkpt>
      <trkpt lat="42.35414" lon="2.32484">
        <ele>1752.3</ele>
        <time>2019-01-07T21:40:34Z</time>
      </trkpt>
      <trkpt lat="42.35412" lon="2.32486">
        <ele>1751.9</ele>
        <time>2019-01-07T21:40:35Z</time>
      </trkpt>
      <trkpt lat="42.35411" lon="2.32488">
        <ele>1751.4</ele>
        <time>2019-01-07T21:40:35Z</time>
      </trkpt>
      <trkpt lat="42.3541" lon="2.32493">
        <ele>1750.8</ele>
        <time>2019-01-07T21:40:36Z</time>
      </trkpt>
      <trkpt lat="42.35409" lon="2.32496">
        <ele>1750.5</ele>
        <time>2019-01-07T21:40:37Z</time>
      </trkpt>
      <trkpt lat="42.35405" lon="2.325">
        <ele>1749.7</ele>
        <time>2019-01-07T21:40:38Z</time>
      </trkpt>
      <trkpt lat="42.35403" lon="2.32502">
        <ele>1749.3</ele>
        <time>2019-01-07T21:40:39Z</time>
      </trkpt>
      <trkpt lat="42.354" lon="2.32504">
        <ele>1748.8</ele>
        <time>2019-01-07T21:40:39Z</time>
      </trkpt>
      <trkpt lat="42.35398" lon="2.32505">
        <ele>1748.5</ele>
        <time>2019-01-07T21:40:40Z</time>
      </trkpt>
      <trkpt lat="42.35396" lon="2.32507">
        <ele>1748.3</ele>
        <time>2019-01-07T21:40:41Z</time>
      </trkpt>
      <trkpt lat="42.35393" lon="2.32509">
        <ele>1748</ele>
        <time>2019-01-07T21:40:42Z</time>
      </trkpt>
      <trkpt lat="42.35391" lon="2.3251">
        <ele>1747.7</ele>
        <time>2019-01-07T21:40:42Z</time>
      </trkpt>
      <trkpt lat="42.35389" lon="2.32512">
        <ele>1747.4</ele>
        <time>2019-01-07T21:40:43Z</time>
      </trkpt>
      <trkpt lat="42.35387" lon="2.32514">
        <ele>1747</ele>
        <time>2019-01-07T21:40:44Z</time>
      </trkpt>
      <trkpt lat="42.35385" lon="2.32516">
        <ele>1746.6</ele>
        <time>2019-01-07T21:40:44Z</time>
      </trkpt>
      <trkpt lat="42.35383" lon="2.32518">
        <ele>1746.1</ele>
        <time>2019-01-07T21:40:45Z</time>
      </trkpt>
      <trkpt lat="42.3538" lon="2.3252">
        <ele>1746</ele>
        <time>2019-01-07T21:40:46Z</time>
      </trkpt>
      <trkpt lat="42.35378" lon="2.32521">
        <ele>1745.7</ele>
        <time>2019-01-07T21:40:46Z</time>
      </trkpt>
      <trkpt lat="42.35376" lon="2.32522">
        <ele>1745.6</ele>
        <time>2019-01-07T21:40:47Z</time>
      </trkpt>
      <trkpt lat="42.35373" lon="2.32524">
        <ele>1745.4</ele>
        <time>2019-01-07T21:40:48Z</time>
      </trkpt>
      <trkpt lat="42.35371" lon="2.32526">
        <ele>1745.2</ele>
        <time>2019-01-07T21:40:48Z</time>
      </trkpt>
      <trkpt lat="42.35369" lon="2.32528">
        <ele>1745.1</ele>
        <time>2019-01-07T21:40:49Z</time>
      </trkpt>
      <trkpt lat="42.35367" lon="2.3253">
        <ele>1744.8</ele>
        <time>2019-01-07T21:40:50Z</time>
      </trkpt>
      <trkpt lat="42.35365" lon="2.32532">
        <ele>1744.6</ele>
        <time>2019-01-07T21:40:50Z</time>
      </trkpt>
      <trkpt lat="42.35363" lon="2.32534">
        <ele>1744.4</ele>
        <time>2019-01-07T21:40:51Z</time>
      </trkpt>
      <trkpt lat="42.35362" lon="2.32536">
        <ele>1744.3</ele>
        <time>2019-01-07T21:40:52Z</time>
      </trkpt>
      <trkpt lat="42.3536" lon="2.32538">
        <ele>1743.9</ele>
        <time>2019-01-07T21:40:52Z</time>
      </trkpt>
      <trkpt lat="42.35358" lon="2.3254">
        <ele>1743.6</ele>
        <time>2019-01-07T21:40:53Z</time>
      </trkpt>
      <trkpt lat="42.35357" lon="2.32542">
        <ele>1743.1</ele>
        <time>2019-01-07T21:40:54Z</time>
      </trkpt>
      <trkpt lat="42.35355" lon="2.32544">
        <ele>1742.9</ele>
        <time>2019-01-07T21:40:54Z</time>
      </trkpt>
      <trkpt lat="42.35353" lon="2.32546">
        <ele>1742.4</ele>
        <time>2019-01-07T21:40:55Z</time>
      </trkpt>
      <trkpt lat="42.35352" lon="2.32548">
        <ele>1742.1</ele>
        <time>2019-01-07T21:40:55Z</time>
      </trkpt>
      <trkpt lat="42.3535" lon="2.32549">
        <ele>1741.9</ele>
        <time>2019-01-07T21:40:56Z</time>
      </trkpt>
      <trkpt lat="42.35348" lon="2.3255">
        <ele>1741.6</ele>
        <time>2019-01-07T21:40:56Z</time>
      </trkpt>
      <trkpt lat="42.35346" lon="2.32552">
        <ele>1741.5</ele>
        <time>2019-01-07T21:40:57Z</time>
      </trkpt>
      <trkpt lat="42.35344" lon="2.32553">
        <ele>1741</ele>
        <time>2019-01-07T21:40:57Z</time>
      </trkpt>
      <trkpt lat="42.35342" lon="2.32556">
        <ele>1740.6</ele>
        <time>2019-01-07T21:40:58Z</time>
      </trkpt>
      <trkpt lat="42.3534" lon="2.32558">
        <ele>1740.3</ele>
        <time>2019-01-07T21:40:59Z</time>
      </trkpt>
      <trkpt lat="42.35339" lon="2.3256">
        <ele>1739.7</ele>
        <time>2019-01-07T21:41:00Z</time>
      </trkpt>
      <trkpt lat="42.35337" lon="2.32562">
        <ele>1739.4</ele>
        <time>2019-01-07T21:41:00Z</time>
      </trkpt>
      <trkpt lat="42.35335" lon="2.32564">
        <ele>1739.1</ele>
        <time>2019-01-07T21:41:01Z</time>
      </trkpt>
      <trkpt lat="42.35333" lon="2.32566">
        <ele>1738.6</ele>
        <time>2019-01-07T21:41:01Z</time>
      </trkpt>
      <trkpt lat="42.35331" lon="2.32568">
        <ele>1737.9</ele>
        <time>2019-01-07T21:41:02Z</time>
      </trkpt>
      <trkpt lat="42.35329" lon="2.3257">
        <ele>1737.5</ele>
        <time>2019-01-07T21:41:03Z</time>
      </trkpt>
      <trkpt lat="42.35328" lon="2.32571">
        <ele>1737.1</ele>
        <time>2019-01-07T21:41:03Z</time>
      </trkpt>
      <trkpt lat="42.35326" lon="2.32573">
        <ele>1736.6</ele>
        <time>2019-01-07T21:41:04Z</time>
      </trkpt>
      <trkpt lat="42.35324" lon="2.32575">
        <ele>1736.2</ele>
        <time>2019-01-07T21:41:04Z</time>
      </trkpt>
      <trkpt lat="42.35322" lon="2.32576">
        <ele>1735.8</ele>
        <time>2019-01-07T21:41:05Z</time>
      </trkpt>
      <trkpt lat="42.35321" lon="2.32578">
        <ele>1735.2</ele>
        <time>2019-01-07T21:41:05Z</time>
      </trkpt>
      <trkpt lat="42.35319" lon="2.3258">
        <ele>1735</ele>
        <time>2019-01-07T21:41:06Z</time>
      </trkpt>
      <trkpt lat="42.35318" lon="2.32582">
        <ele>1734.6</ele>
        <time>2019-01-07T21:41:07Z</time>
      </trkpt>
      <trkpt lat="42.35316" lon="2.32583">
        <ele>1734.2</ele>
        <time>2019-01-07T21:41:07Z</time>
      </trkpt>
      <trkpt lat="42.35315" lon="2.32585">
        <ele>1733.8</ele>
        <time>2019-01-07T21:41:08Z</time>
      </trkpt>
      <trkpt lat="42.35313" lon="2.32587">
        <ele>1733.4</ele>
        <time>2019-01-07T21:41:08Z</time>
      </trkpt>
      <trkpt lat="42.35311" lon="2.32589">
        <ele>1733</ele>
        <time>2019-01-07T21:41:09Z</time>
      </trkpt>
      <trkpt lat="42.3531" lon="2.32591">
        <ele>1732.6</ele>
        <time>2019-01-07T21:41:09Z</time>
      </trkpt>
      <trkpt lat="42.35309" lon="2.32593">
        <ele>1732.3</ele>
        <time>2019-01-07T21:41:10Z</time>
      </trkpt>
      <trkpt lat="42.35307" lon="2.32595">
        <ele>1732</ele>
        <time>2019-01-07T21:41:10Z</time>
      </trkpt>
      <trkpt lat="42.35306" lon="2.32596">
        <ele>1731.8</ele>
        <time>2019-01-07T21:41:11Z</time>
      </trkpt>
      <trkpt lat="42.35304" lon="2.32598">
        <ele>1731.1</ele>
        <time>2019-01-07T21:41:11Z</time>
      </trkpt>
      <trkpt lat="42.35303" lon="2.326">
        <ele>1730.7</ele>
        <time>2019-01-07T21:41:12Z</time>
      </trkpt>
      <trkpt lat="42.35302" lon="2.32602">
        <ele>1730.3</ele>
        <time>2019-01-07T21:41:13Z</time>
      </trkpt>
      <trkpt lat="42.353" lon="2.32605">
        <ele>1729.8</ele>
        <time>2019-01-07T21:41:13Z</time>
      </trkpt>
      <trkpt lat="42.35298" lon="2.32607">
        <ele>1729.3</ele>
        <time>2019-01-07T21:41:14Z</time>
      </trkpt>
      <trkpt lat="42.35296" lon="2.32608">
        <ele>1728.9</ele>
        <time>2019-01-07T21:41:14Z</time>
      </trkpt>
      <trkpt lat="42.35294" lon="2.32609">
        <ele>1728.5</ele>
        <time>2019-01-07T21:41:15Z</time>
      </trkpt>
      <trkpt lat="42.35292" lon="2.32612">
        <ele>1727.9</ele>
        <time>2019-01-07T21:41:16Z</time>
      </trkpt>
      <trkpt lat="42.3529" lon="2.32614">
        <ele>1727.5</ele>
        <time>2019-01-07T21:41:16Z</time>
      </trkpt>
      <trkpt lat="42.35288" lon="2.32617">
        <ele>1726.8</ele>
        <time>2019-01-07T21:41:17Z</time>
      </trkpt>
      <trkpt lat="42.35287" lon="2.32619">
        <ele>1726.3</ele>
        <time>2019-01-07T21:41:18Z</time>
      </trkpt>
      <trkpt lat="42.35284" lon="2.32622">
        <ele>1725.4</ele>
        <time>2019-01-07T21:41:19Z</time>
      </trkpt>
      <trkpt lat="42.35282" lon="2.32624">
        <ele>1725.1</ele>
        <time>2019-01-07T21:41:19Z</time>
      </trkpt>
      <trkpt lat="42.35281" lon="2.32625">
        <ele>1724.9</ele>
        <time>2019-01-07T21:41:20Z</time>
      </trkpt>
      <trkpt lat="42.35279" lon="2.32627">
        <ele>1724.5</ele>
        <time>2019-01-07T21:41:20Z</time>
      </trkpt>
      <trkpt lat="42.35277" lon="2.32629">
        <ele>1724</ele>
        <time>2019-01-07T21:41:21Z</time>
      </trkpt>
      <trkpt lat="42.35276" lon="2.32631">
        <ele>1723.6</ele>
        <time>2019-01-07T21:41:22Z</time>
      </trkpt>
      <trkpt lat="42.35274" lon="2.32633">
        <ele>1723.1</ele>
        <time>2019-01-07T21:41:22Z</time>
      </trkpt>
      <trkpt lat="42.35273" lon="2.32635">
        <ele>1722.6</ele>
        <time>2019-01-07T21:41:23Z</time>
      </trkpt>
      <trkpt lat="42.35272" lon="2.32638">
        <ele>1722</ele>
        <time>2019-01-07T21:41:23Z</time>
      </trkpt>
      <trkpt lat="42.35271" lon="2.32641">
        <ele>1721.5</ele>
        <time>2019-01-07T21:41:24Z</time>
      </trkpt>
      <trkpt lat="42.35269" lon="2.32644">
        <ele>1720.6</ele>
        <time>2019-01-07T21:41:25Z</time>
      </trkpt>
      <trkpt lat="42.35267" lon="2.32647">
        <ele>1719.7</ele>
        <time>2019-01-07T21:41:25Z</time>
      </trkpt>
      <trkpt lat="42.35265" lon="2.32649">
        <ele>1719</ele>
        <time>2019-01-07T21:41:26Z</time>
      </trkpt>
      <trkpt lat="42.35263" lon="2.32651">
        <ele>1718.3</ele>
        <time>2019-01-07T21:41:27Z</time>
      </trkpt>
      <trkpt lat="42.35261" lon="2.32654">
        <ele>1717.5</ele>
        <time>2019-01-07T21:41:28Z</time>
      </trkpt>
      <trkpt lat="42.35259" lon="2.32657">
        <ele>1716.7</ele>
        <time>2019-01-07T21:41:28Z</time>
      </trkpt>
      <trkpt lat="42.35257" lon="2.3266">
        <ele>1716</ele>
        <time>2019-01-07T21:41:29Z</time>
      </trkpt>
      <trkpt lat="42.35256" lon="2.32664">
        <ele>1715.2</ele>
        <time>2019-01-07T21:41:30Z</time>
      </trkpt>
      <trkpt lat="42.35254" lon="2.32667">
        <ele>1714.6</ele>
        <time>2019-01-07T21:41:31Z</time>
      </trkpt>
      <trkpt lat="42.35253" lon="2.32671">
        <ele>1713.7</ele>
        <time>2019-01-07T21:41:32Z</time>
      </trkpt>
      <trkpt lat="42.35252" lon="2.32675">
        <ele>1713</ele>
        <time>2019-01-07T21:41:32Z</time>
      </trkpt>
      <trkpt lat="42.35251" lon="2.32678">
        <ele>1712.4</ele>
        <time>2019-01-07T21:41:33Z</time>
      </trkpt>
      <trkpt lat="42.35249" lon="2.32681">
        <ele>1711.7</ele>
        <time>2019-01-07T21:41:34Z</time>
      </trkpt>
      <trkpt lat="42.35248" lon="2.32684">
        <ele>1711.2</ele>
        <time>2019-01-07T21:41:35Z</time>
      </trkpt>
      <trkpt lat="42.35247" lon="2.32688">
        <ele>1710.4</ele>
        <time>2019-01-07T21:41:35Z</time>
      </trkpt>
      <trkpt lat="42.35245" lon="2.32692">
        <ele>1709.5</ele>
        <time>2019-01-07T21:41:36Z</time>
      </trkpt>
      <trkpt lat="42.35244" lon="2.32695">
        <ele>1708.6</ele>
        <time>2019-01-07T21:41:37Z</time>
      </trkpt>
      <trkpt lat="42.35243" lon="2.32699">
        <ele>1707.7</ele>
        <time>2019-01-07T21:41:38Z</time>
      </trkpt>
      <trkpt lat="42.35243" lon="2.32703">
        <ele>1707.1</ele>
        <time>2019-01-07T21:41:38Z</time>
      </trkpt>
      <trkpt lat="42.35243" lon="2.32706">
        <ele>1706.2</ele>
        <time>2019-01-07T21:41:39Z</time>
      </trkpt>
      <trkpt lat="42.35242" lon="2.32709">
        <ele>1705.6</ele>
        <time>2019-01-07T21:41:40Z</time>
      </trkpt>
      <trkpt lat="42.35241" lon="2.32712">
        <ele>1704.6</ele>
        <time>2019-01-07T21:41:40Z</time>
      </trkpt>
      <trkpt lat="42.3524" lon="2.32715">
        <ele>1703.8</ele>
        <time>2019-01-07T21:41:41Z</time>
      </trkpt>
      <trkpt lat="42.35239" lon="2.32718">
        <ele>1702.9</ele>
        <time>2019-01-07T21:41:42Z</time>
      </trkpt>
      <trkpt lat="42.35238" lon="2.32721">
        <ele>1702.2</ele>
        <time>2019-01-07T21:41:42Z</time>
      </trkpt>
      <trkpt lat="42.35237" lon="2.32724">
        <ele>1701.5</ele>
        <time>2019-01-07T21:41:43Z</time>
      </trkpt>
      <trkpt lat="42.35236" lon="2.32727">
        <ele>1700.7</ele>
        <time>2019-01-07T21:41:44Z</time>
      </trkpt>
      <trkpt lat="42.35235" lon="2.3273">
        <ele>1699.6</ele>
        <time>2019-01-07T21:41:44Z</time>
      </trkpt>
      <trkpt lat="42.35234" lon="2.32734">
        <ele>1698.8</ele>
        <time>2019-01-07T21:41:45Z</time>
      </trkpt>
      <trkpt lat="42.35233" lon="2.32737">
        <ele>1698</ele>
        <time>2019-01-07T21:41:46Z</time>
      </trkpt>
      <trkpt lat="42.35232" lon="2.3274">
        <ele>1697.4</ele>
        <time>2019-01-07T21:41:46Z</time>
      </trkpt>
      <trkpt lat="42.35231" lon="2.32742">
        <ele>1696.5</ele>
        <time>2019-01-07T21:41:47Z</time>
      </trkpt>
      <trkpt lat="42.3523" lon="2.32746">
        <ele>1695.7</ele>
        <time>2019-01-07T21:41:48Z</time>
      </trkpt>
      <trkpt lat="42.35229" lon="2.32748">
        <ele>1695.3</ele>
        <time>2019-01-07T21:41:48Z</time>
      </trkpt>
      <trkpt lat="42.35228" lon="2.32751">
        <ele>1694.5</ele>
        <time>2019-01-07T21:41:49Z</time>
      </trkpt>
      <trkpt lat="42.35228" lon="2.32754">
        <ele>1694</ele>
        <time>2019-01-07T21:41:49Z</time>
      </trkpt>
      <trkpt lat="42.35227" lon="2.32757">
        <ele>1693.3</ele>
        <time>2019-01-07T21:41:50Z</time>
      </trkpt>
      <trkpt lat="42.35226" lon="2.3276">
        <ele>1692.5</ele>
        <time>2019-01-07T21:41:51Z</time>
      </trkpt>
      <trkpt lat="42.35224" lon="2.32764">
        <ele>1691.8</ele>
        <time>2019-01-07T21:41:52Z</time>
      </trkpt>
      <trkpt lat="42.35223" lon="2.32766">
        <ele>1691.2</ele>
        <time>2019-01-07T21:41:52Z</time>
      </trkpt>
      <trkpt lat="42.35223" lon="2.32769">
        <ele>1690.7</ele>
        <time>2019-01-07T21:41:53Z</time>
      </trkpt>
      <trkpt lat="42.35222" lon="2.32772">
        <ele>1690.2</ele>
        <time>2019-01-07T21:41:53Z</time>
      </trkpt>
      <trkpt lat="42.35222" lon="2.32775">
        <ele>1689.6</ele>
        <time>2019-01-07T21:41:54Z</time>
      </trkpt>
      <trkpt lat="42.35221" lon="2.32778">
        <ele>1688.9</ele>
        <time>2019-01-07T21:41:55Z</time>
      </trkpt>
      <trkpt lat="42.3522" lon="2.32781">
        <ele>1688.5</ele>
        <time>2019-01-07T21:41:55Z</time>
      </trkpt>
      <trkpt lat="42.3522" lon="2.32784">
        <ele>1687.8</ele>
        <time>2019-01-07T21:41:56Z</time>
      </trkpt>
      <trkpt lat="42.3522" lon="2.32787">
        <ele>1687.4</ele>
        <time>2019-01-07T21:41:56Z</time>
      </trkpt>
      <trkpt lat="42.35219" lon="2.3279">
        <ele>1687</ele>
        <time>2019-01-07T21:41:57Z</time>
      </trkpt>
      <trkpt lat="42.35219" lon="2.32793">
        <ele>1686.5</ele>
        <time>2019-01-07T21:41:58Z</time>
      </trkpt>
      <trkpt lat="42.35218" lon="2.32795">
        <ele>1686.1</ele>
        <time>2019-01-07T21:41:58Z</time>
      </trkpt>
      <trkpt lat="42.35218" lon="2.32798">
        <ele>1685.6</ele>
        <time>2019-01-07T21:41:59Z</time>
      </trkpt>
      <trkpt lat="42.35217" lon="2.32801">
        <ele>1685.1</ele>
        <time>2019-01-07T21:41:59Z</time>
      </trkpt>
      <trkpt lat="42.35217" lon="2.32804">
        <ele>1684.6</ele>
        <time>2019-01-07T21:42:00Z</time>
      </trkpt>
      <trkpt lat="42.35216" lon="2.32807">
        <ele>1684.3</ele>
        <time>2019-01-07T21:42:00Z</time>
      </trkpt>
      <trkpt lat="42.35215" lon="2.3281">
        <ele>1683.9</ele>
        <time>2019-01-07T21:42:01Z</time>
      </trkpt>
      <trkpt lat="42.35214" lon="2.32813">
        <ele>1683.4</ele>
        <time>2019-01-07T21:42:02Z</time>
      </trkpt>
      <trkpt lat="42.35213" lon="2.32816">
        <ele>1683</ele>
        <time>2019-01-07T21:42:02Z</time>
      </trkpt>
      <trkpt lat="42.35212" lon="2.32819">
        <ele>1682.7</ele>
        <time>2019-01-07T21:42:03Z</time>
      </trkpt>
      <trkpt lat="42.35211" lon="2.32822">
        <ele>1682.3</ele>
        <time>2019-01-07T21:42:04Z</time>
      </trkpt>
      <trkpt lat="42.3521" lon="2.32825">
        <ele>1682</ele>
        <time>2019-01-07T21:42:04Z</time>
      </trkpt>
      <trkpt lat="42.35209" lon="2.32828">
        <ele>1681.7</ele>
        <time>2019-01-07T21:42:05Z</time>
      </trkpt>
      <trkpt lat="42.35208" lon="2.32831">
        <ele>1681.2</ele>
        <time>2019-01-07T21:42:06Z</time>
      </trkpt>
      <trkpt lat="42.35207" lon="2.32834">
        <ele>1680.9</ele>
        <time>2019-01-07T21:42:06Z</time>
      </trkpt>
      <trkpt lat="42.35205" lon="2.32836">
        <ele>1680.5</ele>
        <time>2019-01-07T21:42:07Z</time>
      </trkpt>
      <trkpt lat="42.35204" lon="2.32839">
        <ele>1680</ele>
        <time>2019-01-07T21:42:08Z</time>
      </trkpt>
      <trkpt lat="42.35203" lon="2.32842">
        <ele>1679.9</ele>
        <time>2019-01-07T21:42:08Z</time>
      </trkpt>
      <trkpt lat="42.35203" lon="2.32845">
        <ele>1679.4</ele>
        <time>2019-01-07T21:42:09Z</time>
      </trkpt>
      <trkpt lat="42.35202" lon="2.32848">
        <ele>1678.9</ele>
        <time>2019-01-07T21:42:09Z</time>
      </trkpt>
      <trkpt lat="42.35201" lon="2.3285">
        <ele>1678.7</ele>
        <time>2019-01-07T21:42:10Z</time>
      </trkpt>
      <trkpt lat="42.352" lon="2.32853">
        <ele>1678.2</ele>
        <time>2019-01-07T21:42:11Z</time>
      </trkpt>
      <trkpt lat="42.35199" lon="2.32856">
        <ele>1677.9</ele>
        <time>2019-01-07T21:42:11Z</time>
      </trkpt>
      <trkpt lat="42.35198" lon="2.32858">
        <ele>1677.6</ele>
        <time>2019-01-07T21:42:12Z</time>
      </trkpt>
      <trkpt lat="42.35197" lon="2.32861">
        <ele>1677.3</ele>
        <time>2019-01-07T21:42:12Z</time>
      </trkpt>
      <trkpt lat="42.35195" lon="2.32863">
        <ele>1676.9</ele>
        <time>2019-01-07T21:42:13Z</time>
      </trkpt>
      <trkpt lat="42.35194" lon="2.32865">
        <ele>1676.5</ele>
        <time>2019-01-07T21:42:13Z</time>
      </trkpt>
      <trkpt lat="42.35193" lon="2.32867">
        <ele>1676.2</ele>
        <time>2019-01-07T21:42:14Z</time>
      </trkpt>
      <trkpt lat="42.35192" lon="2.32869">
        <ele>1675.9</ele>
        <time>2019-01-07T21:42:14Z</time>
      </trkpt>
      <trkpt lat="42.35191" lon="2.32871">
        <ele>1675.4</ele>
        <time>2019-01-07T21:42:15Z</time>
      </trkpt>
      <trkpt lat="42.35189" lon="2.32874">
        <ele>1674.9</ele>
        <time>2019-01-07T21:42:16Z</time>
      </trkpt>
      <trkpt lat="42.35188" lon="2.32876">
        <ele>1674.6</ele>
        <time>2019-01-07T21:42:16Z</time>
      </trkpt>
      <trkpt lat="42.35186" lon="2.32879">
        <ele>1674.2</ele>
        <time>2019-01-07T21:42:17Z</time>
      </trkpt>
      <trkpt lat="42.35185" lon="2.32881">
        <ele>1673.9</ele>
        <time>2019-01-07T21:42:17Z</time>
      </trkpt>
      <trkpt lat="42.35184" lon="2.32883">
        <ele>1673.4</ele>
        <time>2019-01-07T21:42:18Z</time>
      </trkpt>
      <trkpt lat="42.35182" lon="2.32886">
        <ele>1673.1</ele>
        <time>2019-01-07T21:42:19Z</time>
      </trkpt>
      <trkpt lat="42.35181" lon="2.32888">
        <ele>1672.7</ele>
        <time>2019-01-07T21:42:19Z</time>
      </trkpt>
      <trkpt lat="42.3518" lon="2.32891">
        <ele>1672.4</ele>
        <time>2019-01-07T21:42:20Z</time>
      </trkpt>
      <trkpt lat="42.35179" lon="2.32893">
        <ele>1671.8</ele>
        <time>2019-01-07T21:42:20Z</time>
      </trkpt>
      <trkpt lat="42.35177" lon="2.32895">
        <ele>1671.3</ele>
        <time>2019-01-07T21:42:21Z</time>
      </trkpt>
      <trkpt lat="42.35176" lon="2.32897">
        <ele>1670.8</ele>
        <time>2019-01-07T21:42:21Z</time>
      </trkpt>
      <trkpt lat="42.35175" lon="2.329">
        <ele>1670.5</ele>
        <time>2019-01-07T21:42:22Z</time>
      </trkpt>
      <trkpt lat="42.35174" lon="2.32902">
        <ele>1670.1</ele>
        <time>2019-01-07T21:42:23Z</time>
      </trkpt>
      <trkpt lat="42.35173" lon="2.32905">
        <ele>1669.8</ele>
        <time>2019-01-07T21:42:23Z</time>
      </trkpt>
      <trkpt lat="42.35171" lon="2.32907">
        <ele>1669.3</ele>
        <time>2019-01-07T21:42:24Z</time>
      </trkpt>
      <trkpt lat="42.3517" lon="2.3291">
        <ele>1668.9</ele>
        <time>2019-01-07T21:42:24Z</time>
      </trkpt>
      <trkpt lat="42.35168" lon="2.32912">
        <ele>1668.6</ele>
        <time>2019-01-07T21:42:25Z</time>
      </trkpt>
      <trkpt lat="42.35167" lon="2.32915">
        <ele>1668.2</ele>
        <time>2019-01-07T21:42:26Z</time>
      </trkpt>
      <trkpt lat="42.35165" lon="2.32917">
        <ele>1667.8</ele>
        <time>2019-01-07T21:42:26Z</time>
      </trkpt>
      <trkpt lat="42.35164" lon="2.3292">
        <ele>1667.1</ele>
        <time>2019-01-07T21:42:27Z</time>
      </trkpt>
      <trkpt lat="42.35162" lon="2.32922">
        <ele>1666.7</ele>
        <time>2019-01-07T21:42:28Z</time>
      </trkpt>
      <trkpt lat="42.35161" lon="2.32925">
        <ele>1666</ele>
        <time>2019-01-07T21:42:28Z</time>
      </trkpt>
      <trkpt lat="42.3516" lon="2.32927">
        <ele>1665.5</ele>
        <time>2019-01-07T21:42:29Z</time>
      </trkpt>
      <trkpt lat="42.35158" lon="2.3293">
        <ele>1665.1</ele>
        <time>2019-01-07T21:42:29Z</time>
      </trkpt>
      <trkpt lat="42.35157" lon="2.32933">
        <ele>1664.4</ele>
        <time>2019-01-07T21:42:30Z</time>
      </trkpt>
      <trkpt lat="42.35155" lon="2.32936">
        <ele>1664.1</ele>
        <time>2019-01-07T21:42:31Z</time>
      </trkpt>
      <trkpt lat="42.35153" lon="2.32939">
        <ele>1663.6</ele>
        <time>2019-01-07T21:42:32Z</time>
      </trkpt>
      <trkpt lat="42.35151" lon="2.32941">
        <ele>1663.5</ele>
        <time>2019-01-07T21:42:32Z</time>
      </trkpt>
      <trkpt lat="42.3515" lon="2.32943">
        <ele>1663.1</ele>
        <time>2019-01-07T21:42:33Z</time>
      </trkpt>
      <trkpt lat="42.35148" lon="2.32945">
        <ele>1662.9</ele>
        <time>2019-01-07T21:42:34Z</time>
      </trkpt>
      <trkpt lat="42.35146" lon="2.32947">
        <ele>1662.8</ele>
        <time>2019-01-07T21:42:34Z</time>
      </trkpt>
      <trkpt lat="42.35145" lon="2.3295">
        <ele>1662.5</ele>
        <time>2019-01-07T21:42:35Z</time>
      </trkpt>
      <trkpt lat="42.35143" lon="2.32952">
        <ele>1662.6</ele>
        <time>2019-01-07T21:42:35Z</time>
      </trkpt>
      <trkpt lat="42.35141" lon="2.32954">
        <ele>1662.4</ele>
        <time>2019-01-07T21:42:36Z</time>
      </trkpt>
      <trkpt lat="42.3514" lon="2.32955">
        <ele>1662.2</ele>
        <time>2019-01-07T21:42:36Z</time>
      </trkpt>
      <trkpt lat="42.35139" lon="2.32958">
        <ele>1662.2</ele>
        <time>2019-01-07T21:42:37Z</time>
      </trkpt>
      <trkpt lat="42.35137" lon="2.32959">
        <ele>1662</ele>
        <time>2019-01-07T21:42:37Z</time>
      </trkpt>
      <trkpt lat="42.35136" lon="2.32962">
        <ele>1661.7</ele>
        <time>2019-01-07T21:42:38Z</time>
      </trkpt>
      <trkpt lat="42.35134" lon="2.32965">
        <ele>1661.5</ele>
        <time>2019-01-07T21:42:39Z</time>
      </trkpt>
      <trkpt lat="42.35132" lon="2.32967">
        <ele>1661.2</ele>
        <time>2019-01-07T21:42:39Z</time>
      </trkpt>
      <trkpt lat="42.35131" lon="2.32969">
        <ele>1661</ele>
        <time>2019-01-07T21:42:40Z</time>
      </trkpt>
      <trkpt lat="42.35129" lon="2.32971">
        <ele>1660.8</ele>
        <time>2019-01-07T21:42:41Z</time>
      </trkpt>
      <trkpt lat="42.35128" lon="2.32973">
        <ele>1660.6</ele>
        <time>2019-01-07T21:42:41Z</time>
      </trkpt>
      <trkpt lat="42.35126" lon="2.32975">
        <ele>1660</ele>
        <time>2019-01-07T21:42:42Z</time>
      </trkpt>
      <trkpt lat="42.35125" lon="2.32977">
        <ele>1659.5</ele>
        <time>2019-01-07T21:42:42Z</time>
      </trkpt>
      <trkpt lat="42.35123" lon="2.3298">
        <ele>1659</ele>
        <time>2019-01-07T21:42:43Z</time>
      </trkpt>
      <trkpt lat="42.35121" lon="2.32982">
        <ele>1658.4</ele>
        <time>2019-01-07T21:42:44Z</time>
      </trkpt>
      <trkpt lat="42.35119" lon="2.32984">
        <ele>1658.1</ele>
        <time>2019-01-07T21:42:44Z</time>
      </trkpt>
      <trkpt lat="42.35118" lon="2.32988">
        <ele>1657.1</ele>
        <time>2019-01-07T21:42:45Z</time>
      </trkpt>
      <trkpt lat="42.35117" lon="2.32991">
        <ele>1656.7</ele>
        <time>2019-01-07T21:42:46Z</time>
      </trkpt>
      <trkpt lat="42.35116" lon="2.32993">
        <ele>1656.2</ele>
        <time>2019-01-07T21:42:46Z</time>
      </trkpt>
      <trkpt lat="42.35114" lon="2.32997">
        <ele>1655.6</ele>
        <time>2019-01-07T21:42:47Z</time>
      </trkpt>
      <trkpt lat="42.35113" lon="2.32999">
        <ele>1655.2</ele>
        <time>2019-01-07T21:42:48Z</time>
      </trkpt>
      <trkpt lat="42.3511" lon="2.33003">
        <ele>1654.3</ele>
        <time>2019-01-07T21:42:49Z</time>
      </trkpt>
      <trkpt lat="42.35109" lon="2.33005">
        <ele>1653.6</ele>
        <time>2019-01-07T21:42:49Z</time>
      </trkpt>
      <trkpt lat="42.35108" lon="2.33007">
        <ele>1653.2</ele>
        <time>2019-01-07T21:42:50Z</time>
      </trkpt>
      <trkpt lat="42.35106" lon="2.33009">
        <ele>1652.4</ele>
        <time>2019-01-07T21:42:50Z</time>
      </trkpt>
      <trkpt lat="42.35105" lon="2.33012">
        <ele>1651.7</ele>
        <time>2019-01-07T21:42:51Z</time>
      </trkpt>
      <trkpt lat="42.35104" lon="2.33014">
        <ele>1651.2</ele>
        <time>2019-01-07T21:42:52Z</time>
      </trkpt>
      <trkpt lat="42.35103" lon="2.33016">
        <ele>1650.7</ele>
        <time>2019-01-07T21:42:52Z</time>
      </trkpt>
      <trkpt lat="42.35102" lon="2.33018">
        <ele>1650</ele>
        <time>2019-01-07T21:42:53Z</time>
      </trkpt>
      <trkpt lat="42.351" lon="2.33023">
        <ele>1648.7</ele>
        <time>2019-01-07T21:42:54Z</time>
      </trkpt>
      <trkpt lat="42.35099" lon="2.33026">
        <ele>1648.1</ele>
        <time>2019-01-07T21:42:54Z</time>
      </trkpt>
      <trkpt lat="42.35097" lon="2.33028">
        <ele>1647.5</ele>
        <time>2019-01-07T21:42:55Z</time>
      </trkpt>
      <trkpt lat="42.35096" lon="2.33031">
        <ele>1646.9</ele>
        <time>2019-01-07T21:42:56Z</time>
      </trkpt>
      <trkpt lat="42.35095" lon="2.33033">
        <ele>1646.3</ele>
        <time>2019-01-07T21:42:56Z</time>
      </trkpt>
      <trkpt lat="42.35094" lon="2.33035">
        <ele>1645.9</ele>
        <time>2019-01-07T21:42:57Z</time>
      </trkpt>
      <trkpt lat="42.35093" lon="2.33037">
        <ele>1645.3</ele>
        <time>2019-01-07T21:42:57Z</time>
      </trkpt>
      <trkpt lat="42.35092" lon="2.33039">
        <ele>1644.8</ele>
        <time>2019-01-07T21:42:58Z</time>
      </trkpt>
      <trkpt lat="42.3509" lon="2.33041">
        <ele>1644.4</ele>
        <time>2019-01-07T21:42:58Z</time>
      </trkpt>
      <trkpt lat="42.35089" lon="2.33043">
        <ele>1643.8</ele>
        <time>2019-01-07T21:42:59Z</time>
      </trkpt>
      <trkpt lat="42.35088" lon="2.33045">
        <ele>1643.3</ele>
        <time>2019-01-07T21:42:59Z</time>
      </trkpt>
      <trkpt lat="42.35086" lon="2.33048">
        <ele>1642.8</ele>
        <time>2019-01-07T21:43:00Z</time>
      </trkpt>
      <trkpt lat="42.35085" lon="2.3305">
        <ele>1642.2</ele>
        <time>2019-01-07T21:43:00Z</time>
      </trkpt>
      <trkpt lat="42.35084" lon="2.33054">
        <ele>1641.4</ele>
        <time>2019-01-07T21:43:01Z</time>
      </trkpt>
      <trkpt lat="42.35082" lon="2.33059">
        <ele>1640.3</ele>
        <time>2019-01-07T21:43:02Z</time>
      </trkpt>
      <trkpt lat="42.3508" lon="2.33061">
        <ele>1639.7</ele>
        <time>2019-01-07T21:43:03Z</time>
      </trkpt>
      <trkpt lat="42.35079" lon="2.33064">
        <ele>1639.2</ele>
        <time>2019-01-07T21:43:03Z</time>
      </trkpt>
      <trkpt lat="42.35078" lon="2.33066">
        <ele>1638.6</ele>
        <time>2019-01-07T21:43:04Z</time>
      </trkpt>
      <trkpt lat="42.35077" lon="2.33068">
        <ele>1638.2</ele>
        <time>2019-01-07T21:43:05Z</time>
      </trkpt>
      <trkpt lat="42.35076" lon="2.33071">
        <ele>1637.7</ele>
        <time>2019-01-07T21:43:05Z</time>
      </trkpt>
      <trkpt lat="42.35075" lon="2.33074">
        <ele>1637</ele>
        <time>2019-01-07T21:43:06Z</time>
      </trkpt>
      <trkpt lat="42.35074" lon="2.33076">
        <ele>1636.5</ele>
        <time>2019-01-07T21:43:06Z</time>
      </trkpt>
      <trkpt lat="42.35073" lon="2.33079">
        <ele>1636</ele>
        <time>2019-01-07T21:43:07Z</time>
      </trkpt>
      <trkpt lat="42.35072" lon="2.33081">
        <ele>1635.5</ele>
        <time>2019-01-07T21:43:07Z</time>
      </trkpt>
      <trkpt lat="42.35071" lon="2.33084">
        <ele>1635.1</ele>
        <time>2019-01-07T21:43:08Z</time>
      </trkpt>
      <trkpt lat="42.3507" lon="2.33086">
        <ele>1634.7</ele>
        <time>2019-01-07T21:43:09Z</time>
      </trkpt>
      <trkpt lat="42.35068" lon="2.33089">
        <ele>1634.4</ele>
        <time>2019-01-07T21:43:09Z</time>
      </trkpt>
      <trkpt lat="42.35067" lon="2.33092">
        <ele>1633.9</ele>
        <time>2019-01-07T21:43:10Z</time>
      </trkpt>
      <trkpt lat="42.35066" lon="2.33094">
        <ele>1633.5</ele>
        <time>2019-01-07T21:43:10Z</time>
      </trkpt>
      <trkpt lat="42.35066" lon="2.33097">
        <ele>1633.2</ele>
        <time>2019-01-07T21:43:11Z</time>
      </trkpt>
      <trkpt lat="42.35065" lon="2.331">
        <ele>1632.8</ele>
        <time>2019-01-07T21:43:12Z</time>
      </trkpt>
      <trkpt lat="42.35065" lon="2.33103">
        <ele>1632.2</ele>
        <time>2019-01-07T21:43:12Z</time>
      </trkpt>
      <trkpt lat="42.35064" lon="2.33106">
        <ele>1631.8</ele>
        <time>2019-01-07T21:43:13Z</time>
      </trkpt>
      <trkpt lat="42.35063" lon="2.33109">
        <ele>1631.3</ele>
        <time>2019-01-07T21:43:13Z</time>
      </trkpt>
      <trkpt lat="42.35062" lon="2.33112">
        <ele>1631</ele>
        <time>2019-01-07T21:43:14Z</time>
      </trkpt>
      <trkpt lat="42.35061" lon="2.33115">
        <ele>1630.8</ele>
        <time>2019-01-07T21:43:15Z</time>
      </trkpt>
      <trkpt lat="42.3506" lon="2.33118">
        <ele>1630.6</ele>
        <time>2019-01-07T21:43:15Z</time>
      </trkpt>
      <trkpt lat="42.35059" lon="2.33121">
        <ele>1630.5</ele>
        <time>2019-01-07T21:43:16Z</time>
      </trkpt>
      <trkpt lat="42.35058" lon="2.33123">
        <ele>1630.3</ele>
        <time>2019-01-07T21:43:17Z</time>
      </trkpt>
      <trkpt lat="42.35057" lon="2.33126">
        <ele>1630</ele>
        <time>2019-01-07T21:43:17Z</time>
      </trkpt>
      <trkpt lat="42.35056" lon="2.33129">
        <ele>1629.8</ele>
        <time>2019-01-07T21:43:18Z</time>
      </trkpt>
      <trkpt lat="42.35055" lon="2.33131">
        <ele>1629.6</ele>
        <time>2019-01-07T21:43:18Z</time>
      </trkpt>
      <trkpt lat="42.35053" lon="2.33134">
        <ele>1629.4</ele>
        <time>2019-01-07T21:43:19Z</time>
      </trkpt>
      <trkpt lat="42.35052" lon="2.33137">
        <ele>1629</ele>
        <time>2019-01-07T21:43:20Z</time>
      </trkpt>
      <trkpt lat="42.35051" lon="2.3314">
        <ele>1628.7</ele>
        <time>2019-01-07T21:43:20Z</time>
      </trkpt>
      <trkpt lat="42.35049" lon="2.33142">
        <ele>1628.4</ele>
        <time>2019-01-07T21:43:21Z</time>
      </trkpt>
      <trkpt lat="42.35048" lon="2.33145">
        <ele>1628</ele>
        <time>2019-01-07T21:43:22Z</time>
      </trkpt>
      <trkpt lat="42.35046" lon="2.33148">
        <ele>1627.7</ele>
        <time>2019-01-07T21:43:22Z</time>
      </trkpt>
      <trkpt lat="42.35045" lon="2.33151">
        <ele>1627.4</ele>
        <time>2019-01-07T21:43:23Z</time>
      </trkpt>
      <trkpt lat="42.35044" lon="2.33154">
        <ele>1626.9</ele>
        <time>2019-01-07T21:43:24Z</time>
      </trkpt>
      <trkpt lat="42.35043" lon="2.33157">
        <ele>1626.6</ele>
        <time>2019-01-07T21:43:24Z</time>
      </trkpt>
      <trkpt lat="42.35042" lon="2.3316">
        <ele>1626.2</ele>
        <time>2019-01-07T21:43:25Z</time>
      </trkpt>
      <trkpt lat="42.35041" lon="2.33163">
        <ele>1625.8</ele>
        <time>2019-01-07T21:43:26Z</time>
      </trkpt>
      <trkpt lat="42.3504" lon="2.33166">
        <ele>1625.6</ele>
        <time>2019-01-07T21:43:26Z</time>
      </trkpt>
      <trkpt lat="42.35039" lon="2.33169">
        <ele>1625.1</ele>
        <time>2019-01-07T21:43:27Z</time>
      </trkpt>
      <trkpt lat="42.35038" lon="2.33172">
        <ele>1624.7</ele>
        <time>2019-01-07T21:43:28Z</time>
      </trkpt>
      <trkpt lat="42.35037" lon="2.33175">
        <ele>1624.3</ele>
        <time>2019-01-07T21:43:28Z</time>
      </trkpt>
      <trkpt lat="42.35035" lon="2.33178">
        <ele>1624.1</ele>
        <time>2019-01-07T21:43:29Z</time>
      </trkpt>
      <trkpt lat="42.35034" lon="2.33181">
        <ele>1623.7</ele>
        <time>2019-01-07T21:43:30Z</time>
      </trkpt>
      <trkpt lat="42.35032" lon="2.33184">
        <ele>1623.4</ele>
        <time>2019-01-07T21:43:30Z</time>
      </trkpt>
      <trkpt lat="42.35031" lon="2.33186">
        <ele>1623</ele>
        <time>2019-01-07T21:43:31Z</time>
      </trkpt>
      <trkpt lat="42.35029" lon="2.33189">
        <ele>1622.7</ele>
        <time>2019-01-07T21:43:32Z</time>
      </trkpt>
      <trkpt lat="42.35027" lon="2.33192">
        <ele>1622.2</ele>
        <time>2019-01-07T21:43:33Z</time>
      </trkpt>
      <trkpt lat="42.35026" lon="2.33195">
        <ele>1621.8</ele>
        <time>2019-01-07T21:43:33Z</time>
      </trkpt>
      <trkpt lat="42.35024" lon="2.33198">
        <ele>1621.4</ele>
        <time>2019-01-07T21:43:34Z</time>
      </trkpt>
      <trkpt lat="42.35022" lon="2.332">
        <ele>1621.1</ele>
        <time>2019-01-07T21:43:35Z</time>
      </trkpt>
      <trkpt lat="42.35021" lon="2.33203">
        <ele>1620.7</ele>
        <time>2019-01-07T21:43:35Z</time>
      </trkpt>
      <trkpt lat="42.35019" lon="2.33206">
        <ele>1620.4</ele>
        <time>2019-01-07T21:43:36Z</time>
      </trkpt>
      <trkpt lat="42.35017" lon="2.33209">
        <ele>1620.1</ele>
        <time>2019-01-07T21:43:37Z</time>
      </trkpt>
      <trkpt lat="42.35016" lon="2.33212">
        <ele>1619.8</ele>
        <time>2019-01-07T21:43:38Z</time>
      </trkpt>
      <trkpt lat="42.35015" lon="2.33215">
        <ele>1619.5</ele>
        <time>2019-01-07T21:43:38Z</time>
      </trkpt>
      <trkpt lat="42.35013" lon="2.33218">
        <ele>1619.1</ele>
        <time>2019-01-07T21:43:39Z</time>
      </trkpt>
      <trkpt lat="42.35012" lon="2.33221">
        <ele>1619</ele>
        <time>2019-01-07T21:43:40Z</time>
      </trkpt>
      <trkpt lat="42.3501" lon="2.33224">
        <ele>1618.8</ele>
        <time>2019-01-07T21:43:40Z</time>
      </trkpt>
      <trkpt lat="42.35009" lon="2.33227">
        <ele>1618.3</ele>
        <time>2019-01-07T21:43:41Z</time>
      </trkpt>
      <trkpt lat="42.35007" lon="2.3323">
        <ele>1618</ele>
        <time>2019-01-07T21:43:42Z</time>
      </trkpt>
      <trkpt lat="42.35006" lon="2.33233">
        <ele>1617.7</ele>
        <time>2019-01-07T21:43:42Z</time>
      </trkpt>
      <trkpt lat="42.35004" lon="2.33235">
        <ele>1617.3</ele>
        <time>2019-01-07T21:43:43Z</time>
      </trkpt>
      <trkpt lat="42.35003" lon="2.33238">
        <ele>1617.2</ele>
        <time>2019-01-07T21:43:44Z</time>
      </trkpt>
      <trkpt lat="42.35001" lon="2.33241">
        <ele>1616.8</ele>
        <time>2019-01-07T21:43:45Z</time>
      </trkpt>
      <trkpt lat="42.34999" lon="2.33243">
        <ele>1616.4</ele>
        <time>2019-01-07T21:43:45Z</time>
      </trkpt>
      <trkpt lat="42.34997" lon="2.33246">
        <ele>1616</ele>
        <time>2019-01-07T21:43:46Z</time>
      </trkpt>
      <trkpt lat="42.34995" lon="2.33248">
        <ele>1615.7</ele>
        <time>2019-01-07T21:43:46Z</time>
      </trkpt>
      <trkpt lat="42.34994" lon="2.33249">
        <ele>1615.4</ele>
        <time>2019-01-07T21:43:47Z</time>
      </trkpt>
      <trkpt lat="42.34992" lon="2.33251">
        <ele>1615.2</ele>
        <time>2019-01-07T21:43:48Z</time>
      </trkpt>
      <trkpt lat="42.3499" lon="2.33253">
        <ele>1614.8</ele>
        <time>2019-01-07T21:43:48Z</time>
      </trkpt>
      <trkpt lat="42.34988" lon="2.33255">
        <ele>1614.5</ele>
        <time>2019-01-07T21:43:49Z</time>
      </trkpt>
      <trkpt lat="42.34987" lon="2.33257">
        <ele>1614.3</ele>
        <time>2019-01-07T21:43:49Z</time>
      </trkpt>
      <trkpt lat="42.34985" lon="2.33259">
        <ele>1613.9</ele>
        <time>2019-01-07T21:43:50Z</time>
      </trkpt>
      <trkpt lat="42.34983" lon="2.33261">
        <ele>1613.5</ele>
        <time>2019-01-07T21:43:51Z</time>
      </trkpt>
      <trkpt lat="42.34981" lon="2.33264">
        <ele>1613.3</ele>
        <time>2019-01-07T21:43:51Z</time>
      </trkpt>
      <trkpt lat="42.3498" lon="2.33266">
        <ele>1612.8</ele>
        <time>2019-01-07T21:43:52Z</time>
      </trkpt>
      <trkpt lat="42.34978" lon="2.33269">
        <ele>1612.5</ele>
        <time>2019-01-07T21:43:53Z</time>
      </trkpt>
      <trkpt lat="42.34976" lon="2.33271">
        <ele>1612.1</ele>
        <time>2019-01-07T21:43:53Z</time>
      </trkpt>
      <trkpt lat="42.34975" lon="2.33273">
        <ele>1611.8</ele>
        <time>2019-01-07T21:43:54Z</time>
      </trkpt>
      <trkpt lat="42.34974" lon="2.33276">
        <ele>1611.4</ele>
        <time>2019-01-07T21:43:55Z</time>
      </trkpt>
      <trkpt lat="42.34972" lon="2.33279">
        <ele>1611.2</ele>
        <time>2019-01-07T21:43:55Z</time>
      </trkpt>
      <trkpt lat="42.34971" lon="2.33281">
        <ele>1610.9</ele>
        <time>2019-01-07T21:43:56Z</time>
      </trkpt>
      <trkpt lat="42.3497" lon="2.33284">
        <ele>1610.7</ele>
        <time>2019-01-07T21:43:56Z</time>
      </trkpt>
      <trkpt lat="42.34969" lon="2.33286">
        <ele>1610.2</ele>
        <time>2019-01-07T21:43:57Z</time>
      </trkpt>
      <trkpt lat="42.34968" lon="2.33289">
        <ele>1610</ele>
        <time>2019-01-07T21:43:57Z</time>
      </trkpt>
      <trkpt lat="42.34967" lon="2.33291">
        <ele>1609.7</ele>
        <time>2019-01-07T21:43:58Z</time>
      </trkpt>
      <trkpt lat="42.34966" lon="2.33294">
        <ele>1609.6</ele>
        <time>2019-01-07T21:43:59Z</time>
      </trkpt>
      <trkpt lat="42.34965" lon="2.33297">
        <ele>1609.3</ele>
        <time>2019-01-07T21:43:59Z</time>
      </trkpt>
      <trkpt lat="42.34964" lon="2.333">
        <ele>1608.8</ele>
        <time>2019-01-07T21:44:00Z</time>
      </trkpt>
      <trkpt lat="42.34963" lon="2.33302">
        <ele>1608.6</ele>
        <time>2019-01-07T21:44:01Z</time>
      </trkpt>
      <trkpt lat="42.34962" lon="2.33305">
        <ele>1608.3</ele>
        <time>2019-01-07T21:44:01Z</time>
      </trkpt>
      <trkpt lat="42.3496" lon="2.33307">
        <ele>1608</ele>
        <time>2019-01-07T21:44:02Z</time>
      </trkpt>
      <trkpt lat="42.34959" lon="2.33309">
        <ele>1607.7</ele>
        <time>2019-01-07T21:44:02Z</time>
      </trkpt>
      <trkpt lat="42.34958" lon="2.33311">
        <ele>1607.4</ele>
        <time>2019-01-07T21:44:03Z</time>
      </trkpt>
      <trkpt lat="42.34956" lon="2.33313">
        <ele>1606.9</ele>
        <time>2019-01-07T21:44:03Z</time>
      </trkpt>
      <trkpt lat="42.34954" lon="2.33315">
        <ele>1606.5</ele>
        <time>2019-01-07T21:44:04Z</time>
      </trkpt>
      <trkpt lat="42.34953" lon="2.33317">
        <ele>1606.2</ele>
        <time>2019-01-07T21:44:05Z</time>
      </trkpt>
      <trkpt lat="42.34951" lon="2.33319">
        <ele>1605.8</ele>
        <time>2019-01-07T21:44:05Z</time>
      </trkpt>
      <trkpt lat="42.34949" lon="2.33321">
        <ele>1605.3</ele>
        <time>2019-01-07T21:44:06Z</time>
      </trkpt>
      <trkpt lat="42.34947" lon="2.33323">
        <ele>1604.9</ele>
        <time>2019-01-07T21:44:06Z</time>
      </trkpt>
      <trkpt lat="42.34945" lon="2.33325">
        <ele>1604.4</ele>
        <time>2019-01-07T21:44:07Z</time>
      </trkpt>
      <trkpt lat="42.34943" lon="2.33327">
        <ele>1604.2</ele>
        <time>2019-01-07T21:44:08Z</time>
      </trkpt>
      <trkpt lat="42.34942" lon="2.33329">
        <ele>1603.8</ele>
        <time>2019-01-07T21:44:08Z</time>
      </trkpt>
      <trkpt lat="42.3494" lon="2.33331">
        <ele>1603.5</ele>
        <time>2019-01-07T21:44:09Z</time>
      </trkpt>
      <trkpt lat="42.34938" lon="2.33333">
        <ele>1603.2</ele>
        <time>2019-01-07T21:44:10Z</time>
      </trkpt>
      <trkpt lat="42.34936" lon="2.33335">
        <ele>1602.7</ele>
        <time>2019-01-07T21:44:10Z</time>
      </trkpt>
      <trkpt lat="42.34934" lon="2.33337">
        <ele>1602.4</ele>
        <time>2019-01-07T21:44:11Z</time>
      </trkpt>
      <trkpt lat="42.34932" lon="2.33339">
        <ele>1601.9</ele>
        <time>2019-01-07T21:44:12Z</time>
      </trkpt>
      <trkpt lat="42.3493" lon="2.33341">
        <ele>1601.6</ele>
        <time>2019-01-07T21:44:12Z</time>
      </trkpt>
      <trkpt lat="42.34928" lon="2.33343">
        <ele>1601.1</ele>
        <time>2019-01-07T21:44:13Z</time>
      </trkpt>
      <trkpt lat="42.34926" lon="2.33345">
        <ele>1601</ele>
        <time>2019-01-07T21:44:14Z</time>
      </trkpt>
      <trkpt lat="42.34924" lon="2.33348">
        <ele>1600.6</ele>
        <time>2019-01-07T21:44:14Z</time>
      </trkpt>
      <trkpt lat="42.34922" lon="2.3335">
        <ele>1600.2</ele>
        <time>2019-01-07T21:44:15Z</time>
      </trkpt>
      <trkpt lat="42.34921" lon="2.33353">
        <ele>1599.9</ele>
        <time>2019-01-07T21:44:16Z</time>
      </trkpt>
      <trkpt lat="42.34919" lon="2.33355">
        <ele>1599.6</ele>
        <time>2019-01-07T21:44:16Z</time>
      </trkpt>
      <trkpt lat="42.34917" lon="2.33358">
        <ele>1599.3</ele>
        <time>2019-01-07T21:44:17Z</time>
      </trkpt>
      <trkpt lat="42.34916" lon="2.3336">
        <ele>1598.9</ele>
        <time>2019-01-07T21:44:18Z</time>
      </trkpt>
      <trkpt lat="42.34914" lon="2.33362">
        <ele>1598.6</ele>
        <time>2019-01-07T21:44:18Z</time>
      </trkpt>
      <trkpt lat="42.34912" lon="2.33365">
        <ele>1598.3</ele>
        <time>2019-01-07T21:44:19Z</time>
      </trkpt>
      <trkpt lat="42.34911" lon="2.33367">
        <ele>1597.9</ele>
        <time>2019-01-07T21:44:20Z</time>
      </trkpt>
      <trkpt lat="42.34909" lon="2.3337">
        <ele>1597.5</ele>
        <time>2019-01-07T21:44:20Z</time>
      </trkpt>
      <trkpt lat="42.34908" lon="2.33373">
        <ele>1597.2</ele>
        <time>2019-01-07T21:44:21Z</time>
      </trkpt>
      <trkpt lat="42.34906" lon="2.33375">
        <ele>1597</ele>
        <time>2019-01-07T21:44:22Z</time>
      </trkpt>
      <trkpt lat="42.34904" lon="2.33378">
        <ele>1596.7</ele>
        <time>2019-01-07T21:44:22Z</time>
      </trkpt>
      <trkpt lat="42.34902" lon="2.3338">
        <ele>1596.4</ele>
        <time>2019-01-07T21:44:23Z</time>
      </trkpt>
      <trkpt lat="42.349" lon="2.33383">
        <ele>1596.1</ele>
        <time>2019-01-07T21:44:24Z</time>
      </trkpt>
      <trkpt lat="42.34899" lon="2.33385">
        <ele>1595.8</ele>
        <time>2019-01-07T21:44:24Z</time>
      </trkpt>
      <trkpt lat="42.34897" lon="2.33387">
        <ele>1595.8</ele>
        <time>2019-01-07T21:44:25Z</time>
      </trkpt>
      <trkpt lat="42.34895" lon="2.3339">
        <ele>1595.4</ele>
        <time>2019-01-07T21:44:26Z</time>
      </trkpt>
      <trkpt lat="42.34893" lon="2.33393">
        <ele>1595</ele>
        <time>2019-01-07T21:44:26Z</time>
      </trkpt>
      <trkpt lat="42.34891" lon="2.33396">
        <ele>1594.8</ele>
        <time>2019-01-07T21:44:27Z</time>
      </trkpt>
      <trkpt lat="42.3489" lon="2.33398">
        <ele>1594.4</ele>
        <time>2019-01-07T21:44:28Z</time>
      </trkpt>
      <trkpt lat="42.34888" lon="2.33401">
        <ele>1594.1</ele>
        <time>2019-01-07T21:44:29Z</time>
      </trkpt>
      <trkpt lat="42.34886" lon="2.33403">
        <ele>1593.7</ele>
        <time>2019-01-07T21:44:29Z</time>
      </trkpt>
      <trkpt lat="42.34884" lon="2.33406">
        <ele>1593.6</ele>
        <time>2019-01-07T21:44:30Z</time>
      </trkpt>
      <trkpt lat="42.34882" lon="2.33408">
        <ele>1593.1</ele>
        <time>2019-01-07T21:44:31Z</time>
      </trkpt>
      <trkpt lat="42.34881" lon="2.3341">
        <ele>1592.9</ele>
        <time>2019-01-07T21:44:31Z</time>
      </trkpt>
      <trkpt lat="42.34879" lon="2.33412">
        <ele>1592.5</ele>
        <time>2019-01-07T21:44:32Z</time>
      </trkpt>
      <trkpt lat="42.34877" lon="2.33415">
        <ele>1592.4</ele>
        <time>2019-01-07T21:44:33Z</time>
      </trkpt>
      <trkpt lat="42.34875" lon="2.33417">
        <ele>1592</ele>
        <time>2019-01-07T21:44:33Z</time>
      </trkpt>
      <trkpt lat="42.34873" lon="2.33419">
        <ele>1591.7</ele>
        <time>2019-01-07T21:44:34Z</time>
      </trkpt>
      <trkpt lat="42.34871" lon="2.33422">
        <ele>1591.5</ele>
        <time>2019-01-07T21:44:35Z</time>
      </trkpt>
      <trkpt lat="42.34869" lon="2.33424">
        <ele>1591.3</ele>
        <time>2019-01-07T21:44:35Z</time>
      </trkpt>
      <trkpt lat="42.34865" lon="2.33429">
        <ele>1590.9</ele>
        <time>2019-01-07T21:44:37Z</time>
      </trkpt>
      <trkpt lat="42.34864" lon="2.33432">
        <ele>1590.7</ele>
        <time>2019-01-07T21:44:37Z</time>
      </trkpt>
      <trkpt lat="42.34862" lon="2.33434">
        <ele>1590.6</ele>
        <time>2019-01-07T21:44:38Z</time>
      </trkpt>
      <trkpt lat="42.34861" lon="2.33436">
        <ele>1590.5</ele>
        <time>2019-01-07T21:44:39Z</time>
      </trkpt>
      <trkpt lat="42.34859" lon="2.33439">
        <ele>1590.1</ele>
        <time>2019-01-07T21:44:39Z</time>
      </trkpt>
      <trkpt lat="42.34857" lon="2.33441">
        <ele>1589.8</ele>
        <time>2019-01-07T21:44:40Z</time>
      </trkpt>
      <trkpt lat="42.34856" lon="2.33443">
        <ele>1589.7</ele>
        <time>2019-01-07T21:44:41Z</time>
      </trkpt>
      <trkpt lat="42.34854" lon="2.33445">
        <ele>1589.6</ele>
        <time>2019-01-07T21:44:41Z</time>
      </trkpt>
      <trkpt lat="42.34851" lon="2.33448">
        <ele>1589</ele>
        <time>2019-01-07T21:44:42Z</time>
      </trkpt>
      <trkpt lat="42.3485" lon="2.33451">
        <ele>1588.7</ele>
        <time>2019-01-07T21:44:43Z</time>
      </trkpt>
      <trkpt lat="42.34848" lon="2.33454">
        <ele>1588.4</ele>
        <time>2019-01-07T21:44:43Z</time>
      </trkpt>
      <trkpt lat="42.34847" lon="2.33455">
        <ele>1588.2</ele>
        <time>2019-01-07T21:44:44Z</time>
      </trkpt>
      <trkpt lat="42.34845" lon="2.33455">
        <ele>1588</ele>
        <time>2019-01-07T21:44:44Z</time>
      </trkpt>
      <trkpt lat="42.34844" lon="2.33459">
        <ele>1587.5</ele>
        <time>2019-01-07T21:44:45Z</time>
      </trkpt>
      <trkpt lat="42.34843" lon="2.33463">
        <ele>1587.1</ele>
        <time>2019-01-07T21:44:46Z</time>
      </trkpt>
      <trkpt lat="42.34842" lon="2.33466">
        <ele>1586.9</ele>
        <time>2019-01-07T21:44:47Z</time>
      </trkpt>
      <trkpt lat="42.34842" lon="2.3347">
        <ele>1586.5</ele>
        <time>2019-01-07T21:44:48Z</time>
      </trkpt>
      <trkpt lat="42.34841" lon="2.33475">
        <ele>1586</ele>
        <time>2019-01-07T21:44:48Z</time>
      </trkpt>
      <trkpt lat="42.34841" lon="2.33479">
        <ele>1585.5</ele>
        <time>2019-01-07T21:44:49Z</time>
      </trkpt>
      <trkpt lat="42.3484" lon="2.33482">
        <ele>1585.2</ele>
        <time>2019-01-07T21:44:50Z</time>
      </trkpt>
      <trkpt lat="42.34838" lon="2.33486">
        <ele>1584.7</ele>
        <time>2019-01-07T21:44:51Z</time>
      </trkpt>
      <trkpt lat="42.34837" lon="2.3349">
        <ele>1584.3</ele>
        <time>2019-01-07T21:44:52Z</time>
      </trkpt>
      <trkpt lat="42.34835" lon="2.33494">
        <ele>1583.7</ele>
        <time>2019-01-07T21:44:53Z</time>
      </trkpt>
      <trkpt lat="42.34833" lon="2.33497">
        <ele>1583.4</ele>
        <time>2019-01-07T21:44:54Z</time>
      </trkpt>
      <trkpt lat="42.34831" lon="2.335">
        <ele>1583.1</ele>
        <time>2019-01-07T21:44:54Z</time>
      </trkpt>
      <trkpt lat="42.3483" lon="2.33504">
        <ele>1582.6</ele>
        <time>2019-01-07T21:44:55Z</time>
      </trkpt>
      <trkpt lat="42.34829" lon="2.33508">
        <ele>1582.1</ele>
        <time>2019-01-07T21:44:56Z</time>
      </trkpt>
      <trkpt lat="42.34828" lon="2.33513">
        <ele>1581.6</ele>
        <time>2019-01-07T21:44:57Z</time>
      </trkpt>
      <trkpt lat="42.34826" lon="2.33517">
        <ele>1581.3</ele>
        <time>2019-01-07T21:44:58Z</time>
      </trkpt>
      <trkpt lat="42.34824" lon="2.33521">
        <ele>1580.9</ele>
        <time>2019-01-07T21:44:59Z</time>
      </trkpt>
      <trkpt lat="42.34824" lon="2.33525">
        <ele>1580.4</ele>
        <time>2019-01-07T21:45:00Z</time>
      </trkpt>
      <trkpt lat="42.34822" lon="2.33529">
        <ele>1580.2</ele>
        <time>2019-01-07T21:45:00Z</time>
      </trkpt>
      <trkpt lat="42.34821" lon="2.33533">
        <ele>1579.9</ele>
        <time>2019-01-07T21:45:01Z</time>
      </trkpt>
      <trkpt lat="42.3482" lon="2.33537">
        <ele>1579.4</ele>
        <time>2019-01-07T21:45:02Z</time>
      </trkpt>
      <trkpt lat="42.34818" lon="2.33541">
        <ele>1579.2</ele>
        <time>2019-01-07T21:45:03Z</time>
      </trkpt>
      <trkpt lat="42.34817" lon="2.33544">
        <ele>1578.9</ele>
        <time>2019-01-07T21:45:04Z</time>
      </trkpt>
      <trkpt lat="42.34815" lon="2.33548">
        <ele>1578.5</ele>
        <time>2019-01-07T21:45:05Z</time>
      </trkpt>
      <trkpt lat="42.34813" lon="2.33551">
        <ele>1578.5</ele>
        <time>2019-01-07T21:45:05Z</time>
      </trkpt>
      <trkpt lat="42.34812" lon="2.33555">
        <ele>1578.3</ele>
        <time>2019-01-07T21:45:06Z</time>
      </trkpt>
      <trkpt lat="42.3481" lon="2.33558">
        <ele>1578.1</ele>
        <time>2019-01-07T21:45:07Z</time>
      </trkpt>
      <trkpt lat="42.34808" lon="2.33562">
        <ele>1578</ele>
        <time>2019-01-07T21:45:08Z</time>
      </trkpt>
      <trkpt lat="42.34806" lon="2.33566">
        <ele>1577.5</ele>
        <time>2019-01-07T21:45:09Z</time>
      </trkpt>
      <trkpt lat="42.34805" lon="2.33569">
        <ele>1577.1</ele>
        <time>2019-01-07T21:45:10Z</time>
      </trkpt>
      <trkpt lat="42.34803" lon="2.33573">
        <ele>1576.8</ele>
        <time>2019-01-07T21:45:10Z</time>
      </trkpt>
      <trkpt lat="42.34801" lon="2.33576">
        <ele>1576.6</ele>
        <time>2019-01-07T21:45:11Z</time>
      </trkpt>
      <trkpt lat="42.34799" lon="2.3358">
        <ele>1576.3</ele>
        <time>2019-01-07T21:45:12Z</time>
      </trkpt>
      <trkpt lat="42.34798" lon="2.33584">
        <ele>1575.9</ele>
        <time>2019-01-07T21:45:13Z</time>
      </trkpt>
      <trkpt lat="42.34797" lon="2.33586">
        <ele>1575.6</ele>
        <time>2019-01-07T21:45:14Z</time>
      </trkpt>
      <trkpt lat="42.34795" lon="2.33591">
        <ele>1575</ele>
        <time>2019-01-07T21:45:15Z</time>
      </trkpt>
      <trkpt lat="42.34793" lon="2.33595">
        <ele>1574.5</ele>
        <time>2019-01-07T21:45:16Z</time>
      </trkpt>
      <trkpt lat="42.34792" lon="2.33598">
        <ele>1574.2</ele>
        <time>2019-01-07T21:45:16Z</time>
      </trkpt>
      <trkpt lat="42.3479" lon="2.33602">
        <ele>1573.8</ele>
        <time>2019-01-07T21:45:17Z</time>
      </trkpt>
      <trkpt lat="42.34789" lon="2.33605">
        <ele>1573.4</ele>
        <time>2019-01-07T21:45:18Z</time>
      </trkpt>
      <trkpt lat="42.34788" lon="2.33608">
        <ele>1573</ele>
        <time>2019-01-07T21:45:19Z</time>
      </trkpt>
      <trkpt lat="42.34786" lon="2.33612">
        <ele>1572.6</ele>
        <time>2019-01-07T21:45:20Z</time>
      </trkpt>
      <trkpt lat="42.34784" lon="2.33616">
        <ele>1572.3</ele>
        <time>2019-01-07T21:45:21Z</time>
      </trkpt>
      <trkpt lat="42.34782" lon="2.3362">
        <ele>1572</ele>
        <time>2019-01-07T21:45:21Z</time>
      </trkpt>
      <trkpt lat="42.3478" lon="2.33624">
        <ele>1571.5</ele>
        <time>2019-01-07T21:45:22Z</time>
      </trkpt>
      <trkpt lat="42.34779" lon="2.33627">
        <ele>1571</ele>
        <time>2019-01-07T21:45:23Z</time>
      </trkpt>
      <trkpt lat="42.34777" lon="2.33631">
        <ele>1570.5</ele>
        <time>2019-01-07T21:45:24Z</time>
      </trkpt>
      <trkpt lat="42.34776" lon="2.33635">
        <ele>1570.1</ele>
        <time>2019-01-07T21:45:25Z</time>
      </trkpt>
      <trkpt lat="42.34775" lon="2.33638">
        <ele>1569.7</ele>
        <time>2019-01-07T21:45:26Z</time>
      </trkpt>
      <trkpt lat="42.34773" lon="2.33642">
        <ele>1569.2</ele>
        <time>2019-01-07T21:45:26Z</time>
      </trkpt>
      <trkpt lat="42.34771" lon="2.33646">
        <ele>1568.9</ele>
        <time>2019-01-07T21:45:27Z</time>
      </trkpt>
      <trkpt lat="42.3477" lon="2.3365">
        <ele>1568.6</ele>
        <time>2019-01-07T21:45:28Z</time>
      </trkpt>
      <trkpt lat="42.34769" lon="2.33655">
        <ele>1568.2</ele>
        <time>2019-01-07T21:45:29Z</time>
      </trkpt>
      <trkpt lat="42.34767" lon="2.33658">
        <ele>1567.8</ele>
        <time>2019-01-07T21:45:30Z</time>
      </trkpt>
      <trkpt lat="42.34765" lon="2.33662">
        <ele>1567.6</ele>
        <time>2019-01-07T21:45:31Z</time>
      </trkpt>
      <trkpt lat="42.34764" lon="2.33665">
        <ele>1567.4</ele>
        <time>2019-01-07T21:45:32Z</time>
      </trkpt>
      <trkpt lat="42.34763" lon="2.33669">
        <ele>1567.2</ele>
        <time>2019-01-07T21:45:32Z</time>
      </trkpt>
      <trkpt lat="42.34762" lon="2.33671">
        <ele>1567.2</ele>
        <time>2019-01-07T21:45:33Z</time>
      </trkpt>
      <trkpt lat="42.3476" lon="2.33674">
        <ele>1566.9</ele>
        <time>2019-01-07T21:45:34Z</time>
      </trkpt>
      <trkpt lat="42.34759" lon="2.33678">
        <ele>1566.6</ele>
        <time>2019-01-07T21:45:34Z</time>
      </trkpt>
      <trkpt lat="42.34758" lon="2.33681">
        <ele>1566.6</ele>
        <time>2019-01-07T21:45:35Z</time>
      </trkpt>
      <trkpt lat="42.34756" lon="2.33686">
        <ele>1566.3</ele>
        <time>2019-01-07T21:45:36Z</time>
      </trkpt>
      <trkpt lat="42.34755" lon="2.3369">
        <ele>1566.1</ele>
        <time>2019-01-07T21:45:37Z</time>
      </trkpt>
      <trkpt lat="42.34753" lon="2.33694">
        <ele>1565.7</ele>
        <time>2019-01-07T21:45:38Z</time>
      </trkpt>
      <trkpt lat="42.34753" lon="2.33696">
        <ele>1565.5</ele>
        <time>2019-01-07T21:45:38Z</time>
      </trkpt>
      <trkpt lat="42.34752" lon="2.33699">
        <ele>1565.3</ele>
        <time>2019-01-07T21:45:39Z</time>
      </trkpt>
      <trkpt lat="42.3475" lon="2.33703">
        <ele>1564.8</ele>
        <time>2019-01-07T21:45:40Z</time>
      </trkpt>
      <trkpt lat="42.34749" lon="2.33705">
        <ele>1564.7</ele>
        <time>2019-01-07T21:45:40Z</time>
      </trkpt>
      <trkpt lat="42.34747" lon="2.33709">
        <ele>1564.4</ele>
        <time>2019-01-07T21:45:41Z</time>
      </trkpt>
      <trkpt lat="42.34745" lon="2.33713">
        <ele>1564</ele>
        <time>2019-01-07T21:45:42Z</time>
      </trkpt>
      <trkpt lat="42.34742" lon="2.33716">
        <ele>1563.6</ele>
        <time>2019-01-07T21:45:43Z</time>
      </trkpt>
      <trkpt lat="42.3474" lon="2.33719">
        <ele>1563.3</ele>
        <time>2019-01-07T21:45:44Z</time>
      </trkpt>
      <trkpt lat="42.34738" lon="2.33721">
        <ele>1563.1</ele>
        <time>2019-01-07T21:45:45Z</time>
      </trkpt>
      <trkpt lat="42.34736" lon="2.33724">
        <ele>1562.9</ele>
        <time>2019-01-07T21:45:46Z</time>
      </trkpt>
      <trkpt lat="42.34734" lon="2.33726">
        <ele>1562.7</ele>
        <time>2019-01-07T21:45:46Z</time>
      </trkpt>
      <trkpt lat="42.34733" lon="2.33728">
        <ele>1562.4</ele>
        <time>2019-01-07T21:45:47Z</time>
      </trkpt>
      <trkpt lat="42.34731" lon="2.33731">
        <ele>1562.3</ele>
        <time>2019-01-07T21:45:47Z</time>
      </trkpt>
      <trkpt lat="42.3473" lon="2.33733">
        <ele>1561.9</ele>
        <time>2019-01-07T21:45:48Z</time>
      </trkpt>
      <trkpt lat="42.34728" lon="2.33736">
        <ele>1561.9</ele>
        <time>2019-01-07T21:45:49Z</time>
      </trkpt>
      <trkpt lat="42.34727" lon="2.33738">
        <ele>1561.6</ele>
        <time>2019-01-07T21:45:49Z</time>
      </trkpt>
      <trkpt lat="42.34725" lon="2.33741">
        <ele>1561.1</ele>
        <time>2019-01-07T21:45:50Z</time>
      </trkpt>
      <trkpt lat="42.34724" lon="2.33744">
        <ele>1561</ele>
        <time>2019-01-07T21:45:51Z</time>
      </trkpt>
      <trkpt lat="42.34723" lon="2.33746">
        <ele>1560.6</ele>
        <time>2019-01-07T21:45:51Z</time>
      </trkpt>
      <trkpt lat="42.34722" lon="2.3375">
        <ele>1560</ele>
        <time>2019-01-07T21:45:52Z</time>
      </trkpt>
      <trkpt lat="42.3472" lon="2.33753">
        <ele>1559.6</ele>
        <time>2019-01-07T21:45:53Z</time>
      </trkpt>
      <trkpt lat="42.34719" lon="2.33756">
        <ele>1559.3</ele>
        <time>2019-01-07T21:45:53Z</time>
      </trkpt>
      <trkpt lat="42.34718" lon="2.33758">
        <ele>1558.8</ele>
        <time>2019-01-07T21:45:54Z</time>
      </trkpt>
      <trkpt lat="42.34717" lon="2.3376">
        <ele>1558.3</ele>
        <time>2019-01-07T21:45:54Z</time>
      </trkpt>
      <trkpt lat="42.34717" lon="2.33763">
        <ele>1557.9</ele>
        <time>2019-01-07T21:45:55Z</time>
      </trkpt>
      <trkpt lat="42.34716" lon="2.33765">
        <ele>1557.6</ele>
        <time>2019-01-07T21:45:55Z</time>
      </trkpt>
      <trkpt lat="42.34715" lon="2.33768">
        <ele>1557.2</ele>
        <time>2019-01-07T21:45:56Z</time>
      </trkpt>
      <trkpt lat="42.34714" lon="2.3377">
        <ele>1556.8</ele>
        <time>2019-01-07T21:45:56Z</time>
      </trkpt>
      <trkpt lat="42.34713" lon="2.33773">
        <ele>1556.3</ele>
        <time>2019-01-07T21:45:57Z</time>
      </trkpt>
      <trkpt lat="42.34712" lon="2.33776">
        <ele>1555.8</ele>
        <time>2019-01-07T21:45:58Z</time>
      </trkpt>
      <trkpt lat="42.34711" lon="2.33779">
        <ele>1555.3</ele>
        <time>2019-01-07T21:45:58Z</time>
      </trkpt>
      <trkpt lat="42.3471" lon="2.33782">
        <ele>1554.9</ele>
        <time>2019-01-07T21:45:59Z</time>
      </trkpt>
      <trkpt lat="42.34709" lon="2.33784">
        <ele>1554.5</ele>
        <time>2019-01-07T21:45:59Z</time>
      </trkpt>
      <trkpt lat="42.34707" lon="2.33786">
        <ele>1554.1</ele>
        <time>2019-01-07T21:46:00Z</time>
      </trkpt>
      <trkpt lat="42.34705" lon="2.3379">
        <ele>1553.6</ele>
        <time>2019-01-07T21:46:01Z</time>
      </trkpt>
      <trkpt lat="42.34704" lon="2.33793">
        <ele>1553.1</ele>
        <time>2019-01-07T21:46:02Z</time>
      </trkpt>
      <trkpt lat="42.34702" lon="2.33795">
        <ele>1552.6</ele>
        <time>2019-01-07T21:46:02Z</time>
      </trkpt>
      <trkpt lat="42.347" lon="2.33797">
        <ele>1552.3</ele>
        <time>2019-01-07T21:46:03Z</time>
      </trkpt>
      <trkpt lat="42.34698" lon="2.338">
        <ele>1552.1</ele>
        <time>2019-01-07T21:46:04Z</time>
      </trkpt>
      <trkpt lat="42.34696" lon="2.33802">
        <ele>1551.5</ele>
        <time>2019-01-07T21:46:04Z</time>
      </trkpt>
      <trkpt lat="42.34695" lon="2.33805">
        <ele>1551.2</ele>
        <time>2019-01-07T21:46:05Z</time>
      </trkpt>
      <trkpt lat="42.34693" lon="2.33807">
        <ele>1550.8</ele>
        <time>2019-01-07T21:46:06Z</time>
      </trkpt>
      <trkpt lat="42.34691" lon="2.3381">
        <ele>1550.3</ele>
        <time>2019-01-07T21:46:07Z</time>
      </trkpt>
      <trkpt lat="42.34689" lon="2.33812">
        <ele>1549.8</ele>
        <time>2019-01-07T21:46:07Z</time>
      </trkpt>
      <trkpt lat="42.34687" lon="2.33815">
        <ele>1549.5</ele>
        <time>2019-01-07T21:46:08Z</time>
      </trkpt>
      <trkpt lat="42.34685" lon="2.33817">
        <ele>1549</ele>
        <time>2019-01-07T21:46:09Z</time>
      </trkpt>
      <trkpt lat="42.34682" lon="2.33819">
        <ele>1548.6</ele>
        <time>2019-01-07T21:46:09Z</time>
      </trkpt>
      <trkpt lat="42.3468" lon="2.33822">
        <ele>1548.1</ele>
        <time>2019-01-07T21:46:10Z</time>
      </trkpt>
      <trkpt lat="42.34679" lon="2.33824">
        <ele>1547.6</ele>
        <time>2019-01-07T21:46:11Z</time>
      </trkpt>
      <trkpt lat="42.34677" lon="2.33826">
        <ele>1547.2</ele>
        <time>2019-01-07T21:46:11Z</time>
      </trkpt>
      <trkpt lat="42.34675" lon="2.33828">
        <ele>1546.9</ele>
        <time>2019-01-07T21:46:12Z</time>
      </trkpt>
      <trkpt lat="42.34673" lon="2.3383">
        <ele>1546.5</ele>
        <time>2019-01-07T21:46:13Z</time>
      </trkpt>
      <trkpt lat="42.34671" lon="2.33832">
        <ele>1546.2</ele>
        <time>2019-01-07T21:46:14Z</time>
      </trkpt>
      <trkpt lat="42.34669" lon="2.33835">
        <ele>1545.9</ele>
        <time>2019-01-07T21:46:14Z</time>
      </trkpt>
      <trkpt lat="42.34667" lon="2.33837">
        <ele>1545.7</ele>
        <time>2019-01-07T21:46:15Z</time>
      </trkpt>
      <trkpt lat="42.34665" lon="2.3384">
        <ele>1545.2</ele>
        <time>2019-01-07T21:46:16Z</time>
      </trkpt>
      <trkpt lat="42.34663" lon="2.33842">
        <ele>1544.9</ele>
        <time>2019-01-07T21:46:16Z</time>
      </trkpt>
      <trkpt lat="42.34661" lon="2.33844">
        <ele>1544.8</ele>
        <time>2019-01-07T21:46:17Z</time>
      </trkpt>
      <trkpt lat="42.34659" lon="2.33847">
        <ele>1544.5</ele>
        <time>2019-01-07T21:46:18Z</time>
      </trkpt>
      <trkpt lat="42.34658" lon="2.3385">
        <ele>1544.1</ele>
        <time>2019-01-07T21:46:18Z</time>
      </trkpt>
      <trkpt lat="42.34656" lon="2.33852">
        <ele>1543.8</ele>
        <time>2019-01-07T21:46:19Z</time>
      </trkpt>
      <trkpt lat="42.34654" lon="2.33855">
        <ele>1543.4</ele>
        <time>2019-01-07T21:46:20Z</time>
      </trkpt>
      <trkpt lat="42.34652" lon="2.33857">
        <ele>1543.2</ele>
        <time>2019-01-07T21:46:20Z</time>
      </trkpt>
      <trkpt lat="42.34651" lon="2.3386">
        <ele>1542.8</ele>
        <time>2019-01-07T21:46:21Z</time>
      </trkpt>
      <trkpt lat="42.34649" lon="2.33863">
        <ele>1542.6</ele>
        <time>2019-01-07T21:46:22Z</time>
      </trkpt>
      <trkpt lat="42.34648" lon="2.33866">
        <ele>1542.2</ele>
        <time>2019-01-07T21:46:23Z</time>
      </trkpt>
      <trkpt lat="42.34646" lon="2.33869">
        <ele>1541.8</ele>
        <time>2019-01-07T21:46:23Z</time>
      </trkpt>
      <trkpt lat="42.34645" lon="2.33871">
        <ele>1541.7</ele>
        <time>2019-01-07T21:46:24Z</time>
      </trkpt>
      <trkpt lat="42.34644" lon="2.33873">
        <ele>1541.4</ele>
        <time>2019-01-07T21:46:24Z</time>
      </trkpt>
      <trkpt lat="42.34642" lon="2.33875">
        <ele>1541.4</ele>
        <time>2019-01-07T21:46:25Z</time>
      </trkpt>
      <trkpt lat="42.3464" lon="2.33878">
        <ele>1541.2</ele>
        <time>2019-01-07T21:46:26Z</time>
      </trkpt>
      <trkpt lat="42.34638" lon="2.3388">
        <ele>1541.1</ele>
        <time>2019-01-07T21:46:26Z</time>
      </trkpt>
      <trkpt lat="42.34637" lon="2.33881">
        <ele>1540.9</ele>
        <time>2019-01-07T21:46:27Z</time>
      </trkpt>
      <trkpt lat="42.34635" lon="2.33883">
        <ele>1540.5</ele>
        <time>2019-01-07T21:46:27Z</time>
      </trkpt>
      <trkpt lat="42.34633" lon="2.33884">
        <ele>1540.3</ele>
        <time>2019-01-07T21:46:28Z</time>
      </trkpt>
      <trkpt lat="42.34631" lon="2.33886">
        <ele>1540</ele>
        <time>2019-01-07T21:46:29Z</time>
      </trkpt>
      <trkpt lat="42.34629" lon="2.33887">
        <ele>1539.7</ele>
        <time>2019-01-07T21:46:29Z</time>
      </trkpt>
      <trkpt lat="42.34627" lon="2.33888">
        <ele>1539.2</ele>
        <time>2019-01-07T21:46:30Z</time>
      </trkpt>
      <trkpt lat="42.34624" lon="2.33889">
        <ele>1539</ele>
        <time>2019-01-07T21:46:30Z</time>
      </trkpt>
      <trkpt lat="42.34622" lon="2.3389">
        <ele>1538.7</ele>
        <time>2019-01-07T21:46:31Z</time>
      </trkpt>
      <trkpt lat="42.3462" lon="2.33891">
        <ele>1538.3</ele>
        <time>2019-01-07T21:46:32Z</time>
      </trkpt>
      <trkpt lat="42.34618" lon="2.33891">
        <ele>1538.1</ele>
        <time>2019-01-07T21:46:32Z</time>
      </trkpt>
      <trkpt lat="42.34615" lon="2.33892">
        <ele>1537.9</ele>
        <time>2019-01-07T21:46:33Z</time>
      </trkpt>
      <trkpt lat="42.34613" lon="2.33892">
        <ele>1537.6</ele>
        <time>2019-01-07T21:46:34Z</time>
      </trkpt>
      <trkpt lat="42.34611" lon="2.33893">
        <ele>1537.1</ele>
        <time>2019-01-07T21:46:34Z</time>
      </trkpt>
      <trkpt lat="42.34609" lon="2.33894">
        <ele>1536.8</ele>
        <time>2019-01-07T21:46:35Z</time>
      </trkpt>
      <trkpt lat="42.34606" lon="2.33894">
        <ele>1536.5</ele>
        <time>2019-01-07T21:46:35Z</time>
      </trkpt>
      <trkpt lat="42.34604" lon="2.33894">
        <ele>1536.2</ele>
        <time>2019-01-07T21:46:36Z</time>
      </trkpt>
      <trkpt lat="42.34602" lon="2.33895">
        <ele>1535.8</ele>
        <time>2019-01-07T21:46:37Z</time>
      </trkpt>
      <trkpt lat="42.34599" lon="2.33895">
        <ele>1535.4</ele>
        <time>2019-01-07T21:46:37Z</time>
      </trkpt>
      <trkpt lat="42.34597" lon="2.33895">
        <ele>1535.2</ele>
        <time>2019-01-07T21:46:38Z</time>
      </trkpt>
      <trkpt lat="42.34595" lon="2.33895">
        <ele>1534.9</ele>
        <time>2019-01-07T21:46:38Z</time>
      </trkpt>
      <trkpt lat="42.34593" lon="2.33895">
        <ele>1534.6</ele>
        <time>2019-01-07T21:46:39Z</time>
      </trkpt>
      <trkpt lat="42.3459" lon="2.33895">
        <ele>1534.7</ele>
        <time>2019-01-07T21:46:40Z</time>
      </trkpt>
      <trkpt lat="42.34588" lon="2.33895">
        <ele>1534.3</ele>
        <time>2019-01-07T21:46:40Z</time>
      </trkpt>
      <trkpt lat="42.34586" lon="2.33895">
        <ele>1534.1</ele>
        <time>2019-01-07T21:46:41Z</time>
      </trkpt>
      <trkpt lat="42.34583" lon="2.33895">
        <ele>1533.9</ele>
        <time>2019-01-07T21:46:42Z</time>
      </trkpt>
      <trkpt lat="42.34581" lon="2.33895">
        <ele>1533.6</ele>
        <time>2019-01-07T21:46:42Z</time>
      </trkpt>
      <trkpt lat="42.34579" lon="2.33895">
        <ele>1533.4</ele>
        <time>2019-01-07T21:46:43Z</time>
      </trkpt>
      <trkpt lat="42.34577" lon="2.33894">
        <ele>1533.2</ele>
        <time>2019-01-07T21:46:43Z</time>
      </trkpt>
      <trkpt lat="42.34574" lon="2.33895">
        <ele>1533</ele>
        <time>2019-01-07T21:46:44Z</time>
      </trkpt>
      <trkpt lat="42.34572" lon="2.33895">
        <ele>1532.7</ele>
        <time>2019-01-07T21:46:44Z</time>
      </trkpt>
      <trkpt lat="42.3457" lon="2.33895">
        <ele>1532.4</ele>
        <time>2019-01-07T21:46:45Z</time>
      </trkpt>
      <trkpt lat="42.34568" lon="2.33895">
        <ele>1532</ele>
        <time>2019-01-07T21:46:46Z</time>
      </trkpt>
      <trkpt lat="42.34565" lon="2.33895">
        <ele>1531.8</ele>
        <time>2019-01-07T21:46:46Z</time>
      </trkpt>
      <trkpt lat="42.34562" lon="2.33896">
        <ele>1531.7</ele>
        <time>2019-01-07T21:46:47Z</time>
      </trkpt>
      <trkpt lat="42.3456" lon="2.33896">
        <ele>1531.4</ele>
        <time>2019-01-07T21:46:48Z</time>
      </trkpt>
      <trkpt lat="42.34558" lon="2.33896">
        <ele>1531.2</ele>
        <time>2019-01-07T21:46:48Z</time>
      </trkpt>
      <trkpt lat="42.34555" lon="2.33895">
        <ele>1530.8</ele>
        <time>2019-01-07T21:46:49Z</time>
      </trkpt>
      <trkpt lat="42.34553" lon="2.33895">
        <ele>1530.7</ele>
        <time>2019-01-07T21:46:50Z</time>
      </trkpt>
      <trkpt lat="42.34551" lon="2.33895">
        <ele>1530.5</ele>
        <time>2019-01-07T21:46:50Z</time>
      </trkpt>
      <trkpt lat="42.34548" lon="2.33895">
        <ele>1530.3</ele>
        <time>2019-01-07T21:46:51Z</time>
      </trkpt>
      <trkpt lat="42.34546" lon="2.33895">
        <ele>1530</ele>
        <time>2019-01-07T21:46:52Z</time>
      </trkpt>
      <trkpt lat="42.34543" lon="2.33895">
        <ele>1529.5</ele>
        <time>2019-01-07T21:46:52Z</time>
      </trkpt>
      <trkpt lat="42.34541" lon="2.33894">
        <ele>1529.4</ele>
        <time>2019-01-07T21:46:53Z</time>
      </trkpt>
      <trkpt lat="42.34538" lon="2.33894">
        <ele>1529.2</ele>
        <time>2019-01-07T21:46:54Z</time>
      </trkpt>
      <trkpt lat="42.34536" lon="2.33893">
        <ele>1529.1</ele>
        <time>2019-01-07T21:46:54Z</time>
      </trkpt>
      <trkpt lat="42.34534" lon="2.33893">
        <ele>1529</ele>
        <time>2019-01-07T21:46:55Z</time>
      </trkpt>
      <trkpt lat="42.34532" lon="2.33893">
        <ele>1528.7</ele>
        <time>2019-01-07T21:46:55Z</time>
      </trkpt>
      <trkpt lat="42.34529" lon="2.33892">
        <ele>1528.7</ele>
        <time>2019-01-07T21:46:56Z</time>
      </trkpt>
      <trkpt lat="42.34527" lon="2.33891">
        <ele>1528.5</ele>
        <time>2019-01-07T21:46:57Z</time>
      </trkpt>
      <trkpt lat="42.34525" lon="2.3389">
        <ele>1528.4</ele>
        <time>2019-01-07T21:46:57Z</time>
      </trkpt>
      <trkpt lat="42.34522" lon="2.33889">
        <ele>1528.2</ele>
        <time>2019-01-07T21:46:58Z</time>
      </trkpt>
      <trkpt lat="42.3452" lon="2.33889">
        <ele>1528</ele>
        <time>2019-01-07T21:46:59Z</time>
      </trkpt>
      <trkpt lat="42.34518" lon="2.33888">
        <ele>1527.9</ele>
        <time>2019-01-07T21:46:59Z</time>
      </trkpt>
      <trkpt lat="42.34515" lon="2.33887">
        <ele>1527.6</ele>
        <time>2019-01-07T21:47:00Z</time>
      </trkpt>
      <trkpt lat="42.34512" lon="2.33886">
        <ele>1527.6</ele>
        <time>2019-01-07T21:47:01Z</time>
      </trkpt>
      <trkpt lat="42.3451" lon="2.33885">
        <ele>1527.3</ele>
        <time>2019-01-07T21:47:01Z</time>
      </trkpt>
      <trkpt lat="42.34508" lon="2.33884">
        <ele>1527.1</ele>
        <time>2019-01-07T21:47:02Z</time>
      </trkpt>
      <trkpt lat="42.34505" lon="2.33884">
        <ele>1527</ele>
        <time>2019-01-07T21:47:03Z</time>
      </trkpt>
      <trkpt lat="42.34503" lon="2.33884">
        <ele>1526.6</ele>
        <time>2019-01-07T21:47:03Z</time>
      </trkpt>
      <trkpt lat="42.345" lon="2.33884">
        <ele>1526.1</ele>
        <time>2019-01-07T21:47:04Z</time>
      </trkpt>
      <trkpt lat="42.34497" lon="2.33884">
        <ele>1525.8</ele>
        <time>2019-01-07T21:47:05Z</time>
      </trkpt>
      <trkpt lat="42.34495" lon="2.33883">
        <ele>1525.6</ele>
        <time>2019-01-07T21:47:05Z</time>
      </trkpt>
      <trkpt lat="42.34492" lon="2.33883">
        <ele>1525.4</ele>
        <time>2019-01-07T21:47:06Z</time>
      </trkpt>
      <trkpt lat="42.3449" lon="2.33883">
        <ele>1524.8</ele>
        <time>2019-01-07T21:47:07Z</time>
      </trkpt>
      <trkpt lat="42.34487" lon="2.33882">
        <ele>1524.7</ele>
        <time>2019-01-07T21:47:08Z</time>
      </trkpt>
      <trkpt lat="42.34485" lon="2.33882">
        <ele>1524.3</ele>
        <time>2019-01-07T21:47:08Z</time>
      </trkpt>
      <trkpt lat="42.34482" lon="2.33882">
        <ele>1523.8</ele>
        <time>2019-01-07T21:47:09Z</time>
      </trkpt>
      <trkpt lat="42.34479" lon="2.33882">
        <ele>1523.6</ele>
        <time>2019-01-07T21:47:10Z</time>
      </trkpt>
      <trkpt lat="42.34477" lon="2.33882">
        <ele>1523.2</ele>
        <time>2019-01-07T21:47:10Z</time>
      </trkpt>
      <trkpt lat="42.34474" lon="2.33882">
        <ele>1523</ele>
        <time>2019-01-07T21:47:11Z</time>
      </trkpt>
      <trkpt lat="42.34472" lon="2.33882">
        <ele>1522.5</ele>
        <time>2019-01-07T21:47:12Z</time>
      </trkpt>
      <trkpt lat="42.34469" lon="2.33882">
        <ele>1522.3</ele>
        <time>2019-01-07T21:47:12Z</time>
      </trkpt>
      <trkpt lat="42.34467" lon="2.33882">
        <ele>1522.1</ele>
        <time>2019-01-07T21:47:13Z</time>
      </trkpt>
      <trkpt lat="42.34464" lon="2.33882">
        <ele>1521.9</ele>
        <time>2019-01-07T21:47:14Z</time>
      </trkpt>
      <trkpt lat="42.34461" lon="2.33881">
        <ele>1521.7</ele>
        <time>2019-01-07T21:47:14Z</time>
      </trkpt>
      <trkpt lat="42.34459" lon="2.33881">
        <ele>1521.5</ele>
        <time>2019-01-07T21:47:15Z</time>
      </trkpt>
      <trkpt lat="42.34456" lon="2.33881">
        <ele>1521.4</ele>
        <time>2019-01-07T21:47:16Z</time>
      </trkpt>
      <trkpt lat="42.34454" lon="2.33881">
        <ele>1521.2</ele>
        <time>2019-01-07T21:47:16Z</time>
      </trkpt>
      <trkpt lat="42.34451" lon="2.33881">
        <ele>1520.8</ele>
        <time>2019-01-07T21:47:17Z</time>
      </trkpt>
      <trkpt lat="42.34449" lon="2.33881">
        <ele>1520.6</ele>
        <time>2019-01-07T21:47:18Z</time>
      </trkpt>
      <trkpt lat="42.34446" lon="2.33882">
        <ele>1520.3</ele>
        <time>2019-01-07T21:47:18Z</time>
      </trkpt>
      <trkpt lat="42.34443" lon="2.33882">
        <ele>1520</ele>
        <time>2019-01-07T21:47:19Z</time>
      </trkpt>
      <trkpt lat="42.34441" lon="2.33883">
        <ele>1519.6</ele>
        <time>2019-01-07T21:47:20Z</time>
      </trkpt>
      <trkpt lat="42.34439" lon="2.33884">
        <ele>1519</ele>
        <time>2019-01-07T21:47:21Z</time>
      </trkpt>
      <trkpt lat="42.34436" lon="2.33885">
        <ele>1518.8</ele>
        <time>2019-01-07T21:47:21Z</time>
      </trkpt>
      <trkpt lat="42.34434" lon="2.33885">
        <ele>1518.3</ele>
        <time>2019-01-07T21:47:22Z</time>
      </trkpt>
      <trkpt lat="42.34431" lon="2.33885">
        <ele>1518.2</ele>
        <time>2019-01-07T21:47:23Z</time>
      </trkpt>
      <trkpt lat="42.34429" lon="2.33885">
        <ele>1518</ele>
        <time>2019-01-07T21:47:23Z</time>
      </trkpt>
      <trkpt lat="42.34427" lon="2.33884">
        <ele>1517.8</ele>
        <time>2019-01-07T21:47:24Z</time>
      </trkpt>
      <trkpt lat="42.34425" lon="2.33883">
        <ele>1517.6</ele>
        <time>2019-01-07T21:47:24Z</time>
      </trkpt>
      <trkpt lat="42.34423" lon="2.33882">
        <ele>1517.5</ele>
        <time>2019-01-07T21:47:25Z</time>
      </trkpt>
      <trkpt lat="42.34421" lon="2.3388">
        <ele>1517.5</ele>
        <time>2019-01-07T21:47:26Z</time>
      </trkpt>
      <trkpt lat="42.34419" lon="2.33879">
        <ele>1517.4</ele>
        <time>2019-01-07T21:47:26Z</time>
      </trkpt>
      <trkpt lat="42.34417" lon="2.33877">
        <ele>1517.4</ele>
        <time>2019-01-07T21:47:27Z</time>
      </trkpt>
      <trkpt lat="42.34416" lon="2.33876">
        <ele>1517.4</ele>
        <time>2019-01-07T21:47:27Z</time>
      </trkpt>
      <trkpt lat="42.34415" lon="2.33873">
        <ele>1517.3</ele>
        <time>2019-01-07T21:47:28Z</time>
      </trkpt>
      <trkpt lat="42.34414" lon="2.33869">
        <ele>1517.5</ele>
        <time>2019-01-07T21:47:29Z</time>
      </trkpt>
      <trkpt lat="42.34412" lon="2.33866">
        <ele>1517.7</ele>
        <time>2019-01-07T21:47:29Z</time>
      </trkpt>
      <trkpt lat="42.34411" lon="2.33863">
        <ele>1517.8</ele>
        <time>2019-01-07T21:47:30Z</time>
      </trkpt>
      <trkpt lat="42.34409" lon="2.33863">
        <ele>1517.6</ele>
        <time>2019-01-07T21:47:31Z</time>
      </trkpt>
      <trkpt lat="42.34407" lon="2.33863">
        <ele>1517.1</ele>
        <time>2019-01-07T21:47:31Z</time>
      </trkpt>
      <trkpt lat="42.34405" lon="2.33864">
        <ele>1516.4</ele>
        <time>2019-01-07T21:47:32Z</time>
      </trkpt>
      <trkpt lat="42.34403" lon="2.33867">
        <ele>1515.9</ele>
        <time>2019-01-07T21:47:32Z</time>
      </trkpt>
      <trkpt lat="42.34403" lon="2.3387">
        <ele>1515.3</ele>
        <time>2019-01-07T21:47:33Z</time>
      </trkpt>
      <trkpt lat="42.34403" lon="2.33873">
        <ele>1514.8</ele>
        <time>2019-01-07T21:47:33Z</time>
      </trkpt>
      <trkpt lat="42.34403" lon="2.33876">
        <ele>1514.4</ele>
        <time>2019-01-07T21:47:34Z</time>
      </trkpt>
      <trkpt lat="42.34403" lon="2.33879">
        <ele>1514.2</ele>
        <time>2019-01-07T21:47:35Z</time>
      </trkpt>
      <trkpt lat="42.34404" lon="2.33882">
        <ele>1513.9</ele>
        <time>2019-01-07T21:47:35Z</time>
      </trkpt>
      <trkpt lat="42.34405" lon="2.33886">
        <ele>1513.7</ele>
        <time>2019-01-07T21:47:36Z</time>
      </trkpt>
      <trkpt lat="42.34406" lon="2.33888">
        <ele>1513.5</ele>
        <time>2019-01-07T21:47:37Z</time>
      </trkpt>
      <trkpt lat="42.34407" lon="2.33892">
        <ele>1513.2</ele>
        <time>2019-01-07T21:47:37Z</time>
      </trkpt>
      <trkpt lat="42.34408" lon="2.33895">
        <ele>1512.8</ele>
        <time>2019-01-07T21:47:38Z</time>
      </trkpt>
      <trkpt lat="42.34409" lon="2.33898">
        <ele>1512.4</ele>
        <time>2019-01-07T21:47:39Z</time>
      </trkpt>
      <trkpt lat="42.3441" lon="2.33901">
        <ele>1511.9</ele>
        <time>2019-01-07T21:47:39Z</time>
      </trkpt>
      <trkpt lat="42.34411" lon="2.33904">
        <ele>1511.6</ele>
        <time>2019-01-07T21:47:40Z</time>
      </trkpt>
      <trkpt lat="42.34412" lon="2.33907">
        <ele>1511.3</ele>
        <time>2019-01-07T21:47:41Z</time>
      </trkpt>
      <trkpt lat="42.34413" lon="2.3391">
        <ele>1510.8</ele>
        <time>2019-01-07T21:47:41Z</time>
      </trkpt>
      <trkpt lat="42.34414" lon="2.33913">
        <ele>1510.5</ele>
        <time>2019-01-07T21:47:42Z</time>
      </trkpt>
      <trkpt lat="42.34419" lon="2.33918">
        <ele>1509.9</ele>
        <time>2019-01-07T21:47:43Z</time>
      </trkpt>
      <trkpt lat="42.3442" lon="2.33921">
        <ele>1509.7</ele>
        <time>2019-01-07T21:47:44Z</time>
      </trkpt>
      <trkpt lat="42.34422" lon="2.33923">
        <ele>1509.2</ele>
        <time>2019-01-07T21:47:45Z</time>
      </trkpt>
      <trkpt lat="42.34424" lon="2.33926">
        <ele>1508.8</ele>
        <time>2019-01-07T21:47:46Z</time>
      </trkpt>
      <trkpt lat="42.34426" lon="2.33928">
        <ele>1508.6</ele>
        <time>2019-01-07T21:47:46Z</time>
      </trkpt>
      <trkpt lat="42.34428" lon="2.3393">
        <ele>1508.4</ele>
        <time>2019-01-07T21:47:47Z</time>
      </trkpt>
      <trkpt lat="42.34431" lon="2.33932">
        <ele>1508.2</ele>
        <time>2019-01-07T21:47:48Z</time>
      </trkpt>
      <trkpt lat="42.34433" lon="2.33934">
        <ele>1507.7</ele>
        <time>2019-01-07T21:47:48Z</time>
      </trkpt>
      <trkpt lat="42.34435" lon="2.33936">
        <ele>1507.4</ele>
        <time>2019-01-07T21:47:49Z</time>
      </trkpt>
      <trkpt lat="42.34437" lon="2.33938">
        <ele>1507.1</ele>
        <time>2019-01-07T21:47:50Z</time>
      </trkpt>
      <trkpt lat="42.34439" lon="2.3394">
        <ele>1506.8</ele>
        <time>2019-01-07T21:47:51Z</time>
      </trkpt>
      <trkpt lat="42.34441" lon="2.33942">
        <ele>1506.5</ele>
        <time>2019-01-07T21:47:51Z</time>
      </trkpt>
      <trkpt lat="42.34443" lon="2.33944">
        <ele>1506.1</ele>
        <time>2019-01-07T21:47:52Z</time>
      </trkpt>
      <trkpt lat="42.34446" lon="2.33947">
        <ele>1505.9</ele>
        <time>2019-01-07T21:47:53Z</time>
      </trkpt>
      <trkpt lat="42.34448" lon="2.33949">
        <ele>1505.8</ele>
        <time>2019-01-07T21:47:53Z</time>
      </trkpt>
      <trkpt lat="42.3445" lon="2.33951">
        <ele>1505.7</ele>
        <time>2019-01-07T21:47:54Z</time>
      </trkpt>
      <trkpt lat="42.34452" lon="2.33954">
        <ele>1505.7</ele>
        <time>2019-01-07T21:47:55Z</time>
      </trkpt>
      <trkpt lat="42.34454" lon="2.33956">
        <ele>1505.7</ele>
        <time>2019-01-07T21:47:56Z</time>
      </trkpt>
      <trkpt lat="42.34458" lon="2.33961">
        <ele>1505.3</ele>
        <time>2019-01-07T21:47:57Z</time>
      </trkpt>
      <trkpt lat="42.3446" lon="2.33964">
        <ele>1505.2</ele>
        <time>2019-01-07T21:47:58Z</time>
      </trkpt>
      <trkpt lat="42.34461" lon="2.33967">
        <ele>1505</ele>
        <time>2019-01-07T21:47:58Z</time>
      </trkpt>
      <trkpt lat="42.34462" lon="2.3397">
        <ele>1504.7</ele>
        <time>2019-01-07T21:47:59Z</time>
      </trkpt>
      <trkpt lat="42.34464" lon="2.33973">
        <ele>1504.4</ele>
        <time>2019-01-07T21:48:00Z</time>
      </trkpt>
      <trkpt lat="42.34465" lon="2.33976">
        <ele>1504.4</ele>
        <time>2019-01-07T21:48:01Z</time>
      </trkpt>
      <trkpt lat="42.34465" lon="2.33979">
        <ele>1504.3</ele>
        <time>2019-01-07T21:48:01Z</time>
      </trkpt>
      <trkpt lat="42.34466" lon="2.33982">
        <ele>1503.9</ele>
        <time>2019-01-07T21:48:02Z</time>
      </trkpt>
      <trkpt lat="42.34466" lon="2.33985">
        <ele>1503.8</ele>
        <time>2019-01-07T21:48:02Z</time>
      </trkpt>
      <trkpt lat="42.34466" lon="2.33988">
        <ele>1503.4</ele>
        <time>2019-01-07T21:48:03Z</time>
      </trkpt>
      <trkpt lat="42.34467" lon="2.33991">
        <ele>1503.2</ele>
        <time>2019-01-07T21:48:04Z</time>
      </trkpt>
      <trkpt lat="42.34467" lon="2.33994">
        <ele>1503</ele>
        <time>2019-01-07T21:48:04Z</time>
      </trkpt>
      <trkpt lat="42.34468" lon="2.33998">
        <ele>1502.6</ele>
        <time>2019-01-07T21:48:05Z</time>
      </trkpt>
      <trkpt lat="42.34469" lon="2.34001">
        <ele>1502.5</ele>
        <time>2019-01-07T21:48:06Z</time>
      </trkpt>
      <trkpt lat="42.34469" lon="2.34004">
        <ele>1502.1</ele>
        <time>2019-01-07T21:48:06Z</time>
      </trkpt>
      <trkpt lat="42.3447" lon="2.34007">
        <ele>1501.7</ele>
        <time>2019-01-07T21:48:07Z</time>
      </trkpt>
      <trkpt lat="42.34471" lon="2.3401">
        <ele>1501.3</ele>
        <time>2019-01-07T21:48:07Z</time>
      </trkpt>
      <trkpt lat="42.34472" lon="2.34013">
        <ele>1501.1</ele>
        <time>2019-01-07T21:48:08Z</time>
      </trkpt>
      <trkpt lat="42.34473" lon="2.34016">
        <ele>1500.9</ele>
        <time>2019-01-07T21:48:09Z</time>
      </trkpt>
      <trkpt lat="42.34473" lon="2.34019">
        <ele>1500.5</ele>
        <time>2019-01-07T21:48:09Z</time>
      </trkpt>
      <trkpt lat="42.34474" lon="2.34022">
        <ele>1500</ele>
        <time>2019-01-07T21:48:10Z</time>
      </trkpt>
      <trkpt lat="42.34475" lon="2.34024">
        <ele>1499.7</ele>
        <time>2019-01-07T21:48:11Z</time>
      </trkpt>
      <trkpt lat="42.34477" lon="2.34027">
        <ele>1499.4</ele>
        <time>2019-01-07T21:48:11Z</time>
      </trkpt>
      <trkpt lat="42.34479" lon="2.3403">
        <ele>1498.8</ele>
        <time>2019-01-07T21:48:12Z</time>
      </trkpt>
      <trkpt lat="42.3448" lon="2.34032">
        <ele>1498.3</ele>
        <time>2019-01-07T21:48:13Z</time>
      </trkpt>
      <trkpt lat="42.34482" lon="2.34035">
        <ele>1497.6</ele>
        <time>2019-01-07T21:48:13Z</time>
      </trkpt>
      <trkpt lat="42.34484" lon="2.34038">
        <ele>1497</ele>
        <time>2019-01-07T21:48:14Z</time>
      </trkpt>
      <trkpt lat="42.34485" lon="2.3404">
        <ele>1496.4</ele>
        <time>2019-01-07T21:48:15Z</time>
      </trkpt>
      <trkpt lat="42.34487" lon="2.34043">
        <ele>1495.8</ele>
        <time>2019-01-07T21:48:15Z</time>
      </trkpt>
      <trkpt lat="42.34489" lon="2.34045">
        <ele>1495.4</ele>
        <time>2019-01-07T21:48:16Z</time>
      </trkpt>
      <trkpt lat="42.34491" lon="2.34047">
        <ele>1495</ele>
        <time>2019-01-07T21:48:17Z</time>
      </trkpt>
      <trkpt lat="42.34493" lon="2.34049">
        <ele>1494.8</ele>
        <time>2019-01-07T21:48:17Z</time>
      </trkpt>
      <trkpt lat="42.34495" lon="2.34051">
        <ele>1494.7</ele>
        <time>2019-01-07T21:48:18Z</time>
      </trkpt>
      <trkpt lat="42.34498" lon="2.34052">
        <ele>1494.6</ele>
        <time>2019-01-07T21:48:19Z</time>
      </trkpt>
      <trkpt lat="42.345" lon="2.34053">
        <ele>1494.5</ele>
        <time>2019-01-07T21:48:19Z</time>
      </trkpt>
      <trkpt lat="42.34502" lon="2.34055">
        <ele>1494.5</ele>
        <time>2019-01-07T21:48:20Z</time>
      </trkpt>
      <trkpt lat="42.34505" lon="2.34057">
        <ele>1494.1</ele>
        <time>2019-01-07T21:48:21Z</time>
      </trkpt>
      <trkpt lat="42.34507" lon="2.34059">
        <ele>1493.9</ele>
        <time>2019-01-07T21:48:22Z</time>
      </trkpt>
      <trkpt lat="42.3451" lon="2.3406">
        <ele>1493.6</ele>
        <time>2019-01-07T21:48:22Z</time>
      </trkpt>
      <trkpt lat="42.34512" lon="2.34062">
        <ele>1493.5</ele>
        <time>2019-01-07T21:48:23Z</time>
      </trkpt>
      <trkpt lat="42.34514" lon="2.34063">
        <ele>1493.5</ele>
        <time>2019-01-07T21:48:24Z</time>
      </trkpt>
      <trkpt lat="42.34516" lon="2.34065">
        <ele>1493.3</ele>
        <time>2019-01-07T21:48:24Z</time>
      </trkpt>
      <trkpt lat="42.34518" lon="2.34068">
        <ele>1493</ele>
        <time>2019-01-07T21:48:25Z</time>
      </trkpt>
      <trkpt lat="42.3452" lon="2.34071">
        <ele>1492.4</ele>
        <time>2019-01-07T21:48:26Z</time>
      </trkpt>
      <trkpt lat="42.34521" lon="2.34074">
        <ele>1492.1</ele>
        <time>2019-01-07T21:48:27Z</time>
      </trkpt>
      <trkpt lat="42.34523" lon="2.34076">
        <ele>1491.6</ele>
        <time>2019-01-07T21:48:27Z</time>
      </trkpt>
      <trkpt lat="42.34524" lon="2.34079">
        <ele>1491.4</ele>
        <time>2019-01-07T21:48:28Z</time>
      </trkpt>
      <trkpt lat="42.34526" lon="2.34082">
        <ele>1491.2</ele>
        <time>2019-01-07T21:48:29Z</time>
      </trkpt>
      <trkpt lat="42.34527" lon="2.34085">
        <ele>1490.7</ele>
        <time>2019-01-07T21:48:29Z</time>
      </trkpt>
      <trkpt lat="42.34529" lon="2.34088">
        <ele>1490.5</ele>
        <time>2019-01-07T21:48:30Z</time>
      </trkpt>
      <trkpt lat="42.3453" lon="2.34091">
        <ele>1490</ele>
        <time>2019-01-07T21:48:31Z</time>
      </trkpt>
      <trkpt lat="42.34531" lon="2.34094">
        <ele>1489.5</ele>
        <time>2019-01-07T21:48:31Z</time>
      </trkpt>
      <trkpt lat="42.34533" lon="2.34097">
        <ele>1489.2</ele>
        <time>2019-01-07T21:48:32Z</time>
      </trkpt>
      <trkpt lat="42.34535" lon="2.341">
        <ele>1488.9</ele>
        <time>2019-01-07T21:48:33Z</time>
      </trkpt>
      <trkpt lat="42.34536" lon="2.34103">
        <ele>1488.5</ele>
        <time>2019-01-07T21:48:33Z</time>
      </trkpt>
      <trkpt lat="42.34537" lon="2.34106">
        <ele>1488.1</ele>
        <time>2019-01-07T21:48:34Z</time>
      </trkpt>
      <trkpt lat="42.34538" lon="2.34109">
        <ele>1487.5</ele>
        <time>2019-01-07T21:48:35Z</time>
      </trkpt>
      <trkpt lat="42.34539" lon="2.34112">
        <ele>1487.1</ele>
        <time>2019-01-07T21:48:36Z</time>
      </trkpt>
      <trkpt lat="42.34541" lon="2.34115">
        <ele>1486.7</ele>
        <time>2019-01-07T21:48:36Z</time>
      </trkpt>
      <trkpt lat="42.34542" lon="2.34118">
        <ele>1486.3</ele>
        <time>2019-01-07T21:48:37Z</time>
      </trkpt>
      <trkpt lat="42.34544" lon="2.34121">
        <ele>1486</ele>
        <time>2019-01-07T21:48:38Z</time>
      </trkpt>
      <trkpt lat="42.34545" lon="2.34123">
        <ele>1485.5</ele>
        <time>2019-01-07T21:48:38Z</time>
      </trkpt>
      <trkpt lat="42.34547" lon="2.34126">
        <ele>1485</ele>
        <time>2019-01-07T21:48:39Z</time>
      </trkpt>
      <trkpt lat="42.34549" lon="2.34129">
        <ele>1484.7</ele>
        <time>2019-01-07T21:48:40Z</time>
      </trkpt>
      <trkpt lat="42.3455" lon="2.34131">
        <ele>1484.3</ele>
        <time>2019-01-07T21:48:40Z</time>
      </trkpt>
      <trkpt lat="42.34552" lon="2.34134">
        <ele>1483.8</ele>
        <time>2019-01-07T21:48:41Z</time>
      </trkpt>
      <trkpt lat="42.34553" lon="2.34136">
        <ele>1483.6</ele>
        <time>2019-01-07T21:48:42Z</time>
      </trkpt>
      <trkpt lat="42.34555" lon="2.34139">
        <ele>1483.1</ele>
        <time>2019-01-07T21:48:42Z</time>
      </trkpt>
      <trkpt lat="42.34557" lon="2.34141">
        <ele>1482.9</ele>
        <time>2019-01-07T21:48:43Z</time>
      </trkpt>
      <trkpt lat="42.3456" lon="2.34144">
        <ele>1482.6</ele>
        <time>2019-01-07T21:48:44Z</time>
      </trkpt>
      <trkpt lat="42.34561" lon="2.34146">
        <ele>1482.4</ele>
        <time>2019-01-07T21:48:44Z</time>
      </trkpt>
      <trkpt lat="42.34563" lon="2.34148">
        <ele>1482.2</ele>
        <time>2019-01-07T21:48:45Z</time>
      </trkpt>
      <trkpt lat="42.34565" lon="2.34151">
        <ele>1481.9</ele>
        <time>2019-01-07T21:48:46Z</time>
      </trkpt>
      <trkpt lat="42.34568" lon="2.34153">
        <ele>1481.6</ele>
        <time>2019-01-07T21:48:47Z</time>
      </trkpt>
      <trkpt lat="42.3457" lon="2.34155">
        <ele>1481.4</ele>
        <time>2019-01-07T21:48:47Z</time>
      </trkpt>
      <trkpt lat="42.34572" lon="2.34157">
        <ele>1481.2</ele>
        <time>2019-01-07T21:48:48Z</time>
      </trkpt>
      <trkpt lat="42.34574" lon="2.3416">
        <ele>1480.8</ele>
        <time>2019-01-07T21:48:49Z</time>
      </trkpt>
      <trkpt lat="42.34576" lon="2.34162">
        <ele>1480.7</ele>
        <time>2019-01-07T21:48:50Z</time>
      </trkpt>
      <trkpt lat="42.34579" lon="2.34164">
        <ele>1480.3</ele>
        <time>2019-01-07T21:48:50Z</time>
      </trkpt>
      <trkpt lat="42.34581" lon="2.34166">
        <ele>1480</ele>
        <time>2019-01-07T21:48:51Z</time>
      </trkpt>
      <trkpt lat="42.34583" lon="2.34168">
        <ele>1479.8</ele>
        <time>2019-01-07T21:48:52Z</time>
      </trkpt>
      <trkpt lat="42.34585" lon="2.34171">
        <ele>1479.5</ele>
        <time>2019-01-07T21:48:52Z</time>
      </trkpt>
      <trkpt lat="42.34587" lon="2.34173">
        <ele>1479.2</ele>
        <time>2019-01-07T21:48:53Z</time>
      </trkpt>
      <trkpt lat="42.34589" lon="2.34175">
        <ele>1478.9</ele>
        <time>2019-01-07T21:48:54Z</time>
      </trkpt>
      <trkpt lat="42.3459" lon="2.34178">
        <ele>1478.5</ele>
        <time>2019-01-07T21:48:54Z</time>
      </trkpt>
      <trkpt lat="42.34592" lon="2.3418">
        <ele>1478</ele>
        <time>2019-01-07T21:48:55Z</time>
      </trkpt>
      <trkpt lat="42.34594" lon="2.34182">
        <ele>1477.7</ele>
        <time>2019-01-07T21:48:56Z</time>
      </trkpt>
      <trkpt lat="42.34596" lon="2.34185">
        <ele>1477.2</ele>
        <time>2019-01-07T21:48:56Z</time>
      </trkpt>
      <trkpt lat="42.34597" lon="2.34187">
        <ele>1477</ele>
        <time>2019-01-07T21:48:57Z</time>
      </trkpt>
      <trkpt lat="42.34599" lon="2.34189">
        <ele>1476.7</ele>
        <time>2019-01-07T21:48:58Z</time>
      </trkpt>
      <trkpt lat="42.34601" lon="2.34192">
        <ele>1476.2</ele>
        <time>2019-01-07T21:48:59Z</time>
      </trkpt>
      <trkpt lat="42.34603" lon="2.34194">
        <ele>1475.8</ele>
        <time>2019-01-07T21:48:59Z</time>
      </trkpt>
      <trkpt lat="42.34605" lon="2.34197">
        <ele>1475.5</ele>
        <time>2019-01-07T21:49:00Z</time>
      </trkpt>
      <trkpt lat="42.34607" lon="2.34199">
        <ele>1475.2</ele>
        <time>2019-01-07T21:49:01Z</time>
      </trkpt>
      <trkpt lat="42.3461" lon="2.34201">
        <ele>1474.9</ele>
        <time>2019-01-07T21:49:01Z</time>
      </trkpt>
      <trkpt lat="42.34612" lon="2.34203">
        <ele>1474.5</ele>
        <time>2019-01-07T21:49:02Z</time>
      </trkpt>
      <trkpt lat="42.34614" lon="2.34205">
        <ele>1474.2</ele>
        <time>2019-01-07T21:49:03Z</time>
      </trkpt>
      <trkpt lat="42.34616" lon="2.34207">
        <ele>1474</ele>
        <time>2019-01-07T21:49:03Z</time>
      </trkpt>
      <trkpt lat="42.34618" lon="2.34208">
        <ele>1473.6</ele>
        <time>2019-01-07T21:49:04Z</time>
      </trkpt>
      <trkpt lat="42.3462" lon="2.3421">
        <ele>1473.4</ele>
        <time>2019-01-07T21:49:05Z</time>
      </trkpt>
      <trkpt lat="42.34623" lon="2.34213">
        <ele>1473</ele>
        <time>2019-01-07T21:49:06Z</time>
      </trkpt>
      <trkpt lat="42.34625" lon="2.34214">
        <ele>1472.7</ele>
        <time>2019-01-07T21:49:06Z</time>
      </trkpt>
      <trkpt lat="42.34627" lon="2.34216">
        <ele>1472.3</ele>
        <time>2019-01-07T21:49:07Z</time>
      </trkpt>
      <trkpt lat="42.34629" lon="2.34218">
        <ele>1472</ele>
        <time>2019-01-07T21:49:08Z</time>
      </trkpt>
      <trkpt lat="42.34632" lon="2.3422">
        <ele>1471.5</ele>
        <time>2019-01-07T21:49:08Z</time>
      </trkpt>
      <trkpt lat="42.34634" lon="2.34222">
        <ele>1471.1</ele>
        <time>2019-01-07T21:49:09Z</time>
      </trkpt>
      <trkpt lat="42.34636" lon="2.34223">
        <ele>1470.9</ele>
        <time>2019-01-07T21:49:10Z</time>
      </trkpt>
      <trkpt lat="42.34638" lon="2.34225">
        <ele>1470.7</ele>
        <time>2019-01-07T21:49:10Z</time>
      </trkpt>
      <trkpt lat="42.3464" lon="2.34226">
        <ele>1470.4</ele>
        <time>2019-01-07T21:49:11Z</time>
      </trkpt>
      <trkpt lat="42.34642" lon="2.34228">
        <ele>1470.1</ele>
        <time>2019-01-07T21:49:12Z</time>
      </trkpt>
      <trkpt lat="42.34644" lon="2.34229">
        <ele>1469.8</ele>
        <time>2019-01-07T21:49:12Z</time>
      </trkpt>
      <trkpt lat="42.34647" lon="2.3423">
        <ele>1469.6</ele>
        <time>2019-01-07T21:49:13Z</time>
      </trkpt>
      <trkpt lat="42.34649" lon="2.34231">
        <ele>1469.4</ele>
        <time>2019-01-07T21:49:13Z</time>
      </trkpt>
      <trkpt lat="42.34651" lon="2.34233">
        <ele>1469</ele>
        <time>2019-01-07T21:49:14Z</time>
      </trkpt>
      <trkpt lat="42.34653" lon="2.34234">
        <ele>1468.7</ele>
        <time>2019-01-07T21:49:15Z</time>
      </trkpt>
      <trkpt lat="42.34656" lon="2.34235">
        <ele>1468.6</ele>
        <time>2019-01-07T21:49:15Z</time>
      </trkpt>
      <trkpt lat="42.34658" lon="2.34236">
        <ele>1468.1</ele>
        <time>2019-01-07T21:49:16Z</time>
      </trkpt>
      <trkpt lat="42.3466" lon="2.34237">
        <ele>1467.9</ele>
        <time>2019-01-07T21:49:17Z</time>
      </trkpt>
      <trkpt lat="42.34663" lon="2.34238">
        <ele>1467.6</ele>
        <time>2019-01-07T21:49:18Z</time>
      </trkpt>
      <trkpt lat="42.34666" lon="2.34239">
        <ele>1467.4</ele>
        <time>2019-01-07T21:49:18Z</time>
      </trkpt>
      <trkpt lat="42.34668" lon="2.3424">
        <ele>1467.2</ele>
        <time>2019-01-07T21:49:19Z</time>
      </trkpt>
      <trkpt lat="42.34671" lon="2.34241">
        <ele>1466.5</ele>
        <time>2019-01-07T21:49:20Z</time>
      </trkpt>
      <trkpt lat="42.34674" lon="2.34243">
        <ele>1466.1</ele>
        <time>2019-01-07T21:49:20Z</time>
      </trkpt>
      <trkpt lat="42.34676" lon="2.34243">
        <ele>1465.8</ele>
        <time>2019-01-07T21:49:21Z</time>
      </trkpt>
      <trkpt lat="42.34679" lon="2.34244">
        <ele>1465.5</ele>
        <time>2019-01-07T21:49:22Z</time>
      </trkpt>
      <trkpt lat="42.34681" lon="2.34244">
        <ele>1465.3</ele>
        <time>2019-01-07T21:49:22Z</time>
      </trkpt>
      <trkpt lat="42.34684" lon="2.34244">
        <ele>1465.1</ele>
        <time>2019-01-07T21:49:23Z</time>
      </trkpt>
      <trkpt lat="42.34686" lon="2.34243">
        <ele>1465</ele>
        <time>2019-01-07T21:49:24Z</time>
      </trkpt>
      <trkpt lat="42.34688" lon="2.34243">
        <ele>1464.7</ele>
        <time>2019-01-07T21:49:24Z</time>
      </trkpt>
      <trkpt lat="42.3469" lon="2.34243">
        <ele>1464.7</ele>
        <time>2019-01-07T21:49:25Z</time>
      </trkpt>
      <trkpt lat="42.34693" lon="2.34243">
        <ele>1464.6</ele>
        <time>2019-01-07T21:49:26Z</time>
      </trkpt>
      <trkpt lat="42.34695" lon="2.34242">
        <ele>1464.4</ele>
        <time>2019-01-07T21:49:26Z</time>
      </trkpt>
      <trkpt lat="42.34697" lon="2.34242">
        <ele>1464.3</ele>
        <time>2019-01-07T21:49:27Z</time>
      </trkpt>
      <trkpt lat="42.34699" lon="2.34242">
        <ele>1464</ele>
        <time>2019-01-07T21:49:27Z</time>
      </trkpt>
      <trkpt lat="42.34701" lon="2.34244">
        <ele>1463.5</ele>
        <time>2019-01-07T21:49:28Z</time>
      </trkpt>
      <trkpt lat="42.34702" lon="2.34246">
        <ele>1462.8</ele>
        <time>2019-01-07T21:49:29Z</time>
      </trkpt>
      <trkpt lat="42.34703" lon="2.3425">
        <ele>1462.3</ele>
        <time>2019-01-07T21:49:29Z</time>
      </trkpt>
      <trkpt lat="42.34702" lon="2.34253">
        <ele>1461.7</ele>
        <time>2019-01-07T21:49:30Z</time>
      </trkpt>
      <trkpt lat="42.34701" lon="2.34257">
        <ele>1461.2</ele>
        <time>2019-01-07T21:49:31Z</time>
      </trkpt>
      <trkpt lat="42.34699" lon="2.3426">
        <ele>1460.8</ele>
        <time>2019-01-07T21:49:31Z</time>
      </trkpt>
      <trkpt lat="42.34698" lon="2.34263">
        <ele>1460.4</ele>
        <time>2019-01-07T21:49:32Z</time>
      </trkpt>
      <trkpt lat="42.34696" lon="2.34265">
        <ele>1460.1</ele>
        <time>2019-01-07T21:49:33Z</time>
      </trkpt>
      <trkpt lat="42.34695" lon="2.34268">
        <ele>1459.8</ele>
        <time>2019-01-07T21:49:33Z</time>
      </trkpt>
      <trkpt lat="42.34693" lon="2.3427">
        <ele>1459.6</ele>
        <time>2019-01-07T21:49:34Z</time>
      </trkpt>
      <trkpt lat="42.34691" lon="2.34272">
        <ele>1459.4</ele>
        <time>2019-01-07T21:49:35Z</time>
      </trkpt>
      <trkpt lat="42.34688" lon="2.34275">
        <ele>1459</ele>
        <time>2019-01-07T21:49:36Z</time>
      </trkpt>
      <trkpt lat="42.34686" lon="2.34277">
        <ele>1458.9</ele>
        <time>2019-01-07T21:49:36Z</time>
      </trkpt>
      <trkpt lat="42.34684" lon="2.3428">
        <ele>1458.5</ele>
        <time>2019-01-07T21:49:37Z</time>
      </trkpt>
      <trkpt lat="42.34682" lon="2.34283">
        <ele>1458.1</ele>
        <time>2019-01-07T21:49:38Z</time>
      </trkpt>
      <trkpt lat="42.3468" lon="2.34286">
        <ele>1457.7</ele>
        <time>2019-01-07T21:49:39Z</time>
      </trkpt>
      <trkpt lat="42.34678" lon="2.34289">
        <ele>1457.5</ele>
        <time>2019-01-07T21:49:39Z</time>
      </trkpt>
      <trkpt lat="42.34677" lon="2.34292">
        <ele>1457.3</ele>
        <time>2019-01-07T21:49:40Z</time>
      </trkpt>
      <trkpt lat="42.34675" lon="2.34295">
        <ele>1456.8</ele>
        <time>2019-01-07T21:49:41Z</time>
      </trkpt>
      <trkpt lat="42.34674" lon="2.34298">
        <ele>1456.5</ele>
        <time>2019-01-07T21:49:42Z</time>
      </trkpt>
      <trkpt lat="42.34672" lon="2.343">
        <ele>1456.4</ele>
        <time>2019-01-07T21:49:42Z</time>
      </trkpt>
      <trkpt lat="42.34671" lon="2.34302">
        <ele>1456.3</ele>
        <time>2019-01-07T21:49:43Z</time>
      </trkpt>
      <trkpt lat="42.34669" lon="2.34304">
        <ele>1456.2</ele>
        <time>2019-01-07T21:49:43Z</time>
      </trkpt>
      <trkpt lat="42.34666" lon="2.34306">
        <ele>1456.1</ele>
        <time>2019-01-07T21:49:44Z</time>
      </trkpt>
      <trkpt lat="42.34664" lon="2.34308">
        <ele>1455.7</ele>
        <time>2019-01-07T21:49:45Z</time>
      </trkpt>
      <trkpt lat="42.34661" lon="2.34311">
        <ele>1455.2</ele>
        <time>2019-01-07T21:49:46Z</time>
      </trkpt>
      <trkpt lat="42.34659" lon="2.34313">
        <ele>1454.6</ele>
        <time>2019-01-07T21:49:46Z</time>
      </trkpt>
      <trkpt lat="42.34658" lon="2.34315">
        <ele>1454.2</ele>
        <time>2019-01-07T21:49:47Z</time>
      </trkpt>
      <trkpt lat="42.34656" lon="2.34317">
        <ele>1453.9</ele>
        <time>2019-01-07T21:49:48Z</time>
      </trkpt>
      <trkpt lat="42.34653" lon="2.34319">
        <ele>1453.6</ele>
        <time>2019-01-07T21:49:49Z</time>
      </trkpt>
      <trkpt lat="42.3465" lon="2.34321">
        <ele>1453.2</ele>
        <time>2019-01-07T21:49:49Z</time>
      </trkpt>
      <trkpt lat="42.34647" lon="2.34323">
        <ele>1453.1</ele>
        <time>2019-01-07T21:49:50Z</time>
      </trkpt>
      <trkpt lat="42.34644" lon="2.34324">
        <ele>1452.7</ele>
        <time>2019-01-07T21:49:51Z</time>
      </trkpt>
      <trkpt lat="42.34642" lon="2.34326">
        <ele>1452.5</ele>
        <time>2019-01-07T21:49:52Z</time>
      </trkpt>
      <trkpt lat="42.34639" lon="2.34329">
        <ele>1451.9</ele>
        <time>2019-01-07T21:49:53Z</time>
      </trkpt>
      <trkpt lat="42.34636" lon="2.34331">
        <ele>1451.5</ele>
        <time>2019-01-07T21:49:54Z</time>
      </trkpt>
      <trkpt lat="42.34634" lon="2.34333">
        <ele>1451.4</ele>
        <time>2019-01-07T21:49:54Z</time>
      </trkpt>
      <trkpt lat="42.34632" lon="2.34334">
        <ele>1450.8</ele>
        <time>2019-01-07T21:49:55Z</time>
      </trkpt>
      <trkpt lat="42.3463" lon="2.34336">
        <ele>1450.5</ele>
        <time>2019-01-07T21:49:56Z</time>
      </trkpt>
      <trkpt lat="42.34628" lon="2.34338">
        <ele>1450.3</ele>
        <time>2019-01-07T21:49:56Z</time>
      </trkpt>
      <trkpt lat="42.34625" lon="2.34339">
        <ele>1450</ele>
        <time>2019-01-07T21:49:57Z</time>
      </trkpt>
      <trkpt lat="42.34623" lon="2.34341">
        <ele>1449.8</ele>
        <time>2019-01-07T21:49:58Z</time>
      </trkpt>
      <trkpt lat="42.34621" lon="2.34342">
        <ele>1449.5</ele>
        <time>2019-01-07T21:49:58Z</time>
      </trkpt>
      <trkpt lat="42.34619" lon="2.34344">
        <ele>1449.1</ele>
        <time>2019-01-07T21:49:59Z</time>
      </trkpt>
      <trkpt lat="42.34616" lon="2.34345">
        <ele>1449</ele>
        <time>2019-01-07T21:50:00Z</time>
      </trkpt>
      <trkpt lat="42.34614" lon="2.34346">
        <ele>1448.8</ele>
        <time>2019-01-07T21:50:00Z</time>
      </trkpt>
      <trkpt lat="42.34611" lon="2.34348">
        <ele>1448.3</ele>
        <time>2019-01-07T21:50:01Z</time>
      </trkpt>
      <trkpt lat="42.34609" lon="2.34349">
        <ele>1448.1</ele>
        <time>2019-01-07T21:50:02Z</time>
      </trkpt>
      <trkpt lat="42.34606" lon="2.3435">
        <ele>1447.6</ele>
        <time>2019-01-07T21:50:03Z</time>
      </trkpt>
      <trkpt lat="42.34604" lon="2.34351">
        <ele>1447.4</ele>
        <time>2019-01-07T21:50:03Z</time>
      </trkpt>
      <trkpt lat="42.34601" lon="2.34352">
        <ele>1447</ele>
        <time>2019-01-07T21:50:04Z</time>
      </trkpt>
      <trkpt lat="42.34599" lon="2.34353">
        <ele>1446.8</ele>
        <time>2019-01-07T21:50:05Z</time>
      </trkpt>
      <trkpt lat="42.34596" lon="2.34353">
        <ele>1446.5</ele>
        <time>2019-01-07T21:50:05Z</time>
      </trkpt>
      <trkpt lat="42.34594" lon="2.34353">
        <ele>1446.2</ele>
        <time>2019-01-07T21:50:06Z</time>
      </trkpt>
      <trkpt lat="42.34591" lon="2.34354">
        <ele>1445.9</ele>
        <time>2019-01-07T21:50:07Z</time>
      </trkpt>
      <trkpt lat="42.34589" lon="2.34354">
        <ele>1445.6</ele>
        <time>2019-01-07T21:50:07Z</time>
      </trkpt>
      <trkpt lat="42.34586" lon="2.34355">
        <ele>1445.5</ele>
        <time>2019-01-07T21:50:08Z</time>
      </trkpt>
      <trkpt lat="42.34584" lon="2.34356">
        <ele>1445.1</ele>
        <time>2019-01-07T21:50:09Z</time>
      </trkpt>
      <trkpt lat="42.34581" lon="2.34356">
        <ele>1445</ele>
        <time>2019-01-07T21:50:09Z</time>
      </trkpt>
      <trkpt lat="42.34578" lon="2.34357">
        <ele>1444.7</ele>
        <time>2019-01-07T21:50:10Z</time>
      </trkpt>
      <trkpt lat="42.34576" lon="2.34357">
        <ele>1444.5</ele>
        <time>2019-01-07T21:50:11Z</time>
      </trkpt>
      <trkpt lat="42.34573" lon="2.34358">
        <ele>1444.2</ele>
        <time>2019-01-07T21:50:12Z</time>
      </trkpt>
      <trkpt lat="42.34571" lon="2.34358">
        <ele>1444</ele>
        <time>2019-01-07T21:50:12Z</time>
      </trkpt>
      <trkpt lat="42.34568" lon="2.34359">
        <ele>1444</ele>
        <time>2019-01-07T21:50:13Z</time>
      </trkpt>
      <trkpt lat="42.34566" lon="2.34359">
        <ele>1443.9</ele>
        <time>2019-01-07T21:50:14Z</time>
      </trkpt>
      <trkpt lat="42.34563" lon="2.34359">
        <ele>1443.6</ele>
        <time>2019-01-07T21:50:14Z</time>
      </trkpt>
      <trkpt lat="42.3456" lon="2.3436">
        <ele>1443.5</ele>
        <time>2019-01-07T21:50:15Z</time>
      </trkpt>
      <trkpt lat="42.34558" lon="2.3436">
        <ele>1443.2</ele>
        <time>2019-01-07T21:50:16Z</time>
      </trkpt>
      <trkpt lat="42.34555" lon="2.34361">
        <ele>1443.1</ele>
        <time>2019-01-07T21:50:16Z</time>
      </trkpt>
      <trkpt lat="42.34553" lon="2.34362">
        <ele>1442.7</ele>
        <time>2019-01-07T21:50:17Z</time>
      </trkpt>
      <trkpt lat="42.3455" lon="2.34362">
        <ele>1442.6</ele>
        <time>2019-01-07T21:50:18Z</time>
      </trkpt>
      <trkpt lat="42.34548" lon="2.34362">
        <ele>1442.4</ele>
        <time>2019-01-07T21:50:18Z</time>
      </trkpt>
      <trkpt lat="42.34545" lon="2.34363">
        <ele>1442</ele>
        <time>2019-01-07T21:50:19Z</time>
      </trkpt>
      <trkpt lat="42.34543" lon="2.34364">
        <ele>1441.6</ele>
        <time>2019-01-07T21:50:20Z</time>
      </trkpt>
      <trkpt lat="42.3454" lon="2.34365">
        <ele>1441.3</ele>
        <time>2019-01-07T21:50:20Z</time>
      </trkpt>
      <trkpt lat="42.34537" lon="2.34366">
        <ele>1440.9</ele>
        <time>2019-01-07T21:50:21Z</time>
      </trkpt>
      <trkpt lat="42.34535" lon="2.34367">
        <ele>1440.6</ele>
        <time>2019-01-07T21:50:22Z</time>
      </trkpt>
      <trkpt lat="42.34532" lon="2.34368">
        <ele>1440.2</ele>
        <time>2019-01-07T21:50:23Z</time>
      </trkpt>
      <trkpt lat="42.3453" lon="2.34369">
        <ele>1439.7</ele>
        <time>2019-01-07T21:50:23Z</time>
      </trkpt>
      <trkpt lat="42.34527" lon="2.3437">
        <ele>1439.3</ele>
        <time>2019-01-07T21:50:24Z</time>
      </trkpt>
      <trkpt lat="42.34525" lon="2.34371">
        <ele>1439.2</ele>
        <time>2019-01-07T21:50:25Z</time>
      </trkpt>
      <trkpt lat="42.34522" lon="2.34372">
        <ele>1439</ele>
        <time>2019-01-07T21:50:25Z</time>
      </trkpt>
      <trkpt lat="42.3452" lon="2.34372">
        <ele>1438.6</ele>
        <time>2019-01-07T21:50:26Z</time>
      </trkpt>
      <trkpt lat="42.34517" lon="2.34373">
        <ele>1438.5</ele>
        <time>2019-01-07T21:50:27Z</time>
      </trkpt>
      <trkpt lat="42.34515" lon="2.34374">
        <ele>1438</ele>
        <time>2019-01-07T21:50:27Z</time>
      </trkpt>
      <trkpt lat="42.34512" lon="2.34376">
        <ele>1437.6</ele>
        <time>2019-01-07T21:50:28Z</time>
      </trkpt>
      <trkpt lat="42.3451" lon="2.34377">
        <ele>1437.3</ele>
        <time>2019-01-07T21:50:29Z</time>
      </trkpt>
      <trkpt lat="42.34507" lon="2.34378">
        <ele>1437</ele>
        <time>2019-01-07T21:50:30Z</time>
      </trkpt>
      <trkpt lat="42.34505" lon="2.34379">
        <ele>1436.7</ele>
        <time>2019-01-07T21:50:30Z</time>
      </trkpt>
      <trkpt lat="42.34503" lon="2.34379">
        <ele>1436.6</ele>
        <time>2019-01-07T21:50:31Z</time>
      </trkpt>
      <trkpt lat="42.345" lon="2.3438">
        <ele>1436.3</ele>
        <time>2019-01-07T21:50:32Z</time>
      </trkpt>
      <trkpt lat="42.34497" lon="2.34381">
        <ele>1436.1</ele>
        <time>2019-01-07T21:50:32Z</time>
      </trkpt>
      <trkpt lat="42.34495" lon="2.34381">
        <ele>1435.8</ele>
        <time>2019-01-07T21:50:33Z</time>
      </trkpt>
      <trkpt lat="42.34492" lon="2.34382">
        <ele>1435.5</ele>
        <time>2019-01-07T21:50:34Z</time>
      </trkpt>
      <trkpt lat="42.3449" lon="2.34382">
        <ele>1435.4</ele>
        <time>2019-01-07T21:50:34Z</time>
      </trkpt>
      <trkpt lat="42.34488" lon="2.34383">
        <ele>1435.1</ele>
        <time>2019-01-07T21:50:35Z</time>
      </trkpt>
      <trkpt lat="42.34485" lon="2.34384">
        <ele>1434.8</ele>
        <time>2019-01-07T21:50:36Z</time>
      </trkpt>
      <trkpt lat="42.34483" lon="2.34384">
        <ele>1434.5</ele>
        <time>2019-01-07T21:50:36Z</time>
      </trkpt>
      <trkpt lat="42.3448" lon="2.34385">
        <ele>1434.1</ele>
        <time>2019-01-07T21:50:37Z</time>
      </trkpt>
      <trkpt lat="42.34478" lon="2.34386">
        <ele>1433.9</ele>
        <time>2019-01-07T21:50:38Z</time>
      </trkpt>
      <trkpt lat="42.34476" lon="2.34387">
        <ele>1433.8</ele>
        <time>2019-01-07T21:50:38Z</time>
      </trkpt>
      <trkpt lat="42.34473" lon="2.34387">
        <ele>1433.5</ele>
        <time>2019-01-07T21:50:39Z</time>
      </trkpt>
      <trkpt lat="42.34471" lon="2.34388">
        <ele>1433.1</ele>
        <time>2019-01-07T21:50:40Z</time>
      </trkpt>
      <trkpt lat="42.34468" lon="2.34388">
        <ele>1432.6</ele>
        <time>2019-01-07T21:50:40Z</time>
      </trkpt>
      <trkpt lat="42.34466" lon="2.34389">
        <ele>1432.3</ele>
        <time>2019-01-07T21:50:41Z</time>
      </trkpt>
      <trkpt lat="42.34463" lon="2.3439">
        <ele>1432</ele>
        <time>2019-01-07T21:50:42Z</time>
      </trkpt>
      <trkpt lat="42.34461" lon="2.3439">
        <ele>1431.7</ele>
        <time>2019-01-07T21:50:42Z</time>
      </trkpt>
      <trkpt lat="42.34458" lon="2.34391">
        <ele>1431.5</ele>
        <time>2019-01-07T21:50:43Z</time>
      </trkpt>
      <trkpt lat="42.34456" lon="2.34391">
        <ele>1431.1</ele>
        <time>2019-01-07T21:50:44Z</time>
      </trkpt>
      <trkpt lat="42.34453" lon="2.34391">
        <ele>1430.8</ele>
        <time>2019-01-07T21:50:44Z</time>
      </trkpt>
      <trkpt lat="42.34451" lon="2.34391">
        <ele>1430.5</ele>
        <time>2019-01-07T21:50:45Z</time>
      </trkpt>
      <trkpt lat="42.34448" lon="2.34392">
        <ele>1430.3</ele>
        <time>2019-01-07T21:50:46Z</time>
      </trkpt>
      <trkpt lat="42.34446" lon="2.34393">
        <ele>1429.8</ele>
        <time>2019-01-07T21:50:46Z</time>
      </trkpt>
      <trkpt lat="42.34443" lon="2.34393">
        <ele>1429.5</ele>
        <time>2019-01-07T21:50:47Z</time>
      </trkpt>
      <trkpt lat="42.34441" lon="2.34394">
        <ele>1429.3</ele>
        <time>2019-01-07T21:50:48Z</time>
      </trkpt>
      <trkpt lat="42.34438" lon="2.34394">
        <ele>1429.1</ele>
        <time>2019-01-07T21:50:48Z</time>
      </trkpt>
      <trkpt lat="42.34436" lon="2.34394">
        <ele>1428.8</ele>
        <time>2019-01-07T21:50:49Z</time>
      </trkpt>
      <trkpt lat="42.34433" lon="2.34395">
        <ele>1428.8</ele>
        <time>2019-01-07T21:50:50Z</time>
      </trkpt>
      <trkpt lat="42.34431" lon="2.34396">
        <ele>1428.4</ele>
        <time>2019-01-07T21:50:50Z</time>
      </trkpt>
      <trkpt lat="42.34421" lon="2.34398">
        <ele>1427.5</ele>
        <time>2019-01-07T21:50:53Z</time>
      </trkpt>
      <trkpt lat="42.34419" lon="2.34399">
        <ele>1427.2</ele>
        <time>2019-01-07T21:50:54Z</time>
      </trkpt>
      <trkpt lat="42.34414" lon="2.34399">
        <ele>1426.7</ele>
        <time>2019-01-07T21:50:55Z</time>
      </trkpt>
      <trkpt lat="42.34412" lon="2.34399">
        <ele>1426.4</ele>
        <time>2019-01-07T21:50:56Z</time>
      </trkpt>
      <trkpt lat="42.34409" lon="2.344">
        <ele>1426.1</ele>
        <time>2019-01-07T21:50:56Z</time>
      </trkpt>
      <trkpt lat="42.34407" lon="2.34401">
        <ele>1425.9</ele>
        <time>2019-01-07T21:50:57Z</time>
      </trkpt>
      <trkpt lat="42.34404" lon="2.34401">
        <ele>1425.4</ele>
        <time>2019-01-07T21:50:58Z</time>
      </trkpt>
      <trkpt lat="42.34402" lon="2.34402">
        <ele>1425.1</ele>
        <time>2019-01-07T21:50:58Z</time>
      </trkpt>
      <trkpt lat="42.34399" lon="2.34402">
        <ele>1424.7</ele>
        <time>2019-01-07T21:50:59Z</time>
      </trkpt>
      <trkpt lat="42.34396" lon="2.34402">
        <ele>1424.5</ele>
        <time>2019-01-07T21:51:00Z</time>
      </trkpt>
      <trkpt lat="42.34394" lon="2.34403">
        <ele>1424.2</ele>
        <time>2019-01-07T21:51:00Z</time>
      </trkpt>
      <trkpt lat="42.34392" lon="2.34402">
        <ele>1423.9</ele>
        <time>2019-01-07T21:51:01Z</time>
      </trkpt>
      <trkpt lat="42.34389" lon="2.34402">
        <ele>1423.7</ele>
        <time>2019-01-07T21:51:02Z</time>
      </trkpt>
      <trkpt lat="42.34387" lon="2.344">
        <ele>1423.5</ele>
        <time>2019-01-07T21:51:02Z</time>
      </trkpt>
      <trkpt lat="42.34384" lon="2.34399">
        <ele>1423.2</ele>
        <time>2019-01-07T21:51:03Z</time>
      </trkpt>
      <trkpt lat="42.34382" lon="2.34398">
        <ele>1423.1</ele>
        <time>2019-01-07T21:51:04Z</time>
      </trkpt>
      <trkpt lat="42.3438" lon="2.34397">
        <ele>1422.9</ele>
        <time>2019-01-07T21:51:04Z</time>
      </trkpt>
      <trkpt lat="42.34378" lon="2.34397">
        <ele>1422.6</ele>
        <time>2019-01-07T21:51:05Z</time>
      </trkpt>
      <trkpt lat="42.34375" lon="2.34396">
        <ele>1422.5</ele>
        <time>2019-01-07T21:51:06Z</time>
      </trkpt>
      <trkpt lat="42.34373" lon="2.34395">
        <ele>1422</ele>
        <time>2019-01-07T21:51:06Z</time>
      </trkpt>
      <trkpt lat="42.3437" lon="2.34395">
        <ele>1421.8</ele>
        <time>2019-01-07T21:51:07Z</time>
      </trkpt>
      <trkpt lat="42.34368" lon="2.34395">
        <ele>1421.4</ele>
        <time>2019-01-07T21:51:07Z</time>
      </trkpt>
      <trkpt lat="42.34366" lon="2.34396">
        <ele>1421</ele>
        <time>2019-01-07T21:51:08Z</time>
      </trkpt>
      <trkpt lat="42.34365" lon="2.34397">
        <ele>1420.7</ele>
        <time>2019-01-07T21:51:09Z</time>
      </trkpt>
      <trkpt lat="42.34363" lon="2.344">
        <ele>1420.2</ele>
        <time>2019-01-07T21:51:09Z</time>
      </trkpt>
      <trkpt lat="42.34362" lon="2.34402">
        <ele>1419.6</ele>
        <time>2019-01-07T21:51:10Z</time>
      </trkpt>
      <trkpt lat="42.34361" lon="2.34405">
        <ele>1419.3</ele>
        <time>2019-01-07T21:51:10Z</time>
      </trkpt>
      <trkpt lat="42.34364" lon="2.3441">
        <ele>1419.1</ele>
        <time>2019-01-07T21:51:12Z</time>
      </trkpt>
      <trkpt lat="42.34365" lon="2.34413">
        <ele>1419</ele>
        <time>2019-01-07T21:51:12Z</time>
      </trkpt>
      <trkpt lat="42.34367" lon="2.34417">
        <ele>1418.9</ele>
        <time>2019-01-07T21:51:13Z</time>
      </trkpt>
      <trkpt lat="42.34368" lon="2.3442">
        <ele>1418.6</ele>
        <time>2019-01-07T21:51:14Z</time>
      </trkpt>
      <trkpt lat="42.34369" lon="2.34423">
        <ele>1418.3</ele>
        <time>2019-01-07T21:51:14Z</time>
      </trkpt>
      <trkpt lat="42.3437" lon="2.34426">
        <ele>1417.9</ele>
        <time>2019-01-07T21:51:15Z</time>
      </trkpt>
      <trkpt lat="42.34372" lon="2.3443">
        <ele>1417.8</ele>
        <time>2019-01-07T21:51:16Z</time>
      </trkpt>
      <trkpt lat="42.34373" lon="2.34433">
        <ele>1417.4</ele>
        <time>2019-01-07T21:51:17Z</time>
      </trkpt>
      <trkpt lat="42.34374" lon="2.34436">
        <ele>1417.1</ele>
        <time>2019-01-07T21:51:17Z</time>
      </trkpt>
      <trkpt lat="42.34374" lon="2.34439">
        <ele>1416.9</ele>
        <time>2019-01-07T21:51:18Z</time>
      </trkpt>
      <trkpt lat="42.34375" lon="2.34442">
        <ele>1416.5</ele>
        <time>2019-01-07T21:51:19Z</time>
      </trkpt>
      <trkpt lat="42.34377" lon="2.34445">
        <ele>1416.2</ele>
        <time>2019-01-07T21:51:19Z</time>
      </trkpt>
      <trkpt lat="42.34378" lon="2.34448">
        <ele>1415.8</ele>
        <time>2019-01-07T21:51:20Z</time>
      </trkpt>
      <trkpt lat="42.34378" lon="2.34451">
        <ele>1415.6</ele>
        <time>2019-01-07T21:51:21Z</time>
      </trkpt>
      <trkpt lat="42.34379" lon="2.34455">
        <ele>1415.3</ele>
        <time>2019-01-07T21:51:21Z</time>
      </trkpt>
      <trkpt lat="42.3438" lon="2.34458">
        <ele>1414.8</ele>
        <time>2019-01-07T21:51:22Z</time>
      </trkpt>
      <trkpt lat="42.34381" lon="2.34461">
        <ele>1414.4</ele>
        <time>2019-01-07T21:51:23Z</time>
      </trkpt>
      <trkpt lat="42.34382" lon="2.34465">
        <ele>1414</ele>
        <time>2019-01-07T21:51:23Z</time>
      </trkpt>
      <trkpt lat="42.34382" lon="2.34468">
        <ele>1413.7</ele>
        <time>2019-01-07T21:51:24Z</time>
      </trkpt>
      <trkpt lat="42.34383" lon="2.34471">
        <ele>1413.4</ele>
        <time>2019-01-07T21:51:25Z</time>
      </trkpt>
      <trkpt lat="42.34384" lon="2.34474">
        <ele>1413.2</ele>
        <time>2019-01-07T21:51:25Z</time>
      </trkpt>
      <trkpt lat="42.34386" lon="2.34477">
        <ele>1413</ele>
        <time>2019-01-07T21:51:26Z</time>
      </trkpt>
      <trkpt lat="42.34387" lon="2.34481">
        <ele>1412.6</ele>
        <time>2019-01-07T21:51:27Z</time>
      </trkpt>
      <trkpt lat="42.34388" lon="2.34485">
        <ele>1412.1</ele>
        <time>2019-01-07T21:51:28Z</time>
      </trkpt>
      <trkpt lat="42.34389" lon="2.34488">
        <ele>1411.7</ele>
        <time>2019-01-07T21:51:28Z</time>
      </trkpt>
      <trkpt lat="42.3439" lon="2.34491">
        <ele>1411.4</ele>
        <time>2019-01-07T21:51:29Z</time>
      </trkpt>
      <trkpt lat="42.34391" lon="2.34495">
        <ele>1410.8</ele>
        <time>2019-01-07T21:51:30Z</time>
      </trkpt>
      <trkpt lat="42.34392" lon="2.34498">
        <ele>1410.5</ele>
        <time>2019-01-07T21:51:30Z</time>
      </trkpt>
      <trkpt lat="42.34393" lon="2.345">
        <ele>1410</ele>
        <time>2019-01-07T21:51:31Z</time>
      </trkpt>
      <trkpt lat="42.34395" lon="2.34503">
        <ele>1409.3</ele>
        <time>2019-01-07T21:51:32Z</time>
      </trkpt>
      <trkpt lat="42.34398" lon="2.34505">
        <ele>1409.1</ele>
        <time>2019-01-07T21:51:32Z</time>
      </trkpt>
      <trkpt lat="42.344" lon="2.34507">
        <ele>1408.5</ele>
        <time>2019-01-07T21:51:33Z</time>
      </trkpt>
      <trkpt lat="42.34402" lon="2.34509">
        <ele>1408</ele>
        <time>2019-01-07T21:51:34Z</time>
      </trkpt>
      <trkpt lat="42.34405" lon="2.3451">
        <ele>1407.8</ele>
        <time>2019-01-07T21:51:35Z</time>
      </trkpt>
      <trkpt lat="42.34407" lon="2.3451">
        <ele>1407.7</ele>
        <time>2019-01-07T21:51:35Z</time>
      </trkpt>
      <trkpt lat="42.3441" lon="2.34511">
        <ele>1407.6</ele>
        <time>2019-01-07T21:51:36Z</time>
      </trkpt>
      <trkpt lat="42.34413" lon="2.34511">
        <ele>1407.6</ele>
        <time>2019-01-07T21:51:37Z</time>
      </trkpt>
      <trkpt lat="42.34415" lon="2.34512">
        <ele>1407.5</ele>
        <time>2019-01-07T21:51:38Z</time>
      </trkpt>
      <trkpt lat="42.34418" lon="2.34512">
        <ele>1407.6</ele>
        <time>2019-01-07T21:51:38Z</time>
      </trkpt>
      <trkpt lat="42.34421" lon="2.34513">
        <ele>1407.4</ele>
        <time>2019-01-07T21:51:39Z</time>
      </trkpt>
      <trkpt lat="42.34423" lon="2.34514">
        <ele>1407.1</ele>
        <time>2019-01-07T21:51:40Z</time>
      </trkpt>
      <trkpt lat="42.34425" lon="2.34515">
        <ele>1407</ele>
        <time>2019-01-07T21:51:40Z</time>
      </trkpt>
      <trkpt lat="42.34428" lon="2.34517">
        <ele>1406.7</ele>
        <time>2019-01-07T21:51:41Z</time>
      </trkpt>
      <trkpt lat="42.3443" lon="2.34518">
        <ele>1406.4</ele>
        <time>2019-01-07T21:51:42Z</time>
      </trkpt>
      <trkpt lat="42.34432" lon="2.3452">
        <ele>1406</ele>
        <time>2019-01-07T21:51:42Z</time>
      </trkpt>
      <trkpt lat="42.34435" lon="2.34521">
        <ele>1405.8</ele>
        <time>2019-01-07T21:51:43Z</time>
      </trkpt>
      <trkpt lat="42.34437" lon="2.34523">
        <ele>1405.4</ele>
        <time>2019-01-07T21:51:44Z</time>
      </trkpt>
      <trkpt lat="42.3444" lon="2.34524">
        <ele>1404.9</ele>
        <time>2019-01-07T21:51:45Z</time>
      </trkpt>
      <trkpt lat="42.34442" lon="2.34525">
        <ele>1404.7</ele>
        <time>2019-01-07T21:51:45Z</time>
      </trkpt>
      <trkpt lat="42.34444" lon="2.34527">
        <ele>1404.3</ele>
        <time>2019-01-07T21:51:46Z</time>
      </trkpt>
      <trkpt lat="42.34446" lon="2.34528">
        <ele>1404.1</ele>
        <time>2019-01-07T21:51:46Z</time>
      </trkpt>
      <trkpt lat="42.34449" lon="2.3453">
        <ele>1403.9</ele>
        <time>2019-01-07T21:51:47Z</time>
      </trkpt>
      <trkpt lat="42.34451" lon="2.34531">
        <ele>1403.6</ele>
        <time>2019-01-07T21:51:48Z</time>
      </trkpt>
      <trkpt lat="42.34453" lon="2.34533">
        <ele>1403.4</ele>
        <time>2019-01-07T21:51:49Z</time>
      </trkpt>
      <trkpt lat="42.34456" lon="2.34534">
        <ele>1403.4</ele>
        <time>2019-01-07T21:51:49Z</time>
      </trkpt>
      <trkpt lat="42.34458" lon="2.34535">
        <ele>1403.3</ele>
        <time>2019-01-07T21:51:50Z</time>
      </trkpt>
      <trkpt lat="42.34461" lon="2.34537">
        <ele>1403.1</ele>
        <time>2019-01-07T21:51:51Z</time>
      </trkpt>
      <trkpt lat="42.34463" lon="2.34538">
        <ele>1402.8</ele>
        <time>2019-01-07T21:51:51Z</time>
      </trkpt>
      <trkpt lat="42.34465" lon="2.3454">
        <ele>1402.6</ele>
        <time>2019-01-07T21:51:52Z</time>
      </trkpt>
      <trkpt lat="42.34468" lon="2.34541">
        <ele>1402.3</ele>
        <time>2019-01-07T21:51:53Z</time>
      </trkpt>
      <trkpt lat="42.3447" lon="2.34543">
        <ele>1402</ele>
        <time>2019-01-07T21:51:53Z</time>
      </trkpt>
      <trkpt lat="42.34472" lon="2.34544">
        <ele>1401.9</ele>
        <time>2019-01-07T21:51:54Z</time>
      </trkpt>
      <trkpt lat="42.34475" lon="2.34545">
        <ele>1401.7</ele>
        <time>2019-01-07T21:51:55Z</time>
      </trkpt>
      <trkpt lat="42.34477" lon="2.34546">
        <ele>1401.6</ele>
        <time>2019-01-07T21:51:55Z</time>
      </trkpt>
      <trkpt lat="42.34479" lon="2.34547">
        <ele>1401.5</ele>
        <time>2019-01-07T21:51:56Z</time>
      </trkpt>
      <trkpt lat="42.34482" lon="2.34549">
        <ele>1401.1</ele>
        <time>2019-01-07T21:51:57Z</time>
      </trkpt>
      <trkpt lat="42.34484" lon="2.3455">
        <ele>1400.9</ele>
        <time>2019-01-07T21:51:58Z</time>
      </trkpt>
      <trkpt lat="42.34487" lon="2.34552">
        <ele>1400.6</ele>
        <time>2019-01-07T21:51:58Z</time>
      </trkpt>
      <trkpt lat="42.3449" lon="2.34553">
        <ele>1400.4</ele>
        <time>2019-01-07T21:51:59Z</time>
      </trkpt>
      <trkpt lat="42.34492" lon="2.34555">
        <ele>1400</ele>
        <time>2019-01-07T21:52:00Z</time>
      </trkpt>
      <trkpt lat="42.34494" lon="2.34556">
        <ele>1399.8</ele>
        <time>2019-01-07T21:52:00Z</time>
      </trkpt>
      <trkpt lat="42.34495" lon="2.34557">
        <ele>1399.3</ele>
        <time>2019-01-07T21:52:01Z</time>
      </trkpt>
      <trkpt lat="42.34497" lon="2.34559">
        <ele>1398.9</ele>
        <time>2019-01-07T21:52:01Z</time>
      </trkpt>
      <trkpt lat="42.34499" lon="2.3456">
        <ele>1398.6</ele>
        <time>2019-01-07T21:52:02Z</time>
      </trkpt>
      <trkpt lat="42.34502" lon="2.34561">
        <ele>1398.6</ele>
        <time>2019-01-07T21:52:03Z</time>
      </trkpt>
      <trkpt lat="42.34504" lon="2.34562">
        <ele>1398</ele>
        <time>2019-01-07T21:52:03Z</time>
      </trkpt>
      <trkpt lat="42.34506" lon="2.34564">
        <ele>1397.4</ele>
        <time>2019-01-07T21:52:04Z</time>
      </trkpt>
      <trkpt lat="42.34508" lon="2.34566">
        <ele>1396.8</ele>
        <time>2019-01-07T21:52:05Z</time>
      </trkpt>
      <trkpt lat="42.3451" lon="2.34568">
        <ele>1396.4</ele>
        <time>2019-01-07T21:52:05Z</time>
      </trkpt>
      <trkpt lat="42.34512" lon="2.3457">
        <ele>1396</ele>
        <time>2019-01-07T21:52:06Z</time>
      </trkpt>
      <trkpt lat="42.34515" lon="2.34572">
        <ele>1395.5</ele>
        <time>2019-01-07T21:52:07Z</time>
      </trkpt>
      <trkpt lat="42.34517" lon="2.34573">
        <ele>1394.9</ele>
        <time>2019-01-07T21:52:07Z</time>
      </trkpt>
      <trkpt lat="42.34519" lon="2.34575">
        <ele>1394.5</ele>
        <time>2019-01-07T21:52:08Z</time>
      </trkpt>
      <trkpt lat="42.34521" lon="2.34577">
        <ele>1394</ele>
        <time>2019-01-07T21:52:09Z</time>
      </trkpt>
      <trkpt lat="42.34523" lon="2.34577">
        <ele>1393.9</ele>
        <time>2019-01-07T21:52:09Z</time>
      </trkpt>
      <trkpt lat="42.34526" lon="2.34578">
        <ele>1393.8</ele>
        <time>2019-01-07T21:52:10Z</time>
      </trkpt>
      <trkpt lat="42.34528" lon="2.34579">
        <ele>1393.5</ele>
        <time>2019-01-07T21:52:11Z</time>
      </trkpt>
      <trkpt lat="42.34531" lon="2.34581">
        <ele>1393</ele>
        <time>2019-01-07T21:52:11Z</time>
      </trkpt>
      <trkpt lat="42.34533" lon="2.34582">
        <ele>1392.6</ele>
        <time>2019-01-07T21:52:12Z</time>
      </trkpt>
      <trkpt lat="42.34536" lon="2.34582">
        <ele>1392.4</ele>
        <time>2019-01-07T21:52:13Z</time>
      </trkpt>
      <trkpt lat="42.34538" lon="2.34583">
        <ele>1392.4</ele>
        <time>2019-01-07T21:52:13Z</time>
      </trkpt>
      <trkpt lat="42.34541" lon="2.34582">
        <ele>1392.6</ele>
        <time>2019-01-07T21:52:14Z</time>
      </trkpt>
      <trkpt lat="42.34543" lon="2.34582">
        <ele>1392.6</ele>
        <time>2019-01-07T21:52:15Z</time>
      </trkpt>
      <trkpt lat="42.34545" lon="2.34582">
        <ele>1392.6</ele>
        <time>2019-01-07T21:52:15Z</time>
      </trkpt>
      <trkpt lat="42.34547" lon="2.34582">
        <ele>1392.7</ele>
        <time>2019-01-07T21:52:16Z</time>
      </trkpt>
      <trkpt lat="42.3455" lon="2.34582">
        <ele>1392.4</ele>
        <time>2019-01-07T21:52:16Z</time>
      </trkpt>
      <trkpt lat="42.34552" lon="2.34583">
        <ele>1392.1</ele>
        <time>2019-01-07T21:52:17Z</time>
      </trkpt>
      <trkpt lat="42.34554" lon="2.34584">
        <ele>1392.1</ele>
        <time>2019-01-07T21:52:18Z</time>
      </trkpt>
      <trkpt lat="42.34556" lon="2.34585">
        <ele>1391.8</ele>
        <time>2019-01-07T21:52:18Z</time>
      </trkpt>
      <trkpt lat="42.34558" lon="2.34586">
        <ele>1391.7</ele>
        <time>2019-01-07T21:52:19Z</time>
      </trkpt>
      <trkpt lat="42.3456" lon="2.34587">
        <ele>1391.5</ele>
        <time>2019-01-07T21:52:20Z</time>
      </trkpt>
      <trkpt lat="42.34563" lon="2.34589">
        <ele>1391.5</ele>
        <time>2019-01-07T21:52:20Z</time>
      </trkpt>
      <trkpt lat="42.34565" lon="2.3459">
        <ele>1391.4</ele>
        <time>2019-01-07T21:52:21Z</time>
      </trkpt>
      <trkpt lat="42.34568" lon="2.34592">
        <ele>1391.3</ele>
        <time>2019-01-07T21:52:22Z</time>
      </trkpt>
      <trkpt lat="42.3457" lon="2.34593">
        <ele>1391.2</ele>
        <time>2019-01-07T21:52:22Z</time>
      </trkpt>
      <trkpt lat="42.34572" lon="2.34595">
        <ele>1390.9</ele>
        <time>2019-01-07T21:52:23Z</time>
      </trkpt>
      <trkpt lat="42.34574" lon="2.34597">
        <ele>1390.7</ele>
        <time>2019-01-07T21:52:24Z</time>
      </trkpt>
      <trkpt lat="42.34576" lon="2.34598">
        <ele>1390.6</ele>
        <time>2019-01-07T21:52:24Z</time>
      </trkpt>
      <trkpt lat="42.34579" lon="2.34599">
        <ele>1390.5</ele>
        <time>2019-01-07T21:52:25Z</time>
      </trkpt>
      <trkpt lat="42.34581" lon="2.34601">
        <ele>1390.5</ele>
        <time>2019-01-07T21:52:26Z</time>
      </trkpt>
      <trkpt lat="42.34583" lon="2.34603">
        <ele>1390.1</ele>
        <time>2019-01-07T21:52:26Z</time>
      </trkpt>
      <trkpt lat="42.34586" lon="2.34605">
        <ele>1389.9</ele>
        <time>2019-01-07T21:52:27Z</time>
      </trkpt>
      <trkpt lat="42.34588" lon="2.34606">
        <ele>1389.7</ele>
        <time>2019-01-07T21:52:28Z</time>
      </trkpt>
      <trkpt lat="42.3459" lon="2.34607">
        <ele>1389.6</ele>
        <time>2019-01-07T21:52:28Z</time>
      </trkpt>
      <trkpt lat="42.34592" lon="2.34609">
        <ele>1389.3</ele>
        <time>2019-01-07T21:52:29Z</time>
      </trkpt>
      <trkpt lat="42.34595" lon="2.34611">
        <ele>1388.8</ele>
        <time>2019-01-07T21:52:30Z</time>
      </trkpt>
      <trkpt lat="42.34596" lon="2.34613">
        <ele>1388.5</ele>
        <time>2019-01-07T21:52:30Z</time>
      </trkpt>
      <trkpt lat="42.34596" lon="2.34617">
        <ele>1387.6</ele>
        <time>2019-01-07T21:52:31Z</time>
      </trkpt>
      <trkpt lat="42.34594" lon="2.34619">
        <ele>1386.7</ele>
        <time>2019-01-07T21:52:32Z</time>
      </trkpt>
      <trkpt lat="42.34592" lon="2.34622">
        <ele>1385.9</ele>
        <time>2019-01-07T21:52:33Z</time>
      </trkpt>
      <trkpt lat="42.34589" lon="2.34623">
        <ele>1385.5</ele>
        <time>2019-01-07T21:52:34Z</time>
      </trkpt>
      <trkpt lat="42.34586" lon="2.34624">
        <ele>1385</ele>
        <time>2019-01-07T21:52:34Z</time>
      </trkpt>
      <trkpt lat="42.34585" lon="2.34624">
        <ele>1384.8</ele>
        <time>2019-01-07T21:52:35Z</time>
      </trkpt>
      <trkpt lat="42.34582" lon="2.34625">
        <ele>1384.6</ele>
        <time>2019-01-07T21:52:35Z</time>
      </trkpt>
      <trkpt lat="42.3458" lon="2.34623">
        <ele>1384.8</ele>
        <time>2019-01-07T21:52:36Z</time>
      </trkpt>
      <trkpt lat="42.34577" lon="2.34622">
        <ele>1384.6</ele>
        <time>2019-01-07T21:52:37Z</time>
      </trkpt>
      <trkpt lat="42.34574" lon="2.34622">
        <ele>1384.6</ele>
        <time>2019-01-07T21:52:38Z</time>
      </trkpt>
      <trkpt lat="42.34572" lon="2.34621">
        <ele>1384.4</ele>
        <time>2019-01-07T21:52:38Z</time>
      </trkpt>
      <trkpt lat="42.34569" lon="2.34621">
        <ele>1384.2</ele>
        <time>2019-01-07T21:52:39Z</time>
      </trkpt>
      <trkpt lat="42.34566" lon="2.34621">
        <ele>1384.1</ele>
        <time>2019-01-07T21:52:40Z</time>
      </trkpt>
      <trkpt lat="42.34563" lon="2.34621">
        <ele>1383.7</ele>
        <time>2019-01-07T21:52:41Z</time>
      </trkpt>
      <trkpt lat="42.34561" lon="2.34621">
        <ele>1383.6</ele>
        <time>2019-01-07T21:52:41Z</time>
      </trkpt>
      <trkpt lat="42.34559" lon="2.3462">
        <ele>1383.3</ele>
        <time>2019-01-07T21:52:42Z</time>
      </trkpt>
      <trkpt lat="42.34556" lon="2.3462">
        <ele>1383.3</ele>
        <time>2019-01-07T21:52:43Z</time>
      </trkpt>
      <trkpt lat="42.34546" lon="2.34621">
        <ele>1382.2</ele>
        <time>2019-01-07T21:52:45Z</time>
      </trkpt>
      <trkpt lat="42.34543" lon="2.34621">
        <ele>1381.6</ele>
        <time>2019-01-07T21:52:46Z</time>
      </trkpt>
      <trkpt lat="42.34541" lon="2.34622">
        <ele>1381.3</ele>
        <time>2019-01-07T21:52:47Z</time>
      </trkpt>
      <trkpt lat="42.34538" lon="2.34623">
        <ele>1380.8</ele>
        <time>2019-01-07T21:52:47Z</time>
      </trkpt>
      <trkpt lat="42.34535" lon="2.34623">
        <ele>1380.4</ele>
        <time>2019-01-07T21:52:48Z</time>
      </trkpt>
      <trkpt lat="42.34533" lon="2.34624">
        <ele>1379.9</ele>
        <time>2019-01-07T21:52:49Z</time>
      </trkpt>
      <trkpt lat="42.3453" lon="2.34625">
        <ele>1379.5</ele>
        <time>2019-01-07T21:52:50Z</time>
      </trkpt>
      <trkpt lat="42.34527" lon="2.34625">
        <ele>1379.1</ele>
        <time>2019-01-07T21:52:50Z</time>
      </trkpt>
      <trkpt lat="42.34525" lon="2.34626">
        <ele>1378.7</ele>
        <time>2019-01-07T21:52:51Z</time>
      </trkpt>
      <trkpt lat="42.34522" lon="2.34627">
        <ele>1378.4</ele>
        <time>2019-01-07T21:52:52Z</time>
      </trkpt>
      <trkpt lat="42.3452" lon="2.34627">
        <ele>1378.1</ele>
        <time>2019-01-07T21:52:52Z</time>
      </trkpt>
      <trkpt lat="42.34517" lon="2.34628">
        <ele>1377.8</ele>
        <time>2019-01-07T21:52:53Z</time>
      </trkpt>
      <trkpt lat="42.34515" lon="2.34629">
        <ele>1377.7</ele>
        <time>2019-01-07T21:52:54Z</time>
      </trkpt>
      <trkpt lat="42.34512" lon="2.34629">
        <ele>1377.2</ele>
        <time>2019-01-07T21:52:54Z</time>
      </trkpt>
      <trkpt lat="42.34509" lon="2.3463">
        <ele>1376.9</ele>
        <time>2019-01-07T21:52:55Z</time>
      </trkpt>
      <trkpt lat="42.34507" lon="2.34631">
        <ele>1376.6</ele>
        <time>2019-01-07T21:52:56Z</time>
      </trkpt>
      <trkpt lat="42.34504" lon="2.34631">
        <ele>1376.4</ele>
        <time>2019-01-07T21:52:57Z</time>
      </trkpt>
      <trkpt lat="42.34501" lon="2.34632">
        <ele>1376.1</ele>
        <time>2019-01-07T21:52:57Z</time>
      </trkpt>
      <trkpt lat="42.34498" lon="2.34633">
        <ele>1375.6</ele>
        <time>2019-01-07T21:52:58Z</time>
      </trkpt>
      <trkpt lat="42.34488" lon="2.34637">
        <ele>1374.4</ele>
        <time>2019-01-07T21:53:01Z</time>
      </trkpt>
      <trkpt lat="42.34486" lon="2.34638">
        <ele>1374.4</ele>
        <time>2019-01-07T21:53:02Z</time>
      </trkpt>
      <trkpt lat="42.34484" lon="2.34639">
        <ele>1374</ele>
        <time>2019-01-07T21:53:02Z</time>
      </trkpt>
      <trkpt lat="42.34481" lon="2.3464">
        <ele>1373.7</ele>
        <time>2019-01-07T21:53:03Z</time>
      </trkpt>
      <trkpt lat="42.34479" lon="2.34641">
        <ele>1373.5</ele>
        <time>2019-01-07T21:53:04Z</time>
      </trkpt>
      <trkpt lat="42.34477" lon="2.34641">
        <ele>1373.3</ele>
        <time>2019-01-07T21:53:04Z</time>
      </trkpt>
      <trkpt lat="42.34475" lon="2.34642">
        <ele>1373</ele>
        <time>2019-01-07T21:53:05Z</time>
      </trkpt>
      <trkpt lat="42.34472" lon="2.34644">
        <ele>1372.1</ele>
        <time>2019-01-07T21:53:06Z</time>
      </trkpt>
      <trkpt lat="42.3447" lon="2.34646">
        <ele>1371.6</ele>
        <time>2019-01-07T21:53:06Z</time>
      </trkpt>
      <trkpt lat="42.34467" lon="2.34646">
        <ele>1371.4</ele>
        <time>2019-01-07T21:53:07Z</time>
      </trkpt>
      <trkpt lat="42.34466" lon="2.34646">
        <ele>1371.4</ele>
        <time>2019-01-07T21:53:07Z</time>
      </trkpt>
      <trkpt lat="42.34463" lon="2.34647">
        <ele>1371</ele>
        <time>2019-01-07T21:53:08Z</time>
      </trkpt>
      <trkpt lat="42.34461" lon="2.34648">
        <ele>1370.6</ele>
        <time>2019-01-07T21:53:09Z</time>
      </trkpt>
      <trkpt lat="42.34458" lon="2.34649">
        <ele>1370</ele>
        <time>2019-01-07T21:53:09Z</time>
      </trkpt>
      <trkpt lat="42.34456" lon="2.3465">
        <ele>1369.7</ele>
        <time>2019-01-07T21:53:10Z</time>
      </trkpt>
      <trkpt lat="42.34453" lon="2.34651">
        <ele>1369.4</ele>
        <time>2019-01-07T21:53:11Z</time>
      </trkpt>
      <trkpt lat="42.34451" lon="2.34651">
        <ele>1369.4</ele>
        <time>2019-01-07T21:53:11Z</time>
      </trkpt>
      <trkpt lat="42.34445" lon="2.34651">
        <ele>1369</ele>
        <time>2019-01-07T21:53:13Z</time>
      </trkpt>
      <trkpt lat="42.34443" lon="2.34652">
        <ele>1368.7</ele>
        <time>2019-01-07T21:53:14Z</time>
      </trkpt>
      <trkpt lat="42.34441" lon="2.34652">
        <ele>1368.5</ele>
        <time>2019-01-07T21:53:14Z</time>
      </trkpt>
      <trkpt lat="42.34438" lon="2.34652">
        <ele>1368.2</ele>
        <time>2019-01-07T21:53:15Z</time>
      </trkpt>
      <trkpt lat="42.34436" lon="2.34652">
        <ele>1368.1</ele>
        <time>2019-01-07T21:53:16Z</time>
      </trkpt>
      <trkpt lat="42.34433" lon="2.34652">
        <ele>1367.9</ele>
        <time>2019-01-07T21:53:16Z</time>
      </trkpt>
      <trkpt lat="42.3443" lon="2.34653">
        <ele>1367.5</ele>
        <time>2019-01-07T21:53:17Z</time>
      </trkpt>
      <trkpt lat="42.34428" lon="2.34653">
        <ele>1367.4</ele>
        <time>2019-01-07T21:53:18Z</time>
      </trkpt>
      <trkpt lat="42.34418" lon="2.34654">
        <ele>1366.4</ele>
        <time>2019-01-07T21:53:20Z</time>
      </trkpt>
      <trkpt lat="42.34413" lon="2.34656">
        <ele>1365.5</ele>
        <time>2019-01-07T21:53:22Z</time>
      </trkpt>
      <trkpt lat="42.3441" lon="2.34656">
        <ele>1365.3</ele>
        <time>2019-01-07T21:53:22Z</time>
      </trkpt>
      <trkpt lat="42.34407" lon="2.34656">
        <ele>1365.1</ele>
        <time>2019-01-07T21:53:23Z</time>
      </trkpt>
      <trkpt lat="42.34404" lon="2.34657">
        <ele>1364.7</ele>
        <time>2019-01-07T21:53:24Z</time>
      </trkpt>
      <trkpt lat="42.34393" lon="2.34661">
        <ele>1363</ele>
        <time>2019-01-07T21:53:27Z</time>
      </trkpt>
      <trkpt lat="42.34391" lon="2.34662">
        <ele>1362.7</ele>
        <time>2019-01-07T21:53:28Z</time>
      </trkpt>
      <trkpt lat="42.34388" lon="2.34662">
        <ele>1362.5</ele>
        <time>2019-01-07T21:53:28Z</time>
      </trkpt>
      <trkpt lat="42.34386" lon="2.34662">
        <ele>1362.5</ele>
        <time>2019-01-07T21:53:29Z</time>
      </trkpt>
      <trkpt lat="42.34381" lon="2.34662">
        <ele>1362.3</ele>
        <time>2019-01-07T21:53:30Z</time>
      </trkpt>
      <trkpt lat="42.34379" lon="2.34663">
        <ele>1362</ele>
        <time>2019-01-07T21:53:31Z</time>
      </trkpt>
      <trkpt lat="42.34376" lon="2.34663">
        <ele>1361.7</ele>
        <time>2019-01-07T21:53:32Z</time>
      </trkpt>
      <trkpt lat="42.34373" lon="2.34664">
        <ele>1361.2</ele>
        <time>2019-01-07T21:53:32Z</time>
      </trkpt>
      <trkpt lat="42.34371" lon="2.34666">
        <ele>1360.6</ele>
        <time>2019-01-07T21:53:33Z</time>
      </trkpt>
      <trkpt lat="42.34368" lon="2.34667">
        <ele>1360.2</ele>
        <time>2019-01-07T21:53:34Z</time>
      </trkpt>
      <trkpt lat="42.34365" lon="2.34667">
        <ele>1359.9</ele>
        <time>2019-01-07T21:53:35Z</time>
      </trkpt>
      <trkpt lat="42.34362" lon="2.34668">
        <ele>1359.7</ele>
        <time>2019-01-07T21:53:35Z</time>
      </trkpt>
      <trkpt lat="42.34359" lon="2.34669">
        <ele>1359.3</ele>
        <time>2019-01-07T21:53:36Z</time>
      </trkpt>
      <trkpt lat="42.34357" lon="2.3467">
        <ele>1358.9</ele>
        <time>2019-01-07T21:53:37Z</time>
      </trkpt>
      <trkpt lat="42.34354" lon="2.34671">
        <ele>1358.4</ele>
        <time>2019-01-07T21:53:38Z</time>
      </trkpt>
      <trkpt lat="42.34351" lon="2.34671">
        <ele>1358.1</ele>
        <time>2019-01-07T21:53:39Z</time>
      </trkpt>
      <trkpt lat="42.34348" lon="2.34672">
        <ele>1358</ele>
        <time>2019-01-07T21:53:39Z</time>
      </trkpt>
      <trkpt lat="42.34345" lon="2.34672">
        <ele>1357.6</ele>
        <time>2019-01-07T21:53:40Z</time>
      </trkpt>
      <trkpt lat="42.34343" lon="2.34673">
        <ele>1357.3</ele>
        <time>2019-01-07T21:53:41Z</time>
      </trkpt>
      <trkpt lat="42.3434" lon="2.34673">
        <ele>1357.2</ele>
        <time>2019-01-07T21:53:41Z</time>
      </trkpt>
      <trkpt lat="42.34338" lon="2.34674">
        <ele>1356.7</ele>
        <time>2019-01-07T21:53:42Z</time>
      </trkpt>
      <trkpt lat="42.34335" lon="2.34675">
        <ele>1356.6</ele>
        <time>2019-01-07T21:53:43Z</time>
      </trkpt>
      <trkpt lat="42.34332" lon="2.34675">
        <ele>1356.5</ele>
        <time>2019-01-07T21:53:44Z</time>
      </trkpt>
      <trkpt lat="42.3433" lon="2.34675">
        <ele>1355.9</ele>
        <time>2019-01-07T21:53:44Z</time>
      </trkpt>
      <trkpt lat="42.34327" lon="2.34676">
        <ele>1355.4</ele>
        <time>2019-01-07T21:53:45Z</time>
      </trkpt>
      <trkpt lat="42.34324" lon="2.34676">
        <ele>1355.1</ele>
        <time>2019-01-07T21:53:46Z</time>
      </trkpt>
      <trkpt lat="42.34321" lon="2.34676">
        <ele>1354.9</ele>
        <time>2019-01-07T21:53:47Z</time>
      </trkpt>
      <trkpt lat="42.34318" lon="2.34676">
        <ele>1354.6</ele>
        <time>2019-01-07T21:53:47Z</time>
      </trkpt>
      <trkpt lat="42.34316" lon="2.34676">
        <ele>1354.5</ele>
        <time>2019-01-07T21:53:48Z</time>
      </trkpt>
      <trkpt lat="42.34313" lon="2.34676">
        <ele>1354.3</ele>
        <time>2019-01-07T21:53:49Z</time>
      </trkpt>
      <trkpt lat="42.3431" lon="2.34676">
        <ele>1353.9</ele>
        <time>2019-01-07T21:53:49Z</time>
      </trkpt>
      <trkpt lat="42.34308" lon="2.34676">
        <ele>1353.7</ele>
        <time>2019-01-07T21:53:50Z</time>
      </trkpt>
      <trkpt lat="42.34305" lon="2.34676">
        <ele>1353.3</ele>
        <time>2019-01-07T21:53:51Z</time>
      </trkpt>
      <trkpt lat="42.34303" lon="2.34676">
        <ele>1353.1</ele>
        <time>2019-01-07T21:53:51Z</time>
      </trkpt>
      <trkpt lat="42.34301" lon="2.34676">
        <ele>1353</ele>
        <time>2019-01-07T21:53:52Z</time>
      </trkpt>
      <trkpt lat="42.34298" lon="2.34675">
        <ele>1353</ele>
        <time>2019-01-07T21:53:53Z</time>
      </trkpt>
      <trkpt lat="42.34296" lon="2.34674">
        <ele>1353</ele>
        <time>2019-01-07T21:53:53Z</time>
      </trkpt>
      <trkpt lat="42.34293" lon="2.34673">
        <ele>1352.7</ele>
        <time>2019-01-07T21:53:54Z</time>
      </trkpt>
      <trkpt lat="42.3429" lon="2.34673">
        <ele>1352.6</ele>
        <time>2019-01-07T21:53:55Z</time>
      </trkpt>
      <trkpt lat="42.34287" lon="2.34673">
        <ele>1352.5</ele>
        <time>2019-01-07T21:53:56Z</time>
      </trkpt>
      <trkpt lat="42.34284" lon="2.34672">
        <ele>1352.4</ele>
        <time>2019-01-07T21:53:56Z</time>
      </trkpt>
      <trkpt lat="42.34282" lon="2.34671">
        <ele>1352.2</ele>
        <time>2019-01-07T21:53:57Z</time>
      </trkpt>
      <trkpt lat="42.34279" lon="2.34671">
        <ele>1352</ele>
        <time>2019-01-07T21:53:58Z</time>
      </trkpt>
      <trkpt lat="42.34276" lon="2.3467">
        <ele>1351.8</ele>
        <time>2019-01-07T21:53:59Z</time>
      </trkpt>
      <trkpt lat="42.34274" lon="2.3467">
        <ele>1351.5</ele>
        <time>2019-01-07T21:53:59Z</time>
      </trkpt>
      <trkpt lat="42.34267" lon="2.34667">
        <ele>1351.1</ele>
        <time>2019-01-07T21:54:01Z</time>
      </trkpt>
      <trkpt lat="42.34264" lon="2.34666">
        <ele>1350.8</ele>
        <time>2019-01-07T21:54:02Z</time>
      </trkpt>
      <trkpt lat="42.34262" lon="2.34666">
        <ele>1350.5</ele>
        <time>2019-01-07T21:54:03Z</time>
      </trkpt>
      <trkpt lat="42.34259" lon="2.34666">
        <ele>1349.9</ele>
        <time>2019-01-07T21:54:03Z</time>
      </trkpt>
      <trkpt lat="42.34256" lon="2.34666">
        <ele>1349.4</ele>
        <time>2019-01-07T21:54:04Z</time>
      </trkpt>
      <trkpt lat="42.34253" lon="2.34665">
        <ele>1349</ele>
        <time>2019-01-07T21:54:05Z</time>
      </trkpt>
      <trkpt lat="42.34251" lon="2.34665">
        <ele>1348.7</ele>
        <time>2019-01-07T21:54:06Z</time>
      </trkpt>
      <trkpt lat="42.34248" lon="2.34665">
        <ele>1348.4</ele>
        <time>2019-01-07T21:54:06Z</time>
      </trkpt>
      <trkpt lat="42.34245" lon="2.34666">
        <ele>1347.9</ele>
        <time>2019-01-07T21:54:07Z</time>
      </trkpt>
      <trkpt lat="42.34243" lon="2.34666">
        <ele>1347.6</ele>
        <time>2019-01-07T21:54:08Z</time>
      </trkpt>
      <trkpt lat="42.3424" lon="2.34666">
        <ele>1347.2</ele>
        <time>2019-01-07T21:54:08Z</time>
      </trkpt>
      <trkpt lat="42.34238" lon="2.34666">
        <ele>1346.9</ele>
        <time>2019-01-07T21:54:09Z</time>
      </trkpt>
      <trkpt lat="42.34236" lon="2.34666">
        <ele>1346.8</ele>
        <time>2019-01-07T21:54:10Z</time>
      </trkpt>
      <trkpt lat="42.34233" lon="2.34666">
        <ele>1346.7</ele>
        <time>2019-01-07T21:54:10Z</time>
      </trkpt>
      <trkpt lat="42.3423" lon="2.34666">
        <ele>1346.3</ele>
        <time>2019-01-07T21:54:11Z</time>
      </trkpt>
      <trkpt lat="42.34228" lon="2.34666">
        <ele>1346</ele>
        <time>2019-01-07T21:54:12Z</time>
      </trkpt>
      <trkpt lat="42.34225" lon="2.34666">
        <ele>1345.6</ele>
        <time>2019-01-07T21:54:13Z</time>
      </trkpt>
      <trkpt lat="42.34222" lon="2.34666">
        <ele>1345.1</ele>
        <time>2019-01-07T21:54:13Z</time>
      </trkpt>
      <trkpt lat="42.34219" lon="2.34666">
        <ele>1345.1</ele>
        <time>2019-01-07T21:54:14Z</time>
      </trkpt>
      <trkpt lat="42.34217" lon="2.34665">
        <ele>1344.6</ele>
        <time>2019-01-07T21:54:15Z</time>
      </trkpt>
      <trkpt lat="42.34214" lon="2.34666">
        <ele>1344.2</ele>
        <time>2019-01-07T21:54:15Z</time>
      </trkpt>
      <trkpt lat="42.34211" lon="2.34665">
        <ele>1344</ele>
        <time>2019-01-07T21:54:16Z</time>
      </trkpt>
      <trkpt lat="42.34209" lon="2.34664">
        <ele>1344.1</ele>
        <time>2019-01-07T21:54:17Z</time>
      </trkpt>
      <trkpt lat="42.34207" lon="2.34662">
        <ele>1344</ele>
        <time>2019-01-07T21:54:17Z</time>
      </trkpt>
      <trkpt lat="42.34204" lon="2.34661">
        <ele>1343.8</ele>
        <time>2019-01-07T21:54:18Z</time>
      </trkpt>
      <trkpt lat="42.34201" lon="2.34661">
        <ele>1343.7</ele>
        <time>2019-01-07T21:54:19Z</time>
      </trkpt>
      <trkpt lat="42.34199" lon="2.3466">
        <ele>1343.5</ele>
        <time>2019-01-07T21:54:20Z</time>
      </trkpt>
      <trkpt lat="42.34196" lon="2.34659">
        <ele>1343.4</ele>
        <time>2019-01-07T21:54:20Z</time>
      </trkpt>
      <trkpt lat="42.34194" lon="2.34659">
        <ele>1342.9</ele>
        <time>2019-01-07T21:54:21Z</time>
      </trkpt>
      <trkpt lat="42.34191" lon="2.34658">
        <ele>1342.6</ele>
        <time>2019-01-07T21:54:22Z</time>
      </trkpt>
      <trkpt lat="42.34188" lon="2.34658">
        <ele>1342.6</ele>
        <time>2019-01-07T21:54:22Z</time>
      </trkpt>
      <trkpt lat="42.34186" lon="2.34657">
        <ele>1342.4</ele>
        <time>2019-01-07T21:54:23Z</time>
      </trkpt>
      <trkpt lat="42.34183" lon="2.34657">
        <ele>1342</ele>
        <time>2019-01-07T21:54:24Z</time>
      </trkpt>
      <trkpt lat="42.34181" lon="2.34656">
        <ele>1341.7</ele>
        <time>2019-01-07T21:54:25Z</time>
      </trkpt>
      <trkpt lat="42.34178" lon="2.34655">
        <ele>1341.8</ele>
        <time>2019-01-07T21:54:25Z</time>
      </trkpt>
      <trkpt lat="42.34176" lon="2.34655">
        <ele>1341.5</ele>
        <time>2019-01-07T21:54:26Z</time>
      </trkpt>
      <trkpt lat="42.34174" lon="2.34654">
        <ele>1341.3</ele>
        <time>2019-01-07T21:54:26Z</time>
      </trkpt>
      <trkpt lat="42.34171" lon="2.34653">
        <ele>1341.2</ele>
        <time>2019-01-07T21:54:27Z</time>
      </trkpt>
      <trkpt lat="42.34169" lon="2.34652">
        <ele>1341</ele>
        <time>2019-01-07T21:54:28Z</time>
      </trkpt>
      <trkpt lat="42.34167" lon="2.3465">
        <ele>1341</ele>
        <time>2019-01-07T21:54:28Z</time>
      </trkpt>
      <trkpt lat="42.34164" lon="2.34649">
        <ele>1340.8</ele>
        <time>2019-01-07T21:54:29Z</time>
      </trkpt>
      <trkpt lat="42.34162" lon="2.34648">
        <ele>1340.5</ele>
        <time>2019-01-07T21:54:30Z</time>
      </trkpt>
      <trkpt lat="42.34161" lon="2.34646">
        <ele>1340.4</ele>
        <time>2019-01-07T21:54:30Z</time>
      </trkpt>
      <trkpt lat="42.34158" lon="2.34644">
        <ele>1340.2</ele>
        <time>2019-01-07T21:54:31Z</time>
      </trkpt>
      <trkpt lat="42.34156" lon="2.34642">
        <ele>1339.8</ele>
        <time>2019-01-07T21:54:32Z</time>
      </trkpt>
      <trkpt lat="42.34153" lon="2.3464">
        <ele>1339.5</ele>
        <time>2019-01-07T21:54:33Z</time>
      </trkpt>
      <trkpt lat="42.34151" lon="2.34637">
        <ele>1339.4</ele>
        <time>2019-01-07T21:54:33Z</time>
      </trkpt>
      <trkpt lat="42.34149" lon="2.34635">
        <ele>1339.2</ele>
        <time>2019-01-07T21:54:34Z</time>
      </trkpt>
      <trkpt lat="42.34148" lon="2.34632">
        <ele>1339</ele>
        <time>2019-01-07T21:54:35Z</time>
      </trkpt>
      <trkpt lat="42.34145" lon="2.3463">
        <ele>1338.9</ele>
        <time>2019-01-07T21:54:35Z</time>
      </trkpt>
      <trkpt lat="42.34143" lon="2.34627">
        <ele>1338.6</ele>
        <time>2019-01-07T21:54:36Z</time>
      </trkpt>
      <trkpt lat="42.34141" lon="2.34624">
        <ele>1338.4</ele>
        <time>2019-01-07T21:54:37Z</time>
      </trkpt>
      <trkpt lat="42.3414" lon="2.34621">
        <ele>1338.3</ele>
        <time>2019-01-07T21:54:38Z</time>
      </trkpt>
      <trkpt lat="42.34138" lon="2.34617">
        <ele>1338.1</ele>
        <time>2019-01-07T21:54:39Z</time>
      </trkpt>
      <trkpt lat="42.34137" lon="2.34615">
        <ele>1338.2</ele>
        <time>2019-01-07T21:54:39Z</time>
      </trkpt>
      <trkpt lat="42.34135" lon="2.34612">
        <ele>1337.9</ele>
        <time>2019-01-07T21:54:40Z</time>
      </trkpt>
      <trkpt lat="42.34133" lon="2.34611">
        <ele>1337.7</ele>
        <time>2019-01-07T21:54:41Z</time>
      </trkpt>
      <trkpt lat="42.34131" lon="2.34608">
        <ele>1337.2</ele>
        <time>2019-01-07T21:54:41Z</time>
      </trkpt>
      <trkpt lat="42.34128" lon="2.34607">
        <ele>1336.5</ele>
        <time>2019-01-07T21:54:42Z</time>
      </trkpt>
      <trkpt lat="42.34125" lon="2.34606">
        <ele>1335.8</ele>
        <time>2019-01-07T21:54:43Z</time>
      </trkpt>
      <trkpt lat="42.34122" lon="2.34605">
        <ele>1335.1</ele>
        <time>2019-01-07T21:54:44Z</time>
      </trkpt>
      <trkpt lat="42.34119" lon="2.34603">
        <ele>1334.7</ele>
        <time>2019-01-07T21:54:45Z</time>
      </trkpt>
      <trkpt lat="42.34117" lon="2.34603">
        <ele>1334.1</ele>
        <time>2019-01-07T21:54:45Z</time>
      </trkpt>
      <trkpt lat="42.34114" lon="2.34601">
        <ele>1333.4</ele>
        <time>2019-01-07T21:54:46Z</time>
      </trkpt>
      <trkpt lat="42.34111" lon="2.346">
        <ele>1332.8</ele>
        <time>2019-01-07T21:54:47Z</time>
      </trkpt>
      <trkpt lat="42.34109" lon="2.34598">
        <ele>1332.6</ele>
        <time>2019-01-07T21:54:48Z</time>
      </trkpt>
      <trkpt lat="42.34107" lon="2.34595">
        <ele>1332.5</ele>
        <time>2019-01-07T21:54:48Z</time>
      </trkpt>
      <trkpt lat="42.34105" lon="2.34593">
        <ele>1332.4</ele>
        <time>2019-01-07T21:54:49Z</time>
      </trkpt>
      <trkpt lat="42.34103" lon="2.34589">
        <ele>1332.2</ele>
        <time>2019-01-07T21:54:50Z</time>
      </trkpt>
      <trkpt lat="42.341" lon="2.34587">
        <ele>1332.1</ele>
        <time>2019-01-07T21:54:51Z</time>
      </trkpt>
      <trkpt lat="42.34097" lon="2.34585">
        <ele>1332</ele>
        <time>2019-01-07T21:54:52Z</time>
      </trkpt>
      <trkpt lat="42.34095" lon="2.34583">
        <ele>1331.5</ele>
        <time>2019-01-07T21:54:52Z</time>
      </trkpt>
      <trkpt lat="42.34092" lon="2.3458">
        <ele>1331.1</ele>
        <time>2019-01-07T21:54:53Z</time>
      </trkpt>
      <trkpt lat="42.34091" lon="2.3458">
        <ele>1330.8</ele>
        <time>2019-01-07T21:54:54Z</time>
      </trkpt>
      <trkpt lat="42.34089" lon="2.34581">
        <ele>1330.6</ele>
        <time>2019-01-07T21:54:54Z</time>
      </trkpt>
      <trkpt lat="42.34089" lon="2.34578">
        <ele>1330.2</ele>
        <time>2019-01-07T21:54:55Z</time>
      </trkpt>
      <trkpt lat="42.34091" lon="2.34576">
        <ele>1330.2</ele>
        <time>2019-01-07T21:54:55Z</time>
      </trkpt>
      <trkpt lat="42.34093" lon="2.34574">
        <ele>1330.3</ele>
        <time>2019-01-07T21:54:56Z</time>
      </trkpt>
      <trkpt lat="42.34095" lon="2.34572">
        <ele>1330.5</ele>
        <time>2019-01-07T21:54:57Z</time>
      </trkpt>
      <trkpt lat="42.34098" lon="2.34569">
        <ele>1330.8</ele>
        <time>2019-01-07T21:54:58Z</time>
      </trkpt>
      <trkpt lat="42.341" lon="2.34567">
        <ele>1330.8</ele>
        <time>2019-01-07T21:54:59Z</time>
      </trkpt>
      <trkpt lat="42.34102" lon="2.34564">
        <ele>1331</ele>
        <time>2019-01-07T21:54:59Z</time>
      </trkpt>
      <trkpt lat="42.34105" lon="2.34561">
        <ele>1331.3</ele>
        <time>2019-01-07T21:55:00Z</time>
      </trkpt>
      <trkpt lat="42.34107" lon="2.3456">
        <ele>1331.4</ele>
        <time>2019-01-07T21:55:01Z</time>
      </trkpt>
      <trkpt lat="42.34108" lon="2.34558">
        <ele>1331.7</ele>
        <time>2019-01-07T21:55:01Z</time>
      </trkpt>
      <trkpt lat="42.34111" lon="2.34556">
        <ele>1332.1</ele>
        <time>2019-01-07T21:55:02Z</time>
      </trkpt>
      <trkpt lat="42.34113" lon="2.34553">
        <ele>1332.2</ele>
        <time>2019-01-07T21:55:03Z</time>
      </trkpt>
      <trkpt lat="42.34116" lon="2.3455">
        <ele>1332.4</ele>
        <time>2019-01-07T21:55:04Z</time>
      </trkpt>
      <trkpt lat="42.34119" lon="2.34548">
        <ele>1332.4</ele>
        <time>2019-01-07T21:55:05Z</time>
      </trkpt>
      <trkpt lat="42.3412" lon="2.34546">
        <ele>1332.5</ele>
        <time>2019-01-07T21:55:05Z</time>
      </trkpt>
      <trkpt lat="42.34122" lon="2.34542">
        <ele>1332.7</ele>
        <time>2019-01-07T21:55:06Z</time>
      </trkpt>
      <trkpt lat="42.34124" lon="2.3454">
        <ele>1332.6</ele>
        <time>2019-01-07T21:55:07Z</time>
      </trkpt>
      <trkpt lat="42.34126" lon="2.34537">
        <ele>1332.8</ele>
        <time>2019-01-07T21:55:08Z</time>
      </trkpt>
      <trkpt lat="42.34127" lon="2.34535">
        <ele>1332.9</ele>
        <time>2019-01-07T21:55:08Z</time>
      </trkpt>
      <trkpt lat="42.34128" lon="2.34531">
        <ele>1332.5</ele>
        <time>2019-01-07T21:55:09Z</time>
      </trkpt>
      <trkpt lat="42.34129" lon="2.34528">
        <ele>1332.5</ele>
        <time>2019-01-07T21:55:10Z</time>
      </trkpt>
      <trkpt lat="42.34132" lon="2.34516">
        <ele>1331.3</ele>
        <time>2019-01-07T21:55:12Z</time>
      </trkpt>
      <trkpt lat="42.34136" lon="2.34509">
        <ele>1331.6</ele>
        <time>2019-01-07T21:55:14Z</time>
      </trkpt>
      <trkpt lat="42.3414" lon="2.34497">
        <ele>1331.5</ele>
        <time>2019-01-07T21:55:16Z</time>
      </trkpt>
      <trkpt lat="42.34134" lon="2.34493">
        <ele>1331.6</ele>
        <time>2019-01-07T21:55:18Z</time>
      </trkpt>
      <trkpt lat="42.34129" lon="2.34492">
        <ele>1330.5</ele>
        <time>2019-01-07T21:55:20Z</time>
      </trkpt>
      <trkpt lat="42.3412" lon="2.34491">
        <ele>1328.1</ele>
        <time>2019-01-07T21:55:22Z</time>
      </trkpt>
      <trkpt lat="42.34114" lon="2.34492">
        <ele>1325.9</ele>
        <time>2019-01-07T21:55:24Z</time>
      </trkpt>
      <trkpt lat="42.34111" lon="2.34492">
        <ele>1325.3</ele>
        <time>2019-01-07T21:55:24Z</time>
      </trkpt>
      <trkpt lat="42.34102" lon="2.34492">
        <ele>1324.2</ele>
        <time>2019-01-07T21:55:27Z</time>
      </trkpt>
      <trkpt lat="42.34097" lon="2.34491">
        <ele>1323.9</ele>
        <time>2019-01-07T21:55:28Z</time>
      </trkpt>
      <trkpt lat="42.34095" lon="2.3449">
        <ele>1323.7</ele>
        <time>2019-01-07T21:55:29Z</time>
      </trkpt>
      <trkpt lat="42.34092" lon="2.3449">
        <ele>1323.5</ele>
        <time>2019-01-07T21:55:29Z</time>
      </trkpt>
      <trkpt lat="42.3409" lon="2.34489">
        <ele>1323.4</ele>
        <time>2019-01-07T21:55:30Z</time>
      </trkpt>
      <trkpt lat="42.34087" lon="2.34489">
        <ele>1323.2</ele>
        <time>2019-01-07T21:55:31Z</time>
      </trkpt>
      <trkpt lat="42.34085" lon="2.34489">
        <ele>1323</ele>
        <time>2019-01-07T21:55:31Z</time>
      </trkpt>
      <trkpt lat="42.34083" lon="2.34488">
        <ele>1323</ele>
        <time>2019-01-07T21:55:32Z</time>
      </trkpt>
      <trkpt lat="42.3408" lon="2.34487">
        <ele>1322.8</ele>
        <time>2019-01-07T21:55:33Z</time>
      </trkpt>
      <trkpt lat="42.34076" lon="2.34483">
        <ele>1323.1</ele>
        <time>2019-01-07T21:55:34Z</time>
      </trkpt>
      <trkpt lat="42.34074" lon="2.34481">
        <ele>1323.5</ele>
        <time>2019-01-07T21:55:35Z</time>
      </trkpt>
      <trkpt lat="42.34072" lon="2.34478">
        <ele>1324.3</ele>
        <time>2019-01-07T21:55:36Z</time>
      </trkpt>
      <trkpt lat="42.34071" lon="2.34475">
        <ele>1325</ele>
        <time>2019-01-07T21:55:36Z</time>
      </trkpt>
      <trkpt lat="42.3407" lon="2.34471">
        <ele>1325.8</ele>
        <time>2019-01-07T21:55:37Z</time>
      </trkpt>
      <trkpt lat="42.34069" lon="2.34468">
        <ele>1325.7</ele>
        <time>2019-01-07T21:55:38Z</time>
      </trkpt>
      <trkpt lat="42.34067" lon="2.34465">
        <ele>1325.6</ele>
        <time>2019-01-07T21:55:38Z</time>
      </trkpt>
      <trkpt lat="42.34066" lon="2.34461">
        <ele>1325.6</ele>
        <time>2019-01-07T21:55:39Z</time>
      </trkpt>
      <trkpt lat="42.34065" lon="2.34458">
        <ele>1325.6</ele>
        <time>2019-01-07T21:55:40Z</time>
      </trkpt>
      <trkpt lat="42.34064" lon="2.34454">
        <ele>1325.6</ele>
        <time>2019-01-07T21:55:41Z</time>
      </trkpt>
      <trkpt lat="42.34062" lon="2.3445">
        <ele>1325.4</ele>
        <time>2019-01-07T21:55:42Z</time>
      </trkpt>
      <trkpt lat="42.34061" lon="2.34447">
        <ele>1325.3</ele>
        <time>2019-01-07T21:55:42Z</time>
      </trkpt>
      <trkpt lat="42.34059" lon="2.34444">
        <ele>1325</ele>
        <time>2019-01-07T21:55:43Z</time>
      </trkpt>
      <trkpt lat="42.34058" lon="2.34441">
        <ele>1325</ele>
        <time>2019-01-07T21:55:44Z</time>
      </trkpt>
      <trkpt lat="42.34057" lon="2.34438">
        <ele>1324.9</ele>
        <time>2019-01-07T21:55:44Z</time>
      </trkpt>
      <trkpt lat="42.34056" lon="2.34434">
        <ele>1324.9</ele>
        <time>2019-01-07T21:55:45Z</time>
      </trkpt>
      <trkpt lat="42.34055" lon="2.34431">
        <ele>1324.9</ele>
        <time>2019-01-07T21:55:46Z</time>
      </trkpt>
      <trkpt lat="42.34054" lon="2.34428">
        <ele>1324.7</ele>
        <time>2019-01-07T21:55:47Z</time>
      </trkpt>
      <trkpt lat="42.34053" lon="2.34425">
        <ele>1324.5</ele>
        <time>2019-01-07T21:55:47Z</time>
      </trkpt>
      <trkpt lat="42.34052" lon="2.34422">
        <ele>1324.5</ele>
        <time>2019-01-07T21:55:48Z</time>
      </trkpt>
      <trkpt lat="42.34051" lon="2.34418">
        <ele>1324.4</ele>
        <time>2019-01-07T21:55:49Z</time>
      </trkpt>
      <trkpt lat="42.3405" lon="2.34415">
        <ele>1324.4</ele>
        <time>2019-01-07T21:55:49Z</time>
      </trkpt>
      <trkpt lat="42.34049" lon="2.34412">
        <ele>1324.4</ele>
        <time>2019-01-07T21:55:50Z</time>
      </trkpt>
      <trkpt lat="42.34048" lon="2.34409">
        <ele>1324.6</ele>
        <time>2019-01-07T21:55:51Z</time>
      </trkpt>
      <trkpt lat="42.34047" lon="2.34405">
        <ele>1324.5</ele>
        <time>2019-01-07T21:55:51Z</time>
      </trkpt>
      <trkpt lat="42.34045" lon="2.34402">
        <ele>1324.6</ele>
        <time>2019-01-07T21:55:52Z</time>
      </trkpt>
      <trkpt lat="42.34044" lon="2.34399">
        <ele>1324.6</ele>
        <time>2019-01-07T21:55:53Z</time>
      </trkpt>
      <trkpt lat="42.34043" lon="2.34396">
        <ele>1324.6</ele>
        <time>2019-01-07T21:55:54Z</time>
      </trkpt>
      <trkpt lat="42.34042" lon="2.34393">
        <ele>1324.6</ele>
        <time>2019-01-07T21:55:54Z</time>
      </trkpt>
      <trkpt lat="42.34041" lon="2.34391">
        <ele>1324.6</ele>
        <time>2019-01-07T21:55:55Z</time>
      </trkpt>
      <trkpt lat="42.3404" lon="2.34388">
        <ele>1324.7</ele>
        <time>2019-01-07T21:55:55Z</time>
      </trkpt>
      <trkpt lat="42.34039" lon="2.34384">
        <ele>1324.8</ele>
        <time>2019-01-07T21:55:56Z</time>
      </trkpt>
      <trkpt lat="42.34037" lon="2.3438">
        <ele>1325</ele>
        <time>2019-01-07T21:55:57Z</time>
      </trkpt>
      <trkpt lat="42.34035" lon="2.34376">
        <ele>1325.2</ele>
        <time>2019-01-07T21:55:58Z</time>
      </trkpt>
      <trkpt lat="42.34035" lon="2.34374">
        <ele>1325.2</ele>
        <time>2019-01-07T21:55:58Z</time>
      </trkpt>
      <trkpt lat="42.34033" lon="2.3437">
        <ele>1325.3</ele>
        <time>2019-01-07T21:55:59Z</time>
      </trkpt>
      <trkpt lat="42.34031" lon="2.34367">
        <ele>1325.3</ele>
        <time>2019-01-07T21:56:00Z</time>
      </trkpt>
      <trkpt lat="42.3403" lon="2.34364">
        <ele>1325.4</ele>
        <time>2019-01-07T21:56:01Z</time>
      </trkpt>
      <trkpt lat="42.34028" lon="2.3436">
        <ele>1325.4</ele>
        <time>2019-01-07T21:56:02Z</time>
      </trkpt>
      <trkpt lat="42.34026" lon="2.34357">
        <ele>1325.5</ele>
        <time>2019-01-07T21:56:03Z</time>
      </trkpt>
      <trkpt lat="42.34023" lon="2.34354">
        <ele>1325.4</ele>
        <time>2019-01-07T21:56:03Z</time>
      </trkpt>
      <trkpt lat="42.34021" lon="2.34352">
        <ele>1325.3</ele>
        <time>2019-01-07T21:56:04Z</time>
      </trkpt>
      <trkpt lat="42.34018" lon="2.34349">
        <ele>1325.1</ele>
        <time>2019-01-07T21:56:05Z</time>
      </trkpt>
      <trkpt lat="42.34015" lon="2.34346">
        <ele>1325.1</ele>
        <time>2019-01-07T21:56:06Z</time>
      </trkpt>
      <trkpt lat="42.34014" lon="2.34345">
        <ele>1324.9</ele>
        <time>2019-01-07T21:56:07Z</time>
      </trkpt>
      <trkpt lat="42.34011" lon="2.34342">
        <ele>1324.9</ele>
        <time>2019-01-07T21:56:07Z</time>
      </trkpt>
      <trkpt lat="42.34008" lon="2.34339">
        <ele>1324.9</ele>
        <time>2019-01-07T21:56:08Z</time>
      </trkpt>
      <trkpt lat="42.34006" lon="2.34337">
        <ele>1324.7</ele>
        <time>2019-01-07T21:56:09Z</time>
      </trkpt>
      <trkpt lat="42.34003" lon="2.34334">
        <ele>1324.7</ele>
        <time>2019-01-07T21:56:10Z</time>
      </trkpt>
      <trkpt lat="42.34001" lon="2.34331">
        <ele>1324.7</ele>
        <time>2019-01-07T21:56:11Z</time>
      </trkpt>
      <trkpt lat="42.33998" lon="2.34328">
        <ele>1324.7</ele>
        <time>2019-01-07T21:56:12Z</time>
      </trkpt>
      <trkpt lat="42.33997" lon="2.34326">
        <ele>1324.7</ele>
        <time>2019-01-07T21:56:12Z</time>
      </trkpt>
      <trkpt lat="42.33995" lon="2.34323">
        <ele>1324.5</ele>
        <time>2019-01-07T21:56:13Z</time>
      </trkpt>
      <trkpt lat="42.33993" lon="2.3432">
        <ele>1324.6</ele>
        <time>2019-01-07T21:56:14Z</time>
      </trkpt>
      <trkpt lat="42.33991" lon="2.34317">
        <ele>1324.3</ele>
        <time>2019-01-07T21:56:15Z</time>
      </trkpt>
      <trkpt lat="42.33988" lon="2.34314">
        <ele>1324.2</ele>
        <time>2019-01-07T21:56:16Z</time>
      </trkpt>
      <trkpt lat="42.33986" lon="2.34311">
        <ele>1324.1</ele>
        <time>2019-01-07T21:56:17Z</time>
      </trkpt>
      <trkpt lat="42.33983" lon="2.34308">
        <ele>1324</ele>
        <time>2019-01-07T21:56:17Z</time>
      </trkpt>
      <trkpt lat="42.33981" lon="2.34305">
        <ele>1323.8</ele>
        <time>2019-01-07T21:56:18Z</time>
      </trkpt>
      <trkpt lat="42.33979" lon="2.34301">
        <ele>1323.8</ele>
        <time>2019-01-07T21:56:19Z</time>
      </trkpt>
      <trkpt lat="42.33977" lon="2.34298">
        <ele>1323.6</ele>
        <time>2019-01-07T21:56:20Z</time>
      </trkpt>
      <trkpt lat="42.33974" lon="2.34295">
        <ele>1323.5</ele>
        <time>2019-01-07T21:56:21Z</time>
      </trkpt>
      <trkpt lat="42.33972" lon="2.34292">
        <ele>1323.3</ele>
        <time>2019-01-07T21:56:22Z</time>
      </trkpt>
      <trkpt lat="42.33969" lon="2.34289">
        <ele>1323.1</ele>
        <time>2019-01-07T21:56:23Z</time>
      </trkpt>
      <trkpt lat="42.33967" lon="2.34286">
        <ele>1323.3</ele>
        <time>2019-01-07T21:56:24Z</time>
      </trkpt>
      <trkpt lat="42.33965" lon="2.34282">
        <ele>1323</ele>
        <time>2019-01-07T21:56:25Z</time>
      </trkpt>
      <trkpt lat="42.33963" lon="2.34279">
        <ele>1323.1</ele>
        <time>2019-01-07T21:56:25Z</time>
      </trkpt>
      <trkpt lat="42.3396" lon="2.34275">
        <ele>1323</ele>
        <time>2019-01-07T21:56:26Z</time>
      </trkpt>
      <trkpt lat="42.33958" lon="2.34273">
        <ele>1322.9</ele>
        <time>2019-01-07T21:56:27Z</time>
      </trkpt>
      <trkpt lat="42.33955" lon="2.3427">
        <ele>1322.5</ele>
        <time>2019-01-07T21:56:28Z</time>
      </trkpt>
      <trkpt lat="42.33953" lon="2.34268">
        <ele>1322.3</ele>
        <time>2019-01-07T21:56:29Z</time>
      </trkpt>
      <trkpt lat="42.3395" lon="2.34264">
        <ele>1321.9</ele>
        <time>2019-01-07T21:56:30Z</time>
      </trkpt>
      <trkpt lat="42.33947" lon="2.34261">
        <ele>1321.5</ele>
        <time>2019-01-07T21:56:31Z</time>
      </trkpt>
      <trkpt lat="42.33945" lon="2.34258">
        <ele>1321</ele>
        <time>2019-01-07T21:56:32Z</time>
      </trkpt>
      <trkpt lat="42.33943" lon="2.34256">
        <ele>1320.8</ele>
        <time>2019-01-07T21:56:33Z</time>
      </trkpt>
      <trkpt lat="42.3394" lon="2.34253">
        <ele>1320.7</ele>
        <time>2019-01-07T21:56:33Z</time>
      </trkpt>
      <trkpt lat="42.33937" lon="2.3425">
        <ele>1320.4</ele>
        <time>2019-01-07T21:56:34Z</time>
      </trkpt>
      <trkpt lat="42.33935" lon="2.34247">
        <ele>1320.2</ele>
        <time>2019-01-07T21:56:35Z</time>
      </trkpt>
      <trkpt lat="42.33934" lon="2.34245">
        <ele>1320.1</ele>
        <time>2019-01-07T21:56:36Z</time>
      </trkpt>
      <trkpt lat="42.33931" lon="2.34242">
        <ele>1319.9</ele>
        <time>2019-01-07T21:56:37Z</time>
      </trkpt>
      <trkpt lat="42.33929" lon="2.34239">
        <ele>1320.1</ele>
        <time>2019-01-07T21:56:37Z</time>
      </trkpt>
      <trkpt lat="42.33927" lon="2.34237">
        <ele>1319.7</ele>
        <time>2019-01-07T21:56:38Z</time>
      </trkpt>
      <trkpt lat="42.33925" lon="2.34234">
        <ele>1319.5</ele>
        <time>2019-01-07T21:56:39Z</time>
      </trkpt>
      <trkpt lat="42.33922" lon="2.34231">
        <ele>1319.3</ele>
        <time>2019-01-07T21:56:40Z</time>
      </trkpt>
      <trkpt lat="42.3392" lon="2.34228">
        <ele>1319.1</ele>
        <time>2019-01-07T21:56:41Z</time>
      </trkpt>
      <trkpt lat="42.33918" lon="2.34225">
        <ele>1319</ele>
        <time>2019-01-07T21:56:41Z</time>
      </trkpt>
      <trkpt lat="42.33915" lon="2.34223">
        <ele>1318.8</ele>
        <time>2019-01-07T21:56:42Z</time>
      </trkpt>
      <trkpt lat="42.33913" lon="2.3422">
        <ele>1318.8</ele>
        <time>2019-01-07T21:56:43Z</time>
      </trkpt>
      <trkpt lat="42.33911" lon="2.34217">
        <ele>1318.7</ele>
        <time>2019-01-07T21:56:44Z</time>
      </trkpt>
      <trkpt lat="42.33909" lon="2.34215">
        <ele>1318.7</ele>
        <time>2019-01-07T21:56:45Z</time>
      </trkpt>
      <trkpt lat="42.33906" lon="2.34213">
        <ele>1318.6</ele>
        <time>2019-01-07T21:56:45Z</time>
      </trkpt>
      <trkpt lat="42.33904" lon="2.34215">
        <ele>1317.7</ele>
        <time>2019-01-07T21:56:46Z</time>
      </trkpt>
      <trkpt lat="42.33903" lon="2.34218">
        <ele>1317.3</ele>
        <time>2019-01-07T21:56:47Z</time>
      </trkpt>
      <trkpt lat="42.33901" lon="2.34222">
        <ele>1316.3</ele>
        <time>2019-01-07T21:56:48Z</time>
      </trkpt>
      <trkpt lat="42.33901" lon="2.34226">
        <ele>1315.6</ele>
        <time>2019-01-07T21:56:48Z</time>
      </trkpt>
      <trkpt lat="42.33899" lon="2.34229">
        <ele>1314.6</ele>
        <time>2019-01-07T21:56:49Z</time>
      </trkpt>
      <trkpt lat="42.33898" lon="2.34232">
        <ele>1313.9</ele>
        <time>2019-01-07T21:56:50Z</time>
      </trkpt>
      <trkpt lat="42.33897" lon="2.34236">
        <ele>1313.2</ele>
        <time>2019-01-07T21:56:51Z</time>
      </trkpt>
      <trkpt lat="42.33895" lon="2.34239">
        <ele>1312.3</ele>
        <time>2019-01-07T21:56:52Z</time>
      </trkpt>
      <trkpt lat="42.33894" lon="2.34243">
        <ele>1311.3</ele>
        <time>2019-01-07T21:56:52Z</time>
      </trkpt>
      <trkpt lat="42.33892" lon="2.34247">
        <ele>1310.4</ele>
        <time>2019-01-07T21:56:53Z</time>
      </trkpt>
      <trkpt lat="42.3389" lon="2.3425">
        <ele>1309.5</ele>
        <time>2019-01-07T21:56:54Z</time>
      </trkpt>
      <trkpt lat="42.33889" lon="2.34253">
        <ele>1308.5</ele>
        <time>2019-01-07T21:56:55Z</time>
      </trkpt>
      <trkpt lat="42.33887" lon="2.34256">
        <ele>1307.8</ele>
        <time>2019-01-07T21:56:55Z</time>
      </trkpt>
      <trkpt lat="42.33885" lon="2.34259">
        <ele>1307.3</ele>
        <time>2019-01-07T21:56:56Z</time>
      </trkpt>
      <trkpt lat="42.33884" lon="2.34261">
        <ele>1306.6</ele>
        <time>2019-01-07T21:56:57Z</time>
      </trkpt>
      <trkpt lat="42.33884" lon="2.34257">
        <ele>1307.3</ele>
        <time>2019-01-07T21:56:58Z</time>
      </trkpt>
      <trkpt lat="42.33885" lon="2.34253">
        <ele>1307.9</ele>
        <time>2019-01-07T21:56:58Z</time>
      </trkpt>
      <trkpt lat="42.33887" lon="2.34245">
        <ele>1309.6</ele>
        <time>2019-01-07T21:57:00Z</time>
      </trkpt>
      <trkpt lat="42.33889" lon="2.34243">
        <ele>1310.3</ele>
        <time>2019-01-07T21:57:01Z</time>
      </trkpt>
      <trkpt lat="42.3389" lon="2.3424">
        <ele>1311.2</ele>
        <time>2019-01-07T21:57:01Z</time>
      </trkpt>
      <trkpt lat="42.33891" lon="2.34236">
        <ele>1311.9</ele>
        <time>2019-01-07T21:57:02Z</time>
      </trkpt>
      <trkpt lat="42.3389" lon="2.34233">
        <ele>1312.4</ele>
        <time>2019-01-07T21:57:03Z</time>
      </trkpt>
      <trkpt lat="42.3389" lon="2.34231">
        <ele>1312.8</ele>
        <time>2019-01-07T21:57:03Z</time>
      </trkpt>
      <trkpt lat="42.33889" lon="2.34227">
        <ele>1313.1</ele>
        <time>2019-01-07T21:57:04Z</time>
      </trkpt>
      <trkpt lat="42.33888" lon="2.34224">
        <ele>1313.6</ele>
        <time>2019-01-07T21:57:05Z</time>
      </trkpt>
      <trkpt lat="42.33887" lon="2.34222">
        <ele>1313.7</ele>
        <time>2019-01-07T21:57:05Z</time>
      </trkpt>
      <trkpt lat="42.33886" lon="2.34219">
        <ele>1314.2</ele>
        <time>2019-01-07T21:57:06Z</time>
      </trkpt>
      <trkpt lat="42.33885" lon="2.34216">
        <ele>1314.2</ele>
        <time>2019-01-07T21:57:06Z</time>
      </trkpt>
      <trkpt lat="42.33885" lon="2.34214">
        <ele>1314.7</ele>
        <time>2019-01-07T21:57:07Z</time>
      </trkpt>
      <trkpt lat="42.33883" lon="2.34208">
        <ele>1315.2</ele>
        <time>2019-01-07T21:57:08Z</time>
      </trkpt>
      <trkpt lat="42.33881" lon="2.34205">
        <ele>1315.4</ele>
        <time>2019-01-07T21:57:09Z</time>
      </trkpt>
      <trkpt lat="42.3388" lon="2.34203">
        <ele>1315.5</ele>
        <time>2019-01-07T21:57:09Z</time>
      </trkpt>
      <trkpt lat="42.33878" lon="2.342">
        <ele>1315.7</ele>
        <time>2019-01-07T21:57:10Z</time>
      </trkpt>
      <trkpt lat="42.33876" lon="2.34197">
        <ele>1315.9</ele>
        <time>2019-01-07T21:57:11Z</time>
      </trkpt>
      <trkpt lat="42.33875" lon="2.34195">
        <ele>1316.1</ele>
        <time>2019-01-07T21:57:11Z</time>
      </trkpt>
      <trkpt lat="42.33873" lon="2.34192">
        <ele>1316.1</ele>
        <time>2019-01-07T21:57:12Z</time>
      </trkpt>
      <trkpt lat="42.33871" lon="2.34189">
        <ele>1316.2</ele>
        <time>2019-01-07T21:57:13Z</time>
      </trkpt>
      <trkpt lat="42.33869" lon="2.34185">
        <ele>1316.4</ele>
        <time>2019-01-07T21:57:14Z</time>
      </trkpt>
      <trkpt lat="42.33867" lon="2.34182">
        <ele>1316.5</ele>
        <time>2019-01-07T21:57:15Z</time>
      </trkpt>
      <trkpt lat="42.33866" lon="2.34179">
        <ele>1316.5</ele>
        <time>2019-01-07T21:57:15Z</time>
      </trkpt>
      <trkpt lat="42.33864" lon="2.34176">
        <ele>1316.4</ele>
        <time>2019-01-07T21:57:16Z</time>
      </trkpt>
      <trkpt lat="42.33862" lon="2.34174">
        <ele>1316.4</ele>
        <time>2019-01-07T21:57:17Z</time>
      </trkpt>
      <trkpt lat="42.33859" lon="2.34173">
        <ele>1316.1</ele>
        <time>2019-01-07T21:57:18Z</time>
      </trkpt>
      <trkpt lat="42.33857" lon="2.34171">
        <ele>1315.7</ele>
        <time>2019-01-07T21:57:18Z</time>
      </trkpt>
      <trkpt lat="42.33854" lon="2.3417">
        <ele>1315.3</ele>
        <time>2019-01-07T21:57:19Z</time>
      </trkpt>
      <trkpt lat="42.33851" lon="2.34168">
        <ele>1314.8</ele>
        <time>2019-01-07T21:57:20Z</time>
      </trkpt>
      <trkpt lat="42.33849" lon="2.34167">
        <ele>1314.4</ele>
        <time>2019-01-07T21:57:21Z</time>
      </trkpt>
      <trkpt lat="42.33846" lon="2.34165">
        <ele>1314.3</ele>
        <time>2019-01-07T21:57:21Z</time>
      </trkpt>
      <trkpt lat="42.33844" lon="2.34163">
        <ele>1314.1</ele>
        <time>2019-01-07T21:57:22Z</time>
      </trkpt>
      <trkpt lat="42.33842" lon="2.3416">
        <ele>1314.3</ele>
        <time>2019-01-07T21:57:23Z</time>
      </trkpt>
      <trkpt lat="42.3384" lon="2.34159">
        <ele>1314.1</ele>
        <time>2019-01-07T21:57:23Z</time>
      </trkpt>
      <trkpt lat="42.33838" lon="2.34157">
        <ele>1314.2</ele>
        <time>2019-01-07T21:57:24Z</time>
      </trkpt>
      <trkpt lat="42.33837" lon="2.34156">
        <ele>1314.2</ele>
        <time>2019-01-07T21:57:24Z</time>
      </trkpt>
      <trkpt lat="42.33835" lon="2.34152">
        <ele>1314.4</ele>
        <time>2019-01-07T21:57:25Z</time>
      </trkpt>
      <trkpt lat="42.33832" lon="2.3415">
        <ele>1314.4</ele>
        <time>2019-01-07T21:57:26Z</time>
      </trkpt>
      <trkpt lat="42.3383" lon="2.34147">
        <ele>1314.5</ele>
        <time>2019-01-07T21:57:27Z</time>
      </trkpt>
      <trkpt lat="42.33822" lon="2.34141">
        <ele>1313.1</ele>
        <time>2019-01-07T21:57:29Z</time>
      </trkpt>
      <trkpt lat="42.33819" lon="2.34139">
        <ele>1313.1</ele>
        <time>2019-01-07T21:57:30Z</time>
      </trkpt>
      <trkpt lat="42.33816" lon="2.34136">
        <ele>1313.1</ele>
        <time>2019-01-07T21:57:31Z</time>
      </trkpt>
      <trkpt lat="42.33815" lon="2.34134">
        <ele>1313</ele>
        <time>2019-01-07T21:57:32Z</time>
      </trkpt>
      <trkpt lat="42.33813" lon="2.34133">
        <ele>1312.8</ele>
        <time>2019-01-07T21:57:32Z</time>
      </trkpt>
      <trkpt lat="42.3381" lon="2.34131">
        <ele>1312.6</ele>
        <time>2019-01-07T21:57:33Z</time>
      </trkpt>
      <trkpt lat="42.33808" lon="2.34128">
        <ele>1312.4</ele>
        <time>2019-01-07T21:57:34Z</time>
      </trkpt>
      <trkpt lat="42.33805" lon="2.34125">
        <ele>1312.4</ele>
        <time>2019-01-07T21:57:35Z</time>
      </trkpt>
      <trkpt lat="42.33803" lon="2.34123">
        <ele>1312.4</ele>
        <time>2019-01-07T21:57:36Z</time>
      </trkpt>
      <trkpt lat="42.338" lon="2.3412">
        <ele>1312.5</ele>
        <time>2019-01-07T21:57:37Z</time>
      </trkpt>
      <trkpt lat="42.33797" lon="2.34118">
        <ele>1312.4</ele>
        <time>2019-01-07T21:57:37Z</time>
      </trkpt>
      <trkpt lat="42.33795" lon="2.34116">
        <ele>1312.3</ele>
        <time>2019-01-07T21:57:38Z</time>
      </trkpt>
      <trkpt lat="42.33792" lon="2.34114">
        <ele>1311.9</ele>
        <time>2019-01-07T21:57:39Z</time>
      </trkpt>
      <trkpt lat="42.33789" lon="2.34112">
        <ele>1311.5</ele>
        <time>2019-01-07T21:57:40Z</time>
      </trkpt>
      <trkpt lat="42.33787" lon="2.3411">
        <ele>1311.6</ele>
        <time>2019-01-07T21:57:41Z</time>
      </trkpt>
      <trkpt lat="42.33784" lon="2.34108">
        <ele>1311.1</ele>
        <time>2019-01-07T21:57:42Z</time>
      </trkpt>
      <trkpt lat="42.33782" lon="2.34107">
        <ele>1311</ele>
        <time>2019-01-07T21:57:42Z</time>
      </trkpt>
      <trkpt lat="42.33779" lon="2.34104">
        <ele>1310.7</ele>
        <time>2019-01-07T21:57:43Z</time>
      </trkpt>
      <trkpt lat="42.33776" lon="2.34102">
        <ele>1310.5</ele>
        <time>2019-01-07T21:57:44Z</time>
      </trkpt>
      <trkpt lat="42.33774" lon="2.341">
        <ele>1310.4</ele>
        <time>2019-01-07T21:57:45Z</time>
      </trkpt>
      <trkpt lat="42.33771" lon="2.34098">
        <ele>1310.2</ele>
        <time>2019-01-07T21:57:45Z</time>
      </trkpt>
      <trkpt lat="42.33768" lon="2.34096">
        <ele>1310</ele>
        <time>2019-01-07T21:57:46Z</time>
      </trkpt>
      <trkpt lat="42.33766" lon="2.34095">
        <ele>1309.9</ele>
        <time>2019-01-07T21:57:47Z</time>
      </trkpt>
      <trkpt lat="42.33763" lon="2.34093">
        <ele>1309.7</ele>
        <time>2019-01-07T21:57:48Z</time>
      </trkpt>
      <trkpt lat="42.3376" lon="2.34092">
        <ele>1309.6</ele>
        <time>2019-01-07T21:57:49Z</time>
      </trkpt>
      <trkpt lat="42.33757" lon="2.34091">
        <ele>1309.3</ele>
        <time>2019-01-07T21:57:49Z</time>
      </trkpt>
      <trkpt lat="42.33754" lon="2.34092">
        <ele>1308.6</ele>
        <time>2019-01-07T21:57:50Z</time>
      </trkpt>
      <trkpt lat="42.33748" lon="2.34093">
        <ele>1307.3</ele>
        <time>2019-01-07T21:57:52Z</time>
      </trkpt>
      <trkpt lat="42.33739" lon="2.34098">
        <ele>1305.5</ele>
        <time>2019-01-07T21:57:55Z</time>
      </trkpt>
      <trkpt lat="42.33733" lon="2.34099">
        <ele>1304.4</ele>
        <time>2019-01-07T21:57:56Z</time>
      </trkpt>
      <trkpt lat="42.33729" lon="2.34099">
        <ele>1304.1</ele>
        <time>2019-01-07T21:57:57Z</time>
      </trkpt>
      <trkpt lat="42.33726" lon="2.341">
        <ele>1303.7</ele>
        <time>2019-01-07T21:57:58Z</time>
      </trkpt>
      <trkpt lat="42.33723" lon="2.341">
        <ele>1303.4</ele>
        <time>2019-01-07T21:57:59Z</time>
      </trkpt>
      <trkpt lat="42.33721" lon="2.341">
        <ele>1303.3</ele>
        <time>2019-01-07T21:57:59Z</time>
      </trkpt>
      <trkpt lat="42.33719" lon="2.341">
        <ele>1303.4</ele>
        <time>2019-01-07T21:58:00Z</time>
      </trkpt>
      <trkpt lat="42.33716" lon="2.341">
        <ele>1303.4</ele>
        <time>2019-01-07T21:58:01Z</time>
      </trkpt>
      <trkpt lat="42.33713" lon="2.34099">
        <ele>1303.5</ele>
        <time>2019-01-07T21:58:01Z</time>
      </trkpt>
      <trkpt lat="42.33711" lon="2.34099">
        <ele>1303.5</ele>
        <time>2019-01-07T21:58:02Z</time>
      </trkpt>
      <trkpt lat="42.33708" lon="2.34098">
        <ele>1303.4</ele>
        <time>2019-01-07T21:58:03Z</time>
      </trkpt>
      <trkpt lat="42.33705" lon="2.34098">
        <ele>1303.5</ele>
        <time>2019-01-07T21:58:04Z</time>
      </trkpt>
      <trkpt lat="42.33703" lon="2.34098">
        <ele>1303.5</ele>
        <time>2019-01-07T21:58:04Z</time>
      </trkpt>
      <trkpt lat="42.33701" lon="2.34098">
        <ele>1303.6</ele>
        <time>2019-01-07T21:58:05Z</time>
      </trkpt>
      <trkpt lat="42.33699" lon="2.34098">
        <ele>1303.7</ele>
        <time>2019-01-07T21:58:05Z</time>
      </trkpt>
      <trkpt lat="42.33697" lon="2.34097">
        <ele>1303.6</ele>
        <time>2019-01-07T21:58:06Z</time>
      </trkpt>
      <trkpt lat="42.33695" lon="2.34097">
        <ele>1303.6</ele>
        <time>2019-01-07T21:58:06Z</time>
      </trkpt>
      <trkpt lat="42.33691" lon="2.34097">
        <ele>1303.4</ele>
        <time>2019-01-07T21:58:07Z</time>
      </trkpt>
      <trkpt lat="42.33688" lon="2.34097">
        <ele>1303.3</ele>
        <time>2019-01-07T21:58:08Z</time>
      </trkpt>
      <trkpt lat="42.33684" lon="2.34096">
        <ele>1303.1</ele>
        <time>2019-01-07T21:58:09Z</time>
      </trkpt>
      <trkpt lat="42.33681" lon="2.34096">
        <ele>1303.3</ele>
        <time>2019-01-07T21:58:10Z</time>
      </trkpt>
      <trkpt lat="42.33678" lon="2.34094">
        <ele>1303.3</ele>
        <time>2019-01-07T21:58:11Z</time>
      </trkpt>
      <trkpt lat="42.33675" lon="2.34093">
        <ele>1303.4</ele>
        <time>2019-01-07T21:58:12Z</time>
      </trkpt>
      <trkpt lat="42.33672" lon="2.34091">
        <ele>1303.8</ele>
        <time>2019-01-07T21:58:13Z</time>
      </trkpt>
      <trkpt lat="42.33669" lon="2.3409">
        <ele>1303.8</ele>
        <time>2019-01-07T21:58:14Z</time>
      </trkpt>
      <trkpt lat="42.33664" lon="2.34088">
        <ele>1303.8</ele>
        <time>2019-01-07T21:58:15Z</time>
      </trkpt>
      <trkpt lat="42.33661" lon="2.34085">
        <ele>1303.8</ele>
        <time>2019-01-07T21:58:16Z</time>
      </trkpt>
      <trkpt lat="42.33658" lon="2.34083">
        <ele>1303.8</ele>
        <time>2019-01-07T21:58:17Z</time>
      </trkpt>
      <trkpt lat="42.33655" lon="2.34081">
        <ele>1303.9</ele>
        <time>2019-01-07T21:58:18Z</time>
      </trkpt>
      <trkpt lat="42.33652" lon="2.34078">
        <ele>1303.8</ele>
        <time>2019-01-07T21:58:19Z</time>
      </trkpt>
      <trkpt lat="42.33649" lon="2.34076">
        <ele>1304</ele>
        <time>2019-01-07T21:58:19Z</time>
      </trkpt>
      <trkpt lat="42.33647" lon="2.34073">
        <ele>1304.2</ele>
        <time>2019-01-07T21:58:20Z</time>
      </trkpt>
      <trkpt lat="42.33645" lon="2.34071">
        <ele>1304.1</ele>
        <time>2019-01-07T21:58:21Z</time>
      </trkpt>
      <trkpt lat="42.33643" lon="2.34069">
        <ele>1304.3</ele>
        <time>2019-01-07T21:58:22Z</time>
      </trkpt>
      <trkpt lat="42.3364" lon="2.34067">
        <ele>1304.2</ele>
        <time>2019-01-07T21:58:22Z</time>
      </trkpt>
      <trkpt lat="42.33637" lon="2.34066">
        <ele>1304</ele>
        <time>2019-01-07T21:58:23Z</time>
      </trkpt>
      <trkpt lat="42.33635" lon="2.34064">
        <ele>1303.8</ele>
        <time>2019-01-07T21:58:24Z</time>
      </trkpt>
      <trkpt lat="42.33633" lon="2.34063">
        <ele>1303.9</ele>
        <time>2019-01-07T21:58:25Z</time>
      </trkpt>
      <trkpt lat="42.33631" lon="2.34062">
        <ele>1303.6</ele>
        <time>2019-01-07T21:58:25Z</time>
      </trkpt>
      <trkpt lat="42.3363" lon="2.3406">
        <ele>1303.7</ele>
        <time>2019-01-07T21:58:26Z</time>
      </trkpt>
      <trkpt lat="42.33627" lon="2.34057">
        <ele>1303.6</ele>
        <time>2019-01-07T21:58:26Z</time>
      </trkpt>
      <trkpt lat="42.33625" lon="2.34055">
        <ele>1303.6</ele>
        <time>2019-01-07T21:58:27Z</time>
      </trkpt>
      <trkpt lat="42.33621" lon="2.34051">
        <ele>1303.6</ele>
        <time>2019-01-07T21:58:28Z</time>
      </trkpt>
      <trkpt lat="42.33619" lon="2.34049">
        <ele>1303.5</ele>
        <time>2019-01-07T21:58:29Z</time>
      </trkpt>
      <trkpt lat="42.33617" lon="2.34046">
        <ele>1303.5</ele>
        <time>2019-01-07T21:58:30Z</time>
      </trkpt>
      <trkpt lat="42.33615" lon="2.34043">
        <ele>1303.6</ele>
        <time>2019-01-07T21:58:31Z</time>
      </trkpt>
      <trkpt lat="42.33613" lon="2.34039">
        <ele>1303.6</ele>
        <time>2019-01-07T21:58:32Z</time>
      </trkpt>
      <trkpt lat="42.33611" lon="2.34036">
        <ele>1303.8</ele>
        <time>2019-01-07T21:58:33Z</time>
      </trkpt>
      <trkpt lat="42.33609" lon="2.34032">
        <ele>1303.6</ele>
        <time>2019-01-07T21:58:33Z</time>
      </trkpt>
      <trkpt lat="42.33607" lon="2.34029">
        <ele>1303.6</ele>
        <time>2019-01-07T21:58:34Z</time>
      </trkpt>
      <trkpt lat="42.33605" lon="2.34026">
        <ele>1303.4</ele>
        <time>2019-01-07T21:58:35Z</time>
      </trkpt>
      <trkpt lat="42.33602" lon="2.34023">
        <ele>1303.2</ele>
        <time>2019-01-07T21:58:36Z</time>
      </trkpt>
      <trkpt lat="42.336" lon="2.34019">
        <ele>1303</ele>
        <time>2019-01-07T21:58:37Z</time>
      </trkpt>
      <trkpt lat="42.33598" lon="2.34016">
        <ele>1302.9</ele>
        <time>2019-01-07T21:58:38Z</time>
      </trkpt>
      <trkpt lat="42.33596" lon="2.34012">
        <ele>1302.7</ele>
        <time>2019-01-07T21:58:39Z</time>
      </trkpt>
      <trkpt lat="42.33594" lon="2.34009">
        <ele>1302.7</ele>
        <time>2019-01-07T21:58:39Z</time>
      </trkpt>
      <trkpt lat="42.33591" lon="2.34006">
        <ele>1302.3</ele>
        <time>2019-01-07T21:58:40Z</time>
      </trkpt>
      <trkpt lat="42.33589" lon="2.34003">
        <ele>1302.2</ele>
        <time>2019-01-07T21:58:41Z</time>
      </trkpt>
      <trkpt lat="42.33587" lon="2.34">
        <ele>1302</ele>
        <time>2019-01-07T21:58:42Z</time>
      </trkpt>
      <trkpt lat="42.33584" lon="2.33997">
        <ele>1302</ele>
        <time>2019-01-07T21:58:43Z</time>
      </trkpt>
      <trkpt lat="42.33582" lon="2.33994">
        <ele>1301.9</ele>
        <time>2019-01-07T21:58:44Z</time>
      </trkpt>
      <trkpt lat="42.3358" lon="2.33992">
        <ele>1302</ele>
        <time>2019-01-07T21:58:45Z</time>
      </trkpt>
      <trkpt lat="42.33577" lon="2.33991">
        <ele>1301.4</ele>
        <time>2019-01-07T21:58:45Z</time>
      </trkpt>
      <trkpt lat="42.33574" lon="2.33988">
        <ele>1301.3</ele>
        <time>2019-01-07T21:58:46Z</time>
      </trkpt>
      <trkpt lat="42.33571" lon="2.33986">
        <ele>1301.1</ele>
        <time>2019-01-07T21:58:47Z</time>
      </trkpt>
      <trkpt lat="42.33569" lon="2.33984">
        <ele>1301</ele>
        <time>2019-01-07T21:58:48Z</time>
      </trkpt>
      <trkpt lat="42.33568" lon="2.33983">
        <ele>1300.9</ele>
        <time>2019-01-07T21:58:48Z</time>
      </trkpt>
      <trkpt lat="42.33565" lon="2.3398">
        <ele>1300.9</ele>
        <time>2019-01-07T21:58:49Z</time>
      </trkpt>
      <trkpt lat="42.33563" lon="2.33978">
        <ele>1300.7</ele>
        <time>2019-01-07T21:58:50Z</time>
      </trkpt>
      <trkpt lat="42.3356" lon="2.33975">
        <ele>1300.7</ele>
        <time>2019-01-07T21:58:51Z</time>
      </trkpt>
      <trkpt lat="42.33558" lon="2.33973">
        <ele>1300.5</ele>
        <time>2019-01-07T21:58:52Z</time>
      </trkpt>
      <trkpt lat="42.33555" lon="2.3397">
        <ele>1300.4</ele>
        <time>2019-01-07T21:58:53Z</time>
      </trkpt>
      <trkpt lat="42.33552" lon="2.33967">
        <ele>1300.2</ele>
        <time>2019-01-07T21:58:53Z</time>
      </trkpt>
      <trkpt lat="42.3355" lon="2.33964">
        <ele>1300</ele>
        <time>2019-01-07T21:58:54Z</time>
      </trkpt>
      <trkpt lat="42.33547" lon="2.33961">
        <ele>1300</ele>
        <time>2019-01-07T21:58:55Z</time>
      </trkpt>
      <trkpt lat="42.33545" lon="2.33958">
        <ele>1300</ele>
        <time>2019-01-07T21:58:56Z</time>
      </trkpt>
      <trkpt lat="42.33543" lon="2.33956">
        <ele>1299.8</ele>
        <time>2019-01-07T21:58:57Z</time>
      </trkpt>
      <trkpt lat="42.33541" lon="2.33953">
        <ele>1299.5</ele>
        <time>2019-01-07T21:58:58Z</time>
      </trkpt>
      <trkpt lat="42.33538" lon="2.33951">
        <ele>1299.2</ele>
        <time>2019-01-07T21:58:58Z</time>
      </trkpt>
      <trkpt lat="42.33536" lon="2.33948">
        <ele>1299</ele>
        <time>2019-01-07T21:58:59Z</time>
      </trkpt>
      <trkpt lat="42.33533" lon="2.33945">
        <ele>1298.7</ele>
        <time>2019-01-07T21:59:00Z</time>
      </trkpt>
      <trkpt lat="42.33531" lon="2.33942">
        <ele>1298.4</ele>
        <time>2019-01-07T21:59:01Z</time>
      </trkpt>
      <trkpt lat="42.33528" lon="2.33939">
        <ele>1298.1</ele>
        <time>2019-01-07T21:59:02Z</time>
      </trkpt>
      <trkpt lat="42.33526" lon="2.33936">
        <ele>1297.9</ele>
        <time>2019-01-07T21:59:03Z</time>
      </trkpt>
      <trkpt lat="42.33524" lon="2.33933">
        <ele>1297.7</ele>
        <time>2019-01-07T21:59:04Z</time>
      </trkpt>
      <trkpt lat="42.33521" lon="2.33931">
        <ele>1297.4</ele>
        <time>2019-01-07T21:59:04Z</time>
      </trkpt>
      <trkpt lat="42.3352" lon="2.3393">
        <ele>1297</ele>
        <time>2019-01-07T21:59:05Z</time>
      </trkpt>
      <trkpt lat="42.33519" lon="2.33928">
        <ele>1297.1</ele>
        <time>2019-01-07T21:59:05Z</time>
      </trkpt>
      <trkpt lat="42.33517" lon="2.33926">
        <ele>1297.1</ele>
        <time>2019-01-07T21:59:06Z</time>
      </trkpt>
      <trkpt lat="42.33515" lon="2.33922">
        <ele>1297</ele>
        <time>2019-01-07T21:59:07Z</time>
      </trkpt>
      <trkpt lat="42.33513" lon="2.3392">
        <ele>1296.6</ele>
        <time>2019-01-07T21:59:08Z</time>
      </trkpt>
      <trkpt lat="42.3351" lon="2.33917">
        <ele>1296.3</ele>
        <time>2019-01-07T21:59:08Z</time>
      </trkpt>
      <trkpt lat="42.33507" lon="2.33914">
        <ele>1295.9</ele>
        <time>2019-01-07T21:59:09Z</time>
      </trkpt>
      <trkpt lat="42.33505" lon="2.33912">
        <ele>1295.6</ele>
        <time>2019-01-07T21:59:10Z</time>
      </trkpt>
      <trkpt lat="42.33502" lon="2.33909">
        <ele>1295.2</ele>
        <time>2019-01-07T21:59:11Z</time>
      </trkpt>
      <trkpt lat="42.33499" lon="2.33906">
        <ele>1294.8</ele>
        <time>2019-01-07T21:59:12Z</time>
      </trkpt>
      <trkpt lat="42.33497" lon="2.33903">
        <ele>1294.7</ele>
        <time>2019-01-07T21:59:13Z</time>
      </trkpt>
      <trkpt lat="42.33494" lon="2.33901">
        <ele>1294.6</ele>
        <time>2019-01-07T21:59:14Z</time>
      </trkpt>
      <trkpt lat="42.33491" lon="2.33899">
        <ele>1294.4</ele>
        <time>2019-01-07T21:59:15Z</time>
      </trkpt>
      <trkpt lat="42.33489" lon="2.33896">
        <ele>1294.4</ele>
        <time>2019-01-07T21:59:15Z</time>
      </trkpt>
      <trkpt lat="42.33487" lon="2.33894">
        <ele>1294.2</ele>
        <time>2019-01-07T21:59:16Z</time>
      </trkpt>
      <trkpt lat="42.33484" lon="2.33892">
        <ele>1294</ele>
        <time>2019-01-07T21:59:17Z</time>
      </trkpt>
      <trkpt lat="42.33481" lon="2.3389">
        <ele>1293.7</ele>
        <time>2019-01-07T21:59:18Z</time>
      </trkpt>
      <trkpt lat="42.33478" lon="2.33888">
        <ele>1293.3</ele>
        <time>2019-01-07T21:59:19Z</time>
      </trkpt>
      <trkpt lat="42.33475" lon="2.33886">
        <ele>1293</ele>
        <time>2019-01-07T21:59:20Z</time>
      </trkpt>
      <trkpt lat="42.33471" lon="2.33885">
        <ele>1292.6</ele>
        <time>2019-01-07T21:59:21Z</time>
      </trkpt>
      <trkpt lat="42.33469" lon="2.33884">
        <ele>1292</ele>
        <time>2019-01-07T21:59:21Z</time>
      </trkpt>
      <trkpt lat="42.33467" lon="2.33884">
        <ele>1291.6</ele>
        <time>2019-01-07T21:59:22Z</time>
      </trkpt>
      <trkpt lat="42.33465" lon="2.33886">
        <ele>1290.8</ele>
        <time>2019-01-07T21:59:22Z</time>
      </trkpt>
      <trkpt lat="42.33465" lon="2.33889">
        <ele>1290.4</ele>
        <time>2019-01-07T21:59:23Z</time>
      </trkpt>
      <trkpt lat="42.33465" lon="2.33892">
        <ele>1289.8</ele>
        <time>2019-01-07T21:59:24Z</time>
      </trkpt>
      <trkpt lat="42.33466" lon="2.33896">
        <ele>1289.3</ele>
        <time>2019-01-07T21:59:24Z</time>
      </trkpt>
      <trkpt lat="42.33467" lon="2.33899">
        <ele>1289</ele>
        <time>2019-01-07T21:59:25Z</time>
      </trkpt>
      <trkpt lat="42.33469" lon="2.33901">
        <ele>1289.2</ele>
        <time>2019-01-07T21:59:26Z</time>
      </trkpt>
      <trkpt lat="42.33472" lon="2.33903">
        <ele>1289.5</ele>
        <time>2019-01-07T21:59:27Z</time>
      </trkpt>
      <trkpt lat="42.33474" lon="2.33904">
        <ele>1289.7</ele>
        <time>2019-01-07T21:59:27Z</time>
      </trkpt>
      <trkpt lat="42.33476" lon="2.33906">
        <ele>1290</ele>
        <time>2019-01-07T21:59:28Z</time>
      </trkpt>
      <trkpt lat="42.33479" lon="2.33908">
        <ele>1290.2</ele>
        <time>2019-01-07T21:59:29Z</time>
      </trkpt>
      <trkpt lat="42.33482" lon="2.3391">
        <ele>1290.4</ele>
        <time>2019-01-07T21:59:30Z</time>
      </trkpt>
      <trkpt lat="42.33484" lon="2.33912">
        <ele>1290.6</ele>
        <time>2019-01-07T21:59:30Z</time>
      </trkpt>
      <trkpt lat="42.33486" lon="2.33914">
        <ele>1290.5</ele>
        <time>2019-01-07T21:59:31Z</time>
      </trkpt>
      <trkpt lat="42.33489" lon="2.33917">
        <ele>1290.6</ele>
        <time>2019-01-07T21:59:32Z</time>
      </trkpt>
      <trkpt lat="42.33491" lon="2.3392">
        <ele>1290.4</ele>
        <time>2019-01-07T21:59:33Z</time>
      </trkpt>
      <trkpt lat="42.33494" lon="2.33923">
        <ele>1290.4</ele>
        <time>2019-01-07T21:59:34Z</time>
      </trkpt>
      <trkpt lat="42.33496" lon="2.33926">
        <ele>1290.4</ele>
        <time>2019-01-07T21:59:34Z</time>
      </trkpt>
      <trkpt lat="42.33498" lon="2.33929">
        <ele>1290.2</ele>
        <time>2019-01-07T21:59:35Z</time>
      </trkpt>
      <trkpt lat="42.335" lon="2.33932">
        <ele>1290.2</ele>
        <time>2019-01-07T21:59:36Z</time>
      </trkpt>
      <trkpt lat="42.33502" lon="2.33935">
        <ele>1290.4</ele>
        <time>2019-01-07T21:59:37Z</time>
      </trkpt>
      <trkpt lat="42.33504" lon="2.33938">
        <ele>1290.4</ele>
        <time>2019-01-07T21:59:38Z</time>
      </trkpt>
      <trkpt lat="42.33506" lon="2.33942">
        <ele>1290.5</ele>
        <time>2019-01-07T21:59:39Z</time>
      </trkpt>
      <trkpt lat="42.33508" lon="2.33944">
        <ele>1290.7</ele>
        <time>2019-01-07T21:59:39Z</time>
      </trkpt>
      <trkpt lat="42.3351" lon="2.33947">
        <ele>1290.5</ele>
        <time>2019-01-07T21:59:40Z</time>
      </trkpt>
      <trkpt lat="42.33511" lon="2.33951">
        <ele>1290.5</ele>
        <time>2019-01-07T21:59:41Z</time>
      </trkpt>
      <trkpt lat="42.33513" lon="2.33954">
        <ele>1290.5</ele>
        <time>2019-01-07T21:59:42Z</time>
      </trkpt>
      <trkpt lat="42.33515" lon="2.33958">
        <ele>1290.4</ele>
        <time>2019-01-07T21:59:43Z</time>
      </trkpt>
      <trkpt lat="42.33517" lon="2.33961">
        <ele>1290.5</ele>
        <time>2019-01-07T21:59:43Z</time>
      </trkpt>
      <trkpt lat="42.33519" lon="2.33964">
        <ele>1290.6</ele>
        <time>2019-01-07T21:59:44Z</time>
      </trkpt>
      <trkpt lat="42.33521" lon="2.33967">
        <ele>1290.8</ele>
        <time>2019-01-07T21:59:45Z</time>
      </trkpt>
      <trkpt lat="42.33523" lon="2.3397">
        <ele>1290.9</ele>
        <time>2019-01-07T21:59:46Z</time>
      </trkpt>
      <trkpt lat="42.33525" lon="2.33973">
        <ele>1290.9</ele>
        <time>2019-01-07T21:59:47Z</time>
      </trkpt>
      <trkpt lat="42.33527" lon="2.33976">
        <ele>1290.9</ele>
        <time>2019-01-07T21:59:48Z</time>
      </trkpt>
      <trkpt lat="42.33529" lon="2.3398">
        <ele>1290.9</ele>
        <time>2019-01-07T21:59:48Z</time>
      </trkpt>
      <trkpt lat="42.33531" lon="2.33982">
        <ele>1290.7</ele>
        <time>2019-01-07T21:59:49Z</time>
      </trkpt>
      <trkpt lat="42.33533" lon="2.33985">
        <ele>1290.8</ele>
        <time>2019-01-07T21:59:50Z</time>
      </trkpt>
      <trkpt lat="42.33535" lon="2.33988">
        <ele>1290.8</ele>
        <time>2019-01-07T21:59:51Z</time>
      </trkpt>
      <trkpt lat="42.33537" lon="2.33991">
        <ele>1290.7</ele>
        <time>2019-01-07T21:59:51Z</time>
      </trkpt>
      <trkpt lat="42.33539" lon="2.33994">
        <ele>1290.4</ele>
        <time>2019-01-07T21:59:52Z</time>
      </trkpt>
      <trkpt lat="42.3354" lon="2.33998">
        <ele>1290</ele>
        <time>2019-01-07T21:59:53Z</time>
      </trkpt>
      <trkpt lat="42.33541" lon="2.34002">
        <ele>1289.6</ele>
        <time>2019-01-07T21:59:54Z</time>
      </trkpt>
      <trkpt lat="42.33543" lon="2.34005">
        <ele>1289.6</ele>
        <time>2019-01-07T21:59:55Z</time>
      </trkpt>
      <trkpt lat="42.33545" lon="2.34007">
        <ele>1289.8</ele>
        <time>2019-01-07T21:59:56Z</time>
      </trkpt>
      <trkpt lat="42.33547" lon="2.3401">
        <ele>1289.9</ele>
        <time>2019-01-07T21:59:56Z</time>
      </trkpt>
      <trkpt lat="42.33549" lon="2.34014">
        <ele>1289.7</ele>
        <time>2019-01-07T21:59:57Z</time>
      </trkpt>
      <trkpt lat="42.3355" lon="2.34018">
        <ele>1289.2</ele>
        <time>2019-01-07T21:59:58Z</time>
      </trkpt>
      <trkpt lat="42.33551" lon="2.34022">
        <ele>1288.8</ele>
        <time>2019-01-07T21:59:59Z</time>
      </trkpt>
      <trkpt lat="42.33552" lon="2.34026">
        <ele>1288.2</ele>
        <time>2019-01-07T22:00:00Z</time>
      </trkpt>
      <trkpt lat="42.33553" lon="2.3403">
        <ele>1288.2</ele>
        <time>2019-01-07T22:00:00Z</time>
      </trkpt>
      <trkpt lat="42.33555" lon="2.34033">
        <ele>1288.4</ele>
        <time>2019-01-07T22:00:01Z</time>
      </trkpt>
      <trkpt lat="42.33557" lon="2.34036">
        <ele>1288.7</ele>
        <time>2019-01-07T22:00:02Z</time>
      </trkpt>
      <trkpt lat="42.33559" lon="2.34039">
        <ele>1288.9</ele>
        <time>2019-01-07T22:00:03Z</time>
      </trkpt>
      <trkpt lat="42.33561" lon="2.34042">
        <ele>1288.9</ele>
        <time>2019-01-07T22:00:04Z</time>
      </trkpt>
      <trkpt lat="42.33563" lon="2.34046">
        <ele>1289</ele>
        <time>2019-01-07T22:00:05Z</time>
      </trkpt>
      <trkpt lat="42.33564" lon="2.34049">
        <ele>1289.1</ele>
        <time>2019-01-07T22:00:05Z</time>
      </trkpt>
      <trkpt lat="42.33566" lon="2.34051">
        <ele>1289.3</ele>
        <time>2019-01-07T22:00:06Z</time>
      </trkpt>
      <trkpt lat="42.33567" lon="2.34053">
        <ele>1289.5</ele>
        <time>2019-01-07T22:00:06Z</time>
      </trkpt>
      <trkpt lat="42.33569" lon="2.34055">
        <ele>1289.4</ele>
        <time>2019-01-07T22:00:07Z</time>
      </trkpt>
      <trkpt lat="42.33567" lon="2.34058">
        <ele>1288.7</ele>
        <time>2019-01-07T22:00:08Z</time>
      </trkpt>
      <trkpt lat="42.33564" lon="2.34062">
        <ele>1287.6</ele>
        <time>2019-01-07T22:00:09Z</time>
      </trkpt>
      <trkpt lat="42.33563" lon="2.34064">
        <ele>1287</ele>
        <time>2019-01-07T22:00:09Z</time>
      </trkpt>
      <trkpt lat="42.33562" lon="2.34068">
        <ele>1286.4</ele>
        <time>2019-01-07T22:00:10Z</time>
      </trkpt>
      <trkpt lat="42.33562" lon="2.34073">
        <ele>1285.9</ele>
        <time>2019-01-07T22:00:11Z</time>
      </trkpt>
      <trkpt lat="42.33562" lon="2.34077">
        <ele>1285.2</ele>
        <time>2019-01-07T22:00:12Z</time>
      </trkpt>
      <trkpt lat="42.33562" lon="2.34081">
        <ele>1284.9</ele>
        <time>2019-01-07T22:00:13Z</time>
      </trkpt>
      <trkpt lat="42.33563" lon="2.34084">
        <ele>1284.6</ele>
        <time>2019-01-07T22:00:13Z</time>
      </trkpt>
      <trkpt lat="42.33564" lon="2.34088">
        <ele>1284.4</ele>
        <time>2019-01-07T22:00:14Z</time>
      </trkpt>
      <trkpt lat="42.33565" lon="2.3409">
        <ele>1284.2</ele>
        <time>2019-01-07T22:00:15Z</time>
      </trkpt>
      <trkpt lat="42.33566" lon="2.34092">
        <ele>1284.1</ele>
        <time>2019-01-07T22:00:15Z</time>
      </trkpt>
      <trkpt lat="42.33568" lon="2.34095">
        <ele>1284.1</ele>
        <time>2019-01-07T22:00:16Z</time>
      </trkpt>
      <trkpt lat="42.33569" lon="2.34097">
        <ele>1283.9</ele>
        <time>2019-01-07T22:00:16Z</time>
      </trkpt>
      <trkpt lat="42.33571" lon="2.34101">
        <ele>1283.8</ele>
        <time>2019-01-07T22:00:17Z</time>
      </trkpt>
      <trkpt lat="42.33572" lon="2.34104">
        <ele>1283.7</ele>
        <time>2019-01-07T22:00:18Z</time>
      </trkpt>
      <trkpt lat="42.33573" lon="2.34107">
        <ele>1283.5</ele>
        <time>2019-01-07T22:00:19Z</time>
      </trkpt>
      <trkpt lat="42.33575" lon="2.34111">
        <ele>1283.4</ele>
        <time>2019-01-07T22:00:20Z</time>
      </trkpt>
      <trkpt lat="42.33577" lon="2.34114">
        <ele>1283.4</ele>
        <time>2019-01-07T22:00:20Z</time>
      </trkpt>
      <trkpt lat="42.33578" lon="2.34117">
        <ele>1283.2</ele>
        <time>2019-01-07T22:00:21Z</time>
      </trkpt>
      <trkpt lat="42.3358" lon="2.34121">
        <ele>1283.1</ele>
        <time>2019-01-07T22:00:22Z</time>
      </trkpt>
      <trkpt lat="42.33581" lon="2.34124">
        <ele>1283.2</ele>
        <time>2019-01-07T22:00:23Z</time>
      </trkpt>
      <trkpt lat="42.33584" lon="2.34127">
        <ele>1283.3</ele>
        <time>2019-01-07T22:00:24Z</time>
      </trkpt>
      <trkpt lat="42.33586" lon="2.3413">
        <ele>1283.2</ele>
        <time>2019-01-07T22:00:24Z</time>
      </trkpt>
      <trkpt lat="42.33587" lon="2.34133">
        <ele>1283</ele>
        <time>2019-01-07T22:00:25Z</time>
      </trkpt>
      <trkpt lat="42.33589" lon="2.34137">
        <ele>1282.7</ele>
        <time>2019-01-07T22:00:26Z</time>
      </trkpt>
      <trkpt lat="42.33591" lon="2.3414">
        <ele>1282.6</ele>
        <time>2019-01-07T22:00:27Z</time>
      </trkpt>
      <trkpt lat="42.33593" lon="2.34142">
        <ele>1282.3</ele>
        <time>2019-01-07T22:00:28Z</time>
      </trkpt>
      <trkpt lat="42.33595" lon="2.34145">
        <ele>1282.5</ele>
        <time>2019-01-07T22:00:28Z</time>
      </trkpt>
      <trkpt lat="42.33597" lon="2.34147">
        <ele>1282.4</ele>
        <time>2019-01-07T22:00:29Z</time>
      </trkpt>
      <trkpt lat="42.33599" lon="2.34148">
        <ele>1282.4</ele>
        <time>2019-01-07T22:00:30Z</time>
      </trkpt>
      <trkpt lat="42.33601" lon="2.34149">
        <ele>1282.9</ele>
        <time>2019-01-07T22:00:30Z</time>
      </trkpt>
      <trkpt lat="42.33603" lon="2.3415">
        <ele>1283.2</ele>
        <time>2019-01-07T22:00:31Z</time>
      </trkpt>
      <trkpt lat="42.33606" lon="2.3415">
        <ele>1283.8</ele>
        <time>2019-01-07T22:00:31Z</time>
      </trkpt>
      <trkpt lat="42.33609" lon="2.3415">
        <ele>1284.6</ele>
        <time>2019-01-07T22:00:32Z</time>
      </trkpt>
      <trkpt lat="42.33612" lon="2.3415">
        <ele>1285.2</ele>
        <time>2019-01-07T22:00:33Z</time>
      </trkpt>
      <trkpt lat="42.33614" lon="2.3415">
        <ele>1285.4</ele>
        <time>2019-01-07T22:00:33Z</time>
      </trkpt>
      <trkpt lat="42.33616" lon="2.3415">
        <ele>1285.7</ele>
        <time>2019-01-07T22:00:34Z</time>
      </trkpt>
      <trkpt lat="42.33618" lon="2.34149">
        <ele>1286</ele>
        <time>2019-01-07T22:00:35Z</time>
      </trkpt>
      <trkpt lat="42.33618" lon="2.34151">
        <ele>1285.6</ele>
        <time>2019-01-07T22:00:35Z</time>
      </trkpt>
      <trkpt lat="42.33618" lon="2.34154">
        <ele>1285.3</ele>
        <time>2019-01-07T22:00:36Z</time>
      </trkpt>
      <trkpt lat="42.33618" lon="2.34157">
        <ele>1284.6</ele>
        <time>2019-01-07T22:00:36Z</time>
      </trkpt>
      <trkpt lat="42.33619" lon="2.3416">
        <ele>1284</ele>
        <time>2019-01-07T22:00:37Z</time>
      </trkpt>
      <trkpt lat="42.3362" lon="2.34164">
        <ele>1283.6</ele>
        <time>2019-01-07T22:00:38Z</time>
      </trkpt>
      <trkpt lat="42.3362" lon="2.34166">
        <ele>1283.1</ele>
        <time>2019-01-07T22:00:38Z</time>
      </trkpt>
      <trkpt lat="42.33621" lon="2.34169">
        <ele>1282.4</ele>
        <time>2019-01-07T22:00:39Z</time>
      </trkpt>
      <trkpt lat="42.33622" lon="2.34171">
        <ele>1281.8</ele>
        <time>2019-01-07T22:00:39Z</time>
      </trkpt>
      <trkpt lat="42.33623" lon="2.34173">
        <ele>1281.3</ele>
        <time>2019-01-07T22:00:40Z</time>
      </trkpt>
      <trkpt lat="42.33625" lon="2.34175">
        <ele>1281.2</ele>
        <time>2019-01-07T22:00:40Z</time>
      </trkpt>
      <trkpt lat="42.33627" lon="2.34176">
        <ele>1281</ele>
        <time>2019-01-07T22:00:41Z</time>
      </trkpt>
      <trkpt lat="42.3363" lon="2.34176">
        <ele>1281.1</ele>
        <time>2019-01-07T22:00:42Z</time>
      </trkpt>
      <trkpt lat="42.33632" lon="2.34176">
        <ele>1281.5</ele>
        <time>2019-01-07T22:00:42Z</time>
      </trkpt>
      <trkpt lat="42.33634" lon="2.34175">
        <ele>1281.8</ele>
        <time>2019-01-07T22:00:43Z</time>
      </trkpt>
      <trkpt lat="42.33636" lon="2.34174">
        <ele>1282.6</ele>
        <time>2019-01-07T22:00:43Z</time>
      </trkpt>
      <trkpt lat="42.33639" lon="2.34173">
        <ele>1283</ele>
        <time>2019-01-07T22:00:44Z</time>
      </trkpt>
      <trkpt lat="42.33641" lon="2.34173">
        <ele>1283.1</ele>
        <time>2019-01-07T22:00:45Z</time>
      </trkpt>
      <trkpt lat="42.33645" lon="2.34173">
        <ele>1283.2</ele>
        <time>2019-01-07T22:00:46Z</time>
      </trkpt>
      <trkpt lat="42.33647" lon="2.34173">
        <ele>1283.3</ele>
        <time>2019-01-07T22:00:46Z</time>
      </trkpt>
      <trkpt lat="42.3365" lon="2.34173">
        <ele>1283.1</ele>
        <time>2019-01-07T22:00:47Z</time>
      </trkpt>
      <trkpt lat="42.33653" lon="2.34173">
        <ele>1283.2</ele>
        <time>2019-01-07T22:00:48Z</time>
      </trkpt>
      <trkpt lat="42.33655" lon="2.34173">
        <ele>1283.2</ele>
        <time>2019-01-07T22:00:48Z</time>
      </trkpt>
      <trkpt lat="42.33658" lon="2.34174">
        <ele>1283.2</ele>
        <time>2019-01-07T22:00:49Z</time>
      </trkpt>
      <trkpt lat="42.33661" lon="2.34174">
        <ele>1282.8</ele>
        <time>2019-01-07T22:00:50Z</time>
      </trkpt>
      <trkpt lat="42.33664" lon="2.34175">
        <ele>1282.8</ele>
        <time>2019-01-07T22:00:51Z</time>
      </trkpt>
      <trkpt lat="42.33667" lon="2.34175">
        <ele>1282.6</ele>
        <time>2019-01-07T22:00:52Z</time>
      </trkpt>
      <trkpt lat="42.3367" lon="2.34176">
        <ele>1282.4</ele>
        <time>2019-01-07T22:00:52Z</time>
      </trkpt>
      <trkpt lat="42.33673" lon="2.34176">
        <ele>1282.2</ele>
        <time>2019-01-07T22:00:53Z</time>
      </trkpt>
      <trkpt lat="42.33676" lon="2.34177">
        <ele>1281.8</ele>
        <time>2019-01-07T22:00:54Z</time>
      </trkpt>
      <trkpt lat="42.33679" lon="2.34178">
        <ele>1281.6</ele>
        <time>2019-01-07T22:00:55Z</time>
      </trkpt>
      <trkpt lat="42.33682" lon="2.34178">
        <ele>1281.4</ele>
        <time>2019-01-07T22:00:56Z</time>
      </trkpt>
      <trkpt lat="42.33685" lon="2.34178">
        <ele>1281.4</ele>
        <time>2019-01-07T22:00:56Z</time>
      </trkpt>
      <trkpt lat="42.33687" lon="2.34178">
        <ele>1281.3</ele>
        <time>2019-01-07T22:00:57Z</time>
      </trkpt>
      <trkpt lat="42.33691" lon="2.34178">
        <ele>1281.5</ele>
        <time>2019-01-07T22:00:58Z</time>
      </trkpt>
      <trkpt lat="42.33694" lon="2.34177">
        <ele>1281.5</ele>
        <time>2019-01-07T22:00:59Z</time>
      </trkpt>
      <trkpt lat="42.33696" lon="2.34175">
        <ele>1281.9</ele>
        <time>2019-01-07T22:01:00Z</time>
      </trkpt>
      <trkpt lat="42.33699" lon="2.34174">
        <ele>1282.2</ele>
        <time>2019-01-07T22:01:00Z</time>
      </trkpt>
      <trkpt lat="42.33702" lon="2.34172">
        <ele>1283</ele>
        <time>2019-01-07T22:01:01Z</time>
      </trkpt>
      <trkpt lat="42.33705" lon="2.34171">
        <ele>1283.1</ele>
        <time>2019-01-07T22:01:02Z</time>
      </trkpt>
      <trkpt lat="42.33708" lon="2.34171">
        <ele>1283</ele>
        <time>2019-01-07T22:01:03Z</time>
      </trkpt>
      <trkpt lat="42.33711" lon="2.34171">
        <ele>1283</ele>
        <time>2019-01-07T22:01:04Z</time>
      </trkpt>
      <trkpt lat="42.33714" lon="2.34171">
        <ele>1283</ele>
        <time>2019-01-07T22:01:05Z</time>
      </trkpt>
      <trkpt lat="42.33717" lon="2.34171">
        <ele>1283.2</ele>
        <time>2019-01-07T22:01:05Z</time>
      </trkpt>
      <trkpt lat="42.3372" lon="2.3417">
        <ele>1283.1</ele>
        <time>2019-01-07T22:01:06Z</time>
      </trkpt>
      <trkpt lat="42.33723" lon="2.34168">
        <ele>1283.8</ele>
        <time>2019-01-07T22:01:07Z</time>
      </trkpt>
      <trkpt lat="42.33725" lon="2.34167">
        <ele>1284.5</ele>
        <time>2019-01-07T22:01:08Z</time>
      </trkpt>
      <trkpt lat="42.33727" lon="2.34166">
        <ele>1285.2</ele>
        <time>2019-01-07T22:01:08Z</time>
      </trkpt>
      <trkpt lat="42.33729" lon="2.34167">
        <ele>1285.3</ele>
        <time>2019-01-07T22:01:09Z</time>
      </trkpt>
      <trkpt lat="42.33729" lon="2.3417">
        <ele>1284.5</ele>
        <time>2019-01-07T22:01:09Z</time>
      </trkpt>
      <trkpt lat="42.3373" lon="2.34173">
        <ele>1284.1</ele>
        <time>2019-01-07T22:01:10Z</time>
      </trkpt>
      <trkpt lat="42.33732" lon="2.34176">
        <ele>1283.6</ele>
        <time>2019-01-07T22:01:11Z</time>
      </trkpt>
      <trkpt lat="42.33734" lon="2.34179">
        <ele>1283.4</ele>
        <time>2019-01-07T22:01:12Z</time>
      </trkpt>
      <trkpt lat="42.33736" lon="2.34182">
        <ele>1282.9</ele>
        <time>2019-01-07T22:01:12Z</time>
      </trkpt>
      <trkpt lat="42.33738" lon="2.34186">
        <ele>1282.4</ele>
        <time>2019-01-07T22:01:13Z</time>
      </trkpt>
      <trkpt lat="42.3374" lon="2.34189">
        <ele>1282.3</ele>
        <time>2019-01-07T22:01:14Z</time>
      </trkpt>
      <trkpt lat="42.33743" lon="2.34192">
        <ele>1282.2</ele>
        <time>2019-01-07T22:01:15Z</time>
      </trkpt>
      <trkpt lat="42.33745" lon="2.34195">
        <ele>1281.8</ele>
        <time>2019-01-07T22:01:16Z</time>
      </trkpt>
      <trkpt lat="42.33747" lon="2.34198">
        <ele>1281.4</ele>
        <time>2019-01-07T22:01:17Z</time>
      </trkpt>
      <trkpt lat="42.33749" lon="2.34202">
        <ele>1281.1</ele>
        <time>2019-01-07T22:01:18Z</time>
      </trkpt>
      <trkpt lat="42.33751" lon="2.34205">
        <ele>1280.6</ele>
        <time>2019-01-07T22:01:18Z</time>
      </trkpt>
      <trkpt lat="42.33753" lon="2.34209">
        <ele>1280.2</ele>
        <time>2019-01-07T22:01:19Z</time>
      </trkpt>
      <trkpt lat="42.33755" lon="2.34212">
        <ele>1279.7</ele>
        <time>2019-01-07T22:01:20Z</time>
      </trkpt>
      <trkpt lat="42.33757" lon="2.34216">
        <ele>1279.2</ele>
        <time>2019-01-07T22:01:21Z</time>
      </trkpt>
      <trkpt lat="42.33758" lon="2.3422">
        <ele>1278.8</ele>
        <time>2019-01-07T22:01:22Z</time>
      </trkpt>
      <trkpt lat="42.3376" lon="2.34223">
        <ele>1278.2</ele>
        <time>2019-01-07T22:01:23Z</time>
      </trkpt>
      <trkpt lat="42.33761" lon="2.34227">
        <ele>1278</ele>
        <time>2019-01-07T22:01:24Z</time>
      </trkpt>
      <trkpt lat="42.33763" lon="2.3423">
        <ele>1278</ele>
        <time>2019-01-07T22:01:24Z</time>
      </trkpt>
      <trkpt lat="42.33765" lon="2.34232">
        <ele>1277.9</ele>
        <time>2019-01-07T22:01:25Z</time>
      </trkpt>
      <trkpt lat="42.33767" lon="2.34234">
        <ele>1278.3</ele>
        <time>2019-01-07T22:01:26Z</time>
      </trkpt>
      <trkpt lat="42.3377" lon="2.34237">
        <ele>1278.3</ele>
        <time>2019-01-07T22:01:27Z</time>
      </trkpt>
      <trkpt lat="42.33772" lon="2.3424">
        <ele>1278.5</ele>
        <time>2019-01-07T22:01:28Z</time>
      </trkpt>
      <trkpt lat="42.33774" lon="2.34243">
        <ele>1278.4</ele>
        <time>2019-01-07T22:01:28Z</time>
      </trkpt>
      <trkpt lat="42.33776" lon="2.34246">
        <ele>1278.2</ele>
        <time>2019-01-07T22:01:29Z</time>
      </trkpt>
      <trkpt lat="42.33778" lon="2.3425">
        <ele>1278.1</ele>
        <time>2019-01-07T22:01:30Z</time>
      </trkpt>
      <trkpt lat="42.3378" lon="2.34253">
        <ele>1278.2</ele>
        <time>2019-01-07T22:01:31Z</time>
      </trkpt>
      <trkpt lat="42.33782" lon="2.34257">
        <ele>1278.1</ele>
        <time>2019-01-07T22:01:32Z</time>
      </trkpt>
      <trkpt lat="42.33784" lon="2.34261">
        <ele>1277.9</ele>
        <time>2019-01-07T22:01:33Z</time>
      </trkpt>
      <trkpt lat="42.33786" lon="2.34264">
        <ele>1277.9</ele>
        <time>2019-01-07T22:01:33Z</time>
      </trkpt>
      <trkpt lat="42.33787" lon="2.34268">
        <ele>1277.5</ele>
        <time>2019-01-07T22:01:34Z</time>
      </trkpt>
      <trkpt lat="42.33789" lon="2.34272">
        <ele>1277.3</ele>
        <time>2019-01-07T22:01:35Z</time>
      </trkpt>
      <trkpt lat="42.3379" lon="2.34275">
        <ele>1277.2</ele>
        <time>2019-01-07T22:01:36Z</time>
      </trkpt>
      <trkpt lat="42.33792" lon="2.34279">
        <ele>1277</ele>
        <time>2019-01-07T22:01:37Z</time>
      </trkpt>
      <trkpt lat="42.33794" lon="2.34282">
        <ele>1276.8</ele>
        <time>2019-01-07T22:01:38Z</time>
      </trkpt>
      <trkpt lat="42.33795" lon="2.34286">
        <ele>1276.5</ele>
        <time>2019-01-07T22:01:39Z</time>
      </trkpt>
      <trkpt lat="42.33797" lon="2.3429">
        <ele>1276.1</ele>
        <time>2019-01-07T22:01:39Z</time>
      </trkpt>
      <trkpt lat="42.33798" lon="2.34294">
        <ele>1276</ele>
        <time>2019-01-07T22:01:40Z</time>
      </trkpt>
      <trkpt lat="42.338" lon="2.34297">
        <ele>1275.7</ele>
        <time>2019-01-07T22:01:41Z</time>
      </trkpt>
      <trkpt lat="42.33801" lon="2.34301">
        <ele>1275.7</ele>
        <time>2019-01-07T22:01:42Z</time>
      </trkpt>
      <trkpt lat="42.33803" lon="2.34304">
        <ele>1275.6</ele>
        <time>2019-01-07T22:01:43Z</time>
      </trkpt>
      <trkpt lat="42.33805" lon="2.34307">
        <ele>1275.7</ele>
        <time>2019-01-07T22:01:44Z</time>
      </trkpt>
      <trkpt lat="42.33807" lon="2.34311">
        <ele>1276</ele>
        <time>2019-01-07T22:01:44Z</time>
      </trkpt>
      <trkpt lat="42.33809" lon="2.34314">
        <ele>1276.2</ele>
        <time>2019-01-07T22:01:45Z</time>
      </trkpt>
      <trkpt lat="42.3381" lon="2.34317">
        <ele>1276.2</ele>
        <time>2019-01-07T22:01:46Z</time>
      </trkpt>
      <trkpt lat="42.33811" lon="2.34321">
        <ele>1276.2</ele>
        <time>2019-01-07T22:01:47Z</time>
      </trkpt>
      <trkpt lat="42.33813" lon="2.34324">
        <ele>1276.2</ele>
        <time>2019-01-07T22:01:47Z</time>
      </trkpt>
      <trkpt lat="42.33814" lon="2.34328">
        <ele>1275.9</ele>
        <time>2019-01-07T22:01:48Z</time>
      </trkpt>
      <trkpt lat="42.33815" lon="2.3433">
        <ele>1276.1</ele>
        <time>2019-01-07T22:01:49Z</time>
      </trkpt>
      <trkpt lat="42.33816" lon="2.34334">
        <ele>1276.3</ele>
        <time>2019-01-07T22:01:50Z</time>
      </trkpt>
      <trkpt lat="42.33818" lon="2.34337">
        <ele>1276</ele>
        <time>2019-01-07T22:01:50Z</time>
      </trkpt>
      <trkpt lat="42.3382" lon="2.3434">
        <ele>1275.8</ele>
        <time>2019-01-07T22:01:51Z</time>
      </trkpt>
      <trkpt lat="42.33821" lon="2.34343">
        <ele>1275.8</ele>
        <time>2019-01-07T22:01:52Z</time>
      </trkpt>
      <trkpt lat="42.33823" lon="2.34345">
        <ele>1275.9</ele>
        <time>2019-01-07T22:01:52Z</time>
      </trkpt>
      <trkpt lat="42.33825" lon="2.34347">
        <ele>1275.9</ele>
        <time>2019-01-07T22:01:53Z</time>
      </trkpt>
      <trkpt lat="42.33827" lon="2.3435">
        <ele>1276.3</ele>
        <time>2019-01-07T22:01:54Z</time>
      </trkpt>
      <trkpt lat="42.33829" lon="2.34351">
        <ele>1276.5</ele>
        <time>2019-01-07T22:01:54Z</time>
      </trkpt>
      <trkpt lat="42.33831" lon="2.34354">
        <ele>1276.7</ele>
        <time>2019-01-07T22:01:55Z</time>
      </trkpt>
      <trkpt lat="42.33833" lon="2.34357">
        <ele>1276.9</ele>
        <time>2019-01-07T22:01:56Z</time>
      </trkpt>
      <trkpt lat="42.33835" lon="2.34359">
        <ele>1276.9</ele>
        <time>2019-01-07T22:01:57Z</time>
      </trkpt>
      <trkpt lat="42.33838" lon="2.34361">
        <ele>1276.9</ele>
        <time>2019-01-07T22:01:58Z</time>
      </trkpt>
      <trkpt lat="42.3384" lon="2.34364">
        <ele>1276.5</ele>
        <time>2019-01-07T22:01:58Z</time>
      </trkpt>
      <trkpt lat="42.33842" lon="2.34368">
        <ele>1276.3</ele>
        <time>2019-01-07T22:01:59Z</time>
      </trkpt>
      <trkpt lat="42.33844" lon="2.34371">
        <ele>1276</ele>
        <time>2019-01-07T22:02:00Z</time>
      </trkpt>
      <trkpt lat="42.33846" lon="2.34375">
        <ele>1275.5</ele>
        <time>2019-01-07T22:02:01Z</time>
      </trkpt>
      <trkpt lat="42.33848" lon="2.34379">
        <ele>1275.3</ele>
        <time>2019-01-07T22:02:02Z</time>
      </trkpt>
      <trkpt lat="42.3385" lon="2.34383">
        <ele>1275</ele>
        <time>2019-01-07T22:02:03Z</time>
      </trkpt>
      <trkpt lat="42.33852" lon="2.34386">
        <ele>1274.5</ele>
        <time>2019-01-07T22:02:04Z</time>
      </trkpt>
      <trkpt lat="42.33854" lon="2.3439">
        <ele>1274.5</ele>
        <time>2019-01-07T22:02:05Z</time>
      </trkpt>
      <trkpt lat="42.33855" lon="2.34391">
        <ele>1274.4</ele>
        <time>2019-01-07T22:02:05Z</time>
      </trkpt>
      <trkpt lat="42.33857" lon="2.34395">
        <ele>1274</ele>
        <time>2019-01-07T22:02:06Z</time>
      </trkpt>
      <trkpt lat="42.33859" lon="2.34398">
        <ele>1273.9</ele>
        <time>2019-01-07T22:02:07Z</time>
      </trkpt>
      <trkpt lat="42.33861" lon="2.34402">
        <ele>1273.7</ele>
        <time>2019-01-07T22:02:08Z</time>
      </trkpt>
      <trkpt lat="42.33862" lon="2.34405">
        <ele>1273.2</ele>
        <time>2019-01-07T22:02:08Z</time>
      </trkpt>
      <trkpt lat="42.33864" lon="2.34409">
        <ele>1272.8</ele>
        <time>2019-01-07T22:02:09Z</time>
      </trkpt>
      <trkpt lat="42.33866" lon="2.34413">
        <ele>1272.2</ele>
        <time>2019-01-07T22:02:10Z</time>
      </trkpt>
      <trkpt lat="42.33867" lon="2.34416">
        <ele>1271.8</ele>
        <time>2019-01-07T22:02:11Z</time>
      </trkpt>
      <trkpt lat="42.33869" lon="2.3442">
        <ele>1271.2</ele>
        <time>2019-01-07T22:02:12Z</time>
      </trkpt>
      <trkpt lat="42.33871" lon="2.34424">
        <ele>1270.7</ele>
        <time>2019-01-07T22:02:13Z</time>
      </trkpt>
      <trkpt lat="42.33872" lon="2.34427">
        <ele>1270.2</ele>
        <time>2019-01-07T22:02:13Z</time>
      </trkpt>
      <trkpt lat="42.33873" lon="2.3443">
        <ele>1269.8</ele>
        <time>2019-01-07T22:02:14Z</time>
      </trkpt>
      <trkpt lat="42.33875" lon="2.34434">
        <ele>1269.2</ele>
        <time>2019-01-07T22:02:15Z</time>
      </trkpt>
      <trkpt lat="42.33877" lon="2.34437">
        <ele>1268.7</ele>
        <time>2019-01-07T22:02:16Z</time>
      </trkpt>
      <trkpt lat="42.33875" lon="2.34439">
        <ele>1268.2</ele>
        <time>2019-01-07T22:02:16Z</time>
      </trkpt>
      <trkpt lat="42.33873" lon="2.3444">
        <ele>1267.7</ele>
        <time>2019-01-07T22:02:17Z</time>
      </trkpt>
      <trkpt lat="42.3387" lon="2.3444">
        <ele>1267.3</ele>
        <time>2019-01-07T22:02:18Z</time>
      </trkpt>
      <trkpt lat="42.33867" lon="2.3444">
        <ele>1266.9</ele>
        <time>2019-01-07T22:02:19Z</time>
      </trkpt>
      <trkpt lat="42.33864" lon="2.3444">
        <ele>1266.5</ele>
        <time>2019-01-07T22:02:20Z</time>
      </trkpt>
      <trkpt lat="42.33862" lon="2.3444">
        <ele>1266.1</ele>
        <time>2019-01-07T22:02:20Z</time>
      </trkpt>
      <trkpt lat="42.33859" lon="2.3444">
        <ele>1265.4</ele>
        <time>2019-01-07T22:02:21Z</time>
      </trkpt>
      <trkpt lat="42.33856" lon="2.34441">
        <ele>1264.7</ele>
        <time>2019-01-07T22:02:21Z</time>
      </trkpt>
      <trkpt lat="42.33853" lon="2.34441">
        <ele>1263.9</ele>
        <time>2019-01-07T22:02:22Z</time>
      </trkpt>
      <trkpt lat="42.3385" lon="2.34442">
        <ele>1262.9</ele>
        <time>2019-01-07T22:02:23Z</time>
      </trkpt>
      <trkpt lat="42.33847" lon="2.34441">
        <ele>1262.2</ele>
        <time>2019-01-07T22:02:24Z</time>
      </trkpt>
      <trkpt lat="42.33844" lon="2.34441">
        <ele>1261.4</ele>
        <time>2019-01-07T22:02:25Z</time>
      </trkpt>
      <trkpt lat="42.33842" lon="2.34441">
        <ele>1261.1</ele>
        <time>2019-01-07T22:02:25Z</time>
      </trkpt>
      <trkpt lat="42.33839" lon="2.34439">
        <ele>1260.6</ele>
        <time>2019-01-07T22:02:26Z</time>
      </trkpt>
      <trkpt lat="42.33835" lon="2.34439">
        <ele>1260</ele>
        <time>2019-01-07T22:02:27Z</time>
      </trkpt>
      <trkpt lat="42.33832" lon="2.34438">
        <ele>1259.5</ele>
        <time>2019-01-07T22:02:28Z</time>
      </trkpt>
      <trkpt lat="42.33829" lon="2.34436">
        <ele>1259.1</ele>
        <time>2019-01-07T22:02:29Z</time>
      </trkpt>
      <trkpt lat="42.33827" lon="2.34434">
        <ele>1258.4</ele>
        <time>2019-01-07T22:02:30Z</time>
      </trkpt>
      <trkpt lat="42.33824" lon="2.34431">
        <ele>1258</ele>
        <time>2019-01-07T22:02:31Z</time>
      </trkpt>
      <trkpt lat="42.33822" lon="2.3443">
        <ele>1257.7</ele>
        <time>2019-01-07T22:02:31Z</time>
      </trkpt>
      <trkpt lat="42.3382" lon="2.3443">
        <ele>1257</ele>
        <time>2019-01-07T22:02:32Z</time>
      </trkpt>
      <trkpt lat="42.3382" lon="2.34432">
        <ele>1256.4</ele>
        <time>2019-01-07T22:02:32Z</time>
      </trkpt>
      <trkpt lat="42.3382" lon="2.34435">
        <ele>1255.6</ele>
        <time>2019-01-07T22:02:33Z</time>
      </trkpt>
      <trkpt lat="42.3382" lon="2.34439">
        <ele>1255.1</ele>
        <time>2019-01-07T22:02:33Z</time>
      </trkpt>
      <trkpt lat="42.33821" lon="2.34443">
        <ele>1254.4</ele>
        <time>2019-01-07T22:02:34Z</time>
      </trkpt>
      <trkpt lat="42.33822" lon="2.34447">
        <ele>1253.7</ele>
        <time>2019-01-07T22:02:35Z</time>
      </trkpt>
      <trkpt lat="42.33823" lon="2.34451">
        <ele>1253.2</ele>
        <time>2019-01-07T22:02:36Z</time>
      </trkpt>
      <trkpt lat="42.33825" lon="2.34455">
        <ele>1252.5</ele>
        <time>2019-01-07T22:02:37Z</time>
      </trkpt>
      <trkpt lat="42.33827" lon="2.34459">
        <ele>1252</ele>
        <time>2019-01-07T22:02:38Z</time>
      </trkpt>
      <trkpt lat="42.33829" lon="2.34463">
        <ele>1251.2</ele>
        <time>2019-01-07T22:02:39Z</time>
      </trkpt>
      <trkpt lat="42.3383" lon="2.34467">
        <ele>1250.6</ele>
        <time>2019-01-07T22:02:40Z</time>
      </trkpt>
      <trkpt lat="42.33832" lon="2.34471">
        <ele>1250.2</ele>
        <time>2019-01-07T22:02:41Z</time>
      </trkpt>
      <trkpt lat="42.33833" lon="2.34473">
        <ele>1249.8</ele>
        <time>2019-01-07T22:02:41Z</time>
      </trkpt>
      <trkpt lat="42.33836" lon="2.34476">
        <ele>1249.2</ele>
        <time>2019-01-07T22:02:42Z</time>
      </trkpt>
      <trkpt lat="42.33837" lon="2.34478">
        <ele>1248.8</ele>
        <time>2019-01-07T22:02:43Z</time>
      </trkpt>
      <trkpt lat="42.33839" lon="2.34481">
        <ele>1247.9</ele>
        <time>2019-01-07T22:02:43Z</time>
      </trkpt>
      <trkpt lat="42.33841" lon="2.34485">
        <ele>1247.1</ele>
        <time>2019-01-07T22:02:44Z</time>
      </trkpt>
      <trkpt lat="42.33844" lon="2.34487">
        <ele>1246.8</ele>
        <time>2019-01-07T22:02:45Z</time>
      </trkpt>
      <trkpt lat="42.33845" lon="2.34489">
        <ele>1246.4</ele>
        <time>2019-01-07T22:02:46Z</time>
      </trkpt>
      <trkpt lat="42.33845" lon="2.34492">
        <ele>1245.3</ele>
        <time>2019-01-07T22:02:46Z</time>
      </trkpt>
      <trkpt lat="42.33845" lon="2.34495">
        <ele>1244.4</ele>
        <time>2019-01-07T22:02:47Z</time>
      </trkpt>
      <trkpt lat="42.33845" lon="2.34497">
        <ele>1243.3</ele>
        <time>2019-01-07T22:02:47Z</time>
      </trkpt>
      <trkpt lat="42.33843" lon="2.34498">
        <ele>1242.6</ele>
        <time>2019-01-07T22:02:48Z</time>
      </trkpt>
      <trkpt lat="42.3384" lon="2.345">
        <ele>1242</ele>
        <time>2019-01-07T22:02:49Z</time>
      </trkpt>
      <trkpt lat="42.33837" lon="2.345">
        <ele>1241.6</ele>
        <time>2019-01-07T22:02:49Z</time>
      </trkpt>
      <trkpt lat="42.33834" lon="2.34501">
        <ele>1241.1</ele>
        <time>2019-01-07T22:02:50Z</time>
      </trkpt>
      <trkpt lat="42.3383" lon="2.345">
        <ele>1240.4</ele>
        <time>2019-01-07T22:02:51Z</time>
      </trkpt>
      <trkpt lat="42.33828" lon="2.34499">
        <ele>1240.1</ele>
        <time>2019-01-07T22:02:52Z</time>
      </trkpt>
      <trkpt lat="42.33825" lon="2.34498">
        <ele>1239.9</ele>
        <time>2019-01-07T22:02:53Z</time>
      </trkpt>
      <trkpt lat="42.33822" lon="2.34496">
        <ele>1239.7</ele>
        <time>2019-01-07T22:02:54Z</time>
      </trkpt>
      <trkpt lat="42.33819" lon="2.34494">
        <ele>1239.9</ele>
        <time>2019-01-07T22:02:54Z</time>
      </trkpt>
      <trkpt lat="42.33816" lon="2.34492">
        <ele>1239.6</ele>
        <time>2019-01-07T22:02:55Z</time>
      </trkpt>
      <trkpt lat="42.33814" lon="2.34491">
        <ele>1239.4</ele>
        <time>2019-01-07T22:02:56Z</time>
      </trkpt>
      <trkpt lat="42.33811" lon="2.3449">
        <ele>1239.1</ele>
        <time>2019-01-07T22:02:57Z</time>
      </trkpt>
      <trkpt lat="42.33808" lon="2.34488">
        <ele>1238.5</ele>
        <time>2019-01-07T22:02:58Z</time>
      </trkpt>
      <trkpt lat="42.33805" lon="2.34486">
        <ele>1238.2</ele>
        <time>2019-01-07T22:02:59Z</time>
      </trkpt>
      <trkpt lat="42.33802" lon="2.34484">
        <ele>1238</ele>
        <time>2019-01-07T22:03:00Z</time>
      </trkpt>
      <trkpt lat="42.33799" lon="2.34483">
        <ele>1237.4</ele>
        <time>2019-01-07T22:03:00Z</time>
      </trkpt>
      <trkpt lat="42.33798" lon="2.34482">
        <ele>1237.1</ele>
        <time>2019-01-07T22:03:01Z</time>
      </trkpt>
      <trkpt lat="42.33796" lon="2.34481">
        <ele>1236.8</ele>
        <time>2019-01-07T22:03:01Z</time>
      </trkpt>
      <trkpt lat="42.33794" lon="2.3448">
        <ele>1236.6</ele>
        <time>2019-01-07T22:03:02Z</time>
      </trkpt>
      <trkpt lat="42.33792" lon="2.34479">
        <ele>1236.1</ele>
        <time>2019-01-07T22:03:02Z</time>
      </trkpt>
      <trkpt lat="42.3379" lon="2.34478">
        <ele>1235.9</ele>
        <time>2019-01-07T22:03:03Z</time>
      </trkpt>
      <trkpt lat="42.33787" lon="2.34477">
        <ele>1235.2</ele>
        <time>2019-01-07T22:03:04Z</time>
      </trkpt>
      <trkpt lat="42.33784" lon="2.34475">
        <ele>1234.7</ele>
        <time>2019-01-07T22:03:05Z</time>
      </trkpt>
      <trkpt lat="42.3378" lon="2.34474">
        <ele>1234.2</ele>
        <time>2019-01-07T22:03:06Z</time>
      </trkpt>
      <trkpt lat="42.33778" lon="2.34473">
        <ele>1234</ele>
        <time>2019-01-07T22:03:06Z</time>
      </trkpt>
      <trkpt lat="42.33776" lon="2.34472">
        <ele>1233.5</ele>
        <time>2019-01-07T22:03:07Z</time>
      </trkpt>
      <trkpt lat="42.33774" lon="2.34471">
        <ele>1232.8</ele>
        <time>2019-01-07T22:03:08Z</time>
      </trkpt>
      <trkpt lat="42.33772" lon="2.34469">
        <ele>1232.3</ele>
        <time>2019-01-07T22:03:08Z</time>
      </trkpt>
      <trkpt lat="42.3377" lon="2.34469">
        <ele>1231.7</ele>
        <time>2019-01-07T22:03:09Z</time>
      </trkpt>
      <trkpt lat="42.33768" lon="2.34467">
        <ele>1231.2</ele>
        <time>2019-01-07T22:03:09Z</time>
      </trkpt>
      <trkpt lat="42.33766" lon="2.34465">
        <ele>1230.7</ele>
        <time>2019-01-07T22:03:10Z</time>
      </trkpt>
      <trkpt lat="42.33764" lon="2.34464">
        <ele>1230.1</ele>
        <time>2019-01-07T22:03:10Z</time>
      </trkpt>
      <trkpt lat="42.33762" lon="2.34463">
        <ele>1229.6</ele>
        <time>2019-01-07T22:03:11Z</time>
      </trkpt>
      <trkpt lat="42.3376" lon="2.34462">
        <ele>1228.9</ele>
        <time>2019-01-07T22:03:12Z</time>
      </trkpt>
      <trkpt lat="42.33757" lon="2.34461">
        <ele>1228.2</ele>
        <time>2019-01-07T22:03:12Z</time>
      </trkpt>
      <trkpt lat="42.33755" lon="2.3446">
        <ele>1227.6</ele>
        <time>2019-01-07T22:03:13Z</time>
      </trkpt>
      <trkpt lat="42.33753" lon="2.34458">
        <ele>1227.1</ele>
        <time>2019-01-07T22:03:14Z</time>
      </trkpt>
      <trkpt lat="42.33752" lon="2.34456">
        <ele>1227.2</ele>
        <time>2019-01-07T22:03:14Z</time>
      </trkpt>
      <trkpt lat="42.3375" lon="2.34453">
        <ele>1227.3</ele>
        <time>2019-01-07T22:03:15Z</time>
      </trkpt>
      <trkpt lat="42.33748" lon="2.34451">
        <ele>1226.9</ele>
        <time>2019-01-07T22:03:16Z</time>
      </trkpt>
      <trkpt lat="42.33747" lon="2.34448">
        <ele>1226.8</ele>
        <time>2019-01-07T22:03:16Z</time>
      </trkpt>
      <trkpt lat="42.33746" lon="2.34446">
        <ele>1226.6</ele>
        <time>2019-01-07T22:03:17Z</time>
      </trkpt>
      <trkpt lat="42.33745" lon="2.34443">
        <ele>1226.9</ele>
        <time>2019-01-07T22:03:17Z</time>
      </trkpt>
      <trkpt lat="42.33745" lon="2.34441">
        <ele>1227.2</ele>
        <time>2019-01-07T22:03:18Z</time>
      </trkpt>
      <trkpt lat="42.33743" lon="2.34436">
        <ele>1227</ele>
        <time>2019-01-07T22:03:19Z</time>
      </trkpt>
      <trkpt lat="42.33742" lon="2.34435">
        <ele>1226.6</ele>
        <time>2019-01-07T22:03:19Z</time>
      </trkpt>
      <trkpt lat="42.3374" lon="2.34433">
        <ele>1226.4</ele>
        <time>2019-01-07T22:03:20Z</time>
      </trkpt>
      <trkpt lat="42.33738" lon="2.34432">
        <ele>1225.5</ele>
        <time>2019-01-07T22:03:20Z</time>
      </trkpt>
      <trkpt lat="42.33736" lon="2.3443">
        <ele>1224.9</ele>
        <time>2019-01-07T22:03:21Z</time>
      </trkpt>
      <trkpt lat="42.33735" lon="2.34429">
        <ele>1224.4</ele>
        <time>2019-01-07T22:03:21Z</time>
      </trkpt>
      <trkpt lat="42.33732" lon="2.34427">
        <ele>1223.5</ele>
        <time>2019-01-07T22:03:22Z</time>
      </trkpt>
      <trkpt lat="42.33729" lon="2.34425">
        <ele>1222.7</ele>
        <time>2019-01-07T22:03:23Z</time>
      </trkpt>
      <trkpt lat="42.33721" lon="2.34416">
        <ele>1220.9</ele>
        <time>2019-01-07T22:03:26Z</time>
      </trkpt>
      <trkpt lat="42.33712" lon="2.34411">
        <ele>1219.5</ele>
        <time>2019-01-07T22:03:29Z</time>
      </trkpt>
      <trkpt lat="42.33702" lon="2.34408">
        <ele>1217.2</ele>
        <time>2019-01-07T22:03:31Z</time>
      </trkpt>
      <trkpt lat="42.33697" lon="2.34405">
        <ele>1216.5</ele>
        <time>2019-01-07T22:03:33Z</time>
      </trkpt>
      <trkpt lat="42.33695" lon="2.34404">
        <ele>1216.3</ele>
        <time>2019-01-07T22:03:33Z</time>
      </trkpt>
      <trkpt lat="42.33692" lon="2.34402">
        <ele>1215.8</ele>
        <time>2019-01-07T22:03:34Z</time>
      </trkpt>
      <trkpt lat="42.33691" lon="2.34401">
        <ele>1215.3</ele>
        <time>2019-01-07T22:03:35Z</time>
      </trkpt>
      <trkpt lat="42.33689" lon="2.34399">
        <ele>1215.1</ele>
        <time>2019-01-07T22:03:35Z</time>
      </trkpt>
      <trkpt lat="42.33687" lon="2.34396">
        <ele>1214.6</ele>
        <time>2019-01-07T22:03:36Z</time>
      </trkpt>
      <trkpt lat="42.33686" lon="2.34394">
        <ele>1214.5</ele>
        <time>2019-01-07T22:03:37Z</time>
      </trkpt>
      <trkpt lat="42.33681" lon="2.34381">
        <ele>1215.3</ele>
        <time>2019-01-07T22:03:39Z</time>
      </trkpt>
      <trkpt lat="42.3368" lon="2.34378">
        <ele>1215.5</ele>
        <time>2019-01-07T22:03:40Z</time>
      </trkpt>
      <trkpt lat="42.33669" lon="2.34376">
        <ele>1210.7</ele>
        <time>2019-01-07T22:03:43Z</time>
      </trkpt>
      <trkpt lat="42.33659" lon="2.34379">
        <ele>1207.3</ele>
        <time>2019-01-07T22:03:46Z</time>
      </trkpt>
      <trkpt lat="42.3365" lon="2.3438">
        <ele>1205.6</ele>
        <time>2019-01-07T22:03:48Z</time>
      </trkpt>
      <trkpt lat="42.3364" lon="2.34382">
        <ele>1203.7</ele>
        <time>2019-01-07T22:03:51Z</time>
      </trkpt>
      <trkpt lat="42.33631" lon="2.34383">
        <ele>1202.8</ele>
        <time>2019-01-07T22:03:53Z</time>
      </trkpt>
      <trkpt lat="42.33624" lon="2.34386">
        <ele>1200.8</ele>
        <time>2019-01-07T22:03:55Z</time>
      </trkpt>
      <trkpt lat="42.33622" lon="2.34388">
        <ele>1200.1</ele>
        <time>2019-01-07T22:03:56Z</time>
      </trkpt>
      <trkpt lat="42.3362" lon="2.34388">
        <ele>1199.7</ele>
        <time>2019-01-07T22:03:56Z</time>
      </trkpt>
      <trkpt lat="42.33618" lon="2.34389">
        <ele>1199.4</ele>
        <time>2019-01-07T22:03:57Z</time>
      </trkpt>
      <trkpt lat="42.33616" lon="2.34389">
        <ele>1199.4</ele>
        <time>2019-01-07T22:03:57Z</time>
      </trkpt>
      <trkpt lat="42.33614" lon="2.34389">
        <ele>1199.2</ele>
        <time>2019-01-07T22:03:58Z</time>
      </trkpt>
      <trkpt lat="42.33611" lon="2.34389">
        <ele>1198.8</ele>
        <time>2019-01-07T22:03:59Z</time>
      </trkpt>
      <trkpt lat="42.33608" lon="2.34389">
        <ele>1198.5</ele>
        <time>2019-01-07T22:03:59Z</time>
      </trkpt>
      <trkpt lat="42.33606" lon="2.34389">
        <ele>1197.9</ele>
        <time>2019-01-07T22:04:00Z</time>
      </trkpt>
      <trkpt lat="42.33603" lon="2.34389">
        <ele>1197.3</ele>
        <time>2019-01-07T22:04:01Z</time>
      </trkpt>
      <trkpt lat="42.33601" lon="2.34389">
        <ele>1197</ele>
        <time>2019-01-07T22:04:01Z</time>
      </trkpt>
      <trkpt lat="42.33598" lon="2.34389">
        <ele>1196.3</ele>
        <time>2019-01-07T22:04:02Z</time>
      </trkpt>
      <trkpt lat="42.33595" lon="2.34389">
        <ele>1195.5</ele>
        <time>2019-01-07T22:04:03Z</time>
      </trkpt>
      <trkpt lat="42.33583" lon="2.3439">
        <ele>1192.8</ele>
        <time>2019-01-07T22:04:06Z</time>
      </trkpt>
      <trkpt lat="42.33572" lon="2.34386">
        <ele>1191.3</ele>
        <time>2019-01-07T22:04:09Z</time>
      </trkpt>
      <trkpt lat="42.33563" lon="2.34385">
        <ele>1189.4</ele>
        <time>2019-01-07T22:04:12Z</time>
      </trkpt>
      <trkpt lat="42.33551" lon="2.34385">
        <ele>1187.1</ele>
        <time>2019-01-07T22:04:15Z</time>
      </trkpt>
      <trkpt lat="42.3354" lon="2.34383">
        <ele>1185.3</ele>
        <time>2019-01-07T22:04:18Z</time>
      </trkpt>
      <trkpt lat="42.3353" lon="2.3438">
        <ele>1184.6</ele>
        <time>2019-01-07T22:04:21Z</time>
      </trkpt>
      <trkpt lat="42.33519" lon="2.34379">
        <ele>1182.8</ele>
        <time>2019-01-07T22:04:24Z</time>
      </trkpt>
      <trkpt lat="42.3351" lon="2.3438">
        <ele>1180.2</ele>
        <time>2019-01-07T22:04:26Z</time>
      </trkpt>
      <trkpt lat="42.335" lon="2.34381">
        <ele>1178.1</ele>
        <time>2019-01-07T22:04:29Z</time>
      </trkpt>
      <trkpt lat="42.33491" lon="2.3438">
        <ele>1176.1</ele>
        <time>2019-01-07T22:04:31Z</time>
      </trkpt>
      <trkpt lat="42.33482" lon="2.34376">
        <ele>1175.4</ele>
        <time>2019-01-07T22:04:34Z</time>
      </trkpt>
      <trkpt lat="42.33478" lon="2.34376">
        <ele>1174.5</ele>
        <time>2019-01-07T22:04:35Z</time>
      </trkpt>
      <trkpt lat="42.33477" lon="2.34373">
        <ele>1175.3</ele>
        <time>2019-01-07T22:04:35Z</time>
      </trkpt>
      <trkpt lat="42.3347" lon="2.34366">
        <ele>1175.9</ele>
        <time>2019-01-07T22:04:38Z</time>
      </trkpt>
      <trkpt lat="42.33467" lon="2.34366">
        <ele>1175.3</ele>
        <time>2019-01-07T22:04:38Z</time>
      </trkpt>
      <trkpt lat="42.33466" lon="2.34369">
        <ele>1174.3</ele>
        <time>2019-01-07T22:04:39Z</time>
      </trkpt>
      <trkpt lat="42.33469" lon="2.3437">
        <ele>1174.6</ele>
        <time>2019-01-07T22:04:40Z</time>
      </trkpt>
      <trkpt lat="42.33467" lon="2.34369">
        <ele>1174.3</ele>
        <time>2019-01-07T22:04:40Z</time>
      </trkpt>
      <trkpt lat="42.33464" lon="2.34369">
        <ele>1173.9</ele>
        <time>2019-01-07T22:04:41Z</time>
      </trkpt>
      <trkpt lat="42.33461" lon="2.34369">
        <ele>1173.1</ele>
        <time>2019-01-07T22:04:42Z</time>
      </trkpt>
      <trkpt lat="42.33459" lon="2.34369">
        <ele>1172.8</ele>
        <time>2019-01-07T22:04:42Z</time>
      </trkpt>
      <trkpt lat="42.33456" lon="2.34369">
        <ele>1172</ele>
        <time>2019-01-07T22:04:43Z</time>
      </trkpt>
      <trkpt lat="42.33453" lon="2.34369">
        <ele>1171.5</ele>
        <time>2019-01-07T22:04:44Z</time>
      </trkpt>
      <trkpt lat="42.33451" lon="2.34369">
        <ele>1171</ele>
        <time>2019-01-07T22:04:44Z</time>
      </trkpt>
      <trkpt lat="42.33448" lon="2.34369">
        <ele>1170.2</ele>
        <time>2019-01-07T22:04:45Z</time>
      </trkpt>
      <trkpt lat="42.33446" lon="2.3437">
        <ele>1169.6</ele>
        <time>2019-01-07T22:04:46Z</time>
      </trkpt>
      <trkpt lat="42.33443" lon="2.34369">
        <ele>1169.1</ele>
        <time>2019-01-07T22:04:46Z</time>
      </trkpt>
      <trkpt lat="42.33441" lon="2.34369">
        <ele>1168.8</ele>
        <time>2019-01-07T22:04:47Z</time>
      </trkpt>
      <trkpt lat="42.33438" lon="2.34369">
        <ele>1168.2</ele>
        <time>2019-01-07T22:04:48Z</time>
      </trkpt>
      <trkpt lat="42.33435" lon="2.34369">
        <ele>1167.6</ele>
        <time>2019-01-07T22:04:49Z</time>
      </trkpt>
      <trkpt lat="42.33433" lon="2.34369">
        <ele>1167.1</ele>
        <time>2019-01-07T22:04:49Z</time>
      </trkpt>
      <trkpt lat="42.3343" lon="2.34368">
        <ele>1166.6</ele>
        <time>2019-01-07T22:04:50Z</time>
      </trkpt>
      <trkpt lat="42.33428" lon="2.34367">
        <ele>1166.2</ele>
        <time>2019-01-07T22:04:51Z</time>
      </trkpt>
      <trkpt lat="42.33425" lon="2.34367">
        <ele>1165.7</ele>
        <time>2019-01-07T22:04:51Z</time>
      </trkpt>
      <trkpt lat="42.33423" lon="2.34366">
        <ele>1165.3</ele>
        <time>2019-01-07T22:04:52Z</time>
      </trkpt>
      <trkpt lat="42.33421" lon="2.34365">
        <ele>1165.1</ele>
        <time>2019-01-07T22:04:53Z</time>
      </trkpt>
      <trkpt lat="42.33418" lon="2.34364">
        <ele>1164.8</ele>
        <time>2019-01-07T22:04:53Z</time>
      </trkpt>
      <trkpt lat="42.33416" lon="2.34363">
        <ele>1164.5</ele>
        <time>2019-01-07T22:04:54Z</time>
      </trkpt>
      <trkpt lat="42.33414" lon="2.34361">
        <ele>1164.1</ele>
        <time>2019-01-07T22:04:55Z</time>
      </trkpt>
      <trkpt lat="42.33411" lon="2.3436">
        <ele>1163.8</ele>
        <time>2019-01-07T22:04:55Z</time>
      </trkpt>
      <trkpt lat="42.33409" lon="2.34359">
        <ele>1163.2</ele>
        <time>2019-01-07T22:04:56Z</time>
      </trkpt>
      <trkpt lat="42.33407" lon="2.34357">
        <ele>1163.2</ele>
        <time>2019-01-07T22:04:56Z</time>
      </trkpt>
      <trkpt lat="42.33406" lon="2.34356">
        <ele>1162.9</ele>
        <time>2019-01-07T22:04:57Z</time>
      </trkpt>
      <trkpt lat="42.33404" lon="2.34355">
        <ele>1162.4</ele>
        <time>2019-01-07T22:04:58Z</time>
      </trkpt>
      <trkpt lat="42.33402" lon="2.34353">
        <ele>1162.1</ele>
        <time>2019-01-07T22:04:58Z</time>
      </trkpt>
      <trkpt lat="42.33399" lon="2.34352">
        <ele>1161.5</ele>
        <time>2019-01-07T22:04:59Z</time>
      </trkpt>
      <trkpt lat="42.33397" lon="2.34351">
        <ele>1161.1</ele>
        <time>2019-01-07T22:04:59Z</time>
      </trkpt>
      <trkpt lat="42.33395" lon="2.34351">
        <ele>1160.7</ele>
        <time>2019-01-07T22:05:00Z</time>
      </trkpt>
      <trkpt lat="42.33393" lon="2.34349">
        <ele>1160.4</ele>
        <time>2019-01-07T22:05:01Z</time>
      </trkpt>
      <trkpt lat="42.33392" lon="2.34347">
        <ele>1160</ele>
        <time>2019-01-07T22:05:01Z</time>
      </trkpt>
      <trkpt lat="42.3339" lon="2.34346">
        <ele>1159.6</ele>
        <time>2019-01-07T22:05:02Z</time>
      </trkpt>
      <trkpt lat="42.33388" lon="2.34346">
        <ele>1159.1</ele>
        <time>2019-01-07T22:05:02Z</time>
      </trkpt>
      <trkpt lat="42.33386" lon="2.34345">
        <ele>1158.6</ele>
        <time>2019-01-07T22:05:03Z</time>
      </trkpt>
      <trkpt lat="42.33384" lon="2.34344">
        <ele>1158.3</ele>
        <time>2019-01-07T22:05:03Z</time>
      </trkpt>
      <trkpt lat="42.33382" lon="2.34341">
        <ele>1158.3</ele>
        <time>2019-01-07T22:05:04Z</time>
      </trkpt>
      <trkpt lat="42.3338" lon="2.3434">
        <ele>1158</ele>
        <time>2019-01-07T22:05:05Z</time>
      </trkpt>
      <trkpt lat="42.33378" lon="2.34339">
        <ele>1157.5</ele>
        <time>2019-01-07T22:05:05Z</time>
      </trkpt>
      <trkpt lat="42.33376" lon="2.34337">
        <ele>1157.1</ele>
        <time>2019-01-07T22:05:06Z</time>
      </trkpt>
      <trkpt lat="42.33374" lon="2.34336">
        <ele>1156.8</ele>
        <time>2019-01-07T22:05:07Z</time>
      </trkpt>
      <trkpt lat="42.33372" lon="2.34334">
        <ele>1156.5</ele>
        <time>2019-01-07T22:05:07Z</time>
      </trkpt>
      <trkpt lat="42.3337" lon="2.34332">
        <ele>1155.9</ele>
        <time>2019-01-07T22:05:08Z</time>
      </trkpt>
      <trkpt lat="42.33368" lon="2.34331">
        <ele>1155.6</ele>
        <time>2019-01-07T22:05:08Z</time>
      </trkpt>
      <trkpt lat="42.33366" lon="2.34329">
        <ele>1155.1</ele>
        <time>2019-01-07T22:05:09Z</time>
      </trkpt>
      <trkpt lat="42.33364" lon="2.34327">
        <ele>1154.9</ele>
        <time>2019-01-07T22:05:10Z</time>
      </trkpt>
      <trkpt lat="42.33362" lon="2.34325">
        <ele>1154.2</ele>
        <time>2019-01-07T22:05:10Z</time>
      </trkpt>
      <trkpt lat="42.3336" lon="2.34323">
        <ele>1154</ele>
        <time>2019-01-07T22:05:11Z</time>
      </trkpt>
      <trkpt lat="42.33359" lon="2.3432">
        <ele>1153.6</ele>
        <time>2019-01-07T22:05:12Z</time>
      </trkpt>
      <trkpt lat="42.33357" lon="2.34317">
        <ele>1153.2</ele>
        <time>2019-01-07T22:05:12Z</time>
      </trkpt>
      <trkpt lat="42.33355" lon="2.34315">
        <ele>1152.8</ele>
        <time>2019-01-07T22:05:13Z</time>
      </trkpt>
      <trkpt lat="42.33354" lon="2.34312">
        <ele>1152.7</ele>
        <time>2019-01-07T22:05:14Z</time>
      </trkpt>
      <trkpt lat="42.33353" lon="2.34308">
        <ele>1152.7</ele>
        <time>2019-01-07T22:05:14Z</time>
      </trkpt>
      <trkpt lat="42.33352" lon="2.34306">
        <ele>1152.4</ele>
        <time>2019-01-07T22:05:15Z</time>
      </trkpt>
      <trkpt lat="42.33349" lon="2.34305">
        <ele>1151.4</ele>
        <time>2019-01-07T22:05:16Z</time>
      </trkpt>
      <trkpt lat="42.33348" lon="2.34307">
        <ele>1150.6</ele>
        <time>2019-01-07T22:05:16Z</time>
      </trkpt>
      <trkpt lat="42.33347" lon="2.3431">
        <ele>1150</ele>
        <time>2019-01-07T22:05:17Z</time>
      </trkpt>
      <trkpt lat="42.33347" lon="2.34313">
        <ele>1149.8</ele>
        <time>2019-01-07T22:05:18Z</time>
      </trkpt>
      <trkpt lat="42.33347" lon="2.34316">
        <ele>1149.5</ele>
        <time>2019-01-07T22:05:18Z</time>
      </trkpt>
      <trkpt lat="42.33347" lon="2.3432">
        <ele>1149.2</ele>
        <time>2019-01-07T22:05:19Z</time>
      </trkpt>
      <trkpt lat="42.33347" lon="2.34323">
        <ele>1149</ele>
        <time>2019-01-07T22:05:20Z</time>
      </trkpt>
      <trkpt lat="42.33347" lon="2.34326">
        <ele>1148.7</ele>
        <time>2019-01-07T22:05:20Z</time>
      </trkpt>
      <trkpt lat="42.33347" lon="2.34329">
        <ele>1148.3</ele>
        <time>2019-01-07T22:05:21Z</time>
      </trkpt>
      <trkpt lat="42.33347" lon="2.34333">
        <ele>1148.1</ele>
        <time>2019-01-07T22:05:22Z</time>
      </trkpt>
      <trkpt lat="42.33347" lon="2.34336">
        <ele>1147.8</ele>
        <time>2019-01-07T22:05:22Z</time>
      </trkpt>
      <trkpt lat="42.33347" lon="2.34339">
        <ele>1147.1</ele>
        <time>2019-01-07T22:05:23Z</time>
      </trkpt>
      <trkpt lat="42.33347" lon="2.34343">
        <ele>1146.7</ele>
        <time>2019-01-07T22:05:24Z</time>
      </trkpt>
      <trkpt lat="42.33348" lon="2.34346">
        <ele>1146.2</ele>
        <time>2019-01-07T22:05:24Z</time>
      </trkpt>
      <trkpt lat="42.33348" lon="2.34349">
        <ele>1145.7</ele>
        <time>2019-01-07T22:05:25Z</time>
      </trkpt>
      <trkpt lat="42.33348" lon="2.34353">
        <ele>1145.2</ele>
        <time>2019-01-07T22:05:26Z</time>
      </trkpt>
      <trkpt lat="42.33348" lon="2.34356">
        <ele>1144.8</ele>
        <time>2019-01-07T22:05:26Z</time>
      </trkpt>
      <trkpt lat="42.33349" lon="2.34359">
        <ele>1144.5</ele>
        <time>2019-01-07T22:05:27Z</time>
      </trkpt>
      <trkpt lat="42.33349" lon="2.34362">
        <ele>1144</ele>
        <time>2019-01-07T22:05:27Z</time>
      </trkpt>
      <trkpt lat="42.33349" lon="2.34365">
        <ele>1143.7</ele>
        <time>2019-01-07T22:05:28Z</time>
      </trkpt>
      <trkpt lat="42.33349" lon="2.34368">
        <ele>1143</ele>
        <time>2019-01-07T22:05:29Z</time>
      </trkpt>
      <trkpt lat="42.33349" lon="2.34371">
        <ele>1142.7</ele>
        <time>2019-01-07T22:05:29Z</time>
      </trkpt>
      <trkpt lat="42.3335" lon="2.34373">
        <ele>1142.4</ele>
        <time>2019-01-07T22:05:30Z</time>
      </trkpt>
      <trkpt lat="42.3335" lon="2.34376">
        <ele>1141.8</ele>
        <time>2019-01-07T22:05:30Z</time>
      </trkpt>
      <trkpt lat="42.3335" lon="2.34379">
        <ele>1141.5</ele>
        <time>2019-01-07T22:05:31Z</time>
      </trkpt>
      <trkpt lat="42.3335" lon="2.34382">
        <ele>1140.9</ele>
        <time>2019-01-07T22:05:31Z</time>
      </trkpt>
      <trkpt lat="42.3335" lon="2.34385">
        <ele>1140.6</ele>
        <time>2019-01-07T22:05:32Z</time>
      </trkpt>
      <trkpt lat="42.3335" lon="2.34388">
        <ele>1140.2</ele>
        <time>2019-01-07T22:05:33Z</time>
      </trkpt>
      <trkpt lat="42.33351" lon="2.34391">
        <ele>1139.7</ele>
        <time>2019-01-07T22:05:33Z</time>
      </trkpt>
      <trkpt lat="42.33351" lon="2.34394">
        <ele>1139.2</ele>
        <time>2019-01-07T22:05:34Z</time>
      </trkpt>
      <trkpt lat="42.33351" lon="2.34397">
        <ele>1138.9</ele>
        <time>2019-01-07T22:05:34Z</time>
      </trkpt>
      <trkpt lat="42.33352" lon="2.344">
        <ele>1138.3</ele>
        <time>2019-01-07T22:05:35Z</time>
      </trkpt>
      <trkpt lat="42.33352" lon="2.34403">
        <ele>1137.8</ele>
        <time>2019-01-07T22:05:36Z</time>
      </trkpt>
      <trkpt lat="42.33351" lon="2.34406">
        <ele>1137.2</ele>
        <time>2019-01-07T22:05:36Z</time>
      </trkpt>
      <trkpt lat="42.33351" lon="2.34409">
        <ele>1137</ele>
        <time>2019-01-07T22:05:37Z</time>
      </trkpt>
      <trkpt lat="42.33352" lon="2.34412">
        <ele>1136.7</ele>
        <time>2019-01-07T22:05:37Z</time>
      </trkpt>
      <trkpt lat="42.33352" lon="2.34414">
        <ele>1136.2</ele>
        <time>2019-01-07T22:05:38Z</time>
      </trkpt>
      <trkpt lat="42.33352" lon="2.34417">
        <ele>1135.8</ele>
        <time>2019-01-07T22:05:38Z</time>
      </trkpt>
      <trkpt lat="42.33352" lon="2.34421">
        <ele>1135.1</ele>
        <time>2019-01-07T22:05:39Z</time>
      </trkpt>
      <trkpt lat="42.33352" lon="2.34424">
        <ele>1134.6</ele>
        <time>2019-01-07T22:05:40Z</time>
      </trkpt>
      <trkpt lat="42.33353" lon="2.34427">
        <ele>1134.1</ele>
        <time>2019-01-07T22:05:40Z</time>
      </trkpt>
      <trkpt lat="42.33353" lon="2.34431">
        <ele>1133.6</ele>
        <time>2019-01-07T22:05:41Z</time>
      </trkpt>
      <trkpt lat="42.33354" lon="2.34434">
        <ele>1133.2</ele>
        <time>2019-01-07T22:05:42Z</time>
      </trkpt>
      <trkpt lat="42.33354" lon="2.34436">
        <ele>1132.7</ele>
        <time>2019-01-07T22:05:42Z</time>
      </trkpt>
      <trkpt lat="42.33354" lon="2.34439">
        <ele>1132.3</ele>
        <time>2019-01-07T22:05:43Z</time>
      </trkpt>
      <trkpt lat="42.33355" lon="2.34442">
        <ele>1131.9</ele>
        <time>2019-01-07T22:05:43Z</time>
      </trkpt>
      <trkpt lat="42.33355" lon="2.34445">
        <ele>1131.5</ele>
        <time>2019-01-07T22:05:44Z</time>
      </trkpt>
      <trkpt lat="42.33356" lon="2.34448">
        <ele>1130.9</ele>
        <time>2019-01-07T22:05:45Z</time>
      </trkpt>
      <trkpt lat="42.33356" lon="2.34451">
        <ele>1130.4</ele>
        <time>2019-01-07T22:05:45Z</time>
      </trkpt>
      <trkpt lat="42.33357" lon="2.34455">
        <ele>1130</ele>
        <time>2019-01-07T22:05:46Z</time>
      </trkpt>
      <trkpt lat="42.33358" lon="2.34458">
        <ele>1129.5</ele>
        <time>2019-01-07T22:05:47Z</time>
      </trkpt>
      <trkpt lat="42.33358" lon="2.3446">
        <ele>1129</ele>
        <time>2019-01-07T22:05:47Z</time>
      </trkpt>
      <trkpt lat="42.33359" lon="2.34463">
        <ele>1128.6</ele>
        <time>2019-01-07T22:05:48Z</time>
      </trkpt>
      <trkpt lat="42.3336" lon="2.34466">
        <ele>1128.3</ele>
        <time>2019-01-07T22:05:48Z</time>
      </trkpt>
      <trkpt lat="42.33361" lon="2.34468">
        <ele>1127.9</ele>
        <time>2019-01-07T22:05:49Z</time>
      </trkpt>
      <trkpt lat="42.33362" lon="2.34471">
        <ele>1127.5</ele>
        <time>2019-01-07T22:05:49Z</time>
      </trkpt>
      <trkpt lat="42.33362" lon="2.34473">
        <ele>1126.8</ele>
        <time>2019-01-07T22:05:50Z</time>
      </trkpt>
      <trkpt lat="42.33363" lon="2.34477">
        <ele>1126.1</ele>
        <time>2019-01-07T22:05:51Z</time>
      </trkpt>
      <trkpt lat="42.33362" lon="2.3448">
        <ele>1125.2</ele>
        <time>2019-01-07T22:05:51Z</time>
      </trkpt>
      <trkpt lat="42.33359" lon="2.34482">
        <ele>1124.4</ele>
        <time>2019-01-07T22:05:52Z</time>
      </trkpt>
      <trkpt lat="42.33356" lon="2.34483">
        <ele>1123.9</ele>
        <time>2019-01-07T22:05:53Z</time>
      </trkpt>
      <trkpt lat="42.33353" lon="2.34482">
        <ele>1123.6</ele>
        <time>2019-01-07T22:05:54Z</time>
      </trkpt>
      <trkpt lat="42.3335" lon="2.3448">
        <ele>1123.4</ele>
        <time>2019-01-07T22:05:55Z</time>
      </trkpt>
      <trkpt lat="42.33348" lon="2.34479">
        <ele>1123.4</ele>
        <time>2019-01-07T22:05:55Z</time>
      </trkpt>
      <trkpt lat="42.33345" lon="2.34478">
        <ele>1123.3</ele>
        <time>2019-01-07T22:05:56Z</time>
      </trkpt>
      <trkpt lat="42.33344" lon="2.3448">
        <ele>1122.6</ele>
        <time>2019-01-07T22:05:57Z</time>
      </trkpt>
      <trkpt lat="42.33343" lon="2.34483">
        <ele>1121.7</ele>
        <time>2019-01-07T22:05:57Z</time>
      </trkpt>
      <trkpt lat="42.33342" lon="2.34485">
        <ele>1121.2</ele>
        <time>2019-01-07T22:05:58Z</time>
      </trkpt>
      <trkpt lat="42.3334" lon="2.34486">
        <ele>1121</ele>
        <time>2019-01-07T22:05:58Z</time>
      </trkpt>
      <trkpt lat="42.33337" lon="2.34486">
        <ele>1120.5</ele>
        <time>2019-01-07T22:05:59Z</time>
      </trkpt>
      <trkpt lat="42.33335" lon="2.34488">
        <ele>1120.1</ele>
        <time>2019-01-07T22:06:00Z</time>
      </trkpt>
      <trkpt lat="42.33334" lon="2.34491">
        <ele>1119.5</ele>
        <time>2019-01-07T22:06:00Z</time>
      </trkpt>
      <trkpt lat="42.33332" lon="2.34492">
        <ele>1119</ele>
        <time>2019-01-07T22:06:01Z</time>
      </trkpt>
      <trkpt lat="42.3333" lon="2.34489">
        <ele>1118.7</ele>
        <time>2019-01-07T22:06:02Z</time>
      </trkpt>
      <trkpt lat="42.33328" lon="2.34488">
        <ele>1118.5</ele>
        <time>2019-01-07T22:06:02Z</time>
      </trkpt>
      <trkpt lat="42.33326" lon="2.34489">
        <ele>1117.8</ele>
        <time>2019-01-07T22:06:03Z</time>
      </trkpt>
      <trkpt lat="42.33324" lon="2.3449">
        <ele>1117.1</ele>
        <time>2019-01-07T22:06:03Z</time>
      </trkpt>
      <trkpt lat="42.33322" lon="2.34492">
        <ele>1116.3</ele>
        <time>2019-01-07T22:06:04Z</time>
      </trkpt>
      <trkpt lat="42.33321" lon="2.34494">
        <ele>1115.7</ele>
        <time>2019-01-07T22:06:05Z</time>
      </trkpt>
      <trkpt lat="42.33319" lon="2.34497">
        <ele>1115</ele>
        <time>2019-01-07T22:06:05Z</time>
      </trkpt>
      <trkpt lat="42.33317" lon="2.345">
        <ele>1114.1</ele>
        <time>2019-01-07T22:06:06Z</time>
      </trkpt>
      <trkpt lat="42.33315" lon="2.34502">
        <ele>1113.1</ele>
        <time>2019-01-07T22:06:07Z</time>
      </trkpt>
      <trkpt lat="42.33314" lon="2.34505">
        <ele>1112.3</ele>
        <time>2019-01-07T22:06:07Z</time>
      </trkpt>
      <trkpt lat="42.33313" lon="2.34508">
        <ele>1111.5</ele>
        <time>2019-01-07T22:06:08Z</time>
      </trkpt>
      <trkpt lat="42.3331" lon="2.3451">
        <ele>1110.7</ele>
        <time>2019-01-07T22:06:09Z</time>
      </trkpt>
      <trkpt lat="42.33308" lon="2.34511">
        <ele>1109.9</ele>
        <time>2019-01-07T22:06:09Z</time>
      </trkpt>
      <trkpt lat="42.33306" lon="2.34514">
        <ele>1109.3</ele>
        <time>2019-01-07T22:06:10Z</time>
      </trkpt>
      <trkpt lat="42.33305" lon="2.34517">
        <ele>1108.6</ele>
        <time>2019-01-07T22:06:11Z</time>
      </trkpt>
      <trkpt lat="42.33305" lon="2.3452">
        <ele>1108.1</ele>
        <time>2019-01-07T22:06:11Z</time>
      </trkpt>
      <trkpt lat="42.33307" lon="2.34524">
        <ele>1108</ele>
        <time>2019-01-07T22:06:12Z</time>
      </trkpt>
      <trkpt lat="42.33309" lon="2.34527">
        <ele>1107.8</ele>
        <time>2019-01-07T22:06:13Z</time>
      </trkpt>
      <trkpt lat="42.33311" lon="2.3453">
        <ele>1107.5</ele>
        <time>2019-01-07T22:06:14Z</time>
      </trkpt>
      <trkpt lat="42.33313" lon="2.34534">
        <ele>1106.8</ele>
        <time>2019-01-07T22:06:15Z</time>
      </trkpt>
      <trkpt lat="42.33315" lon="2.34537">
        <ele>1106.2</ele>
        <time>2019-01-07T22:06:16Z</time>
      </trkpt>
      <trkpt lat="42.33315" lon="2.34539">
        <ele>1105.8</ele>
        <time>2019-01-07T22:06:16Z</time>
      </trkpt>
      <trkpt lat="42.33316" lon="2.34543">
        <ele>1104.8</ele>
        <time>2019-01-07T22:06:17Z</time>
      </trkpt>
      <trkpt lat="42.33316" lon="2.34548">
        <ele>1103.7</ele>
        <time>2019-01-07T22:06:18Z</time>
      </trkpt>
      <trkpt lat="42.33316" lon="2.3455">
        <ele>1103</ele>
        <time>2019-01-07T22:06:18Z</time>
      </trkpt>
      <trkpt lat="42.33313" lon="2.34553">
        <ele>1102.3</ele>
        <time>2019-01-07T22:06:19Z</time>
      </trkpt>
      <trkpt lat="42.3331" lon="2.34554">
        <ele>1102.1</ele>
        <time>2019-01-07T22:06:20Z</time>
      </trkpt>
      <trkpt lat="42.33308" lon="2.34554">
        <ele>1102.3</ele>
        <time>2019-01-07T22:06:21Z</time>
      </trkpt>
      <trkpt lat="42.33305" lon="2.34552">
        <ele>1102.6</ele>
        <time>2019-01-07T22:06:21Z</time>
      </trkpt>
      <trkpt lat="42.33302" lon="2.3455">
        <ele>1102.3</ele>
        <time>2019-01-07T22:06:22Z</time>
      </trkpt>
      <trkpt lat="42.33298" lon="2.34548">
        <ele>1101.8</ele>
        <time>2019-01-07T22:06:23Z</time>
      </trkpt>
      <trkpt lat="42.33297" lon="2.34547">
        <ele>1101.6</ele>
        <time>2019-01-07T22:06:24Z</time>
      </trkpt>
      <trkpt lat="42.33293" lon="2.34545">
        <ele>1101.1</ele>
        <time>2019-01-07T22:06:25Z</time>
      </trkpt>
      <trkpt lat="42.33291" lon="2.34543">
        <ele>1100.9</ele>
        <time>2019-01-07T22:06:26Z</time>
      </trkpt>
      <trkpt lat="42.33289" lon="2.34542">
        <ele>1100.8</ele>
        <time>2019-01-07T22:06:26Z</time>
      </trkpt>
      <trkpt lat="42.33288" lon="2.3454">
        <ele>1100.8</ele>
        <time>2019-01-07T22:06:27Z</time>
      </trkpt>
      <trkpt lat="42.33286" lon="2.34538">
        <ele>1100.6</ele>
        <time>2019-01-07T22:06:27Z</time>
      </trkpt>
      <trkpt lat="42.33284" lon="2.34536">
        <ele>1100.4</ele>
        <time>2019-01-07T22:06:28Z</time>
      </trkpt>
      <trkpt lat="42.33282" lon="2.34533">
        <ele>1100.4</ele>
        <time>2019-01-07T22:06:29Z</time>
      </trkpt>
      <trkpt lat="42.33282" lon="2.34535">
        <ele>1100.1</ele>
        <time>2019-01-07T22:06:29Z</time>
      </trkpt>
      <trkpt lat="42.33282" lon="2.34532">
        <ele>1100.4</ele>
        <time>2019-01-07T22:06:30Z</time>
      </trkpt>
      <trkpt lat="42.3328" lon="2.34529">
        <ele>1100.5</ele>
        <time>2019-01-07T22:06:31Z</time>
      </trkpt>
      <trkpt lat="42.33278" lon="2.34526">
        <ele>1100.2</ele>
        <time>2019-01-07T22:06:32Z</time>
      </trkpt>
      <trkpt lat="42.33276" lon="2.34522">
        <ele>1099.6</ele>
        <time>2019-01-07T22:06:32Z</time>
      </trkpt>
      <trkpt lat="42.33275" lon="2.34519">
        <ele>1099.4</ele>
        <time>2019-01-07T22:06:33Z</time>
      </trkpt>
      <trkpt lat="42.33275" lon="2.34515">
        <ele>1099.4</ele>
        <time>2019-01-07T22:06:34Z</time>
      </trkpt>
      <trkpt lat="42.33274" lon="2.34511">
        <ele>1099.1</ele>
        <time>2019-01-07T22:06:35Z</time>
      </trkpt>
      <trkpt lat="42.33271" lon="2.34509">
        <ele>1098.1</ele>
        <time>2019-01-07T22:06:35Z</time>
      </trkpt>
      <trkpt lat="42.33269" lon="2.3451">
        <ele>1096.8</ele>
        <time>2019-01-07T22:06:36Z</time>
      </trkpt>
      <trkpt lat="42.33267" lon="2.34513">
        <ele>1095.6</ele>
        <time>2019-01-07T22:06:37Z</time>
      </trkpt>
      <trkpt lat="42.33267" lon="2.34518">
        <ele>1095.4</ele>
        <time>2019-01-07T22:06:38Z</time>
      </trkpt>
      <trkpt lat="42.33267" lon="2.3452">
        <ele>1095</ele>
        <time>2019-01-07T22:06:38Z</time>
      </trkpt>
      <trkpt lat="42.33267" lon="2.34524">
        <ele>1094.7</ele>
        <time>2019-01-07T22:06:39Z</time>
      </trkpt>
      <trkpt lat="42.33267" lon="2.34527">
        <ele>1094.6</ele>
        <time>2019-01-07T22:06:40Z</time>
      </trkpt>
      <trkpt lat="42.33266" lon="2.3453">
        <ele>1094</ele>
        <time>2019-01-07T22:06:40Z</time>
      </trkpt>
      <trkpt lat="42.33266" lon="2.34533">
        <ele>1093.5</ele>
        <time>2019-01-07T22:06:41Z</time>
      </trkpt>
      <trkpt lat="42.33265" lon="2.34536">
        <ele>1093</ele>
        <time>2019-01-07T22:06:41Z</time>
      </trkpt>
      <trkpt lat="42.33265" lon="2.34539">
        <ele>1092.5</ele>
        <time>2019-01-07T22:06:42Z</time>
      </trkpt>
      <trkpt lat="42.33265" lon="2.34543">
        <ele>1092.2</ele>
        <time>2019-01-07T22:06:43Z</time>
      </trkpt>
      <trkpt lat="42.33265" lon="2.34546">
        <ele>1091.6</ele>
        <time>2019-01-07T22:06:43Z</time>
      </trkpt>
      <trkpt lat="42.33265" lon="2.3455">
        <ele>1091.4</ele>
        <time>2019-01-07T22:06:44Z</time>
      </trkpt>
      <trkpt lat="42.33265" lon="2.34553">
        <ele>1091</ele>
        <time>2019-01-07T22:06:45Z</time>
      </trkpt>
      <trkpt lat="42.33265" lon="2.34556">
        <ele>1090.7</ele>
        <time>2019-01-07T22:06:45Z</time>
      </trkpt>
      <trkpt lat="42.33265" lon="2.3456">
        <ele>1090.2</ele>
        <time>2019-01-07T22:06:46Z</time>
      </trkpt>
      <trkpt lat="42.33265" lon="2.34563">
        <ele>1089.8</ele>
        <time>2019-01-07T22:06:47Z</time>
      </trkpt>
      <trkpt lat="42.33265" lon="2.34566">
        <ele>1089.5</ele>
        <time>2019-01-07T22:06:47Z</time>
      </trkpt>
      <trkpt lat="42.33265" lon="2.34569">
        <ele>1089.1</ele>
        <time>2019-01-07T22:06:48Z</time>
      </trkpt>
      <trkpt lat="42.33265" lon="2.34572">
        <ele>1088.5</ele>
        <time>2019-01-07T22:06:49Z</time>
      </trkpt>
      <trkpt lat="42.33265" lon="2.34575">
        <ele>1088.1</ele>
        <time>2019-01-07T22:06:49Z</time>
      </trkpt>
      <trkpt lat="42.33265" lon="2.34579">
        <ele>1087.7</ele>
        <time>2019-01-07T22:06:50Z</time>
      </trkpt>
      <trkpt lat="42.33265" lon="2.34581">
        <ele>1087.3</ele>
        <time>2019-01-07T22:06:50Z</time>
      </trkpt>
      <trkpt lat="42.33266" lon="2.34584">
        <ele>1087.1</ele>
        <time>2019-01-07T22:06:51Z</time>
      </trkpt>
      <trkpt lat="42.33266" lon="2.34587">
        <ele>1086.6</ele>
        <time>2019-01-07T22:06:51Z</time>
      </trkpt>
      <trkpt lat="42.33266" lon="2.34589">
        <ele>1086</ele>
        <time>2019-01-07T22:06:52Z</time>
      </trkpt>
      <trkpt lat="42.33266" lon="2.34593">
        <ele>1085</ele>
        <time>2019-01-07T22:06:53Z</time>
      </trkpt>
      <trkpt lat="42.33266" lon="2.34597">
        <ele>1084.4</ele>
        <time>2019-01-07T22:06:54Z</time>
      </trkpt>
      <trkpt lat="42.33266" lon="2.34601">
        <ele>1083.6</ele>
        <time>2019-01-07T22:06:54Z</time>
      </trkpt>
      <trkpt lat="42.33267" lon="2.34604">
        <ele>1083</ele>
        <time>2019-01-07T22:06:55Z</time>
      </trkpt>
      <trkpt lat="42.33267" lon="2.34608">
        <ele>1082.5</ele>
        <time>2019-01-07T22:06:56Z</time>
      </trkpt>
      <trkpt lat="42.33268" lon="2.34611">
        <ele>1081.9</ele>
        <time>2019-01-07T22:06:56Z</time>
      </trkpt>
      <trkpt lat="42.3327" lon="2.34615">
        <ele>1081.4</ele>
        <time>2019-01-07T22:06:57Z</time>
      </trkpt>
      <trkpt lat="42.33271" lon="2.34619">
        <ele>1081.1</ele>
        <time>2019-01-07T22:06:58Z</time>
      </trkpt>
      <trkpt lat="42.33272" lon="2.34624">
        <ele>1080.3</ele>
        <time>2019-01-07T22:06:59Z</time>
      </trkpt>
      <trkpt lat="42.33274" lon="2.34628">
        <ele>1079.9</ele>
        <time>2019-01-07T22:07:00Z</time>
      </trkpt>
      <trkpt lat="42.33276" lon="2.34631">
        <ele>1079.4</ele>
        <time>2019-01-07T22:07:01Z</time>
      </trkpt>
      <trkpt lat="42.33278" lon="2.34635">
        <ele>1078.9</ele>
        <time>2019-01-07T22:07:02Z</time>
      </trkpt>
      <trkpt lat="42.33279" lon="2.34638">
        <ele>1078.3</ele>
        <time>2019-01-07T22:07:02Z</time>
      </trkpt>
      <trkpt lat="42.3328" lon="2.3464">
        <ele>1077.8</ele>
        <time>2019-01-07T22:07:03Z</time>
      </trkpt>
      <trkpt lat="42.33281" lon="2.34644">
        <ele>1077.1</ele>
        <time>2019-01-07T22:07:04Z</time>
      </trkpt>
      <trkpt lat="42.33283" lon="2.34647">
        <ele>1076.5</ele>
        <time>2019-01-07T22:07:05Z</time>
      </trkpt>
      <trkpt lat="42.33284" lon="2.34651">
        <ele>1075.7</ele>
        <time>2019-01-07T22:07:05Z</time>
      </trkpt>
      <trkpt lat="42.33283" lon="2.34653">
        <ele>1075.1</ele>
        <time>2019-01-07T22:07:06Z</time>
      </trkpt>
      <trkpt lat="42.3328" lon="2.34653">
        <ele>1075.5</ele>
        <time>2019-01-07T22:07:07Z</time>
      </trkpt>
      <trkpt lat="42.33276" lon="2.34652">
        <ele>1075.6</ele>
        <time>2019-01-07T22:07:08Z</time>
      </trkpt>
      <trkpt lat="42.33273" lon="2.34651">
        <ele>1075.1</ele>
        <time>2019-01-07T22:07:09Z</time>
      </trkpt>
      <trkpt lat="42.3327" lon="2.3465">
        <ele>1074.8</ele>
        <time>2019-01-07T22:07:10Z</time>
      </trkpt>
      <trkpt lat="42.33267" lon="2.34649">
        <ele>1074.2</ele>
        <time>2019-01-07T22:07:10Z</time>
      </trkpt>
      <trkpt lat="42.33264" lon="2.34648">
        <ele>1073.8</ele>
        <time>2019-01-07T22:07:11Z</time>
      </trkpt>
      <trkpt lat="42.33261" lon="2.34648">
        <ele>1073.5</ele>
        <time>2019-01-07T22:07:12Z</time>
      </trkpt>
      <trkpt lat="42.33259" lon="2.34646">
        <ele>1073.4</ele>
        <time>2019-01-07T22:07:13Z</time>
      </trkpt>
      <trkpt lat="42.33257" lon="2.34645">
        <ele>1073.2</ele>
        <time>2019-01-07T22:07:13Z</time>
      </trkpt>
      <trkpt lat="42.33255" lon="2.34644">
        <ele>1073</ele>
        <time>2019-01-07T22:07:14Z</time>
      </trkpt>
      <trkpt lat="42.33251" lon="2.34643">
        <ele>1072.4</ele>
        <time>2019-01-07T22:07:15Z</time>
      </trkpt>
      <trkpt lat="42.33249" lon="2.34643">
        <ele>1072.1</ele>
        <time>2019-01-07T22:07:15Z</time>
      </trkpt>
      <trkpt lat="42.33247" lon="2.34642">
        <ele>1071.6</ele>
        <time>2019-01-07T22:07:16Z</time>
      </trkpt>
      <trkpt lat="42.33244" lon="2.34641">
        <ele>1071.1</ele>
        <time>2019-01-07T22:07:17Z</time>
      </trkpt>
      <trkpt lat="42.33241" lon="2.34641">
        <ele>1070.3</ele>
        <time>2019-01-07T22:07:17Z</time>
      </trkpt>
      <trkpt lat="42.3324" lon="2.34644">
        <ele>1069.1</ele>
        <time>2019-01-07T22:07:18Z</time>
      </trkpt>
      <trkpt lat="42.33239" lon="2.34649">
        <ele>1068.3</ele>
        <time>2019-01-07T22:07:19Z</time>
      </trkpt>
      <trkpt lat="42.33239" lon="2.34653">
        <ele>1067.3</ele>
        <time>2019-01-07T22:07:20Z</time>
      </trkpt>
      <trkpt lat="42.3324" lon="2.34657">
        <ele>1067.1</ele>
        <time>2019-01-07T22:07:21Z</time>
      </trkpt>
      <trkpt lat="42.33242" lon="2.34662">
        <ele>1066.7</ele>
        <time>2019-01-07T22:07:22Z</time>
      </trkpt>
      <trkpt lat="42.33243" lon="2.34666">
        <ele>1066.2</ele>
        <time>2019-01-07T22:07:23Z</time>
      </trkpt>
      <trkpt lat="42.33245" lon="2.3467">
        <ele>1066</ele>
        <time>2019-01-07T22:07:24Z</time>
      </trkpt>
      <trkpt lat="42.33247" lon="2.34673">
        <ele>1065.4</ele>
        <time>2019-01-07T22:07:24Z</time>
      </trkpt>
      <trkpt lat="42.33249" lon="2.34677">
        <ele>1065</ele>
        <time>2019-01-07T22:07:25Z</time>
      </trkpt>
      <trkpt lat="42.33251" lon="2.34681">
        <ele>1064.7</ele>
        <time>2019-01-07T22:07:26Z</time>
      </trkpt>
      <trkpt lat="42.33253" lon="2.34683">
        <ele>1064.4</ele>
        <time>2019-01-07T22:07:27Z</time>
      </trkpt>
      <trkpt lat="42.33254" lon="2.34685">
        <ele>1064.2</ele>
        <time>2019-01-07T22:07:27Z</time>
      </trkpt>
      <trkpt lat="42.33256" lon="2.34688">
        <ele>1063.7</ele>
        <time>2019-01-07T22:07:28Z</time>
      </trkpt>
      <trkpt lat="42.33258" lon="2.34691">
        <ele>1063.4</ele>
        <time>2019-01-07T22:07:29Z</time>
      </trkpt>
      <trkpt lat="42.33261" lon="2.34694">
        <ele>1063.1</ele>
        <time>2019-01-07T22:07:30Z</time>
      </trkpt>
      <trkpt lat="42.33263" lon="2.34697">
        <ele>1062.7</ele>
        <time>2019-01-07T22:07:31Z</time>
      </trkpt>
      <trkpt lat="42.33265" lon="2.347">
        <ele>1062.2</ele>
        <time>2019-01-07T22:07:32Z</time>
      </trkpt>
      <trkpt lat="42.33266" lon="2.34702">
        <ele>1062</ele>
        <time>2019-01-07T22:07:32Z</time>
      </trkpt>
      <trkpt lat="42.33268" lon="2.34705">
        <ele>1061.7</ele>
        <time>2019-01-07T22:07:33Z</time>
      </trkpt>
      <trkpt lat="42.3327" lon="2.34707">
        <ele>1061.4</ele>
        <time>2019-01-07T22:07:33Z</time>
      </trkpt>
      <trkpt lat="42.33271" lon="2.34709">
        <ele>1061.1</ele>
        <time>2019-01-07T22:07:34Z</time>
      </trkpt>
      <trkpt lat="42.33272" lon="2.3471">
        <ele>1061</ele>
        <time>2019-01-07T22:07:34Z</time>
      </trkpt>
      <trkpt lat="42.33274" lon="2.34713">
        <ele>1060.6</ele>
        <time>2019-01-07T22:07:35Z</time>
      </trkpt>
      <trkpt lat="42.33276" lon="2.34717">
        <ele>1060.2</ele>
        <time>2019-01-07T22:07:36Z</time>
      </trkpt>
      <trkpt lat="42.33279" lon="2.3472">
        <ele>1059.4</ele>
        <time>2019-01-07T22:07:37Z</time>
      </trkpt>
      <trkpt lat="42.33281" lon="2.34724">
        <ele>1058.4</ele>
        <time>2019-01-07T22:07:38Z</time>
      </trkpt>
      <trkpt lat="42.33283" lon="2.34725">
        <ele>1057.5</ele>
        <time>2019-01-07T22:07:39Z</time>
      </trkpt>
      <trkpt lat="42.33285" lon="2.34727">
        <ele>1056.9</ele>
        <time>2019-01-07T22:07:39Z</time>
      </trkpt>
      <trkpt lat="42.33287" lon="2.34729">
        <ele>1056.3</ele>
        <time>2019-01-07T22:07:40Z</time>
      </trkpt>
      <trkpt lat="42.33288" lon="2.3473">
        <ele>1055.7</ele>
        <time>2019-01-07T22:07:40Z</time>
      </trkpt>
      <trkpt lat="42.3329" lon="2.34731">
        <ele>1055</ele>
        <time>2019-01-07T22:07:41Z</time>
      </trkpt>
      <trkpt lat="42.33293" lon="2.34732">
        <ele>1054.5</ele>
        <time>2019-01-07T22:07:41Z</time>
      </trkpt>
      <trkpt lat="42.33295" lon="2.34733">
        <ele>1053.9</ele>
        <time>2019-01-07T22:07:42Z</time>
      </trkpt>
      <trkpt lat="42.33297" lon="2.34734">
        <ele>1053.5</ele>
        <time>2019-01-07T22:07:43Z</time>
      </trkpt>
      <trkpt lat="42.33299" lon="2.34734">
        <ele>1053.1</ele>
        <time>2019-01-07T22:07:43Z</time>
      </trkpt>
      <trkpt lat="42.33301" lon="2.34734">
        <ele>1052.9</ele>
        <time>2019-01-07T22:07:44Z</time>
      </trkpt>
      <trkpt lat="42.33303" lon="2.34733">
        <ele>1052.7</ele>
        <time>2019-01-07T22:07:44Z</time>
      </trkpt>
      <trkpt lat="42.33306" lon="2.34733">
        <ele>1052.7</ele>
        <time>2019-01-07T22:07:45Z</time>
      </trkpt>
      <trkpt lat="42.33308" lon="2.34732">
        <ele>1052.6</ele>
        <time>2019-01-07T22:07:46Z</time>
      </trkpt>
      <trkpt lat="42.3331" lon="2.34731">
        <ele>1052.5</ele>
        <time>2019-01-07T22:07:46Z</time>
      </trkpt>
      <trkpt lat="42.33311" lon="2.3473">
        <ele>1052.4</ele>
        <time>2019-01-07T22:07:47Z</time>
      </trkpt>
      <trkpt lat="42.33313" lon="2.34729">
        <ele>1052.4</ele>
        <time>2019-01-07T22:07:47Z</time>
      </trkpt>
      <trkpt lat="42.33315" lon="2.34726">
        <ele>1052.6</ele>
        <time>2019-01-07T22:07:48Z</time>
      </trkpt>
      <trkpt lat="42.33316" lon="2.34724">
        <ele>1052.8</ele>
        <time>2019-01-07T22:07:48Z</time>
      </trkpt>
      <trkpt lat="42.33318" lon="2.34722">
        <ele>1052.7</ele>
        <time>2019-01-07T22:07:49Z</time>
      </trkpt>
      <trkpt lat="42.33319" lon="2.34719">
        <ele>1053.1</ele>
        <time>2019-01-07T22:07:50Z</time>
      </trkpt>
      <trkpt lat="42.33321" lon="2.34715">
        <ele>1053.4</ele>
        <time>2019-01-07T22:07:51Z</time>
      </trkpt>
      <trkpt lat="42.33328" lon="2.34707">
        <ele>1053</ele>
        <time>2019-01-07T22:07:53Z</time>
      </trkpt>
      <trkpt lat="42.33334" lon="2.34716">
        <ele>1049.7</ele>
        <time>2019-01-07T22:07:56Z</time>
      </trkpt>
      <trkpt lat="42.33336" lon="2.34729">
        <ele>1049</ele>
        <time>2019-01-07T22:07:58Z</time>
      </trkpt>
      <trkpt lat="42.33331" lon="2.34742">
        <ele>1047.5</ele>
        <time>2019-01-07T22:08:01Z</time>
      </trkpt>
      <trkpt lat="42.33326" lon="2.34752">
        <ele>1047</ele>
        <time>2019-01-07T22:08:03Z</time>
      </trkpt>
      <trkpt lat="42.33321" lon="2.34763">
        <ele>1045.2</ele>
        <time>2019-01-07T22:08:06Z</time>
      </trkpt>
      <trkpt lat="42.33314" lon="2.34772">
        <ele>1042.1</ele>
        <time>2019-01-07T22:08:09Z</time>
      </trkpt>
      <trkpt lat="42.33307" lon="2.3478">
        <ele>1038.4</ele>
        <time>2019-01-07T22:08:11Z</time>
      </trkpt>
      <trkpt lat="42.333" lon="2.34791">
        <ele>1037.2</ele>
        <time>2019-01-07T22:08:14Z</time>
      </trkpt>
      <trkpt lat="42.33297" lon="2.34794">
        <ele>1036.8</ele>
        <time>2019-01-07T22:08:15Z</time>
      </trkpt>
      <trkpt lat="42.33295" lon="2.34798">
        <ele>1036.3</ele>
        <time>2019-01-07T22:08:16Z</time>
      </trkpt>
      <trkpt lat="42.33294" lon="2.34801">
        <ele>1035.7</ele>
        <time>2019-01-07T22:08:16Z</time>
      </trkpt>
      <trkpt lat="42.33292" lon="2.34803">
        <ele>1035.6</ele>
        <time>2019-01-07T22:08:17Z</time>
      </trkpt>
      <trkpt lat="42.3329" lon="2.34807">
        <ele>1034.8</ele>
        <time>2019-01-07T22:08:18Z</time>
      </trkpt>
      <trkpt lat="42.33289" lon="2.3481">
        <ele>1034.3</ele>
        <time>2019-01-07T22:08:19Z</time>
      </trkpt>
      <trkpt lat="42.33288" lon="2.34814">
        <ele>1033.8</ele>
        <time>2019-01-07T22:08:19Z</time>
      </trkpt>
      <trkpt lat="42.33287" lon="2.34818">
        <ele>1033.5</ele>
        <time>2019-01-07T22:08:20Z</time>
      </trkpt>
      <trkpt lat="42.33287" lon="2.34821">
        <ele>1033.3</ele>
        <time>2019-01-07T22:08:21Z</time>
      </trkpt>
      <trkpt lat="42.33287" lon="2.34823">
        <ele>1033.2</ele>
        <time>2019-01-07T22:08:21Z</time>
      </trkpt>
      <trkpt lat="42.33286" lon="2.34826">
        <ele>1032.8</ele>
        <time>2019-01-07T22:08:22Z</time>
      </trkpt>
      <trkpt lat="42.33286" lon="2.34829">
        <ele>1032.4</ele>
        <time>2019-01-07T22:08:22Z</time>
      </trkpt>
      <trkpt lat="42.33285" lon="2.34831">
        <ele>1032.1</ele>
        <time>2019-01-07T22:08:23Z</time>
      </trkpt>
      <trkpt lat="42.33285" lon="2.34836">
        <ele>1031.6</ele>
        <time>2019-01-07T22:08:24Z</time>
      </trkpt>
      <trkpt lat="42.33284" lon="2.34841">
        <ele>1031.5</ele>
        <time>2019-01-07T22:08:25Z</time>
      </trkpt>
      <trkpt lat="42.33284" lon="2.34843">
        <ele>1031.3</ele>
        <time>2019-01-07T22:08:25Z</time>
      </trkpt>
      <trkpt lat="42.33284" lon="2.34845">
        <ele>1031.2</ele>
        <time>2019-01-07T22:08:26Z</time>
      </trkpt>
      <trkpt lat="42.33279" lon="2.34859">
        <ele>1029.4</ele>
        <time>2019-01-07T22:08:29Z</time>
      </trkpt>
      <trkpt lat="42.33273" lon="2.34871">
        <ele>1028.1</ele>
        <time>2019-01-07T22:08:32Z</time>
      </trkpt>
      <trkpt lat="42.33271" lon="2.34874">
        <ele>1027.6</ele>
        <time>2019-01-07T22:08:32Z</time>
      </trkpt>
      <trkpt lat="42.33269" lon="2.34877">
        <ele>1027.2</ele>
        <time>2019-01-07T22:08:33Z</time>
      </trkpt>
      <trkpt lat="42.33267" lon="2.3488">
        <ele>1026.7</ele>
        <time>2019-01-07T22:08:34Z</time>
      </trkpt>
      <trkpt lat="42.33265" lon="2.34883">
        <ele>1026.2</ele>
        <time>2019-01-07T22:08:35Z</time>
      </trkpt>
      <trkpt lat="42.33263" lon="2.34886">
        <ele>1025.6</ele>
        <time>2019-01-07T22:08:36Z</time>
      </trkpt>
      <trkpt lat="42.33261" lon="2.34889">
        <ele>1025.1</ele>
        <time>2019-01-07T22:08:36Z</time>
      </trkpt>
      <trkpt lat="42.33259" lon="2.34892">
        <ele>1024.5</ele>
        <time>2019-01-07T22:08:37Z</time>
      </trkpt>
      <trkpt lat="42.33254" lon="2.34897">
        <ele>1023.6</ele>
        <time>2019-01-07T22:08:39Z</time>
      </trkpt>
      <trkpt lat="42.33252" lon="2.349">
        <ele>1023.2</ele>
        <time>2019-01-07T22:08:39Z</time>
      </trkpt>
      <trkpt lat="42.3325" lon="2.34902">
        <ele>1022.6</ele>
        <time>2019-01-07T22:08:40Z</time>
      </trkpt>
      <trkpt lat="42.33248" lon="2.34904">
        <ele>1022.3</ele>
        <time>2019-01-07T22:08:41Z</time>
      </trkpt>
      <trkpt lat="42.33246" lon="2.34906">
        <ele>1022</ele>
        <time>2019-01-07T22:08:42Z</time>
      </trkpt>
      <trkpt lat="42.33244" lon="2.34909">
        <ele>1021.7</ele>
        <time>2019-01-07T22:08:42Z</time>
      </trkpt>
      <trkpt lat="42.33242" lon="2.34911">
        <ele>1021.2</ele>
        <time>2019-01-07T22:08:43Z</time>
      </trkpt>
      <trkpt lat="42.3324" lon="2.34913">
        <ele>1020.7</ele>
        <time>2019-01-07T22:08:44Z</time>
      </trkpt>
      <trkpt lat="42.33238" lon="2.34916">
        <ele>1020.3</ele>
        <time>2019-01-07T22:08:44Z</time>
      </trkpt>
      <trkpt lat="42.33236" lon="2.34917">
        <ele>1020.1</ele>
        <time>2019-01-07T22:08:45Z</time>
      </trkpt>
      <trkpt lat="42.33234" lon="2.34919">
        <ele>1019.6</ele>
        <time>2019-01-07T22:08:46Z</time>
      </trkpt>
      <trkpt lat="42.33232" lon="2.3492">
        <ele>1019.2</ele>
        <time>2019-01-07T22:08:46Z</time>
      </trkpt>
      <trkpt lat="42.3323" lon="2.34921">
        <ele>1019.1</ele>
        <time>2019-01-07T22:08:47Z</time>
      </trkpt>
      <trkpt lat="42.33227" lon="2.34921">
        <ele>1018.5</ele>
        <time>2019-01-07T22:08:48Z</time>
      </trkpt>
      <trkpt lat="42.33225" lon="2.34922">
        <ele>1018.3</ele>
        <time>2019-01-07T22:08:48Z</time>
      </trkpt>
      <trkpt lat="42.33222" lon="2.34923">
        <ele>1017.8</ele>
        <time>2019-01-07T22:08:49Z</time>
      </trkpt>
      <trkpt lat="42.33219" lon="2.34924">
        <ele>1017.5</ele>
        <time>2019-01-07T22:08:50Z</time>
      </trkpt>
      <trkpt lat="42.33217" lon="2.34924">
        <ele>1017.6</ele>
        <time>2019-01-07T22:08:50Z</time>
      </trkpt>
      <trkpt lat="42.33213" lon="2.34918">
        <ele>1017.2</ele>
        <time>2019-01-07T22:08:52Z</time>
      </trkpt>
      <trkpt lat="42.33204" lon="2.34926">
        <ele>1016.7</ele>
        <time>2019-01-07T22:08:55Z</time>
      </trkpt>
      <trkpt lat="42.33203" lon="2.34928">
        <ele>1016.7</ele>
        <time>2019-01-07T22:08:55Z</time>
      </trkpt>
      <trkpt lat="42.33201" lon="2.3493">
        <ele>1016.8</ele>
        <time>2019-01-07T22:08:56Z</time>
      </trkpt>
      <trkpt lat="42.332" lon="2.34932">
        <ele>1016.8</ele>
        <time>2019-01-07T22:08:56Z</time>
      </trkpt>
      <trkpt lat="42.33191" lon="2.34933">
        <ele>1016.9</ele>
        <time>2019-01-07T22:08:59Z</time>
      </trkpt>
      <trkpt lat="42.33189" lon="2.34931">
        <ele>1017</ele>
        <time>2019-01-07T22:09:00Z</time>
      </trkpt>
      <trkpt lat="42.33186" lon="2.34928">
        <ele>1016.8</ele>
        <time>2019-01-07T22:09:00Z</time>
      </trkpt>
      <trkpt lat="42.33183" lon="2.34926">
        <ele>1016.8</ele>
        <time>2019-01-07T22:09:01Z</time>
      </trkpt>
      <trkpt lat="42.33181" lon="2.34925">
        <ele>1016.5</ele>
        <time>2019-01-07T22:09:02Z</time>
      </trkpt>
      <trkpt lat="42.33179" lon="2.34923">
        <ele>1016.5</ele>
        <time>2019-01-07T22:09:03Z</time>
      </trkpt>
      <trkpt lat="42.33177" lon="2.34921">
        <ele>1016.2</ele>
        <time>2019-01-07T22:09:03Z</time>
      </trkpt>
      <trkpt lat="42.33175" lon="2.3492">
        <ele>1016.3</ele>
        <time>2019-01-07T22:09:04Z</time>
      </trkpt>
      <trkpt lat="42.33174" lon="2.34919">
        <ele>1016.2</ele>
        <time>2019-01-07T22:09:04Z</time>
      </trkpt>
      <trkpt lat="42.33172" lon="2.34918">
        <ele>1016.2</ele>
        <time>2019-01-07T22:09:05Z</time>
      </trkpt>
      <trkpt lat="42.33168" lon="2.34916">
        <ele>1016</ele>
        <time>2019-01-07T22:09:06Z</time>
      </trkpt>
      <trkpt lat="42.33166" lon="2.34915">
        <ele>1015.9</ele>
        <time>2019-01-07T22:09:06Z</time>
      </trkpt>
      <trkpt lat="42.33164" lon="2.34913">
        <ele>1016.1</ele>
        <time>2019-01-07T22:09:07Z</time>
      </trkpt>
      <trkpt lat="42.33162" lon="2.34912">
        <ele>1016.2</ele>
        <time>2019-01-07T22:09:08Z</time>
      </trkpt>
      <trkpt lat="42.3316" lon="2.34911">
        <ele>1016.2</ele>
        <time>2019-01-07T22:09:08Z</time>
      </trkpt>
      <trkpt lat="42.33158" lon="2.3491">
        <ele>1016.2</ele>
        <time>2019-01-07T22:09:09Z</time>
      </trkpt>
      <trkpt lat="42.33156" lon="2.34909">
        <ele>1016.2</ele>
        <time>2019-01-07T22:09:09Z</time>
      </trkpt>
      <trkpt lat="42.33154" lon="2.34908">
        <ele>1016.3</ele>
        <time>2019-01-07T22:09:10Z</time>
      </trkpt>
      <trkpt lat="42.33152" lon="2.34907">
        <ele>1016.4</ele>
        <time>2019-01-07T22:09:10Z</time>
      </trkpt>
      <trkpt lat="42.3315" lon="2.34906">
        <ele>1016.2</ele>
        <time>2019-01-07T22:09:11Z</time>
      </trkpt>
      <trkpt lat="42.33147" lon="2.34903">
        <ele>1016.2</ele>
        <time>2019-01-07T22:09:12Z</time>
      </trkpt>
      <trkpt lat="42.33141" lon="2.34902">
        <ele>1016.3</ele>
        <time>2019-01-07T22:09:13Z</time>
      </trkpt>
      <trkpt lat="42.3314" lon="2.34897">
        <ele>1015.9</ele>
        <time>2019-01-07T22:09:14Z</time>
      </trkpt>
      <trkpt lat="42.33139" lon="2.34893">
        <ele>1015.5</ele>
        <time>2019-01-07T22:09:15Z</time>
      </trkpt>
      <trkpt lat="42.33138" lon="2.34889">
        <ele>1015.2</ele>
        <time>2019-01-07T22:09:16Z</time>
      </trkpt>
      <trkpt lat="42.33136" lon="2.34885">
        <ele>1014.9</ele>
        <time>2019-01-07T22:09:17Z</time>
      </trkpt>
      <trkpt lat="42.33135" lon="2.34882">
        <ele>1014.6</ele>
        <time>2019-01-07T22:09:18Z</time>
      </trkpt>
      <trkpt lat="42.33133" lon="2.34879">
        <ele>1014.4</ele>
        <time>2019-01-07T22:09:19Z</time>
      </trkpt>
      <trkpt lat="42.33131" lon="2.34875">
        <ele>1014.2</ele>
        <time>2019-01-07T22:09:19Z</time>
      </trkpt>
      <trkpt lat="42.33129" lon="2.34872">
        <ele>1014.1</ele>
        <time>2019-01-07T22:09:20Z</time>
      </trkpt>
      <trkpt lat="42.33127" lon="2.34868">
        <ele>1014</ele>
        <time>2019-01-07T22:09:21Z</time>
      </trkpt>
      <trkpt lat="42.33125" lon="2.34865">
        <ele>1013.8</ele>
        <time>2019-01-07T22:09:22Z</time>
      </trkpt>
      <trkpt lat="42.33123" lon="2.34862">
        <ele>1013.8</ele>
        <time>2019-01-07T22:09:23Z</time>
      </trkpt>
      <trkpt lat="42.33121" lon="2.34859">
        <ele>1013.9</ele>
        <time>2019-01-07T22:09:24Z</time>
      </trkpt>
      <trkpt lat="42.33119" lon="2.34857">
        <ele>1014.1</ele>
        <time>2019-01-07T22:09:24Z</time>
      </trkpt>
      <trkpt lat="42.33116" lon="2.34854">
        <ele>1014</ele>
        <time>2019-01-07T22:09:25Z</time>
      </trkpt>
      <trkpt lat="42.33114" lon="2.34851">
        <ele>1014</ele>
        <time>2019-01-07T22:09:26Z</time>
      </trkpt>
      <trkpt lat="42.33112" lon="2.34847">
        <ele>1014</ele>
        <time>2019-01-07T22:09:27Z</time>
      </trkpt>
      <trkpt lat="42.33111" lon="2.34843">
        <ele>1013.8</ele>
        <time>2019-01-07T22:09:28Z</time>
      </trkpt>
      <trkpt lat="42.33109" lon="2.34841">
        <ele>1013.6</ele>
        <time>2019-01-07T22:09:28Z</time>
      </trkpt>
      <trkpt lat="42.33108" lon="2.34839">
        <ele>1013.5</ele>
        <time>2019-01-07T22:09:29Z</time>
      </trkpt>
      <trkpt lat="42.33106" lon="2.34836">
        <ele>1013.3</ele>
        <time>2019-01-07T22:09:30Z</time>
      </trkpt>
      <trkpt lat="42.33105" lon="2.34834">
        <ele>1013</ele>
        <time>2019-01-07T22:09:30Z</time>
      </trkpt>
      <trkpt lat="42.33103" lon="2.34831">
        <ele>1013.1</ele>
        <time>2019-01-07T22:09:31Z</time>
      </trkpt>
      <trkpt lat="42.33102" lon="2.34829">
        <ele>1012.7</ele>
        <time>2019-01-07T22:09:32Z</time>
      </trkpt>
      <trkpt lat="42.331" lon="2.34826">
        <ele>1012.7</ele>
        <time>2019-01-07T22:09:32Z</time>
      </trkpt>
      <trkpt lat="42.33098" lon="2.34824">
        <ele>1012.6</ele>
        <time>2019-01-07T22:09:33Z</time>
      </trkpt>
      <trkpt lat="42.33096" lon="2.34822">
        <ele>1012.5</ele>
        <time>2019-01-07T22:09:34Z</time>
      </trkpt>
      <trkpt lat="42.33094" lon="2.34819">
        <ele>1012.3</ele>
        <time>2019-01-07T22:09:34Z</time>
      </trkpt>
      <trkpt lat="42.33092" lon="2.34817">
        <ele>1012.2</ele>
        <time>2019-01-07T22:09:35Z</time>
      </trkpt>
      <trkpt lat="42.33091" lon="2.34814">
        <ele>1012.3</ele>
        <time>2019-01-07T22:09:36Z</time>
      </trkpt>
      <trkpt lat="42.33089" lon="2.34811">
        <ele>1012.1</ele>
        <time>2019-01-07T22:09:36Z</time>
      </trkpt>
      <trkpt lat="42.33088" lon="2.34808">
        <ele>1011.9</ele>
        <time>2019-01-07T22:09:37Z</time>
      </trkpt>
      <trkpt lat="42.33086" lon="2.34805">
        <ele>1012</ele>
        <time>2019-01-07T22:09:38Z</time>
      </trkpt>
      <trkpt lat="42.33084" lon="2.34802">
        <ele>1011.9</ele>
        <time>2019-01-07T22:09:39Z</time>
      </trkpt>
      <trkpt lat="42.33083" lon="2.348">
        <ele>1011.9</ele>
        <time>2019-01-07T22:09:39Z</time>
      </trkpt>
      <trkpt lat="42.33081" lon="2.34797">
        <ele>1011.8</ele>
        <time>2019-01-07T22:09:40Z</time>
      </trkpt>
      <trkpt lat="42.33079" lon="2.34795">
        <ele>1011.6</ele>
        <time>2019-01-07T22:09:41Z</time>
      </trkpt>
      <trkpt lat="42.33077" lon="2.34792">
        <ele>1011.6</ele>
        <time>2019-01-07T22:09:41Z</time>
      </trkpt>
      <trkpt lat="42.33075" lon="2.34789">
        <ele>1011.5</ele>
        <time>2019-01-07T22:09:42Z</time>
      </trkpt>
      <trkpt lat="42.33073" lon="2.34787">
        <ele>1011.3</ele>
        <time>2019-01-07T22:09:43Z</time>
      </trkpt>
      <trkpt lat="42.33071" lon="2.34785">
        <ele>1011.3</ele>
        <time>2019-01-07T22:09:43Z</time>
      </trkpt>
      <trkpt lat="42.3307" lon="2.34782">
        <ele>1011.3</ele>
        <time>2019-01-07T22:09:44Z</time>
      </trkpt>
      <trkpt lat="42.33068" lon="2.3478">
        <ele>1011.2</ele>
        <time>2019-01-07T22:09:45Z</time>
      </trkpt>
      <trkpt lat="42.33066" lon="2.34777">
        <ele>1011</ele>
        <time>2019-01-07T22:09:46Z</time>
      </trkpt>
      <trkpt lat="42.33064" lon="2.34775">
        <ele>1011</ele>
        <time>2019-01-07T22:09:46Z</time>
      </trkpt>
      <trkpt lat="42.33062" lon="2.34773">
        <ele>1010.9</ele>
        <time>2019-01-07T22:09:47Z</time>
      </trkpt>
      <trkpt lat="42.3306" lon="2.34771">
        <ele>1010.8</ele>
        <time>2019-01-07T22:09:47Z</time>
      </trkpt>
      <trkpt lat="42.33059" lon="2.34768">
        <ele>1010.7</ele>
        <time>2019-01-07T22:09:48Z</time>
      </trkpt>
      <trkpt lat="42.33057" lon="2.34766">
        <ele>1010.6</ele>
        <time>2019-01-07T22:09:49Z</time>
      </trkpt>
      <trkpt lat="42.33056" lon="2.34763">
        <ele>1010.5</ele>
        <time>2019-01-07T22:09:49Z</time>
      </trkpt>
      <trkpt lat="42.33054" lon="2.34761">
        <ele>1010.5</ele>
        <time>2019-01-07T22:09:50Z</time>
      </trkpt>
      <trkpt lat="42.33052" lon="2.34759">
        <ele>1010.3</ele>
        <time>2019-01-07T22:09:51Z</time>
      </trkpt>
      <trkpt lat="42.33051" lon="2.34756">
        <ele>1010.4</ele>
        <time>2019-01-07T22:09:51Z</time>
      </trkpt>
      <trkpt lat="42.33049" lon="2.34753">
        <ele>1010.2</ele>
        <time>2019-01-07T22:09:52Z</time>
      </trkpt>
      <trkpt lat="42.33048" lon="2.34751">
        <ele>1010.1</ele>
        <time>2019-01-07T22:09:53Z</time>
      </trkpt>
      <trkpt lat="42.33046" lon="2.34748">
        <ele>1010</ele>
        <time>2019-01-07T22:09:53Z</time>
      </trkpt>
      <trkpt lat="42.33044" lon="2.34745">
        <ele>1009.8</ele>
        <time>2019-01-07T22:09:54Z</time>
      </trkpt>
      <trkpt lat="42.33043" lon="2.34742">
        <ele>1009.7</ele>
        <time>2019-01-07T22:09:55Z</time>
      </trkpt>
      <trkpt lat="42.33042" lon="2.34739">
        <ele>1009.6</ele>
        <time>2019-01-07T22:09:56Z</time>
      </trkpt>
      <trkpt lat="42.3304" lon="2.34736">
        <ele>1009.5</ele>
        <time>2019-01-07T22:09:56Z</time>
      </trkpt>
      <trkpt lat="42.33039" lon="2.34734">
        <ele>1009.3</ele>
        <time>2019-01-07T22:09:57Z</time>
      </trkpt>
      <trkpt lat="42.33037" lon="2.34731">
        <ele>1009.2</ele>
        <time>2019-01-07T22:09:58Z</time>
      </trkpt>
      <trkpt lat="42.33035" lon="2.34728">
        <ele>1009.1</ele>
        <time>2019-01-07T22:09:58Z</time>
      </trkpt>
      <trkpt lat="42.33034" lon="2.34725">
        <ele>1009</ele>
        <time>2019-01-07T22:09:59Z</time>
      </trkpt>
      <trkpt lat="42.33033" lon="2.34723">
        <ele>1009.1</ele>
        <time>2019-01-07T22:10:00Z</time>
      </trkpt>
      <trkpt lat="42.33031" lon="2.3472">
        <ele>1008.8</ele>
        <time>2019-01-07T22:10:00Z</time>
      </trkpt>
      <trkpt lat="42.33029" lon="2.34718">
        <ele>1008.4</ele>
        <time>2019-01-07T22:10:01Z</time>
      </trkpt>
      <trkpt lat="42.33028" lon="2.34716">
        <ele>1008.2</ele>
        <time>2019-01-07T22:10:01Z</time>
      </trkpt>
      <trkpt lat="42.33026" lon="2.34713">
        <ele>1008</ele>
        <time>2019-01-07T22:10:02Z</time>
      </trkpt>
      <trkpt lat="42.33024" lon="2.34711">
        <ele>1007.8</ele>
        <time>2019-01-07T22:10:03Z</time>
      </trkpt>
      <trkpt lat="42.33022" lon="2.34709">
        <ele>1007.6</ele>
        <time>2019-01-07T22:10:03Z</time>
      </trkpt>
      <trkpt lat="42.33021" lon="2.34707">
        <ele>1007.5</ele>
        <time>2019-01-07T22:10:04Z</time>
      </trkpt>
      <trkpt lat="42.33019" lon="2.34705">
        <ele>1007.4</ele>
        <time>2019-01-07T22:10:05Z</time>
      </trkpt>
      <trkpt lat="42.33017" lon="2.34702">
        <ele>1007.2</ele>
        <time>2019-01-07T22:10:05Z</time>
      </trkpt>
      <trkpt lat="42.33016" lon="2.347">
        <ele>1006.9</ele>
        <time>2019-01-07T22:10:06Z</time>
      </trkpt>
      <trkpt lat="42.33014" lon="2.34697">
        <ele>1006.8</ele>
        <time>2019-01-07T22:10:07Z</time>
      </trkpt>
      <trkpt lat="42.33012" lon="2.34695">
        <ele>1006.8</ele>
        <time>2019-01-07T22:10:07Z</time>
      </trkpt>
      <trkpt lat="42.33011" lon="2.34693">
        <ele>1006.9</ele>
        <time>2019-01-07T22:10:08Z</time>
      </trkpt>
      <trkpt lat="42.33009" lon="2.34691">
        <ele>1006.9</ele>
        <time>2019-01-07T22:10:08Z</time>
      </trkpt>
      <trkpt lat="42.33008" lon="2.34689">
        <ele>1006.8</ele>
        <time>2019-01-07T22:10:09Z</time>
      </trkpt>
      <trkpt lat="42.33006" lon="2.34687">
        <ele>1006.7</ele>
        <time>2019-01-07T22:10:10Z</time>
      </trkpt>
      <trkpt lat="42.33004" lon="2.34685">
        <ele>1006.8</ele>
        <time>2019-01-07T22:10:10Z</time>
      </trkpt>
      <trkpt lat="42.33002" lon="2.34684">
        <ele>1006.6</ele>
        <time>2019-01-07T22:10:11Z</time>
      </trkpt>
      <trkpt lat="42.33" lon="2.34683">
        <ele>1006.4</ele>
        <time>2019-01-07T22:10:11Z</time>
      </trkpt>
      <trkpt lat="42.3299" lon="2.34677">
        <ele>1006</ele>
        <time>2019-01-07T22:10:14Z</time>
      </trkpt>
      <trkpt lat="42.32988" lon="2.34675">
        <ele>1006.1</ele>
        <time>2019-01-07T22:10:15Z</time>
      </trkpt>
      <trkpt lat="42.32985" lon="2.34674">
        <ele>1006.1</ele>
        <time>2019-01-07T22:10:16Z</time>
      </trkpt>
      <trkpt lat="42.32983" lon="2.34673">
        <ele>1006.1</ele>
        <time>2019-01-07T22:10:16Z</time>
      </trkpt>
      <trkpt lat="42.32981" lon="2.34673">
        <ele>1006.3</ele>
        <time>2019-01-07T22:10:17Z</time>
      </trkpt>
      <trkpt lat="42.32978" lon="2.34673">
        <ele>1006.4</ele>
        <time>2019-01-07T22:10:18Z</time>
      </trkpt>
      <trkpt lat="42.32976" lon="2.34673">
        <ele>1006.5</ele>
        <time>2019-01-07T22:10:18Z</time>
      </trkpt>
      <trkpt lat="42.32974" lon="2.34672">
        <ele>1006.6</ele>
        <time>2019-01-07T22:10:19Z</time>
      </trkpt>
      <trkpt lat="42.32971" lon="2.34671">
        <ele>1006.5</ele>
        <time>2019-01-07T22:10:20Z</time>
      </trkpt>
      <trkpt lat="42.32968" lon="2.3467">
        <ele>1006.5</ele>
        <time>2019-01-07T22:10:21Z</time>
      </trkpt>
      <trkpt lat="42.32964" lon="2.34668">
        <ele>1006.2</ele>
        <time>2019-01-07T22:10:22Z</time>
      </trkpt>
      <trkpt lat="42.32958" lon="2.3466">
        <ele>1005.7</ele>
        <time>2019-01-07T22:10:24Z</time>
      </trkpt>
      <trkpt lat="42.32955" lon="2.34658">
        <ele>1005.7</ele>
        <time>2019-01-07T22:10:25Z</time>
      </trkpt>
      <trkpt lat="42.32952" lon="2.34657">
        <ele>1005.6</ele>
        <time>2019-01-07T22:10:26Z</time>
      </trkpt>
      <trkpt lat="42.32948" lon="2.34654">
        <ele>1005.2</ele>
        <time>2019-01-07T22:10:27Z</time>
      </trkpt>
      <trkpt lat="42.32946" lon="2.34653">
        <ele>1005</ele>
        <time>2019-01-07T22:10:27Z</time>
      </trkpt>
      <trkpt lat="42.32943" lon="2.34652">
        <ele>1005.3</ele>
        <time>2019-01-07T22:10:28Z</time>
      </trkpt>
      <trkpt lat="42.32941" lon="2.34651">
        <ele>1005.2</ele>
        <time>2019-01-07T22:10:29Z</time>
      </trkpt>
      <trkpt lat="42.32939" lon="2.3465">
        <ele>1005.3</ele>
        <time>2019-01-07T22:10:29Z</time>
      </trkpt>
      <trkpt lat="42.32937" lon="2.34649">
        <ele>1005.3</ele>
        <time>2019-01-07T22:10:30Z</time>
      </trkpt>
      <trkpt lat="42.32934" lon="2.34648">
        <ele>1005.3</ele>
        <time>2019-01-07T22:10:31Z</time>
      </trkpt>
      <trkpt lat="42.32931" lon="2.34647">
        <ele>1005.5</ele>
        <time>2019-01-07T22:10:31Z</time>
      </trkpt>
      <trkpt lat="42.32923" lon="2.34645">
        <ele>1005.7</ele>
        <time>2019-01-07T22:10:34Z</time>
      </trkpt>
      <trkpt lat="42.32921" lon="2.34643">
        <ele>1005.5</ele>
        <time>2019-01-07T22:10:34Z</time>
      </trkpt>
      <trkpt lat="42.32919" lon="2.34643">
        <ele>1005.4</ele>
        <time>2019-01-07T22:10:35Z</time>
      </trkpt>
      <trkpt lat="42.32916" lon="2.34641">
        <ele>1005.6</ele>
        <time>2019-01-07T22:10:36Z</time>
      </trkpt>
      <trkpt lat="42.32914" lon="2.3464">
        <ele>1005.6</ele>
        <time>2019-01-07T22:10:36Z</time>
      </trkpt>
      <trkpt lat="42.32911" lon="2.3464">
        <ele>1005.7</ele>
        <time>2019-01-07T22:10:37Z</time>
      </trkpt>
      <trkpt lat="42.32908" lon="2.34639">
        <ele>1006.1</ele>
        <time>2019-01-07T22:10:38Z</time>
      </trkpt>
      <trkpt lat="42.32904" lon="2.34637">
        <ele>1006.3</ele>
        <time>2019-01-07T22:10:39Z</time>
      </trkpt>
      <trkpt lat="42.32901" lon="2.34636">
        <ele>1006.3</ele>
        <time>2019-01-07T22:10:40Z</time>
      </trkpt>
      <trkpt lat="42.32899" lon="2.34635">
        <ele>1006.2</ele>
        <time>2019-01-07T22:10:40Z</time>
      </trkpt>
      <trkpt lat="42.32897" lon="2.34633">
        <ele>1006.2</ele>
        <time>2019-01-07T22:10:41Z</time>
      </trkpt>
      <trkpt lat="42.32895" lon="2.34632">
        <ele>1006.3</ele>
        <time>2019-01-07T22:10:42Z</time>
      </trkpt>
      <trkpt lat="42.32893" lon="2.3463">
        <ele>1006</ele>
        <time>2019-01-07T22:10:42Z</time>
      </trkpt>
      <trkpt lat="42.32888" lon="2.34627">
        <ele>1005.6</ele>
        <time>2019-01-07T22:10:44Z</time>
      </trkpt>
      <trkpt lat="42.32886" lon="2.34626">
        <ele>1005.6</ele>
        <time>2019-01-07T22:10:44Z</time>
      </trkpt>
      <trkpt lat="42.32884" lon="2.34625">
        <ele>1005.7</ele>
        <time>2019-01-07T22:10:45Z</time>
      </trkpt>
      <trkpt lat="42.32874" lon="2.34618">
        <ele>1005</ele>
        <time>2019-01-07T22:10:48Z</time>
      </trkpt>
      <trkpt lat="42.32868" lon="2.34611">
        <ele>1003.6</ele>
        <time>2019-01-07T22:10:50Z</time>
      </trkpt>
      <trkpt lat="42.32866" lon="2.34609">
        <ele>1003.5</ele>
        <time>2019-01-07T22:10:51Z</time>
      </trkpt>
      <trkpt lat="42.32863" lon="2.34608">
        <ele>1003.8</ele>
        <time>2019-01-07T22:10:51Z</time>
      </trkpt>
      <trkpt lat="42.32861" lon="2.34607">
        <ele>1003.8</ele>
        <time>2019-01-07T22:10:52Z</time>
      </trkpt>
      <trkpt lat="42.32859" lon="2.34606">
        <ele>1003.7</ele>
        <time>2019-01-07T22:10:52Z</time>
      </trkpt>
      <trkpt lat="42.32857" lon="2.34604">
        <ele>1003.7</ele>
        <time>2019-01-07T22:10:53Z</time>
      </trkpt>
      <trkpt lat="42.32855" lon="2.34602">
        <ele>1003.5</ele>
        <time>2019-01-07T22:10:54Z</time>
      </trkpt>
      <trkpt lat="42.32854" lon="2.34601">
        <ele>1003.6</ele>
        <time>2019-01-07T22:10:54Z</time>
      </trkpt>
      <trkpt lat="42.32852" lon="2.34599">
        <ele>1003.3</ele>
        <time>2019-01-07T22:10:55Z</time>
      </trkpt>
      <trkpt lat="42.32849" lon="2.34598">
        <ele>1003.2</ele>
        <time>2019-01-07T22:10:56Z</time>
      </trkpt>
      <trkpt lat="42.3284" lon="2.34594">
        <ele>1003</ele>
        <time>2019-01-07T22:10:58Z</time>
      </trkpt>
      <trkpt lat="42.32832" lon="2.34588">
        <ele>1002.2</ele>
        <time>2019-01-07T22:11:01Z</time>
      </trkpt>
      <trkpt lat="42.32828" lon="2.34585">
        <ele>1001.9</ele>
        <time>2019-01-07T22:11:02Z</time>
      </trkpt>
      <trkpt lat="42.32826" lon="2.34584">
        <ele>1001.8</ele>
        <time>2019-01-07T22:11:03Z</time>
      </trkpt>
      <trkpt lat="42.32824" lon="2.34582">
        <ele>1001.7</ele>
        <time>2019-01-07T22:11:03Z</time>
      </trkpt>
      <trkpt lat="42.32822" lon="2.34581">
        <ele>1001.9</ele>
        <time>2019-01-07T22:11:04Z</time>
      </trkpt>
      <trkpt lat="42.3282" lon="2.3458">
        <ele>1001.7</ele>
        <time>2019-01-07T22:11:04Z</time>
      </trkpt>
      <trkpt lat="42.32817" lon="2.34579">
        <ele>1001.9</ele>
        <time>2019-01-07T22:11:05Z</time>
      </trkpt>
      <trkpt lat="42.32815" lon="2.34579">
        <ele>1002.1</ele>
        <time>2019-01-07T22:11:06Z</time>
      </trkpt>
      <trkpt lat="42.32812" lon="2.34578">
        <ele>1002.2</ele>
        <time>2019-01-07T22:11:06Z</time>
      </trkpt>
      <trkpt lat="42.3281" lon="2.34578">
        <ele>1002.1</ele>
        <time>2019-01-07T22:11:07Z</time>
      </trkpt>
      <trkpt lat="42.32807" lon="2.34577">
        <ele>1002.1</ele>
        <time>2019-01-07T22:11:08Z</time>
      </trkpt>
      <trkpt lat="42.32802" lon="2.34576">
        <ele>1002.3</ele>
        <time>2019-01-07T22:11:09Z</time>
      </trkpt>
      <trkpt lat="42.328" lon="2.34575">
        <ele>1002.3</ele>
        <time>2019-01-07T22:11:10Z</time>
      </trkpt>
      <trkpt lat="42.32797" lon="2.34575">
        <ele>1002.4</ele>
        <time>2019-01-07T22:11:10Z</time>
      </trkpt>
      <trkpt lat="42.32795" lon="2.34574">
        <ele>1002.5</ele>
        <time>2019-01-07T22:11:11Z</time>
      </trkpt>
      <trkpt lat="42.32792" lon="2.34574">
        <ele>1002.7</ele>
        <time>2019-01-07T22:11:12Z</time>
      </trkpt>
      <trkpt lat="42.3279" lon="2.34573">
        <ele>1002.6</ele>
        <time>2019-01-07T22:11:12Z</time>
      </trkpt>
      <trkpt lat="42.32788" lon="2.34572">
        <ele>1002.6</ele>
        <time>2019-01-07T22:11:13Z</time>
      </trkpt>
      <trkpt lat="42.32786" lon="2.34572">
        <ele>1002.6</ele>
        <time>2019-01-07T22:11:14Z</time>
      </trkpt>
      <trkpt lat="42.32784" lon="2.34569">
        <ele>1002.1</ele>
        <time>2019-01-07T22:11:14Z</time>
      </trkpt>
      <trkpt lat="42.32782" lon="2.34567">
        <ele>1001.6</ele>
        <time>2019-01-07T22:11:15Z</time>
      </trkpt>
      <trkpt lat="42.32779" lon="2.34566">
        <ele>1001.8</ele>
        <time>2019-01-07T22:11:16Z</time>
      </trkpt>
      <trkpt lat="42.32776" lon="2.34565">
        <ele>1001.7</ele>
        <time>2019-01-07T22:11:16Z</time>
      </trkpt>
      <trkpt lat="42.32774" lon="2.34564">
        <ele>1001.7</ele>
        <time>2019-01-07T22:11:17Z</time>
      </trkpt>
      <trkpt lat="42.32771" lon="2.34563">
        <ele>1001.6</ele>
        <time>2019-01-07T22:11:18Z</time>
      </trkpt>
      <trkpt lat="42.32768" lon="2.34561">
        <ele>1001.5</ele>
        <time>2019-01-07T22:11:19Z</time>
      </trkpt>
      <trkpt lat="42.32765" lon="2.3456">
        <ele>1001.5</ele>
        <time>2019-01-07T22:11:20Z</time>
      </trkpt>
      <trkpt lat="42.32762" lon="2.3456">
        <ele>1001.6</ele>
        <time>2019-01-07T22:11:21Z</time>
      </trkpt>
      <trkpt lat="42.32759" lon="2.34558">
        <ele>1001.5</ele>
        <time>2019-01-07T22:11:21Z</time>
      </trkpt>
      <trkpt lat="42.32755" lon="2.34557">
        <ele>1001.1</ele>
        <time>2019-01-07T22:11:22Z</time>
      </trkpt>
      <trkpt lat="42.32752" lon="2.34555">
        <ele>1000.9</ele>
        <time>2019-01-07T22:11:23Z</time>
      </trkpt>
      <trkpt lat="42.3275" lon="2.34553">
        <ele>1001</ele>
        <time>2019-01-07T22:11:24Z</time>
      </trkpt>
      <trkpt lat="42.32747" lon="2.34551">
        <ele>1000.9</ele>
        <time>2019-01-07T22:11:25Z</time>
      </trkpt>
      <trkpt lat="42.32745" lon="2.34549">
        <ele>1000.9</ele>
        <time>2019-01-07T22:11:26Z</time>
      </trkpt>
      <trkpt lat="42.32742" lon="2.34546">
        <ele>1000.7</ele>
        <time>2019-01-07T22:11:26Z</time>
      </trkpt>
      <trkpt lat="42.3274" lon="2.34544">
        <ele>1000.6</ele>
        <time>2019-01-07T22:11:27Z</time>
      </trkpt>
      <trkpt lat="42.32738" lon="2.34541">
        <ele>1000.3</ele>
        <time>2019-01-07T22:11:28Z</time>
      </trkpt>
      <trkpt lat="42.32736" lon="2.34538">
        <ele>1000.1</ele>
        <time>2019-01-07T22:11:29Z</time>
      </trkpt>
      <trkpt lat="42.32734" lon="2.34535">
        <ele>999.7</ele>
        <time>2019-01-07T22:11:30Z</time>
      </trkpt>
      <trkpt lat="42.32731" lon="2.34532">
        <ele>999.5</ele>
        <time>2019-01-07T22:11:30Z</time>
      </trkpt>
      <trkpt lat="42.32729" lon="2.34529">
        <ele>999</ele>
        <time>2019-01-07T22:11:31Z</time>
      </trkpt>
      <trkpt lat="42.32727" lon="2.34525">
        <ele>998.7</ele>
        <time>2019-01-07T22:11:32Z</time>
      </trkpt>
      <trkpt lat="42.32726" lon="2.34522">
        <ele>998.4</ele>
        <time>2019-01-07T22:11:33Z</time>
      </trkpt>
      <trkpt lat="42.32724" lon="2.34518">
        <ele>998.2</ele>
        <time>2019-01-07T22:11:34Z</time>
      </trkpt>
      <trkpt lat="42.32722" lon="2.34517">
        <ele>997.9</ele>
        <time>2019-01-07T22:11:34Z</time>
      </trkpt>
      <trkpt lat="42.32721" lon="2.34515">
        <ele>997.8</ele>
        <time>2019-01-07T22:11:35Z</time>
      </trkpt>
      <trkpt lat="42.32719" lon="2.34513">
        <ele>997.7</ele>
        <time>2019-01-07T22:11:36Z</time>
      </trkpt>
      <trkpt lat="42.32717" lon="2.34511">
        <ele>997.7</ele>
        <time>2019-01-07T22:11:36Z</time>
      </trkpt>
      <trkpt lat="42.32715" lon="2.34509">
        <ele>997.5</ele>
        <time>2019-01-07T22:11:37Z</time>
      </trkpt>
      <trkpt lat="42.32713" lon="2.34507">
        <ele>997.4</ele>
        <time>2019-01-07T22:11:38Z</time>
      </trkpt>
      <trkpt lat="42.32711" lon="2.34505">
        <ele>997.5</ele>
        <time>2019-01-07T22:11:38Z</time>
      </trkpt>
      <trkpt lat="42.32709" lon="2.34503">
        <ele>997.4</ele>
        <time>2019-01-07T22:11:39Z</time>
      </trkpt>
      <trkpt lat="42.32706" lon="2.34502">
        <ele>997.3</ele>
        <time>2019-01-07T22:11:40Z</time>
      </trkpt>
      <trkpt lat="42.32704" lon="2.34501">
        <ele>997.5</ele>
        <time>2019-01-07T22:11:40Z</time>
      </trkpt>
      <trkpt lat="42.32702" lon="2.34499">
        <ele>997.5</ele>
        <time>2019-01-07T22:11:41Z</time>
      </trkpt>
      <trkpt lat="42.32699" lon="2.34498">
        <ele>997.5</ele>
        <time>2019-01-07T22:11:42Z</time>
      </trkpt>
      <trkpt lat="42.32697" lon="2.34497">
        <ele>997.6</ele>
        <time>2019-01-07T22:11:42Z</time>
      </trkpt>
      <trkpt lat="42.32688" lon="2.34492">
        <ele>997.2</ele>
        <time>2019-01-07T22:11:45Z</time>
      </trkpt>
      <trkpt lat="42.32679" lon="2.34487">
        <ele>996.5</ele>
        <time>2019-01-07T22:11:47Z</time>
      </trkpt>
      <trkpt lat="42.32672" lon="2.34479">
        <ele>996.3</ele>
        <time>2019-01-07T22:11:50Z</time>
      </trkpt>
      <trkpt lat="42.32662" lon="2.34475">
        <ele>996.1</ele>
        <time>2019-01-07T22:11:52Z</time>
      </trkpt>
      <trkpt lat="42.32653" lon="2.34471">
        <ele>995.5</ele>
        <time>2019-01-07T22:11:55Z</time>
      </trkpt>
      <trkpt lat="42.32644" lon="2.34463">
        <ele>995</ele>
        <time>2019-01-07T22:11:58Z</time>
      </trkpt>
      <trkpt lat="42.32642" lon="2.34461">
        <ele>994.9</ele>
        <time>2019-01-07T22:11:59Z</time>
      </trkpt>
      <trkpt lat="42.3264" lon="2.34461">
        <ele>994.7</ele>
        <time>2019-01-07T22:11:59Z</time>
      </trkpt>
      <trkpt lat="42.32637" lon="2.3446">
        <ele>994.6</ele>
        <time>2019-01-07T22:12:00Z</time>
      </trkpt>
      <trkpt lat="42.32634" lon="2.3446">
        <ele>994.4</ele>
        <time>2019-01-07T22:12:01Z</time>
      </trkpt>
      <trkpt lat="42.32632" lon="2.34461">
        <ele>994.5</ele>
        <time>2019-01-07T22:12:01Z</time>
      </trkpt>
      <trkpt lat="42.32629" lon="2.3446">
        <ele>994.3</ele>
        <time>2019-01-07T22:12:02Z</time>
      </trkpt>
      <trkpt lat="42.32626" lon="2.34459">
        <ele>994.3</ele>
        <time>2019-01-07T22:12:03Z</time>
      </trkpt>
      <trkpt lat="42.32625" lon="2.34459">
        <ele>994.1</ele>
        <time>2019-01-07T22:12:03Z</time>
      </trkpt>
      <trkpt lat="42.32622" lon="2.34458">
        <ele>993.9</ele>
        <time>2019-01-07T22:12:04Z</time>
      </trkpt>
      <trkpt lat="42.32618" lon="2.34458">
        <ele>993.7</ele>
        <time>2019-01-07T22:12:05Z</time>
      </trkpt>
      <trkpt lat="42.32616" lon="2.34458">
        <ele>993.6</ele>
        <time>2019-01-07T22:12:06Z</time>
      </trkpt>
      <trkpt lat="42.32613" lon="2.34458">
        <ele>993.7</ele>
        <time>2019-01-07T22:12:06Z</time>
      </trkpt>
      <trkpt lat="42.32611" lon="2.34457">
        <ele>993.5</ele>
        <time>2019-01-07T22:12:07Z</time>
      </trkpt>
      <trkpt lat="42.32609" lon="2.34456">
        <ele>993.5</ele>
        <time>2019-01-07T22:12:08Z</time>
      </trkpt>
      <trkpt lat="42.32606" lon="2.34456">
        <ele>993.4</ele>
        <time>2019-01-07T22:12:08Z</time>
      </trkpt>
      <trkpt lat="42.32597" lon="2.34453">
        <ele>993.3</ele>
        <time>2019-01-07T22:12:11Z</time>
      </trkpt>
      <trkpt lat="42.32588" lon="2.3445">
        <ele>993.2</ele>
        <time>2019-01-07T22:12:14Z</time>
      </trkpt>
      <trkpt lat="42.32578" lon="2.34448">
        <ele>993.3</ele>
        <time>2019-01-07T22:12:16Z</time>
      </trkpt>
      <trkpt lat="42.32569" lon="2.34445">
        <ele>993.2</ele>
        <time>2019-01-07T22:12:18Z</time>
      </trkpt>
      <trkpt lat="42.32559" lon="2.34444">
        <ele>993.2</ele>
        <time>2019-01-07T22:12:21Z</time>
      </trkpt>
      <trkpt lat="42.32549" lon="2.34441">
        <ele>992.6</ele>
        <time>2019-01-07T22:12:24Z</time>
      </trkpt>
      <trkpt lat="42.3254" lon="2.34437">
        <ele>992</ele>
        <time>2019-01-07T22:12:26Z</time>
      </trkpt>
      <trkpt lat="42.32531" lon="2.34431">
        <ele>991.3</ele>
        <time>2019-01-07T22:12:29Z</time>
      </trkpt>
      <trkpt lat="42.32522" lon="2.34429">
        <ele>990.8</ele>
        <time>2019-01-07T22:12:32Z</time>
      </trkpt>
      <trkpt lat="42.32512" lon="2.34428">
        <ele>990.3</ele>
        <time>2019-01-07T22:12:34Z</time>
      </trkpt>
      <trkpt lat="42.32502" lon="2.34427">
        <ele>989.8</ele>
        <time>2019-01-07T22:12:37Z</time>
      </trkpt>
      <trkpt lat="42.32492" lon="2.34426">
        <ele>989.6</ele>
        <time>2019-01-07T22:12:40Z</time>
      </trkpt>
      <trkpt lat="42.32483" lon="2.34426">
        <ele>989.5</ele>
        <time>2019-01-07T22:12:42Z</time>
      </trkpt>
      <trkpt lat="42.32481" lon="2.34427">
        <ele>989.5</ele>
        <time>2019-01-07T22:12:43Z</time>
      </trkpt>
      <trkpt lat="42.32478" lon="2.34427">
        <ele>989.4</ele>
        <time>2019-01-07T22:12:43Z</time>
      </trkpt>
      <trkpt lat="42.32468" lon="2.34426">
        <ele>989.1</ele>
        <time>2019-01-07T22:12:46Z</time>
      </trkpt>
      <trkpt lat="42.32459" lon="2.34426">
        <ele>988.5</ele>
        <time>2019-01-07T22:12:49Z</time>
      </trkpt>
      <trkpt lat="42.3245" lon="2.34428">
        <ele>987.8</ele>
        <time>2019-01-07T22:12:51Z</time>
      </trkpt>
      <trkpt lat="42.32448" lon="2.34429">
        <ele>987.8</ele>
        <time>2019-01-07T22:12:52Z</time>
      </trkpt>
      <trkpt lat="42.32445" lon="2.34429">
        <ele>987.6</ele>
        <time>2019-01-07T22:12:52Z</time>
      </trkpt>
      <trkpt lat="42.32442" lon="2.3443">
        <ele>987.5</ele>
        <time>2019-01-07T22:12:53Z</time>
      </trkpt>
      <trkpt lat="42.3244" lon="2.3443">
        <ele>987.6</ele>
        <time>2019-01-07T22:12:54Z</time>
      </trkpt>
      <trkpt lat="42.32437" lon="2.3443">
        <ele>987.5</ele>
        <time>2019-01-07T22:12:54Z</time>
      </trkpt>
      <trkpt lat="42.32435" lon="2.3443">
        <ele>987.3</ele>
        <time>2019-01-07T22:12:55Z</time>
      </trkpt>
      <trkpt lat="42.32433" lon="2.3443">
        <ele>987.4</ele>
        <time>2019-01-07T22:12:56Z</time>
      </trkpt>
      <trkpt lat="42.3243" lon="2.3443">
        <ele>987.4</ele>
        <time>2019-01-07T22:12:56Z</time>
      </trkpt>
      <trkpt lat="42.32419" lon="2.3443">
        <ele>987</ele>
        <time>2019-01-07T22:12:59Z</time>
      </trkpt>
      <trkpt lat="42.32409" lon="2.34432">
        <ele>987</ele>
        <time>2019-01-07T22:13:02Z</time>
      </trkpt>
      <trkpt lat="42.32399" lon="2.34434">
        <ele>986.9</ele>
        <time>2019-01-07T22:13:05Z</time>
      </trkpt>
      <trkpt lat="42.32389" lon="2.34438">
        <ele>986.8</ele>
        <time>2019-01-07T22:13:07Z</time>
      </trkpt>
      <trkpt lat="42.3238" lon="2.34442">
        <ele>986.6</ele>
        <time>2019-01-07T22:13:10Z</time>
      </trkpt>
      <trkpt lat="42.3237" lon="2.34449">
        <ele>986.3</ele>
        <time>2019-01-07T22:13:13Z</time>
      </trkpt>
      <trkpt lat="42.3236" lon="2.34459">
        <ele>986.2</ele>
        <time>2019-01-07T22:13:16Z</time>
      </trkpt>
      <trkpt lat="42.32352" lon="2.34468">
        <ele>985.7</ele>
        <time>2019-01-07T22:13:19Z</time>
      </trkpt>
      <trkpt lat="42.32344" lon="2.34476">
        <ele>985.5</ele>
        <time>2019-01-07T22:13:22Z</time>
      </trkpt>
      <trkpt lat="42.32336" lon="2.34483">
        <ele>985.1</ele>
        <time>2019-01-07T22:13:24Z</time>
      </trkpt>
      <trkpt lat="42.32328" lon="2.34489">
        <ele>984.8</ele>
        <time>2019-01-07T22:13:27Z</time>
      </trkpt>
      <trkpt lat="42.32319" lon="2.34496">
        <ele>984.4</ele>
        <time>2019-01-07T22:13:29Z</time>
      </trkpt>
      <trkpt lat="42.32311" lon="2.34504">
        <ele>984.3</ele>
        <time>2019-01-07T22:13:32Z</time>
      </trkpt>
      <trkpt lat="42.32303" lon="2.34512">
        <ele>984.1</ele>
        <time>2019-01-07T22:13:35Z</time>
      </trkpt>
      <trkpt lat="42.32298" lon="2.34516">
        <ele>984</ele>
        <time>2019-01-07T22:13:36Z</time>
      </trkpt>
      <trkpt lat="42.32296" lon="2.34519">
        <ele>983.9</ele>
        <time>2019-01-07T22:13:37Z</time>
      </trkpt>
      <trkpt lat="42.32295" lon="2.34521">
        <ele>983.9</ele>
        <time>2019-01-07T22:13:38Z</time>
      </trkpt>
      <trkpt lat="42.32292" lon="2.34524">
        <ele>984</ele>
        <time>2019-01-07T22:13:39Z</time>
      </trkpt>
      <trkpt lat="42.32289" lon="2.34525">
        <ele>984</ele>
        <time>2019-01-07T22:13:39Z</time>
      </trkpt>
      <trkpt lat="42.32286" lon="2.34528">
        <ele>984.1</ele>
        <time>2019-01-07T22:13:40Z</time>
      </trkpt>
      <trkpt lat="42.32284" lon="2.34531">
        <ele>984.2</ele>
        <time>2019-01-07T22:13:41Z</time>
      </trkpt>
      <trkpt lat="42.32282" lon="2.34534">
        <ele>984.1</ele>
        <time>2019-01-07T22:13:42Z</time>
      </trkpt>
      <trkpt lat="42.3228" lon="2.34537">
        <ele>984</ele>
        <time>2019-01-07T22:13:43Z</time>
      </trkpt>
      <trkpt lat="42.32278" lon="2.3454">
        <ele>984.1</ele>
        <time>2019-01-07T22:13:44Z</time>
      </trkpt>
      <trkpt lat="42.32276" lon="2.34544">
        <ele>984.1</ele>
        <time>2019-01-07T22:13:44Z</time>
      </trkpt>
      <trkpt lat="42.32275" lon="2.34548">
        <ele>984.1</ele>
        <time>2019-01-07T22:13:45Z</time>
      </trkpt>
      <trkpt lat="42.32274" lon="2.34552">
        <ele>984.1</ele>
        <time>2019-01-07T22:13:46Z</time>
      </trkpt>
      <trkpt lat="42.32272" lon="2.34556">
        <ele>984</ele>
        <time>2019-01-07T22:13:47Z</time>
      </trkpt>
      <trkpt lat="42.32271" lon="2.3456">
        <ele>983.7</ele>
        <time>2019-01-07T22:13:48Z</time>
      </trkpt>
      <trkpt lat="42.3227" lon="2.34564">
        <ele>983.6</ele>
        <time>2019-01-07T22:13:49Z</time>
      </trkpt>
      <trkpt lat="42.32269" lon="2.34568">
        <ele>983.4</ele>
        <time>2019-01-07T22:13:50Z</time>
      </trkpt>
      <trkpt lat="42.32267" lon="2.34572">
        <ele>983.3</ele>
        <time>2019-01-07T22:13:51Z</time>
      </trkpt>
      <trkpt lat="42.32266" lon="2.34577">
        <ele>983.1</ele>
        <time>2019-01-07T22:13:52Z</time>
      </trkpt>
      <trkpt lat="42.32265" lon="2.34579">
        <ele>983.2</ele>
        <time>2019-01-07T22:13:52Z</time>
      </trkpt>
      <trkpt lat="42.32264" lon="2.34582">
        <ele>983</ele>
        <time>2019-01-07T22:13:53Z</time>
      </trkpt>
      <trkpt lat="42.32263" lon="2.34585">
        <ele>983.3</ele>
        <time>2019-01-07T22:13:53Z</time>
      </trkpt>
      <trkpt lat="42.32262" lon="2.34588">
        <ele>983.3</ele>
        <time>2019-01-07T22:13:54Z</time>
      </trkpt>
      <trkpt lat="42.32261" lon="2.34591">
        <ele>983.5</ele>
        <time>2019-01-07T22:13:55Z</time>
      </trkpt>
      <trkpt lat="42.32259" lon="2.34595">
        <ele>983.6</ele>
        <time>2019-01-07T22:13:55Z</time>
      </trkpt>
      <trkpt lat="42.32258" lon="2.34598">
        <ele>983.6</ele>
        <time>2019-01-07T22:13:56Z</time>
      </trkpt>
      <trkpt lat="42.32256" lon="2.34601">
        <ele>983.5</ele>
        <time>2019-01-07T22:13:57Z</time>
      </trkpt>
      <trkpt lat="42.32255" lon="2.34603">
        <ele>983.4</ele>
        <time>2019-01-07T22:13:58Z</time>
      </trkpt>
      <trkpt lat="42.32254" lon="2.34606">
        <ele>983.4</ele>
        <time>2019-01-07T22:13:58Z</time>
      </trkpt>
      <trkpt lat="42.32252" lon="2.34609">
        <ele>983.3</ele>
        <time>2019-01-07T22:13:59Z</time>
      </trkpt>
      <trkpt lat="42.32251" lon="2.34612">
        <ele>983.2</ele>
        <time>2019-01-07T22:14:00Z</time>
      </trkpt>
      <trkpt lat="42.32249" lon="2.34615">
        <ele>983.1</ele>
        <time>2019-01-07T22:14:00Z</time>
      </trkpt>
      <trkpt lat="42.32248" lon="2.34617">
        <ele>983.2</ele>
        <time>2019-01-07T22:14:01Z</time>
      </trkpt>
      <trkpt lat="42.32246" lon="2.3462">
        <ele>983.3</ele>
        <time>2019-01-07T22:14:02Z</time>
      </trkpt>
      <trkpt lat="42.32245" lon="2.34623">
        <ele>983.3</ele>
        <time>2019-01-07T22:14:02Z</time>
      </trkpt>
      <trkpt lat="42.32243" lon="2.34626">
        <ele>983.1</ele>
        <time>2019-01-07T22:14:03Z</time>
      </trkpt>
      <trkpt lat="42.32242" lon="2.34628">
        <ele>983.2</ele>
        <time>2019-01-07T22:14:04Z</time>
      </trkpt>
      <trkpt lat="42.3224" lon="2.34631">
        <ele>983.2</ele>
        <time>2019-01-07T22:14:04Z</time>
      </trkpt>
      <trkpt lat="42.32238" lon="2.34633">
        <ele>983.1</ele>
        <time>2019-01-07T22:14:05Z</time>
      </trkpt>
      <trkpt lat="42.32236" lon="2.34636">
        <ele>983.1</ele>
        <time>2019-01-07T22:14:06Z</time>
      </trkpt>
      <trkpt lat="42.32235" lon="2.34638">
        <ele>983.1</ele>
        <time>2019-01-07T22:14:06Z</time>
      </trkpt>
      <trkpt lat="42.32233" lon="2.34641">
        <ele>983.1</ele>
        <time>2019-01-07T22:14:07Z</time>
      </trkpt>
      <trkpt lat="42.32232" lon="2.34643">
        <ele>983</ele>
        <time>2019-01-07T22:14:08Z</time>
      </trkpt>
      <trkpt lat="42.3223" lon="2.34646">
        <ele>982.9</ele>
        <time>2019-01-07T22:14:08Z</time>
      </trkpt>
      <trkpt lat="42.32229" lon="2.34648">
        <ele>983</ele>
        <time>2019-01-07T22:14:09Z</time>
      </trkpt>
      <trkpt lat="42.32228" lon="2.34651">
        <ele>982.8</ele>
        <time>2019-01-07T22:14:09Z</time>
      </trkpt>
      <trkpt lat="42.32226" lon="2.34654">
        <ele>982.7</ele>
        <time>2019-01-07T22:14:10Z</time>
      </trkpt>
      <trkpt lat="42.32223" lon="2.34657">
        <ele>982.3</ele>
        <time>2019-01-07T22:14:11Z</time>
      </trkpt>
      <trkpt lat="42.32222" lon="2.34661">
        <ele>982</ele>
        <time>2019-01-07T22:14:12Z</time>
      </trkpt>
      <trkpt lat="42.32219" lon="2.34664">
        <ele>982.1</ele>
        <time>2019-01-07T22:14:13Z</time>
      </trkpt>
      <trkpt lat="42.32218" lon="2.34667">
        <ele>981.8</ele>
        <time>2019-01-07T22:14:14Z</time>
      </trkpt>
      <trkpt lat="42.32216" lon="2.3467">
        <ele>982.1</ele>
        <time>2019-01-07T22:14:14Z</time>
      </trkpt>
      <trkpt lat="42.32215" lon="2.34674">
        <ele>982.1</ele>
        <time>2019-01-07T22:14:15Z</time>
      </trkpt>
      <trkpt lat="42.32213" lon="2.34677">
        <ele>982.2</ele>
        <time>2019-01-07T22:14:16Z</time>
      </trkpt>
      <trkpt lat="42.32212" lon="2.3468">
        <ele>982.3</ele>
        <time>2019-01-07T22:14:17Z</time>
      </trkpt>
      <trkpt lat="42.3221" lon="2.34685">
        <ele>982.3</ele>
        <time>2019-01-07T22:14:18Z</time>
      </trkpt>
      <trkpt lat="42.3221" lon="2.34698">
        <ele>983</ele>
        <time>2019-01-07T22:14:20Z</time>
      </trkpt>
      <trkpt lat="42.32214" lon="2.34704">
        <ele>984.1</ele>
        <time>2019-01-07T22:14:22Z</time>
      </trkpt>
      <trkpt lat="42.32214" lon="2.34709">
        <ele>984.6</ele>
        <time>2019-01-07T22:14:23Z</time>
      </trkpt>
      <trkpt lat="42.32215" lon="2.34711">
        <ele>984.9</ele>
        <time>2019-01-07T22:14:23Z</time>
      </trkpt>
      <trkpt lat="42.32211" lon="2.34723">
        <ele>985.2</ele>
        <time>2019-01-07T22:14:26Z</time>
      </trkpt>
      <trkpt lat="42.32209" lon="2.34726">
        <ele>985.5</ele>
        <time>2019-01-07T22:14:27Z</time>
      </trkpt>
      <trkpt lat="42.32206" lon="2.34729">
        <ele>985.4</ele>
        <time>2019-01-07T22:14:27Z</time>
      </trkpt>
      <trkpt lat="42.32205" lon="2.34731">
        <ele>985.2</ele>
        <time>2019-01-07T22:14:28Z</time>
      </trkpt>
      <trkpt lat="42.32204" lon="2.34733">
        <ele>985.1</ele>
        <time>2019-01-07T22:14:29Z</time>
      </trkpt>
      <trkpt lat="42.32202" lon="2.34736">
        <ele>984.9</ele>
        <time>2019-01-07T22:14:29Z</time>
      </trkpt>
      <trkpt lat="42.32201" lon="2.34739">
        <ele>984.7</ele>
        <time>2019-01-07T22:14:30Z</time>
      </trkpt>
      <trkpt lat="42.32199" lon="2.34742">
        <ele>984.2</ele>
        <time>2019-01-07T22:14:31Z</time>
      </trkpt>
      <trkpt lat="42.32198" lon="2.34745">
        <ele>983.9</ele>
        <time>2019-01-07T22:14:31Z</time>
      </trkpt>
      <trkpt lat="42.32197" lon="2.34748">
        <ele>983.2</ele>
        <time>2019-01-07T22:14:32Z</time>
      </trkpt>
      <trkpt lat="42.32195" lon="2.34751">
        <ele>982.7</ele>
        <time>2019-01-07T22:14:33Z</time>
      </trkpt>
      <trkpt lat="42.32193" lon="2.34753">
        <ele>982.8</ele>
        <time>2019-01-07T22:14:33Z</time>
      </trkpt>
      <trkpt lat="42.32192" lon="2.34756">
        <ele>983.2</ele>
        <time>2019-01-07T22:14:34Z</time>
      </trkpt>
      <trkpt lat="42.32189" lon="2.34759">
        <ele>983.5</ele>
        <time>2019-01-07T22:14:35Z</time>
      </trkpt>
      <trkpt lat="42.32186" lon="2.34764">
        <ele>984.1</ele>
        <time>2019-01-07T22:14:36Z</time>
      </trkpt>
      <trkpt lat="42.32185" lon="2.34767">
        <ele>984.2</ele>
        <time>2019-01-07T22:14:37Z</time>
      </trkpt>
      <trkpt lat="42.32183" lon="2.3477">
        <ele>984.2</ele>
        <time>2019-01-07T22:14:38Z</time>
      </trkpt>
      <trkpt lat="42.32182" lon="2.34773">
        <ele>984.3</ele>
        <time>2019-01-07T22:14:38Z</time>
      </trkpt>
      <trkpt lat="42.3218" lon="2.34776">
        <ele>984.3</ele>
        <time>2019-01-07T22:14:39Z</time>
      </trkpt>
      <trkpt lat="42.32179" lon="2.34779">
        <ele>984.2</ele>
        <time>2019-01-07T22:14:40Z</time>
      </trkpt>
      <trkpt lat="42.32177" lon="2.34785">
        <ele>984.2</ele>
        <time>2019-01-07T22:14:41Z</time>
      </trkpt>
      <trkpt lat="42.32176" lon="2.34787">
        <ele>984.5</ele>
        <time>2019-01-07T22:14:42Z</time>
      </trkpt>
      <trkpt lat="42.32174" lon="2.34791">
        <ele>983.9</ele>
        <time>2019-01-07T22:14:42Z</time>
      </trkpt>
      <trkpt lat="42.32173" lon="2.34793">
        <ele>983.9</ele>
        <time>2019-01-07T22:14:43Z</time>
      </trkpt>
      <trkpt lat="42.32172" lon="2.34795">
        <ele>983.5</ele>
        <time>2019-01-07T22:14:44Z</time>
      </trkpt>
      <trkpt lat="42.3217" lon="2.34798">
        <ele>983</ele>
        <time>2019-01-07T22:14:44Z</time>
      </trkpt>
      <trkpt lat="42.32169" lon="2.34801">
        <ele>982.6</ele>
        <time>2019-01-07T22:14:45Z</time>
      </trkpt>
      <trkpt lat="42.32167" lon="2.34804">
        <ele>982.1</ele>
        <time>2019-01-07T22:14:46Z</time>
      </trkpt>
      <trkpt lat="42.32165" lon="2.34806">
        <ele>982.2</ele>
        <time>2019-01-07T22:14:46Z</time>
      </trkpt>
      <trkpt lat="42.32164" lon="2.34809">
        <ele>982.4</ele>
        <time>2019-01-07T22:14:47Z</time>
      </trkpt>
      <trkpt lat="42.32163" lon="2.34812">
        <ele>982.6</ele>
        <time>2019-01-07T22:14:48Z</time>
      </trkpt>
      <trkpt lat="42.32161" lon="2.34814">
        <ele>982.6</ele>
        <time>2019-01-07T22:14:48Z</time>
      </trkpt>
      <trkpt lat="42.3216" lon="2.34817">
        <ele>982.9</ele>
        <time>2019-01-07T22:14:49Z</time>
      </trkpt>
      <trkpt lat="42.32159" lon="2.34819">
        <ele>983.1</ele>
        <time>2019-01-07T22:14:49Z</time>
      </trkpt>
      <trkpt lat="42.32158" lon="2.34822">
        <ele>983.1</ele>
        <time>2019-01-07T22:14:50Z</time>
      </trkpt>
      <trkpt lat="42.32157" lon="2.34825">
        <ele>983.3</ele>
        <time>2019-01-07T22:14:51Z</time>
      </trkpt>
      <trkpt lat="42.32156" lon="2.34828">
        <ele>983.3</ele>
        <time>2019-01-07T22:14:51Z</time>
      </trkpt>
      <trkpt lat="42.32155" lon="2.34831">
        <ele>983.5</ele>
        <time>2019-01-07T22:14:52Z</time>
      </trkpt>
      <trkpt lat="42.32153" lon="2.34834">
        <ele>983.2</ele>
        <time>2019-01-07T22:14:53Z</time>
      </trkpt>
      <trkpt lat="42.32152" lon="2.34837">
        <ele>983.1</ele>
        <time>2019-01-07T22:14:53Z</time>
      </trkpt>
      <trkpt lat="42.32151" lon="2.3484">
        <ele>983.1</ele>
        <time>2019-01-07T22:14:54Z</time>
      </trkpt>
      <trkpt lat="42.32151" lon="2.34844">
        <ele>983</ele>
        <time>2019-01-07T22:14:55Z</time>
      </trkpt>
      <trkpt lat="42.3215" lon="2.34847">
        <ele>982.7</ele>
        <time>2019-01-07T22:14:55Z</time>
      </trkpt>
      <trkpt lat="42.32149" lon="2.34851">
        <ele>982.8</ele>
        <time>2019-01-07T22:14:56Z</time>
      </trkpt>
      <trkpt lat="42.32148" lon="2.34855">
        <ele>982.7</ele>
        <time>2019-01-07T22:14:57Z</time>
      </trkpt>
      <trkpt lat="42.32147" lon="2.34859">
        <ele>982.6</ele>
        <time>2019-01-07T22:14:58Z</time>
      </trkpt>
      <trkpt lat="42.32146" lon="2.34863">
        <ele>982.4</ele>
        <time>2019-01-07T22:14:59Z</time>
      </trkpt>
      <trkpt lat="42.32145" lon="2.34867">
        <ele>982.4</ele>
        <time>2019-01-07T22:15:00Z</time>
      </trkpt>
      <trkpt lat="42.32144" lon="2.34871">
        <ele>982.2</ele>
        <time>2019-01-07T22:15:00Z</time>
      </trkpt>
      <trkpt lat="42.32144" lon="2.34876">
        <ele>982.5</ele>
        <time>2019-01-07T22:15:01Z</time>
      </trkpt>
      <trkpt lat="42.32144" lon="2.3488">
        <ele>982.5</ele>
        <time>2019-01-07T22:15:02Z</time>
      </trkpt>
      <trkpt lat="42.32143" lon="2.34884">
        <ele>982.6</ele>
        <time>2019-01-07T22:15:03Z</time>
      </trkpt>
      <trkpt lat="42.32142" lon="2.34887">
        <ele>982.4</ele>
        <time>2019-01-07T22:15:04Z</time>
      </trkpt>
      <trkpt lat="42.32141" lon="2.34894">
        <ele>982.7</ele>
        <time>2019-01-07T22:15:05Z</time>
      </trkpt>
      <trkpt lat="42.3214" lon="2.34899">
        <ele>982.8</ele>
        <time>2019-01-07T22:15:06Z</time>
      </trkpt>
      <trkpt lat="42.32139" lon="2.34902">
        <ele>982.7</ele>
        <time>2019-01-07T22:15:07Z</time>
      </trkpt>
      <trkpt lat="42.32139" lon="2.34906">
        <ele>982.9</ele>
        <time>2019-01-07T22:15:08Z</time>
      </trkpt>
      <trkpt lat="42.32138" lon="2.3491">
        <ele>983.2</ele>
        <time>2019-01-07T22:15:08Z</time>
      </trkpt>
      <trkpt lat="42.32137" lon="2.34914">
        <ele>983.6</ele>
        <time>2019-01-07T22:15:09Z</time>
      </trkpt>
      <trkpt lat="42.32137" lon="2.34918">
        <ele>983.8</ele>
        <time>2019-01-07T22:15:10Z</time>
      </trkpt>
      <trkpt lat="42.32137" lon="2.34922">
        <ele>984.2</ele>
        <time>2019-01-07T22:15:11Z</time>
      </trkpt>
      <trkpt lat="42.32135" lon="2.34926">
        <ele>984.2</ele>
        <time>2019-01-07T22:15:12Z</time>
      </trkpt>
      <trkpt lat="42.32134" lon="2.3493">
        <ele>984.3</ele>
        <time>2019-01-07T22:15:13Z</time>
      </trkpt>
      <trkpt lat="42.32133" lon="2.34934">
        <ele>984.4</ele>
        <time>2019-01-07T22:15:13Z</time>
      </trkpt>
      <trkpt lat="42.32132" lon="2.34938">
        <ele>984.5</ele>
        <time>2019-01-07T22:15:14Z</time>
      </trkpt>
      <trkpt lat="42.32131" lon="2.34942">
        <ele>984.7</ele>
        <time>2019-01-07T22:15:15Z</time>
      </trkpt>
      <trkpt lat="42.3213" lon="2.34946">
        <ele>984.6</ele>
        <time>2019-01-07T22:15:16Z</time>
      </trkpt>
      <trkpt lat="42.32129" lon="2.34949">
        <ele>984.4</ele>
        <time>2019-01-07T22:15:17Z</time>
      </trkpt>
      <trkpt lat="42.32128" lon="2.34953">
        <ele>984.3</ele>
        <time>2019-01-07T22:15:17Z</time>
      </trkpt>
      <trkpt lat="42.32127" lon="2.34957">
        <ele>984.2</ele>
        <time>2019-01-07T22:15:18Z</time>
      </trkpt>
      <trkpt lat="42.32126" lon="2.34961">
        <ele>984.1</ele>
        <time>2019-01-07T22:15:19Z</time>
      </trkpt>
      <trkpt lat="42.32124" lon="2.34964">
        <ele>984</ele>
        <time>2019-01-07T22:15:20Z</time>
      </trkpt>
      <trkpt lat="42.32123" lon="2.34967">
        <ele>983.9</ele>
        <time>2019-01-07T22:15:20Z</time>
      </trkpt>
      <trkpt lat="42.32122" lon="2.34971">
        <ele>983.7</ele>
        <time>2019-01-07T22:15:21Z</time>
      </trkpt>
      <trkpt lat="42.32121" lon="2.34975">
        <ele>983.6</ele>
        <time>2019-01-07T22:15:22Z</time>
      </trkpt>
      <trkpt lat="42.32121" lon="2.34978">
        <ele>983.6</ele>
        <time>2019-01-07T22:15:23Z</time>
      </trkpt>
      <trkpt lat="42.3212" lon="2.34982">
        <ele>983.7</ele>
        <time>2019-01-07T22:15:23Z</time>
      </trkpt>
      <trkpt lat="42.3212" lon="2.34985">
        <ele>983.8</ele>
        <time>2019-01-07T22:15:24Z</time>
      </trkpt>
      <trkpt lat="42.3212" lon="2.3499">
        <ele>983.9</ele>
        <time>2019-01-07T22:15:25Z</time>
      </trkpt>
      <trkpt lat="42.32121" lon="2.34994">
        <ele>984.1</ele>
        <time>2019-01-07T22:15:26Z</time>
      </trkpt>
      <trkpt lat="42.32122" lon="2.34997">
        <ele>984.3</ele>
        <time>2019-01-07T22:15:27Z</time>
      </trkpt>
      <trkpt lat="42.32123" lon="2.35001">
        <ele>984.6</ele>
        <time>2019-01-07T22:15:27Z</time>
      </trkpt>
      <trkpt lat="42.32124" lon="2.35006">
        <ele>984.9</ele>
        <time>2019-01-07T22:15:28Z</time>
      </trkpt>
      <trkpt lat="42.32125" lon="2.35009">
        <ele>985.1</ele>
        <time>2019-01-07T22:15:29Z</time>
      </trkpt>
      <trkpt lat="42.32125" lon="2.35014">
        <ele>985.2</ele>
        <time>2019-01-07T22:15:30Z</time>
      </trkpt>
      <trkpt lat="42.32128" lon="2.35025">
        <ele>985.4</ele>
        <time>2019-01-07T22:15:32Z</time>
      </trkpt>
      <trkpt lat="42.32133" lon="2.35029">
        <ele>986.3</ele>
        <time>2019-01-07T22:15:34Z</time>
      </trkpt>
      <trkpt lat="42.32135" lon="2.35029">
        <ele>986.9</ele>
        <time>2019-01-07T22:15:34Z</time>
      </trkpt>
      <trkpt lat="42.32138" lon="2.35029">
        <ele>987.4</ele>
        <time>2019-01-07T22:15:35Z</time>
      </trkpt>
      <trkpt lat="42.32142" lon="2.35031">
        <ele>988.5</ele>
        <time>2019-01-07T22:15:36Z</time>
      </trkpt>
      <trkpt lat="42.32145" lon="2.35042">
        <ele>992</ele>
        <time>2019-01-07T22:15:39Z</time>
      </trkpt>
      <trkpt lat="42.32137" lon="2.35049">
        <ele>991.9</ele>
        <time>2019-01-07T22:15:41Z</time>
      </trkpt>
      <trkpt lat="42.32128" lon="2.35056">
        <ele>991.2</ele>
        <time>2019-01-07T22:15:44Z</time>
      </trkpt>
      <trkpt lat="42.32122" lon="2.35065">
        <ele>991.9</ele>
        <time>2019-01-07T22:15:47Z</time>
      </trkpt>
      <trkpt lat="42.32116" lon="2.35076">
        <ele>993.3</ele>
        <time>2019-01-07T22:15:49Z</time>
      </trkpt>
      <trkpt lat="42.3211" lon="2.35085">
        <ele>994.3</ele>
        <time>2019-01-07T22:15:52Z</time>
      </trkpt>
      <trkpt lat="42.32105" lon="2.35095">
        <ele>994.5</ele>
        <time>2019-01-07T22:15:54Z</time>
      </trkpt>
      <trkpt lat="42.32102" lon="2.35108">
        <ele>996.4</ele>
        <time>2019-01-07T22:15:57Z</time>
      </trkpt>
      <trkpt lat="42.32099" lon="2.35118">
        <ele>998</ele>
        <time>2019-01-07T22:15:59Z</time>
      </trkpt>
      <trkpt lat="42.32095" lon="2.3513">
        <ele>998.8</ele>
        <time>2019-01-07T22:16:01Z</time>
      </trkpt>
      <trkpt lat="42.32091" lon="2.35141">
        <ele>999.8</ele>
        <time>2019-01-07T22:16:04Z</time>
      </trkpt>
      <trkpt lat="42.32087" lon="2.35151">
        <ele>1000.2</ele>
        <time>2019-01-07T22:16:06Z</time>
      </trkpt>
      <trkpt lat="42.32083" lon="2.35162">
        <ele>1000.2</ele>
        <time>2019-01-07T22:16:09Z</time>
      </trkpt>
      <trkpt lat="42.32082" lon="2.35164">
        <ele>1000</ele>
        <time>2019-01-07T22:16:09Z</time>
      </trkpt>
      <trkpt lat="42.3208" lon="2.35167">
        <ele>999.9</ele>
        <time>2019-01-07T22:16:10Z</time>
      </trkpt>
      <trkpt lat="42.32079" lon="2.35171">
        <ele>1000</ele>
        <time>2019-01-07T22:16:11Z</time>
      </trkpt>
      <trkpt lat="42.32077" lon="2.35174">
        <ele>1000</ele>
        <time>2019-01-07T22:16:11Z</time>
      </trkpt>
      <trkpt lat="42.32076" lon="2.35179">
        <ele>1000.1</ele>
        <time>2019-01-07T22:16:12Z</time>
      </trkpt>
      <trkpt lat="42.32072" lon="2.35184">
        <ele>999.2</ele>
        <time>2019-01-07T22:16:14Z</time>
      </trkpt>
      <trkpt lat="42.3207" lon="2.35188">
        <ele>998.8</ele>
        <time>2019-01-07T22:16:15Z</time>
      </trkpt>
      <trkpt lat="42.32069" lon="2.35192">
        <ele>998.5</ele>
        <time>2019-01-07T22:16:16Z</time>
      </trkpt>
      <trkpt lat="42.32068" lon="2.35196">
        <ele>998.4</ele>
        <time>2019-01-07T22:16:16Z</time>
      </trkpt>
      <trkpt lat="42.32067" lon="2.35201">
        <ele>998.4</ele>
        <time>2019-01-07T22:16:17Z</time>
      </trkpt>
      <trkpt lat="42.32067" lon="2.35204">
        <ele>998.4</ele>
        <time>2019-01-07T22:16:18Z</time>
      </trkpt>
      <trkpt lat="42.32066" lon="2.35207">
        <ele>998.2</ele>
        <time>2019-01-07T22:16:19Z</time>
      </trkpt>
      <trkpt lat="42.32066" lon="2.35212">
        <ele>998</ele>
        <time>2019-01-07T22:16:20Z</time>
      </trkpt>
      <trkpt lat="42.32064" lon="2.35215">
        <ele>997.5</ele>
        <time>2019-01-07T22:16:20Z</time>
      </trkpt>
      <trkpt lat="42.32064" lon="2.35218">
        <ele>997.3</ele>
        <time>2019-01-07T22:16:21Z</time>
      </trkpt>
      <trkpt lat="42.32063" lon="2.3522">
        <ele>997</ele>
        <time>2019-01-07T22:16:21Z</time>
      </trkpt>
      <trkpt lat="42.32062" lon="2.35225">
        <ele>996.9</ele>
        <time>2019-01-07T22:16:22Z</time>
      </trkpt>
      <trkpt lat="42.32061" lon="2.35229">
        <ele>996.7</ele>
        <time>2019-01-07T22:16:23Z</time>
      </trkpt>
      <trkpt lat="42.3206" lon="2.35232">
        <ele>996.4</ele>
        <time>2019-01-07T22:16:24Z</time>
      </trkpt>
      <trkpt lat="42.3206" lon="2.35236">
        <ele>996.4</ele>
        <time>2019-01-07T22:16:25Z</time>
      </trkpt>
      <trkpt lat="42.32059" lon="2.35239">
        <ele>996.4</ele>
        <time>2019-01-07T22:16:25Z</time>
      </trkpt>
      <trkpt lat="42.32059" lon="2.35242">
        <ele>996.2</ele>
        <time>2019-01-07T22:16:26Z</time>
      </trkpt>
      <trkpt lat="42.32059" lon="2.35245">
        <ele>996.6</ele>
        <time>2019-01-07T22:16:26Z</time>
      </trkpt>
      <trkpt lat="42.32058" lon="2.35248">
        <ele>996.3</ele>
        <time>2019-01-07T22:16:27Z</time>
      </trkpt>
      <trkpt lat="42.32058" lon="2.35251">
        <ele>996.7</ele>
        <time>2019-01-07T22:16:28Z</time>
      </trkpt>
      <trkpt lat="42.32057" lon="2.35255">
        <ele>996</ele>
        <time>2019-01-07T22:16:28Z</time>
      </trkpt>
      <trkpt lat="42.32056" lon="2.35259">
        <ele>995.5</ele>
        <time>2019-01-07T22:16:29Z</time>
      </trkpt>
      <trkpt lat="42.32055" lon="2.35262">
        <ele>995.2</ele>
        <time>2019-01-07T22:16:30Z</time>
      </trkpt>
      <trkpt lat="42.32054" lon="2.35266">
        <ele>994.8</ele>
        <time>2019-01-07T22:16:31Z</time>
      </trkpt>
      <trkpt lat="42.32053" lon="2.35269">
        <ele>994.4</ele>
        <time>2019-01-07T22:16:31Z</time>
      </trkpt>
      <trkpt lat="42.32053" lon="2.35273">
        <ele>994.2</ele>
        <time>2019-01-07T22:16:32Z</time>
      </trkpt>
      <trkpt lat="42.32053" lon="2.35277">
        <ele>994.1</ele>
        <time>2019-01-07T22:16:33Z</time>
      </trkpt>
      <trkpt lat="42.32052" lon="2.3528">
        <ele>993.7</ele>
        <time>2019-01-07T22:16:34Z</time>
      </trkpt>
      <trkpt lat="42.32053" lon="2.35284">
        <ele>993.8</ele>
        <time>2019-01-07T22:16:34Z</time>
      </trkpt>
      <trkpt lat="42.32053" lon="2.35287">
        <ele>994.2</ele>
        <time>2019-01-07T22:16:35Z</time>
      </trkpt>
      <trkpt lat="42.32055" lon="2.35293">
        <ele>994.9</ele>
        <time>2019-01-07T22:16:36Z</time>
      </trkpt>
      <trkpt lat="42.32056" lon="2.35297">
        <ele>995</ele>
        <time>2019-01-07T22:16:37Z</time>
      </trkpt>
      <trkpt lat="42.32057" lon="2.35301">
        <ele>995.1</ele>
        <time>2019-01-07T22:16:38Z</time>
      </trkpt>
      <trkpt lat="42.32057" lon="2.35304">
        <ele>995.1</ele>
        <time>2019-01-07T22:16:39Z</time>
      </trkpt>
      <trkpt lat="42.32058" lon="2.35307">
        <ele>995.6</ele>
        <time>2019-01-07T22:16:39Z</time>
      </trkpt>
      <trkpt lat="42.32059" lon="2.35311">
        <ele>995.7</ele>
        <time>2019-01-07T22:16:40Z</time>
      </trkpt>
      <trkpt lat="42.3206" lon="2.35314">
        <ele>996.1</ele>
        <time>2019-01-07T22:16:41Z</time>
      </trkpt>
      <trkpt lat="42.32061" lon="2.35317">
        <ele>996.3</ele>
        <time>2019-01-07T22:16:41Z</time>
      </trkpt>
      <trkpt lat="42.32063" lon="2.35319">
        <ele>996.7</ele>
        <time>2019-01-07T22:16:42Z</time>
      </trkpt>
      <trkpt lat="42.32064" lon="2.35322">
        <ele>996.9</ele>
        <time>2019-01-07T22:16:42Z</time>
      </trkpt>
      <trkpt lat="42.32065" lon="2.35325">
        <ele>997.4</ele>
        <time>2019-01-07T22:16:43Z</time>
      </trkpt>
      <trkpt lat="42.32066" lon="2.35328">
        <ele>997.6</ele>
        <time>2019-01-07T22:16:44Z</time>
      </trkpt>
      <trkpt lat="42.32067" lon="2.35331">
        <ele>997.8</ele>
        <time>2019-01-07T22:16:44Z</time>
      </trkpt>
      <trkpt lat="42.32067" lon="2.35334">
        <ele>997.6</ele>
        <time>2019-01-07T22:16:45Z</time>
      </trkpt>
      <trkpt lat="42.32067" lon="2.35337">
        <ele>998</ele>
        <time>2019-01-07T22:16:46Z</time>
      </trkpt>
      <trkpt lat="42.32068" lon="2.3534">
        <ele>998.5</ele>
        <time>2019-01-07T22:16:46Z</time>
      </trkpt>
      <trkpt lat="42.32067" lon="2.35343">
        <ele>998.4</ele>
        <time>2019-01-07T22:16:47Z</time>
      </trkpt>
      <trkpt lat="42.32067" lon="2.35347">
        <ele>998.8</ele>
        <time>2019-01-07T22:16:48Z</time>
      </trkpt>
      <trkpt lat="42.32067" lon="2.35351">
        <ele>999</ele>
        <time>2019-01-07T22:16:49Z</time>
      </trkpt>
      <trkpt lat="42.32066" lon="2.35355">
        <ele>999.1</ele>
        <time>2019-01-07T22:16:49Z</time>
      </trkpt>
      <trkpt lat="42.32066" lon="2.35359">
        <ele>999.4</ele>
        <time>2019-01-07T22:16:50Z</time>
      </trkpt>
      <trkpt lat="42.32065" lon="2.35363">
        <ele>999</ele>
        <time>2019-01-07T22:16:51Z</time>
      </trkpt>
      <trkpt lat="42.32063" lon="2.35366">
        <ele>998.8</ele>
        <time>2019-01-07T22:16:52Z</time>
      </trkpt>
      <trkpt lat="42.32062" lon="2.3537">
        <ele>998.4</ele>
        <time>2019-01-07T22:16:53Z</time>
      </trkpt>
      <trkpt lat="42.32061" lon="2.35373">
        <ele>998.5</ele>
        <time>2019-01-07T22:16:53Z</time>
      </trkpt>
      <trkpt lat="42.3206" lon="2.35377">
        <ele>998.3</ele>
        <time>2019-01-07T22:16:54Z</time>
      </trkpt>
      <trkpt lat="42.32058" lon="2.35381">
        <ele>998.1</ele>
        <time>2019-01-07T22:16:55Z</time>
      </trkpt>
      <trkpt lat="42.32057" lon="2.35384">
        <ele>998.3</ele>
        <time>2019-01-07T22:16:56Z</time>
      </trkpt>
      <trkpt lat="42.32056" lon="2.35388">
        <ele>998.1</ele>
        <time>2019-01-07T22:16:56Z</time>
      </trkpt>
      <trkpt lat="42.32054" lon="2.35392">
        <ele>997.8</ele>
        <time>2019-01-07T22:16:57Z</time>
      </trkpt>
      <trkpt lat="42.32054" lon="2.35396">
        <ele>998</ele>
        <time>2019-01-07T22:16:58Z</time>
      </trkpt>
      <trkpt lat="42.32053" lon="2.35399">
        <ele>997.9</ele>
        <time>2019-01-07T22:16:59Z</time>
      </trkpt>
      <trkpt lat="42.32053" lon="2.35403">
        <ele>998.2</ele>
        <time>2019-01-07T22:17:00Z</time>
      </trkpt>
      <trkpt lat="42.32053" lon="2.35407">
        <ele>998.4</ele>
        <time>2019-01-07T22:17:00Z</time>
      </trkpt>
      <trkpt lat="42.32052" lon="2.35411">
        <ele>998.5</ele>
        <time>2019-01-07T22:17:01Z</time>
      </trkpt>
      <trkpt lat="42.32051" lon="2.35415">
        <ele>998.5</ele>
        <time>2019-01-07T22:17:02Z</time>
      </trkpt>
      <trkpt lat="42.32051" lon="2.35419">
        <ele>998.4</ele>
        <time>2019-01-07T22:17:03Z</time>
      </trkpt>
      <trkpt lat="42.3205" lon="2.35423">
        <ele>998.2</ele>
        <time>2019-01-07T22:17:04Z</time>
      </trkpt>
      <trkpt lat="42.3205" lon="2.35426">
        <ele>998.3</ele>
        <time>2019-01-07T22:17:04Z</time>
      </trkpt>
      <trkpt lat="42.32049" lon="2.3543">
        <ele>998.2</ele>
        <time>2019-01-07T22:17:05Z</time>
      </trkpt>
      <trkpt lat="42.32049" lon="2.35434">
        <ele>998.3</ele>
        <time>2019-01-07T22:17:06Z</time>
      </trkpt>
      <trkpt lat="42.32049" lon="2.35438">
        <ele>998.5</ele>
        <time>2019-01-07T22:17:07Z</time>
      </trkpt>
      <trkpt lat="42.32049" lon="2.35442">
        <ele>998.6</ele>
        <time>2019-01-07T22:17:07Z</time>
      </trkpt>
      <trkpt lat="42.32049" lon="2.35446">
        <ele>998.9</ele>
        <time>2019-01-07T22:17:08Z</time>
      </trkpt>
      <trkpt lat="42.32049" lon="2.3545">
        <ele>998.8</ele>
        <time>2019-01-07T22:17:09Z</time>
      </trkpt>
      <trkpt lat="42.32048" lon="2.35454">
        <ele>998.8</ele>
        <time>2019-01-07T22:17:10Z</time>
      </trkpt>
      <trkpt lat="42.32049" lon="2.35459">
        <ele>999.5</ele>
        <time>2019-01-07T22:17:11Z</time>
      </trkpt>
      <trkpt lat="42.32049" lon="2.35463">
        <ele>999.6</ele>
        <time>2019-01-07T22:17:12Z</time>
      </trkpt>
      <trkpt lat="42.3205" lon="2.35467">
        <ele>999.9</ele>
        <time>2019-01-07T22:17:12Z</time>
      </trkpt>
      <trkpt lat="42.3205" lon="2.35471">
        <ele>1000</ele>
        <time>2019-01-07T22:17:13Z</time>
      </trkpt>
      <trkpt lat="42.32051" lon="2.35474">
        <ele>1000.3</ele>
        <time>2019-01-07T22:17:14Z</time>
      </trkpt>
      <trkpt lat="42.32052" lon="2.35478">
        <ele>1000.8</ele>
        <time>2019-01-07T22:17:15Z</time>
      </trkpt>
      <trkpt lat="42.32052" lon="2.35482">
        <ele>1001.1</ele>
        <time>2019-01-07T22:17:15Z</time>
      </trkpt>
      <trkpt lat="42.32052" lon="2.35486">
        <ele>1001.4</ele>
        <time>2019-01-07T22:17:16Z</time>
      </trkpt>
      <trkpt lat="42.32053" lon="2.3549">
        <ele>1001.6</ele>
        <time>2019-01-07T22:17:17Z</time>
      </trkpt>
      <trkpt lat="42.32053" lon="2.35494">
        <ele>1001.7</ele>
        <time>2019-01-07T22:17:18Z</time>
      </trkpt>
      <trkpt lat="42.32053" lon="2.35498">
        <ele>1002.1</ele>
        <time>2019-01-07T22:17:19Z</time>
      </trkpt>
      <trkpt lat="42.32054" lon="2.35502">
        <ele>1002.7</ele>
        <time>2019-01-07T22:17:20Z</time>
      </trkpt>
      <trkpt lat="42.32055" lon="2.35506">
        <ele>1003.4</ele>
        <time>2019-01-07T22:17:20Z</time>
      </trkpt>
      <trkpt lat="42.32055" lon="2.35509">
        <ele>1003.7</ele>
        <time>2019-01-07T22:17:21Z</time>
      </trkpt>
      <trkpt lat="42.32055" lon="2.35513">
        <ele>1003.8</ele>
        <time>2019-01-07T22:17:22Z</time>
      </trkpt>
      <trkpt lat="42.32055" lon="2.35516">
        <ele>1004.1</ele>
        <time>2019-01-07T22:17:22Z</time>
      </trkpt>
      <trkpt lat="42.32055" lon="2.3552">
        <ele>1004.3</ele>
        <time>2019-01-07T22:17:23Z</time>
      </trkpt>
      <trkpt lat="42.32055" lon="2.35524">
        <ele>1004.6</ele>
        <time>2019-01-07T22:17:24Z</time>
      </trkpt>
      <trkpt lat="42.32054" lon="2.35526">
        <ele>1004.2</ele>
        <time>2019-01-07T22:17:24Z</time>
      </trkpt>
      <trkpt lat="42.32054" lon="2.35528">
        <ele>1004.7</ele>
        <time>2019-01-07T22:17:25Z</time>
      </trkpt>
      <trkpt lat="42.32054" lon="2.35532">
        <ele>1005.2</ele>
        <time>2019-01-07T22:17:26Z</time>
      </trkpt>
      <trkpt lat="42.32054" lon="2.35535">
        <ele>1005.5</ele>
        <time>2019-01-07T22:17:26Z</time>
      </trkpt>
      <trkpt lat="42.32054" lon="2.35538">
        <ele>1005.7</ele>
        <time>2019-01-07T22:17:27Z</time>
      </trkpt>
      <trkpt lat="42.32053" lon="2.35541">
        <ele>1006.1</ele>
        <time>2019-01-07T22:17:27Z</time>
      </trkpt>
      <trkpt lat="42.32053" lon="2.35544">
        <ele>1006.5</ele>
        <time>2019-01-07T22:17:28Z</time>
      </trkpt>
      <trkpt lat="42.32053" lon="2.35547">
        <ele>1007</ele>
        <time>2019-01-07T22:17:29Z</time>
      </trkpt>
      <trkpt lat="42.32054" lon="2.3555">
        <ele>1007.5</ele>
        <time>2019-01-07T22:17:29Z</time>
      </trkpt>
      <trkpt lat="42.32054" lon="2.35553">
        <ele>1008.2</ele>
        <time>2019-01-07T22:17:30Z</time>
      </trkpt>
      <trkpt lat="42.32053" lon="2.35556">
        <ele>1008.3</ele>
        <time>2019-01-07T22:17:30Z</time>
      </trkpt>
      <trkpt lat="42.32053" lon="2.35559">
        <ele>1009</ele>
        <time>2019-01-07T22:17:31Z</time>
      </trkpt>
      <trkpt lat="42.32051" lon="2.35562">
        <ele>1009.1</ele>
        <time>2019-01-07T22:17:32Z</time>
      </trkpt>
      <trkpt lat="42.32049" lon="2.35565">
        <ele>1009.4</ele>
        <time>2019-01-07T22:17:33Z</time>
      </trkpt>
      <trkpt lat="42.32048" lon="2.35568">
        <ele>1009.5</ele>
        <time>2019-01-07T22:17:33Z</time>
      </trkpt>
      <trkpt lat="42.32046" lon="2.35571">
        <ele>1009.4</ele>
        <time>2019-01-07T22:17:34Z</time>
      </trkpt>
      <trkpt lat="42.32045" lon="2.35573">
        <ele>1009.4</ele>
        <time>2019-01-07T22:17:35Z</time>
      </trkpt>
      <trkpt lat="42.32043" lon="2.35575">
        <ele>1008.8</ele>
        <time>2019-01-07T22:17:35Z</time>
      </trkpt>
      <trkpt lat="42.32041" lon="2.35578">
        <ele>1008.6</ele>
        <time>2019-01-07T22:17:36Z</time>
      </trkpt>
      <trkpt lat="42.32039" lon="2.3558">
        <ele>1008.5</ele>
        <time>2019-01-07T22:17:37Z</time>
      </trkpt>
      <trkpt lat="42.32038" lon="2.35584">
        <ele>1008.9</ele>
        <time>2019-01-07T22:17:37Z</time>
      </trkpt>
      <trkpt lat="42.32038" lon="2.35587">
        <ele>1009.7</ele>
        <time>2019-01-07T22:17:38Z</time>
      </trkpt>
      <trkpt lat="42.32037" lon="2.3559">
        <ele>1010.5</ele>
        <time>2019-01-07T22:17:39Z</time>
      </trkpt>
      <trkpt lat="42.32036" lon="2.35593">
        <ele>1011.2</ele>
        <time>2019-01-07T22:17:39Z</time>
      </trkpt>
      <trkpt lat="42.32034" lon="2.35599">
        <ele>1012.7</ele>
        <time>2019-01-07T22:17:40Z</time>
      </trkpt>
      <trkpt lat="42.32033" lon="2.35602">
        <ele>1013.4</ele>
        <time>2019-01-07T22:17:41Z</time>
      </trkpt>
      <trkpt lat="42.32032" lon="2.35606">
        <ele>1014.6</ele>
        <time>2019-01-07T22:17:42Z</time>
      </trkpt>
      <trkpt lat="42.32031" lon="2.35608">
        <ele>1015.1</ele>
        <time>2019-01-07T22:17:43Z</time>
      </trkpt>
      <trkpt lat="42.3203" lon="2.35611">
        <ele>1015.5</ele>
        <time>2019-01-07T22:17:43Z</time>
      </trkpt>
      <trkpt lat="42.32028" lon="2.35613">
        <ele>1015.7</ele>
        <time>2019-01-07T22:17:44Z</time>
      </trkpt>
      <trkpt lat="42.32027" lon="2.35616">
        <ele>1015.4</ele>
        <time>2019-01-07T22:17:44Z</time>
      </trkpt>
      <trkpt lat="42.32025" lon="2.35619">
        <ele>1015.3</ele>
        <time>2019-01-07T22:17:45Z</time>
      </trkpt>
      <trkpt lat="42.32023" lon="2.35622">
        <ele>1015.2</ele>
        <time>2019-01-07T22:17:46Z</time>
      </trkpt>
      <trkpt lat="42.32021" lon="2.35625">
        <ele>1015.2</ele>
        <time>2019-01-07T22:17:47Z</time>
      </trkpt>
      <trkpt lat="42.32019" lon="2.35628">
        <ele>1015.4</ele>
        <time>2019-01-07T22:17:48Z</time>
      </trkpt>
      <trkpt lat="42.32018" lon="2.35632">
        <ele>1015.7</ele>
        <time>2019-01-07T22:17:48Z</time>
      </trkpt>
      <trkpt lat="42.32017" lon="2.35636">
        <ele>1016.4</ele>
        <time>2019-01-07T22:17:49Z</time>
      </trkpt>
      <trkpt lat="42.32018" lon="2.35639">
        <ele>1017.2</ele>
        <time>2019-01-07T22:17:50Z</time>
      </trkpt>
      <trkpt lat="42.3202" lon="2.35644">
        <ele>1017.9</ele>
        <time>2019-01-07T22:17:51Z</time>
      </trkpt>
      <trkpt lat="42.32022" lon="2.35645">
        <ele>1018.4</ele>
        <time>2019-01-07T22:17:52Z</time>
      </trkpt>
      <trkpt lat="42.32025" lon="2.35645">
        <ele>1018.9</ele>
        <time>2019-01-07T22:17:52Z</time>
      </trkpt>
      <trkpt lat="42.32027" lon="2.35644">
        <ele>1019.6</ele>
        <time>2019-01-07T22:17:53Z</time>
      </trkpt>
      <trkpt lat="42.32029" lon="2.35642">
        <ele>1020.3</ele>
        <time>2019-01-07T22:17:53Z</time>
      </trkpt>
      <trkpt lat="42.32031" lon="2.35641">
        <ele>1020.8</ele>
        <time>2019-01-07T22:17:54Z</time>
      </trkpt>
      <trkpt lat="42.32033" lon="2.35638">
        <ele>1021.2</ele>
        <time>2019-01-07T22:17:55Z</time>
      </trkpt>
      <trkpt lat="42.32035" lon="2.35635">
        <ele>1021.2</ele>
        <time>2019-01-07T22:17:56Z</time>
      </trkpt>
      <trkpt lat="42.32037" lon="2.35631">
        <ele>1021.2</ele>
        <time>2019-01-07T22:17:57Z</time>
      </trkpt>
      <trkpt lat="42.32038" lon="2.35628">
        <ele>1021.2</ele>
        <time>2019-01-07T22:17:57Z</time>
      </trkpt>
      <trkpt lat="42.3204" lon="2.35625">
        <ele>1021.5</ele>
        <time>2019-01-07T22:17:58Z</time>
      </trkpt>
      <trkpt lat="42.32042" lon="2.35623">
        <ele>1021.8</ele>
        <time>2019-01-07T22:17:59Z</time>
      </trkpt>
      <trkpt lat="42.32043" lon="2.35621">
        <ele>1021.7</ele>
        <time>2019-01-07T22:17:59Z</time>
      </trkpt>
      <trkpt lat="42.32046" lon="2.35617">
        <ele>1022.3</ele>
        <time>2019-01-07T22:18:00Z</time>
      </trkpt>
      <trkpt lat="42.32044" lon="2.3562">
        <ele>1021.9</ele>
        <time>2019-01-07T22:18:01Z</time>
      </trkpt>
      <trkpt lat="42.32042" lon="2.35622">
        <ele>1021.4</ele>
        <time>2019-01-07T22:18:02Z</time>
      </trkpt>
      <trkpt lat="42.3204" lon="2.35625">
        <ele>1021.3</ele>
        <time>2019-01-07T22:18:02Z</time>
      </trkpt>
      <trkpt lat="42.32039" lon="2.35628">
        <ele>1021.3</ele>
        <time>2019-01-07T22:18:03Z</time>
      </trkpt>
      <trkpt lat="42.32037" lon="2.35631">
        <ele>1021.4</ele>
        <time>2019-01-07T22:18:04Z</time>
      </trkpt>
      <trkpt lat="42.32036" lon="2.35634">
        <ele>1021.3</ele>
        <time>2019-01-07T22:18:05Z</time>
      </trkpt>
      <trkpt lat="42.32036" lon="2.35637">
        <ele>1022</ele>
        <time>2019-01-07T22:18:05Z</time>
      </trkpt>
      <trkpt lat="42.32037" lon="2.3564">
        <ele>1022.3</ele>
        <time>2019-01-07T22:18:06Z</time>
      </trkpt>
      <trkpt lat="42.32038" lon="2.35643">
        <ele>1022</ele>
        <time>2019-01-07T22:18:06Z</time>
      </trkpt>
      <trkpt lat="42.32039" lon="2.35645">
        <ele>1022.1</ele>
        <time>2019-01-07T22:18:07Z</time>
      </trkpt>
      <trkpt lat="42.32041" lon="2.35648">
        <ele>1022.3</ele>
        <time>2019-01-07T22:18:08Z</time>
      </trkpt>
      <trkpt lat="42.32043" lon="2.3565">
        <ele>1022.3</ele>
        <time>2019-01-07T22:18:08Z</time>
      </trkpt>
      <trkpt lat="42.32044" lon="2.35652">
        <ele>1022.1</ele>
        <time>2019-01-07T22:18:09Z</time>
      </trkpt>
      <trkpt lat="42.32046" lon="2.35655">
        <ele>1021.9</ele>
        <time>2019-01-07T22:18:10Z</time>
      </trkpt>
      <trkpt lat="42.32048" lon="2.35658">
        <ele>1021.8</ele>
        <time>2019-01-07T22:18:11Z</time>
      </trkpt>
      <trkpt lat="42.3205" lon="2.3566">
        <ele>1021.9</ele>
        <time>2019-01-07T22:18:11Z</time>
      </trkpt>
      <trkpt lat="42.32052" lon="2.35662">
        <ele>1021.6</ele>
        <time>2019-01-07T22:18:12Z</time>
      </trkpt>
      <trkpt lat="42.32054" lon="2.35664">
        <ele>1021.5</ele>
        <time>2019-01-07T22:18:12Z</time>
      </trkpt>
      <trkpt lat="42.32057" lon="2.35667">
        <ele>1021.2</ele>
        <time>2019-01-07T22:18:13Z</time>
      </trkpt>
      <trkpt lat="42.3206" lon="2.35669">
        <ele>1021.2</ele>
        <time>2019-01-07T22:18:14Z</time>
      </trkpt>
      <trkpt lat="42.32062" lon="2.35672">
        <ele>1020.8</ele>
        <time>2019-01-07T22:18:15Z</time>
      </trkpt>
      <trkpt lat="42.32065" lon="2.35674">
        <ele>1020.5</ele>
        <time>2019-01-07T22:18:16Z</time>
      </trkpt>
      <trkpt lat="42.32067" lon="2.35677">
        <ele>1020.3</ele>
        <time>2019-01-07T22:18:17Z</time>
      </trkpt>
      <trkpt lat="42.32069" lon="2.3568">
        <ele>1019.8</ele>
        <time>2019-01-07T22:18:18Z</time>
      </trkpt>
      <trkpt lat="42.32071" lon="2.35683">
        <ele>1019.1</ele>
        <time>2019-01-07T22:18:18Z</time>
      </trkpt>
      <trkpt lat="42.32073" lon="2.35685">
        <ele>1019</ele>
        <time>2019-01-07T22:18:19Z</time>
      </trkpt>
      <trkpt lat="42.32075" lon="2.35687">
        <ele>1018.8</ele>
        <time>2019-01-07T22:18:20Z</time>
      </trkpt>
      <trkpt lat="42.32078" lon="2.35689">
        <ele>1018.5</ele>
        <time>2019-01-07T22:18:21Z</time>
      </trkpt>
      <trkpt lat="42.3208" lon="2.35692">
        <ele>1018.3</ele>
        <time>2019-01-07T22:18:21Z</time>
      </trkpt>
      <trkpt lat="42.32082" lon="2.35693">
        <ele>1018.3</ele>
        <time>2019-01-07T22:18:22Z</time>
      </trkpt>
      <trkpt lat="42.32084" lon="2.35694">
        <ele>1018.3</ele>
        <time>2019-01-07T22:18:22Z</time>
      </trkpt>
      <trkpt lat="42.32086" lon="2.35695">
        <ele>1018.5</ele>
        <time>2019-01-07T22:18:23Z</time>
      </trkpt>
      <trkpt lat="42.32087" lon="2.35696">
        <ele>1018.5</ele>
        <time>2019-01-07T22:18:23Z</time>
      </trkpt>
      <trkpt lat="42.3209" lon="2.35698">
        <ele>1018.8</ele>
        <time>2019-01-07T22:18:24Z</time>
      </trkpt>
      <trkpt lat="42.32093" lon="2.35701">
        <ele>1019</ele>
        <time>2019-01-07T22:18:25Z</time>
      </trkpt>
      <trkpt lat="42.32096" lon="2.35704">
        <ele>1018.6</ele>
        <time>2019-01-07T22:18:26Z</time>
      </trkpt>
      <trkpt lat="42.32098" lon="2.35707">
        <ele>1018.5</ele>
        <time>2019-01-07T22:18:27Z</time>
      </trkpt>
      <trkpt lat="42.321" lon="2.35711">
        <ele>1018</ele>
        <time>2019-01-07T22:18:28Z</time>
      </trkpt>
      <trkpt lat="42.32101" lon="2.35713">
        <ele>1017.8</ele>
        <time>2019-01-07T22:18:29Z</time>
      </trkpt>
      <trkpt lat="42.32104" lon="2.35716">
        <ele>1017.9</ele>
        <time>2019-01-07T22:18:29Z</time>
      </trkpt>
      <trkpt lat="42.32105" lon="2.35718">
        <ele>1017.8</ele>
        <time>2019-01-07T22:18:30Z</time>
      </trkpt>
      <trkpt lat="42.32107" lon="2.3572">
        <ele>1017.8</ele>
        <time>2019-01-07T22:18:31Z</time>
      </trkpt>
      <trkpt lat="42.32108" lon="2.35724">
        <ele>1017.4</ele>
        <time>2019-01-07T22:18:31Z</time>
      </trkpt>
      <trkpt lat="42.32115" lon="2.35733">
        <ele>1016.5</ele>
        <time>2019-01-07T22:18:34Z</time>
      </trkpt>
      <trkpt lat="42.32122" lon="2.35737">
        <ele>1017.3</ele>
        <time>2019-01-07T22:18:36Z</time>
      </trkpt>
      <trkpt lat="42.32124" lon="2.3574">
        <ele>1017.5</ele>
        <time>2019-01-07T22:18:37Z</time>
      </trkpt>
      <trkpt lat="42.32129" lon="2.35744">
        <ele>1018.1</ele>
        <time>2019-01-07T22:18:38Z</time>
      </trkpt>
      <trkpt lat="42.32131" lon="2.35744">
        <ele>1018.8</ele>
        <time>2019-01-07T22:18:39Z</time>
      </trkpt>
      <trkpt lat="42.32133" lon="2.35745">
        <ele>1019.1</ele>
        <time>2019-01-07T22:18:39Z</time>
      </trkpt>
      <trkpt lat="42.32135" lon="2.35747">
        <ele>1019</ele>
        <time>2019-01-07T22:18:40Z</time>
      </trkpt>
      <trkpt lat="42.32136" lon="2.3575">
        <ele>1019</ele>
        <time>2019-01-07T22:18:41Z</time>
      </trkpt>
      <trkpt lat="42.32141" lon="2.35755">
        <ele>1018.5</ele>
        <time>2019-01-07T22:18:42Z</time>
      </trkpt>
      <trkpt lat="42.32144" lon="2.35757">
        <ele>1018.6</ele>
        <time>2019-01-07T22:18:43Z</time>
      </trkpt>
      <trkpt lat="42.32146" lon="2.35757">
        <ele>1018.8</ele>
        <time>2019-01-07T22:18:44Z</time>
      </trkpt>
      <trkpt lat="42.32149" lon="2.35759">
        <ele>1019</ele>
        <time>2019-01-07T22:18:44Z</time>
      </trkpt>
      <trkpt lat="42.32151" lon="2.35761">
        <ele>1018.7</ele>
        <time>2019-01-07T22:18:45Z</time>
      </trkpt>
      <trkpt lat="42.3216" lon="2.35764">
        <ele>1019.5</ele>
        <time>2019-01-07T22:18:48Z</time>
      </trkpt>
      <trkpt lat="42.3217" lon="2.35765">
        <ele>1022.2</ele>
        <time>2019-01-07T22:18:50Z</time>
      </trkpt>
      <trkpt lat="42.32179" lon="2.35768">
        <ele>1022.8</ele>
        <time>2019-01-07T22:18:53Z</time>
      </trkpt>
      <trkpt lat="42.32188" lon="2.35774">
        <ele>1022.3</ele>
        <time>2019-01-07T22:18:55Z</time>
      </trkpt>
      <trkpt lat="42.32198" lon="2.35778">
        <ele>1023.4</ele>
        <time>2019-01-07T22:18:58Z</time>
      </trkpt>
      <trkpt lat="42.32205" lon="2.35787">
        <ele>1025</ele>
        <time>2019-01-07T22:19:01Z</time>
      </trkpt>
      <trkpt lat="42.32212" lon="2.35796">
        <ele>1025.1</ele>
        <time>2019-01-07T22:19:03Z</time>
      </trkpt>
      <trkpt lat="42.32209" lon="2.35808">
        <ele>1024</ele>
        <time>2019-01-07T22:19:06Z</time>
      </trkpt>
      <trkpt lat="42.322" lon="2.35806">
        <ele>1021.8</ele>
        <time>2019-01-07T22:19:08Z</time>
      </trkpt>
      <trkpt lat="42.3219" lon="2.35805">
        <ele>1020.9</ele>
        <time>2019-01-07T22:19:11Z</time>
      </trkpt>
      <trkpt lat="42.3218" lon="2.35804">
        <ele>1020.4</ele>
        <time>2019-01-07T22:19:14Z</time>
      </trkpt>
      <trkpt lat="42.32169" lon="2.35806">
        <ele>1020.5</ele>
        <time>2019-01-07T22:19:17Z</time>
      </trkpt>
      <trkpt lat="42.3216" lon="2.35812">
        <ele>1022.1</ele>
        <time>2019-01-07T22:19:19Z</time>
      </trkpt>
      <trkpt lat="42.32151" lon="2.35818">
        <ele>1024.2</ele>
        <time>2019-01-07T22:19:22Z</time>
      </trkpt>
      <trkpt lat="42.32149" lon="2.35819">
        <ele>1024.6</ele>
        <time>2019-01-07T22:19:23Z</time>
      </trkpt>
      <trkpt lat="42.32144" lon="2.35823">
        <ele>1025.7</ele>
        <time>2019-01-07T22:19:24Z</time>
      </trkpt>
      <trkpt lat="42.32142" lon="2.35824">
        <ele>1026.4</ele>
        <time>2019-01-07T22:19:25Z</time>
      </trkpt>
      <trkpt lat="42.32136" lon="2.35825">
        <ele>1026.4</ele>
        <time>2019-01-07T22:19:26Z</time>
      </trkpt>
      <trkpt lat="42.32135" lon="2.35826">
        <ele>1026.5</ele>
        <time>2019-01-07T22:19:27Z</time>
      </trkpt>
      <trkpt lat="42.32133" lon="2.35825">
        <ele>1026.1</ele>
        <time>2019-01-07T22:19:27Z</time>
      </trkpt>
      <trkpt lat="42.32124" lon="2.35832">
        <ele>1027.7</ele>
        <time>2019-01-07T22:19:30Z</time>
      </trkpt>
      <trkpt lat="42.32124" lon="2.35824">
        <ele>1024.7</ele>
        <time>2019-01-07T22:19:31Z</time>
      </trkpt>
      <trkpt lat="42.32113" lon="2.35828">
        <ele>1025.5</ele>
        <time>2019-01-07T22:19:34Z</time>
      </trkpt>
      <trkpt lat="42.32111" lon="2.35834">
        <ele>1027.2</ele>
        <time>2019-01-07T22:19:36Z</time>
      </trkpt>
      <trkpt lat="42.3211" lon="2.35836">
        <ele>1027.6</ele>
        <time>2019-01-07T22:19:36Z</time>
      </trkpt>
      <trkpt lat="42.32109" lon="2.35838">
        <ele>1027.5</ele>
        <time>2019-01-07T22:19:37Z</time>
      </trkpt>
      <trkpt lat="42.32106" lon="2.3584">
        <ele>1027.3</ele>
        <time>2019-01-07T22:19:38Z</time>
      </trkpt>
      <trkpt lat="42.32098" lon="2.35848">
        <ele>1026.9</ele>
        <time>2019-01-07T22:19:40Z</time>
      </trkpt>
      <trkpt lat="42.32095" lon="2.3585">
        <ele>1026.6</ele>
        <time>2019-01-07T22:19:41Z</time>
      </trkpt>
      <trkpt lat="42.32093" lon="2.35854">
        <ele>1026.7</ele>
        <time>2019-01-07T22:19:42Z</time>
      </trkpt>
      <trkpt lat="42.32091" lon="2.35857">
        <ele>1026.9</ele>
        <time>2019-01-07T22:19:43Z</time>
      </trkpt>
      <trkpt lat="42.3209" lon="2.35861">
        <ele>1027.4</ele>
        <time>2019-01-07T22:19:44Z</time>
      </trkpt>
      <trkpt lat="42.3209" lon="2.35865">
        <ele>1027.7</ele>
        <time>2019-01-07T22:19:44Z</time>
      </trkpt>
      <trkpt lat="42.32087" lon="2.35877">
        <ele>1029.5</ele>
        <time>2019-01-07T22:19:47Z</time>
      </trkpt>
      <trkpt lat="42.32077" lon="2.3588">
        <ele>1029.5</ele>
        <time>2019-01-07T22:19:50Z</time>
      </trkpt>
      <trkpt lat="42.32067" lon="2.35877">
        <ele>1029.2</ele>
        <time>2019-01-07T22:19:52Z</time>
      </trkpt>
      <trkpt lat="42.32064" lon="2.35876">
        <ele>1028.8</ele>
        <time>2019-01-07T22:19:53Z</time>
      </trkpt>
      <trkpt lat="42.3206" lon="2.35876">
        <ele>1028.7</ele>
        <time>2019-01-07T22:19:54Z</time>
      </trkpt>
      <trkpt lat="42.32057" lon="2.35874">
        <ele>1028.2</ele>
        <time>2019-01-07T22:19:55Z</time>
      </trkpt>
      <trkpt lat="42.32054" lon="2.35873">
        <ele>1027.7</ele>
        <time>2019-01-07T22:19:56Z</time>
      </trkpt>
      <trkpt lat="42.32051" lon="2.35871">
        <ele>1027</ele>
        <time>2019-01-07T22:19:57Z</time>
      </trkpt>
      <trkpt lat="42.32048" lon="2.35871">
        <ele>1026.7</ele>
        <time>2019-01-07T22:19:58Z</time>
      </trkpt>
      <trkpt lat="42.32045" lon="2.3587">
        <ele>1026.3</ele>
        <time>2019-01-07T22:19:58Z</time>
      </trkpt>
      <trkpt lat="42.32041" lon="2.3587">
        <ele>1026</ele>
        <time>2019-01-07T22:19:59Z</time>
      </trkpt>
      <trkpt lat="42.32038" lon="2.35869">
        <ele>1025.5</ele>
        <time>2019-01-07T22:20:00Z</time>
      </trkpt>
      <trkpt lat="42.32036" lon="2.35868">
        <ele>1025.2</ele>
        <time>2019-01-07T22:20:01Z</time>
      </trkpt>
      <trkpt lat="42.32033" lon="2.35868">
        <ele>1024.9</ele>
        <time>2019-01-07T22:20:02Z</time>
      </trkpt>
      <trkpt lat="42.32032" lon="2.35865">
        <ele>1023.7</ele>
        <time>2019-01-07T22:20:02Z</time>
      </trkpt>
      <trkpt lat="42.3203" lon="2.35865">
        <ele>1023.7</ele>
        <time>2019-01-07T22:20:03Z</time>
      </trkpt>
      <trkpt lat="42.32027" lon="2.35868">
        <ele>1024.7</ele>
        <time>2019-01-07T22:20:04Z</time>
      </trkpt>
      <trkpt lat="42.32025" lon="2.35871">
        <ele>1025.2</ele>
        <time>2019-01-07T22:20:05Z</time>
      </trkpt>
      <trkpt lat="42.32022" lon="2.35873">
        <ele>1025.3</ele>
        <time>2019-01-07T22:20:05Z</time>
      </trkpt>
      <trkpt lat="42.3202" lon="2.35875">
        <ele>1024.9</ele>
        <time>2019-01-07T22:20:06Z</time>
      </trkpt>
      <trkpt lat="42.32018" lon="2.35878">
        <ele>1025.6</ele>
        <time>2019-01-07T22:20:07Z</time>
      </trkpt>
      <trkpt lat="42.32015" lon="2.3588">
        <ele>1025.8</ele>
        <time>2019-01-07T22:20:08Z</time>
      </trkpt>
      <trkpt lat="42.32013" lon="2.35882">
        <ele>1025.8</ele>
        <time>2019-01-07T22:20:08Z</time>
      </trkpt>
      <trkpt lat="42.32011" lon="2.35884">
        <ele>1025.8</ele>
        <time>2019-01-07T22:20:09Z</time>
      </trkpt>
      <trkpt lat="42.32008" lon="2.35886">
        <ele>1025.8</ele>
        <time>2019-01-07T22:20:10Z</time>
      </trkpt>
      <trkpt lat="42.32006" lon="2.35888">
        <ele>1025.4</ele>
        <time>2019-01-07T22:20:11Z</time>
      </trkpt>
      <trkpt lat="42.32003" lon="2.35889">
        <ele>1025.2</ele>
        <time>2019-01-07T22:20:12Z</time>
      </trkpt>
      <trkpt lat="42.32004" lon="2.35887">
        <ele>1024.7</ele>
        <time>2019-01-07T22:20:12Z</time>
      </trkpt>
      <trkpt lat="42.32006" lon="2.35885">
        <ele>1024.3</ele>
        <time>2019-01-07T22:20:13Z</time>
      </trkpt>
      <trkpt lat="42.32001" lon="2.35888">
        <ele>1024.3</ele>
        <time>2019-01-07T22:20:14Z</time>
      </trkpt>
      <trkpt lat="42.31999" lon="2.3589">
        <ele>1024.6</ele>
        <time>2019-01-07T22:20:15Z</time>
      </trkpt>
      <trkpt lat="42.31996" lon="2.3589">
        <ele>1024.7</ele>
        <time>2019-01-07T22:20:15Z</time>
      </trkpt>
      <trkpt lat="42.31993" lon="2.35891">
        <ele>1024.9</ele>
        <time>2019-01-07T22:20:16Z</time>
      </trkpt>
      <trkpt lat="42.31989" lon="2.35892">
        <ele>1025.5</ele>
        <time>2019-01-07T22:20:17Z</time>
      </trkpt>
      <trkpt lat="42.31987" lon="2.35892">
        <ele>1025.5</ele>
        <time>2019-01-07T22:20:18Z</time>
      </trkpt>
      <trkpt lat="42.31984" lon="2.35892">
        <ele>1025.2</ele>
        <time>2019-01-07T22:20:19Z</time>
      </trkpt>
      <trkpt lat="42.31982" lon="2.35892">
        <ele>1025.2</ele>
        <time>2019-01-07T22:20:19Z</time>
      </trkpt>
      <trkpt lat="42.31978" lon="2.35892">
        <ele>1025.2</ele>
        <time>2019-01-07T22:20:20Z</time>
      </trkpt>
      <trkpt lat="42.31976" lon="2.35891">
        <ele>1025</ele>
        <time>2019-01-07T22:20:21Z</time>
      </trkpt>
      <trkpt lat="42.31973" lon="2.35891">
        <ele>1024.9</ele>
        <time>2019-01-07T22:20:22Z</time>
      </trkpt>
      <trkpt lat="42.31963" lon="2.35895">
        <ele>1025.9</ele>
        <time>2019-01-07T22:20:25Z</time>
      </trkpt>
      <trkpt lat="42.31955" lon="2.35896">
        <ele>1026</ele>
        <time>2019-01-07T22:20:27Z</time>
      </trkpt>
      <trkpt lat="42.31947" lon="2.35896">
        <ele>1025.4</ele>
        <time>2019-01-07T22:20:29Z</time>
      </trkpt>
      <trkpt lat="42.31944" lon="2.35896">
        <ele>1025.4</ele>
        <time>2019-01-07T22:20:30Z</time>
      </trkpt>
      <trkpt lat="42.31935" lon="2.35899">
        <ele>1025.6</ele>
        <time>2019-01-07T22:20:32Z</time>
      </trkpt>
      <trkpt lat="42.31934" lon="2.359">
        <ele>1025.7</ele>
        <time>2019-01-07T22:20:32Z</time>
      </trkpt>
      <trkpt lat="42.31931" lon="2.35899">
        <ele>1025.3</ele>
        <time>2019-01-07T22:20:33Z</time>
      </trkpt>
      <trkpt lat="42.31928" lon="2.35899">
        <ele>1025</ele>
        <time>2019-01-07T22:20:34Z</time>
      </trkpt>
      <trkpt lat="42.31926" lon="2.35899">
        <ele>1024.6</ele>
        <time>2019-01-07T22:20:34Z</time>
      </trkpt>
      <trkpt lat="42.31924" lon="2.35899">
        <ele>1024.8</ele>
        <time>2019-01-07T22:20:35Z</time>
      </trkpt>
      <trkpt lat="42.31921" lon="2.35901">
        <ele>1025</ele>
        <time>2019-01-07T22:20:36Z</time>
      </trkpt>
      <trkpt lat="42.31919" lon="2.35902">
        <ele>1024.9</ele>
        <time>2019-01-07T22:20:36Z</time>
      </trkpt>
      <trkpt lat="42.31917" lon="2.35903">
        <ele>1025.2</ele>
        <time>2019-01-07T22:20:37Z</time>
      </trkpt>
      <trkpt lat="42.31914" lon="2.35905">
        <ele>1025.2</ele>
        <time>2019-01-07T22:20:38Z</time>
      </trkpt>
      <trkpt lat="42.31906" lon="2.35912">
        <ele>1026</ele>
        <time>2019-01-07T22:20:40Z</time>
      </trkpt>
      <trkpt lat="42.31895" lon="2.35917">
        <ele>1025.9</ele>
        <time>2019-01-07T22:20:43Z</time>
      </trkpt>
      <trkpt lat="42.31886" lon="2.35922">
        <ele>1025.7</ele>
        <time>2019-01-07T22:20:46Z</time>
      </trkpt>
      <trkpt lat="42.31878" lon="2.35926">
        <ele>1024.4</ele>
        <time>2019-01-07T22:20:48Z</time>
      </trkpt>
      <trkpt lat="42.31875" lon="2.35926">
        <ele>1023.8</ele>
        <time>2019-01-07T22:20:49Z</time>
      </trkpt>
      <trkpt lat="42.31871" lon="2.35926">
        <ele>1022.7</ele>
        <time>2019-01-07T22:20:50Z</time>
      </trkpt>
      <trkpt lat="42.31868" lon="2.35927">
        <ele>1022.2</ele>
        <time>2019-01-07T22:20:51Z</time>
      </trkpt>
      <trkpt lat="42.31866" lon="2.35929">
        <ele>1021.9</ele>
        <time>2019-01-07T22:20:52Z</time>
      </trkpt>
      <trkpt lat="42.31867" lon="2.35932">
        <ele>1023</ele>
        <time>2019-01-07T22:20:52Z</time>
      </trkpt>
      <trkpt lat="42.31866" lon="2.35935">
        <ele>1023.6</ele>
        <time>2019-01-07T22:20:53Z</time>
      </trkpt>
      <trkpt lat="42.31864" lon="2.35937">
        <ele>1024</ele>
        <time>2019-01-07T22:20:53Z</time>
      </trkpt>
      <trkpt lat="42.31863" lon="2.3594">
        <ele>1024.4</ele>
        <time>2019-01-07T22:20:54Z</time>
      </trkpt>
      <trkpt lat="42.31862" lon="2.35942">
        <ele>1024.4</ele>
        <time>2019-01-07T22:20:55Z</time>
      </trkpt>
      <trkpt lat="42.31864" lon="2.3594">
        <ele>1024.4</ele>
        <time>2019-01-07T22:20:55Z</time>
      </trkpt>
      <trkpt lat="42.31862" lon="2.35943">
        <ele>1024.9</ele>
        <time>2019-01-07T22:20:56Z</time>
      </trkpt>
      <trkpt lat="42.31861" lon="2.35945">
        <ele>1025.1</ele>
        <time>2019-01-07T22:20:56Z</time>
      </trkpt>
      <trkpt lat="42.31859" lon="2.35947">
        <ele>1024.6</ele>
        <time>2019-01-07T22:20:57Z</time>
      </trkpt>
      <trkpt lat="42.31857" lon="2.35949">
        <ele>1024.2</ele>
        <time>2019-01-07T22:20:58Z</time>
      </trkpt>
      <trkpt lat="42.31855" lon="2.35952">
        <ele>1024.2</ele>
        <time>2019-01-07T22:20:58Z</time>
      </trkpt>
      <trkpt lat="42.31854" lon="2.35955">
        <ele>1024.2</ele>
        <time>2019-01-07T22:20:59Z</time>
      </trkpt>
      <trkpt lat="42.31853" lon="2.35958">
        <ele>1024.3</ele>
        <time>2019-01-07T22:21:00Z</time>
      </trkpt>
      <trkpt lat="42.31852" lon="2.35962">
        <ele>1024.5</ele>
        <time>2019-01-07T22:21:01Z</time>
      </trkpt>
      <trkpt lat="42.31851" lon="2.35964">
        <ele>1024.8</ele>
        <time>2019-01-07T22:21:01Z</time>
      </trkpt>
      <trkpt lat="42.31851" lon="2.35968">
        <ele>1024.9</ele>
        <time>2019-01-07T22:21:02Z</time>
      </trkpt>
      <trkpt lat="42.3185" lon="2.3597">
        <ele>1024.9</ele>
        <time>2019-01-07T22:21:02Z</time>
      </trkpt>
      <trkpt lat="42.31848" lon="2.3597">
        <ele>1024.2</ele>
        <time>2019-01-07T22:21:03Z</time>
      </trkpt>
      <trkpt lat="42.31848" lon="2.35972">
        <ele>1024.7</ele>
        <time>2019-01-07T22:21:03Z</time>
      </trkpt>
      <trkpt lat="42.31847" lon="2.35976">
        <ele>1024.7</ele>
        <time>2019-01-07T22:21:04Z</time>
      </trkpt>
      <trkpt lat="42.31847" lon="2.35979">
        <ele>1025.1</ele>
        <time>2019-01-07T22:21:05Z</time>
      </trkpt>
      <trkpt lat="42.31847" lon="2.35982">
        <ele>1025.3</ele>
        <time>2019-01-07T22:21:05Z</time>
      </trkpt>
      <trkpt lat="42.31847" lon="2.35986">
        <ele>1025.7</ele>
        <time>2019-01-07T22:21:06Z</time>
      </trkpt>
      <trkpt lat="42.31847" lon="2.35989">
        <ele>1026.2</ele>
        <time>2019-01-07T22:21:07Z</time>
      </trkpt>
      <trkpt lat="42.31847" lon="2.35993">
        <ele>1026.4</ele>
        <time>2019-01-07T22:21:07Z</time>
      </trkpt>
      <trkpt lat="42.31847" lon="2.35996">
        <ele>1026.7</ele>
        <time>2019-01-07T22:21:08Z</time>
      </trkpt>
      <trkpt lat="42.31847" lon="2.35999">
        <ele>1027</ele>
        <time>2019-01-07T22:21:09Z</time>
      </trkpt>
      <trkpt lat="42.31846" lon="2.36003">
        <ele>1027</ele>
        <time>2019-01-07T22:21:09Z</time>
      </trkpt>
      <trkpt lat="42.31845" lon="2.36007">
        <ele>1026.5</ele>
        <time>2019-01-07T22:21:10Z</time>
      </trkpt>
      <trkpt lat="42.31845" lon="2.3601">
        <ele>1026.6</ele>
        <time>2019-01-07T22:21:11Z</time>
      </trkpt>
      <trkpt lat="42.31845" lon="2.36014">
        <ele>1026.5</ele>
        <time>2019-01-07T22:21:12Z</time>
      </trkpt>
      <trkpt lat="42.31844" lon="2.36017">
        <ele>1026.2</ele>
        <time>2019-01-07T22:21:12Z</time>
      </trkpt>
      <trkpt lat="42.31844" lon="2.3602">
        <ele>1026.5</ele>
        <time>2019-01-07T22:21:13Z</time>
      </trkpt>
      <trkpt lat="42.31845" lon="2.36024">
        <ele>1026.9</ele>
        <time>2019-01-07T22:21:14Z</time>
      </trkpt>
      <trkpt lat="42.31846" lon="2.36028">
        <ele>1027.2</ele>
        <time>2019-01-07T22:21:15Z</time>
      </trkpt>
      <trkpt lat="42.31847" lon="2.36031">
        <ele>1027.6</ele>
        <time>2019-01-07T22:21:15Z</time>
      </trkpt>
      <trkpt lat="42.31847" lon="2.36035">
        <ele>1028</ele>
        <time>2019-01-07T22:21:16Z</time>
      </trkpt>
      <trkpt lat="42.31847" lon="2.36039">
        <ele>1028.2</ele>
        <time>2019-01-07T22:21:17Z</time>
      </trkpt>
      <trkpt lat="42.31847" lon="2.36043">
        <ele>1028.5</ele>
        <time>2019-01-07T22:21:18Z</time>
      </trkpt>
      <trkpt lat="42.31847" lon="2.36047">
        <ele>1028.7</ele>
        <time>2019-01-07T22:21:18Z</time>
      </trkpt>
      <trkpt lat="42.31847" lon="2.36051">
        <ele>1028.8</ele>
        <time>2019-01-07T22:21:19Z</time>
      </trkpt>
      <trkpt lat="42.31846" lon="2.36055">
        <ele>1028.5</ele>
        <time>2019-01-07T22:21:20Z</time>
      </trkpt>
      <trkpt lat="42.31845" lon="2.36058">
        <ele>1028.1</ele>
        <time>2019-01-07T22:21:21Z</time>
      </trkpt>
      <trkpt lat="42.31844" lon="2.36061">
        <ele>1027.8</ele>
        <time>2019-01-07T22:21:21Z</time>
      </trkpt>
      <trkpt lat="42.31843" lon="2.36064">
        <ele>1027.6</ele>
        <time>2019-01-07T22:21:22Z</time>
      </trkpt>
      <trkpt lat="42.31843" lon="2.36067">
        <ele>1027.4</ele>
        <time>2019-01-07T22:21:23Z</time>
      </trkpt>
      <trkpt lat="42.31844" lon="2.3607">
        <ele>1027.8</ele>
        <time>2019-01-07T22:21:23Z</time>
      </trkpt>
      <trkpt lat="42.31846" lon="2.36072">
        <ele>1028.3</ele>
        <time>2019-01-07T22:21:24Z</time>
      </trkpt>
      <trkpt lat="42.31848" lon="2.36075">
        <ele>1029.2</ele>
        <time>2019-01-07T22:21:25Z</time>
      </trkpt>
      <trkpt lat="42.3185" lon="2.36078">
        <ele>1030.2</ele>
        <time>2019-01-07T22:21:25Z</time>
      </trkpt>
      <trkpt lat="42.31851" lon="2.3608">
        <ele>1030.7</ele>
        <time>2019-01-07T22:21:26Z</time>
      </trkpt>
      <trkpt lat="42.31853" lon="2.36083">
        <ele>1031.8</ele>
        <time>2019-01-07T22:21:27Z</time>
      </trkpt>
      <trkpt lat="42.31855" lon="2.36086">
        <ele>1032.3</ele>
        <time>2019-01-07T22:21:27Z</time>
      </trkpt>
      <trkpt lat="42.31857" lon="2.36089">
        <ele>1033.1</ele>
        <time>2019-01-07T22:21:28Z</time>
      </trkpt>
      <trkpt lat="42.31858" lon="2.36092">
        <ele>1033.4</ele>
        <time>2019-01-07T22:21:29Z</time>
      </trkpt>
      <trkpt lat="42.31858" lon="2.36096">
        <ele>1033.8</ele>
        <time>2019-01-07T22:21:30Z</time>
      </trkpt>
      <trkpt lat="42.31859" lon="2.361">
        <ele>1033.8</ele>
        <time>2019-01-07T22:21:31Z</time>
      </trkpt>
      <trkpt lat="42.31858" lon="2.36104">
        <ele>1033.6</ele>
        <time>2019-01-07T22:21:31Z</time>
      </trkpt>
      <trkpt lat="42.31858" lon="2.36108">
        <ele>1033.5</ele>
        <time>2019-01-07T22:21:32Z</time>
      </trkpt>
      <trkpt lat="42.31859" lon="2.36111">
        <ele>1033.7</ele>
        <time>2019-01-07T22:21:33Z</time>
      </trkpt>
      <trkpt lat="42.31859" lon="2.36115">
        <ele>1034.1</ele>
        <time>2019-01-07T22:21:33Z</time>
      </trkpt>
      <trkpt lat="42.31859" lon="2.36118">
        <ele>1034.5</ele>
        <time>2019-01-07T22:21:34Z</time>
      </trkpt>
      <trkpt lat="42.31859" lon="2.36121">
        <ele>1034.8</ele>
        <time>2019-01-07T22:21:35Z</time>
      </trkpt>
      <trkpt lat="42.31859" lon="2.36124">
        <ele>1034.7</ele>
        <time>2019-01-07T22:21:35Z</time>
      </trkpt>
      <trkpt lat="42.31858" lon="2.36128">
        <ele>1034.5</ele>
        <time>2019-01-07T22:21:36Z</time>
      </trkpt>
      <trkpt lat="42.31857" lon="2.36131">
        <ele>1034.4</ele>
        <time>2019-01-07T22:21:37Z</time>
      </trkpt>
      <trkpt lat="42.31857" lon="2.36135">
        <ele>1034.6</ele>
        <time>2019-01-07T22:21:38Z</time>
      </trkpt>
      <trkpt lat="42.31856" lon="2.36139">
        <ele>1034.8</ele>
        <time>2019-01-07T22:21:38Z</time>
      </trkpt>
      <trkpt lat="42.31856" lon="2.36143">
        <ele>1034.4</ele>
        <time>2019-01-07T22:21:39Z</time>
      </trkpt>
      <trkpt lat="42.31856" lon="2.36147">
        <ele>1034.1</ele>
        <time>2019-01-07T22:21:40Z</time>
      </trkpt>
      <trkpt lat="42.31856" lon="2.36151">
        <ele>1033.9</ele>
        <time>2019-01-07T22:21:41Z</time>
      </trkpt>
      <trkpt lat="42.31856" lon="2.36155">
        <ele>1034</ele>
        <time>2019-01-07T22:21:41Z</time>
      </trkpt>
      <trkpt lat="42.31856" lon="2.36158">
        <ele>1033.8</ele>
        <time>2019-01-07T22:21:42Z</time>
      </trkpt>
      <trkpt lat="42.31855" lon="2.36162">
        <ele>1033.4</ele>
        <time>2019-01-07T22:21:43Z</time>
      </trkpt>
      <trkpt lat="42.31854" lon="2.36165">
        <ele>1032.9</ele>
        <time>2019-01-07T22:21:44Z</time>
      </trkpt>
      <trkpt lat="42.31853" lon="2.36168">
        <ele>1032.1</ele>
        <time>2019-01-07T22:21:44Z</time>
      </trkpt>
      <trkpt lat="42.31853" lon="2.36172">
        <ele>1031.4</ele>
        <time>2019-01-07T22:21:45Z</time>
      </trkpt>
      <trkpt lat="42.31854" lon="2.36176">
        <ele>1031.2</ele>
        <time>2019-01-07T22:21:46Z</time>
      </trkpt>
      <trkpt lat="42.31855" lon="2.3618">
        <ele>1030.6</ele>
        <time>2019-01-07T22:21:47Z</time>
      </trkpt>
      <trkpt lat="42.31856" lon="2.36183">
        <ele>1030.5</ele>
        <time>2019-01-07T22:21:47Z</time>
      </trkpt>
      <trkpt lat="42.31857" lon="2.36186">
        <ele>1030.2</ele>
        <time>2019-01-07T22:21:48Z</time>
      </trkpt>
      <trkpt lat="42.31858" lon="2.3619">
        <ele>1029.9</ele>
        <time>2019-01-07T22:21:49Z</time>
      </trkpt>
      <trkpt lat="42.3186" lon="2.36193">
        <ele>1029.6</ele>
        <time>2019-01-07T22:21:50Z</time>
      </trkpt>
      <trkpt lat="42.31861" lon="2.36197">
        <ele>1029.8</ele>
        <time>2019-01-07T22:21:50Z</time>
      </trkpt>
      <trkpt lat="42.3186" lon="2.362">
        <ele>1029.5</ele>
        <time>2019-01-07T22:21:51Z</time>
      </trkpt>
      <trkpt lat="42.31859" lon="2.36204">
        <ele>1029</ele>
        <time>2019-01-07T22:21:52Z</time>
      </trkpt>
      <trkpt lat="42.3186" lon="2.36207">
        <ele>1029</ele>
        <time>2019-01-07T22:21:52Z</time>
      </trkpt>
      <trkpt lat="42.3186" lon="2.3621">
        <ele>1029.1</ele>
        <time>2019-01-07T22:21:53Z</time>
      </trkpt>
      <trkpt lat="42.31859" lon="2.36212">
        <ele>1028.5</ele>
        <time>2019-01-07T22:21:54Z</time>
      </trkpt>
      <trkpt lat="42.31857" lon="2.36213">
        <ele>1027.8</ele>
        <time>2019-01-07T22:21:54Z</time>
      </trkpt>
      <trkpt lat="42.31854" lon="2.36213">
        <ele>1026.9</ele>
        <time>2019-01-07T22:21:55Z</time>
      </trkpt>
      <trkpt lat="42.31852" lon="2.36214">
        <ele>1026.4</ele>
        <time>2019-01-07T22:21:55Z</time>
      </trkpt>
      <trkpt lat="42.31854" lon="2.36212">
        <ele>1026.8</ele>
        <time>2019-01-07T22:21:56Z</time>
      </trkpt>
      <trkpt lat="42.31853" lon="2.36215">
        <ele>1026.6</ele>
        <time>2019-01-07T22:21:56Z</time>
      </trkpt>
      <trkpt lat="42.31849" lon="2.36217">
        <ele>1025.2</ele>
        <time>2019-01-07T22:21:57Z</time>
      </trkpt>
      <trkpt lat="42.31847" lon="2.36217">
        <ele>1024.4</ele>
        <time>2019-01-07T22:21:58Z</time>
      </trkpt>
      <trkpt lat="42.31844" lon="2.36217">
        <ele>1023.5</ele>
        <time>2019-01-07T22:21:59Z</time>
      </trkpt>
      <trkpt lat="42.31842" lon="2.36218">
        <ele>1022.9</ele>
        <time>2019-01-07T22:21:59Z</time>
      </trkpt>
      <trkpt lat="42.3184" lon="2.36218">
        <ele>1022.3</ele>
        <time>2019-01-07T22:22:00Z</time>
      </trkpt>
      <trkpt lat="42.31838" lon="2.36219">
        <ele>1021.7</ele>
        <time>2019-01-07T22:22:00Z</time>
      </trkpt>
      <trkpt lat="42.31837" lon="2.3622">
        <ele>1021</ele>
        <time>2019-01-07T22:22:01Z</time>
      </trkpt>
      <trkpt lat="42.31835" lon="2.36221">
        <ele>1020.3</ele>
        <time>2019-01-07T22:22:01Z</time>
      </trkpt>
      <trkpt lat="42.31831" lon="2.36222">
        <ele>1019.5</ele>
        <time>2019-01-07T22:22:02Z</time>
      </trkpt>
      <trkpt lat="42.31828" lon="2.36222">
        <ele>1019</ele>
        <time>2019-01-07T22:22:03Z</time>
      </trkpt>
      <trkpt lat="42.31825" lon="2.36223">
        <ele>1018.4</ele>
        <time>2019-01-07T22:22:04Z</time>
      </trkpt>
      <trkpt lat="42.31822" lon="2.36224">
        <ele>1018.3</ele>
        <time>2019-01-07T22:22:05Z</time>
      </trkpt>
      <trkpt lat="42.31819" lon="2.36225">
        <ele>1017.8</ele>
        <time>2019-01-07T22:22:06Z</time>
      </trkpt>
      <trkpt lat="42.31816" lon="2.36227">
        <ele>1017.7</ele>
        <time>2019-01-07T22:22:07Z</time>
      </trkpt>
      <trkpt lat="42.31813" lon="2.36229">
        <ele>1017.7</ele>
        <time>2019-01-07T22:22:07Z</time>
      </trkpt>
      <trkpt lat="42.3181" lon="2.3623">
        <ele>1017.4</ele>
        <time>2019-01-07T22:22:08Z</time>
      </trkpt>
      <trkpt lat="42.31807" lon="2.36232">
        <ele>1017.2</ele>
        <time>2019-01-07T22:22:09Z</time>
      </trkpt>
      <trkpt lat="42.31804" lon="2.36233">
        <ele>1017.1</ele>
        <time>2019-01-07T22:22:10Z</time>
      </trkpt>
      <trkpt lat="42.31801" lon="2.36234">
        <ele>1016.8</ele>
        <time>2019-01-07T22:22:11Z</time>
      </trkpt>
      <trkpt lat="42.31798" lon="2.36236">
        <ele>1016.7</ele>
        <time>2019-01-07T22:22:12Z</time>
      </trkpt>
      <trkpt lat="42.31795" lon="2.36239">
        <ele>1016.8</ele>
        <time>2019-01-07T22:22:13Z</time>
      </trkpt>
      <trkpt lat="42.31793" lon="2.36241">
        <ele>1016.7</ele>
        <time>2019-01-07T22:22:13Z</time>
      </trkpt>
      <trkpt lat="42.31791" lon="2.36243">
        <ele>1017</ele>
        <time>2019-01-07T22:22:14Z</time>
      </trkpt>
      <trkpt lat="42.31788" lon="2.36245">
        <ele>1016.8</ele>
        <time>2019-01-07T22:22:15Z</time>
      </trkpt>
      <trkpt lat="42.31787" lon="2.36247">
        <ele>1016.8</ele>
        <time>2019-01-07T22:22:15Z</time>
      </trkpt>
      <trkpt lat="42.31785" lon="2.36251">
        <ele>1016.9</ele>
        <time>2019-01-07T22:22:16Z</time>
      </trkpt>
      <trkpt lat="42.31783" lon="2.36254">
        <ele>1016.6</ele>
        <time>2019-01-07T22:22:17Z</time>
      </trkpt>
      <trkpt lat="42.31782" lon="2.36257">
        <ele>1016.7</ele>
        <time>2019-01-07T22:22:18Z</time>
      </trkpt>
      <trkpt lat="42.31781" lon="2.3626">
        <ele>1016.7</ele>
        <time>2019-01-07T22:22:18Z</time>
      </trkpt>
      <trkpt lat="42.31781" lon="2.36263">
        <ele>1016.7</ele>
        <time>2019-01-07T22:22:19Z</time>
      </trkpt>
      <trkpt lat="42.3178" lon="2.36267">
        <ele>1017</ele>
        <time>2019-01-07T22:22:20Z</time>
      </trkpt>
      <trkpt lat="42.31778" lon="2.3627">
        <ele>1016.5</ele>
        <time>2019-01-07T22:22:21Z</time>
      </trkpt>
      <trkpt lat="42.31776" lon="2.36274">
        <ele>1016.4</ele>
        <time>2019-01-07T22:22:22Z</time>
      </trkpt>
      <trkpt lat="42.31774" lon="2.36277">
        <ele>1016.1</ele>
        <time>2019-01-07T22:22:22Z</time>
      </trkpt>
      <trkpt lat="42.31771" lon="2.3628">
        <ele>1016.1</ele>
        <time>2019-01-07T22:22:23Z</time>
      </trkpt>
      <trkpt lat="42.3177" lon="2.36282">
        <ele>1016.1</ele>
        <time>2019-01-07T22:22:24Z</time>
      </trkpt>
      <trkpt lat="42.31768" lon="2.36285">
        <ele>1016.1</ele>
        <time>2019-01-07T22:22:25Z</time>
      </trkpt>
      <trkpt lat="42.31765" lon="2.36288">
        <ele>1016.1</ele>
        <time>2019-01-07T22:22:26Z</time>
      </trkpt>
      <trkpt lat="42.31764" lon="2.36291">
        <ele>1016.2</ele>
        <time>2019-01-07T22:22:26Z</time>
      </trkpt>
      <trkpt lat="42.31762" lon="2.36294">
        <ele>1016.2</ele>
        <time>2019-01-07T22:22:27Z</time>
      </trkpt>
      <trkpt lat="42.3176" lon="2.36297">
        <ele>1016.2</ele>
        <time>2019-01-07T22:22:28Z</time>
      </trkpt>
      <trkpt lat="42.31759" lon="2.36299">
        <ele>1016.4</ele>
        <time>2019-01-07T22:22:28Z</time>
      </trkpt>
      <trkpt lat="42.31759" lon="2.36302">
        <ele>1016.8</ele>
        <time>2019-01-07T22:22:29Z</time>
      </trkpt>
      <trkpt lat="42.31757" lon="2.36305">
        <ele>1016.7</ele>
        <time>2019-01-07T22:22:30Z</time>
      </trkpt>
      <trkpt lat="42.31756" lon="2.36307">
        <ele>1016.7</ele>
        <time>2019-01-07T22:22:30Z</time>
      </trkpt>
      <trkpt lat="42.31754" lon="2.3631">
        <ele>1016.8</ele>
        <time>2019-01-07T22:22:31Z</time>
      </trkpt>
      <trkpt lat="42.31752" lon="2.36313">
        <ele>1016.9</ele>
        <time>2019-01-07T22:22:32Z</time>
      </trkpt>
      <trkpt lat="42.31751" lon="2.36316">
        <ele>1016.9</ele>
        <time>2019-01-07T22:22:32Z</time>
      </trkpt>
      <trkpt lat="42.31749" lon="2.36319">
        <ele>1016.7</ele>
        <time>2019-01-07T22:22:33Z</time>
      </trkpt>
      <trkpt lat="42.31747" lon="2.36322">
        <ele>1016.6</ele>
        <time>2019-01-07T22:22:34Z</time>
      </trkpt>
      <trkpt lat="42.31744" lon="2.36324">
        <ele>1016.5</ele>
        <time>2019-01-07T22:22:35Z</time>
      </trkpt>
      <trkpt lat="42.31742" lon="2.36327">
        <ele>1016.4</ele>
        <time>2019-01-07T22:22:35Z</time>
      </trkpt>
      <trkpt lat="42.3174" lon="2.3633">
        <ele>1016</ele>
        <time>2019-01-07T22:22:36Z</time>
      </trkpt>
      <trkpt lat="42.31737" lon="2.36332">
        <ele>1015.7</ele>
        <time>2019-01-07T22:22:37Z</time>
      </trkpt>
      <trkpt lat="42.31736" lon="2.36335">
        <ele>1015.8</ele>
        <time>2019-01-07T22:22:38Z</time>
      </trkpt>
      <trkpt lat="42.31733" lon="2.36338">
        <ele>1015.4</ele>
        <time>2019-01-07T22:22:39Z</time>
      </trkpt>
      <trkpt lat="42.31731" lon="2.36341">
        <ele>1015</ele>
        <time>2019-01-07T22:22:40Z</time>
      </trkpt>
      <trkpt lat="42.31728" lon="2.36343">
        <ele>1014.9</ele>
        <time>2019-01-07T22:22:41Z</time>
      </trkpt>
      <trkpt lat="42.31725" lon="2.36347">
        <ele>1014.8</ele>
        <time>2019-01-07T22:22:41Z</time>
      </trkpt>
      <trkpt lat="42.31723" lon="2.36349">
        <ele>1014.6</ele>
        <time>2019-01-07T22:22:42Z</time>
      </trkpt>
      <trkpt lat="42.31721" lon="2.36352">
        <ele>1014.5</ele>
        <time>2019-01-07T22:22:43Z</time>
      </trkpt>
      <trkpt lat="42.31718" lon="2.36355">
        <ele>1014.4</ele>
        <time>2019-01-07T22:22:44Z</time>
      </trkpt>
      <trkpt lat="42.31717" lon="2.36356">
        <ele>1014.5</ele>
        <time>2019-01-07T22:22:44Z</time>
      </trkpt>
      <trkpt lat="42.31715" lon="2.36358">
        <ele>1014.4</ele>
        <time>2019-01-07T22:22:45Z</time>
      </trkpt>
      <trkpt lat="42.31712" lon="2.36361">
        <ele>1014.1</ele>
        <time>2019-01-07T22:22:46Z</time>
      </trkpt>
      <trkpt lat="42.31711" lon="2.36362">
        <ele>1014.2</ele>
        <time>2019-01-07T22:22:46Z</time>
      </trkpt>
      <trkpt lat="42.31709" lon="2.36364">
        <ele>1014</ele>
        <time>2019-01-07T22:22:47Z</time>
      </trkpt>
      <trkpt lat="42.31707" lon="2.36366">
        <ele>1013.6</ele>
        <time>2019-01-07T22:22:48Z</time>
      </trkpt>
      <trkpt lat="42.31704" lon="2.36369">
        <ele>1013.3</ele>
        <time>2019-01-07T22:22:49Z</time>
      </trkpt>
      <trkpt lat="42.31702" lon="2.36372">
        <ele>1013.2</ele>
        <time>2019-01-07T22:22:49Z</time>
      </trkpt>
      <trkpt lat="42.31699" lon="2.36375">
        <ele>1013</ele>
        <time>2019-01-07T22:22:50Z</time>
      </trkpt>
      <trkpt lat="42.31697" lon="2.36378">
        <ele>1012.8</ele>
        <time>2019-01-07T22:22:51Z</time>
      </trkpt>
      <trkpt lat="42.31695" lon="2.36381">
        <ele>1012.6</ele>
        <time>2019-01-07T22:22:52Z</time>
      </trkpt>
      <trkpt lat="42.31694" lon="2.36383">
        <ele>1012.4</ele>
        <time>2019-01-07T22:22:52Z</time>
      </trkpt>
      <trkpt lat="42.31693" lon="2.36384">
        <ele>1012.4</ele>
        <time>2019-01-07T22:22:53Z</time>
      </trkpt>
      <trkpt lat="42.31691" lon="2.36386">
        <ele>1012.4</ele>
        <time>2019-01-07T22:22:53Z</time>
      </trkpt>
      <trkpt lat="42.3169" lon="2.36388">
        <ele>1012.1</ele>
        <time>2019-01-07T22:22:54Z</time>
      </trkpt>
      <trkpt lat="42.31688" lon="2.36392">
        <ele>1012.3</ele>
        <time>2019-01-07T22:22:55Z</time>
      </trkpt>
      <trkpt lat="42.31686" lon="2.36395">
        <ele>1012.3</ele>
        <time>2019-01-07T22:22:56Z</time>
      </trkpt>
      <trkpt lat="42.31684" lon="2.36397">
        <ele>1012.1</ele>
        <time>2019-01-07T22:22:56Z</time>
      </trkpt>
      <trkpt lat="42.31682" lon="2.36399">
        <ele>1011.7</ele>
        <time>2019-01-07T22:22:57Z</time>
      </trkpt>
      <trkpt lat="42.3168" lon="2.36401">
        <ele>1011.5</ele>
        <time>2019-01-07T22:22:58Z</time>
      </trkpt>
      <trkpt lat="42.31678" lon="2.36403">
        <ele>1011.3</ele>
        <time>2019-01-07T22:22:58Z</time>
      </trkpt>
      <trkpt lat="42.31676" lon="2.36405">
        <ele>1011</ele>
        <time>2019-01-07T22:22:59Z</time>
      </trkpt>
      <trkpt lat="42.31674" lon="2.36408">
        <ele>1010.9</ele>
        <time>2019-01-07T22:23:00Z</time>
      </trkpt>
      <trkpt lat="42.31673" lon="2.36409">
        <ele>1010.8</ele>
        <time>2019-01-07T22:23:00Z</time>
      </trkpt>
      <trkpt lat="42.31672" lon="2.36412">
        <ele>1010.9</ele>
        <time>2019-01-07T22:23:01Z</time>
      </trkpt>
      <trkpt lat="42.31673" lon="2.36415">
        <ele>1011.3</ele>
        <time>2019-01-07T22:23:02Z</time>
      </trkpt>
      <trkpt lat="42.31673" lon="2.36419">
        <ele>1012.5</ele>
        <time>2019-01-07T22:23:02Z</time>
      </trkpt>
      <trkpt lat="42.31673" lon="2.36422">
        <ele>1013.5</ele>
        <time>2019-01-07T22:23:03Z</time>
      </trkpt>
      <trkpt lat="42.31671" lon="2.36425">
        <ele>1014.2</ele>
        <time>2019-01-07T22:23:04Z</time>
      </trkpt>
      <trkpt lat="42.3167" lon="2.36427">
        <ele>1014.8</ele>
        <time>2019-01-07T22:23:04Z</time>
      </trkpt>
      <trkpt lat="42.31668" lon="2.36429">
        <ele>1015.1</ele>
        <time>2019-01-07T22:23:05Z</time>
      </trkpt>
      <trkpt lat="42.31666" lon="2.3643">
        <ele>1015.3</ele>
        <time>2019-01-07T22:23:05Z</time>
      </trkpt>
      <trkpt lat="42.31664" lon="2.36431">
        <ele>1015.4</ele>
        <time>2019-01-07T22:23:06Z</time>
      </trkpt>
      <trkpt lat="42.31662" lon="2.36432">
        <ele>1015.4</ele>
        <time>2019-01-07T22:23:07Z</time>
      </trkpt>
      <trkpt lat="42.31658" lon="2.36433">
        <ele>1015.3</ele>
        <time>2019-01-07T22:23:08Z</time>
      </trkpt>
      <trkpt lat="42.31656" lon="2.36434">
        <ele>1015.5</ele>
        <time>2019-01-07T22:23:08Z</time>
      </trkpt>
      <trkpt lat="42.31653" lon="2.36435">
        <ele>1015.7</ele>
        <time>2019-01-07T22:23:09Z</time>
      </trkpt>
      <trkpt lat="42.3165" lon="2.36436">
        <ele>1015.3</ele>
        <time>2019-01-07T22:23:10Z</time>
      </trkpt>
      <trkpt lat="42.31647" lon="2.36436">
        <ele>1015.1</ele>
        <time>2019-01-07T22:23:11Z</time>
      </trkpt>
      <trkpt lat="42.31644" lon="2.36437">
        <ele>1015.2</ele>
        <time>2019-01-07T22:23:11Z</time>
      </trkpt>
      <trkpt lat="42.31642" lon="2.36438">
        <ele>1015.5</ele>
        <time>2019-01-07T22:23:12Z</time>
      </trkpt>
      <trkpt lat="42.3164" lon="2.36438">
        <ele>1015.4</ele>
        <time>2019-01-07T22:23:13Z</time>
      </trkpt>
      <trkpt lat="42.31638" lon="2.3644">
        <ele>1015.7</ele>
        <time>2019-01-07T22:23:13Z</time>
      </trkpt>
      <trkpt lat="42.31635" lon="2.36441">
        <ele>1016.1</ele>
        <time>2019-01-07T22:23:14Z</time>
      </trkpt>
      <trkpt lat="42.31633" lon="2.36442">
        <ele>1016</ele>
        <time>2019-01-07T22:23:15Z</time>
      </trkpt>
      <trkpt lat="42.3163" lon="2.36443">
        <ele>1016.2</ele>
        <time>2019-01-07T22:23:15Z</time>
      </trkpt>
      <trkpt lat="42.31627" lon="2.36445">
        <ele>1016.5</ele>
        <time>2019-01-07T22:23:16Z</time>
      </trkpt>
      <trkpt lat="42.31625" lon="2.36447">
        <ele>1016.7</ele>
        <time>2019-01-07T22:23:17Z</time>
      </trkpt>
      <trkpt lat="42.31623" lon="2.36448">
        <ele>1016.9</ele>
        <time>2019-01-07T22:23:18Z</time>
      </trkpt>
      <trkpt lat="42.31621" lon="2.3645">
        <ele>1017.1</ele>
        <time>2019-01-07T22:23:18Z</time>
      </trkpt>
      <trkpt lat="42.31619" lon="2.36454">
        <ele>1017.6</ele>
        <time>2019-01-07T22:23:19Z</time>
      </trkpt>
      <trkpt lat="42.31617" lon="2.36457">
        <ele>1018.3</ele>
        <time>2019-01-07T22:23:20Z</time>
      </trkpt>
      <trkpt lat="42.31615" lon="2.36461">
        <ele>1018.9</ele>
        <time>2019-01-07T22:23:21Z</time>
      </trkpt>
      <trkpt lat="42.31614" lon="2.36464">
        <ele>1019.5</ele>
        <time>2019-01-07T22:23:22Z</time>
      </trkpt>
      <trkpt lat="42.31613" lon="2.36467">
        <ele>1020.1</ele>
        <time>2019-01-07T22:23:22Z</time>
      </trkpt>
      <trkpt lat="42.31612" lon="2.3647">
        <ele>1020.9</ele>
        <time>2019-01-07T22:23:23Z</time>
      </trkpt>
      <trkpt lat="42.31611" lon="2.36474">
        <ele>1021.2</ele>
        <time>2019-01-07T22:23:24Z</time>
      </trkpt>
      <trkpt lat="42.3161" lon="2.36477">
        <ele>1021.4</ele>
        <time>2019-01-07T22:23:24Z</time>
      </trkpt>
      <trkpt lat="42.31608" lon="2.36479">
        <ele>1021.5</ele>
        <time>2019-01-07T22:23:25Z</time>
      </trkpt>
      <trkpt lat="42.31608" lon="2.36482">
        <ele>1021.9</ele>
        <time>2019-01-07T22:23:25Z</time>
      </trkpt>
      <trkpt lat="42.31606" lon="2.36485">
        <ele>1022.1</ele>
        <time>2019-01-07T22:23:26Z</time>
      </trkpt>
      <trkpt lat="42.31605" lon="2.36488">
        <ele>1022.4</ele>
        <time>2019-01-07T22:23:27Z</time>
      </trkpt>
      <trkpt lat="42.31604" lon="2.36491">
        <ele>1022.5</ele>
        <time>2019-01-07T22:23:27Z</time>
      </trkpt>
      <trkpt lat="42.31603" lon="2.36494">
        <ele>1022.8</ele>
        <time>2019-01-07T22:23:28Z</time>
      </trkpt>
      <trkpt lat="42.31602" lon="2.36496">
        <ele>1022.9</ele>
        <time>2019-01-07T22:23:29Z</time>
      </trkpt>
      <trkpt lat="42.31601" lon="2.36499">
        <ele>1023.1</ele>
        <time>2019-01-07T22:23:29Z</time>
      </trkpt>
      <trkpt lat="42.31599" lon="2.36501">
        <ele>1023.1</ele>
        <time>2019-01-07T22:23:30Z</time>
      </trkpt>
      <trkpt lat="42.31598" lon="2.36503">
        <ele>1023</ele>
        <time>2019-01-07T22:23:30Z</time>
      </trkpt>
      <trkpt lat="42.31597" lon="2.36506">
        <ele>1023</ele>
        <time>2019-01-07T22:23:31Z</time>
      </trkpt>
      <trkpt lat="42.31595" lon="2.36508">
        <ele>1022.9</ele>
        <time>2019-01-07T22:23:32Z</time>
      </trkpt>
      <trkpt lat="42.31594" lon="2.36511">
        <ele>1022.9</ele>
        <time>2019-01-07T22:23:32Z</time>
      </trkpt>
      <trkpt lat="42.31592" lon="2.36512">
        <ele>1022.6</ele>
        <time>2019-01-07T22:23:33Z</time>
      </trkpt>
      <trkpt lat="42.3159" lon="2.36515">
        <ele>1022.6</ele>
        <time>2019-01-07T22:23:34Z</time>
      </trkpt>
      <trkpt lat="42.31589" lon="2.36519">
        <ele>1023.1</ele>
        <time>2019-01-07T22:23:34Z</time>
      </trkpt>
      <trkpt lat="42.31589" lon="2.36522">
        <ele>1023.6</ele>
        <time>2019-01-07T22:23:35Z</time>
      </trkpt>
      <trkpt lat="42.31588" lon="2.36525">
        <ele>1023.8</ele>
        <time>2019-01-07T22:23:36Z</time>
      </trkpt>
      <trkpt lat="42.31586" lon="2.36529">
        <ele>1023.9</ele>
        <time>2019-01-07T22:23:37Z</time>
      </trkpt>
      <trkpt lat="42.31583" lon="2.36532">
        <ele>1023.4</ele>
        <time>2019-01-07T22:23:37Z</time>
      </trkpt>
      <trkpt lat="42.31581" lon="2.36535">
        <ele>1022.3</ele>
        <time>2019-01-07T22:23:38Z</time>
      </trkpt>
      <trkpt lat="42.31579" lon="2.36538">
        <ele>1021.7</ele>
        <time>2019-01-07T22:23:39Z</time>
      </trkpt>
      <trkpt lat="42.31577" lon="2.36541">
        <ele>1021</ele>
        <time>2019-01-07T22:23:40Z</time>
      </trkpt>
      <trkpt lat="42.31576" lon="2.36545">
        <ele>1020.4</ele>
        <time>2019-01-07T22:23:41Z</time>
      </trkpt>
      <trkpt lat="42.31574" lon="2.36548">
        <ele>1019.7</ele>
        <time>2019-01-07T22:23:42Z</time>
      </trkpt>
      <trkpt lat="42.31573" lon="2.36551">
        <ele>1019.5</ele>
        <time>2019-01-07T22:23:42Z</time>
      </trkpt>
      <trkpt lat="42.3157" lon="2.36553">
        <ele>1018.8</ele>
        <time>2019-01-07T22:23:43Z</time>
      </trkpt>
      <trkpt lat="42.31568" lon="2.36555">
        <ele>1017.8</ele>
        <time>2019-01-07T22:23:44Z</time>
      </trkpt>
      <trkpt lat="42.31566" lon="2.36558">
        <ele>1016.7</ele>
        <time>2019-01-07T22:23:45Z</time>
      </trkpt>
      <trkpt lat="42.31564" lon="2.36561">
        <ele>1016.1</ele>
        <time>2019-01-07T22:23:45Z</time>
      </trkpt>
      <trkpt lat="42.31563" lon="2.36565">
        <ele>1015.3</ele>
        <time>2019-01-07T22:23:46Z</time>
      </trkpt>
      <trkpt lat="42.31562" lon="2.36568">
        <ele>1014.7</ele>
        <time>2019-01-07T22:23:47Z</time>
      </trkpt>
      <trkpt lat="42.31562" lon="2.36572">
        <ele>1014.7</ele>
        <time>2019-01-07T22:23:48Z</time>
      </trkpt>
      <trkpt lat="42.31562" lon="2.36576">
        <ele>1014.4</ele>
        <time>2019-01-07T22:23:48Z</time>
      </trkpt>
      <trkpt lat="42.31562" lon="2.3658">
        <ele>1014.4</ele>
        <time>2019-01-07T22:23:49Z</time>
      </trkpt>
      <trkpt lat="42.31562" lon="2.36584">
        <ele>1014.4</ele>
        <time>2019-01-07T22:23:50Z</time>
      </trkpt>
      <trkpt lat="42.31563" lon="2.36588">
        <ele>1014.5</ele>
        <time>2019-01-07T22:23:51Z</time>
      </trkpt>
      <trkpt lat="42.31563" lon="2.36592">
        <ele>1014.6</ele>
        <time>2019-01-07T22:23:52Z</time>
      </trkpt>
      <trkpt lat="42.31563" lon="2.36595">
        <ele>1014.3</ele>
        <time>2019-01-07T22:23:52Z</time>
      </trkpt>
      <trkpt lat="42.31563" lon="2.36599">
        <ele>1014.1</ele>
        <time>2019-01-07T22:23:53Z</time>
      </trkpt>
      <trkpt lat="42.31562" lon="2.36603">
        <ele>1013.8</ele>
        <time>2019-01-07T22:23:54Z</time>
      </trkpt>
      <trkpt lat="42.31562" lon="2.36608">
        <ele>1013.5</ele>
        <time>2019-01-07T22:23:55Z</time>
      </trkpt>
      <trkpt lat="42.31562" lon="2.36612">
        <ele>1013.2</ele>
        <time>2019-01-07T22:23:55Z</time>
      </trkpt>
      <trkpt lat="42.31562" lon="2.36616">
        <ele>1013</ele>
        <time>2019-01-07T22:23:56Z</time>
      </trkpt>
      <trkpt lat="42.31561" lon="2.3662">
        <ele>1012.8</ele>
        <time>2019-01-07T22:23:57Z</time>
      </trkpt>
      <trkpt lat="42.3156" lon="2.36623">
        <ele>1012.5</ele>
        <time>2019-01-07T22:23:58Z</time>
      </trkpt>
      <trkpt lat="42.3156" lon="2.36626">
        <ele>1012.3</ele>
        <time>2019-01-07T22:23:58Z</time>
      </trkpt>
      <trkpt lat="42.3156" lon="2.36629">
        <ele>1012.2</ele>
        <time>2019-01-07T22:23:59Z</time>
      </trkpt>
      <trkpt lat="42.3156" lon="2.36633">
        <ele>1011.9</ele>
        <time>2019-01-07T22:24:00Z</time>
      </trkpt>
      <trkpt lat="42.31559" lon="2.36637">
        <ele>1011.4</ele>
        <time>2019-01-07T22:24:00Z</time>
      </trkpt>
      <trkpt lat="42.31558" lon="2.36641">
        <ele>1011.1</ele>
        <time>2019-01-07T22:24:01Z</time>
      </trkpt>
      <trkpt lat="42.31558" lon="2.36644">
        <ele>1010.7</ele>
        <time>2019-01-07T22:24:02Z</time>
      </trkpt>
      <trkpt lat="42.31557" lon="2.36648">
        <ele>1010.3</ele>
        <time>2019-01-07T22:24:03Z</time>
      </trkpt>
      <trkpt lat="42.31556" lon="2.36651">
        <ele>1009.9</ele>
        <time>2019-01-07T22:24:03Z</time>
      </trkpt>
      <trkpt lat="42.31555" lon="2.36654">
        <ele>1009.2</ele>
        <time>2019-01-07T22:24:04Z</time>
      </trkpt>
      <trkpt lat="42.31555" lon="2.36658">
        <ele>1009.1</ele>
        <time>2019-01-07T22:24:05Z</time>
      </trkpt>
      <trkpt lat="42.31555" lon="2.36662">
        <ele>1009.1</ele>
        <time>2019-01-07T22:24:06Z</time>
      </trkpt>
      <trkpt lat="42.31555" lon="2.36666">
        <ele>1008.9</ele>
        <time>2019-01-07T22:24:06Z</time>
      </trkpt>
      <trkpt lat="42.31554" lon="2.3667">
        <ele>1008.7</ele>
        <time>2019-01-07T22:24:07Z</time>
      </trkpt>
      <trkpt lat="42.31554" lon="2.36675">
        <ele>1008.7</ele>
        <time>2019-01-07T22:24:08Z</time>
      </trkpt>
      <trkpt lat="42.31554" lon="2.36679">
        <ele>1008.5</ele>
        <time>2019-01-07T22:24:09Z</time>
      </trkpt>
      <trkpt lat="42.31554" lon="2.36682">
        <ele>1008.4</ele>
        <time>2019-01-07T22:24:10Z</time>
      </trkpt>
      <trkpt lat="42.31554" lon="2.36685">
        <ele>1008.3</ele>
        <time>2019-01-07T22:24:10Z</time>
      </trkpt>
      <trkpt lat="42.31551" lon="2.36686">
        <ele>1007.4</ele>
        <time>2019-01-07T22:24:11Z</time>
      </trkpt>
      <trkpt lat="42.31549" lon="2.36689">
        <ele>1006.9</ele>
        <time>2019-01-07T22:24:12Z</time>
      </trkpt>
      <trkpt lat="42.3155" lon="2.36692">
        <ele>1006.9</ele>
        <time>2019-01-07T22:24:12Z</time>
      </trkpt>
      <trkpt lat="42.31549" lon="2.36696">
        <ele>1006.8</ele>
        <time>2019-01-07T22:24:13Z</time>
      </trkpt>
      <trkpt lat="42.31548" lon="2.36699">
        <ele>1006</ele>
        <time>2019-01-07T22:24:14Z</time>
      </trkpt>
      <trkpt lat="42.31546" lon="2.36703">
        <ele>1004.9</ele>
        <time>2019-01-07T22:24:15Z</time>
      </trkpt>
      <trkpt lat="42.31543" lon="2.36705">
        <ele>1003.7</ele>
        <time>2019-01-07T22:24:16Z</time>
      </trkpt>
      <trkpt lat="42.31541" lon="2.36706">
        <ele>1002.7</ele>
        <time>2019-01-07T22:24:16Z</time>
      </trkpt>
      <trkpt lat="42.31537" lon="2.36706">
        <ele>1001.1</ele>
        <time>2019-01-07T22:24:17Z</time>
      </trkpt>
      <trkpt lat="42.31534" lon="2.36703">
        <ele>1000.3</ele>
        <time>2019-01-07T22:24:18Z</time>
      </trkpt>
      <trkpt lat="42.31533" lon="2.36701">
        <ele>1000</ele>
        <time>2019-01-07T22:24:19Z</time>
      </trkpt>
      <trkpt lat="42.31531" lon="2.36698">
        <ele>999.7</ele>
        <time>2019-01-07T22:24:20Z</time>
      </trkpt>
      <trkpt lat="42.31529" lon="2.36695">
        <ele>999.7</ele>
        <time>2019-01-07T22:24:20Z</time>
      </trkpt>
      <trkpt lat="42.31528" lon="2.36691">
        <ele>999.2</ele>
        <time>2019-01-07T22:24:21Z</time>
      </trkpt>
      <trkpt lat="42.31526" lon="2.36687">
        <ele>998.8</ele>
        <time>2019-01-07T22:24:22Z</time>
      </trkpt>
      <trkpt lat="42.31525" lon="2.36683">
        <ele>998.5</ele>
        <time>2019-01-07T22:24:23Z</time>
      </trkpt>
      <trkpt lat="42.31523" lon="2.36679">
        <ele>997.9</ele>
        <time>2019-01-07T22:24:24Z</time>
      </trkpt>
      <trkpt lat="42.31522" lon="2.36675">
        <ele>997.8</ele>
        <time>2019-01-07T22:24:25Z</time>
      </trkpt>
      <trkpt lat="42.31521" lon="2.36672">
        <ele>997.7</ele>
        <time>2019-01-07T22:24:25Z</time>
      </trkpt>
      <trkpt lat="42.3152" lon="2.36668">
        <ele>997.3</ele>
        <time>2019-01-07T22:24:26Z</time>
      </trkpt>
      <trkpt lat="42.31519" lon="2.36664">
        <ele>997.2</ele>
        <time>2019-01-07T22:24:27Z</time>
      </trkpt>
      <trkpt lat="42.31518" lon="2.3666">
        <ele>996.5</ele>
        <time>2019-01-07T22:24:28Z</time>
      </trkpt>
      <trkpt lat="42.31516" lon="2.36657">
        <ele>995.6</ele>
        <time>2019-01-07T22:24:29Z</time>
      </trkpt>
      <trkpt lat="42.31513" lon="2.36655">
        <ele>994.5</ele>
        <time>2019-01-07T22:24:30Z</time>
      </trkpt>
      <trkpt lat="42.31509" lon="2.36655">
        <ele>993.1</ele>
        <time>2019-01-07T22:24:30Z</time>
      </trkpt>
      <trkpt lat="42.31506" lon="2.36656">
        <ele>992.3</ele>
        <time>2019-01-07T22:24:31Z</time>
      </trkpt>
      <trkpt lat="42.31504" lon="2.36659">
        <ele>991.8</ele>
        <time>2019-01-07T22:24:32Z</time>
      </trkpt>
      <trkpt lat="42.31503" lon="2.36663">
        <ele>991.5</ele>
        <time>2019-01-07T22:24:33Z</time>
      </trkpt>
      <trkpt lat="42.31501" lon="2.36668">
        <ele>991.4</ele>
        <time>2019-01-07T22:24:34Z</time>
      </trkpt>
      <trkpt lat="42.315" lon="2.36672">
        <ele>990.4</ele>
        <time>2019-01-07T22:24:35Z</time>
      </trkpt>
      <trkpt lat="42.31499" lon="2.36677">
        <ele>989.6</ele>
        <time>2019-01-07T22:24:36Z</time>
      </trkpt>
      <trkpt lat="42.31498" lon="2.36681">
        <ele>989</ele>
        <time>2019-01-07T22:24:37Z</time>
      </trkpt>
      <trkpt lat="42.31498" lon="2.36685">
        <ele>988.1</ele>
        <time>2019-01-07T22:24:37Z</time>
      </trkpt>
      <trkpt lat="42.31498" lon="2.36687">
        <ele>987.8</ele>
        <time>2019-01-07T22:24:38Z</time>
      </trkpt>
      <trkpt lat="42.31498" lon="2.36692">
        <ele>987.5</ele>
        <time>2019-01-07T22:24:39Z</time>
      </trkpt>
      <trkpt lat="42.31498" lon="2.36696">
        <ele>986.9</ele>
        <time>2019-01-07T22:24:40Z</time>
      </trkpt>
      <trkpt lat="42.31499" lon="2.367">
        <ele>986.2</ele>
        <time>2019-01-07T22:24:40Z</time>
      </trkpt>
      <trkpt lat="42.315" lon="2.36704">
        <ele>985.3</ele>
        <time>2019-01-07T22:24:41Z</time>
      </trkpt>
      <trkpt lat="42.31501" lon="2.36706">
        <ele>985</ele>
        <time>2019-01-07T22:24:42Z</time>
      </trkpt>
      <trkpt lat="42.31502" lon="2.3671">
        <ele>984.6</ele>
        <time>2019-01-07T22:24:43Z</time>
      </trkpt>
      <trkpt lat="42.31503" lon="2.36714">
        <ele>983.8</ele>
        <time>2019-01-07T22:24:43Z</time>
      </trkpt>
      <trkpt lat="42.31504" lon="2.36718">
        <ele>983.3</ele>
        <time>2019-01-07T22:24:44Z</time>
      </trkpt>
      <trkpt lat="42.31505" lon="2.36722">
        <ele>982.8</ele>
        <time>2019-01-07T22:24:45Z</time>
      </trkpt>
      <trkpt lat="42.31506" lon="2.36726">
        <ele>982.5</ele>
        <time>2019-01-07T22:24:46Z</time>
      </trkpt>
      <trkpt lat="42.31508" lon="2.3673">
        <ele>983</ele>
        <time>2019-01-07T22:24:47Z</time>
      </trkpt>
      <trkpt lat="42.31509" lon="2.36731">
        <ele>983.1</ele>
        <time>2019-01-07T22:24:47Z</time>
      </trkpt>
      <trkpt lat="42.3151" lon="2.36734">
        <ele>983.1</ele>
        <time>2019-01-07T22:24:48Z</time>
      </trkpt>
      <trkpt lat="42.31511" lon="2.36736">
        <ele>983</ele>
        <time>2019-01-07T22:24:48Z</time>
      </trkpt>
      <trkpt lat="42.31512" lon="2.3674">
        <ele>982.8</ele>
        <time>2019-01-07T22:24:49Z</time>
      </trkpt>
      <trkpt lat="42.31512" lon="2.36745">
        <ele>981.9</ele>
        <time>2019-01-07T22:24:50Z</time>
      </trkpt>
      <trkpt lat="42.31512" lon="2.3675">
        <ele>980.9</ele>
        <time>2019-01-07T22:24:51Z</time>
      </trkpt>
      <trkpt lat="42.31511" lon="2.36754">
        <ele>980.4</ele>
        <time>2019-01-07T22:24:52Z</time>
      </trkpt>
      <trkpt lat="42.3151" lon="2.36758">
        <ele>979.6</ele>
        <time>2019-01-07T22:24:53Z</time>
      </trkpt>
      <trkpt lat="42.31509" lon="2.36761">
        <ele>979</ele>
        <time>2019-01-07T22:24:53Z</time>
      </trkpt>
      <trkpt lat="42.31508" lon="2.36765">
        <ele>978</ele>
        <time>2019-01-07T22:24:54Z</time>
      </trkpt>
      <trkpt lat="42.31507" lon="2.36769">
        <ele>977.2</ele>
        <time>2019-01-07T22:24:55Z</time>
      </trkpt>
      <trkpt lat="42.31506" lon="2.36773">
        <ele>976.3</ele>
        <time>2019-01-07T22:24:56Z</time>
      </trkpt>
      <trkpt lat="42.31506" lon="2.36776">
        <ele>976</ele>
        <time>2019-01-07T22:24:56Z</time>
      </trkpt>
      <trkpt lat="42.31505" lon="2.36778">
        <ele>975.7</ele>
        <time>2019-01-07T22:24:57Z</time>
      </trkpt>
      <trkpt lat="42.31504" lon="2.36782">
        <ele>975</ele>
        <time>2019-01-07T22:24:58Z</time>
      </trkpt>
      <trkpt lat="42.31503" lon="2.36786">
        <ele>974</ele>
        <time>2019-01-07T22:24:59Z</time>
      </trkpt>
      <trkpt lat="42.31502" lon="2.36788">
        <ele>973.8</ele>
        <time>2019-01-07T22:24:59Z</time>
      </trkpt>
      <trkpt lat="42.315" lon="2.36792">
        <ele>972.8</ele>
        <time>2019-01-07T22:25:00Z</time>
      </trkpt>
      <trkpt lat="42.31499" lon="2.36797">
        <ele>972</ele>
        <time>2019-01-07T22:25:01Z</time>
      </trkpt>
      <trkpt lat="42.31498" lon="2.36801">
        <ele>971.3</ele>
        <time>2019-01-07T22:25:02Z</time>
      </trkpt>
      <trkpt lat="42.31497" lon="2.36805">
        <ele>970.8</ele>
        <time>2019-01-07T22:25:03Z</time>
      </trkpt>
      <trkpt lat="42.31496" lon="2.36809">
        <ele>970.2</ele>
        <time>2019-01-07T22:25:04Z</time>
      </trkpt>
      <trkpt lat="42.31495" lon="2.36811">
        <ele>969.9</ele>
        <time>2019-01-07T22:25:04Z</time>
      </trkpt>
      <trkpt lat="42.31494" lon="2.36816">
        <ele>969.2</ele>
        <time>2019-01-07T22:25:05Z</time>
      </trkpt>
      <trkpt lat="42.31492" lon="2.3682">
        <ele>968.3</ele>
        <time>2019-01-07T22:25:06Z</time>
      </trkpt>
      <trkpt lat="42.31491" lon="2.36822">
        <ele>967.8</ele>
        <time>2019-01-07T22:25:06Z</time>
      </trkpt>
      <trkpt lat="42.3149" lon="2.36824">
        <ele>967.4</ele>
        <time>2019-01-07T22:25:07Z</time>
      </trkpt>
      <trkpt lat="42.31489" lon="2.36828">
        <ele>966.5</ele>
        <time>2019-01-07T22:25:08Z</time>
      </trkpt>
      <trkpt lat="42.31488" lon="2.36832">
        <ele>965.7</ele>
        <time>2019-01-07T22:25:09Z</time>
      </trkpt>
      <trkpt lat="42.31486" lon="2.36836">
        <ele>965.1</ele>
        <time>2019-01-07T22:25:10Z</time>
      </trkpt>
      <trkpt lat="42.31485" lon="2.3684">
        <ele>964.9</ele>
        <time>2019-01-07T22:25:10Z</time>
      </trkpt>
      <trkpt lat="42.31484" lon="2.36844">
        <ele>964.4</ele>
        <time>2019-01-07T22:25:11Z</time>
      </trkpt>
      <trkpt lat="42.31483" lon="2.36846">
        <ele>964.2</ele>
        <time>2019-01-07T22:25:12Z</time>
      </trkpt>
      <trkpt lat="42.31481" lon="2.3685">
        <ele>963.7</ele>
        <time>2019-01-07T22:25:13Z</time>
      </trkpt>
      <trkpt lat="42.31479" lon="2.36853">
        <ele>963.3</ele>
        <time>2019-01-07T22:25:13Z</time>
      </trkpt>
      <trkpt lat="42.31478" lon="2.36856">
        <ele>963.1</ele>
        <time>2019-01-07T22:25:14Z</time>
      </trkpt>
      <trkpt lat="42.31478" lon="2.36858">
        <ele>963.2</ele>
        <time>2019-01-07T22:25:14Z</time>
      </trkpt>
      <trkpt lat="42.31476" lon="2.36862">
        <ele>963</ele>
        <time>2019-01-07T22:25:15Z</time>
      </trkpt>
      <trkpt lat="42.31475" lon="2.36865">
        <ele>962.9</ele>
        <time>2019-01-07T22:25:16Z</time>
      </trkpt>
      <trkpt lat="42.31474" lon="2.36869">
        <ele>962.7</ele>
        <time>2019-01-07T22:25:17Z</time>
      </trkpt>
      <trkpt lat="42.31472" lon="2.36872">
        <ele>962.5</ele>
        <time>2019-01-07T22:25:18Z</time>
      </trkpt>
      <trkpt lat="42.3147" lon="2.36875">
        <ele>962.1</ele>
        <time>2019-01-07T22:25:18Z</time>
      </trkpt>
      <trkpt lat="42.31469" lon="2.36879">
        <ele>962.1</ele>
        <time>2019-01-07T22:25:19Z</time>
      </trkpt>
      <trkpt lat="42.31467" lon="2.36882">
        <ele>961.7</ele>
        <time>2019-01-07T22:25:20Z</time>
      </trkpt>
      <trkpt lat="42.31466" lon="2.36885">
        <ele>961.5</ele>
        <time>2019-01-07T22:25:21Z</time>
      </trkpt>
      <trkpt lat="42.31465" lon="2.36889">
        <ele>961.4</ele>
        <time>2019-01-07T22:25:21Z</time>
      </trkpt>
      <trkpt lat="42.31464" lon="2.36892">
        <ele>961.2</ele>
        <time>2019-01-07T22:25:22Z</time>
      </trkpt>
      <trkpt lat="42.31463" lon="2.36895">
        <ele>961.1</ele>
        <time>2019-01-07T22:25:23Z</time>
      </trkpt>
      <trkpt lat="42.31462" lon="2.36899">
        <ele>960.7</ele>
        <time>2019-01-07T22:25:24Z</time>
      </trkpt>
      <trkpt lat="42.31459" lon="2.36901">
        <ele>960.2</ele>
        <time>2019-01-07T22:25:24Z</time>
      </trkpt>
      <trkpt lat="42.31457" lon="2.36902">
        <ele>959.9</ele>
        <time>2019-01-07T22:25:25Z</time>
      </trkpt>
      <trkpt lat="42.31455" lon="2.36902">
        <ele>959.6</ele>
        <time>2019-01-07T22:25:25Z</time>
      </trkpt>
      <trkpt lat="42.31454" lon="2.36901">
        <ele>959.2</ele>
        <time>2019-01-07T22:25:26Z</time>
      </trkpt>
      <trkpt lat="42.31452" lon="2.36901">
        <ele>958.9</ele>
        <time>2019-01-07T22:25:26Z</time>
      </trkpt>
      <trkpt lat="42.3145" lon="2.36901">
        <ele>958.7</ele>
        <time>2019-01-07T22:25:27Z</time>
      </trkpt>
      <trkpt lat="42.31447" lon="2.36901">
        <ele>958</ele>
        <time>2019-01-07T22:25:28Z</time>
      </trkpt>
      <trkpt lat="42.31445" lon="2.36904">
        <ele>957.6</ele>
        <time>2019-01-07T22:25:28Z</time>
      </trkpt>
      <trkpt lat="42.31444" lon="2.36906">
        <ele>957.6</ele>
        <time>2019-01-07T22:25:29Z</time>
      </trkpt>
      <trkpt lat="42.31443" lon="2.36907">
        <ele>957.5</ele>
        <time>2019-01-07T22:25:29Z</time>
      </trkpt>
      <trkpt lat="42.31441" lon="2.36911">
        <ele>957.3</ele>
        <time>2019-01-07T22:25:30Z</time>
      </trkpt>
      <trkpt lat="42.31441" lon="2.36915">
        <ele>957.6</ele>
        <time>2019-01-07T22:25:31Z</time>
      </trkpt>
      <trkpt lat="42.31442" lon="2.3692">
        <ele>957.6</ele>
        <time>2019-01-07T22:25:32Z</time>
      </trkpt>
      <trkpt lat="42.31442" lon="2.36923">
        <ele>957.4</ele>
        <time>2019-01-07T22:25:33Z</time>
      </trkpt>
      <trkpt lat="42.31442" lon="2.36927">
        <ele>957.3</ele>
        <time>2019-01-07T22:25:33Z</time>
      </trkpt>
      <trkpt lat="42.31442" lon="2.36931">
        <ele>957.2</ele>
        <time>2019-01-07T22:25:34Z</time>
      </trkpt>
      <trkpt lat="42.31443" lon="2.36935">
        <ele>957.2</ele>
        <time>2019-01-07T22:25:35Z</time>
      </trkpt>
      <trkpt lat="42.31443" lon="2.36939">
        <ele>957.1</ele>
        <time>2019-01-07T22:25:36Z</time>
      </trkpt>
      <trkpt lat="42.31444" lon="2.36943">
        <ele>957</ele>
        <time>2019-01-07T22:25:37Z</time>
      </trkpt>
      <trkpt lat="42.31444" lon="2.36947">
        <ele>957</ele>
        <time>2019-01-07T22:25:37Z</time>
      </trkpt>
      <trkpt lat="42.31445" lon="2.36951">
        <ele>957.3</ele>
        <time>2019-01-07T22:25:38Z</time>
      </trkpt>
      <trkpt lat="42.31445" lon="2.36955">
        <ele>957.2</ele>
        <time>2019-01-07T22:25:39Z</time>
      </trkpt>
      <trkpt lat="42.31446" lon="2.36959">
        <ele>957.5</ele>
        <time>2019-01-07T22:25:40Z</time>
      </trkpt>
      <trkpt lat="42.31447" lon="2.36963">
        <ele>957.6</ele>
        <time>2019-01-07T22:25:41Z</time>
      </trkpt>
      <trkpt lat="42.31449" lon="2.36967">
        <ele>958</ele>
        <time>2019-01-07T22:25:41Z</time>
      </trkpt>
      <trkpt lat="42.31449" lon="2.36971">
        <ele>958.3</ele>
        <time>2019-01-07T22:25:42Z</time>
      </trkpt>
      <trkpt lat="42.3145" lon="2.36974">
        <ele>958.4</ele>
        <time>2019-01-07T22:25:43Z</time>
      </trkpt>
      <trkpt lat="42.31452" lon="2.36978">
        <ele>958.5</ele>
        <time>2019-01-07T22:25:44Z</time>
      </trkpt>
      <trkpt lat="42.31453" lon="2.36982">
        <ele>958.5</ele>
        <time>2019-01-07T22:25:45Z</time>
      </trkpt>
      <trkpt lat="42.31455" lon="2.36986">
        <ele>958.7</ele>
        <time>2019-01-07T22:25:46Z</time>
      </trkpt>
      <trkpt lat="42.31456" lon="2.36989">
        <ele>959</ele>
        <time>2019-01-07T22:25:46Z</time>
      </trkpt>
      <trkpt lat="42.31457" lon="2.36992">
        <ele>959.2</ele>
        <time>2019-01-07T22:25:47Z</time>
      </trkpt>
      <trkpt lat="42.31459" lon="2.36996">
        <ele>959.3</ele>
        <time>2019-01-07T22:25:48Z</time>
      </trkpt>
      <trkpt lat="42.3146" lon="2.37">
        <ele>959.5</ele>
        <time>2019-01-07T22:25:49Z</time>
      </trkpt>
      <trkpt lat="42.3146" lon="2.37004">
        <ele>959.2</ele>
        <time>2019-01-07T22:25:50Z</time>
      </trkpt>
      <trkpt lat="42.31461" lon="2.37009">
        <ele>959.2</ele>
        <time>2019-01-07T22:25:50Z</time>
      </trkpt>
      <trkpt lat="42.31462" lon="2.37013">
        <ele>959.2</ele>
        <time>2019-01-07T22:25:51Z</time>
      </trkpt>
      <trkpt lat="42.31463" lon="2.37017">
        <ele>959.3</ele>
        <time>2019-01-07T22:25:52Z</time>
      </trkpt>
      <trkpt lat="42.31464" lon="2.37021">
        <ele>959.5</ele>
        <time>2019-01-07T22:25:53Z</time>
      </trkpt>
      <trkpt lat="42.31466" lon="2.37024">
        <ele>959.6</ele>
        <time>2019-01-07T22:25:54Z</time>
      </trkpt>
      <trkpt lat="42.31467" lon="2.37028">
        <ele>959.9</ele>
        <time>2019-01-07T22:25:55Z</time>
      </trkpt>
      <trkpt lat="42.31468" lon="2.37032">
        <ele>959.7</ele>
        <time>2019-01-07T22:25:55Z</time>
      </trkpt>
      <trkpt lat="42.3147" lon="2.37035">
        <ele>959.7</ele>
        <time>2019-01-07T22:25:56Z</time>
      </trkpt>
      <trkpt lat="42.31471" lon="2.37039">
        <ele>959.7</ele>
        <time>2019-01-07T22:25:57Z</time>
      </trkpt>
      <trkpt lat="42.31472" lon="2.37042">
        <ele>959.5</ele>
        <time>2019-01-07T22:25:58Z</time>
      </trkpt>
      <trkpt lat="42.31473" lon="2.37046">
        <ele>959.3</ele>
        <time>2019-01-07T22:25:59Z</time>
      </trkpt>
      <trkpt lat="42.31475" lon="2.37049">
        <ele>959.4</ele>
        <time>2019-01-07T22:25:59Z</time>
      </trkpt>
      <trkpt lat="42.31476" lon="2.37053">
        <ele>959.2</ele>
        <time>2019-01-07T22:26:00Z</time>
      </trkpt>
      <trkpt lat="42.31477" lon="2.37057">
        <ele>958.9</ele>
        <time>2019-01-07T22:26:01Z</time>
      </trkpt>
      <trkpt lat="42.31478" lon="2.3706">
        <ele>959.1</ele>
        <time>2019-01-07T22:26:02Z</time>
      </trkpt>
      <trkpt lat="42.31479" lon="2.37064">
        <ele>959.2</ele>
        <time>2019-01-07T22:26:02Z</time>
      </trkpt>
      <trkpt lat="42.3148" lon="2.37068">
        <ele>959.3</ele>
        <time>2019-01-07T22:26:03Z</time>
      </trkpt>
      <trkpt lat="42.31482" lon="2.37072">
        <ele>959.6</ele>
        <time>2019-01-07T22:26:04Z</time>
      </trkpt>
      <trkpt lat="42.31483" lon="2.37076">
        <ele>959.3</ele>
        <time>2019-01-07T22:26:05Z</time>
      </trkpt>
      <trkpt lat="42.31483" lon="2.3708">
        <ele>959.3</ele>
        <time>2019-01-07T22:26:06Z</time>
      </trkpt>
      <trkpt lat="42.31484" lon="2.37084">
        <ele>959</ele>
        <time>2019-01-07T22:26:07Z</time>
      </trkpt>
      <trkpt lat="42.31483" lon="2.37089">
        <ele>958.8</ele>
        <time>2019-01-07T22:26:08Z</time>
      </trkpt>
      <trkpt lat="42.31484" lon="2.37092">
        <ele>958.7</ele>
        <time>2019-01-07T22:26:08Z</time>
      </trkpt>
      <trkpt lat="42.31484" lon="2.37097">
        <ele>958.8</ele>
        <time>2019-01-07T22:26:09Z</time>
      </trkpt>
      <trkpt lat="42.31484" lon="2.37101">
        <ele>958.6</ele>
        <time>2019-01-07T22:26:10Z</time>
      </trkpt>
      <trkpt lat="42.31484" lon="2.37106">
        <ele>958.4</ele>
        <time>2019-01-07T22:26:11Z</time>
      </trkpt>
      <trkpt lat="42.31484" lon="2.3711">
        <ele>958.4</ele>
        <time>2019-01-07T22:26:12Z</time>
      </trkpt>
      <trkpt lat="42.31484" lon="2.37114">
        <ele>958.3</ele>
        <time>2019-01-07T22:26:13Z</time>
      </trkpt>
      <trkpt lat="42.31484" lon="2.37119">
        <ele>958</ele>
        <time>2019-01-07T22:26:14Z</time>
      </trkpt>
      <trkpt lat="42.31483" lon="2.37123">
        <ele>957.8</ele>
        <time>2019-01-07T22:26:14Z</time>
      </trkpt>
      <trkpt lat="42.31483" lon="2.37127">
        <ele>957.6</ele>
        <time>2019-01-07T22:26:15Z</time>
      </trkpt>
      <trkpt lat="42.31482" lon="2.37131">
        <ele>957.4</ele>
        <time>2019-01-07T22:26:16Z</time>
      </trkpt>
      <trkpt lat="42.31482" lon="2.37135">
        <ele>957.3</ele>
        <time>2019-01-07T22:26:17Z</time>
      </trkpt>
      <trkpt lat="42.31481" lon="2.37139">
        <ele>957.1</ele>
        <time>2019-01-07T22:26:18Z</time>
      </trkpt>
      <trkpt lat="42.3148" lon="2.37144">
        <ele>956.7</ele>
        <time>2019-01-07T22:26:19Z</time>
      </trkpt>
      <trkpt lat="42.31479" lon="2.37148">
        <ele>956.6</ele>
        <time>2019-01-07T22:26:19Z</time>
      </trkpt>
      <trkpt lat="42.31478" lon="2.37152">
        <ele>956.4</ele>
        <time>2019-01-07T22:26:20Z</time>
      </trkpt>
      <trkpt lat="42.31477" lon="2.37156">
        <ele>956.3</ele>
        <time>2019-01-07T22:26:21Z</time>
      </trkpt>
      <trkpt lat="42.31477" lon="2.3716">
        <ele>956.1</ele>
        <time>2019-01-07T22:26:22Z</time>
      </trkpt>
      <trkpt lat="42.31475" lon="2.37164">
        <ele>956</ele>
        <time>2019-01-07T22:26:23Z</time>
      </trkpt>
      <trkpt lat="42.31474" lon="2.37167">
        <ele>955.6</ele>
        <time>2019-01-07T22:26:24Z</time>
      </trkpt>
      <trkpt lat="42.31471" lon="2.37168">
        <ele>955</ele>
        <time>2019-01-07T22:26:24Z</time>
      </trkpt>
      <trkpt lat="42.31468" lon="2.37169">
        <ele>954.7</ele>
        <time>2019-01-07T22:26:25Z</time>
      </trkpt>
      <trkpt lat="42.31466" lon="2.37169">
        <ele>954.6</ele>
        <time>2019-01-07T22:26:26Z</time>
      </trkpt>
      <trkpt lat="42.31464" lon="2.37169">
        <ele>954.3</ele>
        <time>2019-01-07T22:26:26Z</time>
      </trkpt>
      <trkpt lat="42.31461" lon="2.37169">
        <ele>954.3</ele>
        <time>2019-01-07T22:26:27Z</time>
      </trkpt>
      <trkpt lat="42.31458" lon="2.37169">
        <ele>954</ele>
        <time>2019-01-07T22:26:28Z</time>
      </trkpt>
      <trkpt lat="42.31454" lon="2.3717">
        <ele>953.6</ele>
        <time>2019-01-07T22:26:29Z</time>
      </trkpt>
      <trkpt lat="42.31452" lon="2.3717">
        <ele>953.5</ele>
        <time>2019-01-07T22:26:29Z</time>
      </trkpt>
      <trkpt lat="42.31449" lon="2.37171">
        <ele>953.2</ele>
        <time>2019-01-07T22:26:30Z</time>
      </trkpt>
      <trkpt lat="42.31447" lon="2.37172">
        <ele>953</ele>
        <time>2019-01-07T22:26:31Z</time>
      </trkpt>
      <trkpt lat="42.31444" lon="2.37173">
        <ele>952.8</ele>
        <time>2019-01-07T22:26:32Z</time>
      </trkpt>
      <trkpt lat="42.31441" lon="2.37174">
        <ele>952.6</ele>
        <time>2019-01-07T22:26:33Z</time>
      </trkpt>
      <trkpt lat="42.31438" lon="2.37176">
        <ele>952.6</ele>
        <time>2019-01-07T22:26:33Z</time>
      </trkpt>
      <trkpt lat="42.31436" lon="2.3718">
        <ele>952.4</ele>
        <time>2019-01-07T22:26:34Z</time>
      </trkpt>
      <trkpt lat="42.31434" lon="2.37183">
        <ele>952.1</ele>
        <time>2019-01-07T22:26:35Z</time>
      </trkpt>
      <trkpt lat="42.31432" lon="2.37186">
        <ele>951.9</ele>
        <time>2019-01-07T22:26:36Z</time>
      </trkpt>
      <trkpt lat="42.3143" lon="2.37189">
        <ele>951.8</ele>
        <time>2019-01-07T22:26:37Z</time>
      </trkpt>
      <trkpt lat="42.31428" lon="2.37192">
        <ele>951.6</ele>
        <time>2019-01-07T22:26:38Z</time>
      </trkpt>
      <trkpt lat="42.31425" lon="2.37195">
        <ele>951.5</ele>
        <time>2019-01-07T22:26:38Z</time>
      </trkpt>
      <trkpt lat="42.31423" lon="2.37197">
        <ele>951.4</ele>
        <time>2019-01-07T22:26:39Z</time>
      </trkpt>
      <trkpt lat="42.31421" lon="2.372">
        <ele>951.2</ele>
        <time>2019-01-07T22:26:40Z</time>
      </trkpt>
      <trkpt lat="42.31419" lon="2.37202">
        <ele>951.1</ele>
        <time>2019-01-07T22:26:41Z</time>
      </trkpt>
      <trkpt lat="42.31417" lon="2.37204">
        <ele>951.1</ele>
        <time>2019-01-07T22:26:41Z</time>
      </trkpt>
      <trkpt lat="42.31416" lon="2.37205">
        <ele>951</ele>
        <time>2019-01-07T22:26:42Z</time>
      </trkpt>
    </trkseg>
  </trk>
</gpx>